<?xml version="1.0" encoding="UTF-8"?>
<gpx version="1.1" creator="https://www.youtrack.es" xsi:schemaLocation="http://www.topografix.com/GPX/1/1 http://www.topografix.com/GPX/1/1/gpx.xsd http://www.garmin.com/xmlschemas/GpxExtensions/v3 http://www.garmin.com/xmlschemas/GpxExtensionsv3.xsd http://www.garmin.com/xmlschemas/TrackPointExtension/v1 http://www.garmin.com/xmlschemas/TrackPointExtensionv1.xsd" xmlns:gpxtpx="http://www.garmin.com/xmlschemas/TrackPointExtension/v1" xmlns:gpxx="http://www.garmin.com/xmlschemas/GpxExtensions/v3" xmlns:xsi="http://www.w3.org/2001/XMLSchema-instance">
  <metadata>
    <link href="https://www.youtrack.es">
      <text>YouTrack.es</text>
    </link>
    <time>2026-05-08T20:34:13Z</time>
  </metadata>
  <trk>
    <src>https://www.youtrack.es</src>
    <link href="https://www.youtrack.es/ruta/6022-camino-de-santiago-portugues">
      <text>YouTrack.es</text>
    </link>
    <trkseg>
      <trkpt lat="38.70956667" lon="-9.13348833">
        <ele>39.0</ele>
        <time>2019-05-16T08:05:20.920Z</time>
      </trkpt>
      <trkpt lat="38.70956667" lon="-9.13348833">
        <ele>39.0</ele>
        <time>2019-05-16T08:05:21.910Z</time>
      </trkpt>
      <trkpt lat="38.70956667" lon="-9.13348833">
        <ele>39.0</ele>
        <time>2019-05-16T08:05:22.921Z</time>
      </trkpt>
      <trkpt lat="38.70956667" lon="-9.13348833">
        <ele>39.0</ele>
        <time>2019-05-16T08:05:23.936Z</time>
      </trkpt>
      <trkpt lat="38.70956667" lon="-9.13348833">
        <ele>39.0</ele>
        <time>2019-05-16T08:05:24.911Z</time>
      </trkpt>
      <trkpt lat="38.70956667" lon="-9.13348833">
        <ele>39.0</ele>
        <time>2019-05-16T08:05:25.919Z</time>
      </trkpt>
      <trkpt lat="38.70956667" lon="-9.13348833">
        <ele>39.0</ele>
        <time>2019-05-16T08:05:26.914Z</time>
      </trkpt>
      <trkpt lat="38.70956667" lon="-9.13348833">
        <ele>39.0</ele>
        <time>2019-05-16T08:05:27.917Z</time>
      </trkpt>
      <trkpt lat="38.70956667" lon="-9.13348833">
        <ele>39.0</ele>
        <time>2019-05-16T08:05:28.925Z</time>
      </trkpt>
      <trkpt lat="38.70956667" lon="-9.13348833">
        <ele>39.0</ele>
        <time>2019-05-16T08:05:29.920Z</time>
      </trkpt>
      <trkpt lat="38.70956667" lon="-9.13348833">
        <ele>39.0</ele>
        <time>2019-05-16T08:05:30.928Z</time>
      </trkpt>
      <trkpt lat="38.70956667" lon="-9.13348833">
        <ele>39.0</ele>
        <time>2019-05-16T08:05:31.921Z</time>
      </trkpt>
      <trkpt lat="38.70956667" lon="-9.13348833">
        <ele>39.0</ele>
        <time>2019-05-16T08:05:32.915Z</time>
      </trkpt>
      <trkpt lat="38.70956667" lon="-9.13348833">
        <ele>39.0</ele>
        <time>2019-05-16T08:05:33.922Z</time>
      </trkpt>
      <trkpt lat="38.70956667" lon="-9.13348833">
        <ele>39.0</ele>
        <time>2019-05-16T08:05:34.918Z</time>
      </trkpt>
      <trkpt lat="38.70956667" lon="-9.13348833">
        <ele>39.0</ele>
        <time>2019-05-16T08:05:35.931Z</time>
      </trkpt>
      <trkpt lat="38.70956667" lon="-9.13348833">
        <ele>39.0</ele>
        <time>2019-05-16T08:05:36.899Z</time>
      </trkpt>
      <trkpt lat="38.70956667" lon="-9.13348833">
        <ele>39.0</ele>
        <time>2019-05-16T08:05:37.916Z</time>
      </trkpt>
      <trkpt lat="38.70956667" lon="-9.13348833">
        <ele>39.0</ele>
        <time>2019-05-16T08:05:38.928Z</time>
      </trkpt>
      <trkpt lat="38.70956667" lon="-9.13348833">
        <ele>39.0</ele>
        <time>2019-05-16T08:05:39.918Z</time>
      </trkpt>
      <trkpt lat="38.70956667" lon="-9.13348833">
        <ele>39.0</ele>
        <time>2019-05-16T08:05:40.916Z</time>
      </trkpt>
      <trkpt lat="38.70956667" lon="-9.13348833">
        <ele>39.0</ele>
        <time>2019-05-16T08:05:41.915Z</time>
      </trkpt>
      <trkpt lat="38.70956667" lon="-9.13348833">
        <ele>39.0</ele>
        <time>2019-05-16T08:05:42.921Z</time>
      </trkpt>
      <trkpt lat="38.70956667" lon="-9.13348833">
        <ele>39.0</ele>
        <time>2019-05-16T08:05:43.914Z</time>
      </trkpt>
      <trkpt lat="38.70956667" lon="-9.13348833">
        <ele>39.0</ele>
        <time>2019-05-16T08:05:44.918Z</time>
      </trkpt>
      <trkpt lat="38.70956667" lon="-9.13348833">
        <ele>39.0</ele>
        <time>2019-05-16T08:05:45.918Z</time>
      </trkpt>
      <trkpt lat="38.70956667" lon="-9.13348833">
        <ele>39.0</ele>
        <time>2019-05-16T08:05:46.915Z</time>
      </trkpt>
      <trkpt lat="38.70956667" lon="-9.13348833">
        <ele>39.0</ele>
        <time>2019-05-16T08:05:47.915Z</time>
      </trkpt>
      <trkpt lat="38.70956667" lon="-9.13348833">
        <ele>39.0</ele>
        <time>2019-05-16T08:05:48.935Z</time>
      </trkpt>
      <trkpt lat="38.70956667" lon="-9.13348833">
        <ele>39.0</ele>
        <time>2019-05-16T08:05:49.900Z</time>
      </trkpt>
      <trkpt lat="38.70956667" lon="-9.13348833">
        <ele>39.0</ele>
        <time>2019-05-16T08:05:50.925Z</time>
      </trkpt>
      <trkpt lat="38.70956667" lon="-9.13348833">
        <ele>39.0</ele>
        <time>2019-05-16T08:05:51.915Z</time>
      </trkpt>
      <trkpt lat="38.70956667" lon="-9.13348833">
        <ele>39.0</ele>
        <time>2019-05-16T08:05:52.914Z</time>
      </trkpt>
      <trkpt lat="38.70956667" lon="-9.13348833">
        <ele>39.0</ele>
        <time>2019-05-16T08:05:53.917Z</time>
      </trkpt>
      <trkpt lat="38.70956667" lon="-9.13348833">
        <ele>39.0</ele>
        <time>2019-05-16T08:05:54.901Z</time>
      </trkpt>
      <trkpt lat="38.70956667" lon="-9.13348833">
        <ele>39.0</ele>
        <time>2019-05-16T08:05:55.897Z</time>
      </trkpt>
      <trkpt lat="38.70956667" lon="-9.13348833">
        <ele>39.0</ele>
        <time>2019-05-16T08:05:56.920Z</time>
      </trkpt>
      <trkpt lat="38.70956667" lon="-9.13348833">
        <ele>39.0</ele>
        <time>2019-05-16T08:05:57.920Z</time>
      </trkpt>
      <trkpt lat="38.70956667" lon="-9.13348833">
        <ele>39.0</ele>
        <time>2019-05-16T08:05:58.918Z</time>
      </trkpt>
      <trkpt lat="38.70956667" lon="-9.13348833">
        <ele>39.0</ele>
        <time>2019-05-16T08:05:59.919Z</time>
      </trkpt>
      <trkpt lat="38.70956667" lon="-9.13348833">
        <ele>39.0</ele>
        <time>2019-05-16T08:06:00.915Z</time>
      </trkpt>
      <trkpt lat="38.70956667" lon="-9.13348833">
        <ele>39.0</ele>
        <time>2019-05-16T08:06:01.917Z</time>
      </trkpt>
      <trkpt lat="38.70956667" lon="-9.13348833">
        <ele>39.0</ele>
        <time>2019-05-16T08:06:02.918Z</time>
      </trkpt>
      <trkpt lat="38.70956667" lon="-9.13348833">
        <ele>39.0</ele>
        <time>2019-05-16T08:06:03.918Z</time>
      </trkpt>
      <trkpt lat="38.70956667" lon="-9.13348833">
        <ele>39.0</ele>
        <time>2019-05-16T08:06:04.916Z</time>
      </trkpt>
      <trkpt lat="38.70956667" lon="-9.13348833">
        <ele>39.0</ele>
        <time>2019-05-16T08:06:05.927Z</time>
      </trkpt>
      <trkpt lat="38.70956667" lon="-9.13348833">
        <ele>39.0</ele>
        <time>2019-05-16T08:06:06.921Z</time>
      </trkpt>
      <trkpt lat="38.70956667" lon="-9.13348833">
        <ele>39.0</ele>
        <time>2019-05-16T08:06:07.935Z</time>
      </trkpt>
      <trkpt lat="38.70956667" lon="-9.13348833">
        <ele>39.0</ele>
        <time>2019-05-16T08:06:08.916Z</time>
      </trkpt>
      <trkpt lat="38.70956667" lon="-9.13348833">
        <ele>39.0</ele>
        <time>2019-05-16T08:06:09.919Z</time>
      </trkpt>
      <trkpt lat="38.70956667" lon="-9.13348833">
        <ele>39.0</ele>
        <time>2019-05-16T08:06:10.930Z</time>
      </trkpt>
      <trkpt lat="38.70956667" lon="-9.13348833">
        <ele>39.0</ele>
        <time>2019-05-16T08:06:11.915Z</time>
      </trkpt>
      <trkpt lat="38.70956667" lon="-9.13348833">
        <ele>39.0</ele>
        <time>2019-05-16T08:06:12.921Z</time>
      </trkpt>
      <trkpt lat="38.70956667" lon="-9.13348833">
        <ele>39.0</ele>
        <time>2019-05-16T08:06:13.914Z</time>
      </trkpt>
      <trkpt lat="38.70956667" lon="-9.13348833">
        <ele>39.0</ele>
        <time>2019-05-16T08:06:14.919Z</time>
      </trkpt>
      <trkpt lat="38.70956667" lon="-9.13348833">
        <ele>39.0</ele>
        <time>2019-05-16T08:06:15.913Z</time>
      </trkpt>
      <trkpt lat="38.70956667" lon="-9.13348833">
        <ele>39.0</ele>
        <time>2019-05-16T08:06:16.917Z</time>
      </trkpt>
      <trkpt lat="38.70956667" lon="-9.13348833">
        <ele>39.0</ele>
        <time>2019-05-16T08:06:17.916Z</time>
      </trkpt>
      <trkpt lat="38.70956667" lon="-9.13348833">
        <ele>39.0</ele>
        <time>2019-05-16T08:06:18.933Z</time>
      </trkpt>
      <trkpt lat="38.70956667" lon="-9.13348833">
        <ele>39.0</ele>
        <time>2019-05-16T08:06:19.918Z</time>
      </trkpt>
      <trkpt lat="38.70956667" lon="-9.13348833">
        <ele>39.0</ele>
        <time>2019-05-16T08:06:20.932Z</time>
      </trkpt>
      <trkpt lat="38.70956667" lon="-9.13348833">
        <ele>39.0</ele>
        <time>2019-05-16T08:06:21.918Z</time>
      </trkpt>
      <trkpt lat="38.70956667" lon="-9.13348833">
        <ele>39.0</ele>
        <time>2019-05-16T08:06:22.913Z</time>
      </trkpt>
      <trkpt lat="38.70956667" lon="-9.13348833">
        <ele>39.0</ele>
        <time>2019-05-16T08:06:23.934Z</time>
      </trkpt>
      <trkpt lat="38.70956667" lon="-9.13348833">
        <ele>39.0</ele>
        <time>2019-05-16T08:06:24.917Z</time>
      </trkpt>
      <trkpt lat="38.70956667" lon="-9.13348833">
        <ele>39.0</ele>
        <time>2019-05-16T08:06:25.918Z</time>
      </trkpt>
      <trkpt lat="38.70956667" lon="-9.13348833">
        <ele>39.0</ele>
        <time>2019-05-16T08:06:26.910Z</time>
      </trkpt>
      <trkpt lat="38.70956667" lon="-9.13348833">
        <ele>39.0</ele>
        <time>2019-05-16T08:06:27.932Z</time>
      </trkpt>
      <trkpt lat="38.70956667" lon="-9.13348833">
        <ele>39.0</ele>
        <time>2019-05-16T08:06:28.916Z</time>
      </trkpt>
      <trkpt lat="38.70956667" lon="-9.13348833">
        <ele>39.0</ele>
        <time>2019-05-16T08:06:29.898Z</time>
      </trkpt>
      <trkpt lat="38.70956667" lon="-9.13348833">
        <ele>39.0</ele>
        <time>2019-05-16T08:06:30.921Z</time>
      </trkpt>
      <trkpt lat="38.70956667" lon="-9.13348833">
        <ele>39.0</ele>
        <time>2019-05-16T08:06:31.918Z</time>
      </trkpt>
      <trkpt lat="38.70956667" lon="-9.13348833">
        <ele>39.0</ele>
        <time>2019-05-16T08:06:32.915Z</time>
      </trkpt>
      <trkpt lat="38.70956667" lon="-9.13348833">
        <ele>39.0</ele>
        <time>2019-05-16T08:06:33.897Z</time>
      </trkpt>
      <trkpt lat="38.70956667" lon="-9.13348833">
        <ele>39.0</ele>
        <time>2019-05-16T08:06:34.919Z</time>
      </trkpt>
      <trkpt lat="38.70956667" lon="-9.13348833">
        <ele>39.0</ele>
        <time>2019-05-16T08:06:35.913Z</time>
      </trkpt>
      <trkpt lat="38.70956667" lon="-9.13348833">
        <ele>39.0</ele>
        <time>2019-05-16T08:06:36.936Z</time>
      </trkpt>
      <trkpt lat="38.70956667" lon="-9.13348833">
        <ele>39.0</ele>
        <time>2019-05-16T08:06:37.920Z</time>
      </trkpt>
      <trkpt lat="38.70956667" lon="-9.13348833">
        <ele>39.0</ele>
        <time>2019-05-16T08:06:38.919Z</time>
      </trkpt>
      <trkpt lat="38.70956667" lon="-9.13348833">
        <ele>39.0</ele>
        <time>2019-05-16T08:06:39.919Z</time>
      </trkpt>
      <trkpt lat="38.70956667" lon="-9.13348833">
        <ele>39.0</ele>
        <time>2019-05-16T08:06:40.936Z</time>
      </trkpt>
      <trkpt lat="38.70956667" lon="-9.13348833">
        <ele>39.0</ele>
        <time>2019-05-16T08:06:41.919Z</time>
      </trkpt>
      <trkpt lat="38.70956667" lon="-9.13348833">
        <ele>39.0</ele>
        <time>2019-05-16T08:06:42.915Z</time>
      </trkpt>
      <trkpt lat="38.70956667" lon="-9.13348833">
        <ele>39.0</ele>
        <time>2019-05-16T08:06:43.921Z</time>
      </trkpt>
      <trkpt lat="38.70956667" lon="-9.13348833">
        <ele>39.0</ele>
        <time>2019-05-16T08:06:44.914Z</time>
      </trkpt>
      <trkpt lat="38.70956667" lon="-9.13348833">
        <ele>39.0</ele>
        <time>2019-05-16T08:06:45.920Z</time>
      </trkpt>
      <trkpt lat="38.70956667" lon="-9.13348833">
        <ele>39.0</ele>
        <time>2019-05-16T08:06:46.913Z</time>
      </trkpt>
      <trkpt lat="38.70956667" lon="-9.13348833">
        <ele>39.0</ele>
        <time>2019-05-16T08:06:47.916Z</time>
      </trkpt>
      <trkpt lat="38.70956667" lon="-9.13348833">
        <ele>39.0</ele>
        <time>2019-05-16T08:06:48.934Z</time>
      </trkpt>
      <trkpt lat="38.70956667" lon="-9.13348833">
        <ele>39.0</ele>
        <time>2019-05-16T08:06:49.919Z</time>
      </trkpt>
      <trkpt lat="38.70956667" lon="-9.13348833">
        <ele>39.0</ele>
        <time>2019-05-16T08:06:50.913Z</time>
      </trkpt>
      <trkpt lat="38.70956667" lon="-9.13348833">
        <ele>39.0</ele>
        <time>2019-05-16T08:06:51.916Z</time>
      </trkpt>
      <trkpt lat="38.70956667" lon="-9.13348833">
        <ele>39.0</ele>
        <time>2019-05-16T08:06:52.917Z</time>
      </trkpt>
      <trkpt lat="38.70956667" lon="-9.13348833">
        <ele>39.0</ele>
        <time>2019-05-16T08:06:53.913Z</time>
      </trkpt>
      <trkpt lat="38.70956667" lon="-9.13348833">
        <ele>39.0</ele>
        <time>2019-05-16T08:06:54.900Z</time>
      </trkpt>
      <trkpt lat="38.70956667" lon="-9.13348833">
        <ele>39.0</ele>
        <time>2019-05-16T08:06:55.923Z</time>
      </trkpt>
      <trkpt lat="38.70956667" lon="-9.13348833">
        <ele>39.0</ele>
        <time>2019-05-16T08:06:56.913Z</time>
      </trkpt>
      <trkpt lat="38.70956667" lon="-9.13348833">
        <ele>39.0</ele>
        <time>2019-05-16T08:06:57.915Z</time>
      </trkpt>
      <trkpt lat="38.70956667" lon="-9.13348833">
        <ele>39.0</ele>
        <time>2019-05-16T08:06:58.931Z</time>
      </trkpt>
      <trkpt lat="38.70956667" lon="-9.13348833">
        <ele>39.0</ele>
        <time>2019-05-16T08:06:59.918Z</time>
      </trkpt>
      <trkpt lat="38.70956667" lon="-9.13348833">
        <ele>39.0</ele>
        <time>2019-05-16T08:07:00.915Z</time>
      </trkpt>
      <trkpt lat="38.70956667" lon="-9.13348833">
        <ele>39.0</ele>
        <time>2019-05-16T08:07:01.897Z</time>
      </trkpt>
      <trkpt lat="38.70956667" lon="-9.13348833">
        <ele>39.0</ele>
        <time>2019-05-16T08:07:02.919Z</time>
      </trkpt>
      <trkpt lat="38.70956667" lon="-9.13348833">
        <ele>39.0</ele>
        <time>2019-05-16T08:07:03.916Z</time>
      </trkpt>
      <trkpt lat="38.70956667" lon="-9.13348833">
        <ele>39.0</ele>
        <time>2019-05-16T08:07:04.918Z</time>
      </trkpt>
      <trkpt lat="38.70956667" lon="-9.13348833">
        <ele>39.0</ele>
        <time>2019-05-16T08:07:05.913Z</time>
      </trkpt>
      <trkpt lat="38.70956667" lon="-9.13348833">
        <ele>39.0</ele>
        <time>2019-05-16T08:07:06.936Z</time>
      </trkpt>
      <trkpt lat="38.70956667" lon="-9.13348833">
        <ele>39.0</ele>
        <time>2019-05-16T08:07:07.930Z</time>
      </trkpt>
      <trkpt lat="38.70956667" lon="-9.13348833">
        <ele>39.0</ele>
        <time>2019-05-16T08:07:08.918Z</time>
      </trkpt>
      <trkpt lat="38.70956667" lon="-9.13348833">
        <ele>39.0</ele>
        <time>2019-05-16T08:07:09.918Z</time>
      </trkpt>
      <trkpt lat="38.70956667" lon="-9.13348833">
        <ele>39.0</ele>
        <time>2019-05-16T08:07:10.913Z</time>
      </trkpt>
      <trkpt lat="38.70956667" lon="-9.13348833">
        <ele>39.0</ele>
        <time>2019-05-16T08:07:11.900Z</time>
      </trkpt>
      <trkpt lat="38.70956667" lon="-9.13348833">
        <ele>39.0</ele>
        <time>2019-05-16T08:07:12.921Z</time>
      </trkpt>
      <trkpt lat="38.70956667" lon="-9.13348833">
        <ele>39.0</ele>
        <time>2019-05-16T08:07:13.918Z</time>
      </trkpt>
      <trkpt lat="38.70956667" lon="-9.13348833">
        <ele>39.0</ele>
        <time>2019-05-16T08:07:14.913Z</time>
      </trkpt>
      <trkpt lat="38.70956667" lon="-9.13348833">
        <ele>39.0</ele>
        <time>2019-05-16T08:07:15.916Z</time>
      </trkpt>
      <trkpt lat="38.70956667" lon="-9.13348833">
        <ele>39.0</ele>
        <time>2019-05-16T08:07:16.913Z</time>
      </trkpt>
      <trkpt lat="38.70956667" lon="-9.13348833">
        <ele>39.0</ele>
        <time>2019-05-16T08:07:17.918Z</time>
      </trkpt>
      <trkpt lat="38.70956667" lon="-9.13348833">
        <ele>39.0</ele>
        <time>2019-05-16T08:07:18.921Z</time>
      </trkpt>
      <trkpt lat="38.70956667" lon="-9.13348833">
        <ele>39.0</ele>
        <time>2019-05-16T08:07:19.898Z</time>
      </trkpt>
      <trkpt lat="38.70956667" lon="-9.13348833">
        <ele>39.0</ele>
        <time>2019-05-16T08:07:20.919Z</time>
      </trkpt>
      <trkpt lat="38.70956667" lon="-9.13348833">
        <ele>39.0</ele>
        <time>2019-05-16T08:07:21.918Z</time>
      </trkpt>
      <trkpt lat="38.70956667" lon="-9.13348833">
        <ele>39.0</ele>
        <time>2019-05-16T08:07:22.913Z</time>
      </trkpt>
      <trkpt lat="38.70956667" lon="-9.13348833">
        <ele>39.0</ele>
        <time>2019-05-16T08:07:23.908Z</time>
      </trkpt>
      <trkpt lat="38.70956667" lon="-9.13348833">
        <ele>39.0</ele>
        <time>2019-05-16T08:07:24.931Z</time>
      </trkpt>
      <trkpt lat="38.70956667" lon="-9.13348833">
        <ele>39.0</ele>
        <time>2019-05-16T08:07:25.927Z</time>
      </trkpt>
      <trkpt lat="38.70956667" lon="-9.13348833">
        <ele>39.0</ele>
        <time>2019-05-16T08:07:26.913Z</time>
      </trkpt>
      <trkpt lat="38.70956667" lon="-9.13348833">
        <ele>39.0</ele>
        <time>2019-05-16T08:07:27.920Z</time>
      </trkpt>
      <trkpt lat="38.70956667" lon="-9.13348833">
        <ele>39.0</ele>
        <time>2019-05-16T08:07:28.897Z</time>
      </trkpt>
      <trkpt lat="38.70956667" lon="-9.13348833">
        <ele>39.0</ele>
        <time>2019-05-16T08:07:29.920Z</time>
      </trkpt>
      <trkpt lat="38.70956667" lon="-9.13348833">
        <ele>39.0</ele>
        <time>2019-05-16T08:07:30.921Z</time>
      </trkpt>
      <trkpt lat="38.70956667" lon="-9.13348833">
        <ele>39.0</ele>
        <time>2019-05-16T08:07:31.918Z</time>
      </trkpt>
      <trkpt lat="38.70956667" lon="-9.13348833">
        <ele>39.0</ele>
        <time>2019-05-16T08:07:32.913Z</time>
      </trkpt>
      <trkpt lat="38.70956667" lon="-9.13348833">
        <ele>39.0</ele>
        <time>2019-05-16T08:07:33.935Z</time>
      </trkpt>
      <trkpt lat="38.70956667" lon="-9.13348833">
        <ele>39.0</ele>
        <time>2019-05-16T08:07:34.918Z</time>
      </trkpt>
      <trkpt lat="38.70960333" lon="-9.13351167">
        <ele>28.0</ele>
        <time>2019-05-16T08:07:35.918Z</time>
      </trkpt>
      <trkpt lat="38.709605" lon="-9.133505">
        <ele>28.0</ele>
        <time>2019-05-16T08:07:36.921Z</time>
      </trkpt>
      <trkpt lat="38.70961167" lon="-9.13349167">
        <ele>28.0</ele>
        <time>2019-05-16T08:07:37.946Z</time>
      </trkpt>
      <trkpt lat="38.70961167" lon="-9.13349167">
        <ele>28.0</ele>
        <time>2019-05-16T08:07:38.915Z</time>
      </trkpt>
      <trkpt lat="38.709615" lon="-9.13346833">
        <ele>28.0</ele>
        <time>2019-05-16T08:07:39.922Z</time>
      </trkpt>
      <trkpt lat="38.70961167" lon="-9.13346167">
        <ele>28.0</ele>
        <time>2019-05-16T08:07:40.900Z</time>
      </trkpt>
      <trkpt lat="38.70961167" lon="-9.13346167">
        <ele>28.0</ele>
        <time>2019-05-16T08:07:41.914Z</time>
      </trkpt>
      <trkpt lat="38.70960167" lon="-9.13344333">
        <ele>29.0</ele>
        <time>2019-05-16T08:07:42.931Z</time>
      </trkpt>
      <trkpt lat="38.70960167" lon="-9.13344333">
        <ele>29.0</ele>
        <time>2019-05-16T08:07:43.907Z</time>
      </trkpt>
      <trkpt lat="38.70959833" lon="-9.13341667">
        <ele>29.0</ele>
        <time>2019-05-16T08:07:44.920Z</time>
      </trkpt>
      <trkpt lat="38.70959833" lon="-9.13341667">
        <ele>29.0</ele>
        <time>2019-05-16T08:07:45.927Z</time>
      </trkpt>
      <trkpt lat="38.70960167" lon="-9.13339333">
        <ele>30.0</ele>
        <time>2019-05-16T08:07:46.933Z</time>
      </trkpt>
      <trkpt lat="38.70960167" lon="-9.13339333">
        <ele>30.0</ele>
        <time>2019-05-16T08:07:47.907Z</time>
      </trkpt>
      <trkpt lat="38.70961" lon="-9.13338">
        <ele>30.0</ele>
        <time>2019-05-16T08:07:48.920Z</time>
      </trkpt>
      <trkpt lat="38.70961" lon="-9.13338">
        <ele>30.0</ele>
        <time>2019-05-16T08:07:49.916Z</time>
      </trkpt>
      <trkpt lat="38.70960833" lon="-9.13337667">
        <ele>30.0</ele>
        <time>2019-05-16T08:07:50.905Z</time>
      </trkpt>
      <trkpt lat="38.70960833" lon="-9.13337667">
        <ele>30.0</ele>
        <time>2019-05-16T08:07:51.928Z</time>
      </trkpt>
      <trkpt lat="38.70961167" lon="-9.13335833">
        <ele>31.0</ele>
        <time>2019-05-16T08:07:52.934Z</time>
      </trkpt>
      <trkpt lat="38.70961167" lon="-9.13335833">
        <ele>31.0</ele>
        <time>2019-05-16T08:07:53.913Z</time>
      </trkpt>
      <trkpt lat="38.70961167" lon="-9.13333333">
        <ele>31.0</ele>
        <time>2019-05-16T08:07:54.919Z</time>
      </trkpt>
      <trkpt lat="38.70961167" lon="-9.13333333">
        <ele>31.0</ele>
        <time>2019-05-16T08:07:55.906Z</time>
      </trkpt>
      <trkpt lat="38.709605" lon="-9.13330333">
        <ele>31.0</ele>
        <time>2019-05-16T08:07:56.919Z</time>
      </trkpt>
      <trkpt lat="38.709605" lon="-9.13330333">
        <ele>31.0</ele>
        <time>2019-05-16T08:07:57.916Z</time>
      </trkpt>
      <trkpt lat="38.70959667" lon="-9.133275">
        <ele>32.0</ele>
        <time>2019-05-16T08:07:58.912Z</time>
      </trkpt>
      <trkpt lat="38.709595" lon="-9.13326">
        <ele>32.0</ele>
        <time>2019-05-16T08:07:59.928Z</time>
      </trkpt>
      <trkpt lat="38.709595" lon="-9.13326">
        <ele>32.0</ele>
        <time>2019-05-16T08:08:00.898Z</time>
      </trkpt>
      <trkpt lat="38.70959167" lon="-9.13323167">
        <ele>33.0</ele>
        <time>2019-05-16T08:08:01.915Z</time>
      </trkpt>
      <trkpt lat="38.70959167" lon="-9.13323167">
        <ele>33.0</ele>
        <time>2019-05-16T08:08:02.922Z</time>
      </trkpt>
      <trkpt lat="38.70958667" lon="-9.133205">
        <ele>33.0</ele>
        <time>2019-05-16T08:08:03.941Z</time>
      </trkpt>
      <trkpt lat="38.70958333" lon="-9.13318833">
        <ele>34.0</ele>
        <time>2019-05-16T08:08:04.927Z</time>
      </trkpt>
      <trkpt lat="38.70958333" lon="-9.13318833">
        <ele>34.0</ele>
        <time>2019-05-16T08:08:05.910Z</time>
      </trkpt>
      <trkpt lat="38.70957667" lon="-9.13315667">
        <ele>34.0</ele>
        <time>2019-05-16T08:08:06.923Z</time>
      </trkpt>
      <trkpt lat="38.70957667" lon="-9.13315667">
        <ele>34.0</ele>
        <time>2019-05-16T08:08:07.935Z</time>
      </trkpt>
      <trkpt lat="38.70956667" lon="-9.13313">
        <ele>35.0</ele>
        <time>2019-05-16T08:08:08.913Z</time>
      </trkpt>
      <trkpt lat="38.709565" lon="-9.133115">
        <ele>36.0</ele>
        <time>2019-05-16T08:08:09.897Z</time>
      </trkpt>
      <trkpt lat="38.709565" lon="-9.133115">
        <ele>36.0</ele>
        <time>2019-05-16T08:08:10.910Z</time>
      </trkpt>
      <trkpt lat="38.709565" lon="-9.133085">
        <ele>36.0</ele>
        <time>2019-05-16T08:08:11.920Z</time>
      </trkpt>
      <trkpt lat="38.709565" lon="-9.133085">
        <ele>36.0</ele>
        <time>2019-05-16T08:08:12.922Z</time>
      </trkpt>
      <trkpt lat="38.709575" lon="-9.13305333">
        <ele>37.0</ele>
        <time>2019-05-16T08:08:13.934Z</time>
      </trkpt>
      <trkpt lat="38.709575" lon="-9.13305333">
        <ele>37.0</ele>
        <time>2019-05-16T08:08:14.906Z</time>
      </trkpt>
      <trkpt lat="38.70958333" lon="-9.13302333">
        <ele>38.0</ele>
        <time>2019-05-16T08:08:15.915Z</time>
      </trkpt>
      <trkpt lat="38.70958333" lon="-9.13302333">
        <ele>38.0</ele>
        <time>2019-05-16T08:08:16.898Z</time>
      </trkpt>
      <trkpt lat="38.70958333" lon="-9.13302333">
        <ele>38.0</ele>
        <time>2019-05-16T08:08:17.909Z</time>
      </trkpt>
      <trkpt lat="38.70958833" lon="-9.13297667">
        <ele>38.0</ele>
        <time>2019-05-16T08:08:18.898Z</time>
      </trkpt>
      <trkpt lat="38.70958833" lon="-9.13297667">
        <ele>38.0</ele>
        <time>2019-05-16T08:08:19.905Z</time>
      </trkpt>
      <trkpt lat="38.7096" lon="-9.13294167">
        <ele>39.0</ele>
        <time>2019-05-16T08:08:20.925Z</time>
      </trkpt>
      <trkpt lat="38.7096" lon="-9.13294167">
        <ele>39.0</ele>
        <time>2019-05-16T08:08:21.932Z</time>
      </trkpt>
      <trkpt lat="38.70961" lon="-9.132905">
        <ele>39.0</ele>
        <time>2019-05-16T08:08:22.899Z</time>
      </trkpt>
      <trkpt lat="38.70961" lon="-9.132905">
        <ele>39.0</ele>
        <time>2019-05-16T08:08:23.913Z</time>
      </trkpt>
      <trkpt lat="38.70962333" lon="-9.13287667">
        <ele>39.0</ele>
        <time>2019-05-16T08:08:24.900Z</time>
      </trkpt>
      <trkpt lat="38.70962333" lon="-9.13287667">
        <ele>39.0</ele>
        <time>2019-05-16T08:08:25.917Z</time>
      </trkpt>
      <trkpt lat="38.70962167" lon="-9.13285333">
        <ele>40.0</ele>
        <time>2019-05-16T08:08:27.010Z</time>
      </trkpt>
      <trkpt lat="38.70962167" lon="-9.13285333">
        <ele>40.0</ele>
        <time>2019-05-16T08:08:27.905Z</time>
      </trkpt>
      <trkpt lat="38.70962167" lon="-9.13283333">
        <ele>40.0</ele>
        <time>2019-05-16T08:08:28.917Z</time>
      </trkpt>
      <trkpt lat="38.70962167" lon="-9.13282333">
        <ele>40.0</ele>
        <time>2019-05-16T08:08:29.910Z</time>
      </trkpt>
      <trkpt lat="38.70962167" lon="-9.13282333">
        <ele>40.0</ele>
        <time>2019-05-16T08:08:30.934Z</time>
      </trkpt>
      <trkpt lat="38.70962167" lon="-9.13279833">
        <ele>40.0</ele>
        <time>2019-05-16T08:08:31.913Z</time>
      </trkpt>
      <trkpt lat="38.70962167" lon="-9.13279833">
        <ele>40.0</ele>
        <time>2019-05-16T08:08:32.924Z</time>
      </trkpt>
      <trkpt lat="38.70962" lon="-9.13277333">
        <ele>41.0</ele>
        <time>2019-05-16T08:08:33.898Z</time>
      </trkpt>
      <trkpt lat="38.70962" lon="-9.13277333">
        <ele>41.0</ele>
        <time>2019-05-16T08:08:34.913Z</time>
      </trkpt>
      <trkpt lat="38.70961667" lon="-9.13274833">
        <ele>41.0</ele>
        <time>2019-05-16T08:08:35.922Z</time>
      </trkpt>
      <trkpt lat="38.70961833" lon="-9.13273833">
        <ele>41.0</ele>
        <time>2019-05-16T08:08:36.923Z</time>
      </trkpt>
      <trkpt lat="38.70961833" lon="-9.13273833">
        <ele>41.0</ele>
        <time>2019-05-16T08:08:37.905Z</time>
      </trkpt>
      <trkpt lat="38.70961167" lon="-9.13271">
        <ele>41.0</ele>
        <time>2019-05-16T08:08:38.920Z</time>
      </trkpt>
      <trkpt lat="38.70961167" lon="-9.13271">
        <ele>41.0</ele>
        <time>2019-05-16T08:08:39.909Z</time>
      </trkpt>
      <trkpt lat="38.70960167" lon="-9.13268">
        <ele>41.0</ele>
        <time>2019-05-16T08:08:40.897Z</time>
      </trkpt>
      <trkpt lat="38.70960167" lon="-9.13268">
        <ele>41.0</ele>
        <time>2019-05-16T08:08:41.920Z</time>
      </trkpt>
      <trkpt lat="38.70959" lon="-9.13264167">
        <ele>41.0</ele>
        <time>2019-05-16T08:08:42.929Z</time>
      </trkpt>
      <trkpt lat="38.70959" lon="-9.13264167">
        <ele>41.0</ele>
        <time>2019-05-16T08:08:43.909Z</time>
      </trkpt>
      <trkpt lat="38.70958167" lon="-9.13261">
        <ele>41.0</ele>
        <time>2019-05-16T08:08:44.919Z</time>
      </trkpt>
      <trkpt lat="38.70958167" lon="-9.132595">
        <ele>41.0</ele>
        <time>2019-05-16T08:08:45.914Z</time>
      </trkpt>
      <trkpt lat="38.70958167" lon="-9.132595">
        <ele>41.0</ele>
        <time>2019-05-16T08:08:46.936Z</time>
      </trkpt>
      <trkpt lat="38.70957667" lon="-9.13255667">
        <ele>41.0</ele>
        <time>2019-05-16T08:08:47.906Z</time>
      </trkpt>
      <trkpt lat="38.70957333" lon="-9.13254167">
        <ele>41.0</ele>
        <time>2019-05-16T08:08:48.921Z</time>
      </trkpt>
      <trkpt lat="38.70957333" lon="-9.13254167">
        <ele>41.0</ele>
        <time>2019-05-16T08:08:49.934Z</time>
      </trkpt>
      <trkpt lat="38.70956333" lon="-9.132515">
        <ele>41.0</ele>
        <time>2019-05-16T08:08:50.924Z</time>
      </trkpt>
      <trkpt lat="38.70956333" lon="-9.132515">
        <ele>41.0</ele>
        <time>2019-05-16T08:08:51.912Z</time>
      </trkpt>
      <trkpt lat="38.709555" lon="-9.13249333">
        <ele>41.0</ele>
        <time>2019-05-16T08:08:52.924Z</time>
      </trkpt>
      <trkpt lat="38.70955333" lon="-9.132485">
        <ele>42.0</ele>
        <time>2019-05-16T08:08:53.916Z</time>
      </trkpt>
      <trkpt lat="38.70955" lon="-9.132475">
        <ele>42.0</ele>
        <time>2019-05-16T08:08:54.939Z</time>
      </trkpt>
      <trkpt lat="38.70955" lon="-9.132475">
        <ele>42.0</ele>
        <time>2019-05-16T08:08:55.917Z</time>
      </trkpt>
      <trkpt lat="38.709545" lon="-9.132455">
        <ele>42.0</ele>
        <time>2019-05-16T08:08:56.926Z</time>
      </trkpt>
      <trkpt lat="38.709545" lon="-9.132455">
        <ele>42.0</ele>
        <time>2019-05-16T08:08:57.906Z</time>
      </trkpt>
      <trkpt lat="38.70954667" lon="-9.13243167">
        <ele>42.0</ele>
        <time>2019-05-16T08:08:58.932Z</time>
      </trkpt>
      <trkpt lat="38.70954667" lon="-9.13243167">
        <ele>42.0</ele>
        <time>2019-05-16T08:08:59.930Z</time>
      </trkpt>
      <trkpt lat="38.70953333" lon="-9.13240167">
        <ele>43.0</ele>
        <time>2019-05-16T08:09:00.900Z</time>
      </trkpt>
      <trkpt lat="38.70953333" lon="-9.13240167">
        <ele>43.0</ele>
        <time>2019-05-16T08:09:01.921Z</time>
      </trkpt>
      <trkpt lat="38.7095" lon="-9.13233">
        <ele>41.0</ele>
        <time>2019-05-16T08:09:02.932Z</time>
      </trkpt>
      <trkpt lat="38.7095" lon="-9.13233">
        <ele>41.0</ele>
        <time>2019-05-16T08:09:03.926Z</time>
      </trkpt>
      <trkpt lat="38.70948167" lon="-9.13228333">
        <ele>41.0</ele>
        <time>2019-05-16T08:09:04.931Z</time>
      </trkpt>
      <trkpt lat="38.70948167" lon="-9.13228333">
        <ele>41.0</ele>
        <time>2019-05-16T08:09:05.932Z</time>
      </trkpt>
      <trkpt lat="38.70947667" lon="-9.13224833">
        <ele>40.0</ele>
        <time>2019-05-16T08:09:06.902Z</time>
      </trkpt>
      <trkpt lat="38.70947667" lon="-9.13224833">
        <ele>40.0</ele>
        <time>2019-05-16T08:09:07.922Z</time>
      </trkpt>
      <trkpt lat="38.70946833" lon="-9.13223">
        <ele>40.0</ele>
        <time>2019-05-16T08:09:08.922Z</time>
      </trkpt>
      <trkpt lat="38.70946833" lon="-9.13223">
        <ele>40.0</ele>
        <time>2019-05-16T08:09:09.921Z</time>
      </trkpt>
      <trkpt lat="38.70945667" lon="-9.13221333">
        <ele>40.0</ele>
        <time>2019-05-16T08:09:10.930Z</time>
      </trkpt>
      <trkpt lat="38.70945667" lon="-9.13221333">
        <ele>40.0</ele>
        <time>2019-05-16T08:09:11.906Z</time>
      </trkpt>
      <trkpt lat="38.70945167" lon="-9.13220167">
        <ele>39.0</ele>
        <time>2019-05-16T08:09:12.913Z</time>
      </trkpt>
      <trkpt lat="38.70945167" lon="-9.13220167">
        <ele>39.0</ele>
        <time>2019-05-16T08:09:13.923Z</time>
      </trkpt>
      <trkpt lat="38.70945333" lon="-9.13219833">
        <ele>39.0</ele>
        <time>2019-05-16T08:09:14.930Z</time>
      </trkpt>
      <trkpt lat="38.70945333" lon="-9.13219833">
        <ele>39.0</ele>
        <time>2019-05-16T08:09:15.897Z</time>
      </trkpt>
      <trkpt lat="38.70945333" lon="-9.13219833">
        <ele>39.0</ele>
        <time>2019-05-16T08:09:16.919Z</time>
      </trkpt>
      <trkpt lat="38.70945333" lon="-9.13219833">
        <ele>39.0</ele>
        <time>2019-05-16T08:09:17.931Z</time>
      </trkpt>
      <trkpt lat="38.70946" lon="-9.13217833">
        <ele>38.0</ele>
        <time>2019-05-16T08:09:18.921Z</time>
      </trkpt>
      <trkpt lat="38.70946" lon="-9.13217833">
        <ele>38.0</ele>
        <time>2019-05-16T08:09:19.913Z</time>
      </trkpt>
      <trkpt lat="38.70946167" lon="-9.13216833">
        <ele>38.0</ele>
        <time>2019-05-16T08:09:20.929Z</time>
      </trkpt>
      <trkpt lat="38.70946167" lon="-9.13216833">
        <ele>38.0</ele>
        <time>2019-05-16T08:09:21.919Z</time>
      </trkpt>
      <trkpt lat="38.70946167" lon="-9.13216833">
        <ele>38.0</ele>
        <time>2019-05-16T08:09:22.934Z</time>
      </trkpt>
      <trkpt lat="38.70946167" lon="-9.13216833">
        <ele>38.0</ele>
        <time>2019-05-16T08:09:23.921Z</time>
      </trkpt>
      <trkpt lat="38.70946167" lon="-9.13216833">
        <ele>38.0</ele>
        <time>2019-05-16T08:09:24.921Z</time>
      </trkpt>
      <trkpt lat="38.70946167" lon="-9.13216833">
        <ele>38.0</ele>
        <time>2019-05-16T08:09:25.914Z</time>
      </trkpt>
      <trkpt lat="38.709495" lon="-9.13211333">
        <ele>38.0</ele>
        <time>2019-05-16T08:09:26.921Z</time>
      </trkpt>
      <trkpt lat="38.709495" lon="-9.13211333">
        <ele>38.0</ele>
        <time>2019-05-16T08:09:27.914Z</time>
      </trkpt>
      <trkpt lat="38.7095" lon="-9.13209">
        <ele>38.0</ele>
        <time>2019-05-16T08:09:28.897Z</time>
      </trkpt>
      <trkpt lat="38.7095" lon="-9.13209">
        <ele>38.0</ele>
        <time>2019-05-16T08:09:29.922Z</time>
      </trkpt>
      <trkpt lat="38.70949667" lon="-9.13207333">
        <ele>37.0</ele>
        <time>2019-05-16T08:09:30.937Z</time>
      </trkpt>
      <trkpt lat="38.70949667" lon="-9.13207333">
        <ele>37.0</ele>
        <time>2019-05-16T08:09:31.925Z</time>
      </trkpt>
      <trkpt lat="38.70948833" lon="-9.13205167">
        <ele>37.0</ele>
        <time>2019-05-16T08:09:32.932Z</time>
      </trkpt>
      <trkpt lat="38.70948833" lon="-9.13205167">
        <ele>37.0</ele>
        <time>2019-05-16T08:09:33.909Z</time>
      </trkpt>
      <trkpt lat="38.709485" lon="-9.13205">
        <ele>37.0</ele>
        <time>2019-05-16T08:09:34.919Z</time>
      </trkpt>
      <trkpt lat="38.709485" lon="-9.13205">
        <ele>37.0</ele>
        <time>2019-05-16T08:09:35.908Z</time>
      </trkpt>
      <trkpt lat="38.70949333" lon="-9.13204667">
        <ele>37.0</ele>
        <time>2019-05-16T08:09:36.918Z</time>
      </trkpt>
      <trkpt lat="38.70949333" lon="-9.13204667">
        <ele>37.0</ele>
        <time>2019-05-16T08:09:37.934Z</time>
      </trkpt>
      <trkpt lat="38.70949333" lon="-9.13204333">
        <ele>37.0</ele>
        <time>2019-05-16T08:09:38.899Z</time>
      </trkpt>
      <trkpt lat="38.70949333" lon="-9.13204333">
        <ele>37.0</ele>
        <time>2019-05-16T08:09:39.906Z</time>
      </trkpt>
      <trkpt lat="38.70949333" lon="-9.13204333">
        <ele>37.0</ele>
        <time>2019-05-16T08:09:40.919Z</time>
      </trkpt>
      <trkpt lat="38.70949333" lon="-9.13204333">
        <ele>37.0</ele>
        <time>2019-05-16T08:09:41.910Z</time>
      </trkpt>
      <trkpt lat="38.70949333" lon="-9.13204333">
        <ele>37.0</ele>
        <time>2019-05-16T08:09:42.928Z</time>
      </trkpt>
      <trkpt lat="38.70949333" lon="-9.13204333">
        <ele>37.0</ele>
        <time>2019-05-16T08:09:43.918Z</time>
      </trkpt>
      <trkpt lat="38.70949333" lon="-9.13204333">
        <ele>37.0</ele>
        <time>2019-05-16T08:09:44.916Z</time>
      </trkpt>
      <trkpt lat="38.70949333" lon="-9.13204333">
        <ele>37.0</ele>
        <time>2019-05-16T08:09:45.919Z</time>
      </trkpt>
      <trkpt lat="38.70949333" lon="-9.13204333">
        <ele>37.0</ele>
        <time>2019-05-16T08:09:46.920Z</time>
      </trkpt>
      <trkpt lat="38.70949333" lon="-9.13204333">
        <ele>37.0</ele>
        <time>2019-05-16T08:09:47.919Z</time>
      </trkpt>
      <trkpt lat="38.70949333" lon="-9.13204333">
        <ele>37.0</ele>
        <time>2019-05-16T08:09:48.922Z</time>
      </trkpt>
      <trkpt lat="38.70949333" lon="-9.13204333">
        <ele>37.0</ele>
        <time>2019-05-16T08:09:49.914Z</time>
      </trkpt>
      <trkpt lat="38.70949333" lon="-9.13204333">
        <ele>37.0</ele>
        <time>2019-05-16T08:09:50.906Z</time>
      </trkpt>
      <trkpt lat="38.70949333" lon="-9.13204333">
        <ele>37.0</ele>
        <time>2019-05-16T08:09:51.924Z</time>
      </trkpt>
      <trkpt lat="38.70949333" lon="-9.13204333">
        <ele>37.0</ele>
        <time>2019-05-16T08:09:52.920Z</time>
      </trkpt>
      <trkpt lat="38.709565" lon="-9.132045">
        <ele>36.0</ele>
        <time>2019-05-16T08:09:53.920Z</time>
      </trkpt>
      <trkpt lat="38.709565" lon="-9.132045">
        <ele>36.0</ele>
        <time>2019-05-16T08:09:54.919Z</time>
      </trkpt>
      <trkpt lat="38.70958167" lon="-9.13205">
        <ele>36.0</ele>
        <time>2019-05-16T08:09:55.928Z</time>
      </trkpt>
      <trkpt lat="38.70958167" lon="-9.13205">
        <ele>36.0</ele>
        <time>2019-05-16T08:09:56.899Z</time>
      </trkpt>
      <trkpt lat="38.70958667" lon="-9.13204667">
        <ele>36.0</ele>
        <time>2019-05-16T08:09:57.910Z</time>
      </trkpt>
      <trkpt lat="38.70958667" lon="-9.13204667">
        <ele>36.0</ele>
        <time>2019-05-16T08:09:58.925Z</time>
      </trkpt>
      <trkpt lat="38.70959333" lon="-9.13204167">
        <ele>36.0</ele>
        <time>2019-05-16T08:09:59.932Z</time>
      </trkpt>
      <trkpt lat="38.70959333" lon="-9.13204167">
        <ele>36.0</ele>
        <time>2019-05-16T08:10:00.920Z</time>
      </trkpt>
      <trkpt lat="38.70959333" lon="-9.13204167">
        <ele>36.0</ele>
        <time>2019-05-16T08:10:01.936Z</time>
      </trkpt>
      <trkpt lat="38.70959333" lon="-9.13204167">
        <ele>36.0</ele>
        <time>2019-05-16T08:10:02.915Z</time>
      </trkpt>
      <trkpt lat="38.70959333" lon="-9.13204167">
        <ele>36.0</ele>
        <time>2019-05-16T08:10:03.923Z</time>
      </trkpt>
      <trkpt lat="38.70959333" lon="-9.13204167">
        <ele>36.0</ele>
        <time>2019-05-16T08:10:04.931Z</time>
      </trkpt>
      <trkpt lat="38.70959333" lon="-9.13204167">
        <ele>36.0</ele>
        <time>2019-05-16T08:10:05.899Z</time>
      </trkpt>
      <trkpt lat="38.70959333" lon="-9.13204167">
        <ele>36.0</ele>
        <time>2019-05-16T08:10:06.924Z</time>
      </trkpt>
      <trkpt lat="38.70959333" lon="-9.13204167">
        <ele>36.0</ele>
        <time>2019-05-16T08:10:07.930Z</time>
      </trkpt>
      <trkpt lat="38.70959333" lon="-9.13204167">
        <ele>36.0</ele>
        <time>2019-05-16T08:10:08.921Z</time>
      </trkpt>
      <trkpt lat="38.70959333" lon="-9.13204167">
        <ele>36.0</ele>
        <time>2019-05-16T08:10:09.918Z</time>
      </trkpt>
      <trkpt lat="38.70959333" lon="-9.13204167">
        <ele>36.0</ele>
        <time>2019-05-16T08:10:10.914Z</time>
      </trkpt>
      <trkpt lat="38.70959333" lon="-9.13204167">
        <ele>36.0</ele>
        <time>2019-05-16T08:10:11.919Z</time>
      </trkpt>
      <trkpt lat="38.70959333" lon="-9.13204167">
        <ele>36.0</ele>
        <time>2019-05-16T08:10:12.919Z</time>
      </trkpt>
      <trkpt lat="38.70959333" lon="-9.13204167">
        <ele>36.0</ele>
        <time>2019-05-16T08:10:13.917Z</time>
      </trkpt>
      <trkpt lat="38.70959333" lon="-9.13204167">
        <ele>36.0</ele>
        <time>2019-05-16T08:10:14.919Z</time>
      </trkpt>
      <trkpt lat="38.70959333" lon="-9.13204167">
        <ele>36.0</ele>
        <time>2019-05-16T08:10:15.914Z</time>
      </trkpt>
      <trkpt lat="38.70959333" lon="-9.13204167">
        <ele>36.0</ele>
        <time>2019-05-16T08:10:16.919Z</time>
      </trkpt>
      <trkpt lat="38.70959333" lon="-9.13204167">
        <ele>36.0</ele>
        <time>2019-05-16T08:10:17.920Z</time>
      </trkpt>
      <trkpt lat="38.70959333" lon="-9.13204167">
        <ele>36.0</ele>
        <time>2019-05-16T08:10:18.910Z</time>
      </trkpt>
      <trkpt lat="38.70959333" lon="-9.13204167">
        <ele>36.0</ele>
        <time>2019-05-16T08:10:19.934Z</time>
      </trkpt>
      <trkpt lat="38.70959333" lon="-9.13204167">
        <ele>36.0</ele>
        <time>2019-05-16T08:10:20.919Z</time>
      </trkpt>
      <trkpt lat="38.70959333" lon="-9.13204167">
        <ele>36.0</ele>
        <time>2019-05-16T08:10:21.914Z</time>
      </trkpt>
      <trkpt lat="38.70959333" lon="-9.13204167">
        <ele>36.0</ele>
        <time>2019-05-16T08:10:22.919Z</time>
      </trkpt>
      <trkpt lat="38.70959333" lon="-9.13204167">
        <ele>36.0</ele>
        <time>2019-05-16T08:10:23.910Z</time>
      </trkpt>
      <trkpt lat="38.70959333" lon="-9.13204167">
        <ele>36.0</ele>
        <time>2019-05-16T08:10:24.936Z</time>
      </trkpt>
      <trkpt lat="38.70959333" lon="-9.13204167">
        <ele>36.0</ele>
        <time>2019-05-16T08:10:25.924Z</time>
      </trkpt>
      <trkpt lat="38.70959333" lon="-9.13204167">
        <ele>36.0</ele>
        <time>2019-05-16T08:10:26.914Z</time>
      </trkpt>
      <trkpt lat="38.70959333" lon="-9.13204167">
        <ele>36.0</ele>
        <time>2019-05-16T08:10:27.919Z</time>
      </trkpt>
      <trkpt lat="38.70959333" lon="-9.13204167">
        <ele>36.0</ele>
        <time>2019-05-16T08:10:28.913Z</time>
      </trkpt>
      <trkpt lat="38.70959333" lon="-9.13204167">
        <ele>36.0</ele>
        <time>2019-05-16T08:10:29.899Z</time>
      </trkpt>
      <trkpt lat="38.70959333" lon="-9.13204167">
        <ele>36.0</ele>
        <time>2019-05-16T08:10:30.921Z</time>
      </trkpt>
      <trkpt lat="38.70959333" lon="-9.13204167">
        <ele>36.0</ele>
        <time>2019-05-16T08:10:31.913Z</time>
      </trkpt>
      <trkpt lat="38.70959333" lon="-9.13204167">
        <ele>36.0</ele>
        <time>2019-05-16T08:10:32.919Z</time>
      </trkpt>
      <trkpt lat="38.70959333" lon="-9.13204167">
        <ele>36.0</ele>
        <time>2019-05-16T08:10:33.898Z</time>
      </trkpt>
      <trkpt lat="38.70959333" lon="-9.13204167">
        <ele>36.0</ele>
        <time>2019-05-16T08:10:34.919Z</time>
      </trkpt>
      <trkpt lat="38.70959333" lon="-9.13204167">
        <ele>36.0</ele>
        <time>2019-05-16T08:10:35.914Z</time>
      </trkpt>
      <trkpt lat="38.70959333" lon="-9.13204167">
        <ele>36.0</ele>
        <time>2019-05-16T08:10:36.921Z</time>
      </trkpt>
      <trkpt lat="38.70959333" lon="-9.13204167">
        <ele>36.0</ele>
        <time>2019-05-16T08:10:37.914Z</time>
      </trkpt>
      <trkpt lat="38.70959333" lon="-9.13204167">
        <ele>36.0</ele>
        <time>2019-05-16T08:10:38.899Z</time>
      </trkpt>
      <trkpt lat="38.70959333" lon="-9.13204167">
        <ele>36.0</ele>
        <time>2019-05-16T08:10:39.923Z</time>
      </trkpt>
      <trkpt lat="38.70959333" lon="-9.13204167">
        <ele>36.0</ele>
        <time>2019-05-16T08:10:40.918Z</time>
      </trkpt>
      <trkpt lat="38.70959333" lon="-9.13204167">
        <ele>36.0</ele>
        <time>2019-05-16T08:10:41.914Z</time>
      </trkpt>
      <trkpt lat="38.70959333" lon="-9.13204167">
        <ele>36.0</ele>
        <time>2019-05-16T08:10:42.921Z</time>
      </trkpt>
      <trkpt lat="38.70959333" lon="-9.13204167">
        <ele>36.0</ele>
        <time>2019-05-16T08:10:43.914Z</time>
      </trkpt>
      <trkpt lat="38.70957667" lon="-9.13199667">
        <ele>37.0</ele>
        <time>2019-05-16T08:10:44.919Z</time>
      </trkpt>
      <trkpt lat="38.70957833" lon="-9.13198">
        <ele>37.0</ele>
        <time>2019-05-16T08:10:45.921Z</time>
      </trkpt>
      <trkpt lat="38.70957833" lon="-9.13198">
        <ele>37.0</ele>
        <time>2019-05-16T08:10:46.914Z</time>
      </trkpt>
      <trkpt lat="38.709565" lon="-9.13194833">
        <ele>37.0</ele>
        <time>2019-05-16T08:10:47.930Z</time>
      </trkpt>
      <trkpt lat="38.70956333" lon="-9.131935">
        <ele>37.0</ele>
        <time>2019-05-16T08:10:48.912Z</time>
      </trkpt>
      <trkpt lat="38.70956333" lon="-9.131935">
        <ele>37.0</ele>
        <time>2019-05-16T08:10:49.914Z</time>
      </trkpt>
      <trkpt lat="38.709575" lon="-9.13188">
        <ele>37.0</ele>
        <time>2019-05-16T08:10:50.925Z</time>
      </trkpt>
      <trkpt lat="38.709575" lon="-9.13188">
        <ele>37.0</ele>
        <time>2019-05-16T08:10:51.899Z</time>
      </trkpt>
      <trkpt lat="38.709575" lon="-9.13184">
        <ele>36.0</ele>
        <time>2019-05-16T08:10:52.905Z</time>
      </trkpt>
      <trkpt lat="38.709575" lon="-9.13184">
        <ele>36.0</ele>
        <time>2019-05-16T08:10:53.922Z</time>
      </trkpt>
      <trkpt lat="38.70956333" lon="-9.13179833">
        <ele>36.0</ele>
        <time>2019-05-16T08:10:54.897Z</time>
      </trkpt>
      <trkpt lat="38.70956333" lon="-9.13179833">
        <ele>36.0</ele>
        <time>2019-05-16T08:10:55.898Z</time>
      </trkpt>
      <trkpt lat="38.70956" lon="-9.13176167">
        <ele>36.0</ele>
        <time>2019-05-16T08:10:56.914Z</time>
      </trkpt>
      <trkpt lat="38.70956" lon="-9.13176167">
        <ele>36.0</ele>
        <time>2019-05-16T08:10:57.929Z</time>
      </trkpt>
      <trkpt lat="38.70954833" lon="-9.13172667">
        <ele>36.0</ele>
        <time>2019-05-16T08:10:58.900Z</time>
      </trkpt>
      <trkpt lat="38.70954833" lon="-9.13172667">
        <ele>36.0</ele>
        <time>2019-05-16T08:10:59.912Z</time>
      </trkpt>
      <trkpt lat="38.70954167" lon="-9.131695">
        <ele>36.0</ele>
        <time>2019-05-16T08:11:00.898Z</time>
      </trkpt>
      <trkpt lat="38.70954167" lon="-9.131695">
        <ele>36.0</ele>
        <time>2019-05-16T08:11:01.906Z</time>
      </trkpt>
      <trkpt lat="38.70953333" lon="-9.131665">
        <ele>36.0</ele>
        <time>2019-05-16T08:11:02.920Z</time>
      </trkpt>
      <trkpt lat="38.70953333" lon="-9.131665">
        <ele>36.0</ele>
        <time>2019-05-16T08:11:03.930Z</time>
      </trkpt>
      <trkpt lat="38.709535" lon="-9.13162333">
        <ele>36.0</ele>
        <time>2019-05-16T08:11:04.899Z</time>
      </trkpt>
      <trkpt lat="38.709515" lon="-9.1316">
        <ele>36.0</ele>
        <time>2019-05-16T08:11:05.919Z</time>
      </trkpt>
      <trkpt lat="38.70950833" lon="-9.13158">
        <ele>36.0</ele>
        <time>2019-05-16T08:11:06.926Z</time>
      </trkpt>
      <trkpt lat="38.70950833" lon="-9.13158">
        <ele>36.0</ele>
        <time>2019-05-16T08:11:07.899Z</time>
      </trkpt>
      <trkpt lat="38.7095" lon="-9.13154667">
        <ele>36.0</ele>
        <time>2019-05-16T08:11:08.910Z</time>
      </trkpt>
      <trkpt lat="38.7095" lon="-9.13154667">
        <ele>36.0</ele>
        <time>2019-05-16T08:11:09.924Z</time>
      </trkpt>
      <trkpt lat="38.70949833" lon="-9.131515">
        <ele>36.0</ele>
        <time>2019-05-16T08:11:10.905Z</time>
      </trkpt>
      <trkpt lat="38.70949833" lon="-9.131515">
        <ele>36.0</ele>
        <time>2019-05-16T08:11:11.899Z</time>
      </trkpt>
      <trkpt lat="38.70949833" lon="-9.131485">
        <ele>36.0</ele>
        <time>2019-05-16T08:11:12.911Z</time>
      </trkpt>
      <trkpt lat="38.70949833" lon="-9.131485">
        <ele>36.0</ele>
        <time>2019-05-16T08:11:13.921Z</time>
      </trkpt>
      <trkpt lat="38.709495" lon="-9.13146167">
        <ele>36.0</ele>
        <time>2019-05-16T08:11:14.908Z</time>
      </trkpt>
      <trkpt lat="38.709495" lon="-9.13146167">
        <ele>36.0</ele>
        <time>2019-05-16T08:11:15.921Z</time>
      </trkpt>
      <trkpt lat="38.70950667" lon="-9.13143667">
        <ele>36.0</ele>
        <time>2019-05-16T08:11:16.939Z</time>
      </trkpt>
      <trkpt lat="38.70950667" lon="-9.13143667">
        <ele>36.0</ele>
        <time>2019-05-16T08:11:17.906Z</time>
      </trkpt>
      <trkpt lat="38.70950667" lon="-9.131415">
        <ele>36.0</ele>
        <time>2019-05-16T08:11:18.913Z</time>
      </trkpt>
      <trkpt lat="38.70950667" lon="-9.131415">
        <ele>36.0</ele>
        <time>2019-05-16T08:11:19.921Z</time>
      </trkpt>
      <trkpt lat="38.70951167" lon="-9.13139667">
        <ele>36.0</ele>
        <time>2019-05-16T08:11:20.897Z</time>
      </trkpt>
      <trkpt lat="38.70951167" lon="-9.13139667">
        <ele>36.0</ele>
        <time>2019-05-16T08:11:21.918Z</time>
      </trkpt>
      <trkpt lat="38.70952333" lon="-9.13137667">
        <ele>36.0</ele>
        <time>2019-05-16T08:11:22.900Z</time>
      </trkpt>
      <trkpt lat="38.70952333" lon="-9.13137667">
        <ele>36.0</ele>
        <time>2019-05-16T08:11:23.900Z</time>
      </trkpt>
      <trkpt lat="38.70953667" lon="-9.13136167">
        <ele>35.0</ele>
        <time>2019-05-16T08:11:24.914Z</time>
      </trkpt>
      <trkpt lat="38.70953667" lon="-9.13136167">
        <ele>35.0</ele>
        <time>2019-05-16T08:11:25.908Z</time>
      </trkpt>
      <trkpt lat="38.70955833" lon="-9.13134333">
        <ele>35.0</ele>
        <time>2019-05-16T08:11:26.916Z</time>
      </trkpt>
      <trkpt lat="38.70955833" lon="-9.13134333">
        <ele>35.0</ele>
        <time>2019-05-16T08:11:27.899Z</time>
      </trkpt>
      <trkpt lat="38.709575" lon="-9.13132667">
        <ele>35.0</ele>
        <time>2019-05-16T08:11:28.923Z</time>
      </trkpt>
      <trkpt lat="38.709575" lon="-9.13132667">
        <ele>35.0</ele>
        <time>2019-05-16T08:11:29.926Z</time>
      </trkpt>
      <trkpt lat="38.70958833" lon="-9.13131333">
        <ele>35.0</ele>
        <time>2019-05-16T08:11:30.936Z</time>
      </trkpt>
      <trkpt lat="38.70958833" lon="-9.13131333">
        <ele>35.0</ele>
        <time>2019-05-16T08:11:31.906Z</time>
      </trkpt>
      <trkpt lat="38.70960667" lon="-9.13131">
        <ele>35.0</ele>
        <time>2019-05-16T08:11:32.913Z</time>
      </trkpt>
      <trkpt lat="38.70960667" lon="-9.13131">
        <ele>35.0</ele>
        <time>2019-05-16T08:11:33.920Z</time>
      </trkpt>
      <trkpt lat="38.70960667" lon="-9.13131">
        <ele>35.0</ele>
        <time>2019-05-16T08:11:34.929Z</time>
      </trkpt>
      <trkpt lat="38.70960667" lon="-9.13131">
        <ele>35.0</ele>
        <time>2019-05-16T08:11:35.903Z</time>
      </trkpt>
      <trkpt lat="38.70962167" lon="-9.13127333">
        <ele>35.0</ele>
        <time>2019-05-16T08:11:36.923Z</time>
      </trkpt>
      <trkpt lat="38.70962167" lon="-9.13127333">
        <ele>35.0</ele>
        <time>2019-05-16T08:11:37.930Z</time>
      </trkpt>
      <trkpt lat="38.70963167" lon="-9.13123">
        <ele>34.0</ele>
        <time>2019-05-16T08:11:38.939Z</time>
      </trkpt>
      <trkpt lat="38.70963167" lon="-9.13123">
        <ele>34.0</ele>
        <time>2019-05-16T08:11:39.922Z</time>
      </trkpt>
      <trkpt lat="38.709645" lon="-9.13119667">
        <ele>34.0</ele>
        <time>2019-05-16T08:11:40.930Z</time>
      </trkpt>
      <trkpt lat="38.709645" lon="-9.13119667">
        <ele>34.0</ele>
        <time>2019-05-16T08:11:41.907Z</time>
      </trkpt>
      <trkpt lat="38.70963167" lon="-9.13113167">
        <ele>34.0</ele>
        <time>2019-05-16T08:11:42.913Z</time>
      </trkpt>
      <trkpt lat="38.70963167" lon="-9.13113167">
        <ele>34.0</ele>
        <time>2019-05-16T08:11:43.921Z</time>
      </trkpt>
      <trkpt lat="38.70964667" lon="-9.131065">
        <ele>33.0</ele>
        <time>2019-05-16T08:11:44.937Z</time>
      </trkpt>
      <trkpt lat="38.70964667" lon="-9.131065">
        <ele>33.0</ele>
        <time>2019-05-16T08:11:45.923Z</time>
      </trkpt>
      <trkpt lat="38.70964667" lon="-9.13100167">
        <ele>33.0</ele>
        <time>2019-05-16T08:11:46.900Z</time>
      </trkpt>
      <trkpt lat="38.70964667" lon="-9.13100167">
        <ele>33.0</ele>
        <time>2019-05-16T08:11:47.922Z</time>
      </trkpt>
      <trkpt lat="38.709655" lon="-9.13094167">
        <ele>32.0</ele>
        <time>2019-05-16T08:11:48.933Z</time>
      </trkpt>
      <trkpt lat="38.709655" lon="-9.13094167">
        <ele>32.0</ele>
        <time>2019-05-16T08:11:49.914Z</time>
      </trkpt>
      <trkpt lat="38.70965833" lon="-9.13089667">
        <ele>32.0</ele>
        <time>2019-05-16T08:11:50.914Z</time>
      </trkpt>
      <trkpt lat="38.70965833" lon="-9.13089667">
        <ele>32.0</ele>
        <time>2019-05-16T08:11:51.912Z</time>
      </trkpt>
      <trkpt lat="38.70962833" lon="-9.13084167">
        <ele>32.0</ele>
        <time>2019-05-16T08:11:52.922Z</time>
      </trkpt>
      <trkpt lat="38.70962833" lon="-9.13084167">
        <ele>32.0</ele>
        <time>2019-05-16T08:11:53.921Z</time>
      </trkpt>
      <trkpt lat="38.70962333" lon="-9.13078333">
        <ele>32.0</ele>
        <time>2019-05-16T08:11:54.913Z</time>
      </trkpt>
      <trkpt lat="38.70962333" lon="-9.13078333">
        <ele>32.0</ele>
        <time>2019-05-16T08:11:55.931Z</time>
      </trkpt>
      <trkpt lat="38.70963333" lon="-9.13073833">
        <ele>31.0</ele>
        <time>2019-05-16T08:11:56.902Z</time>
      </trkpt>
      <trkpt lat="38.70963333" lon="-9.13073833">
        <ele>31.0</ele>
        <time>2019-05-16T08:11:57.916Z</time>
      </trkpt>
      <trkpt lat="38.70962833" lon="-9.1307">
        <ele>31.0</ele>
        <time>2019-05-16T08:11:58.927Z</time>
      </trkpt>
      <trkpt lat="38.70962167" lon="-9.13068">
        <ele>31.0</ele>
        <time>2019-05-16T08:11:59.905Z</time>
      </trkpt>
      <trkpt lat="38.70962167" lon="-9.13068">
        <ele>31.0</ele>
        <time>2019-05-16T08:12:00.920Z</time>
      </trkpt>
      <trkpt lat="38.70962167" lon="-9.13065833">
        <ele>31.0</ele>
        <time>2019-05-16T08:12:01.932Z</time>
      </trkpt>
      <trkpt lat="38.70963333" lon="-9.13065">
        <ele>31.0</ele>
        <time>2019-05-16T08:12:02.906Z</time>
      </trkpt>
      <trkpt lat="38.70963333" lon="-9.13065">
        <ele>31.0</ele>
        <time>2019-05-16T08:12:03.906Z</time>
      </trkpt>
      <trkpt lat="38.70964333" lon="-9.13063">
        <ele>30.0</ele>
        <time>2019-05-16T08:12:04.930Z</time>
      </trkpt>
      <trkpt lat="38.70965167" lon="-9.13062667">
        <ele>30.0</ele>
        <time>2019-05-16T08:12:05.910Z</time>
      </trkpt>
      <trkpt lat="38.70967" lon="-9.13062167">
        <ele>30.0</ele>
        <time>2019-05-16T08:12:06.923Z</time>
      </trkpt>
      <trkpt lat="38.70967" lon="-9.13062167">
        <ele>30.0</ele>
        <time>2019-05-16T08:12:07.909Z</time>
      </trkpt>
      <trkpt lat="38.70970167" lon="-9.13057">
        <ele>28.0</ele>
        <time>2019-05-16T08:12:08.917Z</time>
      </trkpt>
      <trkpt lat="38.70970167" lon="-9.13057">
        <ele>28.0</ele>
        <time>2019-05-16T08:12:09.926Z</time>
      </trkpt>
      <trkpt lat="38.70972833" lon="-9.13053">
        <ele>27.0</ele>
        <time>2019-05-16T08:12:10.933Z</time>
      </trkpt>
      <trkpt lat="38.70972833" lon="-9.13053">
        <ele>27.0</ele>
        <time>2019-05-16T08:12:11.907Z</time>
      </trkpt>
      <trkpt lat="38.70975" lon="-9.13048167">
        <ele>26.0</ele>
        <time>2019-05-16T08:12:12.916Z</time>
      </trkpt>
      <trkpt lat="38.70975" lon="-9.13048167">
        <ele>26.0</ele>
        <time>2019-05-16T08:12:13.932Z</time>
      </trkpt>
      <trkpt lat="38.70978167" lon="-9.130415">
        <ele>27.0</ele>
        <time>2019-05-16T08:12:14.975Z</time>
      </trkpt>
      <trkpt lat="38.70978167" lon="-9.130415">
        <ele>27.0</ele>
        <time>2019-05-16T08:12:15.914Z</time>
      </trkpt>
      <trkpt lat="38.70980167" lon="-9.13034167">
        <ele>26.0</ele>
        <time>2019-05-16T08:12:16.921Z</time>
      </trkpt>
      <trkpt lat="38.70980167" lon="-9.13034167">
        <ele>26.0</ele>
        <time>2019-05-16T08:12:17.931Z</time>
      </trkpt>
      <trkpt lat="38.70981333" lon="-9.13027333">
        <ele>26.0</ele>
        <time>2019-05-16T08:12:18.898Z</time>
      </trkpt>
      <trkpt lat="38.70981333" lon="-9.13027333">
        <ele>26.0</ele>
        <time>2019-05-16T08:12:19.916Z</time>
      </trkpt>
      <trkpt lat="38.70982667" lon="-9.13022">
        <ele>26.0</ele>
        <time>2019-05-16T08:12:20.924Z</time>
      </trkpt>
      <trkpt lat="38.70982667" lon="-9.13022">
        <ele>26.0</ele>
        <time>2019-05-16T08:12:21.928Z</time>
      </trkpt>
      <trkpt lat="38.70983167" lon="-9.13015833">
        <ele>24.0</ele>
        <time>2019-05-16T08:12:22.935Z</time>
      </trkpt>
      <trkpt lat="38.70983167" lon="-9.13015833">
        <ele>24.0</ele>
        <time>2019-05-16T08:12:23.908Z</time>
      </trkpt>
      <trkpt lat="38.70982667" lon="-9.13008167">
        <ele>23.0</ele>
        <time>2019-05-16T08:12:24.930Z</time>
      </trkpt>
      <trkpt lat="38.70982667" lon="-9.13008167">
        <ele>23.0</ele>
        <time>2019-05-16T08:12:25.932Z</time>
      </trkpt>
      <trkpt lat="38.70984833" lon="-9.13002833">
        <ele>22.0</ele>
        <time>2019-05-16T08:12:26.901Z</time>
      </trkpt>
      <trkpt lat="38.70984833" lon="-9.13002833">
        <ele>22.0</ele>
        <time>2019-05-16T08:12:27.921Z</time>
      </trkpt>
      <trkpt lat="38.70991333" lon="-9.13000833">
        <ele>22.0</ele>
        <time>2019-05-16T08:12:28.928Z</time>
      </trkpt>
      <trkpt lat="38.70991333" lon="-9.13000833">
        <ele>22.0</ele>
        <time>2019-05-16T08:12:29.935Z</time>
      </trkpt>
      <trkpt lat="38.70994667" lon="-9.12997167">
        <ele>22.0</ele>
        <time>2019-05-16T08:12:30.944Z</time>
      </trkpt>
      <trkpt lat="38.70994667" lon="-9.12997167">
        <ele>22.0</ele>
        <time>2019-05-16T08:12:31.931Z</time>
      </trkpt>
      <trkpt lat="38.70997167" lon="-9.12993">
        <ele>22.0</ele>
        <time>2019-05-16T08:12:32.897Z</time>
      </trkpt>
      <trkpt lat="38.70997167" lon="-9.12993">
        <ele>22.0</ele>
        <time>2019-05-16T08:12:33.911Z</time>
      </trkpt>
      <trkpt lat="38.70999333" lon="-9.129885">
        <ele>23.0</ele>
        <time>2019-05-16T08:12:34.918Z</time>
      </trkpt>
      <trkpt lat="38.70999333" lon="-9.129885">
        <ele>23.0</ele>
        <time>2019-05-16T08:12:35.933Z</time>
      </trkpt>
      <trkpt lat="38.71003333" lon="-9.12988">
        <ele>23.0</ele>
        <time>2019-05-16T08:12:36.902Z</time>
      </trkpt>
      <trkpt lat="38.71003333" lon="-9.12988">
        <ele>23.0</ele>
        <time>2019-05-16T08:12:37.927Z</time>
      </trkpt>
      <trkpt lat="38.710065" lon="-9.129855">
        <ele>24.0</ele>
        <time>2019-05-16T08:12:38.933Z</time>
      </trkpt>
      <trkpt lat="38.710065" lon="-9.129855">
        <ele>24.0</ele>
        <time>2019-05-16T08:12:39.915Z</time>
      </trkpt>
      <trkpt lat="38.710095" lon="-9.12982833">
        <ele>24.0</ele>
        <time>2019-05-16T08:12:40.928Z</time>
      </trkpt>
      <trkpt lat="38.710095" lon="-9.12982833">
        <ele>24.0</ele>
        <time>2019-05-16T08:12:41.911Z</time>
      </trkpt>
      <trkpt lat="38.71012" lon="-9.12980833">
        <ele>24.0</ele>
        <time>2019-05-16T08:12:42.917Z</time>
      </trkpt>
      <trkpt lat="38.71012" lon="-9.12980833">
        <ele>24.0</ele>
        <time>2019-05-16T08:12:43.931Z</time>
      </trkpt>
      <trkpt lat="38.71014667" lon="-9.12978667">
        <ele>24.0</ele>
        <time>2019-05-16T08:12:44.899Z</time>
      </trkpt>
      <trkpt lat="38.71014667" lon="-9.12978667">
        <ele>24.0</ele>
        <time>2019-05-16T08:12:45.907Z</time>
      </trkpt>
      <trkpt lat="38.71017333" lon="-9.129765">
        <ele>24.0</ele>
        <time>2019-05-16T08:12:46.922Z</time>
      </trkpt>
      <trkpt lat="38.71017333" lon="-9.129765">
        <ele>24.0</ele>
        <time>2019-05-16T08:12:47.902Z</time>
      </trkpt>
      <trkpt lat="38.7102" lon="-9.12974">
        <ele>24.0</ele>
        <time>2019-05-16T08:12:48.910Z</time>
      </trkpt>
      <trkpt lat="38.7102" lon="-9.12974">
        <ele>24.0</ele>
        <time>2019-05-16T08:12:49.923Z</time>
      </trkpt>
      <trkpt lat="38.71023" lon="-9.12971">
        <ele>24.0</ele>
        <time>2019-05-16T08:12:50.936Z</time>
      </trkpt>
      <trkpt lat="38.710245" lon="-9.129695">
        <ele>24.0</ele>
        <time>2019-05-16T08:12:51.909Z</time>
      </trkpt>
      <trkpt lat="38.710245" lon="-9.129695">
        <ele>24.0</ele>
        <time>2019-05-16T08:12:52.929Z</time>
      </trkpt>
      <trkpt lat="38.71027333" lon="-9.12966333">
        <ele>25.0</ele>
        <time>2019-05-16T08:12:53.897Z</time>
      </trkpt>
      <trkpt lat="38.71028833" lon="-9.12965167">
        <ele>25.0</ele>
        <time>2019-05-16T08:12:54.917Z</time>
      </trkpt>
      <trkpt lat="38.71028833" lon="-9.12965167">
        <ele>25.0</ele>
        <time>2019-05-16T08:12:55.928Z</time>
      </trkpt>
      <trkpt lat="38.71030833" lon="-9.129635">
        <ele>26.0</ele>
        <time>2019-05-16T08:12:56.934Z</time>
      </trkpt>
      <trkpt lat="38.71030833" lon="-9.129635">
        <ele>26.0</ele>
        <time>2019-05-16T08:12:57.913Z</time>
      </trkpt>
      <trkpt lat="38.71032833" lon="-9.12957833">
        <ele>26.0</ele>
        <time>2019-05-16T08:12:58.921Z</time>
      </trkpt>
      <trkpt lat="38.71032833" lon="-9.12957833">
        <ele>26.0</ele>
        <time>2019-05-16T08:12:59.902Z</time>
      </trkpt>
      <trkpt lat="38.71034" lon="-9.12953">
        <ele>26.0</ele>
        <time>2019-05-16T08:13:00.910Z</time>
      </trkpt>
      <trkpt lat="38.71034" lon="-9.12953">
        <ele>26.0</ele>
        <time>2019-05-16T08:13:01.923Z</time>
      </trkpt>
      <trkpt lat="38.71038" lon="-9.12948667">
        <ele>25.0</ele>
        <time>2019-05-16T08:13:02.912Z</time>
      </trkpt>
      <trkpt lat="38.71038" lon="-9.12948667">
        <ele>25.0</ele>
        <time>2019-05-16T08:13:03.920Z</time>
      </trkpt>
      <trkpt lat="38.71041333" lon="-9.12943667">
        <ele>24.0</ele>
        <time>2019-05-16T08:13:04.928Z</time>
      </trkpt>
      <trkpt lat="38.71041333" lon="-9.12943667">
        <ele>24.0</ele>
        <time>2019-05-16T08:13:05.907Z</time>
      </trkpt>
      <trkpt lat="38.710455" lon="-9.12941167">
        <ele>24.0</ele>
        <time>2019-05-16T08:13:06.917Z</time>
      </trkpt>
      <trkpt lat="38.710455" lon="-9.12941167">
        <ele>24.0</ele>
        <time>2019-05-16T08:13:07.928Z</time>
      </trkpt>
      <trkpt lat="38.710485" lon="-9.12938667">
        <ele>24.0</ele>
        <time>2019-05-16T08:13:08.922Z</time>
      </trkpt>
      <trkpt lat="38.710485" lon="-9.12938667">
        <ele>24.0</ele>
        <time>2019-05-16T08:13:09.911Z</time>
      </trkpt>
      <trkpt lat="38.71052333" lon="-9.12937167">
        <ele>24.0</ele>
        <time>2019-05-16T08:13:10.919Z</time>
      </trkpt>
      <trkpt lat="38.71052333" lon="-9.12937167">
        <ele>24.0</ele>
        <time>2019-05-16T08:13:11.928Z</time>
      </trkpt>
      <trkpt lat="38.71056167" lon="-9.12934167">
        <ele>24.0</ele>
        <time>2019-05-16T08:13:12.910Z</time>
      </trkpt>
      <trkpt lat="38.71056167" lon="-9.12934167">
        <ele>24.0</ele>
        <time>2019-05-16T08:13:13.913Z</time>
      </trkpt>
      <trkpt lat="38.710585" lon="-9.12931667">
        <ele>23.0</ele>
        <time>2019-05-16T08:13:14.921Z</time>
      </trkpt>
      <trkpt lat="38.710585" lon="-9.12931667">
        <ele>23.0</ele>
        <time>2019-05-16T08:13:15.922Z</time>
      </trkpt>
      <trkpt lat="38.71060833" lon="-9.129305">
        <ele>23.0</ele>
        <time>2019-05-16T08:13:16.930Z</time>
      </trkpt>
      <trkpt lat="38.71060833" lon="-9.129305">
        <ele>23.0</ele>
        <time>2019-05-16T08:13:17.910Z</time>
      </trkpt>
      <trkpt lat="38.71063333" lon="-9.12928333">
        <ele>23.0</ele>
        <time>2019-05-16T08:13:18.917Z</time>
      </trkpt>
      <trkpt lat="38.71063333" lon="-9.12928333">
        <ele>23.0</ele>
        <time>2019-05-16T08:13:19.929Z</time>
      </trkpt>
      <trkpt lat="38.71065833" lon="-9.12925167">
        <ele>22.0</ele>
        <time>2019-05-16T08:13:20.914Z</time>
      </trkpt>
      <trkpt lat="38.71065833" lon="-9.12925167">
        <ele>22.0</ele>
        <time>2019-05-16T08:13:21.928Z</time>
      </trkpt>
      <trkpt lat="38.71066167" lon="-9.12922833">
        <ele>22.0</ele>
        <time>2019-05-16T08:13:22.907Z</time>
      </trkpt>
      <trkpt lat="38.71066167" lon="-9.12922833">
        <ele>22.0</ele>
        <time>2019-05-16T08:13:23.931Z</time>
      </trkpt>
      <trkpt lat="38.71067167" lon="-9.12921833">
        <ele>21.0</ele>
        <time>2019-05-16T08:13:24.899Z</time>
      </trkpt>
      <trkpt lat="38.71067167" lon="-9.12921833">
        <ele>21.0</ele>
        <time>2019-05-16T08:13:25.929Z</time>
      </trkpt>
      <trkpt lat="38.710685" lon="-9.12919833">
        <ele>21.0</ele>
        <time>2019-05-16T08:13:26.931Z</time>
      </trkpt>
      <trkpt lat="38.710685" lon="-9.12919833">
        <ele>21.0</ele>
        <time>2019-05-16T08:13:27.909Z</time>
      </trkpt>
      <trkpt lat="38.71069333" lon="-9.12914167">
        <ele>20.0</ele>
        <time>2019-05-16T08:13:28.930Z</time>
      </trkpt>
      <trkpt lat="38.71069333" lon="-9.12914167">
        <ele>20.0</ele>
        <time>2019-05-16T08:13:29.906Z</time>
      </trkpt>
      <trkpt lat="38.710705" lon="-9.12907667">
        <ele>20.0</ele>
        <time>2019-05-16T08:13:30.916Z</time>
      </trkpt>
      <trkpt lat="38.710705" lon="-9.12907667">
        <ele>20.0</ele>
        <time>2019-05-16T08:13:31.897Z</time>
      </trkpt>
      <trkpt lat="38.71073333" lon="-9.12903167">
        <ele>20.0</ele>
        <time>2019-05-16T08:13:32.910Z</time>
      </trkpt>
      <trkpt lat="38.71073333" lon="-9.12903167">
        <ele>20.0</ele>
        <time>2019-05-16T08:13:33.936Z</time>
      </trkpt>
      <trkpt lat="38.71075833" lon="-9.12897167">
        <ele>20.0</ele>
        <time>2019-05-16T08:13:34.898Z</time>
      </trkpt>
      <trkpt lat="38.71075833" lon="-9.12897167">
        <ele>20.0</ele>
        <time>2019-05-16T08:13:35.919Z</time>
      </trkpt>
      <trkpt lat="38.71076333" lon="-9.12890833">
        <ele>20.0</ele>
        <time>2019-05-16T08:13:36.926Z</time>
      </trkpt>
      <trkpt lat="38.71076333" lon="-9.12890833">
        <ele>20.0</ele>
        <time>2019-05-16T08:13:37.934Z</time>
      </trkpt>
      <trkpt lat="38.7108" lon="-9.12889">
        <ele>19.0</ele>
        <time>2019-05-16T08:13:38.915Z</time>
      </trkpt>
      <trkpt lat="38.7108" lon="-9.12889">
        <ele>19.0</ele>
        <time>2019-05-16T08:13:39.919Z</time>
      </trkpt>
      <trkpt lat="38.71082833" lon="-9.12887167">
        <ele>19.0</ele>
        <time>2019-05-16T08:13:40.930Z</time>
      </trkpt>
      <trkpt lat="38.71083333" lon="-9.128855">
        <ele>19.0</ele>
        <time>2019-05-16T08:13:41.904Z</time>
      </trkpt>
      <trkpt lat="38.71084167" lon="-9.12884167">
        <ele>19.0</ele>
        <time>2019-05-16T08:13:42.921Z</time>
      </trkpt>
      <trkpt lat="38.71084167" lon="-9.12884167">
        <ele>19.0</ele>
        <time>2019-05-16T08:13:43.935Z</time>
      </trkpt>
      <trkpt lat="38.71087" lon="-9.12881667">
        <ele>18.0</ele>
        <time>2019-05-16T08:13:44.907Z</time>
      </trkpt>
      <trkpt lat="38.71087" lon="-9.12881667">
        <ele>18.0</ele>
        <time>2019-05-16T08:13:45.916Z</time>
      </trkpt>
      <trkpt lat="38.71090167" lon="-9.12879667">
        <ele>17.0</ele>
        <time>2019-05-16T08:13:46.897Z</time>
      </trkpt>
      <trkpt lat="38.71090167" lon="-9.12879667">
        <ele>17.0</ele>
        <time>2019-05-16T08:13:47.910Z</time>
      </trkpt>
      <trkpt lat="38.71093" lon="-9.128785">
        <ele>17.0</ele>
        <time>2019-05-16T08:13:48.923Z</time>
      </trkpt>
      <trkpt lat="38.71093" lon="-9.128785">
        <ele>17.0</ele>
        <time>2019-05-16T08:13:49.936Z</time>
      </trkpt>
      <trkpt lat="38.71096" lon="-9.12876833">
        <ele>17.0</ele>
        <time>2019-05-16T08:13:50.914Z</time>
      </trkpt>
      <trkpt lat="38.71096" lon="-9.12876833">
        <ele>17.0</ele>
        <time>2019-05-16T08:13:51.928Z</time>
      </trkpt>
      <trkpt lat="38.71098333" lon="-9.12873333">
        <ele>16.0</ele>
        <time>2019-05-16T08:13:52.937Z</time>
      </trkpt>
      <trkpt lat="38.71098333" lon="-9.12873333">
        <ele>16.0</ele>
        <time>2019-05-16T08:13:53.915Z</time>
      </trkpt>
      <trkpt lat="38.71101167" lon="-9.12871333">
        <ele>16.0</ele>
        <time>2019-05-16T08:13:54.923Z</time>
      </trkpt>
      <trkpt lat="38.71101167" lon="-9.12871333">
        <ele>16.0</ele>
        <time>2019-05-16T08:13:55.914Z</time>
      </trkpt>
      <trkpt lat="38.711035" lon="-9.12864833">
        <ele>16.0</ele>
        <time>2019-05-16T08:13:56.923Z</time>
      </trkpt>
      <trkpt lat="38.711035" lon="-9.12864833">
        <ele>16.0</ele>
        <time>2019-05-16T08:13:57.932Z</time>
      </trkpt>
      <trkpt lat="38.71107167" lon="-9.12861">
        <ele>16.0</ele>
        <time>2019-05-16T08:13:58.905Z</time>
      </trkpt>
      <trkpt lat="38.71107167" lon="-9.12861">
        <ele>16.0</ele>
        <time>2019-05-16T08:13:59.936Z</time>
      </trkpt>
      <trkpt lat="38.71111167" lon="-9.12859833">
        <ele>16.0</ele>
        <time>2019-05-16T08:14:00.912Z</time>
      </trkpt>
      <trkpt lat="38.71111167" lon="-9.12859833">
        <ele>16.0</ele>
        <time>2019-05-16T08:14:01.924Z</time>
      </trkpt>
      <trkpt lat="38.71113667" lon="-9.12857833">
        <ele>15.0</ele>
        <time>2019-05-16T08:14:02.931Z</time>
      </trkpt>
      <trkpt lat="38.71113667" lon="-9.12857833">
        <ele>15.0</ele>
        <time>2019-05-16T08:14:03.908Z</time>
      </trkpt>
      <trkpt lat="38.71116" lon="-9.12855667">
        <ele>15.0</ele>
        <time>2019-05-16T08:14:04.929Z</time>
      </trkpt>
      <trkpt lat="38.71116" lon="-9.12855667">
        <ele>15.0</ele>
        <time>2019-05-16T08:14:05.911Z</time>
      </trkpt>
      <trkpt lat="38.711175" lon="-9.128535">
        <ele>15.0</ele>
        <time>2019-05-16T08:14:06.922Z</time>
      </trkpt>
      <trkpt lat="38.711175" lon="-9.128535">
        <ele>15.0</ele>
        <time>2019-05-16T08:14:07.930Z</time>
      </trkpt>
      <trkpt lat="38.71118667" lon="-9.12849">
        <ele>15.0</ele>
        <time>2019-05-16T08:14:08.898Z</time>
      </trkpt>
      <trkpt lat="38.71118667" lon="-9.12849">
        <ele>15.0</ele>
        <time>2019-05-16T08:14:09.913Z</time>
      </trkpt>
      <trkpt lat="38.711175" lon="-9.12845333">
        <ele>14.0</ele>
        <time>2019-05-16T08:14:10.921Z</time>
      </trkpt>
      <trkpt lat="38.711175" lon="-9.12845333">
        <ele>14.0</ele>
        <time>2019-05-16T08:14:11.908Z</time>
      </trkpt>
      <trkpt lat="38.71117" lon="-9.12841167">
        <ele>14.0</ele>
        <time>2019-05-16T08:14:12.926Z</time>
      </trkpt>
      <trkpt lat="38.71117" lon="-9.12841167">
        <ele>14.0</ele>
        <time>2019-05-16T08:14:13.910Z</time>
      </trkpt>
      <trkpt lat="38.711175" lon="-9.12837333">
        <ele>13.0</ele>
        <time>2019-05-16T08:14:14.921Z</time>
      </trkpt>
      <trkpt lat="38.711175" lon="-9.12837333">
        <ele>13.0</ele>
        <time>2019-05-16T08:14:15.933Z</time>
      </trkpt>
      <trkpt lat="38.71119" lon="-9.128305">
        <ele>13.0</ele>
        <time>2019-05-16T08:14:16.937Z</time>
      </trkpt>
      <trkpt lat="38.71119" lon="-9.128305">
        <ele>13.0</ele>
        <time>2019-05-16T08:14:17.929Z</time>
      </trkpt>
      <trkpt lat="38.71121167" lon="-9.12824833">
        <ele>12.0</ele>
        <time>2019-05-16T08:14:18.937Z</time>
      </trkpt>
      <trkpt lat="38.71121167" lon="-9.12824833">
        <ele>12.0</ele>
        <time>2019-05-16T08:14:19.908Z</time>
      </trkpt>
      <trkpt lat="38.71121833" lon="-9.12820667">
        <ele>12.0</ele>
        <time>2019-05-16T08:14:20.936Z</time>
      </trkpt>
      <trkpt lat="38.71121833" lon="-9.12820667">
        <ele>12.0</ele>
        <time>2019-05-16T08:14:21.907Z</time>
      </trkpt>
      <trkpt lat="38.711195" lon="-9.12816667">
        <ele>13.0</ele>
        <time>2019-05-16T08:14:22.901Z</time>
      </trkpt>
      <trkpt lat="38.711195" lon="-9.12816667">
        <ele>13.0</ele>
        <time>2019-05-16T08:14:23.931Z</time>
      </trkpt>
      <trkpt lat="38.71116667" lon="-9.128095">
        <ele>15.0</ele>
        <time>2019-05-16T08:14:24.899Z</time>
      </trkpt>
      <trkpt lat="38.71116667" lon="-9.128095">
        <ele>15.0</ele>
        <time>2019-05-16T08:14:25.922Z</time>
      </trkpt>
      <trkpt lat="38.711145" lon="-9.128035">
        <ele>16.0</ele>
        <time>2019-05-16T08:14:26.932Z</time>
      </trkpt>
      <trkpt lat="38.711145" lon="-9.128035">
        <ele>16.0</ele>
        <time>2019-05-16T08:14:27.903Z</time>
      </trkpt>
      <trkpt lat="38.71115667" lon="-9.127985">
        <ele>17.0</ele>
        <time>2019-05-16T08:14:28.990Z</time>
      </trkpt>
      <trkpt lat="38.71115667" lon="-9.127985">
        <ele>17.0</ele>
        <time>2019-05-16T08:14:29.911Z</time>
      </trkpt>
      <trkpt lat="38.71117167" lon="-9.12794833">
        <ele>17.0</ele>
        <time>2019-05-16T08:14:30.920Z</time>
      </trkpt>
      <trkpt lat="38.71117167" lon="-9.12794833">
        <ele>17.0</ele>
        <time>2019-05-16T08:14:31.909Z</time>
      </trkpt>
      <trkpt lat="38.71119167" lon="-9.12792">
        <ele>17.0</ele>
        <time>2019-05-16T08:14:32.917Z</time>
      </trkpt>
      <trkpt lat="38.71119167" lon="-9.12792">
        <ele>17.0</ele>
        <time>2019-05-16T08:14:33.909Z</time>
      </trkpt>
      <trkpt lat="38.71119333" lon="-9.12788167">
        <ele>17.0</ele>
        <time>2019-05-16T08:14:34.942Z</time>
      </trkpt>
      <trkpt lat="38.71119333" lon="-9.12788167">
        <ele>17.0</ele>
        <time>2019-05-16T08:14:35.916Z</time>
      </trkpt>
      <trkpt lat="38.71119" lon="-9.12784667">
        <ele>17.0</ele>
        <time>2019-05-16T08:14:36.927Z</time>
      </trkpt>
      <trkpt lat="38.71119" lon="-9.12784667">
        <ele>17.0</ele>
        <time>2019-05-16T08:14:37.897Z</time>
      </trkpt>
      <trkpt lat="38.7112" lon="-9.12781833">
        <ele>16.0</ele>
        <time>2019-05-16T08:14:38.908Z</time>
      </trkpt>
      <trkpt lat="38.7112" lon="-9.12781833">
        <ele>16.0</ele>
        <time>2019-05-16T08:14:39.917Z</time>
      </trkpt>
      <trkpt lat="38.71122167" lon="-9.12779833">
        <ele>16.0</ele>
        <time>2019-05-16T08:14:40.926Z</time>
      </trkpt>
      <trkpt lat="38.71122167" lon="-9.12779833">
        <ele>16.0</ele>
        <time>2019-05-16T08:14:41.897Z</time>
      </trkpt>
      <trkpt lat="38.71124167" lon="-9.127775">
        <ele>16.0</ele>
        <time>2019-05-16T08:14:42.935Z</time>
      </trkpt>
      <trkpt lat="38.71124167" lon="-9.127775">
        <ele>16.0</ele>
        <time>2019-05-16T08:14:43.936Z</time>
      </trkpt>
      <trkpt lat="38.71124833" lon="-9.12774667">
        <ele>16.0</ele>
        <time>2019-05-16T08:14:44.910Z</time>
      </trkpt>
      <trkpt lat="38.71124833" lon="-9.12774667">
        <ele>16.0</ele>
        <time>2019-05-16T08:14:45.923Z</time>
      </trkpt>
      <trkpt lat="38.71123833" lon="-9.12771167">
        <ele>17.0</ele>
        <time>2019-05-16T08:14:46.906Z</time>
      </trkpt>
      <trkpt lat="38.71123833" lon="-9.12771167">
        <ele>17.0</ele>
        <time>2019-05-16T08:14:47.919Z</time>
      </trkpt>
      <trkpt lat="38.711245" lon="-9.12769667">
        <ele>17.0</ele>
        <time>2019-05-16T08:14:48.911Z</time>
      </trkpt>
      <trkpt lat="38.711245" lon="-9.12769667">
        <ele>17.0</ele>
        <time>2019-05-16T08:14:49.930Z</time>
      </trkpt>
      <trkpt lat="38.711265" lon="-9.12769333">
        <ele>17.0</ele>
        <time>2019-05-16T08:14:50.898Z</time>
      </trkpt>
      <trkpt lat="38.711265" lon="-9.12769333">
        <ele>17.0</ele>
        <time>2019-05-16T08:14:51.909Z</time>
      </trkpt>
      <trkpt lat="38.71128167" lon="-9.12770167">
        <ele>18.0</ele>
        <time>2019-05-16T08:14:52.901Z</time>
      </trkpt>
      <trkpt lat="38.71128167" lon="-9.12770167">
        <ele>18.0</ele>
        <time>2019-05-16T08:14:53.897Z</time>
      </trkpt>
      <trkpt lat="38.71129667" lon="-9.12770167">
        <ele>18.0</ele>
        <time>2019-05-16T08:14:54.907Z</time>
      </trkpt>
      <trkpt lat="38.71129667" lon="-9.12770167">
        <ele>18.0</ele>
        <time>2019-05-16T08:14:55.917Z</time>
      </trkpt>
      <trkpt lat="38.71131833" lon="-9.12770167">
        <ele>18.0</ele>
        <time>2019-05-16T08:14:56.927Z</time>
      </trkpt>
      <trkpt lat="38.71131833" lon="-9.12770167">
        <ele>18.0</ele>
        <time>2019-05-16T08:14:57.907Z</time>
      </trkpt>
      <trkpt lat="38.71134333" lon="-9.12768667">
        <ele>19.0</ele>
        <time>2019-05-16T08:14:58.912Z</time>
      </trkpt>
      <trkpt lat="38.71134333" lon="-9.12768667">
        <ele>19.0</ele>
        <time>2019-05-16T08:14:59.924Z</time>
      </trkpt>
      <trkpt lat="38.711375" lon="-9.12766667">
        <ele>19.0</ele>
        <time>2019-05-16T08:15:00.932Z</time>
      </trkpt>
      <trkpt lat="38.711375" lon="-9.12766667">
        <ele>19.0</ele>
        <time>2019-05-16T08:15:01.909Z</time>
      </trkpt>
      <trkpt lat="38.71139833" lon="-9.12765167">
        <ele>19.0</ele>
        <time>2019-05-16T08:15:02.920Z</time>
      </trkpt>
      <trkpt lat="38.71139833" lon="-9.12765167">
        <ele>19.0</ele>
        <time>2019-05-16T08:15:03.917Z</time>
      </trkpt>
      <trkpt lat="38.711435" lon="-9.12763833">
        <ele>19.0</ele>
        <time>2019-05-16T08:15:04.931Z</time>
      </trkpt>
      <trkpt lat="38.711435" lon="-9.12763833">
        <ele>19.0</ele>
        <time>2019-05-16T08:15:05.906Z</time>
      </trkpt>
      <trkpt lat="38.711495" lon="-9.12763667">
        <ele>19.0</ele>
        <time>2019-05-16T08:15:06.920Z</time>
      </trkpt>
      <trkpt lat="38.711495" lon="-9.12763667">
        <ele>19.0</ele>
        <time>2019-05-16T08:15:07.903Z</time>
      </trkpt>
      <trkpt lat="38.71153833" lon="-9.12761167">
        <ele>18.0</ele>
        <time>2019-05-16T08:15:08.909Z</time>
      </trkpt>
      <trkpt lat="38.71153833" lon="-9.12761167">
        <ele>18.0</ele>
        <time>2019-05-16T08:15:09.918Z</time>
      </trkpt>
      <trkpt lat="38.71156333" lon="-9.12758167">
        <ele>18.0</ele>
        <time>2019-05-16T08:15:10.925Z</time>
      </trkpt>
      <trkpt lat="38.71156333" lon="-9.12758167">
        <ele>18.0</ele>
        <time>2019-05-16T08:15:11.902Z</time>
      </trkpt>
      <trkpt lat="38.71160333" lon="-9.127555">
        <ele>18.0</ele>
        <time>2019-05-16T08:15:12.900Z</time>
      </trkpt>
      <trkpt lat="38.71160333" lon="-9.127555">
        <ele>18.0</ele>
        <time>2019-05-16T08:15:13.926Z</time>
      </trkpt>
      <trkpt lat="38.71164667" lon="-9.12754167">
        <ele>18.0</ele>
        <time>2019-05-16T08:15:14.933Z</time>
      </trkpt>
      <trkpt lat="38.71164667" lon="-9.12754167">
        <ele>18.0</ele>
        <time>2019-05-16T08:15:15.917Z</time>
      </trkpt>
      <trkpt lat="38.71169333" lon="-9.12753">
        <ele>18.0</ele>
        <time>2019-05-16T08:15:16.908Z</time>
      </trkpt>
      <trkpt lat="38.71171333" lon="-9.12752333">
        <ele>19.0</ele>
        <time>2019-05-16T08:15:17.925Z</time>
      </trkpt>
      <trkpt lat="38.71173333" lon="-9.12750333">
        <ele>19.0</ele>
        <time>2019-05-16T08:15:18.897Z</time>
      </trkpt>
      <trkpt lat="38.71173333" lon="-9.12750333">
        <ele>19.0</ele>
        <time>2019-05-16T08:15:19.915Z</time>
      </trkpt>
      <trkpt lat="38.71176333" lon="-9.12747833">
        <ele>19.0</ele>
        <time>2019-05-16T08:15:20.920Z</time>
      </trkpt>
      <trkpt lat="38.71176333" lon="-9.12747833">
        <ele>19.0</ele>
        <time>2019-05-16T08:15:21.909Z</time>
      </trkpt>
      <trkpt lat="38.71178667" lon="-9.12744167">
        <ele>19.0</ele>
        <time>2019-05-16T08:15:22.922Z</time>
      </trkpt>
      <trkpt lat="38.71178667" lon="-9.12744167">
        <ele>19.0</ele>
        <time>2019-05-16T08:15:23.933Z</time>
      </trkpt>
      <trkpt lat="38.71180167" lon="-9.12739833">
        <ele>19.0</ele>
        <time>2019-05-16T08:15:24.900Z</time>
      </trkpt>
      <trkpt lat="38.71180167" lon="-9.12739833">
        <ele>19.0</ele>
        <time>2019-05-16T08:15:25.917Z</time>
      </trkpt>
      <trkpt lat="38.711825" lon="-9.12735167">
        <ele>19.0</ele>
        <time>2019-05-16T08:15:27.004Z</time>
      </trkpt>
      <trkpt lat="38.711825" lon="-9.12735167">
        <ele>19.0</ele>
        <time>2019-05-16T08:15:27.925Z</time>
      </trkpt>
      <trkpt lat="38.71184" lon="-9.12729333">
        <ele>19.0</ele>
        <time>2019-05-16T08:15:28.935Z</time>
      </trkpt>
      <trkpt lat="38.71184" lon="-9.12729333">
        <ele>19.0</ele>
        <time>2019-05-16T08:15:29.918Z</time>
      </trkpt>
      <trkpt lat="38.711865" lon="-9.12725667">
        <ele>18.0</ele>
        <time>2019-05-16T08:15:30.925Z</time>
      </trkpt>
      <trkpt lat="38.711865" lon="-9.12725667">
        <ele>18.0</ele>
        <time>2019-05-16T08:15:31.932Z</time>
      </trkpt>
      <trkpt lat="38.71189" lon="-9.127205">
        <ele>18.0</ele>
        <time>2019-05-16T08:15:32.939Z</time>
      </trkpt>
      <trkpt lat="38.71189" lon="-9.127205">
        <ele>18.0</ele>
        <time>2019-05-16T08:15:33.920Z</time>
      </trkpt>
      <trkpt lat="38.71191" lon="-9.12716333">
        <ele>17.0</ele>
        <time>2019-05-16T08:15:34.930Z</time>
      </trkpt>
      <trkpt lat="38.71192333" lon="-9.127145">
        <ele>17.0</ele>
        <time>2019-05-16T08:15:35.900Z</time>
      </trkpt>
      <trkpt lat="38.71192333" lon="-9.127145">
        <ele>17.0</ele>
        <time>2019-05-16T08:15:36.916Z</time>
      </trkpt>
      <trkpt lat="38.711995" lon="-9.12716">
        <ele>17.0</ele>
        <time>2019-05-16T08:15:37.912Z</time>
      </trkpt>
      <trkpt lat="38.711995" lon="-9.12716">
        <ele>17.0</ele>
        <time>2019-05-16T08:15:38.928Z</time>
      </trkpt>
      <trkpt lat="38.71203" lon="-9.12714667">
        <ele>16.0</ele>
        <time>2019-05-16T08:15:39.936Z</time>
      </trkpt>
      <trkpt lat="38.71203" lon="-9.12714667">
        <ele>16.0</ele>
        <time>2019-05-16T08:15:40.911Z</time>
      </trkpt>
      <trkpt lat="38.71205" lon="-9.12711667">
        <ele>16.0</ele>
        <time>2019-05-16T08:15:41.897Z</time>
      </trkpt>
      <trkpt lat="38.71205667" lon="-9.1271">
        <ele>16.0</ele>
        <time>2019-05-16T08:15:42.917Z</time>
      </trkpt>
      <trkpt lat="38.71205667" lon="-9.1271">
        <ele>16.0</ele>
        <time>2019-05-16T08:15:43.929Z</time>
      </trkpt>
      <trkpt lat="38.71207667" lon="-9.12706333">
        <ele>16.0</ele>
        <time>2019-05-16T08:15:44.908Z</time>
      </trkpt>
      <trkpt lat="38.71207667" lon="-9.12706333">
        <ele>16.0</ele>
        <time>2019-05-16T08:15:45.923Z</time>
      </trkpt>
      <trkpt lat="38.71209167" lon="-9.12703833">
        <ele>17.0</ele>
        <time>2019-05-16T08:15:46.934Z</time>
      </trkpt>
      <trkpt lat="38.71209167" lon="-9.12703833">
        <ele>17.0</ele>
        <time>2019-05-16T08:15:47.906Z</time>
      </trkpt>
      <trkpt lat="38.712095" lon="-9.12703167">
        <ele>17.0</ele>
        <time>2019-05-16T08:15:48.913Z</time>
      </trkpt>
      <trkpt lat="38.712095" lon="-9.12703167">
        <ele>17.0</ele>
        <time>2019-05-16T08:15:49.927Z</time>
      </trkpt>
      <trkpt lat="38.7121" lon="-9.12701">
        <ele>17.0</ele>
        <time>2019-05-16T08:15:50.899Z</time>
      </trkpt>
      <trkpt lat="38.7121" lon="-9.12701">
        <ele>17.0</ele>
        <time>2019-05-16T08:15:51.930Z</time>
      </trkpt>
      <trkpt lat="38.71211" lon="-9.12697833">
        <ele>17.0</ele>
        <time>2019-05-16T08:15:52.899Z</time>
      </trkpt>
      <trkpt lat="38.71211" lon="-9.12697833">
        <ele>17.0</ele>
        <time>2019-05-16T08:15:53.909Z</time>
      </trkpt>
      <trkpt lat="38.71212667" lon="-9.126945">
        <ele>17.0</ele>
        <time>2019-05-16T08:15:54.914Z</time>
      </trkpt>
      <trkpt lat="38.71212667" lon="-9.126945">
        <ele>17.0</ele>
        <time>2019-05-16T08:15:55.934Z</time>
      </trkpt>
      <trkpt lat="38.71214167" lon="-9.12690833">
        <ele>17.0</ele>
        <time>2019-05-16T08:15:56.920Z</time>
      </trkpt>
      <trkpt lat="38.71214167" lon="-9.12690833">
        <ele>17.0</ele>
        <time>2019-05-16T08:15:57.918Z</time>
      </trkpt>
      <trkpt lat="38.71213667" lon="-9.12687">
        <ele>17.0</ele>
        <time>2019-05-16T08:15:58.927Z</time>
      </trkpt>
      <trkpt lat="38.71213667" lon="-9.12687">
        <ele>17.0</ele>
        <time>2019-05-16T08:15:59.935Z</time>
      </trkpt>
      <trkpt lat="38.71214833" lon="-9.12685333">
        <ele>16.0</ele>
        <time>2019-05-16T08:16:00.903Z</time>
      </trkpt>
      <trkpt lat="38.71214833" lon="-9.12685333">
        <ele>16.0</ele>
        <time>2019-05-16T08:16:01.930Z</time>
      </trkpt>
      <trkpt lat="38.71214667" lon="-9.126855">
        <ele>17.0</ele>
        <time>2019-05-16T08:16:02.910Z</time>
      </trkpt>
      <trkpt lat="38.71214667" lon="-9.126855">
        <ele>17.0</ele>
        <time>2019-05-16T08:16:03.910Z</time>
      </trkpt>
      <trkpt lat="38.71214833" lon="-9.12686">
        <ele>16.0</ele>
        <time>2019-05-16T08:16:04.918Z</time>
      </trkpt>
      <trkpt lat="38.71214833" lon="-9.12686">
        <ele>16.0</ele>
        <time>2019-05-16T08:16:05.914Z</time>
      </trkpt>
      <trkpt lat="38.71214833" lon="-9.12686">
        <ele>16.0</ele>
        <time>2019-05-16T08:16:06.919Z</time>
      </trkpt>
      <trkpt lat="38.71214833" lon="-9.12686">
        <ele>16.0</ele>
        <time>2019-05-16T08:16:07.921Z</time>
      </trkpt>
      <trkpt lat="38.71216" lon="-9.12681167">
        <ele>16.0</ele>
        <time>2019-05-16T08:16:08.921Z</time>
      </trkpt>
      <trkpt lat="38.71216" lon="-9.12681167">
        <ele>16.0</ele>
        <time>2019-05-16T08:16:09.920Z</time>
      </trkpt>
      <trkpt lat="38.712175" lon="-9.12677">
        <ele>17.0</ele>
        <time>2019-05-16T08:16:10.919Z</time>
      </trkpt>
      <trkpt lat="38.712175" lon="-9.12677">
        <ele>17.0</ele>
        <time>2019-05-16T08:16:11.915Z</time>
      </trkpt>
      <trkpt lat="38.712195" lon="-9.12673833">
        <ele>16.0</ele>
        <time>2019-05-16T08:16:12.911Z</time>
      </trkpt>
      <trkpt lat="38.712195" lon="-9.12673833">
        <ele>16.0</ele>
        <time>2019-05-16T08:16:13.915Z</time>
      </trkpt>
      <trkpt lat="38.712215" lon="-9.12671">
        <ele>16.0</ele>
        <time>2019-05-16T08:16:14.927Z</time>
      </trkpt>
      <trkpt lat="38.712215" lon="-9.12671">
        <ele>16.0</ele>
        <time>2019-05-16T08:16:15.914Z</time>
      </trkpt>
      <trkpt lat="38.71225" lon="-9.126685">
        <ele>17.0</ele>
        <time>2019-05-16T08:16:16.907Z</time>
      </trkpt>
      <trkpt lat="38.71225" lon="-9.126685">
        <ele>17.0</ele>
        <time>2019-05-16T08:16:17.911Z</time>
      </trkpt>
      <trkpt lat="38.71227333" lon="-9.12664333">
        <ele>17.0</ele>
        <time>2019-05-16T08:16:18.898Z</time>
      </trkpt>
      <trkpt lat="38.71227333" lon="-9.12664333">
        <ele>17.0</ele>
        <time>2019-05-16T08:16:19.921Z</time>
      </trkpt>
      <trkpt lat="38.71229333" lon="-9.12660167">
        <ele>17.0</ele>
        <time>2019-05-16T08:16:20.902Z</time>
      </trkpt>
      <trkpt lat="38.71229333" lon="-9.12660167">
        <ele>17.0</ele>
        <time>2019-05-16T08:16:21.912Z</time>
      </trkpt>
      <trkpt lat="38.71231" lon="-9.126545">
        <ele>17.0</ele>
        <time>2019-05-16T08:16:22.922Z</time>
      </trkpt>
      <trkpt lat="38.71231" lon="-9.126545">
        <ele>17.0</ele>
        <time>2019-05-16T08:16:23.906Z</time>
      </trkpt>
      <trkpt lat="38.71234167" lon="-9.12650167">
        <ele>17.0</ele>
        <time>2019-05-16T08:16:24.932Z</time>
      </trkpt>
      <trkpt lat="38.71234167" lon="-9.12650167">
        <ele>17.0</ele>
        <time>2019-05-16T08:16:25.912Z</time>
      </trkpt>
      <trkpt lat="38.71237833" lon="-9.12648333">
        <ele>17.0</ele>
        <time>2019-05-16T08:16:26.922Z</time>
      </trkpt>
      <trkpt lat="38.71237833" lon="-9.12648333">
        <ele>17.0</ele>
        <time>2019-05-16T08:16:27.930Z</time>
      </trkpt>
      <trkpt lat="38.71242333" lon="-9.12645667">
        <ele>18.0</ele>
        <time>2019-05-16T08:16:28.937Z</time>
      </trkpt>
      <trkpt lat="38.71242333" lon="-9.12645667">
        <ele>18.0</ele>
        <time>2019-05-16T08:16:29.903Z</time>
      </trkpt>
      <trkpt lat="38.71245833" lon="-9.12643333">
        <ele>18.0</ele>
        <time>2019-05-16T08:16:30.934Z</time>
      </trkpt>
      <trkpt lat="38.71245833" lon="-9.12643333">
        <ele>18.0</ele>
        <time>2019-05-16T08:16:31.908Z</time>
      </trkpt>
      <trkpt lat="38.71247667" lon="-9.126395">
        <ele>18.0</ele>
        <time>2019-05-16T08:16:32.932Z</time>
      </trkpt>
      <trkpt lat="38.71247667" lon="-9.126395">
        <ele>18.0</ele>
        <time>2019-05-16T08:16:33.909Z</time>
      </trkpt>
      <trkpt lat="38.71249667" lon="-9.12636">
        <ele>19.0</ele>
        <time>2019-05-16T08:16:34.923Z</time>
      </trkpt>
      <trkpt lat="38.71249667" lon="-9.12636">
        <ele>19.0</ele>
        <time>2019-05-16T08:16:35.905Z</time>
      </trkpt>
      <trkpt lat="38.71253333" lon="-9.12632667">
        <ele>19.0</ele>
        <time>2019-05-16T08:16:36.921Z</time>
      </trkpt>
      <trkpt lat="38.71253333" lon="-9.12632667">
        <ele>19.0</ele>
        <time>2019-05-16T08:16:37.906Z</time>
      </trkpt>
      <trkpt lat="38.712555" lon="-9.126285">
        <ele>19.0</ele>
        <time>2019-05-16T08:16:38.914Z</time>
      </trkpt>
      <trkpt lat="38.712555" lon="-9.126285">
        <ele>19.0</ele>
        <time>2019-05-16T08:16:39.931Z</time>
      </trkpt>
      <trkpt lat="38.7126" lon="-9.12627667">
        <ele>19.0</ele>
        <time>2019-05-16T08:16:40.898Z</time>
      </trkpt>
      <trkpt lat="38.7126" lon="-9.12627667">
        <ele>19.0</ele>
        <time>2019-05-16T08:16:41.917Z</time>
      </trkpt>
      <trkpt lat="38.71264833" lon="-9.12627833">
        <ele>20.0</ele>
        <time>2019-05-16T08:16:42.913Z</time>
      </trkpt>
      <trkpt lat="38.71264833" lon="-9.12627833">
        <ele>20.0</ele>
        <time>2019-05-16T08:16:43.913Z</time>
      </trkpt>
      <trkpt lat="38.712685" lon="-9.12629167">
        <ele>20.0</ele>
        <time>2019-05-16T08:16:44.922Z</time>
      </trkpt>
      <trkpt lat="38.71269333" lon="-9.1263">
        <ele>20.0</ele>
        <time>2019-05-16T08:16:45.903Z</time>
      </trkpt>
      <trkpt lat="38.71269333" lon="-9.1263">
        <ele>20.0</ele>
        <time>2019-05-16T08:16:46.921Z</time>
      </trkpt>
      <trkpt lat="38.71271333" lon="-9.12629833">
        <ele>20.0</ele>
        <time>2019-05-16T08:16:47.927Z</time>
      </trkpt>
      <trkpt lat="38.71271333" lon="-9.12629833">
        <ele>20.0</ele>
        <time>2019-05-16T08:16:48.897Z</time>
      </trkpt>
      <trkpt lat="38.71271333" lon="-9.12629833">
        <ele>20.0</ele>
        <time>2019-05-16T08:16:49.912Z</time>
      </trkpt>
      <trkpt lat="38.71273667" lon="-9.126285">
        <ele>21.0</ele>
        <time>2019-05-16T08:16:50.921Z</time>
      </trkpt>
      <trkpt lat="38.71273667" lon="-9.126285">
        <ele>21.0</ele>
        <time>2019-05-16T08:16:51.907Z</time>
      </trkpt>
      <trkpt lat="38.71274833" lon="-9.12626833">
        <ele>22.0</ele>
        <time>2019-05-16T08:16:52.913Z</time>
      </trkpt>
      <trkpt lat="38.71274833" lon="-9.12626833">
        <ele>22.0</ele>
        <time>2019-05-16T08:16:53.926Z</time>
      </trkpt>
      <trkpt lat="38.712765" lon="-9.12626667">
        <ele>23.0</ele>
        <time>2019-05-16T08:16:54.918Z</time>
      </trkpt>
      <trkpt lat="38.712765" lon="-9.12626667">
        <ele>23.0</ele>
        <time>2019-05-16T08:16:55.908Z</time>
      </trkpt>
      <trkpt lat="38.71278167" lon="-9.12625667">
        <ele>23.0</ele>
        <time>2019-05-16T08:16:56.919Z</time>
      </trkpt>
      <trkpt lat="38.71278167" lon="-9.12625667">
        <ele>23.0</ele>
        <time>2019-05-16T08:16:57.935Z</time>
      </trkpt>
      <trkpt lat="38.712795" lon="-9.12624333">
        <ele>24.0</ele>
        <time>2019-05-16T08:16:58.909Z</time>
      </trkpt>
      <trkpt lat="38.7128" lon="-9.126235">
        <ele>24.0</ele>
        <time>2019-05-16T08:16:59.934Z</time>
      </trkpt>
      <trkpt lat="38.712805" lon="-9.12622667">
        <ele>24.0</ele>
        <time>2019-05-16T08:17:00.904Z</time>
      </trkpt>
      <trkpt lat="38.712805" lon="-9.12622667">
        <ele>24.0</ele>
        <time>2019-05-16T08:17:01.912Z</time>
      </trkpt>
      <trkpt lat="38.71279833" lon="-9.12620667">
        <ele>24.0</ele>
        <time>2019-05-16T08:17:02.926Z</time>
      </trkpt>
      <trkpt lat="38.71278833" lon="-9.12619333">
        <ele>24.0</ele>
        <time>2019-05-16T08:17:03.908Z</time>
      </trkpt>
      <trkpt lat="38.71278833" lon="-9.12619333">
        <ele>24.0</ele>
        <time>2019-05-16T08:17:04.921Z</time>
      </trkpt>
      <trkpt lat="38.71278667" lon="-9.12618833">
        <ele>24.0</ele>
        <time>2019-05-16T08:17:05.931Z</time>
      </trkpt>
      <trkpt lat="38.71278667" lon="-9.12618833">
        <ele>24.0</ele>
        <time>2019-05-16T08:17:06.897Z</time>
      </trkpt>
      <trkpt lat="38.71278667" lon="-9.12618833">
        <ele>24.0</ele>
        <time>2019-05-16T08:17:07.909Z</time>
      </trkpt>
      <trkpt lat="38.71278667" lon="-9.12618833">
        <ele>24.0</ele>
        <time>2019-05-16T08:17:08.919Z</time>
      </trkpt>
      <trkpt lat="38.71278667" lon="-9.12618833">
        <ele>24.0</ele>
        <time>2019-05-16T08:17:09.914Z</time>
      </trkpt>
      <trkpt lat="38.71278667" lon="-9.12618833">
        <ele>24.0</ele>
        <time>2019-05-16T08:17:10.935Z</time>
      </trkpt>
      <trkpt lat="38.71278667" lon="-9.12618833">
        <ele>24.0</ele>
        <time>2019-05-16T08:17:11.921Z</time>
      </trkpt>
      <trkpt lat="38.71278667" lon="-9.12618833">
        <ele>24.0</ele>
        <time>2019-05-16T08:17:12.917Z</time>
      </trkpt>
      <trkpt lat="38.71278667" lon="-9.12618833">
        <ele>24.0</ele>
        <time>2019-05-16T08:17:13.919Z</time>
      </trkpt>
      <trkpt lat="38.71278667" lon="-9.12618833">
        <ele>24.0</ele>
        <time>2019-05-16T08:17:14.928Z</time>
      </trkpt>
      <trkpt lat="38.71278667" lon="-9.12618833">
        <ele>24.0</ele>
        <time>2019-05-16T08:17:15.921Z</time>
      </trkpt>
      <trkpt lat="38.71278667" lon="-9.12618833">
        <ele>24.0</ele>
        <time>2019-05-16T08:17:16.915Z</time>
      </trkpt>
      <trkpt lat="38.71278667" lon="-9.12618833">
        <ele>24.0</ele>
        <time>2019-05-16T08:17:17.921Z</time>
      </trkpt>
      <trkpt lat="38.71278667" lon="-9.12618833">
        <ele>24.0</ele>
        <time>2019-05-16T08:17:18.923Z</time>
      </trkpt>
      <trkpt lat="38.71278667" lon="-9.12618833">
        <ele>24.0</ele>
        <time>2019-05-16T08:17:19.914Z</time>
      </trkpt>
      <trkpt lat="38.71278667" lon="-9.12618833">
        <ele>24.0</ele>
        <time>2019-05-16T08:17:20.932Z</time>
      </trkpt>
      <trkpt lat="38.71278667" lon="-9.12618833">
        <ele>24.0</ele>
        <time>2019-05-16T08:17:21.915Z</time>
      </trkpt>
      <trkpt lat="38.71278667" lon="-9.12618833">
        <ele>24.0</ele>
        <time>2019-05-16T08:17:22.920Z</time>
      </trkpt>
      <trkpt lat="38.71278667" lon="-9.12618833">
        <ele>24.0</ele>
        <time>2019-05-16T08:17:23.917Z</time>
      </trkpt>
      <trkpt lat="38.71278667" lon="-9.12618833">
        <ele>24.0</ele>
        <time>2019-05-16T08:17:24.917Z</time>
      </trkpt>
      <trkpt lat="38.71278667" lon="-9.12618833">
        <ele>24.0</ele>
        <time>2019-05-16T08:17:25.919Z</time>
      </trkpt>
      <trkpt lat="38.71278667" lon="-9.12618833">
        <ele>24.0</ele>
        <time>2019-05-16T08:17:26.915Z</time>
      </trkpt>
      <trkpt lat="38.71280833" lon="-9.12618333">
        <ele>25.0</ele>
        <time>2019-05-16T08:17:27.921Z</time>
      </trkpt>
      <trkpt lat="38.71280833" lon="-9.12618333">
        <ele>25.0</ele>
        <time>2019-05-16T08:17:28.915Z</time>
      </trkpt>
      <trkpt lat="38.71282833" lon="-9.12616333">
        <ele>26.0</ele>
        <time>2019-05-16T08:17:29.920Z</time>
      </trkpt>
      <trkpt lat="38.71283333" lon="-9.12615">
        <ele>26.0</ele>
        <time>2019-05-16T08:17:30.923Z</time>
      </trkpt>
      <trkpt lat="38.71283333" lon="-9.12615">
        <ele>26.0</ele>
        <time>2019-05-16T08:17:31.914Z</time>
      </trkpt>
      <trkpt lat="38.71284667" lon="-9.12612667">
        <ele>26.0</ele>
        <time>2019-05-16T08:17:32.914Z</time>
      </trkpt>
      <trkpt lat="38.71284667" lon="-9.12612667">
        <ele>26.0</ele>
        <time>2019-05-16T08:17:33.909Z</time>
      </trkpt>
      <trkpt lat="38.71285667" lon="-9.12611">
        <ele>26.0</ele>
        <time>2019-05-16T08:17:34.920Z</time>
      </trkpt>
      <trkpt lat="38.71285667" lon="-9.12611">
        <ele>26.0</ele>
        <time>2019-05-16T08:17:35.932Z</time>
      </trkpt>
      <trkpt lat="38.71286667" lon="-9.12609667">
        <ele>27.0</ele>
        <time>2019-05-16T08:17:36.904Z</time>
      </trkpt>
      <trkpt lat="38.71286667" lon="-9.12609667">
        <ele>27.0</ele>
        <time>2019-05-16T08:17:37.914Z</time>
      </trkpt>
      <trkpt lat="38.71287833" lon="-9.126085">
        <ele>27.0</ele>
        <time>2019-05-16T08:17:38.897Z</time>
      </trkpt>
      <trkpt lat="38.71287833" lon="-9.126085">
        <ele>27.0</ele>
        <time>2019-05-16T08:17:39.909Z</time>
      </trkpt>
      <trkpt lat="38.71287" lon="-9.12605833">
        <ele>27.0</ele>
        <time>2019-05-16T08:17:40.932Z</time>
      </trkpt>
      <trkpt lat="38.71287" lon="-9.12605833">
        <ele>27.0</ele>
        <time>2019-05-16T08:17:41.904Z</time>
      </trkpt>
      <trkpt lat="38.71286167" lon="-9.126055">
        <ele>27.0</ele>
        <time>2019-05-16T08:17:42.912Z</time>
      </trkpt>
      <trkpt lat="38.71286167" lon="-9.126055">
        <ele>27.0</ele>
        <time>2019-05-16T08:17:43.919Z</time>
      </trkpt>
      <trkpt lat="38.71285833" lon="-9.12605">
        <ele>28.0</ele>
        <time>2019-05-16T08:17:44.926Z</time>
      </trkpt>
      <trkpt lat="38.71285833" lon="-9.12605">
        <ele>28.0</ele>
        <time>2019-05-16T08:17:45.916Z</time>
      </trkpt>
      <trkpt lat="38.71285833" lon="-9.12605">
        <ele>28.0</ele>
        <time>2019-05-16T08:17:46.908Z</time>
      </trkpt>
      <trkpt lat="38.71285833" lon="-9.12605">
        <ele>28.0</ele>
        <time>2019-05-16T08:17:47.914Z</time>
      </trkpt>
      <trkpt lat="38.71285833" lon="-9.12605">
        <ele>28.0</ele>
        <time>2019-05-16T08:17:48.921Z</time>
      </trkpt>
      <trkpt lat="38.71285833" lon="-9.12605">
        <ele>28.0</ele>
        <time>2019-05-16T08:17:49.927Z</time>
      </trkpt>
      <trkpt lat="38.71286333" lon="-9.126015">
        <ele>28.0</ele>
        <time>2019-05-16T08:17:50.932Z</time>
      </trkpt>
      <trkpt lat="38.71287167" lon="-9.12601">
        <ele>28.0</ele>
        <time>2019-05-16T08:17:51.921Z</time>
      </trkpt>
      <trkpt lat="38.71287167" lon="-9.12601">
        <ele>28.0</ele>
        <time>2019-05-16T08:17:52.915Z</time>
      </trkpt>
      <trkpt lat="38.712905" lon="-9.126015">
        <ele>28.0</ele>
        <time>2019-05-16T08:17:53.914Z</time>
      </trkpt>
      <trkpt lat="38.71291167" lon="-9.126005">
        <ele>28.0</ele>
        <time>2019-05-16T08:17:54.933Z</time>
      </trkpt>
      <trkpt lat="38.71291167" lon="-9.126005">
        <ele>28.0</ele>
        <time>2019-05-16T08:17:55.909Z</time>
      </trkpt>
      <trkpt lat="38.712925" lon="-9.12597333">
        <ele>29.0</ele>
        <time>2019-05-16T08:17:56.919Z</time>
      </trkpt>
      <trkpt lat="38.712925" lon="-9.12597333">
        <ele>29.0</ele>
        <time>2019-05-16T08:17:57.937Z</time>
      </trkpt>
      <trkpt lat="38.71294333" lon="-9.125955">
        <ele>29.0</ele>
        <time>2019-05-16T08:17:58.913Z</time>
      </trkpt>
      <trkpt lat="38.71294333" lon="-9.125955">
        <ele>29.0</ele>
        <time>2019-05-16T08:17:59.926Z</time>
      </trkpt>
      <trkpt lat="38.712955" lon="-9.12593">
        <ele>29.0</ele>
        <time>2019-05-16T08:18:00.934Z</time>
      </trkpt>
      <trkpt lat="38.712955" lon="-9.12593">
        <ele>29.0</ele>
        <time>2019-05-16T08:18:01.908Z</time>
      </trkpt>
      <trkpt lat="38.71297333" lon="-9.12591">
        <ele>29.0</ele>
        <time>2019-05-16T08:18:02.916Z</time>
      </trkpt>
      <trkpt lat="38.71297333" lon="-9.12591">
        <ele>29.0</ele>
        <time>2019-05-16T08:18:03.926Z</time>
      </trkpt>
      <trkpt lat="38.71299333" lon="-9.125875">
        <ele>30.0</ele>
        <time>2019-05-16T08:18:04.935Z</time>
      </trkpt>
      <trkpt lat="38.71299333" lon="-9.125875">
        <ele>30.0</ele>
        <time>2019-05-16T08:18:05.915Z</time>
      </trkpt>
      <trkpt lat="38.71301167" lon="-9.12584833">
        <ele>30.0</ele>
        <time>2019-05-16T08:18:06.924Z</time>
      </trkpt>
      <trkpt lat="38.71301167" lon="-9.12584833">
        <ele>30.0</ele>
        <time>2019-05-16T08:18:07.928Z</time>
      </trkpt>
      <trkpt lat="38.71304" lon="-9.12582333">
        <ele>30.0</ele>
        <time>2019-05-16T08:18:08.901Z</time>
      </trkpt>
      <trkpt lat="38.71304" lon="-9.12582333">
        <ele>30.0</ele>
        <time>2019-05-16T08:18:09.919Z</time>
      </trkpt>
      <trkpt lat="38.71305833" lon="-9.12578167">
        <ele>30.0</ele>
        <time>2019-05-16T08:18:10.927Z</time>
      </trkpt>
      <trkpt lat="38.71305833" lon="-9.12578167">
        <ele>30.0</ele>
        <time>2019-05-16T08:18:11.934Z</time>
      </trkpt>
      <trkpt lat="38.71307667" lon="-9.12573167">
        <ele>30.0</ele>
        <time>2019-05-16T08:18:12.913Z</time>
      </trkpt>
      <trkpt lat="38.71307667" lon="-9.12573167">
        <ele>30.0</ele>
        <time>2019-05-16T08:18:13.909Z</time>
      </trkpt>
      <trkpt lat="38.71311667" lon="-9.12569167">
        <ele>30.0</ele>
        <time>2019-05-16T08:18:14.923Z</time>
      </trkpt>
      <trkpt lat="38.71311667" lon="-9.12569167">
        <ele>30.0</ele>
        <time>2019-05-16T08:18:15.899Z</time>
      </trkpt>
      <trkpt lat="38.71317333" lon="-9.12565167">
        <ele>30.0</ele>
        <time>2019-05-16T08:18:16.908Z</time>
      </trkpt>
      <trkpt lat="38.71317333" lon="-9.12565167">
        <ele>30.0</ele>
        <time>2019-05-16T08:18:17.916Z</time>
      </trkpt>
      <trkpt lat="38.71322167" lon="-9.12558">
        <ele>30.0</ele>
        <time>2019-05-16T08:18:18.923Z</time>
      </trkpt>
      <trkpt lat="38.71322167" lon="-9.12558">
        <ele>30.0</ele>
        <time>2019-05-16T08:18:19.900Z</time>
      </trkpt>
      <trkpt lat="38.71326333" lon="-9.12549833">
        <ele>30.0</ele>
        <time>2019-05-16T08:18:20.935Z</time>
      </trkpt>
      <trkpt lat="38.71326333" lon="-9.12549833">
        <ele>30.0</ele>
        <time>2019-05-16T08:18:21.919Z</time>
      </trkpt>
      <trkpt lat="38.71328667" lon="-9.12544">
        <ele>30.0</ele>
        <time>2019-05-16T08:18:22.934Z</time>
      </trkpt>
      <trkpt lat="38.71328667" lon="-9.12544">
        <ele>30.0</ele>
        <time>2019-05-16T08:18:23.920Z</time>
      </trkpt>
      <trkpt lat="38.71330333" lon="-9.12539167">
        <ele>30.0</ele>
        <time>2019-05-16T08:18:24.922Z</time>
      </trkpt>
      <trkpt lat="38.71330333" lon="-9.12539167">
        <ele>30.0</ele>
        <time>2019-05-16T08:18:25.914Z</time>
      </trkpt>
      <trkpt lat="38.71332667" lon="-9.12535167">
        <ele>29.0</ele>
        <time>2019-05-16T08:18:26.921Z</time>
      </trkpt>
      <trkpt lat="38.71332667" lon="-9.12535167">
        <ele>29.0</ele>
        <time>2019-05-16T08:18:27.931Z</time>
      </trkpt>
      <trkpt lat="38.71335667" lon="-9.12532333">
        <ele>29.0</ele>
        <time>2019-05-16T08:18:28.898Z</time>
      </trkpt>
      <trkpt lat="38.71335667" lon="-9.12532333">
        <ele>29.0</ele>
        <time>2019-05-16T08:18:29.910Z</time>
      </trkpt>
      <trkpt lat="38.71338333" lon="-9.12529667">
        <ele>28.0</ele>
        <time>2019-05-16T08:18:30.914Z</time>
      </trkpt>
      <trkpt lat="38.71338333" lon="-9.12529667">
        <ele>28.0</ele>
        <time>2019-05-16T08:18:31.898Z</time>
      </trkpt>
      <trkpt lat="38.71341333" lon="-9.12527333">
        <ele>28.0</ele>
        <time>2019-05-16T08:18:32.904Z</time>
      </trkpt>
      <trkpt lat="38.71341333" lon="-9.12527333">
        <ele>28.0</ele>
        <time>2019-05-16T08:18:33.921Z</time>
      </trkpt>
      <trkpt lat="38.71344333" lon="-9.12524833">
        <ele>28.0</ele>
        <time>2019-05-16T08:18:34.932Z</time>
      </trkpt>
      <trkpt lat="38.71344333" lon="-9.12524833">
        <ele>28.0</ele>
        <time>2019-05-16T08:18:35.904Z</time>
      </trkpt>
      <trkpt lat="38.71347" lon="-9.12519667">
        <ele>28.0</ele>
        <time>2019-05-16T08:18:36.948Z</time>
      </trkpt>
      <trkpt lat="38.71347" lon="-9.12519667">
        <ele>28.0</ele>
        <time>2019-05-16T08:18:37.901Z</time>
      </trkpt>
      <trkpt lat="38.71350333" lon="-9.12515333">
        <ele>28.0</ele>
        <time>2019-05-16T08:18:38.915Z</time>
      </trkpt>
      <trkpt lat="38.71352167" lon="-9.12513333">
        <ele>28.0</ele>
        <time>2019-05-16T08:18:39.926Z</time>
      </trkpt>
      <trkpt lat="38.71352167" lon="-9.12513333">
        <ele>28.0</ele>
        <time>2019-05-16T08:18:40.909Z</time>
      </trkpt>
      <trkpt lat="38.71355167" lon="-9.1251">
        <ele>27.0</ele>
        <time>2019-05-16T08:18:41.918Z</time>
      </trkpt>
      <trkpt lat="38.71356333" lon="-9.12508167">
        <ele>27.0</ele>
        <time>2019-05-16T08:18:42.909Z</time>
      </trkpt>
      <trkpt lat="38.71356333" lon="-9.12508167">
        <ele>27.0</ele>
        <time>2019-05-16T08:18:43.927Z</time>
      </trkpt>
      <trkpt lat="38.71358667" lon="-9.12504167">
        <ele>27.0</ele>
        <time>2019-05-16T08:18:44.898Z</time>
      </trkpt>
      <trkpt lat="38.71358667" lon="-9.12504167">
        <ele>27.0</ele>
        <time>2019-05-16T08:18:45.914Z</time>
      </trkpt>
      <trkpt lat="38.71361" lon="-9.12501">
        <ele>26.0</ele>
        <time>2019-05-16T08:18:46.922Z</time>
      </trkpt>
      <trkpt lat="38.71361" lon="-9.12501">
        <ele>26.0</ele>
        <time>2019-05-16T08:18:47.899Z</time>
      </trkpt>
      <trkpt lat="38.71362833" lon="-9.124975">
        <ele>26.0</ele>
        <time>2019-05-16T08:18:48.908Z</time>
      </trkpt>
      <trkpt lat="38.71362833" lon="-9.124975">
        <ele>26.0</ele>
        <time>2019-05-16T08:18:49.929Z</time>
      </trkpt>
      <trkpt lat="38.71364" lon="-9.124955">
        <ele>26.0</ele>
        <time>2019-05-16T08:18:50.901Z</time>
      </trkpt>
      <trkpt lat="38.71364" lon="-9.124955">
        <ele>26.0</ele>
        <time>2019-05-16T08:18:51.913Z</time>
      </trkpt>
      <trkpt lat="38.71363667" lon="-9.12495333">
        <ele>26.0</ele>
        <time>2019-05-16T08:18:52.910Z</time>
      </trkpt>
      <trkpt lat="38.71363667" lon="-9.12495333">
        <ele>26.0</ele>
        <time>2019-05-16T08:18:53.931Z</time>
      </trkpt>
      <trkpt lat="38.71363333" lon="-9.12495333">
        <ele>26.0</ele>
        <time>2019-05-16T08:18:54.897Z</time>
      </trkpt>
      <trkpt lat="38.71363333" lon="-9.12495333">
        <ele>26.0</ele>
        <time>2019-05-16T08:18:55.917Z</time>
      </trkpt>
      <trkpt lat="38.71363333" lon="-9.12495333">
        <ele>26.0</ele>
        <time>2019-05-16T08:18:56.921Z</time>
      </trkpt>
      <trkpt lat="38.71363333" lon="-9.12495333">
        <ele>26.0</ele>
        <time>2019-05-16T08:18:57.921Z</time>
      </trkpt>
      <trkpt lat="38.71363167" lon="-9.12491167">
        <ele>27.0</ele>
        <time>2019-05-16T08:18:58.920Z</time>
      </trkpt>
      <trkpt lat="38.71363167" lon="-9.12491167">
        <ele>27.0</ele>
        <time>2019-05-16T08:18:59.930Z</time>
      </trkpt>
      <trkpt lat="38.71364833" lon="-9.12488667">
        <ele>27.0</ele>
        <time>2019-05-16T08:19:00.923Z</time>
      </trkpt>
      <trkpt lat="38.71364833" lon="-9.12488667">
        <ele>27.0</ele>
        <time>2019-05-16T08:19:01.918Z</time>
      </trkpt>
      <trkpt lat="38.71367" lon="-9.12486167">
        <ele>27.0</ele>
        <time>2019-05-16T08:19:02.921Z</time>
      </trkpt>
      <trkpt lat="38.71367" lon="-9.12486167">
        <ele>27.0</ele>
        <time>2019-05-16T08:19:03.915Z</time>
      </trkpt>
      <trkpt lat="38.713695" lon="-9.12482">
        <ele>27.0</ele>
        <time>2019-05-16T08:19:04.901Z</time>
      </trkpt>
      <trkpt lat="38.713695" lon="-9.12482">
        <ele>27.0</ele>
        <time>2019-05-16T08:19:05.909Z</time>
      </trkpt>
      <trkpt lat="38.713725" lon="-9.12477333">
        <ele>27.0</ele>
        <time>2019-05-16T08:19:06.916Z</time>
      </trkpt>
      <trkpt lat="38.713725" lon="-9.12477333">
        <ele>27.0</ele>
        <time>2019-05-16T08:19:07.925Z</time>
      </trkpt>
      <trkpt lat="38.71375667" lon="-9.12472167">
        <ele>27.0</ele>
        <time>2019-05-16T08:19:08.934Z</time>
      </trkpt>
      <trkpt lat="38.71375667" lon="-9.12472167">
        <ele>27.0</ele>
        <time>2019-05-16T08:19:09.909Z</time>
      </trkpt>
      <trkpt lat="38.713795" lon="-9.124685">
        <ele>27.0</ele>
        <time>2019-05-16T08:19:10.920Z</time>
      </trkpt>
      <trkpt lat="38.713795" lon="-9.124685">
        <ele>27.0</ele>
        <time>2019-05-16T08:19:11.909Z</time>
      </trkpt>
      <trkpt lat="38.71383833" lon="-9.12466333">
        <ele>27.0</ele>
        <time>2019-05-16T08:19:12.898Z</time>
      </trkpt>
      <trkpt lat="38.71383833" lon="-9.12466333">
        <ele>27.0</ele>
        <time>2019-05-16T08:19:13.924Z</time>
      </trkpt>
      <trkpt lat="38.713875" lon="-9.12460333">
        <ele>28.0</ele>
        <time>2019-05-16T08:19:14.930Z</time>
      </trkpt>
      <trkpt lat="38.713875" lon="-9.12460333">
        <ele>28.0</ele>
        <time>2019-05-16T08:19:15.907Z</time>
      </trkpt>
      <trkpt lat="38.71391833" lon="-9.12455">
        <ele>28.0</ele>
        <time>2019-05-16T08:19:16.916Z</time>
      </trkpt>
      <trkpt lat="38.71391833" lon="-9.12455">
        <ele>28.0</ele>
        <time>2019-05-16T08:19:17.932Z</time>
      </trkpt>
      <trkpt lat="38.713935" lon="-9.12445833">
        <ele>30.0</ele>
        <time>2019-05-16T08:19:18.898Z</time>
      </trkpt>
      <trkpt lat="38.713935" lon="-9.12445833">
        <ele>30.0</ele>
        <time>2019-05-16T08:19:19.914Z</time>
      </trkpt>
      <trkpt lat="38.71396833" lon="-9.124415">
        <ele>31.0</ele>
        <time>2019-05-16T08:19:20.934Z</time>
      </trkpt>
      <trkpt lat="38.71396833" lon="-9.124415">
        <ele>31.0</ele>
        <time>2019-05-16T08:19:21.907Z</time>
      </trkpt>
      <trkpt lat="38.714" lon="-9.12439">
        <ele>31.0</ele>
        <time>2019-05-16T08:19:22.913Z</time>
      </trkpt>
      <trkpt lat="38.714" lon="-9.12439">
        <ele>31.0</ele>
        <time>2019-05-16T08:19:23.930Z</time>
      </trkpt>
      <trkpt lat="38.71402333" lon="-9.12435667">
        <ele>31.0</ele>
        <time>2019-05-16T08:19:24.936Z</time>
      </trkpt>
      <trkpt lat="38.71402333" lon="-9.12435667">
        <ele>31.0</ele>
        <time>2019-05-16T08:19:25.910Z</time>
      </trkpt>
      <trkpt lat="38.71405333" lon="-9.12433833">
        <ele>31.0</ele>
        <time>2019-05-16T08:19:26.924Z</time>
      </trkpt>
      <trkpt lat="38.71405333" lon="-9.12433833">
        <ele>31.0</ele>
        <time>2019-05-16T08:19:27.898Z</time>
      </trkpt>
      <trkpt lat="38.714065" lon="-9.1243">
        <ele>31.0</ele>
        <time>2019-05-16T08:19:28.904Z</time>
      </trkpt>
      <trkpt lat="38.714065" lon="-9.1243">
        <ele>31.0</ele>
        <time>2019-05-16T08:19:29.922Z</time>
      </trkpt>
      <trkpt lat="38.714085" lon="-9.12427">
        <ele>31.0</ele>
        <time>2019-05-16T08:19:30.930Z</time>
      </trkpt>
      <trkpt lat="38.714085" lon="-9.12427">
        <ele>31.0</ele>
        <time>2019-05-16T08:19:31.910Z</time>
      </trkpt>
      <trkpt lat="38.714115" lon="-9.12424833">
        <ele>31.0</ele>
        <time>2019-05-16T08:19:32.909Z</time>
      </trkpt>
      <trkpt lat="38.714115" lon="-9.12424833">
        <ele>31.0</ele>
        <time>2019-05-16T08:19:33.916Z</time>
      </trkpt>
      <trkpt lat="38.71412833" lon="-9.12422">
        <ele>31.0</ele>
        <time>2019-05-16T08:19:34.926Z</time>
      </trkpt>
      <trkpt lat="38.714145" lon="-9.12421167">
        <ele>31.0</ele>
        <time>2019-05-16T08:19:35.940Z</time>
      </trkpt>
      <trkpt lat="38.71415667" lon="-9.1242">
        <ele>31.0</ele>
        <time>2019-05-16T08:19:36.916Z</time>
      </trkpt>
      <trkpt lat="38.71415667" lon="-9.1242">
        <ele>31.0</ele>
        <time>2019-05-16T08:19:37.907Z</time>
      </trkpt>
      <trkpt lat="38.71418167" lon="-9.12417167">
        <ele>32.0</ele>
        <time>2019-05-16T08:19:38.914Z</time>
      </trkpt>
      <trkpt lat="38.71418167" lon="-9.12417167">
        <ele>32.0</ele>
        <time>2019-05-16T08:19:39.927Z</time>
      </trkpt>
      <trkpt lat="38.71420333" lon="-9.12414167">
        <ele>31.0</ele>
        <time>2019-05-16T08:19:40.933Z</time>
      </trkpt>
      <trkpt lat="38.71420333" lon="-9.12414167">
        <ele>31.0</ele>
        <time>2019-05-16T08:19:41.915Z</time>
      </trkpt>
      <trkpt lat="38.714215" lon="-9.124085">
        <ele>32.0</ele>
        <time>2019-05-16T08:19:42.927Z</time>
      </trkpt>
      <trkpt lat="38.714215" lon="-9.124085">
        <ele>32.0</ele>
        <time>2019-05-16T08:19:43.900Z</time>
      </trkpt>
      <trkpt lat="38.71424167" lon="-9.12406333">
        <ele>32.0</ele>
        <time>2019-05-16T08:19:44.909Z</time>
      </trkpt>
      <trkpt lat="38.71424167" lon="-9.12406333">
        <ele>32.0</ele>
        <time>2019-05-16T08:19:45.923Z</time>
      </trkpt>
      <trkpt lat="38.71426833" lon="-9.12403">
        <ele>32.0</ele>
        <time>2019-05-16T08:19:46.904Z</time>
      </trkpt>
      <trkpt lat="38.71426833" lon="-9.12403">
        <ele>32.0</ele>
        <time>2019-05-16T08:19:47.898Z</time>
      </trkpt>
      <trkpt lat="38.71428" lon="-9.12396833">
        <ele>32.0</ele>
        <time>2019-05-16T08:19:48.904Z</time>
      </trkpt>
      <trkpt lat="38.71428" lon="-9.12396833">
        <ele>32.0</ele>
        <time>2019-05-16T08:19:49.921Z</time>
      </trkpt>
      <trkpt lat="38.714305" lon="-9.12392167">
        <ele>32.0</ele>
        <time>2019-05-16T08:19:50.929Z</time>
      </trkpt>
      <trkpt lat="38.71432167" lon="-9.123905">
        <ele>32.0</ele>
        <time>2019-05-16T08:19:51.913Z</time>
      </trkpt>
      <trkpt lat="38.71432167" lon="-9.123905">
        <ele>32.0</ele>
        <time>2019-05-16T08:19:52.922Z</time>
      </trkpt>
      <trkpt lat="38.714355" lon="-9.12387">
        <ele>32.0</ele>
        <time>2019-05-16T08:19:53.934Z</time>
      </trkpt>
      <trkpt lat="38.71437833" lon="-9.12385833">
        <ele>32.0</ele>
        <time>2019-05-16T08:19:54.902Z</time>
      </trkpt>
      <trkpt lat="38.71437833" lon="-9.12385833">
        <ele>32.0</ele>
        <time>2019-05-16T08:19:55.914Z</time>
      </trkpt>
      <trkpt lat="38.71440667" lon="-9.12382667">
        <ele>33.0</ele>
        <time>2019-05-16T08:19:56.925Z</time>
      </trkpt>
      <trkpt lat="38.71440667" lon="-9.12382667">
        <ele>33.0</ele>
        <time>2019-05-16T08:19:57.900Z</time>
      </trkpt>
      <trkpt lat="38.71443333" lon="-9.12379667">
        <ele>33.0</ele>
        <time>2019-05-16T08:19:58.915Z</time>
      </trkpt>
      <trkpt lat="38.71443333" lon="-9.12379667">
        <ele>33.0</ele>
        <time>2019-05-16T08:19:59.927Z</time>
      </trkpt>
      <trkpt lat="38.714465" lon="-9.12377167">
        <ele>33.0</ele>
        <time>2019-05-16T08:20:00.901Z</time>
      </trkpt>
      <trkpt lat="38.714465" lon="-9.12377167">
        <ele>33.0</ele>
        <time>2019-05-16T08:20:01.922Z</time>
      </trkpt>
      <trkpt lat="38.71449" lon="-9.12373833">
        <ele>33.0</ele>
        <time>2019-05-16T08:20:02.929Z</time>
      </trkpt>
      <trkpt lat="38.71449" lon="-9.12373833">
        <ele>33.0</ele>
        <time>2019-05-16T08:20:03.913Z</time>
      </trkpt>
      <trkpt lat="38.71451" lon="-9.12371">
        <ele>33.0</ele>
        <time>2019-05-16T08:20:04.924Z</time>
      </trkpt>
      <trkpt lat="38.71451" lon="-9.12371">
        <ele>33.0</ele>
        <time>2019-05-16T08:20:05.898Z</time>
      </trkpt>
      <trkpt lat="38.71453833" lon="-9.12367667">
        <ele>33.0</ele>
        <time>2019-05-16T08:20:06.928Z</time>
      </trkpt>
      <trkpt lat="38.71453833" lon="-9.12367667">
        <ele>33.0</ele>
        <time>2019-05-16T08:20:07.912Z</time>
      </trkpt>
      <trkpt lat="38.71456833" lon="-9.12365">
        <ele>33.0</ele>
        <time>2019-05-16T08:20:08.918Z</time>
      </trkpt>
      <trkpt lat="38.71456833" lon="-9.12365">
        <ele>33.0</ele>
        <time>2019-05-16T08:20:09.931Z</time>
      </trkpt>
      <trkpt lat="38.71460167" lon="-9.12363333">
        <ele>34.0</ele>
        <time>2019-05-16T08:20:10.901Z</time>
      </trkpt>
      <trkpt lat="38.71460167" lon="-9.12363333">
        <ele>34.0</ele>
        <time>2019-05-16T08:20:11.912Z</time>
      </trkpt>
      <trkpt lat="38.714645" lon="-9.123625">
        <ele>34.0</ele>
        <time>2019-05-16T08:20:12.922Z</time>
      </trkpt>
      <trkpt lat="38.714645" lon="-9.123625">
        <ele>34.0</ele>
        <time>2019-05-16T08:20:13.935Z</time>
      </trkpt>
      <trkpt lat="38.71467667" lon="-9.123605">
        <ele>34.0</ele>
        <time>2019-05-16T08:20:14.898Z</time>
      </trkpt>
      <trkpt lat="38.71467667" lon="-9.123605">
        <ele>34.0</ele>
        <time>2019-05-16T08:20:15.907Z</time>
      </trkpt>
      <trkpt lat="38.714715" lon="-9.123575">
        <ele>35.0</ele>
        <time>2019-05-16T08:20:16.914Z</time>
      </trkpt>
      <trkpt lat="38.714715" lon="-9.123575">
        <ele>35.0</ele>
        <time>2019-05-16T08:20:17.929Z</time>
      </trkpt>
      <trkpt lat="38.714755" lon="-9.12354167">
        <ele>35.0</ele>
        <time>2019-05-16T08:20:18.936Z</time>
      </trkpt>
      <trkpt lat="38.714755" lon="-9.12354167">
        <ele>35.0</ele>
        <time>2019-05-16T08:20:19.909Z</time>
      </trkpt>
      <trkpt lat="38.71480333" lon="-9.12351167">
        <ele>35.0</ele>
        <time>2019-05-16T08:20:20.933Z</time>
      </trkpt>
      <trkpt lat="38.71480333" lon="-9.12351167">
        <ele>35.0</ele>
        <time>2019-05-16T08:20:21.907Z</time>
      </trkpt>
      <trkpt lat="38.714865" lon="-9.12348667">
        <ele>35.0</ele>
        <time>2019-05-16T08:20:22.914Z</time>
      </trkpt>
      <trkpt lat="38.71489333" lon="-9.123465">
        <ele>35.0</ele>
        <time>2019-05-16T08:20:23.934Z</time>
      </trkpt>
      <trkpt lat="38.714925" lon="-9.123445">
        <ele>36.0</ele>
        <time>2019-05-16T08:20:24.915Z</time>
      </trkpt>
      <trkpt lat="38.714925" lon="-9.123445">
        <ele>36.0</ele>
        <time>2019-05-16T08:20:25.898Z</time>
      </trkpt>
      <trkpt lat="38.71497667" lon="-9.123405">
        <ele>36.0</ele>
        <time>2019-05-16T08:20:26.912Z</time>
      </trkpt>
      <trkpt lat="38.71497667" lon="-9.123405">
        <ele>36.0</ele>
        <time>2019-05-16T08:20:27.923Z</time>
      </trkpt>
      <trkpt lat="38.71500667" lon="-9.12338167">
        <ele>36.0</ele>
        <time>2019-05-16T08:20:28.929Z</time>
      </trkpt>
      <trkpt lat="38.71500667" lon="-9.12338167">
        <ele>36.0</ele>
        <time>2019-05-16T08:20:29.910Z</time>
      </trkpt>
      <trkpt lat="38.71504833" lon="-9.12336833">
        <ele>36.0</ele>
        <time>2019-05-16T08:20:30.917Z</time>
      </trkpt>
      <trkpt lat="38.71504833" lon="-9.12336833">
        <ele>36.0</ele>
        <time>2019-05-16T08:20:31.927Z</time>
      </trkpt>
      <trkpt lat="38.715085" lon="-9.12334833">
        <ele>36.0</ele>
        <time>2019-05-16T08:20:32.940Z</time>
      </trkpt>
      <trkpt lat="38.715085" lon="-9.12334833">
        <ele>36.0</ele>
        <time>2019-05-16T08:20:33.911Z</time>
      </trkpt>
      <trkpt lat="38.71513167" lon="-9.123325">
        <ele>36.0</ele>
        <time>2019-05-16T08:20:34.920Z</time>
      </trkpt>
      <trkpt lat="38.71513167" lon="-9.123325">
        <ele>36.0</ele>
        <time>2019-05-16T08:20:35.935Z</time>
      </trkpt>
      <trkpt lat="38.715185" lon="-9.123295">
        <ele>37.0</ele>
        <time>2019-05-16T08:20:36.903Z</time>
      </trkpt>
      <trkpt lat="38.715185" lon="-9.123295">
        <ele>37.0</ele>
        <time>2019-05-16T08:20:37.915Z</time>
      </trkpt>
      <trkpt lat="38.71523333" lon="-9.12326167">
        <ele>37.0</ele>
        <time>2019-05-16T08:20:38.905Z</time>
      </trkpt>
      <trkpt lat="38.71523333" lon="-9.12326167">
        <ele>37.0</ele>
        <time>2019-05-16T08:20:39.905Z</time>
      </trkpt>
      <trkpt lat="38.715295" lon="-9.12323333">
        <ele>37.0</ele>
        <time>2019-05-16T08:20:40.914Z</time>
      </trkpt>
      <trkpt lat="38.715295" lon="-9.12323333">
        <ele>37.0</ele>
        <time>2019-05-16T08:20:41.931Z</time>
      </trkpt>
      <trkpt lat="38.71535667" lon="-9.12324167">
        <ele>36.0</ele>
        <time>2019-05-16T08:20:42.897Z</time>
      </trkpt>
      <trkpt lat="38.71535667" lon="-9.12324167">
        <ele>36.0</ele>
        <time>2019-05-16T08:20:43.922Z</time>
      </trkpt>
      <trkpt lat="38.71539667" lon="-9.12320333">
        <ele>35.0</ele>
        <time>2019-05-16T08:20:44.920Z</time>
      </trkpt>
      <trkpt lat="38.71539667" lon="-9.12320333">
        <ele>35.0</ele>
        <time>2019-05-16T08:20:45.924Z</time>
      </trkpt>
      <trkpt lat="38.715385" lon="-9.12308167">
        <ele>35.0</ele>
        <time>2019-05-16T08:20:46.931Z</time>
      </trkpt>
      <trkpt lat="38.715385" lon="-9.12308167">
        <ele>35.0</ele>
        <time>2019-05-16T08:20:47.917Z</time>
      </trkpt>
      <trkpt lat="38.715415" lon="-9.122995">
        <ele>35.0</ele>
        <time>2019-05-16T08:20:48.925Z</time>
      </trkpt>
      <trkpt lat="38.715415" lon="-9.122995">
        <ele>35.0</ele>
        <time>2019-05-16T08:20:49.914Z</time>
      </trkpt>
      <trkpt lat="38.71547333" lon="-9.12295333">
        <ele>36.0</ele>
        <time>2019-05-16T08:20:50.927Z</time>
      </trkpt>
      <trkpt lat="38.71547333" lon="-9.12295333">
        <ele>36.0</ele>
        <time>2019-05-16T08:20:51.932Z</time>
      </trkpt>
      <trkpt lat="38.71550833" lon="-9.12292167">
        <ele>36.0</ele>
        <time>2019-05-16T08:20:52.901Z</time>
      </trkpt>
      <trkpt lat="38.71550833" lon="-9.12292167">
        <ele>36.0</ele>
        <time>2019-05-16T08:20:53.921Z</time>
      </trkpt>
      <trkpt lat="38.71552833" lon="-9.12288667">
        <ele>37.0</ele>
        <time>2019-05-16T08:20:54.933Z</time>
      </trkpt>
      <trkpt lat="38.71552833" lon="-9.12288667">
        <ele>37.0</ele>
        <time>2019-05-16T08:20:55.910Z</time>
      </trkpt>
      <trkpt lat="38.71554833" lon="-9.122845">
        <ele>37.0</ele>
        <time>2019-05-16T08:20:56.903Z</time>
      </trkpt>
      <trkpt lat="38.71554833" lon="-9.122845">
        <ele>37.0</ele>
        <time>2019-05-16T08:20:57.909Z</time>
      </trkpt>
      <trkpt lat="38.71556833" lon="-9.12281">
        <ele>38.0</ele>
        <time>2019-05-16T08:20:58.919Z</time>
      </trkpt>
      <trkpt lat="38.71556833" lon="-9.12281">
        <ele>38.0</ele>
        <time>2019-05-16T08:20:59.933Z</time>
      </trkpt>
      <trkpt lat="38.715605" lon="-9.12277">
        <ele>38.0</ele>
        <time>2019-05-16T08:21:00.901Z</time>
      </trkpt>
      <trkpt lat="38.715605" lon="-9.12277">
        <ele>38.0</ele>
        <time>2019-05-16T08:21:01.913Z</time>
      </trkpt>
      <trkpt lat="38.71565" lon="-9.12273667">
        <ele>38.0</ele>
        <time>2019-05-16T08:21:02.920Z</time>
      </trkpt>
      <trkpt lat="38.71565" lon="-9.12273667">
        <ele>38.0</ele>
        <time>2019-05-16T08:21:03.930Z</time>
      </trkpt>
      <trkpt lat="38.71569333" lon="-9.12268667">
        <ele>38.0</ele>
        <time>2019-05-16T08:21:04.916Z</time>
      </trkpt>
      <trkpt lat="38.71569333" lon="-9.12268667">
        <ele>38.0</ele>
        <time>2019-05-16T08:21:05.919Z</time>
      </trkpt>
      <trkpt lat="38.71572167" lon="-9.12265333">
        <ele>39.0</ele>
        <time>2019-05-16T08:21:06.934Z</time>
      </trkpt>
      <trkpt lat="38.71572167" lon="-9.12265333">
        <ele>39.0</ele>
        <time>2019-05-16T08:21:07.910Z</time>
      </trkpt>
      <trkpt lat="38.71574833" lon="-9.12261667">
        <ele>39.0</ele>
        <time>2019-05-16T08:21:08.918Z</time>
      </trkpt>
      <trkpt lat="38.715765" lon="-9.122595">
        <ele>38.0</ele>
        <time>2019-05-16T08:21:09.913Z</time>
      </trkpt>
      <trkpt lat="38.715765" lon="-9.122595">
        <ele>38.0</ele>
        <time>2019-05-16T08:21:10.934Z</time>
      </trkpt>
      <trkpt lat="38.71579167" lon="-9.12255333">
        <ele>38.0</ele>
        <time>2019-05-16T08:21:11.904Z</time>
      </trkpt>
      <trkpt lat="38.71580333" lon="-9.12252667">
        <ele>38.0</ele>
        <time>2019-05-16T08:21:12.929Z</time>
      </trkpt>
      <trkpt lat="38.71580333" lon="-9.12252667">
        <ele>38.0</ele>
        <time>2019-05-16T08:21:13.908Z</time>
      </trkpt>
      <trkpt lat="38.71583" lon="-9.12249">
        <ele>38.0</ele>
        <time>2019-05-16T08:21:14.927Z</time>
      </trkpt>
      <trkpt lat="38.71584833" lon="-9.12247167">
        <ele>38.0</ele>
        <time>2019-05-16T08:21:15.907Z</time>
      </trkpt>
      <trkpt lat="38.71584833" lon="-9.12247167">
        <ele>38.0</ele>
        <time>2019-05-16T08:21:16.919Z</time>
      </trkpt>
      <trkpt lat="38.715875" lon="-9.12245333">
        <ele>37.0</ele>
        <time>2019-05-16T08:21:17.902Z</time>
      </trkpt>
      <trkpt lat="38.715895" lon="-9.12244167">
        <ele>38.0</ele>
        <time>2019-05-16T08:21:18.918Z</time>
      </trkpt>
      <trkpt lat="38.715895" lon="-9.12244167">
        <ele>38.0</ele>
        <time>2019-05-16T08:21:19.930Z</time>
      </trkpt>
      <trkpt lat="38.715935" lon="-9.12241667">
        <ele>38.0</ele>
        <time>2019-05-16T08:21:20.912Z</time>
      </trkpt>
      <trkpt lat="38.715935" lon="-9.12241667">
        <ele>38.0</ele>
        <time>2019-05-16T08:21:21.924Z</time>
      </trkpt>
      <trkpt lat="38.71598" lon="-9.122375">
        <ele>37.0</ele>
        <time>2019-05-16T08:21:22.931Z</time>
      </trkpt>
      <trkpt lat="38.71598" lon="-9.122375">
        <ele>37.0</ele>
        <time>2019-05-16T08:21:23.907Z</time>
      </trkpt>
      <trkpt lat="38.71602167" lon="-9.12233167">
        <ele>38.0</ele>
        <time>2019-05-16T08:21:24.916Z</time>
      </trkpt>
      <trkpt lat="38.71602167" lon="-9.12233167">
        <ele>38.0</ele>
        <time>2019-05-16T08:21:25.923Z</time>
      </trkpt>
      <trkpt lat="38.71606667" lon="-9.12230167">
        <ele>37.0</ele>
        <time>2019-05-16T08:21:26.911Z</time>
      </trkpt>
      <trkpt lat="38.71606667" lon="-9.12230167">
        <ele>37.0</ele>
        <time>2019-05-16T08:21:27.922Z</time>
      </trkpt>
      <trkpt lat="38.71610833" lon="-9.12227167">
        <ele>37.0</ele>
        <time>2019-05-16T08:21:28.935Z</time>
      </trkpt>
      <trkpt lat="38.71610833" lon="-9.12227167">
        <ele>37.0</ele>
        <time>2019-05-16T08:21:29.919Z</time>
      </trkpt>
      <trkpt lat="38.716145" lon="-9.122245">
        <ele>37.0</ele>
        <time>2019-05-16T08:21:30.926Z</time>
      </trkpt>
      <trkpt lat="38.716145" lon="-9.122245">
        <ele>37.0</ele>
        <time>2019-05-16T08:21:31.901Z</time>
      </trkpt>
      <trkpt lat="38.71618" lon="-9.12220667">
        <ele>37.0</ele>
        <time>2019-05-16T08:21:32.910Z</time>
      </trkpt>
      <trkpt lat="38.71618" lon="-9.12220667">
        <ele>37.0</ele>
        <time>2019-05-16T08:21:33.923Z</time>
      </trkpt>
      <trkpt lat="38.71625" lon="-9.122165">
        <ele>35.0</ele>
        <time>2019-05-16T08:21:34.909Z</time>
      </trkpt>
      <trkpt lat="38.71625" lon="-9.122165">
        <ele>35.0</ele>
        <time>2019-05-16T08:21:35.913Z</time>
      </trkpt>
      <trkpt lat="38.71631" lon="-9.12210167">
        <ele>34.0</ele>
        <time>2019-05-16T08:21:36.925Z</time>
      </trkpt>
      <trkpt lat="38.71631" lon="-9.12210167">
        <ele>34.0</ele>
        <time>2019-05-16T08:21:37.909Z</time>
      </trkpt>
      <trkpt lat="38.716385" lon="-9.12203833">
        <ele>32.0</ele>
        <time>2019-05-16T08:21:38.922Z</time>
      </trkpt>
      <trkpt lat="38.716385" lon="-9.12203833">
        <ele>32.0</ele>
        <time>2019-05-16T08:21:39.900Z</time>
      </trkpt>
      <trkpt lat="38.71645667" lon="-9.12196333">
        <ele>31.0</ele>
        <time>2019-05-16T08:21:40.914Z</time>
      </trkpt>
      <trkpt lat="38.71645667" lon="-9.12196333">
        <ele>31.0</ele>
        <time>2019-05-16T08:21:41.910Z</time>
      </trkpt>
      <trkpt lat="38.71654667" lon="-9.12187333">
        <ele>31.0</ele>
        <time>2019-05-16T08:21:42.929Z</time>
      </trkpt>
      <trkpt lat="38.71654667" lon="-9.12187333">
        <ele>31.0</ele>
        <time>2019-05-16T08:21:43.909Z</time>
      </trkpt>
      <trkpt lat="38.71661833" lon="-9.12176">
        <ele>30.0</ele>
        <time>2019-05-16T08:21:44.921Z</time>
      </trkpt>
      <trkpt lat="38.71661833" lon="-9.12176">
        <ele>30.0</ele>
        <time>2019-05-16T08:21:45.936Z</time>
      </trkpt>
      <trkpt lat="38.71667" lon="-9.12166667">
        <ele>28.0</ele>
        <time>2019-05-16T08:21:46.928Z</time>
      </trkpt>
      <trkpt lat="38.71667" lon="-9.12166667">
        <ele>28.0</ele>
        <time>2019-05-16T08:21:47.898Z</time>
      </trkpt>
      <trkpt lat="38.71671167" lon="-9.12157333">
        <ele>27.0</ele>
        <time>2019-05-16T08:21:48.912Z</time>
      </trkpt>
      <trkpt lat="38.71671167" lon="-9.12157333">
        <ele>27.0</ele>
        <time>2019-05-16T08:21:49.922Z</time>
      </trkpt>
      <trkpt lat="38.71675167" lon="-9.121485">
        <ele>26.0</ele>
        <time>2019-05-16T08:21:50.935Z</time>
      </trkpt>
      <trkpt lat="38.71675167" lon="-9.121485">
        <ele>26.0</ele>
        <time>2019-05-16T08:21:51.911Z</time>
      </trkpt>
      <trkpt lat="38.71680167" lon="-9.121435">
        <ele>26.0</ele>
        <time>2019-05-16T08:21:52.912Z</time>
      </trkpt>
      <trkpt lat="38.71680167" lon="-9.121435">
        <ele>26.0</ele>
        <time>2019-05-16T08:21:53.911Z</time>
      </trkpt>
      <trkpt lat="38.71685" lon="-9.121395">
        <ele>25.0</ele>
        <time>2019-05-16T08:21:54.922Z</time>
      </trkpt>
      <trkpt lat="38.71685" lon="-9.121395">
        <ele>25.0</ele>
        <time>2019-05-16T08:21:55.907Z</time>
      </trkpt>
      <trkpt lat="38.716895" lon="-9.121365">
        <ele>25.0</ele>
        <time>2019-05-16T08:21:56.916Z</time>
      </trkpt>
      <trkpt lat="38.716895" lon="-9.121365">
        <ele>25.0</ele>
        <time>2019-05-16T08:21:57.901Z</time>
      </trkpt>
      <trkpt lat="38.71694" lon="-9.12136333">
        <ele>25.0</ele>
        <time>2019-05-16T08:21:58.942Z</time>
      </trkpt>
      <trkpt lat="38.71694" lon="-9.12136333">
        <ele>25.0</ele>
        <time>2019-05-16T08:21:59.912Z</time>
      </trkpt>
      <trkpt lat="38.71698833" lon="-9.121375">
        <ele>24.0</ele>
        <time>2019-05-16T08:22:00.923Z</time>
      </trkpt>
      <trkpt lat="38.71698833" lon="-9.121375">
        <ele>24.0</ele>
        <time>2019-05-16T08:22:01.898Z</time>
      </trkpt>
      <trkpt lat="38.71705667" lon="-9.12143">
        <ele>24.0</ele>
        <time>2019-05-16T08:22:02.911Z</time>
      </trkpt>
      <trkpt lat="38.71708833" lon="-9.121465">
        <ele>24.0</ele>
        <time>2019-05-16T08:22:03.933Z</time>
      </trkpt>
      <trkpt lat="38.71708833" lon="-9.121465">
        <ele>24.0</ele>
        <time>2019-05-16T08:22:04.912Z</time>
      </trkpt>
      <trkpt lat="38.71714167" lon="-9.12153333">
        <ele>24.0</ele>
        <time>2019-05-16T08:22:05.919Z</time>
      </trkpt>
      <trkpt lat="38.717165" lon="-9.12156833">
        <ele>24.0</ele>
        <time>2019-05-16T08:22:06.899Z</time>
      </trkpt>
      <trkpt lat="38.717165" lon="-9.12156833">
        <ele>24.0</ele>
        <time>2019-05-16T08:22:07.923Z</time>
      </trkpt>
      <trkpt lat="38.71721333" lon="-9.12162833">
        <ele>24.0</ele>
        <time>2019-05-16T08:22:08.935Z</time>
      </trkpt>
      <trkpt lat="38.71723333" lon="-9.12165833">
        <ele>24.0</ele>
        <time>2019-05-16T08:22:09.917Z</time>
      </trkpt>
      <trkpt lat="38.71723333" lon="-9.12165833">
        <ele>24.0</ele>
        <time>2019-05-16T08:22:10.932Z</time>
      </trkpt>
      <trkpt lat="38.71728667" lon="-9.12172833">
        <ele>24.0</ele>
        <time>2019-05-16T08:22:11.900Z</time>
      </trkpt>
      <trkpt lat="38.717305" lon="-9.121755">
        <ele>24.0</ele>
        <time>2019-05-16T08:22:12.913Z</time>
      </trkpt>
      <trkpt lat="38.717305" lon="-9.121755">
        <ele>24.0</ele>
        <time>2019-05-16T08:22:13.930Z</time>
      </trkpt>
      <trkpt lat="38.71733167" lon="-9.12179667">
        <ele>24.0</ele>
        <time>2019-05-16T08:22:14.898Z</time>
      </trkpt>
      <trkpt lat="38.71733167" lon="-9.12179667">
        <ele>24.0</ele>
        <time>2019-05-16T08:22:15.925Z</time>
      </trkpt>
      <trkpt lat="38.717365" lon="-9.12178333">
        <ele>23.0</ele>
        <time>2019-05-16T08:22:16.936Z</time>
      </trkpt>
      <trkpt lat="38.71738" lon="-9.12176833">
        <ele>23.0</ele>
        <time>2019-05-16T08:22:17.925Z</time>
      </trkpt>
      <trkpt lat="38.71738833" lon="-9.12175667">
        <ele>24.0</ele>
        <time>2019-05-16T08:22:18.928Z</time>
      </trkpt>
      <trkpt lat="38.71738833" lon="-9.12175667">
        <ele>24.0</ele>
        <time>2019-05-16T08:22:19.900Z</time>
      </trkpt>
      <trkpt lat="38.71737833" lon="-9.12176167">
        <ele>23.0</ele>
        <time>2019-05-16T08:22:20.925Z</time>
      </trkpt>
      <trkpt lat="38.71737833" lon="-9.12176167">
        <ele>23.0</ele>
        <time>2019-05-16T08:22:21.924Z</time>
      </trkpt>
      <trkpt lat="38.717375" lon="-9.12176333">
        <ele>23.0</ele>
        <time>2019-05-16T08:22:22.930Z</time>
      </trkpt>
      <trkpt lat="38.717375" lon="-9.12176333">
        <ele>23.0</ele>
        <time>2019-05-16T08:22:23.936Z</time>
      </trkpt>
      <trkpt lat="38.717375" lon="-9.12176333">
        <ele>23.0</ele>
        <time>2019-05-16T08:22:24.923Z</time>
      </trkpt>
      <trkpt lat="38.717375" lon="-9.12176333">
        <ele>23.0</ele>
        <time>2019-05-16T08:22:25.915Z</time>
      </trkpt>
      <trkpt lat="38.71744667" lon="-9.12175167">
        <ele>25.0</ele>
        <time>2019-05-16T08:22:26.921Z</time>
      </trkpt>
      <trkpt lat="38.71744667" lon="-9.12175167">
        <ele>25.0</ele>
        <time>2019-05-16T08:22:27.917Z</time>
      </trkpt>
      <trkpt lat="38.7175" lon="-9.12174833">
        <ele>26.0</ele>
        <time>2019-05-16T08:22:28.936Z</time>
      </trkpt>
      <trkpt lat="38.7175" lon="-9.12174833">
        <ele>26.0</ele>
        <time>2019-05-16T08:22:29.921Z</time>
      </trkpt>
      <trkpt lat="38.71753667" lon="-9.12172167">
        <ele>26.0</ele>
        <time>2019-05-16T08:22:30.910Z</time>
      </trkpt>
      <trkpt lat="38.71753667" lon="-9.12172167">
        <ele>26.0</ele>
        <time>2019-05-16T08:22:31.911Z</time>
      </trkpt>
      <trkpt lat="38.71756" lon="-9.1217">
        <ele>26.0</ele>
        <time>2019-05-16T08:22:32.923Z</time>
      </trkpt>
      <trkpt lat="38.71756" lon="-9.1217">
        <ele>26.0</ele>
        <time>2019-05-16T08:22:33.931Z</time>
      </trkpt>
      <trkpt lat="38.71758833" lon="-9.12167667">
        <ele>26.0</ele>
        <time>2019-05-16T08:22:34.901Z</time>
      </trkpt>
      <trkpt lat="38.71760167" lon="-9.121665">
        <ele>26.0</ele>
        <time>2019-05-16T08:22:35.897Z</time>
      </trkpt>
      <trkpt lat="38.717605" lon="-9.12162667">
        <ele>26.0</ele>
        <time>2019-05-16T08:22:36.915Z</time>
      </trkpt>
      <trkpt lat="38.717605" lon="-9.12162667">
        <ele>26.0</ele>
        <time>2019-05-16T08:22:37.897Z</time>
      </trkpt>
      <trkpt lat="38.71761" lon="-9.12157667">
        <ele>27.0</ele>
        <time>2019-05-16T08:22:38.912Z</time>
      </trkpt>
      <trkpt lat="38.71761" lon="-9.12157667">
        <ele>27.0</ele>
        <time>2019-05-16T08:22:39.926Z</time>
      </trkpt>
      <trkpt lat="38.71760167" lon="-9.12151667">
        <ele>27.0</ele>
        <time>2019-05-16T08:22:40.934Z</time>
      </trkpt>
      <trkpt lat="38.71759" lon="-9.12148333">
        <ele>27.0</ele>
        <time>2019-05-16T08:22:41.908Z</time>
      </trkpt>
      <trkpt lat="38.71758333" lon="-9.12143833">
        <ele>27.0</ele>
        <time>2019-05-16T08:22:42.923Z</time>
      </trkpt>
      <trkpt lat="38.71758333" lon="-9.12143833">
        <ele>27.0</ele>
        <time>2019-05-16T08:22:43.910Z</time>
      </trkpt>
      <trkpt lat="38.71757" lon="-9.12137833">
        <ele>28.0</ele>
        <time>2019-05-16T08:22:44.921Z</time>
      </trkpt>
      <trkpt lat="38.71757" lon="-9.12137833">
        <ele>28.0</ele>
        <time>2019-05-16T08:22:45.899Z</time>
      </trkpt>
      <trkpt lat="38.71755833" lon="-9.12130667">
        <ele>28.0</ele>
        <time>2019-05-16T08:22:46.912Z</time>
      </trkpt>
      <trkpt lat="38.71754667" lon="-9.12127333">
        <ele>28.0</ele>
        <time>2019-05-16T08:22:47.934Z</time>
      </trkpt>
      <trkpt lat="38.71752667" lon="-9.12124833">
        <ele>28.0</ele>
        <time>2019-05-16T08:22:48.915Z</time>
      </trkpt>
      <trkpt lat="38.71749333" lon="-9.121225">
        <ele>28.0</ele>
        <time>2019-05-16T08:22:49.900Z</time>
      </trkpt>
      <trkpt lat="38.71749333" lon="-9.121225">
        <ele>28.0</ele>
        <time>2019-05-16T08:22:50.921Z</time>
      </trkpt>
      <trkpt lat="38.71745333" lon="-9.12119333">
        <ele>28.0</ele>
        <time>2019-05-16T08:22:51.933Z</time>
      </trkpt>
      <trkpt lat="38.71745333" lon="-9.12119333">
        <ele>28.0</ele>
        <time>2019-05-16T08:22:52.908Z</time>
      </trkpt>
      <trkpt lat="38.71744" lon="-9.12116667">
        <ele>29.0</ele>
        <time>2019-05-16T08:22:53.918Z</time>
      </trkpt>
      <trkpt lat="38.71743833" lon="-9.121165">
        <ele>29.0</ele>
        <time>2019-05-16T08:22:54.909Z</time>
      </trkpt>
      <trkpt lat="38.71743833" lon="-9.121165">
        <ele>29.0</ele>
        <time>2019-05-16T08:22:55.918Z</time>
      </trkpt>
      <trkpt lat="38.71743167" lon="-9.12116">
        <ele>29.0</ele>
        <time>2019-05-16T08:22:56.932Z</time>
      </trkpt>
      <trkpt lat="38.71743167" lon="-9.12116">
        <ele>29.0</ele>
        <time>2019-05-16T08:22:57.911Z</time>
      </trkpt>
      <trkpt lat="38.71743167" lon="-9.12116">
        <ele>29.0</ele>
        <time>2019-05-16T08:22:58.937Z</time>
      </trkpt>
      <trkpt lat="38.71743167" lon="-9.12116">
        <ele>29.0</ele>
        <time>2019-05-16T08:22:59.922Z</time>
      </trkpt>
      <trkpt lat="38.71743167" lon="-9.12116">
        <ele>29.0</ele>
        <time>2019-05-16T08:23:00.920Z</time>
      </trkpt>
      <trkpt lat="38.71743167" lon="-9.12116">
        <ele>29.0</ele>
        <time>2019-05-16T08:23:01.918Z</time>
      </trkpt>
      <trkpt lat="38.71743167" lon="-9.12116">
        <ele>29.0</ele>
        <time>2019-05-16T08:23:02.922Z</time>
      </trkpt>
      <trkpt lat="38.71743167" lon="-9.12116">
        <ele>29.0</ele>
        <time>2019-05-16T08:23:03.921Z</time>
      </trkpt>
      <trkpt lat="38.71743167" lon="-9.12116">
        <ele>29.0</ele>
        <time>2019-05-16T08:23:04.921Z</time>
      </trkpt>
      <trkpt lat="38.71743167" lon="-9.12116">
        <ele>29.0</ele>
        <time>2019-05-16T08:23:05.912Z</time>
      </trkpt>
      <trkpt lat="38.71743167" lon="-9.12116">
        <ele>29.0</ele>
        <time>2019-05-16T08:23:06.936Z</time>
      </trkpt>
      <trkpt lat="38.71743167" lon="-9.12116">
        <ele>29.0</ele>
        <time>2019-05-16T08:23:07.921Z</time>
      </trkpt>
      <trkpt lat="38.71743333" lon="-9.12100833">
        <ele>30.0</ele>
        <time>2019-05-16T08:23:08.921Z</time>
      </trkpt>
      <trkpt lat="38.71743333" lon="-9.12100833">
        <ele>30.0</ele>
        <time>2019-05-16T08:23:09.915Z</time>
      </trkpt>
      <trkpt lat="38.71743" lon="-9.12095333">
        <ele>31.0</ele>
        <time>2019-05-16T08:23:10.921Z</time>
      </trkpt>
      <trkpt lat="38.71743" lon="-9.12095333">
        <ele>31.0</ele>
        <time>2019-05-16T08:23:11.918Z</time>
      </trkpt>
      <trkpt lat="38.71742333" lon="-9.12089667">
        <ele>31.0</ele>
        <time>2019-05-16T08:23:12.926Z</time>
      </trkpt>
      <trkpt lat="38.71742333" lon="-9.12089667">
        <ele>31.0</ele>
        <time>2019-05-16T08:23:13.909Z</time>
      </trkpt>
      <trkpt lat="38.71741167" lon="-9.120835">
        <ele>32.0</ele>
        <time>2019-05-16T08:23:14.921Z</time>
      </trkpt>
      <trkpt lat="38.71741167" lon="-9.120835">
        <ele>32.0</ele>
        <time>2019-05-16T08:23:15.937Z</time>
      </trkpt>
      <trkpt lat="38.717405" lon="-9.12076667">
        <ele>32.0</ele>
        <time>2019-05-16T08:23:16.914Z</time>
      </trkpt>
      <trkpt lat="38.717405" lon="-9.12076667">
        <ele>32.0</ele>
        <time>2019-05-16T08:23:17.932Z</time>
      </trkpt>
      <trkpt lat="38.717395" lon="-9.12071">
        <ele>32.0</ele>
        <time>2019-05-16T08:23:18.900Z</time>
      </trkpt>
      <trkpt lat="38.717395" lon="-9.12071">
        <ele>32.0</ele>
        <time>2019-05-16T08:23:19.916Z</time>
      </trkpt>
      <trkpt lat="38.71738167" lon="-9.12064167">
        <ele>32.0</ele>
        <time>2019-05-16T08:23:20.924Z</time>
      </trkpt>
      <trkpt lat="38.71738167" lon="-9.12064167">
        <ele>32.0</ele>
        <time>2019-05-16T08:23:21.897Z</time>
      </trkpt>
      <trkpt lat="38.71737" lon="-9.12057833">
        <ele>32.0</ele>
        <time>2019-05-16T08:23:22.913Z</time>
      </trkpt>
      <trkpt lat="38.71737" lon="-9.12057833">
        <ele>32.0</ele>
        <time>2019-05-16T08:23:23.927Z</time>
      </trkpt>
      <trkpt lat="38.71737167" lon="-9.12052333">
        <ele>33.0</ele>
        <time>2019-05-16T08:23:24.899Z</time>
      </trkpt>
      <trkpt lat="38.71737167" lon="-9.12052333">
        <ele>33.0</ele>
        <time>2019-05-16T08:23:25.930Z</time>
      </trkpt>
      <trkpt lat="38.71736667" lon="-9.12047">
        <ele>33.0</ele>
        <time>2019-05-16T08:23:26.899Z</time>
      </trkpt>
      <trkpt lat="38.71736667" lon="-9.12047">
        <ele>33.0</ele>
        <time>2019-05-16T08:23:27.913Z</time>
      </trkpt>
      <trkpt lat="38.71737167" lon="-9.120405">
        <ele>33.0</ele>
        <time>2019-05-16T08:23:28.925Z</time>
      </trkpt>
      <trkpt lat="38.71737167" lon="-9.120405">
        <ele>33.0</ele>
        <time>2019-05-16T08:23:29.898Z</time>
      </trkpt>
      <trkpt lat="38.71737" lon="-9.12035167">
        <ele>34.0</ele>
        <time>2019-05-16T08:23:30.910Z</time>
      </trkpt>
      <trkpt lat="38.71737" lon="-9.12035167">
        <ele>34.0</ele>
        <time>2019-05-16T08:23:31.912Z</time>
      </trkpt>
      <trkpt lat="38.71737333" lon="-9.12029667">
        <ele>34.0</ele>
        <time>2019-05-16T08:23:32.920Z</time>
      </trkpt>
      <trkpt lat="38.71737333" lon="-9.12029667">
        <ele>34.0</ele>
        <time>2019-05-16T08:23:33.908Z</time>
      </trkpt>
      <trkpt lat="38.71740167" lon="-9.120225">
        <ele>32.0</ele>
        <time>2019-05-16T08:23:34.921Z</time>
      </trkpt>
      <trkpt lat="38.71740167" lon="-9.120225">
        <ele>32.0</ele>
        <time>2019-05-16T08:23:35.916Z</time>
      </trkpt>
      <trkpt lat="38.71741333" lon="-9.120155">
        <ele>32.0</ele>
        <time>2019-05-16T08:23:36.935Z</time>
      </trkpt>
      <trkpt lat="38.71741333" lon="-9.120155">
        <ele>32.0</ele>
        <time>2019-05-16T08:23:37.911Z</time>
      </trkpt>
      <trkpt lat="38.71745333" lon="-9.12007333">
        <ele>31.0</ele>
        <time>2019-05-16T08:23:38.918Z</time>
      </trkpt>
      <trkpt lat="38.71745333" lon="-9.12007333">
        <ele>31.0</ele>
        <time>2019-05-16T08:23:39.932Z</time>
      </trkpt>
      <trkpt lat="38.71749333" lon="-9.11998833">
        <ele>30.0</ele>
        <time>2019-05-16T08:23:40.898Z</time>
      </trkpt>
      <trkpt lat="38.71749333" lon="-9.11998833">
        <ele>30.0</ele>
        <time>2019-05-16T08:23:41.922Z</time>
      </trkpt>
      <trkpt lat="38.71751833" lon="-9.11991">
        <ele>29.0</ele>
        <time>2019-05-16T08:23:42.935Z</time>
      </trkpt>
      <trkpt lat="38.71751833" lon="-9.11991">
        <ele>29.0</ele>
        <time>2019-05-16T08:23:43.908Z</time>
      </trkpt>
      <trkpt lat="38.71754167" lon="-9.11982833">
        <ele>28.0</ele>
        <time>2019-05-16T08:23:44.945Z</time>
      </trkpt>
      <trkpt lat="38.71755667" lon="-9.11979167">
        <ele>28.0</ele>
        <time>2019-05-16T08:23:45.918Z</time>
      </trkpt>
      <trkpt lat="38.71755667" lon="-9.11979167">
        <ele>28.0</ele>
        <time>2019-05-16T08:23:46.933Z</time>
      </trkpt>
      <trkpt lat="38.71758667" lon="-9.11971667">
        <ele>27.0</ele>
        <time>2019-05-16T08:23:47.906Z</time>
      </trkpt>
      <trkpt lat="38.71760667" lon="-9.11967667">
        <ele>27.0</ele>
        <time>2019-05-16T08:23:48.921Z</time>
      </trkpt>
      <trkpt lat="38.71760667" lon="-9.11967667">
        <ele>27.0</ele>
        <time>2019-05-16T08:23:49.933Z</time>
      </trkpt>
      <trkpt lat="38.71764833" lon="-9.11958333">
        <ele>25.0</ele>
        <time>2019-05-16T08:23:50.903Z</time>
      </trkpt>
      <trkpt lat="38.71764833" lon="-9.11958333">
        <ele>25.0</ele>
        <time>2019-05-16T08:23:51.917Z</time>
      </trkpt>
      <trkpt lat="38.7177" lon="-9.11948833">
        <ele>24.0</ele>
        <time>2019-05-16T08:23:52.923Z</time>
      </trkpt>
      <trkpt lat="38.7177" lon="-9.11948833">
        <ele>24.0</ele>
        <time>2019-05-16T08:23:53.902Z</time>
      </trkpt>
      <trkpt lat="38.71775333" lon="-9.11939333">
        <ele>23.0</ele>
        <time>2019-05-16T08:23:54.904Z</time>
      </trkpt>
      <trkpt lat="38.71775333" lon="-9.11939333">
        <ele>23.0</ele>
        <time>2019-05-16T08:23:55.918Z</time>
      </trkpt>
      <trkpt lat="38.717805" lon="-9.1193">
        <ele>22.0</ele>
        <time>2019-05-16T08:23:56.912Z</time>
      </trkpt>
      <trkpt lat="38.717805" lon="-9.1193">
        <ele>22.0</ele>
        <time>2019-05-16T08:23:57.923Z</time>
      </trkpt>
      <trkpt lat="38.71784667" lon="-9.11921667">
        <ele>21.0</ele>
        <time>2019-05-16T08:23:58.934Z</time>
      </trkpt>
      <trkpt lat="38.71784667" lon="-9.11921667">
        <ele>21.0</ele>
        <time>2019-05-16T08:23:59.913Z</time>
      </trkpt>
      <trkpt lat="38.71785333" lon="-9.119145">
        <ele>21.0</ele>
        <time>2019-05-16T08:24:00.921Z</time>
      </trkpt>
      <trkpt lat="38.71785333" lon="-9.119145">
        <ele>21.0</ele>
        <time>2019-05-16T08:24:01.911Z</time>
      </trkpt>
      <trkpt lat="38.71786" lon="-9.11908667">
        <ele>20.0</ele>
        <time>2019-05-16T08:24:02.917Z</time>
      </trkpt>
      <trkpt lat="38.71786" lon="-9.11908667">
        <ele>20.0</ele>
        <time>2019-05-16T08:24:03.930Z</time>
      </trkpt>
      <trkpt lat="38.717895" lon="-9.11903667">
        <ele>20.0</ele>
        <time>2019-05-16T08:24:04.915Z</time>
      </trkpt>
      <trkpt lat="38.717895" lon="-9.11903667">
        <ele>20.0</ele>
        <time>2019-05-16T08:24:05.914Z</time>
      </trkpt>
      <trkpt lat="38.71792333" lon="-9.118985">
        <ele>19.0</ele>
        <time>2019-05-16T08:24:06.923Z</time>
      </trkpt>
      <trkpt lat="38.71792333" lon="-9.118985">
        <ele>19.0</ele>
        <time>2019-05-16T08:24:07.908Z</time>
      </trkpt>
      <trkpt lat="38.717945" lon="-9.11893833">
        <ele>19.0</ele>
        <time>2019-05-16T08:24:08.917Z</time>
      </trkpt>
      <trkpt lat="38.717945" lon="-9.11893833">
        <ele>19.0</ele>
        <time>2019-05-16T08:24:09.930Z</time>
      </trkpt>
      <trkpt lat="38.71798667" lon="-9.11889">
        <ele>19.0</ele>
        <time>2019-05-16T08:24:10.912Z</time>
      </trkpt>
      <trkpt lat="38.71798667" lon="-9.11889">
        <ele>19.0</ele>
        <time>2019-05-16T08:24:11.930Z</time>
      </trkpt>
      <trkpt lat="38.71804667" lon="-9.11881833">
        <ele>19.0</ele>
        <time>2019-05-16T08:24:12.897Z</time>
      </trkpt>
      <trkpt lat="38.71804667" lon="-9.11881833">
        <ele>19.0</ele>
        <time>2019-05-16T08:24:13.910Z</time>
      </trkpt>
      <trkpt lat="38.71812167" lon="-9.11876">
        <ele>19.0</ele>
        <time>2019-05-16T08:24:14.919Z</time>
      </trkpt>
      <trkpt lat="38.71816167" lon="-9.11873">
        <ele>19.0</ele>
        <time>2019-05-16T08:24:15.912Z</time>
      </trkpt>
      <trkpt lat="38.71816167" lon="-9.11873">
        <ele>19.0</ele>
        <time>2019-05-16T08:24:16.913Z</time>
      </trkpt>
      <trkpt lat="38.71824167" lon="-9.11867833">
        <ele>19.0</ele>
        <time>2019-05-16T08:24:17.921Z</time>
      </trkpt>
      <trkpt lat="38.71828167" lon="-9.11865333">
        <ele>19.0</ele>
        <time>2019-05-16T08:24:18.928Z</time>
      </trkpt>
      <trkpt lat="38.71828167" lon="-9.11865333">
        <ele>19.0</ele>
        <time>2019-05-16T08:24:19.900Z</time>
      </trkpt>
      <trkpt lat="38.71835333" lon="-9.11859833">
        <ele>19.0</ele>
        <time>2019-05-16T08:24:20.925Z</time>
      </trkpt>
      <trkpt lat="38.71835333" lon="-9.11859833">
        <ele>19.0</ele>
        <time>2019-05-16T08:24:21.920Z</time>
      </trkpt>
      <trkpt lat="38.718425" lon="-9.11853667">
        <ele>19.0</ele>
        <time>2019-05-16T08:24:22.935Z</time>
      </trkpt>
      <trkpt lat="38.71846667" lon="-9.118515">
        <ele>19.0</ele>
        <time>2019-05-16T08:24:23.913Z</time>
      </trkpt>
      <trkpt lat="38.71850667" lon="-9.11849">
        <ele>19.0</ele>
        <time>2019-05-16T08:24:24.929Z</time>
      </trkpt>
      <trkpt lat="38.71850667" lon="-9.11849">
        <ele>19.0</ele>
        <time>2019-05-16T08:24:25.900Z</time>
      </trkpt>
      <trkpt lat="38.71857833" lon="-9.11844167">
        <ele>19.0</ele>
        <time>2019-05-16T08:24:26.909Z</time>
      </trkpt>
      <trkpt lat="38.71857833" lon="-9.11844167">
        <ele>19.0</ele>
        <time>2019-05-16T08:24:27.922Z</time>
      </trkpt>
      <trkpt lat="38.71864333" lon="-9.11839">
        <ele>19.0</ele>
        <time>2019-05-16T08:24:28.927Z</time>
      </trkpt>
      <trkpt lat="38.71864333" lon="-9.11839">
        <ele>19.0</ele>
        <time>2019-05-16T08:24:29.915Z</time>
      </trkpt>
      <trkpt lat="38.7187" lon="-9.118335">
        <ele>20.0</ele>
        <time>2019-05-16T08:24:30.912Z</time>
      </trkpt>
      <trkpt lat="38.7187" lon="-9.118335">
        <ele>20.0</ele>
        <time>2019-05-16T08:24:31.907Z</time>
      </trkpt>
      <trkpt lat="38.71877167" lon="-9.11829667">
        <ele>20.0</ele>
        <time>2019-05-16T08:24:32.916Z</time>
      </trkpt>
      <trkpt lat="38.71877167" lon="-9.11829667">
        <ele>20.0</ele>
        <time>2019-05-16T08:24:33.919Z</time>
      </trkpt>
      <trkpt lat="38.71884833" lon="-9.11826833">
        <ele>21.0</ele>
        <time>2019-05-16T08:24:34.926Z</time>
      </trkpt>
      <trkpt lat="38.71884833" lon="-9.11826833">
        <ele>21.0</ele>
        <time>2019-05-16T08:24:35.908Z</time>
      </trkpt>
      <trkpt lat="38.71892333" lon="-9.11823167">
        <ele>21.0</ele>
        <time>2019-05-16T08:24:36.917Z</time>
      </trkpt>
      <trkpt lat="38.71892333" lon="-9.11823167">
        <ele>21.0</ele>
        <time>2019-05-16T08:24:37.930Z</time>
      </trkpt>
      <trkpt lat="38.71898333" lon="-9.11818667">
        <ele>21.0</ele>
        <time>2019-05-16T08:24:38.940Z</time>
      </trkpt>
      <trkpt lat="38.71898333" lon="-9.11818667">
        <ele>21.0</ele>
        <time>2019-05-16T08:24:39.918Z</time>
      </trkpt>
      <trkpt lat="38.71904167" lon="-9.11814667">
        <ele>21.0</ele>
        <time>2019-05-16T08:24:40.926Z</time>
      </trkpt>
      <trkpt lat="38.71904167" lon="-9.11814667">
        <ele>21.0</ele>
        <time>2019-05-16T08:24:41.908Z</time>
      </trkpt>
      <trkpt lat="38.71911167" lon="-9.11812167">
        <ele>20.0</ele>
        <time>2019-05-16T08:24:42.916Z</time>
      </trkpt>
      <trkpt lat="38.71911167" lon="-9.11812167">
        <ele>20.0</ele>
        <time>2019-05-16T08:24:43.927Z</time>
      </trkpt>
      <trkpt lat="38.71918833" lon="-9.118105">
        <ele>19.0</ele>
        <time>2019-05-16T08:24:44.938Z</time>
      </trkpt>
      <trkpt lat="38.71918833" lon="-9.118105">
        <ele>19.0</ele>
        <time>2019-05-16T08:24:45.917Z</time>
      </trkpt>
      <trkpt lat="38.71926333" lon="-9.11809167">
        <ele>19.0</ele>
        <time>2019-05-16T08:24:46.924Z</time>
      </trkpt>
      <trkpt lat="38.71926333" lon="-9.11809167">
        <ele>19.0</ele>
        <time>2019-05-16T08:24:47.936Z</time>
      </trkpt>
      <trkpt lat="38.719345" lon="-9.11807333">
        <ele>17.0</ele>
        <time>2019-05-16T08:24:48.902Z</time>
      </trkpt>
      <trkpt lat="38.719345" lon="-9.11807333">
        <ele>17.0</ele>
        <time>2019-05-16T08:24:49.907Z</time>
      </trkpt>
      <trkpt lat="38.719425" lon="-9.11806">
        <ele>16.0</ele>
        <time>2019-05-16T08:24:50.914Z</time>
      </trkpt>
      <trkpt lat="38.719465" lon="-9.11804833">
        <ele>16.0</ele>
        <time>2019-05-16T08:24:51.897Z</time>
      </trkpt>
      <trkpt lat="38.719465" lon="-9.11804833">
        <ele>16.0</ele>
        <time>2019-05-16T08:24:52.912Z</time>
      </trkpt>
      <trkpt lat="38.719545" lon="-9.11801333">
        <ele>14.0</ele>
        <time>2019-05-16T08:24:53.930Z</time>
      </trkpt>
      <trkpt lat="38.71958167" lon="-9.11798667">
        <ele>14.0</ele>
        <time>2019-05-16T08:24:54.936Z</time>
      </trkpt>
      <trkpt lat="38.71958167" lon="-9.11798667">
        <ele>14.0</ele>
        <time>2019-05-16T08:24:55.898Z</time>
      </trkpt>
      <trkpt lat="38.719645" lon="-9.11791667">
        <ele>14.0</ele>
        <time>2019-05-16T08:24:56.912Z</time>
      </trkpt>
      <trkpt lat="38.719645" lon="-9.11791667">
        <ele>14.0</ele>
        <time>2019-05-16T08:24:57.927Z</time>
      </trkpt>
      <trkpt lat="38.719705" lon="-9.11783167">
        <ele>14.0</ele>
        <time>2019-05-16T08:24:58.936Z</time>
      </trkpt>
      <trkpt lat="38.719705" lon="-9.11783167">
        <ele>14.0</ele>
        <time>2019-05-16T08:24:59.918Z</time>
      </trkpt>
      <trkpt lat="38.71976" lon="-9.11775">
        <ele>15.0</ele>
        <time>2019-05-16T08:25:00.929Z</time>
      </trkpt>
      <trkpt lat="38.71976" lon="-9.11775">
        <ele>15.0</ele>
        <time>2019-05-16T08:25:01.909Z</time>
      </trkpt>
      <trkpt lat="38.71979833" lon="-9.11768333">
        <ele>15.0</ele>
        <time>2019-05-16T08:25:02.916Z</time>
      </trkpt>
      <trkpt lat="38.71981333" lon="-9.11765667">
        <ele>15.0</ele>
        <time>2019-05-16T08:25:03.897Z</time>
      </trkpt>
      <trkpt lat="38.71981333" lon="-9.11765667">
        <ele>15.0</ele>
        <time>2019-05-16T08:25:04.912Z</time>
      </trkpt>
      <trkpt lat="38.71984" lon="-9.11761">
        <ele>16.0</ele>
        <time>2019-05-16T08:25:05.920Z</time>
      </trkpt>
      <trkpt lat="38.71985167" lon="-9.117585">
        <ele>16.0</ele>
        <time>2019-05-16T08:25:06.929Z</time>
      </trkpt>
      <trkpt lat="38.71985167" lon="-9.117585">
        <ele>16.0</ele>
        <time>2019-05-16T08:25:07.910Z</time>
      </trkpt>
      <trkpt lat="38.71987667" lon="-9.117545">
        <ele>16.0</ele>
        <time>2019-05-16T08:25:08.919Z</time>
      </trkpt>
      <trkpt lat="38.71987667" lon="-9.117545">
        <ele>16.0</ele>
        <time>2019-05-16T08:25:09.934Z</time>
      </trkpt>
      <trkpt lat="38.71990167" lon="-9.11750667">
        <ele>17.0</ele>
        <time>2019-05-16T08:25:10.904Z</time>
      </trkpt>
      <trkpt lat="38.719915" lon="-9.117485">
        <ele>17.0</ele>
        <time>2019-05-16T08:25:11.916Z</time>
      </trkpt>
      <trkpt lat="38.71992833" lon="-9.11746833">
        <ele>17.0</ele>
        <time>2019-05-16T08:25:12.898Z</time>
      </trkpt>
      <trkpt lat="38.71992833" lon="-9.11746833">
        <ele>17.0</ele>
        <time>2019-05-16T08:25:13.923Z</time>
      </trkpt>
      <trkpt lat="38.71994333" lon="-9.11745">
        <ele>18.0</ele>
        <time>2019-05-16T08:25:14.934Z</time>
      </trkpt>
      <trkpt lat="38.71994333" lon="-9.11745">
        <ele>18.0</ele>
        <time>2019-05-16T08:25:15.916Z</time>
      </trkpt>
      <trkpt lat="38.71994167" lon="-9.11744">
        <ele>18.0</ele>
        <time>2019-05-16T08:25:16.936Z</time>
      </trkpt>
      <trkpt lat="38.71994167" lon="-9.11744">
        <ele>18.0</ele>
        <time>2019-05-16T08:25:17.925Z</time>
      </trkpt>
      <trkpt lat="38.71994167" lon="-9.117435">
        <ele>17.0</ele>
        <time>2019-05-16T08:25:18.935Z</time>
      </trkpt>
      <trkpt lat="38.71994167" lon="-9.117435">
        <ele>17.0</ele>
        <time>2019-05-16T08:25:19.902Z</time>
      </trkpt>
      <trkpt lat="38.71994167" lon="-9.117435">
        <ele>17.0</ele>
        <time>2019-05-16T08:25:20.923Z</time>
      </trkpt>
      <trkpt lat="38.71994167" lon="-9.117435">
        <ele>17.0</ele>
        <time>2019-05-16T08:25:21.917Z</time>
      </trkpt>
      <trkpt lat="38.71994167" lon="-9.117435">
        <ele>17.0</ele>
        <time>2019-05-16T08:25:22.918Z</time>
      </trkpt>
      <trkpt lat="38.71994167" lon="-9.117435">
        <ele>17.0</ele>
        <time>2019-05-16T08:25:23.924Z</time>
      </trkpt>
      <trkpt lat="38.71994167" lon="-9.117435">
        <ele>17.0</ele>
        <time>2019-05-16T08:25:24.918Z</time>
      </trkpt>
      <trkpt lat="38.71994167" lon="-9.117435">
        <ele>17.0</ele>
        <time>2019-05-16T08:25:25.921Z</time>
      </trkpt>
      <trkpt lat="38.71994167" lon="-9.117435">
        <ele>17.0</ele>
        <time>2019-05-16T08:25:26.916Z</time>
      </trkpt>
      <trkpt lat="38.71994167" lon="-9.117435">
        <ele>17.0</ele>
        <time>2019-05-16T08:25:27.918Z</time>
      </trkpt>
      <trkpt lat="38.71994167" lon="-9.117435">
        <ele>17.0</ele>
        <time>2019-05-16T08:25:28.936Z</time>
      </trkpt>
      <trkpt lat="38.71994167" lon="-9.117435">
        <ele>17.0</ele>
        <time>2019-05-16T08:25:29.923Z</time>
      </trkpt>
      <trkpt lat="38.71994167" lon="-9.117435">
        <ele>17.0</ele>
        <time>2019-05-16T08:25:30.924Z</time>
      </trkpt>
      <trkpt lat="38.71994167" lon="-9.117435">
        <ele>17.0</ele>
        <time>2019-05-16T08:25:31.916Z</time>
      </trkpt>
      <trkpt lat="38.71994167" lon="-9.117435">
        <ele>17.0</ele>
        <time>2019-05-16T08:25:32.915Z</time>
      </trkpt>
      <trkpt lat="38.71994167" lon="-9.117435">
        <ele>17.0</ele>
        <time>2019-05-16T08:25:33.900Z</time>
      </trkpt>
      <trkpt lat="38.71994167" lon="-9.117435">
        <ele>17.0</ele>
        <time>2019-05-16T08:25:34.925Z</time>
      </trkpt>
      <trkpt lat="38.71994167" lon="-9.117435">
        <ele>17.0</ele>
        <time>2019-05-16T08:25:35.916Z</time>
      </trkpt>
      <trkpt lat="38.71994167" lon="-9.117435">
        <ele>17.0</ele>
        <time>2019-05-16T08:25:36.922Z</time>
      </trkpt>
      <trkpt lat="38.71994167" lon="-9.117435">
        <ele>17.0</ele>
        <time>2019-05-16T08:25:37.917Z</time>
      </trkpt>
      <trkpt lat="38.71994167" lon="-9.117435">
        <ele>17.0</ele>
        <time>2019-05-16T08:25:38.899Z</time>
      </trkpt>
      <trkpt lat="38.71994167" lon="-9.117435">
        <ele>17.0</ele>
        <time>2019-05-16T08:25:39.923Z</time>
      </trkpt>
      <trkpt lat="38.71994167" lon="-9.117435">
        <ele>17.0</ele>
        <time>2019-05-16T08:25:40.916Z</time>
      </trkpt>
      <trkpt lat="38.71994333" lon="-9.11741167">
        <ele>15.0</ele>
        <time>2019-05-16T08:25:41.921Z</time>
      </trkpt>
      <trkpt lat="38.71995167" lon="-9.11739833">
        <ele>15.0</ele>
        <time>2019-05-16T08:25:42.926Z</time>
      </trkpt>
      <trkpt lat="38.71995167" lon="-9.11739833">
        <ele>15.0</ele>
        <time>2019-05-16T08:25:43.921Z</time>
      </trkpt>
      <trkpt lat="38.71997333" lon="-9.11735833">
        <ele>15.0</ele>
        <time>2019-05-16T08:25:44.922Z</time>
      </trkpt>
      <trkpt lat="38.71997333" lon="-9.11735833">
        <ele>15.0</ele>
        <time>2019-05-16T08:25:45.915Z</time>
      </trkpt>
      <trkpt lat="38.720005" lon="-9.11730833">
        <ele>15.0</ele>
        <time>2019-05-16T08:25:46.921Z</time>
      </trkpt>
      <trkpt lat="38.720005" lon="-9.11730833">
        <ele>15.0</ele>
        <time>2019-05-16T08:25:47.921Z</time>
      </trkpt>
      <trkpt lat="38.72003667" lon="-9.11725167">
        <ele>15.0</ele>
        <time>2019-05-16T08:25:48.932Z</time>
      </trkpt>
      <trkpt lat="38.72003667" lon="-9.11725167">
        <ele>15.0</ele>
        <time>2019-05-16T08:25:49.898Z</time>
      </trkpt>
      <trkpt lat="38.72006667" lon="-9.11719333">
        <ele>15.0</ele>
        <time>2019-05-16T08:25:50.912Z</time>
      </trkpt>
      <trkpt lat="38.72006667" lon="-9.11719333">
        <ele>15.0</ele>
        <time>2019-05-16T08:25:51.928Z</time>
      </trkpt>
      <trkpt lat="38.72011167" lon="-9.11715833">
        <ele>15.0</ele>
        <time>2019-05-16T08:25:52.936Z</time>
      </trkpt>
      <trkpt lat="38.72011167" lon="-9.11715833">
        <ele>15.0</ele>
        <time>2019-05-16T08:25:53.916Z</time>
      </trkpt>
      <trkpt lat="38.72015833" lon="-9.11712667">
        <ele>15.0</ele>
        <time>2019-05-16T08:25:54.932Z</time>
      </trkpt>
      <trkpt lat="38.72015833" lon="-9.11712667">
        <ele>15.0</ele>
        <time>2019-05-16T08:25:55.908Z</time>
      </trkpt>
      <trkpt lat="38.72021167" lon="-9.11708333">
        <ele>14.0</ele>
        <time>2019-05-16T08:25:56.929Z</time>
      </trkpt>
      <trkpt lat="38.72021167" lon="-9.11708333">
        <ele>14.0</ele>
        <time>2019-05-16T08:25:57.915Z</time>
      </trkpt>
      <trkpt lat="38.72027" lon="-9.11702833">
        <ele>15.0</ele>
        <time>2019-05-16T08:25:58.923Z</time>
      </trkpt>
      <trkpt lat="38.72027" lon="-9.11702833">
        <ele>15.0</ele>
        <time>2019-05-16T08:25:59.932Z</time>
      </trkpt>
      <trkpt lat="38.72033667" lon="-9.11697">
        <ele>14.0</ele>
        <time>2019-05-16T08:26:00.902Z</time>
      </trkpt>
      <trkpt lat="38.72033667" lon="-9.11697">
        <ele>14.0</ele>
        <time>2019-05-16T08:26:01.913Z</time>
      </trkpt>
      <trkpt lat="38.72041333" lon="-9.11691">
        <ele>14.0</ele>
        <time>2019-05-16T08:26:02.943Z</time>
      </trkpt>
      <trkpt lat="38.72041333" lon="-9.11691">
        <ele>14.0</ele>
        <time>2019-05-16T08:26:03.908Z</time>
      </trkpt>
      <trkpt lat="38.72049" lon="-9.11685333">
        <ele>14.0</ele>
        <time>2019-05-16T08:26:04.920Z</time>
      </trkpt>
      <trkpt lat="38.72052833" lon="-9.116825">
        <ele>14.0</ele>
        <time>2019-05-16T08:26:05.912Z</time>
      </trkpt>
      <trkpt lat="38.72057167" lon="-9.11679833">
        <ele>14.0</ele>
        <time>2019-05-16T08:26:06.911Z</time>
      </trkpt>
      <trkpt lat="38.72057167" lon="-9.11679833">
        <ele>14.0</ele>
        <time>2019-05-16T08:26:07.922Z</time>
      </trkpt>
      <trkpt lat="38.72066333" lon="-9.11675">
        <ele>14.0</ele>
        <time>2019-05-16T08:26:08.900Z</time>
      </trkpt>
      <trkpt lat="38.72066333" lon="-9.11675">
        <ele>14.0</ele>
        <time>2019-05-16T08:26:09.914Z</time>
      </trkpt>
      <trkpt lat="38.72073167" lon="-9.11671833">
        <ele>14.0</ele>
        <time>2019-05-16T08:26:10.925Z</time>
      </trkpt>
      <trkpt lat="38.72073167" lon="-9.11671833">
        <ele>14.0</ele>
        <time>2019-05-16T08:26:11.935Z</time>
      </trkpt>
      <trkpt lat="38.72079333" lon="-9.11669667">
        <ele>14.0</ele>
        <time>2019-05-16T08:26:12.903Z</time>
      </trkpt>
      <trkpt lat="38.72079333" lon="-9.11669667">
        <ele>14.0</ele>
        <time>2019-05-16T08:26:13.924Z</time>
      </trkpt>
      <trkpt lat="38.72084833" lon="-9.11667667">
        <ele>14.0</ele>
        <time>2019-05-16T08:26:14.933Z</time>
      </trkpt>
      <trkpt lat="38.72084833" lon="-9.11667667">
        <ele>14.0</ele>
        <time>2019-05-16T08:26:15.916Z</time>
      </trkpt>
      <trkpt lat="38.720895" lon="-9.11665667">
        <ele>15.0</ele>
        <time>2019-05-16T08:26:16.932Z</time>
      </trkpt>
      <trkpt lat="38.720895" lon="-9.11665667">
        <ele>15.0</ele>
        <time>2019-05-16T08:26:17.935Z</time>
      </trkpt>
      <trkpt lat="38.720935" lon="-9.11663">
        <ele>15.0</ele>
        <time>2019-05-16T08:26:18.902Z</time>
      </trkpt>
      <trkpt lat="38.720935" lon="-9.11663">
        <ele>15.0</ele>
        <time>2019-05-16T08:26:19.922Z</time>
      </trkpt>
      <trkpt lat="38.720975" lon="-9.11661">
        <ele>16.0</ele>
        <time>2019-05-16T08:26:20.900Z</time>
      </trkpt>
      <trkpt lat="38.720975" lon="-9.11661">
        <ele>16.0</ele>
        <time>2019-05-16T08:26:21.917Z</time>
      </trkpt>
      <trkpt lat="38.721015" lon="-9.11659167">
        <ele>16.0</ele>
        <time>2019-05-16T08:26:22.928Z</time>
      </trkpt>
      <trkpt lat="38.721015" lon="-9.11659167">
        <ele>16.0</ele>
        <time>2019-05-16T08:26:23.898Z</time>
      </trkpt>
      <trkpt lat="38.72105333" lon="-9.11657">
        <ele>16.0</ele>
        <time>2019-05-16T08:26:24.961Z</time>
      </trkpt>
      <trkpt lat="38.72105333" lon="-9.11657">
        <ele>16.0</ele>
        <time>2019-05-16T08:26:25.907Z</time>
      </trkpt>
      <trkpt lat="38.72108667" lon="-9.11655">
        <ele>16.0</ele>
        <time>2019-05-16T08:26:26.914Z</time>
      </trkpt>
      <trkpt lat="38.72108667" lon="-9.11655">
        <ele>16.0</ele>
        <time>2019-05-16T08:26:27.929Z</time>
      </trkpt>
      <trkpt lat="38.72112333" lon="-9.11653167">
        <ele>16.0</ele>
        <time>2019-05-16T08:26:28.897Z</time>
      </trkpt>
      <trkpt lat="38.72112333" lon="-9.11653167">
        <ele>16.0</ele>
        <time>2019-05-16T08:26:29.908Z</time>
      </trkpt>
      <trkpt lat="38.72116" lon="-9.11651167">
        <ele>17.0</ele>
        <time>2019-05-16T08:26:30.899Z</time>
      </trkpt>
      <trkpt lat="38.72116" lon="-9.11651167">
        <ele>17.0</ele>
        <time>2019-05-16T08:26:31.926Z</time>
      </trkpt>
      <trkpt lat="38.72120167" lon="-9.11650167">
        <ele>17.0</ele>
        <time>2019-05-16T08:26:32.959Z</time>
      </trkpt>
      <trkpt lat="38.72120167" lon="-9.11650167">
        <ele>17.0</ele>
        <time>2019-05-16T08:26:33.914Z</time>
      </trkpt>
      <trkpt lat="38.72123333" lon="-9.116475">
        <ele>18.0</ele>
        <time>2019-05-16T08:26:34.922Z</time>
      </trkpt>
      <trkpt lat="38.72125167" lon="-9.11646333">
        <ele>18.0</ele>
        <time>2019-05-16T08:26:35.931Z</time>
      </trkpt>
      <trkpt lat="38.72127333" lon="-9.11645333">
        <ele>18.0</ele>
        <time>2019-05-16T08:26:36.916Z</time>
      </trkpt>
      <trkpt lat="38.72127333" lon="-9.11645333">
        <ele>18.0</ele>
        <time>2019-05-16T08:26:37.901Z</time>
      </trkpt>
      <trkpt lat="38.72131833" lon="-9.11643833">
        <ele>18.0</ele>
        <time>2019-05-16T08:26:38.909Z</time>
      </trkpt>
      <trkpt lat="38.72131833" lon="-9.11643833">
        <ele>18.0</ele>
        <time>2019-05-16T08:26:39.931Z</time>
      </trkpt>
      <trkpt lat="38.72136167" lon="-9.116425">
        <ele>18.0</ele>
        <time>2019-05-16T08:26:40.904Z</time>
      </trkpt>
      <trkpt lat="38.72136167" lon="-9.116425">
        <ele>18.0</ele>
        <time>2019-05-16T08:26:41.927Z</time>
      </trkpt>
      <trkpt lat="38.72140167" lon="-9.1164">
        <ele>18.0</ele>
        <time>2019-05-16T08:26:42.936Z</time>
      </trkpt>
      <trkpt lat="38.72140167" lon="-9.1164">
        <ele>18.0</ele>
        <time>2019-05-16T08:26:43.915Z</time>
      </trkpt>
      <trkpt lat="38.72144" lon="-9.11638167">
        <ele>18.0</ele>
        <time>2019-05-16T08:26:44.922Z</time>
      </trkpt>
      <trkpt lat="38.72144" lon="-9.11638167">
        <ele>18.0</ele>
        <time>2019-05-16T08:26:45.933Z</time>
      </trkpt>
      <trkpt lat="38.72148833" lon="-9.11636167">
        <ele>18.0</ele>
        <time>2019-05-16T08:26:46.910Z</time>
      </trkpt>
      <trkpt lat="38.72148833" lon="-9.11636167">
        <ele>18.0</ele>
        <time>2019-05-16T08:26:47.926Z</time>
      </trkpt>
      <trkpt lat="38.72153167" lon="-9.11633833">
        <ele>18.0</ele>
        <time>2019-05-16T08:26:48.934Z</time>
      </trkpt>
      <trkpt lat="38.72153167" lon="-9.11633833">
        <ele>18.0</ele>
        <time>2019-05-16T08:26:49.907Z</time>
      </trkpt>
      <trkpt lat="38.721575" lon="-9.11632167">
        <ele>18.0</ele>
        <time>2019-05-16T08:26:50.917Z</time>
      </trkpt>
      <trkpt lat="38.721575" lon="-9.11632167">
        <ele>18.0</ele>
        <time>2019-05-16T08:26:51.930Z</time>
      </trkpt>
      <trkpt lat="38.72162333" lon="-9.11628833">
        <ele>18.0</ele>
        <time>2019-05-16T08:26:52.901Z</time>
      </trkpt>
      <trkpt lat="38.72162333" lon="-9.11628833">
        <ele>18.0</ele>
        <time>2019-05-16T08:26:53.921Z</time>
      </trkpt>
      <trkpt lat="38.72166333" lon="-9.11623833">
        <ele>19.0</ele>
        <time>2019-05-16T08:26:54.928Z</time>
      </trkpt>
      <trkpt lat="38.72166333" lon="-9.11623833">
        <ele>19.0</ele>
        <time>2019-05-16T08:26:55.908Z</time>
      </trkpt>
      <trkpt lat="38.72171667" lon="-9.11619833">
        <ele>19.0</ele>
        <time>2019-05-16T08:26:56.904Z</time>
      </trkpt>
      <trkpt lat="38.72171667" lon="-9.11619833">
        <ele>19.0</ele>
        <time>2019-05-16T08:26:57.899Z</time>
      </trkpt>
      <trkpt lat="38.72177" lon="-9.116165">
        <ele>20.0</ele>
        <time>2019-05-16T08:26:58.914Z</time>
      </trkpt>
      <trkpt lat="38.72179333" lon="-9.116145">
        <ele>20.0</ele>
        <time>2019-05-16T08:26:59.930Z</time>
      </trkpt>
      <trkpt lat="38.72182167" lon="-9.11613167">
        <ele>20.0</ele>
        <time>2019-05-16T08:27:00.915Z</time>
      </trkpt>
      <trkpt lat="38.72182167" lon="-9.11613167">
        <ele>20.0</ele>
        <time>2019-05-16T08:27:01.926Z</time>
      </trkpt>
      <trkpt lat="38.72187833" lon="-9.11609333">
        <ele>21.0</ele>
        <time>2019-05-16T08:27:02.936Z</time>
      </trkpt>
      <trkpt lat="38.72187833" lon="-9.11609333">
        <ele>21.0</ele>
        <time>2019-05-16T08:27:03.907Z</time>
      </trkpt>
      <trkpt lat="38.72194667" lon="-9.11604167">
        <ele>21.0</ele>
        <time>2019-05-16T08:27:04.914Z</time>
      </trkpt>
      <trkpt lat="38.72198" lon="-9.11601833">
        <ele>21.0</ele>
        <time>2019-05-16T08:27:05.928Z</time>
      </trkpt>
      <trkpt lat="38.72202" lon="-9.11599833">
        <ele>21.0</ele>
        <time>2019-05-16T08:27:06.905Z</time>
      </trkpt>
      <trkpt lat="38.72202" lon="-9.11599833">
        <ele>21.0</ele>
        <time>2019-05-16T08:27:07.918Z</time>
      </trkpt>
      <trkpt lat="38.72209667" lon="-9.11595167">
        <ele>22.0</ele>
        <time>2019-05-16T08:27:08.928Z</time>
      </trkpt>
      <trkpt lat="38.72214" lon="-9.11592833">
        <ele>21.0</ele>
        <time>2019-05-16T08:27:09.898Z</time>
      </trkpt>
      <trkpt lat="38.72214" lon="-9.11592833">
        <ele>21.0</ele>
        <time>2019-05-16T08:27:10.924Z</time>
      </trkpt>
      <trkpt lat="38.72223" lon="-9.11588833">
        <ele>21.0</ele>
        <time>2019-05-16T08:27:11.937Z</time>
      </trkpt>
      <trkpt lat="38.72226833" lon="-9.11586167">
        <ele>21.0</ele>
        <time>2019-05-16T08:27:12.924Z</time>
      </trkpt>
      <trkpt lat="38.72226833" lon="-9.11586167">
        <ele>21.0</ele>
        <time>2019-05-16T08:27:13.931Z</time>
      </trkpt>
      <trkpt lat="38.722345" lon="-9.11580833">
        <ele>21.0</ele>
        <time>2019-05-16T08:27:14.900Z</time>
      </trkpt>
      <trkpt lat="38.722345" lon="-9.11580833">
        <ele>21.0</ele>
        <time>2019-05-16T08:27:15.915Z</time>
      </trkpt>
      <trkpt lat="38.72242167" lon="-9.11575833">
        <ele>21.0</ele>
        <time>2019-05-16T08:27:16.924Z</time>
      </trkpt>
      <trkpt lat="38.72245833" lon="-9.115735">
        <ele>21.0</ele>
        <time>2019-05-16T08:27:17.916Z</time>
      </trkpt>
      <trkpt lat="38.72249667" lon="-9.11571">
        <ele>21.0</ele>
        <time>2019-05-16T08:27:18.899Z</time>
      </trkpt>
      <trkpt lat="38.72249667" lon="-9.11571">
        <ele>21.0</ele>
        <time>2019-05-16T08:27:19.912Z</time>
      </trkpt>
      <trkpt lat="38.72257333" lon="-9.11566167">
        <ele>22.0</ele>
        <time>2019-05-16T08:27:20.900Z</time>
      </trkpt>
      <trkpt lat="38.72257333" lon="-9.11566167">
        <ele>22.0</ele>
        <time>2019-05-16T08:27:21.915Z</time>
      </trkpt>
      <trkpt lat="38.722645" lon="-9.11560833">
        <ele>21.0</ele>
        <time>2019-05-16T08:27:22.929Z</time>
      </trkpt>
      <trkpt lat="38.722645" lon="-9.11560833">
        <ele>21.0</ele>
        <time>2019-05-16T08:27:23.917Z</time>
      </trkpt>
      <trkpt lat="38.72268833" lon="-9.11556667">
        <ele>22.0</ele>
        <time>2019-05-16T08:27:24.923Z</time>
      </trkpt>
      <trkpt lat="38.72268833" lon="-9.11556667">
        <ele>22.0</ele>
        <time>2019-05-16T08:27:25.908Z</time>
      </trkpt>
      <trkpt lat="38.72272333" lon="-9.11553833">
        <ele>21.0</ele>
        <time>2019-05-16T08:27:26.922Z</time>
      </trkpt>
      <trkpt lat="38.72272333" lon="-9.11553833">
        <ele>21.0</ele>
        <time>2019-05-16T08:27:27.910Z</time>
      </trkpt>
      <trkpt lat="38.72277" lon="-9.11550667">
        <ele>21.0</ele>
        <time>2019-05-16T08:27:28.929Z</time>
      </trkpt>
      <trkpt lat="38.72279333" lon="-9.11548333">
        <ele>21.0</ele>
        <time>2019-05-16T08:27:29.913Z</time>
      </trkpt>
      <trkpt lat="38.72281667" lon="-9.11548167">
        <ele>21.0</ele>
        <time>2019-05-16T08:27:30.935Z</time>
      </trkpt>
      <trkpt lat="38.72281667" lon="-9.11548167">
        <ele>21.0</ele>
        <time>2019-05-16T08:27:31.920Z</time>
      </trkpt>
      <trkpt lat="38.72284167" lon="-9.11549833">
        <ele>22.0</ele>
        <time>2019-05-16T08:27:32.928Z</time>
      </trkpt>
      <trkpt lat="38.72284167" lon="-9.11549833">
        <ele>22.0</ele>
        <time>2019-05-16T08:27:33.926Z</time>
      </trkpt>
      <trkpt lat="38.72284167" lon="-9.11549833">
        <ele>22.0</ele>
        <time>2019-05-16T08:27:34.941Z</time>
      </trkpt>
      <trkpt lat="38.72284167" lon="-9.11549833">
        <ele>22.0</ele>
        <time>2019-05-16T08:27:35.913Z</time>
      </trkpt>
      <trkpt lat="38.72284167" lon="-9.11549833">
        <ele>22.0</ele>
        <time>2019-05-16T08:27:36.920Z</time>
      </trkpt>
      <trkpt lat="38.72284167" lon="-9.11549833">
        <ele>22.0</ele>
        <time>2019-05-16T08:27:37.936Z</time>
      </trkpt>
      <trkpt lat="38.72284167" lon="-9.11549833">
        <ele>22.0</ele>
        <time>2019-05-16T08:27:38.921Z</time>
      </trkpt>
      <trkpt lat="38.72284167" lon="-9.11549833">
        <ele>22.0</ele>
        <time>2019-05-16T08:27:39.916Z</time>
      </trkpt>
      <trkpt lat="38.72293833" lon="-9.11552667">
        <ele>24.0</ele>
        <time>2019-05-16T08:27:40.922Z</time>
      </trkpt>
      <trkpt lat="38.72293833" lon="-9.11552667">
        <ele>24.0</ele>
        <time>2019-05-16T08:27:41.916Z</time>
      </trkpt>
      <trkpt lat="38.72298167" lon="-9.11551167">
        <ele>24.0</ele>
        <time>2019-05-16T08:27:42.924Z</time>
      </trkpt>
      <trkpt lat="38.72298167" lon="-9.11551167">
        <ele>24.0</ele>
        <time>2019-05-16T08:27:43.927Z</time>
      </trkpt>
      <trkpt lat="38.72303" lon="-9.11550333">
        <ele>24.0</ele>
        <time>2019-05-16T08:27:44.933Z</time>
      </trkpt>
      <trkpt lat="38.72303" lon="-9.11550333">
        <ele>24.0</ele>
        <time>2019-05-16T08:27:45.898Z</time>
      </trkpt>
      <trkpt lat="38.72308167" lon="-9.11549167">
        <ele>25.0</ele>
        <time>2019-05-16T08:27:46.915Z</time>
      </trkpt>
      <trkpt lat="38.72308167" lon="-9.11549167">
        <ele>25.0</ele>
        <time>2019-05-16T08:27:47.926Z</time>
      </trkpt>
      <trkpt lat="38.723135" lon="-9.11547667">
        <ele>26.0</ele>
        <time>2019-05-16T08:27:48.935Z</time>
      </trkpt>
      <trkpt lat="38.723135" lon="-9.11547667">
        <ele>26.0</ele>
        <time>2019-05-16T08:27:49.909Z</time>
      </trkpt>
      <trkpt lat="38.72318667" lon="-9.11544833">
        <ele>27.0</ele>
        <time>2019-05-16T08:27:50.933Z</time>
      </trkpt>
      <trkpt lat="38.72318667" lon="-9.11544833">
        <ele>27.0</ele>
        <time>2019-05-16T08:27:51.936Z</time>
      </trkpt>
      <trkpt lat="38.723245" lon="-9.11542667">
        <ele>28.0</ele>
        <time>2019-05-16T08:27:52.903Z</time>
      </trkpt>
      <trkpt lat="38.723245" lon="-9.11542667">
        <ele>28.0</ele>
        <time>2019-05-16T08:27:53.923Z</time>
      </trkpt>
      <trkpt lat="38.723305" lon="-9.11541833">
        <ele>30.0</ele>
        <time>2019-05-16T08:27:54.930Z</time>
      </trkpt>
      <trkpt lat="38.723305" lon="-9.11541833">
        <ele>30.0</ele>
        <time>2019-05-16T08:27:55.936Z</time>
      </trkpt>
      <trkpt lat="38.723365" lon="-9.115405">
        <ele>31.0</ele>
        <time>2019-05-16T08:27:56.913Z</time>
      </trkpt>
      <trkpt lat="38.723365" lon="-9.115405">
        <ele>31.0</ele>
        <time>2019-05-16T08:27:57.930Z</time>
      </trkpt>
      <trkpt lat="38.723425" lon="-9.11539">
        <ele>33.0</ele>
        <time>2019-05-16T08:27:58.921Z</time>
      </trkpt>
      <trkpt lat="38.72345667" lon="-9.115375">
        <ele>34.0</ele>
        <time>2019-05-16T08:27:59.928Z</time>
      </trkpt>
      <trkpt lat="38.72348667" lon="-9.11536167">
        <ele>35.0</ele>
        <time>2019-05-16T08:28:00.900Z</time>
      </trkpt>
      <trkpt lat="38.72348667" lon="-9.11536167">
        <ele>35.0</ele>
        <time>2019-05-16T08:28:01.921Z</time>
      </trkpt>
      <trkpt lat="38.72353833" lon="-9.115335">
        <ele>37.0</ele>
        <time>2019-05-16T08:28:02.930Z</time>
      </trkpt>
      <trkpt lat="38.72356167" lon="-9.11531833">
        <ele>38.0</ele>
        <time>2019-05-16T08:28:03.926Z</time>
      </trkpt>
      <trkpt lat="38.72356167" lon="-9.11531833">
        <ele>38.0</ele>
        <time>2019-05-16T08:28:04.916Z</time>
      </trkpt>
      <trkpt lat="38.72360333" lon="-9.11530167">
        <ele>39.0</ele>
        <time>2019-05-16T08:28:05.923Z</time>
      </trkpt>
      <trkpt lat="38.72362333" lon="-9.11529667">
        <ele>40.0</ele>
        <time>2019-05-16T08:28:06.924Z</time>
      </trkpt>
      <trkpt lat="38.72362333" lon="-9.11529667">
        <ele>40.0</ele>
        <time>2019-05-16T08:28:07.921Z</time>
      </trkpt>
      <trkpt lat="38.72366667" lon="-9.11527833">
        <ele>42.0</ele>
        <time>2019-05-16T08:28:08.921Z</time>
      </trkpt>
      <trkpt lat="38.72366667" lon="-9.11527833">
        <ele>42.0</ele>
        <time>2019-05-16T08:28:09.916Z</time>
      </trkpt>
      <trkpt lat="38.723705" lon="-9.11526833">
        <ele>44.0</ele>
        <time>2019-05-16T08:28:10.919Z</time>
      </trkpt>
      <trkpt lat="38.72372167" lon="-9.115265">
        <ele>45.0</ele>
        <time>2019-05-16T08:28:11.900Z</time>
      </trkpt>
      <trkpt lat="38.72372167" lon="-9.115265">
        <ele>45.0</ele>
        <time>2019-05-16T08:28:12.919Z</time>
      </trkpt>
      <trkpt lat="38.72375167" lon="-9.11525833">
        <ele>47.0</ele>
        <time>2019-05-16T08:28:13.926Z</time>
      </trkpt>
      <trkpt lat="38.72375167" lon="-9.11525833">
        <ele>47.0</ele>
        <time>2019-05-16T08:28:14.917Z</time>
      </trkpt>
      <trkpt lat="38.72378667" lon="-9.11524833">
        <ele>48.0</ele>
        <time>2019-05-16T08:28:15.921Z</time>
      </trkpt>
      <trkpt lat="38.72378667" lon="-9.11524833">
        <ele>48.0</ele>
        <time>2019-05-16T08:28:16.916Z</time>
      </trkpt>
      <trkpt lat="38.72382833" lon="-9.11522833">
        <ele>50.0</ele>
        <time>2019-05-16T08:28:17.925Z</time>
      </trkpt>
      <trkpt lat="38.72384833" lon="-9.115225">
        <ele>50.0</ele>
        <time>2019-05-16T08:28:18.926Z</time>
      </trkpt>
      <trkpt lat="38.72384833" lon="-9.115225">
        <ele>50.0</ele>
        <time>2019-05-16T08:28:19.919Z</time>
      </trkpt>
      <trkpt lat="38.72388167" lon="-9.11520667">
        <ele>51.0</ele>
        <time>2019-05-16T08:28:20.903Z</time>
      </trkpt>
      <trkpt lat="38.72388167" lon="-9.11520667">
        <ele>51.0</ele>
        <time>2019-05-16T08:28:21.921Z</time>
      </trkpt>
      <trkpt lat="38.723925" lon="-9.11519667">
        <ele>51.0</ele>
        <time>2019-05-16T08:28:22.921Z</time>
      </trkpt>
      <trkpt lat="38.723925" lon="-9.11519667">
        <ele>51.0</ele>
        <time>2019-05-16T08:28:23.918Z</time>
      </trkpt>
      <trkpt lat="38.72398167" lon="-9.11520167">
        <ele>52.0</ele>
        <time>2019-05-16T08:28:24.913Z</time>
      </trkpt>
      <trkpt lat="38.72401167" lon="-9.11520167">
        <ele>52.0</ele>
        <time>2019-05-16T08:28:25.908Z</time>
      </trkpt>
      <trkpt lat="38.72401167" lon="-9.11520167">
        <ele>52.0</ele>
        <time>2019-05-16T08:28:26.931Z</time>
      </trkpt>
      <trkpt lat="38.72406" lon="-9.115195">
        <ele>52.0</ele>
        <time>2019-05-16T08:28:27.930Z</time>
      </trkpt>
      <trkpt lat="38.72408" lon="-9.11519833">
        <ele>52.0</ele>
        <time>2019-05-16T08:28:28.928Z</time>
      </trkpt>
      <trkpt lat="38.72408" lon="-9.11519833">
        <ele>52.0</ele>
        <time>2019-05-16T08:28:29.916Z</time>
      </trkpt>
      <trkpt lat="38.724115" lon="-9.11520333">
        <ele>51.0</ele>
        <time>2019-05-16T08:28:30.924Z</time>
      </trkpt>
      <trkpt lat="38.724115" lon="-9.11520333">
        <ele>51.0</ele>
        <time>2019-05-16T08:28:31.916Z</time>
      </trkpt>
      <trkpt lat="38.724155" lon="-9.11521333">
        <ele>52.0</ele>
        <time>2019-05-16T08:28:32.921Z</time>
      </trkpt>
      <trkpt lat="38.724155" lon="-9.11521333">
        <ele>52.0</ele>
        <time>2019-05-16T08:28:33.917Z</time>
      </trkpt>
      <trkpt lat="38.724185" lon="-9.11522">
        <ele>53.0</ele>
        <time>2019-05-16T08:28:34.915Z</time>
      </trkpt>
      <trkpt lat="38.724185" lon="-9.11522">
        <ele>53.0</ele>
        <time>2019-05-16T08:28:35.898Z</time>
      </trkpt>
      <trkpt lat="38.72421833" lon="-9.11522167">
        <ele>53.0</ele>
        <time>2019-05-16T08:28:36.929Z</time>
      </trkpt>
      <trkpt lat="38.72421833" lon="-9.11522167">
        <ele>53.0</ele>
        <time>2019-05-16T08:28:37.920Z</time>
      </trkpt>
      <trkpt lat="38.72425833" lon="-9.11523333">
        <ele>53.0</ele>
        <time>2019-05-16T08:28:38.919Z</time>
      </trkpt>
      <trkpt lat="38.72425833" lon="-9.11523333">
        <ele>53.0</ele>
        <time>2019-05-16T08:28:39.897Z</time>
      </trkpt>
      <trkpt lat="38.72430333" lon="-9.11525">
        <ele>51.0</ele>
        <time>2019-05-16T08:28:40.925Z</time>
      </trkpt>
      <trkpt lat="38.72430333" lon="-9.11525">
        <ele>51.0</ele>
        <time>2019-05-16T08:28:41.916Z</time>
      </trkpt>
      <trkpt lat="38.72434667" lon="-9.11529167">
        <ele>49.0</ele>
        <time>2019-05-16T08:28:42.900Z</time>
      </trkpt>
      <trkpt lat="38.72434667" lon="-9.11529167">
        <ele>49.0</ele>
        <time>2019-05-16T08:28:43.920Z</time>
      </trkpt>
      <trkpt lat="38.724395" lon="-9.11532667">
        <ele>47.0</ele>
        <time>2019-05-16T08:28:44.922Z</time>
      </trkpt>
      <trkpt lat="38.724395" lon="-9.11532667">
        <ele>47.0</ele>
        <time>2019-05-16T08:28:45.916Z</time>
      </trkpt>
      <trkpt lat="38.72445167" lon="-9.11536833">
        <ele>45.0</ele>
        <time>2019-05-16T08:28:46.921Z</time>
      </trkpt>
      <trkpt lat="38.72445167" lon="-9.11536833">
        <ele>45.0</ele>
        <time>2019-05-16T08:28:47.921Z</time>
      </trkpt>
      <trkpt lat="38.72450167" lon="-9.11539833">
        <ele>45.0</ele>
        <time>2019-05-16T08:28:48.900Z</time>
      </trkpt>
      <trkpt lat="38.72450167" lon="-9.11539833">
        <ele>45.0</ele>
        <time>2019-05-16T08:28:49.922Z</time>
      </trkpt>
      <trkpt lat="38.72452667" lon="-9.11541833">
        <ele>44.0</ele>
        <time>2019-05-16T08:28:50.919Z</time>
      </trkpt>
      <trkpt lat="38.72452667" lon="-9.11541833">
        <ele>44.0</ele>
        <time>2019-05-16T08:28:51.936Z</time>
      </trkpt>
      <trkpt lat="38.724565" lon="-9.115435">
        <ele>45.0</ele>
        <time>2019-05-16T08:28:52.925Z</time>
      </trkpt>
      <trkpt lat="38.724565" lon="-9.115435">
        <ele>45.0</ele>
        <time>2019-05-16T08:28:53.919Z</time>
      </trkpt>
      <trkpt lat="38.72461167" lon="-9.11543333">
        <ele>45.0</ele>
        <time>2019-05-16T08:28:54.911Z</time>
      </trkpt>
      <trkpt lat="38.72461167" lon="-9.11543333">
        <ele>45.0</ele>
        <time>2019-05-16T08:28:55.897Z</time>
      </trkpt>
      <trkpt lat="38.72464667" lon="-9.11544167">
        <ele>45.0</ele>
        <time>2019-05-16T08:28:56.921Z</time>
      </trkpt>
      <trkpt lat="38.72464667" lon="-9.11544167">
        <ele>45.0</ele>
        <time>2019-05-16T08:28:57.921Z</time>
      </trkpt>
      <trkpt lat="38.72467333" lon="-9.11546">
        <ele>45.0</ele>
        <time>2019-05-16T08:28:58.901Z</time>
      </trkpt>
      <trkpt lat="38.72467333" lon="-9.11546">
        <ele>45.0</ele>
        <time>2019-05-16T08:28:59.936Z</time>
      </trkpt>
      <trkpt lat="38.72471667" lon="-9.115475">
        <ele>44.0</ele>
        <time>2019-05-16T08:29:00.924Z</time>
      </trkpt>
      <trkpt lat="38.72471667" lon="-9.115475">
        <ele>44.0</ele>
        <time>2019-05-16T08:29:01.916Z</time>
      </trkpt>
      <trkpt lat="38.72477333" lon="-9.11548">
        <ele>44.0</ele>
        <time>2019-05-16T08:29:02.921Z</time>
      </trkpt>
      <trkpt lat="38.7248" lon="-9.11548333">
        <ele>44.0</ele>
        <time>2019-05-16T08:29:03.923Z</time>
      </trkpt>
      <trkpt lat="38.7248" lon="-9.11548333">
        <ele>44.0</ele>
        <time>2019-05-16T08:29:04.912Z</time>
      </trkpt>
      <trkpt lat="38.72485333" lon="-9.11549833">
        <ele>44.0</ele>
        <time>2019-05-16T08:29:05.900Z</time>
      </trkpt>
      <trkpt lat="38.72487667" lon="-9.11550667">
        <ele>44.0</ele>
        <time>2019-05-16T08:29:06.900Z</time>
      </trkpt>
      <trkpt lat="38.72487667" lon="-9.11550667">
        <ele>44.0</ele>
        <time>2019-05-16T08:29:07.919Z</time>
      </trkpt>
      <trkpt lat="38.72493" lon="-9.115535">
        <ele>44.0</ele>
        <time>2019-05-16T08:29:08.922Z</time>
      </trkpt>
      <trkpt lat="38.72493" lon="-9.115535">
        <ele>44.0</ele>
        <time>2019-05-16T08:29:09.917Z</time>
      </trkpt>
      <trkpt lat="38.72499333" lon="-9.11556333">
        <ele>43.0</ele>
        <time>2019-05-16T08:29:10.922Z</time>
      </trkpt>
      <trkpt lat="38.72499333" lon="-9.11556333">
        <ele>43.0</ele>
        <time>2019-05-16T08:29:11.916Z</time>
      </trkpt>
      <trkpt lat="38.72506667" lon="-9.11559833">
        <ele>41.0</ele>
        <time>2019-05-16T08:29:12.900Z</time>
      </trkpt>
      <trkpt lat="38.72506667" lon="-9.11559833">
        <ele>41.0</ele>
        <time>2019-05-16T08:29:13.921Z</time>
      </trkpt>
      <trkpt lat="38.72514333" lon="-9.11561833">
        <ele>39.0</ele>
        <time>2019-05-16T08:29:14.916Z</time>
      </trkpt>
      <trkpt lat="38.72518333" lon="-9.115625">
        <ele>38.0</ele>
        <time>2019-05-16T08:29:15.900Z</time>
      </trkpt>
      <trkpt lat="38.72518333" lon="-9.115625">
        <ele>38.0</ele>
        <time>2019-05-16T08:29:16.918Z</time>
      </trkpt>
      <trkpt lat="38.72526333" lon="-9.11563833">
        <ele>36.0</ele>
        <time>2019-05-16T08:29:17.910Z</time>
      </trkpt>
      <trkpt lat="38.72530167" lon="-9.11564">
        <ele>34.0</ele>
        <time>2019-05-16T08:29:18.931Z</time>
      </trkpt>
      <trkpt lat="38.72530167" lon="-9.11564">
        <ele>34.0</ele>
        <time>2019-05-16T08:29:19.916Z</time>
      </trkpt>
      <trkpt lat="38.72536833" lon="-9.11563">
        <ele>33.0</ele>
        <time>2019-05-16T08:29:20.921Z</time>
      </trkpt>
      <trkpt lat="38.72540167" lon="-9.11562333">
        <ele>33.0</ele>
        <time>2019-05-16T08:29:21.926Z</time>
      </trkpt>
      <trkpt lat="38.72540167" lon="-9.11562333">
        <ele>33.0</ele>
        <time>2019-05-16T08:29:22.916Z</time>
      </trkpt>
      <trkpt lat="38.72547667" lon="-9.11561">
        <ele>32.0</ele>
        <time>2019-05-16T08:29:23.923Z</time>
      </trkpt>
      <trkpt lat="38.72547667" lon="-9.11561">
        <ele>32.0</ele>
        <time>2019-05-16T08:29:24.921Z</time>
      </trkpt>
      <trkpt lat="38.72554833" lon="-9.11559333">
        <ele>32.0</ele>
        <time>2019-05-16T08:29:25.926Z</time>
      </trkpt>
      <trkpt lat="38.72554833" lon="-9.11559333">
        <ele>32.0</ele>
        <time>2019-05-16T08:29:26.917Z</time>
      </trkpt>
      <trkpt lat="38.72561" lon="-9.11557333">
        <ele>32.0</ele>
        <time>2019-05-16T08:29:27.929Z</time>
      </trkpt>
      <trkpt lat="38.72564" lon="-9.11556167">
        <ele>32.0</ele>
        <time>2019-05-16T08:29:28.926Z</time>
      </trkpt>
      <trkpt lat="38.72564" lon="-9.11556167">
        <ele>32.0</ele>
        <time>2019-05-16T08:29:29.916Z</time>
      </trkpt>
      <trkpt lat="38.72572833" lon="-9.11554833">
        <ele>34.0</ele>
        <time>2019-05-16T08:29:30.900Z</time>
      </trkpt>
      <trkpt lat="38.72572833" lon="-9.11554833">
        <ele>34.0</ele>
        <time>2019-05-16T08:29:31.921Z</time>
      </trkpt>
      <trkpt lat="38.7258" lon="-9.115535">
        <ele>35.0</ele>
        <time>2019-05-16T08:29:32.921Z</time>
      </trkpt>
      <trkpt lat="38.7258" lon="-9.115535">
        <ele>35.0</ele>
        <time>2019-05-16T08:29:33.916Z</time>
      </trkpt>
      <trkpt lat="38.72585667" lon="-9.11551167">
        <ele>35.0</ele>
        <time>2019-05-16T08:29:34.929Z</time>
      </trkpt>
      <trkpt lat="38.72590833" lon="-9.11551667">
        <ele>35.0</ele>
        <time>2019-05-16T08:29:35.933Z</time>
      </trkpt>
      <trkpt lat="38.72590833" lon="-9.11551667">
        <ele>35.0</ele>
        <time>2019-05-16T08:29:36.923Z</time>
      </trkpt>
      <trkpt lat="38.72599" lon="-9.115505">
        <ele>36.0</ele>
        <time>2019-05-16T08:29:37.931Z</time>
      </trkpt>
      <trkpt lat="38.72603167" lon="-9.11549833">
        <ele>36.0</ele>
        <time>2019-05-16T08:29:38.926Z</time>
      </trkpt>
      <trkpt lat="38.72603167" lon="-9.11549833">
        <ele>36.0</ele>
        <time>2019-05-16T08:29:39.919Z</time>
      </trkpt>
      <trkpt lat="38.72611" lon="-9.11549167">
        <ele>36.0</ele>
        <time>2019-05-16T08:29:40.921Z</time>
      </trkpt>
      <trkpt lat="38.72611" lon="-9.11549167">
        <ele>36.0</ele>
        <time>2019-05-16T08:29:41.917Z</time>
      </trkpt>
      <trkpt lat="38.72618167" lon="-9.11549">
        <ele>37.0</ele>
        <time>2019-05-16T08:29:42.917Z</time>
      </trkpt>
      <trkpt lat="38.72618167" lon="-9.11549">
        <ele>37.0</ele>
        <time>2019-05-16T08:29:43.918Z</time>
      </trkpt>
      <trkpt lat="38.72624333" lon="-9.11548167">
        <ele>39.0</ele>
        <time>2019-05-16T08:29:44.922Z</time>
      </trkpt>
      <trkpt lat="38.72624333" lon="-9.11548167">
        <ele>39.0</ele>
        <time>2019-05-16T08:29:45.929Z</time>
      </trkpt>
      <trkpt lat="38.72631" lon="-9.11548167">
        <ele>39.0</ele>
        <time>2019-05-16T08:29:46.922Z</time>
      </trkpt>
      <trkpt lat="38.72631" lon="-9.11548167">
        <ele>39.0</ele>
        <time>2019-05-16T08:29:47.920Z</time>
      </trkpt>
      <trkpt lat="38.72635167" lon="-9.11544667">
        <ele>39.0</ele>
        <time>2019-05-16T08:29:48.901Z</time>
      </trkpt>
      <trkpt lat="38.72635167" lon="-9.11544667">
        <ele>39.0</ele>
        <time>2019-05-16T08:29:49.923Z</time>
      </trkpt>
      <trkpt lat="38.72638333" lon="-9.11540667">
        <ele>37.0</ele>
        <time>2019-05-16T08:29:50.925Z</time>
      </trkpt>
      <trkpt lat="38.72638333" lon="-9.11540667">
        <ele>37.0</ele>
        <time>2019-05-16T08:29:51.916Z</time>
      </trkpt>
      <trkpt lat="38.72640167" lon="-9.115345">
        <ele>37.0</ele>
        <time>2019-05-16T08:29:52.924Z</time>
      </trkpt>
      <trkpt lat="38.72640167" lon="-9.115345">
        <ele>37.0</ele>
        <time>2019-05-16T08:29:53.919Z</time>
      </trkpt>
      <trkpt lat="38.72641" lon="-9.115275">
        <ele>37.0</ele>
        <time>2019-05-16T08:29:54.918Z</time>
      </trkpt>
      <trkpt lat="38.72641" lon="-9.115275">
        <ele>37.0</ele>
        <time>2019-05-16T08:29:55.917Z</time>
      </trkpt>
      <trkpt lat="38.72640833" lon="-9.115215">
        <ele>37.0</ele>
        <time>2019-05-16T08:29:56.922Z</time>
      </trkpt>
      <trkpt lat="38.72640833" lon="-9.115215">
        <ele>37.0</ele>
        <time>2019-05-16T08:29:57.921Z</time>
      </trkpt>
      <trkpt lat="38.72640833" lon="-9.115155">
        <ele>36.0</ele>
        <time>2019-05-16T08:29:58.900Z</time>
      </trkpt>
      <trkpt lat="38.72640833" lon="-9.115155">
        <ele>36.0</ele>
        <time>2019-05-16T08:29:59.918Z</time>
      </trkpt>
      <trkpt lat="38.72640667" lon="-9.11511167">
        <ele>35.0</ele>
        <time>2019-05-16T08:30:00.924Z</time>
      </trkpt>
      <trkpt lat="38.72641667" lon="-9.11509833">
        <ele>35.0</ele>
        <time>2019-05-16T08:30:01.996Z</time>
      </trkpt>
      <trkpt lat="38.72641667" lon="-9.11509833">
        <ele>35.0</ele>
        <time>2019-05-16T08:30:02.914Z</time>
      </trkpt>
      <trkpt lat="38.72642333" lon="-9.11504667">
        <ele>34.0</ele>
        <time>2019-05-16T08:30:03.920Z</time>
      </trkpt>
      <trkpt lat="38.72642333" lon="-9.11504667">
        <ele>34.0</ele>
        <time>2019-05-16T08:30:04.925Z</time>
      </trkpt>
      <trkpt lat="38.72641333" lon="-9.11500167">
        <ele>32.0</ele>
        <time>2019-05-16T08:30:05.926Z</time>
      </trkpt>
      <trkpt lat="38.726405" lon="-9.11497667">
        <ele>32.0</ele>
        <time>2019-05-16T08:30:06.932Z</time>
      </trkpt>
      <trkpt lat="38.726405" lon="-9.11497667">
        <ele>32.0</ele>
        <time>2019-05-16T08:30:07.925Z</time>
      </trkpt>
      <trkpt lat="38.72639167" lon="-9.11491">
        <ele>31.0</ele>
        <time>2019-05-16T08:30:08.918Z</time>
      </trkpt>
      <trkpt lat="38.72639167" lon="-9.11491">
        <ele>31.0</ele>
        <time>2019-05-16T08:30:09.917Z</time>
      </trkpt>
      <trkpt lat="38.72637167" lon="-9.11482667">
        <ele>30.0</ele>
        <time>2019-05-16T08:30:10.924Z</time>
      </trkpt>
      <trkpt lat="38.72637167" lon="-9.11482667">
        <ele>30.0</ele>
        <time>2019-05-16T08:30:11.917Z</time>
      </trkpt>
      <trkpt lat="38.72635833" lon="-9.11474667">
        <ele>29.0</ele>
        <time>2019-05-16T08:30:12.902Z</time>
      </trkpt>
      <trkpt lat="38.72635833" lon="-9.11474667">
        <ele>29.0</ele>
        <time>2019-05-16T08:30:13.921Z</time>
      </trkpt>
      <trkpt lat="38.72634667" lon="-9.114675">
        <ele>28.0</ele>
        <time>2019-05-16T08:30:14.923Z</time>
      </trkpt>
      <trkpt lat="38.72634667" lon="-9.114675">
        <ele>28.0</ele>
        <time>2019-05-16T08:30:15.904Z</time>
      </trkpt>
      <trkpt lat="38.72634" lon="-9.114625">
        <ele>28.0</ele>
        <time>2019-05-16T08:30:16.900Z</time>
      </trkpt>
      <trkpt lat="38.72634" lon="-9.114625">
        <ele>28.0</ele>
        <time>2019-05-16T08:30:17.921Z</time>
      </trkpt>
      <trkpt lat="38.72635167" lon="-9.114575">
        <ele>27.0</ele>
        <time>2019-05-16T08:30:18.900Z</time>
      </trkpt>
      <trkpt lat="38.726365" lon="-9.11454333">
        <ele>26.0</ele>
        <time>2019-05-16T08:30:19.921Z</time>
      </trkpt>
      <trkpt lat="38.726365" lon="-9.11454333">
        <ele>26.0</ele>
        <time>2019-05-16T08:30:20.917Z</time>
      </trkpt>
      <trkpt lat="38.72640667" lon="-9.11449">
        <ele>24.0</ele>
        <time>2019-05-16T08:30:21.928Z</time>
      </trkpt>
      <trkpt lat="38.72640667" lon="-9.11449">
        <ele>24.0</ele>
        <time>2019-05-16T08:30:22.917Z</time>
      </trkpt>
      <trkpt lat="38.72642" lon="-9.11443167">
        <ele>23.0</ele>
        <time>2019-05-16T08:30:23.926Z</time>
      </trkpt>
      <trkpt lat="38.72642667" lon="-9.11442">
        <ele>23.0</ele>
        <time>2019-05-16T08:30:24.915Z</time>
      </trkpt>
      <trkpt lat="38.72642667" lon="-9.11442">
        <ele>23.0</ele>
        <time>2019-05-16T08:30:25.917Z</time>
      </trkpt>
      <trkpt lat="38.72642667" lon="-9.11441667">
        <ele>23.0</ele>
        <time>2019-05-16T08:30:26.922Z</time>
      </trkpt>
      <trkpt lat="38.72642667" lon="-9.11441667">
        <ele>23.0</ele>
        <time>2019-05-16T08:30:27.921Z</time>
      </trkpt>
      <trkpt lat="38.72642667" lon="-9.11441667">
        <ele>23.0</ele>
        <time>2019-05-16T08:30:28.898Z</time>
      </trkpt>
      <trkpt lat="38.72642667" lon="-9.11441667">
        <ele>23.0</ele>
        <time>2019-05-16T08:30:29.922Z</time>
      </trkpt>
      <trkpt lat="38.72642667" lon="-9.11441667">
        <ele>23.0</ele>
        <time>2019-05-16T08:30:30.925Z</time>
      </trkpt>
      <trkpt lat="38.72642667" lon="-9.11441667">
        <ele>23.0</ele>
        <time>2019-05-16T08:30:31.917Z</time>
      </trkpt>
      <trkpt lat="38.72642667" lon="-9.11441667">
        <ele>23.0</ele>
        <time>2019-05-16T08:30:32.922Z</time>
      </trkpt>
      <trkpt lat="38.72642667" lon="-9.11441667">
        <ele>23.0</ele>
        <time>2019-05-16T08:30:33.921Z</time>
      </trkpt>
      <trkpt lat="38.72644667" lon="-9.114425">
        <ele>20.0</ele>
        <time>2019-05-16T08:30:34.922Z</time>
      </trkpt>
      <trkpt lat="38.72644667" lon="-9.114425">
        <ele>20.0</ele>
        <time>2019-05-16T08:30:35.921Z</time>
      </trkpt>
      <trkpt lat="38.72647" lon="-9.11444">
        <ele>20.0</ele>
        <time>2019-05-16T08:30:36.925Z</time>
      </trkpt>
      <trkpt lat="38.72647" lon="-9.11444">
        <ele>20.0</ele>
        <time>2019-05-16T08:30:37.919Z</time>
      </trkpt>
      <trkpt lat="38.72650333" lon="-9.114465">
        <ele>19.0</ele>
        <time>2019-05-16T08:30:38.897Z</time>
      </trkpt>
      <trkpt lat="38.72650333" lon="-9.114465">
        <ele>19.0</ele>
        <time>2019-05-16T08:30:39.921Z</time>
      </trkpt>
      <trkpt lat="38.726545" lon="-9.11449167">
        <ele>19.0</ele>
        <time>2019-05-16T08:30:40.922Z</time>
      </trkpt>
      <trkpt lat="38.726545" lon="-9.11449167">
        <ele>19.0</ele>
        <time>2019-05-16T08:30:41.917Z</time>
      </trkpt>
      <trkpt lat="38.72657667" lon="-9.11454167">
        <ele>18.0</ele>
        <time>2019-05-16T08:30:42.900Z</time>
      </trkpt>
      <trkpt lat="38.72657667" lon="-9.11454167">
        <ele>18.0</ele>
        <time>2019-05-16T08:30:43.919Z</time>
      </trkpt>
      <trkpt lat="38.72661167" lon="-9.11460667">
        <ele>17.0</ele>
        <time>2019-05-16T08:30:44.902Z</time>
      </trkpt>
      <trkpt lat="38.72661167" lon="-9.11460667">
        <ele>17.0</ele>
        <time>2019-05-16T08:30:45.920Z</time>
      </trkpt>
      <trkpt lat="38.72664667" lon="-9.11467667">
        <ele>15.0</ele>
        <time>2019-05-16T08:30:46.922Z</time>
      </trkpt>
      <trkpt lat="38.72664667" lon="-9.11467667">
        <ele>15.0</ele>
        <time>2019-05-16T08:30:47.929Z</time>
      </trkpt>
      <trkpt lat="38.72669167" lon="-9.11471167">
        <ele>13.0</ele>
        <time>2019-05-16T08:30:48.928Z</time>
      </trkpt>
      <trkpt lat="38.72669167" lon="-9.11471167">
        <ele>13.0</ele>
        <time>2019-05-16T08:30:49.917Z</time>
      </trkpt>
      <trkpt lat="38.72672667" lon="-9.11469">
        <ele>12.0</ele>
        <time>2019-05-16T08:30:50.926Z</time>
      </trkpt>
      <trkpt lat="38.72672667" lon="-9.11469">
        <ele>12.0</ele>
        <time>2019-05-16T08:30:51.917Z</time>
      </trkpt>
      <trkpt lat="38.72673" lon="-9.11464">
        <ele>11.0</ele>
        <time>2019-05-16T08:30:52.924Z</time>
      </trkpt>
      <trkpt lat="38.72673" lon="-9.11464">
        <ele>11.0</ele>
        <time>2019-05-16T08:30:53.917Z</time>
      </trkpt>
      <trkpt lat="38.72669667" lon="-9.11459667">
        <ele>10.0</ele>
        <time>2019-05-16T08:30:54.900Z</time>
      </trkpt>
      <trkpt lat="38.72669667" lon="-9.11459667">
        <ele>10.0</ele>
        <time>2019-05-16T08:30:55.917Z</time>
      </trkpt>
      <trkpt lat="38.72664333" lon="-9.11454333">
        <ele>9.0</ele>
        <time>2019-05-16T08:30:56.924Z</time>
      </trkpt>
      <trkpt lat="38.72662" lon="-9.11451833">
        <ele>9.0</ele>
        <time>2019-05-16T08:30:57.914Z</time>
      </trkpt>
      <trkpt lat="38.72662" lon="-9.11451833">
        <ele>9.0</ele>
        <time>2019-05-16T08:30:58.932Z</time>
      </trkpt>
      <trkpt lat="38.72660167" lon="-9.11446333">
        <ele>10.0</ele>
        <time>2019-05-16T08:30:59.927Z</time>
      </trkpt>
      <trkpt lat="38.726595" lon="-9.114445">
        <ele>10.0</ele>
        <time>2019-05-16T08:31:00.924Z</time>
      </trkpt>
      <trkpt lat="38.726595" lon="-9.114445">
        <ele>10.0</ele>
        <time>2019-05-16T08:31:01.917Z</time>
      </trkpt>
      <trkpt lat="38.726575" lon="-9.11443167">
        <ele>10.0</ele>
        <time>2019-05-16T08:31:02.922Z</time>
      </trkpt>
      <trkpt lat="38.72657667" lon="-9.11442833">
        <ele>10.0</ele>
        <time>2019-05-16T08:31:03.910Z</time>
      </trkpt>
      <trkpt lat="38.72657667" lon="-9.11442833">
        <ele>10.0</ele>
        <time>2019-05-16T08:31:04.936Z</time>
      </trkpt>
      <trkpt lat="38.72657833" lon="-9.114425">
        <ele>10.0</ele>
        <time>2019-05-16T08:31:05.927Z</time>
      </trkpt>
      <trkpt lat="38.72657833" lon="-9.114425">
        <ele>10.0</ele>
        <time>2019-05-16T08:31:06.924Z</time>
      </trkpt>
      <trkpt lat="38.72657833" lon="-9.114425">
        <ele>10.0</ele>
        <time>2019-05-16T08:31:07.921Z</time>
      </trkpt>
      <trkpt lat="38.72657833" lon="-9.114425">
        <ele>10.0</ele>
        <time>2019-05-16T08:31:08.921Z</time>
      </trkpt>
      <trkpt lat="38.72657833" lon="-9.114425">
        <ele>10.0</ele>
        <time>2019-05-16T08:31:09.917Z</time>
      </trkpt>
      <trkpt lat="38.726575" lon="-9.11441333">
        <ele>11.0</ele>
        <time>2019-05-16T08:31:10.901Z</time>
      </trkpt>
      <trkpt lat="38.726575" lon="-9.11441333">
        <ele>11.0</ele>
        <time>2019-05-16T08:31:11.925Z</time>
      </trkpt>
      <trkpt lat="38.72655833" lon="-9.11440333">
        <ele>11.0</ele>
        <time>2019-05-16T08:31:12.924Z</time>
      </trkpt>
      <trkpt lat="38.72655833" lon="-9.11440333">
        <ele>11.0</ele>
        <time>2019-05-16T08:31:13.917Z</time>
      </trkpt>
      <trkpt lat="38.72654" lon="-9.11438833">
        <ele>11.0</ele>
        <time>2019-05-16T08:31:14.901Z</time>
      </trkpt>
      <trkpt lat="38.72654" lon="-9.11438833">
        <ele>11.0</ele>
        <time>2019-05-16T08:31:15.898Z</time>
      </trkpt>
      <trkpt lat="38.72653167" lon="-9.11438167">
        <ele>11.0</ele>
        <time>2019-05-16T08:31:16.923Z</time>
      </trkpt>
      <trkpt lat="38.72653167" lon="-9.11438167">
        <ele>11.0</ele>
        <time>2019-05-16T08:31:17.921Z</time>
      </trkpt>
      <trkpt lat="38.72653" lon="-9.11438">
        <ele>11.0</ele>
        <time>2019-05-16T08:31:18.897Z</time>
      </trkpt>
      <trkpt lat="38.72653" lon="-9.11438">
        <ele>11.0</ele>
        <time>2019-05-16T08:31:19.921Z</time>
      </trkpt>
      <trkpt lat="38.72653" lon="-9.11438">
        <ele>11.0</ele>
        <time>2019-05-16T08:31:20.930Z</time>
      </trkpt>
      <trkpt lat="38.72653" lon="-9.11438">
        <ele>11.0</ele>
        <time>2019-05-16T08:31:21.917Z</time>
      </trkpt>
      <trkpt lat="38.726515" lon="-9.11436667">
        <ele>11.0</ele>
        <time>2019-05-16T08:31:22.922Z</time>
      </trkpt>
      <trkpt lat="38.72650333" lon="-9.114355">
        <ele>11.0</ele>
        <time>2019-05-16T08:31:23.899Z</time>
      </trkpt>
      <trkpt lat="38.72650333" lon="-9.114355">
        <ele>11.0</ele>
        <time>2019-05-16T08:31:24.919Z</time>
      </trkpt>
      <trkpt lat="38.72648167" lon="-9.114335">
        <ele>11.0</ele>
        <time>2019-05-16T08:31:25.931Z</time>
      </trkpt>
      <trkpt lat="38.72648167" lon="-9.114335">
        <ele>11.0</ele>
        <time>2019-05-16T08:31:26.918Z</time>
      </trkpt>
      <trkpt lat="38.72645333" lon="-9.11431833">
        <ele>11.0</ele>
        <time>2019-05-16T08:31:27.924Z</time>
      </trkpt>
      <trkpt lat="38.72645333" lon="-9.11431833">
        <ele>11.0</ele>
        <time>2019-05-16T08:31:28.902Z</time>
      </trkpt>
      <trkpt lat="38.726425" lon="-9.11429">
        <ele>11.0</ele>
        <time>2019-05-16T08:31:29.926Z</time>
      </trkpt>
      <trkpt lat="38.72641333" lon="-9.11427167">
        <ele>11.0</ele>
        <time>2019-05-16T08:31:30.924Z</time>
      </trkpt>
      <trkpt lat="38.72641333" lon="-9.11427167">
        <ele>11.0</ele>
        <time>2019-05-16T08:31:31.917Z</time>
      </trkpt>
      <trkpt lat="38.72639667" lon="-9.11422833">
        <ele>10.0</ele>
        <time>2019-05-16T08:31:32.923Z</time>
      </trkpt>
      <trkpt lat="38.72639667" lon="-9.11422833">
        <ele>10.0</ele>
        <time>2019-05-16T08:31:33.917Z</time>
      </trkpt>
      <trkpt lat="38.72636667" lon="-9.11418667">
        <ele>10.0</ele>
        <time>2019-05-16T08:31:34.933Z</time>
      </trkpt>
      <trkpt lat="38.72636667" lon="-9.11418667">
        <ele>10.0</ele>
        <time>2019-05-16T08:31:35.917Z</time>
      </trkpt>
      <trkpt lat="38.72634667" lon="-9.11415">
        <ele>10.0</ele>
        <time>2019-05-16T08:31:36.925Z</time>
      </trkpt>
      <trkpt lat="38.72634667" lon="-9.11415">
        <ele>10.0</ele>
        <time>2019-05-16T08:31:37.921Z</time>
      </trkpt>
      <trkpt lat="38.72633167" lon="-9.114125">
        <ele>9.0</ele>
        <time>2019-05-16T08:31:38.903Z</time>
      </trkpt>
      <trkpt lat="38.72633167" lon="-9.114125">
        <ele>9.0</ele>
        <time>2019-05-16T08:31:39.925Z</time>
      </trkpt>
      <trkpt lat="38.72632167" lon="-9.1141">
        <ele>9.0</ele>
        <time>2019-05-16T08:31:40.922Z</time>
      </trkpt>
      <trkpt lat="38.72632167" lon="-9.1141">
        <ele>9.0</ele>
        <time>2019-05-16T08:31:41.917Z</time>
      </trkpt>
      <trkpt lat="38.72631167" lon="-9.11407833">
        <ele>9.0</ele>
        <time>2019-05-16T08:31:42.900Z</time>
      </trkpt>
      <trkpt lat="38.72631167" lon="-9.11407833">
        <ele>9.0</ele>
        <time>2019-05-16T08:31:43.921Z</time>
      </trkpt>
      <trkpt lat="38.72630167" lon="-9.114065">
        <ele>8.0</ele>
        <time>2019-05-16T08:31:44.923Z</time>
      </trkpt>
      <trkpt lat="38.72630167" lon="-9.114065">
        <ele>8.0</ele>
        <time>2019-05-16T08:31:45.918Z</time>
      </trkpt>
      <trkpt lat="38.72629" lon="-9.11405833">
        <ele>8.0</ele>
        <time>2019-05-16T08:31:46.918Z</time>
      </trkpt>
      <trkpt lat="38.72629" lon="-9.11405833">
        <ele>8.0</ele>
        <time>2019-05-16T08:31:47.936Z</time>
      </trkpt>
      <trkpt lat="38.72626333" lon="-9.11403">
        <ele>8.0</ele>
        <time>2019-05-16T08:31:48.925Z</time>
      </trkpt>
      <trkpt lat="38.72626333" lon="-9.11403">
        <ele>8.0</ele>
        <time>2019-05-16T08:31:49.920Z</time>
      </trkpt>
      <trkpt lat="38.72622167" lon="-9.11397667">
        <ele>8.0</ele>
        <time>2019-05-16T08:31:50.922Z</time>
      </trkpt>
      <trkpt lat="38.72622167" lon="-9.11397667">
        <ele>8.0</ele>
        <time>2019-05-16T08:31:51.917Z</time>
      </trkpt>
      <trkpt lat="38.72618833" lon="-9.11392833">
        <ele>7.0</ele>
        <time>2019-05-16T08:31:52.922Z</time>
      </trkpt>
      <trkpt lat="38.72618833" lon="-9.11392833">
        <ele>7.0</ele>
        <time>2019-05-16T08:31:53.918Z</time>
      </trkpt>
      <trkpt lat="38.72616333" lon="-9.11387833">
        <ele>7.0</ele>
        <time>2019-05-16T08:31:54.924Z</time>
      </trkpt>
      <trkpt lat="38.72616333" lon="-9.11387833">
        <ele>7.0</ele>
        <time>2019-05-16T08:31:55.917Z</time>
      </trkpt>
      <trkpt lat="38.72614" lon="-9.11383">
        <ele>7.0</ele>
        <time>2019-05-16T08:31:56.917Z</time>
      </trkpt>
      <trkpt lat="38.72614" lon="-9.11383">
        <ele>7.0</ele>
        <time>2019-05-16T08:31:57.910Z</time>
      </trkpt>
      <trkpt lat="38.72611" lon="-9.11378167">
        <ele>7.0</ele>
        <time>2019-05-16T08:31:58.933Z</time>
      </trkpt>
      <trkpt lat="38.72611" lon="-9.11378167">
        <ele>7.0</ele>
        <time>2019-05-16T08:31:59.921Z</time>
      </trkpt>
      <trkpt lat="38.72609333" lon="-9.11374333">
        <ele>7.0</ele>
        <time>2019-05-16T08:32:00.931Z</time>
      </trkpt>
      <trkpt lat="38.72609333" lon="-9.11374333">
        <ele>7.0</ele>
        <time>2019-05-16T08:32:01.917Z</time>
      </trkpt>
      <trkpt lat="38.726075" lon="-9.11372">
        <ele>6.0</ele>
        <time>2019-05-16T08:32:02.929Z</time>
      </trkpt>
      <trkpt lat="38.726075" lon="-9.11372">
        <ele>6.0</ele>
        <time>2019-05-16T08:32:03.918Z</time>
      </trkpt>
      <trkpt lat="38.72607667" lon="-9.11372167">
        <ele>6.0</ele>
        <time>2019-05-16T08:32:04.918Z</time>
      </trkpt>
      <trkpt lat="38.72607667" lon="-9.11372167">
        <ele>6.0</ele>
        <time>2019-05-16T08:32:05.935Z</time>
      </trkpt>
      <trkpt lat="38.72608333" lon="-9.11372333">
        <ele>6.0</ele>
        <time>2019-05-16T08:32:06.924Z</time>
      </trkpt>
      <trkpt lat="38.72608333" lon="-9.11372333">
        <ele>6.0</ele>
        <time>2019-05-16T08:32:07.919Z</time>
      </trkpt>
      <trkpt lat="38.72608333" lon="-9.11372333">
        <ele>6.0</ele>
        <time>2019-05-16T08:32:08.936Z</time>
      </trkpt>
      <trkpt lat="38.72608333" lon="-9.11372333">
        <ele>6.0</ele>
        <time>2019-05-16T08:32:09.919Z</time>
      </trkpt>
      <trkpt lat="38.72607333" lon="-9.1137">
        <ele>6.0</ele>
        <time>2019-05-16T08:32:10.923Z</time>
      </trkpt>
      <trkpt lat="38.72607333" lon="-9.1137">
        <ele>6.0</ele>
        <time>2019-05-16T08:32:11.918Z</time>
      </trkpt>
      <trkpt lat="38.72606833" lon="-9.113685">
        <ele>6.0</ele>
        <time>2019-05-16T08:32:12.900Z</time>
      </trkpt>
      <trkpt lat="38.72606833" lon="-9.113685">
        <ele>6.0</ele>
        <time>2019-05-16T08:32:13.923Z</time>
      </trkpt>
      <trkpt lat="38.72604333" lon="-9.11363833">
        <ele>6.0</ele>
        <time>2019-05-16T08:32:14.922Z</time>
      </trkpt>
      <trkpt lat="38.72604333" lon="-9.11363833">
        <ele>6.0</ele>
        <time>2019-05-16T08:32:15.918Z</time>
      </trkpt>
      <trkpt lat="38.72603667" lon="-9.11361167">
        <ele>6.0</ele>
        <time>2019-05-16T08:32:16.902Z</time>
      </trkpt>
      <trkpt lat="38.72603667" lon="-9.11361167">
        <ele>6.0</ele>
        <time>2019-05-16T08:32:17.925Z</time>
      </trkpt>
      <trkpt lat="38.72603667" lon="-9.11361333">
        <ele>6.0</ele>
        <time>2019-05-16T08:32:18.923Z</time>
      </trkpt>
      <trkpt lat="38.72603667" lon="-9.11361333">
        <ele>6.0</ele>
        <time>2019-05-16T08:32:19.918Z</time>
      </trkpt>
      <trkpt lat="38.72604167" lon="-9.11360833">
        <ele>6.0</ele>
        <time>2019-05-16T08:32:20.922Z</time>
      </trkpt>
      <trkpt lat="38.72604167" lon="-9.11360833">
        <ele>6.0</ele>
        <time>2019-05-16T08:32:21.918Z</time>
      </trkpt>
      <trkpt lat="38.72601167" lon="-9.11356333">
        <ele>7.0</ele>
        <time>2019-05-16T08:32:22.924Z</time>
      </trkpt>
      <trkpt lat="38.72601167" lon="-9.11356333">
        <ele>7.0</ele>
        <time>2019-05-16T08:32:23.921Z</time>
      </trkpt>
      <trkpt lat="38.72599667" lon="-9.113535">
        <ele>7.0</ele>
        <time>2019-05-16T08:32:24.925Z</time>
      </trkpt>
      <trkpt lat="38.72599667" lon="-9.113535">
        <ele>7.0</ele>
        <time>2019-05-16T08:32:25.917Z</time>
      </trkpt>
      <trkpt lat="38.72597667" lon="-9.113525">
        <ele>6.0</ele>
        <time>2019-05-16T08:32:26.916Z</time>
      </trkpt>
      <trkpt lat="38.72596667" lon="-9.11352667">
        <ele>6.0</ele>
        <time>2019-05-16T08:32:27.912Z</time>
      </trkpt>
      <trkpt lat="38.72596667" lon="-9.11352667">
        <ele>6.0</ele>
        <time>2019-05-16T08:32:28.933Z</time>
      </trkpt>
      <trkpt lat="38.72596167" lon="-9.11353167">
        <ele>6.0</ele>
        <time>2019-05-16T08:32:29.921Z</time>
      </trkpt>
      <trkpt lat="38.725955" lon="-9.11352333">
        <ele>6.0</ele>
        <time>2019-05-16T08:32:30.902Z</time>
      </trkpt>
      <trkpt lat="38.725955" lon="-9.11352333">
        <ele>6.0</ele>
        <time>2019-05-16T08:32:31.923Z</time>
      </trkpt>
      <trkpt lat="38.72591833" lon="-9.11348">
        <ele>7.0</ele>
        <time>2019-05-16T08:32:32.928Z</time>
      </trkpt>
      <trkpt lat="38.72591833" lon="-9.11348">
        <ele>7.0</ele>
        <time>2019-05-16T08:32:33.917Z</time>
      </trkpt>
      <trkpt lat="38.72586167" lon="-9.11341833">
        <ele>7.0</ele>
        <time>2019-05-16T08:32:34.911Z</time>
      </trkpt>
      <trkpt lat="38.72586167" lon="-9.11341833">
        <ele>7.0</ele>
        <time>2019-05-16T08:32:35.932Z</time>
      </trkpt>
      <trkpt lat="38.72583" lon="-9.11337">
        <ele>7.0</ele>
        <time>2019-05-16T08:32:36.924Z</time>
      </trkpt>
      <trkpt lat="38.72583" lon="-9.11337">
        <ele>7.0</ele>
        <time>2019-05-16T08:32:37.921Z</time>
      </trkpt>
      <trkpt lat="38.72579333" lon="-9.11331667">
        <ele>6.0</ele>
        <time>2019-05-16T08:32:38.900Z</time>
      </trkpt>
      <trkpt lat="38.72579333" lon="-9.11331667">
        <ele>6.0</ele>
        <time>2019-05-16T08:32:39.921Z</time>
      </trkpt>
      <trkpt lat="38.72576167" lon="-9.11327167">
        <ele>6.0</ele>
        <time>2019-05-16T08:32:40.929Z</time>
      </trkpt>
      <trkpt lat="38.72576167" lon="-9.11327167">
        <ele>6.0</ele>
        <time>2019-05-16T08:32:41.917Z</time>
      </trkpt>
      <trkpt lat="38.72576167" lon="-9.11327167">
        <ele>6.0</ele>
        <time>2019-05-16T08:32:42.901Z</time>
      </trkpt>
      <trkpt lat="38.72574833" lon="-9.11321833">
        <ele>6.0</ele>
        <time>2019-05-16T08:32:43.920Z</time>
      </trkpt>
      <trkpt lat="38.72572333" lon="-9.11316">
        <ele>5.0</ele>
        <time>2019-05-16T08:32:44.931Z</time>
      </trkpt>
      <trkpt lat="38.72572333" lon="-9.11316">
        <ele>5.0</ele>
        <time>2019-05-16T08:32:45.900Z</time>
      </trkpt>
      <trkpt lat="38.72569667" lon="-9.113115">
        <ele>5.0</ele>
        <time>2019-05-16T08:32:46.921Z</time>
      </trkpt>
      <trkpt lat="38.72569667" lon="-9.113115">
        <ele>5.0</ele>
        <time>2019-05-16T08:32:47.899Z</time>
      </trkpt>
      <trkpt lat="38.72568333" lon="-9.113075">
        <ele>6.0</ele>
        <time>2019-05-16T08:32:48.909Z</time>
      </trkpt>
      <trkpt lat="38.72568333" lon="-9.113075">
        <ele>6.0</ele>
        <time>2019-05-16T08:32:49.928Z</time>
      </trkpt>
      <trkpt lat="38.725685" lon="-9.11303333">
        <ele>6.0</ele>
        <time>2019-05-16T08:32:50.898Z</time>
      </trkpt>
      <trkpt lat="38.725685" lon="-9.11303333">
        <ele>6.0</ele>
        <time>2019-05-16T08:32:51.927Z</time>
      </trkpt>
      <trkpt lat="38.72567333" lon="-9.11299667">
        <ele>6.0</ele>
        <time>2019-05-16T08:32:52.936Z</time>
      </trkpt>
      <trkpt lat="38.72567333" lon="-9.11299667">
        <ele>6.0</ele>
        <time>2019-05-16T08:32:53.918Z</time>
      </trkpt>
      <trkpt lat="38.72566667" lon="-9.11296">
        <ele>7.0</ele>
        <time>2019-05-16T08:32:54.932Z</time>
      </trkpt>
      <trkpt lat="38.72566667" lon="-9.11296">
        <ele>7.0</ele>
        <time>2019-05-16T08:32:55.910Z</time>
      </trkpt>
      <trkpt lat="38.72566833" lon="-9.11294">
        <ele>7.0</ele>
        <time>2019-05-16T08:32:56.919Z</time>
      </trkpt>
      <trkpt lat="38.72566833" lon="-9.11294">
        <ele>7.0</ele>
        <time>2019-05-16T08:32:57.933Z</time>
      </trkpt>
      <trkpt lat="38.72566667" lon="-9.11293167">
        <ele>7.0</ele>
        <time>2019-05-16T08:32:58.900Z</time>
      </trkpt>
      <trkpt lat="38.72566667" lon="-9.11293167">
        <ele>7.0</ele>
        <time>2019-05-16T08:32:59.915Z</time>
      </trkpt>
      <trkpt lat="38.72566333" lon="-9.11291667">
        <ele>7.0</ele>
        <time>2019-05-16T08:33:00.921Z</time>
      </trkpt>
      <trkpt lat="38.72566333" lon="-9.11291667">
        <ele>7.0</ele>
        <time>2019-05-16T08:33:01.917Z</time>
      </trkpt>
      <trkpt lat="38.72566" lon="-9.112905">
        <ele>7.0</ele>
        <time>2019-05-16T08:33:02.922Z</time>
      </trkpt>
      <trkpt lat="38.72566" lon="-9.112905">
        <ele>7.0</ele>
        <time>2019-05-16T08:33:03.917Z</time>
      </trkpt>
      <trkpt lat="38.725655" lon="-9.112895">
        <ele>6.0</ele>
        <time>2019-05-16T08:33:04.924Z</time>
      </trkpt>
      <trkpt lat="38.725655" lon="-9.112895">
        <ele>6.0</ele>
        <time>2019-05-16T08:33:05.918Z</time>
      </trkpt>
      <trkpt lat="38.72565333" lon="-9.11288833">
        <ele>6.0</ele>
        <time>2019-05-16T08:33:06.921Z</time>
      </trkpt>
      <trkpt lat="38.72565333" lon="-9.11288833">
        <ele>6.0</ele>
        <time>2019-05-16T08:33:07.921Z</time>
      </trkpt>
      <trkpt lat="38.72565167" lon="-9.112885">
        <ele>6.0</ele>
        <time>2019-05-16T08:33:08.932Z</time>
      </trkpt>
      <trkpt lat="38.72565167" lon="-9.112885">
        <ele>6.0</ele>
        <time>2019-05-16T08:33:09.918Z</time>
      </trkpt>
      <trkpt lat="38.72565167" lon="-9.112885">
        <ele>6.0</ele>
        <time>2019-05-16T08:33:10.923Z</time>
      </trkpt>
      <trkpt lat="38.72565167" lon="-9.112885">
        <ele>6.0</ele>
        <time>2019-05-16T08:33:11.918Z</time>
      </trkpt>
      <trkpt lat="38.72565167" lon="-9.112885">
        <ele>6.0</ele>
        <time>2019-05-16T08:33:12.925Z</time>
      </trkpt>
      <trkpt lat="38.72565167" lon="-9.112885">
        <ele>6.0</ele>
        <time>2019-05-16T08:33:13.919Z</time>
      </trkpt>
      <trkpt lat="38.72565167" lon="-9.112885">
        <ele>6.0</ele>
        <time>2019-05-16T08:33:14.923Z</time>
      </trkpt>
      <trkpt lat="38.72565167" lon="-9.112885">
        <ele>6.0</ele>
        <time>2019-05-16T08:33:15.918Z</time>
      </trkpt>
      <trkpt lat="38.72565167" lon="-9.112885">
        <ele>6.0</ele>
        <time>2019-05-16T08:33:16.936Z</time>
      </trkpt>
      <trkpt lat="38.72565167" lon="-9.112885">
        <ele>6.0</ele>
        <time>2019-05-16T08:33:17.936Z</time>
      </trkpt>
      <trkpt lat="38.72565167" lon="-9.112885">
        <ele>6.0</ele>
        <time>2019-05-16T08:33:18.924Z</time>
      </trkpt>
      <trkpt lat="38.72565167" lon="-9.112885">
        <ele>6.0</ele>
        <time>2019-05-16T08:33:19.917Z</time>
      </trkpt>
      <trkpt lat="38.72565167" lon="-9.112885">
        <ele>6.0</ele>
        <time>2019-05-16T08:33:20.929Z</time>
      </trkpt>
      <trkpt lat="38.72565167" lon="-9.112885">
        <ele>6.0</ele>
        <time>2019-05-16T08:33:21.917Z</time>
      </trkpt>
      <trkpt lat="38.72564833" lon="-9.11287">
        <ele>4.0</ele>
        <time>2019-05-16T08:33:22.922Z</time>
      </trkpt>
      <trkpt lat="38.72564833" lon="-9.11287">
        <ele>4.0</ele>
        <time>2019-05-16T08:33:23.921Z</time>
      </trkpt>
      <trkpt lat="38.72564667" lon="-9.11287">
        <ele>4.0</ele>
        <time>2019-05-16T08:33:24.924Z</time>
      </trkpt>
      <trkpt lat="38.72564833" lon="-9.11286833">
        <ele>4.0</ele>
        <time>2019-05-16T08:33:25.907Z</time>
      </trkpt>
      <trkpt lat="38.72564833" lon="-9.11286833">
        <ele>4.0</ele>
        <time>2019-05-16T08:33:26.903Z</time>
      </trkpt>
      <trkpt lat="38.72565833" lon="-9.11286667">
        <ele>4.0</ele>
        <time>2019-05-16T08:33:27.920Z</time>
      </trkpt>
      <trkpt lat="38.72565833" lon="-9.11286667">
        <ele>4.0</ele>
        <time>2019-05-16T08:33:28.898Z</time>
      </trkpt>
      <trkpt lat="38.72568" lon="-9.11286333">
        <ele>4.0</ele>
        <time>2019-05-16T08:33:29.922Z</time>
      </trkpt>
      <trkpt lat="38.72569167" lon="-9.11286333">
        <ele>4.0</ele>
        <time>2019-05-16T08:33:30.925Z</time>
      </trkpt>
      <trkpt lat="38.72569167" lon="-9.11286333">
        <ele>4.0</ele>
        <time>2019-05-16T08:33:31.917Z</time>
      </trkpt>
      <trkpt lat="38.72571" lon="-9.11285833">
        <ele>3.0</ele>
        <time>2019-05-16T08:33:32.926Z</time>
      </trkpt>
      <trkpt lat="38.72571" lon="-9.11285833">
        <ele>3.0</ele>
        <time>2019-05-16T08:33:33.917Z</time>
      </trkpt>
      <trkpt lat="38.72571167" lon="-9.11284833">
        <ele>4.0</ele>
        <time>2019-05-16T08:33:34.929Z</time>
      </trkpt>
      <trkpt lat="38.72571167" lon="-9.11284833">
        <ele>4.0</ele>
        <time>2019-05-16T08:33:35.934Z</time>
      </trkpt>
      <trkpt lat="38.72571167" lon="-9.112855">
        <ele>4.0</ele>
        <time>2019-05-16T08:33:36.902Z</time>
      </trkpt>
      <trkpt lat="38.72571167" lon="-9.112855">
        <ele>4.0</ele>
        <time>2019-05-16T08:33:37.915Z</time>
      </trkpt>
      <trkpt lat="38.72571167" lon="-9.112855">
        <ele>4.0</ele>
        <time>2019-05-16T08:33:38.920Z</time>
      </trkpt>
      <trkpt lat="38.72571167" lon="-9.112855">
        <ele>4.0</ele>
        <time>2019-05-16T08:33:39.935Z</time>
      </trkpt>
      <trkpt lat="38.72571167" lon="-9.112855">
        <ele>4.0</ele>
        <time>2019-05-16T08:33:40.903Z</time>
      </trkpt>
      <trkpt lat="38.72571167" lon="-9.112855">
        <ele>4.0</ele>
        <time>2019-05-16T08:33:41.928Z</time>
      </trkpt>
      <trkpt lat="38.72571167" lon="-9.112855">
        <ele>4.0</ele>
        <time>2019-05-16T08:33:42.925Z</time>
      </trkpt>
      <trkpt lat="38.72571167" lon="-9.112855">
        <ele>4.0</ele>
        <time>2019-05-16T08:33:43.918Z</time>
      </trkpt>
      <trkpt lat="38.72573167" lon="-9.11283167">
        <ele>4.0</ele>
        <time>2019-05-16T08:33:44.903Z</time>
      </trkpt>
      <trkpt lat="38.72573167" lon="-9.11283167">
        <ele>4.0</ele>
        <time>2019-05-16T08:33:45.928Z</time>
      </trkpt>
      <trkpt lat="38.72575167" lon="-9.11278833">
        <ele>4.0</ele>
        <time>2019-05-16T08:33:46.924Z</time>
      </trkpt>
      <trkpt lat="38.72575167" lon="-9.11278833">
        <ele>4.0</ele>
        <time>2019-05-16T08:33:47.921Z</time>
      </trkpt>
      <trkpt lat="38.72576167" lon="-9.112755">
        <ele>5.0</ele>
        <time>2019-05-16T08:33:48.900Z</time>
      </trkpt>
      <trkpt lat="38.72576167" lon="-9.112755">
        <ele>5.0</ele>
        <time>2019-05-16T08:33:49.912Z</time>
      </trkpt>
      <trkpt lat="38.72576333" lon="-9.11275">
        <ele>6.0</ele>
        <time>2019-05-16T08:33:50.923Z</time>
      </trkpt>
      <trkpt lat="38.72576333" lon="-9.11275">
        <ele>6.0</ele>
        <time>2019-05-16T08:33:51.900Z</time>
      </trkpt>
      <trkpt lat="38.72576833" lon="-9.11273833">
        <ele>6.0</ele>
        <time>2019-05-16T08:33:52.915Z</time>
      </trkpt>
      <trkpt lat="38.72576833" lon="-9.11273833">
        <ele>6.0</ele>
        <time>2019-05-16T08:33:53.929Z</time>
      </trkpt>
      <trkpt lat="38.72578" lon="-9.11272167">
        <ele>6.0</ele>
        <time>2019-05-16T08:33:54.936Z</time>
      </trkpt>
      <trkpt lat="38.72578" lon="-9.11272167">
        <ele>6.0</ele>
        <time>2019-05-16T08:33:55.916Z</time>
      </trkpt>
      <trkpt lat="38.72578833" lon="-9.11268333">
        <ele>6.0</ele>
        <time>2019-05-16T08:33:56.949Z</time>
      </trkpt>
      <trkpt lat="38.72578833" lon="-9.11268333">
        <ele>6.0</ele>
        <time>2019-05-16T08:33:57.913Z</time>
      </trkpt>
      <trkpt lat="38.72579667" lon="-9.11263">
        <ele>7.0</ele>
        <time>2019-05-16T08:33:58.930Z</time>
      </trkpt>
      <trkpt lat="38.72579667" lon="-9.11263">
        <ele>7.0</ele>
        <time>2019-05-16T08:33:59.909Z</time>
      </trkpt>
      <trkpt lat="38.72582333" lon="-9.11257333">
        <ele>7.0</ele>
        <time>2019-05-16T08:34:00.918Z</time>
      </trkpt>
      <trkpt lat="38.72582333" lon="-9.11257333">
        <ele>7.0</ele>
        <time>2019-05-16T08:34:01.899Z</time>
      </trkpt>
      <trkpt lat="38.725855" lon="-9.11252333">
        <ele>7.0</ele>
        <time>2019-05-16T08:34:02.921Z</time>
      </trkpt>
      <trkpt lat="38.725855" lon="-9.11252333">
        <ele>7.0</ele>
        <time>2019-05-16T08:34:03.911Z</time>
      </trkpt>
      <trkpt lat="38.725885" lon="-9.11246667">
        <ele>7.0</ele>
        <time>2019-05-16T08:34:04.917Z</time>
      </trkpt>
      <trkpt lat="38.725885" lon="-9.11246667">
        <ele>7.0</ele>
        <time>2019-05-16T08:34:05.899Z</time>
      </trkpt>
      <trkpt lat="38.72590833" lon="-9.112435">
        <ele>7.0</ele>
        <time>2019-05-16T08:34:06.905Z</time>
      </trkpt>
      <trkpt lat="38.72590833" lon="-9.112435">
        <ele>7.0</ele>
        <time>2019-05-16T08:34:07.925Z</time>
      </trkpt>
      <trkpt lat="38.72592333" lon="-9.11241">
        <ele>7.0</ele>
        <time>2019-05-16T08:34:08.937Z</time>
      </trkpt>
      <trkpt lat="38.72592333" lon="-9.11241">
        <ele>7.0</ele>
        <time>2019-05-16T08:34:09.910Z</time>
      </trkpt>
      <trkpt lat="38.72593167" lon="-9.11238833">
        <ele>8.0</ele>
        <time>2019-05-16T08:34:10.937Z</time>
      </trkpt>
      <trkpt lat="38.72593167" lon="-9.11238833">
        <ele>8.0</ele>
        <time>2019-05-16T08:34:11.916Z</time>
      </trkpt>
      <trkpt lat="38.72593833" lon="-9.112385">
        <ele>8.0</ele>
        <time>2019-05-16T08:34:12.922Z</time>
      </trkpt>
      <trkpt lat="38.72593833" lon="-9.112385">
        <ele>8.0</ele>
        <time>2019-05-16T08:34:13.898Z</time>
      </trkpt>
      <trkpt lat="38.725945" lon="-9.112385">
        <ele>8.0</ele>
        <time>2019-05-16T08:34:14.917Z</time>
      </trkpt>
      <trkpt lat="38.725945" lon="-9.112385">
        <ele>8.0</ele>
        <time>2019-05-16T08:34:15.909Z</time>
      </trkpt>
      <trkpt lat="38.725945" lon="-9.112385">
        <ele>8.0</ele>
        <time>2019-05-16T08:34:16.934Z</time>
      </trkpt>
      <trkpt lat="38.725945" lon="-9.112385">
        <ele>8.0</ele>
        <time>2019-05-16T08:34:17.920Z</time>
      </trkpt>
      <trkpt lat="38.725945" lon="-9.112385">
        <ele>8.0</ele>
        <time>2019-05-16T08:34:18.898Z</time>
      </trkpt>
      <trkpt lat="38.725945" lon="-9.112385">
        <ele>8.0</ele>
        <time>2019-05-16T08:34:19.922Z</time>
      </trkpt>
      <trkpt lat="38.725945" lon="-9.112385">
        <ele>8.0</ele>
        <time>2019-05-16T08:34:20.924Z</time>
      </trkpt>
      <trkpt lat="38.725945" lon="-9.112385">
        <ele>8.0</ele>
        <time>2019-05-16T08:34:21.923Z</time>
      </trkpt>
      <trkpt lat="38.725945" lon="-9.112385">
        <ele>8.0</ele>
        <time>2019-05-16T08:34:22.921Z</time>
      </trkpt>
      <trkpt lat="38.725945" lon="-9.112385">
        <ele>8.0</ele>
        <time>2019-05-16T08:34:23.922Z</time>
      </trkpt>
      <trkpt lat="38.725985" lon="-9.11236">
        <ele>9.0</ele>
        <time>2019-05-16T08:34:24.904Z</time>
      </trkpt>
      <trkpt lat="38.725985" lon="-9.11236">
        <ele>9.0</ele>
        <time>2019-05-16T08:34:25.929Z</time>
      </trkpt>
      <trkpt lat="38.72600833" lon="-9.11233167">
        <ele>9.0</ele>
        <time>2019-05-16T08:34:26.923Z</time>
      </trkpt>
      <trkpt lat="38.72600833" lon="-9.11233167">
        <ele>9.0</ele>
        <time>2019-05-16T08:34:27.921Z</time>
      </trkpt>
      <trkpt lat="38.726035" lon="-9.11228667">
        <ele>9.0</ele>
        <time>2019-05-16T08:34:28.899Z</time>
      </trkpt>
      <trkpt lat="38.726045" lon="-9.11225833">
        <ele>9.0</ele>
        <time>2019-05-16T08:34:29.911Z</time>
      </trkpt>
      <trkpt lat="38.72606333" lon="-9.112235">
        <ele>10.0</ele>
        <time>2019-05-16T08:34:30.913Z</time>
      </trkpt>
      <trkpt lat="38.72606333" lon="-9.112235">
        <ele>10.0</ele>
        <time>2019-05-16T08:34:31.923Z</time>
      </trkpt>
      <trkpt lat="38.72610833" lon="-9.11219167">
        <ele>10.0</ele>
        <time>2019-05-16T08:34:32.930Z</time>
      </trkpt>
      <trkpt lat="38.72610833" lon="-9.11219167">
        <ele>10.0</ele>
        <time>2019-05-16T08:34:33.903Z</time>
      </trkpt>
      <trkpt lat="38.72614167" lon="-9.11214167">
        <ele>10.0</ele>
        <time>2019-05-16T08:34:34.910Z</time>
      </trkpt>
      <trkpt lat="38.72614167" lon="-9.11214167">
        <ele>10.0</ele>
        <time>2019-05-16T08:34:35.924Z</time>
      </trkpt>
      <trkpt lat="38.726175" lon="-9.11208333">
        <ele>10.0</ele>
        <time>2019-05-16T08:34:36.932Z</time>
      </trkpt>
      <trkpt lat="38.726175" lon="-9.11208333">
        <ele>10.0</ele>
        <time>2019-05-16T08:34:37.903Z</time>
      </trkpt>
      <trkpt lat="38.72622833" lon="-9.11203">
        <ele>10.0</ele>
        <time>2019-05-16T08:34:38.911Z</time>
      </trkpt>
      <trkpt lat="38.72622833" lon="-9.11203">
        <ele>10.0</ele>
        <time>2019-05-16T08:34:39.928Z</time>
      </trkpt>
      <trkpt lat="38.72627167" lon="-9.11197">
        <ele>10.0</ele>
        <time>2019-05-16T08:34:40.936Z</time>
      </trkpt>
      <trkpt lat="38.72627167" lon="-9.11197">
        <ele>10.0</ele>
        <time>2019-05-16T08:34:41.932Z</time>
      </trkpt>
      <trkpt lat="38.72631667" lon="-9.111905">
        <ele>9.0</ele>
        <time>2019-05-16T08:34:42.898Z</time>
      </trkpt>
      <trkpt lat="38.72631667" lon="-9.111905">
        <ele>9.0</ele>
        <time>2019-05-16T08:34:43.915Z</time>
      </trkpt>
      <trkpt lat="38.72635667" lon="-9.11184">
        <ele>9.0</ele>
        <time>2019-05-16T08:34:44.925Z</time>
      </trkpt>
      <trkpt lat="38.72635667" lon="-9.11184">
        <ele>9.0</ele>
        <time>2019-05-16T08:34:45.923Z</time>
      </trkpt>
      <trkpt lat="38.726415" lon="-9.11179">
        <ele>9.0</ele>
        <time>2019-05-16T08:34:46.933Z</time>
      </trkpt>
      <trkpt lat="38.726415" lon="-9.11179">
        <ele>9.0</ele>
        <time>2019-05-16T08:34:47.912Z</time>
      </trkpt>
      <trkpt lat="38.72644167" lon="-9.11171833">
        <ele>10.0</ele>
        <time>2019-05-16T08:34:48.920Z</time>
      </trkpt>
      <trkpt lat="38.72644167" lon="-9.11171833">
        <ele>10.0</ele>
        <time>2019-05-16T08:34:49.932Z</time>
      </trkpt>
      <trkpt lat="38.72647333" lon="-9.11165167">
        <ele>10.0</ele>
        <time>2019-05-16T08:34:50.900Z</time>
      </trkpt>
      <trkpt lat="38.72647333" lon="-9.11165167">
        <ele>10.0</ele>
        <time>2019-05-16T08:34:51.913Z</time>
      </trkpt>
      <trkpt lat="38.72652167" lon="-9.11159833">
        <ele>10.0</ele>
        <time>2019-05-16T08:34:52.913Z</time>
      </trkpt>
      <trkpt lat="38.72652167" lon="-9.11159833">
        <ele>10.0</ele>
        <time>2019-05-16T08:34:53.900Z</time>
      </trkpt>
      <trkpt lat="38.726565" lon="-9.11154">
        <ele>10.0</ele>
        <time>2019-05-16T08:34:54.910Z</time>
      </trkpt>
      <trkpt lat="38.726565" lon="-9.11154">
        <ele>10.0</ele>
        <time>2019-05-16T08:34:55.918Z</time>
      </trkpt>
      <trkpt lat="38.726605" lon="-9.111475">
        <ele>10.0</ele>
        <time>2019-05-16T08:34:56.925Z</time>
      </trkpt>
      <trkpt lat="38.726605" lon="-9.111475">
        <ele>10.0</ele>
        <time>2019-05-16T08:34:57.936Z</time>
      </trkpt>
      <trkpt lat="38.72664667" lon="-9.111405">
        <ele>10.0</ele>
        <time>2019-05-16T08:34:58.904Z</time>
      </trkpt>
      <trkpt lat="38.72664667" lon="-9.111405">
        <ele>10.0</ele>
        <time>2019-05-16T08:34:59.933Z</time>
      </trkpt>
      <trkpt lat="38.72669833" lon="-9.11134333">
        <ele>11.0</ele>
        <time>2019-05-16T08:35:00.900Z</time>
      </trkpt>
      <trkpt lat="38.72669833" lon="-9.11134333">
        <ele>11.0</ele>
        <time>2019-05-16T08:35:01.913Z</time>
      </trkpt>
      <trkpt lat="38.72674833" lon="-9.11128">
        <ele>11.0</ele>
        <time>2019-05-16T08:35:02.938Z</time>
      </trkpt>
      <trkpt lat="38.72674833" lon="-9.11128">
        <ele>11.0</ele>
        <time>2019-05-16T08:35:03.918Z</time>
      </trkpt>
      <trkpt lat="38.7268" lon="-9.111215">
        <ele>11.0</ele>
        <time>2019-05-16T08:35:04.925Z</time>
      </trkpt>
      <trkpt lat="38.72682333" lon="-9.11118333">
        <ele>11.0</ele>
        <time>2019-05-16T08:35:05.932Z</time>
      </trkpt>
      <trkpt lat="38.72682333" lon="-9.11118333">
        <ele>11.0</ele>
        <time>2019-05-16T08:35:06.933Z</time>
      </trkpt>
      <trkpt lat="38.726875" lon="-9.11111833">
        <ele>11.0</ele>
        <time>2019-05-16T08:35:07.902Z</time>
      </trkpt>
      <trkpt lat="38.72690167" lon="-9.11108833">
        <ele>11.0</ele>
        <time>2019-05-16T08:35:08.922Z</time>
      </trkpt>
      <trkpt lat="38.72690167" lon="-9.11108833">
        <ele>11.0</ele>
        <time>2019-05-16T08:35:09.900Z</time>
      </trkpt>
      <trkpt lat="38.72695167" lon="-9.111025">
        <ele>10.0</ele>
        <time>2019-05-16T08:35:10.916Z</time>
      </trkpt>
      <trkpt lat="38.72695167" lon="-9.111025">
        <ele>10.0</ele>
        <time>2019-05-16T08:35:11.927Z</time>
      </trkpt>
      <trkpt lat="38.727005" lon="-9.11096667">
        <ele>10.0</ele>
        <time>2019-05-16T08:35:12.934Z</time>
      </trkpt>
      <trkpt lat="38.727005" lon="-9.11096667">
        <ele>10.0</ele>
        <time>2019-05-16T08:35:13.904Z</time>
      </trkpt>
      <trkpt lat="38.727065" lon="-9.110915">
        <ele>10.0</ele>
        <time>2019-05-16T08:35:14.915Z</time>
      </trkpt>
      <trkpt lat="38.72709333" lon="-9.11088667">
        <ele>10.0</ele>
        <time>2019-05-16T08:35:15.939Z</time>
      </trkpt>
      <trkpt lat="38.72709333" lon="-9.11088667">
        <ele>10.0</ele>
        <time>2019-05-16T08:35:16.936Z</time>
      </trkpt>
      <trkpt lat="38.72714833" lon="-9.11082667">
        <ele>10.0</ele>
        <time>2019-05-16T08:35:17.905Z</time>
      </trkpt>
      <trkpt lat="38.72717167" lon="-9.11079167">
        <ele>10.0</ele>
        <time>2019-05-16T08:35:18.934Z</time>
      </trkpt>
      <trkpt lat="38.72717167" lon="-9.11079167">
        <ele>10.0</ele>
        <time>2019-05-16T08:35:19.920Z</time>
      </trkpt>
      <trkpt lat="38.72722667" lon="-9.11073">
        <ele>10.0</ele>
        <time>2019-05-16T08:35:20.899Z</time>
      </trkpt>
      <trkpt lat="38.72722667" lon="-9.11073">
        <ele>10.0</ele>
        <time>2019-05-16T08:35:21.898Z</time>
      </trkpt>
      <trkpt lat="38.72727333" lon="-9.11066">
        <ele>10.0</ele>
        <time>2019-05-16T08:35:22.921Z</time>
      </trkpt>
      <trkpt lat="38.727295" lon="-9.110625">
        <ele>10.0</ele>
        <time>2019-05-16T08:35:23.917Z</time>
      </trkpt>
      <trkpt lat="38.727295" lon="-9.110625">
        <ele>10.0</ele>
        <time>2019-05-16T08:35:24.929Z</time>
      </trkpt>
      <trkpt lat="38.72734" lon="-9.110555">
        <ele>9.0</ele>
        <time>2019-05-16T08:35:25.900Z</time>
      </trkpt>
      <trkpt lat="38.72734" lon="-9.110555">
        <ele>9.0</ele>
        <time>2019-05-16T08:35:26.930Z</time>
      </trkpt>
      <trkpt lat="38.72738833" lon="-9.110505">
        <ele>9.0</ele>
        <time>2019-05-16T08:35:27.900Z</time>
      </trkpt>
      <trkpt lat="38.72738833" lon="-9.110505">
        <ele>9.0</ele>
        <time>2019-05-16T08:35:28.911Z</time>
      </trkpt>
      <trkpt lat="38.72743167" lon="-9.11045333">
        <ele>9.0</ele>
        <time>2019-05-16T08:35:29.919Z</time>
      </trkpt>
      <trkpt lat="38.72745" lon="-9.11042667">
        <ele>9.0</ele>
        <time>2019-05-16T08:35:30.901Z</time>
      </trkpt>
      <trkpt lat="38.72745" lon="-9.11042667">
        <ele>9.0</ele>
        <time>2019-05-16T08:35:31.912Z</time>
      </trkpt>
      <trkpt lat="38.72749667" lon="-9.11039167">
        <ele>9.0</ele>
        <time>2019-05-16T08:35:32.925Z</time>
      </trkpt>
      <trkpt lat="38.72749667" lon="-9.11039167">
        <ele>9.0</ele>
        <time>2019-05-16T08:35:33.936Z</time>
      </trkpt>
      <trkpt lat="38.727545" lon="-9.11035667">
        <ele>8.0</ele>
        <time>2019-05-16T08:35:34.900Z</time>
      </trkpt>
      <trkpt lat="38.727545" lon="-9.11035667">
        <ele>8.0</ele>
        <time>2019-05-16T08:35:35.913Z</time>
      </trkpt>
      <trkpt lat="38.72760167" lon="-9.110315">
        <ele>8.0</ele>
        <time>2019-05-16T08:35:36.927Z</time>
      </trkpt>
      <trkpt lat="38.72760167" lon="-9.110315">
        <ele>8.0</ele>
        <time>2019-05-16T08:35:37.910Z</time>
      </trkpt>
      <trkpt lat="38.72765333" lon="-9.11026333">
        <ele>7.0</ele>
        <time>2019-05-16T08:35:38.915Z</time>
      </trkpt>
      <trkpt lat="38.72765333" lon="-9.11026333">
        <ele>7.0</ele>
        <time>2019-05-16T08:35:39.899Z</time>
      </trkpt>
      <trkpt lat="38.72770833" lon="-9.110215">
        <ele>7.0</ele>
        <time>2019-05-16T08:35:40.935Z</time>
      </trkpt>
      <trkpt lat="38.72770833" lon="-9.110215">
        <ele>7.0</ele>
        <time>2019-05-16T08:35:41.927Z</time>
      </trkpt>
      <trkpt lat="38.72776333" lon="-9.110175">
        <ele>6.0</ele>
        <time>2019-05-16T08:35:42.935Z</time>
      </trkpt>
      <trkpt lat="38.72776333" lon="-9.110175">
        <ele>6.0</ele>
        <time>2019-05-16T08:35:43.901Z</time>
      </trkpt>
      <trkpt lat="38.72781667" lon="-9.110135">
        <ele>6.0</ele>
        <time>2019-05-16T08:35:44.908Z</time>
      </trkpt>
      <trkpt lat="38.72781667" lon="-9.110135">
        <ele>6.0</ele>
        <time>2019-05-16T08:35:45.913Z</time>
      </trkpt>
      <trkpt lat="38.72787333" lon="-9.11009333">
        <ele>5.0</ele>
        <time>2019-05-16T08:35:46.925Z</time>
      </trkpt>
      <trkpt lat="38.72787333" lon="-9.11009333">
        <ele>5.0</ele>
        <time>2019-05-16T08:35:47.923Z</time>
      </trkpt>
      <trkpt lat="38.72793167" lon="-9.11005333">
        <ele>4.0</ele>
        <time>2019-05-16T08:35:48.931Z</time>
      </trkpt>
      <trkpt lat="38.72793167" lon="-9.11005333">
        <ele>4.0</ele>
        <time>2019-05-16T08:35:49.922Z</time>
      </trkpt>
      <trkpt lat="38.72799333" lon="-9.11002167">
        <ele>4.0</ele>
        <time>2019-05-16T08:35:50.935Z</time>
      </trkpt>
      <trkpt lat="38.72799333" lon="-9.11002167">
        <ele>4.0</ele>
        <time>2019-05-16T08:35:51.910Z</time>
      </trkpt>
      <trkpt lat="38.72805833" lon="-9.10998667">
        <ele>4.0</ele>
        <time>2019-05-16T08:35:52.918Z</time>
      </trkpt>
      <trkpt lat="38.72805833" lon="-9.10998667">
        <ele>4.0</ele>
        <time>2019-05-16T08:35:53.898Z</time>
      </trkpt>
      <trkpt lat="38.72811667" lon="-9.10993167">
        <ele>4.0</ele>
        <time>2019-05-16T08:35:54.910Z</time>
      </trkpt>
      <trkpt lat="38.72811667" lon="-9.10993167">
        <ele>4.0</ele>
        <time>2019-05-16T08:35:55.936Z</time>
      </trkpt>
      <trkpt lat="38.72815333" lon="-9.109845">
        <ele>4.0</ele>
        <time>2019-05-16T08:35:56.950Z</time>
      </trkpt>
      <trkpt lat="38.72815333" lon="-9.109845">
        <ele>4.0</ele>
        <time>2019-05-16T08:35:57.915Z</time>
      </trkpt>
      <trkpt lat="38.72820167" lon="-9.10978333">
        <ele>4.0</ele>
        <time>2019-05-16T08:35:58.922Z</time>
      </trkpt>
      <trkpt lat="38.72820167" lon="-9.10978333">
        <ele>4.0</ele>
        <time>2019-05-16T08:35:59.931Z</time>
      </trkpt>
      <trkpt lat="38.72824333" lon="-9.109735">
        <ele>4.0</ele>
        <time>2019-05-16T08:36:00.901Z</time>
      </trkpt>
      <trkpt lat="38.72824333" lon="-9.109735">
        <ele>4.0</ele>
        <time>2019-05-16T08:36:01.936Z</time>
      </trkpt>
      <trkpt lat="38.728315" lon="-9.10971833">
        <ele>4.0</ele>
        <time>2019-05-16T08:36:02.904Z</time>
      </trkpt>
      <trkpt lat="38.72836333" lon="-9.10971667">
        <ele>5.0</ele>
        <time>2019-05-16T08:36:03.928Z</time>
      </trkpt>
      <trkpt lat="38.72836333" lon="-9.10971667">
        <ele>5.0</ele>
        <time>2019-05-16T08:36:04.897Z</time>
      </trkpt>
      <trkpt lat="38.72840167" lon="-9.10964167">
        <ele>6.0</ele>
        <time>2019-05-16T08:36:05.914Z</time>
      </trkpt>
      <trkpt lat="38.72841" lon="-9.10959167">
        <ele>6.0</ele>
        <time>2019-05-16T08:36:06.897Z</time>
      </trkpt>
      <trkpt lat="38.72841" lon="-9.10959167">
        <ele>6.0</ele>
        <time>2019-05-16T08:36:07.920Z</time>
      </trkpt>
      <trkpt lat="38.72845667" lon="-9.10950333">
        <ele>7.0</ele>
        <time>2019-05-16T08:36:08.928Z</time>
      </trkpt>
      <trkpt lat="38.72847333" lon="-9.10945333">
        <ele>8.0</ele>
        <time>2019-05-16T08:36:09.923Z</time>
      </trkpt>
      <trkpt lat="38.72847333" lon="-9.10945333">
        <ele>8.0</ele>
        <time>2019-05-16T08:36:10.905Z</time>
      </trkpt>
      <trkpt lat="38.72851833" lon="-9.10939667">
        <ele>8.0</ele>
        <time>2019-05-16T08:36:11.913Z</time>
      </trkpt>
      <trkpt lat="38.72854167" lon="-9.10936667">
        <ele>8.0</ele>
        <time>2019-05-16T08:36:12.930Z</time>
      </trkpt>
      <trkpt lat="38.72854167" lon="-9.10936667">
        <ele>8.0</ele>
        <time>2019-05-16T08:36:13.910Z</time>
      </trkpt>
      <trkpt lat="38.72859167" lon="-9.10931667">
        <ele>8.0</ele>
        <time>2019-05-16T08:36:14.923Z</time>
      </trkpt>
      <trkpt lat="38.72859167" lon="-9.10931667">
        <ele>8.0</ele>
        <time>2019-05-16T08:36:15.931Z</time>
      </trkpt>
      <trkpt lat="38.72865" lon="-9.10926667">
        <ele>7.0</ele>
        <time>2019-05-16T08:36:16.898Z</time>
      </trkpt>
      <trkpt lat="38.72867667" lon="-9.10923167">
        <ele>7.0</ele>
        <time>2019-05-16T08:36:17.923Z</time>
      </trkpt>
      <trkpt lat="38.7287" lon="-9.109195">
        <ele>8.0</ele>
        <time>2019-05-16T08:36:18.910Z</time>
      </trkpt>
      <trkpt lat="38.72872" lon="-9.10916">
        <ele>7.0</ele>
        <time>2019-05-16T08:36:19.926Z</time>
      </trkpt>
      <trkpt lat="38.72872" lon="-9.10916">
        <ele>7.0</ele>
        <time>2019-05-16T08:36:20.927Z</time>
      </trkpt>
      <trkpt lat="38.72874" lon="-9.10907333">
        <ele>7.0</ele>
        <time>2019-05-16T08:36:21.914Z</time>
      </trkpt>
      <trkpt lat="38.72874" lon="-9.10907333">
        <ele>7.0</ele>
        <time>2019-05-16T08:36:22.935Z</time>
      </trkpt>
      <trkpt lat="38.72877833" lon="-9.10902">
        <ele>7.0</ele>
        <time>2019-05-16T08:36:23.903Z</time>
      </trkpt>
      <trkpt lat="38.72879833" lon="-9.108995">
        <ele>7.0</ele>
        <time>2019-05-16T08:36:24.916Z</time>
      </trkpt>
      <trkpt lat="38.72879833" lon="-9.108995">
        <ele>7.0</ele>
        <time>2019-05-16T08:36:25.934Z</time>
      </trkpt>
      <trkpt lat="38.72883667" lon="-9.10895">
        <ele>7.0</ele>
        <time>2019-05-16T08:36:26.903Z</time>
      </trkpt>
      <trkpt lat="38.72883667" lon="-9.10895">
        <ele>7.0</ele>
        <time>2019-05-16T08:36:27.922Z</time>
      </trkpt>
      <trkpt lat="38.728865" lon="-9.108905">
        <ele>6.0</ele>
        <time>2019-05-16T08:36:28.931Z</time>
      </trkpt>
      <trkpt lat="38.728865" lon="-9.108905">
        <ele>6.0</ele>
        <time>2019-05-16T08:36:29.909Z</time>
      </trkpt>
      <trkpt lat="38.72890333" lon="-9.10885">
        <ele>7.0</ele>
        <time>2019-05-16T08:36:30.917Z</time>
      </trkpt>
      <trkpt lat="38.72890333" lon="-9.10885">
        <ele>7.0</ele>
        <time>2019-05-16T08:36:31.929Z</time>
      </trkpt>
      <trkpt lat="38.72896" lon="-9.10880833">
        <ele>8.0</ele>
        <time>2019-05-16T08:36:32.945Z</time>
      </trkpt>
      <trkpt lat="38.72898833" lon="-9.10879333">
        <ele>8.0</ele>
        <time>2019-05-16T08:36:33.925Z</time>
      </trkpt>
      <trkpt lat="38.72898833" lon="-9.10879333">
        <ele>8.0</ele>
        <time>2019-05-16T08:36:34.899Z</time>
      </trkpt>
      <trkpt lat="38.72905333" lon="-9.10878">
        <ele>10.0</ele>
        <time>2019-05-16T08:36:35.908Z</time>
      </trkpt>
      <trkpt lat="38.72907667" lon="-9.10876833">
        <ele>10.0</ele>
        <time>2019-05-16T08:36:36.929Z</time>
      </trkpt>
      <trkpt lat="38.72907667" lon="-9.10876833">
        <ele>10.0</ele>
        <time>2019-05-16T08:36:37.908Z</time>
      </trkpt>
      <trkpt lat="38.72911167" lon="-9.10874">
        <ele>11.0</ele>
        <time>2019-05-16T08:36:38.916Z</time>
      </trkpt>
      <trkpt lat="38.72911167" lon="-9.10874">
        <ele>11.0</ele>
        <time>2019-05-16T08:36:39.927Z</time>
      </trkpt>
      <trkpt lat="38.72913833" lon="-9.10870333">
        <ele>12.0</ele>
        <time>2019-05-16T08:36:40.936Z</time>
      </trkpt>
      <trkpt lat="38.72913833" lon="-9.10870333">
        <ele>12.0</ele>
        <time>2019-05-16T08:36:41.917Z</time>
      </trkpt>
      <trkpt lat="38.729155" lon="-9.108665">
        <ele>12.0</ele>
        <time>2019-05-16T08:36:42.904Z</time>
      </trkpt>
      <trkpt lat="38.729155" lon="-9.108665">
        <ele>12.0</ele>
        <time>2019-05-16T08:36:43.925Z</time>
      </trkpt>
      <trkpt lat="38.72917167" lon="-9.10864833">
        <ele>13.0</ele>
        <time>2019-05-16T08:36:44.898Z</time>
      </trkpt>
      <trkpt lat="38.72917167" lon="-9.10864833">
        <ele>13.0</ele>
        <time>2019-05-16T08:36:45.929Z</time>
      </trkpt>
      <trkpt lat="38.72916" lon="-9.10862">
        <ele>14.0</ele>
        <time>2019-05-16T08:36:46.920Z</time>
      </trkpt>
      <trkpt lat="38.72916" lon="-9.10862">
        <ele>14.0</ele>
        <time>2019-05-16T08:36:47.935Z</time>
      </trkpt>
      <trkpt lat="38.72916" lon="-9.10862">
        <ele>14.0</ele>
        <time>2019-05-16T08:36:48.901Z</time>
      </trkpt>
      <trkpt lat="38.72916" lon="-9.10862">
        <ele>14.0</ele>
        <time>2019-05-16T08:36:49.917Z</time>
      </trkpt>
      <trkpt lat="38.72916" lon="-9.10862">
        <ele>14.0</ele>
        <time>2019-05-16T08:36:50.923Z</time>
      </trkpt>
      <trkpt lat="38.72916" lon="-9.10862">
        <ele>14.0</ele>
        <time>2019-05-16T08:36:51.929Z</time>
      </trkpt>
      <trkpt lat="38.72916" lon="-9.10862">
        <ele>14.0</ele>
        <time>2019-05-16T08:36:52.935Z</time>
      </trkpt>
      <trkpt lat="38.72916" lon="-9.10862">
        <ele>14.0</ele>
        <time>2019-05-16T08:36:53.924Z</time>
      </trkpt>
      <trkpt lat="38.72916" lon="-9.10862">
        <ele>14.0</ele>
        <time>2019-05-16T08:36:54.925Z</time>
      </trkpt>
      <trkpt lat="38.72916" lon="-9.10862">
        <ele>14.0</ele>
        <time>2019-05-16T08:36:55.924Z</time>
      </trkpt>
      <trkpt lat="38.72916" lon="-9.10862">
        <ele>14.0</ele>
        <time>2019-05-16T08:36:56.918Z</time>
      </trkpt>
      <trkpt lat="38.72918" lon="-9.10858167">
        <ele>14.0</ele>
        <time>2019-05-16T08:36:57.924Z</time>
      </trkpt>
      <trkpt lat="38.72918" lon="-9.10858167">
        <ele>14.0</ele>
        <time>2019-05-16T08:36:58.915Z</time>
      </trkpt>
      <trkpt lat="38.72920167" lon="-9.10856167">
        <ele>14.0</ele>
        <time>2019-05-16T08:36:59.899Z</time>
      </trkpt>
      <trkpt lat="38.72921" lon="-9.10855667">
        <ele>14.0</ele>
        <time>2019-05-16T08:37:00.928Z</time>
      </trkpt>
      <trkpt lat="38.72921" lon="-9.10855667">
        <ele>14.0</ele>
        <time>2019-05-16T08:37:01.918Z</time>
      </trkpt>
      <trkpt lat="38.72921667" lon="-9.10855">
        <ele>14.0</ele>
        <time>2019-05-16T08:37:02.917Z</time>
      </trkpt>
      <trkpt lat="38.72921667" lon="-9.10855">
        <ele>14.0</ele>
        <time>2019-05-16T08:37:03.924Z</time>
      </trkpt>
      <trkpt lat="38.72923" lon="-9.10853667">
        <ele>15.0</ele>
        <time>2019-05-16T08:37:04.933Z</time>
      </trkpt>
      <trkpt lat="38.72924" lon="-9.108525">
        <ele>15.0</ele>
        <time>2019-05-16T08:37:05.926Z</time>
      </trkpt>
      <trkpt lat="38.72924833" lon="-9.10851333">
        <ele>15.0</ele>
        <time>2019-05-16T08:37:06.916Z</time>
      </trkpt>
      <trkpt lat="38.72924833" lon="-9.10851333">
        <ele>15.0</ele>
        <time>2019-05-16T08:37:07.935Z</time>
      </trkpt>
      <trkpt lat="38.72927333" lon="-9.10848667">
        <ele>15.0</ele>
        <time>2019-05-16T08:37:08.901Z</time>
      </trkpt>
      <trkpt lat="38.72928167" lon="-9.10846167">
        <ele>15.0</ele>
        <time>2019-05-16T08:37:09.917Z</time>
      </trkpt>
      <trkpt lat="38.72928167" lon="-9.10846167">
        <ele>15.0</ele>
        <time>2019-05-16T08:37:10.930Z</time>
      </trkpt>
      <trkpt lat="38.72930833" lon="-9.108415">
        <ele>15.0</ele>
        <time>2019-05-16T08:37:11.900Z</time>
      </trkpt>
      <trkpt lat="38.72932667" lon="-9.10839167">
        <ele>15.0</ele>
        <time>2019-05-16T08:37:12.919Z</time>
      </trkpt>
      <trkpt lat="38.72932667" lon="-9.10839167">
        <ele>15.0</ele>
        <time>2019-05-16T08:37:13.927Z</time>
      </trkpt>
      <trkpt lat="38.72937" lon="-9.10834167">
        <ele>15.0</ele>
        <time>2019-05-16T08:37:14.898Z</time>
      </trkpt>
      <trkpt lat="38.72939833" lon="-9.10831833">
        <ele>15.0</ele>
        <time>2019-05-16T08:37:15.937Z</time>
      </trkpt>
      <trkpt lat="38.72939833" lon="-9.10831833">
        <ele>15.0</ele>
        <time>2019-05-16T08:37:16.915Z</time>
      </trkpt>
      <trkpt lat="38.72945333" lon="-9.108285">
        <ele>16.0</ele>
        <time>2019-05-16T08:37:17.925Z</time>
      </trkpt>
      <trkpt lat="38.72947833" lon="-9.10827333">
        <ele>16.0</ele>
        <time>2019-05-16T08:37:18.916Z</time>
      </trkpt>
      <trkpt lat="38.72947833" lon="-9.10827333">
        <ele>16.0</ele>
        <time>2019-05-16T08:37:19.931Z</time>
      </trkpt>
      <trkpt lat="38.72951667" lon="-9.10824833">
        <ele>17.0</ele>
        <time>2019-05-16T08:37:20.920Z</time>
      </trkpt>
      <trkpt lat="38.72952833" lon="-9.10823833">
        <ele>17.0</ele>
        <time>2019-05-16T08:37:21.911Z</time>
      </trkpt>
      <trkpt lat="38.72952833" lon="-9.10823833">
        <ele>17.0</ele>
        <time>2019-05-16T08:37:22.922Z</time>
      </trkpt>
      <trkpt lat="38.72957" lon="-9.108205">
        <ele>18.0</ele>
        <time>2019-05-16T08:37:23.930Z</time>
      </trkpt>
      <trkpt lat="38.729605" lon="-9.108195">
        <ele>19.0</ele>
        <time>2019-05-16T08:37:24.904Z</time>
      </trkpt>
      <trkpt lat="38.729605" lon="-9.108195">
        <ele>19.0</ele>
        <time>2019-05-16T08:37:25.921Z</time>
      </trkpt>
      <trkpt lat="38.72966833" lon="-9.10816167">
        <ele>20.0</ele>
        <time>2019-05-16T08:37:26.933Z</time>
      </trkpt>
      <trkpt lat="38.72966833" lon="-9.10816167">
        <ele>20.0</ele>
        <time>2019-05-16T08:37:27.910Z</time>
      </trkpt>
      <trkpt lat="38.72974833" lon="-9.10812667">
        <ele>20.0</ele>
        <time>2019-05-16T08:37:28.903Z</time>
      </trkpt>
      <trkpt lat="38.72974833" lon="-9.10812667">
        <ele>20.0</ele>
        <time>2019-05-16T08:37:29.910Z</time>
      </trkpt>
      <trkpt lat="38.72984333" lon="-9.108085">
        <ele>20.0</ele>
        <time>2019-05-16T08:37:30.925Z</time>
      </trkpt>
      <trkpt lat="38.72984333" lon="-9.108085">
        <ele>20.0</ele>
        <time>2019-05-16T08:37:31.935Z</time>
      </trkpt>
      <trkpt lat="38.72993667" lon="-9.10804333">
        <ele>20.0</ele>
        <time>2019-05-16T08:37:32.902Z</time>
      </trkpt>
      <trkpt lat="38.72993667" lon="-9.10804333">
        <ele>20.0</ele>
        <time>2019-05-16T08:37:33.912Z</time>
      </trkpt>
      <trkpt lat="38.73004333" lon="-9.10802167">
        <ele>20.0</ele>
        <time>2019-05-16T08:37:34.917Z</time>
      </trkpt>
      <trkpt lat="38.73008333" lon="-9.10799667">
        <ele>20.0</ele>
        <time>2019-05-16T08:37:35.897Z</time>
      </trkpt>
      <trkpt lat="38.73012833" lon="-9.10797333">
        <ele>20.0</ele>
        <time>2019-05-16T08:37:36.916Z</time>
      </trkpt>
      <trkpt lat="38.73012833" lon="-9.10797333">
        <ele>20.0</ele>
        <time>2019-05-16T08:37:37.902Z</time>
      </trkpt>
      <trkpt lat="38.73021833" lon="-9.10793">
        <ele>19.0</ele>
        <time>2019-05-16T08:37:38.916Z</time>
      </trkpt>
      <trkpt lat="38.73021833" lon="-9.10793">
        <ele>19.0</ele>
        <time>2019-05-16T08:37:39.897Z</time>
      </trkpt>
      <trkpt lat="38.73029667" lon="-9.10789667">
        <ele>18.0</ele>
        <time>2019-05-16T08:37:40.904Z</time>
      </trkpt>
      <trkpt lat="38.73029667" lon="-9.10789667">
        <ele>18.0</ele>
        <time>2019-05-16T08:37:41.915Z</time>
      </trkpt>
      <trkpt lat="38.73037333" lon="-9.10784833">
        <ele>17.0</ele>
        <time>2019-05-16T08:37:42.906Z</time>
      </trkpt>
      <trkpt lat="38.73037333" lon="-9.10784833">
        <ele>17.0</ele>
        <time>2019-05-16T08:37:43.903Z</time>
      </trkpt>
      <trkpt lat="38.73045167" lon="-9.107795">
        <ele>16.0</ele>
        <time>2019-05-16T08:37:44.912Z</time>
      </trkpt>
      <trkpt lat="38.73045167" lon="-9.107795">
        <ele>16.0</ele>
        <time>2019-05-16T08:37:45.932Z</time>
      </trkpt>
      <trkpt lat="38.73053167" lon="-9.107735">
        <ele>16.0</ele>
        <time>2019-05-16T08:37:46.905Z</time>
      </trkpt>
      <trkpt lat="38.73053167" lon="-9.107735">
        <ele>16.0</ele>
        <time>2019-05-16T08:37:47.933Z</time>
      </trkpt>
      <trkpt lat="38.730615" lon="-9.107665">
        <ele>15.0</ele>
        <time>2019-05-16T08:37:48.900Z</time>
      </trkpt>
      <trkpt lat="38.730615" lon="-9.107665">
        <ele>15.0</ele>
        <time>2019-05-16T08:37:49.923Z</time>
      </trkpt>
      <trkpt lat="38.73070667" lon="-9.10759167">
        <ele>14.0</ele>
        <time>2019-05-16T08:37:50.933Z</time>
      </trkpt>
      <trkpt lat="38.73070667" lon="-9.10759167">
        <ele>14.0</ele>
        <time>2019-05-16T08:37:51.901Z</time>
      </trkpt>
      <trkpt lat="38.73079667" lon="-9.10751">
        <ele>13.0</ele>
        <time>2019-05-16T08:37:52.940Z</time>
      </trkpt>
      <trkpt lat="38.73079667" lon="-9.10751">
        <ele>13.0</ele>
        <time>2019-05-16T08:37:53.934Z</time>
      </trkpt>
      <trkpt lat="38.73088667" lon="-9.10742167">
        <ele>12.0</ele>
        <time>2019-05-16T08:37:54.902Z</time>
      </trkpt>
      <trkpt lat="38.73092833" lon="-9.10737333">
        <ele>12.0</ele>
        <time>2019-05-16T08:37:55.903Z</time>
      </trkpt>
      <trkpt lat="38.73092833" lon="-9.10737333">
        <ele>12.0</ele>
        <time>2019-05-16T08:37:56.898Z</time>
      </trkpt>
      <trkpt lat="38.73102167" lon="-9.107285">
        <ele>12.0</ele>
        <time>2019-05-16T08:37:57.905Z</time>
      </trkpt>
      <trkpt lat="38.73102167" lon="-9.107285">
        <ele>12.0</ele>
        <time>2019-05-16T08:37:58.933Z</time>
      </trkpt>
      <trkpt lat="38.73111667" lon="-9.1072">
        <ele>12.0</ele>
        <time>2019-05-16T08:37:59.899Z</time>
      </trkpt>
      <trkpt lat="38.731165" lon="-9.10716">
        <ele>12.0</ele>
        <time>2019-05-16T08:38:00.913Z</time>
      </trkpt>
      <trkpt lat="38.731165" lon="-9.10716">
        <ele>12.0</ele>
        <time>2019-05-16T08:38:01.921Z</time>
      </trkpt>
      <trkpt lat="38.731235" lon="-9.10707">
        <ele>12.0</ele>
        <time>2019-05-16T08:38:02.934Z</time>
      </trkpt>
      <trkpt lat="38.731235" lon="-9.10707">
        <ele>12.0</ele>
        <time>2019-05-16T08:38:03.919Z</time>
      </trkpt>
      <trkpt lat="38.731315" lon="-9.107005">
        <ele>12.0</ele>
        <time>2019-05-16T08:38:04.926Z</time>
      </trkpt>
      <trkpt lat="38.73135833" lon="-9.10697333">
        <ele>12.0</ele>
        <time>2019-05-16T08:38:05.904Z</time>
      </trkpt>
      <trkpt lat="38.73140167" lon="-9.106945">
        <ele>12.0</ele>
        <time>2019-05-16T08:38:06.922Z</time>
      </trkpt>
      <trkpt lat="38.73140167" lon="-9.106945">
        <ele>12.0</ele>
        <time>2019-05-16T08:38:07.935Z</time>
      </trkpt>
      <trkpt lat="38.73149" lon="-9.10687833">
        <ele>12.0</ele>
        <time>2019-05-16T08:38:08.901Z</time>
      </trkpt>
      <trkpt lat="38.73149" lon="-9.10687833">
        <ele>12.0</ele>
        <time>2019-05-16T08:38:09.922Z</time>
      </trkpt>
      <trkpt lat="38.73157167" lon="-9.106815">
        <ele>11.0</ele>
        <time>2019-05-16T08:38:10.934Z</time>
      </trkpt>
      <trkpt lat="38.731615" lon="-9.10678">
        <ele>11.0</ele>
        <time>2019-05-16T08:38:11.915Z</time>
      </trkpt>
      <trkpt lat="38.73166" lon="-9.10674333">
        <ele>10.0</ele>
        <time>2019-05-16T08:38:12.938Z</time>
      </trkpt>
      <trkpt lat="38.73166" lon="-9.10674333">
        <ele>10.0</ele>
        <time>2019-05-16T08:38:13.916Z</time>
      </trkpt>
      <trkpt lat="38.73174167" lon="-9.10667167">
        <ele>10.0</ele>
        <time>2019-05-16T08:38:14.924Z</time>
      </trkpt>
      <trkpt lat="38.73174167" lon="-9.10667167">
        <ele>10.0</ele>
        <time>2019-05-16T08:38:15.911Z</time>
      </trkpt>
      <trkpt lat="38.73182" lon="-9.10660667">
        <ele>9.0</ele>
        <time>2019-05-16T08:38:16.907Z</time>
      </trkpt>
      <trkpt lat="38.73182" lon="-9.10660667">
        <ele>9.0</ele>
        <time>2019-05-16T08:38:17.923Z</time>
      </trkpt>
      <trkpt lat="38.731885" lon="-9.10654333">
        <ele>9.0</ele>
        <time>2019-05-16T08:38:18.930Z</time>
      </trkpt>
      <trkpt lat="38.731885" lon="-9.10654333">
        <ele>9.0</ele>
        <time>2019-05-16T08:38:19.925Z</time>
      </trkpt>
      <trkpt lat="38.73194167" lon="-9.10649333">
        <ele>8.0</ele>
        <time>2019-05-16T08:38:20.901Z</time>
      </trkpt>
      <trkpt lat="38.73194167" lon="-9.10649333">
        <ele>8.0</ele>
        <time>2019-05-16T08:38:21.899Z</time>
      </trkpt>
      <trkpt lat="38.73199333" lon="-9.10643667">
        <ele>8.0</ele>
        <time>2019-05-16T08:38:22.914Z</time>
      </trkpt>
      <trkpt lat="38.73202167" lon="-9.10641333">
        <ele>8.0</ele>
        <time>2019-05-16T08:38:23.927Z</time>
      </trkpt>
      <trkpt lat="38.732045" lon="-9.10638833">
        <ele>8.0</ele>
        <time>2019-05-16T08:38:24.916Z</time>
      </trkpt>
      <trkpt lat="38.732045" lon="-9.10638833">
        <ele>8.0</ele>
        <time>2019-05-16T08:38:25.931Z</time>
      </trkpt>
      <trkpt lat="38.732095" lon="-9.10633667">
        <ele>8.0</ele>
        <time>2019-05-16T08:38:26.907Z</time>
      </trkpt>
      <trkpt lat="38.732095" lon="-9.10633667">
        <ele>8.0</ele>
        <time>2019-05-16T08:38:27.921Z</time>
      </trkpt>
      <trkpt lat="38.732165" lon="-9.10630333">
        <ele>9.0</ele>
        <time>2019-05-16T08:38:28.906Z</time>
      </trkpt>
      <trkpt lat="38.732165" lon="-9.10630333">
        <ele>9.0</ele>
        <time>2019-05-16T08:38:29.901Z</time>
      </trkpt>
      <trkpt lat="38.73223333" lon="-9.10627333">
        <ele>9.0</ele>
        <time>2019-05-16T08:38:30.911Z</time>
      </trkpt>
      <trkpt lat="38.73223333" lon="-9.10627333">
        <ele>9.0</ele>
        <time>2019-05-16T08:38:31.903Z</time>
      </trkpt>
      <trkpt lat="38.73229167" lon="-9.10620167">
        <ele>9.0</ele>
        <time>2019-05-16T08:38:32.918Z</time>
      </trkpt>
      <trkpt lat="38.73229167" lon="-9.10620167">
        <ele>9.0</ele>
        <time>2019-05-16T08:38:33.932Z</time>
      </trkpt>
      <trkpt lat="38.73235" lon="-9.10612333">
        <ele>9.0</ele>
        <time>2019-05-16T08:38:34.900Z</time>
      </trkpt>
      <trkpt lat="38.73237167" lon="-9.10607333">
        <ele>9.0</ele>
        <time>2019-05-16T08:38:35.932Z</time>
      </trkpt>
      <trkpt lat="38.732395" lon="-9.106025">
        <ele>9.0</ele>
        <time>2019-05-16T08:38:36.912Z</time>
      </trkpt>
      <trkpt lat="38.732395" lon="-9.106025">
        <ele>9.0</ele>
        <time>2019-05-16T08:38:37.928Z</time>
      </trkpt>
      <trkpt lat="38.73244833" lon="-9.10595">
        <ele>8.0</ele>
        <time>2019-05-16T08:38:38.936Z</time>
      </trkpt>
      <trkpt lat="38.73244833" lon="-9.10595">
        <ele>8.0</ele>
        <time>2019-05-16T08:38:39.912Z</time>
      </trkpt>
      <trkpt lat="38.73250667" lon="-9.10589">
        <ele>8.0</ele>
        <time>2019-05-16T08:38:40.930Z</time>
      </trkpt>
      <trkpt lat="38.73250667" lon="-9.10589">
        <ele>8.0</ele>
        <time>2019-05-16T08:38:41.902Z</time>
      </trkpt>
      <trkpt lat="38.73255" lon="-9.105825">
        <ele>8.0</ele>
        <time>2019-05-16T08:38:42.898Z</time>
      </trkpt>
      <trkpt lat="38.73255" lon="-9.105825">
        <ele>8.0</ele>
        <time>2019-05-16T08:38:43.898Z</time>
      </trkpt>
      <trkpt lat="38.732585" lon="-9.10575667">
        <ele>8.0</ele>
        <time>2019-05-16T08:38:44.906Z</time>
      </trkpt>
      <trkpt lat="38.732585" lon="-9.10575667">
        <ele>8.0</ele>
        <time>2019-05-16T08:38:45.928Z</time>
      </trkpt>
      <trkpt lat="38.73262" lon="-9.10571">
        <ele>8.0</ele>
        <time>2019-05-16T08:38:46.919Z</time>
      </trkpt>
      <trkpt lat="38.73262" lon="-9.10571">
        <ele>8.0</ele>
        <time>2019-05-16T08:38:47.926Z</time>
      </trkpt>
      <trkpt lat="38.73266667" lon="-9.10567333">
        <ele>8.0</ele>
        <time>2019-05-16T08:38:48.937Z</time>
      </trkpt>
      <trkpt lat="38.73266667" lon="-9.10567333">
        <ele>8.0</ele>
        <time>2019-05-16T08:38:49.920Z</time>
      </trkpt>
      <trkpt lat="38.73271333" lon="-9.10563167">
        <ele>8.0</ele>
        <time>2019-05-16T08:38:50.930Z</time>
      </trkpt>
      <trkpt lat="38.73271333" lon="-9.10563167">
        <ele>8.0</ele>
        <time>2019-05-16T08:38:51.904Z</time>
      </trkpt>
      <trkpt lat="38.73274833" lon="-9.10558333">
        <ele>6.0</ele>
        <time>2019-05-16T08:38:52.936Z</time>
      </trkpt>
      <trkpt lat="38.73274833" lon="-9.10558333">
        <ele>6.0</ele>
        <time>2019-05-16T08:38:53.916Z</time>
      </trkpt>
      <trkpt lat="38.73279167" lon="-9.10556333">
        <ele>6.0</ele>
        <time>2019-05-16T08:38:54.931Z</time>
      </trkpt>
      <trkpt lat="38.73279167" lon="-9.10556333">
        <ele>6.0</ele>
        <time>2019-05-16T08:38:55.910Z</time>
      </trkpt>
      <trkpt lat="38.73280333" lon="-9.10556167">
        <ele>6.0</ele>
        <time>2019-05-16T08:38:56.917Z</time>
      </trkpt>
      <trkpt lat="38.73280333" lon="-9.10556167">
        <ele>6.0</ele>
        <time>2019-05-16T08:38:57.928Z</time>
      </trkpt>
      <trkpt lat="38.732825" lon="-9.10555333">
        <ele>5.0</ele>
        <time>2019-05-16T08:38:58.898Z</time>
      </trkpt>
      <trkpt lat="38.732825" lon="-9.10555333">
        <ele>5.0</ele>
        <time>2019-05-16T08:38:59.921Z</time>
      </trkpt>
      <trkpt lat="38.73287333" lon="-9.10552667">
        <ele>6.0</ele>
        <time>2019-05-16T08:39:00.929Z</time>
      </trkpt>
      <trkpt lat="38.73287333" lon="-9.10552667">
        <ele>6.0</ele>
        <time>2019-05-16T08:39:01.899Z</time>
      </trkpt>
      <trkpt lat="38.73301" lon="-9.10553">
        <ele>7.0</ele>
        <time>2019-05-16T08:39:02.910Z</time>
      </trkpt>
      <trkpt lat="38.73306833" lon="-9.10553167">
        <ele>8.0</ele>
        <time>2019-05-16T08:39:03.930Z</time>
      </trkpt>
      <trkpt lat="38.73306833" lon="-9.10553167">
        <ele>8.0</ele>
        <time>2019-05-16T08:39:04.915Z</time>
      </trkpt>
      <trkpt lat="38.73313667" lon="-9.10552833">
        <ele>8.0</ele>
        <time>2019-05-16T08:39:05.928Z</time>
      </trkpt>
      <trkpt lat="38.733175" lon="-9.10551167">
        <ele>7.0</ele>
        <time>2019-05-16T08:39:06.900Z</time>
      </trkpt>
      <trkpt lat="38.733175" lon="-9.10551167">
        <ele>7.0</ele>
        <time>2019-05-16T08:39:07.917Z</time>
      </trkpt>
      <trkpt lat="38.73323667" lon="-9.10549333">
        <ele>7.0</ele>
        <time>2019-05-16T08:39:08.927Z</time>
      </trkpt>
      <trkpt lat="38.73323667" lon="-9.10549333">
        <ele>7.0</ele>
        <time>2019-05-16T08:39:09.920Z</time>
      </trkpt>
      <trkpt lat="38.73329833" lon="-9.10548167">
        <ele>7.0</ele>
        <time>2019-05-16T08:39:10.897Z</time>
      </trkpt>
      <trkpt lat="38.73329833" lon="-9.10548167">
        <ele>7.0</ele>
        <time>2019-05-16T08:39:11.911Z</time>
      </trkpt>
      <trkpt lat="38.73333833" lon="-9.10544333">
        <ele>7.0</ele>
        <time>2019-05-16T08:39:12.917Z</time>
      </trkpt>
      <trkpt lat="38.73333833" lon="-9.10544333">
        <ele>7.0</ele>
        <time>2019-05-16T08:39:13.899Z</time>
      </trkpt>
      <trkpt lat="38.73336667" lon="-9.10541167">
        <ele>8.0</ele>
        <time>2019-05-16T08:39:14.912Z</time>
      </trkpt>
      <trkpt lat="38.73336667" lon="-9.10541167">
        <ele>8.0</ele>
        <time>2019-05-16T08:39:15.927Z</time>
      </trkpt>
      <trkpt lat="38.73342667" lon="-9.1054">
        <ele>9.0</ele>
        <time>2019-05-16T08:39:16.933Z</time>
      </trkpt>
      <trkpt lat="38.73342667" lon="-9.1054">
        <ele>9.0</ele>
        <time>2019-05-16T08:39:17.932Z</time>
      </trkpt>
      <trkpt lat="38.73348333" lon="-9.105415">
        <ele>10.0</ele>
        <time>2019-05-16T08:39:18.930Z</time>
      </trkpt>
      <trkpt lat="38.73348333" lon="-9.105415">
        <ele>10.0</ele>
        <time>2019-05-16T08:39:19.911Z</time>
      </trkpt>
      <trkpt lat="38.73355833" lon="-9.10542667">
        <ele>12.0</ele>
        <time>2019-05-16T08:39:20.936Z</time>
      </trkpt>
      <trkpt lat="38.73355833" lon="-9.10542667">
        <ele>12.0</ele>
        <time>2019-05-16T08:39:21.899Z</time>
      </trkpt>
      <trkpt lat="38.73364667" lon="-9.105425">
        <ele>13.0</ele>
        <time>2019-05-16T08:39:22.916Z</time>
      </trkpt>
      <trkpt lat="38.73364667" lon="-9.105425">
        <ele>13.0</ele>
        <time>2019-05-16T08:39:23.937Z</time>
      </trkpt>
      <trkpt lat="38.73373833" lon="-9.105425">
        <ele>16.0</ele>
        <time>2019-05-16T08:39:24.903Z</time>
      </trkpt>
      <trkpt lat="38.73373833" lon="-9.105425">
        <ele>16.0</ele>
        <time>2019-05-16T08:39:25.930Z</time>
      </trkpt>
      <trkpt lat="38.73381333" lon="-9.10541667">
        <ele>17.0</ele>
        <time>2019-05-16T08:39:26.940Z</time>
      </trkpt>
      <trkpt lat="38.73381333" lon="-9.10541667">
        <ele>17.0</ele>
        <time>2019-05-16T08:39:27.923Z</time>
      </trkpt>
      <trkpt lat="38.733875" lon="-9.10540333">
        <ele>17.0</ele>
        <time>2019-05-16T08:39:28.930Z</time>
      </trkpt>
      <trkpt lat="38.733875" lon="-9.10540333">
        <ele>17.0</ele>
        <time>2019-05-16T08:39:29.910Z</time>
      </trkpt>
      <trkpt lat="38.73395833" lon="-9.10538333">
        <ele>18.0</ele>
        <time>2019-05-16T08:39:30.918Z</time>
      </trkpt>
      <trkpt lat="38.73395833" lon="-9.10538333">
        <ele>18.0</ele>
        <time>2019-05-16T08:39:31.900Z</time>
      </trkpt>
      <trkpt lat="38.734045" lon="-9.10535333">
        <ele>19.0</ele>
        <time>2019-05-16T08:39:32.934Z</time>
      </trkpt>
      <trkpt lat="38.734045" lon="-9.10535333">
        <ele>19.0</ele>
        <time>2019-05-16T08:39:33.919Z</time>
      </trkpt>
      <trkpt lat="38.73414" lon="-9.10532333">
        <ele>20.0</ele>
        <time>2019-05-16T08:39:34.931Z</time>
      </trkpt>
      <trkpt lat="38.73414" lon="-9.10532333">
        <ele>20.0</ele>
        <time>2019-05-16T08:39:35.909Z</time>
      </trkpt>
      <trkpt lat="38.73422833" lon="-9.10527667">
        <ele>20.0</ele>
        <time>2019-05-16T08:39:36.917Z</time>
      </trkpt>
      <trkpt lat="38.73422833" lon="-9.10527667">
        <ele>20.0</ele>
        <time>2019-05-16T08:39:37.933Z</time>
      </trkpt>
      <trkpt lat="38.73433333" lon="-9.105215">
        <ele>19.0</ele>
        <time>2019-05-16T08:39:38.899Z</time>
      </trkpt>
      <trkpt lat="38.73433333" lon="-9.105215">
        <ele>19.0</ele>
        <time>2019-05-16T08:39:39.910Z</time>
      </trkpt>
      <trkpt lat="38.73441667" lon="-9.10514">
        <ele>18.0</ele>
        <time>2019-05-16T08:39:40.904Z</time>
      </trkpt>
      <trkpt lat="38.73441667" lon="-9.10514">
        <ele>18.0</ele>
        <time>2019-05-16T08:39:41.930Z</time>
      </trkpt>
      <trkpt lat="38.73449" lon="-9.10507333">
        <ele>18.0</ele>
        <time>2019-05-16T08:39:42.901Z</time>
      </trkpt>
      <trkpt lat="38.73449" lon="-9.10507333">
        <ele>18.0</ele>
        <time>2019-05-16T08:39:43.910Z</time>
      </trkpt>
      <trkpt lat="38.73457167" lon="-9.10502333">
        <ele>18.0</ele>
        <time>2019-05-16T08:39:44.921Z</time>
      </trkpt>
      <trkpt lat="38.73460167" lon="-9.10499167">
        <ele>18.0</ele>
        <time>2019-05-16T08:39:45.924Z</time>
      </trkpt>
      <trkpt lat="38.73460167" lon="-9.10499167">
        <ele>18.0</ele>
        <time>2019-05-16T08:39:46.910Z</time>
      </trkpt>
      <trkpt lat="38.73465667" lon="-9.10492">
        <ele>18.0</ele>
        <time>2019-05-16T08:39:47.923Z</time>
      </trkpt>
      <trkpt lat="38.73467833" lon="-9.10488167">
        <ele>18.0</ele>
        <time>2019-05-16T08:39:48.904Z</time>
      </trkpt>
      <trkpt lat="38.73467833" lon="-9.10488167">
        <ele>18.0</ele>
        <time>2019-05-16T08:39:49.930Z</time>
      </trkpt>
      <trkpt lat="38.734735" lon="-9.10482">
        <ele>17.0</ele>
        <time>2019-05-16T08:39:50.898Z</time>
      </trkpt>
      <trkpt lat="38.734735" lon="-9.10482">
        <ele>17.0</ele>
        <time>2019-05-16T08:39:51.920Z</time>
      </trkpt>
      <trkpt lat="38.734795" lon="-9.10476">
        <ele>18.0</ele>
        <time>2019-05-16T08:39:52.929Z</time>
      </trkpt>
      <trkpt lat="38.734795" lon="-9.10476">
        <ele>18.0</ele>
        <time>2019-05-16T08:39:53.901Z</time>
      </trkpt>
      <trkpt lat="38.73489" lon="-9.10473333">
        <ele>19.0</ele>
        <time>2019-05-16T08:39:54.917Z</time>
      </trkpt>
      <trkpt lat="38.73489" lon="-9.10473333">
        <ele>19.0</ele>
        <time>2019-05-16T08:39:55.899Z</time>
      </trkpt>
      <trkpt lat="38.73496167" lon="-9.10469">
        <ele>21.0</ele>
        <time>2019-05-16T08:39:56.942Z</time>
      </trkpt>
      <trkpt lat="38.73496167" lon="-9.10469">
        <ele>21.0</ele>
        <time>2019-05-16T08:39:57.909Z</time>
      </trkpt>
      <trkpt lat="38.73501167" lon="-9.10464667">
        <ele>21.0</ele>
        <time>2019-05-16T08:39:58.918Z</time>
      </trkpt>
      <trkpt lat="38.73501167" lon="-9.10464667">
        <ele>21.0</ele>
        <time>2019-05-16T08:39:59.902Z</time>
      </trkpt>
      <trkpt lat="38.73506833" lon="-9.10460667">
        <ele>21.0</ele>
        <time>2019-05-16T08:40:00.917Z</time>
      </trkpt>
      <trkpt lat="38.73506833" lon="-9.10460667">
        <ele>21.0</ele>
        <time>2019-05-16T08:40:01.932Z</time>
      </trkpt>
      <trkpt lat="38.73513333" lon="-9.10456833">
        <ele>20.0</ele>
        <time>2019-05-16T08:40:02.901Z</time>
      </trkpt>
      <trkpt lat="38.73513333" lon="-9.10456833">
        <ele>20.0</ele>
        <time>2019-05-16T08:40:03.914Z</time>
      </trkpt>
      <trkpt lat="38.73519333" lon="-9.10451833">
        <ele>20.0</ele>
        <time>2019-05-16T08:40:04.924Z</time>
      </trkpt>
      <trkpt lat="38.73523" lon="-9.10449333">
        <ele>20.0</ele>
        <time>2019-05-16T08:40:05.914Z</time>
      </trkpt>
      <trkpt lat="38.73526167" lon="-9.10446333">
        <ele>20.0</ele>
        <time>2019-05-16T08:40:06.927Z</time>
      </trkpt>
      <trkpt lat="38.73526167" lon="-9.10446333">
        <ele>20.0</ele>
        <time>2019-05-16T08:40:07.897Z</time>
      </trkpt>
      <trkpt lat="38.73534167" lon="-9.10439833">
        <ele>19.0</ele>
        <time>2019-05-16T08:40:08.910Z</time>
      </trkpt>
      <trkpt lat="38.73534167" lon="-9.10439833">
        <ele>19.0</ele>
        <time>2019-05-16T08:40:09.923Z</time>
      </trkpt>
      <trkpt lat="38.73542833" lon="-9.10435167">
        <ele>18.0</ele>
        <time>2019-05-16T08:40:10.930Z</time>
      </trkpt>
      <trkpt lat="38.73547167" lon="-9.10432833">
        <ele>18.0</ele>
        <time>2019-05-16T08:40:11.910Z</time>
      </trkpt>
      <trkpt lat="38.73551333" lon="-9.10431167">
        <ele>18.0</ele>
        <time>2019-05-16T08:40:12.918Z</time>
      </trkpt>
      <trkpt lat="38.73551333" lon="-9.10431167">
        <ele>18.0</ele>
        <time>2019-05-16T08:40:13.935Z</time>
      </trkpt>
      <trkpt lat="38.7356" lon="-9.104275">
        <ele>17.0</ele>
        <time>2019-05-16T08:40:14.914Z</time>
      </trkpt>
      <trkpt lat="38.7356" lon="-9.104275">
        <ele>17.0</ele>
        <time>2019-05-16T08:40:15.936Z</time>
      </trkpt>
      <trkpt lat="38.73567667" lon="-9.10423833">
        <ele>17.0</ele>
        <time>2019-05-16T08:40:16.929Z</time>
      </trkpt>
      <trkpt lat="38.73567667" lon="-9.10423833">
        <ele>17.0</ele>
        <time>2019-05-16T08:40:17.898Z</time>
      </trkpt>
      <trkpt lat="38.73574167" lon="-9.10420167">
        <ele>16.0</ele>
        <time>2019-05-16T08:40:18.905Z</time>
      </trkpt>
      <trkpt lat="38.73574167" lon="-9.10420167">
        <ele>16.0</ele>
        <time>2019-05-16T08:40:19.921Z</time>
      </trkpt>
      <trkpt lat="38.73580667" lon="-9.10416333">
        <ele>16.0</ele>
        <time>2019-05-16T08:40:20.903Z</time>
      </trkpt>
      <trkpt lat="38.73580667" lon="-9.10416333">
        <ele>16.0</ele>
        <time>2019-05-16T08:40:21.935Z</time>
      </trkpt>
      <trkpt lat="38.73586667" lon="-9.10411667">
        <ele>15.0</ele>
        <time>2019-05-16T08:40:22.907Z</time>
      </trkpt>
      <trkpt lat="38.73589833" lon="-9.10410333">
        <ele>15.0</ele>
        <time>2019-05-16T08:40:23.902Z</time>
      </trkpt>
      <trkpt lat="38.73593167" lon="-9.10409167">
        <ele>15.0</ele>
        <time>2019-05-16T08:40:24.918Z</time>
      </trkpt>
      <trkpt lat="38.73593167" lon="-9.10409167">
        <ele>15.0</ele>
        <time>2019-05-16T08:40:25.927Z</time>
      </trkpt>
      <trkpt lat="38.73599667" lon="-9.10406667">
        <ele>15.0</ele>
        <time>2019-05-16T08:40:26.936Z</time>
      </trkpt>
      <trkpt lat="38.73599667" lon="-9.10406667">
        <ele>15.0</ele>
        <time>2019-05-16T08:40:27.920Z</time>
      </trkpt>
      <trkpt lat="38.73605833" lon="-9.10403833">
        <ele>15.0</ele>
        <time>2019-05-16T08:40:28.926Z</time>
      </trkpt>
      <trkpt lat="38.73605833" lon="-9.10403833">
        <ele>15.0</ele>
        <time>2019-05-16T08:40:29.910Z</time>
      </trkpt>
      <trkpt lat="38.73611833" lon="-9.10401167">
        <ele>14.0</ele>
        <time>2019-05-16T08:40:30.918Z</time>
      </trkpt>
      <trkpt lat="38.73611833" lon="-9.10401167">
        <ele>14.0</ele>
        <time>2019-05-16T08:40:31.933Z</time>
      </trkpt>
      <trkpt lat="38.73618" lon="-9.10398667">
        <ele>14.0</ele>
        <time>2019-05-16T08:40:32.899Z</time>
      </trkpt>
      <trkpt lat="38.73618" lon="-9.10398667">
        <ele>14.0</ele>
        <time>2019-05-16T08:40:33.910Z</time>
      </trkpt>
      <trkpt lat="38.73624167" lon="-9.103965">
        <ele>14.0</ele>
        <time>2019-05-16T08:40:34.917Z</time>
      </trkpt>
      <trkpt lat="38.73624167" lon="-9.103965">
        <ele>14.0</ele>
        <time>2019-05-16T08:40:35.926Z</time>
      </trkpt>
      <trkpt lat="38.73630167" lon="-9.10393167">
        <ele>14.0</ele>
        <time>2019-05-16T08:40:36.900Z</time>
      </trkpt>
      <trkpt lat="38.73630167" lon="-9.10393167">
        <ele>14.0</ele>
        <time>2019-05-16T08:40:37.921Z</time>
      </trkpt>
      <trkpt lat="38.736365" lon="-9.10390667">
        <ele>14.0</ele>
        <time>2019-05-16T08:40:38.928Z</time>
      </trkpt>
      <trkpt lat="38.736365" lon="-9.10390667">
        <ele>14.0</ele>
        <time>2019-05-16T08:40:39.921Z</time>
      </trkpt>
      <trkpt lat="38.73643" lon="-9.10388167">
        <ele>13.0</ele>
        <time>2019-05-16T08:40:40.897Z</time>
      </trkpt>
      <trkpt lat="38.73643" lon="-9.10388167">
        <ele>13.0</ele>
        <time>2019-05-16T08:40:41.936Z</time>
      </trkpt>
      <trkpt lat="38.73649333" lon="-9.10386">
        <ele>13.0</ele>
        <time>2019-05-16T08:40:42.897Z</time>
      </trkpt>
      <trkpt lat="38.73649333" lon="-9.10386">
        <ele>13.0</ele>
        <time>2019-05-16T08:40:43.927Z</time>
      </trkpt>
      <trkpt lat="38.73655833" lon="-9.10383667">
        <ele>13.0</ele>
        <time>2019-05-16T08:40:44.898Z</time>
      </trkpt>
      <trkpt lat="38.73655833" lon="-9.10383667">
        <ele>13.0</ele>
        <time>2019-05-16T08:40:45.912Z</time>
      </trkpt>
      <trkpt lat="38.73661667" lon="-9.10381333">
        <ele>13.0</ele>
        <time>2019-05-16T08:40:46.926Z</time>
      </trkpt>
      <trkpt lat="38.73661667" lon="-9.10381333">
        <ele>13.0</ele>
        <time>2019-05-16T08:40:47.928Z</time>
      </trkpt>
      <trkpt lat="38.73667833" lon="-9.10379">
        <ele>13.0</ele>
        <time>2019-05-16T08:40:48.936Z</time>
      </trkpt>
      <trkpt lat="38.73667833" lon="-9.10379">
        <ele>13.0</ele>
        <time>2019-05-16T08:40:49.914Z</time>
      </trkpt>
      <trkpt lat="38.73675167" lon="-9.10375667">
        <ele>12.0</ele>
        <time>2019-05-16T08:40:50.923Z</time>
      </trkpt>
      <trkpt lat="38.73675167" lon="-9.10375667">
        <ele>12.0</ele>
        <time>2019-05-16T08:40:51.897Z</time>
      </trkpt>
      <trkpt lat="38.73683333" lon="-9.10373167">
        <ele>12.0</ele>
        <time>2019-05-16T08:40:52.936Z</time>
      </trkpt>
      <trkpt lat="38.73683333" lon="-9.10373167">
        <ele>12.0</ele>
        <time>2019-05-16T08:40:53.925Z</time>
      </trkpt>
      <trkpt lat="38.73691833" lon="-9.10369833">
        <ele>12.0</ele>
        <time>2019-05-16T08:40:54.902Z</time>
      </trkpt>
      <trkpt lat="38.73691833" lon="-9.10369833">
        <ele>12.0</ele>
        <time>2019-05-16T08:40:55.934Z</time>
      </trkpt>
      <trkpt lat="38.737" lon="-9.10367">
        <ele>12.0</ele>
        <time>2019-05-16T08:40:56.900Z</time>
      </trkpt>
      <trkpt lat="38.737" lon="-9.10367">
        <ele>12.0</ele>
        <time>2019-05-16T08:40:57.912Z</time>
      </trkpt>
      <trkpt lat="38.73707333" lon="-9.10364833">
        <ele>12.0</ele>
        <time>2019-05-16T08:40:58.921Z</time>
      </trkpt>
      <trkpt lat="38.73707333" lon="-9.10364833">
        <ele>12.0</ele>
        <time>2019-05-16T08:40:59.933Z</time>
      </trkpt>
      <trkpt lat="38.73714" lon="-9.10362667">
        <ele>11.0</ele>
        <time>2019-05-16T08:41:00.923Z</time>
      </trkpt>
      <trkpt lat="38.73714" lon="-9.10362667">
        <ele>11.0</ele>
        <time>2019-05-16T08:41:01.934Z</time>
      </trkpt>
      <trkpt lat="38.73720333" lon="-9.10360667">
        <ele>11.0</ele>
        <time>2019-05-16T08:41:02.901Z</time>
      </trkpt>
      <trkpt lat="38.73720333" lon="-9.10360667">
        <ele>11.0</ele>
        <time>2019-05-16T08:41:03.914Z</time>
      </trkpt>
      <trkpt lat="38.73726167" lon="-9.10358833">
        <ele>11.0</ele>
        <time>2019-05-16T08:41:04.922Z</time>
      </trkpt>
      <trkpt lat="38.73726167" lon="-9.10358833">
        <ele>11.0</ele>
        <time>2019-05-16T08:41:05.934Z</time>
      </trkpt>
      <trkpt lat="38.73732" lon="-9.10357">
        <ele>10.0</ele>
        <time>2019-05-16T08:41:06.913Z</time>
      </trkpt>
      <trkpt lat="38.73732" lon="-9.10357">
        <ele>10.0</ele>
        <time>2019-05-16T08:41:07.932Z</time>
      </trkpt>
      <trkpt lat="38.73737167" lon="-9.10355167">
        <ele>11.0</ele>
        <time>2019-05-16T08:41:08.899Z</time>
      </trkpt>
      <trkpt lat="38.73737167" lon="-9.10355167">
        <ele>11.0</ele>
        <time>2019-05-16T08:41:09.910Z</time>
      </trkpt>
      <trkpt lat="38.73742667" lon="-9.10353333">
        <ele>11.0</ele>
        <time>2019-05-16T08:41:10.923Z</time>
      </trkpt>
      <trkpt lat="38.73742667" lon="-9.10353333">
        <ele>11.0</ele>
        <time>2019-05-16T08:41:11.911Z</time>
      </trkpt>
      <trkpt lat="38.73748167" lon="-9.10351667">
        <ele>10.0</ele>
        <time>2019-05-16T08:41:12.955Z</time>
      </trkpt>
      <trkpt lat="38.73748167" lon="-9.10351667">
        <ele>10.0</ele>
        <time>2019-05-16T08:41:13.910Z</time>
      </trkpt>
      <trkpt lat="38.73754" lon="-9.1035">
        <ele>10.0</ele>
        <time>2019-05-16T08:41:14.919Z</time>
      </trkpt>
      <trkpt lat="38.73754" lon="-9.1035">
        <ele>10.0</ele>
        <time>2019-05-16T08:41:15.935Z</time>
      </trkpt>
      <trkpt lat="38.7376" lon="-9.10348667">
        <ele>11.0</ele>
        <time>2019-05-16T08:41:16.901Z</time>
      </trkpt>
      <trkpt lat="38.73763167" lon="-9.10347833">
        <ele>10.0</ele>
        <time>2019-05-16T08:41:17.916Z</time>
      </trkpt>
      <trkpt lat="38.737665" lon="-9.10347">
        <ele>10.0</ele>
        <time>2019-05-16T08:41:18.936Z</time>
      </trkpt>
      <trkpt lat="38.737665" lon="-9.10347">
        <ele>10.0</ele>
        <time>2019-05-16T08:41:19.913Z</time>
      </trkpt>
      <trkpt lat="38.73772667" lon="-9.10345333">
        <ele>10.0</ele>
        <time>2019-05-16T08:41:20.936Z</time>
      </trkpt>
      <trkpt lat="38.73772667" lon="-9.10345333">
        <ele>10.0</ele>
        <time>2019-05-16T08:41:21.898Z</time>
      </trkpt>
      <trkpt lat="38.73778667" lon="-9.103435">
        <ele>10.0</ele>
        <time>2019-05-16T08:41:22.904Z</time>
      </trkpt>
      <trkpt lat="38.73778667" lon="-9.103435">
        <ele>10.0</ele>
        <time>2019-05-16T08:41:23.915Z</time>
      </trkpt>
      <trkpt lat="38.73782667" lon="-9.10341">
        <ele>11.0</ele>
        <time>2019-05-16T08:41:24.923Z</time>
      </trkpt>
      <trkpt lat="38.73782667" lon="-9.10341">
        <ele>11.0</ele>
        <time>2019-05-16T08:41:25.930Z</time>
      </trkpt>
      <trkpt lat="38.73788167" lon="-9.10339167">
        <ele>11.0</ele>
        <time>2019-05-16T08:41:26.942Z</time>
      </trkpt>
      <trkpt lat="38.73788167" lon="-9.10339167">
        <ele>11.0</ele>
        <time>2019-05-16T08:41:27.907Z</time>
      </trkpt>
      <trkpt lat="38.73795167" lon="-9.10337833">
        <ele>12.0</ele>
        <time>2019-05-16T08:41:28.915Z</time>
      </trkpt>
      <trkpt lat="38.73795167" lon="-9.10337833">
        <ele>12.0</ele>
        <time>2019-05-16T08:41:29.926Z</time>
      </trkpt>
      <trkpt lat="38.73802" lon="-9.10335167">
        <ele>12.0</ele>
        <time>2019-05-16T08:41:30.934Z</time>
      </trkpt>
      <trkpt lat="38.73802" lon="-9.10335167">
        <ele>12.0</ele>
        <time>2019-05-16T08:41:31.913Z</time>
      </trkpt>
      <trkpt lat="38.73808167" lon="-9.103325">
        <ele>13.0</ele>
        <time>2019-05-16T08:41:32.927Z</time>
      </trkpt>
      <trkpt lat="38.73808167" lon="-9.103325">
        <ele>13.0</ele>
        <time>2019-05-16T08:41:33.924Z</time>
      </trkpt>
      <trkpt lat="38.73815" lon="-9.1033">
        <ele>13.0</ele>
        <time>2019-05-16T08:41:34.936Z</time>
      </trkpt>
      <trkpt lat="38.73815" lon="-9.1033">
        <ele>13.0</ele>
        <time>2019-05-16T08:41:35.918Z</time>
      </trkpt>
      <trkpt lat="38.73820667" lon="-9.10326333">
        <ele>13.0</ele>
        <time>2019-05-16T08:41:36.908Z</time>
      </trkpt>
      <trkpt lat="38.73820667" lon="-9.10326333">
        <ele>13.0</ele>
        <time>2019-05-16T08:41:37.922Z</time>
      </trkpt>
      <trkpt lat="38.73827333" lon="-9.10324333">
        <ele>13.0</ele>
        <time>2019-05-16T08:41:38.897Z</time>
      </trkpt>
      <trkpt lat="38.73827333" lon="-9.10324333">
        <ele>13.0</ele>
        <time>2019-05-16T08:41:39.912Z</time>
      </trkpt>
      <trkpt lat="38.73833" lon="-9.10322">
        <ele>13.0</ele>
        <time>2019-05-16T08:41:40.921Z</time>
      </trkpt>
      <trkpt lat="38.73833" lon="-9.10322">
        <ele>13.0</ele>
        <time>2019-05-16T08:41:41.898Z</time>
      </trkpt>
      <trkpt lat="38.73840333" lon="-9.103205">
        <ele>14.0</ele>
        <time>2019-05-16T08:41:42.908Z</time>
      </trkpt>
      <trkpt lat="38.73840333" lon="-9.103205">
        <ele>14.0</ele>
        <time>2019-05-16T08:41:43.920Z</time>
      </trkpt>
      <trkpt lat="38.73846667" lon="-9.10318167">
        <ele>14.0</ele>
        <time>2019-05-16T08:41:44.926Z</time>
      </trkpt>
      <trkpt lat="38.73846667" lon="-9.10318167">
        <ele>14.0</ele>
        <time>2019-05-16T08:41:45.915Z</time>
      </trkpt>
      <trkpt lat="38.738535" lon="-9.10316167">
        <ele>14.0</ele>
        <time>2019-05-16T08:41:46.922Z</time>
      </trkpt>
      <trkpt lat="38.738535" lon="-9.10316167">
        <ele>14.0</ele>
        <time>2019-05-16T08:41:47.901Z</time>
      </trkpt>
      <trkpt lat="38.738605" lon="-9.10314">
        <ele>14.0</ele>
        <time>2019-05-16T08:41:48.920Z</time>
      </trkpt>
      <trkpt lat="38.738605" lon="-9.10314">
        <ele>14.0</ele>
        <time>2019-05-16T08:41:49.900Z</time>
      </trkpt>
      <trkpt lat="38.73868167" lon="-9.10312">
        <ele>15.0</ele>
        <time>2019-05-16T08:41:50.915Z</time>
      </trkpt>
      <trkpt lat="38.73868167" lon="-9.10312">
        <ele>15.0</ele>
        <time>2019-05-16T08:41:51.897Z</time>
      </trkpt>
      <trkpt lat="38.73876333" lon="-9.10311">
        <ele>15.0</ele>
        <time>2019-05-16T08:41:52.935Z</time>
      </trkpt>
      <trkpt lat="38.73876333" lon="-9.10311">
        <ele>15.0</ele>
        <time>2019-05-16T08:41:53.903Z</time>
      </trkpt>
      <trkpt lat="38.738835" lon="-9.103095">
        <ele>16.0</ele>
        <time>2019-05-16T08:41:54.914Z</time>
      </trkpt>
      <trkpt lat="38.738835" lon="-9.103095">
        <ele>16.0</ele>
        <time>2019-05-16T08:41:55.910Z</time>
      </trkpt>
      <trkpt lat="38.73890667" lon="-9.10306667">
        <ele>16.0</ele>
        <time>2019-05-16T08:41:56.917Z</time>
      </trkpt>
      <trkpt lat="38.73890667" lon="-9.10306667">
        <ele>16.0</ele>
        <time>2019-05-16T08:41:57.931Z</time>
      </trkpt>
      <trkpt lat="38.73897667" lon="-9.10305">
        <ele>17.0</ele>
        <time>2019-05-16T08:41:58.931Z</time>
      </trkpt>
      <trkpt lat="38.73897667" lon="-9.10305">
        <ele>17.0</ele>
        <time>2019-05-16T08:41:59.904Z</time>
      </trkpt>
      <trkpt lat="38.73906833" lon="-9.10303833">
        <ele>18.0</ele>
        <time>2019-05-16T08:42:00.912Z</time>
      </trkpt>
      <trkpt lat="38.73906833" lon="-9.10303833">
        <ele>18.0</ele>
        <time>2019-05-16T08:42:01.910Z</time>
      </trkpt>
      <trkpt lat="38.73914333" lon="-9.10302333">
        <ele>17.0</ele>
        <time>2019-05-16T08:42:02.921Z</time>
      </trkpt>
      <trkpt lat="38.73914333" lon="-9.10302333">
        <ele>17.0</ele>
        <time>2019-05-16T08:42:03.909Z</time>
      </trkpt>
      <trkpt lat="38.73921667" lon="-9.10300667">
        <ele>17.0</ele>
        <time>2019-05-16T08:42:04.919Z</time>
      </trkpt>
      <trkpt lat="38.73921667" lon="-9.10300667">
        <ele>17.0</ele>
        <time>2019-05-16T08:42:05.914Z</time>
      </trkpt>
      <trkpt lat="38.73928167" lon="-9.10298667">
        <ele>17.0</ele>
        <time>2019-05-16T08:42:06.923Z</time>
      </trkpt>
      <trkpt lat="38.73928167" lon="-9.10298667">
        <ele>17.0</ele>
        <time>2019-05-16T08:42:07.912Z</time>
      </trkpt>
      <trkpt lat="38.73934667" lon="-9.10297333">
        <ele>17.0</ele>
        <time>2019-05-16T08:42:08.924Z</time>
      </trkpt>
      <trkpt lat="38.73934667" lon="-9.10297333">
        <ele>17.0</ele>
        <time>2019-05-16T08:42:09.908Z</time>
      </trkpt>
      <trkpt lat="38.73934667" lon="-9.10297333">
        <ele>17.0</ele>
        <time>2019-05-16T08:42:10.931Z</time>
      </trkpt>
      <trkpt lat="38.739405" lon="-9.10295833">
        <ele>16.0</ele>
        <time>2019-05-16T08:42:11.906Z</time>
      </trkpt>
      <trkpt lat="38.73945833" lon="-9.10294167">
        <ele>15.0</ele>
        <time>2019-05-16T08:42:12.915Z</time>
      </trkpt>
      <trkpt lat="38.73945833" lon="-9.10294167">
        <ele>15.0</ele>
        <time>2019-05-16T08:42:13.928Z</time>
      </trkpt>
      <trkpt lat="38.73951667" lon="-9.10291667">
        <ele>15.0</ele>
        <time>2019-05-16T08:42:14.936Z</time>
      </trkpt>
      <trkpt lat="38.73951667" lon="-9.10291667">
        <ele>15.0</ele>
        <time>2019-05-16T08:42:15.911Z</time>
      </trkpt>
      <trkpt lat="38.73958833" lon="-9.10289833">
        <ele>14.0</ele>
        <time>2019-05-16T08:42:16.928Z</time>
      </trkpt>
      <trkpt lat="38.73958833" lon="-9.10289833">
        <ele>14.0</ele>
        <time>2019-05-16T08:42:17.897Z</time>
      </trkpt>
      <trkpt lat="38.73966333" lon="-9.10288167">
        <ele>14.0</ele>
        <time>2019-05-16T08:42:18.903Z</time>
      </trkpt>
      <trkpt lat="38.73966333" lon="-9.10288167">
        <ele>14.0</ele>
        <time>2019-05-16T08:42:19.912Z</time>
      </trkpt>
      <trkpt lat="38.73973333" lon="-9.10286667">
        <ele>14.0</ele>
        <time>2019-05-16T08:42:20.935Z</time>
      </trkpt>
      <trkpt lat="38.73973333" lon="-9.10286667">
        <ele>14.0</ele>
        <time>2019-05-16T08:42:21.910Z</time>
      </trkpt>
      <trkpt lat="38.73981833" lon="-9.10285333">
        <ele>13.0</ele>
        <time>2019-05-16T08:42:22.917Z</time>
      </trkpt>
      <trkpt lat="38.73981833" lon="-9.10285333">
        <ele>13.0</ele>
        <time>2019-05-16T08:42:23.932Z</time>
      </trkpt>
      <trkpt lat="38.73989167" lon="-9.102815">
        <ele>14.0</ele>
        <time>2019-05-16T08:42:24.939Z</time>
      </trkpt>
      <trkpt lat="38.73989167" lon="-9.102815">
        <ele>14.0</ele>
        <time>2019-05-16T08:42:25.933Z</time>
      </trkpt>
      <trkpt lat="38.73996667" lon="-9.10279167">
        <ele>14.0</ele>
        <time>2019-05-16T08:42:26.901Z</time>
      </trkpt>
      <trkpt lat="38.740005" lon="-9.10278667">
        <ele>14.0</ele>
        <time>2019-05-16T08:42:27.920Z</time>
      </trkpt>
      <trkpt lat="38.740005" lon="-9.10278667">
        <ele>14.0</ele>
        <time>2019-05-16T08:42:28.932Z</time>
      </trkpt>
      <trkpt lat="38.74008833" lon="-9.10277">
        <ele>14.0</ele>
        <time>2019-05-16T08:42:29.902Z</time>
      </trkpt>
      <trkpt lat="38.74013" lon="-9.10276">
        <ele>14.0</ele>
        <time>2019-05-16T08:42:30.927Z</time>
      </trkpt>
      <trkpt lat="38.74013" lon="-9.10276">
        <ele>14.0</ele>
        <time>2019-05-16T08:42:31.901Z</time>
      </trkpt>
      <trkpt lat="38.74022167" lon="-9.10273667">
        <ele>15.0</ele>
        <time>2019-05-16T08:42:32.909Z</time>
      </trkpt>
      <trkpt lat="38.74022167" lon="-9.10273667">
        <ele>15.0</ele>
        <time>2019-05-16T08:42:33.931Z</time>
      </trkpt>
      <trkpt lat="38.74031" lon="-9.10270833">
        <ele>14.0</ele>
        <time>2019-05-16T08:42:34.936Z</time>
      </trkpt>
      <trkpt lat="38.74031" lon="-9.10270833">
        <ele>14.0</ele>
        <time>2019-05-16T08:42:35.921Z</time>
      </trkpt>
      <trkpt lat="38.74040833" lon="-9.10269">
        <ele>14.0</ele>
        <time>2019-05-16T08:42:36.927Z</time>
      </trkpt>
      <trkpt lat="38.74040833" lon="-9.10269">
        <ele>14.0</ele>
        <time>2019-05-16T08:42:37.913Z</time>
      </trkpt>
      <trkpt lat="38.74051" lon="-9.10266833">
        <ele>14.0</ele>
        <time>2019-05-16T08:42:38.922Z</time>
      </trkpt>
      <trkpt lat="38.74051" lon="-9.10266833">
        <ele>14.0</ele>
        <time>2019-05-16T08:42:39.920Z</time>
      </trkpt>
      <trkpt lat="38.74060333" lon="-9.10264667">
        <ele>15.0</ele>
        <time>2019-05-16T08:42:40.911Z</time>
      </trkpt>
      <trkpt lat="38.74060333" lon="-9.10264667">
        <ele>15.0</ele>
        <time>2019-05-16T08:42:41.926Z</time>
      </trkpt>
      <trkpt lat="38.740695" lon="-9.10264833">
        <ele>13.0</ele>
        <time>2019-05-16T08:42:42.934Z</time>
      </trkpt>
      <trkpt lat="38.740695" lon="-9.10264833">
        <ele>13.0</ele>
        <time>2019-05-16T08:42:43.916Z</time>
      </trkpt>
      <trkpt lat="38.74079667" lon="-9.10263667">
        <ele>13.0</ele>
        <time>2019-05-16T08:42:44.926Z</time>
      </trkpt>
      <trkpt lat="38.74079667" lon="-9.10263667">
        <ele>13.0</ele>
        <time>2019-05-16T08:42:45.921Z</time>
      </trkpt>
      <trkpt lat="38.740895" lon="-9.10262">
        <ele>12.0</ele>
        <time>2019-05-16T08:42:46.938Z</time>
      </trkpt>
      <trkpt lat="38.740895" lon="-9.10262">
        <ele>12.0</ele>
        <time>2019-05-16T08:42:47.935Z</time>
      </trkpt>
      <trkpt lat="38.74098333" lon="-9.10259167">
        <ele>12.0</ele>
        <time>2019-05-16T08:42:48.934Z</time>
      </trkpt>
      <trkpt lat="38.74098333" lon="-9.10259167">
        <ele>12.0</ele>
        <time>2019-05-16T08:42:49.908Z</time>
      </trkpt>
      <trkpt lat="38.74107333" lon="-9.10258333">
        <ele>11.0</ele>
        <time>2019-05-16T08:42:50.922Z</time>
      </trkpt>
      <trkpt lat="38.74107333" lon="-9.10258333">
        <ele>11.0</ele>
        <time>2019-05-16T08:42:51.902Z</time>
      </trkpt>
      <trkpt lat="38.74115667" lon="-9.10256667">
        <ele>11.0</ele>
        <time>2019-05-16T08:42:52.936Z</time>
      </trkpt>
      <trkpt lat="38.74115667" lon="-9.10256667">
        <ele>11.0</ele>
        <time>2019-05-16T08:42:53.916Z</time>
      </trkpt>
      <trkpt lat="38.741235" lon="-9.10255667">
        <ele>10.0</ele>
        <time>2019-05-16T08:42:54.929Z</time>
      </trkpt>
      <trkpt lat="38.741235" lon="-9.10255667">
        <ele>10.0</ele>
        <time>2019-05-16T08:42:55.898Z</time>
      </trkpt>
      <trkpt lat="38.74131833" lon="-9.10254833">
        <ele>10.0</ele>
        <time>2019-05-16T08:42:56.905Z</time>
      </trkpt>
      <trkpt lat="38.74131833" lon="-9.10254833">
        <ele>10.0</ele>
        <time>2019-05-16T08:42:57.932Z</time>
      </trkpt>
      <trkpt lat="38.74140167" lon="-9.10253833">
        <ele>10.0</ele>
        <time>2019-05-16T08:42:58.902Z</time>
      </trkpt>
      <trkpt lat="38.74140167" lon="-9.10253833">
        <ele>10.0</ele>
        <time>2019-05-16T08:42:59.915Z</time>
      </trkpt>
      <trkpt lat="38.741495" lon="-9.10252167">
        <ele>13.0</ele>
        <time>2019-05-16T08:43:00.935Z</time>
      </trkpt>
      <trkpt lat="38.741495" lon="-9.10252167">
        <ele>13.0</ele>
        <time>2019-05-16T08:43:01.913Z</time>
      </trkpt>
      <trkpt lat="38.741575" lon="-9.10249667">
        <ele>14.0</ele>
        <time>2019-05-16T08:43:02.927Z</time>
      </trkpt>
      <trkpt lat="38.741575" lon="-9.10249667">
        <ele>14.0</ele>
        <time>2019-05-16T08:43:03.900Z</time>
      </trkpt>
      <trkpt lat="38.74164667" lon="-9.10247">
        <ele>16.0</ele>
        <time>2019-05-16T08:43:04.898Z</time>
      </trkpt>
      <trkpt lat="38.74164667" lon="-9.10247">
        <ele>16.0</ele>
        <time>2019-05-16T08:43:05.899Z</time>
      </trkpt>
      <trkpt lat="38.74171333" lon="-9.10245">
        <ele>17.0</ele>
        <time>2019-05-16T08:43:06.908Z</time>
      </trkpt>
      <trkpt lat="38.74171333" lon="-9.10245">
        <ele>17.0</ele>
        <time>2019-05-16T08:43:07.928Z</time>
      </trkpt>
      <trkpt lat="38.74178333" lon="-9.10243">
        <ele>18.0</ele>
        <time>2019-05-16T08:43:08.934Z</time>
      </trkpt>
      <trkpt lat="38.74178333" lon="-9.10243">
        <ele>18.0</ele>
        <time>2019-05-16T08:43:09.902Z</time>
      </trkpt>
      <trkpt lat="38.74184667" lon="-9.10240167">
        <ele>18.0</ele>
        <time>2019-05-16T08:43:10.909Z</time>
      </trkpt>
      <trkpt lat="38.74184667" lon="-9.10240167">
        <ele>18.0</ele>
        <time>2019-05-16T08:43:11.935Z</time>
      </trkpt>
      <trkpt lat="38.74191333" lon="-9.10237">
        <ele>19.0</ele>
        <time>2019-05-16T08:43:12.901Z</time>
      </trkpt>
      <trkpt lat="38.74191333" lon="-9.10237">
        <ele>19.0</ele>
        <time>2019-05-16T08:43:13.915Z</time>
      </trkpt>
      <trkpt lat="38.74198" lon="-9.102335">
        <ele>19.0</ele>
        <time>2019-05-16T08:43:14.930Z</time>
      </trkpt>
      <trkpt lat="38.74198" lon="-9.102335">
        <ele>19.0</ele>
        <time>2019-05-16T08:43:15.911Z</time>
      </trkpt>
      <trkpt lat="38.74204167" lon="-9.102285">
        <ele>21.0</ele>
        <time>2019-05-16T08:43:16.920Z</time>
      </trkpt>
      <trkpt lat="38.74204167" lon="-9.102285">
        <ele>21.0</ele>
        <time>2019-05-16T08:43:17.902Z</time>
      </trkpt>
      <trkpt lat="38.74204167" lon="-9.102285">
        <ele>21.0</ele>
        <time>2019-05-16T08:43:18.923Z</time>
      </trkpt>
      <trkpt lat="38.74211333" lon="-9.10222333">
        <ele>22.0</ele>
        <time>2019-05-16T08:43:19.902Z</time>
      </trkpt>
      <trkpt lat="38.742185" lon="-9.10216833">
        <ele>23.0</ele>
        <time>2019-05-16T08:43:20.911Z</time>
      </trkpt>
      <trkpt lat="38.742185" lon="-9.10216833">
        <ele>23.0</ele>
        <time>2019-05-16T08:43:21.927Z</time>
      </trkpt>
      <trkpt lat="38.74225333" lon="-9.10212167">
        <ele>23.0</ele>
        <time>2019-05-16T08:43:22.924Z</time>
      </trkpt>
      <trkpt lat="38.74225333" lon="-9.10212167">
        <ele>23.0</ele>
        <time>2019-05-16T08:43:23.917Z</time>
      </trkpt>
      <trkpt lat="38.74234833" lon="-9.10209">
        <ele>23.0</ele>
        <time>2019-05-16T08:43:24.923Z</time>
      </trkpt>
      <trkpt lat="38.74234833" lon="-9.10209">
        <ele>23.0</ele>
        <time>2019-05-16T08:43:25.919Z</time>
      </trkpt>
      <trkpt lat="38.74243333" lon="-9.10206333">
        <ele>23.0</ele>
        <time>2019-05-16T08:43:26.897Z</time>
      </trkpt>
      <trkpt lat="38.74243333" lon="-9.10206333">
        <ele>23.0</ele>
        <time>2019-05-16T08:43:27.911Z</time>
      </trkpt>
      <trkpt lat="38.74251333" lon="-9.10203833">
        <ele>23.0</ele>
        <time>2019-05-16T08:43:28.921Z</time>
      </trkpt>
      <trkpt lat="38.74251333" lon="-9.10203833">
        <ele>23.0</ele>
        <time>2019-05-16T08:43:29.933Z</time>
      </trkpt>
      <trkpt lat="38.74258" lon="-9.10201">
        <ele>23.0</ele>
        <time>2019-05-16T08:43:30.900Z</time>
      </trkpt>
      <trkpt lat="38.74258" lon="-9.10201">
        <ele>23.0</ele>
        <time>2019-05-16T08:43:31.911Z</time>
      </trkpt>
      <trkpt lat="38.74262833" lon="-9.10197667">
        <ele>24.0</ele>
        <time>2019-05-16T08:43:32.901Z</time>
      </trkpt>
      <trkpt lat="38.74262833" lon="-9.10197667">
        <ele>24.0</ele>
        <time>2019-05-16T08:43:33.918Z</time>
      </trkpt>
      <trkpt lat="38.74269" lon="-9.10195">
        <ele>24.0</ele>
        <time>2019-05-16T08:43:34.930Z</time>
      </trkpt>
      <trkpt lat="38.74273" lon="-9.101935">
        <ele>24.0</ele>
        <time>2019-05-16T08:43:35.905Z</time>
      </trkpt>
      <trkpt lat="38.74276667" lon="-9.10192167">
        <ele>23.0</ele>
        <time>2019-05-16T08:43:36.905Z</time>
      </trkpt>
      <trkpt lat="38.74276667" lon="-9.10192167">
        <ele>23.0</ele>
        <time>2019-05-16T08:43:37.906Z</time>
      </trkpt>
      <trkpt lat="38.74283667" lon="-9.10188">
        <ele>23.0</ele>
        <time>2019-05-16T08:43:38.918Z</time>
      </trkpt>
      <trkpt lat="38.74283667" lon="-9.10188">
        <ele>23.0</ele>
        <time>2019-05-16T08:43:39.935Z</time>
      </trkpt>
      <trkpt lat="38.74289333" lon="-9.10184167">
        <ele>23.0</ele>
        <time>2019-05-16T08:43:40.904Z</time>
      </trkpt>
      <trkpt lat="38.74289333" lon="-9.10184167">
        <ele>23.0</ele>
        <time>2019-05-16T08:43:41.900Z</time>
      </trkpt>
      <trkpt lat="38.74293833" lon="-9.1018">
        <ele>23.0</ele>
        <time>2019-05-16T08:43:42.904Z</time>
      </trkpt>
      <trkpt lat="38.74293833" lon="-9.1018">
        <ele>23.0</ele>
        <time>2019-05-16T08:43:43.921Z</time>
      </trkpt>
      <trkpt lat="38.74299333" lon="-9.10175167">
        <ele>24.0</ele>
        <time>2019-05-16T08:43:44.902Z</time>
      </trkpt>
      <trkpt lat="38.74299333" lon="-9.10175167">
        <ele>24.0</ele>
        <time>2019-05-16T08:43:45.915Z</time>
      </trkpt>
      <trkpt lat="38.74308333" lon="-9.10172">
        <ele>23.0</ele>
        <time>2019-05-16T08:43:46.923Z</time>
      </trkpt>
      <trkpt lat="38.74308333" lon="-9.10172">
        <ele>23.0</ele>
        <time>2019-05-16T08:43:47.904Z</time>
      </trkpt>
      <trkpt lat="38.74316667" lon="-9.10168667">
        <ele>23.0</ele>
        <time>2019-05-16T08:43:48.915Z</time>
      </trkpt>
      <trkpt lat="38.74316667" lon="-9.10168667">
        <ele>23.0</ele>
        <time>2019-05-16T08:43:49.925Z</time>
      </trkpt>
      <trkpt lat="38.74325333" lon="-9.10166">
        <ele>23.0</ele>
        <time>2019-05-16T08:43:50.922Z</time>
      </trkpt>
      <trkpt lat="38.74325333" lon="-9.10166">
        <ele>23.0</ele>
        <time>2019-05-16T08:43:51.930Z</time>
      </trkpt>
      <trkpt lat="38.743335" lon="-9.10161333">
        <ele>23.0</ele>
        <time>2019-05-16T08:43:52.899Z</time>
      </trkpt>
      <trkpt lat="38.743335" lon="-9.10161333">
        <ele>23.0</ele>
        <time>2019-05-16T08:43:53.934Z</time>
      </trkpt>
      <trkpt lat="38.74341" lon="-9.10155833">
        <ele>23.0</ele>
        <time>2019-05-16T08:43:54.899Z</time>
      </trkpt>
      <trkpt lat="38.74341" lon="-9.10155833">
        <ele>23.0</ele>
        <time>2019-05-16T08:43:55.935Z</time>
      </trkpt>
      <trkpt lat="38.74347667" lon="-9.101505">
        <ele>23.0</ele>
        <time>2019-05-16T08:43:56.902Z</time>
      </trkpt>
      <trkpt lat="38.74347667" lon="-9.101505">
        <ele>23.0</ele>
        <time>2019-05-16T08:43:57.934Z</time>
      </trkpt>
      <trkpt lat="38.74356167" lon="-9.10146667">
        <ele>23.0</ele>
        <time>2019-05-16T08:43:58.898Z</time>
      </trkpt>
      <trkpt lat="38.74356167" lon="-9.10146667">
        <ele>23.0</ele>
        <time>2019-05-16T08:43:59.916Z</time>
      </trkpt>
      <trkpt lat="38.743645" lon="-9.10142">
        <ele>24.0</ele>
        <time>2019-05-16T08:44:00.930Z</time>
      </trkpt>
      <trkpt lat="38.743645" lon="-9.10142">
        <ele>24.0</ele>
        <time>2019-05-16T08:44:01.917Z</time>
      </trkpt>
      <trkpt lat="38.74372167" lon="-9.10137667">
        <ele>24.0</ele>
        <time>2019-05-16T08:44:02.925Z</time>
      </trkpt>
      <trkpt lat="38.74372167" lon="-9.10137667">
        <ele>24.0</ele>
        <time>2019-05-16T08:44:03.915Z</time>
      </trkpt>
      <trkpt lat="38.74379167" lon="-9.101355">
        <ele>24.0</ele>
        <time>2019-05-16T08:44:04.928Z</time>
      </trkpt>
      <trkpt lat="38.74379167" lon="-9.101355">
        <ele>24.0</ele>
        <time>2019-05-16T08:44:05.904Z</time>
      </trkpt>
      <trkpt lat="38.74386667" lon="-9.10135">
        <ele>24.0</ele>
        <time>2019-05-16T08:44:06.897Z</time>
      </trkpt>
      <trkpt lat="38.74386667" lon="-9.10135">
        <ele>24.0</ele>
        <time>2019-05-16T08:44:07.899Z</time>
      </trkpt>
      <trkpt lat="38.74393333" lon="-9.10134167">
        <ele>24.0</ele>
        <time>2019-05-16T08:44:08.907Z</time>
      </trkpt>
      <trkpt lat="38.74396833" lon="-9.10132833">
        <ele>24.0</ele>
        <time>2019-05-16T08:44:09.937Z</time>
      </trkpt>
      <trkpt lat="38.74396833" lon="-9.10132833">
        <ele>24.0</ele>
        <time>2019-05-16T08:44:10.909Z</time>
      </trkpt>
      <trkpt lat="38.74402167" lon="-9.10131333">
        <ele>24.0</ele>
        <time>2019-05-16T08:44:11.916Z</time>
      </trkpt>
      <trkpt lat="38.744045" lon="-9.10130667">
        <ele>24.0</ele>
        <time>2019-05-16T08:44:12.936Z</time>
      </trkpt>
      <trkpt lat="38.744045" lon="-9.10130667">
        <ele>24.0</ele>
        <time>2019-05-16T08:44:13.911Z</time>
      </trkpt>
      <trkpt lat="38.74409333" lon="-9.10128667">
        <ele>24.0</ele>
        <time>2019-05-16T08:44:14.920Z</time>
      </trkpt>
      <trkpt lat="38.74409333" lon="-9.10128667">
        <ele>24.0</ele>
        <time>2019-05-16T08:44:15.897Z</time>
      </trkpt>
      <trkpt lat="38.74414" lon="-9.10125">
        <ele>23.0</ele>
        <time>2019-05-16T08:44:16.917Z</time>
      </trkpt>
      <trkpt lat="38.74414" lon="-9.10125">
        <ele>23.0</ele>
        <time>2019-05-16T08:44:17.902Z</time>
      </trkpt>
      <trkpt lat="38.74419" lon="-9.10122333">
        <ele>23.0</ele>
        <time>2019-05-16T08:44:18.907Z</time>
      </trkpt>
      <trkpt lat="38.74419" lon="-9.10122333">
        <ele>23.0</ele>
        <time>2019-05-16T08:44:19.920Z</time>
      </trkpt>
      <trkpt lat="38.74424667" lon="-9.10120333">
        <ele>22.0</ele>
        <time>2019-05-16T08:44:20.905Z</time>
      </trkpt>
      <trkpt lat="38.74424667" lon="-9.10120333">
        <ele>22.0</ele>
        <time>2019-05-16T08:44:21.902Z</time>
      </trkpt>
      <trkpt lat="38.74432333" lon="-9.10116833">
        <ele>21.0</ele>
        <time>2019-05-16T08:44:22.911Z</time>
      </trkpt>
      <trkpt lat="38.74432333" lon="-9.10116833">
        <ele>21.0</ele>
        <time>2019-05-16T08:44:23.930Z</time>
      </trkpt>
      <trkpt lat="38.74440167" lon="-9.10113667">
        <ele>21.0</ele>
        <time>2019-05-16T08:44:24.900Z</time>
      </trkpt>
      <trkpt lat="38.74440167" lon="-9.10113667">
        <ele>21.0</ele>
        <time>2019-05-16T08:44:25.918Z</time>
      </trkpt>
      <trkpt lat="38.74446333" lon="-9.101115">
        <ele>20.0</ele>
        <time>2019-05-16T08:44:26.920Z</time>
      </trkpt>
      <trkpt lat="38.74446333" lon="-9.101115">
        <ele>20.0</ele>
        <time>2019-05-16T08:44:27.914Z</time>
      </trkpt>
      <trkpt lat="38.744515" lon="-9.10109167">
        <ele>21.0</ele>
        <time>2019-05-16T08:44:28.920Z</time>
      </trkpt>
      <trkpt lat="38.744515" lon="-9.10109167">
        <ele>21.0</ele>
        <time>2019-05-16T08:44:29.901Z</time>
      </trkpt>
      <trkpt lat="38.74456833" lon="-9.10106167">
        <ele>21.0</ele>
        <time>2019-05-16T08:44:30.910Z</time>
      </trkpt>
      <trkpt lat="38.74456833" lon="-9.10106167">
        <ele>21.0</ele>
        <time>2019-05-16T08:44:31.929Z</time>
      </trkpt>
      <trkpt lat="38.74461" lon="-9.101025">
        <ele>22.0</ele>
        <time>2019-05-16T08:44:32.916Z</time>
      </trkpt>
      <trkpt lat="38.74461" lon="-9.101025">
        <ele>22.0</ele>
        <time>2019-05-16T08:44:33.926Z</time>
      </trkpt>
      <trkpt lat="38.74467333" lon="-9.10099833">
        <ele>22.0</ele>
        <time>2019-05-16T08:44:34.899Z</time>
      </trkpt>
      <trkpt lat="38.74471167" lon="-9.10098">
        <ele>23.0</ele>
        <time>2019-05-16T08:44:35.934Z</time>
      </trkpt>
      <trkpt lat="38.74475" lon="-9.10096">
        <ele>23.0</ele>
        <time>2019-05-16T08:44:36.903Z</time>
      </trkpt>
      <trkpt lat="38.74475" lon="-9.10096">
        <ele>23.0</ele>
        <time>2019-05-16T08:44:37.920Z</time>
      </trkpt>
      <trkpt lat="38.744825" lon="-9.10091667">
        <ele>23.0</ele>
        <time>2019-05-16T08:44:38.929Z</time>
      </trkpt>
      <trkpt lat="38.744825" lon="-9.10091667">
        <ele>23.0</ele>
        <time>2019-05-16T08:44:39.907Z</time>
      </trkpt>
      <trkpt lat="38.74490167" lon="-9.10086833">
        <ele>24.0</ele>
        <time>2019-05-16T08:44:40.921Z</time>
      </trkpt>
      <trkpt lat="38.74490167" lon="-9.10086833">
        <ele>24.0</ele>
        <time>2019-05-16T08:44:41.928Z</time>
      </trkpt>
      <trkpt lat="38.744965" lon="-9.10083333">
        <ele>24.0</ele>
        <time>2019-05-16T08:44:42.908Z</time>
      </trkpt>
      <trkpt lat="38.744965" lon="-9.10083333">
        <ele>24.0</ele>
        <time>2019-05-16T08:44:43.934Z</time>
      </trkpt>
      <trkpt lat="38.74501667" lon="-9.10080333">
        <ele>24.0</ele>
        <time>2019-05-16T08:44:44.934Z</time>
      </trkpt>
      <trkpt lat="38.74501667" lon="-9.10080333">
        <ele>24.0</ele>
        <time>2019-05-16T08:44:45.919Z</time>
      </trkpt>
      <trkpt lat="38.74507" lon="-9.10078">
        <ele>24.0</ele>
        <time>2019-05-16T08:44:46.925Z</time>
      </trkpt>
      <trkpt lat="38.74509833" lon="-9.10076667">
        <ele>24.0</ele>
        <time>2019-05-16T08:44:47.911Z</time>
      </trkpt>
      <trkpt lat="38.74512667" lon="-9.10075">
        <ele>24.0</ele>
        <time>2019-05-16T08:44:48.900Z</time>
      </trkpt>
      <trkpt lat="38.74512667" lon="-9.10075">
        <ele>24.0</ele>
        <time>2019-05-16T08:44:49.921Z</time>
      </trkpt>
      <trkpt lat="38.74517333" lon="-9.10072">
        <ele>24.0</ele>
        <time>2019-05-16T08:44:50.925Z</time>
      </trkpt>
      <trkpt lat="38.74517333" lon="-9.10072">
        <ele>24.0</ele>
        <time>2019-05-16T08:44:51.919Z</time>
      </trkpt>
      <trkpt lat="38.745215" lon="-9.100695">
        <ele>24.0</ele>
        <time>2019-05-16T08:44:52.916Z</time>
      </trkpt>
      <trkpt lat="38.745235" lon="-9.10068667">
        <ele>25.0</ele>
        <time>2019-05-16T08:44:53.924Z</time>
      </trkpt>
      <trkpt lat="38.74525667" lon="-9.10068167">
        <ele>25.0</ele>
        <time>2019-05-16T08:44:54.927Z</time>
      </trkpt>
      <trkpt lat="38.74525667" lon="-9.10068167">
        <ele>25.0</ele>
        <time>2019-05-16T08:44:55.919Z</time>
      </trkpt>
      <trkpt lat="38.74530833" lon="-9.10066667">
        <ele>25.0</ele>
        <time>2019-05-16T08:44:56.924Z</time>
      </trkpt>
      <trkpt lat="38.74530833" lon="-9.10066667">
        <ele>25.0</ele>
        <time>2019-05-16T08:44:57.920Z</time>
      </trkpt>
      <trkpt lat="38.74536333" lon="-9.10064833">
        <ele>25.0</ele>
        <time>2019-05-16T08:44:58.901Z</time>
      </trkpt>
      <trkpt lat="38.74536333" lon="-9.10064833">
        <ele>25.0</ele>
        <time>2019-05-16T08:44:59.921Z</time>
      </trkpt>
      <trkpt lat="38.74541333" lon="-9.10063167">
        <ele>25.0</ele>
        <time>2019-05-16T08:45:00.934Z</time>
      </trkpt>
      <trkpt lat="38.74541333" lon="-9.10063167">
        <ele>25.0</ele>
        <time>2019-05-16T08:45:01.919Z</time>
      </trkpt>
      <trkpt lat="38.74545667" lon="-9.10060167">
        <ele>26.0</ele>
        <time>2019-05-16T08:45:02.906Z</time>
      </trkpt>
      <trkpt lat="38.745485" lon="-9.100585">
        <ele>26.0</ele>
        <time>2019-05-16T08:45:03.925Z</time>
      </trkpt>
      <trkpt lat="38.745485" lon="-9.100585">
        <ele>26.0</ele>
        <time>2019-05-16T08:45:04.919Z</time>
      </trkpt>
      <trkpt lat="38.74552333" lon="-9.10055667">
        <ele>26.0</ele>
        <time>2019-05-16T08:45:05.924Z</time>
      </trkpt>
      <trkpt lat="38.74554" lon="-9.10054">
        <ele>26.0</ele>
        <time>2019-05-16T08:45:06.925Z</time>
      </trkpt>
      <trkpt lat="38.74554" lon="-9.10054">
        <ele>26.0</ele>
        <time>2019-05-16T08:45:07.902Z</time>
      </trkpt>
      <trkpt lat="38.74557167" lon="-9.10051167">
        <ele>27.0</ele>
        <time>2019-05-16T08:45:08.924Z</time>
      </trkpt>
      <trkpt lat="38.74557167" lon="-9.10051167">
        <ele>27.0</ele>
        <time>2019-05-16T08:45:09.918Z</time>
      </trkpt>
      <trkpt lat="38.74559833" lon="-9.100475">
        <ele>27.0</ele>
        <time>2019-05-16T08:45:10.924Z</time>
      </trkpt>
      <trkpt lat="38.74559833" lon="-9.100475">
        <ele>27.0</ele>
        <time>2019-05-16T08:45:11.919Z</time>
      </trkpt>
      <trkpt lat="38.74563333" lon="-9.10048333">
        <ele>27.0</ele>
        <time>2019-05-16T08:45:12.928Z</time>
      </trkpt>
      <trkpt lat="38.74563333" lon="-9.10048333">
        <ele>27.0</ele>
        <time>2019-05-16T08:45:13.919Z</time>
      </trkpt>
      <trkpt lat="38.74565333" lon="-9.1005">
        <ele>28.0</ele>
        <time>2019-05-16T08:45:14.924Z</time>
      </trkpt>
      <trkpt lat="38.74565333" lon="-9.1005">
        <ele>28.0</ele>
        <time>2019-05-16T08:45:15.936Z</time>
      </trkpt>
      <trkpt lat="38.74567333" lon="-9.100515">
        <ele>28.0</ele>
        <time>2019-05-16T08:45:16.924Z</time>
      </trkpt>
      <trkpt lat="38.74567333" lon="-9.100515">
        <ele>28.0</ele>
        <time>2019-05-16T08:45:17.920Z</time>
      </trkpt>
      <trkpt lat="38.74567333" lon="-9.100515">
        <ele>28.0</ele>
        <time>2019-05-16T08:45:18.904Z</time>
      </trkpt>
      <trkpt lat="38.74567333" lon="-9.100515">
        <ele>28.0</ele>
        <time>2019-05-16T08:45:19.923Z</time>
      </trkpt>
      <trkpt lat="38.74567333" lon="-9.100515">
        <ele>28.0</ele>
        <time>2019-05-16T08:45:20.928Z</time>
      </trkpt>
      <trkpt lat="38.74567333" lon="-9.100515">
        <ele>28.0</ele>
        <time>2019-05-16T08:45:21.900Z</time>
      </trkpt>
      <trkpt lat="38.74567333" lon="-9.100515">
        <ele>28.0</ele>
        <time>2019-05-16T08:45:22.924Z</time>
      </trkpt>
      <trkpt lat="38.74567333" lon="-9.100515">
        <ele>28.0</ele>
        <time>2019-05-16T08:45:23.920Z</time>
      </trkpt>
      <trkpt lat="38.74573833" lon="-9.10058333">
        <ele>30.0</ele>
        <time>2019-05-16T08:45:24.927Z</time>
      </trkpt>
      <trkpt lat="38.74573833" lon="-9.10058333">
        <ele>30.0</ele>
        <time>2019-05-16T08:45:25.919Z</time>
      </trkpt>
      <trkpt lat="38.74571333" lon="-9.10058333">
        <ele>31.0</ele>
        <time>2019-05-16T08:45:26.936Z</time>
      </trkpt>
      <trkpt lat="38.74571333" lon="-9.10058333">
        <ele>31.0</ele>
        <time>2019-05-16T08:45:27.920Z</time>
      </trkpt>
      <trkpt lat="38.74569833" lon="-9.100605">
        <ele>31.0</ele>
        <time>2019-05-16T08:45:28.903Z</time>
      </trkpt>
      <trkpt lat="38.74569833" lon="-9.100605">
        <ele>31.0</ele>
        <time>2019-05-16T08:45:29.921Z</time>
      </trkpt>
      <trkpt lat="38.74564833" lon="-9.10062">
        <ele>31.0</ele>
        <time>2019-05-16T08:45:30.926Z</time>
      </trkpt>
      <trkpt lat="38.74564833" lon="-9.10062">
        <ele>31.0</ele>
        <time>2019-05-16T08:45:31.919Z</time>
      </trkpt>
      <trkpt lat="38.74559667" lon="-9.10063333">
        <ele>31.0</ele>
        <time>2019-05-16T08:45:32.933Z</time>
      </trkpt>
      <trkpt lat="38.74559667" lon="-9.10063333">
        <ele>31.0</ele>
        <time>2019-05-16T08:45:33.919Z</time>
      </trkpt>
      <trkpt lat="38.745555" lon="-9.10065167">
        <ele>31.0</ele>
        <time>2019-05-16T08:45:34.924Z</time>
      </trkpt>
      <trkpt lat="38.745555" lon="-9.10065167">
        <ele>31.0</ele>
        <time>2019-05-16T08:45:35.919Z</time>
      </trkpt>
      <trkpt lat="38.74553333" lon="-9.10067167">
        <ele>31.0</ele>
        <time>2019-05-16T08:45:36.906Z</time>
      </trkpt>
      <trkpt lat="38.74553333" lon="-9.10067167">
        <ele>31.0</ele>
        <time>2019-05-16T08:45:37.931Z</time>
      </trkpt>
      <trkpt lat="38.7455" lon="-9.10068167">
        <ele>31.0</ele>
        <time>2019-05-16T08:45:38.925Z</time>
      </trkpt>
      <trkpt lat="38.7455" lon="-9.10068167">
        <ele>31.0</ele>
        <time>2019-05-16T08:45:39.919Z</time>
      </trkpt>
      <trkpt lat="38.745485" lon="-9.10067833">
        <ele>31.0</ele>
        <time>2019-05-16T08:45:40.924Z</time>
      </trkpt>
      <trkpt lat="38.745485" lon="-9.10067833">
        <ele>31.0</ele>
        <time>2019-05-16T08:45:41.919Z</time>
      </trkpt>
      <trkpt lat="38.74548167" lon="-9.100675">
        <ele>31.0</ele>
        <time>2019-05-16T08:45:42.910Z</time>
      </trkpt>
      <trkpt lat="38.74548167" lon="-9.100675">
        <ele>31.0</ele>
        <time>2019-05-16T08:45:43.905Z</time>
      </trkpt>
      <trkpt lat="38.74548167" lon="-9.10067667">
        <ele>31.0</ele>
        <time>2019-05-16T08:45:44.931Z</time>
      </trkpt>
      <trkpt lat="38.74548167" lon="-9.10068167">
        <ele>31.0</ele>
        <time>2019-05-16T08:45:45.925Z</time>
      </trkpt>
      <trkpt lat="38.74548167" lon="-9.10068167">
        <ele>31.0</ele>
        <time>2019-05-16T08:45:46.919Z</time>
      </trkpt>
      <trkpt lat="38.74545833" lon="-9.100695">
        <ele>32.0</ele>
        <time>2019-05-16T08:45:47.928Z</time>
      </trkpt>
      <trkpt lat="38.74544667" lon="-9.10070167">
        <ele>32.0</ele>
        <time>2019-05-16T08:45:48.927Z</time>
      </trkpt>
      <trkpt lat="38.74544333" lon="-9.10071333">
        <ele>32.0</ele>
        <time>2019-05-16T08:45:49.925Z</time>
      </trkpt>
      <trkpt lat="38.74544333" lon="-9.10071333">
        <ele>32.0</ele>
        <time>2019-05-16T08:45:50.923Z</time>
      </trkpt>
      <trkpt lat="38.74545167" lon="-9.10075167">
        <ele>33.0</ele>
        <time>2019-05-16T08:45:51.925Z</time>
      </trkpt>
      <trkpt lat="38.74545167" lon="-9.10075167">
        <ele>33.0</ele>
        <time>2019-05-16T08:45:52.919Z</time>
      </trkpt>
      <trkpt lat="38.74546" lon="-9.100805">
        <ele>33.0</ele>
        <time>2019-05-16T08:45:53.926Z</time>
      </trkpt>
      <trkpt lat="38.74546833" lon="-9.10084">
        <ele>33.0</ele>
        <time>2019-05-16T08:45:54.935Z</time>
      </trkpt>
      <trkpt lat="38.74546833" lon="-9.10084">
        <ele>33.0</ele>
        <time>2019-05-16T08:45:55.919Z</time>
      </trkpt>
      <trkpt lat="38.74548667" lon="-9.100915">
        <ele>33.0</ele>
        <time>2019-05-16T08:45:56.931Z</time>
      </trkpt>
      <trkpt lat="38.74548667" lon="-9.100915">
        <ele>33.0</ele>
        <time>2019-05-16T08:45:57.931Z</time>
      </trkpt>
      <trkpt lat="38.745515" lon="-9.10099167">
        <ele>33.0</ele>
        <time>2019-05-16T08:45:58.924Z</time>
      </trkpt>
      <trkpt lat="38.745515" lon="-9.10099167">
        <ele>33.0</ele>
        <time>2019-05-16T08:45:59.907Z</time>
      </trkpt>
      <trkpt lat="38.74554" lon="-9.10106167">
        <ele>33.0</ele>
        <time>2019-05-16T08:46:00.903Z</time>
      </trkpt>
      <trkpt lat="38.74554" lon="-9.10106167">
        <ele>33.0</ele>
        <time>2019-05-16T08:46:01.922Z</time>
      </trkpt>
      <trkpt lat="38.745565" lon="-9.10113">
        <ele>33.0</ele>
        <time>2019-05-16T08:46:02.926Z</time>
      </trkpt>
      <trkpt lat="38.745565" lon="-9.10113">
        <ele>33.0</ele>
        <time>2019-05-16T08:46:03.918Z</time>
      </trkpt>
      <trkpt lat="38.745605" lon="-9.10121">
        <ele>33.0</ele>
        <time>2019-05-16T08:46:04.925Z</time>
      </trkpt>
      <trkpt lat="38.745605" lon="-9.10121">
        <ele>33.0</ele>
        <time>2019-05-16T08:46:05.919Z</time>
      </trkpt>
      <trkpt lat="38.74562167" lon="-9.10129">
        <ele>33.0</ele>
        <time>2019-05-16T08:46:06.911Z</time>
      </trkpt>
      <trkpt lat="38.74562167" lon="-9.10129">
        <ele>33.0</ele>
        <time>2019-05-16T08:46:07.923Z</time>
      </trkpt>
      <trkpt lat="38.74564167" lon="-9.10135667">
        <ele>33.0</ele>
        <time>2019-05-16T08:46:08.939Z</time>
      </trkpt>
      <trkpt lat="38.74564167" lon="-9.10135667">
        <ele>33.0</ele>
        <time>2019-05-16T08:46:09.934Z</time>
      </trkpt>
      <trkpt lat="38.74565" lon="-9.10141167">
        <ele>33.0</ele>
        <time>2019-05-16T08:46:10.907Z</time>
      </trkpt>
      <trkpt lat="38.74565" lon="-9.10141167">
        <ele>33.0</ele>
        <time>2019-05-16T08:46:11.919Z</time>
      </trkpt>
      <trkpt lat="38.74565667" lon="-9.10147">
        <ele>33.0</ele>
        <time>2019-05-16T08:46:12.928Z</time>
      </trkpt>
      <trkpt lat="38.74565667" lon="-9.10147">
        <ele>33.0</ele>
        <time>2019-05-16T08:46:13.922Z</time>
      </trkpt>
      <trkpt lat="38.74566833" lon="-9.10152333">
        <ele>33.0</ele>
        <time>2019-05-16T08:46:14.933Z</time>
      </trkpt>
      <trkpt lat="38.74566833" lon="-9.10152333">
        <ele>33.0</ele>
        <time>2019-05-16T08:46:15.914Z</time>
      </trkpt>
      <trkpt lat="38.74569167" lon="-9.10157">
        <ele>33.0</ele>
        <time>2019-05-16T08:46:16.944Z</time>
      </trkpt>
      <trkpt lat="38.74569167" lon="-9.10157">
        <ele>33.0</ele>
        <time>2019-05-16T08:46:17.911Z</time>
      </trkpt>
      <trkpt lat="38.74571" lon="-9.101615">
        <ele>32.0</ele>
        <time>2019-05-16T08:46:18.923Z</time>
      </trkpt>
      <trkpt lat="38.74571" lon="-9.101615">
        <ele>32.0</ele>
        <time>2019-05-16T08:46:19.900Z</time>
      </trkpt>
      <trkpt lat="38.74573" lon="-9.101665">
        <ele>32.0</ele>
        <time>2019-05-16T08:46:20.935Z</time>
      </trkpt>
      <trkpt lat="38.74573" lon="-9.101665">
        <ele>32.0</ele>
        <time>2019-05-16T08:46:21.911Z</time>
      </trkpt>
      <trkpt lat="38.745745" lon="-9.10171833">
        <ele>33.0</ele>
        <time>2019-05-16T08:46:22.917Z</time>
      </trkpt>
      <trkpt lat="38.745745" lon="-9.10171833">
        <ele>33.0</ele>
        <time>2019-05-16T08:46:23.907Z</time>
      </trkpt>
      <trkpt lat="38.74575667" lon="-9.10177">
        <ele>33.0</ele>
        <time>2019-05-16T08:46:24.915Z</time>
      </trkpt>
      <trkpt lat="38.74575667" lon="-9.10177">
        <ele>33.0</ele>
        <time>2019-05-16T08:46:25.929Z</time>
      </trkpt>
      <trkpt lat="38.745765" lon="-9.10181167">
        <ele>33.0</ele>
        <time>2019-05-16T08:46:26.922Z</time>
      </trkpt>
      <trkpt lat="38.745765" lon="-9.10181167">
        <ele>33.0</ele>
        <time>2019-05-16T08:46:27.922Z</time>
      </trkpt>
      <trkpt lat="38.745785" lon="-9.10183833">
        <ele>33.0</ele>
        <time>2019-05-16T08:46:28.927Z</time>
      </trkpt>
      <trkpt lat="38.745785" lon="-9.10183833">
        <ele>33.0</ele>
        <time>2019-05-16T08:46:29.933Z</time>
      </trkpt>
      <trkpt lat="38.74579833" lon="-9.101865">
        <ele>33.0</ele>
        <time>2019-05-16T08:46:30.926Z</time>
      </trkpt>
      <trkpt lat="38.74579833" lon="-9.101865">
        <ele>33.0</ele>
        <time>2019-05-16T08:46:31.919Z</time>
      </trkpt>
      <trkpt lat="38.74580833" lon="-9.10191833">
        <ele>33.0</ele>
        <time>2019-05-16T08:46:32.931Z</time>
      </trkpt>
      <trkpt lat="38.74580833" lon="-9.10191833">
        <ele>33.0</ele>
        <time>2019-05-16T08:46:33.921Z</time>
      </trkpt>
      <trkpt lat="38.74581" lon="-9.10198333">
        <ele>33.0</ele>
        <time>2019-05-16T08:46:34.925Z</time>
      </trkpt>
      <trkpt lat="38.74581" lon="-9.10198333">
        <ele>33.0</ele>
        <time>2019-05-16T08:46:35.919Z</time>
      </trkpt>
      <trkpt lat="38.74582333" lon="-9.10203667">
        <ele>33.0</ele>
        <time>2019-05-16T08:46:36.902Z</time>
      </trkpt>
      <trkpt lat="38.74582333" lon="-9.10203667">
        <ele>33.0</ele>
        <time>2019-05-16T08:46:37.925Z</time>
      </trkpt>
      <trkpt lat="38.74583167" lon="-9.10209333">
        <ele>33.0</ele>
        <time>2019-05-16T08:46:38.925Z</time>
      </trkpt>
      <trkpt lat="38.74583167" lon="-9.10209333">
        <ele>33.0</ele>
        <time>2019-05-16T08:46:39.919Z</time>
      </trkpt>
      <trkpt lat="38.74583833" lon="-9.10214167">
        <ele>33.0</ele>
        <time>2019-05-16T08:46:40.925Z</time>
      </trkpt>
      <trkpt lat="38.74583833" lon="-9.10214167">
        <ele>33.0</ele>
        <time>2019-05-16T08:46:41.919Z</time>
      </trkpt>
      <trkpt lat="38.74585" lon="-9.10218">
        <ele>33.0</ele>
        <time>2019-05-16T08:46:42.906Z</time>
      </trkpt>
      <trkpt lat="38.74585" lon="-9.10218">
        <ele>33.0</ele>
        <time>2019-05-16T08:46:43.923Z</time>
      </trkpt>
      <trkpt lat="38.74586" lon="-9.10221333">
        <ele>33.0</ele>
        <time>2019-05-16T08:46:44.930Z</time>
      </trkpt>
      <trkpt lat="38.74586" lon="-9.10221333">
        <ele>33.0</ele>
        <time>2019-05-16T08:46:45.919Z</time>
      </trkpt>
      <trkpt lat="38.74585833" lon="-9.10222667">
        <ele>33.0</ele>
        <time>2019-05-16T08:46:46.925Z</time>
      </trkpt>
      <trkpt lat="38.74585833" lon="-9.10222667">
        <ele>33.0</ele>
        <time>2019-05-16T08:46:47.925Z</time>
      </trkpt>
      <trkpt lat="38.74586" lon="-9.10222833">
        <ele>33.0</ele>
        <time>2019-05-16T08:46:48.934Z</time>
      </trkpt>
      <trkpt lat="38.74586" lon="-9.10222833">
        <ele>33.0</ele>
        <time>2019-05-16T08:46:49.919Z</time>
      </trkpt>
      <trkpt lat="38.74585833" lon="-9.10221667">
        <ele>34.0</ele>
        <time>2019-05-16T08:46:50.925Z</time>
      </trkpt>
      <trkpt lat="38.74586833" lon="-9.10221667">
        <ele>34.0</ele>
        <time>2019-05-16T08:46:51.924Z</time>
      </trkpt>
      <trkpt lat="38.74586833" lon="-9.10221667">
        <ele>34.0</ele>
        <time>2019-05-16T08:46:52.919Z</time>
      </trkpt>
      <trkpt lat="38.74587667" lon="-9.10220833">
        <ele>34.0</ele>
        <time>2019-05-16T08:46:53.903Z</time>
      </trkpt>
      <trkpt lat="38.74587667" lon="-9.10220833">
        <ele>34.0</ele>
        <time>2019-05-16T08:46:54.928Z</time>
      </trkpt>
      <trkpt lat="38.74587667" lon="-9.10220833">
        <ele>34.0</ele>
        <time>2019-05-16T08:46:55.919Z</time>
      </trkpt>
      <trkpt lat="38.74587667" lon="-9.10220833">
        <ele>34.0</ele>
        <time>2019-05-16T08:46:56.925Z</time>
      </trkpt>
      <trkpt lat="38.74587667" lon="-9.10220833">
        <ele>34.0</ele>
        <time>2019-05-16T08:46:57.931Z</time>
      </trkpt>
      <trkpt lat="38.74587667" lon="-9.10220833">
        <ele>34.0</ele>
        <time>2019-05-16T08:46:58.924Z</time>
      </trkpt>
      <trkpt lat="38.74587667" lon="-9.10220833">
        <ele>34.0</ele>
        <time>2019-05-16T08:46:59.924Z</time>
      </trkpt>
      <trkpt lat="38.74587667" lon="-9.10220833">
        <ele>34.0</ele>
        <time>2019-05-16T08:47:00.928Z</time>
      </trkpt>
      <trkpt lat="38.74587667" lon="-9.10220833">
        <ele>34.0</ele>
        <time>2019-05-16T08:47:01.919Z</time>
      </trkpt>
      <trkpt lat="38.74587667" lon="-9.10220833">
        <ele>34.0</ele>
        <time>2019-05-16T08:47:02.922Z</time>
      </trkpt>
      <trkpt lat="38.74587667" lon="-9.10220833">
        <ele>34.0</ele>
        <time>2019-05-16T08:47:03.905Z</time>
      </trkpt>
      <trkpt lat="38.74587667" lon="-9.10220833">
        <ele>34.0</ele>
        <time>2019-05-16T08:47:04.925Z</time>
      </trkpt>
      <trkpt lat="38.74587667" lon="-9.10220833">
        <ele>34.0</ele>
        <time>2019-05-16T08:47:05.919Z</time>
      </trkpt>
      <trkpt lat="38.74587667" lon="-9.10220833">
        <ele>34.0</ele>
        <time>2019-05-16T08:47:06.902Z</time>
      </trkpt>
      <trkpt lat="38.74587667" lon="-9.10220833">
        <ele>34.0</ele>
        <time>2019-05-16T08:47:07.924Z</time>
      </trkpt>
      <trkpt lat="38.74587667" lon="-9.10220833">
        <ele>34.0</ele>
        <time>2019-05-16T08:47:08.925Z</time>
      </trkpt>
      <trkpt lat="38.74587667" lon="-9.10220833">
        <ele>34.0</ele>
        <time>2019-05-16T08:47:09.919Z</time>
      </trkpt>
      <trkpt lat="38.74587667" lon="-9.10220833">
        <ele>34.0</ele>
        <time>2019-05-16T08:47:10.924Z</time>
      </trkpt>
      <trkpt lat="38.74587667" lon="-9.10220833">
        <ele>34.0</ele>
        <time>2019-05-16T08:47:11.916Z</time>
      </trkpt>
      <trkpt lat="38.74587667" lon="-9.10220833">
        <ele>34.0</ele>
        <time>2019-05-16T08:47:12.898Z</time>
      </trkpt>
      <trkpt lat="38.74587667" lon="-9.10220833">
        <ele>34.0</ele>
        <time>2019-05-16T08:47:13.921Z</time>
      </trkpt>
      <trkpt lat="38.74587667" lon="-9.10220833">
        <ele>34.0</ele>
        <time>2019-05-16T08:47:14.925Z</time>
      </trkpt>
      <trkpt lat="38.74587667" lon="-9.10220833">
        <ele>34.0</ele>
        <time>2019-05-16T08:47:15.925Z</time>
      </trkpt>
      <trkpt lat="38.74587667" lon="-9.10220833">
        <ele>34.0</ele>
        <time>2019-05-16T08:47:16.919Z</time>
      </trkpt>
      <trkpt lat="38.74587667" lon="-9.10220833">
        <ele>34.0</ele>
        <time>2019-05-16T08:47:17.924Z</time>
      </trkpt>
      <trkpt lat="38.74587667" lon="-9.10220833">
        <ele>34.0</ele>
        <time>2019-05-16T08:47:18.900Z</time>
      </trkpt>
      <trkpt lat="38.74587667" lon="-9.10220833">
        <ele>34.0</ele>
        <time>2019-05-16T08:47:19.923Z</time>
      </trkpt>
      <trkpt lat="38.74587667" lon="-9.10220833">
        <ele>34.0</ele>
        <time>2019-05-16T08:47:20.931Z</time>
      </trkpt>
      <trkpt lat="38.74587667" lon="-9.10220833">
        <ele>34.0</ele>
        <time>2019-05-16T08:47:21.919Z</time>
      </trkpt>
      <trkpt lat="38.74587667" lon="-9.10220833">
        <ele>34.0</ele>
        <time>2019-05-16T08:47:22.926Z</time>
      </trkpt>
      <trkpt lat="38.74587667" lon="-9.10220833">
        <ele>34.0</ele>
        <time>2019-05-16T08:47:23.918Z</time>
      </trkpt>
      <trkpt lat="38.74587667" lon="-9.10220833">
        <ele>34.0</ele>
        <time>2019-05-16T08:47:24.906Z</time>
      </trkpt>
      <trkpt lat="38.74587667" lon="-9.10220833">
        <ele>34.0</ele>
        <time>2019-05-16T08:47:25.929Z</time>
      </trkpt>
      <trkpt lat="38.74587667" lon="-9.10220833">
        <ele>34.0</ele>
        <time>2019-05-16T08:47:26.922Z</time>
      </trkpt>
      <trkpt lat="38.74587667" lon="-9.10220833">
        <ele>34.0</ele>
        <time>2019-05-16T08:47:27.921Z</time>
      </trkpt>
      <trkpt lat="38.74587667" lon="-9.10220833">
        <ele>34.0</ele>
        <time>2019-05-16T08:47:28.898Z</time>
      </trkpt>
      <trkpt lat="38.74587667" lon="-9.10220833">
        <ele>34.0</ele>
        <time>2019-05-16T08:47:29.921Z</time>
      </trkpt>
      <trkpt lat="38.74587667" lon="-9.10220833">
        <ele>34.0</ele>
        <time>2019-05-16T08:47:30.926Z</time>
      </trkpt>
      <trkpt lat="38.74587667" lon="-9.10220833">
        <ele>34.0</ele>
        <time>2019-05-16T08:47:31.919Z</time>
      </trkpt>
      <trkpt lat="38.74587667" lon="-9.10220833">
        <ele>34.0</ele>
        <time>2019-05-16T08:47:32.924Z</time>
      </trkpt>
      <trkpt lat="38.74587667" lon="-9.10220833">
        <ele>34.0</ele>
        <time>2019-05-16T08:47:33.919Z</time>
      </trkpt>
      <trkpt lat="38.74587667" lon="-9.10220833">
        <ele>34.0</ele>
        <time>2019-05-16T08:47:34.904Z</time>
      </trkpt>
      <trkpt lat="38.74587667" lon="-9.10220833">
        <ele>34.0</ele>
        <time>2019-05-16T08:47:35.927Z</time>
      </trkpt>
      <trkpt lat="38.74587667" lon="-9.10220833">
        <ele>34.0</ele>
        <time>2019-05-16T08:47:36.926Z</time>
      </trkpt>
      <trkpt lat="38.74587667" lon="-9.10220833">
        <ele>34.0</ele>
        <time>2019-05-16T08:47:37.925Z</time>
      </trkpt>
      <trkpt lat="38.74587667" lon="-9.10220833">
        <ele>34.0</ele>
        <time>2019-05-16T08:47:38.925Z</time>
      </trkpt>
      <trkpt lat="38.74587667" lon="-9.10220833">
        <ele>34.0</ele>
        <time>2019-05-16T08:47:39.919Z</time>
      </trkpt>
      <trkpt lat="38.74587667" lon="-9.10220833">
        <ele>34.0</ele>
        <time>2019-05-16T08:47:40.924Z</time>
      </trkpt>
      <trkpt lat="38.74587667" lon="-9.10220833">
        <ele>34.0</ele>
        <time>2019-05-16T08:47:41.919Z</time>
      </trkpt>
      <trkpt lat="38.74587667" lon="-9.10220833">
        <ele>34.0</ele>
        <time>2019-05-16T08:47:42.901Z</time>
      </trkpt>
      <trkpt lat="38.74587667" lon="-9.10220833">
        <ele>34.0</ele>
        <time>2019-05-16T08:47:43.924Z</time>
      </trkpt>
      <trkpt lat="38.74587667" lon="-9.10220833">
        <ele>34.0</ele>
        <time>2019-05-16T08:47:44.922Z</time>
      </trkpt>
      <trkpt lat="38.74587667" lon="-9.10220833">
        <ele>34.0</ele>
        <time>2019-05-16T08:47:45.919Z</time>
      </trkpt>
      <trkpt lat="38.74596167" lon="-9.10225167">
        <ele>38.0</ele>
        <time>2019-05-16T08:47:46.925Z</time>
      </trkpt>
      <trkpt lat="38.74596167" lon="-9.10225167">
        <ele>38.0</ele>
        <time>2019-05-16T08:47:47.931Z</time>
      </trkpt>
      <trkpt lat="38.74595833" lon="-9.10224833">
        <ele>39.0</ele>
        <time>2019-05-16T08:47:48.926Z</time>
      </trkpt>
      <trkpt lat="38.74595833" lon="-9.10224833">
        <ele>39.0</ele>
        <time>2019-05-16T08:47:49.918Z</time>
      </trkpt>
      <trkpt lat="38.745955" lon="-9.102245">
        <ele>39.0</ele>
        <time>2019-05-16T08:47:50.900Z</time>
      </trkpt>
      <trkpt lat="38.745955" lon="-9.102245">
        <ele>39.0</ele>
        <time>2019-05-16T08:47:51.923Z</time>
      </trkpt>
      <trkpt lat="38.745955" lon="-9.102245">
        <ele>39.0</ele>
        <time>2019-05-16T08:47:52.924Z</time>
      </trkpt>
      <trkpt lat="38.745955" lon="-9.102245">
        <ele>39.0</ele>
        <time>2019-05-16T08:47:53.919Z</time>
      </trkpt>
      <trkpt lat="38.74593" lon="-9.10221">
        <ele>40.0</ele>
        <time>2019-05-16T08:47:54.901Z</time>
      </trkpt>
      <trkpt lat="38.74593" lon="-9.10221">
        <ele>40.0</ele>
        <time>2019-05-16T08:47:55.923Z</time>
      </trkpt>
      <trkpt lat="38.74591833" lon="-9.102175">
        <ele>40.0</ele>
        <time>2019-05-16T08:47:56.925Z</time>
      </trkpt>
      <trkpt lat="38.74591833" lon="-9.102175">
        <ele>40.0</ele>
        <time>2019-05-16T08:47:57.923Z</time>
      </trkpt>
      <trkpt lat="38.74589333" lon="-9.10213167">
        <ele>40.0</ele>
        <time>2019-05-16T08:47:58.904Z</time>
      </trkpt>
      <trkpt lat="38.74589333" lon="-9.10213167">
        <ele>40.0</ele>
        <time>2019-05-16T08:47:59.927Z</time>
      </trkpt>
      <trkpt lat="38.74586667" lon="-9.10208167">
        <ele>40.0</ele>
        <time>2019-05-16T08:48:00.927Z</time>
      </trkpt>
      <trkpt lat="38.74586667" lon="-9.10208167">
        <ele>40.0</ele>
        <time>2019-05-16T08:48:01.919Z</time>
      </trkpt>
      <trkpt lat="38.74585833" lon="-9.102045">
        <ele>39.0</ele>
        <time>2019-05-16T08:48:02.925Z</time>
      </trkpt>
      <trkpt lat="38.74585833" lon="-9.102045">
        <ele>39.0</ele>
        <time>2019-05-16T08:48:03.919Z</time>
      </trkpt>
      <trkpt lat="38.74584333" lon="-9.10198833">
        <ele>39.0</ele>
        <time>2019-05-16T08:48:04.935Z</time>
      </trkpt>
      <trkpt lat="38.74584333" lon="-9.10198833">
        <ele>39.0</ele>
        <time>2019-05-16T08:48:05.920Z</time>
      </trkpt>
      <trkpt lat="38.74582833" lon="-9.10194333">
        <ele>39.0</ele>
        <time>2019-05-16T08:48:06.927Z</time>
      </trkpt>
      <trkpt lat="38.74582833" lon="-9.10194333">
        <ele>39.0</ele>
        <time>2019-05-16T08:48:07.924Z</time>
      </trkpt>
      <trkpt lat="38.74581167" lon="-9.10189833">
        <ele>39.0</ele>
        <time>2019-05-16T08:48:08.932Z</time>
      </trkpt>
      <trkpt lat="38.74581167" lon="-9.10189833">
        <ele>39.0</ele>
        <time>2019-05-16T08:48:09.920Z</time>
      </trkpt>
      <trkpt lat="38.74580167" lon="-9.101845">
        <ele>38.0</ele>
        <time>2019-05-16T08:48:10.925Z</time>
      </trkpt>
      <trkpt lat="38.74580167" lon="-9.101845">
        <ele>38.0</ele>
        <time>2019-05-16T08:48:11.920Z</time>
      </trkpt>
      <trkpt lat="38.74578333" lon="-9.101795">
        <ele>38.0</ele>
        <time>2019-05-16T08:48:12.926Z</time>
      </trkpt>
      <trkpt lat="38.74578333" lon="-9.101795">
        <ele>38.0</ele>
        <time>2019-05-16T08:48:13.920Z</time>
      </trkpt>
      <trkpt lat="38.74576167" lon="-9.10173833">
        <ele>37.0</ele>
        <time>2019-05-16T08:48:14.910Z</time>
      </trkpt>
      <trkpt lat="38.74576167" lon="-9.10173833">
        <ele>37.0</ele>
        <time>2019-05-16T08:48:15.928Z</time>
      </trkpt>
      <trkpt lat="38.74574667" lon="-9.10168833">
        <ele>37.0</ele>
        <time>2019-05-16T08:48:16.925Z</time>
      </trkpt>
      <trkpt lat="38.74574667" lon="-9.10168833">
        <ele>37.0</ele>
        <time>2019-05-16T08:48:17.927Z</time>
      </trkpt>
      <trkpt lat="38.745735" lon="-9.10162833">
        <ele>36.0</ele>
        <time>2019-05-16T08:48:18.927Z</time>
      </trkpt>
      <trkpt lat="38.745735" lon="-9.10162833">
        <ele>36.0</ele>
        <time>2019-05-16T08:48:19.919Z</time>
      </trkpt>
      <trkpt lat="38.745735" lon="-9.10162833">
        <ele>36.0</ele>
        <time>2019-05-16T08:48:20.961Z</time>
      </trkpt>
      <trkpt lat="38.745725" lon="-9.101565">
        <ele>35.0</ele>
        <time>2019-05-16T08:48:21.929Z</time>
      </trkpt>
      <trkpt lat="38.74572833" lon="-9.10152167">
        <ele>35.0</ele>
        <time>2019-05-16T08:48:22.898Z</time>
      </trkpt>
      <trkpt lat="38.74572833" lon="-9.10152167">
        <ele>35.0</ele>
        <time>2019-05-16T08:48:23.935Z</time>
      </trkpt>
      <trkpt lat="38.745735" lon="-9.10151333">
        <ele>34.0</ele>
        <time>2019-05-16T08:48:24.902Z</time>
      </trkpt>
      <trkpt lat="38.745735" lon="-9.10151333">
        <ele>34.0</ele>
        <time>2019-05-16T08:48:25.919Z</time>
      </trkpt>
      <trkpt lat="38.74572667" lon="-9.10151333">
        <ele>34.0</ele>
        <time>2019-05-16T08:48:26.928Z</time>
      </trkpt>
      <trkpt lat="38.74572667" lon="-9.10151333">
        <ele>34.0</ele>
        <time>2019-05-16T08:48:27.902Z</time>
      </trkpt>
      <trkpt lat="38.74572667" lon="-9.101505">
        <ele>33.0</ele>
        <time>2019-05-16T08:48:28.925Z</time>
      </trkpt>
      <trkpt lat="38.74572667" lon="-9.101505">
        <ele>33.0</ele>
        <time>2019-05-16T08:48:29.919Z</time>
      </trkpt>
      <trkpt lat="38.74573833" lon="-9.10149333">
        <ele>33.0</ele>
        <time>2019-05-16T08:48:30.924Z</time>
      </trkpt>
      <trkpt lat="38.74573833" lon="-9.10149333">
        <ele>33.0</ele>
        <time>2019-05-16T08:48:31.920Z</time>
      </trkpt>
      <trkpt lat="38.74575667" lon="-9.10148833">
        <ele>33.0</ele>
        <time>2019-05-16T08:48:32.922Z</time>
      </trkpt>
      <trkpt lat="38.74575667" lon="-9.10148833">
        <ele>33.0</ele>
        <time>2019-05-16T08:48:33.919Z</time>
      </trkpt>
      <trkpt lat="38.74578167" lon="-9.10148833">
        <ele>34.0</ele>
        <time>2019-05-16T08:48:34.904Z</time>
      </trkpt>
      <trkpt lat="38.74578167" lon="-9.10148833">
        <ele>34.0</ele>
        <time>2019-05-16T08:48:35.928Z</time>
      </trkpt>
      <trkpt lat="38.74580833" lon="-9.10148167">
        <ele>34.0</ele>
        <time>2019-05-16T08:48:36.927Z</time>
      </trkpt>
      <trkpt lat="38.74580833" lon="-9.10148167">
        <ele>34.0</ele>
        <time>2019-05-16T08:48:37.931Z</time>
      </trkpt>
      <trkpt lat="38.74583" lon="-9.10147167">
        <ele>34.0</ele>
        <time>2019-05-16T08:48:38.902Z</time>
      </trkpt>
      <trkpt lat="38.74583" lon="-9.10147167">
        <ele>34.0</ele>
        <time>2019-05-16T08:48:39.934Z</time>
      </trkpt>
      <trkpt lat="38.74585833" lon="-9.10147167">
        <ele>35.0</ele>
        <time>2019-05-16T08:48:40.901Z</time>
      </trkpt>
      <trkpt lat="38.74585833" lon="-9.10147167">
        <ele>35.0</ele>
        <time>2019-05-16T08:48:41.914Z</time>
      </trkpt>
      <trkpt lat="38.74589" lon="-9.101465">
        <ele>36.0</ele>
        <time>2019-05-16T08:48:42.922Z</time>
      </trkpt>
      <trkpt lat="38.74589" lon="-9.101465">
        <ele>36.0</ele>
        <time>2019-05-16T08:48:43.930Z</time>
      </trkpt>
      <trkpt lat="38.74591667" lon="-9.10146">
        <ele>37.0</ele>
        <time>2019-05-16T08:48:44.900Z</time>
      </trkpt>
      <trkpt lat="38.74591667" lon="-9.10146">
        <ele>37.0</ele>
        <time>2019-05-16T08:48:45.912Z</time>
      </trkpt>
      <trkpt lat="38.74595667" lon="-9.10144167">
        <ele>37.0</ele>
        <time>2019-05-16T08:48:46.920Z</time>
      </trkpt>
      <trkpt lat="38.74595667" lon="-9.10144167">
        <ele>37.0</ele>
        <time>2019-05-16T08:48:47.933Z</time>
      </trkpt>
      <trkpt lat="38.74603667" lon="-9.10143667">
        <ele>38.0</ele>
        <time>2019-05-16T08:48:48.907Z</time>
      </trkpt>
      <trkpt lat="38.74603667" lon="-9.10143667">
        <ele>38.0</ele>
        <time>2019-05-16T08:48:49.900Z</time>
      </trkpt>
      <trkpt lat="38.74610667" lon="-9.10142667">
        <ele>39.0</ele>
        <time>2019-05-16T08:48:50.910Z</time>
      </trkpt>
      <trkpt lat="38.74610667" lon="-9.10142667">
        <ele>39.0</ele>
        <time>2019-05-16T08:48:51.911Z</time>
      </trkpt>
      <trkpt lat="38.74617667" lon="-9.10141167">
        <ele>39.0</ele>
        <time>2019-05-16T08:48:52.920Z</time>
      </trkpt>
      <trkpt lat="38.74617667" lon="-9.10141167">
        <ele>39.0</ele>
        <time>2019-05-16T08:48:53.899Z</time>
      </trkpt>
      <trkpt lat="38.74623667" lon="-9.101395">
        <ele>39.0</ele>
        <time>2019-05-16T08:48:54.905Z</time>
      </trkpt>
      <trkpt lat="38.74623667" lon="-9.101395">
        <ele>39.0</ele>
        <time>2019-05-16T08:48:55.931Z</time>
      </trkpt>
      <trkpt lat="38.74628833" lon="-9.10137833">
        <ele>40.0</ele>
        <time>2019-05-16T08:48:56.917Z</time>
      </trkpt>
      <trkpt lat="38.74628833" lon="-9.10137833">
        <ele>40.0</ele>
        <time>2019-05-16T08:48:57.934Z</time>
      </trkpt>
      <trkpt lat="38.74633667" lon="-9.10136833">
        <ele>41.0</ele>
        <time>2019-05-16T08:48:58.900Z</time>
      </trkpt>
      <trkpt lat="38.74633667" lon="-9.10136833">
        <ele>41.0</ele>
        <time>2019-05-16T08:48:59.914Z</time>
      </trkpt>
      <trkpt lat="38.74638167" lon="-9.10136833">
        <ele>42.0</ele>
        <time>2019-05-16T08:49:00.897Z</time>
      </trkpt>
      <trkpt lat="38.74638167" lon="-9.10136833">
        <ele>42.0</ele>
        <time>2019-05-16T08:49:01.897Z</time>
      </trkpt>
      <trkpt lat="38.74642" lon="-9.10138">
        <ele>43.0</ele>
        <time>2019-05-16T08:49:02.904Z</time>
      </trkpt>
      <trkpt lat="38.74642" lon="-9.10138">
        <ele>43.0</ele>
        <time>2019-05-16T08:49:03.916Z</time>
      </trkpt>
      <trkpt lat="38.746455" lon="-9.10137333">
        <ele>44.0</ele>
        <time>2019-05-16T08:49:04.930Z</time>
      </trkpt>
      <trkpt lat="38.746455" lon="-9.10137333">
        <ele>44.0</ele>
        <time>2019-05-16T08:49:05.913Z</time>
      </trkpt>
      <trkpt lat="38.74649333" lon="-9.10136333">
        <ele>45.0</ele>
        <time>2019-05-16T08:49:06.921Z</time>
      </trkpt>
      <trkpt lat="38.74649333" lon="-9.10136333">
        <ele>45.0</ele>
        <time>2019-05-16T08:49:07.900Z</time>
      </trkpt>
      <trkpt lat="38.74653833" lon="-9.10135833">
        <ele>46.0</ele>
        <time>2019-05-16T08:49:08.906Z</time>
      </trkpt>
      <trkpt lat="38.74653833" lon="-9.10135833">
        <ele>46.0</ele>
        <time>2019-05-16T08:49:09.922Z</time>
      </trkpt>
      <trkpt lat="38.74658667" lon="-9.10134833">
        <ele>46.0</ele>
        <time>2019-05-16T08:49:10.937Z</time>
      </trkpt>
      <trkpt lat="38.74658667" lon="-9.10134833">
        <ele>46.0</ele>
        <time>2019-05-16T08:49:11.917Z</time>
      </trkpt>
      <trkpt lat="38.74664" lon="-9.10135333">
        <ele>45.0</ele>
        <time>2019-05-16T08:49:12.928Z</time>
      </trkpt>
      <trkpt lat="38.74664" lon="-9.10135333">
        <ele>45.0</ele>
        <time>2019-05-16T08:49:13.899Z</time>
      </trkpt>
      <trkpt lat="38.74669167" lon="-9.101335">
        <ele>44.0</ele>
        <time>2019-05-16T08:49:14.909Z</time>
      </trkpt>
      <trkpt lat="38.74669167" lon="-9.101335">
        <ele>44.0</ele>
        <time>2019-05-16T08:49:15.935Z</time>
      </trkpt>
      <trkpt lat="38.74674333" lon="-9.10131167">
        <ele>43.0</ele>
        <time>2019-05-16T08:49:16.904Z</time>
      </trkpt>
      <trkpt lat="38.74676833" lon="-9.10129667">
        <ele>43.0</ele>
        <time>2019-05-16T08:49:17.923Z</time>
      </trkpt>
      <trkpt lat="38.74679167" lon="-9.10129">
        <ele>43.0</ele>
        <time>2019-05-16T08:49:18.903Z</time>
      </trkpt>
      <trkpt lat="38.74679167" lon="-9.10129">
        <ele>43.0</ele>
        <time>2019-05-16T08:49:19.913Z</time>
      </trkpt>
      <trkpt lat="38.74683333" lon="-9.101265">
        <ele>43.0</ele>
        <time>2019-05-16T08:49:20.898Z</time>
      </trkpt>
      <trkpt lat="38.74683333" lon="-9.101265">
        <ele>43.0</ele>
        <time>2019-05-16T08:49:21.912Z</time>
      </trkpt>
      <trkpt lat="38.746885" lon="-9.101255">
        <ele>43.0</ele>
        <time>2019-05-16T08:49:22.919Z</time>
      </trkpt>
      <trkpt lat="38.746885" lon="-9.101255">
        <ele>43.0</ele>
        <time>2019-05-16T08:49:23.933Z</time>
      </trkpt>
      <trkpt lat="38.74692667" lon="-9.10125167">
        <ele>43.0</ele>
        <time>2019-05-16T08:49:24.940Z</time>
      </trkpt>
      <trkpt lat="38.74692667" lon="-9.10125167">
        <ele>43.0</ele>
        <time>2019-05-16T08:49:25.911Z</time>
      </trkpt>
      <trkpt lat="38.74697833" lon="-9.10123667">
        <ele>43.0</ele>
        <time>2019-05-16T08:49:26.922Z</time>
      </trkpt>
      <trkpt lat="38.74697833" lon="-9.10123667">
        <ele>43.0</ele>
        <time>2019-05-16T08:49:27.932Z</time>
      </trkpt>
      <trkpt lat="38.74703167" lon="-9.10124">
        <ele>45.0</ele>
        <time>2019-05-16T08:49:28.899Z</time>
      </trkpt>
      <trkpt lat="38.74703167" lon="-9.10124">
        <ele>45.0</ele>
        <time>2019-05-16T08:49:29.915Z</time>
      </trkpt>
      <trkpt lat="38.74709" lon="-9.10122833">
        <ele>46.0</ele>
        <time>2019-05-16T08:49:30.922Z</time>
      </trkpt>
      <trkpt lat="38.74709" lon="-9.10122833">
        <ele>46.0</ele>
        <time>2019-05-16T08:49:31.908Z</time>
      </trkpt>
      <trkpt lat="38.747165" lon="-9.101225">
        <ele>46.0</ele>
        <time>2019-05-16T08:49:32.914Z</time>
      </trkpt>
      <trkpt lat="38.74720333" lon="-9.10122667">
        <ele>46.0</ele>
        <time>2019-05-16T08:49:33.916Z</time>
      </trkpt>
      <trkpt lat="38.74720333" lon="-9.10122667">
        <ele>46.0</ele>
        <time>2019-05-16T08:49:34.929Z</time>
      </trkpt>
      <trkpt lat="38.74726667" lon="-9.10124667">
        <ele>46.0</ele>
        <time>2019-05-16T08:49:35.906Z</time>
      </trkpt>
      <trkpt lat="38.74729833" lon="-9.10124667">
        <ele>47.0</ele>
        <time>2019-05-16T08:49:36.924Z</time>
      </trkpt>
      <trkpt lat="38.74729833" lon="-9.10124667">
        <ele>47.0</ele>
        <time>2019-05-16T08:49:37.933Z</time>
      </trkpt>
      <trkpt lat="38.74737333" lon="-9.10124667">
        <ele>46.0</ele>
        <time>2019-05-16T08:49:38.900Z</time>
      </trkpt>
      <trkpt lat="38.74737333" lon="-9.10124667">
        <ele>46.0</ele>
        <time>2019-05-16T08:49:39.920Z</time>
      </trkpt>
      <trkpt lat="38.74745667" lon="-9.10125167">
        <ele>44.0</ele>
        <time>2019-05-16T08:49:40.933Z</time>
      </trkpt>
      <trkpt lat="38.74745667" lon="-9.10125167">
        <ele>44.0</ele>
        <time>2019-05-16T08:49:41.915Z</time>
      </trkpt>
      <trkpt lat="38.74755333" lon="-9.10125667">
        <ele>40.0</ele>
        <time>2019-05-16T08:49:42.903Z</time>
      </trkpt>
      <trkpt lat="38.74755333" lon="-9.10125667">
        <ele>40.0</ele>
        <time>2019-05-16T08:49:43.900Z</time>
      </trkpt>
      <trkpt lat="38.74763167" lon="-9.10123833">
        <ele>38.0</ele>
        <time>2019-05-16T08:49:44.907Z</time>
      </trkpt>
      <trkpt lat="38.74763167" lon="-9.10123833">
        <ele>38.0</ele>
        <time>2019-05-16T08:49:45.928Z</time>
      </trkpt>
      <trkpt lat="38.74769167" lon="-9.10123833">
        <ele>38.0</ele>
        <time>2019-05-16T08:49:46.897Z</time>
      </trkpt>
      <trkpt lat="38.74769167" lon="-9.10123833">
        <ele>38.0</ele>
        <time>2019-05-16T08:49:47.915Z</time>
      </trkpt>
      <trkpt lat="38.74775167" lon="-9.101245">
        <ele>38.0</ele>
        <time>2019-05-16T08:49:48.924Z</time>
      </trkpt>
      <trkpt lat="38.74775167" lon="-9.101245">
        <ele>38.0</ele>
        <time>2019-05-16T08:49:49.902Z</time>
      </trkpt>
      <trkpt lat="38.74781667" lon="-9.10124333">
        <ele>39.0</ele>
        <time>2019-05-16T08:49:50.910Z</time>
      </trkpt>
      <trkpt lat="38.74781667" lon="-9.10124333">
        <ele>39.0</ele>
        <time>2019-05-16T08:49:51.911Z</time>
      </trkpt>
      <trkpt lat="38.74787833" lon="-9.10124667">
        <ele>39.0</ele>
        <time>2019-05-16T08:49:52.920Z</time>
      </trkpt>
      <trkpt lat="38.74787833" lon="-9.10124667">
        <ele>39.0</ele>
        <time>2019-05-16T08:49:53.933Z</time>
      </trkpt>
      <trkpt lat="38.74794167" lon="-9.10122667">
        <ele>39.0</ele>
        <time>2019-05-16T08:49:54.902Z</time>
      </trkpt>
      <trkpt lat="38.74794167" lon="-9.10122667">
        <ele>39.0</ele>
        <time>2019-05-16T08:49:55.935Z</time>
      </trkpt>
      <trkpt lat="38.74800333" lon="-9.10122333">
        <ele>40.0</ele>
        <time>2019-05-16T08:49:56.905Z</time>
      </trkpt>
      <trkpt lat="38.74800333" lon="-9.10122333">
        <ele>40.0</ele>
        <time>2019-05-16T08:49:57.924Z</time>
      </trkpt>
      <trkpt lat="38.74806833" lon="-9.10123">
        <ele>40.0</ele>
        <time>2019-05-16T08:49:58.934Z</time>
      </trkpt>
      <trkpt lat="38.74806833" lon="-9.10123">
        <ele>40.0</ele>
        <time>2019-05-16T08:49:59.915Z</time>
      </trkpt>
      <trkpt lat="38.74813167" lon="-9.10122333">
        <ele>40.0</ele>
        <time>2019-05-16T08:50:00.929Z</time>
      </trkpt>
      <trkpt lat="38.74813167" lon="-9.10122333">
        <ele>40.0</ele>
        <time>2019-05-16T08:50:01.911Z</time>
      </trkpt>
      <trkpt lat="38.74818833" lon="-9.10122">
        <ele>41.0</ele>
        <time>2019-05-16T08:50:02.920Z</time>
      </trkpt>
      <trkpt lat="38.74818833" lon="-9.10122">
        <ele>41.0</ele>
        <time>2019-05-16T08:50:03.936Z</time>
      </trkpt>
      <trkpt lat="38.74823333" lon="-9.10122667">
        <ele>43.0</ele>
        <time>2019-05-16T08:50:04.923Z</time>
      </trkpt>
      <trkpt lat="38.74826" lon="-9.10123167">
        <ele>43.0</ele>
        <time>2019-05-16T08:50:05.937Z</time>
      </trkpt>
      <trkpt lat="38.74826" lon="-9.10123167">
        <ele>43.0</ele>
        <time>2019-05-16T08:50:06.933Z</time>
      </trkpt>
      <trkpt lat="38.748325" lon="-9.10125">
        <ele>42.0</ele>
        <time>2019-05-16T08:50:07.905Z</time>
      </trkpt>
      <trkpt lat="38.748325" lon="-9.10125">
        <ele>42.0</ele>
        <time>2019-05-16T08:50:08.897Z</time>
      </trkpt>
      <trkpt lat="38.748395" lon="-9.10126333">
        <ele>41.0</ele>
        <time>2019-05-16T08:50:09.913Z</time>
      </trkpt>
      <trkpt lat="38.748395" lon="-9.10126333">
        <ele>41.0</ele>
        <time>2019-05-16T08:50:10.928Z</time>
      </trkpt>
      <trkpt lat="38.74846333" lon="-9.101275">
        <ele>40.0</ele>
        <time>2019-05-16T08:50:11.938Z</time>
      </trkpt>
      <trkpt lat="38.74849167" lon="-9.10128333">
        <ele>40.0</ele>
        <time>2019-05-16T08:50:12.921Z</time>
      </trkpt>
      <trkpt lat="38.74849167" lon="-9.10128333">
        <ele>40.0</ele>
        <time>2019-05-16T08:50:13.931Z</time>
      </trkpt>
      <trkpt lat="38.74856667" lon="-9.10129">
        <ele>37.0</ele>
        <time>2019-05-16T08:50:14.900Z</time>
      </trkpt>
      <trkpt lat="38.74856667" lon="-9.10129">
        <ele>37.0</ele>
        <time>2019-05-16T08:50:15.933Z</time>
      </trkpt>
      <trkpt lat="38.74863833" lon="-9.10126833">
        <ele>35.0</ele>
        <time>2019-05-16T08:50:16.901Z</time>
      </trkpt>
      <trkpt lat="38.74863833" lon="-9.10126833">
        <ele>35.0</ele>
        <time>2019-05-16T08:50:17.913Z</time>
      </trkpt>
      <trkpt lat="38.74869833" lon="-9.10127">
        <ele>34.0</ele>
        <time>2019-05-16T08:50:18.925Z</time>
      </trkpt>
      <trkpt lat="38.74869833" lon="-9.10127">
        <ele>34.0</ele>
        <time>2019-05-16T08:50:19.905Z</time>
      </trkpt>
      <trkpt lat="38.74875667" lon="-9.10127667">
        <ele>33.0</ele>
        <time>2019-05-16T08:50:20.931Z</time>
      </trkpt>
      <trkpt lat="38.74875667" lon="-9.10127667">
        <ele>33.0</ele>
        <time>2019-05-16T08:50:21.912Z</time>
      </trkpt>
      <trkpt lat="38.74881667" lon="-9.101275">
        <ele>32.0</ele>
        <time>2019-05-16T08:50:22.924Z</time>
      </trkpt>
      <trkpt lat="38.74881667" lon="-9.101275">
        <ele>32.0</ele>
        <time>2019-05-16T08:50:23.915Z</time>
      </trkpt>
      <trkpt lat="38.74888" lon="-9.10127333">
        <ele>32.0</ele>
        <time>2019-05-16T08:50:24.923Z</time>
      </trkpt>
      <trkpt lat="38.74888" lon="-9.10127333">
        <ele>32.0</ele>
        <time>2019-05-16T08:50:25.923Z</time>
      </trkpt>
      <trkpt lat="38.74894167" lon="-9.10127">
        <ele>31.0</ele>
        <time>2019-05-16T08:50:26.903Z</time>
      </trkpt>
      <trkpt lat="38.74894167" lon="-9.10127">
        <ele>31.0</ele>
        <time>2019-05-16T08:50:27.924Z</time>
      </trkpt>
      <trkpt lat="38.74900167" lon="-9.10126667">
        <ele>30.0</ele>
        <time>2019-05-16T08:50:28.931Z</time>
      </trkpt>
      <trkpt lat="38.74900167" lon="-9.10126667">
        <ele>30.0</ele>
        <time>2019-05-16T08:50:29.901Z</time>
      </trkpt>
      <trkpt lat="38.74904333" lon="-9.10125667">
        <ele>31.0</ele>
        <time>2019-05-16T08:50:30.909Z</time>
      </trkpt>
      <trkpt lat="38.74904333" lon="-9.10125667">
        <ele>31.0</ele>
        <time>2019-05-16T08:50:31.932Z</time>
      </trkpt>
      <trkpt lat="38.74905167" lon="-9.10125">
        <ele>31.0</ele>
        <time>2019-05-16T08:50:32.900Z</time>
      </trkpt>
      <trkpt lat="38.74905167" lon="-9.10125">
        <ele>31.0</ele>
        <time>2019-05-16T08:50:33.930Z</time>
      </trkpt>
      <trkpt lat="38.74905333" lon="-9.10125">
        <ele>31.0</ele>
        <time>2019-05-16T08:50:34.897Z</time>
      </trkpt>
      <trkpt lat="38.74905333" lon="-9.10125">
        <ele>31.0</ele>
        <time>2019-05-16T08:50:35.932Z</time>
      </trkpt>
      <trkpt lat="38.74905333" lon="-9.10125">
        <ele>31.0</ele>
        <time>2019-05-16T08:50:36.898Z</time>
      </trkpt>
      <trkpt lat="38.74905333" lon="-9.10125">
        <ele>31.0</ele>
        <time>2019-05-16T08:50:37.904Z</time>
      </trkpt>
      <trkpt lat="38.74907833" lon="-9.10124667">
        <ele>30.0</ele>
        <time>2019-05-16T08:50:38.925Z</time>
      </trkpt>
      <trkpt lat="38.74909667" lon="-9.10125333">
        <ele>30.0</ele>
        <time>2019-05-16T08:50:39.901Z</time>
      </trkpt>
      <trkpt lat="38.74909667" lon="-9.10125333">
        <ele>30.0</ele>
        <time>2019-05-16T08:50:40.922Z</time>
      </trkpt>
      <trkpt lat="38.74915" lon="-9.101255">
        <ele>30.0</ele>
        <time>2019-05-16T08:50:41.922Z</time>
      </trkpt>
      <trkpt lat="38.74918667" lon="-9.10125833">
        <ele>30.0</ele>
        <time>2019-05-16T08:50:42.927Z</time>
      </trkpt>
      <trkpt lat="38.74918667" lon="-9.10125833">
        <ele>30.0</ele>
        <time>2019-05-16T08:50:43.932Z</time>
      </trkpt>
      <trkpt lat="38.74926167" lon="-9.10125">
        <ele>29.0</ele>
        <time>2019-05-16T08:50:44.935Z</time>
      </trkpt>
      <trkpt lat="38.74926167" lon="-9.10125">
        <ele>29.0</ele>
        <time>2019-05-16T08:50:45.934Z</time>
      </trkpt>
      <trkpt lat="38.749325" lon="-9.10124">
        <ele>30.0</ele>
        <time>2019-05-16T08:50:46.904Z</time>
      </trkpt>
      <trkpt lat="38.749325" lon="-9.10124">
        <ele>30.0</ele>
        <time>2019-05-16T08:50:47.918Z</time>
      </trkpt>
      <trkpt lat="38.74938833" lon="-9.10123">
        <ele>30.0</ele>
        <time>2019-05-16T08:50:48.926Z</time>
      </trkpt>
      <trkpt lat="38.74938833" lon="-9.10123">
        <ele>30.0</ele>
        <time>2019-05-16T08:50:49.929Z</time>
      </trkpt>
      <trkpt lat="38.74946333" lon="-9.10121667">
        <ele>30.0</ele>
        <time>2019-05-16T08:50:50.901Z</time>
      </trkpt>
      <trkpt lat="38.74946333" lon="-9.10121667">
        <ele>30.0</ele>
        <time>2019-05-16T08:50:51.915Z</time>
      </trkpt>
      <trkpt lat="38.74953833" lon="-9.10120833">
        <ele>31.0</ele>
        <time>2019-05-16T08:50:52.920Z</time>
      </trkpt>
      <trkpt lat="38.749575" lon="-9.10120333">
        <ele>32.0</ele>
        <time>2019-05-16T08:50:53.935Z</time>
      </trkpt>
      <trkpt lat="38.74961667" lon="-9.10119167">
        <ele>31.0</ele>
        <time>2019-05-16T08:50:54.910Z</time>
      </trkpt>
      <trkpt lat="38.74961667" lon="-9.10119167">
        <ele>31.0</ele>
        <time>2019-05-16T08:50:55.925Z</time>
      </trkpt>
      <trkpt lat="38.7497" lon="-9.10117">
        <ele>31.0</ele>
        <time>2019-05-16T08:50:56.931Z</time>
      </trkpt>
      <trkpt lat="38.7497" lon="-9.10117">
        <ele>31.0</ele>
        <time>2019-05-16T08:50:57.908Z</time>
      </trkpt>
      <trkpt lat="38.74978167" lon="-9.10114333">
        <ele>30.0</ele>
        <time>2019-05-16T08:50:58.918Z</time>
      </trkpt>
      <trkpt lat="38.74978167" lon="-9.10114333">
        <ele>30.0</ele>
        <time>2019-05-16T08:50:59.900Z</time>
      </trkpt>
      <trkpt lat="38.74986" lon="-9.10112167">
        <ele>30.0</ele>
        <time>2019-05-16T08:51:00.909Z</time>
      </trkpt>
      <trkpt lat="38.74986" lon="-9.10112167">
        <ele>30.0</ele>
        <time>2019-05-16T08:51:01.924Z</time>
      </trkpt>
      <trkpt lat="38.74993167" lon="-9.10110167">
        <ele>30.0</ele>
        <time>2019-05-16T08:51:02.936Z</time>
      </trkpt>
      <trkpt lat="38.74996833" lon="-9.10109333">
        <ele>30.0</ele>
        <time>2019-05-16T08:51:03.918Z</time>
      </trkpt>
      <trkpt lat="38.74996833" lon="-9.10109333">
        <ele>30.0</ele>
        <time>2019-05-16T08:51:04.934Z</time>
      </trkpt>
      <trkpt lat="38.75004167" lon="-9.101065">
        <ele>30.0</ele>
        <time>2019-05-16T08:51:05.902Z</time>
      </trkpt>
      <trkpt lat="38.75007833" lon="-9.10105">
        <ele>30.0</ele>
        <time>2019-05-16T08:51:06.922Z</time>
      </trkpt>
      <trkpt lat="38.75007833" lon="-9.10105">
        <ele>30.0</ele>
        <time>2019-05-16T08:51:07.901Z</time>
      </trkpt>
      <trkpt lat="38.75014333" lon="-9.10102">
        <ele>30.0</ele>
        <time>2019-05-16T08:51:08.915Z</time>
      </trkpt>
      <trkpt lat="38.75014333" lon="-9.10102">
        <ele>30.0</ele>
        <time>2019-05-16T08:51:09.935Z</time>
      </trkpt>
      <trkpt lat="38.75020667" lon="-9.101">
        <ele>31.0</ele>
        <time>2019-05-16T08:51:10.906Z</time>
      </trkpt>
      <trkpt lat="38.75020667" lon="-9.101">
        <ele>31.0</ele>
        <time>2019-05-16T08:51:11.924Z</time>
      </trkpt>
      <trkpt lat="38.75025333" lon="-9.10097667">
        <ele>31.0</ele>
        <time>2019-05-16T08:51:12.934Z</time>
      </trkpt>
      <trkpt lat="38.75025333" lon="-9.10097667">
        <ele>31.0</ele>
        <time>2019-05-16T08:51:13.915Z</time>
      </trkpt>
      <trkpt lat="38.75026667" lon="-9.10096667">
        <ele>31.0</ele>
        <time>2019-05-16T08:51:14.924Z</time>
      </trkpt>
      <trkpt lat="38.75027167" lon="-9.10096667">
        <ele>31.0</ele>
        <time>2019-05-16T08:51:15.899Z</time>
      </trkpt>
      <trkpt lat="38.75027167" lon="-9.10096667">
        <ele>31.0</ele>
        <time>2019-05-16T08:51:16.921Z</time>
      </trkpt>
      <trkpt lat="38.75029" lon="-9.10095667">
        <ele>31.0</ele>
        <time>2019-05-16T08:51:17.934Z</time>
      </trkpt>
      <trkpt lat="38.75030833" lon="-9.10095167">
        <ele>31.0</ele>
        <time>2019-05-16T08:51:18.920Z</time>
      </trkpt>
      <trkpt lat="38.75030833" lon="-9.10095167">
        <ele>31.0</ele>
        <time>2019-05-16T08:51:19.897Z</time>
      </trkpt>
      <trkpt lat="38.75035333" lon="-9.10093833">
        <ele>30.0</ele>
        <time>2019-05-16T08:51:20.920Z</time>
      </trkpt>
      <trkpt lat="38.75035333" lon="-9.10093833">
        <ele>30.0</ele>
        <time>2019-05-16T08:51:21.921Z</time>
      </trkpt>
      <trkpt lat="38.75040167" lon="-9.100915">
        <ele>30.0</ele>
        <time>2019-05-16T08:51:22.934Z</time>
      </trkpt>
      <trkpt lat="38.75040167" lon="-9.100915">
        <ele>30.0</ele>
        <time>2019-05-16T08:51:23.914Z</time>
      </trkpt>
      <trkpt lat="38.75045833" lon="-9.10090167">
        <ele>29.0</ele>
        <time>2019-05-16T08:51:24.921Z</time>
      </trkpt>
      <trkpt lat="38.75045833" lon="-9.10090167">
        <ele>29.0</ele>
        <time>2019-05-16T08:51:25.914Z</time>
      </trkpt>
      <trkpt lat="38.75051833" lon="-9.100895">
        <ele>28.0</ele>
        <time>2019-05-16T08:51:26.924Z</time>
      </trkpt>
      <trkpt lat="38.75051833" lon="-9.100895">
        <ele>28.0</ele>
        <time>2019-05-16T08:51:27.935Z</time>
      </trkpt>
      <trkpt lat="38.75058333" lon="-9.10088167">
        <ele>29.0</ele>
        <time>2019-05-16T08:51:28.905Z</time>
      </trkpt>
      <trkpt lat="38.75058333" lon="-9.10088167">
        <ele>29.0</ele>
        <time>2019-05-16T08:51:29.919Z</time>
      </trkpt>
      <trkpt lat="38.75066333" lon="-9.10087333">
        <ele>28.0</ele>
        <time>2019-05-16T08:51:30.936Z</time>
      </trkpt>
      <trkpt lat="38.75066333" lon="-9.10087333">
        <ele>28.0</ele>
        <time>2019-05-16T08:51:31.923Z</time>
      </trkpt>
      <trkpt lat="38.75075167" lon="-9.10086833">
        <ele>28.0</ele>
        <time>2019-05-16T08:51:32.936Z</time>
      </trkpt>
      <trkpt lat="38.75079833" lon="-9.10086167">
        <ele>28.0</ele>
        <time>2019-05-16T08:51:33.915Z</time>
      </trkpt>
      <trkpt lat="38.75079833" lon="-9.10086167">
        <ele>28.0</ele>
        <time>2019-05-16T08:51:34.929Z</time>
      </trkpt>
      <trkpt lat="38.75089167" lon="-9.10085833">
        <ele>27.0</ele>
        <time>2019-05-16T08:51:35.936Z</time>
      </trkpt>
      <trkpt lat="38.75093833" lon="-9.100855">
        <ele>27.0</ele>
        <time>2019-05-16T08:51:36.936Z</time>
      </trkpt>
      <trkpt lat="38.75093833" lon="-9.100855">
        <ele>27.0</ele>
        <time>2019-05-16T08:51:37.912Z</time>
      </trkpt>
      <trkpt lat="38.751035" lon="-9.10084">
        <ele>27.0</ele>
        <time>2019-05-16T08:51:38.923Z</time>
      </trkpt>
      <trkpt lat="38.751035" lon="-9.10084">
        <ele>27.0</ele>
        <time>2019-05-16T08:51:39.926Z</time>
      </trkpt>
      <trkpt lat="38.75113" lon="-9.10083">
        <ele>27.0</ele>
        <time>2019-05-16T08:51:40.937Z</time>
      </trkpt>
      <trkpt lat="38.75117667" lon="-9.10082667">
        <ele>26.0</ele>
        <time>2019-05-16T08:51:41.924Z</time>
      </trkpt>
      <trkpt lat="38.75122333" lon="-9.10082167">
        <ele>27.0</ele>
        <time>2019-05-16T08:51:42.921Z</time>
      </trkpt>
      <trkpt lat="38.75122333" lon="-9.10082167">
        <ele>27.0</ele>
        <time>2019-05-16T08:51:43.901Z</time>
      </trkpt>
      <trkpt lat="38.751315" lon="-9.10082667">
        <ele>26.0</ele>
        <time>2019-05-16T08:51:44.929Z</time>
      </trkpt>
      <trkpt lat="38.751315" lon="-9.10082667">
        <ele>26.0</ele>
        <time>2019-05-16T08:51:45.910Z</time>
      </trkpt>
      <trkpt lat="38.75140333" lon="-9.10082833">
        <ele>26.0</ele>
        <time>2019-05-16T08:51:46.921Z</time>
      </trkpt>
      <trkpt lat="38.75140333" lon="-9.10082833">
        <ele>26.0</ele>
        <time>2019-05-16T08:51:47.915Z</time>
      </trkpt>
      <trkpt lat="38.75148833" lon="-9.10081333">
        <ele>26.0</ele>
        <time>2019-05-16T08:51:48.931Z</time>
      </trkpt>
      <trkpt lat="38.75148833" lon="-9.10081333">
        <ele>26.0</ele>
        <time>2019-05-16T08:51:49.917Z</time>
      </trkpt>
      <trkpt lat="38.751565" lon="-9.100795">
        <ele>27.0</ele>
        <time>2019-05-16T08:51:50.928Z</time>
      </trkpt>
      <trkpt lat="38.751565" lon="-9.100795">
        <ele>27.0</ele>
        <time>2019-05-16T08:51:51.912Z</time>
      </trkpt>
      <trkpt lat="38.75163" lon="-9.10078167">
        <ele>28.0</ele>
        <time>2019-05-16T08:51:52.919Z</time>
      </trkpt>
      <trkpt lat="38.75163" lon="-9.10078167">
        <ele>28.0</ele>
        <time>2019-05-16T08:51:53.915Z</time>
      </trkpt>
      <trkpt lat="38.75169167" lon="-9.10076333">
        <ele>29.0</ele>
        <time>2019-05-16T08:51:54.928Z</time>
      </trkpt>
      <trkpt lat="38.75171833" lon="-9.10073667">
        <ele>31.0</ele>
        <time>2019-05-16T08:51:55.933Z</time>
      </trkpt>
      <trkpt lat="38.75171833" lon="-9.10073667">
        <ele>31.0</ele>
        <time>2019-05-16T08:51:56.919Z</time>
      </trkpt>
      <trkpt lat="38.751775" lon="-9.10070333">
        <ele>32.0</ele>
        <time>2019-05-16T08:51:57.904Z</time>
      </trkpt>
      <trkpt lat="38.751775" lon="-9.10070333">
        <ele>32.0</ele>
        <time>2019-05-16T08:51:58.923Z</time>
      </trkpt>
      <trkpt lat="38.75183833" lon="-9.10069333">
        <ele>34.0</ele>
        <time>2019-05-16T08:51:59.940Z</time>
      </trkpt>
      <trkpt lat="38.75186667" lon="-9.10068333">
        <ele>35.0</ele>
        <time>2019-05-16T08:52:00.921Z</time>
      </trkpt>
      <trkpt lat="38.75186667" lon="-9.10068333">
        <ele>35.0</ele>
        <time>2019-05-16T08:52:01.915Z</time>
      </trkpt>
      <trkpt lat="38.75192833" lon="-9.10067667">
        <ele>36.0</ele>
        <time>2019-05-16T08:52:02.928Z</time>
      </trkpt>
      <trkpt lat="38.75192833" lon="-9.10067667">
        <ele>36.0</ele>
        <time>2019-05-16T08:52:03.902Z</time>
      </trkpt>
      <trkpt lat="38.75199833" lon="-9.10067333">
        <ele>36.0</ele>
        <time>2019-05-16T08:52:04.919Z</time>
      </trkpt>
      <trkpt lat="38.75199833" lon="-9.10067333">
        <ele>36.0</ele>
        <time>2019-05-16T08:52:05.913Z</time>
      </trkpt>
      <trkpt lat="38.75206833" lon="-9.10067167">
        <ele>35.0</ele>
        <time>2019-05-16T08:52:06.913Z</time>
      </trkpt>
      <trkpt lat="38.75206833" lon="-9.10067167">
        <ele>35.0</ele>
        <time>2019-05-16T08:52:07.918Z</time>
      </trkpt>
      <trkpt lat="38.75214333" lon="-9.10066333">
        <ele>35.0</ele>
        <time>2019-05-16T08:52:08.927Z</time>
      </trkpt>
      <trkpt lat="38.75214333" lon="-9.10066333">
        <ele>35.0</ele>
        <time>2019-05-16T08:52:09.911Z</time>
      </trkpt>
      <trkpt lat="38.75221333" lon="-9.10065667">
        <ele>33.0</ele>
        <time>2019-05-16T08:52:10.919Z</time>
      </trkpt>
      <trkpt lat="38.75221333" lon="-9.10065667">
        <ele>33.0</ele>
        <time>2019-05-16T08:52:11.929Z</time>
      </trkpt>
      <trkpt lat="38.75227167" lon="-9.100655">
        <ele>33.0</ele>
        <time>2019-05-16T08:52:12.937Z</time>
      </trkpt>
      <trkpt lat="38.75227167" lon="-9.100655">
        <ele>33.0</ele>
        <time>2019-05-16T08:52:13.915Z</time>
      </trkpt>
      <trkpt lat="38.75232333" lon="-9.10063667">
        <ele>33.0</ele>
        <time>2019-05-16T08:52:14.897Z</time>
      </trkpt>
      <trkpt lat="38.75232333" lon="-9.10063667">
        <ele>33.0</ele>
        <time>2019-05-16T08:52:15.897Z</time>
      </trkpt>
      <trkpt lat="38.75237333" lon="-9.10062333">
        <ele>33.0</ele>
        <time>2019-05-16T08:52:16.905Z</time>
      </trkpt>
      <trkpt lat="38.75239667" lon="-9.100615">
        <ele>34.0</ele>
        <time>2019-05-16T08:52:17.925Z</time>
      </trkpt>
      <trkpt lat="38.75241833" lon="-9.100605">
        <ele>33.0</ele>
        <time>2019-05-16T08:52:18.919Z</time>
      </trkpt>
      <trkpt lat="38.75241833" lon="-9.100605">
        <ele>33.0</ele>
        <time>2019-05-16T08:52:19.932Z</time>
      </trkpt>
      <trkpt lat="38.752475" lon="-9.100585">
        <ele>33.0</ele>
        <time>2019-05-16T08:52:20.918Z</time>
      </trkpt>
      <trkpt lat="38.752475" lon="-9.100585">
        <ele>33.0</ele>
        <time>2019-05-16T08:52:21.920Z</time>
      </trkpt>
      <trkpt lat="38.75254833" lon="-9.10056667">
        <ele>33.0</ele>
        <time>2019-05-16T08:52:22.928Z</time>
      </trkpt>
      <trkpt lat="38.75254833" lon="-9.10056667">
        <ele>33.0</ele>
        <time>2019-05-16T08:52:23.908Z</time>
      </trkpt>
      <trkpt lat="38.752615" lon="-9.100555">
        <ele>32.0</ele>
        <time>2019-05-16T08:52:24.916Z</time>
      </trkpt>
      <trkpt lat="38.752615" lon="-9.100555">
        <ele>32.0</ele>
        <time>2019-05-16T08:52:25.935Z</time>
      </trkpt>
      <trkpt lat="38.75267833" lon="-9.10054">
        <ele>32.0</ele>
        <time>2019-05-16T08:52:26.924Z</time>
      </trkpt>
      <trkpt lat="38.75270833" lon="-9.10053167">
        <ele>32.0</ele>
        <time>2019-05-16T08:52:27.927Z</time>
      </trkpt>
      <trkpt lat="38.75270833" lon="-9.10053167">
        <ele>32.0</ele>
        <time>2019-05-16T08:52:28.908Z</time>
      </trkpt>
      <trkpt lat="38.75277" lon="-9.100515">
        <ele>32.0</ele>
        <time>2019-05-16T08:52:29.924Z</time>
      </trkpt>
      <trkpt lat="38.7528" lon="-9.10051">
        <ele>32.0</ele>
        <time>2019-05-16T08:52:30.920Z</time>
      </trkpt>
      <trkpt lat="38.7528" lon="-9.10051">
        <ele>32.0</ele>
        <time>2019-05-16T08:52:31.930Z</time>
      </trkpt>
      <trkpt lat="38.752865" lon="-9.1005">
        <ele>32.0</ele>
        <time>2019-05-16T08:52:32.900Z</time>
      </trkpt>
      <trkpt lat="38.75289667" lon="-9.100495">
        <ele>32.0</ele>
        <time>2019-05-16T08:52:33.919Z</time>
      </trkpt>
      <trkpt lat="38.75289667" lon="-9.100495">
        <ele>32.0</ele>
        <time>2019-05-16T08:52:34.933Z</time>
      </trkpt>
      <trkpt lat="38.75296333" lon="-9.10048167">
        <ele>32.0</ele>
        <time>2019-05-16T08:52:35.907Z</time>
      </trkpt>
      <trkpt lat="38.75299333" lon="-9.100475">
        <ele>32.0</ele>
        <time>2019-05-16T08:52:36.929Z</time>
      </trkpt>
      <trkpt lat="38.75299333" lon="-9.100475">
        <ele>32.0</ele>
        <time>2019-05-16T08:52:37.916Z</time>
      </trkpt>
      <trkpt lat="38.75305167" lon="-9.100465">
        <ele>33.0</ele>
        <time>2019-05-16T08:52:38.928Z</time>
      </trkpt>
      <trkpt lat="38.75305167" lon="-9.100465">
        <ele>33.0</ele>
        <time>2019-05-16T08:52:39.914Z</time>
      </trkpt>
      <trkpt lat="38.75311167" lon="-9.10046">
        <ele>33.0</ele>
        <time>2019-05-16T08:52:40.922Z</time>
      </trkpt>
      <trkpt lat="38.75311167" lon="-9.10046">
        <ele>33.0</ele>
        <time>2019-05-16T08:52:41.901Z</time>
      </trkpt>
      <trkpt lat="38.75317667" lon="-9.10045667">
        <ele>33.0</ele>
        <time>2019-05-16T08:52:42.910Z</time>
      </trkpt>
      <trkpt lat="38.75317667" lon="-9.10045667">
        <ele>33.0</ele>
        <time>2019-05-16T08:52:43.915Z</time>
      </trkpt>
      <trkpt lat="38.75324167" lon="-9.10044167">
        <ele>34.0</ele>
        <time>2019-05-16T08:52:44.928Z</time>
      </trkpt>
      <trkpt lat="38.75324167" lon="-9.10044167">
        <ele>34.0</ele>
        <time>2019-05-16T08:52:45.926Z</time>
      </trkpt>
      <trkpt lat="38.75331" lon="-9.10044167">
        <ele>33.0</ele>
        <time>2019-05-16T08:52:46.940Z</time>
      </trkpt>
      <trkpt lat="38.75334667" lon="-9.10044">
        <ele>33.0</ele>
        <time>2019-05-16T08:52:47.911Z</time>
      </trkpt>
      <trkpt lat="38.75338333" lon="-9.10043833">
        <ele>33.0</ele>
        <time>2019-05-16T08:52:48.929Z</time>
      </trkpt>
      <trkpt lat="38.75338333" lon="-9.10043833">
        <ele>33.0</ele>
        <time>2019-05-16T08:52:49.912Z</time>
      </trkpt>
      <trkpt lat="38.75345167" lon="-9.10043167">
        <ele>34.0</ele>
        <time>2019-05-16T08:52:50.925Z</time>
      </trkpt>
      <trkpt lat="38.75345167" lon="-9.10043167">
        <ele>34.0</ele>
        <time>2019-05-16T08:52:51.934Z</time>
      </trkpt>
      <trkpt lat="38.753515" lon="-9.10043167">
        <ele>34.0</ele>
        <time>2019-05-16T08:52:52.901Z</time>
      </trkpt>
      <trkpt lat="38.753515" lon="-9.10043167">
        <ele>34.0</ele>
        <time>2019-05-16T08:52:53.927Z</time>
      </trkpt>
      <trkpt lat="38.75357667" lon="-9.10043167">
        <ele>35.0</ele>
        <time>2019-05-16T08:52:54.900Z</time>
      </trkpt>
      <trkpt lat="38.75357667" lon="-9.10043167">
        <ele>35.0</ele>
        <time>2019-05-16T08:52:55.916Z</time>
      </trkpt>
      <trkpt lat="38.75364167" lon="-9.10043167">
        <ele>35.0</ele>
        <time>2019-05-16T08:52:56.930Z</time>
      </trkpt>
      <trkpt lat="38.75364167" lon="-9.10043167">
        <ele>35.0</ele>
        <time>2019-05-16T08:52:57.937Z</time>
      </trkpt>
      <trkpt lat="38.75370667" lon="-9.10043667">
        <ele>34.0</ele>
        <time>2019-05-16T08:52:58.902Z</time>
      </trkpt>
      <trkpt lat="38.75370667" lon="-9.10043667">
        <ele>34.0</ele>
        <time>2019-05-16T08:52:59.921Z</time>
      </trkpt>
      <trkpt lat="38.75377" lon="-9.100435">
        <ele>34.0</ele>
        <time>2019-05-16T08:53:00.930Z</time>
      </trkpt>
      <trkpt lat="38.75377" lon="-9.100435">
        <ele>34.0</ele>
        <time>2019-05-16T08:53:01.905Z</time>
      </trkpt>
      <trkpt lat="38.75383667" lon="-9.10043667">
        <ele>34.0</ele>
        <time>2019-05-16T08:53:02.914Z</time>
      </trkpt>
      <trkpt lat="38.75383667" lon="-9.10043667">
        <ele>34.0</ele>
        <time>2019-05-16T08:53:03.933Z</time>
      </trkpt>
      <trkpt lat="38.753895" lon="-9.10043667">
        <ele>34.0</ele>
        <time>2019-05-16T08:53:04.900Z</time>
      </trkpt>
      <trkpt lat="38.753895" lon="-9.10043667">
        <ele>34.0</ele>
        <time>2019-05-16T08:53:05.931Z</time>
      </trkpt>
      <trkpt lat="38.75395167" lon="-9.10043167">
        <ele>35.0</ele>
        <time>2019-05-16T08:53:06.909Z</time>
      </trkpt>
      <trkpt lat="38.75395167" lon="-9.10043167">
        <ele>35.0</ele>
        <time>2019-05-16T08:53:07.912Z</time>
      </trkpt>
      <trkpt lat="38.75401167" lon="-9.100425">
        <ele>34.0</ele>
        <time>2019-05-16T08:53:08.919Z</time>
      </trkpt>
      <trkpt lat="38.75401167" lon="-9.100425">
        <ele>34.0</ele>
        <time>2019-05-16T08:53:09.904Z</time>
      </trkpt>
      <trkpt lat="38.754075" lon="-9.10042333">
        <ele>34.0</ele>
        <time>2019-05-16T08:53:10.911Z</time>
      </trkpt>
      <trkpt lat="38.754075" lon="-9.10042333">
        <ele>34.0</ele>
        <time>2019-05-16T08:53:11.903Z</time>
      </trkpt>
      <trkpt lat="38.754145" lon="-9.10042333">
        <ele>34.0</ele>
        <time>2019-05-16T08:53:12.916Z</time>
      </trkpt>
      <trkpt lat="38.754145" lon="-9.10042333">
        <ele>34.0</ele>
        <time>2019-05-16T08:53:13.924Z</time>
      </trkpt>
      <trkpt lat="38.75421333" lon="-9.10042167">
        <ele>34.0</ele>
        <time>2019-05-16T08:53:14.936Z</time>
      </trkpt>
      <trkpt lat="38.75421333" lon="-9.10042167">
        <ele>34.0</ele>
        <time>2019-05-16T08:53:15.934Z</time>
      </trkpt>
      <trkpt lat="38.754285" lon="-9.10042">
        <ele>34.0</ele>
        <time>2019-05-16T08:53:16.904Z</time>
      </trkpt>
      <trkpt lat="38.754285" lon="-9.10042">
        <ele>34.0</ele>
        <time>2019-05-16T08:53:17.921Z</time>
      </trkpt>
      <trkpt lat="38.75435" lon="-9.10041667">
        <ele>33.0</ele>
        <time>2019-05-16T08:53:18.930Z</time>
      </trkpt>
      <trkpt lat="38.75435" lon="-9.10041667">
        <ele>33.0</ele>
        <time>2019-05-16T08:53:19.904Z</time>
      </trkpt>
      <trkpt lat="38.75440833" lon="-9.10041333">
        <ele>34.0</ele>
        <time>2019-05-16T08:53:20.934Z</time>
      </trkpt>
      <trkpt lat="38.75440833" lon="-9.10041333">
        <ele>34.0</ele>
        <time>2019-05-16T08:53:21.935Z</time>
      </trkpt>
      <trkpt lat="38.754465" lon="-9.10039">
        <ele>34.0</ele>
        <time>2019-05-16T08:53:22.903Z</time>
      </trkpt>
      <trkpt lat="38.754465" lon="-9.10039">
        <ele>34.0</ele>
        <time>2019-05-16T08:53:23.921Z</time>
      </trkpt>
      <trkpt lat="38.75452667" lon="-9.10037167">
        <ele>33.0</ele>
        <time>2019-05-16T08:53:24.931Z</time>
      </trkpt>
      <trkpt lat="38.75452667" lon="-9.10037167">
        <ele>33.0</ele>
        <time>2019-05-16T08:53:25.903Z</time>
      </trkpt>
      <trkpt lat="38.75459333" lon="-9.10035333">
        <ele>33.0</ele>
        <time>2019-05-16T08:53:26.910Z</time>
      </trkpt>
      <trkpt lat="38.75459333" lon="-9.10035333">
        <ele>33.0</ele>
        <time>2019-05-16T08:53:27.902Z</time>
      </trkpt>
      <trkpt lat="38.75468" lon="-9.10033">
        <ele>31.0</ele>
        <time>2019-05-16T08:53:28.916Z</time>
      </trkpt>
      <trkpt lat="38.75468" lon="-9.10033">
        <ele>31.0</ele>
        <time>2019-05-16T08:53:29.932Z</time>
      </trkpt>
      <trkpt lat="38.75478667" lon="-9.10029667">
        <ele>30.0</ele>
        <time>2019-05-16T08:53:30.906Z</time>
      </trkpt>
      <trkpt lat="38.75478667" lon="-9.10029667">
        <ele>30.0</ele>
        <time>2019-05-16T08:53:31.916Z</time>
      </trkpt>
      <trkpt lat="38.75478667" lon="-9.10029667">
        <ele>30.0</ele>
        <time>2019-05-16T08:53:32.945Z</time>
      </trkpt>
      <trkpt lat="38.75489333" lon="-9.10027667">
        <ele>29.0</ele>
        <time>2019-05-16T08:53:33.914Z</time>
      </trkpt>
      <trkpt lat="38.75499333" lon="-9.10026167">
        <ele>28.0</ele>
        <time>2019-05-16T08:53:34.930Z</time>
      </trkpt>
      <trkpt lat="38.75499333" lon="-9.10026167">
        <ele>28.0</ele>
        <time>2019-05-16T08:53:35.904Z</time>
      </trkpt>
      <trkpt lat="38.75508333" lon="-9.10026167">
        <ele>27.0</ele>
        <time>2019-05-16T08:53:36.900Z</time>
      </trkpt>
      <trkpt lat="38.75508333" lon="-9.10026167">
        <ele>27.0</ele>
        <time>2019-05-16T08:53:37.936Z</time>
      </trkpt>
      <trkpt lat="38.75518167" lon="-9.10025167">
        <ele>26.0</ele>
        <time>2019-05-16T08:53:38.907Z</time>
      </trkpt>
      <trkpt lat="38.75518167" lon="-9.10025167">
        <ele>26.0</ele>
        <time>2019-05-16T08:53:39.929Z</time>
      </trkpt>
      <trkpt lat="38.75529333" lon="-9.10023167">
        <ele>25.0</ele>
        <time>2019-05-16T08:53:40.940Z</time>
      </trkpt>
      <trkpt lat="38.75529333" lon="-9.10023167">
        <ele>25.0</ele>
        <time>2019-05-16T08:53:41.913Z</time>
      </trkpt>
      <trkpt lat="38.75539833" lon="-9.100245">
        <ele>27.0</ele>
        <time>2019-05-16T08:53:42.920Z</time>
      </trkpt>
      <trkpt lat="38.75539833" lon="-9.100245">
        <ele>27.0</ele>
        <time>2019-05-16T08:53:43.905Z</time>
      </trkpt>
      <trkpt lat="38.75549333" lon="-9.10023667">
        <ele>27.0</ele>
        <time>2019-05-16T08:53:44.931Z</time>
      </trkpt>
      <trkpt lat="38.75549333" lon="-9.10023667">
        <ele>27.0</ele>
        <time>2019-05-16T08:53:45.900Z</time>
      </trkpt>
      <trkpt lat="38.755585" lon="-9.10023667">
        <ele>27.0</ele>
        <time>2019-05-16T08:53:46.910Z</time>
      </trkpt>
      <trkpt lat="38.755585" lon="-9.10023667">
        <ele>27.0</ele>
        <time>2019-05-16T08:53:47.923Z</time>
      </trkpt>
      <trkpt lat="38.75568" lon="-9.10022667">
        <ele>28.0</ele>
        <time>2019-05-16T08:53:48.933Z</time>
      </trkpt>
      <trkpt lat="38.75568" lon="-9.10022667">
        <ele>28.0</ele>
        <time>2019-05-16T08:53:49.912Z</time>
      </trkpt>
      <trkpt lat="38.75577667" lon="-9.10021667">
        <ele>28.0</ele>
        <time>2019-05-16T08:53:50.920Z</time>
      </trkpt>
      <trkpt lat="38.75577667" lon="-9.10021667">
        <ele>28.0</ele>
        <time>2019-05-16T08:53:51.932Z</time>
      </trkpt>
      <trkpt lat="38.75587167" lon="-9.10020667">
        <ele>28.0</ele>
        <time>2019-05-16T08:53:52.938Z</time>
      </trkpt>
      <trkpt lat="38.75592" lon="-9.1002">
        <ele>28.0</ele>
        <time>2019-05-16T08:53:53.926Z</time>
      </trkpt>
      <trkpt lat="38.75596833" lon="-9.100195">
        <ele>28.0</ele>
        <time>2019-05-16T08:53:54.920Z</time>
      </trkpt>
      <trkpt lat="38.75596833" lon="-9.100195">
        <ele>28.0</ele>
        <time>2019-05-16T08:53:55.904Z</time>
      </trkpt>
      <trkpt lat="38.75606333" lon="-9.10018333">
        <ele>28.0</ele>
        <time>2019-05-16T08:53:56.922Z</time>
      </trkpt>
      <trkpt lat="38.75606333" lon="-9.10018333">
        <ele>28.0</ele>
        <time>2019-05-16T08:53:57.897Z</time>
      </trkpt>
      <trkpt lat="38.756155" lon="-9.10017167">
        <ele>28.0</ele>
        <time>2019-05-16T08:53:58.905Z</time>
      </trkpt>
      <trkpt lat="38.756155" lon="-9.10017167">
        <ele>28.0</ele>
        <time>2019-05-16T08:53:59.918Z</time>
      </trkpt>
      <trkpt lat="38.75624833" lon="-9.10016333">
        <ele>28.0</ele>
        <time>2019-05-16T08:54:00.930Z</time>
      </trkpt>
      <trkpt lat="38.75624833" lon="-9.10016333">
        <ele>28.0</ele>
        <time>2019-05-16T08:54:01.918Z</time>
      </trkpt>
      <trkpt lat="38.75633833" lon="-9.10015833">
        <ele>28.0</ele>
        <time>2019-05-16T08:54:02.930Z</time>
      </trkpt>
      <trkpt lat="38.75633833" lon="-9.10015833">
        <ele>28.0</ele>
        <time>2019-05-16T08:54:03.915Z</time>
      </trkpt>
      <trkpt lat="38.75641167" lon="-9.100115">
        <ele>28.0</ele>
        <time>2019-05-16T08:54:04.919Z</time>
      </trkpt>
      <trkpt lat="38.75641167" lon="-9.100115">
        <ele>28.0</ele>
        <time>2019-05-16T08:54:05.898Z</time>
      </trkpt>
      <trkpt lat="38.75643" lon="-9.10001">
        <ele>28.0</ele>
        <time>2019-05-16T08:54:06.907Z</time>
      </trkpt>
      <trkpt lat="38.75643" lon="-9.10001">
        <ele>28.0</ele>
        <time>2019-05-16T08:54:07.921Z</time>
      </trkpt>
      <trkpt lat="38.756395" lon="-9.09991">
        <ele>29.0</ele>
        <time>2019-05-16T08:54:08.929Z</time>
      </trkpt>
      <trkpt lat="38.756395" lon="-9.09991">
        <ele>29.0</ele>
        <time>2019-05-16T08:54:09.904Z</time>
      </trkpt>
      <trkpt lat="38.75635" lon="-9.09981333">
        <ele>29.0</ele>
        <time>2019-05-16T08:54:10.913Z</time>
      </trkpt>
      <trkpt lat="38.75635" lon="-9.09981333">
        <ele>29.0</ele>
        <time>2019-05-16T08:54:11.924Z</time>
      </trkpt>
      <trkpt lat="38.7563" lon="-9.09972">
        <ele>29.0</ele>
        <time>2019-05-16T08:54:12.900Z</time>
      </trkpt>
      <trkpt lat="38.7563" lon="-9.09972">
        <ele>29.0</ele>
        <time>2019-05-16T08:54:13.920Z</time>
      </trkpt>
      <trkpt lat="38.75625167" lon="-9.099625">
        <ele>29.0</ele>
        <time>2019-05-16T08:54:14.926Z</time>
      </trkpt>
      <trkpt lat="38.75625167" lon="-9.099625">
        <ele>29.0</ele>
        <time>2019-05-16T08:54:15.900Z</time>
      </trkpt>
      <trkpt lat="38.75621" lon="-9.09952833">
        <ele>29.0</ele>
        <time>2019-05-16T08:54:16.916Z</time>
      </trkpt>
      <trkpt lat="38.75619333" lon="-9.09948167">
        <ele>29.0</ele>
        <time>2019-05-16T08:54:17.933Z</time>
      </trkpt>
      <trkpt lat="38.756175" lon="-9.099435">
        <ele>29.0</ele>
        <time>2019-05-16T08:54:18.924Z</time>
      </trkpt>
      <trkpt lat="38.756175" lon="-9.099435">
        <ele>29.0</ele>
        <time>2019-05-16T08:54:19.898Z</time>
      </trkpt>
      <trkpt lat="38.75614667" lon="-9.099355">
        <ele>29.0</ele>
        <time>2019-05-16T08:54:20.919Z</time>
      </trkpt>
      <trkpt lat="38.75614667" lon="-9.099355">
        <ele>29.0</ele>
        <time>2019-05-16T08:54:21.928Z</time>
      </trkpt>
      <trkpt lat="38.75611333" lon="-9.09928">
        <ele>29.0</ele>
        <time>2019-05-16T08:54:22.903Z</time>
      </trkpt>
      <trkpt lat="38.75611333" lon="-9.09928">
        <ele>29.0</ele>
        <time>2019-05-16T08:54:23.922Z</time>
      </trkpt>
      <trkpt lat="38.75609333" lon="-9.09922833">
        <ele>29.0</ele>
        <time>2019-05-16T08:54:24.930Z</time>
      </trkpt>
      <trkpt lat="38.75609333" lon="-9.09922833">
        <ele>29.0</ele>
        <time>2019-05-16T08:54:25.916Z</time>
      </trkpt>
      <trkpt lat="38.75608333" lon="-9.09918333">
        <ele>30.0</ele>
        <time>2019-05-16T08:54:26.897Z</time>
      </trkpt>
      <trkpt lat="38.75608333" lon="-9.09918333">
        <ele>30.0</ele>
        <time>2019-05-16T08:54:27.916Z</time>
      </trkpt>
      <trkpt lat="38.75607333" lon="-9.09913167">
        <ele>29.0</ele>
        <time>2019-05-16T08:54:28.927Z</time>
      </trkpt>
      <trkpt lat="38.75607333" lon="-9.09913167">
        <ele>29.0</ele>
        <time>2019-05-16T08:54:29.904Z</time>
      </trkpt>
      <trkpt lat="38.75607167" lon="-9.09906333">
        <ele>29.0</ele>
        <time>2019-05-16T08:54:30.914Z</time>
      </trkpt>
      <trkpt lat="38.75607167" lon="-9.09906333">
        <ele>29.0</ele>
        <time>2019-05-16T08:54:31.926Z</time>
      </trkpt>
      <trkpt lat="38.75609333" lon="-9.098985">
        <ele>29.0</ele>
        <time>2019-05-16T08:54:32.919Z</time>
      </trkpt>
      <trkpt lat="38.75612167" lon="-9.09895167">
        <ele>28.0</ele>
        <time>2019-05-16T08:54:33.902Z</time>
      </trkpt>
      <trkpt lat="38.75612167" lon="-9.09895167">
        <ele>28.0</ele>
        <time>2019-05-16T08:54:34.914Z</time>
      </trkpt>
      <trkpt lat="38.75618667" lon="-9.09889333">
        <ele>27.0</ele>
        <time>2019-05-16T08:54:35.924Z</time>
      </trkpt>
      <trkpt lat="38.756225" lon="-9.09886167">
        <ele>26.0</ele>
        <time>2019-05-16T08:54:36.900Z</time>
      </trkpt>
      <trkpt lat="38.756225" lon="-9.09886167">
        <ele>26.0</ele>
        <time>2019-05-16T08:54:37.920Z</time>
      </trkpt>
      <trkpt lat="38.75631667" lon="-9.09878667">
        <ele>26.0</ele>
        <time>2019-05-16T08:54:38.936Z</time>
      </trkpt>
      <trkpt lat="38.75636833" lon="-9.098745">
        <ele>25.0</ele>
        <time>2019-05-16T08:54:39.938Z</time>
      </trkpt>
      <trkpt lat="38.75636833" lon="-9.098745">
        <ele>25.0</ele>
        <time>2019-05-16T08:54:40.931Z</time>
      </trkpt>
      <trkpt lat="38.756475" lon="-9.09865667">
        <ele>24.0</ele>
        <time>2019-05-16T08:54:41.900Z</time>
      </trkpt>
      <trkpt lat="38.75653333" lon="-9.09861167">
        <ele>24.0</ele>
        <time>2019-05-16T08:54:42.918Z</time>
      </trkpt>
      <trkpt lat="38.75653333" lon="-9.09861167">
        <ele>24.0</ele>
        <time>2019-05-16T08:54:43.927Z</time>
      </trkpt>
      <trkpt lat="38.75664833" lon="-9.09852167">
        <ele>23.0</ele>
        <time>2019-05-16T08:54:44.938Z</time>
      </trkpt>
      <trkpt lat="38.756705" lon="-9.098475">
        <ele>23.0</ele>
        <time>2019-05-16T08:54:45.938Z</time>
      </trkpt>
      <trkpt lat="38.756705" lon="-9.098475">
        <ele>23.0</ele>
        <time>2019-05-16T08:54:46.924Z</time>
      </trkpt>
      <trkpt lat="38.75682167" lon="-9.09839">
        <ele>22.0</ele>
        <time>2019-05-16T08:54:47.898Z</time>
      </trkpt>
      <trkpt lat="38.75687667" lon="-9.09834833">
        <ele>22.0</ele>
        <time>2019-05-16T08:54:48.899Z</time>
      </trkpt>
      <trkpt lat="38.75687667" lon="-9.09834833">
        <ele>22.0</ele>
        <time>2019-05-16T08:54:49.927Z</time>
      </trkpt>
      <trkpt lat="38.75698667" lon="-9.09826333">
        <ele>21.0</ele>
        <time>2019-05-16T08:54:50.901Z</time>
      </trkpt>
      <trkpt lat="38.75698667" lon="-9.09826333">
        <ele>21.0</ele>
        <time>2019-05-16T08:54:51.919Z</time>
      </trkpt>
      <trkpt lat="38.75710167" lon="-9.098175">
        <ele>21.0</ele>
        <time>2019-05-16T08:54:52.925Z</time>
      </trkpt>
      <trkpt lat="38.75710167" lon="-9.098175">
        <ele>21.0</ele>
        <time>2019-05-16T08:54:53.936Z</time>
      </trkpt>
      <trkpt lat="38.75721833" lon="-9.09808167">
        <ele>21.0</ele>
        <time>2019-05-16T08:54:54.904Z</time>
      </trkpt>
      <trkpt lat="38.75721833" lon="-9.09808167">
        <ele>21.0</ele>
        <time>2019-05-16T08:54:55.920Z</time>
      </trkpt>
      <trkpt lat="38.75733833" lon="-9.097985">
        <ele>20.0</ele>
        <time>2019-05-16T08:54:56.900Z</time>
      </trkpt>
      <trkpt lat="38.75733833" lon="-9.097985">
        <ele>20.0</ele>
        <time>2019-05-16T08:54:57.932Z</time>
      </trkpt>
      <trkpt lat="38.75746333" lon="-9.09789">
        <ele>19.0</ele>
        <time>2019-05-16T08:54:58.904Z</time>
      </trkpt>
      <trkpt lat="38.75752667" lon="-9.09784333">
        <ele>18.0</ele>
        <time>2019-05-16T08:54:59.919Z</time>
      </trkpt>
      <trkpt lat="38.75759" lon="-9.09779833">
        <ele>18.0</ele>
        <time>2019-05-16T08:55:00.936Z</time>
      </trkpt>
      <trkpt lat="38.75759" lon="-9.09779833">
        <ele>18.0</ele>
        <time>2019-05-16T08:55:01.906Z</time>
      </trkpt>
      <trkpt lat="38.75769833" lon="-9.09772167">
        <ele>17.0</ele>
        <time>2019-05-16T08:55:02.912Z</time>
      </trkpt>
      <trkpt lat="38.75769833" lon="-9.09772167">
        <ele>17.0</ele>
        <time>2019-05-16T08:55:03.898Z</time>
      </trkpt>
      <trkpt lat="38.75777333" lon="-9.09766">
        <ele>17.0</ele>
        <time>2019-05-16T08:55:04.904Z</time>
      </trkpt>
      <trkpt lat="38.75781167" lon="-9.097635">
        <ele>16.0</ele>
        <time>2019-05-16T08:55:05.929Z</time>
      </trkpt>
      <trkpt lat="38.75784667" lon="-9.097605">
        <ele>16.0</ele>
        <time>2019-05-16T08:55:06.912Z</time>
      </trkpt>
      <trkpt lat="38.75784667" lon="-9.097605">
        <ele>16.0</ele>
        <time>2019-05-16T08:55:07.930Z</time>
      </trkpt>
      <trkpt lat="38.75792167" lon="-9.09755333">
        <ele>15.0</ele>
        <time>2019-05-16T08:55:08.901Z</time>
      </trkpt>
      <trkpt lat="38.75792167" lon="-9.09755333">
        <ele>15.0</ele>
        <time>2019-05-16T08:55:09.931Z</time>
      </trkpt>
      <trkpt lat="38.75799" lon="-9.09750667">
        <ele>15.0</ele>
        <time>2019-05-16T08:55:10.905Z</time>
      </trkpt>
      <trkpt lat="38.75799" lon="-9.09750667">
        <ele>15.0</ele>
        <time>2019-05-16T08:55:11.924Z</time>
      </trkpt>
      <trkpt lat="38.758025" lon="-9.09748333">
        <ele>14.0</ele>
        <time>2019-05-16T08:55:12.934Z</time>
      </trkpt>
      <trkpt lat="38.758025" lon="-9.09748333">
        <ele>14.0</ele>
        <time>2019-05-16T08:55:13.912Z</time>
      </trkpt>
      <trkpt lat="38.75803" lon="-9.097485">
        <ele>15.0</ele>
        <time>2019-05-16T08:55:14.927Z</time>
      </trkpt>
      <trkpt lat="38.75803" lon="-9.097485">
        <ele>15.0</ele>
        <time>2019-05-16T08:55:15.925Z</time>
      </trkpt>
      <trkpt lat="38.75803167" lon="-9.097485">
        <ele>15.0</ele>
        <time>2019-05-16T08:55:16.936Z</time>
      </trkpt>
      <trkpt lat="38.75803167" lon="-9.097485">
        <ele>15.0</ele>
        <time>2019-05-16T08:55:17.912Z</time>
      </trkpt>
      <trkpt lat="38.75803167" lon="-9.097485">
        <ele>15.0</ele>
        <time>2019-05-16T08:55:18.919Z</time>
      </trkpt>
      <trkpt lat="38.75803167" lon="-9.097485">
        <ele>15.0</ele>
        <time>2019-05-16T08:55:19.925Z</time>
      </trkpt>
      <trkpt lat="38.75803167" lon="-9.097485">
        <ele>15.0</ele>
        <time>2019-05-16T08:55:20.919Z</time>
      </trkpt>
      <trkpt lat="38.75803167" lon="-9.097485">
        <ele>15.0</ele>
        <time>2019-05-16T08:55:21.926Z</time>
      </trkpt>
      <trkpt lat="38.75803167" lon="-9.097485">
        <ele>15.0</ele>
        <time>2019-05-16T08:55:22.920Z</time>
      </trkpt>
      <trkpt lat="38.75803167" lon="-9.097485">
        <ele>15.0</ele>
        <time>2019-05-16T08:55:23.901Z</time>
      </trkpt>
      <trkpt lat="38.75803167" lon="-9.097485">
        <ele>15.0</ele>
        <time>2019-05-16T08:55:24.928Z</time>
      </trkpt>
      <trkpt lat="38.75803167" lon="-9.097485">
        <ele>15.0</ele>
        <time>2019-05-16T08:55:25.924Z</time>
      </trkpt>
      <trkpt lat="38.75803167" lon="-9.097485">
        <ele>15.0</ele>
        <time>2019-05-16T08:55:26.923Z</time>
      </trkpt>
      <trkpt lat="38.75803167" lon="-9.097485">
        <ele>15.0</ele>
        <time>2019-05-16T08:55:27.926Z</time>
      </trkpt>
      <trkpt lat="38.75803167" lon="-9.097485">
        <ele>15.0</ele>
        <time>2019-05-16T08:55:28.920Z</time>
      </trkpt>
      <trkpt lat="38.75803167" lon="-9.097485">
        <ele>15.0</ele>
        <time>2019-05-16T08:55:29.905Z</time>
      </trkpt>
      <trkpt lat="38.75803167" lon="-9.097485">
        <ele>15.0</ele>
        <time>2019-05-16T08:55:30.930Z</time>
      </trkpt>
      <trkpt lat="38.75803167" lon="-9.097485">
        <ele>15.0</ele>
        <time>2019-05-16T08:55:31.920Z</time>
      </trkpt>
      <trkpt lat="38.75803167" lon="-9.097485">
        <ele>15.0</ele>
        <time>2019-05-16T08:55:32.925Z</time>
      </trkpt>
      <trkpt lat="38.75803167" lon="-9.097485">
        <ele>15.0</ele>
        <time>2019-05-16T08:55:33.921Z</time>
      </trkpt>
      <trkpt lat="38.75803167" lon="-9.097485">
        <ele>15.0</ele>
        <time>2019-05-16T08:55:34.906Z</time>
      </trkpt>
      <trkpt lat="38.75803167" lon="-9.097485">
        <ele>15.0</ele>
        <time>2019-05-16T08:55:35.929Z</time>
      </trkpt>
      <trkpt lat="38.75803167" lon="-9.097485">
        <ele>15.0</ele>
        <time>2019-05-16T08:55:36.924Z</time>
      </trkpt>
      <trkpt lat="38.75803167" lon="-9.097485">
        <ele>15.0</ele>
        <time>2019-05-16T08:55:37.924Z</time>
      </trkpt>
      <trkpt lat="38.75803167" lon="-9.097485">
        <ele>15.0</ele>
        <time>2019-05-16T08:55:38.902Z</time>
      </trkpt>
      <trkpt lat="38.75803167" lon="-9.097485">
        <ele>15.0</ele>
        <time>2019-05-16T08:55:39.927Z</time>
      </trkpt>
      <trkpt lat="38.75803167" lon="-9.097485">
        <ele>15.0</ele>
        <time>2019-05-16T08:55:40.923Z</time>
      </trkpt>
      <trkpt lat="38.75803167" lon="-9.097485">
        <ele>15.0</ele>
        <time>2019-05-16T08:55:41.924Z</time>
      </trkpt>
      <trkpt lat="38.75803167" lon="-9.097485">
        <ele>15.0</ele>
        <time>2019-05-16T08:55:42.927Z</time>
      </trkpt>
      <trkpt lat="38.75803167" lon="-9.097485">
        <ele>15.0</ele>
        <time>2019-05-16T08:55:43.921Z</time>
      </trkpt>
      <trkpt lat="38.75803167" lon="-9.097485">
        <ele>15.0</ele>
        <time>2019-05-16T08:55:44.923Z</time>
      </trkpt>
      <trkpt lat="38.75803167" lon="-9.097485">
        <ele>15.0</ele>
        <time>2019-05-16T08:55:45.920Z</time>
      </trkpt>
      <trkpt lat="38.75803167" lon="-9.097485">
        <ele>15.0</ele>
        <time>2019-05-16T08:55:46.923Z</time>
      </trkpt>
      <trkpt lat="38.75803167" lon="-9.097485">
        <ele>15.0</ele>
        <time>2019-05-16T08:55:47.931Z</time>
      </trkpt>
      <trkpt lat="38.758075" lon="-9.09745167">
        <ele>13.0</ele>
        <time>2019-05-16T08:55:48.931Z</time>
      </trkpt>
      <trkpt lat="38.758075" lon="-9.09745167">
        <ele>13.0</ele>
        <time>2019-05-16T08:55:49.920Z</time>
      </trkpt>
      <trkpt lat="38.75813167" lon="-9.09737167">
        <ele>13.0</ele>
        <time>2019-05-16T08:55:50.923Z</time>
      </trkpt>
      <trkpt lat="38.75813167" lon="-9.09737167">
        <ele>13.0</ele>
        <time>2019-05-16T08:55:51.923Z</time>
      </trkpt>
      <trkpt lat="38.75821" lon="-9.09729667">
        <ele>14.0</ele>
        <time>2019-05-16T08:55:52.923Z</time>
      </trkpt>
      <trkpt lat="38.75821" lon="-9.09729667">
        <ele>14.0</ele>
        <time>2019-05-16T08:55:53.924Z</time>
      </trkpt>
      <trkpt lat="38.75829333" lon="-9.097225">
        <ele>14.0</ele>
        <time>2019-05-16T08:55:54.901Z</time>
      </trkpt>
      <trkpt lat="38.75829333" lon="-9.097225">
        <ele>14.0</ele>
        <time>2019-05-16T08:55:55.915Z</time>
      </trkpt>
      <trkpt lat="38.75837333" lon="-9.09716167">
        <ele>13.0</ele>
        <time>2019-05-16T08:55:56.925Z</time>
      </trkpt>
      <trkpt lat="38.75837333" lon="-9.09716167">
        <ele>13.0</ele>
        <time>2019-05-16T08:55:57.906Z</time>
      </trkpt>
      <trkpt lat="38.75845833" lon="-9.0971">
        <ele>13.0</ele>
        <time>2019-05-16T08:55:58.915Z</time>
      </trkpt>
      <trkpt lat="38.7585" lon="-9.09706667">
        <ele>13.0</ele>
        <time>2019-05-16T08:55:59.932Z</time>
      </trkpt>
      <trkpt lat="38.75853667" lon="-9.09703333">
        <ele>13.0</ele>
        <time>2019-05-16T08:56:00.919Z</time>
      </trkpt>
      <trkpt lat="38.75853667" lon="-9.09703333">
        <ele>13.0</ele>
        <time>2019-05-16T08:56:01.934Z</time>
      </trkpt>
      <trkpt lat="38.75861167" lon="-9.09697667">
        <ele>13.0</ele>
        <time>2019-05-16T08:56:02.903Z</time>
      </trkpt>
      <trkpt lat="38.75861167" lon="-9.09697667">
        <ele>13.0</ele>
        <time>2019-05-16T08:56:03.920Z</time>
      </trkpt>
      <trkpt lat="38.758675" lon="-9.096935">
        <ele>12.0</ele>
        <time>2019-05-16T08:56:04.928Z</time>
      </trkpt>
      <trkpt lat="38.758675" lon="-9.096935">
        <ele>12.0</ele>
        <time>2019-05-16T08:56:05.904Z</time>
      </trkpt>
      <trkpt lat="38.75872333" lon="-9.0969">
        <ele>12.0</ele>
        <time>2019-05-16T08:56:06.914Z</time>
      </trkpt>
      <trkpt lat="38.75872333" lon="-9.0969">
        <ele>12.0</ele>
        <time>2019-05-16T08:56:07.898Z</time>
      </trkpt>
      <trkpt lat="38.75876667" lon="-9.09686667">
        <ele>11.0</ele>
        <time>2019-05-16T08:56:08.904Z</time>
      </trkpt>
      <trkpt lat="38.75876667" lon="-9.09686667">
        <ele>11.0</ele>
        <time>2019-05-16T08:56:09.918Z</time>
      </trkpt>
      <trkpt lat="38.75879833" lon="-9.09683667">
        <ele>11.0</ele>
        <time>2019-05-16T08:56:10.928Z</time>
      </trkpt>
      <trkpt lat="38.75879833" lon="-9.09683667">
        <ele>11.0</ele>
        <time>2019-05-16T08:56:11.902Z</time>
      </trkpt>
      <trkpt lat="38.75883167" lon="-9.09681167">
        <ele>10.0</ele>
        <time>2019-05-16T08:56:12.911Z</time>
      </trkpt>
      <trkpt lat="38.75883167" lon="-9.09681167">
        <ele>10.0</ele>
        <time>2019-05-16T08:56:13.926Z</time>
      </trkpt>
      <trkpt lat="38.758855" lon="-9.09679667">
        <ele>11.0</ele>
        <time>2019-05-16T08:56:14.934Z</time>
      </trkpt>
      <trkpt lat="38.758855" lon="-9.09679667">
        <ele>11.0</ele>
        <time>2019-05-16T08:56:15.935Z</time>
      </trkpt>
      <trkpt lat="38.75886167" lon="-9.09680167">
        <ele>11.0</ele>
        <time>2019-05-16T08:56:16.963Z</time>
      </trkpt>
      <trkpt lat="38.75886167" lon="-9.09680167">
        <ele>11.0</ele>
        <time>2019-05-16T08:56:17.897Z</time>
      </trkpt>
      <trkpt lat="38.75886333" lon="-9.096805">
        <ele>12.0</ele>
        <time>2019-05-16T08:56:18.902Z</time>
      </trkpt>
      <trkpt lat="38.75886333" lon="-9.096805">
        <ele>12.0</ele>
        <time>2019-05-16T08:56:19.915Z</time>
      </trkpt>
      <trkpt lat="38.75886333" lon="-9.096805">
        <ele>12.0</ele>
        <time>2019-05-16T08:56:20.904Z</time>
      </trkpt>
      <trkpt lat="38.75886333" lon="-9.096805">
        <ele>12.0</ele>
        <time>2019-05-16T08:56:21.916Z</time>
      </trkpt>
      <trkpt lat="38.75886333" lon="-9.096805">
        <ele>12.0</ele>
        <time>2019-05-16T08:56:22.923Z</time>
      </trkpt>
      <trkpt lat="38.75886333" lon="-9.096805">
        <ele>12.0</ele>
        <time>2019-05-16T08:56:23.921Z</time>
      </trkpt>
      <trkpt lat="38.75886333" lon="-9.096805">
        <ele>12.0</ele>
        <time>2019-05-16T08:56:24.928Z</time>
      </trkpt>
      <trkpt lat="38.75886333" lon="-9.096805">
        <ele>12.0</ele>
        <time>2019-05-16T08:56:25.920Z</time>
      </trkpt>
      <trkpt lat="38.75889167" lon="-9.096805">
        <ele>14.0</ele>
        <time>2019-05-16T08:56:26.925Z</time>
      </trkpt>
      <trkpt lat="38.75889167" lon="-9.096805">
        <ele>14.0</ele>
        <time>2019-05-16T08:56:27.931Z</time>
      </trkpt>
      <trkpt lat="38.758925" lon="-9.09678167">
        <ele>14.0</ele>
        <time>2019-05-16T08:56:28.917Z</time>
      </trkpt>
      <trkpt lat="38.75894667" lon="-9.09676667">
        <ele>14.0</ele>
        <time>2019-05-16T08:56:29.902Z</time>
      </trkpt>
      <trkpt lat="38.75897167" lon="-9.09674667">
        <ele>15.0</ele>
        <time>2019-05-16T08:56:30.927Z</time>
      </trkpt>
      <trkpt lat="38.75897167" lon="-9.09674667">
        <ele>15.0</ele>
        <time>2019-05-16T08:56:31.920Z</time>
      </trkpt>
      <trkpt lat="38.75902167" lon="-9.09669333">
        <ele>14.0</ele>
        <time>2019-05-16T08:56:32.940Z</time>
      </trkpt>
      <trkpt lat="38.75902167" lon="-9.09669333">
        <ele>14.0</ele>
        <time>2019-05-16T08:56:33.916Z</time>
      </trkpt>
      <trkpt lat="38.75909" lon="-9.09664">
        <ele>14.0</ele>
        <time>2019-05-16T08:56:34.925Z</time>
      </trkpt>
      <trkpt lat="38.75909" lon="-9.09664">
        <ele>14.0</ele>
        <time>2019-05-16T08:56:35.913Z</time>
      </trkpt>
      <trkpt lat="38.759155" lon="-9.096585">
        <ele>14.0</ele>
        <time>2019-05-16T08:56:36.920Z</time>
      </trkpt>
      <trkpt lat="38.759155" lon="-9.096585">
        <ele>14.0</ele>
        <time>2019-05-16T08:56:37.904Z</time>
      </trkpt>
      <trkpt lat="38.75922333" lon="-9.09653667">
        <ele>14.0</ele>
        <time>2019-05-16T08:56:38.916Z</time>
      </trkpt>
      <trkpt lat="38.75925833" lon="-9.09650833">
        <ele>13.0</ele>
        <time>2019-05-16T08:56:39.936Z</time>
      </trkpt>
      <trkpt lat="38.75925833" lon="-9.09650833">
        <ele>13.0</ele>
        <time>2019-05-16T08:56:40.914Z</time>
      </trkpt>
      <trkpt lat="38.75934" lon="-9.09645167">
        <ele>13.0</ele>
        <time>2019-05-16T08:56:41.927Z</time>
      </trkpt>
      <trkpt lat="38.75938167" lon="-9.09642333">
        <ele>13.0</ele>
        <time>2019-05-16T08:56:42.910Z</time>
      </trkpt>
      <trkpt lat="38.75938167" lon="-9.09642333">
        <ele>13.0</ele>
        <time>2019-05-16T08:56:43.932Z</time>
      </trkpt>
      <trkpt lat="38.75946333" lon="-9.09637667">
        <ele>13.0</ele>
        <time>2019-05-16T08:56:44.907Z</time>
      </trkpt>
      <trkpt lat="38.75946333" lon="-9.09637667">
        <ele>13.0</ele>
        <time>2019-05-16T08:56:45.929Z</time>
      </trkpt>
      <trkpt lat="38.759545" lon="-9.09634167">
        <ele>13.0</ele>
        <time>2019-05-16T08:56:46.915Z</time>
      </trkpt>
      <trkpt lat="38.759545" lon="-9.09634167">
        <ele>13.0</ele>
        <time>2019-05-16T08:56:47.928Z</time>
      </trkpt>
      <trkpt lat="38.75962833" lon="-9.09631667">
        <ele>12.0</ele>
        <time>2019-05-16T08:56:48.936Z</time>
      </trkpt>
      <trkpt lat="38.75962833" lon="-9.09631667">
        <ele>12.0</ele>
        <time>2019-05-16T08:56:49.917Z</time>
      </trkpt>
      <trkpt lat="38.75971167" lon="-9.09631">
        <ele>11.0</ele>
        <time>2019-05-16T08:56:50.931Z</time>
      </trkpt>
      <trkpt lat="38.75971167" lon="-9.09631">
        <ele>11.0</ele>
        <time>2019-05-16T08:56:51.916Z</time>
      </trkpt>
      <trkpt lat="38.75978833" lon="-9.09630667">
        <ele>11.0</ele>
        <time>2019-05-16T08:56:52.899Z</time>
      </trkpt>
      <trkpt lat="38.75978833" lon="-9.09630667">
        <ele>11.0</ele>
        <time>2019-05-16T08:56:53.920Z</time>
      </trkpt>
      <trkpt lat="38.75986833" lon="-9.096295">
        <ele>11.0</ele>
        <time>2019-05-16T08:56:54.936Z</time>
      </trkpt>
      <trkpt lat="38.75986833" lon="-9.096295">
        <ele>11.0</ele>
        <time>2019-05-16T08:56:55.906Z</time>
      </trkpt>
      <trkpt lat="38.75994333" lon="-9.09628833">
        <ele>11.0</ele>
        <time>2019-05-16T08:56:56.912Z</time>
      </trkpt>
      <trkpt lat="38.75994333" lon="-9.09628833">
        <ele>11.0</ele>
        <time>2019-05-16T08:56:57.927Z</time>
      </trkpt>
      <trkpt lat="38.76002" lon="-9.09628333">
        <ele>11.0</ele>
        <time>2019-05-16T08:56:58.936Z</time>
      </trkpt>
      <trkpt lat="38.76002" lon="-9.09628333">
        <ele>11.0</ele>
        <time>2019-05-16T08:56:59.918Z</time>
      </trkpt>
      <trkpt lat="38.76009833" lon="-9.096275">
        <ele>10.0</ele>
        <time>2019-05-16T08:57:00.931Z</time>
      </trkpt>
      <trkpt lat="38.76009833" lon="-9.096275">
        <ele>10.0</ele>
        <time>2019-05-16T08:57:01.901Z</time>
      </trkpt>
      <trkpt lat="38.76017833" lon="-9.09626667">
        <ele>10.0</ele>
        <time>2019-05-16T08:57:02.907Z</time>
      </trkpt>
      <trkpt lat="38.76017833" lon="-9.09626667">
        <ele>10.0</ele>
        <time>2019-05-16T08:57:03.899Z</time>
      </trkpt>
      <trkpt lat="38.76025833" lon="-9.09626">
        <ele>10.0</ele>
        <time>2019-05-16T08:57:04.927Z</time>
      </trkpt>
      <trkpt lat="38.76025833" lon="-9.09626">
        <ele>10.0</ele>
        <time>2019-05-16T08:57:05.924Z</time>
      </trkpt>
      <trkpt lat="38.76034" lon="-9.09625333">
        <ele>10.0</ele>
        <time>2019-05-16T08:57:06.930Z</time>
      </trkpt>
      <trkpt lat="38.76034" lon="-9.09625333">
        <ele>10.0</ele>
        <time>2019-05-16T08:57:07.936Z</time>
      </trkpt>
      <trkpt lat="38.76042167" lon="-9.096245">
        <ele>9.0</ele>
        <time>2019-05-16T08:57:08.897Z</time>
      </trkpt>
      <trkpt lat="38.76042167" lon="-9.096245">
        <ele>9.0</ele>
        <time>2019-05-16T08:57:09.907Z</time>
      </trkpt>
      <trkpt lat="38.76050167" lon="-9.09623667">
        <ele>9.0</ele>
        <time>2019-05-16T08:57:10.900Z</time>
      </trkpt>
      <trkpt lat="38.76050167" lon="-9.09623667">
        <ele>9.0</ele>
        <time>2019-05-16T08:57:11.921Z</time>
      </trkpt>
      <trkpt lat="38.76058667" lon="-9.09623">
        <ele>9.0</ele>
        <time>2019-05-16T08:57:12.928Z</time>
      </trkpt>
      <trkpt lat="38.76058667" lon="-9.09623">
        <ele>9.0</ele>
        <time>2019-05-16T08:57:13.922Z</time>
      </trkpt>
      <trkpt lat="38.76066833" lon="-9.09622333">
        <ele>8.0</ele>
        <time>2019-05-16T08:57:14.927Z</time>
      </trkpt>
      <trkpt lat="38.76066833" lon="-9.09622333">
        <ele>8.0</ele>
        <time>2019-05-16T08:57:15.920Z</time>
      </trkpt>
      <trkpt lat="38.76074833" lon="-9.09621667">
        <ele>8.0</ele>
        <time>2019-05-16T08:57:16.927Z</time>
      </trkpt>
      <trkpt lat="38.76074833" lon="-9.09621667">
        <ele>8.0</ele>
        <time>2019-05-16T08:57:17.931Z</time>
      </trkpt>
      <trkpt lat="38.76082667" lon="-9.09621">
        <ele>8.0</ele>
        <time>2019-05-16T08:57:18.898Z</time>
      </trkpt>
      <trkpt lat="38.76086833" lon="-9.09620667">
        <ele>8.0</ele>
        <time>2019-05-16T08:57:19.928Z</time>
      </trkpt>
      <trkpt lat="38.76086833" lon="-9.09620667">
        <ele>8.0</ele>
        <time>2019-05-16T08:57:20.899Z</time>
      </trkpt>
      <trkpt lat="38.76095333" lon="-9.09619833">
        <ele>8.0</ele>
        <time>2019-05-16T08:57:21.923Z</time>
      </trkpt>
      <trkpt lat="38.76095333" lon="-9.09619833">
        <ele>8.0</ele>
        <time>2019-05-16T08:57:22.925Z</time>
      </trkpt>
      <trkpt lat="38.76103833" lon="-9.09619333">
        <ele>8.0</ele>
        <time>2019-05-16T08:57:23.898Z</time>
      </trkpt>
      <trkpt lat="38.76108" lon="-9.09619">
        <ele>8.0</ele>
        <time>2019-05-16T08:57:24.934Z</time>
      </trkpt>
      <trkpt lat="38.76108" lon="-9.09619">
        <ele>8.0</ele>
        <time>2019-05-16T08:57:25.930Z</time>
      </trkpt>
      <trkpt lat="38.761165" lon="-9.096175">
        <ele>8.0</ele>
        <time>2019-05-16T08:57:26.905Z</time>
      </trkpt>
      <trkpt lat="38.761165" lon="-9.096175">
        <ele>8.0</ele>
        <time>2019-05-16T08:57:27.932Z</time>
      </trkpt>
      <trkpt lat="38.76125" lon="-9.09616667">
        <ele>8.0</ele>
        <time>2019-05-16T08:57:28.912Z</time>
      </trkpt>
      <trkpt lat="38.76125" lon="-9.09616667">
        <ele>8.0</ele>
        <time>2019-05-16T08:57:29.924Z</time>
      </trkpt>
      <trkpt lat="38.76131833" lon="-9.09615167">
        <ele>8.0</ele>
        <time>2019-05-16T08:57:30.934Z</time>
      </trkpt>
      <trkpt lat="38.76131833" lon="-9.09615167">
        <ele>8.0</ele>
        <time>2019-05-16T08:57:31.926Z</time>
      </trkpt>
      <trkpt lat="38.76137167" lon="-9.09612333">
        <ele>8.0</ele>
        <time>2019-05-16T08:57:32.933Z</time>
      </trkpt>
      <trkpt lat="38.76137167" lon="-9.09612333">
        <ele>8.0</ele>
        <time>2019-05-16T08:57:33.925Z</time>
      </trkpt>
      <trkpt lat="38.76142" lon="-9.09608167">
        <ele>8.0</ele>
        <time>2019-05-16T08:57:34.933Z</time>
      </trkpt>
      <trkpt lat="38.76143667" lon="-9.09605167">
        <ele>8.0</ele>
        <time>2019-05-16T08:57:35.932Z</time>
      </trkpt>
      <trkpt lat="38.76144333" lon="-9.09603">
        <ele>8.0</ele>
        <time>2019-05-16T08:57:36.934Z</time>
      </trkpt>
      <trkpt lat="38.76144333" lon="-9.09603">
        <ele>8.0</ele>
        <time>2019-05-16T08:57:37.924Z</time>
      </trkpt>
      <trkpt lat="38.76145" lon="-9.09599">
        <ele>9.0</ele>
        <time>2019-05-16T08:57:38.931Z</time>
      </trkpt>
      <trkpt lat="38.76145" lon="-9.09599">
        <ele>9.0</ele>
        <time>2019-05-16T08:57:39.922Z</time>
      </trkpt>
      <trkpt lat="38.76145833" lon="-9.09595667">
        <ele>10.0</ele>
        <time>2019-05-16T08:57:40.931Z</time>
      </trkpt>
      <trkpt lat="38.76145833" lon="-9.09595667">
        <ele>10.0</ele>
        <time>2019-05-16T08:57:41.922Z</time>
      </trkpt>
      <trkpt lat="38.76146833" lon="-9.095915">
        <ele>11.0</ele>
        <time>2019-05-16T08:57:42.933Z</time>
      </trkpt>
      <trkpt lat="38.76146833" lon="-9.095915">
        <ele>11.0</ele>
        <time>2019-05-16T08:57:43.900Z</time>
      </trkpt>
      <trkpt lat="38.76148333" lon="-9.09590167">
        <ele>10.0</ele>
        <time>2019-05-16T08:57:44.934Z</time>
      </trkpt>
      <trkpt lat="38.76148333" lon="-9.09590167">
        <ele>10.0</ele>
        <time>2019-05-16T08:57:45.921Z</time>
      </trkpt>
      <trkpt lat="38.76149" lon="-9.09590167">
        <ele>10.0</ele>
        <time>2019-05-16T08:57:46.933Z</time>
      </trkpt>
      <trkpt lat="38.76149" lon="-9.09590167">
        <ele>10.0</ele>
        <time>2019-05-16T08:57:47.927Z</time>
      </trkpt>
      <trkpt lat="38.76149" lon="-9.09590167">
        <ele>10.0</ele>
        <time>2019-05-16T08:57:48.929Z</time>
      </trkpt>
      <trkpt lat="38.76149" lon="-9.09590167">
        <ele>10.0</ele>
        <time>2019-05-16T08:57:49.927Z</time>
      </trkpt>
      <trkpt lat="38.76149" lon="-9.09590167">
        <ele>10.0</ele>
        <time>2019-05-16T08:57:50.918Z</time>
      </trkpt>
      <trkpt lat="38.76149" lon="-9.09590167">
        <ele>10.0</ele>
        <time>2019-05-16T08:57:51.927Z</time>
      </trkpt>
      <trkpt lat="38.76149" lon="-9.09590167">
        <ele>10.0</ele>
        <time>2019-05-16T08:57:52.922Z</time>
      </trkpt>
      <trkpt lat="38.76149" lon="-9.09590167">
        <ele>10.0</ele>
        <time>2019-05-16T08:57:53.926Z</time>
      </trkpt>
      <trkpt lat="38.76149" lon="-9.09590167">
        <ele>10.0</ele>
        <time>2019-05-16T08:57:54.926Z</time>
      </trkpt>
      <trkpt lat="38.76149" lon="-9.09590167">
        <ele>10.0</ele>
        <time>2019-05-16T08:57:55.900Z</time>
      </trkpt>
      <trkpt lat="38.76149" lon="-9.09590167">
        <ele>10.0</ele>
        <time>2019-05-16T08:57:56.928Z</time>
      </trkpt>
      <trkpt lat="38.76149" lon="-9.09590167">
        <ele>10.0</ele>
        <time>2019-05-16T08:57:57.925Z</time>
      </trkpt>
      <trkpt lat="38.76149" lon="-9.09590167">
        <ele>10.0</ele>
        <time>2019-05-16T08:57:58.926Z</time>
      </trkpt>
      <trkpt lat="38.76149" lon="-9.09590167">
        <ele>10.0</ele>
        <time>2019-05-16T08:57:59.922Z</time>
      </trkpt>
      <trkpt lat="38.76149" lon="-9.09590167">
        <ele>10.0</ele>
        <time>2019-05-16T08:58:00.929Z</time>
      </trkpt>
      <trkpt lat="38.76149" lon="-9.09590167">
        <ele>10.0</ele>
        <time>2019-05-16T08:58:01.923Z</time>
      </trkpt>
      <trkpt lat="38.76149" lon="-9.09590167">
        <ele>10.0</ele>
        <time>2019-05-16T08:58:02.926Z</time>
      </trkpt>
      <trkpt lat="38.76149" lon="-9.09590167">
        <ele>10.0</ele>
        <time>2019-05-16T08:58:03.922Z</time>
      </trkpt>
      <trkpt lat="38.76149" lon="-9.09590167">
        <ele>10.0</ele>
        <time>2019-05-16T08:58:04.926Z</time>
      </trkpt>
      <trkpt lat="38.76149" lon="-9.09590167">
        <ele>10.0</ele>
        <time>2019-05-16T08:58:05.917Z</time>
      </trkpt>
      <trkpt lat="38.76149" lon="-9.09590167">
        <ele>10.0</ele>
        <time>2019-05-16T08:58:06.923Z</time>
      </trkpt>
      <trkpt lat="38.76149" lon="-9.09590167">
        <ele>10.0</ele>
        <time>2019-05-16T08:58:07.898Z</time>
      </trkpt>
      <trkpt lat="38.76149" lon="-9.09590167">
        <ele>10.0</ele>
        <time>2019-05-16T08:58:08.905Z</time>
      </trkpt>
      <trkpt lat="38.76149" lon="-9.09590167">
        <ele>10.0</ele>
        <time>2019-05-16T08:58:09.932Z</time>
      </trkpt>
      <trkpt lat="38.76149" lon="-9.09590167">
        <ele>10.0</ele>
        <time>2019-05-16T08:58:10.927Z</time>
      </trkpt>
      <trkpt lat="38.76149" lon="-9.09590167">
        <ele>10.0</ele>
        <time>2019-05-16T08:58:11.923Z</time>
      </trkpt>
      <trkpt lat="38.76149" lon="-9.09590167">
        <ele>10.0</ele>
        <time>2019-05-16T08:58:12.929Z</time>
      </trkpt>
      <trkpt lat="38.76149" lon="-9.09590167">
        <ele>10.0</ele>
        <time>2019-05-16T08:58:13.923Z</time>
      </trkpt>
      <trkpt lat="38.76149" lon="-9.09590167">
        <ele>10.0</ele>
        <time>2019-05-16T08:58:14.927Z</time>
      </trkpt>
      <trkpt lat="38.76149" lon="-9.09590167">
        <ele>10.0</ele>
        <time>2019-05-16T08:58:15.925Z</time>
      </trkpt>
      <trkpt lat="38.76156333" lon="-9.09589667">
        <ele>9.0</ele>
        <time>2019-05-16T08:58:16.929Z</time>
      </trkpt>
      <trkpt lat="38.76156333" lon="-9.09589667">
        <ele>9.0</ele>
        <time>2019-05-16T08:58:17.924Z</time>
      </trkpt>
      <trkpt lat="38.761595" lon="-9.0959">
        <ele>9.0</ele>
        <time>2019-05-16T08:58:18.903Z</time>
      </trkpt>
      <trkpt lat="38.761595" lon="-9.0959">
        <ele>9.0</ele>
        <time>2019-05-16T08:58:19.931Z</time>
      </trkpt>
      <trkpt lat="38.761635" lon="-9.09590667">
        <ele>9.0</ele>
        <time>2019-05-16T08:58:20.933Z</time>
      </trkpt>
      <trkpt lat="38.761635" lon="-9.09590667">
        <ele>9.0</ele>
        <time>2019-05-16T08:58:21.925Z</time>
      </trkpt>
      <trkpt lat="38.76167667" lon="-9.09591833">
        <ele>9.0</ele>
        <time>2019-05-16T08:58:22.933Z</time>
      </trkpt>
      <trkpt lat="38.76167667" lon="-9.09591833">
        <ele>9.0</ele>
        <time>2019-05-16T08:58:23.922Z</time>
      </trkpt>
      <trkpt lat="38.76172333" lon="-9.09593833">
        <ele>9.0</ele>
        <time>2019-05-16T08:58:24.933Z</time>
      </trkpt>
      <trkpt lat="38.76172333" lon="-9.09593833">
        <ele>9.0</ele>
        <time>2019-05-16T08:58:25.922Z</time>
      </trkpt>
      <trkpt lat="38.76176667" lon="-9.09595833">
        <ele>9.0</ele>
        <time>2019-05-16T08:58:26.900Z</time>
      </trkpt>
      <trkpt lat="38.761785" lon="-9.09597167">
        <ele>9.0</ele>
        <time>2019-05-16T08:58:27.915Z</time>
      </trkpt>
      <trkpt lat="38.761785" lon="-9.09597167">
        <ele>9.0</ele>
        <time>2019-05-16T08:58:28.897Z</time>
      </trkpt>
      <trkpt lat="38.76182167" lon="-9.09598333">
        <ele>9.0</ele>
        <time>2019-05-16T08:58:29.901Z</time>
      </trkpt>
      <trkpt lat="38.76184333" lon="-9.09598">
        <ele>9.0</ele>
        <time>2019-05-16T08:58:30.913Z</time>
      </trkpt>
      <trkpt lat="38.76184333" lon="-9.09598">
        <ele>9.0</ele>
        <time>2019-05-16T08:58:31.937Z</time>
      </trkpt>
      <trkpt lat="38.76188" lon="-9.09598333">
        <ele>9.0</ele>
        <time>2019-05-16T08:58:32.911Z</time>
      </trkpt>
      <trkpt lat="38.76188" lon="-9.09598333">
        <ele>9.0</ele>
        <time>2019-05-16T08:58:33.925Z</time>
      </trkpt>
      <trkpt lat="38.76190167" lon="-9.096015">
        <ele>10.0</ele>
        <time>2019-05-16T08:58:34.933Z</time>
      </trkpt>
      <trkpt lat="38.76190667" lon="-9.09603">
        <ele>10.0</ele>
        <time>2019-05-16T08:58:35.925Z</time>
      </trkpt>
      <trkpt lat="38.76191667" lon="-9.09603667">
        <ele>11.0</ele>
        <time>2019-05-16T08:58:36.904Z</time>
      </trkpt>
      <trkpt lat="38.76191667" lon="-9.09603667">
        <ele>11.0</ele>
        <time>2019-05-16T08:58:37.918Z</time>
      </trkpt>
      <trkpt lat="38.76195167" lon="-9.09603167">
        <ele>11.0</ele>
        <time>2019-05-16T08:58:38.928Z</time>
      </trkpt>
      <trkpt lat="38.76195167" lon="-9.09603167">
        <ele>11.0</ele>
        <time>2019-05-16T08:58:39.903Z</time>
      </trkpt>
      <trkpt lat="38.76199333" lon="-9.09601833">
        <ele>11.0</ele>
        <time>2019-05-16T08:58:40.917Z</time>
      </trkpt>
      <trkpt lat="38.76199333" lon="-9.09601833">
        <ele>11.0</ele>
        <time>2019-05-16T08:58:41.898Z</time>
      </trkpt>
      <trkpt lat="38.76204" lon="-9.096015">
        <ele>12.0</ele>
        <time>2019-05-16T08:58:42.908Z</time>
      </trkpt>
      <trkpt lat="38.76204" lon="-9.096015">
        <ele>12.0</ele>
        <time>2019-05-16T08:58:43.932Z</time>
      </trkpt>
      <trkpt lat="38.76208833" lon="-9.09601333">
        <ele>11.0</ele>
        <time>2019-05-16T08:58:44.907Z</time>
      </trkpt>
      <trkpt lat="38.76208833" lon="-9.09601333">
        <ele>11.0</ele>
        <time>2019-05-16T08:58:45.925Z</time>
      </trkpt>
      <trkpt lat="38.76213" lon="-9.09601333">
        <ele>12.0</ele>
        <time>2019-05-16T08:58:46.897Z</time>
      </trkpt>
      <trkpt lat="38.76213" lon="-9.09601333">
        <ele>12.0</ele>
        <time>2019-05-16T08:58:47.920Z</time>
      </trkpt>
      <trkpt lat="38.76216667" lon="-9.09601833">
        <ele>12.0</ele>
        <time>2019-05-16T08:58:48.927Z</time>
      </trkpt>
      <trkpt lat="38.76216667" lon="-9.09601833">
        <ele>12.0</ele>
        <time>2019-05-16T08:58:49.912Z</time>
      </trkpt>
      <trkpt lat="38.76221667" lon="-9.09601333">
        <ele>11.0</ele>
        <time>2019-05-16T08:58:50.921Z</time>
      </trkpt>
      <trkpt lat="38.76221667" lon="-9.09601333">
        <ele>11.0</ele>
        <time>2019-05-16T08:58:51.911Z</time>
      </trkpt>
      <trkpt lat="38.76226167" lon="-9.09601">
        <ele>11.0</ele>
        <time>2019-05-16T08:58:52.918Z</time>
      </trkpt>
      <trkpt lat="38.76226167" lon="-9.09601">
        <ele>11.0</ele>
        <time>2019-05-16T08:58:53.898Z</time>
      </trkpt>
      <trkpt lat="38.76231167" lon="-9.09600833">
        <ele>11.0</ele>
        <time>2019-05-16T08:58:54.909Z</time>
      </trkpt>
      <trkpt lat="38.76231167" lon="-9.09600833">
        <ele>11.0</ele>
        <time>2019-05-16T08:58:55.907Z</time>
      </trkpt>
      <trkpt lat="38.76236167" lon="-9.096005">
        <ele>11.0</ele>
        <time>2019-05-16T08:58:56.915Z</time>
      </trkpt>
      <trkpt lat="38.76236167" lon="-9.096005">
        <ele>11.0</ele>
        <time>2019-05-16T08:58:57.936Z</time>
      </trkpt>
      <trkpt lat="38.76241167" lon="-9.09600333">
        <ele>11.0</ele>
        <time>2019-05-16T08:58:58.909Z</time>
      </trkpt>
      <trkpt lat="38.76241167" lon="-9.09600333">
        <ele>11.0</ele>
        <time>2019-05-16T08:58:59.933Z</time>
      </trkpt>
      <trkpt lat="38.76245833" lon="-9.096">
        <ele>11.0</ele>
        <time>2019-05-16T08:59:00.919Z</time>
      </trkpt>
      <trkpt lat="38.76245833" lon="-9.096">
        <ele>11.0</ele>
        <time>2019-05-16T08:59:01.930Z</time>
      </trkpt>
      <trkpt lat="38.76249833" lon="-9.09599333">
        <ele>11.0</ele>
        <time>2019-05-16T08:59:02.906Z</time>
      </trkpt>
      <trkpt lat="38.76249833" lon="-9.09599333">
        <ele>11.0</ele>
        <time>2019-05-16T08:59:03.927Z</time>
      </trkpt>
      <trkpt lat="38.76252833" lon="-9.09598667">
        <ele>11.0</ele>
        <time>2019-05-16T08:59:04.935Z</time>
      </trkpt>
      <trkpt lat="38.76252833" lon="-9.09598667">
        <ele>11.0</ele>
        <time>2019-05-16T08:59:05.906Z</time>
      </trkpt>
      <trkpt lat="38.76254833" lon="-9.09598833">
        <ele>13.0</ele>
        <time>2019-05-16T08:59:06.934Z</time>
      </trkpt>
      <trkpt lat="38.76254833" lon="-9.09598833">
        <ele>13.0</ele>
        <time>2019-05-16T08:59:07.898Z</time>
      </trkpt>
      <trkpt lat="38.76257333" lon="-9.095985">
        <ele>14.0</ele>
        <time>2019-05-16T08:59:08.935Z</time>
      </trkpt>
      <trkpt lat="38.76257333" lon="-9.095985">
        <ele>14.0</ele>
        <time>2019-05-16T08:59:09.925Z</time>
      </trkpt>
      <trkpt lat="38.76260667" lon="-9.09598833">
        <ele>14.0</ele>
        <time>2019-05-16T08:59:10.928Z</time>
      </trkpt>
      <trkpt lat="38.76262167" lon="-9.09599">
        <ele>15.0</ele>
        <time>2019-05-16T08:59:11.929Z</time>
      </trkpt>
      <trkpt lat="38.76262167" lon="-9.09599">
        <ele>15.0</ele>
        <time>2019-05-16T08:59:12.925Z</time>
      </trkpt>
      <trkpt lat="38.76264833" lon="-9.09598667">
        <ele>15.0</ele>
        <time>2019-05-16T08:59:13.935Z</time>
      </trkpt>
      <trkpt lat="38.76264833" lon="-9.09598667">
        <ele>15.0</ele>
        <time>2019-05-16T08:59:14.925Z</time>
      </trkpt>
      <trkpt lat="38.76267333" lon="-9.09599333">
        <ele>16.0</ele>
        <time>2019-05-16T08:59:15.957Z</time>
      </trkpt>
      <trkpt lat="38.76267333" lon="-9.09599333">
        <ele>16.0</ele>
        <time>2019-05-16T08:59:16.924Z</time>
      </trkpt>
      <trkpt lat="38.76268667" lon="-9.096">
        <ele>16.0</ele>
        <time>2019-05-16T08:59:17.897Z</time>
      </trkpt>
      <trkpt lat="38.76268667" lon="-9.09599833">
        <ele>15.0</ele>
        <time>2019-05-16T08:59:18.916Z</time>
      </trkpt>
      <trkpt lat="38.76268667" lon="-9.09599833">
        <ele>15.0</ele>
        <time>2019-05-16T08:59:19.932Z</time>
      </trkpt>
      <trkpt lat="38.762685" lon="-9.09599667">
        <ele>15.0</ele>
        <time>2019-05-16T08:59:20.919Z</time>
      </trkpt>
      <trkpt lat="38.762685" lon="-9.09599667">
        <ele>15.0</ele>
        <time>2019-05-16T08:59:21.908Z</time>
      </trkpt>
      <trkpt lat="38.762685" lon="-9.09599667">
        <ele>15.0</ele>
        <time>2019-05-16T08:59:22.917Z</time>
      </trkpt>
      <trkpt lat="38.762685" lon="-9.09599667">
        <ele>15.0</ele>
        <time>2019-05-16T08:59:23.925Z</time>
      </trkpt>
      <trkpt lat="38.762685" lon="-9.09599667">
        <ele>15.0</ele>
        <time>2019-05-16T08:59:24.931Z</time>
      </trkpt>
      <trkpt lat="38.762685" lon="-9.09599667">
        <ele>15.0</ele>
        <time>2019-05-16T08:59:25.923Z</time>
      </trkpt>
      <trkpt lat="38.762685" lon="-9.09599667">
        <ele>15.0</ele>
        <time>2019-05-16T08:59:26.928Z</time>
      </trkpt>
      <trkpt lat="38.762685" lon="-9.09599667">
        <ele>15.0</ele>
        <time>2019-05-16T08:59:27.931Z</time>
      </trkpt>
      <trkpt lat="38.762685" lon="-9.09599667">
        <ele>15.0</ele>
        <time>2019-05-16T08:59:28.927Z</time>
      </trkpt>
      <trkpt lat="38.762685" lon="-9.09599667">
        <ele>15.0</ele>
        <time>2019-05-16T08:59:29.923Z</time>
      </trkpt>
      <trkpt lat="38.762685" lon="-9.09599667">
        <ele>15.0</ele>
        <time>2019-05-16T08:59:30.930Z</time>
      </trkpt>
      <trkpt lat="38.762685" lon="-9.09599667">
        <ele>15.0</ele>
        <time>2019-05-16T08:59:31.922Z</time>
      </trkpt>
      <trkpt lat="38.762685" lon="-9.09599667">
        <ele>15.0</ele>
        <time>2019-05-16T08:59:32.927Z</time>
      </trkpt>
      <trkpt lat="38.762685" lon="-9.09599667">
        <ele>15.0</ele>
        <time>2019-05-16T08:59:33.922Z</time>
      </trkpt>
      <trkpt lat="38.762685" lon="-9.09599667">
        <ele>15.0</ele>
        <time>2019-05-16T08:59:34.927Z</time>
      </trkpt>
      <trkpt lat="38.762685" lon="-9.09599667">
        <ele>15.0</ele>
        <time>2019-05-16T08:59:35.922Z</time>
      </trkpt>
      <trkpt lat="38.762685" lon="-9.09599667">
        <ele>15.0</ele>
        <time>2019-05-16T08:59:36.930Z</time>
      </trkpt>
      <trkpt lat="38.762685" lon="-9.09599667">
        <ele>15.0</ele>
        <time>2019-05-16T08:59:37.930Z</time>
      </trkpt>
      <trkpt lat="38.762685" lon="-9.09599667">
        <ele>15.0</ele>
        <time>2019-05-16T08:59:38.928Z</time>
      </trkpt>
      <trkpt lat="38.762685" lon="-9.09599667">
        <ele>15.0</ele>
        <time>2019-05-16T08:59:39.922Z</time>
      </trkpt>
      <trkpt lat="38.762685" lon="-9.09599667">
        <ele>15.0</ele>
        <time>2019-05-16T08:59:40.927Z</time>
      </trkpt>
      <trkpt lat="38.762685" lon="-9.09599667">
        <ele>15.0</ele>
        <time>2019-05-16T08:59:41.922Z</time>
      </trkpt>
      <trkpt lat="38.762685" lon="-9.09599667">
        <ele>15.0</ele>
        <time>2019-05-16T08:59:42.929Z</time>
      </trkpt>
      <trkpt lat="38.762685" lon="-9.09599667">
        <ele>15.0</ele>
        <time>2019-05-16T08:59:43.928Z</time>
      </trkpt>
      <trkpt lat="38.762685" lon="-9.09599667">
        <ele>15.0</ele>
        <time>2019-05-16T08:59:44.922Z</time>
      </trkpt>
      <trkpt lat="38.762685" lon="-9.09599667">
        <ele>15.0</ele>
        <time>2019-05-16T08:59:45.920Z</time>
      </trkpt>
      <trkpt lat="38.762685" lon="-9.09599667">
        <ele>15.0</ele>
        <time>2019-05-16T08:59:46.898Z</time>
      </trkpt>
      <trkpt lat="38.762685" lon="-9.09599667">
        <ele>15.0</ele>
        <time>2019-05-16T08:59:47.930Z</time>
      </trkpt>
      <trkpt lat="38.762685" lon="-9.09599667">
        <ele>15.0</ele>
        <time>2019-05-16T08:59:48.910Z</time>
      </trkpt>
      <trkpt lat="38.762685" lon="-9.09599667">
        <ele>15.0</ele>
        <time>2019-05-16T08:59:49.934Z</time>
      </trkpt>
      <trkpt lat="38.762685" lon="-9.09599667">
        <ele>15.0</ele>
        <time>2019-05-16T08:59:50.922Z</time>
      </trkpt>
      <trkpt lat="38.762685" lon="-9.09599667">
        <ele>15.0</ele>
        <time>2019-05-16T08:59:51.902Z</time>
      </trkpt>
      <trkpt lat="38.762685" lon="-9.09599667">
        <ele>15.0</ele>
        <time>2019-05-16T08:59:52.928Z</time>
      </trkpt>
      <trkpt lat="38.762685" lon="-9.09599667">
        <ele>15.0</ele>
        <time>2019-05-16T08:59:53.922Z</time>
      </trkpt>
      <trkpt lat="38.762685" lon="-9.09599667">
        <ele>15.0</ele>
        <time>2019-05-16T08:59:54.930Z</time>
      </trkpt>
      <trkpt lat="38.762685" lon="-9.09599667">
        <ele>15.0</ele>
        <time>2019-05-16T08:59:55.922Z</time>
      </trkpt>
      <trkpt lat="38.762685" lon="-9.09599667">
        <ele>15.0</ele>
        <time>2019-05-16T08:59:56.927Z</time>
      </trkpt>
      <trkpt lat="38.762685" lon="-9.09599667">
        <ele>15.0</ele>
        <time>2019-05-16T08:59:57.927Z</time>
      </trkpt>
      <trkpt lat="38.762685" lon="-9.09599667">
        <ele>15.0</ele>
        <time>2019-05-16T08:59:58.927Z</time>
      </trkpt>
      <trkpt lat="38.762685" lon="-9.09599667">
        <ele>15.0</ele>
        <time>2019-05-16T08:59:59.922Z</time>
      </trkpt>
      <trkpt lat="38.762685" lon="-9.09599667">
        <ele>15.0</ele>
        <time>2019-05-16T09:00:00.929Z</time>
      </trkpt>
      <trkpt lat="38.762685" lon="-9.09599667">
        <ele>15.0</ele>
        <time>2019-05-16T09:00:01.922Z</time>
      </trkpt>
      <trkpt lat="38.762685" lon="-9.09599667">
        <ele>15.0</ele>
        <time>2019-05-16T09:00:02.907Z</time>
      </trkpt>
      <trkpt lat="38.762685" lon="-9.09599667">
        <ele>15.0</ele>
        <time>2019-05-16T09:00:03.925Z</time>
      </trkpt>
      <trkpt lat="38.762685" lon="-9.09599667">
        <ele>15.0</ele>
        <time>2019-05-16T09:00:04.927Z</time>
      </trkpt>
      <trkpt lat="38.762685" lon="-9.09599667">
        <ele>15.0</ele>
        <time>2019-05-16T09:00:05.922Z</time>
      </trkpt>
      <trkpt lat="38.762685" lon="-9.09599667">
        <ele>15.0</ele>
        <time>2019-05-16T09:00:06.930Z</time>
      </trkpt>
      <trkpt lat="38.762685" lon="-9.09599667">
        <ele>15.0</ele>
        <time>2019-05-16T09:00:07.930Z</time>
      </trkpt>
      <trkpt lat="38.762685" lon="-9.09599667">
        <ele>15.0</ele>
        <time>2019-05-16T09:00:08.923Z</time>
      </trkpt>
      <trkpt lat="38.762685" lon="-9.09599667">
        <ele>15.0</ele>
        <time>2019-05-16T09:00:09.927Z</time>
      </trkpt>
      <trkpt lat="38.762685" lon="-9.09599667">
        <ele>15.0</ele>
        <time>2019-05-16T09:00:10.923Z</time>
      </trkpt>
      <trkpt lat="38.762685" lon="-9.09599667">
        <ele>15.0</ele>
        <time>2019-05-16T09:00:11.927Z</time>
      </trkpt>
      <trkpt lat="38.762685" lon="-9.09599667">
        <ele>15.0</ele>
        <time>2019-05-16T09:00:12.931Z</time>
      </trkpt>
      <trkpt lat="38.762685" lon="-9.09599667">
        <ele>15.0</ele>
        <time>2019-05-16T09:00:13.927Z</time>
      </trkpt>
      <trkpt lat="38.762685" lon="-9.09599667">
        <ele>15.0</ele>
        <time>2019-05-16T09:00:14.923Z</time>
      </trkpt>
      <trkpt lat="38.762685" lon="-9.09599667">
        <ele>15.0</ele>
        <time>2019-05-16T09:00:15.927Z</time>
      </trkpt>
      <trkpt lat="38.762685" lon="-9.09599667">
        <ele>15.0</ele>
        <time>2019-05-16T09:00:16.928Z</time>
      </trkpt>
      <trkpt lat="38.762685" lon="-9.09599667">
        <ele>15.0</ele>
        <time>2019-05-16T09:00:17.926Z</time>
      </trkpt>
      <trkpt lat="38.762685" lon="-9.09599667">
        <ele>15.0</ele>
        <time>2019-05-16T09:00:18.930Z</time>
      </trkpt>
      <trkpt lat="38.762685" lon="-9.09599667">
        <ele>15.0</ele>
        <time>2019-05-16T09:00:19.922Z</time>
      </trkpt>
      <trkpt lat="38.762685" lon="-9.09599667">
        <ele>15.0</ele>
        <time>2019-05-16T09:00:20.931Z</time>
      </trkpt>
      <trkpt lat="38.762685" lon="-9.09599667">
        <ele>15.0</ele>
        <time>2019-05-16T09:00:21.925Z</time>
      </trkpt>
      <trkpt lat="38.762685" lon="-9.09599667">
        <ele>15.0</ele>
        <time>2019-05-16T09:00:22.922Z</time>
      </trkpt>
      <trkpt lat="38.762685" lon="-9.09599667">
        <ele>15.0</ele>
        <time>2019-05-16T09:00:23.927Z</time>
      </trkpt>
      <trkpt lat="38.762685" lon="-9.09599667">
        <ele>15.0</ele>
        <time>2019-05-16T09:00:24.931Z</time>
      </trkpt>
      <trkpt lat="38.762685" lon="-9.09599667">
        <ele>15.0</ele>
        <time>2019-05-16T09:00:25.922Z</time>
      </trkpt>
      <trkpt lat="38.762685" lon="-9.09599667">
        <ele>15.0</ele>
        <time>2019-05-16T09:00:26.927Z</time>
      </trkpt>
      <trkpt lat="38.762685" lon="-9.09599667">
        <ele>15.0</ele>
        <time>2019-05-16T09:00:27.931Z</time>
      </trkpt>
      <trkpt lat="38.762685" lon="-9.09599667">
        <ele>15.0</ele>
        <time>2019-05-16T09:00:28.927Z</time>
      </trkpt>
      <trkpt lat="38.762685" lon="-9.09599667">
        <ele>15.0</ele>
        <time>2019-05-16T09:00:29.928Z</time>
      </trkpt>
      <trkpt lat="38.762685" lon="-9.09599667">
        <ele>15.0</ele>
        <time>2019-05-16T09:00:30.921Z</time>
      </trkpt>
      <trkpt lat="38.762685" lon="-9.09599667">
        <ele>15.0</ele>
        <time>2019-05-16T09:00:31.928Z</time>
      </trkpt>
      <trkpt lat="38.762685" lon="-9.09599667">
        <ele>15.0</ele>
        <time>2019-05-16T09:00:32.928Z</time>
      </trkpt>
      <trkpt lat="38.762685" lon="-9.09599667">
        <ele>15.0</ele>
        <time>2019-05-16T09:00:33.924Z</time>
      </trkpt>
      <trkpt lat="38.762685" lon="-9.09599667">
        <ele>15.0</ele>
        <time>2019-05-16T09:00:34.926Z</time>
      </trkpt>
      <trkpt lat="38.762685" lon="-9.09599667">
        <ele>15.0</ele>
        <time>2019-05-16T09:00:35.924Z</time>
      </trkpt>
      <trkpt lat="38.762685" lon="-9.09599667">
        <ele>15.0</ele>
        <time>2019-05-16T09:00:36.931Z</time>
      </trkpt>
      <trkpt lat="38.762685" lon="-9.09599667">
        <ele>15.0</ele>
        <time>2019-05-16T09:00:37.931Z</time>
      </trkpt>
      <trkpt lat="38.762685" lon="-9.09599667">
        <ele>15.0</ele>
        <time>2019-05-16T09:00:38.929Z</time>
      </trkpt>
      <trkpt lat="38.762685" lon="-9.09599667">
        <ele>15.0</ele>
        <time>2019-05-16T09:00:39.923Z</time>
      </trkpt>
      <trkpt lat="38.762685" lon="-9.09599667">
        <ele>15.0</ele>
        <time>2019-05-16T09:00:40.920Z</time>
      </trkpt>
      <trkpt lat="38.762685" lon="-9.09599667">
        <ele>15.0</ele>
        <time>2019-05-16T09:00:41.900Z</time>
      </trkpt>
      <trkpt lat="38.762685" lon="-9.09599667">
        <ele>15.0</ele>
        <time>2019-05-16T09:00:42.931Z</time>
      </trkpt>
      <trkpt lat="38.762685" lon="-9.09599667">
        <ele>15.0</ele>
        <time>2019-05-16T09:00:43.929Z</time>
      </trkpt>
      <trkpt lat="38.762685" lon="-9.09599667">
        <ele>15.0</ele>
        <time>2019-05-16T09:00:44.928Z</time>
      </trkpt>
      <trkpt lat="38.762685" lon="-9.09599667">
        <ele>15.0</ele>
        <time>2019-05-16T09:00:45.923Z</time>
      </trkpt>
      <trkpt lat="38.762685" lon="-9.09599667">
        <ele>15.0</ele>
        <time>2019-05-16T09:00:46.929Z</time>
      </trkpt>
      <trkpt lat="38.762685" lon="-9.09599667">
        <ele>15.0</ele>
        <time>2019-05-16T09:00:47.925Z</time>
      </trkpt>
      <trkpt lat="38.762685" lon="-9.09599667">
        <ele>15.0</ele>
        <time>2019-05-16T09:00:48.930Z</time>
      </trkpt>
      <trkpt lat="38.762685" lon="-9.09599667">
        <ele>15.0</ele>
        <time>2019-05-16T09:00:49.922Z</time>
      </trkpt>
      <trkpt lat="38.762685" lon="-9.09599667">
        <ele>15.0</ele>
        <time>2019-05-16T09:00:50.924Z</time>
      </trkpt>
      <trkpt lat="38.762685" lon="-9.09599667">
        <ele>15.0</ele>
        <time>2019-05-16T09:00:51.923Z</time>
      </trkpt>
      <trkpt lat="38.762685" lon="-9.09599667">
        <ele>15.0</ele>
        <time>2019-05-16T09:00:52.928Z</time>
      </trkpt>
      <trkpt lat="38.762685" lon="-9.09599667">
        <ele>15.0</ele>
        <time>2019-05-16T09:00:53.923Z</time>
      </trkpt>
      <trkpt lat="38.762685" lon="-9.09599667">
        <ele>15.0</ele>
        <time>2019-05-16T09:00:54.928Z</time>
      </trkpt>
      <trkpt lat="38.762685" lon="-9.09599667">
        <ele>15.0</ele>
        <time>2019-05-16T09:00:55.923Z</time>
      </trkpt>
      <trkpt lat="38.762685" lon="-9.09599667">
        <ele>15.0</ele>
        <time>2019-05-16T09:00:56.928Z</time>
      </trkpt>
      <trkpt lat="38.762685" lon="-9.09599667">
        <ele>15.0</ele>
        <time>2019-05-16T09:00:57.931Z</time>
      </trkpt>
      <trkpt lat="38.762685" lon="-9.09599667">
        <ele>15.0</ele>
        <time>2019-05-16T09:00:58.928Z</time>
      </trkpt>
      <trkpt lat="38.762685" lon="-9.09599667">
        <ele>15.0</ele>
        <time>2019-05-16T09:00:59.928Z</time>
      </trkpt>
      <trkpt lat="38.762685" lon="-9.09599667">
        <ele>15.0</ele>
        <time>2019-05-16T09:01:00.932Z</time>
      </trkpt>
      <trkpt lat="38.762685" lon="-9.09599667">
        <ele>15.0</ele>
        <time>2019-05-16T09:01:01.928Z</time>
      </trkpt>
      <trkpt lat="38.762685" lon="-9.09599667">
        <ele>15.0</ele>
        <time>2019-05-16T09:01:02.923Z</time>
      </trkpt>
      <trkpt lat="38.762685" lon="-9.09599667">
        <ele>15.0</ele>
        <time>2019-05-16T09:01:03.929Z</time>
      </trkpt>
      <trkpt lat="38.762685" lon="-9.09599667">
        <ele>15.0</ele>
        <time>2019-05-16T09:01:04.924Z</time>
      </trkpt>
      <trkpt lat="38.762685" lon="-9.09599667">
        <ele>15.0</ele>
        <time>2019-05-16T09:01:05.929Z</time>
      </trkpt>
      <trkpt lat="38.762685" lon="-9.09599667">
        <ele>15.0</ele>
        <time>2019-05-16T09:01:06.931Z</time>
      </trkpt>
      <trkpt lat="38.762685" lon="-9.09599667">
        <ele>15.0</ele>
        <time>2019-05-16T09:01:07.931Z</time>
      </trkpt>
      <trkpt lat="38.762685" lon="-9.09599667">
        <ele>15.0</ele>
        <time>2019-05-16T09:01:08.930Z</time>
      </trkpt>
      <trkpt lat="38.762685" lon="-9.09599667">
        <ele>15.0</ele>
        <time>2019-05-16T09:01:09.925Z</time>
      </trkpt>
      <trkpt lat="38.762685" lon="-9.09599667">
        <ele>15.0</ele>
        <time>2019-05-16T09:01:10.927Z</time>
      </trkpt>
      <trkpt lat="38.762685" lon="-9.09599667">
        <ele>15.0</ele>
        <time>2019-05-16T09:01:11.924Z</time>
      </trkpt>
      <trkpt lat="38.762685" lon="-9.09599667">
        <ele>15.0</ele>
        <time>2019-05-16T09:01:12.931Z</time>
      </trkpt>
      <trkpt lat="38.762685" lon="-9.09599667">
        <ele>15.0</ele>
        <time>2019-05-16T09:01:13.928Z</time>
      </trkpt>
      <trkpt lat="38.762685" lon="-9.09599667">
        <ele>15.0</ele>
        <time>2019-05-16T09:01:14.928Z</time>
      </trkpt>
      <trkpt lat="38.762685" lon="-9.09599667">
        <ele>15.0</ele>
        <time>2019-05-16T09:01:15.924Z</time>
      </trkpt>
      <trkpt lat="38.762685" lon="-9.09599667">
        <ele>15.0</ele>
        <time>2019-05-16T09:01:16.928Z</time>
      </trkpt>
      <trkpt lat="38.762685" lon="-9.09599667">
        <ele>15.0</ele>
        <time>2019-05-16T09:01:17.931Z</time>
      </trkpt>
      <trkpt lat="38.762685" lon="-9.09599667">
        <ele>15.0</ele>
        <time>2019-05-16T09:01:18.931Z</time>
      </trkpt>
      <trkpt lat="38.762685" lon="-9.09599667">
        <ele>15.0</ele>
        <time>2019-05-16T09:01:19.924Z</time>
      </trkpt>
      <trkpt lat="38.762685" lon="-9.09599667">
        <ele>15.0</ele>
        <time>2019-05-16T09:01:20.899Z</time>
      </trkpt>
      <trkpt lat="38.762685" lon="-9.09599667">
        <ele>15.0</ele>
        <time>2019-05-16T09:01:21.927Z</time>
      </trkpt>
      <trkpt lat="38.762685" lon="-9.09599667">
        <ele>15.0</ele>
        <time>2019-05-16T09:01:22.929Z</time>
      </trkpt>
      <trkpt lat="38.762685" lon="-9.09599667">
        <ele>15.0</ele>
        <time>2019-05-16T09:01:23.926Z</time>
      </trkpt>
      <trkpt lat="38.762685" lon="-9.09599667">
        <ele>15.0</ele>
        <time>2019-05-16T09:01:24.930Z</time>
      </trkpt>
      <trkpt lat="38.762685" lon="-9.09599667">
        <ele>15.0</ele>
        <time>2019-05-16T09:01:25.924Z</time>
      </trkpt>
      <trkpt lat="38.762685" lon="-9.09599667">
        <ele>15.0</ele>
        <time>2019-05-16T09:01:26.929Z</time>
      </trkpt>
      <trkpt lat="38.762685" lon="-9.09599667">
        <ele>15.0</ele>
        <time>2019-05-16T09:01:27.930Z</time>
      </trkpt>
      <trkpt lat="38.762685" lon="-9.09599667">
        <ele>15.0</ele>
        <time>2019-05-16T09:01:28.924Z</time>
      </trkpt>
      <trkpt lat="38.762685" lon="-9.09599667">
        <ele>15.0</ele>
        <time>2019-05-16T09:01:29.928Z</time>
      </trkpt>
      <trkpt lat="38.762685" lon="-9.09599667">
        <ele>15.0</ele>
        <time>2019-05-16T09:01:30.930Z</time>
      </trkpt>
      <trkpt lat="38.762685" lon="-9.09599667">
        <ele>15.0</ele>
        <time>2019-05-16T09:01:31.924Z</time>
      </trkpt>
      <trkpt lat="38.762685" lon="-9.09599667">
        <ele>15.0</ele>
        <time>2019-05-16T09:01:32.929Z</time>
      </trkpt>
      <trkpt lat="38.762685" lon="-9.09599667">
        <ele>15.0</ele>
        <time>2019-05-16T09:01:33.924Z</time>
      </trkpt>
      <trkpt lat="38.762685" lon="-9.09599667">
        <ele>15.0</ele>
        <time>2019-05-16T09:01:34.927Z</time>
      </trkpt>
      <trkpt lat="38.762685" lon="-9.09599667">
        <ele>15.0</ele>
        <time>2019-05-16T09:01:35.923Z</time>
      </trkpt>
      <trkpt lat="38.762685" lon="-9.09599667">
        <ele>15.0</ele>
        <time>2019-05-16T09:01:36.931Z</time>
      </trkpt>
      <trkpt lat="38.762685" lon="-9.09599667">
        <ele>15.0</ele>
        <time>2019-05-16T09:01:37.926Z</time>
      </trkpt>
      <trkpt lat="38.762685" lon="-9.09599667">
        <ele>15.0</ele>
        <time>2019-05-16T09:01:38.931Z</time>
      </trkpt>
      <trkpt lat="38.762685" lon="-9.09599667">
        <ele>15.0</ele>
        <time>2019-05-16T09:01:39.924Z</time>
      </trkpt>
      <trkpt lat="38.762685" lon="-9.09599667">
        <ele>15.0</ele>
        <time>2019-05-16T09:01:40.928Z</time>
      </trkpt>
      <trkpt lat="38.762685" lon="-9.09599667">
        <ele>15.0</ele>
        <time>2019-05-16T09:01:41.922Z</time>
      </trkpt>
      <trkpt lat="38.762685" lon="-9.09599667">
        <ele>15.0</ele>
        <time>2019-05-16T09:01:42.931Z</time>
      </trkpt>
      <trkpt lat="38.762685" lon="-9.09599667">
        <ele>15.0</ele>
        <time>2019-05-16T09:01:43.923Z</time>
      </trkpt>
      <trkpt lat="38.762685" lon="-9.09599667">
        <ele>15.0</ele>
        <time>2019-05-16T09:01:44.928Z</time>
      </trkpt>
      <trkpt lat="38.762685" lon="-9.09599667">
        <ele>15.0</ele>
        <time>2019-05-16T09:01:45.923Z</time>
      </trkpt>
      <trkpt lat="38.762685" lon="-9.09599667">
        <ele>15.0</ele>
        <time>2019-05-16T09:01:46.928Z</time>
      </trkpt>
      <trkpt lat="38.762685" lon="-9.09599667">
        <ele>15.0</ele>
        <time>2019-05-16T09:01:47.931Z</time>
      </trkpt>
      <trkpt lat="38.762685" lon="-9.09599667">
        <ele>15.0</ele>
        <time>2019-05-16T09:01:48.931Z</time>
      </trkpt>
      <trkpt lat="38.762685" lon="-9.09599667">
        <ele>15.0</ele>
        <time>2019-05-16T09:01:49.928Z</time>
      </trkpt>
      <trkpt lat="38.762685" lon="-9.09599667">
        <ele>15.0</ele>
        <time>2019-05-16T09:01:50.923Z</time>
      </trkpt>
      <trkpt lat="38.762685" lon="-9.09599667">
        <ele>15.0</ele>
        <time>2019-05-16T09:01:51.928Z</time>
      </trkpt>
      <trkpt lat="38.762685" lon="-9.09599667">
        <ele>15.0</ele>
        <time>2019-05-16T09:01:52.923Z</time>
      </trkpt>
      <trkpt lat="38.762685" lon="-9.09599667">
        <ele>15.0</ele>
        <time>2019-05-16T09:01:53.928Z</time>
      </trkpt>
      <trkpt lat="38.762685" lon="-9.09599667">
        <ele>15.0</ele>
        <time>2019-05-16T09:01:54.928Z</time>
      </trkpt>
      <trkpt lat="38.762685" lon="-9.09599667">
        <ele>15.0</ele>
        <time>2019-05-16T09:01:55.923Z</time>
      </trkpt>
      <trkpt lat="38.762685" lon="-9.09599667">
        <ele>15.0</ele>
        <time>2019-05-16T09:01:56.928Z</time>
      </trkpt>
      <trkpt lat="38.762685" lon="-9.09599667">
        <ele>15.0</ele>
        <time>2019-05-16T09:01:57.931Z</time>
      </trkpt>
      <trkpt lat="38.762685" lon="-9.09599667">
        <ele>15.0</ele>
        <time>2019-05-16T09:01:58.927Z</time>
      </trkpt>
      <trkpt lat="38.762685" lon="-9.09599667">
        <ele>15.0</ele>
        <time>2019-05-16T09:01:59.923Z</time>
      </trkpt>
      <trkpt lat="38.762685" lon="-9.09599667">
        <ele>15.0</ele>
        <time>2019-05-16T09:02:00.929Z</time>
      </trkpt>
      <trkpt lat="38.762685" lon="-9.09599667">
        <ele>15.0</ele>
        <time>2019-05-16T09:02:01.926Z</time>
      </trkpt>
      <trkpt lat="38.762685" lon="-9.09599667">
        <ele>15.0</ele>
        <time>2019-05-16T09:02:02.928Z</time>
      </trkpt>
      <trkpt lat="38.762685" lon="-9.09599667">
        <ele>15.0</ele>
        <time>2019-05-16T09:02:03.932Z</time>
      </trkpt>
      <trkpt lat="38.762685" lon="-9.09599667">
        <ele>15.0</ele>
        <time>2019-05-16T09:02:04.924Z</time>
      </trkpt>
      <trkpt lat="38.762685" lon="-9.09599667">
        <ele>15.0</ele>
        <time>2019-05-16T09:02:05.929Z</time>
      </trkpt>
      <trkpt lat="38.762685" lon="-9.09599667">
        <ele>15.0</ele>
        <time>2019-05-16T09:02:06.931Z</time>
      </trkpt>
      <trkpt lat="38.762685" lon="-9.09599667">
        <ele>15.0</ele>
        <time>2019-05-16T09:02:07.900Z</time>
      </trkpt>
      <trkpt lat="38.762685" lon="-9.09599667">
        <ele>15.0</ele>
        <time>2019-05-16T09:02:08.931Z</time>
      </trkpt>
      <trkpt lat="38.762685" lon="-9.09599667">
        <ele>15.0</ele>
        <time>2019-05-16T09:02:09.924Z</time>
      </trkpt>
      <trkpt lat="38.762685" lon="-9.09599667">
        <ele>15.0</ele>
        <time>2019-05-16T09:02:10.928Z</time>
      </trkpt>
      <trkpt lat="38.762685" lon="-9.09599667">
        <ele>15.0</ele>
        <time>2019-05-16T09:02:11.923Z</time>
      </trkpt>
      <trkpt lat="38.762685" lon="-9.09599667">
        <ele>15.0</ele>
        <time>2019-05-16T09:02:12.932Z</time>
      </trkpt>
      <trkpt lat="38.762685" lon="-9.09599667">
        <ele>15.0</ele>
        <time>2019-05-16T09:02:13.923Z</time>
      </trkpt>
      <trkpt lat="38.76270333" lon="-9.09600833">
        <ele>10.0</ele>
        <time>2019-05-16T09:02:14.928Z</time>
      </trkpt>
      <trkpt lat="38.76270333" lon="-9.09600833">
        <ele>10.0</ele>
        <time>2019-05-16T09:02:15.924Z</time>
      </trkpt>
      <trkpt lat="38.76270667" lon="-9.096005">
        <ele>10.0</ele>
        <time>2019-05-16T09:02:16.928Z</time>
      </trkpt>
      <trkpt lat="38.76271" lon="-9.096005">
        <ele>10.0</ele>
        <time>2019-05-16T09:02:17.916Z</time>
      </trkpt>
      <trkpt lat="38.76271" lon="-9.096005">
        <ele>10.0</ele>
        <time>2019-05-16T09:02:18.935Z</time>
      </trkpt>
      <trkpt lat="38.76271" lon="-9.096005">
        <ele>10.0</ele>
        <time>2019-05-16T09:02:19.928Z</time>
      </trkpt>
      <trkpt lat="38.76271" lon="-9.096005">
        <ele>10.0</ele>
        <time>2019-05-16T09:02:20.924Z</time>
      </trkpt>
      <trkpt lat="38.76271" lon="-9.096005">
        <ele>10.0</ele>
        <time>2019-05-16T09:02:21.921Z</time>
      </trkpt>
      <trkpt lat="38.76271" lon="-9.096005">
        <ele>10.0</ele>
        <time>2019-05-16T09:02:22.905Z</time>
      </trkpt>
      <trkpt lat="38.76271" lon="-9.096005">
        <ele>10.0</ele>
        <time>2019-05-16T09:02:23.931Z</time>
      </trkpt>
      <trkpt lat="38.76271" lon="-9.096005">
        <ele>10.0</ele>
        <time>2019-05-16T09:02:24.931Z</time>
      </trkpt>
      <trkpt lat="38.76271" lon="-9.096005">
        <ele>10.0</ele>
        <time>2019-05-16T09:02:25.924Z</time>
      </trkpt>
      <trkpt lat="38.76271" lon="-9.096005">
        <ele>10.0</ele>
        <time>2019-05-16T09:02:26.928Z</time>
      </trkpt>
      <trkpt lat="38.76271" lon="-9.096005">
        <ele>10.0</ele>
        <time>2019-05-16T09:02:27.926Z</time>
      </trkpt>
      <trkpt lat="38.76276333" lon="-9.09601833">
        <ele>11.0</ele>
        <time>2019-05-16T09:02:28.929Z</time>
      </trkpt>
      <trkpt lat="38.76276333" lon="-9.09601833">
        <ele>11.0</ele>
        <time>2019-05-16T09:02:29.923Z</time>
      </trkpt>
      <trkpt lat="38.76277" lon="-9.09602333">
        <ele>11.0</ele>
        <time>2019-05-16T09:02:30.928Z</time>
      </trkpt>
      <trkpt lat="38.76277" lon="-9.09602333">
        <ele>11.0</ele>
        <time>2019-05-16T09:02:31.920Z</time>
      </trkpt>
      <trkpt lat="38.76277333" lon="-9.09602667">
        <ele>11.0</ele>
        <time>2019-05-16T09:02:32.925Z</time>
      </trkpt>
      <trkpt lat="38.76277333" lon="-9.09602667">
        <ele>11.0</ele>
        <time>2019-05-16T09:02:33.931Z</time>
      </trkpt>
      <trkpt lat="38.76280667" lon="-9.096025">
        <ele>10.0</ele>
        <time>2019-05-16T09:02:34.903Z</time>
      </trkpt>
      <trkpt lat="38.76282667" lon="-9.09601833">
        <ele>10.0</ele>
        <time>2019-05-16T09:02:35.932Z</time>
      </trkpt>
      <trkpt lat="38.76284167" lon="-9.096015">
        <ele>10.0</ele>
        <time>2019-05-16T09:02:36.906Z</time>
      </trkpt>
      <trkpt lat="38.76284167" lon="-9.096015">
        <ele>10.0</ele>
        <time>2019-05-16T09:02:37.919Z</time>
      </trkpt>
      <trkpt lat="38.76288333" lon="-9.096">
        <ele>10.0</ele>
        <time>2019-05-16T09:02:38.904Z</time>
      </trkpt>
      <trkpt lat="38.76288333" lon="-9.096">
        <ele>10.0</ele>
        <time>2019-05-16T09:02:39.923Z</time>
      </trkpt>
      <trkpt lat="38.76293333" lon="-9.095995">
        <ele>11.0</ele>
        <time>2019-05-16T09:02:40.931Z</time>
      </trkpt>
      <trkpt lat="38.76293333" lon="-9.095995">
        <ele>11.0</ele>
        <time>2019-05-16T09:02:41.914Z</time>
      </trkpt>
      <trkpt lat="38.76298" lon="-9.09598667">
        <ele>11.0</ele>
        <time>2019-05-16T09:02:42.937Z</time>
      </trkpt>
      <trkpt lat="38.76298" lon="-9.09598667">
        <ele>11.0</ele>
        <time>2019-05-16T09:02:43.917Z</time>
      </trkpt>
      <trkpt lat="38.76302833" lon="-9.09598">
        <ele>12.0</ele>
        <time>2019-05-16T09:02:44.934Z</time>
      </trkpt>
      <trkpt lat="38.76302833" lon="-9.09598">
        <ele>12.0</ele>
        <time>2019-05-16T09:02:45.926Z</time>
      </trkpt>
      <trkpt lat="38.76306833" lon="-9.09596833">
        <ele>12.0</ele>
        <time>2019-05-16T09:02:46.899Z</time>
      </trkpt>
      <trkpt lat="38.76306833" lon="-9.09596833">
        <ele>12.0</ele>
        <time>2019-05-16T09:02:47.925Z</time>
      </trkpt>
      <trkpt lat="38.76311333" lon="-9.09596667">
        <ele>12.0</ele>
        <time>2019-05-16T09:02:48.903Z</time>
      </trkpt>
      <trkpt lat="38.76311333" lon="-9.09596667">
        <ele>12.0</ele>
        <time>2019-05-16T09:02:49.915Z</time>
      </trkpt>
      <trkpt lat="38.76317833" lon="-9.09596333">
        <ele>13.0</ele>
        <time>2019-05-16T09:02:50.932Z</time>
      </trkpt>
      <trkpt lat="38.76317833" lon="-9.09596333">
        <ele>13.0</ele>
        <time>2019-05-16T09:02:51.906Z</time>
      </trkpt>
      <trkpt lat="38.76326333" lon="-9.09596667">
        <ele>14.0</ele>
        <time>2019-05-16T09:02:52.912Z</time>
      </trkpt>
      <trkpt lat="38.76331" lon="-9.09596333">
        <ele>14.0</ele>
        <time>2019-05-16T09:02:53.934Z</time>
      </trkpt>
      <trkpt lat="38.76331" lon="-9.09596333">
        <ele>14.0</ele>
        <time>2019-05-16T09:02:54.911Z</time>
      </trkpt>
      <trkpt lat="38.76340833" lon="-9.09594333">
        <ele>14.0</ele>
        <time>2019-05-16T09:02:55.925Z</time>
      </trkpt>
      <trkpt lat="38.76345667" lon="-9.09593333">
        <ele>14.0</ele>
        <time>2019-05-16T09:02:56.901Z</time>
      </trkpt>
      <trkpt lat="38.76345667" lon="-9.09593333">
        <ele>14.0</ele>
        <time>2019-05-16T09:02:57.915Z</time>
      </trkpt>
      <trkpt lat="38.76354833" lon="-9.09592">
        <ele>14.0</ele>
        <time>2019-05-16T09:02:58.922Z</time>
      </trkpt>
      <trkpt lat="38.76354833" lon="-9.09592">
        <ele>14.0</ele>
        <time>2019-05-16T09:02:59.934Z</time>
      </trkpt>
      <trkpt lat="38.76363833" lon="-9.09591167">
        <ele>13.0</ele>
        <time>2019-05-16T09:03:00.903Z</time>
      </trkpt>
      <trkpt lat="38.76363833" lon="-9.09591167">
        <ele>13.0</ele>
        <time>2019-05-16T09:03:01.930Z</time>
      </trkpt>
      <trkpt lat="38.76371833" lon="-9.0959">
        <ele>13.0</ele>
        <time>2019-05-16T09:03:02.902Z</time>
      </trkpt>
      <trkpt lat="38.76371833" lon="-9.0959">
        <ele>13.0</ele>
        <time>2019-05-16T09:03:03.914Z</time>
      </trkpt>
      <trkpt lat="38.76379333" lon="-9.09589167">
        <ele>13.0</ele>
        <time>2019-05-16T09:03:04.923Z</time>
      </trkpt>
      <trkpt lat="38.76379333" lon="-9.09589167">
        <ele>13.0</ele>
        <time>2019-05-16T09:03:05.899Z</time>
      </trkpt>
      <trkpt lat="38.76386167" lon="-9.09588">
        <ele>14.0</ele>
        <time>2019-05-16T09:03:06.910Z</time>
      </trkpt>
      <trkpt lat="38.76386167" lon="-9.09588">
        <ele>14.0</ele>
        <time>2019-05-16T09:03:07.898Z</time>
      </trkpt>
      <trkpt lat="38.76393" lon="-9.09587">
        <ele>15.0</ele>
        <time>2019-05-16T09:03:08.907Z</time>
      </trkpt>
      <trkpt lat="38.76393" lon="-9.09587">
        <ele>15.0</ele>
        <time>2019-05-16T09:03:09.922Z</time>
      </trkpt>
      <trkpt lat="38.76400167" lon="-9.09586167">
        <ele>15.0</ele>
        <time>2019-05-16T09:03:10.928Z</time>
      </trkpt>
      <trkpt lat="38.76400167" lon="-9.09586167">
        <ele>15.0</ele>
        <time>2019-05-16T09:03:11.907Z</time>
      </trkpt>
      <trkpt lat="38.76406" lon="-9.09585833">
        <ele>15.0</ele>
        <time>2019-05-16T09:03:12.926Z</time>
      </trkpt>
      <trkpt lat="38.76406" lon="-9.09585833">
        <ele>15.0</ele>
        <time>2019-05-16T09:03:13.900Z</time>
      </trkpt>
      <trkpt lat="38.76412333" lon="-9.095855">
        <ele>15.0</ele>
        <time>2019-05-16T09:03:14.907Z</time>
      </trkpt>
      <trkpt lat="38.76412333" lon="-9.095855">
        <ele>15.0</ele>
        <time>2019-05-16T09:03:15.919Z</time>
      </trkpt>
      <trkpt lat="38.76418667" lon="-9.09584667">
        <ele>15.0</ele>
        <time>2019-05-16T09:03:16.910Z</time>
      </trkpt>
      <trkpt lat="38.76418667" lon="-9.09584667">
        <ele>15.0</ele>
        <time>2019-05-16T09:03:17.902Z</time>
      </trkpt>
      <trkpt lat="38.76424167" lon="-9.09584333">
        <ele>16.0</ele>
        <time>2019-05-16T09:03:18.908Z</time>
      </trkpt>
      <trkpt lat="38.76424167" lon="-9.09584333">
        <ele>16.0</ele>
        <time>2019-05-16T09:03:19.919Z</time>
      </trkpt>
      <trkpt lat="38.7643" lon="-9.09583667">
        <ele>17.0</ele>
        <time>2019-05-16T09:03:20.897Z</time>
      </trkpt>
      <trkpt lat="38.7643" lon="-9.09583667">
        <ele>17.0</ele>
        <time>2019-05-16T09:03:21.920Z</time>
      </trkpt>
      <trkpt lat="38.76435167" lon="-9.09583333">
        <ele>17.0</ele>
        <time>2019-05-16T09:03:22.936Z</time>
      </trkpt>
      <trkpt lat="38.764375" lon="-9.09583333">
        <ele>17.0</ele>
        <time>2019-05-16T09:03:23.923Z</time>
      </trkpt>
      <trkpt lat="38.7644" lon="-9.09582833">
        <ele>18.0</ele>
        <time>2019-05-16T09:03:24.910Z</time>
      </trkpt>
      <trkpt lat="38.7644" lon="-9.09582833">
        <ele>18.0</ele>
        <time>2019-05-16T09:03:25.934Z</time>
      </trkpt>
      <trkpt lat="38.76444833" lon="-9.095825">
        <ele>18.0</ele>
        <time>2019-05-16T09:03:26.902Z</time>
      </trkpt>
      <trkpt lat="38.76444833" lon="-9.095825">
        <ele>18.0</ele>
        <time>2019-05-16T09:03:27.914Z</time>
      </trkpt>
      <trkpt lat="38.76449" lon="-9.09581667">
        <ele>21.0</ele>
        <time>2019-05-16T09:03:28.921Z</time>
      </trkpt>
      <trkpt lat="38.76449" lon="-9.09581667">
        <ele>21.0</ele>
        <time>2019-05-16T09:03:29.899Z</time>
      </trkpt>
      <trkpt lat="38.76454667" lon="-9.09581">
        <ele>21.0</ele>
        <time>2019-05-16T09:03:30.905Z</time>
      </trkpt>
      <trkpt lat="38.76454667" lon="-9.09581">
        <ele>21.0</ele>
        <time>2019-05-16T09:03:31.929Z</time>
      </trkpt>
      <trkpt lat="38.76457333" lon="-9.09580833">
        <ele>27.0</ele>
        <time>2019-05-16T09:03:32.901Z</time>
      </trkpt>
      <trkpt lat="38.76457333" lon="-9.09580833">
        <ele>27.0</ele>
        <time>2019-05-16T09:03:33.921Z</time>
      </trkpt>
      <trkpt lat="38.76458667" lon="-9.09580667">
        <ele>34.0</ele>
        <time>2019-05-16T09:03:34.929Z</time>
      </trkpt>
      <trkpt lat="38.76460833" lon="-9.09580167">
        <ele>36.0</ele>
        <time>2019-05-16T09:03:35.923Z</time>
      </trkpt>
      <trkpt lat="38.76463333" lon="-9.09579833">
        <ele>36.0</ele>
        <time>2019-05-16T09:03:36.939Z</time>
      </trkpt>
      <trkpt lat="38.76463333" lon="-9.09579833">
        <ele>36.0</ele>
        <time>2019-05-16T09:03:37.906Z</time>
      </trkpt>
      <trkpt lat="38.76469" lon="-9.0958">
        <ele>35.0</ele>
        <time>2019-05-16T09:03:38.897Z</time>
      </trkpt>
      <trkpt lat="38.76469" lon="-9.0958">
        <ele>35.0</ele>
        <time>2019-05-16T09:03:39.920Z</time>
      </trkpt>
      <trkpt lat="38.76474" lon="-9.095795">
        <ele>36.0</ele>
        <time>2019-05-16T09:03:40.931Z</time>
      </trkpt>
      <trkpt lat="38.76474" lon="-9.095795">
        <ele>36.0</ele>
        <time>2019-05-16T09:03:41.926Z</time>
      </trkpt>
      <trkpt lat="38.76479167" lon="-9.09578833">
        <ele>36.0</ele>
        <time>2019-05-16T09:03:42.900Z</time>
      </trkpt>
      <trkpt lat="38.76479167" lon="-9.09578833">
        <ele>36.0</ele>
        <time>2019-05-16T09:03:43.909Z</time>
      </trkpt>
      <trkpt lat="38.76485667" lon="-9.09578667">
        <ele>32.0</ele>
        <time>2019-05-16T09:03:44.901Z</time>
      </trkpt>
      <trkpt lat="38.76485667" lon="-9.09578667">
        <ele>32.0</ele>
        <time>2019-05-16T09:03:45.900Z</time>
      </trkpt>
      <trkpt lat="38.76491833" lon="-9.09577667">
        <ele>30.0</ele>
        <time>2019-05-16T09:03:46.931Z</time>
      </trkpt>
      <trkpt lat="38.76491833" lon="-9.09577667">
        <ele>30.0</ele>
        <time>2019-05-16T09:03:47.902Z</time>
      </trkpt>
      <trkpt lat="38.76498833" lon="-9.09577333">
        <ele>28.0</ele>
        <time>2019-05-16T09:03:48.914Z</time>
      </trkpt>
      <trkpt lat="38.76498833" lon="-9.09577333">
        <ele>28.0</ele>
        <time>2019-05-16T09:03:49.927Z</time>
      </trkpt>
      <trkpt lat="38.76504833" lon="-9.09576333">
        <ele>27.0</ele>
        <time>2019-05-16T09:03:50.935Z</time>
      </trkpt>
      <trkpt lat="38.76504833" lon="-9.09576333">
        <ele>27.0</ele>
        <time>2019-05-16T09:03:51.928Z</time>
      </trkpt>
      <trkpt lat="38.76510667" lon="-9.09575667">
        <ele>25.0</ele>
        <time>2019-05-16T09:03:52.935Z</time>
      </trkpt>
      <trkpt lat="38.76513167" lon="-9.09575667">
        <ele>24.0</ele>
        <time>2019-05-16T09:03:53.914Z</time>
      </trkpt>
      <trkpt lat="38.76516" lon="-9.09576167">
        <ele>23.0</ele>
        <time>2019-05-16T09:03:54.900Z</time>
      </trkpt>
      <trkpt lat="38.76516" lon="-9.09576167">
        <ele>23.0</ele>
        <time>2019-05-16T09:03:55.915Z</time>
      </trkpt>
      <trkpt lat="38.76520333" lon="-9.09575333">
        <ele>22.0</ele>
        <time>2019-05-16T09:03:56.924Z</time>
      </trkpt>
      <trkpt lat="38.76520333" lon="-9.09575333">
        <ele>22.0</ele>
        <time>2019-05-16T09:03:57.915Z</time>
      </trkpt>
      <trkpt lat="38.76523167" lon="-9.09572333">
        <ele>20.0</ele>
        <time>2019-05-16T09:03:58.899Z</time>
      </trkpt>
      <trkpt lat="38.765245" lon="-9.09571167">
        <ele>20.0</ele>
        <time>2019-05-16T09:03:59.918Z</time>
      </trkpt>
      <trkpt lat="38.76525333" lon="-9.095695">
        <ele>19.0</ele>
        <time>2019-05-16T09:04:00.904Z</time>
      </trkpt>
      <trkpt lat="38.76525333" lon="-9.095695">
        <ele>19.0</ele>
        <time>2019-05-16T09:04:01.927Z</time>
      </trkpt>
      <trkpt lat="38.76526333" lon="-9.09566167">
        <ele>18.0</ele>
        <time>2019-05-16T09:04:02.937Z</time>
      </trkpt>
      <trkpt lat="38.76526333" lon="-9.09566167">
        <ele>18.0</ele>
        <time>2019-05-16T09:04:03.922Z</time>
      </trkpt>
      <trkpt lat="38.76527" lon="-9.09562">
        <ele>17.0</ele>
        <time>2019-05-16T09:04:04.930Z</time>
      </trkpt>
      <trkpt lat="38.76527" lon="-9.09562">
        <ele>17.0</ele>
        <time>2019-05-16T09:04:05.925Z</time>
      </trkpt>
      <trkpt lat="38.76527167" lon="-9.09556167">
        <ele>17.0</ele>
        <time>2019-05-16T09:04:06.932Z</time>
      </trkpt>
      <trkpt lat="38.76527167" lon="-9.09556167">
        <ele>17.0</ele>
        <time>2019-05-16T09:04:07.907Z</time>
      </trkpt>
      <trkpt lat="38.76528" lon="-9.09549">
        <ele>16.0</ele>
        <time>2019-05-16T09:04:08.916Z</time>
      </trkpt>
      <trkpt lat="38.76528" lon="-9.09549">
        <ele>16.0</ele>
        <time>2019-05-16T09:04:09.911Z</time>
      </trkpt>
      <trkpt lat="38.76528" lon="-9.09540667">
        <ele>16.0</ele>
        <time>2019-05-16T09:04:10.923Z</time>
      </trkpt>
      <trkpt lat="38.76528" lon="-9.09540667">
        <ele>16.0</ele>
        <time>2019-05-16T09:04:11.935Z</time>
      </trkpt>
      <trkpt lat="38.765275" lon="-9.09532333">
        <ele>15.0</ele>
        <time>2019-05-16T09:04:12.903Z</time>
      </trkpt>
      <trkpt lat="38.765275" lon="-9.09532333">
        <ele>15.0</ele>
        <time>2019-05-16T09:04:13.924Z</time>
      </trkpt>
      <trkpt lat="38.76527167" lon="-9.095245">
        <ele>15.0</ele>
        <time>2019-05-16T09:04:14.946Z</time>
      </trkpt>
      <trkpt lat="38.76527167" lon="-9.095245">
        <ele>15.0</ele>
        <time>2019-05-16T09:04:15.934Z</time>
      </trkpt>
      <trkpt lat="38.76526167" lon="-9.09516167">
        <ele>14.0</ele>
        <time>2019-05-16T09:04:16.904Z</time>
      </trkpt>
      <trkpt lat="38.76526167" lon="-9.09516167">
        <ele>14.0</ele>
        <time>2019-05-16T09:04:17.922Z</time>
      </trkpt>
      <trkpt lat="38.76526333" lon="-9.095075">
        <ele>14.0</ele>
        <time>2019-05-16T09:04:18.930Z</time>
      </trkpt>
      <trkpt lat="38.76526333" lon="-9.095075">
        <ele>14.0</ele>
        <time>2019-05-16T09:04:19.906Z</time>
      </trkpt>
      <trkpt lat="38.76527667" lon="-9.09498833">
        <ele>14.0</ele>
        <time>2019-05-16T09:04:20.934Z</time>
      </trkpt>
      <trkpt lat="38.76527667" lon="-9.09498833">
        <ele>14.0</ele>
        <time>2019-05-16T09:04:21.927Z</time>
      </trkpt>
      <trkpt lat="38.76529833" lon="-9.09490333">
        <ele>14.0</ele>
        <time>2019-05-16T09:04:22.899Z</time>
      </trkpt>
      <trkpt lat="38.76529833" lon="-9.09490333">
        <ele>14.0</ele>
        <time>2019-05-16T09:04:23.922Z</time>
      </trkpt>
      <trkpt lat="38.76532833" lon="-9.09482833">
        <ele>14.0</ele>
        <time>2019-05-16T09:04:24.932Z</time>
      </trkpt>
      <trkpt lat="38.76532833" lon="-9.09482833">
        <ele>14.0</ele>
        <time>2019-05-16T09:04:25.936Z</time>
      </trkpt>
      <trkpt lat="38.76537833" lon="-9.094765">
        <ele>14.0</ele>
        <time>2019-05-16T09:04:26.906Z</time>
      </trkpt>
      <trkpt lat="38.76537833" lon="-9.094765">
        <ele>14.0</ele>
        <time>2019-05-16T09:04:27.926Z</time>
      </trkpt>
      <trkpt lat="38.76543333" lon="-9.09472">
        <ele>14.0</ele>
        <time>2019-05-16T09:04:28.897Z</time>
      </trkpt>
      <trkpt lat="38.76543333" lon="-9.09472">
        <ele>14.0</ele>
        <time>2019-05-16T09:04:29.931Z</time>
      </trkpt>
      <trkpt lat="38.76548667" lon="-9.09469">
        <ele>13.0</ele>
        <time>2019-05-16T09:04:30.899Z</time>
      </trkpt>
      <trkpt lat="38.76548667" lon="-9.09469">
        <ele>13.0</ele>
        <time>2019-05-16T09:04:31.937Z</time>
      </trkpt>
      <trkpt lat="38.765545" lon="-9.09467833">
        <ele>13.0</ele>
        <time>2019-05-16T09:04:32.903Z</time>
      </trkpt>
      <trkpt lat="38.765545" lon="-9.09467833">
        <ele>13.0</ele>
        <time>2019-05-16T09:04:33.909Z</time>
      </trkpt>
      <trkpt lat="38.76560167" lon="-9.09467167">
        <ele>13.0</ele>
        <time>2019-05-16T09:04:34.920Z</time>
      </trkpt>
      <trkpt lat="38.76563167" lon="-9.09467333">
        <ele>12.0</ele>
        <time>2019-05-16T09:04:35.909Z</time>
      </trkpt>
      <trkpt lat="38.76563167" lon="-9.09467333">
        <ele>12.0</ele>
        <time>2019-05-16T09:04:36.917Z</time>
      </trkpt>
      <trkpt lat="38.76568667" lon="-9.09467">
        <ele>12.0</ele>
        <time>2019-05-16T09:04:37.924Z</time>
      </trkpt>
      <trkpt lat="38.76568667" lon="-9.09467">
        <ele>12.0</ele>
        <time>2019-05-16T09:04:38.936Z</time>
      </trkpt>
      <trkpt lat="38.76574833" lon="-9.09465833">
        <ele>12.0</ele>
        <time>2019-05-16T09:04:39.909Z</time>
      </trkpt>
      <trkpt lat="38.76574833" lon="-9.09465833">
        <ele>12.0</ele>
        <time>2019-05-16T09:04:40.929Z</time>
      </trkpt>
      <trkpt lat="38.76580667" lon="-9.09465167">
        <ele>11.0</ele>
        <time>2019-05-16T09:04:41.938Z</time>
      </trkpt>
      <trkpt lat="38.76580667" lon="-9.09465167">
        <ele>11.0</ele>
        <time>2019-05-16T09:04:42.916Z</time>
      </trkpt>
      <trkpt lat="38.76586833" lon="-9.094645">
        <ele>10.0</ele>
        <time>2019-05-16T09:04:43.923Z</time>
      </trkpt>
      <trkpt lat="38.76586833" lon="-9.094645">
        <ele>10.0</ele>
        <time>2019-05-16T09:04:44.935Z</time>
      </trkpt>
      <trkpt lat="38.76593" lon="-9.09463833">
        <ele>10.0</ele>
        <time>2019-05-16T09:04:45.905Z</time>
      </trkpt>
      <trkpt lat="38.76593" lon="-9.09463833">
        <ele>10.0</ele>
        <time>2019-05-16T09:04:46.921Z</time>
      </trkpt>
      <trkpt lat="38.76599" lon="-9.09462667">
        <ele>10.0</ele>
        <time>2019-05-16T09:04:47.930Z</time>
      </trkpt>
      <trkpt lat="38.76602" lon="-9.09462333">
        <ele>11.0</ele>
        <time>2019-05-16T09:04:48.923Z</time>
      </trkpt>
      <trkpt lat="38.76602" lon="-9.09462333">
        <ele>11.0</ele>
        <time>2019-05-16T09:04:49.900Z</time>
      </trkpt>
      <trkpt lat="38.766085" lon="-9.09461333">
        <ele>11.0</ele>
        <time>2019-05-16T09:04:50.906Z</time>
      </trkpt>
      <trkpt lat="38.766085" lon="-9.09461333">
        <ele>11.0</ele>
        <time>2019-05-16T09:04:51.930Z</time>
      </trkpt>
      <trkpt lat="38.766135" lon="-9.09460333">
        <ele>13.0</ele>
        <time>2019-05-16T09:04:52.900Z</time>
      </trkpt>
      <trkpt lat="38.76616167" lon="-9.09460167">
        <ele>14.0</ele>
        <time>2019-05-16T09:04:53.923Z</time>
      </trkpt>
      <trkpt lat="38.76619167" lon="-9.09460333">
        <ele>14.0</ele>
        <time>2019-05-16T09:04:54.905Z</time>
      </trkpt>
      <trkpt lat="38.76619167" lon="-9.09460333">
        <ele>14.0</ele>
        <time>2019-05-16T09:04:55.922Z</time>
      </trkpt>
      <trkpt lat="38.766245" lon="-9.0946">
        <ele>15.0</ele>
        <time>2019-05-16T09:04:56.936Z</time>
      </trkpt>
      <trkpt lat="38.766245" lon="-9.0946">
        <ele>15.0</ele>
        <time>2019-05-16T09:04:57.910Z</time>
      </trkpt>
      <trkpt lat="38.76631333" lon="-9.09460333">
        <ele>14.0</ele>
        <time>2019-05-16T09:04:58.919Z</time>
      </trkpt>
      <trkpt lat="38.76631333" lon="-9.09460333">
        <ele>14.0</ele>
        <time>2019-05-16T09:04:59.904Z</time>
      </trkpt>
      <trkpt lat="38.76639" lon="-9.094605">
        <ele>14.0</ele>
        <time>2019-05-16T09:05:00.915Z</time>
      </trkpt>
      <trkpt lat="38.76639" lon="-9.094605">
        <ele>14.0</ele>
        <time>2019-05-16T09:05:01.897Z</time>
      </trkpt>
      <trkpt lat="38.76647" lon="-9.09459333">
        <ele>13.0</ele>
        <time>2019-05-16T09:05:02.909Z</time>
      </trkpt>
      <trkpt lat="38.76647" lon="-9.09459333">
        <ele>13.0</ele>
        <time>2019-05-16T09:05:03.924Z</time>
      </trkpt>
      <trkpt lat="38.76653833" lon="-9.09456">
        <ele>11.0</ele>
        <time>2019-05-16T09:05:04.933Z</time>
      </trkpt>
      <trkpt lat="38.76653833" lon="-9.09456">
        <ele>11.0</ele>
        <time>2019-05-16T09:05:05.917Z</time>
      </trkpt>
      <trkpt lat="38.76661667" lon="-9.094565">
        <ele>10.0</ele>
        <time>2019-05-16T09:05:06.932Z</time>
      </trkpt>
      <trkpt lat="38.76661667" lon="-9.094565">
        <ele>10.0</ele>
        <time>2019-05-16T09:05:07.919Z</time>
      </trkpt>
      <trkpt lat="38.76668333" lon="-9.09454833">
        <ele>9.0</ele>
        <time>2019-05-16T09:05:08.934Z</time>
      </trkpt>
      <trkpt lat="38.76668333" lon="-9.09454833">
        <ele>9.0</ele>
        <time>2019-05-16T09:05:09.911Z</time>
      </trkpt>
      <trkpt lat="38.766745" lon="-9.09453333">
        <ele>8.0</ele>
        <time>2019-05-16T09:05:10.918Z</time>
      </trkpt>
      <trkpt lat="38.766745" lon="-9.09453333">
        <ele>8.0</ele>
        <time>2019-05-16T09:05:11.928Z</time>
      </trkpt>
      <trkpt lat="38.7668" lon="-9.094505">
        <ele>6.0</ele>
        <time>2019-05-16T09:05:12.936Z</time>
      </trkpt>
      <trkpt lat="38.7668" lon="-9.094505">
        <ele>6.0</ele>
        <time>2019-05-16T09:05:13.934Z</time>
      </trkpt>
      <trkpt lat="38.76683167" lon="-9.09438167">
        <ele>4.0</ele>
        <time>2019-05-16T09:05:14.903Z</time>
      </trkpt>
      <trkpt lat="38.76683167" lon="-9.09438167">
        <ele>4.0</ele>
        <time>2019-05-16T09:05:15.930Z</time>
      </trkpt>
      <trkpt lat="38.766875" lon="-9.09432833">
        <ele>4.0</ele>
        <time>2019-05-16T09:05:16.931Z</time>
      </trkpt>
      <trkpt lat="38.76690333" lon="-9.09431833">
        <ele>4.0</ele>
        <time>2019-05-16T09:05:17.904Z</time>
      </trkpt>
      <trkpt lat="38.76693" lon="-9.09431">
        <ele>4.0</ele>
        <time>2019-05-16T09:05:18.923Z</time>
      </trkpt>
      <trkpt lat="38.76693" lon="-9.09431">
        <ele>4.0</ele>
        <time>2019-05-16T09:05:19.904Z</time>
      </trkpt>
      <trkpt lat="38.76698" lon="-9.09427833">
        <ele>4.0</ele>
        <time>2019-05-16T09:05:20.929Z</time>
      </trkpt>
      <trkpt lat="38.76698" lon="-9.09427833">
        <ele>4.0</ele>
        <time>2019-05-16T09:05:21.936Z</time>
      </trkpt>
      <trkpt lat="38.76702667" lon="-9.09424667">
        <ele>5.0</ele>
        <time>2019-05-16T09:05:22.909Z</time>
      </trkpt>
      <trkpt lat="38.76702667" lon="-9.09424667">
        <ele>5.0</ele>
        <time>2019-05-16T09:05:23.901Z</time>
      </trkpt>
      <trkpt lat="38.76707167" lon="-9.09420833">
        <ele>5.0</ele>
        <time>2019-05-16T09:05:24.908Z</time>
      </trkpt>
      <trkpt lat="38.76707167" lon="-9.09420833">
        <ele>5.0</ele>
        <time>2019-05-16T09:05:25.919Z</time>
      </trkpt>
      <trkpt lat="38.76711167" lon="-9.09416">
        <ele>5.0</ele>
        <time>2019-05-16T09:05:26.908Z</time>
      </trkpt>
      <trkpt lat="38.76711167" lon="-9.09416">
        <ele>5.0</ele>
        <time>2019-05-16T09:05:27.917Z</time>
      </trkpt>
      <trkpt lat="38.76715333" lon="-9.09412">
        <ele>4.0</ele>
        <time>2019-05-16T09:05:28.931Z</time>
      </trkpt>
      <trkpt lat="38.76715333" lon="-9.09412">
        <ele>4.0</ele>
        <time>2019-05-16T09:05:29.916Z</time>
      </trkpt>
      <trkpt lat="38.76719" lon="-9.09408">
        <ele>5.0</ele>
        <time>2019-05-16T09:05:30.926Z</time>
      </trkpt>
      <trkpt lat="38.76719" lon="-9.09408">
        <ele>5.0</ele>
        <time>2019-05-16T09:05:31.906Z</time>
      </trkpt>
      <trkpt lat="38.76722167" lon="-9.09404">
        <ele>5.0</ele>
        <time>2019-05-16T09:05:32.902Z</time>
      </trkpt>
      <trkpt lat="38.76724" lon="-9.09402333">
        <ele>5.0</ele>
        <time>2019-05-16T09:05:33.924Z</time>
      </trkpt>
      <trkpt lat="38.76724" lon="-9.09402333">
        <ele>5.0</ele>
        <time>2019-05-16T09:05:34.897Z</time>
      </trkpt>
      <trkpt lat="38.767275" lon="-9.093995">
        <ele>5.0</ele>
        <time>2019-05-16T09:05:35.907Z</time>
      </trkpt>
      <trkpt lat="38.76728833" lon="-9.09397667">
        <ele>5.0</ele>
        <time>2019-05-16T09:05:36.935Z</time>
      </trkpt>
      <trkpt lat="38.76728833" lon="-9.09397667">
        <ele>5.0</ele>
        <time>2019-05-16T09:05:37.920Z</time>
      </trkpt>
      <trkpt lat="38.7673" lon="-9.09392">
        <ele>6.0</ele>
        <time>2019-05-16T09:05:38.897Z</time>
      </trkpt>
      <trkpt lat="38.7673" lon="-9.09392">
        <ele>6.0</ele>
        <time>2019-05-16T09:05:39.914Z</time>
      </trkpt>
      <trkpt lat="38.767305" lon="-9.093855">
        <ele>6.0</ele>
        <time>2019-05-16T09:05:40.926Z</time>
      </trkpt>
      <trkpt lat="38.767305" lon="-9.093855">
        <ele>6.0</ele>
        <time>2019-05-16T09:05:41.899Z</time>
      </trkpt>
      <trkpt lat="38.76730167" lon="-9.09379">
        <ele>7.0</ele>
        <time>2019-05-16T09:05:42.908Z</time>
      </trkpt>
      <trkpt lat="38.76730167" lon="-9.09379">
        <ele>7.0</ele>
        <time>2019-05-16T09:05:43.936Z</time>
      </trkpt>
      <trkpt lat="38.767305" lon="-9.09372167">
        <ele>7.0</ele>
        <time>2019-05-16T09:05:44.904Z</time>
      </trkpt>
      <trkpt lat="38.767305" lon="-9.09372167">
        <ele>7.0</ele>
        <time>2019-05-16T09:05:45.919Z</time>
      </trkpt>
      <trkpt lat="38.76730667" lon="-9.093655">
        <ele>7.0</ele>
        <time>2019-05-16T09:05:46.925Z</time>
      </trkpt>
      <trkpt lat="38.76730667" lon="-9.093655">
        <ele>7.0</ele>
        <time>2019-05-16T09:05:47.916Z</time>
      </trkpt>
      <trkpt lat="38.76730167" lon="-9.09358833">
        <ele>8.0</ele>
        <time>2019-05-16T09:05:48.925Z</time>
      </trkpt>
      <trkpt lat="38.76730167" lon="-9.09358833">
        <ele>8.0</ele>
        <time>2019-05-16T09:05:49.903Z</time>
      </trkpt>
      <trkpt lat="38.76729667" lon="-9.093515">
        <ele>8.0</ele>
        <time>2019-05-16T09:05:50.912Z</time>
      </trkpt>
      <trkpt lat="38.76729667" lon="-9.093515">
        <ele>8.0</ele>
        <time>2019-05-16T09:05:51.898Z</time>
      </trkpt>
      <trkpt lat="38.76729167" lon="-9.09344333">
        <ele>8.0</ele>
        <time>2019-05-16T09:05:52.906Z</time>
      </trkpt>
      <trkpt lat="38.76729167" lon="-9.09344333">
        <ele>8.0</ele>
        <time>2019-05-16T09:05:53.928Z</time>
      </trkpt>
      <trkpt lat="38.76729167" lon="-9.09337167">
        <ele>8.0</ele>
        <time>2019-05-16T09:05:54.901Z</time>
      </trkpt>
      <trkpt lat="38.76729167" lon="-9.09337167">
        <ele>8.0</ele>
        <time>2019-05-16T09:05:55.928Z</time>
      </trkpt>
      <trkpt lat="38.767295" lon="-9.09329667">
        <ele>8.0</ele>
        <time>2019-05-16T09:05:56.905Z</time>
      </trkpt>
      <trkpt lat="38.767295" lon="-9.09329667">
        <ele>8.0</ele>
        <time>2019-05-16T09:05:57.928Z</time>
      </trkpt>
      <trkpt lat="38.76729167" lon="-9.09321833">
        <ele>8.0</ele>
        <time>2019-05-16T09:05:58.908Z</time>
      </trkpt>
      <trkpt lat="38.76729167" lon="-9.09321833">
        <ele>8.0</ele>
        <time>2019-05-16T09:05:59.932Z</time>
      </trkpt>
      <trkpt lat="38.76729167" lon="-9.09314167">
        <ele>9.0</ele>
        <time>2019-05-16T09:06:00.906Z</time>
      </trkpt>
      <trkpt lat="38.76729167" lon="-9.09314167">
        <ele>9.0</ele>
        <time>2019-05-16T09:06:01.920Z</time>
      </trkpt>
      <trkpt lat="38.767295" lon="-9.09307">
        <ele>9.0</ele>
        <time>2019-05-16T09:06:02.932Z</time>
      </trkpt>
      <trkpt lat="38.767295" lon="-9.09307">
        <ele>9.0</ele>
        <time>2019-05-16T09:06:03.911Z</time>
      </trkpt>
      <trkpt lat="38.76728833" lon="-9.092995">
        <ele>10.0</ele>
        <time>2019-05-16T09:06:04.918Z</time>
      </trkpt>
      <trkpt lat="38.76728833" lon="-9.092995">
        <ele>10.0</ele>
        <time>2019-05-16T09:06:05.918Z</time>
      </trkpt>
      <trkpt lat="38.76728167" lon="-9.09291667">
        <ele>10.0</ele>
        <time>2019-05-16T09:06:06.927Z</time>
      </trkpt>
      <trkpt lat="38.76728167" lon="-9.09291667">
        <ele>10.0</ele>
        <time>2019-05-16T09:06:07.915Z</time>
      </trkpt>
      <trkpt lat="38.76728" lon="-9.092835">
        <ele>10.0</ele>
        <time>2019-05-16T09:06:08.924Z</time>
      </trkpt>
      <trkpt lat="38.76728" lon="-9.092835">
        <ele>10.0</ele>
        <time>2019-05-16T09:06:09.903Z</time>
      </trkpt>
      <trkpt lat="38.76727833" lon="-9.09276333">
        <ele>10.0</ele>
        <time>2019-05-16T09:06:10.912Z</time>
      </trkpt>
      <trkpt lat="38.76727667" lon="-9.09272667">
        <ele>10.0</ele>
        <time>2019-05-16T09:06:11.923Z</time>
      </trkpt>
      <trkpt lat="38.76728167" lon="-9.09269667">
        <ele>10.0</ele>
        <time>2019-05-16T09:06:12.908Z</time>
      </trkpt>
      <trkpt lat="38.76728167" lon="-9.09269667">
        <ele>10.0</ele>
        <time>2019-05-16T09:06:13.931Z</time>
      </trkpt>
      <trkpt lat="38.76730167" lon="-9.09265667">
        <ele>11.0</ele>
        <time>2019-05-16T09:06:14.903Z</time>
      </trkpt>
      <trkpt lat="38.76730167" lon="-9.09265667">
        <ele>11.0</ele>
        <time>2019-05-16T09:06:15.921Z</time>
      </trkpt>
      <trkpt lat="38.76731" lon="-9.092615">
        <ele>12.0</ele>
        <time>2019-05-16T09:06:16.930Z</time>
      </trkpt>
      <trkpt lat="38.76731" lon="-9.092615">
        <ele>12.0</ele>
        <time>2019-05-16T09:06:17.899Z</time>
      </trkpt>
      <trkpt lat="38.76732333" lon="-9.09256333">
        <ele>13.0</ele>
        <time>2019-05-16T09:06:18.909Z</time>
      </trkpt>
      <trkpt lat="38.76732333" lon="-9.09256333">
        <ele>13.0</ele>
        <time>2019-05-16T09:06:19.902Z</time>
      </trkpt>
      <trkpt lat="38.76735167" lon="-9.09252">
        <ele>13.0</ele>
        <time>2019-05-16T09:06:20.924Z</time>
      </trkpt>
      <trkpt lat="38.76735167" lon="-9.09252">
        <ele>13.0</ele>
        <time>2019-05-16T09:06:21.931Z</time>
      </trkpt>
      <trkpt lat="38.76737833" lon="-9.09247333">
        <ele>13.0</ele>
        <time>2019-05-16T09:06:22.901Z</time>
      </trkpt>
      <trkpt lat="38.76737833" lon="-9.09247333">
        <ele>13.0</ele>
        <time>2019-05-16T09:06:23.917Z</time>
      </trkpt>
      <trkpt lat="38.76739" lon="-9.09240167">
        <ele>13.0</ele>
        <time>2019-05-16T09:06:24.927Z</time>
      </trkpt>
      <trkpt lat="38.76739" lon="-9.09240167">
        <ele>13.0</ele>
        <time>2019-05-16T09:06:25.920Z</time>
      </trkpt>
      <trkpt lat="38.76740333" lon="-9.09232167">
        <ele>12.0</ele>
        <time>2019-05-16T09:06:26.934Z</time>
      </trkpt>
      <trkpt lat="38.76740333" lon="-9.09232167">
        <ele>12.0</ele>
        <time>2019-05-16T09:06:27.908Z</time>
      </trkpt>
      <trkpt lat="38.76741833" lon="-9.09224167">
        <ele>12.0</ele>
        <time>2019-05-16T09:06:28.917Z</time>
      </trkpt>
      <trkpt lat="38.76741833" lon="-9.09224167">
        <ele>12.0</ele>
        <time>2019-05-16T09:06:29.935Z</time>
      </trkpt>
      <trkpt lat="38.76743833" lon="-9.09217167">
        <ele>12.0</ele>
        <time>2019-05-16T09:06:30.905Z</time>
      </trkpt>
      <trkpt lat="38.76743833" lon="-9.09217167">
        <ele>12.0</ele>
        <time>2019-05-16T09:06:31.918Z</time>
      </trkpt>
      <trkpt lat="38.76747667" lon="-9.09213167">
        <ele>11.0</ele>
        <time>2019-05-16T09:06:32.900Z</time>
      </trkpt>
      <trkpt lat="38.76747667" lon="-9.09213167">
        <ele>11.0</ele>
        <time>2019-05-16T09:06:33.929Z</time>
      </trkpt>
      <trkpt lat="38.76751333" lon="-9.09211667">
        <ele>11.0</ele>
        <time>2019-05-16T09:06:34.937Z</time>
      </trkpt>
      <trkpt lat="38.76751333" lon="-9.09211667">
        <ele>11.0</ele>
        <time>2019-05-16T09:06:35.913Z</time>
      </trkpt>
      <trkpt lat="38.76755667" lon="-9.09210667">
        <ele>10.0</ele>
        <time>2019-05-16T09:06:36.928Z</time>
      </trkpt>
      <trkpt lat="38.76755667" lon="-9.09210667">
        <ele>10.0</ele>
        <time>2019-05-16T09:06:37.905Z</time>
      </trkpt>
      <trkpt lat="38.76759667" lon="-9.09208833">
        <ele>9.0</ele>
        <time>2019-05-16T09:06:38.921Z</time>
      </trkpt>
      <trkpt lat="38.76759667" lon="-9.09208833">
        <ele>9.0</ele>
        <time>2019-05-16T09:06:39.935Z</time>
      </trkpt>
      <trkpt lat="38.76764667" lon="-9.092085">
        <ele>9.0</ele>
        <time>2019-05-16T09:06:40.907Z</time>
      </trkpt>
      <trkpt lat="38.76767" lon="-9.09208333">
        <ele>9.0</ele>
        <time>2019-05-16T09:06:41.918Z</time>
      </trkpt>
      <trkpt lat="38.76769667" lon="-9.09208333">
        <ele>8.0</ele>
        <time>2019-05-16T09:06:42.898Z</time>
      </trkpt>
      <trkpt lat="38.76769667" lon="-9.09208333">
        <ele>8.0</ele>
        <time>2019-05-16T09:06:43.914Z</time>
      </trkpt>
      <trkpt lat="38.76775" lon="-9.09208">
        <ele>8.0</ele>
        <time>2019-05-16T09:06:44.926Z</time>
      </trkpt>
      <trkpt lat="38.76775" lon="-9.09208">
        <ele>8.0</ele>
        <time>2019-05-16T09:06:45.898Z</time>
      </trkpt>
      <trkpt lat="38.76779167" lon="-9.09208167">
        <ele>7.0</ele>
        <time>2019-05-16T09:06:46.911Z</time>
      </trkpt>
      <trkpt lat="38.76779167" lon="-9.09208167">
        <ele>7.0</ele>
        <time>2019-05-16T09:06:47.931Z</time>
      </trkpt>
      <trkpt lat="38.76779167" lon="-9.09208167">
        <ele>7.0</ele>
        <time>2019-05-16T09:06:48.949Z</time>
      </trkpt>
      <trkpt lat="38.76783" lon="-9.09207167">
        <ele>6.0</ele>
        <time>2019-05-16T09:06:49.909Z</time>
      </trkpt>
      <trkpt lat="38.767875" lon="-9.09206333">
        <ele>4.0</ele>
        <time>2019-05-16T09:06:50.924Z</time>
      </trkpt>
      <trkpt lat="38.767875" lon="-9.09206333">
        <ele>4.0</ele>
        <time>2019-05-16T09:06:51.922Z</time>
      </trkpt>
      <trkpt lat="38.76791" lon="-9.09205">
        <ele>3.0</ele>
        <time>2019-05-16T09:06:52.934Z</time>
      </trkpt>
      <trkpt lat="38.76793167" lon="-9.092045">
        <ele>2.0</ele>
        <time>2019-05-16T09:06:53.907Z</time>
      </trkpt>
      <trkpt lat="38.76793167" lon="-9.092045">
        <ele>2.0</ele>
        <time>2019-05-16T09:06:54.927Z</time>
      </trkpt>
      <trkpt lat="38.76799" lon="-9.09203667">
        <ele>3.0</ele>
        <time>2019-05-16T09:06:55.897Z</time>
      </trkpt>
      <trkpt lat="38.76803333" lon="-9.092035">
        <ele>3.0</ele>
        <time>2019-05-16T09:06:56.926Z</time>
      </trkpt>
      <trkpt lat="38.76803333" lon="-9.092035">
        <ele>3.0</ele>
        <time>2019-05-16T09:06:57.934Z</time>
      </trkpt>
      <trkpt lat="38.76810667" lon="-9.09203833">
        <ele>3.0</ele>
        <time>2019-05-16T09:06:58.901Z</time>
      </trkpt>
      <trkpt lat="38.76810667" lon="-9.09203833">
        <ele>3.0</ele>
        <time>2019-05-16T09:06:59.917Z</time>
      </trkpt>
      <trkpt lat="38.76817667" lon="-9.09203833">
        <ele>4.0</ele>
        <time>2019-05-16T09:07:00.928Z</time>
      </trkpt>
      <trkpt lat="38.76817667" lon="-9.09203833">
        <ele>4.0</ele>
        <time>2019-05-16T09:07:01.934Z</time>
      </trkpt>
      <trkpt lat="38.76823833" lon="-9.09204333">
        <ele>5.0</ele>
        <time>2019-05-16T09:07:02.907Z</time>
      </trkpt>
      <trkpt lat="38.76823833" lon="-9.09204333">
        <ele>5.0</ele>
        <time>2019-05-16T09:07:03.926Z</time>
      </trkpt>
      <trkpt lat="38.76829667" lon="-9.09204">
        <ele>8.0</ele>
        <time>2019-05-16T09:07:04.952Z</time>
      </trkpt>
      <trkpt lat="38.76829667" lon="-9.09204">
        <ele>8.0</ele>
        <time>2019-05-16T09:07:05.905Z</time>
      </trkpt>
      <trkpt lat="38.76835167" lon="-9.09203667">
        <ele>9.0</ele>
        <time>2019-05-16T09:07:06.916Z</time>
      </trkpt>
      <trkpt lat="38.76835167" lon="-9.09203667">
        <ele>9.0</ele>
        <time>2019-05-16T09:07:07.928Z</time>
      </trkpt>
      <trkpt lat="38.76841" lon="-9.092035">
        <ele>11.0</ele>
        <time>2019-05-16T09:07:08.935Z</time>
      </trkpt>
      <trkpt lat="38.76841" lon="-9.092035">
        <ele>11.0</ele>
        <time>2019-05-16T09:07:09.918Z</time>
      </trkpt>
      <trkpt lat="38.76848167" lon="-9.09202167">
        <ele>8.0</ele>
        <time>2019-05-16T09:07:10.906Z</time>
      </trkpt>
      <trkpt lat="38.76848167" lon="-9.09202167">
        <ele>8.0</ele>
        <time>2019-05-16T09:07:11.925Z</time>
      </trkpt>
      <trkpt lat="38.76854333" lon="-9.09202833">
        <ele>8.0</ele>
        <time>2019-05-16T09:07:12.899Z</time>
      </trkpt>
      <trkpt lat="38.76854333" lon="-9.09202833">
        <ele>8.0</ele>
        <time>2019-05-16T09:07:13.918Z</time>
      </trkpt>
      <trkpt lat="38.768605" lon="-9.09202667">
        <ele>8.0</ele>
        <time>2019-05-16T09:07:14.930Z</time>
      </trkpt>
      <trkpt lat="38.768605" lon="-9.09202667">
        <ele>8.0</ele>
        <time>2019-05-16T09:07:15.903Z</time>
      </trkpt>
      <trkpt lat="38.768685" lon="-9.092025">
        <ele>8.0</ele>
        <time>2019-05-16T09:07:16.910Z</time>
      </trkpt>
      <trkpt lat="38.768685" lon="-9.092025">
        <ele>8.0</ele>
        <time>2019-05-16T09:07:17.897Z</time>
      </trkpt>
      <trkpt lat="38.76877667" lon="-9.09201667">
        <ele>6.0</ele>
        <time>2019-05-16T09:07:18.905Z</time>
      </trkpt>
      <trkpt lat="38.76877667" lon="-9.09201667">
        <ele>6.0</ele>
        <time>2019-05-16T09:07:19.920Z</time>
      </trkpt>
      <trkpt lat="38.76885333" lon="-9.09201167">
        <ele>5.0</ele>
        <time>2019-05-16T09:07:20.901Z</time>
      </trkpt>
      <trkpt lat="38.76885333" lon="-9.09201167">
        <ele>5.0</ele>
        <time>2019-05-16T09:07:21.918Z</time>
      </trkpt>
      <trkpt lat="38.76891833" lon="-9.09201">
        <ele>6.0</ele>
        <time>2019-05-16T09:07:22.927Z</time>
      </trkpt>
      <trkpt lat="38.76891833" lon="-9.09201">
        <ele>6.0</ele>
        <time>2019-05-16T09:07:23.902Z</time>
      </trkpt>
      <trkpt lat="38.76897667" lon="-9.09200667">
        <ele>5.0</ele>
        <time>2019-05-16T09:07:24.911Z</time>
      </trkpt>
      <trkpt lat="38.76897667" lon="-9.09200667">
        <ele>5.0</ele>
        <time>2019-05-16T09:07:25.928Z</time>
      </trkpt>
      <trkpt lat="38.76904333" lon="-9.09199667">
        <ele>6.0</ele>
        <time>2019-05-16T09:07:26.898Z</time>
      </trkpt>
      <trkpt lat="38.76904333" lon="-9.09199667">
        <ele>6.0</ele>
        <time>2019-05-16T09:07:27.916Z</time>
      </trkpt>
      <trkpt lat="38.76910333" lon="-9.09198">
        <ele>4.0</ele>
        <time>2019-05-16T09:07:28.921Z</time>
      </trkpt>
      <trkpt lat="38.76910333" lon="-9.09198">
        <ele>4.0</ele>
        <time>2019-05-16T09:07:29.899Z</time>
      </trkpt>
      <trkpt lat="38.76917833" lon="-9.09196833">
        <ele>4.0</ele>
        <time>2019-05-16T09:07:30.906Z</time>
      </trkpt>
      <trkpt lat="38.76917833" lon="-9.09196833">
        <ele>4.0</ele>
        <time>2019-05-16T09:07:31.917Z</time>
      </trkpt>
      <trkpt lat="38.76925" lon="-9.091955">
        <ele>4.0</ele>
        <time>2019-05-16T09:07:32.924Z</time>
      </trkpt>
      <trkpt lat="38.76925" lon="-9.091955">
        <ele>4.0</ele>
        <time>2019-05-16T09:07:33.911Z</time>
      </trkpt>
      <trkpt lat="38.76932167" lon="-9.09193667">
        <ele>4.0</ele>
        <time>2019-05-16T09:07:34.927Z</time>
      </trkpt>
      <trkpt lat="38.76935" lon="-9.09193333">
        <ele>4.0</ele>
        <time>2019-05-16T09:07:35.910Z</time>
      </trkpt>
      <trkpt lat="38.769375" lon="-9.09193">
        <ele>4.0</ele>
        <time>2019-05-16T09:07:36.906Z</time>
      </trkpt>
      <trkpt lat="38.769375" lon="-9.09193">
        <ele>4.0</ele>
        <time>2019-05-16T09:07:37.926Z</time>
      </trkpt>
      <trkpt lat="38.76943333" lon="-9.09193167">
        <ele>4.0</ele>
        <time>2019-05-16T09:07:38.938Z</time>
      </trkpt>
      <trkpt lat="38.76943333" lon="-9.09193167">
        <ele>4.0</ele>
        <time>2019-05-16T09:07:39.918Z</time>
      </trkpt>
      <trkpt lat="38.76949167" lon="-9.09192167">
        <ele>4.0</ele>
        <time>2019-05-16T09:07:40.927Z</time>
      </trkpt>
      <trkpt lat="38.76949167" lon="-9.09192167">
        <ele>4.0</ele>
        <time>2019-05-16T09:07:41.917Z</time>
      </trkpt>
      <trkpt lat="38.76954" lon="-9.09190833">
        <ele>4.0</ele>
        <time>2019-05-16T09:07:42.926Z</time>
      </trkpt>
      <trkpt lat="38.76954" lon="-9.09190833">
        <ele>4.0</ele>
        <time>2019-05-16T09:07:43.900Z</time>
      </trkpt>
      <trkpt lat="38.769595" lon="-9.091895">
        <ele>3.0</ele>
        <time>2019-05-16T09:07:44.906Z</time>
      </trkpt>
      <trkpt lat="38.769595" lon="-9.091895">
        <ele>3.0</ele>
        <time>2019-05-16T09:07:45.926Z</time>
      </trkpt>
      <trkpt lat="38.76964833" lon="-9.09188667">
        <ele>3.0</ele>
        <time>2019-05-16T09:07:46.900Z</time>
      </trkpt>
      <trkpt lat="38.76967667" lon="-9.09188333">
        <ele>3.0</ele>
        <time>2019-05-16T09:07:47.919Z</time>
      </trkpt>
      <trkpt lat="38.7697" lon="-9.09187667">
        <ele>3.0</ele>
        <time>2019-05-16T09:07:48.903Z</time>
      </trkpt>
      <trkpt lat="38.7697" lon="-9.09187667">
        <ele>3.0</ele>
        <time>2019-05-16T09:07:49.926Z</time>
      </trkpt>
      <trkpt lat="38.76974667" lon="-9.09186833">
        <ele>3.0</ele>
        <time>2019-05-16T09:07:50.935Z</time>
      </trkpt>
      <trkpt lat="38.76974667" lon="-9.09186833">
        <ele>3.0</ele>
        <time>2019-05-16T09:07:51.906Z</time>
      </trkpt>
      <trkpt lat="38.76980833" lon="-9.09187">
        <ele>3.0</ele>
        <time>2019-05-16T09:07:52.912Z</time>
      </trkpt>
      <trkpt lat="38.76980833" lon="-9.09187">
        <ele>3.0</ele>
        <time>2019-05-16T09:07:53.934Z</time>
      </trkpt>
      <trkpt lat="38.76987667" lon="-9.09186">
        <ele>3.0</ele>
        <time>2019-05-16T09:07:54.900Z</time>
      </trkpt>
      <trkpt lat="38.76987667" lon="-9.09186">
        <ele>3.0</ele>
        <time>2019-05-16T09:07:55.919Z</time>
      </trkpt>
      <trkpt lat="38.769945" lon="-9.09185667">
        <ele>3.0</ele>
        <time>2019-05-16T09:07:56.931Z</time>
      </trkpt>
      <trkpt lat="38.769945" lon="-9.09185667">
        <ele>3.0</ele>
        <time>2019-05-16T09:07:57.917Z</time>
      </trkpt>
      <trkpt lat="38.77001167" lon="-9.09185167">
        <ele>3.0</ele>
        <time>2019-05-16T09:07:58.923Z</time>
      </trkpt>
      <trkpt lat="38.77001167" lon="-9.09185167">
        <ele>3.0</ele>
        <time>2019-05-16T09:07:59.932Z</time>
      </trkpt>
      <trkpt lat="38.77007833" lon="-9.09184167">
        <ele>3.0</ele>
        <time>2019-05-16T09:08:00.898Z</time>
      </trkpt>
      <trkpt lat="38.77007833" lon="-9.09184167">
        <ele>3.0</ele>
        <time>2019-05-16T09:08:01.915Z</time>
      </trkpt>
      <trkpt lat="38.77013667" lon="-9.09183333">
        <ele>3.0</ele>
        <time>2019-05-16T09:08:02.922Z</time>
      </trkpt>
      <trkpt lat="38.77013667" lon="-9.09183333">
        <ele>3.0</ele>
        <time>2019-05-16T09:08:03.901Z</time>
      </trkpt>
      <trkpt lat="38.77019333" lon="-9.09183167">
        <ele>3.0</ele>
        <time>2019-05-16T09:08:04.948Z</time>
      </trkpt>
      <trkpt lat="38.77019333" lon="-9.09183167">
        <ele>3.0</ele>
        <time>2019-05-16T09:08:05.936Z</time>
      </trkpt>
      <trkpt lat="38.77023833" lon="-9.09183">
        <ele>3.0</ele>
        <time>2019-05-16T09:08:06.911Z</time>
      </trkpt>
      <trkpt lat="38.77023833" lon="-9.09183">
        <ele>3.0</ele>
        <time>2019-05-16T09:08:07.899Z</time>
      </trkpt>
      <trkpt lat="38.77031167" lon="-9.09182167">
        <ele>1.0</ele>
        <time>2019-05-16T09:08:08.908Z</time>
      </trkpt>
      <trkpt lat="38.77031167" lon="-9.09182167">
        <ele>1.0</ele>
        <time>2019-05-16T09:08:09.922Z</time>
      </trkpt>
      <trkpt lat="38.77037167" lon="-9.09181167">
        <ele>0.0</ele>
        <time>2019-05-16T09:08:10.931Z</time>
      </trkpt>
      <trkpt lat="38.77039833" lon="-9.09181167">
        <ele>0.0</ele>
        <time>2019-05-16T09:08:11.912Z</time>
      </trkpt>
      <trkpt lat="38.77042333" lon="-9.09180833">
        <ele>0.0</ele>
        <time>2019-05-16T09:08:12.924Z</time>
      </trkpt>
      <trkpt lat="38.77042333" lon="-9.09180833">
        <ele>0.0</ele>
        <time>2019-05-16T09:08:13.934Z</time>
      </trkpt>
      <trkpt lat="38.77047667" lon="-9.09179333">
        <ele>0.0</ele>
        <time>2019-05-16T09:08:14.909Z</time>
      </trkpt>
      <trkpt lat="38.77047667" lon="-9.09179333">
        <ele>0.0</ele>
        <time>2019-05-16T09:08:15.897Z</time>
      </trkpt>
      <trkpt lat="38.77053" lon="-9.09179">
        <ele>0.0</ele>
        <time>2019-05-16T09:08:16.905Z</time>
      </trkpt>
      <trkpt lat="38.77053" lon="-9.09179">
        <ele>0.0</ele>
        <time>2019-05-16T09:08:17.928Z</time>
      </trkpt>
      <trkpt lat="38.770595" lon="-9.09178167">
        <ele>-1.0</ele>
        <time>2019-05-16T09:08:18.897Z</time>
      </trkpt>
      <trkpt lat="38.770595" lon="-9.09178167">
        <ele>-1.0</ele>
        <time>2019-05-16T09:08:19.919Z</time>
      </trkpt>
      <trkpt lat="38.770655" lon="-9.09177167">
        <ele>-1.0</ele>
        <time>2019-05-16T09:08:20.901Z</time>
      </trkpt>
      <trkpt lat="38.770675" lon="-9.09177333">
        <ele>-1.0</ele>
        <time>2019-05-16T09:08:21.916Z</time>
      </trkpt>
      <trkpt lat="38.770675" lon="-9.09177333">
        <ele>-1.0</ele>
        <time>2019-05-16T09:08:22.936Z</time>
      </trkpt>
      <trkpt lat="38.770715" lon="-9.09178333">
        <ele>-1.0</ele>
        <time>2019-05-16T09:08:23.906Z</time>
      </trkpt>
      <trkpt lat="38.77074833" lon="-9.09178667">
        <ele>0.0</ele>
        <time>2019-05-16T09:08:24.922Z</time>
      </trkpt>
      <trkpt lat="38.77074833" lon="-9.09178667">
        <ele>0.0</ele>
        <time>2019-05-16T09:08:25.931Z</time>
      </trkpt>
      <trkpt lat="38.770815" lon="-9.09179167">
        <ele>0.0</ele>
        <time>2019-05-16T09:08:26.902Z</time>
      </trkpt>
      <trkpt lat="38.770845" lon="-9.091795">
        <ele>0.0</ele>
        <time>2019-05-16T09:08:27.920Z</time>
      </trkpt>
      <trkpt lat="38.770845" lon="-9.091795">
        <ele>0.0</ele>
        <time>2019-05-16T09:08:28.899Z</time>
      </trkpt>
      <trkpt lat="38.77090833" lon="-9.09179667">
        <ele>1.0</ele>
        <time>2019-05-16T09:08:29.907Z</time>
      </trkpt>
      <trkpt lat="38.77093833" lon="-9.09179167">
        <ele>1.0</ele>
        <time>2019-05-16T09:08:30.897Z</time>
      </trkpt>
      <trkpt lat="38.77093833" lon="-9.09179167">
        <ele>1.0</ele>
        <time>2019-05-16T09:08:31.915Z</time>
      </trkpt>
      <trkpt lat="38.77100167" lon="-9.09179">
        <ele>3.0</ele>
        <time>2019-05-16T09:08:32.923Z</time>
      </trkpt>
      <trkpt lat="38.77100167" lon="-9.09179">
        <ele>3.0</ele>
        <time>2019-05-16T09:08:33.936Z</time>
      </trkpt>
      <trkpt lat="38.77106" lon="-9.09179">
        <ele>3.0</ele>
        <time>2019-05-16T09:08:34.902Z</time>
      </trkpt>
      <trkpt lat="38.77109" lon="-9.09179167">
        <ele>2.0</ele>
        <time>2019-05-16T09:08:35.921Z</time>
      </trkpt>
      <trkpt lat="38.77111833" lon="-9.09178833">
        <ele>2.0</ele>
        <time>2019-05-16T09:08:36.898Z</time>
      </trkpt>
      <trkpt lat="38.77111833" lon="-9.09178833">
        <ele>2.0</ele>
        <time>2019-05-16T09:08:37.929Z</time>
      </trkpt>
      <trkpt lat="38.771175" lon="-9.09178333">
        <ele>2.0</ele>
        <time>2019-05-16T09:08:38.897Z</time>
      </trkpt>
      <trkpt lat="38.771205" lon="-9.091785">
        <ele>2.0</ele>
        <time>2019-05-16T09:08:39.916Z</time>
      </trkpt>
      <trkpt lat="38.771205" lon="-9.091785">
        <ele>2.0</ele>
        <time>2019-05-16T09:08:40.925Z</time>
      </trkpt>
      <trkpt lat="38.77126667" lon="-9.09178167">
        <ele>1.0</ele>
        <time>2019-05-16T09:08:41.937Z</time>
      </trkpt>
      <trkpt lat="38.771295" lon="-9.09178333">
        <ele>1.0</ele>
        <time>2019-05-16T09:08:42.925Z</time>
      </trkpt>
      <trkpt lat="38.771295" lon="-9.09178333">
        <ele>1.0</ele>
        <time>2019-05-16T09:08:43.912Z</time>
      </trkpt>
      <trkpt lat="38.77136333" lon="-9.09178333">
        <ele>2.0</ele>
        <time>2019-05-16T09:08:44.926Z</time>
      </trkpt>
      <trkpt lat="38.77136333" lon="-9.09178333">
        <ele>2.0</ele>
        <time>2019-05-16T09:08:45.929Z</time>
      </trkpt>
      <trkpt lat="38.77142167" lon="-9.09178333">
        <ele>2.0</ele>
        <time>2019-05-16T09:08:46.904Z</time>
      </trkpt>
      <trkpt lat="38.77142167" lon="-9.09178333">
        <ele>2.0</ele>
        <time>2019-05-16T09:08:47.917Z</time>
      </trkpt>
      <trkpt lat="38.771465" lon="-9.09179">
        <ele>3.0</ele>
        <time>2019-05-16T09:08:48.924Z</time>
      </trkpt>
      <trkpt lat="38.771465" lon="-9.09179">
        <ele>3.0</ele>
        <time>2019-05-16T09:08:49.910Z</time>
      </trkpt>
      <trkpt lat="38.77152667" lon="-9.09177667">
        <ele>3.0</ele>
        <time>2019-05-16T09:08:50.920Z</time>
      </trkpt>
      <trkpt lat="38.77155833" lon="-9.09176833">
        <ele>2.0</ele>
        <time>2019-05-16T09:08:51.902Z</time>
      </trkpt>
      <trkpt lat="38.77155833" lon="-9.09176833">
        <ele>2.0</ele>
        <time>2019-05-16T09:08:52.922Z</time>
      </trkpt>
      <trkpt lat="38.77162333" lon="-9.09175833">
        <ele>3.0</ele>
        <time>2019-05-16T09:08:53.932Z</time>
      </trkpt>
      <trkpt lat="38.77162333" lon="-9.09175833">
        <ele>3.0</ele>
        <time>2019-05-16T09:08:54.908Z</time>
      </trkpt>
      <trkpt lat="38.77168333" lon="-9.091745">
        <ele>3.0</ele>
        <time>2019-05-16T09:08:55.922Z</time>
      </trkpt>
      <trkpt lat="38.77171333" lon="-9.09174333">
        <ele>3.0</ele>
        <time>2019-05-16T09:08:56.897Z</time>
      </trkpt>
      <trkpt lat="38.77171333" lon="-9.09174333">
        <ele>3.0</ele>
        <time>2019-05-16T09:08:57.922Z</time>
      </trkpt>
      <trkpt lat="38.77177167" lon="-9.09174167">
        <ele>3.0</ele>
        <time>2019-05-16T09:08:58.932Z</time>
      </trkpt>
      <trkpt lat="38.77177167" lon="-9.09174167">
        <ele>3.0</ele>
        <time>2019-05-16T09:08:59.908Z</time>
      </trkpt>
      <trkpt lat="38.77181167" lon="-9.091735">
        <ele>3.0</ele>
        <time>2019-05-16T09:09:00.919Z</time>
      </trkpt>
      <trkpt lat="38.77181167" lon="-9.091735">
        <ele>3.0</ele>
        <time>2019-05-16T09:09:01.905Z</time>
      </trkpt>
      <trkpt lat="38.77185667" lon="-9.091735">
        <ele>2.0</ele>
        <time>2019-05-16T09:09:02.924Z</time>
      </trkpt>
      <trkpt lat="38.77185667" lon="-9.091735">
        <ele>2.0</ele>
        <time>2019-05-16T09:09:03.934Z</time>
      </trkpt>
      <trkpt lat="38.77190667" lon="-9.09173333">
        <ele>2.0</ele>
        <time>2019-05-16T09:09:04.903Z</time>
      </trkpt>
      <trkpt lat="38.77193" lon="-9.091735">
        <ele>2.0</ele>
        <time>2019-05-16T09:09:05.900Z</time>
      </trkpt>
      <trkpt lat="38.77195667" lon="-9.09173667">
        <ele>2.0</ele>
        <time>2019-05-16T09:09:06.930Z</time>
      </trkpt>
      <trkpt lat="38.77195667" lon="-9.09173667">
        <ele>2.0</ele>
        <time>2019-05-16T09:09:07.905Z</time>
      </trkpt>
      <trkpt lat="38.77202333" lon="-9.09172833">
        <ele>2.0</ele>
        <time>2019-05-16T09:09:08.921Z</time>
      </trkpt>
      <trkpt lat="38.77205167" lon="-9.091725">
        <ele>2.0</ele>
        <time>2019-05-16T09:09:09.928Z</time>
      </trkpt>
      <trkpt lat="38.77208167" lon="-9.09172">
        <ele>2.0</ele>
        <time>2019-05-16T09:09:10.919Z</time>
      </trkpt>
      <trkpt lat="38.77208167" lon="-9.09172">
        <ele>2.0</ele>
        <time>2019-05-16T09:09:11.902Z</time>
      </trkpt>
      <trkpt lat="38.77213167" lon="-9.091705">
        <ele>2.0</ele>
        <time>2019-05-16T09:09:12.911Z</time>
      </trkpt>
      <trkpt lat="38.77213167" lon="-9.091705">
        <ele>2.0</ele>
        <time>2019-05-16T09:09:13.924Z</time>
      </trkpt>
      <trkpt lat="38.77218333" lon="-9.091695">
        <ele>3.0</ele>
        <time>2019-05-16T09:09:14.935Z</time>
      </trkpt>
      <trkpt lat="38.77221167" lon="-9.09169">
        <ele>3.0</ele>
        <time>2019-05-16T09:09:15.915Z</time>
      </trkpt>
      <trkpt lat="38.77221167" lon="-9.09169">
        <ele>3.0</ele>
        <time>2019-05-16T09:09:16.933Z</time>
      </trkpt>
      <trkpt lat="38.77226833" lon="-9.09167833">
        <ele>3.0</ele>
        <time>2019-05-16T09:09:17.906Z</time>
      </trkpt>
      <trkpt lat="38.77226833" lon="-9.09167833">
        <ele>3.0</ele>
        <time>2019-05-16T09:09:18.922Z</time>
      </trkpt>
      <trkpt lat="38.77232667" lon="-9.09167333">
        <ele>3.0</ele>
        <time>2019-05-16T09:09:19.933Z</time>
      </trkpt>
      <trkpt lat="38.77232667" lon="-9.09167333">
        <ele>3.0</ele>
        <time>2019-05-16T09:09:20.932Z</time>
      </trkpt>
      <trkpt lat="38.77239" lon="-9.09168167">
        <ele>2.0</ele>
        <time>2019-05-16T09:09:21.899Z</time>
      </trkpt>
      <trkpt lat="38.77242833" lon="-9.09167667">
        <ele>1.0</ele>
        <time>2019-05-16T09:09:22.922Z</time>
      </trkpt>
      <trkpt lat="38.77242833" lon="-9.09167667">
        <ele>1.0</ele>
        <time>2019-05-16T09:09:23.899Z</time>
      </trkpt>
      <trkpt lat="38.772495" lon="-9.09166167">
        <ele>1.0</ele>
        <time>2019-05-16T09:09:24.905Z</time>
      </trkpt>
      <trkpt lat="38.772495" lon="-9.09166167">
        <ele>1.0</ele>
        <time>2019-05-16T09:09:25.897Z</time>
      </trkpt>
      <trkpt lat="38.772545" lon="-9.091655">
        <ele>0.0</ele>
        <time>2019-05-16T09:09:26.907Z</time>
      </trkpt>
      <trkpt lat="38.772545" lon="-9.091655">
        <ele>0.0</ele>
        <time>2019-05-16T09:09:27.904Z</time>
      </trkpt>
      <trkpt lat="38.77261" lon="-9.09164833">
        <ele>1.0</ele>
        <time>2019-05-16T09:09:28.912Z</time>
      </trkpt>
      <trkpt lat="38.77261" lon="-9.09164833">
        <ele>1.0</ele>
        <time>2019-05-16T09:09:29.930Z</time>
      </trkpt>
      <trkpt lat="38.77267333" lon="-9.09164167">
        <ele>1.0</ele>
        <time>2019-05-16T09:09:30.898Z</time>
      </trkpt>
      <trkpt lat="38.77267333" lon="-9.09164167">
        <ele>1.0</ele>
        <time>2019-05-16T09:09:31.932Z</time>
      </trkpt>
      <trkpt lat="38.77274333" lon="-9.09164833">
        <ele>2.0</ele>
        <time>2019-05-16T09:09:32.900Z</time>
      </trkpt>
      <trkpt lat="38.77277667" lon="-9.09164833">
        <ele>2.0</ele>
        <time>2019-05-16T09:09:33.917Z</time>
      </trkpt>
      <trkpt lat="38.77277667" lon="-9.09164833">
        <ele>2.0</ele>
        <time>2019-05-16T09:09:34.929Z</time>
      </trkpt>
      <trkpt lat="38.772835" lon="-9.09165333">
        <ele>3.0</ele>
        <time>2019-05-16T09:09:35.902Z</time>
      </trkpt>
      <trkpt lat="38.77285833" lon="-9.091655">
        <ele>3.0</ele>
        <time>2019-05-16T09:09:36.901Z</time>
      </trkpt>
      <trkpt lat="38.77285833" lon="-9.091655">
        <ele>3.0</ele>
        <time>2019-05-16T09:09:37.912Z</time>
      </trkpt>
      <trkpt lat="38.77290167" lon="-9.09165833">
        <ele>3.0</ele>
        <time>2019-05-16T09:09:38.924Z</time>
      </trkpt>
      <trkpt lat="38.77292667" lon="-9.09166167">
        <ele>3.0</ele>
        <time>2019-05-16T09:09:39.906Z</time>
      </trkpt>
      <trkpt lat="38.77292667" lon="-9.09166167">
        <ele>3.0</ele>
        <time>2019-05-16T09:09:40.922Z</time>
      </trkpt>
      <trkpt lat="38.77297" lon="-9.091675">
        <ele>3.0</ele>
        <time>2019-05-16T09:09:41.931Z</time>
      </trkpt>
      <trkpt lat="38.773" lon="-9.09167">
        <ele>3.0</ele>
        <time>2019-05-16T09:09:42.909Z</time>
      </trkpt>
      <trkpt lat="38.773" lon="-9.09167">
        <ele>3.0</ele>
        <time>2019-05-16T09:09:43.898Z</time>
      </trkpt>
      <trkpt lat="38.77305833" lon="-9.09164833">
        <ele>4.0</ele>
        <time>2019-05-16T09:09:44.907Z</time>
      </trkpt>
      <trkpt lat="38.77305833" lon="-9.09164833">
        <ele>4.0</ele>
        <time>2019-05-16T09:09:45.921Z</time>
      </trkpt>
      <trkpt lat="38.773115" lon="-9.09164667">
        <ele>3.0</ele>
        <time>2019-05-16T09:09:46.919Z</time>
      </trkpt>
      <trkpt lat="38.773115" lon="-9.09164667">
        <ele>3.0</ele>
        <time>2019-05-16T09:09:47.901Z</time>
      </trkpt>
      <trkpt lat="38.77318" lon="-9.09164167">
        <ele>3.0</ele>
        <time>2019-05-16T09:09:48.907Z</time>
      </trkpt>
      <trkpt lat="38.77318" lon="-9.09164167">
        <ele>3.0</ele>
        <time>2019-05-16T09:09:49.927Z</time>
      </trkpt>
      <trkpt lat="38.77324" lon="-9.091645">
        <ele>4.0</ele>
        <time>2019-05-16T09:09:50.936Z</time>
      </trkpt>
      <trkpt lat="38.77324" lon="-9.091645">
        <ele>4.0</ele>
        <time>2019-05-16T09:09:51.914Z</time>
      </trkpt>
      <trkpt lat="38.773295" lon="-9.09165167">
        <ele>3.0</ele>
        <time>2019-05-16T09:09:52.939Z</time>
      </trkpt>
      <trkpt lat="38.77332333" lon="-9.09164667">
        <ele>2.0</ele>
        <time>2019-05-16T09:09:53.923Z</time>
      </trkpt>
      <trkpt lat="38.77332333" lon="-9.09164667">
        <ele>2.0</ele>
        <time>2019-05-16T09:09:54.898Z</time>
      </trkpt>
      <trkpt lat="38.77339167" lon="-9.09162833">
        <ele>2.0</ele>
        <time>2019-05-16T09:09:55.905Z</time>
      </trkpt>
      <trkpt lat="38.77339167" lon="-9.09162833">
        <ele>2.0</ele>
        <time>2019-05-16T09:09:56.928Z</time>
      </trkpt>
      <trkpt lat="38.77346667" lon="-9.09162833">
        <ele>2.0</ele>
        <time>2019-05-16T09:09:57.898Z</time>
      </trkpt>
      <trkpt lat="38.77346667" lon="-9.09162833">
        <ele>2.0</ele>
        <time>2019-05-16T09:09:58.908Z</time>
      </trkpt>
      <trkpt lat="38.77353" lon="-9.09163167">
        <ele>2.0</ele>
        <time>2019-05-16T09:09:59.919Z</time>
      </trkpt>
      <trkpt lat="38.77355833" lon="-9.09163">
        <ele>2.0</ele>
        <time>2019-05-16T09:10:00.910Z</time>
      </trkpt>
      <trkpt lat="38.77355833" lon="-9.09163">
        <ele>2.0</ele>
        <time>2019-05-16T09:10:01.929Z</time>
      </trkpt>
      <trkpt lat="38.77361667" lon="-9.09163">
        <ele>2.0</ele>
        <time>2019-05-16T09:10:02.940Z</time>
      </trkpt>
      <trkpt lat="38.77361667" lon="-9.09163">
        <ele>2.0</ele>
        <time>2019-05-16T09:10:03.921Z</time>
      </trkpt>
      <trkpt lat="38.773665" lon="-9.09162667">
        <ele>2.0</ele>
        <time>2019-05-16T09:10:04.940Z</time>
      </trkpt>
      <trkpt lat="38.773665" lon="-9.09162667">
        <ele>2.0</ele>
        <time>2019-05-16T09:10:05.904Z</time>
      </trkpt>
      <trkpt lat="38.77371333" lon="-9.09161833">
        <ele>3.0</ele>
        <time>2019-05-16T09:10:06.913Z</time>
      </trkpt>
      <trkpt lat="38.77371333" lon="-9.09161833">
        <ele>3.0</ele>
        <time>2019-05-16T09:10:07.900Z</time>
      </trkpt>
      <trkpt lat="38.77375667" lon="-9.091615">
        <ele>3.0</ele>
        <time>2019-05-16T09:10:08.909Z</time>
      </trkpt>
      <trkpt lat="38.77375667" lon="-9.091615">
        <ele>3.0</ele>
        <time>2019-05-16T09:10:09.934Z</time>
      </trkpt>
      <trkpt lat="38.77381833" lon="-9.091615">
        <ele>2.0</ele>
        <time>2019-05-16T09:10:10.905Z</time>
      </trkpt>
      <trkpt lat="38.77381833" lon="-9.091615">
        <ele>2.0</ele>
        <time>2019-05-16T09:10:11.931Z</time>
      </trkpt>
      <trkpt lat="38.773875" lon="-9.09161167">
        <ele>2.0</ele>
        <time>2019-05-16T09:10:12.946Z</time>
      </trkpt>
      <trkpt lat="38.773875" lon="-9.09161167">
        <ele>2.0</ele>
        <time>2019-05-16T09:10:13.902Z</time>
      </trkpt>
      <trkpt lat="38.773935" lon="-9.09160667">
        <ele>1.0</ele>
        <time>2019-05-16T09:10:14.911Z</time>
      </trkpt>
      <trkpt lat="38.773935" lon="-9.09160667">
        <ele>1.0</ele>
        <time>2019-05-16T09:10:15.907Z</time>
      </trkpt>
      <trkpt lat="38.77399333" lon="-9.09160667">
        <ele>0.0</ele>
        <time>2019-05-16T09:10:16.917Z</time>
      </trkpt>
      <trkpt lat="38.77399333" lon="-9.09160667">
        <ele>0.0</ele>
        <time>2019-05-16T09:10:17.906Z</time>
      </trkpt>
      <trkpt lat="38.77404667" lon="-9.09160833">
        <ele>0.0</ele>
        <time>2019-05-16T09:10:18.911Z</time>
      </trkpt>
      <trkpt lat="38.77404667" lon="-9.09160833">
        <ele>0.0</ele>
        <time>2019-05-16T09:10:19.933Z</time>
      </trkpt>
      <trkpt lat="38.77411167" lon="-9.0916">
        <ele>-1.0</ele>
        <time>2019-05-16T09:10:20.928Z</time>
      </trkpt>
      <trkpt lat="38.77411167" lon="-9.0916">
        <ele>-1.0</ele>
        <time>2019-05-16T09:10:21.930Z</time>
      </trkpt>
      <trkpt lat="38.77417667" lon="-9.09159833">
        <ele>-1.0</ele>
        <time>2019-05-16T09:10:22.899Z</time>
      </trkpt>
      <trkpt lat="38.77417667" lon="-9.09159833">
        <ele>-1.0</ele>
        <time>2019-05-16T09:10:23.909Z</time>
      </trkpt>
      <trkpt lat="38.77426167" lon="-9.09157333">
        <ele>-1.0</ele>
        <time>2019-05-16T09:10:24.925Z</time>
      </trkpt>
      <trkpt lat="38.77426167" lon="-9.09157333">
        <ele>-1.0</ele>
        <time>2019-05-16T09:10:25.918Z</time>
      </trkpt>
      <trkpt lat="38.77426167" lon="-9.09157333">
        <ele>-1.0</ele>
        <time>2019-05-16T09:10:26.947Z</time>
      </trkpt>
      <trkpt lat="38.77434833" lon="-9.09159333">
        <ele>1.0</ele>
        <time>2019-05-16T09:10:27.919Z</time>
      </trkpt>
      <trkpt lat="38.77442333" lon="-9.09158333">
        <ele>2.0</ele>
        <time>2019-05-16T09:10:28.934Z</time>
      </trkpt>
      <trkpt lat="38.77442333" lon="-9.09158333">
        <ele>2.0</ele>
        <time>2019-05-16T09:10:29.932Z</time>
      </trkpt>
      <trkpt lat="38.77446833" lon="-9.09158333">
        <ele>2.0</ele>
        <time>2019-05-16T09:10:30.898Z</time>
      </trkpt>
      <trkpt lat="38.77446833" lon="-9.09158333">
        <ele>2.0</ele>
        <time>2019-05-16T09:10:31.907Z</time>
      </trkpt>
      <trkpt lat="38.77451" lon="-9.09165">
        <ele>4.0</ele>
        <time>2019-05-16T09:10:32.916Z</time>
      </trkpt>
      <trkpt lat="38.77451" lon="-9.09165">
        <ele>4.0</ele>
        <time>2019-05-16T09:10:33.929Z</time>
      </trkpt>
      <trkpt lat="38.77455667" lon="-9.091685">
        <ele>5.0</ele>
        <time>2019-05-16T09:10:34.899Z</time>
      </trkpt>
      <trkpt lat="38.77455667" lon="-9.091685">
        <ele>5.0</ele>
        <time>2019-05-16T09:10:35.922Z</time>
      </trkpt>
      <trkpt lat="38.77460333" lon="-9.09169833">
        <ele>6.0</ele>
        <time>2019-05-16T09:10:36.936Z</time>
      </trkpt>
      <trkpt lat="38.77460333" lon="-9.09169833">
        <ele>6.0</ele>
        <time>2019-05-16T09:10:37.919Z</time>
      </trkpt>
      <trkpt lat="38.77464333" lon="-9.09170833">
        <ele>6.0</ele>
        <time>2019-05-16T09:10:38.928Z</time>
      </trkpt>
      <trkpt lat="38.77464333" lon="-9.09170833">
        <ele>6.0</ele>
        <time>2019-05-16T09:10:39.901Z</time>
      </trkpt>
      <trkpt lat="38.77465" lon="-9.09175167">
        <ele>8.0</ele>
        <time>2019-05-16T09:10:40.917Z</time>
      </trkpt>
      <trkpt lat="38.77463167" lon="-9.09176167">
        <ele>9.0</ele>
        <time>2019-05-16T09:10:41.906Z</time>
      </trkpt>
      <trkpt lat="38.77462" lon="-9.09175667">
        <ele>10.0</ele>
        <time>2019-05-16T09:10:42.910Z</time>
      </trkpt>
      <trkpt lat="38.77462" lon="-9.09175667">
        <ele>10.0</ele>
        <time>2019-05-16T09:10:43.901Z</time>
      </trkpt>
      <trkpt lat="38.774615" lon="-9.09173667">
        <ele>11.0</ele>
        <time>2019-05-16T09:10:44.907Z</time>
      </trkpt>
      <trkpt lat="38.774615" lon="-9.09173667">
        <ele>11.0</ele>
        <time>2019-05-16T09:10:45.929Z</time>
      </trkpt>
      <trkpt lat="38.77461667" lon="-9.09173333">
        <ele>12.0</ele>
        <time>2019-05-16T09:10:46.939Z</time>
      </trkpt>
      <trkpt lat="38.77461667" lon="-9.09173333">
        <ele>12.0</ele>
        <time>2019-05-16T09:10:47.916Z</time>
      </trkpt>
      <trkpt lat="38.77461667" lon="-9.09173333">
        <ele>12.0</ele>
        <time>2019-05-16T09:10:48.924Z</time>
      </trkpt>
      <trkpt lat="38.77461667" lon="-9.09173333">
        <ele>12.0</ele>
        <time>2019-05-16T09:10:49.931Z</time>
      </trkpt>
      <trkpt lat="38.77461667" lon="-9.09173333">
        <ele>12.0</ele>
        <time>2019-05-16T09:10:50.897Z</time>
      </trkpt>
      <trkpt lat="38.77461667" lon="-9.09173333">
        <ele>12.0</ele>
        <time>2019-05-16T09:10:51.902Z</time>
      </trkpt>
      <trkpt lat="38.77461667" lon="-9.09173333">
        <ele>12.0</ele>
        <time>2019-05-16T09:10:52.932Z</time>
      </trkpt>
      <trkpt lat="38.77461667" lon="-9.09173333">
        <ele>12.0</ele>
        <time>2019-05-16T09:10:53.901Z</time>
      </trkpt>
      <trkpt lat="38.77461667" lon="-9.09173333">
        <ele>12.0</ele>
        <time>2019-05-16T09:10:54.934Z</time>
      </trkpt>
      <trkpt lat="38.77461667" lon="-9.09173333">
        <ele>12.0</ele>
        <time>2019-05-16T09:10:55.925Z</time>
      </trkpt>
      <trkpt lat="38.77461667" lon="-9.09173333">
        <ele>12.0</ele>
        <time>2019-05-16T09:10:56.930Z</time>
      </trkpt>
      <trkpt lat="38.77461667" lon="-9.09173333">
        <ele>12.0</ele>
        <time>2019-05-16T09:10:57.930Z</time>
      </trkpt>
      <trkpt lat="38.77461667" lon="-9.09173333">
        <ele>12.0</ele>
        <time>2019-05-16T09:10:58.930Z</time>
      </trkpt>
      <trkpt lat="38.77461667" lon="-9.09173333">
        <ele>12.0</ele>
        <time>2019-05-16T09:10:59.926Z</time>
      </trkpt>
      <trkpt lat="38.77461667" lon="-9.09173333">
        <ele>12.0</ele>
        <time>2019-05-16T09:11:00.934Z</time>
      </trkpt>
      <trkpt lat="38.77461667" lon="-9.09173333">
        <ele>12.0</ele>
        <time>2019-05-16T09:11:01.925Z</time>
      </trkpt>
      <trkpt lat="38.77461667" lon="-9.09173333">
        <ele>12.0</ele>
        <time>2019-05-16T09:11:02.930Z</time>
      </trkpt>
      <trkpt lat="38.77461667" lon="-9.09173333">
        <ele>12.0</ele>
        <time>2019-05-16T09:11:03.925Z</time>
      </trkpt>
      <trkpt lat="38.77461667" lon="-9.09173333">
        <ele>12.0</ele>
        <time>2019-05-16T09:11:04.927Z</time>
      </trkpt>
      <trkpt lat="38.77461667" lon="-9.09173333">
        <ele>12.0</ele>
        <time>2019-05-16T09:11:05.925Z</time>
      </trkpt>
      <trkpt lat="38.77461667" lon="-9.09173333">
        <ele>12.0</ele>
        <time>2019-05-16T09:11:06.932Z</time>
      </trkpt>
      <trkpt lat="38.77461667" lon="-9.09173333">
        <ele>12.0</ele>
        <time>2019-05-16T09:11:07.930Z</time>
      </trkpt>
      <trkpt lat="38.77461667" lon="-9.09173333">
        <ele>12.0</ele>
        <time>2019-05-16T09:11:08.931Z</time>
      </trkpt>
      <trkpt lat="38.77461667" lon="-9.09173333">
        <ele>12.0</ele>
        <time>2019-05-16T09:11:09.928Z</time>
      </trkpt>
      <trkpt lat="38.77461667" lon="-9.09173333">
        <ele>12.0</ele>
        <time>2019-05-16T09:11:10.930Z</time>
      </trkpt>
      <trkpt lat="38.77461667" lon="-9.09173333">
        <ele>12.0</ele>
        <time>2019-05-16T09:11:11.925Z</time>
      </trkpt>
      <trkpt lat="38.77461667" lon="-9.09173333">
        <ele>12.0</ele>
        <time>2019-05-16T09:11:12.934Z</time>
      </trkpt>
      <trkpt lat="38.77461667" lon="-9.09173333">
        <ele>12.0</ele>
        <time>2019-05-16T09:11:13.929Z</time>
      </trkpt>
      <trkpt lat="38.77461667" lon="-9.09173333">
        <ele>12.0</ele>
        <time>2019-05-16T09:11:14.897Z</time>
      </trkpt>
      <trkpt lat="38.77461667" lon="-9.09173333">
        <ele>12.0</ele>
        <time>2019-05-16T09:11:15.925Z</time>
      </trkpt>
      <trkpt lat="38.77461667" lon="-9.09173333">
        <ele>12.0</ele>
        <time>2019-05-16T09:11:16.928Z</time>
      </trkpt>
      <trkpt lat="38.77461667" lon="-9.09173333">
        <ele>12.0</ele>
        <time>2019-05-16T09:11:17.930Z</time>
      </trkpt>
      <trkpt lat="38.77461667" lon="-9.09173333">
        <ele>12.0</ele>
        <time>2019-05-16T09:11:18.904Z</time>
      </trkpt>
      <trkpt lat="38.77461667" lon="-9.09173333">
        <ele>12.0</ele>
        <time>2019-05-16T09:11:19.925Z</time>
      </trkpt>
      <trkpt lat="38.77461667" lon="-9.09173333">
        <ele>12.0</ele>
        <time>2019-05-16T09:11:20.932Z</time>
      </trkpt>
      <trkpt lat="38.77461667" lon="-9.09173333">
        <ele>12.0</ele>
        <time>2019-05-16T09:11:21.900Z</time>
      </trkpt>
      <trkpt lat="38.77461667" lon="-9.09173333">
        <ele>12.0</ele>
        <time>2019-05-16T09:11:22.906Z</time>
      </trkpt>
      <trkpt lat="38.77461667" lon="-9.09173333">
        <ele>12.0</ele>
        <time>2019-05-16T09:11:23.931Z</time>
      </trkpt>
      <trkpt lat="38.77461667" lon="-9.09173333">
        <ele>12.0</ele>
        <time>2019-05-16T09:11:24.932Z</time>
      </trkpt>
      <trkpt lat="38.77461667" lon="-9.09173333">
        <ele>12.0</ele>
        <time>2019-05-16T09:11:25.925Z</time>
      </trkpt>
      <trkpt lat="38.77461667" lon="-9.09173333">
        <ele>12.0</ele>
        <time>2019-05-16T09:11:26.931Z</time>
      </trkpt>
      <trkpt lat="38.77461667" lon="-9.09173333">
        <ele>12.0</ele>
        <time>2019-05-16T09:11:27.930Z</time>
      </trkpt>
      <trkpt lat="38.77461667" lon="-9.09173333">
        <ele>12.0</ele>
        <time>2019-05-16T09:11:28.930Z</time>
      </trkpt>
      <trkpt lat="38.77461667" lon="-9.09173333">
        <ele>12.0</ele>
        <time>2019-05-16T09:11:29.925Z</time>
      </trkpt>
      <trkpt lat="38.77461667" lon="-9.09173333">
        <ele>12.0</ele>
        <time>2019-05-16T09:11:30.932Z</time>
      </trkpt>
      <trkpt lat="38.77461667" lon="-9.09173333">
        <ele>12.0</ele>
        <time>2019-05-16T09:11:31.914Z</time>
      </trkpt>
      <trkpt lat="38.77461667" lon="-9.09173333">
        <ele>12.0</ele>
        <time>2019-05-16T09:11:32.936Z</time>
      </trkpt>
      <trkpt lat="38.77461667" lon="-9.09173333">
        <ele>12.0</ele>
        <time>2019-05-16T09:11:33.930Z</time>
      </trkpt>
      <trkpt lat="38.77461667" lon="-9.09173333">
        <ele>12.0</ele>
        <time>2019-05-16T09:11:34.929Z</time>
      </trkpt>
      <trkpt lat="38.77461667" lon="-9.09173333">
        <ele>12.0</ele>
        <time>2019-05-16T09:11:35.925Z</time>
      </trkpt>
      <trkpt lat="38.77461667" lon="-9.09173333">
        <ele>12.0</ele>
        <time>2019-05-16T09:11:36.912Z</time>
      </trkpt>
      <trkpt lat="38.77461667" lon="-9.09173333">
        <ele>12.0</ele>
        <time>2019-05-16T09:11:37.936Z</time>
      </trkpt>
      <trkpt lat="38.77461667" lon="-9.09173333">
        <ele>12.0</ele>
        <time>2019-05-16T09:11:38.932Z</time>
      </trkpt>
      <trkpt lat="38.77461667" lon="-9.09173333">
        <ele>12.0</ele>
        <time>2019-05-16T09:11:39.925Z</time>
      </trkpt>
      <trkpt lat="38.77461667" lon="-9.09173333">
        <ele>12.0</ele>
        <time>2019-05-16T09:11:40.930Z</time>
      </trkpt>
      <trkpt lat="38.77461667" lon="-9.09173333">
        <ele>12.0</ele>
        <time>2019-05-16T09:11:41.926Z</time>
      </trkpt>
      <trkpt lat="38.77461667" lon="-9.09173333">
        <ele>12.0</ele>
        <time>2019-05-16T09:11:42.934Z</time>
      </trkpt>
      <trkpt lat="38.77461667" lon="-9.09173333">
        <ele>12.0</ele>
        <time>2019-05-16T09:11:43.929Z</time>
      </trkpt>
      <trkpt lat="38.77461667" lon="-9.09173333">
        <ele>12.0</ele>
        <time>2019-05-16T09:11:44.931Z</time>
      </trkpt>
      <trkpt lat="38.77461667" lon="-9.09173333">
        <ele>12.0</ele>
        <time>2019-05-16T09:11:45.926Z</time>
      </trkpt>
      <trkpt lat="38.77461667" lon="-9.09173333">
        <ele>12.0</ele>
        <time>2019-05-16T09:11:46.928Z</time>
      </trkpt>
      <trkpt lat="38.77462167" lon="-9.09174">
        <ele>16.0</ele>
        <time>2019-05-16T09:11:47.931Z</time>
      </trkpt>
      <trkpt lat="38.77462167" lon="-9.09174">
        <ele>16.0</ele>
        <time>2019-05-16T09:11:48.927Z</time>
      </trkpt>
      <trkpt lat="38.77460667" lon="-9.091715">
        <ele>17.0</ele>
        <time>2019-05-16T09:11:49.930Z</time>
      </trkpt>
      <trkpt lat="38.77460167" lon="-9.09170667">
        <ele>17.0</ele>
        <time>2019-05-16T09:11:50.930Z</time>
      </trkpt>
      <trkpt lat="38.77460167" lon="-9.09170667">
        <ele>17.0</ele>
        <time>2019-05-16T09:11:51.926Z</time>
      </trkpt>
      <trkpt lat="38.77459" lon="-9.09168833">
        <ele>17.0</ele>
        <time>2019-05-16T09:11:52.927Z</time>
      </trkpt>
      <trkpt lat="38.77459" lon="-9.09168833">
        <ele>17.0</ele>
        <time>2019-05-16T09:11:53.925Z</time>
      </trkpt>
      <trkpt lat="38.77458" lon="-9.09167">
        <ele>17.0</ele>
        <time>2019-05-16T09:11:54.911Z</time>
      </trkpt>
      <trkpt lat="38.77458" lon="-9.09167">
        <ele>17.0</ele>
        <time>2019-05-16T09:11:55.936Z</time>
      </trkpt>
      <trkpt lat="38.77457167" lon="-9.09165167">
        <ele>17.0</ele>
        <time>2019-05-16T09:11:56.928Z</time>
      </trkpt>
      <trkpt lat="38.77457167" lon="-9.09165167">
        <ele>17.0</ele>
        <time>2019-05-16T09:11:57.928Z</time>
      </trkpt>
      <trkpt lat="38.77457333" lon="-9.09163">
        <ele>18.0</ele>
        <time>2019-05-16T09:11:58.938Z</time>
      </trkpt>
      <trkpt lat="38.77457333" lon="-9.09163">
        <ele>18.0</ele>
        <time>2019-05-16T09:11:59.932Z</time>
      </trkpt>
      <trkpt lat="38.77455167" lon="-9.09162667">
        <ele>19.0</ele>
        <time>2019-05-16T09:12:00.905Z</time>
      </trkpt>
      <trkpt lat="38.77455167" lon="-9.09162667">
        <ele>19.0</ele>
        <time>2019-05-16T09:12:01.933Z</time>
      </trkpt>
      <trkpt lat="38.77454333" lon="-9.09163167">
        <ele>20.0</ele>
        <time>2019-05-16T09:12:02.901Z</time>
      </trkpt>
      <trkpt lat="38.77454333" lon="-9.09163167">
        <ele>20.0</ele>
        <time>2019-05-16T09:12:03.916Z</time>
      </trkpt>
      <trkpt lat="38.77454167" lon="-9.09162333">
        <ele>21.0</ele>
        <time>2019-05-16T09:12:04.922Z</time>
      </trkpt>
      <trkpt lat="38.77454167" lon="-9.09162333">
        <ele>21.0</ele>
        <time>2019-05-16T09:12:05.928Z</time>
      </trkpt>
      <trkpt lat="38.77455" lon="-9.09160833">
        <ele>21.0</ele>
        <time>2019-05-16T09:12:06.935Z</time>
      </trkpt>
      <trkpt lat="38.77455" lon="-9.09160833">
        <ele>21.0</ele>
        <time>2019-05-16T09:12:07.930Z</time>
      </trkpt>
      <trkpt lat="38.77455" lon="-9.09160833">
        <ele>21.0</ele>
        <time>2019-05-16T09:12:08.930Z</time>
      </trkpt>
      <trkpt lat="38.77455" lon="-9.09160833">
        <ele>21.0</ele>
        <time>2019-05-16T09:12:09.925Z</time>
      </trkpt>
      <trkpt lat="38.77455" lon="-9.09160833">
        <ele>21.0</ele>
        <time>2019-05-16T09:12:10.930Z</time>
      </trkpt>
      <trkpt lat="38.77455" lon="-9.09160833">
        <ele>21.0</ele>
        <time>2019-05-16T09:12:11.926Z</time>
      </trkpt>
      <trkpt lat="38.77455" lon="-9.09160833">
        <ele>21.0</ele>
        <time>2019-05-16T09:12:12.934Z</time>
      </trkpt>
      <trkpt lat="38.77455" lon="-9.09160833">
        <ele>21.0</ele>
        <time>2019-05-16T09:12:13.926Z</time>
      </trkpt>
      <trkpt lat="38.77455" lon="-9.09160833">
        <ele>21.0</ele>
        <time>2019-05-16T09:12:14.910Z</time>
      </trkpt>
      <trkpt lat="38.77455" lon="-9.09160833">
        <ele>21.0</ele>
        <time>2019-05-16T09:12:15.936Z</time>
      </trkpt>
      <trkpt lat="38.77455" lon="-9.09160833">
        <ele>21.0</ele>
        <time>2019-05-16T09:12:16.925Z</time>
      </trkpt>
      <trkpt lat="38.77455" lon="-9.09160833">
        <ele>21.0</ele>
        <time>2019-05-16T09:12:17.930Z</time>
      </trkpt>
      <trkpt lat="38.77455" lon="-9.09160833">
        <ele>21.0</ele>
        <time>2019-05-16T09:12:18.932Z</time>
      </trkpt>
      <trkpt lat="38.77455" lon="-9.09160833">
        <ele>21.0</ele>
        <time>2019-05-16T09:12:19.925Z</time>
      </trkpt>
      <trkpt lat="38.77455" lon="-9.09160833">
        <ele>21.0</ele>
        <time>2019-05-16T09:12:20.905Z</time>
      </trkpt>
      <trkpt lat="38.77455" lon="-9.09160833">
        <ele>21.0</ele>
        <time>2019-05-16T09:12:21.932Z</time>
      </trkpt>
      <trkpt lat="38.77455" lon="-9.09160833">
        <ele>21.0</ele>
        <time>2019-05-16T09:12:22.930Z</time>
      </trkpt>
      <trkpt lat="38.77455" lon="-9.09160833">
        <ele>21.0</ele>
        <time>2019-05-16T09:12:23.927Z</time>
      </trkpt>
      <trkpt lat="38.77455" lon="-9.09160833">
        <ele>21.0</ele>
        <time>2019-05-16T09:12:24.932Z</time>
      </trkpt>
      <trkpt lat="38.77455" lon="-9.09160833">
        <ele>21.0</ele>
        <time>2019-05-16T09:12:25.926Z</time>
      </trkpt>
      <trkpt lat="38.77455" lon="-9.09160833">
        <ele>21.0</ele>
        <time>2019-05-16T09:12:26.929Z</time>
      </trkpt>
      <trkpt lat="38.77455" lon="-9.09160833">
        <ele>21.0</ele>
        <time>2019-05-16T09:12:27.930Z</time>
      </trkpt>
      <trkpt lat="38.77455" lon="-9.09160833">
        <ele>21.0</ele>
        <time>2019-05-16T09:12:28.920Z</time>
      </trkpt>
      <trkpt lat="38.77455" lon="-9.09160833">
        <ele>21.0</ele>
        <time>2019-05-16T09:12:29.910Z</time>
      </trkpt>
      <trkpt lat="38.77455" lon="-9.09160833">
        <ele>21.0</ele>
        <time>2019-05-16T09:12:30.935Z</time>
      </trkpt>
      <trkpt lat="38.77455" lon="-9.09160833">
        <ele>21.0</ele>
        <time>2019-05-16T09:12:31.925Z</time>
      </trkpt>
      <trkpt lat="38.77455" lon="-9.09160833">
        <ele>21.0</ele>
        <time>2019-05-16T09:12:32.897Z</time>
      </trkpt>
      <trkpt lat="38.77455" lon="-9.09160833">
        <ele>21.0</ele>
        <time>2019-05-16T09:12:33.930Z</time>
      </trkpt>
      <trkpt lat="38.77455" lon="-9.09160833">
        <ele>21.0</ele>
        <time>2019-05-16T09:12:34.931Z</time>
      </trkpt>
      <trkpt lat="38.77455" lon="-9.09160833">
        <ele>21.0</ele>
        <time>2019-05-16T09:12:35.926Z</time>
      </trkpt>
      <trkpt lat="38.77455" lon="-9.09160833">
        <ele>21.0</ele>
        <time>2019-05-16T09:12:36.910Z</time>
      </trkpt>
      <trkpt lat="38.77455" lon="-9.09160833">
        <ele>21.0</ele>
        <time>2019-05-16T09:12:37.932Z</time>
      </trkpt>
      <trkpt lat="38.77455" lon="-9.09160833">
        <ele>21.0</ele>
        <time>2019-05-16T09:12:38.931Z</time>
      </trkpt>
      <trkpt lat="38.77455" lon="-9.09160833">
        <ele>21.0</ele>
        <time>2019-05-16T09:12:39.930Z</time>
      </trkpt>
      <trkpt lat="38.77455" lon="-9.09160833">
        <ele>21.0</ele>
        <time>2019-05-16T09:12:40.932Z</time>
      </trkpt>
      <trkpt lat="38.77455" lon="-9.09160833">
        <ele>21.0</ele>
        <time>2019-05-16T09:12:41.927Z</time>
      </trkpt>
      <trkpt lat="38.77447167" lon="-9.09154833">
        <ele>22.0</ele>
        <time>2019-05-16T09:12:42.935Z</time>
      </trkpt>
      <trkpt lat="38.77447167" lon="-9.09154833">
        <ele>22.0</ele>
        <time>2019-05-16T09:12:43.927Z</time>
      </trkpt>
      <trkpt lat="38.774465" lon="-9.09154667">
        <ele>22.0</ele>
        <time>2019-05-16T09:12:44.912Z</time>
      </trkpt>
      <trkpt lat="38.774465" lon="-9.09154667">
        <ele>22.0</ele>
        <time>2019-05-16T09:12:45.904Z</time>
      </trkpt>
      <trkpt lat="38.77446333" lon="-9.09154667">
        <ele>22.0</ele>
        <time>2019-05-16T09:12:46.920Z</time>
      </trkpt>
      <trkpt lat="38.77446333" lon="-9.09154667">
        <ele>22.0</ele>
        <time>2019-05-16T09:12:47.926Z</time>
      </trkpt>
      <trkpt lat="38.77446333" lon="-9.09154667">
        <ele>22.0</ele>
        <time>2019-05-16T09:12:48.898Z</time>
      </trkpt>
      <trkpt lat="38.77446333" lon="-9.09154667">
        <ele>22.0</ele>
        <time>2019-05-16T09:12:49.927Z</time>
      </trkpt>
      <trkpt lat="38.77446333" lon="-9.09154667">
        <ele>22.0</ele>
        <time>2019-05-16T09:12:50.932Z</time>
      </trkpt>
      <trkpt lat="38.77446333" lon="-9.09154667">
        <ele>22.0</ele>
        <time>2019-05-16T09:12:51.927Z</time>
      </trkpt>
      <trkpt lat="38.77446333" lon="-9.09154667">
        <ele>22.0</ele>
        <time>2019-05-16T09:12:52.932Z</time>
      </trkpt>
      <trkpt lat="38.77446333" lon="-9.09154667">
        <ele>22.0</ele>
        <time>2019-05-16T09:12:53.926Z</time>
      </trkpt>
      <trkpt lat="38.77446333" lon="-9.09154667">
        <ele>22.0</ele>
        <time>2019-05-16T09:12:54.935Z</time>
      </trkpt>
      <trkpt lat="38.77446333" lon="-9.09154667">
        <ele>22.0</ele>
        <time>2019-05-16T09:12:55.928Z</time>
      </trkpt>
      <trkpt lat="38.77446333" lon="-9.09154667">
        <ele>22.0</ele>
        <time>2019-05-16T09:12:56.932Z</time>
      </trkpt>
      <trkpt lat="38.77446333" lon="-9.09154667">
        <ele>22.0</ele>
        <time>2019-05-16T09:12:57.930Z</time>
      </trkpt>
      <trkpt lat="38.77446333" lon="-9.09154667">
        <ele>22.0</ele>
        <time>2019-05-16T09:12:58.932Z</time>
      </trkpt>
      <trkpt lat="38.77446333" lon="-9.09154667">
        <ele>22.0</ele>
        <time>2019-05-16T09:12:59.930Z</time>
      </trkpt>
      <trkpt lat="38.77446333" lon="-9.09154667">
        <ele>22.0</ele>
        <time>2019-05-16T09:13:00.934Z</time>
      </trkpt>
      <trkpt lat="38.77446333" lon="-9.09154667">
        <ele>22.0</ele>
        <time>2019-05-16T09:13:01.925Z</time>
      </trkpt>
      <trkpt lat="38.77446333" lon="-9.09154667">
        <ele>22.0</ele>
        <time>2019-05-16T09:13:02.932Z</time>
      </trkpt>
      <trkpt lat="38.77446333" lon="-9.09154667">
        <ele>22.0</ele>
        <time>2019-05-16T09:13:03.928Z</time>
      </trkpt>
      <trkpt lat="38.77446333" lon="-9.09154667">
        <ele>22.0</ele>
        <time>2019-05-16T09:13:04.933Z</time>
      </trkpt>
      <trkpt lat="38.77446333" lon="-9.09154667">
        <ele>22.0</ele>
        <time>2019-05-16T09:13:05.925Z</time>
      </trkpt>
      <trkpt lat="38.77446333" lon="-9.09154667">
        <ele>22.0</ele>
        <time>2019-05-16T09:13:06.933Z</time>
      </trkpt>
      <trkpt lat="38.77446333" lon="-9.09154667">
        <ele>22.0</ele>
        <time>2019-05-16T09:13:07.930Z</time>
      </trkpt>
      <trkpt lat="38.77446333" lon="-9.09154667">
        <ele>22.0</ele>
        <time>2019-05-16T09:13:08.930Z</time>
      </trkpt>
      <trkpt lat="38.77446333" lon="-9.09154667">
        <ele>22.0</ele>
        <time>2019-05-16T09:13:09.932Z</time>
      </trkpt>
      <trkpt lat="38.77446333" lon="-9.09154667">
        <ele>22.0</ele>
        <time>2019-05-16T09:13:10.931Z</time>
      </trkpt>
      <trkpt lat="38.77446333" lon="-9.09154667">
        <ele>22.0</ele>
        <time>2019-05-16T09:13:11.926Z</time>
      </trkpt>
      <trkpt lat="38.77446333" lon="-9.09154667">
        <ele>22.0</ele>
        <time>2019-05-16T09:13:12.934Z</time>
      </trkpt>
      <trkpt lat="38.77446333" lon="-9.09154667">
        <ele>22.0</ele>
        <time>2019-05-16T09:13:13.929Z</time>
      </trkpt>
      <trkpt lat="38.77446333" lon="-9.09154667">
        <ele>22.0</ele>
        <time>2019-05-16T09:13:14.931Z</time>
      </trkpt>
      <trkpt lat="38.77446333" lon="-9.09154667">
        <ele>22.0</ele>
        <time>2019-05-16T09:13:15.926Z</time>
      </trkpt>
      <trkpt lat="38.77446333" lon="-9.09154667">
        <ele>22.0</ele>
        <time>2019-05-16T09:13:16.930Z</time>
      </trkpt>
      <trkpt lat="38.77446333" lon="-9.09154667">
        <ele>22.0</ele>
        <time>2019-05-16T09:13:17.930Z</time>
      </trkpt>
      <trkpt lat="38.77446333" lon="-9.09154667">
        <ele>22.0</ele>
        <time>2019-05-16T09:13:18.907Z</time>
      </trkpt>
      <trkpt lat="38.77446333" lon="-9.09154667">
        <ele>22.0</ele>
        <time>2019-05-16T09:13:19.930Z</time>
      </trkpt>
      <trkpt lat="38.77446333" lon="-9.09154667">
        <ele>22.0</ele>
        <time>2019-05-16T09:13:20.904Z</time>
      </trkpt>
      <trkpt lat="38.77446333" lon="-9.09154667">
        <ele>22.0</ele>
        <time>2019-05-16T09:13:21.927Z</time>
      </trkpt>
      <trkpt lat="38.77446333" lon="-9.09154667">
        <ele>22.0</ele>
        <time>2019-05-16T09:13:22.930Z</time>
      </trkpt>
      <trkpt lat="38.77446333" lon="-9.09154667">
        <ele>22.0</ele>
        <time>2019-05-16T09:13:23.926Z</time>
      </trkpt>
      <trkpt lat="38.77446333" lon="-9.09154667">
        <ele>22.0</ele>
        <time>2019-05-16T09:13:24.934Z</time>
      </trkpt>
      <trkpt lat="38.77446333" lon="-9.09154667">
        <ele>22.0</ele>
        <time>2019-05-16T09:13:25.926Z</time>
      </trkpt>
      <trkpt lat="38.77446333" lon="-9.09154667">
        <ele>22.0</ele>
        <time>2019-05-16T09:13:26.932Z</time>
      </trkpt>
      <trkpt lat="38.77446333" lon="-9.09154667">
        <ele>22.0</ele>
        <time>2019-05-16T09:13:27.930Z</time>
      </trkpt>
      <trkpt lat="38.77446333" lon="-9.09154667">
        <ele>22.0</ele>
        <time>2019-05-16T09:13:28.930Z</time>
      </trkpt>
      <trkpt lat="38.77446333" lon="-9.09154667">
        <ele>22.0</ele>
        <time>2019-05-16T09:13:29.925Z</time>
      </trkpt>
      <trkpt lat="38.77446333" lon="-9.09154667">
        <ele>22.0</ele>
        <time>2019-05-16T09:13:30.934Z</time>
      </trkpt>
      <trkpt lat="38.77446333" lon="-9.09154667">
        <ele>22.0</ele>
        <time>2019-05-16T09:13:31.926Z</time>
      </trkpt>
      <trkpt lat="38.77446333" lon="-9.09154667">
        <ele>22.0</ele>
        <time>2019-05-16T09:13:32.930Z</time>
      </trkpt>
      <trkpt lat="38.77446333" lon="-9.09154667">
        <ele>22.0</ele>
        <time>2019-05-16T09:13:33.926Z</time>
      </trkpt>
      <trkpt lat="38.77446333" lon="-9.09154667">
        <ele>22.0</ele>
        <time>2019-05-16T09:13:34.910Z</time>
      </trkpt>
      <trkpt lat="38.77446333" lon="-9.09154667">
        <ele>22.0</ele>
        <time>2019-05-16T09:13:35.932Z</time>
      </trkpt>
      <trkpt lat="38.77446333" lon="-9.09154667">
        <ele>22.0</ele>
        <time>2019-05-16T09:13:36.934Z</time>
      </trkpt>
      <trkpt lat="38.77446333" lon="-9.09154667">
        <ele>22.0</ele>
        <time>2019-05-16T09:13:37.930Z</time>
      </trkpt>
      <trkpt lat="38.77446333" lon="-9.09154667">
        <ele>22.0</ele>
        <time>2019-05-16T09:13:38.930Z</time>
      </trkpt>
      <trkpt lat="38.77446333" lon="-9.09154667">
        <ele>22.0</ele>
        <time>2019-05-16T09:13:39.928Z</time>
      </trkpt>
      <trkpt lat="38.77446333" lon="-9.09154667">
        <ele>22.0</ele>
        <time>2019-05-16T09:13:40.930Z</time>
      </trkpt>
      <trkpt lat="38.77446333" lon="-9.09154667">
        <ele>22.0</ele>
        <time>2019-05-16T09:13:41.925Z</time>
      </trkpt>
      <trkpt lat="38.77438333" lon="-9.09149333">
        <ele>21.0</ele>
        <time>2019-05-16T09:13:42.907Z</time>
      </trkpt>
      <trkpt lat="38.77438333" lon="-9.09149333">
        <ele>21.0</ele>
        <time>2019-05-16T09:13:43.930Z</time>
      </trkpt>
      <trkpt lat="38.77438167" lon="-9.09149167">
        <ele>20.0</ele>
        <time>2019-05-16T09:13:44.897Z</time>
      </trkpt>
      <trkpt lat="38.77438167" lon="-9.09149167">
        <ele>20.0</ele>
        <time>2019-05-16T09:13:45.925Z</time>
      </trkpt>
      <trkpt lat="38.77438" lon="-9.09149">
        <ele>20.0</ele>
        <time>2019-05-16T09:13:46.930Z</time>
      </trkpt>
      <trkpt lat="38.77438" lon="-9.09149">
        <ele>20.0</ele>
        <time>2019-05-16T09:13:47.930Z</time>
      </trkpt>
      <trkpt lat="38.77438" lon="-9.09149">
        <ele>20.0</ele>
        <time>2019-05-16T09:13:48.917Z</time>
      </trkpt>
      <trkpt lat="38.77438" lon="-9.09149">
        <ele>20.0</ele>
        <time>2019-05-16T09:13:49.911Z</time>
      </trkpt>
      <trkpt lat="38.77438" lon="-9.09149">
        <ele>20.0</ele>
        <time>2019-05-16T09:13:50.934Z</time>
      </trkpt>
      <trkpt lat="38.77438" lon="-9.09149">
        <ele>20.0</ele>
        <time>2019-05-16T09:13:51.931Z</time>
      </trkpt>
      <trkpt lat="38.77438" lon="-9.09149">
        <ele>20.0</ele>
        <time>2019-05-16T09:13:52.925Z</time>
      </trkpt>
      <trkpt lat="38.77438" lon="-9.09149">
        <ele>20.0</ele>
        <time>2019-05-16T09:13:53.930Z</time>
      </trkpt>
      <trkpt lat="38.77438" lon="-9.09149">
        <ele>20.0</ele>
        <time>2019-05-16T09:13:54.935Z</time>
      </trkpt>
      <trkpt lat="38.77438" lon="-9.09149">
        <ele>20.0</ele>
        <time>2019-05-16T09:13:55.925Z</time>
      </trkpt>
      <trkpt lat="38.77438" lon="-9.09149">
        <ele>20.0</ele>
        <time>2019-05-16T09:13:56.930Z</time>
      </trkpt>
      <trkpt lat="38.77438" lon="-9.09149">
        <ele>20.0</ele>
        <time>2019-05-16T09:13:57.930Z</time>
      </trkpt>
      <trkpt lat="38.77438" lon="-9.09149">
        <ele>20.0</ele>
        <time>2019-05-16T09:13:58.929Z</time>
      </trkpt>
      <trkpt lat="38.77438" lon="-9.09149">
        <ele>20.0</ele>
        <time>2019-05-16T09:13:59.925Z</time>
      </trkpt>
      <trkpt lat="38.77438" lon="-9.09149">
        <ele>20.0</ele>
        <time>2019-05-16T09:14:00.934Z</time>
      </trkpt>
      <trkpt lat="38.77438" lon="-9.09149">
        <ele>20.0</ele>
        <time>2019-05-16T09:14:01.925Z</time>
      </trkpt>
      <trkpt lat="38.77438" lon="-9.09149">
        <ele>20.0</ele>
        <time>2019-05-16T09:14:02.910Z</time>
      </trkpt>
      <trkpt lat="38.77438" lon="-9.09149">
        <ele>20.0</ele>
        <time>2019-05-16T09:14:03.929Z</time>
      </trkpt>
      <trkpt lat="38.77438" lon="-9.09149">
        <ele>20.0</ele>
        <time>2019-05-16T09:14:04.927Z</time>
      </trkpt>
      <trkpt lat="38.77438" lon="-9.09149">
        <ele>20.0</ele>
        <time>2019-05-16T09:14:05.925Z</time>
      </trkpt>
      <trkpt lat="38.77438" lon="-9.09149">
        <ele>20.0</ele>
        <time>2019-05-16T09:14:06.932Z</time>
      </trkpt>
      <trkpt lat="38.77438" lon="-9.09149">
        <ele>20.0</ele>
        <time>2019-05-16T09:14:07.930Z</time>
      </trkpt>
      <trkpt lat="38.77447333" lon="-9.09148167">
        <ele>15.0</ele>
        <time>2019-05-16T09:14:08.909Z</time>
      </trkpt>
      <trkpt lat="38.77447333" lon="-9.09148167">
        <ele>15.0</ele>
        <time>2019-05-16T09:14:09.932Z</time>
      </trkpt>
      <trkpt lat="38.77447667" lon="-9.09148333">
        <ele>15.0</ele>
        <time>2019-05-16T09:14:10.930Z</time>
      </trkpt>
      <trkpt lat="38.77447667" lon="-9.09148333">
        <ele>15.0</ele>
        <time>2019-05-16T09:14:11.925Z</time>
      </trkpt>
      <trkpt lat="38.77447833" lon="-9.09148333">
        <ele>15.0</ele>
        <time>2019-05-16T09:14:12.932Z</time>
      </trkpt>
      <trkpt lat="38.77447833" lon="-9.09148333">
        <ele>15.0</ele>
        <time>2019-05-16T09:14:13.928Z</time>
      </trkpt>
      <trkpt lat="38.77447833" lon="-9.09148333">
        <ele>15.0</ele>
        <time>2019-05-16T09:14:14.930Z</time>
      </trkpt>
      <trkpt lat="38.77447833" lon="-9.09148333">
        <ele>15.0</ele>
        <time>2019-05-16T09:14:15.925Z</time>
      </trkpt>
      <trkpt lat="38.77447833" lon="-9.09148333">
        <ele>15.0</ele>
        <time>2019-05-16T09:14:16.929Z</time>
      </trkpt>
      <trkpt lat="38.77447833" lon="-9.09148333">
        <ele>15.0</ele>
        <time>2019-05-16T09:14:17.920Z</time>
      </trkpt>
      <trkpt lat="38.77447833" lon="-9.09148333">
        <ele>15.0</ele>
        <time>2019-05-16T09:14:18.900Z</time>
      </trkpt>
      <trkpt lat="38.77447833" lon="-9.09148333">
        <ele>15.0</ele>
        <time>2019-05-16T09:14:19.925Z</time>
      </trkpt>
      <trkpt lat="38.77447833" lon="-9.09148333">
        <ele>15.0</ele>
        <time>2019-05-16T09:14:20.934Z</time>
      </trkpt>
      <trkpt lat="38.77447833" lon="-9.09148333">
        <ele>15.0</ele>
        <time>2019-05-16T09:14:21.925Z</time>
      </trkpt>
      <trkpt lat="38.77447833" lon="-9.09148333">
        <ele>15.0</ele>
        <time>2019-05-16T09:14:22.930Z</time>
      </trkpt>
      <trkpt lat="38.77447833" lon="-9.09148333">
        <ele>15.0</ele>
        <time>2019-05-16T09:14:23.926Z</time>
      </trkpt>
      <trkpt lat="38.77447833" lon="-9.09148333">
        <ele>15.0</ele>
        <time>2019-05-16T09:14:24.912Z</time>
      </trkpt>
      <trkpt lat="38.77447833" lon="-9.09148333">
        <ele>15.0</ele>
        <time>2019-05-16T09:14:25.935Z</time>
      </trkpt>
      <trkpt lat="38.77447833" lon="-9.09148333">
        <ele>15.0</ele>
        <time>2019-05-16T09:14:26.930Z</time>
      </trkpt>
      <trkpt lat="38.77447833" lon="-9.09148333">
        <ele>15.0</ele>
        <time>2019-05-16T09:14:27.920Z</time>
      </trkpt>
      <trkpt lat="38.77447833" lon="-9.09148333">
        <ele>15.0</ele>
        <time>2019-05-16T09:14:28.897Z</time>
      </trkpt>
      <trkpt lat="38.77447833" lon="-9.09148333">
        <ele>15.0</ele>
        <time>2019-05-16T09:14:29.926Z</time>
      </trkpt>
      <trkpt lat="38.77447833" lon="-9.09148333">
        <ele>15.0</ele>
        <time>2019-05-16T09:14:30.932Z</time>
      </trkpt>
      <trkpt lat="38.77447833" lon="-9.09148333">
        <ele>15.0</ele>
        <time>2019-05-16T09:14:31.925Z</time>
      </trkpt>
      <trkpt lat="38.77447833" lon="-9.09148333">
        <ele>15.0</ele>
        <time>2019-05-16T09:14:32.930Z</time>
      </trkpt>
      <trkpt lat="38.77447833" lon="-9.09148333">
        <ele>15.0</ele>
        <time>2019-05-16T09:14:33.930Z</time>
      </trkpt>
      <trkpt lat="38.77447833" lon="-9.09148333">
        <ele>15.0</ele>
        <time>2019-05-16T09:14:34.931Z</time>
      </trkpt>
      <trkpt lat="38.77447833" lon="-9.09148333">
        <ele>15.0</ele>
        <time>2019-05-16T09:14:35.925Z</time>
      </trkpt>
      <trkpt lat="38.77447833" lon="-9.09148333">
        <ele>15.0</ele>
        <time>2019-05-16T09:14:36.931Z</time>
      </trkpt>
      <trkpt lat="38.77447833" lon="-9.09148333">
        <ele>15.0</ele>
        <time>2019-05-16T09:14:37.930Z</time>
      </trkpt>
      <trkpt lat="38.77447833" lon="-9.09148333">
        <ele>15.0</ele>
        <time>2019-05-16T09:14:38.927Z</time>
      </trkpt>
      <trkpt lat="38.77447833" lon="-9.09148333">
        <ele>15.0</ele>
        <time>2019-05-16T09:14:39.925Z</time>
      </trkpt>
      <trkpt lat="38.77447833" lon="-9.09148333">
        <ele>15.0</ele>
        <time>2019-05-16T09:14:40.930Z</time>
      </trkpt>
      <trkpt lat="38.77447833" lon="-9.09148333">
        <ele>15.0</ele>
        <time>2019-05-16T09:14:41.925Z</time>
      </trkpt>
      <trkpt lat="38.77447833" lon="-9.09148333">
        <ele>15.0</ele>
        <time>2019-05-16T09:14:42.907Z</time>
      </trkpt>
      <trkpt lat="38.77447833" lon="-9.09148333">
        <ele>15.0</ele>
        <time>2019-05-16T09:14:43.930Z</time>
      </trkpt>
      <trkpt lat="38.77447833" lon="-9.09148333">
        <ele>15.0</ele>
        <time>2019-05-16T09:14:44.929Z</time>
      </trkpt>
      <trkpt lat="38.77447833" lon="-9.09148333">
        <ele>15.0</ele>
        <time>2019-05-16T09:14:45.925Z</time>
      </trkpt>
      <trkpt lat="38.77447833" lon="-9.09148333">
        <ele>15.0</ele>
        <time>2019-05-16T09:14:46.929Z</time>
      </trkpt>
      <trkpt lat="38.77447833" lon="-9.09148333">
        <ele>15.0</ele>
        <time>2019-05-16T09:14:47.898Z</time>
      </trkpt>
      <trkpt lat="38.77447833" lon="-9.09148333">
        <ele>15.0</ele>
        <time>2019-05-16T09:14:48.932Z</time>
      </trkpt>
      <trkpt lat="38.77447833" lon="-9.09148333">
        <ele>15.0</ele>
        <time>2019-05-16T09:14:49.925Z</time>
      </trkpt>
      <trkpt lat="38.77447833" lon="-9.09148333">
        <ele>15.0</ele>
        <time>2019-05-16T09:14:50.931Z</time>
      </trkpt>
      <trkpt lat="38.77447833" lon="-9.09148333">
        <ele>15.0</ele>
        <time>2019-05-16T09:14:51.928Z</time>
      </trkpt>
      <trkpt lat="38.77447833" lon="-9.09148333">
        <ele>15.0</ele>
        <time>2019-05-16T09:14:52.925Z</time>
      </trkpt>
      <trkpt lat="38.77447833" lon="-9.09148333">
        <ele>15.0</ele>
        <time>2019-05-16T09:14:53.930Z</time>
      </trkpt>
      <trkpt lat="38.77447833" lon="-9.09148333">
        <ele>15.0</ele>
        <time>2019-05-16T09:14:54.926Z</time>
      </trkpt>
      <trkpt lat="38.77447833" lon="-9.09148333">
        <ele>15.0</ele>
        <time>2019-05-16T09:14:55.929Z</time>
      </trkpt>
      <trkpt lat="38.77447833" lon="-9.09148333">
        <ele>15.0</ele>
        <time>2019-05-16T09:14:56.931Z</time>
      </trkpt>
      <trkpt lat="38.77447833" lon="-9.09148333">
        <ele>15.0</ele>
        <time>2019-05-16T09:14:57.930Z</time>
      </trkpt>
      <trkpt lat="38.77447833" lon="-9.09148333">
        <ele>15.0</ele>
        <time>2019-05-16T09:14:58.909Z</time>
      </trkpt>
      <trkpt lat="38.77447833" lon="-9.09148333">
        <ele>15.0</ele>
        <time>2019-05-16T09:14:59.932Z</time>
      </trkpt>
      <trkpt lat="38.77447833" lon="-9.09148333">
        <ele>15.0</ele>
        <time>2019-05-16T09:15:00.934Z</time>
      </trkpt>
      <trkpt lat="38.77447833" lon="-9.09148333">
        <ele>15.0</ele>
        <time>2019-05-16T09:15:01.932Z</time>
      </trkpt>
      <trkpt lat="38.77447833" lon="-9.09148333">
        <ele>15.0</ele>
        <time>2019-05-16T09:15:02.908Z</time>
      </trkpt>
      <trkpt lat="38.77447833" lon="-9.09148333">
        <ele>15.0</ele>
        <time>2019-05-16T09:15:03.931Z</time>
      </trkpt>
      <trkpt lat="38.77447833" lon="-9.09148333">
        <ele>15.0</ele>
        <time>2019-05-16T09:15:04.927Z</time>
      </trkpt>
      <trkpt lat="38.77447833" lon="-9.09148333">
        <ele>15.0</ele>
        <time>2019-05-16T09:15:05.931Z</time>
      </trkpt>
      <trkpt lat="38.77447833" lon="-9.09148333">
        <ele>15.0</ele>
        <time>2019-05-16T09:15:06.933Z</time>
      </trkpt>
      <trkpt lat="38.77447833" lon="-9.09148333">
        <ele>15.0</ele>
        <time>2019-05-16T09:15:07.930Z</time>
      </trkpt>
      <trkpt lat="38.77447833" lon="-9.09148333">
        <ele>15.0</ele>
        <time>2019-05-16T09:15:08.910Z</time>
      </trkpt>
      <trkpt lat="38.77447833" lon="-9.09148333">
        <ele>15.0</ele>
        <time>2019-05-16T09:15:09.934Z</time>
      </trkpt>
      <trkpt lat="38.77447833" lon="-9.09148333">
        <ele>15.0</ele>
        <time>2019-05-16T09:15:10.931Z</time>
      </trkpt>
      <trkpt lat="38.77447833" lon="-9.09148333">
        <ele>15.0</ele>
        <time>2019-05-16T09:15:11.927Z</time>
      </trkpt>
      <trkpt lat="38.77447833" lon="-9.09148333">
        <ele>15.0</ele>
        <time>2019-05-16T09:15:12.900Z</time>
      </trkpt>
      <trkpt lat="38.77447833" lon="-9.09148333">
        <ele>15.0</ele>
        <time>2019-05-16T09:15:13.926Z</time>
      </trkpt>
      <trkpt lat="38.77447833" lon="-9.09148333">
        <ele>15.0</ele>
        <time>2019-05-16T09:15:14.910Z</time>
      </trkpt>
      <trkpt lat="38.77447833" lon="-9.09148333">
        <ele>15.0</ele>
        <time>2019-05-16T09:15:15.933Z</time>
      </trkpt>
      <trkpt lat="38.77447833" lon="-9.09148333">
        <ele>15.0</ele>
        <time>2019-05-16T09:15:16.931Z</time>
      </trkpt>
      <trkpt lat="38.77447833" lon="-9.09148333">
        <ele>15.0</ele>
        <time>2019-05-16T09:15:17.930Z</time>
      </trkpt>
      <trkpt lat="38.77447833" lon="-9.09148333">
        <ele>15.0</ele>
        <time>2019-05-16T09:15:18.906Z</time>
      </trkpt>
      <trkpt lat="38.77447833" lon="-9.09148333">
        <ele>15.0</ele>
        <time>2019-05-16T09:15:19.930Z</time>
      </trkpt>
      <trkpt lat="38.77447833" lon="-9.09148333">
        <ele>15.0</ele>
        <time>2019-05-16T09:15:20.933Z</time>
      </trkpt>
      <trkpt lat="38.77447833" lon="-9.09148333">
        <ele>15.0</ele>
        <time>2019-05-16T09:15:21.927Z</time>
      </trkpt>
      <trkpt lat="38.77447833" lon="-9.09148333">
        <ele>15.0</ele>
        <time>2019-05-16T09:15:22.932Z</time>
      </trkpt>
      <trkpt lat="38.77447833" lon="-9.09148333">
        <ele>15.0</ele>
        <time>2019-05-16T09:15:23.927Z</time>
      </trkpt>
      <trkpt lat="38.77447833" lon="-9.09148333">
        <ele>15.0</ele>
        <time>2019-05-16T09:15:24.912Z</time>
      </trkpt>
      <trkpt lat="38.77447833" lon="-9.09148333">
        <ele>15.0</ele>
        <time>2019-05-16T09:15:25.935Z</time>
      </trkpt>
      <trkpt lat="38.77447833" lon="-9.09148333">
        <ele>15.0</ele>
        <time>2019-05-16T09:15:26.930Z</time>
      </trkpt>
      <trkpt lat="38.77447833" lon="-9.09148333">
        <ele>15.0</ele>
        <time>2019-05-16T09:15:27.930Z</time>
      </trkpt>
      <trkpt lat="38.77447833" lon="-9.09148333">
        <ele>15.0</ele>
        <time>2019-05-16T09:15:28.910Z</time>
      </trkpt>
      <trkpt lat="38.77447833" lon="-9.09148333">
        <ele>15.0</ele>
        <time>2019-05-16T09:15:29.933Z</time>
      </trkpt>
      <trkpt lat="38.77447833" lon="-9.09148333">
        <ele>15.0</ele>
        <time>2019-05-16T09:15:30.934Z</time>
      </trkpt>
      <trkpt lat="38.77447833" lon="-9.09148333">
        <ele>15.0</ele>
        <time>2019-05-16T09:15:31.925Z</time>
      </trkpt>
      <trkpt lat="38.77447833" lon="-9.09148333">
        <ele>15.0</ele>
        <time>2019-05-16T09:15:32.931Z</time>
      </trkpt>
      <trkpt lat="38.77447833" lon="-9.09148333">
        <ele>15.0</ele>
        <time>2019-05-16T09:15:33.928Z</time>
      </trkpt>
      <trkpt lat="38.77447833" lon="-9.09148333">
        <ele>15.0</ele>
        <time>2019-05-16T09:15:34.931Z</time>
      </trkpt>
      <trkpt lat="38.77447833" lon="-9.09148333">
        <ele>15.0</ele>
        <time>2019-05-16T09:15:35.925Z</time>
      </trkpt>
      <trkpt lat="38.77447833" lon="-9.09148333">
        <ele>15.0</ele>
        <time>2019-05-16T09:15:36.908Z</time>
      </trkpt>
      <trkpt lat="38.77447833" lon="-9.09148333">
        <ele>15.0</ele>
        <time>2019-05-16T09:15:37.933Z</time>
      </trkpt>
      <trkpt lat="38.77447833" lon="-9.09148333">
        <ele>15.0</ele>
        <time>2019-05-16T09:15:38.910Z</time>
      </trkpt>
      <trkpt lat="38.77447833" lon="-9.09148333">
        <ele>15.0</ele>
        <time>2019-05-16T09:15:39.900Z</time>
      </trkpt>
      <trkpt lat="38.77447833" lon="-9.09148333">
        <ele>15.0</ele>
        <time>2019-05-16T09:15:40.930Z</time>
      </trkpt>
      <trkpt lat="38.77447833" lon="-9.09148333">
        <ele>15.0</ele>
        <time>2019-05-16T09:15:41.925Z</time>
      </trkpt>
      <trkpt lat="38.77447833" lon="-9.09148333">
        <ele>15.0</ele>
        <time>2019-05-16T09:15:42.907Z</time>
      </trkpt>
      <trkpt lat="38.77447833" lon="-9.09148333">
        <ele>15.0</ele>
        <time>2019-05-16T09:15:43.929Z</time>
      </trkpt>
      <trkpt lat="38.77447833" lon="-9.09148333">
        <ele>15.0</ele>
        <time>2019-05-16T09:15:44.930Z</time>
      </trkpt>
      <trkpt lat="38.77447833" lon="-9.09148333">
        <ele>15.0</ele>
        <time>2019-05-16T09:15:45.925Z</time>
      </trkpt>
      <trkpt lat="38.77447833" lon="-9.09148333">
        <ele>15.0</ele>
        <time>2019-05-16T09:15:46.930Z</time>
      </trkpt>
      <trkpt lat="38.77447833" lon="-9.09148333">
        <ele>15.0</ele>
        <time>2019-05-16T09:15:47.936Z</time>
      </trkpt>
      <trkpt lat="38.77447833" lon="-9.09148333">
        <ele>15.0</ele>
        <time>2019-05-16T09:15:48.930Z</time>
      </trkpt>
      <trkpt lat="38.77447833" lon="-9.09148333">
        <ele>15.0</ele>
        <time>2019-05-16T09:15:49.928Z</time>
      </trkpt>
      <trkpt lat="38.77447833" lon="-9.09148333">
        <ele>15.0</ele>
        <time>2019-05-16T09:15:50.930Z</time>
      </trkpt>
      <trkpt lat="38.77447833" lon="-9.09148333">
        <ele>15.0</ele>
        <time>2019-05-16T09:15:51.925Z</time>
      </trkpt>
      <trkpt lat="38.77447833" lon="-9.09148333">
        <ele>15.0</ele>
        <time>2019-05-16T09:15:52.930Z</time>
      </trkpt>
      <trkpt lat="38.77447833" lon="-9.09148333">
        <ele>15.0</ele>
        <time>2019-05-16T09:15:53.925Z</time>
      </trkpt>
      <trkpt lat="38.77447833" lon="-9.09148333">
        <ele>15.0</ele>
        <time>2019-05-16T09:15:54.907Z</time>
      </trkpt>
      <trkpt lat="38.77447833" lon="-9.09148333">
        <ele>15.0</ele>
        <time>2019-05-16T09:15:55.929Z</time>
      </trkpt>
      <trkpt lat="38.77447833" lon="-9.09148333">
        <ele>15.0</ele>
        <time>2019-05-16T09:15:56.927Z</time>
      </trkpt>
      <trkpt lat="38.77447833" lon="-9.09148333">
        <ele>15.0</ele>
        <time>2019-05-16T09:15:57.932Z</time>
      </trkpt>
      <trkpt lat="38.77447833" lon="-9.09148333">
        <ele>15.0</ele>
        <time>2019-05-16T09:15:58.910Z</time>
      </trkpt>
      <trkpt lat="38.77447833" lon="-9.09148333">
        <ele>15.0</ele>
        <time>2019-05-16T09:15:59.932Z</time>
      </trkpt>
      <trkpt lat="38.77447833" lon="-9.09148333">
        <ele>15.0</ele>
        <time>2019-05-16T09:16:00.932Z</time>
      </trkpt>
      <trkpt lat="38.77447833" lon="-9.09148333">
        <ele>15.0</ele>
        <time>2019-05-16T09:16:01.925Z</time>
      </trkpt>
      <trkpt lat="38.77447833" lon="-9.09148333">
        <ele>15.0</ele>
        <time>2019-05-16T09:16:02.898Z</time>
      </trkpt>
      <trkpt lat="38.77447833" lon="-9.09148333">
        <ele>15.0</ele>
        <time>2019-05-16T09:16:03.930Z</time>
      </trkpt>
      <trkpt lat="38.77447833" lon="-9.09148333">
        <ele>15.0</ele>
        <time>2019-05-16T09:16:04.930Z</time>
      </trkpt>
      <trkpt lat="38.77447833" lon="-9.09148333">
        <ele>15.0</ele>
        <time>2019-05-16T09:16:05.925Z</time>
      </trkpt>
      <trkpt lat="38.77447833" lon="-9.09148333">
        <ele>15.0</ele>
        <time>2019-05-16T09:16:06.908Z</time>
      </trkpt>
      <trkpt lat="38.77447833" lon="-9.09148333">
        <ele>15.0</ele>
        <time>2019-05-16T09:16:07.931Z</time>
      </trkpt>
      <trkpt lat="38.77447833" lon="-9.09148333">
        <ele>15.0</ele>
        <time>2019-05-16T09:16:08.909Z</time>
      </trkpt>
      <trkpt lat="38.77447833" lon="-9.09148333">
        <ele>15.0</ele>
        <time>2019-05-16T09:16:09.932Z</time>
      </trkpt>
      <trkpt lat="38.77447833" lon="-9.09148333">
        <ele>15.0</ele>
        <time>2019-05-16T09:16:10.926Z</time>
      </trkpt>
      <trkpt lat="38.77447833" lon="-9.09148333">
        <ele>15.0</ele>
        <time>2019-05-16T09:16:11.932Z</time>
      </trkpt>
      <trkpt lat="38.77447833" lon="-9.09148333">
        <ele>15.0</ele>
        <time>2019-05-16T09:16:12.932Z</time>
      </trkpt>
      <trkpt lat="38.77447833" lon="-9.09148333">
        <ele>15.0</ele>
        <time>2019-05-16T09:16:13.929Z</time>
      </trkpt>
      <trkpt lat="38.77447833" lon="-9.09148333">
        <ele>15.0</ele>
        <time>2019-05-16T09:16:14.930Z</time>
      </trkpt>
      <trkpt lat="38.77447833" lon="-9.09148333">
        <ele>15.0</ele>
        <time>2019-05-16T09:16:15.925Z</time>
      </trkpt>
      <trkpt lat="38.77447833" lon="-9.09148333">
        <ele>15.0</ele>
        <time>2019-05-16T09:16:16.930Z</time>
      </trkpt>
      <trkpt lat="38.77447833" lon="-9.09148333">
        <ele>15.0</ele>
        <time>2019-05-16T09:16:17.930Z</time>
      </trkpt>
      <trkpt lat="38.77447833" lon="-9.09148333">
        <ele>15.0</ele>
        <time>2019-05-16T09:16:18.906Z</time>
      </trkpt>
      <trkpt lat="38.77447833" lon="-9.09148333">
        <ele>15.0</ele>
        <time>2019-05-16T09:16:19.929Z</time>
      </trkpt>
      <trkpt lat="38.77447833" lon="-9.09148333">
        <ele>15.0</ele>
        <time>2019-05-16T09:16:20.901Z</time>
      </trkpt>
      <trkpt lat="38.77447833" lon="-9.09148333">
        <ele>15.0</ele>
        <time>2019-05-16T09:16:21.929Z</time>
      </trkpt>
      <trkpt lat="38.77447833" lon="-9.09148333">
        <ele>15.0</ele>
        <time>2019-05-16T09:16:22.930Z</time>
      </trkpt>
      <trkpt lat="38.77447833" lon="-9.09148333">
        <ele>15.0</ele>
        <time>2019-05-16T09:16:23.930Z</time>
      </trkpt>
      <trkpt lat="38.77447833" lon="-9.09148333">
        <ele>15.0</ele>
        <time>2019-05-16T09:16:24.934Z</time>
      </trkpt>
      <trkpt lat="38.77447833" lon="-9.09148333">
        <ele>15.0</ele>
        <time>2019-05-16T09:16:25.926Z</time>
      </trkpt>
      <trkpt lat="38.77447833" lon="-9.09148333">
        <ele>15.0</ele>
        <time>2019-05-16T09:16:26.931Z</time>
      </trkpt>
      <trkpt lat="38.77447833" lon="-9.09148333">
        <ele>15.0</ele>
        <time>2019-05-16T09:16:27.930Z</time>
      </trkpt>
      <trkpt lat="38.77447833" lon="-9.09148333">
        <ele>15.0</ele>
        <time>2019-05-16T09:16:28.908Z</time>
      </trkpt>
      <trkpt lat="38.77447833" lon="-9.09148333">
        <ele>15.0</ele>
        <time>2019-05-16T09:16:29.931Z</time>
      </trkpt>
      <trkpt lat="38.77447833" lon="-9.09148333">
        <ele>15.0</ele>
        <time>2019-05-16T09:16:30.929Z</time>
      </trkpt>
      <trkpt lat="38.77447833" lon="-9.09148333">
        <ele>15.0</ele>
        <time>2019-05-16T09:16:31.898Z</time>
      </trkpt>
      <trkpt lat="38.77447833" lon="-9.09148333">
        <ele>15.0</ele>
        <time>2019-05-16T09:16:32.926Z</time>
      </trkpt>
      <trkpt lat="38.77447833" lon="-9.09148333">
        <ele>15.0</ele>
        <time>2019-05-16T09:16:33.931Z</time>
      </trkpt>
      <trkpt lat="38.77447833" lon="-9.09148333">
        <ele>15.0</ele>
        <time>2019-05-16T09:16:34.925Z</time>
      </trkpt>
      <trkpt lat="38.77447833" lon="-9.09148333">
        <ele>15.0</ele>
        <time>2019-05-16T09:16:35.930Z</time>
      </trkpt>
      <trkpt lat="38.77447833" lon="-9.09148333">
        <ele>15.0</ele>
        <time>2019-05-16T09:16:36.934Z</time>
      </trkpt>
      <trkpt lat="38.77447833" lon="-9.09148333">
        <ele>15.0</ele>
        <time>2019-05-16T09:16:37.930Z</time>
      </trkpt>
      <trkpt lat="38.77447833" lon="-9.09148333">
        <ele>15.0</ele>
        <time>2019-05-16T09:16:38.908Z</time>
      </trkpt>
      <trkpt lat="38.77447833" lon="-9.09148333">
        <ele>15.0</ele>
        <time>2019-05-16T09:16:39.930Z</time>
      </trkpt>
      <trkpt lat="38.77447833" lon="-9.09148333">
        <ele>15.0</ele>
        <time>2019-05-16T09:16:40.930Z</time>
      </trkpt>
      <trkpt lat="38.77447833" lon="-9.09148333">
        <ele>15.0</ele>
        <time>2019-05-16T09:16:41.925Z</time>
      </trkpt>
      <trkpt lat="38.77447833" lon="-9.09148333">
        <ele>15.0</ele>
        <time>2019-05-16T09:16:42.932Z</time>
      </trkpt>
      <trkpt lat="38.77447833" lon="-9.09148333">
        <ele>15.0</ele>
        <time>2019-05-16T09:16:43.925Z</time>
      </trkpt>
      <trkpt lat="38.77447833" lon="-9.09148333">
        <ele>15.0</ele>
        <time>2019-05-16T09:16:44.909Z</time>
      </trkpt>
      <trkpt lat="38.77447833" lon="-9.09148333">
        <ele>15.0</ele>
        <time>2019-05-16T09:16:45.931Z</time>
      </trkpt>
      <trkpt lat="38.77447833" lon="-9.09148333">
        <ele>15.0</ele>
        <time>2019-05-16T09:16:46.928Z</time>
      </trkpt>
      <trkpt lat="38.77447833" lon="-9.09148333">
        <ele>15.0</ele>
        <time>2019-05-16T09:16:47.930Z</time>
      </trkpt>
      <trkpt lat="38.77447833" lon="-9.09148333">
        <ele>15.0</ele>
        <time>2019-05-16T09:16:48.912Z</time>
      </trkpt>
      <trkpt lat="38.77447833" lon="-9.09148333">
        <ele>15.0</ele>
        <time>2019-05-16T09:16:49.901Z</time>
      </trkpt>
      <trkpt lat="38.77447833" lon="-9.09148333">
        <ele>15.0</ele>
        <time>2019-05-16T09:16:50.930Z</time>
      </trkpt>
      <trkpt lat="38.77447833" lon="-9.09148333">
        <ele>15.0</ele>
        <time>2019-05-16T09:16:51.925Z</time>
      </trkpt>
      <trkpt lat="38.77447833" lon="-9.09148333">
        <ele>15.0</ele>
        <time>2019-05-16T09:16:52.930Z</time>
      </trkpt>
      <trkpt lat="38.77447833" lon="-9.09148333">
        <ele>15.0</ele>
        <time>2019-05-16T09:16:53.928Z</time>
      </trkpt>
      <trkpt lat="38.77447833" lon="-9.09148333">
        <ele>15.0</ele>
        <time>2019-05-16T09:16:54.934Z</time>
      </trkpt>
      <trkpt lat="38.77447833" lon="-9.09148333">
        <ele>15.0</ele>
        <time>2019-05-16T09:16:55.926Z</time>
      </trkpt>
      <trkpt lat="38.77447833" lon="-9.09148333">
        <ele>15.0</ele>
        <time>2019-05-16T09:16:56.930Z</time>
      </trkpt>
      <trkpt lat="38.77447833" lon="-9.09148333">
        <ele>15.0</ele>
        <time>2019-05-16T09:16:57.930Z</time>
      </trkpt>
      <trkpt lat="38.77447833" lon="-9.09148333">
        <ele>15.0</ele>
        <time>2019-05-16T09:16:58.930Z</time>
      </trkpt>
      <trkpt lat="38.77447833" lon="-9.09148333">
        <ele>15.0</ele>
        <time>2019-05-16T09:16:59.934Z</time>
      </trkpt>
      <trkpt lat="38.77447833" lon="-9.09148333">
        <ele>15.0</ele>
        <time>2019-05-16T09:17:00.934Z</time>
      </trkpt>
      <trkpt lat="38.77447833" lon="-9.09148333">
        <ele>15.0</ele>
        <time>2019-05-16T09:17:01.912Z</time>
      </trkpt>
      <trkpt lat="38.77447833" lon="-9.09148333">
        <ele>15.0</ele>
        <time>2019-05-16T09:17:02.898Z</time>
      </trkpt>
      <trkpt lat="38.77447833" lon="-9.09148333">
        <ele>15.0</ele>
        <time>2019-05-16T09:17:03.910Z</time>
      </trkpt>
      <trkpt lat="38.77447833" lon="-9.09148333">
        <ele>15.0</ele>
        <time>2019-05-16T09:17:04.928Z</time>
      </trkpt>
      <trkpt lat="38.77447833" lon="-9.09148333">
        <ele>15.0</ele>
        <time>2019-05-16T09:17:05.930Z</time>
      </trkpt>
      <trkpt lat="38.77447833" lon="-9.09148333">
        <ele>15.0</ele>
        <time>2019-05-16T09:17:06.934Z</time>
      </trkpt>
      <trkpt lat="38.77447833" lon="-9.09148333">
        <ele>15.0</ele>
        <time>2019-05-16T09:17:07.930Z</time>
      </trkpt>
      <trkpt lat="38.77447833" lon="-9.09148333">
        <ele>15.0</ele>
        <time>2019-05-16T09:17:08.934Z</time>
      </trkpt>
      <trkpt lat="38.77447833" lon="-9.09148333">
        <ele>15.0</ele>
        <time>2019-05-16T09:17:09.929Z</time>
      </trkpt>
      <trkpt lat="38.77447833" lon="-9.09148333">
        <ele>15.0</ele>
        <time>2019-05-16T09:17:10.930Z</time>
      </trkpt>
      <trkpt lat="38.77447833" lon="-9.09148333">
        <ele>15.0</ele>
        <time>2019-05-16T09:17:11.926Z</time>
      </trkpt>
      <trkpt lat="38.77447833" lon="-9.09148333">
        <ele>15.0</ele>
        <time>2019-05-16T09:17:12.933Z</time>
      </trkpt>
      <trkpt lat="38.77447833" lon="-9.09148333">
        <ele>15.0</ele>
        <time>2019-05-16T09:17:13.925Z</time>
      </trkpt>
      <trkpt lat="38.77447833" lon="-9.09148333">
        <ele>15.0</ele>
        <time>2019-05-16T09:17:14.910Z</time>
      </trkpt>
      <trkpt lat="38.77447833" lon="-9.09148333">
        <ele>15.0</ele>
        <time>2019-05-16T09:17:15.933Z</time>
      </trkpt>
      <trkpt lat="38.77447833" lon="-9.09148333">
        <ele>15.0</ele>
        <time>2019-05-16T09:17:16.931Z</time>
      </trkpt>
      <trkpt lat="38.77447833" lon="-9.09148333">
        <ele>15.0</ele>
        <time>2019-05-16T09:17:17.932Z</time>
      </trkpt>
      <trkpt lat="38.77447833" lon="-9.09148333">
        <ele>15.0</ele>
        <time>2019-05-16T09:17:18.908Z</time>
      </trkpt>
      <trkpt lat="38.77447833" lon="-9.09148333">
        <ele>15.0</ele>
        <time>2019-05-16T09:17:19.931Z</time>
      </trkpt>
      <trkpt lat="38.77447833" lon="-9.09148333">
        <ele>15.0</ele>
        <time>2019-05-16T09:17:20.897Z</time>
      </trkpt>
      <trkpt lat="38.77447833" lon="-9.09148333">
        <ele>15.0</ele>
        <time>2019-05-16T09:17:21.928Z</time>
      </trkpt>
      <trkpt lat="38.77447833" lon="-9.09148333">
        <ele>15.0</ele>
        <time>2019-05-16T09:17:22.932Z</time>
      </trkpt>
      <trkpt lat="38.77447833" lon="-9.09148333">
        <ele>15.0</ele>
        <time>2019-05-16T09:17:23.927Z</time>
      </trkpt>
      <trkpt lat="38.77447833" lon="-9.09148333">
        <ele>15.0</ele>
        <time>2019-05-16T09:17:24.934Z</time>
      </trkpt>
      <trkpt lat="38.77447833" lon="-9.09148333">
        <ele>15.0</ele>
        <time>2019-05-16T09:17:25.927Z</time>
      </trkpt>
      <trkpt lat="38.77447833" lon="-9.09148333">
        <ele>15.0</ele>
        <time>2019-05-16T09:17:26.932Z</time>
      </trkpt>
      <trkpt lat="38.77447833" lon="-9.09148333">
        <ele>15.0</ele>
        <time>2019-05-16T09:17:27.930Z</time>
      </trkpt>
      <trkpt lat="38.77447833" lon="-9.09148333">
        <ele>15.0</ele>
        <time>2019-05-16T09:17:28.932Z</time>
      </trkpt>
      <trkpt lat="38.77447833" lon="-9.09148333">
        <ele>15.0</ele>
        <time>2019-05-16T09:17:29.927Z</time>
      </trkpt>
      <trkpt lat="38.77447833" lon="-9.09148333">
        <ele>15.0</ele>
        <time>2019-05-16T09:17:30.934Z</time>
      </trkpt>
      <trkpt lat="38.77447833" lon="-9.09148333">
        <ele>15.0</ele>
        <time>2019-05-16T09:17:31.926Z</time>
      </trkpt>
      <trkpt lat="38.77447833" lon="-9.09148333">
        <ele>15.0</ele>
        <time>2019-05-16T09:17:32.932Z</time>
      </trkpt>
      <trkpt lat="38.77447833" lon="-9.09148333">
        <ele>15.0</ele>
        <time>2019-05-16T09:17:33.926Z</time>
      </trkpt>
      <trkpt lat="38.77447833" lon="-9.09148333">
        <ele>15.0</ele>
        <time>2019-05-16T09:17:34.910Z</time>
      </trkpt>
      <trkpt lat="38.77447833" lon="-9.09148333">
        <ele>15.0</ele>
        <time>2019-05-16T09:17:35.932Z</time>
      </trkpt>
      <trkpt lat="38.77447833" lon="-9.09148333">
        <ele>15.0</ele>
        <time>2019-05-16T09:17:36.935Z</time>
      </trkpt>
      <trkpt lat="38.77447833" lon="-9.09148333">
        <ele>15.0</ele>
        <time>2019-05-16T09:17:37.930Z</time>
      </trkpt>
      <trkpt lat="38.77447833" lon="-9.09148333">
        <ele>15.0</ele>
        <time>2019-05-16T09:17:38.932Z</time>
      </trkpt>
      <trkpt lat="38.77447833" lon="-9.09148333">
        <ele>15.0</ele>
        <time>2019-05-16T09:17:39.930Z</time>
      </trkpt>
      <trkpt lat="38.77447833" lon="-9.09148333">
        <ele>15.0</ele>
        <time>2019-05-16T09:17:40.932Z</time>
      </trkpt>
      <trkpt lat="38.77447833" lon="-9.09148333">
        <ele>15.0</ele>
        <time>2019-05-16T09:17:41.926Z</time>
      </trkpt>
      <trkpt lat="38.77447833" lon="-9.09148333">
        <ele>15.0</ele>
        <time>2019-05-16T09:17:42.934Z</time>
      </trkpt>
      <trkpt lat="38.77447833" lon="-9.09148333">
        <ele>15.0</ele>
        <time>2019-05-16T09:17:43.930Z</time>
      </trkpt>
      <trkpt lat="38.77447833" lon="-9.09148333">
        <ele>15.0</ele>
        <time>2019-05-16T09:17:44.931Z</time>
      </trkpt>
      <trkpt lat="38.77447833" lon="-9.09148333">
        <ele>15.0</ele>
        <time>2019-05-16T09:17:45.927Z</time>
      </trkpt>
      <trkpt lat="38.77447833" lon="-9.09148333">
        <ele>15.0</ele>
        <time>2019-05-16T09:17:46.931Z</time>
      </trkpt>
      <trkpt lat="38.77447833" lon="-9.09148333">
        <ele>15.0</ele>
        <time>2019-05-16T09:17:47.930Z</time>
      </trkpt>
      <trkpt lat="38.77447833" lon="-9.09148333">
        <ele>15.0</ele>
        <time>2019-05-16T09:17:48.906Z</time>
      </trkpt>
      <trkpt lat="38.77447833" lon="-9.09148333">
        <ele>15.0</ele>
        <time>2019-05-16T09:17:49.929Z</time>
      </trkpt>
      <trkpt lat="38.77447833" lon="-9.09148333">
        <ele>15.0</ele>
        <time>2019-05-16T09:17:50.928Z</time>
      </trkpt>
      <trkpt lat="38.77447833" lon="-9.09148333">
        <ele>15.0</ele>
        <time>2019-05-16T09:17:51.925Z</time>
      </trkpt>
      <trkpt lat="38.77447833" lon="-9.09148333">
        <ele>15.0</ele>
        <time>2019-05-16T09:17:52.930Z</time>
      </trkpt>
      <trkpt lat="38.77447833" lon="-9.09148333">
        <ele>15.0</ele>
        <time>2019-05-16T09:17:53.925Z</time>
      </trkpt>
      <trkpt lat="38.77447833" lon="-9.09148333">
        <ele>15.0</ele>
        <time>2019-05-16T09:17:54.912Z</time>
      </trkpt>
      <trkpt lat="38.77447833" lon="-9.09148333">
        <ele>15.0</ele>
        <time>2019-05-16T09:17:55.934Z</time>
      </trkpt>
      <trkpt lat="38.77447833" lon="-9.09148333">
        <ele>15.0</ele>
        <time>2019-05-16T09:17:56.930Z</time>
      </trkpt>
      <trkpt lat="38.77447833" lon="-9.09148333">
        <ele>15.0</ele>
        <time>2019-05-16T09:17:57.930Z</time>
      </trkpt>
      <trkpt lat="38.77447833" lon="-9.09148333">
        <ele>15.0</ele>
        <time>2019-05-16T09:17:58.935Z</time>
      </trkpt>
      <trkpt lat="38.77447833" lon="-9.09148333">
        <ele>15.0</ele>
        <time>2019-05-16T09:17:59.925Z</time>
      </trkpt>
      <trkpt lat="38.77447833" lon="-9.09148333">
        <ele>15.0</ele>
        <time>2019-05-16T09:18:00.932Z</time>
      </trkpt>
      <trkpt lat="38.77447833" lon="-9.09148333">
        <ele>15.0</ele>
        <time>2019-05-16T09:18:01.925Z</time>
      </trkpt>
      <trkpt lat="38.77447833" lon="-9.09148333">
        <ele>15.0</ele>
        <time>2019-05-16T09:18:02.900Z</time>
      </trkpt>
      <trkpt lat="38.77447833" lon="-9.09148333">
        <ele>15.0</ele>
        <time>2019-05-16T09:18:03.925Z</time>
      </trkpt>
      <trkpt lat="38.77447833" lon="-9.09148333">
        <ele>15.0</ele>
        <time>2019-05-16T09:18:04.930Z</time>
      </trkpt>
      <trkpt lat="38.77447833" lon="-9.09148333">
        <ele>15.0</ele>
        <time>2019-05-16T09:18:05.925Z</time>
      </trkpt>
      <trkpt lat="38.77447833" lon="-9.09148333">
        <ele>15.0</ele>
        <time>2019-05-16T09:18:06.932Z</time>
      </trkpt>
      <trkpt lat="38.77447833" lon="-9.09148333">
        <ele>15.0</ele>
        <time>2019-05-16T09:18:07.932Z</time>
      </trkpt>
      <trkpt lat="38.77447833" lon="-9.09148333">
        <ele>15.0</ele>
        <time>2019-05-16T09:18:08.910Z</time>
      </trkpt>
      <trkpt lat="38.77447833" lon="-9.09148333">
        <ele>15.0</ele>
        <time>2019-05-16T09:18:09.903Z</time>
      </trkpt>
      <trkpt lat="38.77447833" lon="-9.09148333">
        <ele>15.0</ele>
        <time>2019-05-16T09:18:10.931Z</time>
      </trkpt>
      <trkpt lat="38.77447833" lon="-9.09148333">
        <ele>15.0</ele>
        <time>2019-05-16T09:18:11.926Z</time>
      </trkpt>
      <trkpt lat="38.77447833" lon="-9.09148333">
        <ele>15.0</ele>
        <time>2019-05-16T09:18:12.934Z</time>
      </trkpt>
      <trkpt lat="38.77447833" lon="-9.09148333">
        <ele>15.0</ele>
        <time>2019-05-16T09:18:13.929Z</time>
      </trkpt>
      <trkpt lat="38.77447833" lon="-9.09148333">
        <ele>15.0</ele>
        <time>2019-05-16T09:18:14.931Z</time>
      </trkpt>
      <trkpt lat="38.77447833" lon="-9.09148333">
        <ele>15.0</ele>
        <time>2019-05-16T09:18:15.925Z</time>
      </trkpt>
      <trkpt lat="38.77447833" lon="-9.09148333">
        <ele>15.0</ele>
        <time>2019-05-16T09:18:16.930Z</time>
      </trkpt>
      <trkpt lat="38.77447833" lon="-9.09148333">
        <ele>15.0</ele>
        <time>2019-05-16T09:18:17.901Z</time>
      </trkpt>
      <trkpt lat="38.77447833" lon="-9.09148333">
        <ele>15.0</ele>
        <time>2019-05-16T09:18:18.932Z</time>
      </trkpt>
      <trkpt lat="38.77447833" lon="-9.09148333">
        <ele>15.0</ele>
        <time>2019-05-16T09:18:19.925Z</time>
      </trkpt>
      <trkpt lat="38.77447833" lon="-9.09148333">
        <ele>15.0</ele>
        <time>2019-05-16T09:18:20.931Z</time>
      </trkpt>
      <trkpt lat="38.77447833" lon="-9.09148333">
        <ele>15.0</ele>
        <time>2019-05-16T09:18:21.926Z</time>
      </trkpt>
      <trkpt lat="38.77447833" lon="-9.09148333">
        <ele>15.0</ele>
        <time>2019-05-16T09:18:22.928Z</time>
      </trkpt>
      <trkpt lat="38.77447833" lon="-9.09148333">
        <ele>15.0</ele>
        <time>2019-05-16T09:18:23.925Z</time>
      </trkpt>
      <trkpt lat="38.77447833" lon="-9.09148333">
        <ele>15.0</ele>
        <time>2019-05-16T09:18:24.908Z</time>
      </trkpt>
      <trkpt lat="38.77447833" lon="-9.09148333">
        <ele>15.0</ele>
        <time>2019-05-16T09:18:25.931Z</time>
      </trkpt>
      <trkpt lat="38.77447833" lon="-9.09148333">
        <ele>15.0</ele>
        <time>2019-05-16T09:18:26.926Z</time>
      </trkpt>
      <trkpt lat="38.77447833" lon="-9.09148333">
        <ele>15.0</ele>
        <time>2019-05-16T09:18:27.934Z</time>
      </trkpt>
      <trkpt lat="38.77447833" lon="-9.09148333">
        <ele>15.0</ele>
        <time>2019-05-16T09:18:28.926Z</time>
      </trkpt>
      <trkpt lat="38.77447833" lon="-9.09148333">
        <ele>15.0</ele>
        <time>2019-05-16T09:18:29.910Z</time>
      </trkpt>
      <trkpt lat="38.77447833" lon="-9.09148333">
        <ele>15.0</ele>
        <time>2019-05-16T09:18:30.934Z</time>
      </trkpt>
      <trkpt lat="38.77447833" lon="-9.09148333">
        <ele>15.0</ele>
        <time>2019-05-16T09:18:31.926Z</time>
      </trkpt>
      <trkpt lat="38.77447833" lon="-9.09148333">
        <ele>15.0</ele>
        <time>2019-05-16T09:18:32.931Z</time>
      </trkpt>
      <trkpt lat="38.77447833" lon="-9.09148333">
        <ele>15.0</ele>
        <time>2019-05-16T09:18:33.926Z</time>
      </trkpt>
      <trkpt lat="38.77447833" lon="-9.09148333">
        <ele>15.0</ele>
        <time>2019-05-16T09:18:34.910Z</time>
      </trkpt>
      <trkpt lat="38.77447833" lon="-9.09148333">
        <ele>15.0</ele>
        <time>2019-05-16T09:18:35.934Z</time>
      </trkpt>
      <trkpt lat="38.77447833" lon="-9.09148333">
        <ele>15.0</ele>
        <time>2019-05-16T09:18:36.932Z</time>
      </trkpt>
      <trkpt lat="38.77447833" lon="-9.09148333">
        <ele>15.0</ele>
        <time>2019-05-16T09:18:37.930Z</time>
      </trkpt>
      <trkpt lat="38.77447833" lon="-9.09148333">
        <ele>15.0</ele>
        <time>2019-05-16T09:18:38.909Z</time>
      </trkpt>
      <trkpt lat="38.77447833" lon="-9.09148333">
        <ele>15.0</ele>
        <time>2019-05-16T09:18:39.910Z</time>
      </trkpt>
      <trkpt lat="38.77447833" lon="-9.09148333">
        <ele>15.0</ele>
        <time>2019-05-16T09:18:40.927Z</time>
      </trkpt>
      <trkpt lat="38.77447833" lon="-9.09148333">
        <ele>15.0</ele>
        <time>2019-05-16T09:18:41.925Z</time>
      </trkpt>
      <trkpt lat="38.77447833" lon="-9.09148333">
        <ele>15.0</ele>
        <time>2019-05-16T09:18:42.908Z</time>
      </trkpt>
      <trkpt lat="38.77447833" lon="-9.09148333">
        <ele>15.0</ele>
        <time>2019-05-16T09:18:43.930Z</time>
      </trkpt>
      <trkpt lat="38.77447833" lon="-9.09148333">
        <ele>15.0</ele>
        <time>2019-05-16T09:18:44.930Z</time>
      </trkpt>
      <trkpt lat="38.77447833" lon="-9.09148333">
        <ele>15.0</ele>
        <time>2019-05-16T09:18:45.925Z</time>
      </trkpt>
      <trkpt lat="38.77447833" lon="-9.09148333">
        <ele>15.0</ele>
        <time>2019-05-16T09:18:46.932Z</time>
      </trkpt>
      <trkpt lat="38.77447833" lon="-9.09148333">
        <ele>15.0</ele>
        <time>2019-05-16T09:18:47.930Z</time>
      </trkpt>
      <trkpt lat="38.77447833" lon="-9.09148333">
        <ele>15.0</ele>
        <time>2019-05-16T09:18:48.932Z</time>
      </trkpt>
      <trkpt lat="38.77447833" lon="-9.09148333">
        <ele>15.0</ele>
        <time>2019-05-16T09:18:49.926Z</time>
      </trkpt>
      <trkpt lat="38.77447833" lon="-9.09148333">
        <ele>15.0</ele>
        <time>2019-05-16T09:18:50.910Z</time>
      </trkpt>
      <trkpt lat="38.77447833" lon="-9.09148333">
        <ele>15.0</ele>
        <time>2019-05-16T09:18:51.933Z</time>
      </trkpt>
      <trkpt lat="38.77447833" lon="-9.09148333">
        <ele>15.0</ele>
        <time>2019-05-16T09:18:52.930Z</time>
      </trkpt>
      <trkpt lat="38.77447833" lon="-9.09148333">
        <ele>15.0</ele>
        <time>2019-05-16T09:18:53.925Z</time>
      </trkpt>
      <trkpt lat="38.77447833" lon="-9.09148333">
        <ele>15.0</ele>
        <time>2019-05-16T09:18:54.907Z</time>
      </trkpt>
      <trkpt lat="38.77447833" lon="-9.09148333">
        <ele>15.0</ele>
        <time>2019-05-16T09:18:55.930Z</time>
      </trkpt>
      <trkpt lat="38.77447833" lon="-9.09148333">
        <ele>15.0</ele>
        <time>2019-05-16T09:18:56.930Z</time>
      </trkpt>
      <trkpt lat="38.77447833" lon="-9.09148333">
        <ele>15.0</ele>
        <time>2019-05-16T09:18:57.930Z</time>
      </trkpt>
      <trkpt lat="38.77447833" lon="-9.09148333">
        <ele>15.0</ele>
        <time>2019-05-16T09:18:58.906Z</time>
      </trkpt>
      <trkpt lat="38.77447833" lon="-9.09148333">
        <ele>15.0</ele>
        <time>2019-05-16T09:18:59.931Z</time>
      </trkpt>
      <trkpt lat="38.77447833" lon="-9.09148333">
        <ele>15.0</ele>
        <time>2019-05-16T09:19:00.932Z</time>
      </trkpt>
      <trkpt lat="38.77447833" lon="-9.09148333">
        <ele>15.0</ele>
        <time>2019-05-16T09:19:01.930Z</time>
      </trkpt>
      <trkpt lat="38.77447833" lon="-9.09148333">
        <ele>15.0</ele>
        <time>2019-05-16T09:19:02.926Z</time>
      </trkpt>
      <trkpt lat="38.77447833" lon="-9.09148333">
        <ele>15.0</ele>
        <time>2019-05-16T09:19:03.930Z</time>
      </trkpt>
      <trkpt lat="38.77447833" lon="-9.09148333">
        <ele>15.0</ele>
        <time>2019-05-16T09:19:04.929Z</time>
      </trkpt>
      <trkpt lat="38.77447833" lon="-9.09148333">
        <ele>15.0</ele>
        <time>2019-05-16T09:19:05.930Z</time>
      </trkpt>
      <trkpt lat="38.77447833" lon="-9.09148333">
        <ele>15.0</ele>
        <time>2019-05-16T09:19:06.934Z</time>
      </trkpt>
      <trkpt lat="38.77447833" lon="-9.09148333">
        <ele>15.0</ele>
        <time>2019-05-16T09:19:07.931Z</time>
      </trkpt>
      <trkpt lat="38.77447833" lon="-9.09148333">
        <ele>15.0</ele>
        <time>2019-05-16T09:19:08.911Z</time>
      </trkpt>
      <trkpt lat="38.77447833" lon="-9.09148333">
        <ele>15.0</ele>
        <time>2019-05-16T09:19:09.926Z</time>
      </trkpt>
      <trkpt lat="38.77447833" lon="-9.09148333">
        <ele>15.0</ele>
        <time>2019-05-16T09:19:10.909Z</time>
      </trkpt>
      <trkpt lat="38.77447833" lon="-9.09148333">
        <ele>15.0</ele>
        <time>2019-05-16T09:19:11.932Z</time>
      </trkpt>
      <trkpt lat="38.77447833" lon="-9.09148333">
        <ele>15.0</ele>
        <time>2019-05-16T09:19:12.934Z</time>
      </trkpt>
      <trkpt lat="38.77447833" lon="-9.09148333">
        <ele>15.0</ele>
        <time>2019-05-16T09:19:13.926Z</time>
      </trkpt>
      <trkpt lat="38.77447833" lon="-9.09148333">
        <ele>15.0</ele>
        <time>2019-05-16T09:19:14.900Z</time>
      </trkpt>
      <trkpt lat="38.77447833" lon="-9.09148333">
        <ele>15.0</ele>
        <time>2019-05-16T09:19:15.930Z</time>
      </trkpt>
      <trkpt lat="38.77447833" lon="-9.09148333">
        <ele>15.0</ele>
        <time>2019-05-16T09:19:16.925Z</time>
      </trkpt>
      <trkpt lat="38.77447833" lon="-9.09148333">
        <ele>15.0</ele>
        <time>2019-05-16T09:19:17.934Z</time>
      </trkpt>
      <trkpt lat="38.77447833" lon="-9.09148333">
        <ele>15.0</ele>
        <time>2019-05-16T09:19:18.932Z</time>
      </trkpt>
      <trkpt lat="38.77447833" lon="-9.09148333">
        <ele>15.0</ele>
        <time>2019-05-16T09:19:19.928Z</time>
      </trkpt>
      <trkpt lat="38.77447833" lon="-9.09148333">
        <ele>15.0</ele>
        <time>2019-05-16T09:19:20.904Z</time>
      </trkpt>
      <trkpt lat="38.77447833" lon="-9.09148333">
        <ele>15.0</ele>
        <time>2019-05-16T09:19:21.910Z</time>
      </trkpt>
      <trkpt lat="38.77447833" lon="-9.09148333">
        <ele>15.0</ele>
        <time>2019-05-16T09:19:22.918Z</time>
      </trkpt>
      <trkpt lat="38.77447833" lon="-9.09148333">
        <ele>15.0</ele>
        <time>2019-05-16T09:19:23.924Z</time>
      </trkpt>
      <trkpt lat="38.77447833" lon="-9.09148333">
        <ele>15.0</ele>
        <time>2019-05-16T09:19:24.932Z</time>
      </trkpt>
      <trkpt lat="38.77447833" lon="-9.09148333">
        <ele>15.0</ele>
        <time>2019-05-16T09:19:25.926Z</time>
      </trkpt>
      <trkpt lat="38.77447833" lon="-9.09148333">
        <ele>15.0</ele>
        <time>2019-05-16T09:19:26.931Z</time>
      </trkpt>
      <trkpt lat="38.77447833" lon="-9.09148333">
        <ele>15.0</ele>
        <time>2019-05-16T09:19:27.930Z</time>
      </trkpt>
      <trkpt lat="38.77447833" lon="-9.09148333">
        <ele>15.0</ele>
        <time>2019-05-16T09:19:28.909Z</time>
      </trkpt>
      <trkpt lat="38.77447833" lon="-9.09148333">
        <ele>15.0</ele>
        <time>2019-05-16T09:19:29.932Z</time>
      </trkpt>
      <trkpt lat="38.77447833" lon="-9.09148333">
        <ele>15.0</ele>
        <time>2019-05-16T09:19:30.933Z</time>
      </trkpt>
      <trkpt lat="38.77447833" lon="-9.09148333">
        <ele>15.0</ele>
        <time>2019-05-16T09:19:31.926Z</time>
      </trkpt>
      <trkpt lat="38.77447833" lon="-9.09148333">
        <ele>15.0</ele>
        <time>2019-05-16T09:19:32.931Z</time>
      </trkpt>
      <trkpt lat="38.77447833" lon="-9.09148333">
        <ele>15.0</ele>
        <time>2019-05-16T09:19:33.926Z</time>
      </trkpt>
      <trkpt lat="38.77447833" lon="-9.09148333">
        <ele>15.0</ele>
        <time>2019-05-16T09:19:34.930Z</time>
      </trkpt>
      <trkpt lat="38.77447833" lon="-9.09148333">
        <ele>15.0</ele>
        <time>2019-05-16T09:19:35.926Z</time>
      </trkpt>
      <trkpt lat="38.77447833" lon="-9.09148333">
        <ele>15.0</ele>
        <time>2019-05-16T09:19:36.908Z</time>
      </trkpt>
      <trkpt lat="38.77447833" lon="-9.09148333">
        <ele>15.0</ele>
        <time>2019-05-16T09:19:37.936Z</time>
      </trkpt>
      <trkpt lat="38.77447833" lon="-9.09148333">
        <ele>15.0</ele>
        <time>2019-05-16T09:19:38.932Z</time>
      </trkpt>
      <trkpt lat="38.77447833" lon="-9.09148333">
        <ele>15.0</ele>
        <time>2019-05-16T09:19:39.925Z</time>
      </trkpt>
      <trkpt lat="38.77447833" lon="-9.09148333">
        <ele>15.0</ele>
        <time>2019-05-16T09:19:40.910Z</time>
      </trkpt>
      <trkpt lat="38.77447833" lon="-9.09148333">
        <ele>15.0</ele>
        <time>2019-05-16T09:19:41.933Z</time>
      </trkpt>
      <trkpt lat="38.77447833" lon="-9.09148333">
        <ele>15.0</ele>
        <time>2019-05-16T09:19:42.934Z</time>
      </trkpt>
      <trkpt lat="38.77447833" lon="-9.09148333">
        <ele>15.0</ele>
        <time>2019-05-16T09:19:43.927Z</time>
      </trkpt>
      <trkpt lat="38.77447833" lon="-9.09148333">
        <ele>15.0</ele>
        <time>2019-05-16T09:19:44.911Z</time>
      </trkpt>
      <trkpt lat="38.77447833" lon="-9.09148333">
        <ele>15.0</ele>
        <time>2019-05-16T09:19:45.933Z</time>
      </trkpt>
      <trkpt lat="38.77447833" lon="-9.09148333">
        <ele>15.0</ele>
        <time>2019-05-16T09:19:46.899Z</time>
      </trkpt>
      <trkpt lat="38.77447833" lon="-9.09148333">
        <ele>15.0</ele>
        <time>2019-05-16T09:19:47.930Z</time>
      </trkpt>
      <trkpt lat="38.77447833" lon="-9.09148333">
        <ele>15.0</ele>
        <time>2019-05-16T09:19:48.935Z</time>
      </trkpt>
      <trkpt lat="38.77447833" lon="-9.09148333">
        <ele>15.0</ele>
        <time>2019-05-16T09:19:49.934Z</time>
      </trkpt>
      <trkpt lat="38.77447833" lon="-9.09148333">
        <ele>15.0</ele>
        <time>2019-05-16T09:19:50.931Z</time>
      </trkpt>
      <trkpt lat="38.77447833" lon="-9.09148333">
        <ele>15.0</ele>
        <time>2019-05-16T09:19:51.932Z</time>
      </trkpt>
      <trkpt lat="38.77447833" lon="-9.09148333">
        <ele>15.0</ele>
        <time>2019-05-16T09:19:52.927Z</time>
      </trkpt>
      <trkpt lat="38.77447833" lon="-9.09148333">
        <ele>15.0</ele>
        <time>2019-05-16T09:19:53.931Z</time>
      </trkpt>
      <trkpt lat="38.77447833" lon="-9.09148333">
        <ele>15.0</ele>
        <time>2019-05-16T09:19:54.934Z</time>
      </trkpt>
      <trkpt lat="38.77447833" lon="-9.09148333">
        <ele>15.0</ele>
        <time>2019-05-16T09:19:55.926Z</time>
      </trkpt>
      <trkpt lat="38.77447833" lon="-9.09148333">
        <ele>15.0</ele>
        <time>2019-05-16T09:19:56.932Z</time>
      </trkpt>
      <trkpt lat="38.77447833" lon="-9.09148333">
        <ele>15.0</ele>
        <time>2019-05-16T09:19:57.930Z</time>
      </trkpt>
      <trkpt lat="38.77447833" lon="-9.09148333">
        <ele>15.0</ele>
        <time>2019-05-16T09:19:58.906Z</time>
      </trkpt>
      <trkpt lat="38.77447833" lon="-9.09148333">
        <ele>15.0</ele>
        <time>2019-05-16T09:19:59.932Z</time>
      </trkpt>
      <trkpt lat="38.77447833" lon="-9.09148333">
        <ele>15.0</ele>
        <time>2019-05-16T09:20:00.933Z</time>
      </trkpt>
      <trkpt lat="38.77447833" lon="-9.09148333">
        <ele>15.0</ele>
        <time>2019-05-16T09:20:01.927Z</time>
      </trkpt>
      <trkpt lat="38.77447833" lon="-9.09148333">
        <ele>15.0</ele>
        <time>2019-05-16T09:20:02.932Z</time>
      </trkpt>
      <trkpt lat="38.77447833" lon="-9.09148333">
        <ele>15.0</ele>
        <time>2019-05-16T09:20:03.910Z</time>
      </trkpt>
      <trkpt lat="38.77447833" lon="-9.09148333">
        <ele>15.0</ele>
        <time>2019-05-16T09:20:04.934Z</time>
      </trkpt>
      <trkpt lat="38.77447833" lon="-9.09148333">
        <ele>15.0</ele>
        <time>2019-05-16T09:20:05.927Z</time>
      </trkpt>
      <trkpt lat="38.77447833" lon="-9.09148333">
        <ele>15.0</ele>
        <time>2019-05-16T09:20:06.934Z</time>
      </trkpt>
      <trkpt lat="38.77447833" lon="-9.09148333">
        <ele>15.0</ele>
        <time>2019-05-16T09:20:07.930Z</time>
      </trkpt>
      <trkpt lat="38.77447833" lon="-9.09148333">
        <ele>15.0</ele>
        <time>2019-05-16T09:20:08.933Z</time>
      </trkpt>
      <trkpt lat="38.77447833" lon="-9.09148333">
        <ele>15.0</ele>
        <time>2019-05-16T09:20:09.930Z</time>
      </trkpt>
      <trkpt lat="38.77447833" lon="-9.09148333">
        <ele>15.0</ele>
        <time>2019-05-16T09:20:10.922Z</time>
      </trkpt>
      <trkpt lat="38.77447833" lon="-9.09148333">
        <ele>15.0</ele>
        <time>2019-05-16T09:20:11.910Z</time>
      </trkpt>
      <trkpt lat="38.77447833" lon="-9.09148333">
        <ele>15.0</ele>
        <time>2019-05-16T09:20:12.934Z</time>
      </trkpt>
      <trkpt lat="38.77447833" lon="-9.09148333">
        <ele>15.0</ele>
        <time>2019-05-16T09:20:13.926Z</time>
      </trkpt>
      <trkpt lat="38.77447833" lon="-9.09148333">
        <ele>15.0</ele>
        <time>2019-05-16T09:20:14.911Z</time>
      </trkpt>
      <trkpt lat="38.77447833" lon="-9.09148333">
        <ele>15.0</ele>
        <time>2019-05-16T09:20:15.933Z</time>
      </trkpt>
      <trkpt lat="38.77447833" lon="-9.09148333">
        <ele>15.0</ele>
        <time>2019-05-16T09:20:16.928Z</time>
      </trkpt>
      <trkpt lat="38.77447833" lon="-9.09148333">
        <ele>15.0</ele>
        <time>2019-05-16T09:20:17.931Z</time>
      </trkpt>
      <trkpt lat="38.77447833" lon="-9.09148333">
        <ele>15.0</ele>
        <time>2019-05-16T09:20:18.934Z</time>
      </trkpt>
      <trkpt lat="38.77447833" lon="-9.09148333">
        <ele>15.0</ele>
        <time>2019-05-16T09:20:19.928Z</time>
      </trkpt>
      <trkpt lat="38.77447833" lon="-9.09148333">
        <ele>15.0</ele>
        <time>2019-05-16T09:20:20.932Z</time>
      </trkpt>
      <trkpt lat="38.77447833" lon="-9.09148333">
        <ele>15.0</ele>
        <time>2019-05-16T09:20:21.930Z</time>
      </trkpt>
      <trkpt lat="38.77447833" lon="-9.09148333">
        <ele>15.0</ele>
        <time>2019-05-16T09:20:22.925Z</time>
      </trkpt>
      <trkpt lat="38.77447833" lon="-9.09148333">
        <ele>15.0</ele>
        <time>2019-05-16T09:20:23.914Z</time>
      </trkpt>
      <trkpt lat="38.77447833" lon="-9.09148333">
        <ele>15.0</ele>
        <time>2019-05-16T09:20:24.936Z</time>
      </trkpt>
      <trkpt lat="38.77447833" lon="-9.09148333">
        <ele>15.0</ele>
        <time>2019-05-16T09:20:25.927Z</time>
      </trkpt>
      <trkpt lat="38.77447833" lon="-9.09148333">
        <ele>15.0</ele>
        <time>2019-05-16T09:20:26.931Z</time>
      </trkpt>
      <trkpt lat="38.77447833" lon="-9.09148333">
        <ele>15.0</ele>
        <time>2019-05-16T09:20:27.901Z</time>
      </trkpt>
      <trkpt lat="38.77447833" lon="-9.09148333">
        <ele>15.0</ele>
        <time>2019-05-16T09:20:28.931Z</time>
      </trkpt>
      <trkpt lat="38.77447833" lon="-9.09148333">
        <ele>15.0</ele>
        <time>2019-05-16T09:20:29.926Z</time>
      </trkpt>
      <trkpt lat="38.77447833" lon="-9.09148333">
        <ele>15.0</ele>
        <time>2019-05-16T09:20:30.909Z</time>
      </trkpt>
      <trkpt lat="38.77447833" lon="-9.09148333">
        <ele>15.0</ele>
        <time>2019-05-16T09:20:31.928Z</time>
      </trkpt>
      <trkpt lat="38.77447833" lon="-9.09148333">
        <ele>15.0</ele>
        <time>2019-05-16T09:20:32.932Z</time>
      </trkpt>
      <trkpt lat="38.77447833" lon="-9.09148333">
        <ele>15.0</ele>
        <time>2019-05-16T09:20:33.898Z</time>
      </trkpt>
      <trkpt lat="38.77447833" lon="-9.09148333">
        <ele>15.0</ele>
        <time>2019-05-16T09:20:34.926Z</time>
      </trkpt>
      <trkpt lat="38.77447833" lon="-9.09148333">
        <ele>15.0</ele>
        <time>2019-05-16T09:20:35.931Z</time>
      </trkpt>
      <trkpt lat="38.77447833" lon="-9.09148333">
        <ele>15.0</ele>
        <time>2019-05-16T09:20:36.936Z</time>
      </trkpt>
      <trkpt lat="38.77447833" lon="-9.09148333">
        <ele>15.0</ele>
        <time>2019-05-16T09:20:37.936Z</time>
      </trkpt>
      <trkpt lat="38.77447833" lon="-9.09148333">
        <ele>15.0</ele>
        <time>2019-05-16T09:20:38.931Z</time>
      </trkpt>
      <trkpt lat="38.77447833" lon="-9.09148333">
        <ele>15.0</ele>
        <time>2019-05-16T09:20:39.926Z</time>
      </trkpt>
      <trkpt lat="38.77447833" lon="-9.09148333">
        <ele>15.0</ele>
        <time>2019-05-16T09:20:40.930Z</time>
      </trkpt>
      <trkpt lat="38.77447833" lon="-9.09148333">
        <ele>15.0</ele>
        <time>2019-05-16T09:20:41.925Z</time>
      </trkpt>
      <trkpt lat="38.77447833" lon="-9.09148333">
        <ele>15.0</ele>
        <time>2019-05-16T09:20:42.908Z</time>
      </trkpt>
      <trkpt lat="38.77447833" lon="-9.09148333">
        <ele>15.0</ele>
        <time>2019-05-16T09:20:43.930Z</time>
      </trkpt>
      <trkpt lat="38.77447833" lon="-9.09148333">
        <ele>15.0</ele>
        <time>2019-05-16T09:20:44.931Z</time>
      </trkpt>
      <trkpt lat="38.77447833" lon="-9.09148333">
        <ele>15.0</ele>
        <time>2019-05-16T09:20:45.926Z</time>
      </trkpt>
      <trkpt lat="38.77447833" lon="-9.09148333">
        <ele>15.0</ele>
        <time>2019-05-16T09:20:46.931Z</time>
      </trkpt>
      <trkpt lat="38.77447833" lon="-9.09148333">
        <ele>15.0</ele>
        <time>2019-05-16T09:20:47.909Z</time>
      </trkpt>
      <trkpt lat="38.77447833" lon="-9.09148333">
        <ele>15.0</ele>
        <time>2019-05-16T09:20:48.934Z</time>
      </trkpt>
      <trkpt lat="38.77447833" lon="-9.09148333">
        <ele>15.0</ele>
        <time>2019-05-16T09:20:49.925Z</time>
      </trkpt>
      <trkpt lat="38.77447833" lon="-9.09148333">
        <ele>15.0</ele>
        <time>2019-05-16T09:20:50.931Z</time>
      </trkpt>
      <trkpt lat="38.77447833" lon="-9.09148333">
        <ele>15.0</ele>
        <time>2019-05-16T09:20:51.926Z</time>
      </trkpt>
      <trkpt lat="38.77453" lon="-9.09149833">
        <ele>11.0</ele>
        <time>2019-05-16T09:20:52.930Z</time>
      </trkpt>
      <trkpt lat="38.77453" lon="-9.09149833">
        <ele>11.0</ele>
        <time>2019-05-16T09:20:53.931Z</time>
      </trkpt>
      <trkpt lat="38.77452667" lon="-9.09151833">
        <ele>11.0</ele>
        <time>2019-05-16T09:20:54.934Z</time>
      </trkpt>
      <trkpt lat="38.77452667" lon="-9.09153167">
        <ele>11.0</ele>
        <time>2019-05-16T09:20:55.932Z</time>
      </trkpt>
      <trkpt lat="38.77452667" lon="-9.09153167">
        <ele>11.0</ele>
        <time>2019-05-16T09:20:56.927Z</time>
      </trkpt>
      <trkpt lat="38.77452667" lon="-9.09153167">
        <ele>11.0</ele>
        <time>2019-05-16T09:20:57.950Z</time>
      </trkpt>
      <trkpt lat="38.77455167" lon="-9.09154833">
        <ele>11.0</ele>
        <time>2019-05-16T09:20:58.913Z</time>
      </trkpt>
      <trkpt lat="38.77455167" lon="-9.09154833">
        <ele>11.0</ele>
        <time>2019-05-16T09:20:59.929Z</time>
      </trkpt>
      <trkpt lat="38.77456167" lon="-9.09157167">
        <ele>10.0</ele>
        <time>2019-05-16T09:21:00.897Z</time>
      </trkpt>
      <trkpt lat="38.77456167" lon="-9.09157167">
        <ele>10.0</ele>
        <time>2019-05-16T09:21:01.918Z</time>
      </trkpt>
      <trkpt lat="38.77457667" lon="-9.09159167">
        <ele>10.0</ele>
        <time>2019-05-16T09:21:02.927Z</time>
      </trkpt>
      <trkpt lat="38.77457667" lon="-9.09159167">
        <ele>10.0</ele>
        <time>2019-05-16T09:21:03.916Z</time>
      </trkpt>
      <trkpt lat="38.774575" lon="-9.09159833">
        <ele>10.0</ele>
        <time>2019-05-16T09:21:04.922Z</time>
      </trkpt>
      <trkpt lat="38.77457167" lon="-9.09161">
        <ele>10.0</ele>
        <time>2019-05-16T09:21:05.909Z</time>
      </trkpt>
      <trkpt lat="38.77457167" lon="-9.09162667">
        <ele>10.0</ele>
        <time>2019-05-16T09:21:06.937Z</time>
      </trkpt>
      <trkpt lat="38.77457167" lon="-9.09162667">
        <ele>10.0</ele>
        <time>2019-05-16T09:21:07.917Z</time>
      </trkpt>
      <trkpt lat="38.77458167" lon="-9.09166167">
        <ele>10.0</ele>
        <time>2019-05-16T09:21:08.928Z</time>
      </trkpt>
      <trkpt lat="38.77458167" lon="-9.09166167">
        <ele>10.0</ele>
        <time>2019-05-16T09:21:09.917Z</time>
      </trkpt>
      <trkpt lat="38.77461167" lon="-9.09168667">
        <ele>10.0</ele>
        <time>2019-05-16T09:21:10.925Z</time>
      </trkpt>
      <trkpt lat="38.77461167" lon="-9.09168667">
        <ele>10.0</ele>
        <time>2019-05-16T09:21:11.907Z</time>
      </trkpt>
      <trkpt lat="38.77463" lon="-9.09168833">
        <ele>10.0</ele>
        <time>2019-05-16T09:21:12.914Z</time>
      </trkpt>
      <trkpt lat="38.77463" lon="-9.09168833">
        <ele>10.0</ele>
        <time>2019-05-16T09:21:13.925Z</time>
      </trkpt>
      <trkpt lat="38.77465667" lon="-9.09168833">
        <ele>10.0</ele>
        <time>2019-05-16T09:21:14.942Z</time>
      </trkpt>
      <trkpt lat="38.77465667" lon="-9.09168833">
        <ele>10.0</ele>
        <time>2019-05-16T09:21:15.901Z</time>
      </trkpt>
      <trkpt lat="38.77468333" lon="-9.091685">
        <ele>11.0</ele>
        <time>2019-05-16T09:21:16.909Z</time>
      </trkpt>
      <trkpt lat="38.77468333" lon="-9.091685">
        <ele>11.0</ele>
        <time>2019-05-16T09:21:17.924Z</time>
      </trkpt>
      <trkpt lat="38.77471333" lon="-9.09169">
        <ele>10.0</ele>
        <time>2019-05-16T09:21:18.934Z</time>
      </trkpt>
      <trkpt lat="38.77471333" lon="-9.09169">
        <ele>10.0</ele>
        <time>2019-05-16T09:21:19.934Z</time>
      </trkpt>
      <trkpt lat="38.77473833" lon="-9.09168667">
        <ele>11.0</ele>
        <time>2019-05-16T09:21:20.913Z</time>
      </trkpt>
      <trkpt lat="38.77473833" lon="-9.09168667">
        <ele>11.0</ele>
        <time>2019-05-16T09:21:21.917Z</time>
      </trkpt>
      <trkpt lat="38.77476667" lon="-9.09167">
        <ele>11.0</ele>
        <time>2019-05-16T09:21:22.927Z</time>
      </trkpt>
      <trkpt lat="38.77476667" lon="-9.09167">
        <ele>11.0</ele>
        <time>2019-05-16T09:21:23.899Z</time>
      </trkpt>
      <trkpt lat="38.77480333" lon="-9.09164833">
        <ele>10.0</ele>
        <time>2019-05-16T09:21:24.907Z</time>
      </trkpt>
      <trkpt lat="38.77480333" lon="-9.09164833">
        <ele>10.0</ele>
        <time>2019-05-16T09:21:25.915Z</time>
      </trkpt>
      <trkpt lat="38.77484333" lon="-9.09162167">
        <ele>10.0</ele>
        <time>2019-05-16T09:21:26.925Z</time>
      </trkpt>
      <trkpt lat="38.77484333" lon="-9.09162167">
        <ele>10.0</ele>
        <time>2019-05-16T09:21:27.929Z</time>
      </trkpt>
      <trkpt lat="38.77488" lon="-9.09160167">
        <ele>9.0</ele>
        <time>2019-05-16T09:21:28.898Z</time>
      </trkpt>
      <trkpt lat="38.77488" lon="-9.09160167">
        <ele>9.0</ele>
        <time>2019-05-16T09:21:29.921Z</time>
      </trkpt>
      <trkpt lat="38.77491" lon="-9.09156167">
        <ele>8.0</ele>
        <time>2019-05-16T09:21:30.934Z</time>
      </trkpt>
      <trkpt lat="38.77491" lon="-9.09156167">
        <ele>8.0</ele>
        <time>2019-05-16T09:21:31.920Z</time>
      </trkpt>
      <trkpt lat="38.77494333" lon="-9.09151333">
        <ele>7.0</ele>
        <time>2019-05-16T09:21:32.934Z</time>
      </trkpt>
      <trkpt lat="38.77494333" lon="-9.09151333">
        <ele>7.0</ele>
        <time>2019-05-16T09:21:33.904Z</time>
      </trkpt>
      <trkpt lat="38.77498833" lon="-9.09147333">
        <ele>7.0</ele>
        <time>2019-05-16T09:21:34.911Z</time>
      </trkpt>
      <trkpt lat="38.77498833" lon="-9.09147333">
        <ele>7.0</ele>
        <time>2019-05-16T09:21:35.925Z</time>
      </trkpt>
      <trkpt lat="38.77502833" lon="-9.091425">
        <ele>6.0</ele>
        <time>2019-05-16T09:21:36.935Z</time>
      </trkpt>
      <trkpt lat="38.77502833" lon="-9.091425">
        <ele>6.0</ele>
        <time>2019-05-16T09:21:37.925Z</time>
      </trkpt>
      <trkpt lat="38.77507667" lon="-9.091385">
        <ele>5.0</ele>
        <time>2019-05-16T09:21:38.937Z</time>
      </trkpt>
      <trkpt lat="38.77507667" lon="-9.091385">
        <ele>5.0</ele>
        <time>2019-05-16T09:21:39.933Z</time>
      </trkpt>
      <trkpt lat="38.77514" lon="-9.09137167">
        <ele>5.0</ele>
        <time>2019-05-16T09:21:40.904Z</time>
      </trkpt>
      <trkpt lat="38.77514" lon="-9.09137167">
        <ele>5.0</ele>
        <time>2019-05-16T09:21:41.931Z</time>
      </trkpt>
      <trkpt lat="38.77520333" lon="-9.091375">
        <ele>6.0</ele>
        <time>2019-05-16T09:21:42.900Z</time>
      </trkpt>
      <trkpt lat="38.77520333" lon="-9.091375">
        <ele>6.0</ele>
        <time>2019-05-16T09:21:43.919Z</time>
      </trkpt>
      <trkpt lat="38.77526333" lon="-9.09137667">
        <ele>6.0</ele>
        <time>2019-05-16T09:21:44.928Z</time>
      </trkpt>
      <trkpt lat="38.77526333" lon="-9.09137667">
        <ele>6.0</ele>
        <time>2019-05-16T09:21:45.906Z</time>
      </trkpt>
      <trkpt lat="38.77533667" lon="-9.09137167">
        <ele>6.0</ele>
        <time>2019-05-16T09:21:46.926Z</time>
      </trkpt>
      <trkpt lat="38.77533667" lon="-9.09137167">
        <ele>6.0</ele>
        <time>2019-05-16T09:21:47.901Z</time>
      </trkpt>
      <trkpt lat="38.77541167" lon="-9.09136667">
        <ele>5.0</ele>
        <time>2019-05-16T09:21:48.907Z</time>
      </trkpt>
      <trkpt lat="38.77541167" lon="-9.09136667">
        <ele>5.0</ele>
        <time>2019-05-16T09:21:49.929Z</time>
      </trkpt>
      <trkpt lat="38.77548667" lon="-9.09136167">
        <ele>5.0</ele>
        <time>2019-05-16T09:21:50.898Z</time>
      </trkpt>
      <trkpt lat="38.77548667" lon="-9.09136167">
        <ele>5.0</ele>
        <time>2019-05-16T09:21:51.936Z</time>
      </trkpt>
      <trkpt lat="38.77556" lon="-9.09135333">
        <ele>5.0</ele>
        <time>2019-05-16T09:21:52.907Z</time>
      </trkpt>
      <trkpt lat="38.77556" lon="-9.09135333">
        <ele>5.0</ele>
        <time>2019-05-16T09:21:53.908Z</time>
      </trkpt>
      <trkpt lat="38.775635" lon="-9.09134667">
        <ele>5.0</ele>
        <time>2019-05-16T09:21:54.917Z</time>
      </trkpt>
      <trkpt lat="38.775635" lon="-9.09134667">
        <ele>5.0</ele>
        <time>2019-05-16T09:21:55.934Z</time>
      </trkpt>
      <trkpt lat="38.77570667" lon="-9.09134333">
        <ele>5.0</ele>
        <time>2019-05-16T09:21:56.903Z</time>
      </trkpt>
      <trkpt lat="38.77570667" lon="-9.09134333">
        <ele>5.0</ele>
        <time>2019-05-16T09:21:57.919Z</time>
      </trkpt>
      <trkpt lat="38.77577333" lon="-9.09133667">
        <ele>5.0</ele>
        <time>2019-05-16T09:21:58.933Z</time>
      </trkpt>
      <trkpt lat="38.77577333" lon="-9.09133667">
        <ele>5.0</ele>
        <time>2019-05-16T09:21:59.917Z</time>
      </trkpt>
      <trkpt lat="38.77584" lon="-9.09132667">
        <ele>5.0</ele>
        <time>2019-05-16T09:22:00.927Z</time>
      </trkpt>
      <trkpt lat="38.77584" lon="-9.09132667">
        <ele>5.0</ele>
        <time>2019-05-16T09:22:01.908Z</time>
      </trkpt>
      <trkpt lat="38.77590667" lon="-9.09131833">
        <ele>5.0</ele>
        <time>2019-05-16T09:22:02.921Z</time>
      </trkpt>
      <trkpt lat="38.77590667" lon="-9.09131833">
        <ele>5.0</ele>
        <time>2019-05-16T09:22:03.899Z</time>
      </trkpt>
      <trkpt lat="38.77597167" lon="-9.09131833">
        <ele>5.0</ele>
        <time>2019-05-16T09:22:04.907Z</time>
      </trkpt>
      <trkpt lat="38.77597167" lon="-9.09131833">
        <ele>5.0</ele>
        <time>2019-05-16T09:22:05.927Z</time>
      </trkpt>
      <trkpt lat="38.77603833" lon="-9.09131833">
        <ele>5.0</ele>
        <time>2019-05-16T09:22:06.898Z</time>
      </trkpt>
      <trkpt lat="38.77603833" lon="-9.09131833">
        <ele>5.0</ele>
        <time>2019-05-16T09:22:07.902Z</time>
      </trkpt>
      <trkpt lat="38.77610333" lon="-9.09131833">
        <ele>4.0</ele>
        <time>2019-05-16T09:22:08.908Z</time>
      </trkpt>
      <trkpt lat="38.77610333" lon="-9.09131833">
        <ele>4.0</ele>
        <time>2019-05-16T09:22:09.923Z</time>
      </trkpt>
      <trkpt lat="38.77616667" lon="-9.09131167">
        <ele>4.0</ele>
        <time>2019-05-16T09:22:10.929Z</time>
      </trkpt>
      <trkpt lat="38.77616667" lon="-9.09131167">
        <ele>4.0</ele>
        <time>2019-05-16T09:22:11.911Z</time>
      </trkpt>
      <trkpt lat="38.77623" lon="-9.09130667">
        <ele>4.0</ele>
        <time>2019-05-16T09:22:12.925Z</time>
      </trkpt>
      <trkpt lat="38.77623" lon="-9.09130667">
        <ele>4.0</ele>
        <time>2019-05-16T09:22:13.919Z</time>
      </trkpt>
      <trkpt lat="38.77629333" lon="-9.09130167">
        <ele>4.0</ele>
        <time>2019-05-16T09:22:14.931Z</time>
      </trkpt>
      <trkpt lat="38.77629333" lon="-9.09130167">
        <ele>4.0</ele>
        <time>2019-05-16T09:22:15.900Z</time>
      </trkpt>
      <trkpt lat="38.776355" lon="-9.091295">
        <ele>4.0</ele>
        <time>2019-05-16T09:22:16.909Z</time>
      </trkpt>
      <trkpt lat="38.776355" lon="-9.091295">
        <ele>4.0</ele>
        <time>2019-05-16T09:22:17.927Z</time>
      </trkpt>
      <trkpt lat="38.77641167" lon="-9.09129">
        <ele>4.0</ele>
        <time>2019-05-16T09:22:18.902Z</time>
      </trkpt>
      <trkpt lat="38.77641167" lon="-9.09129">
        <ele>4.0</ele>
        <time>2019-05-16T09:22:19.928Z</time>
      </trkpt>
      <trkpt lat="38.77646" lon="-9.09128667">
        <ele>4.0</ele>
        <time>2019-05-16T09:22:20.907Z</time>
      </trkpt>
      <trkpt lat="38.77646" lon="-9.09128667">
        <ele>4.0</ele>
        <time>2019-05-16T09:22:21.922Z</time>
      </trkpt>
      <trkpt lat="38.77651" lon="-9.09128333">
        <ele>4.0</ele>
        <time>2019-05-16T09:22:22.931Z</time>
      </trkpt>
      <trkpt lat="38.77651" lon="-9.09128333">
        <ele>4.0</ele>
        <time>2019-05-16T09:22:23.903Z</time>
      </trkpt>
      <trkpt lat="38.77656333" lon="-9.09127833">
        <ele>4.0</ele>
        <time>2019-05-16T09:22:24.910Z</time>
      </trkpt>
      <trkpt lat="38.77656333" lon="-9.09127833">
        <ele>4.0</ele>
        <time>2019-05-16T09:22:25.910Z</time>
      </trkpt>
      <trkpt lat="38.77661833" lon="-9.09128">
        <ele>3.0</ele>
        <time>2019-05-16T09:22:26.923Z</time>
      </trkpt>
      <trkpt lat="38.77661833" lon="-9.09128">
        <ele>3.0</ele>
        <time>2019-05-16T09:22:27.907Z</time>
      </trkpt>
      <trkpt lat="38.77667333" lon="-9.09128167">
        <ele>3.0</ele>
        <time>2019-05-16T09:22:28.921Z</time>
      </trkpt>
      <trkpt lat="38.77667333" lon="-9.09128167">
        <ele>3.0</ele>
        <time>2019-05-16T09:22:29.899Z</time>
      </trkpt>
      <trkpt lat="38.77673167" lon="-9.09128">
        <ele>3.0</ele>
        <time>2019-05-16T09:22:30.906Z</time>
      </trkpt>
      <trkpt lat="38.77673167" lon="-9.09128">
        <ele>3.0</ele>
        <time>2019-05-16T09:22:31.919Z</time>
      </trkpt>
      <trkpt lat="38.77678833" lon="-9.09127167">
        <ele>3.0</ele>
        <time>2019-05-16T09:22:32.931Z</time>
      </trkpt>
      <trkpt lat="38.77678833" lon="-9.09127167">
        <ele>3.0</ele>
        <time>2019-05-16T09:22:33.909Z</time>
      </trkpt>
      <trkpt lat="38.776845" lon="-9.09125833">
        <ele>3.0</ele>
        <time>2019-05-16T09:22:34.923Z</time>
      </trkpt>
      <trkpt lat="38.776845" lon="-9.09125833">
        <ele>3.0</ele>
        <time>2019-05-16T09:22:35.908Z</time>
      </trkpt>
      <trkpt lat="38.77691167" lon="-9.09124667">
        <ele>3.0</ele>
        <time>2019-05-16T09:22:36.926Z</time>
      </trkpt>
      <trkpt lat="38.77691167" lon="-9.09124667">
        <ele>3.0</ele>
        <time>2019-05-16T09:22:37.904Z</time>
      </trkpt>
      <trkpt lat="38.77698667" lon="-9.09124">
        <ele>3.0</ele>
        <time>2019-05-16T09:22:38.910Z</time>
      </trkpt>
      <trkpt lat="38.77698667" lon="-9.09124">
        <ele>3.0</ele>
        <time>2019-05-16T09:22:39.929Z</time>
      </trkpt>
      <trkpt lat="38.77706167" lon="-9.09124">
        <ele>2.0</ele>
        <time>2019-05-16T09:22:40.899Z</time>
      </trkpt>
      <trkpt lat="38.77706167" lon="-9.09124">
        <ele>2.0</ele>
        <time>2019-05-16T09:22:41.920Z</time>
      </trkpt>
      <trkpt lat="38.777135" lon="-9.09124167">
        <ele>2.0</ele>
        <time>2019-05-16T09:22:42.934Z</time>
      </trkpt>
      <trkpt lat="38.777135" lon="-9.09124167">
        <ele>2.0</ele>
        <time>2019-05-16T09:22:43.903Z</time>
      </trkpt>
      <trkpt lat="38.77720667" lon="-9.091245">
        <ele>2.0</ele>
        <time>2019-05-16T09:22:44.910Z</time>
      </trkpt>
      <trkpt lat="38.77720667" lon="-9.091245">
        <ele>2.0</ele>
        <time>2019-05-16T09:22:45.897Z</time>
      </trkpt>
      <trkpt lat="38.77727333" lon="-9.09123833">
        <ele>2.0</ele>
        <time>2019-05-16T09:22:46.905Z</time>
      </trkpt>
      <trkpt lat="38.77727333" lon="-9.09123833">
        <ele>2.0</ele>
        <time>2019-05-16T09:22:47.921Z</time>
      </trkpt>
      <trkpt lat="38.77733667" lon="-9.09121833">
        <ele>2.0</ele>
        <time>2019-05-16T09:22:48.932Z</time>
      </trkpt>
      <trkpt lat="38.77733667" lon="-9.09121833">
        <ele>2.0</ele>
        <time>2019-05-16T09:22:49.905Z</time>
      </trkpt>
      <trkpt lat="38.77740167" lon="-9.09120167">
        <ele>2.0</ele>
        <time>2019-05-16T09:22:50.913Z</time>
      </trkpt>
      <trkpt lat="38.77740167" lon="-9.09120167">
        <ele>2.0</ele>
        <time>2019-05-16T09:22:51.929Z</time>
      </trkpt>
      <trkpt lat="38.77746333" lon="-9.09119667">
        <ele>2.0</ele>
        <time>2019-05-16T09:22:52.915Z</time>
      </trkpt>
      <trkpt lat="38.777495" lon="-9.091195">
        <ele>2.0</ele>
        <time>2019-05-16T09:22:53.931Z</time>
      </trkpt>
      <trkpt lat="38.77752667" lon="-9.09119333">
        <ele>2.0</ele>
        <time>2019-05-16T09:22:54.911Z</time>
      </trkpt>
      <trkpt lat="38.77752667" lon="-9.09119333">
        <ele>2.0</ele>
        <time>2019-05-16T09:22:55.920Z</time>
      </trkpt>
      <trkpt lat="38.77759167" lon="-9.09119833">
        <ele>2.0</ele>
        <time>2019-05-16T09:22:56.930Z</time>
      </trkpt>
      <trkpt lat="38.77759167" lon="-9.09119833">
        <ele>2.0</ele>
        <time>2019-05-16T09:22:57.918Z</time>
      </trkpt>
      <trkpt lat="38.77765833" lon="-9.0912">
        <ele>2.0</ele>
        <time>2019-05-16T09:22:58.928Z</time>
      </trkpt>
      <trkpt lat="38.77765833" lon="-9.0912">
        <ele>2.0</ele>
        <time>2019-05-16T09:22:59.907Z</time>
      </trkpt>
      <trkpt lat="38.777725" lon="-9.0912">
        <ele>2.0</ele>
        <time>2019-05-16T09:23:00.929Z</time>
      </trkpt>
      <trkpt lat="38.777725" lon="-9.0912">
        <ele>2.0</ele>
        <time>2019-05-16T09:23:01.902Z</time>
      </trkpt>
      <trkpt lat="38.777795" lon="-9.0912">
        <ele>2.0</ele>
        <time>2019-05-16T09:23:02.911Z</time>
      </trkpt>
      <trkpt lat="38.777795" lon="-9.0912">
        <ele>2.0</ele>
        <time>2019-05-16T09:23:03.897Z</time>
      </trkpt>
      <trkpt lat="38.77786667" lon="-9.09118167">
        <ele>2.0</ele>
        <time>2019-05-16T09:23:04.906Z</time>
      </trkpt>
      <trkpt lat="38.77786667" lon="-9.09118167">
        <ele>2.0</ele>
        <time>2019-05-16T09:23:05.922Z</time>
      </trkpt>
      <trkpt lat="38.77793667" lon="-9.09117">
        <ele>2.0</ele>
        <time>2019-05-16T09:23:06.949Z</time>
      </trkpt>
      <trkpt lat="38.77793667" lon="-9.09117">
        <ele>2.0</ele>
        <time>2019-05-16T09:23:07.927Z</time>
      </trkpt>
      <trkpt lat="38.77800333" lon="-9.09116">
        <ele>2.0</ele>
        <time>2019-05-16T09:23:08.901Z</time>
      </trkpt>
      <trkpt lat="38.77800333" lon="-9.09116">
        <ele>2.0</ele>
        <time>2019-05-16T09:23:09.915Z</time>
      </trkpt>
      <trkpt lat="38.77807167" lon="-9.09115667">
        <ele>2.0</ele>
        <time>2019-05-16T09:23:10.925Z</time>
      </trkpt>
      <trkpt lat="38.778105" lon="-9.091155">
        <ele>3.0</ele>
        <time>2019-05-16T09:23:11.923Z</time>
      </trkpt>
      <trkpt lat="38.778105" lon="-9.091155">
        <ele>3.0</ele>
        <time>2019-05-16T09:23:12.987Z</time>
      </trkpt>
      <trkpt lat="38.77817833" lon="-9.09115">
        <ele>3.0</ele>
        <time>2019-05-16T09:23:13.905Z</time>
      </trkpt>
      <trkpt lat="38.77817833" lon="-9.09115">
        <ele>3.0</ele>
        <time>2019-05-16T09:23:14.933Z</time>
      </trkpt>
      <trkpt lat="38.77824833" lon="-9.09114333">
        <ele>4.0</ele>
        <time>2019-05-16T09:23:15.959Z</time>
      </trkpt>
      <trkpt lat="38.77828667" lon="-9.09114">
        <ele>4.0</ele>
        <time>2019-05-16T09:23:16.919Z</time>
      </trkpt>
      <trkpt lat="38.77828667" lon="-9.09114">
        <ele>4.0</ele>
        <time>2019-05-16T09:23:17.906Z</time>
      </trkpt>
      <trkpt lat="38.778355" lon="-9.09113333">
        <ele>4.0</ele>
        <time>2019-05-16T09:23:18.924Z</time>
      </trkpt>
      <trkpt lat="38.778355" lon="-9.09113333">
        <ele>4.0</ele>
        <time>2019-05-16T09:23:19.901Z</time>
      </trkpt>
      <trkpt lat="38.77842833" lon="-9.09112667">
        <ele>4.0</ele>
        <time>2019-05-16T09:23:20.919Z</time>
      </trkpt>
      <trkpt lat="38.77846667" lon="-9.09113">
        <ele>4.0</ele>
        <time>2019-05-16T09:23:21.932Z</time>
      </trkpt>
      <trkpt lat="38.77846667" lon="-9.09113">
        <ele>4.0</ele>
        <time>2019-05-16T09:23:22.902Z</time>
      </trkpt>
      <trkpt lat="38.77854667" lon="-9.09114167">
        <ele>4.0</ele>
        <time>2019-05-16T09:23:23.909Z</time>
      </trkpt>
      <trkpt lat="38.77858333" lon="-9.09113833">
        <ele>4.0</ele>
        <time>2019-05-16T09:23:24.920Z</time>
      </trkpt>
      <trkpt lat="38.77858333" lon="-9.09113833">
        <ele>4.0</ele>
        <time>2019-05-16T09:23:25.909Z</time>
      </trkpt>
      <trkpt lat="38.77866167" lon="-9.09112333">
        <ele>4.0</ele>
        <time>2019-05-16T09:23:26.921Z</time>
      </trkpt>
      <trkpt lat="38.77866167" lon="-9.09112333">
        <ele>4.0</ele>
        <time>2019-05-16T09:23:27.901Z</time>
      </trkpt>
      <trkpt lat="38.77874167" lon="-9.09112333">
        <ele>4.0</ele>
        <time>2019-05-16T09:23:28.912Z</time>
      </trkpt>
      <trkpt lat="38.77874167" lon="-9.09112333">
        <ele>4.0</ele>
        <time>2019-05-16T09:23:29.934Z</time>
      </trkpt>
      <trkpt lat="38.77882" lon="-9.09113167">
        <ele>4.0</ele>
        <time>2019-05-16T09:23:30.903Z</time>
      </trkpt>
      <trkpt lat="38.77882" lon="-9.09113167">
        <ele>4.0</ele>
        <time>2019-05-16T09:23:31.930Z</time>
      </trkpt>
      <trkpt lat="38.778895" lon="-9.09112833">
        <ele>4.0</ele>
        <time>2019-05-16T09:23:32.899Z</time>
      </trkpt>
      <trkpt lat="38.778895" lon="-9.09112833">
        <ele>4.0</ele>
        <time>2019-05-16T09:23:33.909Z</time>
      </trkpt>
      <trkpt lat="38.77897" lon="-9.091125">
        <ele>3.0</ele>
        <time>2019-05-16T09:23:34.924Z</time>
      </trkpt>
      <trkpt lat="38.77897" lon="-9.091125">
        <ele>3.0</ele>
        <time>2019-05-16T09:23:35.902Z</time>
      </trkpt>
      <trkpt lat="38.77904333" lon="-9.09111833">
        <ele>4.0</ele>
        <time>2019-05-16T09:23:36.910Z</time>
      </trkpt>
      <trkpt lat="38.77904333" lon="-9.09111833">
        <ele>4.0</ele>
        <time>2019-05-16T09:23:37.912Z</time>
      </trkpt>
      <trkpt lat="38.77911333" lon="-9.09109833">
        <ele>4.0</ele>
        <time>2019-05-16T09:23:38.916Z</time>
      </trkpt>
      <trkpt lat="38.77911333" lon="-9.09109833">
        <ele>4.0</ele>
        <time>2019-05-16T09:23:39.929Z</time>
      </trkpt>
      <trkpt lat="38.779185" lon="-9.091085">
        <ele>4.0</ele>
        <time>2019-05-16T09:23:40.932Z</time>
      </trkpt>
      <trkpt lat="38.77922167" lon="-9.09108">
        <ele>4.0</ele>
        <time>2019-05-16T09:23:41.924Z</time>
      </trkpt>
      <trkpt lat="38.77925667" lon="-9.091075">
        <ele>4.0</ele>
        <time>2019-05-16T09:23:42.930Z</time>
      </trkpt>
      <trkpt lat="38.77925667" lon="-9.091075">
        <ele>4.0</ele>
        <time>2019-05-16T09:23:43.907Z</time>
      </trkpt>
      <trkpt lat="38.77933167" lon="-9.09106667">
        <ele>4.0</ele>
        <time>2019-05-16T09:23:44.928Z</time>
      </trkpt>
      <trkpt lat="38.77933167" lon="-9.09106667">
        <ele>4.0</ele>
        <time>2019-05-16T09:23:45.931Z</time>
      </trkpt>
      <trkpt lat="38.779405" lon="-9.09105667">
        <ele>4.0</ele>
        <time>2019-05-16T09:23:46.905Z</time>
      </trkpt>
      <trkpt lat="38.77944333" lon="-9.09105167">
        <ele>4.0</ele>
        <time>2019-05-16T09:23:47.922Z</time>
      </trkpt>
      <trkpt lat="38.77948167" lon="-9.09104833">
        <ele>4.0</ele>
        <time>2019-05-16T09:23:48.935Z</time>
      </trkpt>
      <trkpt lat="38.77948167" lon="-9.09104833">
        <ele>4.0</ele>
        <time>2019-05-16T09:23:49.921Z</time>
      </trkpt>
      <trkpt lat="38.77955667" lon="-9.09104167">
        <ele>4.0</ele>
        <time>2019-05-16T09:23:50.932Z</time>
      </trkpt>
      <trkpt lat="38.77955667" lon="-9.09104167">
        <ele>4.0</ele>
        <time>2019-05-16T09:23:51.925Z</time>
      </trkpt>
      <trkpt lat="38.77963" lon="-9.09103333">
        <ele>4.0</ele>
        <time>2019-05-16T09:23:52.898Z</time>
      </trkpt>
      <trkpt lat="38.77963" lon="-9.09103333">
        <ele>4.0</ele>
        <time>2019-05-16T09:23:53.930Z</time>
      </trkpt>
      <trkpt lat="38.779705" lon="-9.09102667">
        <ele>4.0</ele>
        <time>2019-05-16T09:23:54.900Z</time>
      </trkpt>
      <trkpt lat="38.779705" lon="-9.09102667">
        <ele>4.0</ele>
        <time>2019-05-16T09:23:55.927Z</time>
      </trkpt>
      <trkpt lat="38.77977833" lon="-9.09102">
        <ele>4.0</ele>
        <time>2019-05-16T09:23:56.955Z</time>
      </trkpt>
      <trkpt lat="38.77977833" lon="-9.09102">
        <ele>4.0</ele>
        <time>2019-05-16T09:23:57.933Z</time>
      </trkpt>
      <trkpt lat="38.77985333" lon="-9.09101167">
        <ele>4.0</ele>
        <time>2019-05-16T09:23:58.905Z</time>
      </trkpt>
      <trkpt lat="38.77985333" lon="-9.09101167">
        <ele>4.0</ele>
        <time>2019-05-16T09:23:59.932Z</time>
      </trkpt>
      <trkpt lat="38.77993" lon="-9.09100833">
        <ele>4.0</ele>
        <time>2019-05-16T09:24:00.906Z</time>
      </trkpt>
      <trkpt lat="38.77993" lon="-9.09100833">
        <ele>4.0</ele>
        <time>2019-05-16T09:24:01.897Z</time>
      </trkpt>
      <trkpt lat="38.78000833" lon="-9.09100333">
        <ele>4.0</ele>
        <time>2019-05-16T09:24:02.906Z</time>
      </trkpt>
      <trkpt lat="38.78000833" lon="-9.09100333">
        <ele>4.0</ele>
        <time>2019-05-16T09:24:03.910Z</time>
      </trkpt>
      <trkpt lat="38.78009167" lon="-9.09100167">
        <ele>4.0</ele>
        <time>2019-05-16T09:24:04.927Z</time>
      </trkpt>
      <trkpt lat="38.78009167" lon="-9.09100167">
        <ele>4.0</ele>
        <time>2019-05-16T09:24:05.923Z</time>
      </trkpt>
      <trkpt lat="38.78017833" lon="-9.091">
        <ele>4.0</ele>
        <time>2019-05-16T09:24:06.934Z</time>
      </trkpt>
      <trkpt lat="38.78017833" lon="-9.091">
        <ele>4.0</ele>
        <time>2019-05-16T09:24:07.912Z</time>
      </trkpt>
      <trkpt lat="38.78026333" lon="-9.09099667">
        <ele>3.0</ele>
        <time>2019-05-16T09:24:08.930Z</time>
      </trkpt>
      <trkpt lat="38.78026333" lon="-9.09099667">
        <ele>3.0</ele>
        <time>2019-05-16T09:24:09.929Z</time>
      </trkpt>
      <trkpt lat="38.780345" lon="-9.09099333">
        <ele>3.0</ele>
        <time>2019-05-16T09:24:10.944Z</time>
      </trkpt>
      <trkpt lat="38.780345" lon="-9.09099333">
        <ele>3.0</ele>
        <time>2019-05-16T09:24:11.903Z</time>
      </trkpt>
      <trkpt lat="38.78042667" lon="-9.09099167">
        <ele>3.0</ele>
        <time>2019-05-16T09:24:12.916Z</time>
      </trkpt>
      <trkpt lat="38.78042667" lon="-9.09099167">
        <ele>3.0</ele>
        <time>2019-05-16T09:24:13.901Z</time>
      </trkpt>
      <trkpt lat="38.78050833" lon="-9.09098833">
        <ele>3.0</ele>
        <time>2019-05-16T09:24:14.911Z</time>
      </trkpt>
      <trkpt lat="38.78050833" lon="-9.09098833">
        <ele>3.0</ele>
        <time>2019-05-16T09:24:15.901Z</time>
      </trkpt>
      <trkpt lat="38.78059167" lon="-9.09097833">
        <ele>3.0</ele>
        <time>2019-05-16T09:24:16.989Z</time>
      </trkpt>
      <trkpt lat="38.78059167" lon="-9.09097833">
        <ele>3.0</ele>
        <time>2019-05-16T09:24:17.910Z</time>
      </trkpt>
      <trkpt lat="38.78067333" lon="-9.090965">
        <ele>3.0</ele>
        <time>2019-05-16T09:24:18.927Z</time>
      </trkpt>
      <trkpt lat="38.78067333" lon="-9.090965">
        <ele>3.0</ele>
        <time>2019-05-16T09:24:19.920Z</time>
      </trkpt>
      <trkpt lat="38.78075333" lon="-9.09095">
        <ele>3.0</ele>
        <time>2019-05-16T09:24:20.899Z</time>
      </trkpt>
      <trkpt lat="38.78075333" lon="-9.09095">
        <ele>3.0</ele>
        <time>2019-05-16T09:24:21.897Z</time>
      </trkpt>
      <trkpt lat="38.780835" lon="-9.09093833">
        <ele>3.0</ele>
        <time>2019-05-16T09:24:22.904Z</time>
      </trkpt>
      <trkpt lat="38.780875" lon="-9.090935">
        <ele>3.0</ele>
        <time>2019-05-16T09:24:23.922Z</time>
      </trkpt>
      <trkpt lat="38.78091667" lon="-9.09093167">
        <ele>3.0</ele>
        <time>2019-05-16T09:24:24.931Z</time>
      </trkpt>
      <trkpt lat="38.78091667" lon="-9.09093167">
        <ele>3.0</ele>
        <time>2019-05-16T09:24:25.920Z</time>
      </trkpt>
      <trkpt lat="38.78099833" lon="-9.09092333">
        <ele>3.0</ele>
        <time>2019-05-16T09:24:26.930Z</time>
      </trkpt>
      <trkpt lat="38.78099833" lon="-9.09092333">
        <ele>3.0</ele>
        <time>2019-05-16T09:24:27.921Z</time>
      </trkpt>
      <trkpt lat="38.78108" lon="-9.09091833">
        <ele>3.0</ele>
        <time>2019-05-16T09:24:28.934Z</time>
      </trkpt>
      <trkpt lat="38.78108" lon="-9.09091833">
        <ele>3.0</ele>
        <time>2019-05-16T09:24:29.928Z</time>
      </trkpt>
      <trkpt lat="38.78116" lon="-9.09091333">
        <ele>2.0</ele>
        <time>2019-05-16T09:24:30.909Z</time>
      </trkpt>
      <trkpt lat="38.78116" lon="-9.09091333">
        <ele>2.0</ele>
        <time>2019-05-16T09:24:31.921Z</time>
      </trkpt>
      <trkpt lat="38.78123833" lon="-9.09090833">
        <ele>2.0</ele>
        <time>2019-05-16T09:24:32.936Z</time>
      </trkpt>
      <trkpt lat="38.78127667" lon="-9.090905">
        <ele>2.0</ele>
        <time>2019-05-16T09:24:33.899Z</time>
      </trkpt>
      <trkpt lat="38.78127667" lon="-9.090905">
        <ele>2.0</ele>
        <time>2019-05-16T09:24:34.922Z</time>
      </trkpt>
      <trkpt lat="38.78134833" lon="-9.09089833">
        <ele>2.0</ele>
        <time>2019-05-16T09:24:35.913Z</time>
      </trkpt>
      <trkpt lat="38.781385" lon="-9.090895">
        <ele>2.0</ele>
        <time>2019-05-16T09:24:36.905Z</time>
      </trkpt>
      <trkpt lat="38.781385" lon="-9.090895">
        <ele>2.0</ele>
        <time>2019-05-16T09:24:37.929Z</time>
      </trkpt>
      <trkpt lat="38.78145167" lon="-9.09089">
        <ele>2.0</ele>
        <time>2019-05-16T09:24:38.900Z</time>
      </trkpt>
      <trkpt lat="38.78145167" lon="-9.09089">
        <ele>2.0</ele>
        <time>2019-05-16T09:24:39.925Z</time>
      </trkpt>
      <trkpt lat="38.78151333" lon="-9.09088667">
        <ele>2.0</ele>
        <time>2019-05-16T09:24:40.906Z</time>
      </trkpt>
      <trkpt lat="38.78151333" lon="-9.09088667">
        <ele>2.0</ele>
        <time>2019-05-16T09:24:41.908Z</time>
      </trkpt>
      <trkpt lat="38.78151333" lon="-9.09088667">
        <ele>2.0</ele>
        <time>2019-05-16T09:24:42.903Z</time>
      </trkpt>
      <trkpt lat="38.78157333" lon="-9.09088333">
        <ele>2.0</ele>
        <time>2019-05-16T09:24:43.931Z</time>
      </trkpt>
      <trkpt lat="38.78163" lon="-9.09087667">
        <ele>2.0</ele>
        <time>2019-05-16T09:24:44.907Z</time>
      </trkpt>
      <trkpt lat="38.78163" lon="-9.09087667">
        <ele>2.0</ele>
        <time>2019-05-16T09:24:45.897Z</time>
      </trkpt>
      <trkpt lat="38.78168" lon="-9.090875">
        <ele>3.0</ele>
        <time>2019-05-16T09:24:46.904Z</time>
      </trkpt>
      <trkpt lat="38.78168" lon="-9.090875">
        <ele>3.0</ele>
        <time>2019-05-16T09:24:47.901Z</time>
      </trkpt>
      <trkpt lat="38.78173" lon="-9.09087167">
        <ele>2.0</ele>
        <time>2019-05-16T09:24:48.911Z</time>
      </trkpt>
      <trkpt lat="38.78173" lon="-9.09087167">
        <ele>2.0</ele>
        <time>2019-05-16T09:24:49.932Z</time>
      </trkpt>
      <trkpt lat="38.781785" lon="-9.09086833">
        <ele>2.0</ele>
        <time>2019-05-16T09:24:50.905Z</time>
      </trkpt>
      <trkpt lat="38.781785" lon="-9.09086833">
        <ele>2.0</ele>
        <time>2019-05-16T09:24:51.935Z</time>
      </trkpt>
      <trkpt lat="38.78184333" lon="-9.09086333">
        <ele>2.0</ele>
        <time>2019-05-16T09:24:52.904Z</time>
      </trkpt>
      <trkpt lat="38.78184333" lon="-9.09086333">
        <ele>2.0</ele>
        <time>2019-05-16T09:24:53.925Z</time>
      </trkpt>
      <trkpt lat="38.78190333" lon="-9.09086">
        <ele>2.0</ele>
        <time>2019-05-16T09:24:54.939Z</time>
      </trkpt>
      <trkpt lat="38.78190333" lon="-9.09086">
        <ele>2.0</ele>
        <time>2019-05-16T09:24:55.902Z</time>
      </trkpt>
      <trkpt lat="38.781965" lon="-9.09085833">
        <ele>2.0</ele>
        <time>2019-05-16T09:24:56.909Z</time>
      </trkpt>
      <trkpt lat="38.781965" lon="-9.09085833">
        <ele>2.0</ele>
        <time>2019-05-16T09:24:57.902Z</time>
      </trkpt>
      <trkpt lat="38.78202833" lon="-9.09085333">
        <ele>2.0</ele>
        <time>2019-05-16T09:24:58.913Z</time>
      </trkpt>
      <trkpt lat="38.78202833" lon="-9.09085333">
        <ele>2.0</ele>
        <time>2019-05-16T09:24:59.897Z</time>
      </trkpt>
      <trkpt lat="38.78209167" lon="-9.09084667">
        <ele>2.0</ele>
        <time>2019-05-16T09:25:00.904Z</time>
      </trkpt>
      <trkpt lat="38.78209167" lon="-9.09084667">
        <ele>2.0</ele>
        <time>2019-05-16T09:25:01.935Z</time>
      </trkpt>
      <trkpt lat="38.78215667" lon="-9.09084333">
        <ele>2.0</ele>
        <time>2019-05-16T09:25:02.905Z</time>
      </trkpt>
      <trkpt lat="38.78215667" lon="-9.09084333">
        <ele>2.0</ele>
        <time>2019-05-16T09:25:03.903Z</time>
      </trkpt>
      <trkpt lat="38.78222167" lon="-9.09083833">
        <ele>2.0</ele>
        <time>2019-05-16T09:25:04.952Z</time>
      </trkpt>
      <trkpt lat="38.78225333" lon="-9.09083667">
        <ele>2.0</ele>
        <time>2019-05-16T09:25:05.907Z</time>
      </trkpt>
      <trkpt lat="38.78228667" lon="-9.090835">
        <ele>2.0</ele>
        <time>2019-05-16T09:25:06.935Z</time>
      </trkpt>
      <trkpt lat="38.78228667" lon="-9.090835">
        <ele>2.0</ele>
        <time>2019-05-16T09:25:07.935Z</time>
      </trkpt>
      <trkpt lat="38.78235" lon="-9.09083">
        <ele>2.0</ele>
        <time>2019-05-16T09:25:08.902Z</time>
      </trkpt>
      <trkpt lat="38.78235" lon="-9.09083">
        <ele>2.0</ele>
        <time>2019-05-16T09:25:09.922Z</time>
      </trkpt>
      <trkpt lat="38.78241667" lon="-9.09082667">
        <ele>2.0</ele>
        <time>2019-05-16T09:25:10.930Z</time>
      </trkpt>
      <trkpt lat="38.78241667" lon="-9.09082667">
        <ele>2.0</ele>
        <time>2019-05-16T09:25:11.897Z</time>
      </trkpt>
      <trkpt lat="38.78248" lon="-9.09082333">
        <ele>2.0</ele>
        <time>2019-05-16T09:25:12.915Z</time>
      </trkpt>
      <trkpt lat="38.78248" lon="-9.09082333">
        <ele>2.0</ele>
        <time>2019-05-16T09:25:13.931Z</time>
      </trkpt>
      <trkpt lat="38.78254667" lon="-9.09082333">
        <ele>2.0</ele>
        <time>2019-05-16T09:25:14.900Z</time>
      </trkpt>
      <trkpt lat="38.78257833" lon="-9.09082333">
        <ele>2.0</ele>
        <time>2019-05-16T09:25:15.932Z</time>
      </trkpt>
      <trkpt lat="38.78257833" lon="-9.09082333">
        <ele>2.0</ele>
        <time>2019-05-16T09:25:16.919Z</time>
      </trkpt>
      <trkpt lat="38.78264167" lon="-9.09081167">
        <ele>2.0</ele>
        <time>2019-05-16T09:25:17.900Z</time>
      </trkpt>
      <trkpt lat="38.782675" lon="-9.09080667">
        <ele>2.0</ele>
        <time>2019-05-16T09:25:18.937Z</time>
      </trkpt>
      <trkpt lat="38.782675" lon="-9.09080667">
        <ele>2.0</ele>
        <time>2019-05-16T09:25:19.921Z</time>
      </trkpt>
      <trkpt lat="38.78273833" lon="-9.09079833">
        <ele>2.0</ele>
        <time>2019-05-16T09:25:20.921Z</time>
      </trkpt>
      <trkpt lat="38.78273833" lon="-9.09079833">
        <ele>2.0</ele>
        <time>2019-05-16T09:25:21.918Z</time>
      </trkpt>
      <trkpt lat="38.782805" lon="-9.09079">
        <ele>2.0</ele>
        <time>2019-05-16T09:25:22.933Z</time>
      </trkpt>
      <trkpt lat="38.782805" lon="-9.09079">
        <ele>2.0</ele>
        <time>2019-05-16T09:25:23.932Z</time>
      </trkpt>
      <trkpt lat="38.78287" lon="-9.090785">
        <ele>2.0</ele>
        <time>2019-05-16T09:25:24.905Z</time>
      </trkpt>
      <trkpt lat="38.78287" lon="-9.090785">
        <ele>2.0</ele>
        <time>2019-05-16T09:25:25.932Z</time>
      </trkpt>
      <trkpt lat="38.78293333" lon="-9.09077833">
        <ele>2.0</ele>
        <time>2019-05-16T09:25:26.904Z</time>
      </trkpt>
      <trkpt lat="38.78293333" lon="-9.09077833">
        <ele>2.0</ele>
        <time>2019-05-16T09:25:27.906Z</time>
      </trkpt>
      <trkpt lat="38.78299833" lon="-9.09077333">
        <ele>2.0</ele>
        <time>2019-05-16T09:25:28.928Z</time>
      </trkpt>
      <trkpt lat="38.78299833" lon="-9.09077333">
        <ele>2.0</ele>
        <time>2019-05-16T09:25:29.899Z</time>
      </trkpt>
      <trkpt lat="38.78306" lon="-9.09077">
        <ele>2.0</ele>
        <time>2019-05-16T09:25:30.907Z</time>
      </trkpt>
      <trkpt lat="38.78306" lon="-9.09077">
        <ele>2.0</ele>
        <time>2019-05-16T09:25:31.906Z</time>
      </trkpt>
      <trkpt lat="38.78312" lon="-9.09076333">
        <ele>2.0</ele>
        <time>2019-05-16T09:25:32.920Z</time>
      </trkpt>
      <trkpt lat="38.78312" lon="-9.09076333">
        <ele>2.0</ele>
        <time>2019-05-16T09:25:33.900Z</time>
      </trkpt>
      <trkpt lat="38.78317833" lon="-9.09075333">
        <ele>2.0</ele>
        <time>2019-05-16T09:25:34.906Z</time>
      </trkpt>
      <trkpt lat="38.78320833" lon="-9.09075">
        <ele>2.0</ele>
        <time>2019-05-16T09:25:35.913Z</time>
      </trkpt>
      <trkpt lat="38.78324" lon="-9.09074833">
        <ele>2.0</ele>
        <time>2019-05-16T09:25:36.910Z</time>
      </trkpt>
      <trkpt lat="38.78324" lon="-9.09074833">
        <ele>2.0</ele>
        <time>2019-05-16T09:25:37.935Z</time>
      </trkpt>
      <trkpt lat="38.78330167" lon="-9.09074667">
        <ele>2.0</ele>
        <time>2019-05-16T09:25:38.905Z</time>
      </trkpt>
      <trkpt lat="38.78330167" lon="-9.09074667">
        <ele>2.0</ele>
        <time>2019-05-16T09:25:39.902Z</time>
      </trkpt>
      <trkpt lat="38.783365" lon="-9.09074333">
        <ele>2.0</ele>
        <time>2019-05-16T09:25:40.918Z</time>
      </trkpt>
      <trkpt lat="38.783365" lon="-9.09074333">
        <ele>2.0</ele>
        <time>2019-05-16T09:25:41.926Z</time>
      </trkpt>
      <trkpt lat="38.78343167" lon="-9.09073833">
        <ele>2.0</ele>
        <time>2019-05-16T09:25:42.934Z</time>
      </trkpt>
      <trkpt lat="38.78343167" lon="-9.09073833">
        <ele>2.0</ele>
        <time>2019-05-16T09:25:43.910Z</time>
      </trkpt>
      <trkpt lat="38.78349667" lon="-9.090735">
        <ele>2.0</ele>
        <time>2019-05-16T09:25:44.908Z</time>
      </trkpt>
      <trkpt lat="38.78349667" lon="-9.090735">
        <ele>2.0</ele>
        <time>2019-05-16T09:25:45.937Z</time>
      </trkpt>
      <trkpt lat="38.78356167" lon="-9.090735">
        <ele>2.0</ele>
        <time>2019-05-16T09:25:46.905Z</time>
      </trkpt>
      <trkpt lat="38.78356167" lon="-9.090735">
        <ele>2.0</ele>
        <time>2019-05-16T09:25:47.898Z</time>
      </trkpt>
      <trkpt lat="38.783625" lon="-9.09075167">
        <ele>2.0</ele>
        <time>2019-05-16T09:25:48.910Z</time>
      </trkpt>
      <trkpt lat="38.783625" lon="-9.09075167">
        <ele>2.0</ele>
        <time>2019-05-16T09:25:49.903Z</time>
      </trkpt>
      <trkpt lat="38.78368833" lon="-9.09077667">
        <ele>2.0</ele>
        <time>2019-05-16T09:25:50.914Z</time>
      </trkpt>
      <trkpt lat="38.78368833" lon="-9.09077667">
        <ele>2.0</ele>
        <time>2019-05-16T09:25:51.905Z</time>
      </trkpt>
      <trkpt lat="38.78375" lon="-9.09081167">
        <ele>2.0</ele>
        <time>2019-05-16T09:25:52.915Z</time>
      </trkpt>
      <trkpt lat="38.78375" lon="-9.09081167">
        <ele>2.0</ele>
        <time>2019-05-16T09:25:53.922Z</time>
      </trkpt>
      <trkpt lat="38.78380833" lon="-9.09085167">
        <ele>2.0</ele>
        <time>2019-05-16T09:25:54.940Z</time>
      </trkpt>
      <trkpt lat="38.78380833" lon="-9.09085167">
        <ele>2.0</ele>
        <time>2019-05-16T09:25:55.900Z</time>
      </trkpt>
      <trkpt lat="38.78386667" lon="-9.09088833">
        <ele>2.0</ele>
        <time>2019-05-16T09:25:56.932Z</time>
      </trkpt>
      <trkpt lat="38.78386667" lon="-9.09088833">
        <ele>2.0</ele>
        <time>2019-05-16T09:25:57.921Z</time>
      </trkpt>
      <trkpt lat="38.78393" lon="-9.09092333">
        <ele>2.0</ele>
        <time>2019-05-16T09:25:58.933Z</time>
      </trkpt>
      <trkpt lat="38.783965" lon="-9.09094167">
        <ele>2.0</ele>
        <time>2019-05-16T09:25:59.910Z</time>
      </trkpt>
      <trkpt lat="38.78399833" lon="-9.09096">
        <ele>2.0</ele>
        <time>2019-05-16T09:26:00.902Z</time>
      </trkpt>
      <trkpt lat="38.78399833" lon="-9.09096">
        <ele>2.0</ele>
        <time>2019-05-16T09:26:01.905Z</time>
      </trkpt>
      <trkpt lat="38.78406333" lon="-9.09100167">
        <ele>1.0</ele>
        <time>2019-05-16T09:26:02.912Z</time>
      </trkpt>
      <trkpt lat="38.78406333" lon="-9.09100167">
        <ele>1.0</ele>
        <time>2019-05-16T09:26:03.901Z</time>
      </trkpt>
      <trkpt lat="38.784125" lon="-9.09104667">
        <ele>1.0</ele>
        <time>2019-05-16T09:26:04.914Z</time>
      </trkpt>
      <trkpt lat="38.784125" lon="-9.09104667">
        <ele>1.0</ele>
        <time>2019-05-16T09:26:05.907Z</time>
      </trkpt>
      <trkpt lat="38.784185" lon="-9.091095">
        <ele>2.0</ele>
        <time>2019-05-16T09:26:06.918Z</time>
      </trkpt>
      <trkpt lat="38.784185" lon="-9.091095">
        <ele>2.0</ele>
        <time>2019-05-16T09:26:07.901Z</time>
      </trkpt>
      <trkpt lat="38.78424667" lon="-9.09113667">
        <ele>2.0</ele>
        <time>2019-05-16T09:26:08.910Z</time>
      </trkpt>
      <trkpt lat="38.78424667" lon="-9.09113667">
        <ele>2.0</ele>
        <time>2019-05-16T09:26:09.903Z</time>
      </trkpt>
      <trkpt lat="38.78430333" lon="-9.09117667">
        <ele>2.0</ele>
        <time>2019-05-16T09:26:10.913Z</time>
      </trkpt>
      <trkpt lat="38.78430333" lon="-9.09117667">
        <ele>2.0</ele>
        <time>2019-05-16T09:26:11.935Z</time>
      </trkpt>
      <trkpt lat="38.784355" lon="-9.09122">
        <ele>2.0</ele>
        <time>2019-05-16T09:26:12.908Z</time>
      </trkpt>
      <trkpt lat="38.784355" lon="-9.09122">
        <ele>2.0</ele>
        <time>2019-05-16T09:26:13.917Z</time>
      </trkpt>
      <trkpt lat="38.78440167" lon="-9.09126667">
        <ele>2.0</ele>
        <time>2019-05-16T09:26:14.929Z</time>
      </trkpt>
      <trkpt lat="38.78440167" lon="-9.09126667">
        <ele>2.0</ele>
        <time>2019-05-16T09:26:15.931Z</time>
      </trkpt>
      <trkpt lat="38.78445167" lon="-9.09130667">
        <ele>2.0</ele>
        <time>2019-05-16T09:26:16.901Z</time>
      </trkpt>
      <trkpt lat="38.78445167" lon="-9.09130667">
        <ele>2.0</ele>
        <time>2019-05-16T09:26:17.905Z</time>
      </trkpt>
      <trkpt lat="38.78450167" lon="-9.091345">
        <ele>2.0</ele>
        <time>2019-05-16T09:26:18.920Z</time>
      </trkpt>
      <trkpt lat="38.78450167" lon="-9.091345">
        <ele>2.0</ele>
        <time>2019-05-16T09:26:19.900Z</time>
      </trkpt>
      <trkpt lat="38.784555" lon="-9.09138667">
        <ele>2.0</ele>
        <time>2019-05-16T09:26:20.904Z</time>
      </trkpt>
      <trkpt lat="38.784555" lon="-9.09138667">
        <ele>2.0</ele>
        <time>2019-05-16T09:26:21.908Z</time>
      </trkpt>
      <trkpt lat="38.78460833" lon="-9.09143667">
        <ele>2.0</ele>
        <time>2019-05-16T09:26:22.924Z</time>
      </trkpt>
      <trkpt lat="38.78460833" lon="-9.09143667">
        <ele>2.0</ele>
        <time>2019-05-16T09:26:23.918Z</time>
      </trkpt>
      <trkpt lat="38.78466333" lon="-9.09149">
        <ele>2.0</ele>
        <time>2019-05-16T09:26:24.930Z</time>
      </trkpt>
      <trkpt lat="38.78466333" lon="-9.09149">
        <ele>2.0</ele>
        <time>2019-05-16T09:26:25.921Z</time>
      </trkpt>
      <trkpt lat="38.78471667" lon="-9.09155">
        <ele>2.0</ele>
        <time>2019-05-16T09:26:26.931Z</time>
      </trkpt>
      <trkpt lat="38.78471667" lon="-9.09155">
        <ele>2.0</ele>
        <time>2019-05-16T09:26:27.931Z</time>
      </trkpt>
      <trkpt lat="38.78476833" lon="-9.09161333">
        <ele>2.0</ele>
        <time>2019-05-16T09:26:28.899Z</time>
      </trkpt>
      <trkpt lat="38.78476833" lon="-9.09161333">
        <ele>2.0</ele>
        <time>2019-05-16T09:26:29.918Z</time>
      </trkpt>
      <trkpt lat="38.78482833" lon="-9.09167">
        <ele>2.0</ele>
        <time>2019-05-16T09:26:30.910Z</time>
      </trkpt>
      <trkpt lat="38.78482833" lon="-9.09167">
        <ele>2.0</ele>
        <time>2019-05-16T09:26:31.935Z</time>
      </trkpt>
      <trkpt lat="38.78488833" lon="-9.09172333">
        <ele>2.0</ele>
        <time>2019-05-16T09:26:32.910Z</time>
      </trkpt>
      <trkpt lat="38.78488833" lon="-9.09172333">
        <ele>2.0</ele>
        <time>2019-05-16T09:26:33.929Z</time>
      </trkpt>
      <trkpt lat="38.78494333" lon="-9.09178">
        <ele>3.0</ele>
        <time>2019-05-16T09:26:34.899Z</time>
      </trkpt>
      <trkpt lat="38.78494333" lon="-9.09178">
        <ele>3.0</ele>
        <time>2019-05-16T09:26:35.932Z</time>
      </trkpt>
      <trkpt lat="38.784995" lon="-9.09184167">
        <ele>3.0</ele>
        <time>2019-05-16T09:26:36.899Z</time>
      </trkpt>
      <trkpt lat="38.784995" lon="-9.09184167">
        <ele>3.0</ele>
        <time>2019-05-16T09:26:37.899Z</time>
      </trkpt>
      <trkpt lat="38.785045" lon="-9.09190167">
        <ele>3.0</ele>
        <time>2019-05-16T09:26:38.909Z</time>
      </trkpt>
      <trkpt lat="38.785045" lon="-9.09190167">
        <ele>3.0</ele>
        <time>2019-05-16T09:26:39.920Z</time>
      </trkpt>
      <trkpt lat="38.78509167" lon="-9.09196333">
        <ele>4.0</ele>
        <time>2019-05-16T09:26:40.932Z</time>
      </trkpt>
      <trkpt lat="38.78509167" lon="-9.09196333">
        <ele>4.0</ele>
        <time>2019-05-16T09:26:41.915Z</time>
      </trkpt>
      <trkpt lat="38.78514" lon="-9.09202667">
        <ele>4.0</ele>
        <time>2019-05-16T09:26:42.927Z</time>
      </trkpt>
      <trkpt lat="38.78514" lon="-9.09202667">
        <ele>4.0</ele>
        <time>2019-05-16T09:26:43.906Z</time>
      </trkpt>
      <trkpt lat="38.78518667" lon="-9.09208833">
        <ele>4.0</ele>
        <time>2019-05-16T09:26:44.918Z</time>
      </trkpt>
      <trkpt lat="38.78518667" lon="-9.09208833">
        <ele>4.0</ele>
        <time>2019-05-16T09:26:45.919Z</time>
      </trkpt>
      <trkpt lat="38.78523167" lon="-9.09215">
        <ele>4.0</ele>
        <time>2019-05-16T09:26:46.935Z</time>
      </trkpt>
      <trkpt lat="38.78523167" lon="-9.09215">
        <ele>4.0</ele>
        <time>2019-05-16T09:26:47.927Z</time>
      </trkpt>
      <trkpt lat="38.785285" lon="-9.09220167">
        <ele>4.0</ele>
        <time>2019-05-16T09:26:48.938Z</time>
      </trkpt>
      <trkpt lat="38.785285" lon="-9.09220167">
        <ele>4.0</ele>
        <time>2019-05-16T09:26:49.924Z</time>
      </trkpt>
      <trkpt lat="38.78535" lon="-9.09222667">
        <ele>4.0</ele>
        <time>2019-05-16T09:26:50.934Z</time>
      </trkpt>
      <trkpt lat="38.78535" lon="-9.09222667">
        <ele>4.0</ele>
        <time>2019-05-16T09:26:51.922Z</time>
      </trkpt>
      <trkpt lat="38.78542167" lon="-9.09224667">
        <ele>4.0</ele>
        <time>2019-05-16T09:26:52.935Z</time>
      </trkpt>
      <trkpt lat="38.78542167" lon="-9.09224667">
        <ele>4.0</ele>
        <time>2019-05-16T09:26:53.931Z</time>
      </trkpt>
      <trkpt lat="38.7855" lon="-9.09226667">
        <ele>4.0</ele>
        <time>2019-05-16T09:26:54.901Z</time>
      </trkpt>
      <trkpt lat="38.7855" lon="-9.09226667">
        <ele>4.0</ele>
        <time>2019-05-16T09:26:55.934Z</time>
      </trkpt>
      <trkpt lat="38.785575" lon="-9.09228833">
        <ele>4.0</ele>
        <time>2019-05-16T09:26:56.903Z</time>
      </trkpt>
      <trkpt lat="38.785575" lon="-9.09228833">
        <ele>4.0</ele>
        <time>2019-05-16T09:26:57.936Z</time>
      </trkpt>
      <trkpt lat="38.78564833" lon="-9.0923">
        <ele>4.0</ele>
        <time>2019-05-16T09:26:58.916Z</time>
      </trkpt>
      <trkpt lat="38.78564833" lon="-9.0923">
        <ele>4.0</ele>
        <time>2019-05-16T09:26:59.904Z</time>
      </trkpt>
      <trkpt lat="38.78571833" lon="-9.092305">
        <ele>5.0</ele>
        <time>2019-05-16T09:27:00.918Z</time>
      </trkpt>
      <trkpt lat="38.78571833" lon="-9.092305">
        <ele>5.0</ele>
        <time>2019-05-16T09:27:01.902Z</time>
      </trkpt>
      <trkpt lat="38.78578167" lon="-9.092315">
        <ele>6.0</ele>
        <time>2019-05-16T09:27:02.916Z</time>
      </trkpt>
      <trkpt lat="38.78578167" lon="-9.092315">
        <ele>6.0</ele>
        <time>2019-05-16T09:27:03.902Z</time>
      </trkpt>
      <trkpt lat="38.785845" lon="-9.09232333">
        <ele>6.0</ele>
        <time>2019-05-16T09:27:04.913Z</time>
      </trkpt>
      <trkpt lat="38.785845" lon="-9.09232333">
        <ele>6.0</ele>
        <time>2019-05-16T09:27:05.900Z</time>
      </trkpt>
      <trkpt lat="38.78591333" lon="-9.092325">
        <ele>6.0</ele>
        <time>2019-05-16T09:27:06.910Z</time>
      </trkpt>
      <trkpt lat="38.78591333" lon="-9.092325">
        <ele>6.0</ele>
        <time>2019-05-16T09:27:07.931Z</time>
      </trkpt>
      <trkpt lat="38.78598333" lon="-9.09233">
        <ele>6.0</ele>
        <time>2019-05-16T09:27:08.910Z</time>
      </trkpt>
      <trkpt lat="38.78598333" lon="-9.09233">
        <ele>6.0</ele>
        <time>2019-05-16T09:27:09.907Z</time>
      </trkpt>
      <trkpt lat="38.78605" lon="-9.09233167">
        <ele>6.0</ele>
        <time>2019-05-16T09:27:10.903Z</time>
      </trkpt>
      <trkpt lat="38.78608167" lon="-9.09232667">
        <ele>6.0</ele>
        <time>2019-05-16T09:27:11.933Z</time>
      </trkpt>
      <trkpt lat="38.78608167" lon="-9.09232667">
        <ele>6.0</ele>
        <time>2019-05-16T09:27:12.907Z</time>
      </trkpt>
      <trkpt lat="38.786145" lon="-9.09232833">
        <ele>6.0</ele>
        <time>2019-05-16T09:27:13.934Z</time>
      </trkpt>
      <trkpt lat="38.786145" lon="-9.09232833">
        <ele>6.0</ele>
        <time>2019-05-16T09:27:14.921Z</time>
      </trkpt>
      <trkpt lat="38.78620667" lon="-9.09232833">
        <ele>7.0</ele>
        <time>2019-05-16T09:27:15.934Z</time>
      </trkpt>
      <trkpt lat="38.78620667" lon="-9.09232833">
        <ele>7.0</ele>
        <time>2019-05-16T09:27:16.912Z</time>
      </trkpt>
      <trkpt lat="38.78626667" lon="-9.092335">
        <ele>7.0</ele>
        <time>2019-05-16T09:27:17.924Z</time>
      </trkpt>
      <trkpt lat="38.78628333" lon="-9.09233333">
        <ele>8.0</ele>
        <time>2019-05-16T09:27:18.913Z</time>
      </trkpt>
      <trkpt lat="38.78628333" lon="-9.09233333">
        <ele>8.0</ele>
        <time>2019-05-16T09:27:19.898Z</time>
      </trkpt>
      <trkpt lat="38.78633333" lon="-9.09233167">
        <ele>10.0</ele>
        <time>2019-05-16T09:27:20.922Z</time>
      </trkpt>
      <trkpt lat="38.78633333" lon="-9.09233167">
        <ele>10.0</ele>
        <time>2019-05-16T09:27:21.919Z</time>
      </trkpt>
      <trkpt lat="38.78638167" lon="-9.09234667">
        <ele>9.0</ele>
        <time>2019-05-16T09:27:22.928Z</time>
      </trkpt>
      <trkpt lat="38.78638167" lon="-9.09234667">
        <ele>9.0</ele>
        <time>2019-05-16T09:27:23.927Z</time>
      </trkpt>
      <trkpt lat="38.78644667" lon="-9.09233833">
        <ele>8.0</ele>
        <time>2019-05-16T09:27:24.911Z</time>
      </trkpt>
      <trkpt lat="38.78644667" lon="-9.09233833">
        <ele>8.0</ele>
        <time>2019-05-16T09:27:25.897Z</time>
      </trkpt>
      <trkpt lat="38.78651333" lon="-9.092335">
        <ele>8.0</ele>
        <time>2019-05-16T09:27:26.904Z</time>
      </trkpt>
      <trkpt lat="38.78651333" lon="-9.092335">
        <ele>8.0</ele>
        <time>2019-05-16T09:27:27.899Z</time>
      </trkpt>
      <trkpt lat="38.786585" lon="-9.09232333">
        <ele>8.0</ele>
        <time>2019-05-16T09:27:28.925Z</time>
      </trkpt>
      <trkpt lat="38.786585" lon="-9.09232333">
        <ele>8.0</ele>
        <time>2019-05-16T09:27:29.919Z</time>
      </trkpt>
      <trkpt lat="38.78666667" lon="-9.09231333">
        <ele>8.0</ele>
        <time>2019-05-16T09:27:30.933Z</time>
      </trkpt>
      <trkpt lat="38.78666667" lon="-9.09231333">
        <ele>8.0</ele>
        <time>2019-05-16T09:27:31.921Z</time>
      </trkpt>
      <trkpt lat="38.78675833" lon="-9.09230167">
        <ele>7.0</ele>
        <time>2019-05-16T09:27:32.932Z</time>
      </trkpt>
      <trkpt lat="38.78675833" lon="-9.09230167">
        <ele>7.0</ele>
        <time>2019-05-16T09:27:33.920Z</time>
      </trkpt>
      <trkpt lat="38.78685" lon="-9.09228833">
        <ele>7.0</ele>
        <time>2019-05-16T09:27:34.933Z</time>
      </trkpt>
      <trkpt lat="38.78685" lon="-9.09228833">
        <ele>7.0</ele>
        <time>2019-05-16T09:27:35.932Z</time>
      </trkpt>
      <trkpt lat="38.786925" lon="-9.09227167">
        <ele>8.0</ele>
        <time>2019-05-16T09:27:36.906Z</time>
      </trkpt>
      <trkpt lat="38.786925" lon="-9.09227167">
        <ele>8.0</ele>
        <time>2019-05-16T09:27:37.897Z</time>
      </trkpt>
      <trkpt lat="38.787" lon="-9.09224333">
        <ele>8.0</ele>
        <time>2019-05-16T09:27:38.905Z</time>
      </trkpt>
      <trkpt lat="38.787" lon="-9.09224333">
        <ele>8.0</ele>
        <time>2019-05-16T09:27:39.912Z</time>
      </trkpt>
      <trkpt lat="38.78706667" lon="-9.09222167">
        <ele>9.0</ele>
        <time>2019-05-16T09:27:40.924Z</time>
      </trkpt>
      <trkpt lat="38.78710333" lon="-9.09221">
        <ele>9.0</ele>
        <time>2019-05-16T09:27:41.901Z</time>
      </trkpt>
      <trkpt lat="38.78714167" lon="-9.09219833">
        <ele>9.0</ele>
        <time>2019-05-16T09:27:42.902Z</time>
      </trkpt>
      <trkpt lat="38.78714167" lon="-9.09219833">
        <ele>9.0</ele>
        <time>2019-05-16T09:27:43.900Z</time>
      </trkpt>
      <trkpt lat="38.78722333" lon="-9.09216667">
        <ele>9.0</ele>
        <time>2019-05-16T09:27:44.910Z</time>
      </trkpt>
      <trkpt lat="38.78722333" lon="-9.09216667">
        <ele>9.0</ele>
        <time>2019-05-16T09:27:45.925Z</time>
      </trkpt>
      <trkpt lat="38.7873" lon="-9.09213167">
        <ele>10.0</ele>
        <time>2019-05-16T09:27:46.908Z</time>
      </trkpt>
      <trkpt lat="38.7873" lon="-9.09213167">
        <ele>10.0</ele>
        <time>2019-05-16T09:27:47.911Z</time>
      </trkpt>
      <trkpt lat="38.78738167" lon="-9.09209833">
        <ele>9.0</ele>
        <time>2019-05-16T09:27:48.933Z</time>
      </trkpt>
      <trkpt lat="38.78738167" lon="-9.09209833">
        <ele>9.0</ele>
        <time>2019-05-16T09:27:49.934Z</time>
      </trkpt>
      <trkpt lat="38.787465" lon="-9.09206167">
        <ele>9.0</ele>
        <time>2019-05-16T09:27:50.902Z</time>
      </trkpt>
      <trkpt lat="38.787465" lon="-9.09206167">
        <ele>9.0</ele>
        <time>2019-05-16T09:27:51.898Z</time>
      </trkpt>
      <trkpt lat="38.787555" lon="-9.09202667">
        <ele>8.0</ele>
        <time>2019-05-16T09:27:52.905Z</time>
      </trkpt>
      <trkpt lat="38.787555" lon="-9.09202667">
        <ele>8.0</ele>
        <time>2019-05-16T09:27:53.900Z</time>
      </trkpt>
      <trkpt lat="38.78765167" lon="-9.09197167">
        <ele>8.0</ele>
        <time>2019-05-16T09:27:54.910Z</time>
      </trkpt>
      <trkpt lat="38.78765167" lon="-9.09197167">
        <ele>8.0</ele>
        <time>2019-05-16T09:27:55.909Z</time>
      </trkpt>
      <trkpt lat="38.78774167" lon="-9.09190667">
        <ele>7.0</ele>
        <time>2019-05-16T09:27:56.917Z</time>
      </trkpt>
      <trkpt lat="38.78774167" lon="-9.09190667">
        <ele>7.0</ele>
        <time>2019-05-16T09:27:57.927Z</time>
      </trkpt>
      <trkpt lat="38.78783167" lon="-9.091845">
        <ele>6.0</ele>
        <time>2019-05-16T09:27:58.915Z</time>
      </trkpt>
      <trkpt lat="38.78783167" lon="-9.091845">
        <ele>6.0</ele>
        <time>2019-05-16T09:27:59.901Z</time>
      </trkpt>
      <trkpt lat="38.78792167" lon="-9.091785">
        <ele>5.0</ele>
        <time>2019-05-16T09:28:00.911Z</time>
      </trkpt>
      <trkpt lat="38.78792167" lon="-9.091785">
        <ele>5.0</ele>
        <time>2019-05-16T09:28:01.899Z</time>
      </trkpt>
      <trkpt lat="38.78801" lon="-9.09172667">
        <ele>5.0</ele>
        <time>2019-05-16T09:28:02.906Z</time>
      </trkpt>
      <trkpt lat="38.78801" lon="-9.09172667">
        <ele>5.0</ele>
        <time>2019-05-16T09:28:03.899Z</time>
      </trkpt>
      <trkpt lat="38.78808667" lon="-9.09166667">
        <ele>5.0</ele>
        <time>2019-05-16T09:28:04.920Z</time>
      </trkpt>
      <trkpt lat="38.78808667" lon="-9.09166667">
        <ele>5.0</ele>
        <time>2019-05-16T09:28:05.919Z</time>
      </trkpt>
      <trkpt lat="38.78813833" lon="-9.09162833">
        <ele>5.0</ele>
        <time>2019-05-16T09:28:06.926Z</time>
      </trkpt>
      <trkpt lat="38.78813833" lon="-9.09162833">
        <ele>5.0</ele>
        <time>2019-05-16T09:28:07.925Z</time>
      </trkpt>
      <trkpt lat="38.78817667" lon="-9.0916">
        <ele>5.0</ele>
        <time>2019-05-16T09:28:08.933Z</time>
      </trkpt>
      <trkpt lat="38.78817667" lon="-9.0916">
        <ele>5.0</ele>
        <time>2019-05-16T09:28:09.899Z</time>
      </trkpt>
      <trkpt lat="38.78823667" lon="-9.09155833">
        <ele>5.0</ele>
        <time>2019-05-16T09:28:10.934Z</time>
      </trkpt>
      <trkpt lat="38.78823667" lon="-9.09155833">
        <ele>5.0</ele>
        <time>2019-05-16T09:28:11.929Z</time>
      </trkpt>
      <trkpt lat="38.78829833" lon="-9.09150333">
        <ele>5.0</ele>
        <time>2019-05-16T09:28:12.898Z</time>
      </trkpt>
      <trkpt lat="38.78829833" lon="-9.09150333">
        <ele>5.0</ele>
        <time>2019-05-16T09:28:13.898Z</time>
      </trkpt>
      <trkpt lat="38.78836333" lon="-9.09144667">
        <ele>6.0</ele>
        <time>2019-05-16T09:28:14.915Z</time>
      </trkpt>
      <trkpt lat="38.78836333" lon="-9.09144667">
        <ele>6.0</ele>
        <time>2019-05-16T09:28:15.936Z</time>
      </trkpt>
      <trkpt lat="38.78842667" lon="-9.091385">
        <ele>6.0</ele>
        <time>2019-05-16T09:28:16.919Z</time>
      </trkpt>
      <trkpt lat="38.78842667" lon="-9.091385">
        <ele>6.0</ele>
        <time>2019-05-16T09:28:17.921Z</time>
      </trkpt>
      <trkpt lat="38.78849167" lon="-9.09131833">
        <ele>5.0</ele>
        <time>2019-05-16T09:28:18.930Z</time>
      </trkpt>
      <trkpt lat="38.78849167" lon="-9.09131833">
        <ele>5.0</ele>
        <time>2019-05-16T09:28:19.906Z</time>
      </trkpt>
      <trkpt lat="38.78855667" lon="-9.09125333">
        <ele>5.0</ele>
        <time>2019-05-16T09:28:20.931Z</time>
      </trkpt>
      <trkpt lat="38.78855667" lon="-9.09125333">
        <ele>5.0</ele>
        <time>2019-05-16T09:28:21.910Z</time>
      </trkpt>
      <trkpt lat="38.78861667" lon="-9.09119">
        <ele>5.0</ele>
        <time>2019-05-16T09:28:22.931Z</time>
      </trkpt>
      <trkpt lat="38.78861667" lon="-9.09119">
        <ele>5.0</ele>
        <time>2019-05-16T09:28:23.924Z</time>
      </trkpt>
      <trkpt lat="38.788675" lon="-9.09113">
        <ele>5.0</ele>
        <time>2019-05-16T09:28:24.900Z</time>
      </trkpt>
      <trkpt lat="38.788675" lon="-9.09113">
        <ele>5.0</ele>
        <time>2019-05-16T09:28:25.905Z</time>
      </trkpt>
      <trkpt lat="38.78873167" lon="-9.09107667">
        <ele>5.0</ele>
        <time>2019-05-16T09:28:26.916Z</time>
      </trkpt>
      <trkpt lat="38.78873167" lon="-9.09107667">
        <ele>5.0</ele>
        <time>2019-05-16T09:28:27.907Z</time>
      </trkpt>
      <trkpt lat="38.78877833" lon="-9.09102">
        <ele>5.0</ele>
        <time>2019-05-16T09:28:28.903Z</time>
      </trkpt>
      <trkpt lat="38.78877833" lon="-9.09102">
        <ele>5.0</ele>
        <time>2019-05-16T09:28:29.918Z</time>
      </trkpt>
      <trkpt lat="38.78882667" lon="-9.09095833">
        <ele>5.0</ele>
        <time>2019-05-16T09:28:30.936Z</time>
      </trkpt>
      <trkpt lat="38.78882667" lon="-9.09095833">
        <ele>5.0</ele>
        <time>2019-05-16T09:28:31.935Z</time>
      </trkpt>
      <trkpt lat="38.78889" lon="-9.09091167">
        <ele>5.0</ele>
        <time>2019-05-16T09:28:32.902Z</time>
      </trkpt>
      <trkpt lat="38.78889" lon="-9.09091167">
        <ele>5.0</ele>
        <time>2019-05-16T09:28:33.933Z</time>
      </trkpt>
      <trkpt lat="38.78896" lon="-9.09089333">
        <ele>5.0</ele>
        <time>2019-05-16T09:28:34.906Z</time>
      </trkpt>
      <trkpt lat="38.78896" lon="-9.09089333">
        <ele>5.0</ele>
        <time>2019-05-16T09:28:35.930Z</time>
      </trkpt>
      <trkpt lat="38.78902667" lon="-9.09089667">
        <ele>5.0</ele>
        <time>2019-05-16T09:28:36.963Z</time>
      </trkpt>
      <trkpt lat="38.78902667" lon="-9.09089667">
        <ele>5.0</ele>
        <time>2019-05-16T09:28:37.903Z</time>
      </trkpt>
      <trkpt lat="38.78908667" lon="-9.09087833">
        <ele>5.0</ele>
        <time>2019-05-16T09:28:38.911Z</time>
      </trkpt>
      <trkpt lat="38.78908667" lon="-9.09087833">
        <ele>5.0</ele>
        <time>2019-05-16T09:28:39.921Z</time>
      </trkpt>
      <trkpt lat="38.789145" lon="-9.09087">
        <ele>5.0</ele>
        <time>2019-05-16T09:28:40.936Z</time>
      </trkpt>
      <trkpt lat="38.789145" lon="-9.09087">
        <ele>5.0</ele>
        <time>2019-05-16T09:28:41.921Z</time>
      </trkpt>
      <trkpt lat="38.78920333" lon="-9.09085667">
        <ele>4.0</ele>
        <time>2019-05-16T09:28:42.936Z</time>
      </trkpt>
      <trkpt lat="38.78920333" lon="-9.09085667">
        <ele>4.0</ele>
        <time>2019-05-16T09:28:43.922Z</time>
      </trkpt>
      <trkpt lat="38.78926667" lon="-9.09084667">
        <ele>4.0</ele>
        <time>2019-05-16T09:28:44.930Z</time>
      </trkpt>
      <trkpt lat="38.78926667" lon="-9.09084667">
        <ele>4.0</ele>
        <time>2019-05-16T09:28:45.907Z</time>
      </trkpt>
      <trkpt lat="38.78933" lon="-9.09083333">
        <ele>4.0</ele>
        <time>2019-05-16T09:28:46.931Z</time>
      </trkpt>
      <trkpt lat="38.78933" lon="-9.09083333">
        <ele>4.0</ele>
        <time>2019-05-16T09:28:47.898Z</time>
      </trkpt>
      <trkpt lat="38.789395" lon="-9.09082">
        <ele>4.0</ele>
        <time>2019-05-16T09:28:48.910Z</time>
      </trkpt>
      <trkpt lat="38.789395" lon="-9.09082">
        <ele>4.0</ele>
        <time>2019-05-16T09:28:49.929Z</time>
      </trkpt>
      <trkpt lat="38.78946167" lon="-9.090805">
        <ele>3.0</ele>
        <time>2019-05-16T09:28:50.920Z</time>
      </trkpt>
      <trkpt lat="38.78946167" lon="-9.090805">
        <ele>3.0</ele>
        <time>2019-05-16T09:28:51.897Z</time>
      </trkpt>
      <trkpt lat="38.78952833" lon="-9.09079">
        <ele>3.0</ele>
        <time>2019-05-16T09:28:52.925Z</time>
      </trkpt>
      <trkpt lat="38.78952833" lon="-9.09079">
        <ele>3.0</ele>
        <time>2019-05-16T09:28:53.917Z</time>
      </trkpt>
      <trkpt lat="38.78959333" lon="-9.09077667">
        <ele>3.0</ele>
        <time>2019-05-16T09:28:54.928Z</time>
      </trkpt>
      <trkpt lat="38.78959333" lon="-9.09077667">
        <ele>3.0</ele>
        <time>2019-05-16T09:28:55.912Z</time>
      </trkpt>
      <trkpt lat="38.78965833" lon="-9.09076">
        <ele>3.0</ele>
        <time>2019-05-16T09:28:56.910Z</time>
      </trkpt>
      <trkpt lat="38.78965833" lon="-9.09076">
        <ele>3.0</ele>
        <time>2019-05-16T09:28:57.927Z</time>
      </trkpt>
      <trkpt lat="38.78972333" lon="-9.09074">
        <ele>3.0</ele>
        <time>2019-05-16T09:28:58.935Z</time>
      </trkpt>
      <trkpt lat="38.78972333" lon="-9.09074">
        <ele>3.0</ele>
        <time>2019-05-16T09:28:59.910Z</time>
      </trkpt>
      <trkpt lat="38.78978667" lon="-9.09072167">
        <ele>3.0</ele>
        <time>2019-05-16T09:29:00.923Z</time>
      </trkpt>
      <trkpt lat="38.78978667" lon="-9.09072167">
        <ele>3.0</ele>
        <time>2019-05-16T09:29:01.918Z</time>
      </trkpt>
      <trkpt lat="38.78985333" lon="-9.09070167">
        <ele>3.0</ele>
        <time>2019-05-16T09:29:02.929Z</time>
      </trkpt>
      <trkpt lat="38.78985333" lon="-9.09070167">
        <ele>3.0</ele>
        <time>2019-05-16T09:29:03.931Z</time>
      </trkpt>
      <trkpt lat="38.78992333" lon="-9.09068167">
        <ele>3.0</ele>
        <time>2019-05-16T09:29:04.907Z</time>
      </trkpt>
      <trkpt lat="38.78992333" lon="-9.09068167">
        <ele>3.0</ele>
        <time>2019-05-16T09:29:05.931Z</time>
      </trkpt>
      <trkpt lat="38.78999333" lon="-9.09065833">
        <ele>2.0</ele>
        <time>2019-05-16T09:29:06.901Z</time>
      </trkpt>
      <trkpt lat="38.78999333" lon="-9.09065833">
        <ele>2.0</ele>
        <time>2019-05-16T09:29:07.932Z</time>
      </trkpt>
      <trkpt lat="38.790065" lon="-9.09063333">
        <ele>2.0</ele>
        <time>2019-05-16T09:29:08.901Z</time>
      </trkpt>
      <trkpt lat="38.790065" lon="-9.09063333">
        <ele>2.0</ele>
        <time>2019-05-16T09:29:09.925Z</time>
      </trkpt>
      <trkpt lat="38.79013833" lon="-9.09060833">
        <ele>2.0</ele>
        <time>2019-05-16T09:29:10.934Z</time>
      </trkpt>
      <trkpt lat="38.79013833" lon="-9.09060833">
        <ele>2.0</ele>
        <time>2019-05-16T09:29:11.930Z</time>
      </trkpt>
      <trkpt lat="38.79021167" lon="-9.09057833">
        <ele>2.0</ele>
        <time>2019-05-16T09:29:12.900Z</time>
      </trkpt>
      <trkpt lat="38.79021167" lon="-9.09057833">
        <ele>2.0</ele>
        <time>2019-05-16T09:29:13.900Z</time>
      </trkpt>
      <trkpt lat="38.790285" lon="-9.090545">
        <ele>2.0</ele>
        <time>2019-05-16T09:29:14.912Z</time>
      </trkpt>
      <trkpt lat="38.790285" lon="-9.090545">
        <ele>2.0</ele>
        <time>2019-05-16T09:29:15.899Z</time>
      </trkpt>
      <trkpt lat="38.79035667" lon="-9.090515">
        <ele>2.0</ele>
        <time>2019-05-16T09:29:16.908Z</time>
      </trkpt>
      <trkpt lat="38.79035667" lon="-9.090515">
        <ele>2.0</ele>
        <time>2019-05-16T09:29:17.901Z</time>
      </trkpt>
      <trkpt lat="38.79043" lon="-9.09047833">
        <ele>2.0</ele>
        <time>2019-05-16T09:29:18.912Z</time>
      </trkpt>
      <trkpt lat="38.79043" lon="-9.09047833">
        <ele>2.0</ele>
        <time>2019-05-16T09:29:19.934Z</time>
      </trkpt>
      <trkpt lat="38.79050167" lon="-9.09044833">
        <ele>2.0</ele>
        <time>2019-05-16T09:29:20.930Z</time>
      </trkpt>
      <trkpt lat="38.79050167" lon="-9.09044833">
        <ele>2.0</ele>
        <time>2019-05-16T09:29:21.921Z</time>
      </trkpt>
      <trkpt lat="38.79057" lon="-9.09041667">
        <ele>2.0</ele>
        <time>2019-05-16T09:29:22.906Z</time>
      </trkpt>
      <trkpt lat="38.79057" lon="-9.09041667">
        <ele>2.0</ele>
        <time>2019-05-16T09:29:23.921Z</time>
      </trkpt>
      <trkpt lat="38.79064" lon="-9.09038833">
        <ele>2.0</ele>
        <time>2019-05-16T09:29:24.931Z</time>
      </trkpt>
      <trkpt lat="38.79064" lon="-9.09038833">
        <ele>2.0</ele>
        <time>2019-05-16T09:29:25.918Z</time>
      </trkpt>
      <trkpt lat="38.79070667" lon="-9.090365">
        <ele>2.0</ele>
        <time>2019-05-16T09:29:26.931Z</time>
      </trkpt>
      <trkpt lat="38.79070667" lon="-9.090365">
        <ele>2.0</ele>
        <time>2019-05-16T09:29:27.919Z</time>
      </trkpt>
      <trkpt lat="38.79077833" lon="-9.09035">
        <ele>2.0</ele>
        <time>2019-05-16T09:29:28.929Z</time>
      </trkpt>
      <trkpt lat="38.79077833" lon="-9.09035">
        <ele>2.0</ele>
        <time>2019-05-16T09:29:29.918Z</time>
      </trkpt>
      <trkpt lat="38.79084833" lon="-9.09034333">
        <ele>2.0</ele>
        <time>2019-05-16T09:29:30.928Z</time>
      </trkpt>
      <trkpt lat="38.79084833" lon="-9.09034333">
        <ele>2.0</ele>
        <time>2019-05-16T09:29:31.903Z</time>
      </trkpt>
      <trkpt lat="38.79091833" lon="-9.090345">
        <ele>2.0</ele>
        <time>2019-05-16T09:29:32.914Z</time>
      </trkpt>
      <trkpt lat="38.79091833" lon="-9.090345">
        <ele>2.0</ele>
        <time>2019-05-16T09:29:33.929Z</time>
      </trkpt>
      <trkpt lat="38.790985" lon="-9.090355">
        <ele>2.0</ele>
        <time>2019-05-16T09:29:34.936Z</time>
      </trkpt>
      <trkpt lat="38.790985" lon="-9.090355">
        <ele>2.0</ele>
        <time>2019-05-16T09:29:35.919Z</time>
      </trkpt>
      <trkpt lat="38.79105167" lon="-9.09036667">
        <ele>2.0</ele>
        <time>2019-05-16T09:29:36.910Z</time>
      </trkpt>
      <trkpt lat="38.79105167" lon="-9.09036667">
        <ele>2.0</ele>
        <time>2019-05-16T09:29:37.909Z</time>
      </trkpt>
      <trkpt lat="38.79111667" lon="-9.09037833">
        <ele>2.0</ele>
        <time>2019-05-16T09:29:38.925Z</time>
      </trkpt>
      <trkpt lat="38.79111667" lon="-9.09037833">
        <ele>2.0</ele>
        <time>2019-05-16T09:29:39.923Z</time>
      </trkpt>
      <trkpt lat="38.79117833" lon="-9.09040333">
        <ele>2.0</ele>
        <time>2019-05-16T09:29:40.909Z</time>
      </trkpt>
      <trkpt lat="38.79120833" lon="-9.090415">
        <ele>2.0</ele>
        <time>2019-05-16T09:29:41.923Z</time>
      </trkpt>
      <trkpt lat="38.79123833" lon="-9.09042333">
        <ele>2.0</ele>
        <time>2019-05-16T09:29:42.916Z</time>
      </trkpt>
      <trkpt lat="38.79123833" lon="-9.09042333">
        <ele>2.0</ele>
        <time>2019-05-16T09:29:43.907Z</time>
      </trkpt>
      <trkpt lat="38.7913" lon="-9.09043667">
        <ele>2.0</ele>
        <time>2019-05-16T09:29:44.924Z</time>
      </trkpt>
      <trkpt lat="38.7913" lon="-9.09043667">
        <ele>2.0</ele>
        <time>2019-05-16T09:29:45.923Z</time>
      </trkpt>
      <trkpt lat="38.79136333" lon="-9.09044667">
        <ele>2.0</ele>
        <time>2019-05-16T09:29:46.932Z</time>
      </trkpt>
      <trkpt lat="38.79136333" lon="-9.09044667">
        <ele>2.0</ele>
        <time>2019-05-16T09:29:47.912Z</time>
      </trkpt>
      <trkpt lat="38.79142833" lon="-9.09045833">
        <ele>2.0</ele>
        <time>2019-05-16T09:29:48.932Z</time>
      </trkpt>
      <trkpt lat="38.79142833" lon="-9.09045833">
        <ele>2.0</ele>
        <time>2019-05-16T09:29:49.931Z</time>
      </trkpt>
      <trkpt lat="38.79149167" lon="-9.09047">
        <ele>2.0</ele>
        <time>2019-05-16T09:29:50.904Z</time>
      </trkpt>
      <trkpt lat="38.79149167" lon="-9.09047">
        <ele>2.0</ele>
        <time>2019-05-16T09:29:51.913Z</time>
      </trkpt>
      <trkpt lat="38.79155667" lon="-9.09048">
        <ele>2.0</ele>
        <time>2019-05-16T09:29:52.923Z</time>
      </trkpt>
      <trkpt lat="38.79155667" lon="-9.09048">
        <ele>2.0</ele>
        <time>2019-05-16T09:29:53.901Z</time>
      </trkpt>
      <trkpt lat="38.79161833" lon="-9.09048833">
        <ele>2.0</ele>
        <time>2019-05-16T09:29:54.929Z</time>
      </trkpt>
      <trkpt lat="38.79161833" lon="-9.09048833">
        <ele>2.0</ele>
        <time>2019-05-16T09:29:55.911Z</time>
      </trkpt>
      <trkpt lat="38.79168167" lon="-9.0905">
        <ele>2.0</ele>
        <time>2019-05-16T09:29:56.928Z</time>
      </trkpt>
      <trkpt lat="38.79168167" lon="-9.0905">
        <ele>2.0</ele>
        <time>2019-05-16T09:29:57.902Z</time>
      </trkpt>
      <trkpt lat="38.79174167" lon="-9.09051667">
        <ele>2.0</ele>
        <time>2019-05-16T09:29:58.915Z</time>
      </trkpt>
      <trkpt lat="38.79174167" lon="-9.09051667">
        <ele>2.0</ele>
        <time>2019-05-16T09:29:59.906Z</time>
      </trkpt>
      <trkpt lat="38.79180333" lon="-9.09053167">
        <ele>2.0</ele>
        <time>2019-05-16T09:30:00.917Z</time>
      </trkpt>
      <trkpt lat="38.79180333" lon="-9.09053167">
        <ele>2.0</ele>
        <time>2019-05-16T09:30:01.919Z</time>
      </trkpt>
      <trkpt lat="38.79186667" lon="-9.09055">
        <ele>2.0</ele>
        <time>2019-05-16T09:30:02.932Z</time>
      </trkpt>
      <trkpt lat="38.79189833" lon="-9.09056167">
        <ele>2.0</ele>
        <time>2019-05-16T09:30:03.903Z</time>
      </trkpt>
      <trkpt lat="38.79189833" lon="-9.09056167">
        <ele>2.0</ele>
        <time>2019-05-16T09:30:04.933Z</time>
      </trkpt>
      <trkpt lat="38.79196167" lon="-9.09059167">
        <ele>2.0</ele>
        <time>2019-05-16T09:30:05.910Z</time>
      </trkpt>
      <trkpt lat="38.79199333" lon="-9.09061">
        <ele>2.0</ele>
        <time>2019-05-16T09:30:06.911Z</time>
      </trkpt>
      <trkpt lat="38.79199333" lon="-9.09061">
        <ele>2.0</ele>
        <time>2019-05-16T09:30:07.900Z</time>
      </trkpt>
      <trkpt lat="38.792055" lon="-9.09065333">
        <ele>2.0</ele>
        <time>2019-05-16T09:30:08.909Z</time>
      </trkpt>
      <trkpt lat="38.792055" lon="-9.09065333">
        <ele>2.0</ele>
        <time>2019-05-16T09:30:09.922Z</time>
      </trkpt>
      <trkpt lat="38.79211167" lon="-9.0907">
        <ele>2.0</ele>
        <time>2019-05-16T09:30:10.936Z</time>
      </trkpt>
      <trkpt lat="38.79211167" lon="-9.0907">
        <ele>2.0</ele>
        <time>2019-05-16T09:30:11.930Z</time>
      </trkpt>
      <trkpt lat="38.79217" lon="-9.09073">
        <ele>2.0</ele>
        <time>2019-05-16T09:30:12.899Z</time>
      </trkpt>
      <trkpt lat="38.79217" lon="-9.09073">
        <ele>2.0</ele>
        <time>2019-05-16T09:30:13.936Z</time>
      </trkpt>
      <trkpt lat="38.79222667" lon="-9.09072333">
        <ele>2.0</ele>
        <time>2019-05-16T09:30:14.912Z</time>
      </trkpt>
      <trkpt lat="38.79222667" lon="-9.09072333">
        <ele>2.0</ele>
        <time>2019-05-16T09:30:15.899Z</time>
      </trkpt>
      <trkpt lat="38.79227167" lon="-9.090675">
        <ele>2.0</ele>
        <time>2019-05-16T09:30:16.911Z</time>
      </trkpt>
      <trkpt lat="38.79227167" lon="-9.090675">
        <ele>2.0</ele>
        <time>2019-05-16T09:30:17.927Z</time>
      </trkpt>
      <trkpt lat="38.79232167" lon="-9.09064333">
        <ele>2.0</ele>
        <time>2019-05-16T09:30:18.937Z</time>
      </trkpt>
      <trkpt lat="38.79232167" lon="-9.09064333">
        <ele>2.0</ele>
        <time>2019-05-16T09:30:19.916Z</time>
      </trkpt>
      <trkpt lat="38.79238167" lon="-9.09064333">
        <ele>2.0</ele>
        <time>2019-05-16T09:30:20.938Z</time>
      </trkpt>
      <trkpt lat="38.79238167" lon="-9.09064333">
        <ele>2.0</ele>
        <time>2019-05-16T09:30:21.908Z</time>
      </trkpt>
      <trkpt lat="38.79244333" lon="-9.09064">
        <ele>2.0</ele>
        <time>2019-05-16T09:30:22.926Z</time>
      </trkpt>
      <trkpt lat="38.79247667" lon="-9.09064">
        <ele>2.0</ele>
        <time>2019-05-16T09:30:23.904Z</time>
      </trkpt>
      <trkpt lat="38.79251" lon="-9.09064">
        <ele>2.0</ele>
        <time>2019-05-16T09:30:24.935Z</time>
      </trkpt>
      <trkpt lat="38.79251" lon="-9.09064">
        <ele>2.0</ele>
        <time>2019-05-16T09:30:25.920Z</time>
      </trkpt>
      <trkpt lat="38.79257667" lon="-9.09063167">
        <ele>2.0</ele>
        <time>2019-05-16T09:30:26.929Z</time>
      </trkpt>
      <trkpt lat="38.79257667" lon="-9.09063167">
        <ele>2.0</ele>
        <time>2019-05-16T09:30:27.902Z</time>
      </trkpt>
      <trkpt lat="38.792645" lon="-9.090625">
        <ele>2.0</ele>
        <time>2019-05-16T09:30:28.912Z</time>
      </trkpt>
      <trkpt lat="38.79267667" lon="-9.09062167">
        <ele>2.0</ele>
        <time>2019-05-16T09:30:29.921Z</time>
      </trkpt>
      <trkpt lat="38.79271" lon="-9.09061833">
        <ele>2.0</ele>
        <time>2019-05-16T09:30:30.912Z</time>
      </trkpt>
      <trkpt lat="38.79271" lon="-9.09061833">
        <ele>2.0</ele>
        <time>2019-05-16T09:30:31.928Z</time>
      </trkpt>
      <trkpt lat="38.79277167" lon="-9.09061833">
        <ele>2.0</ele>
        <time>2019-05-16T09:30:32.918Z</time>
      </trkpt>
      <trkpt lat="38.79277167" lon="-9.09061833">
        <ele>2.0</ele>
        <time>2019-05-16T09:30:33.909Z</time>
      </trkpt>
      <trkpt lat="38.792835" lon="-9.090615">
        <ele>2.0</ele>
        <time>2019-05-16T09:30:34.923Z</time>
      </trkpt>
      <trkpt lat="38.79286667" lon="-9.09061333">
        <ele>1.0</ele>
        <time>2019-05-16T09:30:35.936Z</time>
      </trkpt>
      <trkpt lat="38.79286667" lon="-9.09061333">
        <ele>1.0</ele>
        <time>2019-05-16T09:30:36.919Z</time>
      </trkpt>
      <trkpt lat="38.79292833" lon="-9.09060167">
        <ele>1.0</ele>
        <time>2019-05-16T09:30:37.932Z</time>
      </trkpt>
      <trkpt lat="38.79292833" lon="-9.09060167">
        <ele>1.0</ele>
        <time>2019-05-16T09:30:38.922Z</time>
      </trkpt>
      <trkpt lat="38.79299333" lon="-9.09060167">
        <ele>1.0</ele>
        <time>2019-05-16T09:30:39.930Z</time>
      </trkpt>
      <trkpt lat="38.79299333" lon="-9.09060167">
        <ele>1.0</ele>
        <time>2019-05-16T09:30:40.911Z</time>
      </trkpt>
      <trkpt lat="38.79305833" lon="-9.09060333">
        <ele>1.0</ele>
        <time>2019-05-16T09:30:41.923Z</time>
      </trkpt>
      <trkpt lat="38.79309" lon="-9.09060333">
        <ele>1.0</ele>
        <time>2019-05-16T09:30:42.932Z</time>
      </trkpt>
      <trkpt lat="38.79309" lon="-9.09060333">
        <ele>1.0</ele>
        <time>2019-05-16T09:30:43.915Z</time>
      </trkpt>
      <trkpt lat="38.793155" lon="-9.0906">
        <ele>1.0</ele>
        <time>2019-05-16T09:30:44.923Z</time>
      </trkpt>
      <trkpt lat="38.793155" lon="-9.0906">
        <ele>1.0</ele>
        <time>2019-05-16T09:30:45.906Z</time>
      </trkpt>
      <trkpt lat="38.79322" lon="-9.090595">
        <ele>2.0</ele>
        <time>2019-05-16T09:30:46.928Z</time>
      </trkpt>
      <trkpt lat="38.79325333" lon="-9.09059333">
        <ele>2.0</ele>
        <time>2019-05-16T09:30:47.933Z</time>
      </trkpt>
      <trkpt lat="38.79328667" lon="-9.09059167">
        <ele>2.0</ele>
        <time>2019-05-16T09:30:48.933Z</time>
      </trkpt>
      <trkpt lat="38.79328667" lon="-9.09059167">
        <ele>2.0</ele>
        <time>2019-05-16T09:30:49.902Z</time>
      </trkpt>
      <trkpt lat="38.79335667" lon="-9.09058833">
        <ele>2.0</ele>
        <time>2019-05-16T09:30:50.910Z</time>
      </trkpt>
      <trkpt lat="38.79335667" lon="-9.09058833">
        <ele>2.0</ele>
        <time>2019-05-16T09:30:51.934Z</time>
      </trkpt>
      <trkpt lat="38.79342833" lon="-9.090585">
        <ele>2.0</ele>
        <time>2019-05-16T09:30:52.902Z</time>
      </trkpt>
      <trkpt lat="38.79342833" lon="-9.090585">
        <ele>2.0</ele>
        <time>2019-05-16T09:30:53.934Z</time>
      </trkpt>
      <trkpt lat="38.7935" lon="-9.09058667">
        <ele>2.0</ele>
        <time>2019-05-16T09:30:54.923Z</time>
      </trkpt>
      <trkpt lat="38.7935" lon="-9.09058667">
        <ele>2.0</ele>
        <time>2019-05-16T09:30:55.934Z</time>
      </trkpt>
      <trkpt lat="38.79356667" lon="-9.09058333">
        <ele>2.0</ele>
        <time>2019-05-16T09:30:56.902Z</time>
      </trkpt>
      <trkpt lat="38.79356667" lon="-9.09058333">
        <ele>2.0</ele>
        <time>2019-05-16T09:30:57.928Z</time>
      </trkpt>
      <trkpt lat="38.793635" lon="-9.09058">
        <ele>2.0</ele>
        <time>2019-05-16T09:30:58.905Z</time>
      </trkpt>
      <trkpt lat="38.79366833" lon="-9.09058">
        <ele>2.0</ele>
        <time>2019-05-16T09:30:59.936Z</time>
      </trkpt>
      <trkpt lat="38.79370167" lon="-9.09057833">
        <ele>2.0</ele>
        <time>2019-05-16T09:31:00.897Z</time>
      </trkpt>
      <trkpt lat="38.79370167" lon="-9.09057833">
        <ele>2.0</ele>
        <time>2019-05-16T09:31:01.916Z</time>
      </trkpt>
      <trkpt lat="38.79377167" lon="-9.090575">
        <ele>2.0</ele>
        <time>2019-05-16T09:31:02.924Z</time>
      </trkpt>
      <trkpt lat="38.79377167" lon="-9.090575">
        <ele>2.0</ele>
        <time>2019-05-16T09:31:03.928Z</time>
      </trkpt>
      <trkpt lat="38.79384" lon="-9.09057667">
        <ele>2.0</ele>
        <time>2019-05-16T09:31:04.900Z</time>
      </trkpt>
      <trkpt lat="38.79384" lon="-9.09057667">
        <ele>2.0</ele>
        <time>2019-05-16T09:31:05.902Z</time>
      </trkpt>
      <trkpt lat="38.79391167" lon="-9.09057833">
        <ele>1.0</ele>
        <time>2019-05-16T09:31:06.932Z</time>
      </trkpt>
      <trkpt lat="38.79391167" lon="-9.09057833">
        <ele>1.0</ele>
        <time>2019-05-16T09:31:07.929Z</time>
      </trkpt>
      <trkpt lat="38.79398333" lon="-9.09058833">
        <ele>1.0</ele>
        <time>2019-05-16T09:31:08.899Z</time>
      </trkpt>
      <trkpt lat="38.79398333" lon="-9.09058833">
        <ele>1.0</ele>
        <time>2019-05-16T09:31:09.922Z</time>
      </trkpt>
      <trkpt lat="38.79404167" lon="-9.09063333">
        <ele>1.0</ele>
        <time>2019-05-16T09:31:10.931Z</time>
      </trkpt>
      <trkpt lat="38.79404167" lon="-9.09063333">
        <ele>1.0</ele>
        <time>2019-05-16T09:31:11.924Z</time>
      </trkpt>
      <trkpt lat="38.79407833" lon="-9.09070667">
        <ele>2.0</ele>
        <time>2019-05-16T09:31:12.913Z</time>
      </trkpt>
      <trkpt lat="38.79407833" lon="-9.09070667">
        <ele>2.0</ele>
        <time>2019-05-16T09:31:13.904Z</time>
      </trkpt>
      <trkpt lat="38.79412167" lon="-9.090765">
        <ele>2.0</ele>
        <time>2019-05-16T09:31:14.920Z</time>
      </trkpt>
      <trkpt lat="38.79412167" lon="-9.090765">
        <ele>2.0</ele>
        <time>2019-05-16T09:31:15.898Z</time>
      </trkpt>
      <trkpt lat="38.79417167" lon="-9.09081333">
        <ele>3.0</ele>
        <time>2019-05-16T09:31:16.921Z</time>
      </trkpt>
      <trkpt lat="38.79417167" lon="-9.09081333">
        <ele>3.0</ele>
        <time>2019-05-16T09:31:17.920Z</time>
      </trkpt>
      <trkpt lat="38.794225" lon="-9.09084167">
        <ele>3.0</ele>
        <time>2019-05-16T09:31:18.935Z</time>
      </trkpt>
      <trkpt lat="38.794225" lon="-9.09084167">
        <ele>3.0</ele>
        <time>2019-05-16T09:31:19.912Z</time>
      </trkpt>
      <trkpt lat="38.79428333" lon="-9.090845">
        <ele>3.0</ele>
        <time>2019-05-16T09:31:20.908Z</time>
      </trkpt>
      <trkpt lat="38.79428333" lon="-9.090845">
        <ele>3.0</ele>
        <time>2019-05-16T09:31:21.901Z</time>
      </trkpt>
      <trkpt lat="38.79434167" lon="-9.09085167">
        <ele>3.0</ele>
        <time>2019-05-16T09:31:22.920Z</time>
      </trkpt>
      <trkpt lat="38.79434167" lon="-9.09085167">
        <ele>3.0</ele>
        <time>2019-05-16T09:31:23.910Z</time>
      </trkpt>
      <trkpt lat="38.794405" lon="-9.09086167">
        <ele>3.0</ele>
        <time>2019-05-16T09:31:24.933Z</time>
      </trkpt>
      <trkpt lat="38.794405" lon="-9.09086167">
        <ele>3.0</ele>
        <time>2019-05-16T09:31:25.912Z</time>
      </trkpt>
      <trkpt lat="38.79446833" lon="-9.09088167">
        <ele>3.0</ele>
        <time>2019-05-16T09:31:26.935Z</time>
      </trkpt>
      <trkpt lat="38.79446833" lon="-9.09088167">
        <ele>3.0</ele>
        <time>2019-05-16T09:31:27.897Z</time>
      </trkpt>
      <trkpt lat="38.79453167" lon="-9.09090833">
        <ele>3.0</ele>
        <time>2019-05-16T09:31:28.912Z</time>
      </trkpt>
      <trkpt lat="38.79453167" lon="-9.09090833">
        <ele>3.0</ele>
        <time>2019-05-16T09:31:29.934Z</time>
      </trkpt>
      <trkpt lat="38.79458667" lon="-9.09095833">
        <ele>3.0</ele>
        <time>2019-05-16T09:31:30.911Z</time>
      </trkpt>
      <trkpt lat="38.79458667" lon="-9.09095833">
        <ele>3.0</ele>
        <time>2019-05-16T09:31:31.903Z</time>
      </trkpt>
      <trkpt lat="38.79463333" lon="-9.09101333">
        <ele>3.0</ele>
        <time>2019-05-16T09:31:32.912Z</time>
      </trkpt>
      <trkpt lat="38.79463333" lon="-9.09101333">
        <ele>3.0</ele>
        <time>2019-05-16T09:31:33.911Z</time>
      </trkpt>
      <trkpt lat="38.79468" lon="-9.09106333">
        <ele>3.0</ele>
        <time>2019-05-16T09:31:34.932Z</time>
      </trkpt>
      <trkpt lat="38.79468" lon="-9.09106333">
        <ele>3.0</ele>
        <time>2019-05-16T09:31:35.928Z</time>
      </trkpt>
      <trkpt lat="38.794725" lon="-9.091105">
        <ele>3.0</ele>
        <time>2019-05-16T09:31:36.923Z</time>
      </trkpt>
      <trkpt lat="38.794725" lon="-9.091105">
        <ele>3.0</ele>
        <time>2019-05-16T09:31:37.912Z</time>
      </trkpt>
      <trkpt lat="38.79477167" lon="-9.09113667">
        <ele>3.0</ele>
        <time>2019-05-16T09:31:38.936Z</time>
      </trkpt>
      <trkpt lat="38.79477167" lon="-9.09113667">
        <ele>3.0</ele>
        <time>2019-05-16T09:31:39.922Z</time>
      </trkpt>
      <trkpt lat="38.79482333" lon="-9.09116167">
        <ele>3.0</ele>
        <time>2019-05-16T09:31:40.898Z</time>
      </trkpt>
      <trkpt lat="38.79482333" lon="-9.09116167">
        <ele>3.0</ele>
        <time>2019-05-16T09:31:41.903Z</time>
      </trkpt>
      <trkpt lat="38.79488" lon="-9.09117667">
        <ele>3.0</ele>
        <time>2019-05-16T09:31:42.914Z</time>
      </trkpt>
      <trkpt lat="38.79488" lon="-9.09117667">
        <ele>3.0</ele>
        <time>2019-05-16T09:31:43.921Z</time>
      </trkpt>
      <trkpt lat="38.79494333" lon="-9.09118333">
        <ele>3.0</ele>
        <time>2019-05-16T09:31:44.898Z</time>
      </trkpt>
      <trkpt lat="38.79494333" lon="-9.09118333">
        <ele>3.0</ele>
        <time>2019-05-16T09:31:45.915Z</time>
      </trkpt>
      <trkpt lat="38.79500333" lon="-9.09119167">
        <ele>3.0</ele>
        <time>2019-05-16T09:31:46.927Z</time>
      </trkpt>
      <trkpt lat="38.79500333" lon="-9.09119167">
        <ele>3.0</ele>
        <time>2019-05-16T09:31:47.897Z</time>
      </trkpt>
      <trkpt lat="38.79506333" lon="-9.09120667">
        <ele>3.0</ele>
        <time>2019-05-16T09:31:48.905Z</time>
      </trkpt>
      <trkpt lat="38.79506333" lon="-9.09120667">
        <ele>3.0</ele>
        <time>2019-05-16T09:31:49.929Z</time>
      </trkpt>
      <trkpt lat="38.79512167" lon="-9.09121667">
        <ele>3.0</ele>
        <time>2019-05-16T09:31:50.904Z</time>
      </trkpt>
      <trkpt lat="38.79512167" lon="-9.09121667">
        <ele>3.0</ele>
        <time>2019-05-16T09:31:51.933Z</time>
      </trkpt>
      <trkpt lat="38.79518333" lon="-9.091225">
        <ele>3.0</ele>
        <time>2019-05-16T09:31:52.917Z</time>
      </trkpt>
      <trkpt lat="38.79518333" lon="-9.091225">
        <ele>3.0</ele>
        <time>2019-05-16T09:31:53.926Z</time>
      </trkpt>
      <trkpt lat="38.79524333" lon="-9.09123667">
        <ele>3.0</ele>
        <time>2019-05-16T09:31:54.914Z</time>
      </trkpt>
      <trkpt lat="38.79524333" lon="-9.09123667">
        <ele>3.0</ele>
        <time>2019-05-16T09:31:55.932Z</time>
      </trkpt>
      <trkpt lat="38.79530667" lon="-9.09125167">
        <ele>3.0</ele>
        <time>2019-05-16T09:31:56.906Z</time>
      </trkpt>
      <trkpt lat="38.79533667" lon="-9.09126">
        <ele>3.0</ele>
        <time>2019-05-16T09:31:57.935Z</time>
      </trkpt>
      <trkpt lat="38.79533667" lon="-9.09126">
        <ele>3.0</ele>
        <time>2019-05-16T09:31:58.921Z</time>
      </trkpt>
      <trkpt lat="38.79539667" lon="-9.09127833">
        <ele>3.0</ele>
        <time>2019-05-16T09:31:59.931Z</time>
      </trkpt>
      <trkpt lat="38.79542667" lon="-9.09128833">
        <ele>2.0</ele>
        <time>2019-05-16T09:32:00.932Z</time>
      </trkpt>
      <trkpt lat="38.79542667" lon="-9.09128833">
        <ele>2.0</ele>
        <time>2019-05-16T09:32:01.933Z</time>
      </trkpt>
      <trkpt lat="38.79548667" lon="-9.09130667">
        <ele>2.0</ele>
        <time>2019-05-16T09:32:02.904Z</time>
      </trkpt>
      <trkpt lat="38.79548667" lon="-9.09130667">
        <ele>2.0</ele>
        <time>2019-05-16T09:32:03.932Z</time>
      </trkpt>
      <trkpt lat="38.79554167" lon="-9.09134">
        <ele>2.0</ele>
        <time>2019-05-16T09:32:04.904Z</time>
      </trkpt>
      <trkpt lat="38.79556833" lon="-9.09136">
        <ele>2.0</ele>
        <time>2019-05-16T09:32:05.925Z</time>
      </trkpt>
      <trkpt lat="38.79559333" lon="-9.09138333">
        <ele>2.0</ele>
        <time>2019-05-16T09:32:06.917Z</time>
      </trkpt>
      <trkpt lat="38.79559333" lon="-9.09138333">
        <ele>2.0</ele>
        <time>2019-05-16T09:32:07.926Z</time>
      </trkpt>
      <trkpt lat="38.79564333" lon="-9.09142833">
        <ele>2.0</ele>
        <time>2019-05-16T09:32:08.900Z</time>
      </trkpt>
      <trkpt lat="38.79564333" lon="-9.09142833">
        <ele>2.0</ele>
        <time>2019-05-16T09:32:09.931Z</time>
      </trkpt>
      <trkpt lat="38.795695" lon="-9.09147167">
        <ele>2.0</ele>
        <time>2019-05-16T09:32:10.913Z</time>
      </trkpt>
      <trkpt lat="38.795695" lon="-9.09147167">
        <ele>2.0</ele>
        <time>2019-05-16T09:32:11.906Z</time>
      </trkpt>
      <trkpt lat="38.79574" lon="-9.09152667">
        <ele>3.0</ele>
        <time>2019-05-16T09:32:12.928Z</time>
      </trkpt>
      <trkpt lat="38.79574" lon="-9.09152667">
        <ele>3.0</ele>
        <time>2019-05-16T09:32:13.912Z</time>
      </trkpt>
      <trkpt lat="38.79578" lon="-9.09159">
        <ele>3.0</ele>
        <time>2019-05-16T09:32:14.927Z</time>
      </trkpt>
      <trkpt lat="38.79578" lon="-9.09159">
        <ele>3.0</ele>
        <time>2019-05-16T09:32:15.901Z</time>
      </trkpt>
      <trkpt lat="38.79582333" lon="-9.09164667">
        <ele>3.0</ele>
        <time>2019-05-16T09:32:16.911Z</time>
      </trkpt>
      <trkpt lat="38.79584667" lon="-9.091675">
        <ele>3.0</ele>
        <time>2019-05-16T09:32:17.916Z</time>
      </trkpt>
      <trkpt lat="38.79586833" lon="-9.09170167">
        <ele>3.0</ele>
        <time>2019-05-16T09:32:18.907Z</time>
      </trkpt>
      <trkpt lat="38.79586833" lon="-9.09170167">
        <ele>3.0</ele>
        <time>2019-05-16T09:32:19.898Z</time>
      </trkpt>
      <trkpt lat="38.79590333" lon="-9.09177167">
        <ele>3.0</ele>
        <time>2019-05-16T09:32:20.937Z</time>
      </trkpt>
      <trkpt lat="38.79590333" lon="-9.09177167">
        <ele>3.0</ele>
        <time>2019-05-16T09:32:21.922Z</time>
      </trkpt>
      <trkpt lat="38.79592667" lon="-9.09185167">
        <ele>3.0</ele>
        <time>2019-05-16T09:32:22.932Z</time>
      </trkpt>
      <trkpt lat="38.79592667" lon="-9.09185167">
        <ele>3.0</ele>
        <time>2019-05-16T09:32:23.899Z</time>
      </trkpt>
      <trkpt lat="38.79594667" lon="-9.09193333">
        <ele>3.0</ele>
        <time>2019-05-16T09:32:24.910Z</time>
      </trkpt>
      <trkpt lat="38.79594667" lon="-9.09193333">
        <ele>3.0</ele>
        <time>2019-05-16T09:32:25.934Z</time>
      </trkpt>
      <trkpt lat="38.79595167" lon="-9.09201833">
        <ele>3.0</ele>
        <time>2019-05-16T09:32:26.908Z</time>
      </trkpt>
      <trkpt lat="38.79594833" lon="-9.09206167">
        <ele>3.0</ele>
        <time>2019-05-16T09:32:27.914Z</time>
      </trkpt>
      <trkpt lat="38.79594833" lon="-9.09206167">
        <ele>3.0</ele>
        <time>2019-05-16T09:32:28.919Z</time>
      </trkpt>
      <trkpt lat="38.79594833" lon="-9.09215333">
        <ele>3.0</ele>
        <time>2019-05-16T09:32:29.901Z</time>
      </trkpt>
      <trkpt lat="38.79595333" lon="-9.09219667">
        <ele>3.0</ele>
        <time>2019-05-16T09:32:30.913Z</time>
      </trkpt>
      <trkpt lat="38.79595333" lon="-9.09219667">
        <ele>3.0</ele>
        <time>2019-05-16T09:32:31.901Z</time>
      </trkpt>
      <trkpt lat="38.79596167" lon="-9.09228833">
        <ele>4.0</ele>
        <time>2019-05-16T09:32:32.909Z</time>
      </trkpt>
      <trkpt lat="38.79596333" lon="-9.092335">
        <ele>4.0</ele>
        <time>2019-05-16T09:32:33.931Z</time>
      </trkpt>
      <trkpt lat="38.79596333" lon="-9.092335">
        <ele>4.0</ele>
        <time>2019-05-16T09:32:34.931Z</time>
      </trkpt>
      <trkpt lat="38.79597" lon="-9.09242667">
        <ele>4.0</ele>
        <time>2019-05-16T09:32:35.902Z</time>
      </trkpt>
      <trkpt lat="38.79597" lon="-9.09247333">
        <ele>4.0</ele>
        <time>2019-05-16T09:32:36.917Z</time>
      </trkpt>
      <trkpt lat="38.79597" lon="-9.09247333">
        <ele>4.0</ele>
        <time>2019-05-16T09:32:37.897Z</time>
      </trkpt>
      <trkpt lat="38.79597167" lon="-9.09256667">
        <ele>4.0</ele>
        <time>2019-05-16T09:32:38.906Z</time>
      </trkpt>
      <trkpt lat="38.79597167" lon="-9.09256667">
        <ele>4.0</ele>
        <time>2019-05-16T09:32:39.898Z</time>
      </trkpt>
      <trkpt lat="38.795975" lon="-9.09266">
        <ele>4.0</ele>
        <time>2019-05-16T09:32:40.908Z</time>
      </trkpt>
      <trkpt lat="38.795975" lon="-9.09266">
        <ele>4.0</ele>
        <time>2019-05-16T09:32:41.908Z</time>
      </trkpt>
      <trkpt lat="38.795985" lon="-9.09275">
        <ele>3.0</ele>
        <time>2019-05-16T09:32:42.918Z</time>
      </trkpt>
      <trkpt lat="38.795985" lon="-9.09275">
        <ele>3.0</ele>
        <time>2019-05-16T09:32:43.903Z</time>
      </trkpt>
      <trkpt lat="38.795985" lon="-9.09284">
        <ele>4.0</ele>
        <time>2019-05-16T09:32:44.913Z</time>
      </trkpt>
      <trkpt lat="38.795985" lon="-9.09284">
        <ele>4.0</ele>
        <time>2019-05-16T09:32:45.908Z</time>
      </trkpt>
      <trkpt lat="38.79599" lon="-9.09293167">
        <ele>3.0</ele>
        <time>2019-05-16T09:32:46.925Z</time>
      </trkpt>
      <trkpt lat="38.795995" lon="-9.09297667">
        <ele>3.0</ele>
        <time>2019-05-16T09:32:47.915Z</time>
      </trkpt>
      <trkpt lat="38.796" lon="-9.09302">
        <ele>4.0</ele>
        <time>2019-05-16T09:32:48.933Z</time>
      </trkpt>
      <trkpt lat="38.796" lon="-9.09302">
        <ele>4.0</ele>
        <time>2019-05-16T09:32:49.907Z</time>
      </trkpt>
      <trkpt lat="38.79600667" lon="-9.09311333">
        <ele>4.0</ele>
        <time>2019-05-16T09:32:50.916Z</time>
      </trkpt>
      <trkpt lat="38.79600667" lon="-9.09311333">
        <ele>4.0</ele>
        <time>2019-05-16T09:32:51.920Z</time>
      </trkpt>
      <trkpt lat="38.79600833" lon="-9.09320833">
        <ele>4.0</ele>
        <time>2019-05-16T09:32:52.931Z</time>
      </trkpt>
      <trkpt lat="38.79600833" lon="-9.09320833">
        <ele>4.0</ele>
        <time>2019-05-16T09:32:53.912Z</time>
      </trkpt>
      <trkpt lat="38.79601" lon="-9.09330833">
        <ele>4.0</ele>
        <time>2019-05-16T09:32:54.922Z</time>
      </trkpt>
      <trkpt lat="38.79601" lon="-9.09330833">
        <ele>4.0</ele>
        <time>2019-05-16T09:32:55.934Z</time>
      </trkpt>
      <trkpt lat="38.79601333" lon="-9.09341">
        <ele>4.0</ele>
        <time>2019-05-16T09:32:56.903Z</time>
      </trkpt>
      <trkpt lat="38.79601333" lon="-9.09341">
        <ele>4.0</ele>
        <time>2019-05-16T09:32:57.919Z</time>
      </trkpt>
      <trkpt lat="38.79602167" lon="-9.09351333">
        <ele>4.0</ele>
        <time>2019-05-16T09:32:58.931Z</time>
      </trkpt>
      <trkpt lat="38.79602333" lon="-9.09356667">
        <ele>4.0</ele>
        <time>2019-05-16T09:32:59.914Z</time>
      </trkpt>
      <trkpt lat="38.796025" lon="-9.09362">
        <ele>4.0</ele>
        <time>2019-05-16T09:33:00.900Z</time>
      </trkpt>
      <trkpt lat="38.796025" lon="-9.09362">
        <ele>4.0</ele>
        <time>2019-05-16T09:33:01.928Z</time>
      </trkpt>
      <trkpt lat="38.79603" lon="-9.09372833">
        <ele>4.0</ele>
        <time>2019-05-16T09:33:02.905Z</time>
      </trkpt>
      <trkpt lat="38.79603" lon="-9.09372833">
        <ele>4.0</ele>
        <time>2019-05-16T09:33:03.900Z</time>
      </trkpt>
      <trkpt lat="38.796035" lon="-9.09383667">
        <ele>3.0</ele>
        <time>2019-05-16T09:33:04.911Z</time>
      </trkpt>
      <trkpt lat="38.796035" lon="-9.09383667">
        <ele>3.0</ele>
        <time>2019-05-16T09:33:05.905Z</time>
      </trkpt>
      <trkpt lat="38.79604167" lon="-9.09394667">
        <ele>3.0</ele>
        <time>2019-05-16T09:33:06.945Z</time>
      </trkpt>
      <trkpt lat="38.79604167" lon="-9.09394667">
        <ele>3.0</ele>
        <time>2019-05-16T09:33:07.922Z</time>
      </trkpt>
      <trkpt lat="38.79604833" lon="-9.09405833">
        <ele>4.0</ele>
        <time>2019-05-16T09:33:08.935Z</time>
      </trkpt>
      <trkpt lat="38.79604833" lon="-9.09405833">
        <ele>4.0</ele>
        <time>2019-05-16T09:33:09.929Z</time>
      </trkpt>
      <trkpt lat="38.79606333" lon="-9.09416167">
        <ele>4.0</ele>
        <time>2019-05-16T09:33:10.899Z</time>
      </trkpt>
      <trkpt lat="38.79606333" lon="-9.09416167">
        <ele>4.0</ele>
        <time>2019-05-16T09:33:11.909Z</time>
      </trkpt>
      <trkpt lat="38.79607167" lon="-9.094265">
        <ele>3.0</ele>
        <time>2019-05-16T09:33:12.918Z</time>
      </trkpt>
      <trkpt lat="38.79607167" lon="-9.094265">
        <ele>3.0</ele>
        <time>2019-05-16T09:33:13.929Z</time>
      </trkpt>
      <trkpt lat="38.79607333" lon="-9.09437">
        <ele>3.0</ele>
        <time>2019-05-16T09:33:14.908Z</time>
      </trkpt>
      <trkpt lat="38.79607333" lon="-9.09437">
        <ele>3.0</ele>
        <time>2019-05-16T09:33:15.928Z</time>
      </trkpt>
      <trkpt lat="38.79607833" lon="-9.09447333">
        <ele>3.0</ele>
        <time>2019-05-16T09:33:16.910Z</time>
      </trkpt>
      <trkpt lat="38.79607833" lon="-9.09447333">
        <ele>3.0</ele>
        <time>2019-05-16T09:33:17.925Z</time>
      </trkpt>
      <trkpt lat="38.79608333" lon="-9.09457833">
        <ele>4.0</ele>
        <time>2019-05-16T09:33:18.932Z</time>
      </trkpt>
      <trkpt lat="38.79608333" lon="-9.09457833">
        <ele>4.0</ele>
        <time>2019-05-16T09:33:19.913Z</time>
      </trkpt>
      <trkpt lat="38.79608833" lon="-9.09468">
        <ele>4.0</ele>
        <time>2019-05-16T09:33:20.902Z</time>
      </trkpt>
      <trkpt lat="38.79608833" lon="-9.09468">
        <ele>4.0</ele>
        <time>2019-05-16T09:33:21.904Z</time>
      </trkpt>
      <trkpt lat="38.79609167" lon="-9.094785">
        <ele>4.0</ele>
        <time>2019-05-16T09:33:22.915Z</time>
      </trkpt>
      <trkpt lat="38.79609167" lon="-9.094785">
        <ele>4.0</ele>
        <time>2019-05-16T09:33:23.931Z</time>
      </trkpt>
      <trkpt lat="38.79609333" lon="-9.09488667">
        <ele>4.0</ele>
        <time>2019-05-16T09:33:24.911Z</time>
      </trkpt>
      <trkpt lat="38.79609333" lon="-9.09488667">
        <ele>4.0</ele>
        <time>2019-05-16T09:33:25.916Z</time>
      </trkpt>
      <trkpt lat="38.796095" lon="-9.09499167">
        <ele>4.0</ele>
        <time>2019-05-16T09:33:26.932Z</time>
      </trkpt>
      <trkpt lat="38.79609667" lon="-9.095045">
        <ele>4.0</ele>
        <time>2019-05-16T09:33:27.905Z</time>
      </trkpt>
      <trkpt lat="38.79609667" lon="-9.095045">
        <ele>4.0</ele>
        <time>2019-05-16T09:33:28.929Z</time>
      </trkpt>
      <trkpt lat="38.79610667" lon="-9.09514667">
        <ele>4.0</ele>
        <time>2019-05-16T09:33:29.935Z</time>
      </trkpt>
      <trkpt lat="38.79611167" lon="-9.09519833">
        <ele>5.0</ele>
        <time>2019-05-16T09:33:30.908Z</time>
      </trkpt>
      <trkpt lat="38.79611167" lon="-9.09519833">
        <ele>5.0</ele>
        <time>2019-05-16T09:33:31.899Z</time>
      </trkpt>
      <trkpt lat="38.796115" lon="-9.09530167">
        <ele>5.0</ele>
        <time>2019-05-16T09:33:32.914Z</time>
      </trkpt>
      <trkpt lat="38.796115" lon="-9.09530167">
        <ele>5.0</ele>
        <time>2019-05-16T09:33:33.900Z</time>
      </trkpt>
      <trkpt lat="38.79612" lon="-9.095405">
        <ele>4.0</ele>
        <time>2019-05-16T09:33:34.911Z</time>
      </trkpt>
      <trkpt lat="38.79612" lon="-9.095405">
        <ele>4.0</ele>
        <time>2019-05-16T09:33:35.936Z</time>
      </trkpt>
      <trkpt lat="38.79612333" lon="-9.09551167">
        <ele>5.0</ele>
        <time>2019-05-16T09:33:36.908Z</time>
      </trkpt>
      <trkpt lat="38.79612333" lon="-9.09551167">
        <ele>5.0</ele>
        <time>2019-05-16T09:33:37.903Z</time>
      </trkpt>
      <trkpt lat="38.79613" lon="-9.09562167">
        <ele>4.0</ele>
        <time>2019-05-16T09:33:38.912Z</time>
      </trkpt>
      <trkpt lat="38.79613" lon="-9.09562167">
        <ele>4.0</ele>
        <time>2019-05-16T09:33:39.917Z</time>
      </trkpt>
      <trkpt lat="38.79613333" lon="-9.09573333">
        <ele>4.0</ele>
        <time>2019-05-16T09:33:40.911Z</time>
      </trkpt>
      <trkpt lat="38.79613667" lon="-9.09579">
        <ele>4.0</ele>
        <time>2019-05-16T09:33:41.935Z</time>
      </trkpt>
      <trkpt lat="38.79613667" lon="-9.09579">
        <ele>4.0</ele>
        <time>2019-05-16T09:33:42.921Z</time>
      </trkpt>
      <trkpt lat="38.79614333" lon="-9.09590667">
        <ele>4.0</ele>
        <time>2019-05-16T09:33:43.897Z</time>
      </trkpt>
      <trkpt lat="38.79614333" lon="-9.09590667">
        <ele>4.0</ele>
        <time>2019-05-16T09:33:44.899Z</time>
      </trkpt>
      <trkpt lat="38.79614833" lon="-9.09602167">
        <ele>4.0</ele>
        <time>2019-05-16T09:33:45.908Z</time>
      </trkpt>
      <trkpt lat="38.79614833" lon="-9.09602167">
        <ele>4.0</ele>
        <time>2019-05-16T09:33:46.911Z</time>
      </trkpt>
      <trkpt lat="38.79615333" lon="-9.096135">
        <ele>4.0</ele>
        <time>2019-05-16T09:33:47.925Z</time>
      </trkpt>
      <trkpt lat="38.79615333" lon="-9.09619333">
        <ele>4.0</ele>
        <time>2019-05-16T09:33:48.931Z</time>
      </trkpt>
      <trkpt lat="38.79615333" lon="-9.09619333">
        <ele>4.0</ele>
        <time>2019-05-16T09:33:49.912Z</time>
      </trkpt>
      <trkpt lat="38.79615667" lon="-9.09630667">
        <ele>4.0</ele>
        <time>2019-05-16T09:33:50.925Z</time>
      </trkpt>
      <trkpt lat="38.79615667" lon="-9.09630667">
        <ele>4.0</ele>
        <time>2019-05-16T09:33:51.933Z</time>
      </trkpt>
      <trkpt lat="38.79616" lon="-9.09642">
        <ele>5.0</ele>
        <time>2019-05-16T09:33:52.913Z</time>
      </trkpt>
      <trkpt lat="38.79616" lon="-9.09642">
        <ele>5.0</ele>
        <time>2019-05-16T09:33:53.922Z</time>
      </trkpt>
      <trkpt lat="38.79615667" lon="-9.09653167">
        <ele>5.0</ele>
        <time>2019-05-16T09:33:54.900Z</time>
      </trkpt>
      <trkpt lat="38.79615667" lon="-9.09653167">
        <ele>5.0</ele>
        <time>2019-05-16T09:33:55.908Z</time>
      </trkpt>
      <trkpt lat="38.79614833" lon="-9.09664667">
        <ele>5.0</ele>
        <time>2019-05-16T09:33:56.920Z</time>
      </trkpt>
      <trkpt lat="38.79614833" lon="-9.09664667">
        <ele>5.0</ele>
        <time>2019-05-16T09:33:57.912Z</time>
      </trkpt>
      <trkpt lat="38.79614167" lon="-9.09676333">
        <ele>5.0</ele>
        <time>2019-05-16T09:33:58.924Z</time>
      </trkpt>
      <trkpt lat="38.79614167" lon="-9.09676333">
        <ele>5.0</ele>
        <time>2019-05-16T09:33:59.921Z</time>
      </trkpt>
      <trkpt lat="38.79613" lon="-9.09687833">
        <ele>5.0</ele>
        <time>2019-05-16T09:34:00.898Z</time>
      </trkpt>
      <trkpt lat="38.79613" lon="-9.09687833">
        <ele>5.0</ele>
        <time>2019-05-16T09:34:01.928Z</time>
      </trkpt>
      <trkpt lat="38.79611667" lon="-9.096995">
        <ele>5.0</ele>
        <time>2019-05-16T09:34:02.900Z</time>
      </trkpt>
      <trkpt lat="38.79611667" lon="-9.096995">
        <ele>5.0</ele>
        <time>2019-05-16T09:34:03.920Z</time>
      </trkpt>
      <trkpt lat="38.79610667" lon="-9.09711167">
        <ele>5.0</ele>
        <time>2019-05-16T09:34:04.940Z</time>
      </trkpt>
      <trkpt lat="38.79610667" lon="-9.09711167">
        <ele>5.0</ele>
        <time>2019-05-16T09:34:05.917Z</time>
      </trkpt>
      <trkpt lat="38.79609" lon="-9.09722667">
        <ele>5.0</ele>
        <time>2019-05-16T09:34:06.928Z</time>
      </trkpt>
      <trkpt lat="38.79609" lon="-9.09722667">
        <ele>5.0</ele>
        <time>2019-05-16T09:34:07.918Z</time>
      </trkpt>
      <trkpt lat="38.79606667" lon="-9.09734167">
        <ele>5.0</ele>
        <time>2019-05-16T09:34:08.933Z</time>
      </trkpt>
      <trkpt lat="38.79606667" lon="-9.09734167">
        <ele>5.0</ele>
        <time>2019-05-16T09:34:09.923Z</time>
      </trkpt>
      <trkpt lat="38.796045" lon="-9.09746333">
        <ele>5.0</ele>
        <time>2019-05-16T09:34:10.933Z</time>
      </trkpt>
      <trkpt lat="38.796045" lon="-9.09746333">
        <ele>5.0</ele>
        <time>2019-05-16T09:34:11.903Z</time>
      </trkpt>
      <trkpt lat="38.79602667" lon="-9.09757833">
        <ele>5.0</ele>
        <time>2019-05-16T09:34:12.916Z</time>
      </trkpt>
      <trkpt lat="38.79602667" lon="-9.09757833">
        <ele>5.0</ele>
        <time>2019-05-16T09:34:13.899Z</time>
      </trkpt>
      <trkpt lat="38.796005" lon="-9.09768667">
        <ele>5.0</ele>
        <time>2019-05-16T09:34:14.910Z</time>
      </trkpt>
      <trkpt lat="38.796005" lon="-9.09768667">
        <ele>5.0</ele>
        <time>2019-05-16T09:34:15.933Z</time>
      </trkpt>
      <trkpt lat="38.795985" lon="-9.09779333">
        <ele>5.0</ele>
        <time>2019-05-16T09:34:16.903Z</time>
      </trkpt>
      <trkpt lat="38.795985" lon="-9.09779333">
        <ele>5.0</ele>
        <time>2019-05-16T09:34:17.930Z</time>
      </trkpt>
      <trkpt lat="38.79596" lon="-9.0979">
        <ele>5.0</ele>
        <time>2019-05-16T09:34:18.902Z</time>
      </trkpt>
      <trkpt lat="38.79596" lon="-9.0979">
        <ele>5.0</ele>
        <time>2019-05-16T09:34:19.901Z</time>
      </trkpt>
      <trkpt lat="38.79594" lon="-9.09801">
        <ele>5.0</ele>
        <time>2019-05-16T09:34:20.928Z</time>
      </trkpt>
      <trkpt lat="38.79594" lon="-9.09801">
        <ele>5.0</ele>
        <time>2019-05-16T09:34:21.910Z</time>
      </trkpt>
      <trkpt lat="38.79592333" lon="-9.098115">
        <ele>5.0</ele>
        <time>2019-05-16T09:34:22.925Z</time>
      </trkpt>
      <trkpt lat="38.79592333" lon="-9.098115">
        <ele>5.0</ele>
        <time>2019-05-16T09:34:23.908Z</time>
      </trkpt>
      <trkpt lat="38.79592" lon="-9.09821833">
        <ele>5.0</ele>
        <time>2019-05-16T09:34:24.931Z</time>
      </trkpt>
      <trkpt lat="38.79592" lon="-9.09821833">
        <ele>5.0</ele>
        <time>2019-05-16T09:34:25.929Z</time>
      </trkpt>
      <trkpt lat="38.79592333" lon="-9.09831833">
        <ele>5.0</ele>
        <time>2019-05-16T09:34:26.904Z</time>
      </trkpt>
      <trkpt lat="38.79592333" lon="-9.09831833">
        <ele>5.0</ele>
        <time>2019-05-16T09:34:27.922Z</time>
      </trkpt>
      <trkpt lat="38.79594" lon="-9.09840833">
        <ele>5.0</ele>
        <time>2019-05-16T09:34:28.897Z</time>
      </trkpt>
      <trkpt lat="38.79594" lon="-9.09840833">
        <ele>5.0</ele>
        <time>2019-05-16T09:34:29.922Z</time>
      </trkpt>
      <trkpt lat="38.795965" lon="-9.09849667">
        <ele>5.0</ele>
        <time>2019-05-16T09:34:30.937Z</time>
      </trkpt>
      <trkpt lat="38.795965" lon="-9.09849667">
        <ele>5.0</ele>
        <time>2019-05-16T09:34:31.902Z</time>
      </trkpt>
      <trkpt lat="38.79598833" lon="-9.09859167">
        <ele>4.0</ele>
        <time>2019-05-16T09:34:32.914Z</time>
      </trkpt>
      <trkpt lat="38.79598833" lon="-9.09859167">
        <ele>4.0</ele>
        <time>2019-05-16T09:34:33.919Z</time>
      </trkpt>
      <trkpt lat="38.79601667" lon="-9.09868833">
        <ele>4.0</ele>
        <time>2019-05-16T09:34:34.928Z</time>
      </trkpt>
      <trkpt lat="38.79601667" lon="-9.09868833">
        <ele>4.0</ele>
        <time>2019-05-16T09:34:35.934Z</time>
      </trkpt>
      <trkpt lat="38.79603833" lon="-9.09879">
        <ele>5.0</ele>
        <time>2019-05-16T09:34:36.904Z</time>
      </trkpt>
      <trkpt lat="38.79603833" lon="-9.09879">
        <ele>5.0</ele>
        <time>2019-05-16T09:34:37.901Z</time>
      </trkpt>
      <trkpt lat="38.79604167" lon="-9.09887">
        <ele>5.0</ele>
        <time>2019-05-16T09:34:38.914Z</time>
      </trkpt>
      <trkpt lat="38.79604167" lon="-9.09887">
        <ele>5.0</ele>
        <time>2019-05-16T09:34:39.929Z</time>
      </trkpt>
      <trkpt lat="38.79604167" lon="-9.09895167">
        <ele>5.0</ele>
        <time>2019-05-16T09:34:40.901Z</time>
      </trkpt>
      <trkpt lat="38.79604167" lon="-9.09895167">
        <ele>5.0</ele>
        <time>2019-05-16T09:34:41.910Z</time>
      </trkpt>
      <trkpt lat="38.796075" lon="-9.09899667">
        <ele>4.0</ele>
        <time>2019-05-16T09:34:42.930Z</time>
      </trkpt>
      <trkpt lat="38.796075" lon="-9.09899667">
        <ele>4.0</ele>
        <time>2019-05-16T09:34:43.923Z</time>
      </trkpt>
      <trkpt lat="38.79614333" lon="-9.09900667">
        <ele>4.0</ele>
        <time>2019-05-16T09:34:44.939Z</time>
      </trkpt>
      <trkpt lat="38.79614333" lon="-9.09900667">
        <ele>4.0</ele>
        <time>2019-05-16T09:34:45.928Z</time>
      </trkpt>
      <trkpt lat="38.79621833" lon="-9.09901667">
        <ele>4.0</ele>
        <time>2019-05-16T09:34:46.897Z</time>
      </trkpt>
      <trkpt lat="38.79621833" lon="-9.09901667">
        <ele>4.0</ele>
        <time>2019-05-16T09:34:47.904Z</time>
      </trkpt>
      <trkpt lat="38.79628833" lon="-9.09909667">
        <ele>4.0</ele>
        <time>2019-05-16T09:34:48.911Z</time>
      </trkpt>
      <trkpt lat="38.79628833" lon="-9.09909667">
        <ele>4.0</ele>
        <time>2019-05-16T09:34:49.900Z</time>
      </trkpt>
      <trkpt lat="38.796305" lon="-9.09918833">
        <ele>5.0</ele>
        <time>2019-05-16T09:34:50.917Z</time>
      </trkpt>
      <trkpt lat="38.796305" lon="-9.09918833">
        <ele>5.0</ele>
        <time>2019-05-16T09:34:51.908Z</time>
      </trkpt>
      <trkpt lat="38.7963" lon="-9.09925667">
        <ele>5.0</ele>
        <time>2019-05-16T09:34:52.919Z</time>
      </trkpt>
      <trkpt lat="38.7963" lon="-9.09925667">
        <ele>5.0</ele>
        <time>2019-05-16T09:34:53.899Z</time>
      </trkpt>
      <trkpt lat="38.79632667" lon="-9.09933167">
        <ele>6.0</ele>
        <time>2019-05-16T09:34:54.909Z</time>
      </trkpt>
      <trkpt lat="38.79632667" lon="-9.09933167">
        <ele>6.0</ele>
        <time>2019-05-16T09:34:55.930Z</time>
      </trkpt>
      <trkpt lat="38.79634333" lon="-9.09940167">
        <ele>6.0</ele>
        <time>2019-05-16T09:34:56.910Z</time>
      </trkpt>
      <trkpt lat="38.79634333" lon="-9.09940167">
        <ele>6.0</ele>
        <time>2019-05-16T09:34:57.935Z</time>
      </trkpt>
      <trkpt lat="38.79639167" lon="-9.09951167">
        <ele>6.0</ele>
        <time>2019-05-16T09:34:58.903Z</time>
      </trkpt>
      <trkpt lat="38.79639167" lon="-9.09951167">
        <ele>6.0</ele>
        <time>2019-05-16T09:34:59.922Z</time>
      </trkpt>
      <trkpt lat="38.79641333" lon="-9.09962667">
        <ele>7.0</ele>
        <time>2019-05-16T09:35:00.930Z</time>
      </trkpt>
      <trkpt lat="38.79641333" lon="-9.09962667">
        <ele>7.0</ele>
        <time>2019-05-16T09:35:01.912Z</time>
      </trkpt>
      <trkpt lat="38.79642667" lon="-9.09972333">
        <ele>7.0</ele>
        <time>2019-05-16T09:35:02.934Z</time>
      </trkpt>
      <trkpt lat="38.79642667" lon="-9.09972333">
        <ele>7.0</ele>
        <time>2019-05-16T09:35:03.905Z</time>
      </trkpt>
      <trkpt lat="38.79644667" lon="-9.09981833">
        <ele>8.0</ele>
        <time>2019-05-16T09:35:04.918Z</time>
      </trkpt>
      <trkpt lat="38.79644667" lon="-9.09981833">
        <ele>8.0</ele>
        <time>2019-05-16T09:35:05.921Z</time>
      </trkpt>
      <trkpt lat="38.79647" lon="-9.09990333">
        <ele>9.0</ele>
        <time>2019-05-16T09:35:06.931Z</time>
      </trkpt>
      <trkpt lat="38.79647" lon="-9.09990333">
        <ele>9.0</ele>
        <time>2019-05-16T09:35:07.921Z</time>
      </trkpt>
      <trkpt lat="38.796495" lon="-9.09998333">
        <ele>9.0</ele>
        <time>2019-05-16T09:35:08.931Z</time>
      </trkpt>
      <trkpt lat="38.796495" lon="-9.09998333">
        <ele>9.0</ele>
        <time>2019-05-16T09:35:09.920Z</time>
      </trkpt>
      <trkpt lat="38.79652" lon="-9.10006333">
        <ele>8.0</ele>
        <time>2019-05-16T09:35:10.930Z</time>
      </trkpt>
      <trkpt lat="38.79652" lon="-9.10006333">
        <ele>8.0</ele>
        <time>2019-05-16T09:35:11.922Z</time>
      </trkpt>
      <trkpt lat="38.79654833" lon="-9.10014833">
        <ele>8.0</ele>
        <time>2019-05-16T09:35:12.935Z</time>
      </trkpt>
      <trkpt lat="38.79654833" lon="-9.10014833">
        <ele>8.0</ele>
        <time>2019-05-16T09:35:13.923Z</time>
      </trkpt>
      <trkpt lat="38.79657" lon="-9.10023667">
        <ele>8.0</ele>
        <time>2019-05-16T09:35:14.906Z</time>
      </trkpt>
      <trkpt lat="38.79657" lon="-9.10023667">
        <ele>8.0</ele>
        <time>2019-05-16T09:35:15.913Z</time>
      </trkpt>
      <trkpt lat="38.79659" lon="-9.10033167">
        <ele>7.0</ele>
        <time>2019-05-16T09:35:16.922Z</time>
      </trkpt>
      <trkpt lat="38.79660833" lon="-9.100375">
        <ele>7.0</ele>
        <time>2019-05-16T09:35:17.911Z</time>
      </trkpt>
      <trkpt lat="38.79662833" lon="-9.10041833">
        <ele>7.0</ele>
        <time>2019-05-16T09:35:18.923Z</time>
      </trkpt>
      <trkpt lat="38.79662833" lon="-9.10041833">
        <ele>7.0</ele>
        <time>2019-05-16T09:35:19.922Z</time>
      </trkpt>
      <trkpt lat="38.79667333" lon="-9.100505">
        <ele>7.0</ele>
        <time>2019-05-16T09:35:20.910Z</time>
      </trkpt>
      <trkpt lat="38.79667333" lon="-9.100505">
        <ele>7.0</ele>
        <time>2019-05-16T09:35:21.920Z</time>
      </trkpt>
      <trkpt lat="38.79671333" lon="-9.10059667">
        <ele>7.0</ele>
        <time>2019-05-16T09:35:22.917Z</time>
      </trkpt>
      <trkpt lat="38.79671333" lon="-9.10059667">
        <ele>7.0</ele>
        <time>2019-05-16T09:35:23.923Z</time>
      </trkpt>
      <trkpt lat="38.796755" lon="-9.10068833">
        <ele>7.0</ele>
        <time>2019-05-16T09:35:24.934Z</time>
      </trkpt>
      <trkpt lat="38.796755" lon="-9.10068833">
        <ele>7.0</ele>
        <time>2019-05-16T09:35:25.927Z</time>
      </trkpt>
      <trkpt lat="38.79679333" lon="-9.10078333">
        <ele>7.0</ele>
        <time>2019-05-16T09:35:26.935Z</time>
      </trkpt>
      <trkpt lat="38.79679333" lon="-9.10078333">
        <ele>7.0</ele>
        <time>2019-05-16T09:35:27.928Z</time>
      </trkpt>
      <trkpt lat="38.79683833" lon="-9.10088">
        <ele>6.0</ele>
        <time>2019-05-16T09:35:28.909Z</time>
      </trkpt>
      <trkpt lat="38.79683833" lon="-9.10088">
        <ele>6.0</ele>
        <time>2019-05-16T09:35:29.902Z</time>
      </trkpt>
      <trkpt lat="38.79688" lon="-9.10098">
        <ele>6.0</ele>
        <time>2019-05-16T09:35:30.912Z</time>
      </trkpt>
      <trkpt lat="38.79688" lon="-9.10098">
        <ele>6.0</ele>
        <time>2019-05-16T09:35:31.900Z</time>
      </trkpt>
      <trkpt lat="38.79691667" lon="-9.10108333">
        <ele>6.0</ele>
        <time>2019-05-16T09:35:32.916Z</time>
      </trkpt>
      <trkpt lat="38.79691667" lon="-9.10108333">
        <ele>6.0</ele>
        <time>2019-05-16T09:35:33.931Z</time>
      </trkpt>
      <trkpt lat="38.79694333" lon="-9.10119333">
        <ele>6.0</ele>
        <time>2019-05-16T09:35:34.899Z</time>
      </trkpt>
      <trkpt lat="38.79694333" lon="-9.10119333">
        <ele>6.0</ele>
        <time>2019-05-16T09:35:35.906Z</time>
      </trkpt>
      <trkpt lat="38.79696167" lon="-9.10130667">
        <ele>6.0</ele>
        <time>2019-05-16T09:35:36.917Z</time>
      </trkpt>
      <trkpt lat="38.79696167" lon="-9.10130667">
        <ele>6.0</ele>
        <time>2019-05-16T09:35:37.910Z</time>
      </trkpt>
      <trkpt lat="38.79698167" lon="-9.10141333">
        <ele>6.0</ele>
        <time>2019-05-16T09:35:38.926Z</time>
      </trkpt>
      <trkpt lat="38.79698167" lon="-9.10141333">
        <ele>6.0</ele>
        <time>2019-05-16T09:35:39.906Z</time>
      </trkpt>
      <trkpt lat="38.797" lon="-9.10152167">
        <ele>6.0</ele>
        <time>2019-05-16T09:35:40.922Z</time>
      </trkpt>
      <trkpt lat="38.797" lon="-9.10152167">
        <ele>6.0</ele>
        <time>2019-05-16T09:35:41.901Z</time>
      </trkpt>
      <trkpt lat="38.79701333" lon="-9.10162833">
        <ele>6.0</ele>
        <time>2019-05-16T09:35:42.911Z</time>
      </trkpt>
      <trkpt lat="38.79701333" lon="-9.10162833">
        <ele>6.0</ele>
        <time>2019-05-16T09:35:43.908Z</time>
      </trkpt>
      <trkpt lat="38.79701833" lon="-9.10173833">
        <ele>6.0</ele>
        <time>2019-05-16T09:35:44.915Z</time>
      </trkpt>
      <trkpt lat="38.79701833" lon="-9.10173833">
        <ele>6.0</ele>
        <time>2019-05-16T09:35:45.933Z</time>
      </trkpt>
      <trkpt lat="38.797015" lon="-9.101845">
        <ele>6.0</ele>
        <time>2019-05-16T09:35:46.900Z</time>
      </trkpt>
      <trkpt lat="38.797015" lon="-9.101845">
        <ele>6.0</ele>
        <time>2019-05-16T09:35:47.921Z</time>
      </trkpt>
      <trkpt lat="38.79700833" lon="-9.10194667">
        <ele>6.0</ele>
        <time>2019-05-16T09:35:48.897Z</time>
      </trkpt>
      <trkpt lat="38.79700833" lon="-9.10194667">
        <ele>6.0</ele>
        <time>2019-05-16T09:35:49.934Z</time>
      </trkpt>
      <trkpt lat="38.797005" lon="-9.10205167">
        <ele>6.0</ele>
        <time>2019-05-16T09:35:50.901Z</time>
      </trkpt>
      <trkpt lat="38.797005" lon="-9.10205167">
        <ele>6.0</ele>
        <time>2019-05-16T09:35:51.902Z</time>
      </trkpt>
      <trkpt lat="38.796995" lon="-9.10215667">
        <ele>6.0</ele>
        <time>2019-05-16T09:35:52.910Z</time>
      </trkpt>
      <trkpt lat="38.796995" lon="-9.10215667">
        <ele>6.0</ele>
        <time>2019-05-16T09:35:53.920Z</time>
      </trkpt>
      <trkpt lat="38.796985" lon="-9.10225333">
        <ele>6.0</ele>
        <time>2019-05-16T09:35:54.934Z</time>
      </trkpt>
      <trkpt lat="38.796985" lon="-9.10225333">
        <ele>6.0</ele>
        <time>2019-05-16T09:35:55.927Z</time>
      </trkpt>
      <trkpt lat="38.79697" lon="-9.10234833">
        <ele>6.0</ele>
        <time>2019-05-16T09:35:56.901Z</time>
      </trkpt>
      <trkpt lat="38.79697" lon="-9.10234833">
        <ele>6.0</ele>
        <time>2019-05-16T09:35:57.923Z</time>
      </trkpt>
      <trkpt lat="38.796955" lon="-9.102445">
        <ele>6.0</ele>
        <time>2019-05-16T09:35:58.931Z</time>
      </trkpt>
      <trkpt lat="38.796955" lon="-9.102445">
        <ele>6.0</ele>
        <time>2019-05-16T09:35:59.933Z</time>
      </trkpt>
      <trkpt lat="38.79693667" lon="-9.10254167">
        <ele>6.0</ele>
        <time>2019-05-16T09:36:00.907Z</time>
      </trkpt>
      <trkpt lat="38.79693667" lon="-9.10254167">
        <ele>6.0</ele>
        <time>2019-05-16T09:36:01.936Z</time>
      </trkpt>
      <trkpt lat="38.79691833" lon="-9.10264167">
        <ele>6.0</ele>
        <time>2019-05-16T09:36:02.906Z</time>
      </trkpt>
      <trkpt lat="38.79691833" lon="-9.10264167">
        <ele>6.0</ele>
        <time>2019-05-16T09:36:03.901Z</time>
      </trkpt>
      <trkpt lat="38.796905" lon="-9.10274333">
        <ele>6.0</ele>
        <time>2019-05-16T09:36:04.911Z</time>
      </trkpt>
      <trkpt lat="38.796905" lon="-9.10274333">
        <ele>6.0</ele>
        <time>2019-05-16T09:36:05.913Z</time>
      </trkpt>
      <trkpt lat="38.796885" lon="-9.102835">
        <ele>7.0</ele>
        <time>2019-05-16T09:36:06.921Z</time>
      </trkpt>
      <trkpt lat="38.796885" lon="-9.102835">
        <ele>7.0</ele>
        <time>2019-05-16T09:36:07.906Z</time>
      </trkpt>
      <trkpt lat="38.79687333" lon="-9.102925">
        <ele>6.0</ele>
        <time>2019-05-16T09:36:08.914Z</time>
      </trkpt>
      <trkpt lat="38.79688" lon="-9.10296167">
        <ele>7.0</ele>
        <time>2019-05-16T09:36:09.909Z</time>
      </trkpt>
      <trkpt lat="38.79688" lon="-9.10296167">
        <ele>7.0</ele>
        <time>2019-05-16T09:36:10.936Z</time>
      </trkpt>
      <trkpt lat="38.79688667" lon="-9.10300667">
        <ele>7.0</ele>
        <time>2019-05-16T09:36:11.906Z</time>
      </trkpt>
      <trkpt lat="38.79687833" lon="-9.10302667">
        <ele>7.0</ele>
        <time>2019-05-16T09:36:12.934Z</time>
      </trkpt>
      <trkpt lat="38.79687833" lon="-9.10302667">
        <ele>7.0</ele>
        <time>2019-05-16T09:36:13.926Z</time>
      </trkpt>
      <trkpt lat="38.79687" lon="-9.10307333">
        <ele>7.0</ele>
        <time>2019-05-16T09:36:14.899Z</time>
      </trkpt>
      <trkpt lat="38.79687" lon="-9.10307333">
        <ele>7.0</ele>
        <time>2019-05-16T09:36:15.920Z</time>
      </trkpt>
      <trkpt lat="38.79686167" lon="-9.10312">
        <ele>7.0</ele>
        <time>2019-05-16T09:36:16.910Z</time>
      </trkpt>
      <trkpt lat="38.79686167" lon="-9.10312">
        <ele>7.0</ele>
        <time>2019-05-16T09:36:17.920Z</time>
      </trkpt>
      <trkpt lat="38.796855" lon="-9.10316">
        <ele>7.0</ele>
        <time>2019-05-16T09:36:18.904Z</time>
      </trkpt>
      <trkpt lat="38.796855" lon="-9.10316">
        <ele>7.0</ele>
        <time>2019-05-16T09:36:19.932Z</time>
      </trkpt>
      <trkpt lat="38.796855" lon="-9.1032">
        <ele>7.0</ele>
        <time>2019-05-16T09:36:20.920Z</time>
      </trkpt>
      <trkpt lat="38.796855" lon="-9.1032">
        <ele>7.0</ele>
        <time>2019-05-16T09:36:21.919Z</time>
      </trkpt>
      <trkpt lat="38.79684333" lon="-9.10325667">
        <ele>7.0</ele>
        <time>2019-05-16T09:36:22.927Z</time>
      </trkpt>
      <trkpt lat="38.79684333" lon="-9.10325667">
        <ele>7.0</ele>
        <time>2019-05-16T09:36:23.907Z</time>
      </trkpt>
      <trkpt lat="38.79684167" lon="-9.10331">
        <ele>7.0</ele>
        <time>2019-05-16T09:36:24.920Z</time>
      </trkpt>
      <trkpt lat="38.79684167" lon="-9.10331">
        <ele>7.0</ele>
        <time>2019-05-16T09:36:25.905Z</time>
      </trkpt>
      <trkpt lat="38.79683167" lon="-9.10335667">
        <ele>7.0</ele>
        <time>2019-05-16T09:36:26.918Z</time>
      </trkpt>
      <trkpt lat="38.79683167" lon="-9.10335667">
        <ele>7.0</ele>
        <time>2019-05-16T09:36:27.902Z</time>
      </trkpt>
      <trkpt lat="38.79682167" lon="-9.10341">
        <ele>8.0</ele>
        <time>2019-05-16T09:36:28.910Z</time>
      </trkpt>
      <trkpt lat="38.796815" lon="-9.10343167">
        <ele>8.0</ele>
        <time>2019-05-16T09:36:29.927Z</time>
      </trkpt>
      <trkpt lat="38.79681167" lon="-9.10345333">
        <ele>8.0</ele>
        <time>2019-05-16T09:36:30.933Z</time>
      </trkpt>
      <trkpt lat="38.79681167" lon="-9.10345333">
        <ele>8.0</ele>
        <time>2019-05-16T09:36:31.922Z</time>
      </trkpt>
      <trkpt lat="38.79681333" lon="-9.103485">
        <ele>8.0</ele>
        <time>2019-05-16T09:36:32.939Z</time>
      </trkpt>
      <trkpt lat="38.79681333" lon="-9.103485">
        <ele>8.0</ele>
        <time>2019-05-16T09:36:33.923Z</time>
      </trkpt>
      <trkpt lat="38.79681333" lon="-9.10349">
        <ele>8.0</ele>
        <time>2019-05-16T09:36:34.932Z</time>
      </trkpt>
      <trkpt lat="38.79681333" lon="-9.10349">
        <ele>8.0</ele>
        <time>2019-05-16T09:36:35.932Z</time>
      </trkpt>
      <trkpt lat="38.796815" lon="-9.10349333">
        <ele>8.0</ele>
        <time>2019-05-16T09:36:36.905Z</time>
      </trkpt>
      <trkpt lat="38.796815" lon="-9.10349333">
        <ele>8.0</ele>
        <time>2019-05-16T09:36:37.936Z</time>
      </trkpt>
      <trkpt lat="38.79683333" lon="-9.10352167">
        <ele>8.0</ele>
        <time>2019-05-16T09:36:38.901Z</time>
      </trkpt>
      <trkpt lat="38.79683333" lon="-9.10352167">
        <ele>8.0</ele>
        <time>2019-05-16T09:36:39.907Z</time>
      </trkpt>
      <trkpt lat="38.79684833" lon="-9.10352833">
        <ele>8.0</ele>
        <time>2019-05-16T09:36:40.913Z</time>
      </trkpt>
      <trkpt lat="38.79684833" lon="-9.10352833">
        <ele>8.0</ele>
        <time>2019-05-16T09:36:41.899Z</time>
      </trkpt>
      <trkpt lat="38.79686167" lon="-9.10353167">
        <ele>8.0</ele>
        <time>2019-05-16T09:36:42.936Z</time>
      </trkpt>
      <trkpt lat="38.79686167" lon="-9.10353167">
        <ele>8.0</ele>
        <time>2019-05-16T09:36:43.928Z</time>
      </trkpt>
      <trkpt lat="38.79687833" lon="-9.103535">
        <ele>8.0</ele>
        <time>2019-05-16T09:36:44.917Z</time>
      </trkpt>
      <trkpt lat="38.79687833" lon="-9.103535">
        <ele>8.0</ele>
        <time>2019-05-16T09:36:45.898Z</time>
      </trkpt>
      <trkpt lat="38.79691167" lon="-9.10354667">
        <ele>9.0</ele>
        <time>2019-05-16T09:36:46.908Z</time>
      </trkpt>
      <trkpt lat="38.79691167" lon="-9.10354667">
        <ele>9.0</ele>
        <time>2019-05-16T09:36:47.929Z</time>
      </trkpt>
      <trkpt lat="38.79693" lon="-9.10356">
        <ele>9.0</ele>
        <time>2019-05-16T09:36:48.936Z</time>
      </trkpt>
      <trkpt lat="38.79693" lon="-9.10356">
        <ele>9.0</ele>
        <time>2019-05-16T09:36:49.928Z</time>
      </trkpt>
      <trkpt lat="38.79693667" lon="-9.103565">
        <ele>10.0</ele>
        <time>2019-05-16T09:36:50.917Z</time>
      </trkpt>
      <trkpt lat="38.79693667" lon="-9.103565">
        <ele>10.0</ele>
        <time>2019-05-16T09:36:51.910Z</time>
      </trkpt>
      <trkpt lat="38.79694667" lon="-9.10356667">
        <ele>10.0</ele>
        <time>2019-05-16T09:36:52.926Z</time>
      </trkpt>
      <trkpt lat="38.79694667" lon="-9.10356667">
        <ele>10.0</ele>
        <time>2019-05-16T09:36:53.922Z</time>
      </trkpt>
      <trkpt lat="38.79695333" lon="-9.103575">
        <ele>11.0</ele>
        <time>2019-05-16T09:36:54.928Z</time>
      </trkpt>
      <trkpt lat="38.79695333" lon="-9.103575">
        <ele>11.0</ele>
        <time>2019-05-16T09:36:55.934Z</time>
      </trkpt>
      <trkpt lat="38.79696833" lon="-9.103585">
        <ele>11.0</ele>
        <time>2019-05-16T09:36:56.900Z</time>
      </trkpt>
      <trkpt lat="38.79696833" lon="-9.103585">
        <ele>11.0</ele>
        <time>2019-05-16T09:36:57.928Z</time>
      </trkpt>
      <trkpt lat="38.79698667" lon="-9.10358167">
        <ele>11.0</ele>
        <time>2019-05-16T09:36:58.907Z</time>
      </trkpt>
      <trkpt lat="38.79698667" lon="-9.10358167">
        <ele>11.0</ele>
        <time>2019-05-16T09:36:59.935Z</time>
      </trkpt>
      <trkpt lat="38.797" lon="-9.103555">
        <ele>11.0</ele>
        <time>2019-05-16T09:37:00.949Z</time>
      </trkpt>
      <trkpt lat="38.797" lon="-9.103555">
        <ele>11.0</ele>
        <time>2019-05-16T09:37:01.920Z</time>
      </trkpt>
      <trkpt lat="38.79701" lon="-9.10352833">
        <ele>11.0</ele>
        <time>2019-05-16T09:37:02.906Z</time>
      </trkpt>
      <trkpt lat="38.79701" lon="-9.10352833">
        <ele>11.0</ele>
        <time>2019-05-16T09:37:03.933Z</time>
      </trkpt>
      <trkpt lat="38.79702833" lon="-9.10352333">
        <ele>10.0</ele>
        <time>2019-05-16T09:37:04.913Z</time>
      </trkpt>
      <trkpt lat="38.79702833" lon="-9.10353667">
        <ele>10.0</ele>
        <time>2019-05-16T09:37:05.942Z</time>
      </trkpt>
      <trkpt lat="38.79702167" lon="-9.10354667">
        <ele>10.0</ele>
        <time>2019-05-16T09:37:06.911Z</time>
      </trkpt>
      <trkpt lat="38.79702167" lon="-9.10354667">
        <ele>10.0</ele>
        <time>2019-05-16T09:37:07.906Z</time>
      </trkpt>
      <trkpt lat="38.79701167" lon="-9.10356333">
        <ele>9.0</ele>
        <time>2019-05-16T09:37:08.918Z</time>
      </trkpt>
      <trkpt lat="38.79701167" lon="-9.10356333">
        <ele>9.0</ele>
        <time>2019-05-16T09:37:09.922Z</time>
      </trkpt>
      <trkpt lat="38.79700833" lon="-9.10357167">
        <ele>9.0</ele>
        <time>2019-05-16T09:37:10.932Z</time>
      </trkpt>
      <trkpt lat="38.79700833" lon="-9.10357167">
        <ele>9.0</ele>
        <time>2019-05-16T09:37:11.911Z</time>
      </trkpt>
      <trkpt lat="38.79700833" lon="-9.10357333">
        <ele>9.0</ele>
        <time>2019-05-16T09:37:12.920Z</time>
      </trkpt>
      <trkpt lat="38.79700833" lon="-9.10357333">
        <ele>9.0</ele>
        <time>2019-05-16T09:37:13.926Z</time>
      </trkpt>
      <trkpt lat="38.79700833" lon="-9.10357333">
        <ele>9.0</ele>
        <time>2019-05-16T09:37:14.932Z</time>
      </trkpt>
      <trkpt lat="38.79700833" lon="-9.10357333">
        <ele>9.0</ele>
        <time>2019-05-16T09:37:15.898Z</time>
      </trkpt>
      <trkpt lat="38.79700833" lon="-9.10357333">
        <ele>9.0</ele>
        <time>2019-05-16T09:37:16.904Z</time>
      </trkpt>
      <trkpt lat="38.79700833" lon="-9.10357333">
        <ele>9.0</ele>
        <time>2019-05-16T09:37:17.912Z</time>
      </trkpt>
      <trkpt lat="38.79700833" lon="-9.10357333">
        <ele>9.0</ele>
        <time>2019-05-16T09:37:18.933Z</time>
      </trkpt>
      <trkpt lat="38.79700833" lon="-9.10357333">
        <ele>9.0</ele>
        <time>2019-05-16T09:37:19.903Z</time>
      </trkpt>
      <trkpt lat="38.79700833" lon="-9.10357333">
        <ele>9.0</ele>
        <time>2019-05-16T09:37:20.936Z</time>
      </trkpt>
      <trkpt lat="38.79700833" lon="-9.10357333">
        <ele>9.0</ele>
        <time>2019-05-16T09:37:21.928Z</time>
      </trkpt>
      <trkpt lat="38.79700833" lon="-9.10357333">
        <ele>9.0</ele>
        <time>2019-05-16T09:37:22.932Z</time>
      </trkpt>
      <trkpt lat="38.79700833" lon="-9.10357333">
        <ele>9.0</ele>
        <time>2019-05-16T09:37:23.931Z</time>
      </trkpt>
      <trkpt lat="38.79700833" lon="-9.10357333">
        <ele>9.0</ele>
        <time>2019-05-16T09:37:24.935Z</time>
      </trkpt>
      <trkpt lat="38.79700833" lon="-9.10357333">
        <ele>9.0</ele>
        <time>2019-05-16T09:37:25.928Z</time>
      </trkpt>
      <trkpt lat="38.79700833" lon="-9.10357333">
        <ele>9.0</ele>
        <time>2019-05-16T09:37:26.934Z</time>
      </trkpt>
      <trkpt lat="38.79700833" lon="-9.10357333">
        <ele>9.0</ele>
        <time>2019-05-16T09:37:27.909Z</time>
      </trkpt>
      <trkpt lat="38.79700833" lon="-9.10357333">
        <ele>9.0</ele>
        <time>2019-05-16T09:37:28.936Z</time>
      </trkpt>
      <trkpt lat="38.79700833" lon="-9.10357333">
        <ele>9.0</ele>
        <time>2019-05-16T09:37:29.930Z</time>
      </trkpt>
      <trkpt lat="38.79700833" lon="-9.10357333">
        <ele>9.0</ele>
        <time>2019-05-16T09:37:30.910Z</time>
      </trkpt>
      <trkpt lat="38.79700833" lon="-9.10357333">
        <ele>9.0</ele>
        <time>2019-05-16T09:37:31.932Z</time>
      </trkpt>
      <trkpt lat="38.79700833" lon="-9.10357333">
        <ele>9.0</ele>
        <time>2019-05-16T09:37:32.934Z</time>
      </trkpt>
      <trkpt lat="38.79700833" lon="-9.10357333">
        <ele>9.0</ele>
        <time>2019-05-16T09:37:33.928Z</time>
      </trkpt>
      <trkpt lat="38.796995" lon="-9.10357833">
        <ele>9.0</ele>
        <time>2019-05-16T09:37:34.934Z</time>
      </trkpt>
      <trkpt lat="38.79699167" lon="-9.10358833">
        <ele>9.0</ele>
        <time>2019-05-16T09:37:35.934Z</time>
      </trkpt>
      <trkpt lat="38.79699" lon="-9.1036">
        <ele>9.0</ele>
        <time>2019-05-16T09:37:36.935Z</time>
      </trkpt>
      <trkpt lat="38.79699" lon="-9.1036">
        <ele>9.0</ele>
        <time>2019-05-16T09:37:37.928Z</time>
      </trkpt>
      <trkpt lat="38.796985" lon="-9.10362167">
        <ele>9.0</ele>
        <time>2019-05-16T09:37:38.906Z</time>
      </trkpt>
      <trkpt lat="38.796985" lon="-9.10362167">
        <ele>9.0</ele>
        <time>2019-05-16T09:37:39.931Z</time>
      </trkpt>
      <trkpt lat="38.79698" lon="-9.10365333">
        <ele>9.0</ele>
        <time>2019-05-16T09:37:41.041Z</time>
      </trkpt>
      <trkpt lat="38.79698" lon="-9.10365333">
        <ele>9.0</ele>
        <time>2019-05-16T09:37:41.920Z</time>
      </trkpt>
      <trkpt lat="38.79698167" lon="-9.10369667">
        <ele>9.0</ele>
        <time>2019-05-16T09:37:42.911Z</time>
      </trkpt>
      <trkpt lat="38.79698167" lon="-9.10369667">
        <ele>9.0</ele>
        <time>2019-05-16T09:37:43.928Z</time>
      </trkpt>
      <trkpt lat="38.79697833" lon="-9.10374">
        <ele>9.0</ele>
        <time>2019-05-16T09:37:44.897Z</time>
      </trkpt>
      <trkpt lat="38.79697833" lon="-9.10374">
        <ele>9.0</ele>
        <time>2019-05-16T09:37:45.920Z</time>
      </trkpt>
      <trkpt lat="38.79697" lon="-9.10378833">
        <ele>9.0</ele>
        <time>2019-05-16T09:37:46.931Z</time>
      </trkpt>
      <trkpt lat="38.79697" lon="-9.10378833">
        <ele>9.0</ele>
        <time>2019-05-16T09:37:47.911Z</time>
      </trkpt>
      <trkpt lat="38.79694" lon="-9.103835">
        <ele>8.0</ele>
        <time>2019-05-16T09:37:48.934Z</time>
      </trkpt>
      <trkpt lat="38.79694" lon="-9.103835">
        <ele>8.0</ele>
        <time>2019-05-16T09:37:49.919Z</time>
      </trkpt>
      <trkpt lat="38.79690667" lon="-9.103885">
        <ele>8.0</ele>
        <time>2019-05-16T09:37:50.932Z</time>
      </trkpt>
      <trkpt lat="38.79690667" lon="-9.103885">
        <ele>8.0</ele>
        <time>2019-05-16T09:37:51.932Z</time>
      </trkpt>
      <trkpt lat="38.79687167" lon="-9.10392667">
        <ele>8.0</ele>
        <time>2019-05-16T09:37:52.906Z</time>
      </trkpt>
      <trkpt lat="38.79687167" lon="-9.10392667">
        <ele>8.0</ele>
        <time>2019-05-16T09:37:53.906Z</time>
      </trkpt>
      <trkpt lat="38.79682833" lon="-9.10394667">
        <ele>8.0</ele>
        <time>2019-05-16T09:37:54.917Z</time>
      </trkpt>
      <trkpt lat="38.79682833" lon="-9.10394667">
        <ele>8.0</ele>
        <time>2019-05-16T09:37:55.922Z</time>
      </trkpt>
      <trkpt lat="38.79678" lon="-9.10395833">
        <ele>8.0</ele>
        <time>2019-05-16T09:37:56.933Z</time>
      </trkpt>
      <trkpt lat="38.79678" lon="-9.10395833">
        <ele>8.0</ele>
        <time>2019-05-16T09:37:57.936Z</time>
      </trkpt>
      <trkpt lat="38.796735" lon="-9.10398333">
        <ele>8.0</ele>
        <time>2019-05-16T09:37:58.909Z</time>
      </trkpt>
      <trkpt lat="38.796735" lon="-9.10398333">
        <ele>8.0</ele>
        <time>2019-05-16T09:37:59.904Z</time>
      </trkpt>
      <trkpt lat="38.79671333" lon="-9.10402667">
        <ele>8.0</ele>
        <time>2019-05-16T09:38:00.914Z</time>
      </trkpt>
      <trkpt lat="38.79671333" lon="-9.10402667">
        <ele>8.0</ele>
        <time>2019-05-16T09:38:01.911Z</time>
      </trkpt>
      <trkpt lat="38.79669833" lon="-9.10407333">
        <ele>9.0</ele>
        <time>2019-05-16T09:38:02.923Z</time>
      </trkpt>
      <trkpt lat="38.79668833" lon="-9.104095">
        <ele>9.0</ele>
        <time>2019-05-16T09:38:03.910Z</time>
      </trkpt>
      <trkpt lat="38.79668833" lon="-9.104095">
        <ele>9.0</ele>
        <time>2019-05-16T09:38:04.897Z</time>
      </trkpt>
      <trkpt lat="38.796665" lon="-9.10414">
        <ele>9.0</ele>
        <time>2019-05-16T09:38:05.908Z</time>
      </trkpt>
      <trkpt lat="38.79665833" lon="-9.10416">
        <ele>9.0</ele>
        <time>2019-05-16T09:38:06.911Z</time>
      </trkpt>
      <trkpt lat="38.79665833" lon="-9.10416">
        <ele>9.0</ele>
        <time>2019-05-16T09:38:07.903Z</time>
      </trkpt>
      <trkpt lat="38.79664667" lon="-9.104195">
        <ele>9.0</ele>
        <time>2019-05-16T09:38:08.911Z</time>
      </trkpt>
      <trkpt lat="38.79664667" lon="-9.104195">
        <ele>9.0</ele>
        <time>2019-05-16T09:38:09.934Z</time>
      </trkpt>
      <trkpt lat="38.79663333" lon="-9.10424">
        <ele>9.0</ele>
        <time>2019-05-16T09:38:10.907Z</time>
      </trkpt>
      <trkpt lat="38.79663333" lon="-9.10424">
        <ele>9.0</ele>
        <time>2019-05-16T09:38:11.910Z</time>
      </trkpt>
      <trkpt lat="38.796625" lon="-9.10429833">
        <ele>9.0</ele>
        <time>2019-05-16T09:38:12.931Z</time>
      </trkpt>
      <trkpt lat="38.796625" lon="-9.10429833">
        <ele>9.0</ele>
        <time>2019-05-16T09:38:13.936Z</time>
      </trkpt>
      <trkpt lat="38.79661667" lon="-9.10436167">
        <ele>10.0</ele>
        <time>2019-05-16T09:38:14.904Z</time>
      </trkpt>
      <trkpt lat="38.79661667" lon="-9.10436167">
        <ele>10.0</ele>
        <time>2019-05-16T09:38:15.930Z</time>
      </trkpt>
      <trkpt lat="38.79661" lon="-9.10441833">
        <ele>10.0</ele>
        <time>2019-05-16T09:38:16.902Z</time>
      </trkpt>
      <trkpt lat="38.796605" lon="-9.10444167">
        <ele>10.0</ele>
        <time>2019-05-16T09:38:17.910Z</time>
      </trkpt>
      <trkpt lat="38.7966" lon="-9.10446667">
        <ele>10.0</ele>
        <time>2019-05-16T09:38:18.923Z</time>
      </trkpt>
      <trkpt lat="38.7966" lon="-9.10446667">
        <ele>10.0</ele>
        <time>2019-05-16T09:38:19.903Z</time>
      </trkpt>
      <trkpt lat="38.79659333" lon="-9.10451167">
        <ele>11.0</ele>
        <time>2019-05-16T09:38:20.926Z</time>
      </trkpt>
      <trkpt lat="38.79659333" lon="-9.10451167">
        <ele>11.0</ele>
        <time>2019-05-16T09:38:21.930Z</time>
      </trkpt>
      <trkpt lat="38.79656667" lon="-9.104535">
        <ele>11.0</ele>
        <time>2019-05-16T09:38:22.898Z</time>
      </trkpt>
      <trkpt lat="38.79656667" lon="-9.104535">
        <ele>11.0</ele>
        <time>2019-05-16T09:38:23.904Z</time>
      </trkpt>
      <trkpt lat="38.796535" lon="-9.104525">
        <ele>10.0</ele>
        <time>2019-05-16T09:38:24.926Z</time>
      </trkpt>
      <trkpt lat="38.796535" lon="-9.104525">
        <ele>10.0</ele>
        <time>2019-05-16T09:38:25.932Z</time>
      </trkpt>
      <trkpt lat="38.79650167" lon="-9.10452333">
        <ele>10.0</ele>
        <time>2019-05-16T09:38:26.919Z</time>
      </trkpt>
      <trkpt lat="38.796485" lon="-9.10453167">
        <ele>9.0</ele>
        <time>2019-05-16T09:38:27.897Z</time>
      </trkpt>
      <trkpt lat="38.796485" lon="-9.10453167">
        <ele>9.0</ele>
        <time>2019-05-16T09:38:28.913Z</time>
      </trkpt>
      <trkpt lat="38.79645833" lon="-9.10455667">
        <ele>9.0</ele>
        <time>2019-05-16T09:38:29.920Z</time>
      </trkpt>
      <trkpt lat="38.796445" lon="-9.104565">
        <ele>9.0</ele>
        <time>2019-05-16T09:38:30.902Z</time>
      </trkpt>
      <trkpt lat="38.796445" lon="-9.104565">
        <ele>9.0</ele>
        <time>2019-05-16T09:38:31.927Z</time>
      </trkpt>
      <trkpt lat="38.796415" lon="-9.104555">
        <ele>9.0</ele>
        <time>2019-05-16T09:38:32.900Z</time>
      </trkpt>
      <trkpt lat="38.796415" lon="-9.104555">
        <ele>9.0</ele>
        <time>2019-05-16T09:38:33.917Z</time>
      </trkpt>
      <trkpt lat="38.79638333" lon="-9.10454667">
        <ele>9.0</ele>
        <time>2019-05-16T09:38:34.932Z</time>
      </trkpt>
      <trkpt lat="38.79638333" lon="-9.10454667">
        <ele>9.0</ele>
        <time>2019-05-16T09:38:35.932Z</time>
      </trkpt>
      <trkpt lat="38.79635833" lon="-9.10454">
        <ele>9.0</ele>
        <time>2019-05-16T09:38:36.900Z</time>
      </trkpt>
      <trkpt lat="38.79635833" lon="-9.10454">
        <ele>9.0</ele>
        <time>2019-05-16T09:38:37.899Z</time>
      </trkpt>
      <trkpt lat="38.79634167" lon="-9.10455">
        <ele>10.0</ele>
        <time>2019-05-16T09:38:38.908Z</time>
      </trkpt>
      <trkpt lat="38.79634167" lon="-9.10455">
        <ele>10.0</ele>
        <time>2019-05-16T09:38:39.902Z</time>
      </trkpt>
      <trkpt lat="38.79631833" lon="-9.10456833">
        <ele>10.0</ele>
        <time>2019-05-16T09:38:40.914Z</time>
      </trkpt>
      <trkpt lat="38.79631833" lon="-9.10456833">
        <ele>10.0</ele>
        <time>2019-05-16T09:38:41.898Z</time>
      </trkpt>
      <trkpt lat="38.79627833" lon="-9.10459">
        <ele>9.0</ele>
        <time>2019-05-16T09:38:42.921Z</time>
      </trkpt>
      <trkpt lat="38.79627833" lon="-9.10459">
        <ele>9.0</ele>
        <time>2019-05-16T09:38:43.920Z</time>
      </trkpt>
      <trkpt lat="38.796245" lon="-9.10459667">
        <ele>9.0</ele>
        <time>2019-05-16T09:38:44.932Z</time>
      </trkpt>
      <trkpt lat="38.79623167" lon="-9.10459833">
        <ele>9.0</ele>
        <time>2019-05-16T09:38:45.933Z</time>
      </trkpt>
      <trkpt lat="38.79623167" lon="-9.10459833">
        <ele>9.0</ele>
        <time>2019-05-16T09:38:46.927Z</time>
      </trkpt>
      <trkpt lat="38.79621667" lon="-9.10460167">
        <ele>8.0</ele>
        <time>2019-05-16T09:38:47.934Z</time>
      </trkpt>
      <trkpt lat="38.796215" lon="-9.104605">
        <ele>8.0</ele>
        <time>2019-05-16T09:38:48.918Z</time>
      </trkpt>
      <trkpt lat="38.796215" lon="-9.104605">
        <ele>8.0</ele>
        <time>2019-05-16T09:38:49.899Z</time>
      </trkpt>
      <trkpt lat="38.796215" lon="-9.104605">
        <ele>8.0</ele>
        <time>2019-05-16T09:38:50.906Z</time>
      </trkpt>
      <trkpt lat="38.796215" lon="-9.104605">
        <ele>8.0</ele>
        <time>2019-05-16T09:38:51.912Z</time>
      </trkpt>
      <trkpt lat="38.796215" lon="-9.104605">
        <ele>8.0</ele>
        <time>2019-05-16T09:38:52.923Z</time>
      </trkpt>
      <trkpt lat="38.796215" lon="-9.104605">
        <ele>8.0</ele>
        <time>2019-05-16T09:38:53.931Z</time>
      </trkpt>
      <trkpt lat="38.796215" lon="-9.104605">
        <ele>8.0</ele>
        <time>2019-05-16T09:38:54.915Z</time>
      </trkpt>
      <trkpt lat="38.796215" lon="-9.104605">
        <ele>8.0</ele>
        <time>2019-05-16T09:38:55.933Z</time>
      </trkpt>
      <trkpt lat="38.796215" lon="-9.104605">
        <ele>8.0</ele>
        <time>2019-05-16T09:38:56.930Z</time>
      </trkpt>
      <trkpt lat="38.796215" lon="-9.104605">
        <ele>8.0</ele>
        <time>2019-05-16T09:38:57.897Z</time>
      </trkpt>
      <trkpt lat="38.796215" lon="-9.104605">
        <ele>8.0</ele>
        <time>2019-05-16T09:38:58.930Z</time>
      </trkpt>
      <trkpt lat="38.79620333" lon="-9.10461833">
        <ele>8.0</ele>
        <time>2019-05-16T09:38:59.932Z</time>
      </trkpt>
      <trkpt lat="38.79620167" lon="-9.10461833">
        <ele>8.0</ele>
        <time>2019-05-16T09:39:00.929Z</time>
      </trkpt>
      <trkpt lat="38.79620167" lon="-9.10461833">
        <ele>8.0</ele>
        <time>2019-05-16T09:39:01.928Z</time>
      </trkpt>
      <trkpt lat="38.7962" lon="-9.10462">
        <ele>8.0</ele>
        <time>2019-05-16T09:39:02.934Z</time>
      </trkpt>
      <trkpt lat="38.79618833" lon="-9.10465">
        <ele>8.0</ele>
        <time>2019-05-16T09:39:03.936Z</time>
      </trkpt>
      <trkpt lat="38.79618833" lon="-9.10465">
        <ele>8.0</ele>
        <time>2019-05-16T09:39:04.933Z</time>
      </trkpt>
      <trkpt lat="38.796175" lon="-9.10468">
        <ele>9.0</ele>
        <time>2019-05-16T09:39:05.934Z</time>
      </trkpt>
      <trkpt lat="38.796175" lon="-9.10468">
        <ele>9.0</ele>
        <time>2019-05-16T09:39:06.936Z</time>
      </trkpt>
      <trkpt lat="38.79616667" lon="-9.10471167">
        <ele>9.0</ele>
        <time>2019-05-16T09:39:07.897Z</time>
      </trkpt>
      <trkpt lat="38.79616667" lon="-9.10471167">
        <ele>9.0</ele>
        <time>2019-05-16T09:39:08.930Z</time>
      </trkpt>
      <trkpt lat="38.79615333" lon="-9.104745">
        <ele>9.0</ele>
        <time>2019-05-16T09:39:09.940Z</time>
      </trkpt>
      <trkpt lat="38.79615333" lon="-9.104745">
        <ele>9.0</ele>
        <time>2019-05-16T09:39:10.930Z</time>
      </trkpt>
      <trkpt lat="38.79614" lon="-9.10477667">
        <ele>9.0</ele>
        <time>2019-05-16T09:39:11.936Z</time>
      </trkpt>
      <trkpt lat="38.796135" lon="-9.10479167">
        <ele>9.0</ele>
        <time>2019-05-16T09:39:12.925Z</time>
      </trkpt>
      <trkpt lat="38.796135" lon="-9.10479167">
        <ele>9.0</ele>
        <time>2019-05-16T09:39:13.908Z</time>
      </trkpt>
      <trkpt lat="38.79613667" lon="-9.10481667">
        <ele>9.0</ele>
        <time>2019-05-16T09:39:14.915Z</time>
      </trkpt>
      <trkpt lat="38.79613667" lon="-9.10481667">
        <ele>9.0</ele>
        <time>2019-05-16T09:39:15.909Z</time>
      </trkpt>
      <trkpt lat="38.79614167" lon="-9.10484">
        <ele>9.0</ele>
        <time>2019-05-16T09:39:16.900Z</time>
      </trkpt>
      <trkpt lat="38.79614167" lon="-9.10484">
        <ele>9.0</ele>
        <time>2019-05-16T09:39:17.902Z</time>
      </trkpt>
      <trkpt lat="38.796155" lon="-9.104865">
        <ele>10.0</ele>
        <time>2019-05-16T09:39:18.910Z</time>
      </trkpt>
      <trkpt lat="38.796155" lon="-9.104865">
        <ele>10.0</ele>
        <time>2019-05-16T09:39:19.932Z</time>
      </trkpt>
      <trkpt lat="38.79616667" lon="-9.10488667">
        <ele>9.0</ele>
        <time>2019-05-16T09:39:20.902Z</time>
      </trkpt>
      <trkpt lat="38.79616667" lon="-9.10488667">
        <ele>9.0</ele>
        <time>2019-05-16T09:39:21.899Z</time>
      </trkpt>
      <trkpt lat="38.79618333" lon="-9.10490667">
        <ele>9.0</ele>
        <time>2019-05-16T09:39:22.910Z</time>
      </trkpt>
      <trkpt lat="38.79619167" lon="-9.10491667">
        <ele>9.0</ele>
        <time>2019-05-16T09:39:23.933Z</time>
      </trkpt>
      <trkpt lat="38.79619167" lon="-9.10491667">
        <ele>9.0</ele>
        <time>2019-05-16T09:39:24.915Z</time>
      </trkpt>
      <trkpt lat="38.79621667" lon="-9.104945">
        <ele>9.0</ele>
        <time>2019-05-16T09:39:25.926Z</time>
      </trkpt>
      <trkpt lat="38.79621667" lon="-9.104945">
        <ele>9.0</ele>
        <time>2019-05-16T09:39:26.907Z</time>
      </trkpt>
      <trkpt lat="38.79624167" lon="-9.104965">
        <ele>8.0</ele>
        <time>2019-05-16T09:39:27.927Z</time>
      </trkpt>
      <trkpt lat="38.79624167" lon="-9.104965">
        <ele>8.0</ele>
        <time>2019-05-16T09:39:28.904Z</time>
      </trkpt>
      <trkpt lat="38.79626333" lon="-9.10497667">
        <ele>8.0</ele>
        <time>2019-05-16T09:39:29.915Z</time>
      </trkpt>
      <trkpt lat="38.79627667" lon="-9.10498">
        <ele>8.0</ele>
        <time>2019-05-16T09:39:30.903Z</time>
      </trkpt>
      <trkpt lat="38.79627667" lon="-9.10498">
        <ele>8.0</ele>
        <time>2019-05-16T09:39:31.929Z</time>
      </trkpt>
      <trkpt lat="38.79629833" lon="-9.10498667">
        <ele>8.0</ele>
        <time>2019-05-16T09:39:32.935Z</time>
      </trkpt>
      <trkpt lat="38.79629833" lon="-9.10498667">
        <ele>8.0</ele>
        <time>2019-05-16T09:39:33.904Z</time>
      </trkpt>
      <trkpt lat="38.79631833" lon="-9.10498833">
        <ele>8.0</ele>
        <time>2019-05-16T09:39:34.901Z</time>
      </trkpt>
      <trkpt lat="38.79632667" lon="-9.10499167">
        <ele>8.0</ele>
        <time>2019-05-16T09:39:35.932Z</time>
      </trkpt>
      <trkpt lat="38.79632667" lon="-9.10499167">
        <ele>8.0</ele>
        <time>2019-05-16T09:39:36.913Z</time>
      </trkpt>
      <trkpt lat="38.79635" lon="-9.10499333">
        <ele>8.0</ele>
        <time>2019-05-16T09:39:37.936Z</time>
      </trkpt>
      <trkpt lat="38.79635" lon="-9.10499333">
        <ele>8.0</ele>
        <time>2019-05-16T09:39:38.903Z</time>
      </trkpt>
      <trkpt lat="38.79637667" lon="-9.10500333">
        <ele>8.0</ele>
        <time>2019-05-16T09:39:39.912Z</time>
      </trkpt>
      <trkpt lat="38.79637667" lon="-9.10500333">
        <ele>8.0</ele>
        <time>2019-05-16T09:39:40.936Z</time>
      </trkpt>
      <trkpt lat="38.79640333" lon="-9.10501">
        <ele>8.0</ele>
        <time>2019-05-16T09:39:41.911Z</time>
      </trkpt>
      <trkpt lat="38.79641833" lon="-9.105015">
        <ele>8.0</ele>
        <time>2019-05-16T09:39:42.923Z</time>
      </trkpt>
      <trkpt lat="38.79641833" lon="-9.105015">
        <ele>8.0</ele>
        <time>2019-05-16T09:39:43.906Z</time>
      </trkpt>
      <trkpt lat="38.79644833" lon="-9.10502333">
        <ele>8.0</ele>
        <time>2019-05-16T09:39:44.917Z</time>
      </trkpt>
      <trkpt lat="38.79644833" lon="-9.10502333">
        <ele>8.0</ele>
        <time>2019-05-16T09:39:45.922Z</time>
      </trkpt>
      <trkpt lat="38.79646833" lon="-9.10505">
        <ele>9.0</ele>
        <time>2019-05-16T09:39:46.902Z</time>
      </trkpt>
      <trkpt lat="38.79646833" lon="-9.10505">
        <ele>9.0</ele>
        <time>2019-05-16T09:39:47.910Z</time>
      </trkpt>
      <trkpt lat="38.79648333" lon="-9.10507667">
        <ele>8.0</ele>
        <time>2019-05-16T09:39:48.909Z</time>
      </trkpt>
      <trkpt lat="38.79648333" lon="-9.10507667">
        <ele>8.0</ele>
        <time>2019-05-16T09:39:49.916Z</time>
      </trkpt>
      <trkpt lat="38.79649667" lon="-9.10508667">
        <ele>8.0</ele>
        <time>2019-05-16T09:39:50.924Z</time>
      </trkpt>
      <trkpt lat="38.79649667" lon="-9.10508667">
        <ele>8.0</ele>
        <time>2019-05-16T09:39:51.905Z</time>
      </trkpt>
      <trkpt lat="38.79650333" lon="-9.10509333">
        <ele>8.0</ele>
        <time>2019-05-16T09:39:52.911Z</time>
      </trkpt>
      <trkpt lat="38.79650333" lon="-9.10509333">
        <ele>8.0</ele>
        <time>2019-05-16T09:39:53.903Z</time>
      </trkpt>
      <trkpt lat="38.796515" lon="-9.105095">
        <ele>8.0</ele>
        <time>2019-05-16T09:39:54.909Z</time>
      </trkpt>
      <trkpt lat="38.796515" lon="-9.105095">
        <ele>8.0</ele>
        <time>2019-05-16T09:39:55.922Z</time>
      </trkpt>
      <trkpt lat="38.796525" lon="-9.10509833">
        <ele>8.0</ele>
        <time>2019-05-16T09:39:56.935Z</time>
      </trkpt>
      <trkpt lat="38.796525" lon="-9.10509833">
        <ele>8.0</ele>
        <time>2019-05-16T09:39:57.930Z</time>
      </trkpt>
      <trkpt lat="38.79652167" lon="-9.10509833">
        <ele>8.0</ele>
        <time>2019-05-16T09:39:58.907Z</time>
      </trkpt>
      <trkpt lat="38.79652167" lon="-9.10509833">
        <ele>8.0</ele>
        <time>2019-05-16T09:39:59.900Z</time>
      </trkpt>
      <trkpt lat="38.79652833" lon="-9.10509333">
        <ele>8.0</ele>
        <time>2019-05-16T09:40:00.900Z</time>
      </trkpt>
      <trkpt lat="38.79652833" lon="-9.10509333">
        <ele>8.0</ele>
        <time>2019-05-16T09:40:01.928Z</time>
      </trkpt>
      <trkpt lat="38.79653667" lon="-9.10509167">
        <ele>8.0</ele>
        <time>2019-05-16T09:40:02.936Z</time>
      </trkpt>
      <trkpt lat="38.79653667" lon="-9.10509167">
        <ele>8.0</ele>
        <time>2019-05-16T09:40:03.930Z</time>
      </trkpt>
      <trkpt lat="38.79654" lon="-9.10509">
        <ele>8.0</ele>
        <time>2019-05-16T09:40:04.930Z</time>
      </trkpt>
      <trkpt lat="38.79654" lon="-9.10509">
        <ele>8.0</ele>
        <time>2019-05-16T09:40:05.931Z</time>
      </trkpt>
      <trkpt lat="38.79654" lon="-9.10509">
        <ele>8.0</ele>
        <time>2019-05-16T09:40:06.898Z</time>
      </trkpt>
      <trkpt lat="38.79654" lon="-9.10509">
        <ele>8.0</ele>
        <time>2019-05-16T09:40:07.931Z</time>
      </trkpt>
      <trkpt lat="38.79654" lon="-9.10509">
        <ele>8.0</ele>
        <time>2019-05-16T09:40:08.908Z</time>
      </trkpt>
      <trkpt lat="38.79654" lon="-9.10509">
        <ele>8.0</ele>
        <time>2019-05-16T09:40:09.931Z</time>
      </trkpt>
      <trkpt lat="38.79654" lon="-9.10509">
        <ele>8.0</ele>
        <time>2019-05-16T09:40:10.926Z</time>
      </trkpt>
      <trkpt lat="38.79654" lon="-9.10509">
        <ele>8.0</ele>
        <time>2019-05-16T09:40:11.911Z</time>
      </trkpt>
      <trkpt lat="38.79655667" lon="-9.10507667">
        <ele>9.0</ele>
        <time>2019-05-16T09:40:12.899Z</time>
      </trkpt>
      <trkpt lat="38.79655667" lon="-9.10507667">
        <ele>9.0</ele>
        <time>2019-05-16T09:40:13.930Z</time>
      </trkpt>
      <trkpt lat="38.79656333" lon="-9.105085">
        <ele>8.0</ele>
        <time>2019-05-16T09:40:14.913Z</time>
      </trkpt>
      <trkpt lat="38.796565" lon="-9.10508833">
        <ele>8.0</ele>
        <time>2019-05-16T09:40:15.937Z</time>
      </trkpt>
      <trkpt lat="38.796565" lon="-9.10508833">
        <ele>8.0</ele>
        <time>2019-05-16T09:40:16.898Z</time>
      </trkpt>
      <trkpt lat="38.796565" lon="-9.10508833">
        <ele>8.0</ele>
        <time>2019-05-16T09:40:17.929Z</time>
      </trkpt>
      <trkpt lat="38.796565" lon="-9.10508833">
        <ele>9.0</ele>
        <time>2019-05-16T09:40:18.898Z</time>
      </trkpt>
      <trkpt lat="38.796565" lon="-9.10508833">
        <ele>9.0</ele>
        <time>2019-05-16T09:40:19.929Z</time>
      </trkpt>
      <trkpt lat="38.796565" lon="-9.10508833">
        <ele>9.0</ele>
        <time>2019-05-16T09:40:20.907Z</time>
      </trkpt>
      <trkpt lat="38.796565" lon="-9.10508833">
        <ele>9.0</ele>
        <time>2019-05-16T09:40:21.936Z</time>
      </trkpt>
      <trkpt lat="38.796565" lon="-9.10508833">
        <ele>9.0</ele>
        <time>2019-05-16T09:40:22.931Z</time>
      </trkpt>
      <trkpt lat="38.79658" lon="-9.10509">
        <ele>9.0</ele>
        <time>2019-05-16T09:40:23.934Z</time>
      </trkpt>
      <trkpt lat="38.79659167" lon="-9.10509">
        <ele>9.0</ele>
        <time>2019-05-16T09:40:24.897Z</time>
      </trkpt>
      <trkpt lat="38.79659167" lon="-9.10509">
        <ele>9.0</ele>
        <time>2019-05-16T09:40:25.929Z</time>
      </trkpt>
      <trkpt lat="38.79660833" lon="-9.10509333">
        <ele>10.0</ele>
        <time>2019-05-16T09:40:26.936Z</time>
      </trkpt>
      <trkpt lat="38.79660833" lon="-9.10509333">
        <ele>10.0</ele>
        <time>2019-05-16T09:40:27.930Z</time>
      </trkpt>
      <trkpt lat="38.79661833" lon="-9.10510167">
        <ele>10.0</ele>
        <time>2019-05-16T09:40:28.925Z</time>
      </trkpt>
      <trkpt lat="38.79661833" lon="-9.10510167">
        <ele>10.0</ele>
        <time>2019-05-16T09:40:29.903Z</time>
      </trkpt>
      <trkpt lat="38.79661833" lon="-9.10510667">
        <ele>10.0</ele>
        <time>2019-05-16T09:40:30.914Z</time>
      </trkpt>
      <trkpt lat="38.79661833" lon="-9.10510667">
        <ele>10.0</ele>
        <time>2019-05-16T09:40:31.931Z</time>
      </trkpt>
      <trkpt lat="38.79661833" lon="-9.10510833">
        <ele>10.0</ele>
        <time>2019-05-16T09:40:32.906Z</time>
      </trkpt>
      <trkpt lat="38.79661833" lon="-9.10510833">
        <ele>10.0</ele>
        <time>2019-05-16T09:40:33.912Z</time>
      </trkpt>
      <trkpt lat="38.79661833" lon="-9.10510833">
        <ele>10.0</ele>
        <time>2019-05-16T09:40:34.902Z</time>
      </trkpt>
      <trkpt lat="38.79661833" lon="-9.10510833">
        <ele>10.0</ele>
        <time>2019-05-16T09:40:35.924Z</time>
      </trkpt>
      <trkpt lat="38.79661833" lon="-9.10510833">
        <ele>10.0</ele>
        <time>2019-05-16T09:40:36.908Z</time>
      </trkpt>
      <trkpt lat="38.79661833" lon="-9.10510833">
        <ele>10.0</ele>
        <time>2019-05-16T09:40:37.931Z</time>
      </trkpt>
      <trkpt lat="38.79661833" lon="-9.10510833">
        <ele>10.0</ele>
        <time>2019-05-16T09:40:38.908Z</time>
      </trkpt>
      <trkpt lat="38.79661833" lon="-9.10510833">
        <ele>10.0</ele>
        <time>2019-05-16T09:40:39.900Z</time>
      </trkpt>
      <trkpt lat="38.79661833" lon="-9.10510833">
        <ele>10.0</ele>
        <time>2019-05-16T09:40:40.936Z</time>
      </trkpt>
      <trkpt lat="38.79661833" lon="-9.10510833">
        <ele>10.0</ele>
        <time>2019-05-16T09:40:41.929Z</time>
      </trkpt>
      <trkpt lat="38.79661833" lon="-9.10510833">
        <ele>10.0</ele>
        <time>2019-05-16T09:40:42.899Z</time>
      </trkpt>
      <trkpt lat="38.79661833" lon="-9.10510833">
        <ele>10.0</ele>
        <time>2019-05-16T09:40:43.931Z</time>
      </trkpt>
      <trkpt lat="38.79661833" lon="-9.10510833">
        <ele>10.0</ele>
        <time>2019-05-16T09:40:44.935Z</time>
      </trkpt>
      <trkpt lat="38.79661833" lon="-9.10510833">
        <ele>10.0</ele>
        <time>2019-05-16T09:40:45.929Z</time>
      </trkpt>
      <trkpt lat="38.79661833" lon="-9.10510833">
        <ele>10.0</ele>
        <time>2019-05-16T09:40:46.897Z</time>
      </trkpt>
      <trkpt lat="38.79661833" lon="-9.10510833">
        <ele>10.0</ele>
        <time>2019-05-16T09:40:47.929Z</time>
      </trkpt>
      <trkpt lat="38.79661833" lon="-9.10510833">
        <ele>10.0</ele>
        <time>2019-05-16T09:40:48.906Z</time>
      </trkpt>
      <trkpt lat="38.79661833" lon="-9.10510833">
        <ele>10.0</ele>
        <time>2019-05-16T09:40:49.931Z</time>
      </trkpt>
      <trkpt lat="38.79661833" lon="-9.10510833">
        <ele>10.0</ele>
        <time>2019-05-16T09:40:50.936Z</time>
      </trkpt>
      <trkpt lat="38.79661833" lon="-9.10510833">
        <ele>10.0</ele>
        <time>2019-05-16T09:40:51.929Z</time>
      </trkpt>
      <trkpt lat="38.79661833" lon="-9.10510833">
        <ele>10.0</ele>
        <time>2019-05-16T09:40:52.934Z</time>
      </trkpt>
      <trkpt lat="38.79661833" lon="-9.10510833">
        <ele>10.0</ele>
        <time>2019-05-16T09:40:53.929Z</time>
      </trkpt>
      <trkpt lat="38.79661833" lon="-9.10510833">
        <ele>10.0</ele>
        <time>2019-05-16T09:40:54.897Z</time>
      </trkpt>
      <trkpt lat="38.79661833" lon="-9.10510833">
        <ele>10.0</ele>
        <time>2019-05-16T09:40:55.900Z</time>
      </trkpt>
      <trkpt lat="38.79661833" lon="-9.10510833">
        <ele>10.0</ele>
        <time>2019-05-16T09:40:56.936Z</time>
      </trkpt>
      <trkpt lat="38.79661833" lon="-9.10510833">
        <ele>10.0</ele>
        <time>2019-05-16T09:40:57.930Z</time>
      </trkpt>
      <trkpt lat="38.79661833" lon="-9.10510833">
        <ele>10.0</ele>
        <time>2019-05-16T09:40:58.907Z</time>
      </trkpt>
      <trkpt lat="38.79661833" lon="-9.10510833">
        <ele>10.0</ele>
        <time>2019-05-16T09:40:59.932Z</time>
      </trkpt>
      <trkpt lat="38.79661833" lon="-9.10510833">
        <ele>10.0</ele>
        <time>2019-05-16T09:41:00.899Z</time>
      </trkpt>
      <trkpt lat="38.79661833" lon="-9.10510833">
        <ele>10.0</ele>
        <time>2019-05-16T09:41:01.936Z</time>
      </trkpt>
      <trkpt lat="38.79661833" lon="-9.10510833">
        <ele>10.0</ele>
        <time>2019-05-16T09:41:02.930Z</time>
      </trkpt>
      <trkpt lat="38.79661833" lon="-9.10510833">
        <ele>10.0</ele>
        <time>2019-05-16T09:41:03.934Z</time>
      </trkpt>
      <trkpt lat="38.79661833" lon="-9.10510833">
        <ele>10.0</ele>
        <time>2019-05-16T09:41:04.930Z</time>
      </trkpt>
      <trkpt lat="38.79661833" lon="-9.10510833">
        <ele>10.0</ele>
        <time>2019-05-16T09:41:05.936Z</time>
      </trkpt>
      <trkpt lat="38.79661833" lon="-9.10510833">
        <ele>10.0</ele>
        <time>2019-05-16T09:41:06.935Z</time>
      </trkpt>
      <trkpt lat="38.79661833" lon="-9.10510833">
        <ele>10.0</ele>
        <time>2019-05-16T09:41:07.929Z</time>
      </trkpt>
      <trkpt lat="38.79661833" lon="-9.10510833">
        <ele>10.0</ele>
        <time>2019-05-16T09:41:08.906Z</time>
      </trkpt>
      <trkpt lat="38.79661833" lon="-9.10510833">
        <ele>10.0</ele>
        <time>2019-05-16T09:41:09.931Z</time>
      </trkpt>
      <trkpt lat="38.79661833" lon="-9.10510833">
        <ele>10.0</ele>
        <time>2019-05-16T09:41:10.897Z</time>
      </trkpt>
      <trkpt lat="38.79661833" lon="-9.10510833">
        <ele>10.0</ele>
        <time>2019-05-16T09:41:11.897Z</time>
      </trkpt>
      <trkpt lat="38.79661833" lon="-9.10510833">
        <ele>10.0</ele>
        <time>2019-05-16T09:41:12.897Z</time>
      </trkpt>
      <trkpt lat="38.79661833" lon="-9.10510833">
        <ele>10.0</ele>
        <time>2019-05-16T09:41:13.928Z</time>
      </trkpt>
      <trkpt lat="38.79661833" lon="-9.10510833">
        <ele>10.0</ele>
        <time>2019-05-16T09:41:14.934Z</time>
      </trkpt>
      <trkpt lat="38.79661833" lon="-9.10510833">
        <ele>10.0</ele>
        <time>2019-05-16T09:41:15.928Z</time>
      </trkpt>
      <trkpt lat="38.79661833" lon="-9.10510833">
        <ele>10.0</ele>
        <time>2019-05-16T09:41:16.934Z</time>
      </trkpt>
      <trkpt lat="38.79661833" lon="-9.10510833">
        <ele>10.0</ele>
        <time>2019-05-16T09:41:17.928Z</time>
      </trkpt>
      <trkpt lat="38.79661833" lon="-9.10510833">
        <ele>10.0</ele>
        <time>2019-05-16T09:41:18.905Z</time>
      </trkpt>
      <trkpt lat="38.79661833" lon="-9.10510833">
        <ele>10.0</ele>
        <time>2019-05-16T09:41:19.932Z</time>
      </trkpt>
      <trkpt lat="38.79661833" lon="-9.10510833">
        <ele>10.0</ele>
        <time>2019-05-16T09:41:20.930Z</time>
      </trkpt>
      <trkpt lat="38.79661833" lon="-9.10510833">
        <ele>10.0</ele>
        <time>2019-05-16T09:41:21.929Z</time>
      </trkpt>
      <trkpt lat="38.79661833" lon="-9.10510833">
        <ele>10.0</ele>
        <time>2019-05-16T09:41:22.935Z</time>
      </trkpt>
      <trkpt lat="38.79661833" lon="-9.10510833">
        <ele>10.0</ele>
        <time>2019-05-16T09:41:23.929Z</time>
      </trkpt>
      <trkpt lat="38.79661833" lon="-9.10510833">
        <ele>10.0</ele>
        <time>2019-05-16T09:41:24.936Z</time>
      </trkpt>
      <trkpt lat="38.79661833" lon="-9.10510833">
        <ele>10.0</ele>
        <time>2019-05-16T09:41:25.928Z</time>
      </trkpt>
      <trkpt lat="38.79661833" lon="-9.10510833">
        <ele>10.0</ele>
        <time>2019-05-16T09:41:26.934Z</time>
      </trkpt>
      <trkpt lat="38.79661833" lon="-9.10510833">
        <ele>10.0</ele>
        <time>2019-05-16T09:41:27.929Z</time>
      </trkpt>
      <trkpt lat="38.79661833" lon="-9.10510833">
        <ele>10.0</ele>
        <time>2019-05-16T09:41:28.905Z</time>
      </trkpt>
      <trkpt lat="38.79661833" lon="-9.10510833">
        <ele>10.0</ele>
        <time>2019-05-16T09:41:29.931Z</time>
      </trkpt>
      <trkpt lat="38.79661833" lon="-9.10510833">
        <ele>10.0</ele>
        <time>2019-05-16T09:41:30.936Z</time>
      </trkpt>
      <trkpt lat="38.79661833" lon="-9.10510833">
        <ele>10.0</ele>
        <time>2019-05-16T09:41:31.928Z</time>
      </trkpt>
      <trkpt lat="38.79661833" lon="-9.10510833">
        <ele>10.0</ele>
        <time>2019-05-16T09:41:32.934Z</time>
      </trkpt>
      <trkpt lat="38.79661833" lon="-9.10510833">
        <ele>10.0</ele>
        <time>2019-05-16T09:41:33.929Z</time>
      </trkpt>
      <trkpt lat="38.79661833" lon="-9.10510833">
        <ele>10.0</ele>
        <time>2019-05-16T09:41:34.935Z</time>
      </trkpt>
      <trkpt lat="38.79661833" lon="-9.10510833">
        <ele>10.0</ele>
        <time>2019-05-16T09:41:35.934Z</time>
      </trkpt>
      <trkpt lat="38.79661833" lon="-9.10510833">
        <ele>10.0</ele>
        <time>2019-05-16T09:41:36.931Z</time>
      </trkpt>
      <trkpt lat="38.79661833" lon="-9.10510833">
        <ele>10.0</ele>
        <time>2019-05-16T09:41:37.937Z</time>
      </trkpt>
      <trkpt lat="38.79661833" lon="-9.10510833">
        <ele>10.0</ele>
        <time>2019-05-16T09:41:38.930Z</time>
      </trkpt>
      <trkpt lat="38.79661833" lon="-9.10510833">
        <ele>10.0</ele>
        <time>2019-05-16T09:41:39.935Z</time>
      </trkpt>
      <trkpt lat="38.79661833" lon="-9.10510833">
        <ele>10.0</ele>
        <time>2019-05-16T09:41:40.900Z</time>
      </trkpt>
      <trkpt lat="38.79661833" lon="-9.10510833">
        <ele>10.0</ele>
        <time>2019-05-16T09:41:41.935Z</time>
      </trkpt>
      <trkpt lat="38.79661833" lon="-9.10510833">
        <ele>10.0</ele>
        <time>2019-05-16T09:41:42.897Z</time>
      </trkpt>
      <trkpt lat="38.79661833" lon="-9.10510833">
        <ele>10.0</ele>
        <time>2019-05-16T09:41:43.929Z</time>
      </trkpt>
      <trkpt lat="38.79661833" lon="-9.10510833">
        <ele>10.0</ele>
        <time>2019-05-16T09:41:44.935Z</time>
      </trkpt>
      <trkpt lat="38.79661833" lon="-9.10510833">
        <ele>10.0</ele>
        <time>2019-05-16T09:41:45.939Z</time>
      </trkpt>
      <trkpt lat="38.79661833" lon="-9.10510833">
        <ele>10.0</ele>
        <time>2019-05-16T09:41:46.935Z</time>
      </trkpt>
      <trkpt lat="38.79661833" lon="-9.10510833">
        <ele>10.0</ele>
        <time>2019-05-16T09:41:47.929Z</time>
      </trkpt>
      <trkpt lat="38.79661833" lon="-9.10510833">
        <ele>10.0</ele>
        <time>2019-05-16T09:41:48.907Z</time>
      </trkpt>
      <trkpt lat="38.79661833" lon="-9.10510833">
        <ele>10.0</ele>
        <time>2019-05-16T09:41:49.931Z</time>
      </trkpt>
      <trkpt lat="38.79661833" lon="-9.10510833">
        <ele>10.0</ele>
        <time>2019-05-16T09:41:50.934Z</time>
      </trkpt>
      <trkpt lat="38.79661833" lon="-9.10510833">
        <ele>10.0</ele>
        <time>2019-05-16T09:41:51.933Z</time>
      </trkpt>
      <trkpt lat="38.79661833" lon="-9.10510833">
        <ele>10.0</ele>
        <time>2019-05-16T09:41:52.929Z</time>
      </trkpt>
      <trkpt lat="38.79661833" lon="-9.10510833">
        <ele>10.0</ele>
        <time>2019-05-16T09:41:53.936Z</time>
      </trkpt>
      <trkpt lat="38.79661833" lon="-9.10510833">
        <ele>10.0</ele>
        <time>2019-05-16T09:41:54.898Z</time>
      </trkpt>
      <trkpt lat="38.79661833" lon="-9.10510833">
        <ele>10.0</ele>
        <time>2019-05-16T09:41:55.929Z</time>
      </trkpt>
      <trkpt lat="38.79661833" lon="-9.10510833">
        <ele>10.0</ele>
        <time>2019-05-16T09:41:56.936Z</time>
      </trkpt>
      <trkpt lat="38.79661833" lon="-9.10510833">
        <ele>10.0</ele>
        <time>2019-05-16T09:41:57.928Z</time>
      </trkpt>
      <trkpt lat="38.79661833" lon="-9.10510833">
        <ele>10.0</ele>
        <time>2019-05-16T09:41:58.906Z</time>
      </trkpt>
      <trkpt lat="38.79661833" lon="-9.10510833">
        <ele>10.0</ele>
        <time>2019-05-16T09:41:59.931Z</time>
      </trkpt>
      <trkpt lat="38.79661833" lon="-9.10510833">
        <ele>10.0</ele>
        <time>2019-05-16T09:42:00.897Z</time>
      </trkpt>
      <trkpt lat="38.79661833" lon="-9.10510833">
        <ele>10.0</ele>
        <time>2019-05-16T09:42:01.910Z</time>
      </trkpt>
      <trkpt lat="38.79661833" lon="-9.10510833">
        <ele>10.0</ele>
        <time>2019-05-16T09:42:02.902Z</time>
      </trkpt>
      <trkpt lat="38.79661833" lon="-9.10510833">
        <ele>10.0</ele>
        <time>2019-05-16T09:42:03.926Z</time>
      </trkpt>
      <trkpt lat="38.79661833" lon="-9.10510833">
        <ele>10.0</ele>
        <time>2019-05-16T09:42:04.935Z</time>
      </trkpt>
      <trkpt lat="38.79661833" lon="-9.10510833">
        <ele>10.0</ele>
        <time>2019-05-16T09:42:05.929Z</time>
      </trkpt>
      <trkpt lat="38.79661833" lon="-9.10510833">
        <ele>10.0</ele>
        <time>2019-05-16T09:42:06.897Z</time>
      </trkpt>
      <trkpt lat="38.79661833" lon="-9.10510833">
        <ele>10.0</ele>
        <time>2019-05-16T09:42:07.929Z</time>
      </trkpt>
      <trkpt lat="38.79661833" lon="-9.10510833">
        <ele>10.0</ele>
        <time>2019-05-16T09:42:08.908Z</time>
      </trkpt>
      <trkpt lat="38.79661833" lon="-9.10510833">
        <ele>10.0</ele>
        <time>2019-05-16T09:42:09.932Z</time>
      </trkpt>
      <trkpt lat="38.79661833" lon="-9.10510833">
        <ele>10.0</ele>
        <time>2019-05-16T09:42:10.936Z</time>
      </trkpt>
      <trkpt lat="38.79661833" lon="-9.10510833">
        <ele>10.0</ele>
        <time>2019-05-16T09:42:11.933Z</time>
      </trkpt>
      <trkpt lat="38.79661833" lon="-9.10510833">
        <ele>10.0</ele>
        <time>2019-05-16T09:42:12.897Z</time>
      </trkpt>
      <trkpt lat="38.79661833" lon="-9.10510833">
        <ele>10.0</ele>
        <time>2019-05-16T09:42:13.928Z</time>
      </trkpt>
      <trkpt lat="38.79661833" lon="-9.10510833">
        <ele>10.0</ele>
        <time>2019-05-16T09:42:14.934Z</time>
      </trkpt>
      <trkpt lat="38.79661833" lon="-9.10510833">
        <ele>10.0</ele>
        <time>2019-05-16T09:42:15.929Z</time>
      </trkpt>
      <trkpt lat="38.79661833" lon="-9.10510833">
        <ele>10.0</ele>
        <time>2019-05-16T09:42:16.935Z</time>
      </trkpt>
      <trkpt lat="38.79661833" lon="-9.10510833">
        <ele>10.0</ele>
        <time>2019-05-16T09:42:17.929Z</time>
      </trkpt>
      <trkpt lat="38.79661833" lon="-9.10510833">
        <ele>10.0</ele>
        <time>2019-05-16T09:42:18.906Z</time>
      </trkpt>
      <trkpt lat="38.79661833" lon="-9.10510833">
        <ele>10.0</ele>
        <time>2019-05-16T09:42:19.931Z</time>
      </trkpt>
      <trkpt lat="38.79661833" lon="-9.10510833">
        <ele>10.0</ele>
        <time>2019-05-16T09:42:20.903Z</time>
      </trkpt>
      <trkpt lat="38.79661833" lon="-9.10510833">
        <ele>10.0</ele>
        <time>2019-05-16T09:42:21.935Z</time>
      </trkpt>
      <trkpt lat="38.79661833" lon="-9.10510833">
        <ele>10.0</ele>
        <time>2019-05-16T09:42:22.897Z</time>
      </trkpt>
      <trkpt lat="38.79661833" lon="-9.10510833">
        <ele>10.0</ele>
        <time>2019-05-16T09:42:23.929Z</time>
      </trkpt>
      <trkpt lat="38.79661833" lon="-9.10510833">
        <ele>10.0</ele>
        <time>2019-05-16T09:42:24.897Z</time>
      </trkpt>
      <trkpt lat="38.79661833" lon="-9.10510833">
        <ele>10.0</ele>
        <time>2019-05-16T09:42:25.905Z</time>
      </trkpt>
      <trkpt lat="38.79661833" lon="-9.10510833">
        <ele>10.0</ele>
        <time>2019-05-16T09:42:26.909Z</time>
      </trkpt>
      <trkpt lat="38.79661833" lon="-9.10510833">
        <ele>10.0</ele>
        <time>2019-05-16T09:42:27.901Z</time>
      </trkpt>
      <trkpt lat="38.79661833" lon="-9.10510833">
        <ele>10.0</ele>
        <time>2019-05-16T09:42:28.897Z</time>
      </trkpt>
      <trkpt lat="38.79661833" lon="-9.10510833">
        <ele>10.0</ele>
        <time>2019-05-16T09:42:29.929Z</time>
      </trkpt>
      <trkpt lat="38.79661833" lon="-9.10510833">
        <ele>10.0</ele>
        <time>2019-05-16T09:42:30.938Z</time>
      </trkpt>
      <trkpt lat="38.79661833" lon="-9.10510833">
        <ele>10.0</ele>
        <time>2019-05-16T09:42:31.938Z</time>
      </trkpt>
      <trkpt lat="38.79661833" lon="-9.10510833">
        <ele>10.0</ele>
        <time>2019-05-16T09:42:32.935Z</time>
      </trkpt>
      <trkpt lat="38.79661833" lon="-9.10510833">
        <ele>10.0</ele>
        <time>2019-05-16T09:42:33.930Z</time>
      </trkpt>
      <trkpt lat="38.79661833" lon="-9.10510833">
        <ele>10.0</ele>
        <time>2019-05-16T09:42:34.934Z</time>
      </trkpt>
      <trkpt lat="38.79661833" lon="-9.10510833">
        <ele>10.0</ele>
        <time>2019-05-16T09:42:35.929Z</time>
      </trkpt>
      <trkpt lat="38.79661833" lon="-9.10510833">
        <ele>10.0</ele>
        <time>2019-05-16T09:42:36.936Z</time>
      </trkpt>
      <trkpt lat="38.79661833" lon="-9.10510833">
        <ele>10.0</ele>
        <time>2019-05-16T09:42:37.929Z</time>
      </trkpt>
      <trkpt lat="38.79661833" lon="-9.10510833">
        <ele>10.0</ele>
        <time>2019-05-16T09:42:38.906Z</time>
      </trkpt>
      <trkpt lat="38.79661833" lon="-9.10510833">
        <ele>10.0</ele>
        <time>2019-05-16T09:42:39.934Z</time>
      </trkpt>
      <trkpt lat="38.79661833" lon="-9.10510833">
        <ele>10.0</ele>
        <time>2019-05-16T09:42:40.929Z</time>
      </trkpt>
      <trkpt lat="38.79661833" lon="-9.10510833">
        <ele>10.0</ele>
        <time>2019-05-16T09:42:41.934Z</time>
      </trkpt>
      <trkpt lat="38.79661833" lon="-9.10510833">
        <ele>10.0</ele>
        <time>2019-05-16T09:42:42.898Z</time>
      </trkpt>
      <trkpt lat="38.79661833" lon="-9.10510833">
        <ele>10.0</ele>
        <time>2019-05-16T09:42:43.929Z</time>
      </trkpt>
      <trkpt lat="38.79661833" lon="-9.10510833">
        <ele>10.0</ele>
        <time>2019-05-16T09:42:44.934Z</time>
      </trkpt>
      <trkpt lat="38.79661833" lon="-9.10510833">
        <ele>10.0</ele>
        <time>2019-05-16T09:42:45.928Z</time>
      </trkpt>
      <trkpt lat="38.79661833" lon="-9.10510833">
        <ele>10.0</ele>
        <time>2019-05-16T09:42:46.936Z</time>
      </trkpt>
      <trkpt lat="38.79661833" lon="-9.10510833">
        <ele>10.0</ele>
        <time>2019-05-16T09:42:47.932Z</time>
      </trkpt>
      <trkpt lat="38.79661833" lon="-9.10510833">
        <ele>10.0</ele>
        <time>2019-05-16T09:42:48.936Z</time>
      </trkpt>
      <trkpt lat="38.79661833" lon="-9.10510833">
        <ele>10.0</ele>
        <time>2019-05-16T09:42:49.928Z</time>
      </trkpt>
      <trkpt lat="38.79661833" lon="-9.10510833">
        <ele>10.0</ele>
        <time>2019-05-16T09:42:50.934Z</time>
      </trkpt>
      <trkpt lat="38.79661833" lon="-9.10510833">
        <ele>10.0</ele>
        <time>2019-05-16T09:42:51.928Z</time>
      </trkpt>
      <trkpt lat="38.79661833" lon="-9.10510833">
        <ele>10.0</ele>
        <time>2019-05-16T09:42:52.934Z</time>
      </trkpt>
      <trkpt lat="38.79661833" lon="-9.10510833">
        <ele>10.0</ele>
        <time>2019-05-16T09:42:53.928Z</time>
      </trkpt>
      <trkpt lat="38.79661833" lon="-9.10510833">
        <ele>10.0</ele>
        <time>2019-05-16T09:42:54.936Z</time>
      </trkpt>
      <trkpt lat="38.79661833" lon="-9.10510833">
        <ele>10.0</ele>
        <time>2019-05-16T09:42:55.929Z</time>
      </trkpt>
      <trkpt lat="38.79661833" lon="-9.10510833">
        <ele>10.0</ele>
        <time>2019-05-16T09:42:56.934Z</time>
      </trkpt>
      <trkpt lat="38.79661833" lon="-9.10510833">
        <ele>10.0</ele>
        <time>2019-05-16T09:42:57.928Z</time>
      </trkpt>
      <trkpt lat="38.79661833" lon="-9.10510833">
        <ele>10.0</ele>
        <time>2019-05-16T09:42:58.906Z</time>
      </trkpt>
      <trkpt lat="38.79661833" lon="-9.10510833">
        <ele>10.0</ele>
        <time>2019-05-16T09:42:59.934Z</time>
      </trkpt>
      <trkpt lat="38.79661833" lon="-9.10510833">
        <ele>10.0</ele>
        <time>2019-05-16T09:43:00.936Z</time>
      </trkpt>
      <trkpt lat="38.79661833" lon="-9.10510833">
        <ele>10.0</ele>
        <time>2019-05-16T09:43:01.928Z</time>
      </trkpt>
      <trkpt lat="38.79661833" lon="-9.10510833">
        <ele>10.0</ele>
        <time>2019-05-16T09:43:02.934Z</time>
      </trkpt>
      <trkpt lat="38.79661833" lon="-9.10510833">
        <ele>10.0</ele>
        <time>2019-05-16T09:43:03.928Z</time>
      </trkpt>
      <trkpt lat="38.79661833" lon="-9.10510833">
        <ele>10.0</ele>
        <time>2019-05-16T09:43:04.934Z</time>
      </trkpt>
      <trkpt lat="38.79661833" lon="-9.10510833">
        <ele>10.0</ele>
        <time>2019-05-16T09:43:05.928Z</time>
      </trkpt>
      <trkpt lat="38.79661833" lon="-9.10510833">
        <ele>10.0</ele>
        <time>2019-05-16T09:43:06.897Z</time>
      </trkpt>
      <trkpt lat="38.79661833" lon="-9.10510833">
        <ele>10.0</ele>
        <time>2019-05-16T09:43:07.928Z</time>
      </trkpt>
      <trkpt lat="38.79661833" lon="-9.10510833">
        <ele>10.0</ele>
        <time>2019-05-16T09:43:08.905Z</time>
      </trkpt>
      <trkpt lat="38.79661833" lon="-9.10510833">
        <ele>10.0</ele>
        <time>2019-05-16T09:43:09.930Z</time>
      </trkpt>
      <trkpt lat="38.79661833" lon="-9.10510833">
        <ele>10.0</ele>
        <time>2019-05-16T09:43:10.934Z</time>
      </trkpt>
      <trkpt lat="38.79661833" lon="-9.10510833">
        <ele>10.0</ele>
        <time>2019-05-16T09:43:11.928Z</time>
      </trkpt>
      <trkpt lat="38.79661833" lon="-9.10510833">
        <ele>10.0</ele>
        <time>2019-05-16T09:43:12.912Z</time>
      </trkpt>
      <trkpt lat="38.79661833" lon="-9.10510833">
        <ele>10.0</ele>
        <time>2019-05-16T09:43:13.935Z</time>
      </trkpt>
      <trkpt lat="38.79661833" lon="-9.10510833">
        <ele>10.0</ele>
        <time>2019-05-16T09:43:14.934Z</time>
      </trkpt>
      <trkpt lat="38.79661833" lon="-9.10510833">
        <ele>10.0</ele>
        <time>2019-05-16T09:43:15.928Z</time>
      </trkpt>
      <trkpt lat="38.79661833" lon="-9.10510833">
        <ele>10.0</ele>
        <time>2019-05-16T09:43:16.932Z</time>
      </trkpt>
      <trkpt lat="38.79661833" lon="-9.10510833">
        <ele>10.0</ele>
        <time>2019-05-16T09:43:17.904Z</time>
      </trkpt>
      <trkpt lat="38.79661833" lon="-9.10510833">
        <ele>10.0</ele>
        <time>2019-05-16T09:43:18.909Z</time>
      </trkpt>
      <trkpt lat="38.79661833" lon="-9.10510833">
        <ele>10.0</ele>
        <time>2019-05-16T09:43:19.932Z</time>
      </trkpt>
      <trkpt lat="38.79661833" lon="-9.10510833">
        <ele>10.0</ele>
        <time>2019-05-16T09:43:20.933Z</time>
      </trkpt>
      <trkpt lat="38.79661833" lon="-9.10510833">
        <ele>10.0</ele>
        <time>2019-05-16T09:43:21.902Z</time>
      </trkpt>
      <trkpt lat="38.79661833" lon="-9.10510833">
        <ele>10.0</ele>
        <time>2019-05-16T09:43:22.908Z</time>
      </trkpt>
      <trkpt lat="38.79661833" lon="-9.10510833">
        <ele>10.0</ele>
        <time>2019-05-16T09:43:23.923Z</time>
      </trkpt>
      <trkpt lat="38.79661833" lon="-9.10510833">
        <ele>10.0</ele>
        <time>2019-05-16T09:43:24.907Z</time>
      </trkpt>
      <trkpt lat="38.79661833" lon="-9.10510833">
        <ele>10.0</ele>
        <time>2019-05-16T09:43:25.931Z</time>
      </trkpt>
      <trkpt lat="38.79661833" lon="-9.10510833">
        <ele>10.0</ele>
        <time>2019-05-16T09:43:26.936Z</time>
      </trkpt>
      <trkpt lat="38.79661833" lon="-9.10510833">
        <ele>10.0</ele>
        <time>2019-05-16T09:43:27.931Z</time>
      </trkpt>
      <trkpt lat="38.79661833" lon="-9.10510833">
        <ele>10.0</ele>
        <time>2019-05-16T09:43:28.935Z</time>
      </trkpt>
      <trkpt lat="38.79661833" lon="-9.10510833">
        <ele>10.0</ele>
        <time>2019-05-16T09:43:29.931Z</time>
      </trkpt>
      <trkpt lat="38.79661833" lon="-9.10510833">
        <ele>10.0</ele>
        <time>2019-05-16T09:43:30.898Z</time>
      </trkpt>
      <trkpt lat="38.79661833" lon="-9.10510833">
        <ele>10.0</ele>
        <time>2019-05-16T09:43:31.928Z</time>
      </trkpt>
      <trkpt lat="38.79661833" lon="-9.10510833">
        <ele>10.0</ele>
        <time>2019-05-16T09:43:32.912Z</time>
      </trkpt>
      <trkpt lat="38.79661833" lon="-9.10510833">
        <ele>10.0</ele>
        <time>2019-05-16T09:43:33.936Z</time>
      </trkpt>
      <trkpt lat="38.79661833" lon="-9.10510833">
        <ele>10.0</ele>
        <time>2019-05-16T09:43:34.928Z</time>
      </trkpt>
      <trkpt lat="38.79661833" lon="-9.10510833">
        <ele>10.0</ele>
        <time>2019-05-16T09:43:35.936Z</time>
      </trkpt>
      <trkpt lat="38.79661833" lon="-9.10510833">
        <ele>10.0</ele>
        <time>2019-05-16T09:43:36.897Z</time>
      </trkpt>
      <trkpt lat="38.79661833" lon="-9.10510833">
        <ele>10.0</ele>
        <time>2019-05-16T09:43:37.928Z</time>
      </trkpt>
      <trkpt lat="38.79661833" lon="-9.10510833">
        <ele>10.0</ele>
        <time>2019-05-16T09:43:38.905Z</time>
      </trkpt>
      <trkpt lat="38.79661833" lon="-9.10510833">
        <ele>10.0</ele>
        <time>2019-05-16T09:43:39.930Z</time>
      </trkpt>
      <trkpt lat="38.79661833" lon="-9.10510833">
        <ele>10.0</ele>
        <time>2019-05-16T09:43:40.934Z</time>
      </trkpt>
      <trkpt lat="38.79661833" lon="-9.10510833">
        <ele>10.0</ele>
        <time>2019-05-16T09:43:41.928Z</time>
      </trkpt>
      <trkpt lat="38.79661833" lon="-9.10510833">
        <ele>10.0</ele>
        <time>2019-05-16T09:43:42.911Z</time>
      </trkpt>
      <trkpt lat="38.79661833" lon="-9.10510833">
        <ele>10.0</ele>
        <time>2019-05-16T09:43:43.935Z</time>
      </trkpt>
      <trkpt lat="38.79661833" lon="-9.10510833">
        <ele>10.0</ele>
        <time>2019-05-16T09:43:44.934Z</time>
      </trkpt>
      <trkpt lat="38.79661833" lon="-9.10510833">
        <ele>10.0</ele>
        <time>2019-05-16T09:43:45.928Z</time>
      </trkpt>
      <trkpt lat="38.79661833" lon="-9.10510833">
        <ele>10.0</ele>
        <time>2019-05-16T09:43:46.934Z</time>
      </trkpt>
      <trkpt lat="38.79661833" lon="-9.10510833">
        <ele>10.0</ele>
        <time>2019-05-16T09:43:47.928Z</time>
      </trkpt>
      <trkpt lat="38.79661833" lon="-9.10510833">
        <ele>10.0</ele>
        <time>2019-05-16T09:43:48.905Z</time>
      </trkpt>
      <trkpt lat="38.79661833" lon="-9.10510833">
        <ele>10.0</ele>
        <time>2019-05-16T09:43:49.930Z</time>
      </trkpt>
      <trkpt lat="38.79661833" lon="-9.10510833">
        <ele>10.0</ele>
        <time>2019-05-16T09:43:50.934Z</time>
      </trkpt>
      <trkpt lat="38.79661833" lon="-9.10510833">
        <ele>10.0</ele>
        <time>2019-05-16T09:43:51.928Z</time>
      </trkpt>
      <trkpt lat="38.79661833" lon="-9.10510833">
        <ele>10.0</ele>
        <time>2019-05-16T09:43:52.912Z</time>
      </trkpt>
      <trkpt lat="38.79661833" lon="-9.10510833">
        <ele>10.0</ele>
        <time>2019-05-16T09:43:53.935Z</time>
      </trkpt>
      <trkpt lat="38.79661833" lon="-9.10510833">
        <ele>10.0</ele>
        <time>2019-05-16T09:43:54.936Z</time>
      </trkpt>
      <trkpt lat="38.79661833" lon="-9.10510833">
        <ele>10.0</ele>
        <time>2019-05-16T09:43:55.928Z</time>
      </trkpt>
      <trkpt lat="38.79661833" lon="-9.10510833">
        <ele>10.0</ele>
        <time>2019-05-16T09:43:56.934Z</time>
      </trkpt>
      <trkpt lat="38.79661833" lon="-9.10510833">
        <ele>10.0</ele>
        <time>2019-05-16T09:43:57.929Z</time>
      </trkpt>
      <trkpt lat="38.79661833" lon="-9.10510833">
        <ele>10.0</ele>
        <time>2019-05-16T09:43:58.908Z</time>
      </trkpt>
      <trkpt lat="38.79661833" lon="-9.10510833">
        <ele>10.0</ele>
        <time>2019-05-16T09:43:59.931Z</time>
      </trkpt>
      <trkpt lat="38.79661833" lon="-9.10510833">
        <ele>10.0</ele>
        <time>2019-05-16T09:44:00.937Z</time>
      </trkpt>
      <trkpt lat="38.79661833" lon="-9.10510833">
        <ele>10.0</ele>
        <time>2019-05-16T09:44:01.930Z</time>
      </trkpt>
      <trkpt lat="38.79661833" lon="-9.10510833">
        <ele>10.0</ele>
        <time>2019-05-16T09:44:02.907Z</time>
      </trkpt>
      <trkpt lat="38.79661833" lon="-9.10510833">
        <ele>10.0</ele>
        <time>2019-05-16T09:44:03.934Z</time>
      </trkpt>
      <trkpt lat="38.79661833" lon="-9.10510833">
        <ele>10.0</ele>
        <time>2019-05-16T09:44:04.927Z</time>
      </trkpt>
      <trkpt lat="38.79661833" lon="-9.10510833">
        <ele>10.0</ele>
        <time>2019-05-16T09:44:05.935Z</time>
      </trkpt>
      <trkpt lat="38.79661833" lon="-9.10510833">
        <ele>10.0</ele>
        <time>2019-05-16T09:44:06.936Z</time>
      </trkpt>
      <trkpt lat="38.79661833" lon="-9.10510833">
        <ele>10.0</ele>
        <time>2019-05-16T09:44:07.901Z</time>
      </trkpt>
      <trkpt lat="38.79661833" lon="-9.10510833">
        <ele>10.0</ele>
        <time>2019-05-16T09:44:08.934Z</time>
      </trkpt>
      <trkpt lat="38.79661833" lon="-9.10510833">
        <ele>10.0</ele>
        <time>2019-05-16T09:44:09.931Z</time>
      </trkpt>
      <trkpt lat="38.79661833" lon="-9.10510833">
        <ele>10.0</ele>
        <time>2019-05-16T09:44:10.932Z</time>
      </trkpt>
      <trkpt lat="38.79661833" lon="-9.10510833">
        <ele>10.0</ele>
        <time>2019-05-16T09:44:11.929Z</time>
      </trkpt>
      <trkpt lat="38.79661833" lon="-9.10510833">
        <ele>10.0</ele>
        <time>2019-05-16T09:44:12.914Z</time>
      </trkpt>
      <trkpt lat="38.79661833" lon="-9.10510833">
        <ele>10.0</ele>
        <time>2019-05-16T09:44:13.936Z</time>
      </trkpt>
      <trkpt lat="38.79661833" lon="-9.10510833">
        <ele>10.0</ele>
        <time>2019-05-16T09:44:14.934Z</time>
      </trkpt>
      <trkpt lat="38.79661833" lon="-9.10510833">
        <ele>10.0</ele>
        <time>2019-05-16T09:44:15.928Z</time>
      </trkpt>
      <trkpt lat="38.79661833" lon="-9.10510833">
        <ele>10.0</ele>
        <time>2019-05-16T09:44:16.931Z</time>
      </trkpt>
      <trkpt lat="38.79661833" lon="-9.10510833">
        <ele>10.0</ele>
        <time>2019-05-16T09:44:17.928Z</time>
      </trkpt>
      <trkpt lat="38.79661833" lon="-9.10510833">
        <ele>10.0</ele>
        <time>2019-05-16T09:44:18.905Z</time>
      </trkpt>
      <trkpt lat="38.79661833" lon="-9.10510833">
        <ele>10.0</ele>
        <time>2019-05-16T09:44:19.933Z</time>
      </trkpt>
      <trkpt lat="38.79661833" lon="-9.10510833">
        <ele>10.0</ele>
        <time>2019-05-16T09:44:20.902Z</time>
      </trkpt>
      <trkpt lat="38.79661833" lon="-9.10510833">
        <ele>10.0</ele>
        <time>2019-05-16T09:44:21.935Z</time>
      </trkpt>
      <trkpt lat="38.79661833" lon="-9.10510833">
        <ele>10.0</ele>
        <time>2019-05-16T09:44:22.929Z</time>
      </trkpt>
      <trkpt lat="38.79661833" lon="-9.10510833">
        <ele>10.0</ele>
        <time>2019-05-16T09:44:23.906Z</time>
      </trkpt>
      <trkpt lat="38.79661833" lon="-9.10510833">
        <ele>10.0</ele>
        <time>2019-05-16T09:44:24.936Z</time>
      </trkpt>
      <trkpt lat="38.79661833" lon="-9.10510833">
        <ele>10.0</ele>
        <time>2019-05-16T09:44:25.928Z</time>
      </trkpt>
      <trkpt lat="38.79661833" lon="-9.10510833">
        <ele>10.0</ele>
        <time>2019-05-16T09:44:26.934Z</time>
      </trkpt>
      <trkpt lat="38.79661833" lon="-9.10510833">
        <ele>10.0</ele>
        <time>2019-05-16T09:44:27.928Z</time>
      </trkpt>
      <trkpt lat="38.79661833" lon="-9.10510833">
        <ele>10.0</ele>
        <time>2019-05-16T09:44:28.905Z</time>
      </trkpt>
      <trkpt lat="38.79661833" lon="-9.10510833">
        <ele>10.0</ele>
        <time>2019-05-16T09:44:29.931Z</time>
      </trkpt>
      <trkpt lat="38.79661833" lon="-9.10510833">
        <ele>10.0</ele>
        <time>2019-05-16T09:44:30.936Z</time>
      </trkpt>
      <trkpt lat="38.79661833" lon="-9.10510833">
        <ele>10.0</ele>
        <time>2019-05-16T09:44:31.928Z</time>
      </trkpt>
      <trkpt lat="38.79661833" lon="-9.10510833">
        <ele>10.0</ele>
        <time>2019-05-16T09:44:32.934Z</time>
      </trkpt>
      <trkpt lat="38.79661833" lon="-9.10510833">
        <ele>10.0</ele>
        <time>2019-05-16T09:44:33.913Z</time>
      </trkpt>
      <trkpt lat="38.79661833" lon="-9.10510833">
        <ele>10.0</ele>
        <time>2019-05-16T09:44:34.897Z</time>
      </trkpt>
      <trkpt lat="38.79661833" lon="-9.10510833">
        <ele>10.0</ele>
        <time>2019-05-16T09:44:35.928Z</time>
      </trkpt>
      <trkpt lat="38.79661833" lon="-9.10510833">
        <ele>10.0</ele>
        <time>2019-05-16T09:44:36.911Z</time>
      </trkpt>
      <trkpt lat="38.79661833" lon="-9.10510833">
        <ele>10.0</ele>
        <time>2019-05-16T09:44:37.900Z</time>
      </trkpt>
      <trkpt lat="38.79661833" lon="-9.10510833">
        <ele>10.0</ele>
        <time>2019-05-16T09:44:38.928Z</time>
      </trkpt>
      <trkpt lat="38.79661833" lon="-9.10510833">
        <ele>10.0</ele>
        <time>2019-05-16T09:44:39.935Z</time>
      </trkpt>
      <trkpt lat="38.79661833" lon="-9.10510833">
        <ele>10.0</ele>
        <time>2019-05-16T09:44:40.928Z</time>
      </trkpt>
      <trkpt lat="38.79661833" lon="-9.10510833">
        <ele>10.0</ele>
        <time>2019-05-16T09:44:41.936Z</time>
      </trkpt>
      <trkpt lat="38.79661833" lon="-9.10510833">
        <ele>10.0</ele>
        <time>2019-05-16T09:44:42.899Z</time>
      </trkpt>
      <trkpt lat="38.79661833" lon="-9.10510833">
        <ele>10.0</ele>
        <time>2019-05-16T09:44:43.931Z</time>
      </trkpt>
      <trkpt lat="38.79661833" lon="-9.10510833">
        <ele>10.0</ele>
        <time>2019-05-16T09:44:44.934Z</time>
      </trkpt>
      <trkpt lat="38.79661833" lon="-9.10510833">
        <ele>10.0</ele>
        <time>2019-05-16T09:44:45.928Z</time>
      </trkpt>
      <trkpt lat="38.79661833" lon="-9.10510833">
        <ele>10.0</ele>
        <time>2019-05-16T09:44:46.934Z</time>
      </trkpt>
      <trkpt lat="38.79661833" lon="-9.10510833">
        <ele>10.0</ele>
        <time>2019-05-16T09:44:47.928Z</time>
      </trkpt>
      <trkpt lat="38.79661833" lon="-9.10510833">
        <ele>10.0</ele>
        <time>2019-05-16T09:44:48.905Z</time>
      </trkpt>
      <trkpt lat="38.79661833" lon="-9.10510833">
        <ele>10.0</ele>
        <time>2019-05-16T09:44:49.930Z</time>
      </trkpt>
      <trkpt lat="38.79661833" lon="-9.10510833">
        <ele>10.0</ele>
        <time>2019-05-16T09:44:50.934Z</time>
      </trkpt>
      <trkpt lat="38.79661833" lon="-9.10510833">
        <ele>10.0</ele>
        <time>2019-05-16T09:44:51.929Z</time>
      </trkpt>
      <trkpt lat="38.79661833" lon="-9.10510833">
        <ele>10.0</ele>
        <time>2019-05-16T09:44:52.912Z</time>
      </trkpt>
      <trkpt lat="38.79661833" lon="-9.10510833">
        <ele>10.0</ele>
        <time>2019-05-16T09:44:53.930Z</time>
      </trkpt>
      <trkpt lat="38.79661833" lon="-9.10510833">
        <ele>10.0</ele>
        <time>2019-05-16T09:44:54.915Z</time>
      </trkpt>
      <trkpt lat="38.79661833" lon="-9.10510833">
        <ele>10.0</ele>
        <time>2019-05-16T09:44:55.900Z</time>
      </trkpt>
      <trkpt lat="38.79661833" lon="-9.10510833">
        <ele>10.0</ele>
        <time>2019-05-16T09:44:56.897Z</time>
      </trkpt>
      <trkpt lat="38.79661833" lon="-9.10510833">
        <ele>10.0</ele>
        <time>2019-05-16T09:44:57.940Z</time>
      </trkpt>
      <trkpt lat="38.79661833" lon="-9.10510833">
        <ele>10.0</ele>
        <time>2019-05-16T09:44:58.934Z</time>
      </trkpt>
      <trkpt lat="38.79661833" lon="-9.10510833">
        <ele>10.0</ele>
        <time>2019-05-16T09:44:59.928Z</time>
      </trkpt>
      <trkpt lat="38.79661833" lon="-9.10510833">
        <ele>10.0</ele>
        <time>2019-05-16T09:45:00.936Z</time>
      </trkpt>
      <trkpt lat="38.79661833" lon="-9.10510833">
        <ele>10.0</ele>
        <time>2019-05-16T09:45:01.928Z</time>
      </trkpt>
      <trkpt lat="38.79661833" lon="-9.10510833">
        <ele>10.0</ele>
        <time>2019-05-16T09:45:02.934Z</time>
      </trkpt>
      <trkpt lat="38.79661833" lon="-9.10510833">
        <ele>10.0</ele>
        <time>2019-05-16T09:45:03.930Z</time>
      </trkpt>
      <trkpt lat="38.79661833" lon="-9.10510833">
        <ele>10.0</ele>
        <time>2019-05-16T09:45:04.914Z</time>
      </trkpt>
      <trkpt lat="38.79661833" lon="-9.10510833">
        <ele>10.0</ele>
        <time>2019-05-16T09:45:05.897Z</time>
      </trkpt>
      <trkpt lat="38.79661833" lon="-9.10510833">
        <ele>10.0</ele>
        <time>2019-05-16T09:45:06.935Z</time>
      </trkpt>
      <trkpt lat="38.79661833" lon="-9.10510833">
        <ele>10.0</ele>
        <time>2019-05-16T09:45:07.928Z</time>
      </trkpt>
      <trkpt lat="38.79661833" lon="-9.10510833">
        <ele>10.0</ele>
        <time>2019-05-16T09:45:08.905Z</time>
      </trkpt>
      <trkpt lat="38.79661833" lon="-9.10510833">
        <ele>10.0</ele>
        <time>2019-05-16T09:45:09.930Z</time>
      </trkpt>
      <trkpt lat="38.79661833" lon="-9.10510833">
        <ele>10.0</ele>
        <time>2019-05-16T09:45:10.934Z</time>
      </trkpt>
      <trkpt lat="38.79661833" lon="-9.10510833">
        <ele>10.0</ele>
        <time>2019-05-16T09:45:11.928Z</time>
      </trkpt>
      <trkpt lat="38.79661833" lon="-9.10510833">
        <ele>10.0</ele>
        <time>2019-05-16T09:45:12.911Z</time>
      </trkpt>
      <trkpt lat="38.79661833" lon="-9.10510833">
        <ele>10.0</ele>
        <time>2019-05-16T09:45:13.900Z</time>
      </trkpt>
      <trkpt lat="38.79661833" lon="-9.10510833">
        <ele>10.0</ele>
        <time>2019-05-16T09:45:14.934Z</time>
      </trkpt>
      <trkpt lat="38.79661833" lon="-9.10510833">
        <ele>10.0</ele>
        <time>2019-05-16T09:45:15.928Z</time>
      </trkpt>
      <trkpt lat="38.79661833" lon="-9.10510833">
        <ele>10.0</ele>
        <time>2019-05-16T09:45:16.934Z</time>
      </trkpt>
      <trkpt lat="38.79661833" lon="-9.10510833">
        <ele>10.0</ele>
        <time>2019-05-16T09:45:17.928Z</time>
      </trkpt>
      <trkpt lat="38.79661833" lon="-9.10510833">
        <ele>10.0</ele>
        <time>2019-05-16T09:45:18.905Z</time>
      </trkpt>
      <trkpt lat="38.79661833" lon="-9.10510833">
        <ele>10.0</ele>
        <time>2019-05-16T09:45:19.930Z</time>
      </trkpt>
      <trkpt lat="38.79661833" lon="-9.10510833">
        <ele>10.0</ele>
        <time>2019-05-16T09:45:20.934Z</time>
      </trkpt>
      <trkpt lat="38.79661833" lon="-9.10510833">
        <ele>10.0</ele>
        <time>2019-05-16T09:45:21.929Z</time>
      </trkpt>
      <trkpt lat="38.79661833" lon="-9.10510833">
        <ele>10.0</ele>
        <time>2019-05-16T09:45:22.900Z</time>
      </trkpt>
      <trkpt lat="38.79661833" lon="-9.10510833">
        <ele>10.0</ele>
        <time>2019-05-16T09:45:23.934Z</time>
      </trkpt>
      <trkpt lat="38.79661833" lon="-9.10510833">
        <ele>10.0</ele>
        <time>2019-05-16T09:45:24.933Z</time>
      </trkpt>
      <trkpt lat="38.79661833" lon="-9.10510833">
        <ele>10.0</ele>
        <time>2019-05-16T09:45:25.935Z</time>
      </trkpt>
      <trkpt lat="38.79661833" lon="-9.10510833">
        <ele>10.0</ele>
        <time>2019-05-16T09:45:26.935Z</time>
      </trkpt>
      <trkpt lat="38.79661833" lon="-9.10510833">
        <ele>10.0</ele>
        <time>2019-05-16T09:45:27.933Z</time>
      </trkpt>
      <trkpt lat="38.79661833" lon="-9.10510833">
        <ele>10.0</ele>
        <time>2019-05-16T09:45:28.934Z</time>
      </trkpt>
      <trkpt lat="38.79661833" lon="-9.10510833">
        <ele>10.0</ele>
        <time>2019-05-16T09:45:29.930Z</time>
      </trkpt>
      <trkpt lat="38.79661833" lon="-9.10510833">
        <ele>10.0</ele>
        <time>2019-05-16T09:45:30.897Z</time>
      </trkpt>
      <trkpt lat="38.79661833" lon="-9.10510833">
        <ele>10.0</ele>
        <time>2019-05-16T09:45:31.928Z</time>
      </trkpt>
      <trkpt lat="38.79661833" lon="-9.10510833">
        <ele>10.0</ele>
        <time>2019-05-16T09:45:32.934Z</time>
      </trkpt>
      <trkpt lat="38.79661833" lon="-9.10510833">
        <ele>10.0</ele>
        <time>2019-05-16T09:45:33.931Z</time>
      </trkpt>
      <trkpt lat="38.79661833" lon="-9.10510833">
        <ele>10.0</ele>
        <time>2019-05-16T09:45:34.934Z</time>
      </trkpt>
      <trkpt lat="38.79661833" lon="-9.10510833">
        <ele>10.0</ele>
        <time>2019-05-16T09:45:35.928Z</time>
      </trkpt>
      <trkpt lat="38.79661833" lon="-9.10510833">
        <ele>10.0</ele>
        <time>2019-05-16T09:45:36.911Z</time>
      </trkpt>
      <trkpt lat="38.79661833" lon="-9.10510833">
        <ele>10.0</ele>
        <time>2019-05-16T09:45:37.901Z</time>
      </trkpt>
      <trkpt lat="38.79661833" lon="-9.10510833">
        <ele>10.0</ele>
        <time>2019-05-16T09:45:38.934Z</time>
      </trkpt>
      <trkpt lat="38.79661833" lon="-9.10510833">
        <ele>10.0</ele>
        <time>2019-05-16T09:45:39.929Z</time>
      </trkpt>
      <trkpt lat="38.79661833" lon="-9.10510833">
        <ele>10.0</ele>
        <time>2019-05-16T09:45:40.934Z</time>
      </trkpt>
      <trkpt lat="38.79661833" lon="-9.10510833">
        <ele>10.0</ele>
        <time>2019-05-16T09:45:41.934Z</time>
      </trkpt>
      <trkpt lat="38.79661833" lon="-9.10510833">
        <ele>10.0</ele>
        <time>2019-05-16T09:45:42.931Z</time>
      </trkpt>
      <trkpt lat="38.79661833" lon="-9.10510833">
        <ele>10.0</ele>
        <time>2019-05-16T09:45:43.932Z</time>
      </trkpt>
      <trkpt lat="38.79661833" lon="-9.10510833">
        <ele>10.0</ele>
        <time>2019-05-16T09:45:44.935Z</time>
      </trkpt>
      <trkpt lat="38.79661833" lon="-9.10510833">
        <ele>10.0</ele>
        <time>2019-05-16T09:45:45.929Z</time>
      </trkpt>
      <trkpt lat="38.79661833" lon="-9.10510833">
        <ele>10.0</ele>
        <time>2019-05-16T09:45:46.934Z</time>
      </trkpt>
      <trkpt lat="38.79661833" lon="-9.10510833">
        <ele>10.0</ele>
        <time>2019-05-16T09:45:47.928Z</time>
      </trkpt>
      <trkpt lat="38.79661833" lon="-9.10510833">
        <ele>10.0</ele>
        <time>2019-05-16T09:45:48.905Z</time>
      </trkpt>
      <trkpt lat="38.79661833" lon="-9.10510833">
        <ele>10.0</ele>
        <time>2019-05-16T09:45:49.930Z</time>
      </trkpt>
      <trkpt lat="38.79661833" lon="-9.10510833">
        <ele>10.0</ele>
        <time>2019-05-16T09:45:50.934Z</time>
      </trkpt>
      <trkpt lat="38.79661833" lon="-9.10510833">
        <ele>10.0</ele>
        <time>2019-05-16T09:45:51.928Z</time>
      </trkpt>
      <trkpt lat="38.79661833" lon="-9.10510833">
        <ele>10.0</ele>
        <time>2019-05-16T09:45:52.934Z</time>
      </trkpt>
      <trkpt lat="38.79661833" lon="-9.10510833">
        <ele>10.0</ele>
        <time>2019-05-16T09:45:53.924Z</time>
      </trkpt>
      <trkpt lat="38.79661833" lon="-9.10510833">
        <ele>10.0</ele>
        <time>2019-05-16T09:45:54.908Z</time>
      </trkpt>
      <trkpt lat="38.79661833" lon="-9.10510833">
        <ele>10.0</ele>
        <time>2019-05-16T09:45:55.934Z</time>
      </trkpt>
      <trkpt lat="38.79661833" lon="-9.10510833">
        <ele>10.0</ele>
        <time>2019-05-16T09:45:56.929Z</time>
      </trkpt>
      <trkpt lat="38.79661833" lon="-9.10510833">
        <ele>10.0</ele>
        <time>2019-05-16T09:45:57.900Z</time>
      </trkpt>
      <trkpt lat="38.79661833" lon="-9.10510833">
        <ele>10.0</ele>
        <time>2019-05-16T09:45:58.928Z</time>
      </trkpt>
      <trkpt lat="38.79661833" lon="-9.10510833">
        <ele>10.0</ele>
        <time>2019-05-16T09:45:59.913Z</time>
      </trkpt>
      <trkpt lat="38.79661833" lon="-9.10510833">
        <ele>10.0</ele>
        <time>2019-05-16T09:46:00.902Z</time>
      </trkpt>
      <trkpt lat="38.79661833" lon="-9.10510833">
        <ele>10.0</ele>
        <time>2019-05-16T09:46:01.935Z</time>
      </trkpt>
      <trkpt lat="38.79661833" lon="-9.10510833">
        <ele>10.0</ele>
        <time>2019-05-16T09:46:02.935Z</time>
      </trkpt>
      <trkpt lat="38.79661833" lon="-9.10510833">
        <ele>10.0</ele>
        <time>2019-05-16T09:46:03.923Z</time>
      </trkpt>
      <trkpt lat="38.79661833" lon="-9.10510833">
        <ele>10.0</ele>
        <time>2019-05-16T09:46:04.906Z</time>
      </trkpt>
      <trkpt lat="38.79661833" lon="-9.10510833">
        <ele>10.0</ele>
        <time>2019-05-16T09:46:05.931Z</time>
      </trkpt>
      <trkpt lat="38.79661833" lon="-9.10510833">
        <ele>10.0</ele>
        <time>2019-05-16T09:46:06.936Z</time>
      </trkpt>
      <trkpt lat="38.79661833" lon="-9.10510833">
        <ele>10.0</ele>
        <time>2019-05-16T09:46:07.928Z</time>
      </trkpt>
      <trkpt lat="38.79661833" lon="-9.10510833">
        <ele>10.0</ele>
        <time>2019-05-16T09:46:08.905Z</time>
      </trkpt>
      <trkpt lat="38.79661833" lon="-9.10510833">
        <ele>10.0</ele>
        <time>2019-05-16T09:46:09.930Z</time>
      </trkpt>
      <trkpt lat="38.79661833" lon="-9.10510833">
        <ele>10.0</ele>
        <time>2019-05-16T09:46:10.934Z</time>
      </trkpt>
      <trkpt lat="38.79661833" lon="-9.10510833">
        <ele>10.0</ele>
        <time>2019-05-16T09:46:11.928Z</time>
      </trkpt>
      <trkpt lat="38.79661833" lon="-9.10510833">
        <ele>10.0</ele>
        <time>2019-05-16T09:46:12.911Z</time>
      </trkpt>
      <trkpt lat="38.79661833" lon="-9.10510833">
        <ele>10.0</ele>
        <time>2019-05-16T09:46:13.936Z</time>
      </trkpt>
      <trkpt lat="38.79661833" lon="-9.10510833">
        <ele>10.0</ele>
        <time>2019-05-16T09:46:14.934Z</time>
      </trkpt>
      <trkpt lat="38.79661833" lon="-9.10510833">
        <ele>10.0</ele>
        <time>2019-05-16T09:46:15.928Z</time>
      </trkpt>
      <trkpt lat="38.79661833" lon="-9.10510833">
        <ele>10.0</ele>
        <time>2019-05-16T09:46:16.934Z</time>
      </trkpt>
      <trkpt lat="38.79661833" lon="-9.10510833">
        <ele>10.0</ele>
        <time>2019-05-16T09:46:17.928Z</time>
      </trkpt>
      <trkpt lat="38.79661833" lon="-9.10510833">
        <ele>10.0</ele>
        <time>2019-05-16T09:46:18.905Z</time>
      </trkpt>
      <trkpt lat="38.79661833" lon="-9.10510833">
        <ele>10.0</ele>
        <time>2019-05-16T09:46:19.930Z</time>
      </trkpt>
      <trkpt lat="38.79661833" lon="-9.10510833">
        <ele>10.0</ele>
        <time>2019-05-16T09:46:20.934Z</time>
      </trkpt>
      <trkpt lat="38.79661833" lon="-9.10510833">
        <ele>10.0</ele>
        <time>2019-05-16T09:46:21.910Z</time>
      </trkpt>
      <trkpt lat="38.79661833" lon="-9.10510833">
        <ele>10.0</ele>
        <time>2019-05-16T09:46:22.934Z</time>
      </trkpt>
      <trkpt lat="38.79661833" lon="-9.10510833">
        <ele>10.0</ele>
        <time>2019-05-16T09:46:23.929Z</time>
      </trkpt>
      <trkpt lat="38.79661833" lon="-9.10510833">
        <ele>10.0</ele>
        <time>2019-05-16T09:46:24.897Z</time>
      </trkpt>
      <trkpt lat="38.79661833" lon="-9.10510833">
        <ele>10.0</ele>
        <time>2019-05-16T09:46:25.929Z</time>
      </trkpt>
      <trkpt lat="38.79661833" lon="-9.10510833">
        <ele>10.0</ele>
        <time>2019-05-16T09:46:26.934Z</time>
      </trkpt>
      <trkpt lat="38.79661833" lon="-9.10510833">
        <ele>10.0</ele>
        <time>2019-05-16T09:46:27.929Z</time>
      </trkpt>
      <trkpt lat="38.79661833" lon="-9.10510833">
        <ele>10.0</ele>
        <time>2019-05-16T09:46:28.906Z</time>
      </trkpt>
      <trkpt lat="38.79661833" lon="-9.10510833">
        <ele>10.0</ele>
        <time>2019-05-16T09:46:29.934Z</time>
      </trkpt>
      <trkpt lat="38.79661833" lon="-9.10510833">
        <ele>10.0</ele>
        <time>2019-05-16T09:46:30.934Z</time>
      </trkpt>
      <trkpt lat="38.79661833" lon="-9.10510833">
        <ele>10.0</ele>
        <time>2019-05-16T09:46:31.934Z</time>
      </trkpt>
      <trkpt lat="38.79661833" lon="-9.10510833">
        <ele>10.0</ele>
        <time>2019-05-16T09:46:32.934Z</time>
      </trkpt>
      <trkpt lat="38.79661833" lon="-9.10510833">
        <ele>10.0</ele>
        <time>2019-05-16T09:46:33.931Z</time>
      </trkpt>
      <trkpt lat="38.79661833" lon="-9.10510833">
        <ele>10.0</ele>
        <time>2019-05-16T09:46:34.933Z</time>
      </trkpt>
      <trkpt lat="38.79661833" lon="-9.10510833">
        <ele>10.0</ele>
        <time>2019-05-16T09:46:35.929Z</time>
      </trkpt>
      <trkpt lat="38.79661833" lon="-9.10510833">
        <ele>10.0</ele>
        <time>2019-05-16T09:46:36.935Z</time>
      </trkpt>
      <trkpt lat="38.79661833" lon="-9.10510833">
        <ele>10.0</ele>
        <time>2019-05-16T09:46:37.928Z</time>
      </trkpt>
      <trkpt lat="38.79661833" lon="-9.10510833">
        <ele>10.0</ele>
        <time>2019-05-16T09:46:38.906Z</time>
      </trkpt>
      <trkpt lat="38.79661833" lon="-9.10510833">
        <ele>10.0</ele>
        <time>2019-05-16T09:46:39.910Z</time>
      </trkpt>
      <trkpt lat="38.79661833" lon="-9.10510833">
        <ele>10.0</ele>
        <time>2019-05-16T09:46:40.934Z</time>
      </trkpt>
      <trkpt lat="38.79661833" lon="-9.10510833">
        <ele>10.0</ele>
        <time>2019-05-16T09:46:41.934Z</time>
      </trkpt>
      <trkpt lat="38.79661833" lon="-9.10510833">
        <ele>10.0</ele>
        <time>2019-05-16T09:46:42.907Z</time>
      </trkpt>
      <trkpt lat="38.79661833" lon="-9.10510833">
        <ele>10.0</ele>
        <time>2019-05-16T09:46:43.929Z</time>
      </trkpt>
      <trkpt lat="38.79661833" lon="-9.10510833">
        <ele>10.0</ele>
        <time>2019-05-16T09:46:44.914Z</time>
      </trkpt>
      <trkpt lat="38.79661833" lon="-9.10510833">
        <ele>10.0</ele>
        <time>2019-05-16T09:46:45.905Z</time>
      </trkpt>
      <trkpt lat="38.79661833" lon="-9.10510833">
        <ele>10.0</ele>
        <time>2019-05-16T09:46:46.934Z</time>
      </trkpt>
      <trkpt lat="38.79661833" lon="-9.10510833">
        <ele>10.0</ele>
        <time>2019-05-16T09:46:47.932Z</time>
      </trkpt>
      <trkpt lat="38.79661833" lon="-9.10510833">
        <ele>10.0</ele>
        <time>2019-05-16T09:46:48.897Z</time>
      </trkpt>
      <trkpt lat="38.79661833" lon="-9.10510833">
        <ele>10.0</ele>
        <time>2019-05-16T09:46:49.928Z</time>
      </trkpt>
      <trkpt lat="38.79661833" lon="-9.10510833">
        <ele>10.0</ele>
        <time>2019-05-16T09:46:50.934Z</time>
      </trkpt>
      <trkpt lat="38.79661833" lon="-9.10510833">
        <ele>10.0</ele>
        <time>2019-05-16T09:46:51.929Z</time>
      </trkpt>
      <trkpt lat="38.79661833" lon="-9.10510833">
        <ele>10.0</ele>
        <time>2019-05-16T09:46:52.934Z</time>
      </trkpt>
      <trkpt lat="38.79661833" lon="-9.10510833">
        <ele>10.0</ele>
        <time>2019-05-16T09:46:53.928Z</time>
      </trkpt>
      <trkpt lat="38.79661833" lon="-9.10510833">
        <ele>10.0</ele>
        <time>2019-05-16T09:46:54.911Z</time>
      </trkpt>
      <trkpt lat="38.79661833" lon="-9.10510833">
        <ele>10.0</ele>
        <time>2019-05-16T09:46:55.934Z</time>
      </trkpt>
      <trkpt lat="38.79661833" lon="-9.10510833">
        <ele>10.0</ele>
        <time>2019-05-16T09:46:56.934Z</time>
      </trkpt>
      <trkpt lat="38.79661833" lon="-9.10510833">
        <ele>10.0</ele>
        <time>2019-05-16T09:46:57.930Z</time>
      </trkpt>
      <trkpt lat="38.79661833" lon="-9.10510833">
        <ele>10.0</ele>
        <time>2019-05-16T09:46:58.909Z</time>
      </trkpt>
      <trkpt lat="38.79661833" lon="-9.10510833">
        <ele>10.0</ele>
        <time>2019-05-16T09:46:59.932Z</time>
      </trkpt>
      <trkpt lat="38.79661833" lon="-9.10510833">
        <ele>10.0</ele>
        <time>2019-05-16T09:47:00.936Z</time>
      </trkpt>
      <trkpt lat="38.79661833" lon="-9.10510833">
        <ele>10.0</ele>
        <time>2019-05-16T09:47:01.935Z</time>
      </trkpt>
      <trkpt lat="38.79661833" lon="-9.10510833">
        <ele>10.0</ele>
        <time>2019-05-16T09:47:02.929Z</time>
      </trkpt>
      <trkpt lat="38.79661833" lon="-9.10510833">
        <ele>10.0</ele>
        <time>2019-05-16T09:47:03.934Z</time>
      </trkpt>
      <trkpt lat="38.79661833" lon="-9.10510833">
        <ele>10.0</ele>
        <time>2019-05-16T09:47:04.928Z</time>
      </trkpt>
      <trkpt lat="38.79661833" lon="-9.10510833">
        <ele>10.0</ele>
        <time>2019-05-16T09:47:05.934Z</time>
      </trkpt>
      <trkpt lat="38.79661833" lon="-9.10510833">
        <ele>10.0</ele>
        <time>2019-05-16T09:47:06.937Z</time>
      </trkpt>
      <trkpt lat="38.79661833" lon="-9.10510833">
        <ele>10.0</ele>
        <time>2019-05-16T09:47:07.929Z</time>
      </trkpt>
      <trkpt lat="38.79661833" lon="-9.10510833">
        <ele>10.0</ele>
        <time>2019-05-16T09:47:08.932Z</time>
      </trkpt>
      <trkpt lat="38.79661833" lon="-9.10510833">
        <ele>10.0</ele>
        <time>2019-05-16T09:47:09.931Z</time>
      </trkpt>
      <trkpt lat="38.79661833" lon="-9.10510833">
        <ele>10.0</ele>
        <time>2019-05-16T09:47:10.934Z</time>
      </trkpt>
      <trkpt lat="38.79661833" lon="-9.10510833">
        <ele>10.0</ele>
        <time>2019-05-16T09:47:11.934Z</time>
      </trkpt>
      <trkpt lat="38.79661833" lon="-9.10510833">
        <ele>10.0</ele>
        <time>2019-05-16T09:47:12.936Z</time>
      </trkpt>
      <trkpt lat="38.79661833" lon="-9.10510833">
        <ele>10.0</ele>
        <time>2019-05-16T09:47:13.929Z</time>
      </trkpt>
      <trkpt lat="38.79661833" lon="-9.10510833">
        <ele>10.0</ele>
        <time>2019-05-16T09:47:14.912Z</time>
      </trkpt>
      <trkpt lat="38.79661833" lon="-9.10510833">
        <ele>10.0</ele>
        <time>2019-05-16T09:47:15.935Z</time>
      </trkpt>
      <trkpt lat="38.79661833" lon="-9.10510833">
        <ele>10.0</ele>
        <time>2019-05-16T09:47:16.900Z</time>
      </trkpt>
      <trkpt lat="38.79661833" lon="-9.10510833">
        <ele>10.0</ele>
        <time>2019-05-16T09:47:17.928Z</time>
      </trkpt>
      <trkpt lat="38.79661833" lon="-9.10510833">
        <ele>10.0</ele>
        <time>2019-05-16T09:47:18.906Z</time>
      </trkpt>
      <trkpt lat="38.79661833" lon="-9.10510833">
        <ele>10.0</ele>
        <time>2019-05-16T09:47:19.930Z</time>
      </trkpt>
      <trkpt lat="38.79661833" lon="-9.10510833">
        <ele>10.0</ele>
        <time>2019-05-16T09:47:20.907Z</time>
      </trkpt>
      <trkpt lat="38.79661833" lon="-9.10510833">
        <ele>10.0</ele>
        <time>2019-05-16T09:47:21.908Z</time>
      </trkpt>
      <trkpt lat="38.79661833" lon="-9.10510833">
        <ele>10.0</ele>
        <time>2019-05-16T09:47:22.935Z</time>
      </trkpt>
      <trkpt lat="38.79661833" lon="-9.10510833">
        <ele>10.0</ele>
        <time>2019-05-16T09:47:23.931Z</time>
      </trkpt>
      <trkpt lat="38.79661833" lon="-9.10510833">
        <ele>10.0</ele>
        <time>2019-05-16T09:47:24.916Z</time>
      </trkpt>
      <trkpt lat="38.79661833" lon="-9.10510833">
        <ele>10.0</ele>
        <time>2019-05-16T09:47:25.901Z</time>
      </trkpt>
      <trkpt lat="38.79661833" lon="-9.10510833">
        <ele>10.0</ele>
        <time>2019-05-16T09:47:26.934Z</time>
      </trkpt>
      <trkpt lat="38.79661833" lon="-9.10510833">
        <ele>10.0</ele>
        <time>2019-05-16T09:47:27.928Z</time>
      </trkpt>
      <trkpt lat="38.79661833" lon="-9.10510833">
        <ele>10.0</ele>
        <time>2019-05-16T09:47:28.906Z</time>
      </trkpt>
      <trkpt lat="38.79661833" lon="-9.10510833">
        <ele>10.0</ele>
        <time>2019-05-16T09:47:29.934Z</time>
      </trkpt>
      <trkpt lat="38.79661833" lon="-9.10510833">
        <ele>10.0</ele>
        <time>2019-05-16T09:47:30.936Z</time>
      </trkpt>
      <trkpt lat="38.79661833" lon="-9.10510833">
        <ele>10.0</ele>
        <time>2019-05-16T09:47:31.929Z</time>
      </trkpt>
      <trkpt lat="38.79661833" lon="-9.10510833">
        <ele>10.0</ele>
        <time>2019-05-16T09:47:32.930Z</time>
      </trkpt>
      <trkpt lat="38.79661833" lon="-9.10510833">
        <ele>10.0</ele>
        <time>2019-05-16T09:47:33.934Z</time>
      </trkpt>
      <trkpt lat="38.79661833" lon="-9.10510833">
        <ele>10.0</ele>
        <time>2019-05-16T09:47:34.928Z</time>
      </trkpt>
      <trkpt lat="38.79661833" lon="-9.10510833">
        <ele>10.0</ele>
        <time>2019-05-16T09:47:35.933Z</time>
      </trkpt>
      <trkpt lat="38.79661833" lon="-9.10510833">
        <ele>10.0</ele>
        <time>2019-05-16T09:47:36.933Z</time>
      </trkpt>
      <trkpt lat="38.79661833" lon="-9.10510833">
        <ele>10.0</ele>
        <time>2019-05-16T09:47:37.928Z</time>
      </trkpt>
      <trkpt lat="38.79661833" lon="-9.10510833">
        <ele>10.0</ele>
        <time>2019-05-16T09:47:38.905Z</time>
      </trkpt>
      <trkpt lat="38.79661833" lon="-9.10510833">
        <ele>10.0</ele>
        <time>2019-05-16T09:47:39.930Z</time>
      </trkpt>
      <trkpt lat="38.79661833" lon="-9.10510833">
        <ele>10.0</ele>
        <time>2019-05-16T09:47:40.934Z</time>
      </trkpt>
      <trkpt lat="38.79661833" lon="-9.10510833">
        <ele>10.0</ele>
        <time>2019-05-16T09:47:41.928Z</time>
      </trkpt>
      <trkpt lat="38.79661833" lon="-9.10510833">
        <ele>10.0</ele>
        <time>2019-05-16T09:47:42.912Z</time>
      </trkpt>
      <trkpt lat="38.79661833" lon="-9.10510833">
        <ele>10.0</ele>
        <time>2019-05-16T09:47:43.935Z</time>
      </trkpt>
      <trkpt lat="38.79661833" lon="-9.10510833">
        <ele>10.0</ele>
        <time>2019-05-16T09:47:44.935Z</time>
      </trkpt>
      <trkpt lat="38.79661833" lon="-9.10510833">
        <ele>10.0</ele>
        <time>2019-05-16T09:47:45.934Z</time>
      </trkpt>
      <trkpt lat="38.79661833" lon="-9.10510833">
        <ele>10.0</ele>
        <time>2019-05-16T09:47:46.928Z</time>
      </trkpt>
      <trkpt lat="38.79661833" lon="-9.10510833">
        <ele>10.0</ele>
        <time>2019-05-16T09:47:47.900Z</time>
      </trkpt>
      <trkpt lat="38.79661833" lon="-9.10510833">
        <ele>10.0</ele>
        <time>2019-05-16T09:47:48.936Z</time>
      </trkpt>
      <trkpt lat="38.79661833" lon="-9.10510833">
        <ele>10.0</ele>
        <time>2019-05-16T09:47:49.928Z</time>
      </trkpt>
      <trkpt lat="38.79661833" lon="-9.10510833">
        <ele>10.0</ele>
        <time>2019-05-16T09:47:50.934Z</time>
      </trkpt>
      <trkpt lat="38.79661833" lon="-9.10510833">
        <ele>10.0</ele>
        <time>2019-05-16T09:47:51.935Z</time>
      </trkpt>
      <trkpt lat="38.79661833" lon="-9.10510833">
        <ele>10.0</ele>
        <time>2019-05-16T09:47:52.935Z</time>
      </trkpt>
      <trkpt lat="38.79661833" lon="-9.10510833">
        <ele>10.0</ele>
        <time>2019-05-16T09:47:53.935Z</time>
      </trkpt>
      <trkpt lat="38.79661833" lon="-9.10510833">
        <ele>10.0</ele>
        <time>2019-05-16T09:47:54.928Z</time>
      </trkpt>
      <trkpt lat="38.79661833" lon="-9.10510833">
        <ele>10.0</ele>
        <time>2019-05-16T09:47:55.934Z</time>
      </trkpt>
      <trkpt lat="38.79661833" lon="-9.10510833">
        <ele>10.0</ele>
        <time>2019-05-16T09:47:56.929Z</time>
      </trkpt>
      <trkpt lat="38.79661833" lon="-9.10510833">
        <ele>10.0</ele>
        <time>2019-05-16T09:47:57.898Z</time>
      </trkpt>
      <trkpt lat="38.79661833" lon="-9.10510833">
        <ele>10.0</ele>
        <time>2019-05-16T09:47:58.928Z</time>
      </trkpt>
      <trkpt lat="38.79661833" lon="-9.10510833">
        <ele>10.0</ele>
        <time>2019-05-16T09:47:59.934Z</time>
      </trkpt>
      <trkpt lat="38.79661833" lon="-9.10510833">
        <ele>10.0</ele>
        <time>2019-05-16T09:48:00.898Z</time>
      </trkpt>
      <trkpt lat="38.79661833" lon="-9.10510833">
        <ele>10.0</ele>
        <time>2019-05-16T09:48:01.929Z</time>
      </trkpt>
      <trkpt lat="38.79661833" lon="-9.10510833">
        <ele>10.0</ele>
        <time>2019-05-16T09:48:02.935Z</time>
      </trkpt>
      <trkpt lat="38.79661833" lon="-9.10510833">
        <ele>10.0</ele>
        <time>2019-05-16T09:48:03.929Z</time>
      </trkpt>
      <trkpt lat="38.79661833" lon="-9.10510833">
        <ele>10.0</ele>
        <time>2019-05-16T09:48:04.933Z</time>
      </trkpt>
      <trkpt lat="38.79661833" lon="-9.10510833">
        <ele>10.0</ele>
        <time>2019-05-16T09:48:05.934Z</time>
      </trkpt>
      <trkpt lat="38.79661833" lon="-9.10510833">
        <ele>10.0</ele>
        <time>2019-05-16T09:48:06.898Z</time>
      </trkpt>
      <trkpt lat="38.79661833" lon="-9.10510833">
        <ele>10.0</ele>
        <time>2019-05-16T09:48:07.901Z</time>
      </trkpt>
      <trkpt lat="38.79661833" lon="-9.10510833">
        <ele>10.0</ele>
        <time>2019-05-16T09:48:08.905Z</time>
      </trkpt>
      <trkpt lat="38.79661833" lon="-9.10510833">
        <ele>10.0</ele>
        <time>2019-05-16T09:48:09.929Z</time>
      </trkpt>
      <trkpt lat="38.79661833" lon="-9.10510833">
        <ele>10.0</ele>
        <time>2019-05-16T09:48:10.934Z</time>
      </trkpt>
      <trkpt lat="38.79661833" lon="-9.10510833">
        <ele>10.0</ele>
        <time>2019-05-16T09:48:11.928Z</time>
      </trkpt>
      <trkpt lat="38.79661833" lon="-9.10510833">
        <ele>10.0</ele>
        <time>2019-05-16T09:48:12.911Z</time>
      </trkpt>
      <trkpt lat="38.79661833" lon="-9.10510833">
        <ele>10.0</ele>
        <time>2019-05-16T09:48:13.934Z</time>
      </trkpt>
      <trkpt lat="38.79661833" lon="-9.10510833">
        <ele>10.0</ele>
        <time>2019-05-16T09:48:14.930Z</time>
      </trkpt>
      <trkpt lat="38.79661833" lon="-9.10510833">
        <ele>10.0</ele>
        <time>2019-05-16T09:48:15.920Z</time>
      </trkpt>
      <trkpt lat="38.79661833" lon="-9.10510833">
        <ele>10.0</ele>
        <time>2019-05-16T09:48:16.931Z</time>
      </trkpt>
      <trkpt lat="38.79661833" lon="-9.10510833">
        <ele>10.0</ele>
        <time>2019-05-16T09:48:17.901Z</time>
      </trkpt>
      <trkpt lat="38.79661833" lon="-9.10510833">
        <ele>10.0</ele>
        <time>2019-05-16T09:48:18.897Z</time>
      </trkpt>
      <trkpt lat="38.79661833" lon="-9.10510833">
        <ele>10.0</ele>
        <time>2019-05-16T09:48:19.928Z</time>
      </trkpt>
      <trkpt lat="38.79661833" lon="-9.10510833">
        <ele>10.0</ele>
        <time>2019-05-16T09:48:20.901Z</time>
      </trkpt>
      <trkpt lat="38.79661833" lon="-9.10510833">
        <ele>10.0</ele>
        <time>2019-05-16T09:48:21.929Z</time>
      </trkpt>
      <trkpt lat="38.79661833" lon="-9.10510833">
        <ele>10.0</ele>
        <time>2019-05-16T09:48:22.934Z</time>
      </trkpt>
      <trkpt lat="38.79661833" lon="-9.10510833">
        <ele>10.0</ele>
        <time>2019-05-16T09:48:23.929Z</time>
      </trkpt>
      <trkpt lat="38.79661833" lon="-9.10510833">
        <ele>10.0</ele>
        <time>2019-05-16T09:48:24.897Z</time>
      </trkpt>
      <trkpt lat="38.79661833" lon="-9.10510833">
        <ele>10.0</ele>
        <time>2019-05-16T09:48:25.905Z</time>
      </trkpt>
      <trkpt lat="38.79661833" lon="-9.10510833">
        <ele>10.0</ele>
        <time>2019-05-16T09:48:26.931Z</time>
      </trkpt>
      <trkpt lat="38.79661833" lon="-9.10510833">
        <ele>10.0</ele>
        <time>2019-05-16T09:48:27.901Z</time>
      </trkpt>
      <trkpt lat="38.79661833" lon="-9.10510833">
        <ele>10.0</ele>
        <time>2019-05-16T09:48:28.929Z</time>
      </trkpt>
      <trkpt lat="38.79661833" lon="-9.10510833">
        <ele>10.0</ele>
        <time>2019-05-16T09:48:29.914Z</time>
      </trkpt>
      <trkpt lat="38.79661833" lon="-9.10510833">
        <ele>10.0</ele>
        <time>2019-05-16T09:48:30.899Z</time>
      </trkpt>
      <trkpt lat="38.79661833" lon="-9.10510833">
        <ele>10.0</ele>
        <time>2019-05-16T09:48:31.929Z</time>
      </trkpt>
      <trkpt lat="38.79661833" lon="-9.10510833">
        <ele>10.0</ele>
        <time>2019-05-16T09:48:32.936Z</time>
      </trkpt>
      <trkpt lat="38.79661833" lon="-9.10510833">
        <ele>10.0</ele>
        <time>2019-05-16T09:48:33.929Z</time>
      </trkpt>
      <trkpt lat="38.79661833" lon="-9.10510833">
        <ele>10.0</ele>
        <time>2019-05-16T09:48:34.914Z</time>
      </trkpt>
      <trkpt lat="38.79661833" lon="-9.10510833">
        <ele>10.0</ele>
        <time>2019-05-16T09:48:35.897Z</time>
      </trkpt>
      <trkpt lat="38.79661833" lon="-9.10510833">
        <ele>10.0</ele>
        <time>2019-05-16T09:48:36.936Z</time>
      </trkpt>
      <trkpt lat="38.79661833" lon="-9.10510833">
        <ele>10.0</ele>
        <time>2019-05-16T09:48:37.929Z</time>
      </trkpt>
      <trkpt lat="38.79661833" lon="-9.10510833">
        <ele>10.0</ele>
        <time>2019-05-16T09:48:38.906Z</time>
      </trkpt>
      <trkpt lat="38.79661833" lon="-9.10510833">
        <ele>10.0</ele>
        <time>2019-05-16T09:48:39.931Z</time>
      </trkpt>
      <trkpt lat="38.79661833" lon="-9.10510833">
        <ele>10.0</ele>
        <time>2019-05-16T09:48:40.934Z</time>
      </trkpt>
      <trkpt lat="38.79661833" lon="-9.10510833">
        <ele>10.0</ele>
        <time>2019-05-16T09:48:41.934Z</time>
      </trkpt>
      <trkpt lat="38.79661833" lon="-9.10510833">
        <ele>10.0</ele>
        <time>2019-05-16T09:48:42.936Z</time>
      </trkpt>
      <trkpt lat="38.79661833" lon="-9.10510833">
        <ele>10.0</ele>
        <time>2019-05-16T09:48:43.921Z</time>
      </trkpt>
      <trkpt lat="38.79661833" lon="-9.10510833">
        <ele>10.0</ele>
        <time>2019-05-16T09:48:44.904Z</time>
      </trkpt>
      <trkpt lat="38.79661833" lon="-9.10510833">
        <ele>10.0</ele>
        <time>2019-05-16T09:48:45.931Z</time>
      </trkpt>
      <trkpt lat="38.79661833" lon="-9.10510833">
        <ele>10.0</ele>
        <time>2019-05-16T09:48:46.935Z</time>
      </trkpt>
      <trkpt lat="38.79661833" lon="-9.10510833">
        <ele>10.0</ele>
        <time>2019-05-16T09:48:47.929Z</time>
      </trkpt>
      <trkpt lat="38.79661833" lon="-9.10510833">
        <ele>10.0</ele>
        <time>2019-05-16T09:48:48.906Z</time>
      </trkpt>
      <trkpt lat="38.79661833" lon="-9.10510833">
        <ele>10.0</ele>
        <time>2019-05-16T09:48:49.930Z</time>
      </trkpt>
      <trkpt lat="38.79661833" lon="-9.10510833">
        <ele>10.0</ele>
        <time>2019-05-16T09:48:50.934Z</time>
      </trkpt>
      <trkpt lat="38.79661833" lon="-9.10510833">
        <ele>10.0</ele>
        <time>2019-05-16T09:48:51.928Z</time>
      </trkpt>
      <trkpt lat="38.79661833" lon="-9.10510833">
        <ele>10.0</ele>
        <time>2019-05-16T09:48:52.934Z</time>
      </trkpt>
      <trkpt lat="38.79661833" lon="-9.10510833">
        <ele>10.0</ele>
        <time>2019-05-16T09:48:53.927Z</time>
      </trkpt>
      <trkpt lat="38.79661833" lon="-9.10510833">
        <ele>10.0</ele>
        <time>2019-05-16T09:48:54.936Z</time>
      </trkpt>
      <trkpt lat="38.79661833" lon="-9.10510833">
        <ele>10.0</ele>
        <time>2019-05-16T09:48:55.931Z</time>
      </trkpt>
      <trkpt lat="38.79661833" lon="-9.10510833">
        <ele>10.0</ele>
        <time>2019-05-16T09:48:56.934Z</time>
      </trkpt>
      <trkpt lat="38.79661833" lon="-9.10510833">
        <ele>10.0</ele>
        <time>2019-05-16T09:48:57.928Z</time>
      </trkpt>
      <trkpt lat="38.79661833" lon="-9.10510833">
        <ele>10.0</ele>
        <time>2019-05-16T09:48:58.905Z</time>
      </trkpt>
      <trkpt lat="38.79661833" lon="-9.10510833">
        <ele>10.0</ele>
        <time>2019-05-16T09:48:59.931Z</time>
      </trkpt>
      <trkpt lat="38.79661833" lon="-9.10510833">
        <ele>10.0</ele>
        <time>2019-05-16T09:49:00.936Z</time>
      </trkpt>
      <trkpt lat="38.79661833" lon="-9.10510833">
        <ele>10.0</ele>
        <time>2019-05-16T09:49:01.929Z</time>
      </trkpt>
      <trkpt lat="38.79661833" lon="-9.10510833">
        <ele>10.0</ele>
        <time>2019-05-16T09:49:02.934Z</time>
      </trkpt>
      <trkpt lat="38.79661833" lon="-9.10510833">
        <ele>10.0</ele>
        <time>2019-05-16T09:49:03.928Z</time>
      </trkpt>
      <trkpt lat="38.79661833" lon="-9.10510833">
        <ele>10.0</ele>
        <time>2019-05-16T09:49:04.914Z</time>
      </trkpt>
      <trkpt lat="38.79661833" lon="-9.10510833">
        <ele>10.0</ele>
        <time>2019-05-16T09:49:05.897Z</time>
      </trkpt>
      <trkpt lat="38.79661833" lon="-9.10510833">
        <ele>10.0</ele>
        <time>2019-05-16T09:49:06.936Z</time>
      </trkpt>
      <trkpt lat="38.79661833" lon="-9.10510833">
        <ele>10.0</ele>
        <time>2019-05-16T09:49:07.928Z</time>
      </trkpt>
      <trkpt lat="38.79661833" lon="-9.10510833">
        <ele>10.0</ele>
        <time>2019-05-16T09:49:08.905Z</time>
      </trkpt>
      <trkpt lat="38.79661833" lon="-9.10510833">
        <ele>10.0</ele>
        <time>2019-05-16T09:49:09.931Z</time>
      </trkpt>
      <trkpt lat="38.79661833" lon="-9.10510833">
        <ele>10.0</ele>
        <time>2019-05-16T09:49:10.910Z</time>
      </trkpt>
      <trkpt lat="38.79661833" lon="-9.10510833">
        <ele>10.0</ele>
        <time>2019-05-16T09:49:11.933Z</time>
      </trkpt>
      <trkpt lat="38.79661833" lon="-9.10510833">
        <ele>10.0</ele>
        <time>2019-05-16T09:49:12.934Z</time>
      </trkpt>
      <trkpt lat="38.79661833" lon="-9.10510833">
        <ele>10.0</ele>
        <time>2019-05-16T09:49:13.928Z</time>
      </trkpt>
      <trkpt lat="38.79661833" lon="-9.10510833">
        <ele>10.0</ele>
        <time>2019-05-16T09:49:14.936Z</time>
      </trkpt>
      <trkpt lat="38.79661833" lon="-9.10510833">
        <ele>10.0</ele>
        <time>2019-05-16T09:49:15.928Z</time>
      </trkpt>
      <trkpt lat="38.79661833" lon="-9.10510833">
        <ele>10.0</ele>
        <time>2019-05-16T09:49:16.909Z</time>
      </trkpt>
      <trkpt lat="38.79661833" lon="-9.10510833">
        <ele>10.0</ele>
        <time>2019-05-16T09:49:17.899Z</time>
      </trkpt>
      <trkpt lat="38.79661833" lon="-9.10510833">
        <ele>10.0</ele>
        <time>2019-05-16T09:49:18.901Z</time>
      </trkpt>
      <trkpt lat="38.79661833" lon="-9.10510833">
        <ele>10.0</ele>
        <time>2019-05-16T09:49:19.929Z</time>
      </trkpt>
      <trkpt lat="38.79661833" lon="-9.10510833">
        <ele>10.0</ele>
        <time>2019-05-16T09:49:20.936Z</time>
      </trkpt>
      <trkpt lat="38.79661833" lon="-9.10510833">
        <ele>10.0</ele>
        <time>2019-05-16T09:49:21.932Z</time>
      </trkpt>
      <trkpt lat="38.79661833" lon="-9.10510833">
        <ele>10.0</ele>
        <time>2019-05-16T09:49:22.935Z</time>
      </trkpt>
      <trkpt lat="38.79661833" lon="-9.10510833">
        <ele>10.0</ele>
        <time>2019-05-16T09:49:23.934Z</time>
      </trkpt>
      <trkpt lat="38.79661833" lon="-9.10510833">
        <ele>10.0</ele>
        <time>2019-05-16T09:49:24.936Z</time>
      </trkpt>
      <trkpt lat="38.79661833" lon="-9.10510833">
        <ele>10.0</ele>
        <time>2019-05-16T09:49:25.931Z</time>
      </trkpt>
      <trkpt lat="38.79661833" lon="-9.10510833">
        <ele>10.0</ele>
        <time>2019-05-16T09:49:26.934Z</time>
      </trkpt>
      <trkpt lat="38.79661833" lon="-9.10510833">
        <ele>10.0</ele>
        <time>2019-05-16T09:49:27.929Z</time>
      </trkpt>
      <trkpt lat="38.79661833" lon="-9.10510833">
        <ele>10.0</ele>
        <time>2019-05-16T09:49:28.906Z</time>
      </trkpt>
      <trkpt lat="38.79661833" lon="-9.10510833">
        <ele>10.0</ele>
        <time>2019-05-16T09:49:29.931Z</time>
      </trkpt>
      <trkpt lat="38.79661833" lon="-9.10510833">
        <ele>10.0</ele>
        <time>2019-05-16T09:49:30.897Z</time>
      </trkpt>
      <trkpt lat="38.79661833" lon="-9.10510833">
        <ele>10.0</ele>
        <time>2019-05-16T09:49:31.929Z</time>
      </trkpt>
      <trkpt lat="38.79661833" lon="-9.10510833">
        <ele>10.0</ele>
        <time>2019-05-16T09:49:32.934Z</time>
      </trkpt>
      <trkpt lat="38.79661833" lon="-9.10510833">
        <ele>10.0</ele>
        <time>2019-05-16T09:49:33.928Z</time>
      </trkpt>
      <trkpt lat="38.79661833" lon="-9.10510833">
        <ele>10.0</ele>
        <time>2019-05-16T09:49:34.934Z</time>
      </trkpt>
      <trkpt lat="38.79661833" lon="-9.10510833">
        <ele>10.0</ele>
        <time>2019-05-16T09:49:35.931Z</time>
      </trkpt>
      <trkpt lat="38.79661833" lon="-9.10510833">
        <ele>10.0</ele>
        <time>2019-05-16T09:49:36.936Z</time>
      </trkpt>
      <trkpt lat="38.79661833" lon="-9.10510833">
        <ele>10.0</ele>
        <time>2019-05-16T09:49:37.928Z</time>
      </trkpt>
      <trkpt lat="38.79661833" lon="-9.10510833">
        <ele>10.0</ele>
        <time>2019-05-16T09:49:38.907Z</time>
      </trkpt>
      <trkpt lat="38.79661833" lon="-9.10510833">
        <ele>10.0</ele>
        <time>2019-05-16T09:49:39.932Z</time>
      </trkpt>
      <trkpt lat="38.79661833" lon="-9.10510833">
        <ele>10.0</ele>
        <time>2019-05-16T09:49:40.928Z</time>
      </trkpt>
      <trkpt lat="38.79661833" lon="-9.10510833">
        <ele>10.0</ele>
        <time>2019-05-16T09:49:41.934Z</time>
      </trkpt>
      <trkpt lat="38.79661833" lon="-9.10510833">
        <ele>10.0</ele>
        <time>2019-05-16T09:49:42.898Z</time>
      </trkpt>
      <trkpt lat="38.79661833" lon="-9.10510833">
        <ele>10.0</ele>
        <time>2019-05-16T09:49:43.929Z</time>
      </trkpt>
      <trkpt lat="38.79661833" lon="-9.10510833">
        <ele>10.0</ele>
        <time>2019-05-16T09:49:44.934Z</time>
      </trkpt>
      <trkpt lat="38.79661833" lon="-9.10510833">
        <ele>10.0</ele>
        <time>2019-05-16T09:49:45.924Z</time>
      </trkpt>
      <trkpt lat="38.79661833" lon="-9.10510833">
        <ele>10.0</ele>
        <time>2019-05-16T09:49:46.907Z</time>
      </trkpt>
      <trkpt lat="38.79661833" lon="-9.10510833">
        <ele>10.0</ele>
        <time>2019-05-16T09:49:47.930Z</time>
      </trkpt>
      <trkpt lat="38.79661833" lon="-9.10510833">
        <ele>10.0</ele>
        <time>2019-05-16T09:49:48.907Z</time>
      </trkpt>
      <trkpt lat="38.79661833" lon="-9.10510833">
        <ele>10.0</ele>
        <time>2019-05-16T09:49:49.931Z</time>
      </trkpt>
      <trkpt lat="38.79661833" lon="-9.10510833">
        <ele>10.0</ele>
        <time>2019-05-16T09:49:50.932Z</time>
      </trkpt>
      <trkpt lat="38.79661833" lon="-9.10510833">
        <ele>10.0</ele>
        <time>2019-05-16T09:49:51.928Z</time>
      </trkpt>
      <trkpt lat="38.79661833" lon="-9.10510833">
        <ele>10.0</ele>
        <time>2019-05-16T09:49:52.934Z</time>
      </trkpt>
      <trkpt lat="38.79661833" lon="-9.10510833">
        <ele>10.0</ele>
        <time>2019-05-16T09:49:53.929Z</time>
      </trkpt>
      <trkpt lat="38.79661833" lon="-9.10510833">
        <ele>10.0</ele>
        <time>2019-05-16T09:49:54.912Z</time>
      </trkpt>
      <trkpt lat="38.79661833" lon="-9.10510833">
        <ele>10.0</ele>
        <time>2019-05-16T09:49:55.935Z</time>
      </trkpt>
      <trkpt lat="38.79661833" lon="-9.10510833">
        <ele>10.0</ele>
        <time>2019-05-16T09:49:56.934Z</time>
      </trkpt>
      <trkpt lat="38.79661833" lon="-9.10510833">
        <ele>10.0</ele>
        <time>2019-05-16T09:49:57.932Z</time>
      </trkpt>
      <trkpt lat="38.79661833" lon="-9.10510833">
        <ele>10.0</ele>
        <time>2019-05-16T09:49:58.936Z</time>
      </trkpt>
      <trkpt lat="38.79661833" lon="-9.10510833">
        <ele>10.0</ele>
        <time>2019-05-16T09:49:59.930Z</time>
      </trkpt>
      <trkpt lat="38.79661833" lon="-9.10510833">
        <ele>10.0</ele>
        <time>2019-05-16T09:50:00.936Z</time>
      </trkpt>
      <trkpt lat="38.79661833" lon="-9.10510833">
        <ele>10.0</ele>
        <time>2019-05-16T09:50:01.929Z</time>
      </trkpt>
      <trkpt lat="38.79661833" lon="-9.10510833">
        <ele>10.0</ele>
        <time>2019-05-16T09:50:02.934Z</time>
      </trkpt>
      <trkpt lat="38.79661833" lon="-9.10510833">
        <ele>10.0</ele>
        <time>2019-05-16T09:50:03.934Z</time>
      </trkpt>
      <trkpt lat="38.79661833" lon="-9.10510833">
        <ele>10.0</ele>
        <time>2019-05-16T09:50:04.929Z</time>
      </trkpt>
      <trkpt lat="38.79661833" lon="-9.10510833">
        <ele>10.0</ele>
        <time>2019-05-16T09:50:05.913Z</time>
      </trkpt>
      <trkpt lat="38.79661833" lon="-9.10510833">
        <ele>10.0</ele>
        <time>2019-05-16T09:50:06.935Z</time>
      </trkpt>
      <trkpt lat="38.79661833" lon="-9.10510833">
        <ele>10.0</ele>
        <time>2019-05-16T09:50:07.929Z</time>
      </trkpt>
      <trkpt lat="38.79661833" lon="-9.10510833">
        <ele>10.0</ele>
        <time>2019-05-16T09:50:08.907Z</time>
      </trkpt>
      <trkpt lat="38.79661833" lon="-9.10510833">
        <ele>10.0</ele>
        <time>2019-05-16T09:50:09.930Z</time>
      </trkpt>
      <trkpt lat="38.79661833" lon="-9.10510833">
        <ele>10.0</ele>
        <time>2019-05-16T09:50:10.934Z</time>
      </trkpt>
      <trkpt lat="38.79661833" lon="-9.10510833">
        <ele>10.0</ele>
        <time>2019-05-16T09:50:11.928Z</time>
      </trkpt>
      <trkpt lat="38.79661833" lon="-9.10510833">
        <ele>10.0</ele>
        <time>2019-05-16T09:50:12.934Z</time>
      </trkpt>
      <trkpt lat="38.79661833" lon="-9.10510833">
        <ele>10.0</ele>
        <time>2019-05-16T09:50:13.928Z</time>
      </trkpt>
      <trkpt lat="38.79661833" lon="-9.10510833">
        <ele>10.0</ele>
        <time>2019-05-16T09:50:14.914Z</time>
      </trkpt>
      <trkpt lat="38.79661833" lon="-9.10510833">
        <ele>10.0</ele>
        <time>2019-05-16T09:50:15.910Z</time>
      </trkpt>
      <trkpt lat="38.79661833" lon="-9.10510833">
        <ele>10.0</ele>
        <time>2019-05-16T09:50:16.934Z</time>
      </trkpt>
      <trkpt lat="38.79661833" lon="-9.10510833">
        <ele>10.0</ele>
        <time>2019-05-16T09:50:17.902Z</time>
      </trkpt>
      <trkpt lat="38.79661833" lon="-9.10510833">
        <ele>10.0</ele>
        <time>2019-05-16T09:50:18.898Z</time>
      </trkpt>
      <trkpt lat="38.79661833" lon="-9.10510833">
        <ele>10.0</ele>
        <time>2019-05-16T09:50:19.925Z</time>
      </trkpt>
      <trkpt lat="38.79661833" lon="-9.10510833">
        <ele>10.0</ele>
        <time>2019-05-16T09:50:20.902Z</time>
      </trkpt>
      <trkpt lat="38.79661833" lon="-9.10510833">
        <ele>10.0</ele>
        <time>2019-05-16T09:50:21.934Z</time>
      </trkpt>
      <trkpt lat="38.79661833" lon="-9.10510833">
        <ele>10.0</ele>
        <time>2019-05-16T09:50:22.929Z</time>
      </trkpt>
      <trkpt lat="38.79661833" lon="-9.10510833">
        <ele>10.0</ele>
        <time>2019-05-16T09:50:23.934Z</time>
      </trkpt>
      <trkpt lat="38.79661833" lon="-9.10510833">
        <ele>10.0</ele>
        <time>2019-05-16T09:50:24.935Z</time>
      </trkpt>
      <trkpt lat="38.79661833" lon="-9.10510833">
        <ele>10.0</ele>
        <time>2019-05-16T09:50:25.929Z</time>
      </trkpt>
      <trkpt lat="38.79661833" lon="-9.10510833">
        <ele>10.0</ele>
        <time>2019-05-16T09:50:26.935Z</time>
      </trkpt>
      <trkpt lat="38.79661833" lon="-9.10510833">
        <ele>10.0</ele>
        <time>2019-05-16T09:50:27.929Z</time>
      </trkpt>
      <trkpt lat="38.79661833" lon="-9.10510833">
        <ele>10.0</ele>
        <time>2019-05-16T09:50:28.907Z</time>
      </trkpt>
      <trkpt lat="38.79661833" lon="-9.10510833">
        <ele>10.0</ele>
        <time>2019-05-16T09:50:29.934Z</time>
      </trkpt>
      <trkpt lat="38.79661833" lon="-9.10510833">
        <ele>10.0</ele>
        <time>2019-05-16T09:50:30.935Z</time>
      </trkpt>
      <trkpt lat="38.79661833" lon="-9.10510833">
        <ele>10.0</ele>
        <time>2019-05-16T09:50:31.929Z</time>
      </trkpt>
      <trkpt lat="38.79661833" lon="-9.10510833">
        <ele>10.0</ele>
        <time>2019-05-16T09:50:32.934Z</time>
      </trkpt>
      <trkpt lat="38.79661833" lon="-9.10510833">
        <ele>10.0</ele>
        <time>2019-05-16T09:50:33.931Z</time>
      </trkpt>
      <trkpt lat="38.79661833" lon="-9.10510833">
        <ele>10.0</ele>
        <time>2019-05-16T09:50:34.934Z</time>
      </trkpt>
      <trkpt lat="38.79661833" lon="-9.10510833">
        <ele>10.0</ele>
        <time>2019-05-16T09:50:35.929Z</time>
      </trkpt>
      <trkpt lat="38.79661833" lon="-9.10510833">
        <ele>10.0</ele>
        <time>2019-05-16T09:50:36.936Z</time>
      </trkpt>
      <trkpt lat="38.79661833" lon="-9.10510833">
        <ele>10.0</ele>
        <time>2019-05-16T09:50:37.929Z</time>
      </trkpt>
      <trkpt lat="38.79661833" lon="-9.10510833">
        <ele>10.0</ele>
        <time>2019-05-16T09:50:38.913Z</time>
      </trkpt>
      <trkpt lat="38.79661833" lon="-9.10510833">
        <ele>10.0</ele>
        <time>2019-05-16T09:50:39.910Z</time>
      </trkpt>
      <trkpt lat="38.79661833" lon="-9.10510833">
        <ele>10.0</ele>
        <time>2019-05-16T09:50:40.934Z</time>
      </trkpt>
      <trkpt lat="38.79661833" lon="-9.10510833">
        <ele>10.0</ele>
        <time>2019-05-16T09:50:41.929Z</time>
      </trkpt>
      <trkpt lat="38.79661833" lon="-9.10510833">
        <ele>10.0</ele>
        <time>2019-05-16T09:50:42.913Z</time>
      </trkpt>
      <trkpt lat="38.79661833" lon="-9.10510833">
        <ele>10.0</ele>
        <time>2019-05-16T09:50:43.936Z</time>
      </trkpt>
      <trkpt lat="38.79661833" lon="-9.10510833">
        <ele>10.0</ele>
        <time>2019-05-16T09:50:44.932Z</time>
      </trkpt>
      <trkpt lat="38.79661833" lon="-9.10510833">
        <ele>10.0</ele>
        <time>2019-05-16T09:50:45.934Z</time>
      </trkpt>
      <trkpt lat="38.79661833" lon="-9.10510833">
        <ele>10.0</ele>
        <time>2019-05-16T09:50:46.928Z</time>
      </trkpt>
      <trkpt lat="38.79661833" lon="-9.10510833">
        <ele>10.0</ele>
        <time>2019-05-16T09:50:47.901Z</time>
      </trkpt>
      <trkpt lat="38.79661833" lon="-9.10510833">
        <ele>10.0</ele>
        <time>2019-05-16T09:50:48.936Z</time>
      </trkpt>
      <trkpt lat="38.79661833" lon="-9.10510833">
        <ele>10.0</ele>
        <time>2019-05-16T09:50:49.930Z</time>
      </trkpt>
      <trkpt lat="38.79661833" lon="-9.10510833">
        <ele>10.0</ele>
        <time>2019-05-16T09:50:50.934Z</time>
      </trkpt>
      <trkpt lat="38.79661833" lon="-9.10510833">
        <ele>10.0</ele>
        <time>2019-05-16T09:50:51.929Z</time>
      </trkpt>
      <trkpt lat="38.79661833" lon="-9.10510833">
        <ele>10.0</ele>
        <time>2019-05-16T09:50:52.897Z</time>
      </trkpt>
      <trkpt lat="38.79661833" lon="-9.10510833">
        <ele>10.0</ele>
        <time>2019-05-16T09:50:53.929Z</time>
      </trkpt>
      <trkpt lat="38.79661833" lon="-9.10510833">
        <ele>10.0</ele>
        <time>2019-05-16T09:50:54.912Z</time>
      </trkpt>
      <trkpt lat="38.79661833" lon="-9.10510833">
        <ele>10.0</ele>
        <time>2019-05-16T09:50:55.935Z</time>
      </trkpt>
      <trkpt lat="38.79661833" lon="-9.10510833">
        <ele>10.0</ele>
        <time>2019-05-16T09:50:56.934Z</time>
      </trkpt>
      <trkpt lat="38.79661833" lon="-9.10510833">
        <ele>10.0</ele>
        <time>2019-05-16T09:50:57.929Z</time>
      </trkpt>
      <trkpt lat="38.79661833" lon="-9.10510833">
        <ele>10.0</ele>
        <time>2019-05-16T09:50:58.907Z</time>
      </trkpt>
      <trkpt lat="38.79661833" lon="-9.10510833">
        <ele>10.0</ele>
        <time>2019-05-16T09:50:59.934Z</time>
      </trkpt>
      <trkpt lat="38.79661833" lon="-9.10510833">
        <ele>10.0</ele>
        <time>2019-05-16T09:51:00.936Z</time>
      </trkpt>
      <trkpt lat="38.79661833" lon="-9.10510833">
        <ele>10.0</ele>
        <time>2019-05-16T09:51:01.929Z</time>
      </trkpt>
      <trkpt lat="38.79661833" lon="-9.10510833">
        <ele>10.0</ele>
        <time>2019-05-16T09:51:02.935Z</time>
      </trkpt>
      <trkpt lat="38.79661833" lon="-9.10510833">
        <ele>10.0</ele>
        <time>2019-05-16T09:51:03.934Z</time>
      </trkpt>
      <trkpt lat="38.79661833" lon="-9.10510833">
        <ele>10.0</ele>
        <time>2019-05-16T09:51:04.929Z</time>
      </trkpt>
      <trkpt lat="38.79661833" lon="-9.10510833">
        <ele>10.0</ele>
        <time>2019-05-16T09:51:05.934Z</time>
      </trkpt>
      <trkpt lat="38.79661833" lon="-9.10510833">
        <ele>10.0</ele>
        <time>2019-05-16T09:51:06.897Z</time>
      </trkpt>
      <trkpt lat="38.79661833" lon="-9.10510833">
        <ele>10.0</ele>
        <time>2019-05-16T09:51:07.929Z</time>
      </trkpt>
      <trkpt lat="38.79661833" lon="-9.10510833">
        <ele>10.0</ele>
        <time>2019-05-16T09:51:08.906Z</time>
      </trkpt>
      <trkpt lat="38.79661833" lon="-9.10510833">
        <ele>10.0</ele>
        <time>2019-05-16T09:51:09.930Z</time>
      </trkpt>
      <trkpt lat="38.79661833" lon="-9.10510833">
        <ele>10.0</ele>
        <time>2019-05-16T09:51:10.934Z</time>
      </trkpt>
      <trkpt lat="38.79661833" lon="-9.10510833">
        <ele>10.0</ele>
        <time>2019-05-16T09:51:11.929Z</time>
      </trkpt>
      <trkpt lat="38.79661833" lon="-9.10510833">
        <ele>10.0</ele>
        <time>2019-05-16T09:51:12.911Z</time>
      </trkpt>
      <trkpt lat="38.79661833" lon="-9.10510833">
        <ele>10.0</ele>
        <time>2019-05-16T09:51:13.934Z</time>
      </trkpt>
      <trkpt lat="38.79661833" lon="-9.10510833">
        <ele>10.0</ele>
        <time>2019-05-16T09:51:14.934Z</time>
      </trkpt>
      <trkpt lat="38.79661833" lon="-9.10510833">
        <ele>10.0</ele>
        <time>2019-05-16T09:51:15.929Z</time>
      </trkpt>
      <trkpt lat="38.79661833" lon="-9.10510833">
        <ele>10.0</ele>
        <time>2019-05-16T09:51:16.932Z</time>
      </trkpt>
      <trkpt lat="38.79661833" lon="-9.10510833">
        <ele>10.0</ele>
        <time>2019-05-16T09:51:17.901Z</time>
      </trkpt>
      <trkpt lat="38.79661833" lon="-9.10510833">
        <ele>10.0</ele>
        <time>2019-05-16T09:51:18.937Z</time>
      </trkpt>
      <trkpt lat="38.79661833" lon="-9.10510833">
        <ele>10.0</ele>
        <time>2019-05-16T09:51:19.935Z</time>
      </trkpt>
      <trkpt lat="38.79661833" lon="-9.10510833">
        <ele>10.0</ele>
        <time>2019-05-16T09:51:20.930Z</time>
      </trkpt>
      <trkpt lat="38.79661833" lon="-9.10510833">
        <ele>10.0</ele>
        <time>2019-05-16T09:51:21.934Z</time>
      </trkpt>
      <trkpt lat="38.79661833" lon="-9.10510833">
        <ele>10.0</ele>
        <time>2019-05-16T09:51:22.930Z</time>
      </trkpt>
      <trkpt lat="38.79661833" lon="-9.10510833">
        <ele>10.0</ele>
        <time>2019-05-16T09:51:23.915Z</time>
      </trkpt>
      <trkpt lat="38.79661833" lon="-9.10510833">
        <ele>10.0</ele>
        <time>2019-05-16T09:51:24.899Z</time>
      </trkpt>
      <trkpt lat="38.79661833" lon="-9.10510833">
        <ele>10.0</ele>
        <time>2019-05-16T09:51:25.930Z</time>
      </trkpt>
      <trkpt lat="38.79661833" lon="-9.10510833">
        <ele>10.0</ele>
        <time>2019-05-16T09:51:26.913Z</time>
      </trkpt>
      <trkpt lat="38.79661833" lon="-9.10510833">
        <ele>10.0</ele>
        <time>2019-05-16T09:51:27.901Z</time>
      </trkpt>
      <trkpt lat="38.79661833" lon="-9.10510833">
        <ele>10.0</ele>
        <time>2019-05-16T09:51:28.934Z</time>
      </trkpt>
      <trkpt lat="38.79661833" lon="-9.10510833">
        <ele>10.0</ele>
        <time>2019-05-16T09:51:29.934Z</time>
      </trkpt>
      <trkpt lat="38.79661833" lon="-9.10510833">
        <ele>10.0</ele>
        <time>2019-05-16T09:51:30.936Z</time>
      </trkpt>
      <trkpt lat="38.79661833" lon="-9.10510833">
        <ele>10.0</ele>
        <time>2019-05-16T09:51:31.929Z</time>
      </trkpt>
      <trkpt lat="38.79661833" lon="-9.10510833">
        <ele>10.0</ele>
        <time>2019-05-16T09:51:32.934Z</time>
      </trkpt>
      <trkpt lat="38.79661833" lon="-9.10510833">
        <ele>10.0</ele>
        <time>2019-05-16T09:51:33.929Z</time>
      </trkpt>
      <trkpt lat="38.79661833" lon="-9.10510833">
        <ele>10.0</ele>
        <time>2019-05-16T09:51:34.913Z</time>
      </trkpt>
      <trkpt lat="38.79661833" lon="-9.10510833">
        <ele>10.0</ele>
        <time>2019-05-16T09:51:35.897Z</time>
      </trkpt>
      <trkpt lat="38.79661833" lon="-9.10510833">
        <ele>10.0</ele>
        <time>2019-05-16T09:51:36.936Z</time>
      </trkpt>
      <trkpt lat="38.79661833" lon="-9.10510833">
        <ele>10.0</ele>
        <time>2019-05-16T09:51:37.903Z</time>
      </trkpt>
      <trkpt lat="38.79661833" lon="-9.10510833">
        <ele>10.0</ele>
        <time>2019-05-16T09:51:38.909Z</time>
      </trkpt>
      <trkpt lat="38.79661833" lon="-9.10510833">
        <ele>10.0</ele>
        <time>2019-05-16T09:51:39.933Z</time>
      </trkpt>
      <trkpt lat="38.79661833" lon="-9.10510833">
        <ele>10.0</ele>
        <time>2019-05-16T09:51:40.934Z</time>
      </trkpt>
      <trkpt lat="38.79661833" lon="-9.10510833">
        <ele>10.0</ele>
        <time>2019-05-16T09:51:41.929Z</time>
      </trkpt>
      <trkpt lat="38.79661833" lon="-9.10510833">
        <ele>10.0</ele>
        <time>2019-05-16T09:51:42.912Z</time>
      </trkpt>
      <trkpt lat="38.79661833" lon="-9.10510833">
        <ele>10.0</ele>
        <time>2019-05-16T09:51:43.936Z</time>
      </trkpt>
      <trkpt lat="38.79661833" lon="-9.10510833">
        <ele>10.0</ele>
        <time>2019-05-16T09:51:44.929Z</time>
      </trkpt>
      <trkpt lat="38.79661833" lon="-9.10510833">
        <ele>10.0</ele>
        <time>2019-05-16T09:51:45.934Z</time>
      </trkpt>
      <trkpt lat="38.79661833" lon="-9.10510833">
        <ele>10.0</ele>
        <time>2019-05-16T09:51:46.926Z</time>
      </trkpt>
      <trkpt lat="38.79661833" lon="-9.10510833">
        <ele>10.0</ele>
        <time>2019-05-16T09:51:47.909Z</time>
      </trkpt>
      <trkpt lat="38.79661833" lon="-9.10510833">
        <ele>10.0</ele>
        <time>2019-05-16T09:51:48.929Z</time>
      </trkpt>
      <trkpt lat="38.79661833" lon="-9.10510833">
        <ele>10.0</ele>
        <time>2019-05-16T09:51:49.934Z</time>
      </trkpt>
      <trkpt lat="38.79661833" lon="-9.10510833">
        <ele>10.0</ele>
        <time>2019-05-16T09:51:50.930Z</time>
      </trkpt>
      <trkpt lat="38.79661833" lon="-9.10510833">
        <ele>10.0</ele>
        <time>2019-05-16T09:51:51.935Z</time>
      </trkpt>
      <trkpt lat="38.79661833" lon="-9.10510833">
        <ele>10.0</ele>
        <time>2019-05-16T09:51:52.929Z</time>
      </trkpt>
      <trkpt lat="38.79661833" lon="-9.10510833">
        <ele>10.0</ele>
        <time>2019-05-16T09:51:53.914Z</time>
      </trkpt>
      <trkpt lat="38.79661833" lon="-9.10510833">
        <ele>10.0</ele>
        <time>2019-05-16T09:51:54.915Z</time>
      </trkpt>
      <trkpt lat="38.79661833" lon="-9.10510833">
        <ele>10.0</ele>
        <time>2019-05-16T09:51:55.934Z</time>
      </trkpt>
      <trkpt lat="38.79661833" lon="-9.10510833">
        <ele>10.0</ele>
        <time>2019-05-16T09:51:56.924Z</time>
      </trkpt>
      <trkpt lat="38.79661833" lon="-9.10510833">
        <ele>10.0</ele>
        <time>2019-05-16T09:51:57.908Z</time>
      </trkpt>
      <trkpt lat="38.79661833" lon="-9.10510833">
        <ele>10.0</ele>
        <time>2019-05-16T09:51:58.929Z</time>
      </trkpt>
      <trkpt lat="38.79661833" lon="-9.10510833">
        <ele>10.0</ele>
        <time>2019-05-16T09:51:59.935Z</time>
      </trkpt>
      <trkpt lat="38.79661833" lon="-9.10510833">
        <ele>10.0</ele>
        <time>2019-05-16T09:52:00.936Z</time>
      </trkpt>
      <trkpt lat="38.79661833" lon="-9.10510833">
        <ele>10.0</ele>
        <time>2019-05-16T09:52:01.929Z</time>
      </trkpt>
      <trkpt lat="38.79661833" lon="-9.10510833">
        <ele>10.0</ele>
        <time>2019-05-16T09:52:02.935Z</time>
      </trkpt>
      <trkpt lat="38.79661833" lon="-9.10510833">
        <ele>10.0</ele>
        <time>2019-05-16T09:52:03.929Z</time>
      </trkpt>
      <trkpt lat="38.79661833" lon="-9.10510833">
        <ele>10.0</ele>
        <time>2019-05-16T09:52:04.914Z</time>
      </trkpt>
      <trkpt lat="38.79661833" lon="-9.10510833">
        <ele>10.0</ele>
        <time>2019-05-16T09:52:05.897Z</time>
      </trkpt>
      <trkpt lat="38.79661833" lon="-9.10510833">
        <ele>10.0</ele>
        <time>2019-05-16T09:52:06.909Z</time>
      </trkpt>
      <trkpt lat="38.79661833" lon="-9.10510833">
        <ele>10.0</ele>
        <time>2019-05-16T09:52:07.930Z</time>
      </trkpt>
      <trkpt lat="38.79661833" lon="-9.10510833">
        <ele>10.0</ele>
        <time>2019-05-16T09:52:08.909Z</time>
      </trkpt>
      <trkpt lat="38.79661833" lon="-9.10510833">
        <ele>10.0</ele>
        <time>2019-05-16T09:52:09.932Z</time>
      </trkpt>
      <trkpt lat="38.79661833" lon="-9.10510833">
        <ele>10.0</ele>
        <time>2019-05-16T09:52:10.936Z</time>
      </trkpt>
      <trkpt lat="38.79661833" lon="-9.10510833">
        <ele>10.0</ele>
        <time>2019-05-16T09:52:11.935Z</time>
      </trkpt>
      <trkpt lat="38.79661833" lon="-9.10510833">
        <ele>10.0</ele>
        <time>2019-05-16T09:52:12.931Z</time>
      </trkpt>
      <trkpt lat="38.79661833" lon="-9.10510833">
        <ele>10.0</ele>
        <time>2019-05-16T09:52:13.934Z</time>
      </trkpt>
      <trkpt lat="38.79661833" lon="-9.10510833">
        <ele>10.0</ele>
        <time>2019-05-16T09:52:14.914Z</time>
      </trkpt>
      <trkpt lat="38.79661833" lon="-9.10510833">
        <ele>10.0</ele>
        <time>2019-05-16T09:52:15.909Z</time>
      </trkpt>
      <trkpt lat="38.79661833" lon="-9.10510833">
        <ele>10.0</ele>
        <time>2019-05-16T09:52:16.933Z</time>
      </trkpt>
      <trkpt lat="38.79661833" lon="-9.10510833">
        <ele>10.0</ele>
        <time>2019-05-16T09:52:17.901Z</time>
      </trkpt>
      <trkpt lat="38.79661833" lon="-9.10510833">
        <ele>10.0</ele>
        <time>2019-05-16T09:52:18.936Z</time>
      </trkpt>
      <trkpt lat="38.79661833" lon="-9.10510833">
        <ele>10.0</ele>
        <time>2019-05-16T09:52:19.930Z</time>
      </trkpt>
      <trkpt lat="38.79661833" lon="-9.10510833">
        <ele>10.0</ele>
        <time>2019-05-16T09:52:20.932Z</time>
      </trkpt>
      <trkpt lat="38.79661833" lon="-9.10510833">
        <ele>10.0</ele>
        <time>2019-05-16T09:52:21.934Z</time>
      </trkpt>
      <trkpt lat="38.79661833" lon="-9.10510833">
        <ele>10.0</ele>
        <time>2019-05-16T09:52:22.930Z</time>
      </trkpt>
      <trkpt lat="38.79661833" lon="-9.10510833">
        <ele>10.0</ele>
        <time>2019-05-16T09:52:23.934Z</time>
      </trkpt>
      <trkpt lat="38.79661833" lon="-9.10510833">
        <ele>10.0</ele>
        <time>2019-05-16T09:52:24.897Z</time>
      </trkpt>
      <trkpt lat="38.79661833" lon="-9.10510833">
        <ele>10.0</ele>
        <time>2019-05-16T09:52:25.929Z</time>
      </trkpt>
      <trkpt lat="38.79661833" lon="-9.10510833">
        <ele>10.0</ele>
        <time>2019-05-16T09:52:26.932Z</time>
      </trkpt>
      <trkpt lat="38.79661833" lon="-9.10510833">
        <ele>10.0</ele>
        <time>2019-05-16T09:52:27.929Z</time>
      </trkpt>
      <trkpt lat="38.79661833" lon="-9.10510833">
        <ele>10.0</ele>
        <time>2019-05-16T09:52:28.906Z</time>
      </trkpt>
      <trkpt lat="38.79661833" lon="-9.10510833">
        <ele>10.0</ele>
        <time>2019-05-16T09:52:29.931Z</time>
      </trkpt>
      <trkpt lat="38.79661833" lon="-9.10510833">
        <ele>10.0</ele>
        <time>2019-05-16T09:52:30.936Z</time>
      </trkpt>
      <trkpt lat="38.79661833" lon="-9.10510833">
        <ele>10.0</ele>
        <time>2019-05-16T09:52:31.929Z</time>
      </trkpt>
      <trkpt lat="38.79661833" lon="-9.10510833">
        <ele>10.0</ele>
        <time>2019-05-16T09:52:32.934Z</time>
      </trkpt>
      <trkpt lat="38.79661833" lon="-9.10510833">
        <ele>10.0</ele>
        <time>2019-05-16T09:52:33.929Z</time>
      </trkpt>
      <trkpt lat="38.79661833" lon="-9.10510833">
        <ele>10.0</ele>
        <time>2019-05-16T09:52:34.914Z</time>
      </trkpt>
      <trkpt lat="38.79661833" lon="-9.10510833">
        <ele>10.0</ele>
        <time>2019-05-16T09:52:35.897Z</time>
      </trkpt>
      <trkpt lat="38.79661833" lon="-9.10510833">
        <ele>10.0</ele>
        <time>2019-05-16T09:52:36.936Z</time>
      </trkpt>
      <trkpt lat="38.79661833" lon="-9.10510833">
        <ele>10.0</ele>
        <time>2019-05-16T09:52:37.929Z</time>
      </trkpt>
      <trkpt lat="38.79661833" lon="-9.10510833">
        <ele>10.0</ele>
        <time>2019-05-16T09:52:38.906Z</time>
      </trkpt>
      <trkpt lat="38.79661833" lon="-9.10510833">
        <ele>10.0</ele>
        <time>2019-05-16T09:52:39.930Z</time>
      </trkpt>
      <trkpt lat="38.79661833" lon="-9.10510833">
        <ele>10.0</ele>
        <time>2019-05-16T09:52:40.934Z</time>
      </trkpt>
      <trkpt lat="38.79661833" lon="-9.10510833">
        <ele>10.0</ele>
        <time>2019-05-16T09:52:41.929Z</time>
      </trkpt>
      <trkpt lat="38.79661833" lon="-9.10510833">
        <ele>10.0</ele>
        <time>2019-05-16T09:52:42.912Z</time>
      </trkpt>
      <trkpt lat="38.79661833" lon="-9.10510833">
        <ele>10.0</ele>
        <time>2019-05-16T09:52:43.897Z</time>
      </trkpt>
      <trkpt lat="38.79661833" lon="-9.10510833">
        <ele>10.0</ele>
        <time>2019-05-16T09:52:44.935Z</time>
      </trkpt>
      <trkpt lat="38.79661833" lon="-9.10510833">
        <ele>10.0</ele>
        <time>2019-05-16T09:52:45.935Z</time>
      </trkpt>
      <trkpt lat="38.79661833" lon="-9.10510833">
        <ele>10.0</ele>
        <time>2019-05-16T09:52:46.933Z</time>
      </trkpt>
      <trkpt lat="38.79661833" lon="-9.10510833">
        <ele>10.0</ele>
        <time>2019-05-16T09:52:47.929Z</time>
      </trkpt>
      <trkpt lat="38.79661833" lon="-9.10510833">
        <ele>10.0</ele>
        <time>2019-05-16T09:52:48.906Z</time>
      </trkpt>
      <trkpt lat="38.79661833" lon="-9.10510833">
        <ele>10.0</ele>
        <time>2019-05-16T09:52:49.931Z</time>
      </trkpt>
      <trkpt lat="38.79661833" lon="-9.10510833">
        <ele>10.0</ele>
        <time>2019-05-16T09:52:50.935Z</time>
      </trkpt>
      <trkpt lat="38.79661833" lon="-9.10510833">
        <ele>10.0</ele>
        <time>2019-05-16T09:52:51.929Z</time>
      </trkpt>
      <trkpt lat="38.79661833" lon="-9.10510833">
        <ele>10.0</ele>
        <time>2019-05-16T09:52:52.932Z</time>
      </trkpt>
      <trkpt lat="38.79661833" lon="-9.10510833">
        <ele>10.0</ele>
        <time>2019-05-16T09:52:53.935Z</time>
      </trkpt>
      <trkpt lat="38.79661833" lon="-9.10510833">
        <ele>10.0</ele>
        <time>2019-05-16T09:52:54.897Z</time>
      </trkpt>
      <trkpt lat="38.79661833" lon="-9.10510833">
        <ele>10.0</ele>
        <time>2019-05-16T09:52:55.929Z</time>
      </trkpt>
      <trkpt lat="38.79661833" lon="-9.10510833">
        <ele>10.0</ele>
        <time>2019-05-16T09:52:56.935Z</time>
      </trkpt>
      <trkpt lat="38.79661833" lon="-9.10510833">
        <ele>10.0</ele>
        <time>2019-05-16T09:52:57.929Z</time>
      </trkpt>
      <trkpt lat="38.79661833" lon="-9.10510833">
        <ele>10.0</ele>
        <time>2019-05-16T09:52:58.905Z</time>
      </trkpt>
      <trkpt lat="38.79661833" lon="-9.10510833">
        <ele>10.0</ele>
        <time>2019-05-16T09:52:59.929Z</time>
      </trkpt>
      <trkpt lat="38.79661833" lon="-9.10510833">
        <ele>10.0</ele>
        <time>2019-05-16T09:53:00.936Z</time>
      </trkpt>
      <trkpt lat="38.79661833" lon="-9.10510833">
        <ele>10.0</ele>
        <time>2019-05-16T09:53:01.929Z</time>
      </trkpt>
      <trkpt lat="38.79661833" lon="-9.10510833">
        <ele>10.0</ele>
        <time>2019-05-16T09:53:02.934Z</time>
      </trkpt>
      <trkpt lat="38.79661833" lon="-9.10510833">
        <ele>10.0</ele>
        <time>2019-05-16T09:53:03.929Z</time>
      </trkpt>
      <trkpt lat="38.79661833" lon="-9.10510833">
        <ele>10.0</ele>
        <time>2019-05-16T09:53:04.914Z</time>
      </trkpt>
      <trkpt lat="38.79661833" lon="-9.10510833">
        <ele>10.0</ele>
        <time>2019-05-16T09:53:05.897Z</time>
      </trkpt>
      <trkpt lat="38.79661833" lon="-9.10510833">
        <ele>10.0</ele>
        <time>2019-05-16T09:53:06.936Z</time>
      </trkpt>
      <trkpt lat="38.79661833" lon="-9.10510833">
        <ele>10.0</ele>
        <time>2019-05-16T09:53:07.929Z</time>
      </trkpt>
      <trkpt lat="38.79661833" lon="-9.10510833">
        <ele>10.0</ele>
        <time>2019-05-16T09:53:08.907Z</time>
      </trkpt>
      <trkpt lat="38.79661833" lon="-9.10510833">
        <ele>10.0</ele>
        <time>2019-05-16T09:53:09.931Z</time>
      </trkpt>
      <trkpt lat="38.79661833" lon="-9.10510833">
        <ele>10.0</ele>
        <time>2019-05-16T09:53:10.934Z</time>
      </trkpt>
      <trkpt lat="38.79661833" lon="-9.10510833">
        <ele>10.0</ele>
        <time>2019-05-16T09:53:11.929Z</time>
      </trkpt>
      <trkpt lat="38.79661833" lon="-9.10510833">
        <ele>10.0</ele>
        <time>2019-05-16T09:53:12.920Z</time>
      </trkpt>
      <trkpt lat="38.79661833" lon="-9.10510833">
        <ele>10.0</ele>
        <time>2019-05-16T09:53:13.897Z</time>
      </trkpt>
      <trkpt lat="38.79661833" lon="-9.10510833">
        <ele>10.0</ele>
        <time>2019-05-16T09:53:14.936Z</time>
      </trkpt>
      <trkpt lat="38.79661833" lon="-9.10510833">
        <ele>10.0</ele>
        <time>2019-05-16T09:53:15.929Z</time>
      </trkpt>
      <trkpt lat="38.79661833" lon="-9.10510833">
        <ele>10.0</ele>
        <time>2019-05-16T09:53:16.934Z</time>
      </trkpt>
      <trkpt lat="38.79661833" lon="-9.10510833">
        <ele>10.0</ele>
        <time>2019-05-16T09:53:17.930Z</time>
      </trkpt>
      <trkpt lat="38.79661833" lon="-9.10510833">
        <ele>10.0</ele>
        <time>2019-05-16T09:53:18.897Z</time>
      </trkpt>
      <trkpt lat="38.79661833" lon="-9.10510833">
        <ele>10.0</ele>
        <time>2019-05-16T09:53:19.929Z</time>
      </trkpt>
      <trkpt lat="38.79661833" lon="-9.10510833">
        <ele>10.0</ele>
        <time>2019-05-16T09:53:20.907Z</time>
      </trkpt>
      <trkpt lat="38.79661833" lon="-9.10510833">
        <ele>10.0</ele>
        <time>2019-05-16T09:53:21.901Z</time>
      </trkpt>
      <trkpt lat="38.79661833" lon="-9.10510833">
        <ele>10.0</ele>
        <time>2019-05-16T09:53:22.935Z</time>
      </trkpt>
      <trkpt lat="38.79661833" lon="-9.10510833">
        <ele>10.0</ele>
        <time>2019-05-16T09:53:23.930Z</time>
      </trkpt>
      <trkpt lat="38.79661833" lon="-9.10510833">
        <ele>10.0</ele>
        <time>2019-05-16T09:53:24.915Z</time>
      </trkpt>
      <trkpt lat="38.79661833" lon="-9.10510833">
        <ele>10.0</ele>
        <time>2019-05-16T09:53:25.910Z</time>
      </trkpt>
      <trkpt lat="38.79661833" lon="-9.10510833">
        <ele>10.0</ele>
        <time>2019-05-16T09:53:26.935Z</time>
      </trkpt>
      <trkpt lat="38.79661833" lon="-9.10510833">
        <ele>10.0</ele>
        <time>2019-05-16T09:53:27.929Z</time>
      </trkpt>
      <trkpt lat="38.79661833" lon="-9.10510833">
        <ele>10.0</ele>
        <time>2019-05-16T09:53:28.906Z</time>
      </trkpt>
      <trkpt lat="38.79661833" lon="-9.10510833">
        <ele>10.0</ele>
        <time>2019-05-16T09:53:29.931Z</time>
      </trkpt>
      <trkpt lat="38.79661833" lon="-9.10510833">
        <ele>10.0</ele>
        <time>2019-05-16T09:53:30.936Z</time>
      </trkpt>
      <trkpt lat="38.79661833" lon="-9.10510833">
        <ele>10.0</ele>
        <time>2019-05-16T09:53:31.929Z</time>
      </trkpt>
      <trkpt lat="38.79661833" lon="-9.10510833">
        <ele>10.0</ele>
        <time>2019-05-16T09:53:32.935Z</time>
      </trkpt>
      <trkpt lat="38.79661833" lon="-9.10510833">
        <ele>10.0</ele>
        <time>2019-05-16T09:53:33.929Z</time>
      </trkpt>
      <trkpt lat="38.79661833" lon="-9.10510833">
        <ele>10.0</ele>
        <time>2019-05-16T09:53:34.914Z</time>
      </trkpt>
      <trkpt lat="38.79661833" lon="-9.10510833">
        <ele>10.0</ele>
        <time>2019-05-16T09:53:35.897Z</time>
      </trkpt>
      <trkpt lat="38.79661833" lon="-9.10510833">
        <ele>10.0</ele>
        <time>2019-05-16T09:53:36.934Z</time>
      </trkpt>
      <trkpt lat="38.79661833" lon="-9.10510833">
        <ele>10.0</ele>
        <time>2019-05-16T09:53:37.929Z</time>
      </trkpt>
      <trkpt lat="38.79661833" lon="-9.10510833">
        <ele>10.0</ele>
        <time>2019-05-16T09:53:38.907Z</time>
      </trkpt>
      <trkpt lat="38.79661833" lon="-9.10510833">
        <ele>10.0</ele>
        <time>2019-05-16T09:53:39.931Z</time>
      </trkpt>
      <trkpt lat="38.79661833" lon="-9.10510833">
        <ele>10.0</ele>
        <time>2019-05-16T09:53:40.934Z</time>
      </trkpt>
      <trkpt lat="38.79661833" lon="-9.10510833">
        <ele>10.0</ele>
        <time>2019-05-16T09:53:41.929Z</time>
      </trkpt>
      <trkpt lat="38.79661833" lon="-9.10510833">
        <ele>10.0</ele>
        <time>2019-05-16T09:53:42.912Z</time>
      </trkpt>
      <trkpt lat="38.79661833" lon="-9.10510833">
        <ele>10.0</ele>
        <time>2019-05-16T09:53:43.897Z</time>
      </trkpt>
      <trkpt lat="38.79661833" lon="-9.10510833">
        <ele>10.0</ele>
        <time>2019-05-16T09:53:44.934Z</time>
      </trkpt>
      <trkpt lat="38.79661833" lon="-9.10510833">
        <ele>10.0</ele>
        <time>2019-05-16T09:53:45.929Z</time>
      </trkpt>
      <trkpt lat="38.79661833" lon="-9.10510833">
        <ele>10.0</ele>
        <time>2019-05-16T09:53:46.934Z</time>
      </trkpt>
      <trkpt lat="38.79661833" lon="-9.10510833">
        <ele>10.0</ele>
        <time>2019-05-16T09:53:47.927Z</time>
      </trkpt>
      <trkpt lat="38.79661833" lon="-9.10510833">
        <ele>10.0</ele>
        <time>2019-05-16T09:53:48.904Z</time>
      </trkpt>
      <trkpt lat="38.79661833" lon="-9.10510833">
        <ele>10.0</ele>
        <time>2019-05-16T09:53:49.929Z</time>
      </trkpt>
      <trkpt lat="38.79661833" lon="-9.10510833">
        <ele>10.0</ele>
        <time>2019-05-16T09:53:50.935Z</time>
      </trkpt>
      <trkpt lat="38.79661833" lon="-9.10510833">
        <ele>10.0</ele>
        <time>2019-05-16T09:53:51.929Z</time>
      </trkpt>
      <trkpt lat="38.79661833" lon="-9.10510833">
        <ele>10.0</ele>
        <time>2019-05-16T09:53:52.934Z</time>
      </trkpt>
      <trkpt lat="38.79661833" lon="-9.10510833">
        <ele>10.0</ele>
        <time>2019-05-16T09:53:53.930Z</time>
      </trkpt>
      <trkpt lat="38.79661833" lon="-9.10510833">
        <ele>10.0</ele>
        <time>2019-05-16T09:53:54.913Z</time>
      </trkpt>
      <trkpt lat="38.79661833" lon="-9.10510833">
        <ele>10.0</ele>
        <time>2019-05-16T09:53:55.936Z</time>
      </trkpt>
      <trkpt lat="38.79661833" lon="-9.10510833">
        <ele>10.0</ele>
        <time>2019-05-16T09:53:56.932Z</time>
      </trkpt>
      <trkpt lat="38.79661833" lon="-9.10510833">
        <ele>10.0</ele>
        <time>2019-05-16T09:53:57.925Z</time>
      </trkpt>
      <trkpt lat="38.79661833" lon="-9.10510833">
        <ele>10.0</ele>
        <time>2019-05-16T09:53:58.906Z</time>
      </trkpt>
      <trkpt lat="38.79661833" lon="-9.10510833">
        <ele>10.0</ele>
        <time>2019-05-16T09:53:59.931Z</time>
      </trkpt>
      <trkpt lat="38.79661833" lon="-9.10510833">
        <ele>10.0</ele>
        <time>2019-05-16T09:54:00.937Z</time>
      </trkpt>
      <trkpt lat="38.79661833" lon="-9.10510833">
        <ele>10.0</ele>
        <time>2019-05-16T09:54:01.929Z</time>
      </trkpt>
      <trkpt lat="38.79661833" lon="-9.10510833">
        <ele>10.0</ele>
        <time>2019-05-16T09:54:02.936Z</time>
      </trkpt>
      <trkpt lat="38.79661833" lon="-9.10510833">
        <ele>10.0</ele>
        <time>2019-05-16T09:54:03.929Z</time>
      </trkpt>
      <trkpt lat="38.79661833" lon="-9.10510833">
        <ele>10.0</ele>
        <time>2019-05-16T09:54:04.934Z</time>
      </trkpt>
      <trkpt lat="38.79661833" lon="-9.10510833">
        <ele>10.0</ele>
        <time>2019-05-16T09:54:05.929Z</time>
      </trkpt>
      <trkpt lat="38.79661833" lon="-9.10510833">
        <ele>10.0</ele>
        <time>2019-05-16T09:54:06.913Z</time>
      </trkpt>
      <trkpt lat="38.79661833" lon="-9.10510833">
        <ele>10.0</ele>
        <time>2019-05-16T09:54:07.922Z</time>
      </trkpt>
      <trkpt lat="38.79661833" lon="-9.10510833">
        <ele>10.0</ele>
        <time>2019-05-16T09:54:08.907Z</time>
      </trkpt>
      <trkpt lat="38.79661833" lon="-9.10510833">
        <ele>10.0</ele>
        <time>2019-05-16T09:54:09.932Z</time>
      </trkpt>
      <trkpt lat="38.79661833" lon="-9.10510833">
        <ele>10.0</ele>
        <time>2019-05-16T09:54:10.934Z</time>
      </trkpt>
      <trkpt lat="38.79661833" lon="-9.10510833">
        <ele>10.0</ele>
        <time>2019-05-16T09:54:11.929Z</time>
      </trkpt>
      <trkpt lat="38.79661833" lon="-9.10510833">
        <ele>10.0</ele>
        <time>2019-05-16T09:54:12.897Z</time>
      </trkpt>
      <trkpt lat="38.79661833" lon="-9.10510833">
        <ele>10.0</ele>
        <time>2019-05-16T09:54:13.929Z</time>
      </trkpt>
      <trkpt lat="38.79661833" lon="-9.10510833">
        <ele>10.0</ele>
        <time>2019-05-16T09:54:14.935Z</time>
      </trkpt>
      <trkpt lat="38.79661833" lon="-9.10510833">
        <ele>10.0</ele>
        <time>2019-05-16T09:54:15.929Z</time>
      </trkpt>
      <trkpt lat="38.79661833" lon="-9.10510833">
        <ele>10.0</ele>
        <time>2019-05-16T09:54:16.935Z</time>
      </trkpt>
      <trkpt lat="38.79661833" lon="-9.10510833">
        <ele>10.0</ele>
        <time>2019-05-16T09:54:17.930Z</time>
      </trkpt>
      <trkpt lat="38.79661833" lon="-9.10510833">
        <ele>10.0</ele>
        <time>2019-05-16T09:54:18.907Z</time>
      </trkpt>
      <trkpt lat="38.79661833" lon="-9.10510833">
        <ele>10.0</ele>
        <time>2019-05-16T09:54:19.931Z</time>
      </trkpt>
      <trkpt lat="38.79661833" lon="-9.10510833">
        <ele>10.0</ele>
        <time>2019-05-16T09:54:20.922Z</time>
      </trkpt>
      <trkpt lat="38.79661833" lon="-9.10510833">
        <ele>10.0</ele>
        <time>2019-05-16T09:54:21.926Z</time>
      </trkpt>
      <trkpt lat="38.79661833" lon="-9.10510833">
        <ele>10.0</ele>
        <time>2019-05-16T09:54:22.932Z</time>
      </trkpt>
      <trkpt lat="38.79661833" lon="-9.10510833">
        <ele>10.0</ele>
        <time>2019-05-16T09:54:23.898Z</time>
      </trkpt>
      <trkpt lat="38.79661833" lon="-9.10510833">
        <ele>10.0</ele>
        <time>2019-05-16T09:54:24.904Z</time>
      </trkpt>
      <trkpt lat="38.79661833" lon="-9.10510833">
        <ele>10.0</ele>
        <time>2019-05-16T09:54:25.930Z</time>
      </trkpt>
      <trkpt lat="38.79661833" lon="-9.10510833">
        <ele>10.0</ele>
        <time>2019-05-16T09:54:26.909Z</time>
      </trkpt>
      <trkpt lat="38.79661833" lon="-9.10510833">
        <ele>10.0</ele>
        <time>2019-05-16T09:54:27.933Z</time>
      </trkpt>
      <trkpt lat="38.79661833" lon="-9.10510833">
        <ele>10.0</ele>
        <time>2019-05-16T09:54:28.913Z</time>
      </trkpt>
      <trkpt lat="38.79661833" lon="-9.10510833">
        <ele>10.0</ele>
        <time>2019-05-16T09:54:29.936Z</time>
      </trkpt>
      <trkpt lat="38.79661833" lon="-9.10510833">
        <ele>10.0</ele>
        <time>2019-05-16T09:54:30.897Z</time>
      </trkpt>
      <trkpt lat="38.79661833" lon="-9.10510833">
        <ele>10.0</ele>
        <time>2019-05-16T09:54:31.930Z</time>
      </trkpt>
      <trkpt lat="38.79661833" lon="-9.10510833">
        <ele>10.0</ele>
        <time>2019-05-16T09:54:32.935Z</time>
      </trkpt>
      <trkpt lat="38.79661833" lon="-9.10510833">
        <ele>10.0</ele>
        <time>2019-05-16T09:54:33.929Z</time>
      </trkpt>
      <trkpt lat="38.79661833" lon="-9.10510833">
        <ele>10.0</ele>
        <time>2019-05-16T09:54:34.908Z</time>
      </trkpt>
      <trkpt lat="38.79661833" lon="-9.10510833">
        <ele>10.0</ele>
        <time>2019-05-16T09:54:35.929Z</time>
      </trkpt>
      <trkpt lat="38.79661833" lon="-9.10510833">
        <ele>10.0</ele>
        <time>2019-05-16T09:54:36.913Z</time>
      </trkpt>
      <trkpt lat="38.79661833" lon="-9.10510833">
        <ele>10.0</ele>
        <time>2019-05-16T09:54:37.901Z</time>
      </trkpt>
      <trkpt lat="38.79661833" lon="-9.10510833">
        <ele>10.0</ele>
        <time>2019-05-16T09:54:38.910Z</time>
      </trkpt>
      <trkpt lat="38.79661833" lon="-9.10510833">
        <ele>10.0</ele>
        <time>2019-05-16T09:54:39.934Z</time>
      </trkpt>
      <trkpt lat="38.79661833" lon="-9.10510833">
        <ele>10.0</ele>
        <time>2019-05-16T09:54:40.934Z</time>
      </trkpt>
      <trkpt lat="38.79661833" lon="-9.10510833">
        <ele>10.0</ele>
        <time>2019-05-16T09:54:41.929Z</time>
      </trkpt>
      <trkpt lat="38.79661833" lon="-9.10510833">
        <ele>10.0</ele>
        <time>2019-05-16T09:54:42.934Z</time>
      </trkpt>
      <trkpt lat="38.79661833" lon="-9.10510833">
        <ele>10.0</ele>
        <time>2019-05-16T09:54:43.935Z</time>
      </trkpt>
      <trkpt lat="38.79661833" lon="-9.10510833">
        <ele>10.0</ele>
        <time>2019-05-16T09:54:44.929Z</time>
      </trkpt>
      <trkpt lat="38.79661833" lon="-9.10510833">
        <ele>10.0</ele>
        <time>2019-05-16T09:54:45.934Z</time>
      </trkpt>
      <trkpt lat="38.79661833" lon="-9.10510833">
        <ele>10.0</ele>
        <time>2019-05-16T09:54:46.930Z</time>
      </trkpt>
      <trkpt lat="38.79661833" lon="-9.10510833">
        <ele>10.0</ele>
        <time>2019-05-16T09:54:47.901Z</time>
      </trkpt>
      <trkpt lat="38.79661833" lon="-9.10510833">
        <ele>10.0</ele>
        <time>2019-05-16T09:54:48.936Z</time>
      </trkpt>
      <trkpt lat="38.79661833" lon="-9.10510833">
        <ele>10.0</ele>
        <time>2019-05-16T09:54:49.928Z</time>
      </trkpt>
      <trkpt lat="38.79661833" lon="-9.10510833">
        <ele>10.0</ele>
        <time>2019-05-16T09:54:50.935Z</time>
      </trkpt>
      <trkpt lat="38.79661833" lon="-9.10510833">
        <ele>10.0</ele>
        <time>2019-05-16T09:54:51.929Z</time>
      </trkpt>
      <trkpt lat="38.79661833" lon="-9.10510833">
        <ele>10.0</ele>
        <time>2019-05-16T09:54:52.935Z</time>
      </trkpt>
      <trkpt lat="38.79661833" lon="-9.10510833">
        <ele>10.0</ele>
        <time>2019-05-16T09:54:53.935Z</time>
      </trkpt>
      <trkpt lat="38.79661833" lon="-9.10510833">
        <ele>10.0</ele>
        <time>2019-05-16T09:54:54.918Z</time>
      </trkpt>
      <trkpt lat="38.79661833" lon="-9.10510833">
        <ele>10.0</ele>
        <time>2019-05-16T09:54:55.910Z</time>
      </trkpt>
      <trkpt lat="38.79661833" lon="-9.10510833">
        <ele>10.0</ele>
        <time>2019-05-16T09:54:56.935Z</time>
      </trkpt>
      <trkpt lat="38.79661833" lon="-9.10510833">
        <ele>10.0</ele>
        <time>2019-05-16T09:54:57.929Z</time>
      </trkpt>
      <trkpt lat="38.79661833" lon="-9.10510833">
        <ele>10.0</ele>
        <time>2019-05-16T09:54:58.914Z</time>
      </trkpt>
      <trkpt lat="38.79661833" lon="-9.10510833">
        <ele>10.0</ele>
        <time>2019-05-16T09:54:59.898Z</time>
      </trkpt>
      <trkpt lat="38.79661833" lon="-9.10510833">
        <ele>10.0</ele>
        <time>2019-05-16T09:55:00.930Z</time>
      </trkpt>
      <trkpt lat="38.79661833" lon="-9.10510833">
        <ele>10.0</ele>
        <time>2019-05-16T09:55:01.934Z</time>
      </trkpt>
      <trkpt lat="38.79661833" lon="-9.10510833">
        <ele>10.0</ele>
        <time>2019-05-16T09:55:02.935Z</time>
      </trkpt>
      <trkpt lat="38.79661833" lon="-9.10510833">
        <ele>10.0</ele>
        <time>2019-05-16T09:55:03.930Z</time>
      </trkpt>
      <trkpt lat="38.79661833" lon="-9.10510833">
        <ele>10.0</ele>
        <time>2019-05-16T09:55:04.935Z</time>
      </trkpt>
      <trkpt lat="38.79661833" lon="-9.10510833">
        <ele>10.0</ele>
        <time>2019-05-16T09:55:05.930Z</time>
      </trkpt>
      <trkpt lat="38.79661833" lon="-9.10510833">
        <ele>10.0</ele>
        <time>2019-05-16T09:55:06.913Z</time>
      </trkpt>
      <trkpt lat="38.79661833" lon="-9.10510833">
        <ele>10.0</ele>
        <time>2019-05-16T09:55:07.901Z</time>
      </trkpt>
      <trkpt lat="38.79661833" lon="-9.10510833">
        <ele>10.0</ele>
        <time>2019-05-16T09:55:08.934Z</time>
      </trkpt>
      <trkpt lat="38.79661833" lon="-9.10510833">
        <ele>10.0</ele>
        <time>2019-05-16T09:55:09.935Z</time>
      </trkpt>
      <trkpt lat="38.79661833" lon="-9.10510833">
        <ele>10.0</ele>
        <time>2019-05-16T09:55:10.929Z</time>
      </trkpt>
      <trkpt lat="38.79661833" lon="-9.10510833">
        <ele>10.0</ele>
        <time>2019-05-16T09:55:11.934Z</time>
      </trkpt>
      <trkpt lat="38.79661833" lon="-9.10510833">
        <ele>10.0</ele>
        <time>2019-05-16T09:55:12.897Z</time>
      </trkpt>
      <trkpt lat="38.79661833" lon="-9.10510833">
        <ele>10.0</ele>
        <time>2019-05-16T09:55:13.929Z</time>
      </trkpt>
      <trkpt lat="38.79661833" lon="-9.10510833">
        <ele>10.0</ele>
        <time>2019-05-16T09:55:14.915Z</time>
      </trkpt>
      <trkpt lat="38.79661833" lon="-9.10510833">
        <ele>10.0</ele>
        <time>2019-05-16T09:55:15.897Z</time>
      </trkpt>
      <trkpt lat="38.79661833" lon="-9.10510833">
        <ele>10.0</ele>
        <time>2019-05-16T09:55:16.934Z</time>
      </trkpt>
      <trkpt lat="38.79661833" lon="-9.10510833">
        <ele>10.0</ele>
        <time>2019-05-16T09:55:17.930Z</time>
      </trkpt>
      <trkpt lat="38.79661833" lon="-9.10510833">
        <ele>10.0</ele>
        <time>2019-05-16T09:55:18.916Z</time>
      </trkpt>
      <trkpt lat="38.79661833" lon="-9.10510833">
        <ele>10.0</ele>
        <time>2019-05-16T09:55:19.901Z</time>
      </trkpt>
      <trkpt lat="38.79661833" lon="-9.10510833">
        <ele>10.0</ele>
        <time>2019-05-16T09:55:20.902Z</time>
      </trkpt>
      <trkpt lat="38.79661833" lon="-9.10510833">
        <ele>10.0</ele>
        <time>2019-05-16T09:55:21.901Z</time>
      </trkpt>
      <trkpt lat="38.79661833" lon="-9.10510833">
        <ele>10.0</ele>
        <time>2019-05-16T09:55:22.907Z</time>
      </trkpt>
      <trkpt lat="38.79661833" lon="-9.10510833">
        <ele>10.0</ele>
        <time>2019-05-16T09:55:23.913Z</time>
      </trkpt>
      <trkpt lat="38.79661833" lon="-9.10510833">
        <ele>10.0</ele>
        <time>2019-05-16T09:55:24.897Z</time>
      </trkpt>
      <trkpt lat="38.79661833" lon="-9.10510833">
        <ele>10.0</ele>
        <time>2019-05-16T09:55:25.905Z</time>
      </trkpt>
      <trkpt lat="38.79661833" lon="-9.10510833">
        <ele>10.0</ele>
        <time>2019-05-16T09:55:26.936Z</time>
      </trkpt>
      <trkpt lat="38.79661833" lon="-9.10510833">
        <ele>10.0</ele>
        <time>2019-05-16T09:55:27.929Z</time>
      </trkpt>
      <trkpt lat="38.79661833" lon="-9.10510833">
        <ele>10.0</ele>
        <time>2019-05-16T09:55:28.914Z</time>
      </trkpt>
      <trkpt lat="38.79661833" lon="-9.10510833">
        <ele>10.0</ele>
        <time>2019-05-16T09:55:29.898Z</time>
      </trkpt>
      <trkpt lat="38.79661833" lon="-9.10510833">
        <ele>10.0</ele>
        <time>2019-05-16T09:55:30.897Z</time>
      </trkpt>
      <trkpt lat="38.79661833" lon="-9.10510833">
        <ele>10.0</ele>
        <time>2019-05-16T09:55:31.929Z</time>
      </trkpt>
      <trkpt lat="38.79661833" lon="-9.10510833">
        <ele>10.0</ele>
        <time>2019-05-16T09:55:32.932Z</time>
      </trkpt>
      <trkpt lat="38.79661833" lon="-9.10510833">
        <ele>10.0</ele>
        <time>2019-05-16T09:55:33.934Z</time>
      </trkpt>
      <trkpt lat="38.79661833" lon="-9.10510833">
        <ele>10.0</ele>
        <time>2019-05-16T09:55:34.929Z</time>
      </trkpt>
      <trkpt lat="38.79661833" lon="-9.10510833">
        <ele>10.0</ele>
        <time>2019-05-16T09:55:35.934Z</time>
      </trkpt>
      <trkpt lat="38.79661833" lon="-9.10510833">
        <ele>10.0</ele>
        <time>2019-05-16T09:55:36.936Z</time>
      </trkpt>
      <trkpt lat="38.79661833" lon="-9.10510833">
        <ele>10.0</ele>
        <time>2019-05-16T09:55:37.929Z</time>
      </trkpt>
      <trkpt lat="38.79661833" lon="-9.10510833">
        <ele>10.0</ele>
        <time>2019-05-16T09:55:38.906Z</time>
      </trkpt>
      <trkpt lat="38.79661833" lon="-9.10510833">
        <ele>10.0</ele>
        <time>2019-05-16T09:55:39.935Z</time>
      </trkpt>
      <trkpt lat="38.79661833" lon="-9.10510833">
        <ele>10.0</ele>
        <time>2019-05-16T09:55:40.930Z</time>
      </trkpt>
      <trkpt lat="38.79661833" lon="-9.10510833">
        <ele>10.0</ele>
        <time>2019-05-16T09:55:41.936Z</time>
      </trkpt>
      <trkpt lat="38.79661833" lon="-9.10510833">
        <ele>10.0</ele>
        <time>2019-05-16T09:55:42.898Z</time>
      </trkpt>
      <trkpt lat="38.79661833" lon="-9.10510833">
        <ele>10.0</ele>
        <time>2019-05-16T09:55:43.929Z</time>
      </trkpt>
      <trkpt lat="38.79661833" lon="-9.10510833">
        <ele>10.0</ele>
        <time>2019-05-16T09:55:44.935Z</time>
      </trkpt>
      <trkpt lat="38.79661833" lon="-9.10510833">
        <ele>10.0</ele>
        <time>2019-05-16T09:55:45.929Z</time>
      </trkpt>
      <trkpt lat="38.79661833" lon="-9.10510833">
        <ele>10.0</ele>
        <time>2019-05-16T09:55:46.934Z</time>
      </trkpt>
      <trkpt lat="38.79661833" lon="-9.10510833">
        <ele>10.0</ele>
        <time>2019-05-16T09:55:47.930Z</time>
      </trkpt>
      <trkpt lat="38.79661833" lon="-9.10510833">
        <ele>10.0</ele>
        <time>2019-05-16T09:55:48.913Z</time>
      </trkpt>
      <trkpt lat="38.79661833" lon="-9.10510833">
        <ele>10.0</ele>
        <time>2019-05-16T09:55:49.936Z</time>
      </trkpt>
      <trkpt lat="38.79661833" lon="-9.10510833">
        <ele>10.0</ele>
        <time>2019-05-16T09:55:50.935Z</time>
      </trkpt>
      <trkpt lat="38.79661833" lon="-9.10510833">
        <ele>10.0</ele>
        <time>2019-05-16T09:55:51.930Z</time>
      </trkpt>
      <trkpt lat="38.79661833" lon="-9.10510833">
        <ele>10.0</ele>
        <time>2019-05-16T09:55:52.913Z</time>
      </trkpt>
      <trkpt lat="38.79661833" lon="-9.10510833">
        <ele>10.0</ele>
        <time>2019-05-16T09:55:53.932Z</time>
      </trkpt>
      <trkpt lat="38.79661833" lon="-9.10510833">
        <ele>10.0</ele>
        <time>2019-05-16T09:55:54.917Z</time>
      </trkpt>
      <trkpt lat="38.79661833" lon="-9.10510833">
        <ele>10.0</ele>
        <time>2019-05-16T09:55:55.901Z</time>
      </trkpt>
      <trkpt lat="38.79661833" lon="-9.10510833">
        <ele>10.0</ele>
        <time>2019-05-16T09:55:56.935Z</time>
      </trkpt>
      <trkpt lat="38.79661833" lon="-9.10510833">
        <ele>10.0</ele>
        <time>2019-05-16T09:55:57.930Z</time>
      </trkpt>
      <trkpt lat="38.79661833" lon="-9.10510833">
        <ele>10.0</ele>
        <time>2019-05-16T09:55:58.901Z</time>
      </trkpt>
      <trkpt lat="38.79661833" lon="-9.10510833">
        <ele>10.0</ele>
        <time>2019-05-16T09:55:59.935Z</time>
      </trkpt>
      <trkpt lat="38.79661833" lon="-9.10510833">
        <ele>10.0</ele>
        <time>2019-05-16T09:56:00.897Z</time>
      </trkpt>
      <trkpt lat="38.79661833" lon="-9.10510833">
        <ele>10.0</ele>
        <time>2019-05-16T09:56:01.930Z</time>
      </trkpt>
      <trkpt lat="38.79661833" lon="-9.10510833">
        <ele>10.0</ele>
        <time>2019-05-16T09:56:02.935Z</time>
      </trkpt>
      <trkpt lat="38.79661833" lon="-9.10510833">
        <ele>10.0</ele>
        <time>2019-05-16T09:56:03.929Z</time>
      </trkpt>
      <trkpt lat="38.79661833" lon="-9.10510833">
        <ele>10.0</ele>
        <time>2019-05-16T09:56:04.912Z</time>
      </trkpt>
      <trkpt lat="38.79661833" lon="-9.10510833">
        <ele>10.0</ele>
        <time>2019-05-16T09:56:05.935Z</time>
      </trkpt>
      <trkpt lat="38.79661833" lon="-9.10510833">
        <ele>10.0</ele>
        <time>2019-05-16T09:56:06.934Z</time>
      </trkpt>
      <trkpt lat="38.79661833" lon="-9.10510833">
        <ele>10.0</ele>
        <time>2019-05-16T09:56:07.921Z</time>
      </trkpt>
      <trkpt lat="38.79661833" lon="-9.10510833">
        <ele>10.0</ele>
        <time>2019-05-16T09:56:08.933Z</time>
      </trkpt>
      <trkpt lat="38.79661833" lon="-9.10510833">
        <ele>10.0</ele>
        <time>2019-05-16T09:56:09.898Z</time>
      </trkpt>
      <trkpt lat="38.79661833" lon="-9.10510833">
        <ele>10.0</ele>
        <time>2019-05-16T09:56:10.903Z</time>
      </trkpt>
      <trkpt lat="38.79661833" lon="-9.10510833">
        <ele>10.0</ele>
        <time>2019-05-16T09:56:11.935Z</time>
      </trkpt>
      <trkpt lat="38.79661833" lon="-9.10510833">
        <ele>10.0</ele>
        <time>2019-05-16T09:56:12.901Z</time>
      </trkpt>
      <trkpt lat="38.79661833" lon="-9.10510833">
        <ele>10.0</ele>
        <time>2019-05-16T09:56:13.933Z</time>
      </trkpt>
      <trkpt lat="38.79661833" lon="-9.10510833">
        <ele>10.0</ele>
        <time>2019-05-16T09:56:14.934Z</time>
      </trkpt>
      <trkpt lat="38.79661833" lon="-9.10510833">
        <ele>10.0</ele>
        <time>2019-05-16T09:56:15.936Z</time>
      </trkpt>
      <trkpt lat="38.79661833" lon="-9.10510833">
        <ele>10.0</ele>
        <time>2019-05-16T09:56:16.935Z</time>
      </trkpt>
      <trkpt lat="38.79661833" lon="-9.10510833">
        <ele>10.0</ele>
        <time>2019-05-16T09:56:17.933Z</time>
      </trkpt>
      <trkpt lat="38.79661833" lon="-9.10510833">
        <ele>10.0</ele>
        <time>2019-05-16T09:56:18.937Z</time>
      </trkpt>
      <trkpt lat="38.79661833" lon="-9.10510833">
        <ele>10.0</ele>
        <time>2019-05-16T09:56:19.915Z</time>
      </trkpt>
      <trkpt lat="38.79661833" lon="-9.10510833">
        <ele>10.0</ele>
        <time>2019-05-16T09:56:20.918Z</time>
      </trkpt>
      <trkpt lat="38.79661833" lon="-9.10510833">
        <ele>10.0</ele>
        <time>2019-05-16T09:56:21.918Z</time>
      </trkpt>
      <trkpt lat="38.79661833" lon="-9.10510833">
        <ele>10.0</ele>
        <time>2019-05-16T09:56:22.924Z</time>
      </trkpt>
      <trkpt lat="38.79661833" lon="-9.10510833">
        <ele>10.0</ele>
        <time>2019-05-16T09:56:23.940Z</time>
      </trkpt>
      <trkpt lat="38.79661833" lon="-9.10510833">
        <ele>10.0</ele>
        <time>2019-05-16T09:56:24.935Z</time>
      </trkpt>
      <trkpt lat="38.79661833" lon="-9.10510833">
        <ele>10.0</ele>
        <time>2019-05-16T09:56:25.935Z</time>
      </trkpt>
      <trkpt lat="38.79661833" lon="-9.10510833">
        <ele>10.0</ele>
        <time>2019-05-16T09:56:26.930Z</time>
      </trkpt>
      <trkpt lat="38.79661833" lon="-9.10510833">
        <ele>10.0</ele>
        <time>2019-05-16T09:56:27.908Z</time>
      </trkpt>
      <trkpt lat="38.79661833" lon="-9.10510833">
        <ele>10.0</ele>
        <time>2019-05-16T09:56:28.930Z</time>
      </trkpt>
      <trkpt lat="38.79661833" lon="-9.10510833">
        <ele>10.0</ele>
        <time>2019-05-16T09:56:29.935Z</time>
      </trkpt>
      <trkpt lat="38.79662" lon="-9.10512667">
        <ele>1.0</ele>
        <time>2019-05-16T09:56:30.897Z</time>
      </trkpt>
      <trkpt lat="38.79662" lon="-9.10512667">
        <ele>1.0</ele>
        <time>2019-05-16T09:56:31.930Z</time>
      </trkpt>
      <trkpt lat="38.79660333" lon="-9.10510333">
        <ele>1.0</ele>
        <time>2019-05-16T09:56:32.935Z</time>
      </trkpt>
      <trkpt lat="38.79660333" lon="-9.10510333">
        <ele>1.0</ele>
        <time>2019-05-16T09:56:33.930Z</time>
      </trkpt>
      <trkpt lat="38.79659333" lon="-9.10507833">
        <ele>1.0</ele>
        <time>2019-05-16T09:56:34.935Z</time>
      </trkpt>
      <trkpt lat="38.79659333" lon="-9.10507833">
        <ele>1.0</ele>
        <time>2019-05-16T09:56:35.930Z</time>
      </trkpt>
      <trkpt lat="38.79659167" lon="-9.105065">
        <ele>1.0</ele>
        <time>2019-05-16T09:56:36.997Z</time>
      </trkpt>
      <trkpt lat="38.79659167" lon="-9.105065">
        <ele>1.0</ele>
        <time>2019-05-16T09:56:37.932Z</time>
      </trkpt>
      <trkpt lat="38.79659167" lon="-9.10506">
        <ele>1.0</ele>
        <time>2019-05-16T09:56:38.911Z</time>
      </trkpt>
      <trkpt lat="38.79659167" lon="-9.10506">
        <ele>1.0</ele>
        <time>2019-05-16T09:56:39.925Z</time>
      </trkpt>
      <trkpt lat="38.796575" lon="-9.10505">
        <ele>1.0</ele>
        <time>2019-05-16T09:56:40.905Z</time>
      </trkpt>
      <trkpt lat="38.796575" lon="-9.10505">
        <ele>1.0</ele>
        <time>2019-05-16T09:56:41.898Z</time>
      </trkpt>
      <trkpt lat="38.79655667" lon="-9.105045">
        <ele>1.0</ele>
        <time>2019-05-16T09:56:42.905Z</time>
      </trkpt>
      <trkpt lat="38.79655667" lon="-9.105045">
        <ele>1.0</ele>
        <time>2019-05-16T09:56:43.931Z</time>
      </trkpt>
      <trkpt lat="38.79653" lon="-9.105045">
        <ele>1.0</ele>
        <time>2019-05-16T09:56:44.901Z</time>
      </trkpt>
      <trkpt lat="38.79653" lon="-9.105045">
        <ele>1.0</ele>
        <time>2019-05-16T09:56:45.931Z</time>
      </trkpt>
      <trkpt lat="38.79650333" lon="-9.10504833">
        <ele>1.0</ele>
        <time>2019-05-16T09:56:46.901Z</time>
      </trkpt>
      <trkpt lat="38.79650333" lon="-9.10504833">
        <ele>1.0</ele>
        <time>2019-05-16T09:56:47.902Z</time>
      </trkpt>
      <trkpt lat="38.796475" lon="-9.10505167">
        <ele>1.0</ele>
        <time>2019-05-16T09:56:48.914Z</time>
      </trkpt>
      <trkpt lat="38.796475" lon="-9.10505167">
        <ele>1.0</ele>
        <time>2019-05-16T09:56:49.922Z</time>
      </trkpt>
      <trkpt lat="38.79644667" lon="-9.10505667">
        <ele>1.0</ele>
        <time>2019-05-16T09:56:50.931Z</time>
      </trkpt>
      <trkpt lat="38.79644667" lon="-9.10505667">
        <ele>1.0</ele>
        <time>2019-05-16T09:56:51.922Z</time>
      </trkpt>
      <trkpt lat="38.796415" lon="-9.10505667">
        <ele>1.0</ele>
        <time>2019-05-16T09:56:52.901Z</time>
      </trkpt>
      <trkpt lat="38.796415" lon="-9.10505667">
        <ele>1.0</ele>
        <time>2019-05-16T09:56:53.923Z</time>
      </trkpt>
      <trkpt lat="38.79638667" lon="-9.10506167">
        <ele>1.0</ele>
        <time>2019-05-16T09:56:54.936Z</time>
      </trkpt>
      <trkpt lat="38.79638667" lon="-9.10506167">
        <ele>1.0</ele>
        <time>2019-05-16T09:56:55.922Z</time>
      </trkpt>
      <trkpt lat="38.79635667" lon="-9.10506667">
        <ele>1.0</ele>
        <time>2019-05-16T09:56:56.930Z</time>
      </trkpt>
      <trkpt lat="38.79635667" lon="-9.10506667">
        <ele>1.0</ele>
        <time>2019-05-16T09:56:57.922Z</time>
      </trkpt>
      <trkpt lat="38.79632833" lon="-9.10507">
        <ele>1.0</ele>
        <time>2019-05-16T09:56:58.933Z</time>
      </trkpt>
      <trkpt lat="38.79632833" lon="-9.10507">
        <ele>1.0</ele>
        <time>2019-05-16T09:56:59.907Z</time>
      </trkpt>
      <trkpt lat="38.79630167" lon="-9.10507167">
        <ele>1.0</ele>
        <time>2019-05-16T09:57:00.921Z</time>
      </trkpt>
      <trkpt lat="38.79630167" lon="-9.10507167">
        <ele>1.0</ele>
        <time>2019-05-16T09:57:01.907Z</time>
      </trkpt>
      <trkpt lat="38.796275" lon="-9.10507667">
        <ele>1.0</ele>
        <time>2019-05-16T09:57:02.917Z</time>
      </trkpt>
      <trkpt lat="38.796265" lon="-9.10507667">
        <ele>2.0</ele>
        <time>2019-05-16T09:57:03.921Z</time>
      </trkpt>
      <trkpt lat="38.796265" lon="-9.10507667">
        <ele>2.0</ele>
        <time>2019-05-16T09:57:04.931Z</time>
      </trkpt>
      <trkpt lat="38.79624333" lon="-9.10507833">
        <ele>2.0</ele>
        <time>2019-05-16T09:57:05.915Z</time>
      </trkpt>
      <trkpt lat="38.79623167" lon="-9.10508">
        <ele>2.0</ele>
        <time>2019-05-16T09:57:06.934Z</time>
      </trkpt>
      <trkpt lat="38.79623167" lon="-9.10508">
        <ele>2.0</ele>
        <time>2019-05-16T09:57:07.932Z</time>
      </trkpt>
      <trkpt lat="38.79621833" lon="-9.10508667">
        <ele>2.0</ele>
        <time>2019-05-16T09:57:08.902Z</time>
      </trkpt>
      <trkpt lat="38.79621167" lon="-9.10508333">
        <ele>2.0</ele>
        <time>2019-05-16T09:57:09.910Z</time>
      </trkpt>
      <trkpt lat="38.79621167" lon="-9.10508333">
        <ele>2.0</ele>
        <time>2019-05-16T09:57:10.934Z</time>
      </trkpt>
      <trkpt lat="38.79620167" lon="-9.10507167">
        <ele>3.0</ele>
        <time>2019-05-16T09:57:11.902Z</time>
      </trkpt>
      <trkpt lat="38.79620333" lon="-9.10506333">
        <ele>3.0</ele>
        <time>2019-05-16T09:57:12.943Z</time>
      </trkpt>
      <trkpt lat="38.79620333" lon="-9.10506333">
        <ele>3.0</ele>
        <time>2019-05-16T09:57:13.935Z</time>
      </trkpt>
      <trkpt lat="38.79619833" lon="-9.105035">
        <ele>3.0</ele>
        <time>2019-05-16T09:57:14.904Z</time>
      </trkpt>
      <trkpt lat="38.79619833" lon="-9.105035">
        <ele>3.0</ele>
        <time>2019-05-16T09:57:15.930Z</time>
      </trkpt>
      <trkpt lat="38.79618833" lon="-9.105">
        <ele>3.0</ele>
        <time>2019-05-16T09:57:16.902Z</time>
      </trkpt>
      <trkpt lat="38.79618833" lon="-9.105">
        <ele>3.0</ele>
        <time>2019-05-16T09:57:17.925Z</time>
      </trkpt>
      <trkpt lat="38.79617833" lon="-9.10497167">
        <ele>3.0</ele>
        <time>2019-05-16T09:57:18.937Z</time>
      </trkpt>
      <trkpt lat="38.79617833" lon="-9.10497167">
        <ele>3.0</ele>
        <time>2019-05-16T09:57:19.921Z</time>
      </trkpt>
      <trkpt lat="38.79616" lon="-9.10494667">
        <ele>4.0</ele>
        <time>2019-05-16T09:57:20.904Z</time>
      </trkpt>
      <trkpt lat="38.79616" lon="-9.10494667">
        <ele>4.0</ele>
        <time>2019-05-16T09:57:21.902Z</time>
      </trkpt>
      <trkpt lat="38.79614833" lon="-9.10492167">
        <ele>4.0</ele>
        <time>2019-05-16T09:57:22.931Z</time>
      </trkpt>
      <trkpt lat="38.79614833" lon="-9.10492167">
        <ele>4.0</ele>
        <time>2019-05-16T09:57:23.900Z</time>
      </trkpt>
      <trkpt lat="38.79613833" lon="-9.10490333">
        <ele>4.0</ele>
        <time>2019-05-16T09:57:24.921Z</time>
      </trkpt>
      <trkpt lat="38.79613833" lon="-9.10490333">
        <ele>4.0</ele>
        <time>2019-05-16T09:57:25.899Z</time>
      </trkpt>
      <trkpt lat="38.79612833" lon="-9.10487833">
        <ele>4.0</ele>
        <time>2019-05-16T09:57:26.910Z</time>
      </trkpt>
      <trkpt lat="38.79612833" lon="-9.10487833">
        <ele>4.0</ele>
        <time>2019-05-16T09:57:27.936Z</time>
      </trkpt>
      <trkpt lat="38.79611667" lon="-9.10484667">
        <ele>4.0</ele>
        <time>2019-05-16T09:57:28.913Z</time>
      </trkpt>
      <trkpt lat="38.79611667" lon="-9.10484667">
        <ele>4.0</ele>
        <time>2019-05-16T09:57:29.909Z</time>
      </trkpt>
      <trkpt lat="38.79611" lon="-9.104825">
        <ele>4.0</ele>
        <time>2019-05-16T09:57:30.918Z</time>
      </trkpt>
      <trkpt lat="38.79611" lon="-9.104825">
        <ele>4.0</ele>
        <time>2019-05-16T09:57:31.907Z</time>
      </trkpt>
      <trkpt lat="38.79610667" lon="-9.10480833">
        <ele>4.0</ele>
        <time>2019-05-16T09:57:32.931Z</time>
      </trkpt>
      <trkpt lat="38.79610667" lon="-9.10480833">
        <ele>4.0</ele>
        <time>2019-05-16T09:57:33.924Z</time>
      </trkpt>
      <trkpt lat="38.79610833" lon="-9.10479833">
        <ele>3.0</ele>
        <time>2019-05-16T09:57:34.902Z</time>
      </trkpt>
      <trkpt lat="38.79610833" lon="-9.10479833">
        <ele>3.0</ele>
        <time>2019-05-16T09:57:35.934Z</time>
      </trkpt>
      <trkpt lat="38.79611333" lon="-9.10477833">
        <ele>3.0</ele>
        <time>2019-05-16T09:57:36.902Z</time>
      </trkpt>
      <trkpt lat="38.79611333" lon="-9.10477833">
        <ele>3.0</ele>
        <time>2019-05-16T09:57:37.926Z</time>
      </trkpt>
      <trkpt lat="38.79612" lon="-9.10474667">
        <ele>3.0</ele>
        <time>2019-05-16T09:57:38.907Z</time>
      </trkpt>
      <trkpt lat="38.79612" lon="-9.10474667">
        <ele>3.0</ele>
        <time>2019-05-16T09:57:39.929Z</time>
      </trkpt>
      <trkpt lat="38.79612833" lon="-9.10472">
        <ele>3.0</ele>
        <time>2019-05-16T09:57:40.936Z</time>
      </trkpt>
      <trkpt lat="38.79613167" lon="-9.10470667">
        <ele>3.0</ele>
        <time>2019-05-16T09:57:41.914Z</time>
      </trkpt>
      <trkpt lat="38.79613833" lon="-9.10469333">
        <ele>3.0</ele>
        <time>2019-05-16T09:57:42.902Z</time>
      </trkpt>
      <trkpt lat="38.79613833" lon="-9.10469333">
        <ele>3.0</ele>
        <time>2019-05-16T09:57:43.906Z</time>
      </trkpt>
      <trkpt lat="38.796155" lon="-9.104665">
        <ele>2.0</ele>
        <time>2019-05-16T09:57:44.911Z</time>
      </trkpt>
      <trkpt lat="38.796165" lon="-9.10465">
        <ele>2.0</ele>
        <time>2019-05-16T09:57:45.933Z</time>
      </trkpt>
      <trkpt lat="38.796165" lon="-9.10465">
        <ele>2.0</ele>
        <time>2019-05-16T09:57:46.934Z</time>
      </trkpt>
      <trkpt lat="38.79619333" lon="-9.10463833">
        <ele>1.0</ele>
        <time>2019-05-16T09:57:47.905Z</time>
      </trkpt>
      <trkpt lat="38.79620667" lon="-9.10464">
        <ele>1.0</ele>
        <time>2019-05-16T09:57:48.910Z</time>
      </trkpt>
      <trkpt lat="38.79620667" lon="-9.10464">
        <ele>1.0</ele>
        <time>2019-05-16T09:57:49.897Z</time>
      </trkpt>
      <trkpt lat="38.79623" lon="-9.10464">
        <ele>2.0</ele>
        <time>2019-05-16T09:57:50.908Z</time>
      </trkpt>
      <trkpt lat="38.79623" lon="-9.10464">
        <ele>2.0</ele>
        <time>2019-05-16T09:57:51.912Z</time>
      </trkpt>
      <trkpt lat="38.79624833" lon="-9.104635">
        <ele>3.0</ele>
        <time>2019-05-16T09:57:52.926Z</time>
      </trkpt>
      <trkpt lat="38.79624833" lon="-9.104635">
        <ele>3.0</ele>
        <time>2019-05-16T09:57:53.915Z</time>
      </trkpt>
      <trkpt lat="38.79626667" lon="-9.10463">
        <ele>3.0</ele>
        <time>2019-05-16T09:57:54.930Z</time>
      </trkpt>
      <trkpt lat="38.79626667" lon="-9.10463">
        <ele>3.0</ele>
        <time>2019-05-16T09:57:55.926Z</time>
      </trkpt>
      <trkpt lat="38.79628333" lon="-9.10462333">
        <ele>4.0</ele>
        <time>2019-05-16T09:57:56.937Z</time>
      </trkpt>
      <trkpt lat="38.79628333" lon="-9.10462333">
        <ele>4.0</ele>
        <time>2019-05-16T09:57:57.910Z</time>
      </trkpt>
      <trkpt lat="38.796295" lon="-9.10461167">
        <ele>4.0</ele>
        <time>2019-05-16T09:57:58.928Z</time>
      </trkpt>
      <trkpt lat="38.796295" lon="-9.10461167">
        <ele>4.0</ele>
        <time>2019-05-16T09:57:59.922Z</time>
      </trkpt>
      <trkpt lat="38.79630833" lon="-9.104605">
        <ele>5.0</ele>
        <time>2019-05-16T09:58:00.939Z</time>
      </trkpt>
      <trkpt lat="38.79630833" lon="-9.104605">
        <ele>5.0</ele>
        <time>2019-05-16T09:58:01.933Z</time>
      </trkpt>
      <trkpt lat="38.79632333" lon="-9.1046">
        <ele>5.0</ele>
        <time>2019-05-16T09:58:02.902Z</time>
      </trkpt>
      <trkpt lat="38.79632333" lon="-9.1046">
        <ele>5.0</ele>
        <time>2019-05-16T09:58:03.928Z</time>
      </trkpt>
      <trkpt lat="38.79634" lon="-9.10459667">
        <ele>5.0</ele>
        <time>2019-05-16T09:58:04.916Z</time>
      </trkpt>
      <trkpt lat="38.79634" lon="-9.10459667">
        <ele>5.0</ele>
        <time>2019-05-16T09:58:05.907Z</time>
      </trkpt>
      <trkpt lat="38.79635833" lon="-9.10459">
        <ele>5.0</ele>
        <time>2019-05-16T09:58:06.914Z</time>
      </trkpt>
      <trkpt lat="38.79635833" lon="-9.10459">
        <ele>5.0</ele>
        <time>2019-05-16T09:58:07.926Z</time>
      </trkpt>
      <trkpt lat="38.79638333" lon="-9.10457833">
        <ele>5.0</ele>
        <time>2019-05-16T09:58:08.899Z</time>
      </trkpt>
      <trkpt lat="38.79638333" lon="-9.10457833">
        <ele>5.0</ele>
        <time>2019-05-16T09:58:09.901Z</time>
      </trkpt>
      <trkpt lat="38.79642167" lon="-9.10457167">
        <ele>5.0</ele>
        <time>2019-05-16T09:58:10.910Z</time>
      </trkpt>
      <trkpt lat="38.79642167" lon="-9.10457167">
        <ele>5.0</ele>
        <time>2019-05-16T09:58:11.897Z</time>
      </trkpt>
      <trkpt lat="38.796455" lon="-9.104575">
        <ele>5.0</ele>
        <time>2019-05-16T09:58:12.911Z</time>
      </trkpt>
      <trkpt lat="38.79647" lon="-9.10457667">
        <ele>5.0</ele>
        <time>2019-05-16T09:58:13.925Z</time>
      </trkpt>
      <trkpt lat="38.796485" lon="-9.10457833">
        <ele>6.0</ele>
        <time>2019-05-16T09:58:14.934Z</time>
      </trkpt>
      <trkpt lat="38.796485" lon="-9.10457833">
        <ele>6.0</ele>
        <time>2019-05-16T09:58:15.911Z</time>
      </trkpt>
      <trkpt lat="38.79651" lon="-9.10457667">
        <ele>6.0</ele>
        <time>2019-05-16T09:58:16.919Z</time>
      </trkpt>
      <trkpt lat="38.79651" lon="-9.10457667">
        <ele>6.0</ele>
        <time>2019-05-16T09:58:17.931Z</time>
      </trkpt>
      <trkpt lat="38.796525" lon="-9.10457667">
        <ele>6.0</ele>
        <time>2019-05-16T09:58:18.901Z</time>
      </trkpt>
      <trkpt lat="38.796525" lon="-9.10457667">
        <ele>6.0</ele>
        <time>2019-05-16T09:58:19.924Z</time>
      </trkpt>
      <trkpt lat="38.796535" lon="-9.10457833">
        <ele>6.0</ele>
        <time>2019-05-16T09:58:20.930Z</time>
      </trkpt>
      <trkpt lat="38.796535" lon="-9.10457833">
        <ele>6.0</ele>
        <time>2019-05-16T09:58:21.900Z</time>
      </trkpt>
      <trkpt lat="38.79653833" lon="-9.10457667">
        <ele>7.0</ele>
        <time>2019-05-16T09:58:22.909Z</time>
      </trkpt>
      <trkpt lat="38.79653833" lon="-9.10457667">
        <ele>7.0</ele>
        <time>2019-05-16T09:58:23.910Z</time>
      </trkpt>
      <trkpt lat="38.79653833" lon="-9.10457667">
        <ele>7.0</ele>
        <time>2019-05-16T09:58:24.917Z</time>
      </trkpt>
      <trkpt lat="38.79653833" lon="-9.10457667">
        <ele>7.0</ele>
        <time>2019-05-16T09:58:25.922Z</time>
      </trkpt>
      <trkpt lat="38.79653833" lon="-9.10457667">
        <ele>7.0</ele>
        <time>2019-05-16T09:58:26.930Z</time>
      </trkpt>
      <trkpt lat="38.79653833" lon="-9.10457667">
        <ele>7.0</ele>
        <time>2019-05-16T09:58:27.936Z</time>
      </trkpt>
      <trkpt lat="38.79653833" lon="-9.10457667">
        <ele>7.0</ele>
        <time>2019-05-16T09:58:28.902Z</time>
      </trkpt>
      <trkpt lat="38.79653833" lon="-9.10457667">
        <ele>7.0</ele>
        <time>2019-05-16T09:58:29.907Z</time>
      </trkpt>
      <trkpt lat="38.79653833" lon="-9.10457667">
        <ele>7.0</ele>
        <time>2019-05-16T09:58:30.897Z</time>
      </trkpt>
      <trkpt lat="38.79653833" lon="-9.10457667">
        <ele>7.0</ele>
        <time>2019-05-16T09:58:31.930Z</time>
      </trkpt>
      <trkpt lat="38.79654667" lon="-9.10458">
        <ele>7.0</ele>
        <time>2019-05-16T09:58:32.936Z</time>
      </trkpt>
      <trkpt lat="38.79654667" lon="-9.10458">
        <ele>7.0</ele>
        <time>2019-05-16T09:58:33.930Z</time>
      </trkpt>
      <trkpt lat="38.79657" lon="-9.10459333">
        <ele>8.0</ele>
        <time>2019-05-16T09:58:34.935Z</time>
      </trkpt>
      <trkpt lat="38.79657" lon="-9.10459333">
        <ele>8.0</ele>
        <time>2019-05-16T09:58:35.930Z</time>
      </trkpt>
      <trkpt lat="38.796595" lon="-9.10460333">
        <ele>8.0</ele>
        <time>2019-05-16T09:58:36.897Z</time>
      </trkpt>
      <trkpt lat="38.796595" lon="-9.10460333">
        <ele>8.0</ele>
        <time>2019-05-16T09:58:37.930Z</time>
      </trkpt>
      <trkpt lat="38.79662167" lon="-9.10461167">
        <ele>8.0</ele>
        <time>2019-05-16T09:58:38.942Z</time>
      </trkpt>
      <trkpt lat="38.79662167" lon="-9.10461167">
        <ele>8.0</ele>
        <time>2019-05-16T09:58:39.922Z</time>
      </trkpt>
      <trkpt lat="38.79665" lon="-9.10462667">
        <ele>9.0</ele>
        <time>2019-05-16T09:58:40.930Z</time>
      </trkpt>
      <trkpt lat="38.79665" lon="-9.10462667">
        <ele>9.0</ele>
        <time>2019-05-16T09:58:41.931Z</time>
      </trkpt>
      <trkpt lat="38.79668" lon="-9.10463833">
        <ele>9.0</ele>
        <time>2019-05-16T09:58:42.903Z</time>
      </trkpt>
      <trkpt lat="38.79668" lon="-9.10463833">
        <ele>9.0</ele>
        <time>2019-05-16T09:58:43.932Z</time>
      </trkpt>
      <trkpt lat="38.79671333" lon="-9.10463167">
        <ele>9.0</ele>
        <time>2019-05-16T09:58:44.921Z</time>
      </trkpt>
      <trkpt lat="38.79673167" lon="-9.10463167">
        <ele>10.0</ele>
        <time>2019-05-16T09:58:45.913Z</time>
      </trkpt>
      <trkpt lat="38.79673167" lon="-9.10463167">
        <ele>10.0</ele>
        <time>2019-05-16T09:58:46.937Z</time>
      </trkpt>
      <trkpt lat="38.79677667" lon="-9.10464333">
        <ele>11.0</ele>
        <time>2019-05-16T09:58:47.902Z</time>
      </trkpt>
      <trkpt lat="38.796795" lon="-9.10465167">
        <ele>11.0</ele>
        <time>2019-05-16T09:58:48.901Z</time>
      </trkpt>
      <trkpt lat="38.796795" lon="-9.10465167">
        <ele>11.0</ele>
        <time>2019-05-16T09:58:49.901Z</time>
      </trkpt>
      <trkpt lat="38.796835" lon="-9.10466667">
        <ele>11.0</ele>
        <time>2019-05-16T09:58:50.913Z</time>
      </trkpt>
      <trkpt lat="38.796835" lon="-9.10466667">
        <ele>11.0</ele>
        <time>2019-05-16T09:58:51.897Z</time>
      </trkpt>
      <trkpt lat="38.79688667" lon="-9.10468">
        <ele>10.0</ele>
        <time>2019-05-16T09:58:52.935Z</time>
      </trkpt>
      <trkpt lat="38.79688667" lon="-9.10468">
        <ele>10.0</ele>
        <time>2019-05-16T09:58:53.907Z</time>
      </trkpt>
      <trkpt lat="38.79695167" lon="-9.10469833">
        <ele>10.0</ele>
        <time>2019-05-16T09:58:54.916Z</time>
      </trkpt>
      <trkpt lat="38.79695167" lon="-9.10469833">
        <ele>10.0</ele>
        <time>2019-05-16T09:58:55.926Z</time>
      </trkpt>
      <trkpt lat="38.79702333" lon="-9.10470167">
        <ele>11.0</ele>
        <time>2019-05-16T09:58:56.935Z</time>
      </trkpt>
      <trkpt lat="38.79702333" lon="-9.10470167">
        <ele>11.0</ele>
        <time>2019-05-16T09:58:57.929Z</time>
      </trkpt>
      <trkpt lat="38.79709833" lon="-9.10468833">
        <ele>11.0</ele>
        <time>2019-05-16T09:58:58.900Z</time>
      </trkpt>
      <trkpt lat="38.79709833" lon="-9.10468833">
        <ele>11.0</ele>
        <time>2019-05-16T09:58:59.907Z</time>
      </trkpt>
      <trkpt lat="38.797165" lon="-9.104675">
        <ele>10.0</ele>
        <time>2019-05-16T09:59:00.918Z</time>
      </trkpt>
      <trkpt lat="38.797165" lon="-9.104675">
        <ele>10.0</ele>
        <time>2019-05-16T09:59:01.935Z</time>
      </trkpt>
      <trkpt lat="38.79722833" lon="-9.10466333">
        <ele>11.0</ele>
        <time>2019-05-16T09:59:02.907Z</time>
      </trkpt>
      <trkpt lat="38.79722833" lon="-9.10466333">
        <ele>11.0</ele>
        <time>2019-05-16T09:59:03.932Z</time>
      </trkpt>
      <trkpt lat="38.79728833" lon="-9.10465">
        <ele>11.0</ele>
        <time>2019-05-16T09:59:04.916Z</time>
      </trkpt>
      <trkpt lat="38.79728833" lon="-9.10465">
        <ele>11.0</ele>
        <time>2019-05-16T09:59:05.906Z</time>
      </trkpt>
      <trkpt lat="38.797345" lon="-9.10464">
        <ele>11.0</ele>
        <time>2019-05-16T09:59:06.900Z</time>
      </trkpt>
      <trkpt lat="38.797345" lon="-9.10464">
        <ele>11.0</ele>
        <time>2019-05-16T09:59:07.922Z</time>
      </trkpt>
      <trkpt lat="38.79739667" lon="-9.10462667">
        <ele>10.0</ele>
        <time>2019-05-16T09:59:08.929Z</time>
      </trkpt>
      <trkpt lat="38.79739667" lon="-9.10462667">
        <ele>10.0</ele>
        <time>2019-05-16T09:59:09.923Z</time>
      </trkpt>
      <trkpt lat="38.79745667" lon="-9.10461833">
        <ele>10.0</ele>
        <time>2019-05-16T09:59:10.914Z</time>
      </trkpt>
      <trkpt lat="38.79745667" lon="-9.10461833">
        <ele>10.0</ele>
        <time>2019-05-16T09:59:11.907Z</time>
      </trkpt>
      <trkpt lat="38.79751333" lon="-9.10460667">
        <ele>10.0</ele>
        <time>2019-05-16T09:59:12.926Z</time>
      </trkpt>
      <trkpt lat="38.79751333" lon="-9.10460667">
        <ele>10.0</ele>
        <time>2019-05-16T09:59:13.936Z</time>
      </trkpt>
      <trkpt lat="38.79756667" lon="-9.104595">
        <ele>10.0</ele>
        <time>2019-05-16T09:59:14.905Z</time>
      </trkpt>
      <trkpt lat="38.79756667" lon="-9.104595">
        <ele>10.0</ele>
        <time>2019-05-16T09:59:15.936Z</time>
      </trkpt>
      <trkpt lat="38.79762167" lon="-9.104585">
        <ele>10.0</ele>
        <time>2019-05-16T09:59:16.907Z</time>
      </trkpt>
      <trkpt lat="38.79764667" lon="-9.10457833">
        <ele>10.0</ele>
        <time>2019-05-16T09:59:17.912Z</time>
      </trkpt>
      <trkpt lat="38.79767" lon="-9.10457167">
        <ele>9.0</ele>
        <time>2019-05-16T09:59:18.914Z</time>
      </trkpt>
      <trkpt lat="38.79767" lon="-9.10457167">
        <ele>9.0</ele>
        <time>2019-05-16T09:59:19.913Z</time>
      </trkpt>
      <trkpt lat="38.79771" lon="-9.10455833">
        <ele>9.0</ele>
        <time>2019-05-16T09:59:20.908Z</time>
      </trkpt>
      <trkpt lat="38.79771" lon="-9.10455833">
        <ele>9.0</ele>
        <time>2019-05-16T09:59:21.919Z</time>
      </trkpt>
      <trkpt lat="38.79773667" lon="-9.10455667">
        <ele>9.0</ele>
        <time>2019-05-16T09:59:22.935Z</time>
      </trkpt>
      <trkpt lat="38.79773667" lon="-9.10455667">
        <ele>9.0</ele>
        <time>2019-05-16T09:59:23.922Z</time>
      </trkpt>
      <trkpt lat="38.79774" lon="-9.10456833">
        <ele>8.0</ele>
        <time>2019-05-16T09:59:24.933Z</time>
      </trkpt>
      <trkpt lat="38.79774" lon="-9.10456833">
        <ele>8.0</ele>
        <time>2019-05-16T09:59:25.922Z</time>
      </trkpt>
      <trkpt lat="38.797745" lon="-9.10457833">
        <ele>8.0</ele>
        <time>2019-05-16T09:59:26.940Z</time>
      </trkpt>
      <trkpt lat="38.797745" lon="-9.10457833">
        <ele>8.0</ele>
        <time>2019-05-16T09:59:27.928Z</time>
      </trkpt>
      <trkpt lat="38.79775167" lon="-9.10460667">
        <ele>8.0</ele>
        <time>2019-05-16T09:59:28.934Z</time>
      </trkpt>
      <trkpt lat="38.79775167" lon="-9.10460667">
        <ele>8.0</ele>
        <time>2019-05-16T09:59:29.900Z</time>
      </trkpt>
      <trkpt lat="38.79776" lon="-9.10465">
        <ele>8.0</ele>
        <time>2019-05-16T09:59:30.906Z</time>
      </trkpt>
      <trkpt lat="38.79776" lon="-9.10465">
        <ele>8.0</ele>
        <time>2019-05-16T09:59:31.912Z</time>
      </trkpt>
      <trkpt lat="38.79775667" lon="-9.1047">
        <ele>8.0</ele>
        <time>2019-05-16T09:59:32.897Z</time>
      </trkpt>
      <trkpt lat="38.79775667" lon="-9.1047">
        <ele>8.0</ele>
        <time>2019-05-16T09:59:33.929Z</time>
      </trkpt>
      <trkpt lat="38.79774667" lon="-9.10473833">
        <ele>8.0</ele>
        <time>2019-05-16T09:59:34.959Z</time>
      </trkpt>
      <trkpt lat="38.79774667" lon="-9.10473833">
        <ele>8.0</ele>
        <time>2019-05-16T09:59:35.929Z</time>
      </trkpt>
      <trkpt lat="38.79774667" lon="-9.10474167">
        <ele>8.0</ele>
        <time>2019-05-16T09:59:36.899Z</time>
      </trkpt>
      <trkpt lat="38.79774667" lon="-9.10474167">
        <ele>8.0</ele>
        <time>2019-05-16T09:59:37.933Z</time>
      </trkpt>
      <trkpt lat="38.797745" lon="-9.10474333">
        <ele>7.0</ele>
        <time>2019-05-16T09:59:38.913Z</time>
      </trkpt>
      <trkpt lat="38.797745" lon="-9.10474333">
        <ele>7.0</ele>
        <time>2019-05-16T09:59:39.898Z</time>
      </trkpt>
      <trkpt lat="38.797745" lon="-9.10474333">
        <ele>7.0</ele>
        <time>2019-05-16T09:59:40.904Z</time>
      </trkpt>
      <trkpt lat="38.797745" lon="-9.10474333">
        <ele>7.0</ele>
        <time>2019-05-16T09:59:41.910Z</time>
      </trkpt>
      <trkpt lat="38.79773833" lon="-9.10475833">
        <ele>7.0</ele>
        <time>2019-05-16T09:59:42.916Z</time>
      </trkpt>
      <trkpt lat="38.79773833" lon="-9.10475833">
        <ele>7.0</ele>
        <time>2019-05-16T09:59:43.922Z</time>
      </trkpt>
      <trkpt lat="38.79772333" lon="-9.10479333">
        <ele>6.0</ele>
        <time>2019-05-16T09:59:44.935Z</time>
      </trkpt>
      <trkpt lat="38.79771333" lon="-9.10482667">
        <ele>5.0</ele>
        <time>2019-05-16T09:59:45.934Z</time>
      </trkpt>
      <trkpt lat="38.79771333" lon="-9.10482667">
        <ele>5.0</ele>
        <time>2019-05-16T09:59:46.929Z</time>
      </trkpt>
      <trkpt lat="38.797695" lon="-9.10490833">
        <ele>5.0</ele>
        <time>2019-05-16T09:59:47.907Z</time>
      </trkpt>
      <trkpt lat="38.797695" lon="-9.10490833">
        <ele>5.0</ele>
        <time>2019-05-16T09:59:48.932Z</time>
      </trkpt>
      <trkpt lat="38.7977" lon="-9.10498667">
        <ele>4.0</ele>
        <time>2019-05-16T09:59:49.899Z</time>
      </trkpt>
      <trkpt lat="38.7977" lon="-9.10498667">
        <ele>4.0</ele>
        <time>2019-05-16T09:59:50.922Z</time>
      </trkpt>
      <trkpt lat="38.79772333" lon="-9.10505">
        <ele>4.0</ele>
        <time>2019-05-16T09:59:51.930Z</time>
      </trkpt>
      <trkpt lat="38.79772333" lon="-9.10505">
        <ele>4.0</ele>
        <time>2019-05-16T09:59:52.922Z</time>
      </trkpt>
      <trkpt lat="38.79775167" lon="-9.10510333">
        <ele>4.0</ele>
        <time>2019-05-16T09:59:53.902Z</time>
      </trkpt>
      <trkpt lat="38.79776833" lon="-9.10512833">
        <ele>4.0</ele>
        <time>2019-05-16T09:59:54.936Z</time>
      </trkpt>
      <trkpt lat="38.79776833" lon="-9.10512833">
        <ele>4.0</ele>
        <time>2019-05-16T09:59:55.928Z</time>
      </trkpt>
      <trkpt lat="38.79780333" lon="-9.10517833">
        <ele>4.0</ele>
        <time>2019-05-16T09:59:56.897Z</time>
      </trkpt>
      <trkpt lat="38.79780333" lon="-9.10517833">
        <ele>4.0</ele>
        <time>2019-05-16T09:59:57.897Z</time>
      </trkpt>
      <trkpt lat="38.797825" lon="-9.10523">
        <ele>4.0</ele>
        <time>2019-05-16T09:59:58.913Z</time>
      </trkpt>
      <trkpt lat="38.797825" lon="-9.10523">
        <ele>4.0</ele>
        <time>2019-05-16T09:59:59.922Z</time>
      </trkpt>
      <trkpt lat="38.79784833" lon="-9.10528333">
        <ele>4.0</ele>
        <time>2019-05-16T10:00:00.930Z</time>
      </trkpt>
      <trkpt lat="38.79784833" lon="-9.10528333">
        <ele>4.0</ele>
        <time>2019-05-16T10:00:01.924Z</time>
      </trkpt>
      <trkpt lat="38.79788" lon="-9.10533667">
        <ele>4.0</ele>
        <time>2019-05-16T10:00:02.935Z</time>
      </trkpt>
      <trkpt lat="38.79788" lon="-9.10533667">
        <ele>4.0</ele>
        <time>2019-05-16T10:00:03.931Z</time>
      </trkpt>
      <trkpt lat="38.797905" lon="-9.10539167">
        <ele>4.0</ele>
        <time>2019-05-16T10:00:04.900Z</time>
      </trkpt>
      <trkpt lat="38.797905" lon="-9.10539167">
        <ele>4.0</ele>
        <time>2019-05-16T10:00:05.897Z</time>
      </trkpt>
      <trkpt lat="38.79793167" lon="-9.10544167">
        <ele>4.0</ele>
        <time>2019-05-16T10:00:06.911Z</time>
      </trkpt>
      <trkpt lat="38.79793167" lon="-9.10544167">
        <ele>4.0</ele>
        <time>2019-05-16T10:00:07.935Z</time>
      </trkpt>
      <trkpt lat="38.79796" lon="-9.10549">
        <ele>4.0</ele>
        <time>2019-05-16T10:00:08.907Z</time>
      </trkpt>
      <trkpt lat="38.79796" lon="-9.10549">
        <ele>4.0</ele>
        <time>2019-05-16T10:00:09.899Z</time>
      </trkpt>
      <trkpt lat="38.79798333" lon="-9.10553833">
        <ele>4.0</ele>
        <time>2019-05-16T10:00:10.930Z</time>
      </trkpt>
      <trkpt lat="38.79798333" lon="-9.10553833">
        <ele>4.0</ele>
        <time>2019-05-16T10:00:11.932Z</time>
      </trkpt>
      <trkpt lat="38.79801" lon="-9.10558333">
        <ele>4.0</ele>
        <time>2019-05-16T10:00:12.899Z</time>
      </trkpt>
      <trkpt lat="38.79801" lon="-9.10558333">
        <ele>4.0</ele>
        <time>2019-05-16T10:00:13.910Z</time>
      </trkpt>
      <trkpt lat="38.79803833" lon="-9.105635">
        <ele>3.0</ele>
        <time>2019-05-16T10:00:14.935Z</time>
      </trkpt>
      <trkpt lat="38.79803833" lon="-9.105635">
        <ele>3.0</ele>
        <time>2019-05-16T10:00:15.919Z</time>
      </trkpt>
      <trkpt lat="38.79806667" lon="-9.10569167">
        <ele>3.0</ele>
        <time>2019-05-16T10:00:16.930Z</time>
      </trkpt>
      <trkpt lat="38.79806667" lon="-9.10569167">
        <ele>3.0</ele>
        <time>2019-05-16T10:00:17.919Z</time>
      </trkpt>
      <trkpt lat="38.7981" lon="-9.10575167">
        <ele>3.0</ele>
        <time>2019-05-16T10:00:18.934Z</time>
      </trkpt>
      <trkpt lat="38.7981" lon="-9.10575167">
        <ele>3.0</ele>
        <time>2019-05-16T10:00:19.927Z</time>
      </trkpt>
      <trkpt lat="38.79813167" lon="-9.10581167">
        <ele>3.0</ele>
        <time>2019-05-16T10:00:20.912Z</time>
      </trkpt>
      <trkpt lat="38.79814833" lon="-9.10584333">
        <ele>3.0</ele>
        <time>2019-05-16T10:00:21.907Z</time>
      </trkpt>
      <trkpt lat="38.79814833" lon="-9.10584333">
        <ele>3.0</ele>
        <time>2019-05-16T10:00:22.929Z</time>
      </trkpt>
      <trkpt lat="38.798185" lon="-9.10590333">
        <ele>2.0</ele>
        <time>2019-05-16T10:00:23.903Z</time>
      </trkpt>
      <trkpt lat="38.798205" lon="-9.10593333">
        <ele>2.0</ele>
        <time>2019-05-16T10:00:24.931Z</time>
      </trkpt>
      <trkpt lat="38.798205" lon="-9.10593333">
        <ele>2.0</ele>
        <time>2019-05-16T10:00:25.922Z</time>
      </trkpt>
      <trkpt lat="38.79824333" lon="-9.10599667">
        <ele>2.0</ele>
        <time>2019-05-16T10:00:26.930Z</time>
      </trkpt>
      <trkpt lat="38.79824333" lon="-9.10599667">
        <ele>2.0</ele>
        <time>2019-05-16T10:00:27.932Z</time>
      </trkpt>
      <trkpt lat="38.79828167" lon="-9.106065">
        <ele>2.0</ele>
        <time>2019-05-16T10:00:28.910Z</time>
      </trkpt>
      <trkpt lat="38.79828167" lon="-9.106065">
        <ele>2.0</ele>
        <time>2019-05-16T10:00:29.922Z</time>
      </trkpt>
      <trkpt lat="38.79831833" lon="-9.10612833">
        <ele>2.0</ele>
        <time>2019-05-16T10:00:30.930Z</time>
      </trkpt>
      <trkpt lat="38.79833833" lon="-9.10615833">
        <ele>1.0</ele>
        <time>2019-05-16T10:00:31.935Z</time>
      </trkpt>
      <trkpt lat="38.79833833" lon="-9.10615833">
        <ele>1.0</ele>
        <time>2019-05-16T10:00:32.912Z</time>
      </trkpt>
      <trkpt lat="38.79838" lon="-9.106215">
        <ele>1.0</ele>
        <time>2019-05-16T10:00:33.920Z</time>
      </trkpt>
      <trkpt lat="38.79838" lon="-9.106215">
        <ele>1.0</ele>
        <time>2019-05-16T10:00:34.921Z</time>
      </trkpt>
      <trkpt lat="38.79842333" lon="-9.10626667">
        <ele>1.0</ele>
        <time>2019-05-16T10:00:35.901Z</time>
      </trkpt>
      <trkpt lat="38.79844667" lon="-9.10629">
        <ele>1.0</ele>
        <time>2019-05-16T10:00:36.931Z</time>
      </trkpt>
      <trkpt lat="38.79844667" lon="-9.10629">
        <ele>1.0</ele>
        <time>2019-05-16T10:00:37.933Z</time>
      </trkpt>
      <trkpt lat="38.798495" lon="-9.10634">
        <ele>1.0</ele>
        <time>2019-05-16T10:00:38.908Z</time>
      </trkpt>
      <trkpt lat="38.798495" lon="-9.10634">
        <ele>1.0</ele>
        <time>2019-05-16T10:00:39.935Z</time>
      </trkpt>
      <trkpt lat="38.79854167" lon="-9.10639167">
        <ele>1.0</ele>
        <time>2019-05-16T10:00:40.929Z</time>
      </trkpt>
      <trkpt lat="38.79854167" lon="-9.10639167">
        <ele>1.0</ele>
        <time>2019-05-16T10:00:41.937Z</time>
      </trkpt>
      <trkpt lat="38.79859333" lon="-9.10643667">
        <ele>1.0</ele>
        <time>2019-05-16T10:00:42.907Z</time>
      </trkpt>
      <trkpt lat="38.79859333" lon="-9.10643667">
        <ele>1.0</ele>
        <time>2019-05-16T10:00:43.907Z</time>
      </trkpt>
      <trkpt lat="38.79864833" lon="-9.10647">
        <ele>1.0</ele>
        <time>2019-05-16T10:00:44.918Z</time>
      </trkpt>
      <trkpt lat="38.79864833" lon="-9.10647">
        <ele>1.0</ele>
        <time>2019-05-16T10:00:45.909Z</time>
      </trkpt>
      <trkpt lat="38.79870667" lon="-9.10649667">
        <ele>1.0</ele>
        <time>2019-05-16T10:00:46.920Z</time>
      </trkpt>
      <trkpt lat="38.79870667" lon="-9.10649667">
        <ele>1.0</ele>
        <time>2019-05-16T10:00:47.930Z</time>
      </trkpt>
      <trkpt lat="38.798765" lon="-9.10649833">
        <ele>0.0</ele>
        <time>2019-05-16T10:00:48.903Z</time>
      </trkpt>
      <trkpt lat="38.79879167" lon="-9.10649">
        <ele>0.0</ele>
        <time>2019-05-16T10:00:49.938Z</time>
      </trkpt>
      <trkpt lat="38.79879167" lon="-9.10649">
        <ele>0.0</ele>
        <time>2019-05-16T10:00:50.915Z</time>
      </trkpt>
      <trkpt lat="38.79884" lon="-9.1065">
        <ele>0.0</ele>
        <time>2019-05-16T10:00:51.931Z</time>
      </trkpt>
      <trkpt lat="38.79884" lon="-9.1065">
        <ele>0.0</ele>
        <time>2019-05-16T10:00:52.932Z</time>
      </trkpt>
      <trkpt lat="38.79886167" lon="-9.10655167">
        <ele>0.0</ele>
        <time>2019-05-16T10:00:53.931Z</time>
      </trkpt>
      <trkpt lat="38.79887333" lon="-9.106585">
        <ele>0.0</ele>
        <time>2019-05-16T10:00:54.931Z</time>
      </trkpt>
      <trkpt lat="38.79887333" lon="-9.106585">
        <ele>0.0</ele>
        <time>2019-05-16T10:00:55.901Z</time>
      </trkpt>
      <trkpt lat="38.79890333" lon="-9.10666">
        <ele>-1.0</ele>
        <time>2019-05-16T10:00:56.910Z</time>
      </trkpt>
      <trkpt lat="38.79890333" lon="-9.10666">
        <ele>-1.0</ele>
        <time>2019-05-16T10:00:57.922Z</time>
      </trkpt>
      <trkpt lat="38.79894333" lon="-9.10673333">
        <ele>-1.0</ele>
        <time>2019-05-16T10:00:58.933Z</time>
      </trkpt>
      <trkpt lat="38.79894333" lon="-9.10673333">
        <ele>-1.0</ele>
        <time>2019-05-16T10:00:59.907Z</time>
      </trkpt>
      <trkpt lat="38.798985" lon="-9.10680167">
        <ele>-1.0</ele>
        <time>2019-05-16T10:01:00.916Z</time>
      </trkpt>
      <trkpt lat="38.798985" lon="-9.10680167">
        <ele>-1.0</ele>
        <time>2019-05-16T10:01:01.923Z</time>
      </trkpt>
      <trkpt lat="38.79902833" lon="-9.10686833">
        <ele>-1.0</ele>
        <time>2019-05-16T10:01:02.933Z</time>
      </trkpt>
      <trkpt lat="38.79902833" lon="-9.10686833">
        <ele>-1.0</ele>
        <time>2019-05-16T10:01:03.926Z</time>
      </trkpt>
      <trkpt lat="38.79907333" lon="-9.10692833">
        <ele>-1.0</ele>
        <time>2019-05-16T10:01:04.917Z</time>
      </trkpt>
      <trkpt lat="38.79907333" lon="-9.10692833">
        <ele>-1.0</ele>
        <time>2019-05-16T10:01:05.909Z</time>
      </trkpt>
      <trkpt lat="38.79911667" lon="-9.10698333">
        <ele>-1.0</ele>
        <time>2019-05-16T10:01:06.920Z</time>
      </trkpt>
      <trkpt lat="38.79911667" lon="-9.10698333">
        <ele>-1.0</ele>
        <time>2019-05-16T10:01:07.922Z</time>
      </trkpt>
      <trkpt lat="38.799155" lon="-9.10703833">
        <ele>-1.0</ele>
        <time>2019-05-16T10:01:08.934Z</time>
      </trkpt>
      <trkpt lat="38.799155" lon="-9.10703833">
        <ele>-1.0</ele>
        <time>2019-05-16T10:01:09.922Z</time>
      </trkpt>
      <trkpt lat="38.79919" lon="-9.10709333">
        <ele>-1.0</ele>
        <time>2019-05-16T10:01:10.931Z</time>
      </trkpt>
      <trkpt lat="38.79919" lon="-9.10709333">
        <ele>-1.0</ele>
        <time>2019-05-16T10:01:11.933Z</time>
      </trkpt>
      <trkpt lat="38.79922667" lon="-9.10714167">
        <ele>-1.0</ele>
        <time>2019-05-16T10:01:12.912Z</time>
      </trkpt>
      <trkpt lat="38.79922667" lon="-9.10714167">
        <ele>-1.0</ele>
        <time>2019-05-16T10:01:13.922Z</time>
      </trkpt>
      <trkpt lat="38.79926167" lon="-9.10719833">
        <ele>-1.0</ele>
        <time>2019-05-16T10:01:14.899Z</time>
      </trkpt>
      <trkpt lat="38.79926167" lon="-9.10719833">
        <ele>-1.0</ele>
        <time>2019-05-16T10:01:15.932Z</time>
      </trkpt>
      <trkpt lat="38.79929667" lon="-9.10724833">
        <ele>-1.0</ele>
        <time>2019-05-16T10:01:16.905Z</time>
      </trkpt>
      <trkpt lat="38.79929667" lon="-9.10724833">
        <ele>-1.0</ele>
        <time>2019-05-16T10:01:17.898Z</time>
      </trkpt>
      <trkpt lat="38.79932333" lon="-9.10728833">
        <ele>-1.0</ele>
        <time>2019-05-16T10:01:18.910Z</time>
      </trkpt>
      <trkpt lat="38.79932333" lon="-9.10728833">
        <ele>-1.0</ele>
        <time>2019-05-16T10:01:19.902Z</time>
      </trkpt>
      <trkpt lat="38.79935" lon="-9.10733">
        <ele>-1.0</ele>
        <time>2019-05-16T10:01:20.931Z</time>
      </trkpt>
      <trkpt lat="38.79935" lon="-9.10733">
        <ele>-1.0</ele>
        <time>2019-05-16T10:01:21.923Z</time>
      </trkpt>
      <trkpt lat="38.799385" lon="-9.10739167">
        <ele>-1.0</ele>
        <time>2019-05-16T10:01:22.901Z</time>
      </trkpt>
      <trkpt lat="38.799385" lon="-9.10739167">
        <ele>-1.0</ele>
        <time>2019-05-16T10:01:23.918Z</time>
      </trkpt>
      <trkpt lat="38.79943333" lon="-9.10744667">
        <ele>-2.0</ele>
        <time>2019-05-16T10:01:24.929Z</time>
      </trkpt>
      <trkpt lat="38.79943333" lon="-9.10744667">
        <ele>-2.0</ele>
        <time>2019-05-16T10:01:25.922Z</time>
      </trkpt>
      <trkpt lat="38.79948" lon="-9.10750667">
        <ele>-2.0</ele>
        <time>2019-05-16T10:01:26.930Z</time>
      </trkpt>
      <trkpt lat="38.79948" lon="-9.10750667">
        <ele>-2.0</ele>
        <time>2019-05-16T10:01:27.919Z</time>
      </trkpt>
      <trkpt lat="38.799525" lon="-9.10756833">
        <ele>-2.0</ele>
        <time>2019-05-16T10:01:28.934Z</time>
      </trkpt>
      <trkpt lat="38.799525" lon="-9.10756833">
        <ele>-2.0</ele>
        <time>2019-05-16T10:01:29.897Z</time>
      </trkpt>
      <trkpt lat="38.79957" lon="-9.10762667">
        <ele>-2.0</ele>
        <time>2019-05-16T10:01:30.906Z</time>
      </trkpt>
      <trkpt lat="38.79957" lon="-9.10762667">
        <ele>-2.0</ele>
        <time>2019-05-16T10:01:31.928Z</time>
      </trkpt>
      <trkpt lat="38.79961667" lon="-9.10768167">
        <ele>-2.0</ele>
        <time>2019-05-16T10:01:32.899Z</time>
      </trkpt>
      <trkpt lat="38.79961667" lon="-9.10768167">
        <ele>-2.0</ele>
        <time>2019-05-16T10:01:33.897Z</time>
      </trkpt>
      <trkpt lat="38.79966833" lon="-9.107735">
        <ele>-2.0</ele>
        <time>2019-05-16T10:01:34.910Z</time>
      </trkpt>
      <trkpt lat="38.79966833" lon="-9.107735">
        <ele>-2.0</ele>
        <time>2019-05-16T10:01:35.935Z</time>
      </trkpt>
      <trkpt lat="38.799715" lon="-9.10779833">
        <ele>-3.0</ele>
        <time>2019-05-16T10:01:36.904Z</time>
      </trkpt>
      <trkpt lat="38.799715" lon="-9.10779833">
        <ele>-3.0</ele>
        <time>2019-05-16T10:01:37.912Z</time>
      </trkpt>
      <trkpt lat="38.79977167" lon="-9.10785333">
        <ele>-3.0</ele>
        <time>2019-05-16T10:01:38.928Z</time>
      </trkpt>
      <trkpt lat="38.79977167" lon="-9.10785333">
        <ele>-3.0</ele>
        <time>2019-05-16T10:01:39.926Z</time>
      </trkpt>
      <trkpt lat="38.79982333" lon="-9.107915">
        <ele>-3.0</ele>
        <time>2019-05-16T10:01:40.936Z</time>
      </trkpt>
      <trkpt lat="38.79982333" lon="-9.107915">
        <ele>-3.0</ele>
        <time>2019-05-16T10:01:41.923Z</time>
      </trkpt>
      <trkpt lat="38.799875" lon="-9.10798">
        <ele>-3.0</ele>
        <time>2019-05-16T10:01:42.934Z</time>
      </trkpt>
      <trkpt lat="38.799875" lon="-9.10798">
        <ele>-3.0</ele>
        <time>2019-05-16T10:01:43.922Z</time>
      </trkpt>
      <trkpt lat="38.799925" lon="-9.10803833">
        <ele>-3.0</ele>
        <time>2019-05-16T10:01:44.932Z</time>
      </trkpt>
      <trkpt lat="38.799925" lon="-9.10803833">
        <ele>-3.0</ele>
        <time>2019-05-16T10:01:45.921Z</time>
      </trkpt>
      <trkpt lat="38.79998167" lon="-9.108065">
        <ele>-3.0</ele>
        <time>2019-05-16T10:01:46.910Z</time>
      </trkpt>
      <trkpt lat="38.79998167" lon="-9.108065">
        <ele>-3.0</ele>
        <time>2019-05-16T10:01:47.933Z</time>
      </trkpt>
      <trkpt lat="38.80003667" lon="-9.10807833">
        <ele>-3.0</ele>
        <time>2019-05-16T10:01:48.904Z</time>
      </trkpt>
      <trkpt lat="38.80003667" lon="-9.10807833">
        <ele>-3.0</ele>
        <time>2019-05-16T10:01:49.903Z</time>
      </trkpt>
      <trkpt lat="38.80008833" lon="-9.108065">
        <ele>-3.0</ele>
        <time>2019-05-16T10:01:50.914Z</time>
      </trkpt>
      <trkpt lat="38.80008833" lon="-9.108065">
        <ele>-3.0</ele>
        <time>2019-05-16T10:01:51.907Z</time>
      </trkpt>
      <trkpt lat="38.80013667" lon="-9.108025">
        <ele>-2.0</ele>
        <time>2019-05-16T10:01:52.916Z</time>
      </trkpt>
      <trkpt lat="38.80016" lon="-9.10799667">
        <ele>-3.0</ele>
        <time>2019-05-16T10:01:53.927Z</time>
      </trkpt>
      <trkpt lat="38.80018167" lon="-9.10796333">
        <ele>-3.0</ele>
        <time>2019-05-16T10:01:54.924Z</time>
      </trkpt>
      <trkpt lat="38.80018167" lon="-9.10796333">
        <ele>-3.0</ele>
        <time>2019-05-16T10:01:55.909Z</time>
      </trkpt>
      <trkpt lat="38.80022333" lon="-9.10788833">
        <ele>-3.0</ele>
        <time>2019-05-16T10:01:56.927Z</time>
      </trkpt>
      <trkpt lat="38.80024333" lon="-9.10784667">
        <ele>-3.0</ele>
        <time>2019-05-16T10:01:57.921Z</time>
      </trkpt>
      <trkpt lat="38.80024333" lon="-9.10784667">
        <ele>-3.0</ele>
        <time>2019-05-16T10:01:58.926Z</time>
      </trkpt>
      <trkpt lat="38.80027" lon="-9.107755">
        <ele>-3.0</ele>
        <time>2019-05-16T10:01:59.911Z</time>
      </trkpt>
      <trkpt lat="38.80028333" lon="-9.10771">
        <ele>-3.0</ele>
        <time>2019-05-16T10:02:00.926Z</time>
      </trkpt>
      <trkpt lat="38.80028333" lon="-9.10771">
        <ele>-3.0</ele>
        <time>2019-05-16T10:02:01.904Z</time>
      </trkpt>
      <trkpt lat="38.80031167" lon="-9.107625">
        <ele>-3.0</ele>
        <time>2019-05-16T10:02:02.911Z</time>
      </trkpt>
      <trkpt lat="38.80031167" lon="-9.107625">
        <ele>-3.0</ele>
        <time>2019-05-16T10:02:03.921Z</time>
      </trkpt>
      <trkpt lat="38.80033833" lon="-9.107535">
        <ele>-3.0</ele>
        <time>2019-05-16T10:02:04.903Z</time>
      </trkpt>
      <trkpt lat="38.80033833" lon="-9.107535">
        <ele>-3.0</ele>
        <time>2019-05-16T10:02:05.903Z</time>
      </trkpt>
      <trkpt lat="38.80036667" lon="-9.10744167">
        <ele>-3.0</ele>
        <time>2019-05-16T10:02:06.913Z</time>
      </trkpt>
      <trkpt lat="38.80036667" lon="-9.10744167">
        <ele>-3.0</ele>
        <time>2019-05-16T10:02:07.929Z</time>
      </trkpt>
      <trkpt lat="38.80039833" lon="-9.10735333">
        <ele>-4.0</ele>
        <time>2019-05-16T10:02:08.897Z</time>
      </trkpt>
      <trkpt lat="38.80039833" lon="-9.10735333">
        <ele>-4.0</ele>
        <time>2019-05-16T10:02:09.929Z</time>
      </trkpt>
      <trkpt lat="38.80043833" lon="-9.10725833">
        <ele>-4.0</ele>
        <time>2019-05-16T10:02:10.905Z</time>
      </trkpt>
      <trkpt lat="38.80043833" lon="-9.10725833">
        <ele>-4.0</ele>
        <time>2019-05-16T10:02:11.922Z</time>
      </trkpt>
      <trkpt lat="38.80047833" lon="-9.10716833">
        <ele>-4.0</ele>
        <time>2019-05-16T10:02:12.935Z</time>
      </trkpt>
      <trkpt lat="38.80047833" lon="-9.10716833">
        <ele>-4.0</ele>
        <time>2019-05-16T10:02:13.909Z</time>
      </trkpt>
      <trkpt lat="38.80053167" lon="-9.10709167">
        <ele>-4.0</ele>
        <time>2019-05-16T10:02:14.920Z</time>
      </trkpt>
      <trkpt lat="38.80053167" lon="-9.10709167">
        <ele>-4.0</ele>
        <time>2019-05-16T10:02:15.906Z</time>
      </trkpt>
      <trkpt lat="38.800605" lon="-9.10708167">
        <ele>-4.0</ele>
        <time>2019-05-16T10:02:16.921Z</time>
      </trkpt>
      <trkpt lat="38.800605" lon="-9.10708167">
        <ele>-4.0</ele>
        <time>2019-05-16T10:02:17.904Z</time>
      </trkpt>
      <trkpt lat="38.80066167" lon="-9.10712833">
        <ele>-5.0</ele>
        <time>2019-05-16T10:02:18.897Z</time>
      </trkpt>
      <trkpt lat="38.80066167" lon="-9.10712833">
        <ele>-5.0</ele>
        <time>2019-05-16T10:02:19.923Z</time>
      </trkpt>
      <trkpt lat="38.80071667" lon="-9.107175">
        <ele>-5.0</ele>
        <time>2019-05-16T10:02:20.907Z</time>
      </trkpt>
      <trkpt lat="38.80071667" lon="-9.107175">
        <ele>-5.0</ele>
        <time>2019-05-16T10:02:21.912Z</time>
      </trkpt>
      <trkpt lat="38.80077167" lon="-9.10722667">
        <ele>-5.0</ele>
        <time>2019-05-16T10:02:22.923Z</time>
      </trkpt>
      <trkpt lat="38.80080333" lon="-9.10725">
        <ele>-5.0</ele>
        <time>2019-05-16T10:02:23.920Z</time>
      </trkpt>
      <trkpt lat="38.800835" lon="-9.107275">
        <ele>-5.0</ele>
        <time>2019-05-16T10:02:24.897Z</time>
      </trkpt>
      <trkpt lat="38.800835" lon="-9.107275">
        <ele>-5.0</ele>
        <time>2019-05-16T10:02:25.929Z</time>
      </trkpt>
      <trkpt lat="38.80089333" lon="-9.10733">
        <ele>-5.0</ele>
        <time>2019-05-16T10:02:26.908Z</time>
      </trkpt>
      <trkpt lat="38.80089333" lon="-9.10733">
        <ele>-5.0</ele>
        <time>2019-05-16T10:02:27.923Z</time>
      </trkpt>
      <trkpt lat="38.80095" lon="-9.10737833">
        <ele>-4.0</ele>
        <time>2019-05-16T10:02:28.932Z</time>
      </trkpt>
      <trkpt lat="38.80097667" lon="-9.1074">
        <ele>-4.0</ele>
        <time>2019-05-16T10:02:29.911Z</time>
      </trkpt>
      <trkpt lat="38.80100667" lon="-9.107425">
        <ele>-4.0</ele>
        <time>2019-05-16T10:02:30.900Z</time>
      </trkpt>
      <trkpt lat="38.80100667" lon="-9.107425">
        <ele>-4.0</ele>
        <time>2019-05-16T10:02:31.912Z</time>
      </trkpt>
      <trkpt lat="38.80106333" lon="-9.10746333">
        <ele>-4.0</ele>
        <time>2019-05-16T10:02:32.925Z</time>
      </trkpt>
      <trkpt lat="38.80106333" lon="-9.10746333">
        <ele>-4.0</ele>
        <time>2019-05-16T10:02:33.922Z</time>
      </trkpt>
      <trkpt lat="38.80112" lon="-9.10751">
        <ele>-4.0</ele>
        <time>2019-05-16T10:02:34.923Z</time>
      </trkpt>
      <trkpt lat="38.80112" lon="-9.10751">
        <ele>-4.0</ele>
        <time>2019-05-16T10:02:35.924Z</time>
      </trkpt>
      <trkpt lat="38.80117167" lon="-9.10756">
        <ele>-3.0</ele>
        <time>2019-05-16T10:02:36.898Z</time>
      </trkpt>
      <trkpt lat="38.80117167" lon="-9.10756">
        <ele>-3.0</ele>
        <time>2019-05-16T10:02:37.922Z</time>
      </trkpt>
      <trkpt lat="38.80122333" lon="-9.10759667">
        <ele>-3.0</ele>
        <time>2019-05-16T10:02:38.937Z</time>
      </trkpt>
      <trkpt lat="38.80125" lon="-9.10761667">
        <ele>-3.0</ele>
        <time>2019-05-16T10:02:39.930Z</time>
      </trkpt>
      <trkpt lat="38.80125" lon="-9.10761667">
        <ele>-3.0</ele>
        <time>2019-05-16T10:02:40.924Z</time>
      </trkpt>
      <trkpt lat="38.80130167" lon="-9.10765667">
        <ele>-2.0</ele>
        <time>2019-05-16T10:02:41.909Z</time>
      </trkpt>
      <trkpt lat="38.80130167" lon="-9.10765667">
        <ele>-2.0</ele>
        <time>2019-05-16T10:02:42.917Z</time>
      </trkpt>
      <trkpt lat="38.80135333" lon="-9.1077">
        <ele>-2.0</ele>
        <time>2019-05-16T10:02:43.934Z</time>
      </trkpt>
      <trkpt lat="38.80137667" lon="-9.10772333">
        <ele>-2.0</ele>
        <time>2019-05-16T10:02:44.902Z</time>
      </trkpt>
      <trkpt lat="38.80137667" lon="-9.10772333">
        <ele>-2.0</ele>
        <time>2019-05-16T10:02:45.910Z</time>
      </trkpt>
      <trkpt lat="38.80142833" lon="-9.10776167">
        <ele>-1.0</ele>
        <time>2019-05-16T10:02:46.923Z</time>
      </trkpt>
      <trkpt lat="38.80142833" lon="-9.10776167">
        <ele>-1.0</ele>
        <time>2019-05-16T10:02:47.913Z</time>
      </trkpt>
      <trkpt lat="38.80148667" lon="-9.10779333">
        <ele>-1.0</ele>
        <time>2019-05-16T10:02:48.930Z</time>
      </trkpt>
      <trkpt lat="38.80148667" lon="-9.10779333">
        <ele>-1.0</ele>
        <time>2019-05-16T10:02:49.911Z</time>
      </trkpt>
      <trkpt lat="38.801535" lon="-9.10782833">
        <ele>-1.0</ele>
        <time>2019-05-16T10:02:50.935Z</time>
      </trkpt>
      <trkpt lat="38.801535" lon="-9.10782833">
        <ele>-1.0</ele>
        <time>2019-05-16T10:02:51.936Z</time>
      </trkpt>
      <trkpt lat="38.80157" lon="-9.10786">
        <ele>-2.0</ele>
        <time>2019-05-16T10:02:52.907Z</time>
      </trkpt>
      <trkpt lat="38.80157" lon="-9.10786">
        <ele>-2.0</ele>
        <time>2019-05-16T10:02:53.916Z</time>
      </trkpt>
      <trkpt lat="38.80163833" lon="-9.10787">
        <ele>-2.0</ele>
        <time>2019-05-16T10:02:54.928Z</time>
      </trkpt>
      <trkpt lat="38.80163833" lon="-9.10787">
        <ele>-2.0</ele>
        <time>2019-05-16T10:02:55.909Z</time>
      </trkpt>
      <trkpt lat="38.80169833" lon="-9.10788167">
        <ele>-3.0</ele>
        <time>2019-05-16T10:02:56.918Z</time>
      </trkpt>
      <trkpt lat="38.80169833" lon="-9.10788167">
        <ele>-3.0</ele>
        <time>2019-05-16T10:02:57.904Z</time>
      </trkpt>
      <trkpt lat="38.80175" lon="-9.10789">
        <ele>-3.0</ele>
        <time>2019-05-16T10:02:58.910Z</time>
      </trkpt>
      <trkpt lat="38.80175" lon="-9.10789">
        <ele>-3.0</ele>
        <time>2019-05-16T10:02:59.910Z</time>
      </trkpt>
      <trkpt lat="38.80180833" lon="-9.10790167">
        <ele>-2.0</ele>
        <time>2019-05-16T10:03:00.919Z</time>
      </trkpt>
      <trkpt lat="38.801845" lon="-9.107905">
        <ele>-2.0</ele>
        <time>2019-05-16T10:03:01.908Z</time>
      </trkpt>
      <trkpt lat="38.801845" lon="-9.107905">
        <ele>-2.0</ele>
        <time>2019-05-16T10:03:02.936Z</time>
      </trkpt>
      <trkpt lat="38.80190167" lon="-9.10791">
        <ele>-1.0</ele>
        <time>2019-05-16T10:03:03.907Z</time>
      </trkpt>
      <trkpt lat="38.80190167" lon="-9.10791">
        <ele>-1.0</ele>
        <time>2019-05-16T10:03:04.929Z</time>
      </trkpt>
      <trkpt lat="38.80195667" lon="-9.10792667">
        <ele>-1.0</ele>
        <time>2019-05-16T10:03:05.906Z</time>
      </trkpt>
      <trkpt lat="38.80198833" lon="-9.10793167">
        <ele>-1.0</ele>
        <time>2019-05-16T10:03:06.930Z</time>
      </trkpt>
      <trkpt lat="38.80198833" lon="-9.10793167">
        <ele>-1.0</ele>
        <time>2019-05-16T10:03:07.931Z</time>
      </trkpt>
      <trkpt lat="38.80203167" lon="-9.10794833">
        <ele>0.0</ele>
        <time>2019-05-16T10:03:08.901Z</time>
      </trkpt>
      <trkpt lat="38.80203167" lon="-9.10794833">
        <ele>0.0</ele>
        <time>2019-05-16T10:03:09.932Z</time>
      </trkpt>
      <trkpt lat="38.80207" lon="-9.10795333">
        <ele>0.0</ele>
        <time>2019-05-16T10:03:10.914Z</time>
      </trkpt>
      <trkpt lat="38.80207" lon="-9.10795333">
        <ele>0.0</ele>
        <time>2019-05-16T10:03:11.899Z</time>
      </trkpt>
      <trkpt lat="38.80207" lon="-9.10795333">
        <ele>0.0</ele>
        <time>2019-05-16T10:03:12.980Z</time>
      </trkpt>
      <trkpt lat="38.80211333" lon="-9.10796667">
        <ele>1.0</ele>
        <time>2019-05-16T10:03:13.908Z</time>
      </trkpt>
      <trkpt lat="38.80216" lon="-9.10796833">
        <ele>1.0</ele>
        <time>2019-05-16T10:03:14.918Z</time>
      </trkpt>
      <trkpt lat="38.80216" lon="-9.10796833">
        <ele>1.0</ele>
        <time>2019-05-16T10:03:15.916Z</time>
      </trkpt>
      <trkpt lat="38.80221" lon="-9.10796">
        <ele>1.0</ele>
        <time>2019-05-16T10:03:16.927Z</time>
      </trkpt>
      <trkpt lat="38.80221" lon="-9.10796">
        <ele>1.0</ele>
        <time>2019-05-16T10:03:17.927Z</time>
      </trkpt>
      <trkpt lat="38.80226" lon="-9.10795833">
        <ele>1.0</ele>
        <time>2019-05-16T10:03:18.905Z</time>
      </trkpt>
      <trkpt lat="38.80226" lon="-9.10795833">
        <ele>1.0</ele>
        <time>2019-05-16T10:03:19.901Z</time>
      </trkpt>
      <trkpt lat="38.80230333" lon="-9.10796333">
        <ele>2.0</ele>
        <time>2019-05-16T10:03:20.937Z</time>
      </trkpt>
      <trkpt lat="38.80230333" lon="-9.10796333">
        <ele>2.0</ele>
        <time>2019-05-16T10:03:21.924Z</time>
      </trkpt>
      <trkpt lat="38.80234333" lon="-9.10795833">
        <ele>2.0</ele>
        <time>2019-05-16T10:03:22.897Z</time>
      </trkpt>
      <trkpt lat="38.80234333" lon="-9.10795833">
        <ele>2.0</ele>
        <time>2019-05-16T10:03:23.906Z</time>
      </trkpt>
      <trkpt lat="38.80238333" lon="-9.10793333">
        <ele>1.0</ele>
        <time>2019-05-16T10:03:24.915Z</time>
      </trkpt>
      <trkpt lat="38.80238333" lon="-9.10793333">
        <ele>1.0</ele>
        <time>2019-05-16T10:03:25.912Z</time>
      </trkpt>
      <trkpt lat="38.80241833" lon="-9.10789333">
        <ele>1.0</ele>
        <time>2019-05-16T10:03:26.935Z</time>
      </trkpt>
      <trkpt lat="38.80241833" lon="-9.10789333">
        <ele>1.0</ele>
        <time>2019-05-16T10:03:27.897Z</time>
      </trkpt>
      <trkpt lat="38.80245833" lon="-9.10785667">
        <ele>1.0</ele>
        <time>2019-05-16T10:03:28.905Z</time>
      </trkpt>
      <trkpt lat="38.80245833" lon="-9.10785667">
        <ele>1.0</ele>
        <time>2019-05-16T10:03:29.927Z</time>
      </trkpt>
      <trkpt lat="38.8025" lon="-9.10782667">
        <ele>1.0</ele>
        <time>2019-05-16T10:03:30.920Z</time>
      </trkpt>
      <trkpt lat="38.8025" lon="-9.10782667">
        <ele>1.0</ele>
        <time>2019-05-16T10:03:31.913Z</time>
      </trkpt>
      <trkpt lat="38.80254167" lon="-9.10779833">
        <ele>1.0</ele>
        <time>2019-05-16T10:03:32.924Z</time>
      </trkpt>
      <trkpt lat="38.80256" lon="-9.10779">
        <ele>1.0</ele>
        <time>2019-05-16T10:03:33.901Z</time>
      </trkpt>
      <trkpt lat="38.80256" lon="-9.10779">
        <ele>1.0</ele>
        <time>2019-05-16T10:03:34.921Z</time>
      </trkpt>
      <trkpt lat="38.802595" lon="-9.10777833">
        <ele>1.0</ele>
        <time>2019-05-16T10:03:35.933Z</time>
      </trkpt>
      <trkpt lat="38.80261333" lon="-9.10777167">
        <ele>1.0</ele>
        <time>2019-05-16T10:03:36.918Z</time>
      </trkpt>
      <trkpt lat="38.80261333" lon="-9.10777167">
        <ele>1.0</ele>
        <time>2019-05-16T10:03:37.921Z</time>
      </trkpt>
      <trkpt lat="38.80264333" lon="-9.10774833">
        <ele>1.0</ele>
        <time>2019-05-16T10:03:38.933Z</time>
      </trkpt>
      <trkpt lat="38.80264333" lon="-9.10774833">
        <ele>1.0</ele>
        <time>2019-05-16T10:03:39.905Z</time>
      </trkpt>
      <trkpt lat="38.80267667" lon="-9.10772333">
        <ele>1.0</ele>
        <time>2019-05-16T10:03:40.917Z</time>
      </trkpt>
      <trkpt lat="38.80267667" lon="-9.10772333">
        <ele>1.0</ele>
        <time>2019-05-16T10:03:41.898Z</time>
      </trkpt>
      <trkpt lat="38.80271667" lon="-9.1077">
        <ele>1.0</ele>
        <time>2019-05-16T10:03:42.913Z</time>
      </trkpt>
      <trkpt lat="38.80271667" lon="-9.1077">
        <ele>1.0</ele>
        <time>2019-05-16T10:03:43.913Z</time>
      </trkpt>
      <trkpt lat="38.80276333" lon="-9.10769167">
        <ele>1.0</ele>
        <time>2019-05-16T10:03:44.923Z</time>
      </trkpt>
      <trkpt lat="38.80276333" lon="-9.10769167">
        <ele>1.0</ele>
        <time>2019-05-16T10:03:45.911Z</time>
      </trkpt>
      <trkpt lat="38.80281" lon="-9.10766333">
        <ele>0.0</ele>
        <time>2019-05-16T10:03:46.920Z</time>
      </trkpt>
      <trkpt lat="38.80281" lon="-9.10766333">
        <ele>0.0</ele>
        <time>2019-05-16T10:03:47.908Z</time>
      </trkpt>
      <trkpt lat="38.80285667" lon="-9.10761167">
        <ele>0.0</ele>
        <time>2019-05-16T10:03:48.918Z</time>
      </trkpt>
      <trkpt lat="38.80285667" lon="-9.10761167">
        <ele>0.0</ele>
        <time>2019-05-16T10:03:49.903Z</time>
      </trkpt>
      <trkpt lat="38.802905" lon="-9.10755333">
        <ele>0.0</ele>
        <time>2019-05-16T10:03:50.912Z</time>
      </trkpt>
      <trkpt lat="38.802905" lon="-9.10755333">
        <ele>0.0</ele>
        <time>2019-05-16T10:03:51.933Z</time>
      </trkpt>
      <trkpt lat="38.80296" lon="-9.10749833">
        <ele>0.0</ele>
        <time>2019-05-16T10:03:52.938Z</time>
      </trkpt>
      <trkpt lat="38.80296" lon="-9.10749833">
        <ele>0.0</ele>
        <time>2019-05-16T10:03:53.903Z</time>
      </trkpt>
      <trkpt lat="38.80302" lon="-9.10745167">
        <ele>1.0</ele>
        <time>2019-05-16T10:03:54.918Z</time>
      </trkpt>
      <trkpt lat="38.80302" lon="-9.10745167">
        <ele>1.0</ele>
        <time>2019-05-16T10:03:55.901Z</time>
      </trkpt>
      <trkpt lat="38.80307667" lon="-9.10740667">
        <ele>0.0</ele>
        <time>2019-05-16T10:03:56.928Z</time>
      </trkpt>
      <trkpt lat="38.80307667" lon="-9.10740667">
        <ele>0.0</ele>
        <time>2019-05-16T10:03:57.924Z</time>
      </trkpt>
      <trkpt lat="38.80314167" lon="-9.10737">
        <ele>0.0</ele>
        <time>2019-05-16T10:03:58.897Z</time>
      </trkpt>
      <trkpt lat="38.80314167" lon="-9.10737">
        <ele>0.0</ele>
        <time>2019-05-16T10:03:59.915Z</time>
      </trkpt>
      <trkpt lat="38.80320667" lon="-9.10732333">
        <ele>-1.0</ele>
        <time>2019-05-16T10:04:00.932Z</time>
      </trkpt>
      <trkpt lat="38.80320667" lon="-9.10732333">
        <ele>-1.0</ele>
        <time>2019-05-16T10:04:01.920Z</time>
      </trkpt>
      <trkpt lat="38.803275" lon="-9.10728">
        <ele>-1.0</ele>
        <time>2019-05-16T10:04:02.930Z</time>
      </trkpt>
      <trkpt lat="38.803275" lon="-9.10728">
        <ele>-1.0</ele>
        <time>2019-05-16T10:04:03.905Z</time>
      </trkpt>
      <trkpt lat="38.80334667" lon="-9.10723833">
        <ele>-1.0</ele>
        <time>2019-05-16T10:04:04.933Z</time>
      </trkpt>
      <trkpt lat="38.803385" lon="-9.10722">
        <ele>-1.0</ele>
        <time>2019-05-16T10:04:05.934Z</time>
      </trkpt>
      <trkpt lat="38.80342333" lon="-9.1072">
        <ele>-2.0</ele>
        <time>2019-05-16T10:04:06.897Z</time>
      </trkpt>
      <trkpt lat="38.80342333" lon="-9.1072">
        <ele>-2.0</ele>
        <time>2019-05-16T10:04:07.925Z</time>
      </trkpt>
      <trkpt lat="38.803495" lon="-9.10715">
        <ele>-1.0</ele>
        <time>2019-05-16T10:04:08.934Z</time>
      </trkpt>
      <trkpt lat="38.803495" lon="-9.10715">
        <ele>-1.0</ele>
        <time>2019-05-16T10:04:09.922Z</time>
      </trkpt>
      <trkpt lat="38.80356167" lon="-9.10710167">
        <ele>-1.0</ele>
        <time>2019-05-16T10:04:10.901Z</time>
      </trkpt>
      <trkpt lat="38.80356167" lon="-9.10710167">
        <ele>-1.0</ele>
        <time>2019-05-16T10:04:11.912Z</time>
      </trkpt>
      <trkpt lat="38.80363" lon="-9.10705667">
        <ele>-1.0</ele>
        <time>2019-05-16T10:04:12.937Z</time>
      </trkpt>
      <trkpt lat="38.80363" lon="-9.10705667">
        <ele>-1.0</ele>
        <time>2019-05-16T10:04:13.907Z</time>
      </trkpt>
      <trkpt lat="38.80369667" lon="-9.10700833">
        <ele>-1.0</ele>
        <time>2019-05-16T10:04:14.927Z</time>
      </trkpt>
      <trkpt lat="38.80373" lon="-9.10698333">
        <ele>-1.0</ele>
        <time>2019-05-16T10:04:15.935Z</time>
      </trkpt>
      <trkpt lat="38.80373" lon="-9.10698333">
        <ele>-1.0</ele>
        <time>2019-05-16T10:04:16.929Z</time>
      </trkpt>
      <trkpt lat="38.80379833" lon="-9.10694">
        <ele>-2.0</ele>
        <time>2019-05-16T10:04:17.911Z</time>
      </trkpt>
      <trkpt lat="38.80383333" lon="-9.10692333">
        <ele>-2.0</ele>
        <time>2019-05-16T10:04:18.930Z</time>
      </trkpt>
      <trkpt lat="38.80383333" lon="-9.10692333">
        <ele>-2.0</ele>
        <time>2019-05-16T10:04:19.928Z</time>
      </trkpt>
      <trkpt lat="38.80390167" lon="-9.10688667">
        <ele>-2.0</ele>
        <time>2019-05-16T10:04:20.912Z</time>
      </trkpt>
      <trkpt lat="38.80390167" lon="-9.10688667">
        <ele>-2.0</ele>
        <time>2019-05-16T10:04:21.910Z</time>
      </trkpt>
      <trkpt lat="38.80397" lon="-9.106845">
        <ele>-3.0</ele>
        <time>2019-05-16T10:04:22.925Z</time>
      </trkpt>
      <trkpt lat="38.80397" lon="-9.106845">
        <ele>-3.0</ele>
        <time>2019-05-16T10:04:23.911Z</time>
      </trkpt>
      <trkpt lat="38.80403333" lon="-9.1068">
        <ele>-3.0</ele>
        <time>2019-05-16T10:04:24.925Z</time>
      </trkpt>
      <trkpt lat="38.80403333" lon="-9.1068">
        <ele>-3.0</ele>
        <time>2019-05-16T10:04:25.922Z</time>
      </trkpt>
      <trkpt lat="38.8041" lon="-9.10675833">
        <ele>-3.0</ele>
        <time>2019-05-16T10:04:26.932Z</time>
      </trkpt>
      <trkpt lat="38.8041" lon="-9.10675833">
        <ele>-3.0</ele>
        <time>2019-05-16T10:04:27.924Z</time>
      </trkpt>
      <trkpt lat="38.80416667" lon="-9.10671667">
        <ele>-3.0</ele>
        <time>2019-05-16T10:04:28.937Z</time>
      </trkpt>
      <trkpt lat="38.80419833" lon="-9.106695">
        <ele>-3.0</ele>
        <time>2019-05-16T10:04:29.908Z</time>
      </trkpt>
      <trkpt lat="38.80423167" lon="-9.10667167">
        <ele>-3.0</ele>
        <time>2019-05-16T10:04:30.902Z</time>
      </trkpt>
      <trkpt lat="38.80423167" lon="-9.10667167">
        <ele>-3.0</ele>
        <time>2019-05-16T10:04:31.921Z</time>
      </trkpt>
      <trkpt lat="38.80430167" lon="-9.10663833">
        <ele>-2.0</ele>
        <time>2019-05-16T10:04:32.930Z</time>
      </trkpt>
      <trkpt lat="38.80430167" lon="-9.10663833">
        <ele>-2.0</ele>
        <time>2019-05-16T10:04:33.922Z</time>
      </trkpt>
      <trkpt lat="38.80437" lon="-9.1066">
        <ele>-2.0</ele>
        <time>2019-05-16T10:04:34.935Z</time>
      </trkpt>
      <trkpt lat="38.80437" lon="-9.1066">
        <ele>-2.0</ele>
        <time>2019-05-16T10:04:35.920Z</time>
      </trkpt>
      <trkpt lat="38.80443833" lon="-9.10656">
        <ele>-2.0</ele>
        <time>2019-05-16T10:04:36.935Z</time>
      </trkpt>
      <trkpt lat="38.80447333" lon="-9.10654167">
        <ele>-2.0</ele>
        <time>2019-05-16T10:04:37.918Z</time>
      </trkpt>
      <trkpt lat="38.80447333" lon="-9.10654167">
        <ele>-2.0</ele>
        <time>2019-05-16T10:04:38.899Z</time>
      </trkpt>
      <trkpt lat="38.804545" lon="-9.10650833">
        <ele>-2.0</ele>
        <time>2019-05-16T10:04:39.932Z</time>
      </trkpt>
      <trkpt lat="38.804545" lon="-9.10650833">
        <ele>-2.0</ele>
        <time>2019-05-16T10:04:40.923Z</time>
      </trkpt>
      <trkpt lat="38.80461167" lon="-9.106475">
        <ele>-2.0</ele>
        <time>2019-05-16T10:04:41.905Z</time>
      </trkpt>
      <trkpt lat="38.80464833" lon="-9.10646">
        <ele>-2.0</ele>
        <time>2019-05-16T10:04:42.937Z</time>
      </trkpt>
      <trkpt lat="38.80464833" lon="-9.10646">
        <ele>-2.0</ele>
        <time>2019-05-16T10:04:43.900Z</time>
      </trkpt>
      <trkpt lat="38.80471833" lon="-9.10643333">
        <ele>-2.0</ele>
        <time>2019-05-16T10:04:44.913Z</time>
      </trkpt>
      <trkpt lat="38.80471833" lon="-9.10643333">
        <ele>-2.0</ele>
        <time>2019-05-16T10:04:45.901Z</time>
      </trkpt>
      <trkpt lat="38.804785" lon="-9.10640333">
        <ele>-1.0</ele>
        <time>2019-05-16T10:04:46.913Z</time>
      </trkpt>
      <trkpt lat="38.804785" lon="-9.10640333">
        <ele>-1.0</ele>
        <time>2019-05-16T10:04:47.911Z</time>
      </trkpt>
      <trkpt lat="38.80485167" lon="-9.10637">
        <ele>-1.0</ele>
        <time>2019-05-16T10:04:48.922Z</time>
      </trkpt>
      <trkpt lat="38.80485167" lon="-9.10637">
        <ele>-1.0</ele>
        <time>2019-05-16T10:04:49.905Z</time>
      </trkpt>
      <trkpt lat="38.80491833" lon="-9.10633333">
        <ele>-1.0</ele>
        <time>2019-05-16T10:04:50.916Z</time>
      </trkpt>
      <trkpt lat="38.80491833" lon="-9.10633333">
        <ele>-1.0</ele>
        <time>2019-05-16T10:04:51.931Z</time>
      </trkpt>
      <trkpt lat="38.80498167" lon="-9.106295">
        <ele>-1.0</ele>
        <time>2019-05-16T10:04:52.902Z</time>
      </trkpt>
      <trkpt lat="38.80498167" lon="-9.106295">
        <ele>-1.0</ele>
        <time>2019-05-16T10:04:53.897Z</time>
      </trkpt>
      <trkpt lat="38.805045" lon="-9.10625833">
        <ele>-1.0</ele>
        <time>2019-05-16T10:04:54.934Z</time>
      </trkpt>
      <trkpt lat="38.805045" lon="-9.10625833">
        <ele>-1.0</ele>
        <time>2019-05-16T10:04:55.927Z</time>
      </trkpt>
      <trkpt lat="38.805115" lon="-9.10622667">
        <ele>-1.0</ele>
        <time>2019-05-16T10:04:56.911Z</time>
      </trkpt>
      <trkpt lat="38.805115" lon="-9.10622667">
        <ele>-1.0</ele>
        <time>2019-05-16T10:04:57.904Z</time>
      </trkpt>
      <trkpt lat="38.80519" lon="-9.10622667">
        <ele>-2.0</ele>
        <time>2019-05-16T10:04:58.912Z</time>
      </trkpt>
      <trkpt lat="38.80519" lon="-9.10622667">
        <ele>-2.0</ele>
        <time>2019-05-16T10:04:59.922Z</time>
      </trkpt>
      <trkpt lat="38.80526167" lon="-9.106225">
        <ele>-2.0</ele>
        <time>2019-05-16T10:05:00.899Z</time>
      </trkpt>
      <trkpt lat="38.80526167" lon="-9.106225">
        <ele>-2.0</ele>
        <time>2019-05-16T10:05:01.933Z</time>
      </trkpt>
      <trkpt lat="38.805335" lon="-9.10621833">
        <ele>-1.0</ele>
        <time>2019-05-16T10:05:02.902Z</time>
      </trkpt>
      <trkpt lat="38.805335" lon="-9.10621833">
        <ele>-1.0</ele>
        <time>2019-05-16T10:05:03.904Z</time>
      </trkpt>
      <trkpt lat="38.80541" lon="-9.10620667">
        <ele>-1.0</ele>
        <time>2019-05-16T10:05:04.914Z</time>
      </trkpt>
      <trkpt lat="38.80541" lon="-9.10620667">
        <ele>-1.0</ele>
        <time>2019-05-16T10:05:05.931Z</time>
      </trkpt>
      <trkpt lat="38.805485" lon="-9.10619667">
        <ele>-1.0</ele>
        <time>2019-05-16T10:05:06.900Z</time>
      </trkpt>
      <trkpt lat="38.805485" lon="-9.10619667">
        <ele>-1.0</ele>
        <time>2019-05-16T10:05:07.925Z</time>
      </trkpt>
      <trkpt lat="38.80556333" lon="-9.10618833">
        <ele>-1.0</ele>
        <time>2019-05-16T10:05:08.901Z</time>
      </trkpt>
      <trkpt lat="38.80560333" lon="-9.106185">
        <ele>-1.0</ele>
        <time>2019-05-16T10:05:09.930Z</time>
      </trkpt>
      <trkpt lat="38.80564333" lon="-9.10619">
        <ele>0.0</ele>
        <time>2019-05-16T10:05:10.932Z</time>
      </trkpt>
      <trkpt lat="38.80564333" lon="-9.10619">
        <ele>0.0</ele>
        <time>2019-05-16T10:05:11.914Z</time>
      </trkpt>
      <trkpt lat="38.80572333" lon="-9.10621667">
        <ele>0.0</ele>
        <time>2019-05-16T10:05:12.905Z</time>
      </trkpt>
      <trkpt lat="38.80572333" lon="-9.10621667">
        <ele>0.0</ele>
        <time>2019-05-16T10:05:13.927Z</time>
      </trkpt>
      <trkpt lat="38.805805" lon="-9.10624167">
        <ele>0.0</ele>
        <time>2019-05-16T10:05:14.898Z</time>
      </trkpt>
      <trkpt lat="38.805805" lon="-9.10624167">
        <ele>0.0</ele>
        <time>2019-05-16T10:05:15.913Z</time>
      </trkpt>
      <trkpt lat="38.80588667" lon="-9.10625833">
        <ele>0.0</ele>
        <time>2019-05-16T10:05:16.897Z</time>
      </trkpt>
      <trkpt lat="38.805925" lon="-9.10626167">
        <ele>0.0</ele>
        <time>2019-05-16T10:05:17.908Z</time>
      </trkpt>
      <trkpt lat="38.80596167" lon="-9.10626333">
        <ele>0.0</ele>
        <time>2019-05-16T10:05:18.930Z</time>
      </trkpt>
      <trkpt lat="38.80596167" lon="-9.10626333">
        <ele>0.0</ele>
        <time>2019-05-16T10:05:19.902Z</time>
      </trkpt>
      <trkpt lat="38.80603333" lon="-9.10626">
        <ele>1.0</ele>
        <time>2019-05-16T10:05:20.901Z</time>
      </trkpt>
      <trkpt lat="38.80603333" lon="-9.10626">
        <ele>1.0</ele>
        <time>2019-05-16T10:05:21.924Z</time>
      </trkpt>
      <trkpt lat="38.80609833" lon="-9.10623833">
        <ele>0.0</ele>
        <time>2019-05-16T10:05:22.899Z</time>
      </trkpt>
      <trkpt lat="38.80609833" lon="-9.10623833">
        <ele>0.0</ele>
        <time>2019-05-16T10:05:23.919Z</time>
      </trkpt>
      <trkpt lat="38.80615667" lon="-9.10619">
        <ele>0.0</ele>
        <time>2019-05-16T10:05:24.932Z</time>
      </trkpt>
      <trkpt lat="38.80615667" lon="-9.10619">
        <ele>0.0</ele>
        <time>2019-05-16T10:05:25.911Z</time>
      </trkpt>
      <trkpt lat="38.80621667" lon="-9.10616">
        <ele>0.0</ele>
        <time>2019-05-16T10:05:26.932Z</time>
      </trkpt>
      <trkpt lat="38.80621667" lon="-9.10616">
        <ele>0.0</ele>
        <time>2019-05-16T10:05:27.933Z</time>
      </trkpt>
      <trkpt lat="38.80627667" lon="-9.10614">
        <ele>0.0</ele>
        <time>2019-05-16T10:05:28.908Z</time>
      </trkpt>
      <trkpt lat="38.80627667" lon="-9.10614">
        <ele>0.0</ele>
        <time>2019-05-16T10:05:29.909Z</time>
      </trkpt>
      <trkpt lat="38.80633833" lon="-9.10611833">
        <ele>0.0</ele>
        <time>2019-05-16T10:05:30.926Z</time>
      </trkpt>
      <trkpt lat="38.80633833" lon="-9.10611833">
        <ele>0.0</ele>
        <time>2019-05-16T10:05:31.927Z</time>
      </trkpt>
      <trkpt lat="38.80639833" lon="-9.10609667">
        <ele>0.0</ele>
        <time>2019-05-16T10:05:32.902Z</time>
      </trkpt>
      <trkpt lat="38.80643" lon="-9.10608833">
        <ele>0.0</ele>
        <time>2019-05-16T10:05:33.920Z</time>
      </trkpt>
      <trkpt lat="38.80643" lon="-9.10608833">
        <ele>0.0</ele>
        <time>2019-05-16T10:05:34.927Z</time>
      </trkpt>
      <trkpt lat="38.80648833" lon="-9.10607833">
        <ele>0.0</ele>
        <time>2019-05-16T10:05:35.910Z</time>
      </trkpt>
      <trkpt lat="38.80651833" lon="-9.10607333">
        <ele>0.0</ele>
        <time>2019-05-16T10:05:36.907Z</time>
      </trkpt>
      <trkpt lat="38.80651833" lon="-9.10607333">
        <ele>0.0</ele>
        <time>2019-05-16T10:05:37.926Z</time>
      </trkpt>
      <trkpt lat="38.80657667" lon="-9.10606167">
        <ele>0.0</ele>
        <time>2019-05-16T10:05:38.923Z</time>
      </trkpt>
      <trkpt lat="38.80657667" lon="-9.10606167">
        <ele>0.0</ele>
        <time>2019-05-16T10:05:39.934Z</time>
      </trkpt>
      <trkpt lat="38.80663667" lon="-9.10604833">
        <ele>0.0</ele>
        <time>2019-05-16T10:05:40.904Z</time>
      </trkpt>
      <trkpt lat="38.806665" lon="-9.10604167">
        <ele>0.0</ele>
        <time>2019-05-16T10:05:41.933Z</time>
      </trkpt>
      <trkpt lat="38.806695" lon="-9.10603333">
        <ele>0.0</ele>
        <time>2019-05-16T10:05:42.923Z</time>
      </trkpt>
      <trkpt lat="38.806695" lon="-9.10603333">
        <ele>0.0</ele>
        <time>2019-05-16T10:05:43.930Z</time>
      </trkpt>
      <trkpt lat="38.80675667" lon="-9.10601833">
        <ele>0.0</ele>
        <time>2019-05-16T10:05:44.899Z</time>
      </trkpt>
      <trkpt lat="38.80675667" lon="-9.10601833">
        <ele>0.0</ele>
        <time>2019-05-16T10:05:45.932Z</time>
      </trkpt>
      <trkpt lat="38.80682167" lon="-9.10600833">
        <ele>0.0</ele>
        <time>2019-05-16T10:05:46.903Z</time>
      </trkpt>
      <trkpt lat="38.80682167" lon="-9.10600833">
        <ele>0.0</ele>
        <time>2019-05-16T10:05:47.927Z</time>
      </trkpt>
      <trkpt lat="38.80689" lon="-9.106">
        <ele>0.0</ele>
        <time>2019-05-16T10:05:48.937Z</time>
      </trkpt>
      <trkpt lat="38.80689" lon="-9.106">
        <ele>0.0</ele>
        <time>2019-05-16T10:05:49.928Z</time>
      </trkpt>
      <trkpt lat="38.80695167" lon="-9.10598167">
        <ele>0.0</ele>
        <time>2019-05-16T10:05:50.898Z</time>
      </trkpt>
      <trkpt lat="38.80695167" lon="-9.10598167">
        <ele>0.0</ele>
        <time>2019-05-16T10:05:51.911Z</time>
      </trkpt>
      <trkpt lat="38.80701167" lon="-9.10596833">
        <ele>0.0</ele>
        <time>2019-05-16T10:05:52.912Z</time>
      </trkpt>
      <trkpt lat="38.80701167" lon="-9.10596833">
        <ele>0.0</ele>
        <time>2019-05-16T10:05:53.899Z</time>
      </trkpt>
      <trkpt lat="38.80707" lon="-9.10595333">
        <ele>0.0</ele>
        <time>2019-05-16T10:05:54.912Z</time>
      </trkpt>
      <trkpt lat="38.80707" lon="-9.10595333">
        <ele>0.0</ele>
        <time>2019-05-16T10:05:55.901Z</time>
      </trkpt>
      <trkpt lat="38.80713167" lon="-9.10594">
        <ele>0.0</ele>
        <time>2019-05-16T10:05:56.911Z</time>
      </trkpt>
      <trkpt lat="38.80713167" lon="-9.10594">
        <ele>0.0</ele>
        <time>2019-05-16T10:05:57.936Z</time>
      </trkpt>
      <trkpt lat="38.807195" lon="-9.105925">
        <ele>0.0</ele>
        <time>2019-05-16T10:05:58.904Z</time>
      </trkpt>
      <trkpt lat="38.80723" lon="-9.10592">
        <ele>0.0</ele>
        <time>2019-05-16T10:05:59.935Z</time>
      </trkpt>
      <trkpt lat="38.80726333" lon="-9.10591667">
        <ele>0.0</ele>
        <time>2019-05-16T10:06:00.937Z</time>
      </trkpt>
      <trkpt lat="38.80726333" lon="-9.10591667">
        <ele>0.0</ele>
        <time>2019-05-16T10:06:01.906Z</time>
      </trkpt>
      <trkpt lat="38.80733333" lon="-9.10590833">
        <ele>0.0</ele>
        <time>2019-05-16T10:06:02.917Z</time>
      </trkpt>
      <trkpt lat="38.80733333" lon="-9.10590833">
        <ele>0.0</ele>
        <time>2019-05-16T10:06:03.906Z</time>
      </trkpt>
      <trkpt lat="38.807405" lon="-9.1059">
        <ele>0.0</ele>
        <time>2019-05-16T10:06:04.912Z</time>
      </trkpt>
      <trkpt lat="38.80744" lon="-9.105895">
        <ele>0.0</ele>
        <time>2019-05-16T10:06:05.916Z</time>
      </trkpt>
      <trkpt lat="38.807475" lon="-9.10589167">
        <ele>-1.0</ele>
        <time>2019-05-16T10:06:06.901Z</time>
      </trkpt>
      <trkpt lat="38.807475" lon="-9.10589167">
        <ele>-1.0</ele>
        <time>2019-05-16T10:06:07.912Z</time>
      </trkpt>
      <trkpt lat="38.80754333" lon="-9.105885">
        <ele>-1.0</ele>
        <time>2019-05-16T10:06:08.927Z</time>
      </trkpt>
      <trkpt lat="38.80757667" lon="-9.10587833">
        <ele>-1.0</ele>
        <time>2019-05-16T10:06:09.934Z</time>
      </trkpt>
      <trkpt lat="38.80757667" lon="-9.10587833">
        <ele>-1.0</ele>
        <time>2019-05-16T10:06:10.916Z</time>
      </trkpt>
      <trkpt lat="38.807645" lon="-9.105865">
        <ele>-1.0</ele>
        <time>2019-05-16T10:06:11.928Z</time>
      </trkpt>
      <trkpt lat="38.807645" lon="-9.105865">
        <ele>-1.0</ele>
        <time>2019-05-16T10:06:12.907Z</time>
      </trkpt>
      <trkpt lat="38.80771833" lon="-9.10586333">
        <ele>0.0</ele>
        <time>2019-05-16T10:06:13.920Z</time>
      </trkpt>
      <trkpt lat="38.80775333" lon="-9.10586">
        <ele>0.0</ele>
        <time>2019-05-16T10:06:14.938Z</time>
      </trkpt>
      <trkpt lat="38.80775333" lon="-9.10586">
        <ele>0.0</ele>
        <time>2019-05-16T10:06:15.902Z</time>
      </trkpt>
      <trkpt lat="38.80783" lon="-9.105865">
        <ele>-1.0</ele>
        <time>2019-05-16T10:06:16.897Z</time>
      </trkpt>
      <trkpt lat="38.80783" lon="-9.105865">
        <ele>-1.0</ele>
        <time>2019-05-16T10:06:17.931Z</time>
      </trkpt>
      <trkpt lat="38.80791167" lon="-9.10586">
        <ele>-1.0</ele>
        <time>2019-05-16T10:06:18.906Z</time>
      </trkpt>
      <trkpt lat="38.80791167" lon="-9.10586">
        <ele>-1.0</ele>
        <time>2019-05-16T10:06:19.924Z</time>
      </trkpt>
      <trkpt lat="38.807985" lon="-9.10586">
        <ele>-2.0</ele>
        <time>2019-05-16T10:06:20.907Z</time>
      </trkpt>
      <trkpt lat="38.807985" lon="-9.10586">
        <ele>-2.0</ele>
        <time>2019-05-16T10:06:21.924Z</time>
      </trkpt>
      <trkpt lat="38.80805167" lon="-9.10586833">
        <ele>-2.0</ele>
        <time>2019-05-16T10:06:22.898Z</time>
      </trkpt>
      <trkpt lat="38.80805167" lon="-9.10586833">
        <ele>-2.0</ele>
        <time>2019-05-16T10:06:23.901Z</time>
      </trkpt>
      <trkpt lat="38.80811" lon="-9.10587667">
        <ele>-2.0</ele>
        <time>2019-05-16T10:06:24.914Z</time>
      </trkpt>
      <trkpt lat="38.80811" lon="-9.10587667">
        <ele>-2.0</ele>
        <time>2019-05-16T10:06:25.900Z</time>
      </trkpt>
      <trkpt lat="38.80817" lon="-9.10588167">
        <ele>-2.0</ele>
        <time>2019-05-16T10:06:26.911Z</time>
      </trkpt>
      <trkpt lat="38.80817" lon="-9.10588167">
        <ele>-2.0</ele>
        <time>2019-05-16T10:06:27.923Z</time>
      </trkpt>
      <trkpt lat="38.80822833" lon="-9.10588667">
        <ele>-2.0</ele>
        <time>2019-05-16T10:06:28.931Z</time>
      </trkpt>
      <trkpt lat="38.80826" lon="-9.10589">
        <ele>-2.0</ele>
        <time>2019-05-16T10:06:29.897Z</time>
      </trkpt>
      <trkpt lat="38.80829" lon="-9.10589333">
        <ele>-2.0</ele>
        <time>2019-05-16T10:06:30.905Z</time>
      </trkpt>
      <trkpt lat="38.80829" lon="-9.10589333">
        <ele>-2.0</ele>
        <time>2019-05-16T10:06:31.927Z</time>
      </trkpt>
      <trkpt lat="38.808345" lon="-9.105895">
        <ele>-2.0</ele>
        <time>2019-05-16T10:06:32.899Z</time>
      </trkpt>
      <trkpt lat="38.808345" lon="-9.105895">
        <ele>-2.0</ele>
        <time>2019-05-16T10:06:33.899Z</time>
      </trkpt>
      <trkpt lat="38.80839667" lon="-9.10590333">
        <ele>-2.0</ele>
        <time>2019-05-16T10:06:34.907Z</time>
      </trkpt>
      <trkpt lat="38.80842333" lon="-9.10590667">
        <ele>-2.0</ele>
        <time>2019-05-16T10:06:35.907Z</time>
      </trkpt>
      <trkpt lat="38.80844833" lon="-9.10591">
        <ele>-2.0</ele>
        <time>2019-05-16T10:06:36.932Z</time>
      </trkpt>
      <trkpt lat="38.80844833" lon="-9.10591">
        <ele>-2.0</ele>
        <time>2019-05-16T10:06:37.911Z</time>
      </trkpt>
      <trkpt lat="38.80850667" lon="-9.10591333">
        <ele>-2.0</ele>
        <time>2019-05-16T10:06:38.926Z</time>
      </trkpt>
      <trkpt lat="38.80850667" lon="-9.10591333">
        <ele>-2.0</ele>
        <time>2019-05-16T10:06:39.918Z</time>
      </trkpt>
      <trkpt lat="38.808565" lon="-9.10592333">
        <ele>-2.0</ele>
        <time>2019-05-16T10:06:40.933Z</time>
      </trkpt>
      <trkpt lat="38.808565" lon="-9.10592333">
        <ele>-2.0</ele>
        <time>2019-05-16T10:06:41.927Z</time>
      </trkpt>
      <trkpt lat="38.808625" lon="-9.10593">
        <ele>-2.0</ele>
        <time>2019-05-16T10:06:42.936Z</time>
      </trkpt>
      <trkpt lat="38.808625" lon="-9.10593">
        <ele>-2.0</ele>
        <time>2019-05-16T10:06:43.935Z</time>
      </trkpt>
      <trkpt lat="38.808685" lon="-9.10593833">
        <ele>-2.0</ele>
        <time>2019-05-16T10:06:44.910Z</time>
      </trkpt>
      <trkpt lat="38.80871667" lon="-9.10594333">
        <ele>-2.0</ele>
        <time>2019-05-16T10:06:45.903Z</time>
      </trkpt>
      <trkpt lat="38.80871667" lon="-9.10594333">
        <ele>-2.0</ele>
        <time>2019-05-16T10:06:46.921Z</time>
      </trkpt>
      <trkpt lat="38.80877833" lon="-9.10595167">
        <ele>-2.0</ele>
        <time>2019-05-16T10:06:47.932Z</time>
      </trkpt>
      <trkpt lat="38.80880667" lon="-9.105955">
        <ele>-2.0</ele>
        <time>2019-05-16T10:06:48.921Z</time>
      </trkpt>
      <trkpt lat="38.80880667" lon="-9.105955">
        <ele>-2.0</ele>
        <time>2019-05-16T10:06:49.916Z</time>
      </trkpt>
      <trkpt lat="38.80886333" lon="-9.105965">
        <ele>-2.0</ele>
        <time>2019-05-16T10:06:50.933Z</time>
      </trkpt>
      <trkpt lat="38.80886333" lon="-9.105965">
        <ele>-2.0</ele>
        <time>2019-05-16T10:06:51.922Z</time>
      </trkpt>
      <trkpt lat="38.808925" lon="-9.10597167">
        <ele>-2.0</ele>
        <time>2019-05-16T10:06:52.908Z</time>
      </trkpt>
      <trkpt lat="38.808925" lon="-9.10597167">
        <ele>-2.0</ele>
        <time>2019-05-16T10:06:53.897Z</time>
      </trkpt>
      <trkpt lat="38.80898333" lon="-9.10598667">
        <ele>-2.0</ele>
        <time>2019-05-16T10:06:54.906Z</time>
      </trkpt>
      <trkpt lat="38.80898333" lon="-9.10598667">
        <ele>-2.0</ele>
        <time>2019-05-16T10:06:55.934Z</time>
      </trkpt>
      <trkpt lat="38.80903167" lon="-9.10599333">
        <ele>-1.0</ele>
        <time>2019-05-16T10:06:56.901Z</time>
      </trkpt>
      <trkpt lat="38.80903167" lon="-9.10599333">
        <ele>-1.0</ele>
        <time>2019-05-16T10:06:57.902Z</time>
      </trkpt>
      <trkpt lat="38.809075" lon="-9.10600333">
        <ele>-1.0</ele>
        <time>2019-05-16T10:06:58.933Z</time>
      </trkpt>
      <trkpt lat="38.809075" lon="-9.10600333">
        <ele>-1.0</ele>
        <time>2019-05-16T10:06:59.922Z</time>
      </trkpt>
      <trkpt lat="38.809115" lon="-9.106015">
        <ele>-1.0</ele>
        <time>2019-05-16T10:07:00.933Z</time>
      </trkpt>
      <trkpt lat="38.809115" lon="-9.106015">
        <ele>-1.0</ele>
        <time>2019-05-16T10:07:01.930Z</time>
      </trkpt>
      <trkpt lat="38.80916333" lon="-9.10603333">
        <ele>-1.0</ele>
        <time>2019-05-16T10:07:02.912Z</time>
      </trkpt>
      <trkpt lat="38.80916333" lon="-9.10603333">
        <ele>-1.0</ele>
        <time>2019-05-16T10:07:03.899Z</time>
      </trkpt>
      <trkpt lat="38.80921333" lon="-9.10604833">
        <ele>-1.0</ele>
        <time>2019-05-16T10:07:04.909Z</time>
      </trkpt>
      <trkpt lat="38.80921333" lon="-9.10604833">
        <ele>-1.0</ele>
        <time>2019-05-16T10:07:05.897Z</time>
      </trkpt>
      <trkpt lat="38.809265" lon="-9.10606667">
        <ele>-1.0</ele>
        <time>2019-05-16T10:07:06.910Z</time>
      </trkpt>
      <trkpt lat="38.809265" lon="-9.10606667">
        <ele>-1.0</ele>
        <time>2019-05-16T10:07:07.899Z</time>
      </trkpt>
      <trkpt lat="38.80932" lon="-9.10608167">
        <ele>-1.0</ele>
        <time>2019-05-16T10:07:08.906Z</time>
      </trkpt>
      <trkpt lat="38.80932" lon="-9.10608167">
        <ele>-1.0</ele>
        <time>2019-05-16T10:07:09.930Z</time>
      </trkpt>
      <trkpt lat="38.80937333" lon="-9.10610333">
        <ele>-1.0</ele>
        <time>2019-05-16T10:07:10.901Z</time>
      </trkpt>
      <trkpt lat="38.80937333" lon="-9.10610333">
        <ele>-1.0</ele>
        <time>2019-05-16T10:07:11.898Z</time>
      </trkpt>
      <trkpt lat="38.80942833" lon="-9.10612333">
        <ele>-1.0</ele>
        <time>2019-05-16T10:07:12.907Z</time>
      </trkpt>
      <trkpt lat="38.80942833" lon="-9.10612333">
        <ele>-1.0</ele>
        <time>2019-05-16T10:07:13.899Z</time>
      </trkpt>
      <trkpt lat="38.809485" lon="-9.106145">
        <ele>-1.0</ele>
        <time>2019-05-16T10:07:14.913Z</time>
      </trkpt>
      <trkpt lat="38.809485" lon="-9.106145">
        <ele>-1.0</ele>
        <time>2019-05-16T10:07:15.901Z</time>
      </trkpt>
      <trkpt lat="38.80954333" lon="-9.106165">
        <ele>-1.0</ele>
        <time>2019-05-16T10:07:16.930Z</time>
      </trkpt>
      <trkpt lat="38.80957167" lon="-9.10617833">
        <ele>-1.0</ele>
        <time>2019-05-16T10:07:17.931Z</time>
      </trkpt>
      <trkpt lat="38.8096" lon="-9.10619">
        <ele>-1.0</ele>
        <time>2019-05-16T10:07:18.913Z</time>
      </trkpt>
      <trkpt lat="38.8096" lon="-9.10619">
        <ele>-1.0</ele>
        <time>2019-05-16T10:07:19.922Z</time>
      </trkpt>
      <trkpt lat="38.80965" lon="-9.10621">
        <ele>-1.0</ele>
        <time>2019-05-16T10:07:20.920Z</time>
      </trkpt>
      <trkpt lat="38.80965" lon="-9.10621">
        <ele>-1.0</ele>
        <time>2019-05-16T10:07:21.909Z</time>
      </trkpt>
      <trkpt lat="38.80969667" lon="-9.10623333">
        <ele>-2.0</ele>
        <time>2019-05-16T10:07:22.901Z</time>
      </trkpt>
      <trkpt lat="38.80969667" lon="-9.10623333">
        <ele>-2.0</ele>
        <time>2019-05-16T10:07:23.930Z</time>
      </trkpt>
      <trkpt lat="38.80974" lon="-9.10624833">
        <ele>-2.0</ele>
        <time>2019-05-16T10:07:24.898Z</time>
      </trkpt>
      <trkpt lat="38.80974" lon="-9.10624833">
        <ele>-2.0</ele>
        <time>2019-05-16T10:07:25.931Z</time>
      </trkpt>
      <trkpt lat="38.80978167" lon="-9.10626333">
        <ele>-2.0</ele>
        <time>2019-05-16T10:07:26.898Z</time>
      </trkpt>
      <trkpt lat="38.80978167" lon="-9.10626333">
        <ele>-2.0</ele>
        <time>2019-05-16T10:07:27.914Z</time>
      </trkpt>
      <trkpt lat="38.80982667" lon="-9.10628667">
        <ele>-2.0</ele>
        <time>2019-05-16T10:07:28.937Z</time>
      </trkpt>
      <trkpt lat="38.80982667" lon="-9.10628667">
        <ele>-2.0</ele>
        <time>2019-05-16T10:07:29.918Z</time>
      </trkpt>
      <trkpt lat="38.80988167" lon="-9.10630833">
        <ele>-2.0</ele>
        <time>2019-05-16T10:07:30.930Z</time>
      </trkpt>
      <trkpt lat="38.80988167" lon="-9.10630833">
        <ele>-2.0</ele>
        <time>2019-05-16T10:07:31.914Z</time>
      </trkpt>
      <trkpt lat="38.80993667" lon="-9.10633667">
        <ele>-2.0</ele>
        <time>2019-05-16T10:07:32.924Z</time>
      </trkpt>
      <trkpt lat="38.80993667" lon="-9.10633667">
        <ele>-2.0</ele>
        <time>2019-05-16T10:07:33.908Z</time>
      </trkpt>
      <trkpt lat="38.80999167" lon="-9.10636333">
        <ele>-2.0</ele>
        <time>2019-05-16T10:07:34.915Z</time>
      </trkpt>
      <trkpt lat="38.80999167" lon="-9.10636333">
        <ele>-2.0</ele>
        <time>2019-05-16T10:07:35.931Z</time>
      </trkpt>
      <trkpt lat="38.81004333" lon="-9.10639667">
        <ele>-1.0</ele>
        <time>2019-05-16T10:07:37.000Z</time>
      </trkpt>
      <trkpt lat="38.81004333" lon="-9.10639667">
        <ele>-1.0</ele>
        <time>2019-05-16T10:07:37.935Z</time>
      </trkpt>
      <trkpt lat="38.8101" lon="-9.10642833">
        <ele>-1.0</ele>
        <time>2019-05-16T10:07:38.911Z</time>
      </trkpt>
      <trkpt lat="38.8101" lon="-9.10642833">
        <ele>-1.0</ele>
        <time>2019-05-16T10:07:39.903Z</time>
      </trkpt>
      <trkpt lat="38.81015333" lon="-9.10646167">
        <ele>-1.0</ele>
        <time>2019-05-16T10:07:40.911Z</time>
      </trkpt>
      <trkpt lat="38.81015333" lon="-9.10646167">
        <ele>-1.0</ele>
        <time>2019-05-16T10:07:41.903Z</time>
      </trkpt>
      <trkpt lat="38.81020167" lon="-9.10649833">
        <ele>1.0</ele>
        <time>2019-05-16T10:07:42.912Z</time>
      </trkpt>
      <trkpt lat="38.81020167" lon="-9.10649833">
        <ele>1.0</ele>
        <time>2019-05-16T10:07:43.917Z</time>
      </trkpt>
      <trkpt lat="38.81024667" lon="-9.10652833">
        <ele>1.0</ele>
        <time>2019-05-16T10:07:44.898Z</time>
      </trkpt>
      <trkpt lat="38.81024667" lon="-9.10652833">
        <ele>1.0</ele>
        <time>2019-05-16T10:07:45.911Z</time>
      </trkpt>
      <trkpt lat="38.81029833" lon="-9.10656167">
        <ele>2.0</ele>
        <time>2019-05-16T10:07:46.928Z</time>
      </trkpt>
      <trkpt lat="38.81029833" lon="-9.10656167">
        <ele>2.0</ele>
        <time>2019-05-16T10:07:47.903Z</time>
      </trkpt>
      <trkpt lat="38.81035167" lon="-9.10659667">
        <ele>2.0</ele>
        <time>2019-05-16T10:07:48.920Z</time>
      </trkpt>
      <trkpt lat="38.81035167" lon="-9.10659667">
        <ele>2.0</ele>
        <time>2019-05-16T10:07:49.902Z</time>
      </trkpt>
      <trkpt lat="38.81040833" lon="-9.10663167">
        <ele>3.0</ele>
        <time>2019-05-16T10:07:50.912Z</time>
      </trkpt>
      <trkpt lat="38.81040833" lon="-9.10663167">
        <ele>3.0</ele>
        <time>2019-05-16T10:07:51.900Z</time>
      </trkpt>
      <trkpt lat="38.81046333" lon="-9.10667">
        <ele>4.0</ele>
        <time>2019-05-16T10:07:52.914Z</time>
      </trkpt>
      <trkpt lat="38.81046333" lon="-9.10667">
        <ele>4.0</ele>
        <time>2019-05-16T10:07:53.928Z</time>
      </trkpt>
      <trkpt lat="38.81052" lon="-9.10670833">
        <ele>4.0</ele>
        <time>2019-05-16T10:07:54.900Z</time>
      </trkpt>
      <trkpt lat="38.81052" lon="-9.10670833">
        <ele>4.0</ele>
        <time>2019-05-16T10:07:55.911Z</time>
      </trkpt>
      <trkpt lat="38.81058333" lon="-9.10673833">
        <ele>4.0</ele>
        <time>2019-05-16T10:07:56.923Z</time>
      </trkpt>
      <trkpt lat="38.81058333" lon="-9.10673833">
        <ele>4.0</ele>
        <time>2019-05-16T10:07:57.904Z</time>
      </trkpt>
      <trkpt lat="38.81064333" lon="-9.10678167">
        <ele>4.0</ele>
        <time>2019-05-16T10:07:58.914Z</time>
      </trkpt>
      <trkpt lat="38.81067333" lon="-9.10680333">
        <ele>4.0</ele>
        <time>2019-05-16T10:07:59.929Z</time>
      </trkpt>
      <trkpt lat="38.810705" lon="-9.106825">
        <ele>3.0</ele>
        <time>2019-05-16T10:08:00.910Z</time>
      </trkpt>
      <trkpt lat="38.810705" lon="-9.106825">
        <ele>3.0</ele>
        <time>2019-05-16T10:08:01.914Z</time>
      </trkpt>
      <trkpt lat="38.81076833" lon="-9.10686333">
        <ele>3.0</ele>
        <time>2019-05-16T10:08:02.923Z</time>
      </trkpt>
      <trkpt lat="38.81076833" lon="-9.10686333">
        <ele>3.0</ele>
        <time>2019-05-16T10:08:03.911Z</time>
      </trkpt>
      <trkpt lat="38.81082833" lon="-9.10690167">
        <ele>3.0</ele>
        <time>2019-05-16T10:08:04.925Z</time>
      </trkpt>
      <trkpt lat="38.81082833" lon="-9.10690167">
        <ele>3.0</ele>
        <time>2019-05-16T10:08:05.919Z</time>
      </trkpt>
      <trkpt lat="38.81088833" lon="-9.106945">
        <ele>3.0</ele>
        <time>2019-05-16T10:08:06.929Z</time>
      </trkpt>
      <trkpt lat="38.81088833" lon="-9.106945">
        <ele>3.0</ele>
        <time>2019-05-16T10:08:07.935Z</time>
      </trkpt>
      <trkpt lat="38.81094667" lon="-9.10698667">
        <ele>3.0</ele>
        <time>2019-05-16T10:08:08.903Z</time>
      </trkpt>
      <trkpt lat="38.81094667" lon="-9.10698667">
        <ele>3.0</ele>
        <time>2019-05-16T10:08:09.933Z</time>
      </trkpt>
      <trkpt lat="38.81100667" lon="-9.10702667">
        <ele>2.0</ele>
        <time>2019-05-16T10:08:10.903Z</time>
      </trkpt>
      <trkpt lat="38.81100667" lon="-9.10702667">
        <ele>2.0</ele>
        <time>2019-05-16T10:08:11.922Z</time>
      </trkpt>
      <trkpt lat="38.81106" lon="-9.10707167">
        <ele>2.0</ele>
        <time>2019-05-16T10:08:12.897Z</time>
      </trkpt>
      <trkpt lat="38.81106" lon="-9.10707167">
        <ele>2.0</ele>
        <time>2019-05-16T10:08:13.923Z</time>
      </trkpt>
      <trkpt lat="38.811115" lon="-9.10711333">
        <ele>3.0</ele>
        <time>2019-05-16T10:08:14.933Z</time>
      </trkpt>
      <trkpt lat="38.811115" lon="-9.10711333">
        <ele>3.0</ele>
        <time>2019-05-16T10:08:15.930Z</time>
      </trkpt>
      <trkpt lat="38.81117333" lon="-9.107155">
        <ele>3.0</ele>
        <time>2019-05-16T10:08:16.903Z</time>
      </trkpt>
      <trkpt lat="38.81117333" lon="-9.107155">
        <ele>3.0</ele>
        <time>2019-05-16T10:08:17.929Z</time>
      </trkpt>
      <trkpt lat="38.811225" lon="-9.10719833">
        <ele>3.0</ele>
        <time>2019-05-16T10:08:18.900Z</time>
      </trkpt>
      <trkpt lat="38.811225" lon="-9.10719833">
        <ele>3.0</ele>
        <time>2019-05-16T10:08:19.935Z</time>
      </trkpt>
      <trkpt lat="38.81127333" lon="-9.10725">
        <ele>3.0</ele>
        <time>2019-05-16T10:08:20.924Z</time>
      </trkpt>
      <trkpt lat="38.8113" lon="-9.10727833">
        <ele>3.0</ele>
        <time>2019-05-16T10:08:21.916Z</time>
      </trkpt>
      <trkpt lat="38.8113" lon="-9.10727833">
        <ele>3.0</ele>
        <time>2019-05-16T10:08:22.899Z</time>
      </trkpt>
      <trkpt lat="38.81135667" lon="-9.10733167">
        <ele>3.0</ele>
        <time>2019-05-16T10:08:23.913Z</time>
      </trkpt>
      <trkpt lat="38.81138667" lon="-9.10735833">
        <ele>3.0</ele>
        <time>2019-05-16T10:08:24.907Z</time>
      </trkpt>
      <trkpt lat="38.81138667" lon="-9.10735833">
        <ele>3.0</ele>
        <time>2019-05-16T10:08:25.901Z</time>
      </trkpt>
      <trkpt lat="38.81144667" lon="-9.10741667">
        <ele>3.0</ele>
        <time>2019-05-16T10:08:26.909Z</time>
      </trkpt>
      <trkpt lat="38.81144667" lon="-9.10741667">
        <ele>3.0</ele>
        <time>2019-05-16T10:08:27.906Z</time>
      </trkpt>
      <trkpt lat="38.81150333" lon="-9.10747167">
        <ele>3.0</ele>
        <time>2019-05-16T10:08:28.917Z</time>
      </trkpt>
      <trkpt lat="38.81153" lon="-9.10749833">
        <ele>3.0</ele>
        <time>2019-05-16T10:08:29.916Z</time>
      </trkpt>
      <trkpt lat="38.81155833" lon="-9.10752667">
        <ele>3.0</ele>
        <time>2019-05-16T10:08:30.919Z</time>
      </trkpt>
      <trkpt lat="38.81155833" lon="-9.10752667">
        <ele>3.0</ele>
        <time>2019-05-16T10:08:31.901Z</time>
      </trkpt>
      <trkpt lat="38.81161667" lon="-9.10758333">
        <ele>3.0</ele>
        <time>2019-05-16T10:08:32.921Z</time>
      </trkpt>
      <trkpt lat="38.81161667" lon="-9.10758333">
        <ele>3.0</ele>
        <time>2019-05-16T10:08:33.912Z</time>
      </trkpt>
      <trkpt lat="38.81168333" lon="-9.10764667">
        <ele>3.0</ele>
        <time>2019-05-16T10:08:34.928Z</time>
      </trkpt>
      <trkpt lat="38.81172" lon="-9.107685">
        <ele>3.0</ele>
        <time>2019-05-16T10:08:35.938Z</time>
      </trkpt>
      <trkpt lat="38.81174833" lon="-9.10772833">
        <ele>4.0</ele>
        <time>2019-05-16T10:08:36.903Z</time>
      </trkpt>
      <trkpt lat="38.81174833" lon="-9.10772833">
        <ele>4.0</ele>
        <time>2019-05-16T10:08:37.902Z</time>
      </trkpt>
      <trkpt lat="38.81178833" lon="-9.10780833">
        <ele>3.0</ele>
        <time>2019-05-16T10:08:38.934Z</time>
      </trkpt>
      <trkpt lat="38.81178833" lon="-9.10780833">
        <ele>3.0</ele>
        <time>2019-05-16T10:08:39.929Z</time>
      </trkpt>
      <trkpt lat="38.81182667" lon="-9.10788">
        <ele>4.0</ele>
        <time>2019-05-16T10:08:40.901Z</time>
      </trkpt>
      <trkpt lat="38.81182667" lon="-9.10788">
        <ele>4.0</ele>
        <time>2019-05-16T10:08:41.925Z</time>
      </trkpt>
      <trkpt lat="38.81186333" lon="-9.107955">
        <ele>4.0</ele>
        <time>2019-05-16T10:08:42.932Z</time>
      </trkpt>
      <trkpt lat="38.81186333" lon="-9.107955">
        <ele>4.0</ele>
        <time>2019-05-16T10:08:43.925Z</time>
      </trkpt>
      <trkpt lat="38.81189167" lon="-9.10803333">
        <ele>3.0</ele>
        <time>2019-05-16T10:08:44.933Z</time>
      </trkpt>
      <trkpt lat="38.81189167" lon="-9.10803333">
        <ele>3.0</ele>
        <time>2019-05-16T10:08:45.921Z</time>
      </trkpt>
      <trkpt lat="38.81191833" lon="-9.10810833">
        <ele>2.0</ele>
        <time>2019-05-16T10:08:46.933Z</time>
      </trkpt>
      <trkpt lat="38.81191833" lon="-9.10810833">
        <ele>2.0</ele>
        <time>2019-05-16T10:08:47.932Z</time>
      </trkpt>
      <trkpt lat="38.811955" lon="-9.10818167">
        <ele>2.0</ele>
        <time>2019-05-16T10:08:48.910Z</time>
      </trkpt>
      <trkpt lat="38.811955" lon="-9.10818167">
        <ele>2.0</ele>
        <time>2019-05-16T10:08:49.933Z</time>
      </trkpt>
      <trkpt lat="38.81198833" lon="-9.10825833">
        <ele>2.0</ele>
        <time>2019-05-16T10:08:50.901Z</time>
      </trkpt>
      <trkpt lat="38.81198833" lon="-9.10825833">
        <ele>2.0</ele>
        <time>2019-05-16T10:08:51.897Z</time>
      </trkpt>
      <trkpt lat="38.81201833" lon="-9.10833833">
        <ele>2.0</ele>
        <time>2019-05-16T10:08:52.909Z</time>
      </trkpt>
      <trkpt lat="38.812035" lon="-9.10837667">
        <ele>1.0</ele>
        <time>2019-05-16T10:08:53.919Z</time>
      </trkpt>
      <trkpt lat="38.81205167" lon="-9.108415">
        <ele>1.0</ele>
        <time>2019-05-16T10:08:54.931Z</time>
      </trkpt>
      <trkpt lat="38.81205167" lon="-9.108415">
        <ele>1.0</ele>
        <time>2019-05-16T10:08:55.930Z</time>
      </trkpt>
      <trkpt lat="38.81207833" lon="-9.10848667">
        <ele>1.0</ele>
        <time>2019-05-16T10:08:56.908Z</time>
      </trkpt>
      <trkpt lat="38.81207833" lon="-9.10848667">
        <ele>1.0</ele>
        <time>2019-05-16T10:08:57.902Z</time>
      </trkpt>
      <trkpt lat="38.81210833" lon="-9.10855833">
        <ele>1.0</ele>
        <time>2019-05-16T10:08:58.933Z</time>
      </trkpt>
      <trkpt lat="38.81212667" lon="-9.108595">
        <ele>1.0</ele>
        <time>2019-05-16T10:08:59.914Z</time>
      </trkpt>
      <trkpt lat="38.81214333" lon="-9.10863167">
        <ele>1.0</ele>
        <time>2019-05-16T10:09:00.904Z</time>
      </trkpt>
      <trkpt lat="38.81214333" lon="-9.10863167">
        <ele>1.0</ele>
        <time>2019-05-16T10:09:01.929Z</time>
      </trkpt>
      <trkpt lat="38.81217667" lon="-9.10870667">
        <ele>1.0</ele>
        <time>2019-05-16T10:09:02.899Z</time>
      </trkpt>
      <trkpt lat="38.81217667" lon="-9.10870667">
        <ele>1.0</ele>
        <time>2019-05-16T10:09:03.904Z</time>
      </trkpt>
      <trkpt lat="38.81220667" lon="-9.10878167">
        <ele>1.0</ele>
        <time>2019-05-16T10:09:04.921Z</time>
      </trkpt>
      <trkpt lat="38.81220667" lon="-9.10878167">
        <ele>1.0</ele>
        <time>2019-05-16T10:09:05.934Z</time>
      </trkpt>
      <trkpt lat="38.81223333" lon="-9.10885333">
        <ele>1.0</ele>
        <time>2019-05-16T10:09:06.909Z</time>
      </trkpt>
      <trkpt lat="38.81223333" lon="-9.10885333">
        <ele>1.0</ele>
        <time>2019-05-16T10:09:07.917Z</time>
      </trkpt>
      <trkpt lat="38.81226167" lon="-9.108925">
        <ele>1.0</ele>
        <time>2019-05-16T10:09:08.929Z</time>
      </trkpt>
      <trkpt lat="38.81226167" lon="-9.108925">
        <ele>1.0</ele>
        <time>2019-05-16T10:09:09.922Z</time>
      </trkpt>
      <trkpt lat="38.81229333" lon="-9.108995">
        <ele>1.0</ele>
        <time>2019-05-16T10:09:10.935Z</time>
      </trkpt>
      <trkpt lat="38.81229333" lon="-9.108995">
        <ele>1.0</ele>
        <time>2019-05-16T10:09:11.908Z</time>
      </trkpt>
      <trkpt lat="38.812325" lon="-9.10906167">
        <ele>1.0</ele>
        <time>2019-05-16T10:09:12.921Z</time>
      </trkpt>
      <trkpt lat="38.812325" lon="-9.10906167">
        <ele>1.0</ele>
        <time>2019-05-16T10:09:13.901Z</time>
      </trkpt>
      <trkpt lat="38.81235" lon="-9.10912333">
        <ele>1.0</ele>
        <time>2019-05-16T10:09:14.912Z</time>
      </trkpt>
      <trkpt lat="38.81235" lon="-9.10912333">
        <ele>1.0</ele>
        <time>2019-05-16T10:09:15.907Z</time>
      </trkpt>
      <trkpt lat="38.81237667" lon="-9.10918833">
        <ele>1.0</ele>
        <time>2019-05-16T10:09:16.938Z</time>
      </trkpt>
      <trkpt lat="38.81237667" lon="-9.10918833">
        <ele>1.0</ele>
        <time>2019-05-16T10:09:17.924Z</time>
      </trkpt>
      <trkpt lat="38.812405" lon="-9.10925667">
        <ele>1.0</ele>
        <time>2019-05-16T10:09:18.933Z</time>
      </trkpt>
      <trkpt lat="38.812405" lon="-9.10925667">
        <ele>1.0</ele>
        <time>2019-05-16T10:09:19.926Z</time>
      </trkpt>
      <trkpt lat="38.81243667" lon="-9.10932833">
        <ele>1.0</ele>
        <time>2019-05-16T10:09:20.910Z</time>
      </trkpt>
      <trkpt lat="38.81243667" lon="-9.10932833">
        <ele>1.0</ele>
        <time>2019-05-16T10:09:21.911Z</time>
      </trkpt>
      <trkpt lat="38.81246333" lon="-9.10939833">
        <ele>0.0</ele>
        <time>2019-05-16T10:09:22.942Z</time>
      </trkpt>
      <trkpt lat="38.81246333" lon="-9.10939833">
        <ele>0.0</ele>
        <time>2019-05-16T10:09:23.925Z</time>
      </trkpt>
      <trkpt lat="38.81249333" lon="-9.10947167">
        <ele>0.0</ele>
        <time>2019-05-16T10:09:24.936Z</time>
      </trkpt>
      <trkpt lat="38.81250833" lon="-9.10951">
        <ele>0.0</ele>
        <time>2019-05-16T10:09:25.936Z</time>
      </trkpt>
      <trkpt lat="38.81250833" lon="-9.10951">
        <ele>0.0</ele>
        <time>2019-05-16T10:09:26.914Z</time>
      </trkpt>
      <trkpt lat="38.81253833" lon="-9.10958833">
        <ele>0.0</ele>
        <time>2019-05-16T10:09:27.929Z</time>
      </trkpt>
      <trkpt lat="38.81253833" lon="-9.10958833">
        <ele>0.0</ele>
        <time>2019-05-16T10:09:28.922Z</time>
      </trkpt>
      <trkpt lat="38.81256833" lon="-9.10966667">
        <ele>0.0</ele>
        <time>2019-05-16T10:09:29.932Z</time>
      </trkpt>
      <trkpt lat="38.81258333" lon="-9.10970833">
        <ele>0.0</ele>
        <time>2019-05-16T10:09:30.930Z</time>
      </trkpt>
      <trkpt lat="38.81258333" lon="-9.10970833">
        <ele>0.0</ele>
        <time>2019-05-16T10:09:31.911Z</time>
      </trkpt>
      <trkpt lat="38.81261833" lon="-9.10978667">
        <ele>0.0</ele>
        <time>2019-05-16T10:09:32.921Z</time>
      </trkpt>
      <trkpt lat="38.81261833" lon="-9.10978667">
        <ele>0.0</ele>
        <time>2019-05-16T10:09:33.897Z</time>
      </trkpt>
      <trkpt lat="38.812655" lon="-9.109865">
        <ele>0.0</ele>
        <time>2019-05-16T10:09:34.912Z</time>
      </trkpt>
      <trkpt lat="38.81267333" lon="-9.109905">
        <ele>-1.0</ele>
        <time>2019-05-16T10:09:35.913Z</time>
      </trkpt>
      <trkpt lat="38.81269" lon="-9.10994333">
        <ele>-1.0</ele>
        <time>2019-05-16T10:09:36.899Z</time>
      </trkpt>
      <trkpt lat="38.81269" lon="-9.10994333">
        <ele>-1.0</ele>
        <time>2019-05-16T10:09:37.909Z</time>
      </trkpt>
      <trkpt lat="38.81272667" lon="-9.11001667">
        <ele>-1.0</ele>
        <time>2019-05-16T10:09:38.918Z</time>
      </trkpt>
      <trkpt lat="38.81272667" lon="-9.11001667">
        <ele>-1.0</ele>
        <time>2019-05-16T10:09:39.897Z</time>
      </trkpt>
      <trkpt lat="38.81276667" lon="-9.11008167">
        <ele>-1.0</ele>
        <time>2019-05-16T10:09:40.917Z</time>
      </trkpt>
      <trkpt lat="38.81276667" lon="-9.11008167">
        <ele>-1.0</ele>
        <time>2019-05-16T10:09:41.910Z</time>
      </trkpt>
      <trkpt lat="38.812805" lon="-9.11014833">
        <ele>-1.0</ele>
        <time>2019-05-16T10:09:42.919Z</time>
      </trkpt>
      <trkpt lat="38.812805" lon="-9.11014833">
        <ele>-1.0</ele>
        <time>2019-05-16T10:09:43.923Z</time>
      </trkpt>
      <trkpt lat="38.812845" lon="-9.11020833">
        <ele>-1.0</ele>
        <time>2019-05-16T10:09:44.929Z</time>
      </trkpt>
      <trkpt lat="38.812845" lon="-9.11020833">
        <ele>-1.0</ele>
        <time>2019-05-16T10:09:45.910Z</time>
      </trkpt>
      <trkpt lat="38.81288" lon="-9.11026667">
        <ele>-1.0</ele>
        <time>2019-05-16T10:09:46.922Z</time>
      </trkpt>
      <trkpt lat="38.81288" lon="-9.11026667">
        <ele>-1.0</ele>
        <time>2019-05-16T10:09:47.928Z</time>
      </trkpt>
      <trkpt lat="38.81292" lon="-9.11032667">
        <ele>-1.0</ele>
        <time>2019-05-16T10:09:48.909Z</time>
      </trkpt>
      <trkpt lat="38.81292" lon="-9.11032667">
        <ele>-1.0</ele>
        <time>2019-05-16T10:09:49.900Z</time>
      </trkpt>
      <trkpt lat="38.812955" lon="-9.110385">
        <ele>-1.0</ele>
        <time>2019-05-16T10:09:50.910Z</time>
      </trkpt>
      <trkpt lat="38.812955" lon="-9.110385">
        <ele>-1.0</ele>
        <time>2019-05-16T10:09:51.907Z</time>
      </trkpt>
      <trkpt lat="38.81299167" lon="-9.110445">
        <ele>-1.0</ele>
        <time>2019-05-16T10:09:52.916Z</time>
      </trkpt>
      <trkpt lat="38.81299167" lon="-9.110445">
        <ele>-1.0</ele>
        <time>2019-05-16T10:09:53.908Z</time>
      </trkpt>
      <trkpt lat="38.81303" lon="-9.11050167">
        <ele>-2.0</ele>
        <time>2019-05-16T10:09:54.931Z</time>
      </trkpt>
      <trkpt lat="38.81303" lon="-9.11050167">
        <ele>-2.0</ele>
        <time>2019-05-16T10:09:55.914Z</time>
      </trkpt>
      <trkpt lat="38.813075" lon="-9.11055167">
        <ele>-2.0</ele>
        <time>2019-05-16T10:09:56.930Z</time>
      </trkpt>
      <trkpt lat="38.81309833" lon="-9.11057833">
        <ele>-2.0</ele>
        <time>2019-05-16T10:09:57.924Z</time>
      </trkpt>
      <trkpt lat="38.81309833" lon="-9.11057833">
        <ele>-2.0</ele>
        <time>2019-05-16T10:09:58.903Z</time>
      </trkpt>
      <trkpt lat="38.813145" lon="-9.11062833">
        <ele>-2.0</ele>
        <time>2019-05-16T10:09:59.915Z</time>
      </trkpt>
      <trkpt lat="38.81317" lon="-9.11065167">
        <ele>-2.0</ele>
        <time>2019-05-16T10:10:00.912Z</time>
      </trkpt>
      <trkpt lat="38.81317" lon="-9.11065167">
        <ele>-2.0</ele>
        <time>2019-05-16T10:10:01.909Z</time>
      </trkpt>
      <trkpt lat="38.81321833" lon="-9.110695">
        <ele>-2.0</ele>
        <time>2019-05-16T10:10:02.920Z</time>
      </trkpt>
      <trkpt lat="38.81321833" lon="-9.110695">
        <ele>-2.0</ele>
        <time>2019-05-16T10:10:03.927Z</time>
      </trkpt>
      <trkpt lat="38.81326833" lon="-9.11073167">
        <ele>-2.0</ele>
        <time>2019-05-16T10:10:04.935Z</time>
      </trkpt>
      <trkpt lat="38.81326833" lon="-9.11073167">
        <ele>-2.0</ele>
        <time>2019-05-16T10:10:05.934Z</time>
      </trkpt>
      <trkpt lat="38.81331667" lon="-9.11077167">
        <ele>-2.0</ele>
        <time>2019-05-16T10:10:06.905Z</time>
      </trkpt>
      <trkpt lat="38.81331667" lon="-9.11077167">
        <ele>-2.0</ele>
        <time>2019-05-16T10:10:07.915Z</time>
      </trkpt>
      <trkpt lat="38.813365" lon="-9.11080833">
        <ele>-2.0</ele>
        <time>2019-05-16T10:10:08.925Z</time>
      </trkpt>
      <trkpt lat="38.813365" lon="-9.11080833">
        <ele>-2.0</ele>
        <time>2019-05-16T10:10:09.912Z</time>
      </trkpt>
      <trkpt lat="38.81341667" lon="-9.110845">
        <ele>-2.0</ele>
        <time>2019-05-16T10:10:10.928Z</time>
      </trkpt>
      <trkpt lat="38.81341667" lon="-9.110845">
        <ele>-2.0</ele>
        <time>2019-05-16T10:10:11.927Z</time>
      </trkpt>
      <trkpt lat="38.81346833" lon="-9.11088333">
        <ele>-2.0</ele>
        <time>2019-05-16T10:10:12.938Z</time>
      </trkpt>
      <trkpt lat="38.81346833" lon="-9.11088333">
        <ele>-2.0</ele>
        <time>2019-05-16T10:10:13.921Z</time>
      </trkpt>
      <trkpt lat="38.81352" lon="-9.11091833">
        <ele>-2.0</ele>
        <time>2019-05-16T10:10:14.922Z</time>
      </trkpt>
      <trkpt lat="38.81352" lon="-9.11091833">
        <ele>-2.0</ele>
        <time>2019-05-16T10:10:15.923Z</time>
      </trkpt>
      <trkpt lat="38.81356833" lon="-9.11095333">
        <ele>-2.0</ele>
        <time>2019-05-16T10:10:16.910Z</time>
      </trkpt>
      <trkpt lat="38.81356833" lon="-9.11095333">
        <ele>-2.0</ele>
        <time>2019-05-16T10:10:17.901Z</time>
      </trkpt>
      <trkpt lat="38.81361833" lon="-9.110985">
        <ele>-1.0</ele>
        <time>2019-05-16T10:10:18.910Z</time>
      </trkpt>
      <trkpt lat="38.81361833" lon="-9.110985">
        <ele>-1.0</ele>
        <time>2019-05-16T10:10:19.897Z</time>
      </trkpt>
      <trkpt lat="38.81366667" lon="-9.11101167">
        <ele>-1.0</ele>
        <time>2019-05-16T10:10:20.918Z</time>
      </trkpt>
      <trkpt lat="38.81366667" lon="-9.11101167">
        <ele>-1.0</ele>
        <time>2019-05-16T10:10:21.927Z</time>
      </trkpt>
      <trkpt lat="38.81371333" lon="-9.11104">
        <ele>-1.0</ele>
        <time>2019-05-16T10:10:22.934Z</time>
      </trkpt>
      <trkpt lat="38.81371333" lon="-9.11104">
        <ele>-1.0</ele>
        <time>2019-05-16T10:10:23.934Z</time>
      </trkpt>
      <trkpt lat="38.81376167" lon="-9.11107">
        <ele>-1.0</ele>
        <time>2019-05-16T10:10:24.904Z</time>
      </trkpt>
      <trkpt lat="38.81376167" lon="-9.11107">
        <ele>-1.0</ele>
        <time>2019-05-16T10:10:25.934Z</time>
      </trkpt>
      <trkpt lat="38.813815" lon="-9.11109333">
        <ele>-1.0</ele>
        <time>2019-05-16T10:10:26.910Z</time>
      </trkpt>
      <trkpt lat="38.813815" lon="-9.11109333">
        <ele>-1.0</ele>
        <time>2019-05-16T10:10:27.904Z</time>
      </trkpt>
      <trkpt lat="38.81387" lon="-9.111115">
        <ele>0.0</ele>
        <time>2019-05-16T10:10:28.912Z</time>
      </trkpt>
      <trkpt lat="38.8139" lon="-9.11112167">
        <ele>0.0</ele>
        <time>2019-05-16T10:10:29.905Z</time>
      </trkpt>
      <trkpt lat="38.81392833" lon="-9.11112833">
        <ele>0.0</ele>
        <time>2019-05-16T10:10:30.903Z</time>
      </trkpt>
      <trkpt lat="38.81392833" lon="-9.11112833">
        <ele>0.0</ele>
        <time>2019-05-16T10:10:31.897Z</time>
      </trkpt>
      <trkpt lat="38.81398167" lon="-9.11115">
        <ele>0.0</ele>
        <time>2019-05-16T10:10:32.897Z</time>
      </trkpt>
      <trkpt lat="38.81398167" lon="-9.11115">
        <ele>0.0</ele>
        <time>2019-05-16T10:10:33.937Z</time>
      </trkpt>
      <trkpt lat="38.814035" lon="-9.111175">
        <ele>0.0</ele>
        <time>2019-05-16T10:10:34.904Z</time>
      </trkpt>
      <trkpt lat="38.814035" lon="-9.111175">
        <ele>0.0</ele>
        <time>2019-05-16T10:10:35.935Z</time>
      </trkpt>
      <trkpt lat="38.81409167" lon="-9.11119333">
        <ele>0.0</ele>
        <time>2019-05-16T10:10:36.905Z</time>
      </trkpt>
      <trkpt lat="38.81409167" lon="-9.11119333">
        <ele>0.0</ele>
        <time>2019-05-16T10:10:37.897Z</time>
      </trkpt>
      <trkpt lat="38.81414833" lon="-9.11121">
        <ele>0.0</ele>
        <time>2019-05-16T10:10:38.905Z</time>
      </trkpt>
      <trkpt lat="38.81414833" lon="-9.11121">
        <ele>0.0</ele>
        <time>2019-05-16T10:10:39.930Z</time>
      </trkpt>
      <trkpt lat="38.81420333" lon="-9.11122833">
        <ele>1.0</ele>
        <time>2019-05-16T10:10:40.937Z</time>
      </trkpt>
      <trkpt lat="38.81420333" lon="-9.11122833">
        <ele>1.0</ele>
        <time>2019-05-16T10:10:41.917Z</time>
      </trkpt>
      <trkpt lat="38.81425667" lon="-9.11125">
        <ele>1.0</ele>
        <time>2019-05-16T10:10:42.932Z</time>
      </trkpt>
      <trkpt lat="38.81425667" lon="-9.11125">
        <ele>1.0</ele>
        <time>2019-05-16T10:10:43.931Z</time>
      </trkpt>
      <trkpt lat="38.81431" lon="-9.11126833">
        <ele>1.0</ele>
        <time>2019-05-16T10:10:44.898Z</time>
      </trkpt>
      <trkpt lat="38.81431" lon="-9.11126833">
        <ele>1.0</ele>
        <time>2019-05-16T10:10:45.912Z</time>
      </trkpt>
      <trkpt lat="38.81436333" lon="-9.11128667">
        <ele>1.0</ele>
        <time>2019-05-16T10:10:46.931Z</time>
      </trkpt>
      <trkpt lat="38.81436333" lon="-9.11128667">
        <ele>1.0</ele>
        <time>2019-05-16T10:10:47.904Z</time>
      </trkpt>
      <trkpt lat="38.81441833" lon="-9.11130833">
        <ele>0.0</ele>
        <time>2019-05-16T10:10:48.935Z</time>
      </trkpt>
      <trkpt lat="38.81441833" lon="-9.11130833">
        <ele>0.0</ele>
        <time>2019-05-16T10:10:49.930Z</time>
      </trkpt>
      <trkpt lat="38.81447667" lon="-9.11133">
        <ele>0.0</ele>
        <time>2019-05-16T10:10:50.904Z</time>
      </trkpt>
      <trkpt lat="38.81447667" lon="-9.11133">
        <ele>0.0</ele>
        <time>2019-05-16T10:10:51.923Z</time>
      </trkpt>
      <trkpt lat="38.81454" lon="-9.11135833">
        <ele>0.0</ele>
        <time>2019-05-16T10:10:52.933Z</time>
      </trkpt>
      <trkpt lat="38.81454" lon="-9.11135833">
        <ele>0.0</ele>
        <time>2019-05-16T10:10:53.924Z</time>
      </trkpt>
      <trkpt lat="38.81461" lon="-9.11137667">
        <ele>0.0</ele>
        <time>2019-05-16T10:10:54.933Z</time>
      </trkpt>
      <trkpt lat="38.81461" lon="-9.11137667">
        <ele>0.0</ele>
        <time>2019-05-16T10:10:55.935Z</time>
      </trkpt>
      <trkpt lat="38.81467333" lon="-9.11140333">
        <ele>0.0</ele>
        <time>2019-05-16T10:10:56.903Z</time>
      </trkpt>
      <trkpt lat="38.81467333" lon="-9.11140333">
        <ele>0.0</ele>
        <time>2019-05-16T10:10:57.923Z</time>
      </trkpt>
      <trkpt lat="38.81473167" lon="-9.11141833">
        <ele>0.0</ele>
        <time>2019-05-16T10:10:58.931Z</time>
      </trkpt>
      <trkpt lat="38.81473167" lon="-9.11141833">
        <ele>0.0</ele>
        <time>2019-05-16T10:10:59.899Z</time>
      </trkpt>
      <trkpt lat="38.81479333" lon="-9.11142167">
        <ele>1.0</ele>
        <time>2019-05-16T10:11:00.907Z</time>
      </trkpt>
      <trkpt lat="38.81482333" lon="-9.11142333">
        <ele>1.0</ele>
        <time>2019-05-16T10:11:01.898Z</time>
      </trkpt>
      <trkpt lat="38.81482333" lon="-9.11142333">
        <ele>1.0</ele>
        <time>2019-05-16T10:11:02.903Z</time>
      </trkpt>
      <trkpt lat="38.814885" lon="-9.11143167">
        <ele>1.0</ele>
        <time>2019-05-16T10:11:03.912Z</time>
      </trkpt>
      <trkpt lat="38.814885" lon="-9.11143167">
        <ele>1.0</ele>
        <time>2019-05-16T10:11:04.916Z</time>
      </trkpt>
      <trkpt lat="38.814945" lon="-9.11143833">
        <ele>1.0</ele>
        <time>2019-05-16T10:11:05.924Z</time>
      </trkpt>
      <trkpt lat="38.81497667" lon="-9.11144167">
        <ele>1.0</ele>
        <time>2019-05-16T10:11:06.912Z</time>
      </trkpt>
      <trkpt lat="38.81497667" lon="-9.11144167">
        <ele>1.0</ele>
        <time>2019-05-16T10:11:07.921Z</time>
      </trkpt>
      <trkpt lat="38.81503833" lon="-9.111445">
        <ele>1.0</ele>
        <time>2019-05-16T10:11:08.904Z</time>
      </trkpt>
      <trkpt lat="38.81503833" lon="-9.111445">
        <ele>1.0</ele>
        <time>2019-05-16T10:11:09.897Z</time>
      </trkpt>
      <trkpt lat="38.81509333" lon="-9.11144667">
        <ele>1.0</ele>
        <time>2019-05-16T10:11:10.905Z</time>
      </trkpt>
      <trkpt lat="38.81509333" lon="-9.11144667">
        <ele>1.0</ele>
        <time>2019-05-16T10:11:11.936Z</time>
      </trkpt>
      <trkpt lat="38.81514" lon="-9.11145167">
        <ele>1.0</ele>
        <time>2019-05-16T10:11:12.903Z</time>
      </trkpt>
      <trkpt lat="38.81514" lon="-9.11145167">
        <ele>1.0</ele>
        <time>2019-05-16T10:11:13.933Z</time>
      </trkpt>
      <trkpt lat="38.81518667" lon="-9.11145667">
        <ele>1.0</ele>
        <time>2019-05-16T10:11:14.905Z</time>
      </trkpt>
      <trkpt lat="38.81518667" lon="-9.11145667">
        <ele>1.0</ele>
        <time>2019-05-16T10:11:15.901Z</time>
      </trkpt>
      <trkpt lat="38.81523333" lon="-9.11146">
        <ele>1.0</ele>
        <time>2019-05-16T10:11:16.915Z</time>
      </trkpt>
      <trkpt lat="38.81525833" lon="-9.11146167">
        <ele>1.0</ele>
        <time>2019-05-16T10:11:17.909Z</time>
      </trkpt>
      <trkpt lat="38.81528167" lon="-9.11146">
        <ele>1.0</ele>
        <time>2019-05-16T10:11:18.930Z</time>
      </trkpt>
      <trkpt lat="38.81528167" lon="-9.11146">
        <ele>1.0</ele>
        <time>2019-05-16T10:11:19.924Z</time>
      </trkpt>
      <trkpt lat="38.81533" lon="-9.111465">
        <ele>1.0</ele>
        <time>2019-05-16T10:11:20.906Z</time>
      </trkpt>
      <trkpt lat="38.81533" lon="-9.111465">
        <ele>1.0</ele>
        <time>2019-05-16T10:11:21.898Z</time>
      </trkpt>
      <trkpt lat="38.81537833" lon="-9.11146667">
        <ele>0.0</ele>
        <time>2019-05-16T10:11:22.921Z</time>
      </trkpt>
      <trkpt lat="38.81537833" lon="-9.11146667">
        <ele>0.0</ele>
        <time>2019-05-16T10:11:23.935Z</time>
      </trkpt>
      <trkpt lat="38.81543" lon="-9.11147667">
        <ele>0.0</ele>
        <time>2019-05-16T10:11:24.905Z</time>
      </trkpt>
      <trkpt lat="38.81543" lon="-9.11147667">
        <ele>0.0</ele>
        <time>2019-05-16T10:11:25.928Z</time>
      </trkpt>
      <trkpt lat="38.81548833" lon="-9.11147333">
        <ele>0.0</ele>
        <time>2019-05-16T10:11:26.936Z</time>
      </trkpt>
      <trkpt lat="38.81548833" lon="-9.11147333">
        <ele>0.0</ele>
        <time>2019-05-16T10:11:27.936Z</time>
      </trkpt>
      <trkpt lat="38.815545" lon="-9.11147">
        <ele>0.0</ele>
        <time>2019-05-16T10:11:28.902Z</time>
      </trkpt>
      <trkpt lat="38.815545" lon="-9.11147">
        <ele>0.0</ele>
        <time>2019-05-16T10:11:29.932Z</time>
      </trkpt>
      <trkpt lat="38.81560167" lon="-9.11147">
        <ele>0.0</ele>
        <time>2019-05-16T10:11:30.903Z</time>
      </trkpt>
      <trkpt lat="38.81560167" lon="-9.11147">
        <ele>0.0</ele>
        <time>2019-05-16T10:11:31.899Z</time>
      </trkpt>
      <trkpt lat="38.81565667" lon="-9.11145833">
        <ele>0.0</ele>
        <time>2019-05-16T10:11:32.921Z</time>
      </trkpt>
      <trkpt lat="38.815685" lon="-9.111455">
        <ele>0.0</ele>
        <time>2019-05-16T10:11:33.911Z</time>
      </trkpt>
      <trkpt lat="38.815685" lon="-9.111455">
        <ele>0.0</ele>
        <time>2019-05-16T10:11:34.902Z</time>
      </trkpt>
      <trkpt lat="38.81574" lon="-9.11144833">
        <ele>0.0</ele>
        <time>2019-05-16T10:11:36.072Z</time>
      </trkpt>
      <trkpt lat="38.81576833" lon="-9.11144">
        <ele>0.0</ele>
        <time>2019-05-16T10:11:36.930Z</time>
      </trkpt>
      <trkpt lat="38.81576833" lon="-9.11144">
        <ele>0.0</ele>
        <time>2019-05-16T10:11:37.933Z</time>
      </trkpt>
      <trkpt lat="38.81583" lon="-9.11142833">
        <ele>0.0</ele>
        <time>2019-05-16T10:11:38.921Z</time>
      </trkpt>
      <trkpt lat="38.81583" lon="-9.11142833">
        <ele>0.0</ele>
        <time>2019-05-16T10:11:39.923Z</time>
      </trkpt>
      <trkpt lat="38.81589167" lon="-9.11141333">
        <ele>0.0</ele>
        <time>2019-05-16T10:11:40.935Z</time>
      </trkpt>
      <trkpt lat="38.81589167" lon="-9.11141333">
        <ele>0.0</ele>
        <time>2019-05-16T10:11:41.928Z</time>
      </trkpt>
      <trkpt lat="38.81595" lon="-9.11140333">
        <ele>0.0</ele>
        <time>2019-05-16T10:11:42.936Z</time>
      </trkpt>
      <trkpt lat="38.81595" lon="-9.11140333">
        <ele>0.0</ele>
        <time>2019-05-16T10:11:43.901Z</time>
      </trkpt>
      <trkpt lat="38.81601167" lon="-9.111395">
        <ele>-1.0</ele>
        <time>2019-05-16T10:11:44.924Z</time>
      </trkpt>
      <trkpt lat="38.81601167" lon="-9.111395">
        <ele>-1.0</ele>
        <time>2019-05-16T10:11:45.920Z</time>
      </trkpt>
      <trkpt lat="38.81607833" lon="-9.11138">
        <ele>-1.0</ele>
        <time>2019-05-16T10:11:46.941Z</time>
      </trkpt>
      <trkpt lat="38.81607833" lon="-9.11138">
        <ele>-1.0</ele>
        <time>2019-05-16T10:11:47.923Z</time>
      </trkpt>
      <trkpt lat="38.816145" lon="-9.11136">
        <ele>-1.0</ele>
        <time>2019-05-16T10:11:48.931Z</time>
      </trkpt>
      <trkpt lat="38.816145" lon="-9.11136">
        <ele>-1.0</ele>
        <time>2019-05-16T10:11:49.924Z</time>
      </trkpt>
      <trkpt lat="38.81621333" lon="-9.11133833">
        <ele>-1.0</ele>
        <time>2019-05-16T10:11:50.903Z</time>
      </trkpt>
      <trkpt lat="38.81621333" lon="-9.11133833">
        <ele>-1.0</ele>
        <time>2019-05-16T10:11:51.926Z</time>
      </trkpt>
      <trkpt lat="38.81627" lon="-9.11131833">
        <ele>-1.0</ele>
        <time>2019-05-16T10:11:52.935Z</time>
      </trkpt>
      <trkpt lat="38.816295" lon="-9.11130833">
        <ele>-1.0</ele>
        <time>2019-05-16T10:11:53.909Z</time>
      </trkpt>
      <trkpt lat="38.81632167" lon="-9.111295">
        <ele>-1.0</ele>
        <time>2019-05-16T10:11:54.923Z</time>
      </trkpt>
      <trkpt lat="38.81632167" lon="-9.111295">
        <ele>-1.0</ele>
        <time>2019-05-16T10:11:55.911Z</time>
      </trkpt>
      <trkpt lat="38.81637333" lon="-9.11127167">
        <ele>-1.0</ele>
        <time>2019-05-16T10:11:56.924Z</time>
      </trkpt>
      <trkpt lat="38.81637333" lon="-9.11127167">
        <ele>-1.0</ele>
        <time>2019-05-16T10:11:57.906Z</time>
      </trkpt>
      <trkpt lat="38.81643" lon="-9.11124833">
        <ele>-1.0</ele>
        <time>2019-05-16T10:11:58.920Z</time>
      </trkpt>
      <trkpt lat="38.81643" lon="-9.11124833">
        <ele>-1.0</ele>
        <time>2019-05-16T10:11:59.904Z</time>
      </trkpt>
      <trkpt lat="38.81648833" lon="-9.11122167">
        <ele>-1.0</ele>
        <time>2019-05-16T10:12:00.931Z</time>
      </trkpt>
      <trkpt lat="38.81648833" lon="-9.11122167">
        <ele>-1.0</ele>
        <time>2019-05-16T10:12:01.914Z</time>
      </trkpt>
      <trkpt lat="38.81654833" lon="-9.11119333">
        <ele>-2.0</ele>
        <time>2019-05-16T10:12:02.928Z</time>
      </trkpt>
      <trkpt lat="38.81654833" lon="-9.11119333">
        <ele>-2.0</ele>
        <time>2019-05-16T10:12:03.920Z</time>
      </trkpt>
      <trkpt lat="38.81661167" lon="-9.11116333">
        <ele>-2.0</ele>
        <time>2019-05-16T10:12:04.931Z</time>
      </trkpt>
      <trkpt lat="38.816645" lon="-9.11115167">
        <ele>-2.0</ele>
        <time>2019-05-16T10:12:05.917Z</time>
      </trkpt>
      <trkpt lat="38.81667833" lon="-9.11113667">
        <ele>-2.0</ele>
        <time>2019-05-16T10:12:06.913Z</time>
      </trkpt>
      <trkpt lat="38.81667833" lon="-9.11113667">
        <ele>-2.0</ele>
        <time>2019-05-16T10:12:07.902Z</time>
      </trkpt>
      <trkpt lat="38.816745" lon="-9.11110833">
        <ele>-2.0</ele>
        <time>2019-05-16T10:12:08.911Z</time>
      </trkpt>
      <trkpt lat="38.81677833" lon="-9.11109167">
        <ele>-2.0</ele>
        <time>2019-05-16T10:12:09.909Z</time>
      </trkpt>
      <trkpt lat="38.81677833" lon="-9.11109167">
        <ele>-2.0</ele>
        <time>2019-05-16T10:12:10.923Z</time>
      </trkpt>
      <trkpt lat="38.816845" lon="-9.11106667">
        <ele>-2.0</ele>
        <time>2019-05-16T10:12:11.932Z</time>
      </trkpt>
      <trkpt lat="38.81687833" lon="-9.11105333">
        <ele>-2.0</ele>
        <time>2019-05-16T10:12:12.904Z</time>
      </trkpt>
      <trkpt lat="38.81687833" lon="-9.11105333">
        <ele>-2.0</ele>
        <time>2019-05-16T10:12:13.920Z</time>
      </trkpt>
      <trkpt lat="38.81694833" lon="-9.111025">
        <ele>-2.0</ele>
        <time>2019-05-16T10:12:14.934Z</time>
      </trkpt>
      <trkpt lat="38.81694833" lon="-9.111025">
        <ele>-2.0</ele>
        <time>2019-05-16T10:12:15.914Z</time>
      </trkpt>
      <trkpt lat="38.817015" lon="-9.111">
        <ele>-2.0</ele>
        <time>2019-05-16T10:12:16.926Z</time>
      </trkpt>
      <trkpt lat="38.817015" lon="-9.111">
        <ele>-2.0</ele>
        <time>2019-05-16T10:12:17.907Z</time>
      </trkpt>
      <trkpt lat="38.81708333" lon="-9.11097333">
        <ele>-2.0</ele>
        <time>2019-05-16T10:12:18.921Z</time>
      </trkpt>
      <trkpt lat="38.81708333" lon="-9.11097333">
        <ele>-2.0</ele>
        <time>2019-05-16T10:12:19.925Z</time>
      </trkpt>
      <trkpt lat="38.81714833" lon="-9.110945">
        <ele>-2.0</ele>
        <time>2019-05-16T10:12:20.910Z</time>
      </trkpt>
      <trkpt lat="38.81714833" lon="-9.110945">
        <ele>-2.0</ele>
        <time>2019-05-16T10:12:21.923Z</time>
      </trkpt>
      <trkpt lat="38.81721667" lon="-9.11091833">
        <ele>-2.0</ele>
        <time>2019-05-16T10:12:22.936Z</time>
      </trkpt>
      <trkpt lat="38.81721667" lon="-9.11091833">
        <ele>-2.0</ele>
        <time>2019-05-16T10:12:23.934Z</time>
      </trkpt>
      <trkpt lat="38.81728167" lon="-9.11089167">
        <ele>-3.0</ele>
        <time>2019-05-16T10:12:24.917Z</time>
      </trkpt>
      <trkpt lat="38.81728167" lon="-9.11089167">
        <ele>-3.0</ele>
        <time>2019-05-16T10:12:25.900Z</time>
      </trkpt>
      <trkpt lat="38.81735" lon="-9.110865">
        <ele>-3.0</ele>
        <time>2019-05-16T10:12:26.908Z</time>
      </trkpt>
      <trkpt lat="38.81735" lon="-9.110865">
        <ele>-3.0</ele>
        <time>2019-05-16T10:12:27.923Z</time>
      </trkpt>
      <trkpt lat="38.81741667" lon="-9.110835">
        <ele>-3.0</ele>
        <time>2019-05-16T10:12:28.932Z</time>
      </trkpt>
      <trkpt lat="38.81741667" lon="-9.110835">
        <ele>-3.0</ele>
        <time>2019-05-16T10:12:29.924Z</time>
      </trkpt>
      <trkpt lat="38.81748" lon="-9.110805">
        <ele>-3.0</ele>
        <time>2019-05-16T10:12:30.898Z</time>
      </trkpt>
      <trkpt lat="38.81748" lon="-9.110805">
        <ele>-3.0</ele>
        <time>2019-05-16T10:12:31.935Z</time>
      </trkpt>
      <trkpt lat="38.81754333" lon="-9.11077333">
        <ele>-3.0</ele>
        <time>2019-05-16T10:12:32.905Z</time>
      </trkpt>
      <trkpt lat="38.81754333" lon="-9.11077333">
        <ele>-3.0</ele>
        <time>2019-05-16T10:12:33.933Z</time>
      </trkpt>
      <trkpt lat="38.817605" lon="-9.11074333">
        <ele>-3.0</ele>
        <time>2019-05-16T10:12:34.905Z</time>
      </trkpt>
      <trkpt lat="38.817605" lon="-9.11074333">
        <ele>-3.0</ele>
        <time>2019-05-16T10:12:35.931Z</time>
      </trkpt>
      <trkpt lat="38.81767167" lon="-9.11071167">
        <ele>-3.0</ele>
        <time>2019-05-16T10:12:36.900Z</time>
      </trkpt>
      <trkpt lat="38.81770667" lon="-9.11069333">
        <ele>-3.0</ele>
        <time>2019-05-16T10:12:37.928Z</time>
      </trkpt>
      <trkpt lat="38.81770667" lon="-9.11069333">
        <ele>-3.0</ele>
        <time>2019-05-16T10:12:38.908Z</time>
      </trkpt>
      <trkpt lat="38.81777167" lon="-9.11066">
        <ele>-4.0</ele>
        <time>2019-05-16T10:12:39.925Z</time>
      </trkpt>
      <trkpt lat="38.81777167" lon="-9.11066">
        <ele>-4.0</ele>
        <time>2019-05-16T10:12:40.908Z</time>
      </trkpt>
      <trkpt lat="38.81783833" lon="-9.11062833">
        <ele>-4.0</ele>
        <time>2019-05-16T10:12:41.904Z</time>
      </trkpt>
      <trkpt lat="38.81787167" lon="-9.11061333">
        <ele>-4.0</ele>
        <time>2019-05-16T10:12:42.909Z</time>
      </trkpt>
      <trkpt lat="38.81787167" lon="-9.11061333">
        <ele>-4.0</ele>
        <time>2019-05-16T10:12:43.934Z</time>
      </trkpt>
      <trkpt lat="38.81793333" lon="-9.11058">
        <ele>-4.0</ele>
        <time>2019-05-16T10:12:44.919Z</time>
      </trkpt>
      <trkpt lat="38.81793333" lon="-9.11058">
        <ele>-4.0</ele>
        <time>2019-05-16T10:12:45.911Z</time>
      </trkpt>
      <trkpt lat="38.818" lon="-9.11055333">
        <ele>-4.0</ele>
        <time>2019-05-16T10:12:46.924Z</time>
      </trkpt>
      <trkpt lat="38.818" lon="-9.11055333">
        <ele>-4.0</ele>
        <time>2019-05-16T10:12:47.904Z</time>
      </trkpt>
      <trkpt lat="38.818065" lon="-9.11052167">
        <ele>-4.0</ele>
        <time>2019-05-16T10:12:48.919Z</time>
      </trkpt>
      <trkpt lat="38.818065" lon="-9.11052167">
        <ele>-4.0</ele>
        <time>2019-05-16T10:12:49.909Z</time>
      </trkpt>
      <trkpt lat="38.81813" lon="-9.11049333">
        <ele>-4.0</ele>
        <time>2019-05-16T10:12:50.917Z</time>
      </trkpt>
      <trkpt lat="38.81816333" lon="-9.11048">
        <ele>-4.0</ele>
        <time>2019-05-16T10:12:51.912Z</time>
      </trkpt>
      <trkpt lat="38.81816333" lon="-9.11048">
        <ele>-4.0</ele>
        <time>2019-05-16T10:12:52.923Z</time>
      </trkpt>
      <trkpt lat="38.81822833" lon="-9.11045333">
        <ele>-5.0</ele>
        <time>2019-05-16T10:12:53.932Z</time>
      </trkpt>
      <trkpt lat="38.81825833" lon="-9.11044167">
        <ele>-4.0</ele>
        <time>2019-05-16T10:12:54.918Z</time>
      </trkpt>
      <trkpt lat="38.81825833" lon="-9.11044167">
        <ele>-4.0</ele>
        <time>2019-05-16T10:12:55.931Z</time>
      </trkpt>
      <trkpt lat="38.81831667" lon="-9.110425">
        <ele>-4.0</ele>
        <time>2019-05-16T10:12:56.922Z</time>
      </trkpt>
      <trkpt lat="38.81831667" lon="-9.110425">
        <ele>-4.0</ele>
        <time>2019-05-16T10:12:57.903Z</time>
      </trkpt>
      <trkpt lat="38.81837167" lon="-9.11041">
        <ele>-4.0</ele>
        <time>2019-05-16T10:12:58.912Z</time>
      </trkpt>
      <trkpt lat="38.81837167" lon="-9.11041">
        <ele>-4.0</ele>
        <time>2019-05-16T10:12:59.923Z</time>
      </trkpt>
      <trkpt lat="38.81842833" lon="-9.110395">
        <ele>-4.0</ele>
        <time>2019-05-16T10:13:00.940Z</time>
      </trkpt>
      <trkpt lat="38.81842833" lon="-9.110395">
        <ele>-4.0</ele>
        <time>2019-05-16T10:13:01.905Z</time>
      </trkpt>
      <trkpt lat="38.81848833" lon="-9.11038333">
        <ele>-4.0</ele>
        <time>2019-05-16T10:13:02.922Z</time>
      </trkpt>
      <trkpt lat="38.81848833" lon="-9.11038333">
        <ele>-4.0</ele>
        <time>2019-05-16T10:13:03.919Z</time>
      </trkpt>
      <trkpt lat="38.81855333" lon="-9.110375">
        <ele>-4.0</ele>
        <time>2019-05-16T10:13:04.938Z</time>
      </trkpt>
      <trkpt lat="38.81855333" lon="-9.110375">
        <ele>-4.0</ele>
        <time>2019-05-16T10:13:05.923Z</time>
      </trkpt>
      <trkpt lat="38.81861833" lon="-9.11036667">
        <ele>-5.0</ele>
        <time>2019-05-16T10:13:06.911Z</time>
      </trkpt>
      <trkpt lat="38.81861833" lon="-9.11036667">
        <ele>-5.0</ele>
        <time>2019-05-16T10:13:07.929Z</time>
      </trkpt>
      <trkpt lat="38.81868833" lon="-9.11036333">
        <ele>-5.0</ele>
        <time>2019-05-16T10:13:08.935Z</time>
      </trkpt>
      <trkpt lat="38.81872333" lon="-9.11036333">
        <ele>-5.0</ele>
        <time>2019-05-16T10:13:09.939Z</time>
      </trkpt>
      <trkpt lat="38.81872333" lon="-9.11036333">
        <ele>-5.0</ele>
        <time>2019-05-16T10:13:10.923Z</time>
      </trkpt>
      <trkpt lat="38.81879833" lon="-9.11036167">
        <ele>-5.0</ele>
        <time>2019-05-16T10:13:11.933Z</time>
      </trkpt>
      <trkpt lat="38.818835" lon="-9.11036333">
        <ele>-5.0</ele>
        <time>2019-05-16T10:13:12.925Z</time>
      </trkpt>
      <trkpt lat="38.818835" lon="-9.11036333">
        <ele>-5.0</ele>
        <time>2019-05-16T10:13:13.897Z</time>
      </trkpt>
      <trkpt lat="38.81890833" lon="-9.11036167">
        <ele>-5.0</ele>
        <time>2019-05-16T10:13:14.903Z</time>
      </trkpt>
      <trkpt lat="38.81890833" lon="-9.11036167">
        <ele>-5.0</ele>
        <time>2019-05-16T10:13:15.927Z</time>
      </trkpt>
      <trkpt lat="38.818985" lon="-9.11036167">
        <ele>-5.0</ele>
        <time>2019-05-16T10:13:16.926Z</time>
      </trkpt>
      <trkpt lat="38.818985" lon="-9.11036167">
        <ele>-5.0</ele>
        <time>2019-05-16T10:13:17.934Z</time>
      </trkpt>
      <trkpt lat="38.819055" lon="-9.11036667">
        <ele>-5.0</ele>
        <time>2019-05-16T10:13:18.906Z</time>
      </trkpt>
      <trkpt lat="38.819055" lon="-9.11036667">
        <ele>-5.0</ele>
        <time>2019-05-16T10:13:19.927Z</time>
      </trkpt>
      <trkpt lat="38.81912" lon="-9.11037167">
        <ele>-4.0</ele>
        <time>2019-05-16T10:13:20.926Z</time>
      </trkpt>
      <trkpt lat="38.81912" lon="-9.11037167">
        <ele>-4.0</ele>
        <time>2019-05-16T10:13:21.917Z</time>
      </trkpt>
      <trkpt lat="38.81919" lon="-9.11037167">
        <ele>-5.0</ele>
        <time>2019-05-16T10:13:22.932Z</time>
      </trkpt>
      <trkpt lat="38.81919" lon="-9.11037167">
        <ele>-5.0</ele>
        <time>2019-05-16T10:13:23.935Z</time>
      </trkpt>
      <trkpt lat="38.81925833" lon="-9.11037833">
        <ele>-5.0</ele>
        <time>2019-05-16T10:13:24.905Z</time>
      </trkpt>
      <trkpt lat="38.81925833" lon="-9.11037833">
        <ele>-5.0</ele>
        <time>2019-05-16T10:13:25.911Z</time>
      </trkpt>
      <trkpt lat="38.81932667" lon="-9.11038333">
        <ele>-5.0</ele>
        <time>2019-05-16T10:13:26.922Z</time>
      </trkpt>
      <trkpt lat="38.81932667" lon="-9.11038333">
        <ele>-5.0</ele>
        <time>2019-05-16T10:13:27.916Z</time>
      </trkpt>
      <trkpt lat="38.819395" lon="-9.1104">
        <ele>-5.0</ele>
        <time>2019-05-16T10:13:28.926Z</time>
      </trkpt>
      <trkpt lat="38.819395" lon="-9.1104">
        <ele>-5.0</ele>
        <time>2019-05-16T10:13:29.929Z</time>
      </trkpt>
      <trkpt lat="38.81946333" lon="-9.11041167">
        <ele>-5.0</ele>
        <time>2019-05-16T10:13:30.901Z</time>
      </trkpt>
      <trkpt lat="38.81946333" lon="-9.11041167">
        <ele>-5.0</ele>
        <time>2019-05-16T10:13:31.932Z</time>
      </trkpt>
      <trkpt lat="38.81953333" lon="-9.11041667">
        <ele>-4.0</ele>
        <time>2019-05-16T10:13:32.927Z</time>
      </trkpt>
      <trkpt lat="38.81953333" lon="-9.11041667">
        <ele>-4.0</ele>
        <time>2019-05-16T10:13:33.925Z</time>
      </trkpt>
      <trkpt lat="38.8196" lon="-9.110425">
        <ele>-4.0</ele>
        <time>2019-05-16T10:13:34.934Z</time>
      </trkpt>
      <trkpt lat="38.8196" lon="-9.110425">
        <ele>-4.0</ele>
        <time>2019-05-16T10:13:35.923Z</time>
      </trkpt>
      <trkpt lat="38.81966167" lon="-9.11044333">
        <ele>-4.0</ele>
        <time>2019-05-16T10:13:36.939Z</time>
      </trkpt>
      <trkpt lat="38.81966167" lon="-9.11044333">
        <ele>-4.0</ele>
        <time>2019-05-16T10:13:37.902Z</time>
      </trkpt>
      <trkpt lat="38.81972333" lon="-9.11044833">
        <ele>-4.0</ele>
        <time>2019-05-16T10:13:38.911Z</time>
      </trkpt>
      <trkpt lat="38.81972333" lon="-9.11044833">
        <ele>-4.0</ele>
        <time>2019-05-16T10:13:39.916Z</time>
      </trkpt>
      <trkpt lat="38.81978333" lon="-9.11046167">
        <ele>-4.0</ele>
        <time>2019-05-16T10:13:40.930Z</time>
      </trkpt>
      <trkpt lat="38.81981333" lon="-9.11047167">
        <ele>-4.0</ele>
        <time>2019-05-16T10:13:41.928Z</time>
      </trkpt>
      <trkpt lat="38.819845" lon="-9.11048333">
        <ele>-4.0</ele>
        <time>2019-05-16T10:13:42.930Z</time>
      </trkpt>
      <trkpt lat="38.819845" lon="-9.11048333">
        <ele>-4.0</ele>
        <time>2019-05-16T10:13:43.913Z</time>
      </trkpt>
      <trkpt lat="38.81990667" lon="-9.11050667">
        <ele>-3.0</ele>
        <time>2019-05-16T10:13:44.931Z</time>
      </trkpt>
      <trkpt lat="38.81990667" lon="-9.11050667">
        <ele>-3.0</ele>
        <time>2019-05-16T10:13:45.922Z</time>
      </trkpt>
      <trkpt lat="38.819965" lon="-9.11053167">
        <ele>-3.0</ele>
        <time>2019-05-16T10:13:46.930Z</time>
      </trkpt>
      <trkpt lat="38.819965" lon="-9.11053167">
        <ele>-3.0</ele>
        <time>2019-05-16T10:13:47.912Z</time>
      </trkpt>
      <trkpt lat="38.82002167" lon="-9.11056167">
        <ele>-3.0</ele>
        <time>2019-05-16T10:13:48.923Z</time>
      </trkpt>
      <trkpt lat="38.82002167" lon="-9.11056167">
        <ele>-3.0</ele>
        <time>2019-05-16T10:13:49.908Z</time>
      </trkpt>
      <trkpt lat="38.82007833" lon="-9.11059">
        <ele>-3.0</ele>
        <time>2019-05-16T10:13:50.930Z</time>
      </trkpt>
      <trkpt lat="38.82007833" lon="-9.11059">
        <ele>-3.0</ele>
        <time>2019-05-16T10:13:51.907Z</time>
      </trkpt>
      <trkpt lat="38.82014" lon="-9.110615">
        <ele>-3.0</ele>
        <time>2019-05-16T10:13:52.920Z</time>
      </trkpt>
      <trkpt lat="38.82014" lon="-9.110615">
        <ele>-3.0</ele>
        <time>2019-05-16T10:13:53.923Z</time>
      </trkpt>
      <trkpt lat="38.8202" lon="-9.11064167">
        <ele>-3.0</ele>
        <time>2019-05-16T10:13:54.940Z</time>
      </trkpt>
      <trkpt lat="38.8202" lon="-9.11064167">
        <ele>-3.0</ele>
        <time>2019-05-16T10:13:55.934Z</time>
      </trkpt>
      <trkpt lat="38.82025833" lon="-9.11066833">
        <ele>-3.0</ele>
        <time>2019-05-16T10:13:56.902Z</time>
      </trkpt>
      <trkpt lat="38.82025833" lon="-9.11066833">
        <ele>-3.0</ele>
        <time>2019-05-16T10:13:57.936Z</time>
      </trkpt>
      <trkpt lat="38.82031833" lon="-9.11069167">
        <ele>-3.0</ele>
        <time>2019-05-16T10:13:58.909Z</time>
      </trkpt>
      <trkpt lat="38.82031833" lon="-9.11069167">
        <ele>-3.0</ele>
        <time>2019-05-16T10:13:59.932Z</time>
      </trkpt>
      <trkpt lat="38.82038" lon="-9.11072167">
        <ele>-3.0</ele>
        <time>2019-05-16T10:14:00.900Z</time>
      </trkpt>
      <trkpt lat="38.82038" lon="-9.11072167">
        <ele>-3.0</ele>
        <time>2019-05-16T10:14:01.923Z</time>
      </trkpt>
      <trkpt lat="38.82043667" lon="-9.11075833">
        <ele>-3.0</ele>
        <time>2019-05-16T10:14:02.935Z</time>
      </trkpt>
      <trkpt lat="38.82043667" lon="-9.11075833">
        <ele>-3.0</ele>
        <time>2019-05-16T10:14:03.923Z</time>
      </trkpt>
      <trkpt lat="38.82049333" lon="-9.11079667">
        <ele>-3.0</ele>
        <time>2019-05-16T10:14:04.936Z</time>
      </trkpt>
      <trkpt lat="38.82049333" lon="-9.11079667">
        <ele>-3.0</ele>
        <time>2019-05-16T10:14:05.931Z</time>
      </trkpt>
      <trkpt lat="38.82055667" lon="-9.11081667">
        <ele>-3.0</ele>
        <time>2019-05-16T10:14:06.899Z</time>
      </trkpt>
      <trkpt lat="38.82055667" lon="-9.11081667">
        <ele>-3.0</ele>
        <time>2019-05-16T10:14:07.916Z</time>
      </trkpt>
      <trkpt lat="38.820615" lon="-9.11084667">
        <ele>-2.0</ele>
        <time>2019-05-16T10:14:08.927Z</time>
      </trkpt>
      <trkpt lat="38.820615" lon="-9.11084667">
        <ele>-2.0</ele>
        <time>2019-05-16T10:14:09.913Z</time>
      </trkpt>
      <trkpt lat="38.82067" lon="-9.11087667">
        <ele>-2.0</ele>
        <time>2019-05-16T10:14:10.934Z</time>
      </trkpt>
      <trkpt lat="38.82067" lon="-9.11087667">
        <ele>-2.0</ele>
        <time>2019-05-16T10:14:11.915Z</time>
      </trkpt>
      <trkpt lat="38.82072" lon="-9.11090833">
        <ele>-2.0</ele>
        <time>2019-05-16T10:14:12.929Z</time>
      </trkpt>
      <trkpt lat="38.82074333" lon="-9.11092667">
        <ele>-2.0</ele>
        <time>2019-05-16T10:14:13.900Z</time>
      </trkpt>
      <trkpt lat="38.82074333" lon="-9.11092667">
        <ele>-2.0</ele>
        <time>2019-05-16T10:14:14.906Z</time>
      </trkpt>
      <trkpt lat="38.82078833" lon="-9.11095333">
        <ele>-2.0</ele>
        <time>2019-05-16T10:14:15.934Z</time>
      </trkpt>
      <trkpt lat="38.82078833" lon="-9.11095333">
        <ele>-2.0</ele>
        <time>2019-05-16T10:14:16.924Z</time>
      </trkpt>
      <trkpt lat="38.82083167" lon="-9.11099333">
        <ele>-2.0</ele>
        <time>2019-05-16T10:14:17.908Z</time>
      </trkpt>
      <trkpt lat="38.82085833" lon="-9.11101">
        <ele>-2.0</ele>
        <time>2019-05-16T10:14:18.932Z</time>
      </trkpt>
      <trkpt lat="38.82085833" lon="-9.11101">
        <ele>-2.0</ele>
        <time>2019-05-16T10:14:19.917Z</time>
      </trkpt>
      <trkpt lat="38.82091167" lon="-9.11104167">
        <ele>-2.0</ele>
        <time>2019-05-16T10:14:20.900Z</time>
      </trkpt>
      <trkpt lat="38.82091167" lon="-9.11104167">
        <ele>-2.0</ele>
        <time>2019-05-16T10:14:21.920Z</time>
      </trkpt>
      <trkpt lat="38.820965" lon="-9.11108">
        <ele>-1.0</ele>
        <time>2019-05-16T10:14:22.905Z</time>
      </trkpt>
      <trkpt lat="38.820965" lon="-9.11108">
        <ele>-1.0</ele>
        <time>2019-05-16T10:14:23.909Z</time>
      </trkpt>
      <trkpt lat="38.82102" lon="-9.111125">
        <ele>-1.0</ele>
        <time>2019-05-16T10:14:24.916Z</time>
      </trkpt>
      <trkpt lat="38.82102" lon="-9.111125">
        <ele>-1.0</ele>
        <time>2019-05-16T10:14:25.908Z</time>
      </trkpt>
      <trkpt lat="38.82107333" lon="-9.11116833">
        <ele>-1.0</ele>
        <time>2019-05-16T10:14:26.919Z</time>
      </trkpt>
      <trkpt lat="38.82107333" lon="-9.11116833">
        <ele>-1.0</ele>
        <time>2019-05-16T10:14:27.926Z</time>
      </trkpt>
      <trkpt lat="38.821125" lon="-9.11120667">
        <ele>-1.0</ele>
        <time>2019-05-16T10:14:28.937Z</time>
      </trkpt>
      <trkpt lat="38.821125" lon="-9.11120667">
        <ele>-1.0</ele>
        <time>2019-05-16T10:14:29.924Z</time>
      </trkpt>
      <trkpt lat="38.821175" lon="-9.11124833">
        <ele>-1.0</ele>
        <time>2019-05-16T10:14:30.936Z</time>
      </trkpt>
      <trkpt lat="38.821175" lon="-9.11124833">
        <ele>-1.0</ele>
        <time>2019-05-16T10:14:31.899Z</time>
      </trkpt>
      <trkpt lat="38.82122833" lon="-9.11128833">
        <ele>-1.0</ele>
        <time>2019-05-16T10:14:32.910Z</time>
      </trkpt>
      <trkpt lat="38.82122833" lon="-9.11128833">
        <ele>-1.0</ele>
        <time>2019-05-16T10:14:33.911Z</time>
      </trkpt>
      <trkpt lat="38.82127833" lon="-9.11132833">
        <ele>-1.0</ele>
        <time>2019-05-16T10:14:34.923Z</time>
      </trkpt>
      <trkpt lat="38.82127833" lon="-9.11132833">
        <ele>-1.0</ele>
        <time>2019-05-16T10:14:35.904Z</time>
      </trkpt>
      <trkpt lat="38.82132833" lon="-9.11136667">
        <ele>0.0</ele>
        <time>2019-05-16T10:14:36.923Z</time>
      </trkpt>
      <trkpt lat="38.82132833" lon="-9.11136667">
        <ele>0.0</ele>
        <time>2019-05-16T10:14:37.913Z</time>
      </trkpt>
      <trkpt lat="38.82138" lon="-9.11141">
        <ele>0.0</ele>
        <time>2019-05-16T10:14:38.901Z</time>
      </trkpt>
      <trkpt lat="38.82138" lon="-9.11141">
        <ele>0.0</ele>
        <time>2019-05-16T10:14:39.934Z</time>
      </trkpt>
      <trkpt lat="38.821435" lon="-9.111455">
        <ele>0.0</ele>
        <time>2019-05-16T10:14:40.910Z</time>
      </trkpt>
      <trkpt lat="38.821435" lon="-9.111455">
        <ele>0.0</ele>
        <time>2019-05-16T10:14:41.931Z</time>
      </trkpt>
      <trkpt lat="38.82149167" lon="-9.11149833">
        <ele>0.0</ele>
        <time>2019-05-16T10:14:42.899Z</time>
      </trkpt>
      <trkpt lat="38.82149167" lon="-9.11149833">
        <ele>0.0</ele>
        <time>2019-05-16T10:14:43.935Z</time>
      </trkpt>
      <trkpt lat="38.82154833" lon="-9.111545">
        <ele>0.0</ele>
        <time>2019-05-16T10:14:44.904Z</time>
      </trkpt>
      <trkpt lat="38.82157833" lon="-9.11156833">
        <ele>-1.0</ele>
        <time>2019-05-16T10:14:45.933Z</time>
      </trkpt>
      <trkpt lat="38.82157833" lon="-9.11156833">
        <ele>-1.0</ele>
        <time>2019-05-16T10:14:46.929Z</time>
      </trkpt>
      <trkpt lat="38.821635" lon="-9.111615">
        <ele>-1.0</ele>
        <time>2019-05-16T10:14:47.899Z</time>
      </trkpt>
      <trkpt lat="38.821665" lon="-9.11163833">
        <ele>-1.0</ele>
        <time>2019-05-16T10:14:48.930Z</time>
      </trkpt>
      <trkpt lat="38.821665" lon="-9.11163833">
        <ele>-1.0</ele>
        <time>2019-05-16T10:14:49.928Z</time>
      </trkpt>
      <trkpt lat="38.82172333" lon="-9.111685">
        <ele>-1.0</ele>
        <time>2019-05-16T10:14:50.936Z</time>
      </trkpt>
      <trkpt lat="38.82172333" lon="-9.111685">
        <ele>-1.0</ele>
        <time>2019-05-16T10:14:51.923Z</time>
      </trkpt>
      <trkpt lat="38.82177833" lon="-9.11173">
        <ele>-1.0</ele>
        <time>2019-05-16T10:14:52.904Z</time>
      </trkpt>
      <trkpt lat="38.82177833" lon="-9.11173">
        <ele>-1.0</ele>
        <time>2019-05-16T10:14:53.908Z</time>
      </trkpt>
      <trkpt lat="38.82183167" lon="-9.11176833">
        <ele>0.0</ele>
        <time>2019-05-16T10:14:54.916Z</time>
      </trkpt>
      <trkpt lat="38.82183167" lon="-9.11176833">
        <ele>0.0</ele>
        <time>2019-05-16T10:14:55.925Z</time>
      </trkpt>
      <trkpt lat="38.821885" lon="-9.11180833">
        <ele>0.0</ele>
        <time>2019-05-16T10:14:56.909Z</time>
      </trkpt>
      <trkpt lat="38.821885" lon="-9.11180833">
        <ele>0.0</ele>
        <time>2019-05-16T10:14:57.923Z</time>
      </trkpt>
      <trkpt lat="38.82194167" lon="-9.11185333">
        <ele>-1.0</ele>
        <time>2019-05-16T10:14:58.898Z</time>
      </trkpt>
      <trkpt lat="38.82197" lon="-9.11187833">
        <ele>-1.0</ele>
        <time>2019-05-16T10:14:59.936Z</time>
      </trkpt>
      <trkpt lat="38.82199833" lon="-9.11190333">
        <ele>-1.0</ele>
        <time>2019-05-16T10:15:00.907Z</time>
      </trkpt>
      <trkpt lat="38.82199833" lon="-9.11190333">
        <ele>-1.0</ele>
        <time>2019-05-16T10:15:01.930Z</time>
      </trkpt>
      <trkpt lat="38.82205667" lon="-9.11195167">
        <ele>-1.0</ele>
        <time>2019-05-16T10:15:02.900Z</time>
      </trkpt>
      <trkpt lat="38.82205667" lon="-9.11195167">
        <ele>-1.0</ele>
        <time>2019-05-16T10:15:03.924Z</time>
      </trkpt>
      <trkpt lat="38.822115" lon="-9.11199667">
        <ele>-1.0</ele>
        <time>2019-05-16T10:15:04.936Z</time>
      </trkpt>
      <trkpt lat="38.822115" lon="-9.11199667">
        <ele>-1.0</ele>
        <time>2019-05-16T10:15:05.916Z</time>
      </trkpt>
      <trkpt lat="38.822175" lon="-9.11204">
        <ele>-1.0</ele>
        <time>2019-05-16T10:15:06.928Z</time>
      </trkpt>
      <trkpt lat="38.822175" lon="-9.11204">
        <ele>-1.0</ele>
        <time>2019-05-16T10:15:07.930Z</time>
      </trkpt>
      <trkpt lat="38.82223167" lon="-9.11208667">
        <ele>0.0</ele>
        <time>2019-05-16T10:15:08.899Z</time>
      </trkpt>
      <trkpt lat="38.82226" lon="-9.11210833">
        <ele>0.0</ele>
        <time>2019-05-16T10:15:09.897Z</time>
      </trkpt>
      <trkpt lat="38.82226" lon="-9.11210833">
        <ele>0.0</ele>
        <time>2019-05-16T10:15:10.913Z</time>
      </trkpt>
      <trkpt lat="38.82231667" lon="-9.112155">
        <ele>0.0</ele>
        <time>2019-05-16T10:15:11.922Z</time>
      </trkpt>
      <trkpt lat="38.82234667" lon="-9.11217833">
        <ele>0.0</ele>
        <time>2019-05-16T10:15:12.933Z</time>
      </trkpt>
      <trkpt lat="38.82234667" lon="-9.11217833">
        <ele>0.0</ele>
        <time>2019-05-16T10:15:13.909Z</time>
      </trkpt>
      <trkpt lat="38.82240167" lon="-9.11221833">
        <ele>0.0</ele>
        <time>2019-05-16T10:15:14.926Z</time>
      </trkpt>
      <trkpt lat="38.82240167" lon="-9.11221833">
        <ele>0.0</ele>
        <time>2019-05-16T10:15:15.911Z</time>
      </trkpt>
      <trkpt lat="38.82245667" lon="-9.11225833">
        <ele>-1.0</ele>
        <time>2019-05-16T10:15:16.927Z</time>
      </trkpt>
      <trkpt lat="38.822485" lon="-9.11228">
        <ele>-1.0</ele>
        <time>2019-05-16T10:15:17.932Z</time>
      </trkpt>
      <trkpt lat="38.822515" lon="-9.11230333">
        <ele>-1.0</ele>
        <time>2019-05-16T10:15:18.912Z</time>
      </trkpt>
      <trkpt lat="38.822515" lon="-9.11230333">
        <ele>-1.0</ele>
        <time>2019-05-16T10:15:19.915Z</time>
      </trkpt>
      <trkpt lat="38.82256167" lon="-9.11233833">
        <ele>-1.0</ele>
        <time>2019-05-16T10:15:20.897Z</time>
      </trkpt>
      <trkpt lat="38.82256167" lon="-9.11233833">
        <ele>-1.0</ele>
        <time>2019-05-16T10:15:21.901Z</time>
      </trkpt>
      <trkpt lat="38.8226" lon="-9.11237167">
        <ele>0.0</ele>
        <time>2019-05-16T10:15:22.935Z</time>
      </trkpt>
      <trkpt lat="38.8226" lon="-9.11237167">
        <ele>0.0</ele>
        <time>2019-05-16T10:15:23.924Z</time>
      </trkpt>
      <trkpt lat="38.82264667" lon="-9.11240667">
        <ele>0.0</ele>
        <time>2019-05-16T10:15:24.897Z</time>
      </trkpt>
      <trkpt lat="38.82264667" lon="-9.11240667">
        <ele>0.0</ele>
        <time>2019-05-16T10:15:25.908Z</time>
      </trkpt>
      <trkpt lat="38.82269" lon="-9.11244333">
        <ele>1.0</ele>
        <time>2019-05-16T10:15:26.915Z</time>
      </trkpt>
      <trkpt lat="38.82271167" lon="-9.11246333">
        <ele>1.0</ele>
        <time>2019-05-16T10:15:27.904Z</time>
      </trkpt>
      <trkpt lat="38.82271167" lon="-9.11246333">
        <ele>1.0</ele>
        <time>2019-05-16T10:15:28.924Z</time>
      </trkpt>
      <trkpt lat="38.82275667" lon="-9.11249667">
        <ele>1.0</ele>
        <time>2019-05-16T10:15:29.921Z</time>
      </trkpt>
      <trkpt lat="38.82277833" lon="-9.112515">
        <ele>1.0</ele>
        <time>2019-05-16T10:15:30.975Z</time>
      </trkpt>
      <trkpt lat="38.82277833" lon="-9.112515">
        <ele>1.0</ele>
        <time>2019-05-16T10:15:31.918Z</time>
      </trkpt>
      <trkpt lat="38.82282167" lon="-9.11255333">
        <ele>1.0</ele>
        <time>2019-05-16T10:15:32.925Z</time>
      </trkpt>
      <trkpt lat="38.82282167" lon="-9.11255333">
        <ele>1.0</ele>
        <time>2019-05-16T10:15:33.910Z</time>
      </trkpt>
      <trkpt lat="38.822865" lon="-9.11259667">
        <ele>0.0</ele>
        <time>2019-05-16T10:15:34.919Z</time>
      </trkpt>
      <trkpt lat="38.822865" lon="-9.11259667">
        <ele>0.0</ele>
        <time>2019-05-16T10:15:35.914Z</time>
      </trkpt>
      <trkpt lat="38.822915" lon="-9.11264333">
        <ele>0.0</ele>
        <time>2019-05-16T10:15:36.934Z</time>
      </trkpt>
      <trkpt lat="38.822915" lon="-9.11264333">
        <ele>0.0</ele>
        <time>2019-05-16T10:15:37.927Z</time>
      </trkpt>
      <trkpt lat="38.82296667" lon="-9.11269833">
        <ele>1.0</ele>
        <time>2019-05-16T10:15:38.910Z</time>
      </trkpt>
      <trkpt lat="38.82296667" lon="-9.11269833">
        <ele>1.0</ele>
        <time>2019-05-16T10:15:39.911Z</time>
      </trkpt>
      <trkpt lat="38.82302" lon="-9.11276833">
        <ele>1.0</ele>
        <time>2019-05-16T10:15:40.924Z</time>
      </trkpt>
      <trkpt lat="38.82302" lon="-9.11276833">
        <ele>1.0</ele>
        <time>2019-05-16T10:15:41.904Z</time>
      </trkpt>
      <trkpt lat="38.82307333" lon="-9.11284">
        <ele>1.0</ele>
        <time>2019-05-16T10:15:42.914Z</time>
      </trkpt>
      <trkpt lat="38.82307333" lon="-9.11284">
        <ele>1.0</ele>
        <time>2019-05-16T10:15:43.897Z</time>
      </trkpt>
      <trkpt lat="38.823125" lon="-9.1129">
        <ele>1.0</ele>
        <time>2019-05-16T10:15:44.907Z</time>
      </trkpt>
      <trkpt lat="38.823125" lon="-9.1129">
        <ele>1.0</ele>
        <time>2019-05-16T10:15:45.907Z</time>
      </trkpt>
      <trkpt lat="38.82317167" lon="-9.11294833">
        <ele>1.0</ele>
        <time>2019-05-16T10:15:46.915Z</time>
      </trkpt>
      <trkpt lat="38.82317167" lon="-9.11294833">
        <ele>1.0</ele>
        <time>2019-05-16T10:15:47.907Z</time>
      </trkpt>
      <trkpt lat="38.82320833" lon="-9.112995">
        <ele>1.0</ele>
        <time>2019-05-16T10:15:48.927Z</time>
      </trkpt>
      <trkpt lat="38.82322333" lon="-9.11301333">
        <ele>1.0</ele>
        <time>2019-05-16T10:15:49.902Z</time>
      </trkpt>
      <trkpt lat="38.82322333" lon="-9.11301333">
        <ele>1.0</ele>
        <time>2019-05-16T10:15:50.909Z</time>
      </trkpt>
      <trkpt lat="38.82324667" lon="-9.11304667">
        <ele>1.0</ele>
        <time>2019-05-16T10:15:51.917Z</time>
      </trkpt>
      <trkpt lat="38.82324667" lon="-9.11304667">
        <ele>1.0</ele>
        <time>2019-05-16T10:15:52.923Z</time>
      </trkpt>
      <trkpt lat="38.82326167" lon="-9.11307667">
        <ele>1.0</ele>
        <time>2019-05-16T10:15:53.933Z</time>
      </trkpt>
      <trkpt lat="38.82326667" lon="-9.11308833">
        <ele>1.0</ele>
        <time>2019-05-16T10:15:54.898Z</time>
      </trkpt>
      <trkpt lat="38.82326667" lon="-9.11308833">
        <ele>1.0</ele>
        <time>2019-05-16T10:15:55.917Z</time>
      </trkpt>
      <trkpt lat="38.82326667" lon="-9.11309">
        <ele>0.0</ele>
        <time>2019-05-16T10:15:56.930Z</time>
      </trkpt>
      <trkpt lat="38.82326667" lon="-9.11309">
        <ele>0.0</ele>
        <time>2019-05-16T10:15:57.901Z</time>
      </trkpt>
      <trkpt lat="38.82326333" lon="-9.11309167">
        <ele>0.0</ele>
        <time>2019-05-16T10:15:58.907Z</time>
      </trkpt>
      <trkpt lat="38.82326333" lon="-9.11309167">
        <ele>0.0</ele>
        <time>2019-05-16T10:15:59.913Z</time>
      </trkpt>
      <trkpt lat="38.82326333" lon="-9.11309167">
        <ele>0.0</ele>
        <time>2019-05-16T10:16:00.919Z</time>
      </trkpt>
      <trkpt lat="38.82326333" lon="-9.11309167">
        <ele>0.0</ele>
        <time>2019-05-16T10:16:01.903Z</time>
      </trkpt>
      <trkpt lat="38.82326333" lon="-9.11309167">
        <ele>0.0</ele>
        <time>2019-05-16T10:16:02.936Z</time>
      </trkpt>
      <trkpt lat="38.82326333" lon="-9.11309167">
        <ele>0.0</ele>
        <time>2019-05-16T10:16:03.931Z</time>
      </trkpt>
      <trkpt lat="38.82326333" lon="-9.11309167">
        <ele>0.0</ele>
        <time>2019-05-16T10:16:04.897Z</time>
      </trkpt>
      <trkpt lat="38.82326333" lon="-9.11309167">
        <ele>0.0</ele>
        <time>2019-05-16T10:16:05.933Z</time>
      </trkpt>
      <trkpt lat="38.82326333" lon="-9.11309167">
        <ele>0.0</ele>
        <time>2019-05-16T10:16:06.899Z</time>
      </trkpt>
      <trkpt lat="38.82326333" lon="-9.11309167">
        <ele>0.0</ele>
        <time>2019-05-16T10:16:07.897Z</time>
      </trkpt>
      <trkpt lat="38.82326333" lon="-9.11309167">
        <ele>0.0</ele>
        <time>2019-05-16T10:16:08.931Z</time>
      </trkpt>
      <trkpt lat="38.82326333" lon="-9.11309167">
        <ele>0.0</ele>
        <time>2019-05-16T10:16:09.920Z</time>
      </trkpt>
      <trkpt lat="38.82326333" lon="-9.11309167">
        <ele>0.0</ele>
        <time>2019-05-16T10:16:10.898Z</time>
      </trkpt>
      <trkpt lat="38.82326333" lon="-9.11309167">
        <ele>0.0</ele>
        <time>2019-05-16T10:16:11.936Z</time>
      </trkpt>
      <trkpt lat="38.82326333" lon="-9.11309167">
        <ele>0.0</ele>
        <time>2019-05-16T10:16:12.898Z</time>
      </trkpt>
      <trkpt lat="38.82326333" lon="-9.11309167">
        <ele>0.0</ele>
        <time>2019-05-16T10:16:13.932Z</time>
      </trkpt>
      <trkpt lat="38.82326333" lon="-9.11309167">
        <ele>0.0</ele>
        <time>2019-05-16T10:16:14.936Z</time>
      </trkpt>
      <trkpt lat="38.82326333" lon="-9.11309167">
        <ele>0.0</ele>
        <time>2019-05-16T10:16:15.907Z</time>
      </trkpt>
      <trkpt lat="38.82326333" lon="-9.11309167">
        <ele>0.0</ele>
        <time>2019-05-16T10:16:16.897Z</time>
      </trkpt>
      <trkpt lat="38.82326333" lon="-9.11309167">
        <ele>0.0</ele>
        <time>2019-05-16T10:16:17.900Z</time>
      </trkpt>
      <trkpt lat="38.82326333" lon="-9.11309167">
        <ele>0.0</ele>
        <time>2019-05-16T10:16:18.898Z</time>
      </trkpt>
      <trkpt lat="38.82326333" lon="-9.11309167">
        <ele>0.0</ele>
        <time>2019-05-16T10:16:19.931Z</time>
      </trkpt>
      <trkpt lat="38.82326333" lon="-9.11309167">
        <ele>0.0</ele>
        <time>2019-05-16T10:16:20.935Z</time>
      </trkpt>
      <trkpt lat="38.82326333" lon="-9.11309167">
        <ele>0.0</ele>
        <time>2019-05-16T10:16:21.936Z</time>
      </trkpt>
      <trkpt lat="38.82326333" lon="-9.11309167">
        <ele>0.0</ele>
        <time>2019-05-16T10:16:22.932Z</time>
      </trkpt>
      <trkpt lat="38.82326333" lon="-9.11309167">
        <ele>0.0</ele>
        <time>2019-05-16T10:16:23.936Z</time>
      </trkpt>
      <trkpt lat="38.82326333" lon="-9.11309167">
        <ele>0.0</ele>
        <time>2019-05-16T10:16:24.899Z</time>
      </trkpt>
      <trkpt lat="38.82326333" lon="-9.11309167">
        <ele>0.0</ele>
        <time>2019-05-16T10:16:25.932Z</time>
      </trkpt>
      <trkpt lat="38.82326333" lon="-9.11309167">
        <ele>0.0</ele>
        <time>2019-05-16T10:16:26.897Z</time>
      </trkpt>
      <trkpt lat="38.82326333" lon="-9.11309167">
        <ele>0.0</ele>
        <time>2019-05-16T10:16:27.932Z</time>
      </trkpt>
      <trkpt lat="38.82326333" lon="-9.11309167">
        <ele>0.0</ele>
        <time>2019-05-16T10:16:28.897Z</time>
      </trkpt>
      <trkpt lat="38.82326333" lon="-9.11309167">
        <ele>0.0</ele>
        <time>2019-05-16T10:16:29.932Z</time>
      </trkpt>
      <trkpt lat="38.82326333" lon="-9.11309167">
        <ele>0.0</ele>
        <time>2019-05-16T10:16:30.898Z</time>
      </trkpt>
      <trkpt lat="38.82326333" lon="-9.11309167">
        <ele>0.0</ele>
        <time>2019-05-16T10:16:31.932Z</time>
      </trkpt>
      <trkpt lat="38.82326333" lon="-9.11309167">
        <ele>0.0</ele>
        <time>2019-05-16T10:16:32.937Z</time>
      </trkpt>
      <trkpt lat="38.82326333" lon="-9.11309167">
        <ele>0.0</ele>
        <time>2019-05-16T10:16:33.932Z</time>
      </trkpt>
      <trkpt lat="38.82326333" lon="-9.11309167">
        <ele>0.0</ele>
        <time>2019-05-16T10:16:34.934Z</time>
      </trkpt>
      <trkpt lat="38.82326333" lon="-9.11309167">
        <ele>0.0</ele>
        <time>2019-05-16T10:16:35.931Z</time>
      </trkpt>
      <trkpt lat="38.82326333" lon="-9.11309167">
        <ele>0.0</ele>
        <time>2019-05-16T10:16:36.899Z</time>
      </trkpt>
      <trkpt lat="38.82326333" lon="-9.11309167">
        <ele>0.0</ele>
        <time>2019-05-16T10:16:37.932Z</time>
      </trkpt>
      <trkpt lat="38.82326333" lon="-9.11309167">
        <ele>0.0</ele>
        <time>2019-05-16T10:16:38.936Z</time>
      </trkpt>
      <trkpt lat="38.82326333" lon="-9.11309167">
        <ele>0.0</ele>
        <time>2019-05-16T10:16:39.930Z</time>
      </trkpt>
      <trkpt lat="38.82326333" lon="-9.11309167">
        <ele>0.0</ele>
        <time>2019-05-16T10:16:40.897Z</time>
      </trkpt>
      <trkpt lat="38.82326333" lon="-9.11309167">
        <ele>0.0</ele>
        <time>2019-05-16T10:16:41.932Z</time>
      </trkpt>
      <trkpt lat="38.82326333" lon="-9.11309167">
        <ele>0.0</ele>
        <time>2019-05-16T10:16:42.899Z</time>
      </trkpt>
      <trkpt lat="38.82326333" lon="-9.11309167">
        <ele>0.0</ele>
        <time>2019-05-16T10:16:43.932Z</time>
      </trkpt>
      <trkpt lat="38.82326333" lon="-9.11309167">
        <ele>0.0</ele>
        <time>2019-05-16T10:16:44.918Z</time>
      </trkpt>
      <trkpt lat="38.82326333" lon="-9.11309167">
        <ele>0.0</ele>
        <time>2019-05-16T10:16:45.903Z</time>
      </trkpt>
      <trkpt lat="38.82326333" lon="-9.11309167">
        <ele>0.0</ele>
        <time>2019-05-16T10:16:46.897Z</time>
      </trkpt>
      <trkpt lat="38.82326333" lon="-9.11309167">
        <ele>0.0</ele>
        <time>2019-05-16T10:16:47.898Z</time>
      </trkpt>
      <trkpt lat="38.82326333" lon="-9.11309167">
        <ele>0.0</ele>
        <time>2019-05-16T10:16:48.898Z</time>
      </trkpt>
      <trkpt lat="38.82326333" lon="-9.11309167">
        <ele>0.0</ele>
        <time>2019-05-16T10:16:49.927Z</time>
      </trkpt>
      <trkpt lat="38.82326333" lon="-9.11309167">
        <ele>0.0</ele>
        <time>2019-05-16T10:16:50.912Z</time>
      </trkpt>
      <trkpt lat="38.82326333" lon="-9.11309167">
        <ele>0.0</ele>
        <time>2019-05-16T10:16:51.898Z</time>
      </trkpt>
      <trkpt lat="38.82326333" lon="-9.11309167">
        <ele>0.0</ele>
        <time>2019-05-16T10:16:52.931Z</time>
      </trkpt>
      <trkpt lat="38.82326333" lon="-9.11309167">
        <ele>0.0</ele>
        <time>2019-05-16T10:16:53.930Z</time>
      </trkpt>
      <trkpt lat="38.82326333" lon="-9.11309167">
        <ele>0.0</ele>
        <time>2019-05-16T10:16:54.908Z</time>
      </trkpt>
      <trkpt lat="38.82326333" lon="-9.11309167">
        <ele>0.0</ele>
        <time>2019-05-16T10:16:55.934Z</time>
      </trkpt>
      <trkpt lat="38.82326333" lon="-9.11309167">
        <ele>0.0</ele>
        <time>2019-05-16T10:16:56.897Z</time>
      </trkpt>
      <trkpt lat="38.82326333" lon="-9.11309167">
        <ele>0.0</ele>
        <time>2019-05-16T10:16:57.931Z</time>
      </trkpt>
      <trkpt lat="38.82326333" lon="-9.11309167">
        <ele>0.0</ele>
        <time>2019-05-16T10:16:58.911Z</time>
      </trkpt>
      <trkpt lat="38.82326333" lon="-9.11309167">
        <ele>0.0</ele>
        <time>2019-05-16T10:16:59.937Z</time>
      </trkpt>
      <trkpt lat="38.82326333" lon="-9.11309167">
        <ele>0.0</ele>
        <time>2019-05-16T10:17:00.900Z</time>
      </trkpt>
      <trkpt lat="38.82326333" lon="-9.11309167">
        <ele>0.0</ele>
        <time>2019-05-16T10:17:01.934Z</time>
      </trkpt>
      <trkpt lat="38.82326333" lon="-9.11309167">
        <ele>0.0</ele>
        <time>2019-05-16T10:17:02.936Z</time>
      </trkpt>
      <trkpt lat="38.82326333" lon="-9.11309167">
        <ele>0.0</ele>
        <time>2019-05-16T10:17:03.930Z</time>
      </trkpt>
      <trkpt lat="38.82326333" lon="-9.11309167">
        <ele>0.0</ele>
        <time>2019-05-16T10:17:04.916Z</time>
      </trkpt>
      <trkpt lat="38.82326333" lon="-9.11309167">
        <ele>0.0</ele>
        <time>2019-05-16T10:17:05.904Z</time>
      </trkpt>
      <trkpt lat="38.82326333" lon="-9.11309167">
        <ele>0.0</ele>
        <time>2019-05-16T10:17:06.899Z</time>
      </trkpt>
      <trkpt lat="38.82326333" lon="-9.11309167">
        <ele>0.0</ele>
        <time>2019-05-16T10:17:07.938Z</time>
      </trkpt>
      <trkpt lat="38.82326333" lon="-9.11309167">
        <ele>0.0</ele>
        <time>2019-05-16T10:17:08.897Z</time>
      </trkpt>
      <trkpt lat="38.82326333" lon="-9.11309167">
        <ele>0.0</ele>
        <time>2019-05-16T10:17:09.931Z</time>
      </trkpt>
      <trkpt lat="38.82326333" lon="-9.11309167">
        <ele>0.0</ele>
        <time>2019-05-16T10:17:10.909Z</time>
      </trkpt>
      <trkpt lat="38.82326333" lon="-9.11309167">
        <ele>0.0</ele>
        <time>2019-05-16T10:17:11.934Z</time>
      </trkpt>
      <trkpt lat="38.82326333" lon="-9.11309167">
        <ele>0.0</ele>
        <time>2019-05-16T10:17:12.899Z</time>
      </trkpt>
      <trkpt lat="38.82326333" lon="-9.11309167">
        <ele>0.0</ele>
        <time>2019-05-16T10:17:13.930Z</time>
      </trkpt>
      <trkpt lat="38.82326333" lon="-9.11309167">
        <ele>0.0</ele>
        <time>2019-05-16T10:17:14.916Z</time>
      </trkpt>
      <trkpt lat="38.82326333" lon="-9.11309167">
        <ele>0.0</ele>
        <time>2019-05-16T10:17:15.901Z</time>
      </trkpt>
      <trkpt lat="38.82326333" lon="-9.11309167">
        <ele>0.0</ele>
        <time>2019-05-16T10:17:16.937Z</time>
      </trkpt>
      <trkpt lat="38.82326333" lon="-9.11309167">
        <ele>0.0</ele>
        <time>2019-05-16T10:17:17.931Z</time>
      </trkpt>
      <trkpt lat="38.82326333" lon="-9.11309167">
        <ele>0.0</ele>
        <time>2019-05-16T10:17:18.909Z</time>
      </trkpt>
      <trkpt lat="38.82326333" lon="-9.11309167">
        <ele>0.0</ele>
        <time>2019-05-16T10:17:19.897Z</time>
      </trkpt>
      <trkpt lat="38.82326333" lon="-9.11309167">
        <ele>0.0</ele>
        <time>2019-05-16T10:17:20.911Z</time>
      </trkpt>
      <trkpt lat="38.82326333" lon="-9.11309167">
        <ele>0.0</ele>
        <time>2019-05-16T10:17:21.902Z</time>
      </trkpt>
      <trkpt lat="38.82326333" lon="-9.11309167">
        <ele>0.0</ele>
        <time>2019-05-16T10:17:22.935Z</time>
      </trkpt>
      <trkpt lat="38.82326333" lon="-9.11309167">
        <ele>0.0</ele>
        <time>2019-05-16T10:17:23.936Z</time>
      </trkpt>
      <trkpt lat="38.82326333" lon="-9.11309167">
        <ele>0.0</ele>
        <time>2019-05-16T10:17:24.931Z</time>
      </trkpt>
      <trkpt lat="38.82326333" lon="-9.11309167">
        <ele>0.0</ele>
        <time>2019-05-16T10:17:25.935Z</time>
      </trkpt>
      <trkpt lat="38.82326333" lon="-9.11309167">
        <ele>0.0</ele>
        <time>2019-05-16T10:17:26.937Z</time>
      </trkpt>
      <trkpt lat="38.82326333" lon="-9.11309167">
        <ele>0.0</ele>
        <time>2019-05-16T10:17:27.931Z</time>
      </trkpt>
      <trkpt lat="38.82326333" lon="-9.11309167">
        <ele>0.0</ele>
        <time>2019-05-16T10:17:28.934Z</time>
      </trkpt>
      <trkpt lat="38.82326333" lon="-9.11309167">
        <ele>0.0</ele>
        <time>2019-05-16T10:17:29.932Z</time>
      </trkpt>
      <trkpt lat="38.82326333" lon="-9.11309167">
        <ele>0.0</ele>
        <time>2019-05-16T10:17:30.919Z</time>
      </trkpt>
      <trkpt lat="38.82326333" lon="-9.11309167">
        <ele>0.0</ele>
        <time>2019-05-16T10:17:31.904Z</time>
      </trkpt>
      <trkpt lat="38.82326333" lon="-9.11309167">
        <ele>0.0</ele>
        <time>2019-05-16T10:17:32.936Z</time>
      </trkpt>
      <trkpt lat="38.82326333" lon="-9.11309167">
        <ele>0.0</ele>
        <time>2019-05-16T10:17:33.930Z</time>
      </trkpt>
      <trkpt lat="38.82326333" lon="-9.11309167">
        <ele>0.0</ele>
        <time>2019-05-16T10:17:34.916Z</time>
      </trkpt>
      <trkpt lat="38.82326333" lon="-9.11309167">
        <ele>0.0</ele>
        <time>2019-05-16T10:17:35.902Z</time>
      </trkpt>
      <trkpt lat="38.82326333" lon="-9.11309167">
        <ele>0.0</ele>
        <time>2019-05-16T10:17:36.936Z</time>
      </trkpt>
      <trkpt lat="38.82326333" lon="-9.11309167">
        <ele>0.0</ele>
        <time>2019-05-16T10:17:37.931Z</time>
      </trkpt>
      <trkpt lat="38.82326333" lon="-9.11309167">
        <ele>0.0</ele>
        <time>2019-05-16T10:17:38.936Z</time>
      </trkpt>
      <trkpt lat="38.82326333" lon="-9.11309167">
        <ele>0.0</ele>
        <time>2019-05-16T10:17:39.931Z</time>
      </trkpt>
      <trkpt lat="38.82326333" lon="-9.11309167">
        <ele>0.0</ele>
        <time>2019-05-16T10:17:40.935Z</time>
      </trkpt>
      <trkpt lat="38.82326333" lon="-9.11309167">
        <ele>0.0</ele>
        <time>2019-05-16T10:17:41.936Z</time>
      </trkpt>
      <trkpt lat="38.82326333" lon="-9.11309167">
        <ele>0.0</ele>
        <time>2019-05-16T10:17:42.898Z</time>
      </trkpt>
      <trkpt lat="38.82326333" lon="-9.11309167">
        <ele>0.0</ele>
        <time>2019-05-16T10:17:43.930Z</time>
      </trkpt>
      <trkpt lat="38.82326333" lon="-9.11309167">
        <ele>0.0</ele>
        <time>2019-05-16T10:17:44.936Z</time>
      </trkpt>
      <trkpt lat="38.82326333" lon="-9.11309167">
        <ele>0.0</ele>
        <time>2019-05-16T10:17:45.930Z</time>
      </trkpt>
      <trkpt lat="38.82326333" lon="-9.11309167">
        <ele>0.0</ele>
        <time>2019-05-16T10:17:46.932Z</time>
      </trkpt>
      <trkpt lat="38.82326333" lon="-9.11309167">
        <ele>0.0</ele>
        <time>2019-05-16T10:17:47.935Z</time>
      </trkpt>
      <trkpt lat="38.82326333" lon="-9.11309167">
        <ele>0.0</ele>
        <time>2019-05-16T10:17:48.919Z</time>
      </trkpt>
      <trkpt lat="38.82326333" lon="-9.11309167">
        <ele>0.0</ele>
        <time>2019-05-16T10:17:49.905Z</time>
      </trkpt>
      <trkpt lat="38.82326333" lon="-9.11309167">
        <ele>0.0</ele>
        <time>2019-05-16T10:17:50.934Z</time>
      </trkpt>
      <trkpt lat="38.82326333" lon="-9.11309167">
        <ele>0.0</ele>
        <time>2019-05-16T10:17:51.930Z</time>
      </trkpt>
      <trkpt lat="38.82326333" lon="-9.11309167">
        <ele>0.0</ele>
        <time>2019-05-16T10:17:52.935Z</time>
      </trkpt>
      <trkpt lat="38.82326333" lon="-9.11309167">
        <ele>0.0</ele>
        <time>2019-05-16T10:17:53.930Z</time>
      </trkpt>
      <trkpt lat="38.82326333" lon="-9.11309167">
        <ele>0.0</ele>
        <time>2019-05-16T10:17:54.936Z</time>
      </trkpt>
      <trkpt lat="38.82326333" lon="-9.11309167">
        <ele>0.0</ele>
        <time>2019-05-16T10:17:55.930Z</time>
      </trkpt>
      <trkpt lat="38.82326333" lon="-9.11309167">
        <ele>0.0</ele>
        <time>2019-05-16T10:17:56.934Z</time>
      </trkpt>
      <trkpt lat="38.82326333" lon="-9.11309167">
        <ele>0.0</ele>
        <time>2019-05-16T10:17:57.935Z</time>
      </trkpt>
      <trkpt lat="38.82326333" lon="-9.11309167">
        <ele>0.0</ele>
        <time>2019-05-16T10:17:58.931Z</time>
      </trkpt>
      <trkpt lat="38.82326333" lon="-9.11309167">
        <ele>0.0</ele>
        <time>2019-05-16T10:17:59.936Z</time>
      </trkpt>
      <trkpt lat="38.82326333" lon="-9.11309167">
        <ele>0.0</ele>
        <time>2019-05-16T10:18:00.898Z</time>
      </trkpt>
      <trkpt lat="38.82326333" lon="-9.11309167">
        <ele>0.0</ele>
        <time>2019-05-16T10:18:01.930Z</time>
      </trkpt>
      <trkpt lat="38.82326333" lon="-9.11309167">
        <ele>0.0</ele>
        <time>2019-05-16T10:18:02.936Z</time>
      </trkpt>
      <trkpt lat="38.82326333" lon="-9.11309167">
        <ele>0.0</ele>
        <time>2019-05-16T10:18:03.931Z</time>
      </trkpt>
      <trkpt lat="38.82326333" lon="-9.11309167">
        <ele>0.0</ele>
        <time>2019-05-16T10:18:04.916Z</time>
      </trkpt>
      <trkpt lat="38.82326333" lon="-9.11309167">
        <ele>0.0</ele>
        <time>2019-05-16T10:18:05.902Z</time>
      </trkpt>
      <trkpt lat="38.82326333" lon="-9.11309167">
        <ele>0.0</ele>
        <time>2019-05-16T10:18:06.898Z</time>
      </trkpt>
      <trkpt lat="38.82326333" lon="-9.11309167">
        <ele>0.0</ele>
        <time>2019-05-16T10:18:07.931Z</time>
      </trkpt>
      <trkpt lat="38.82326333" lon="-9.11309167">
        <ele>0.0</ele>
        <time>2019-05-16T10:18:08.935Z</time>
      </trkpt>
      <trkpt lat="38.82326333" lon="-9.11309167">
        <ele>0.0</ele>
        <time>2019-05-16T10:18:09.931Z</time>
      </trkpt>
      <trkpt lat="38.82326333" lon="-9.11309167">
        <ele>0.0</ele>
        <time>2019-05-16T10:18:10.922Z</time>
      </trkpt>
      <trkpt lat="38.82328333" lon="-9.11311">
        <ele>-4.0</ele>
        <time>2019-05-16T10:18:11.903Z</time>
      </trkpt>
      <trkpt lat="38.82328333" lon="-9.11311">
        <ele>-4.0</ele>
        <time>2019-05-16T10:18:12.934Z</time>
      </trkpt>
      <trkpt lat="38.823315" lon="-9.113135">
        <ele>-4.0</ele>
        <time>2019-05-16T10:18:13.936Z</time>
      </trkpt>
      <trkpt lat="38.823335" lon="-9.11314333">
        <ele>-4.0</ele>
        <time>2019-05-16T10:18:14.936Z</time>
      </trkpt>
      <trkpt lat="38.823335" lon="-9.11314333">
        <ele>-4.0</ele>
        <time>2019-05-16T10:18:15.930Z</time>
      </trkpt>
      <trkpt lat="38.82337667" lon="-9.11313167">
        <ele>-4.0</ele>
        <time>2019-05-16T10:18:16.935Z</time>
      </trkpt>
      <trkpt lat="38.82337667" lon="-9.11313167">
        <ele>-4.0</ele>
        <time>2019-05-16T10:18:17.931Z</time>
      </trkpt>
      <trkpt lat="38.8234" lon="-9.11308833">
        <ele>-4.0</ele>
        <time>2019-05-16T10:18:18.905Z</time>
      </trkpt>
      <trkpt lat="38.8234" lon="-9.11308833">
        <ele>-4.0</ele>
        <time>2019-05-16T10:18:19.911Z</time>
      </trkpt>
      <trkpt lat="38.82342" lon="-9.11304667">
        <ele>-4.0</ele>
        <time>2019-05-16T10:18:20.936Z</time>
      </trkpt>
      <trkpt lat="38.82342" lon="-9.11304667">
        <ele>-4.0</ele>
        <time>2019-05-16T10:18:21.917Z</time>
      </trkpt>
      <trkpt lat="38.82343333" lon="-9.11303333">
        <ele>-4.0</ele>
        <time>2019-05-16T10:18:22.936Z</time>
      </trkpt>
      <trkpt lat="38.82343333" lon="-9.11303333">
        <ele>-4.0</ele>
        <time>2019-05-16T10:18:23.936Z</time>
      </trkpt>
      <trkpt lat="38.82343" lon="-9.11304">
        <ele>-4.0</ele>
        <time>2019-05-16T10:18:24.915Z</time>
      </trkpt>
      <trkpt lat="38.82343" lon="-9.11304">
        <ele>-4.0</ele>
        <time>2019-05-16T10:18:25.904Z</time>
      </trkpt>
      <trkpt lat="38.82343" lon="-9.11304">
        <ele>-4.0</ele>
        <time>2019-05-16T10:18:26.910Z</time>
      </trkpt>
      <trkpt lat="38.82343" lon="-9.11304">
        <ele>-4.0</ele>
        <time>2019-05-16T10:18:27.916Z</time>
      </trkpt>
      <trkpt lat="38.82343" lon="-9.11304">
        <ele>-4.0</ele>
        <time>2019-05-16T10:18:28.925Z</time>
      </trkpt>
      <trkpt lat="38.82343" lon="-9.11304">
        <ele>-4.0</ele>
        <time>2019-05-16T10:18:29.914Z</time>
      </trkpt>
      <trkpt lat="38.82343" lon="-9.11304">
        <ele>-4.0</ele>
        <time>2019-05-16T10:18:30.899Z</time>
      </trkpt>
      <trkpt lat="38.82343" lon="-9.11304">
        <ele>-4.0</ele>
        <time>2019-05-16T10:18:31.931Z</time>
      </trkpt>
      <trkpt lat="38.82343" lon="-9.11304">
        <ele>-4.0</ele>
        <time>2019-05-16T10:18:32.936Z</time>
      </trkpt>
      <trkpt lat="38.82343" lon="-9.11304">
        <ele>-4.0</ele>
        <time>2019-05-16T10:18:33.931Z</time>
      </trkpt>
      <trkpt lat="38.82343" lon="-9.11304">
        <ele>-4.0</ele>
        <time>2019-05-16T10:18:34.897Z</time>
      </trkpt>
      <trkpt lat="38.82343" lon="-9.11304">
        <ele>-4.0</ele>
        <time>2019-05-16T10:18:35.930Z</time>
      </trkpt>
      <trkpt lat="38.82343" lon="-9.11304">
        <ele>-4.0</ele>
        <time>2019-05-16T10:18:36.898Z</time>
      </trkpt>
      <trkpt lat="38.82343" lon="-9.11304">
        <ele>-4.0</ele>
        <time>2019-05-16T10:18:37.931Z</time>
      </trkpt>
      <trkpt lat="38.82343" lon="-9.11304">
        <ele>-4.0</ele>
        <time>2019-05-16T10:18:38.936Z</time>
      </trkpt>
      <trkpt lat="38.82343" lon="-9.11304">
        <ele>-4.0</ele>
        <time>2019-05-16T10:18:39.930Z</time>
      </trkpt>
      <trkpt lat="38.82343" lon="-9.11304">
        <ele>-4.0</ele>
        <time>2019-05-16T10:18:40.927Z</time>
      </trkpt>
      <trkpt lat="38.82343" lon="-9.11304">
        <ele>-4.0</ele>
        <time>2019-05-16T10:18:41.936Z</time>
      </trkpt>
      <trkpt lat="38.82343" lon="-9.11304">
        <ele>-4.0</ele>
        <time>2019-05-16T10:18:42.915Z</time>
      </trkpt>
      <trkpt lat="38.82343" lon="-9.11304">
        <ele>-4.0</ele>
        <time>2019-05-16T10:18:43.900Z</time>
      </trkpt>
      <trkpt lat="38.82343" lon="-9.11304">
        <ele>-4.0</ele>
        <time>2019-05-16T10:18:44.935Z</time>
      </trkpt>
      <trkpt lat="38.82343" lon="-9.11304">
        <ele>-4.0</ele>
        <time>2019-05-16T10:18:45.930Z</time>
      </trkpt>
      <trkpt lat="38.82343" lon="-9.11304">
        <ele>-4.0</ele>
        <time>2019-05-16T10:18:46.937Z</time>
      </trkpt>
      <trkpt lat="38.82343" lon="-9.11304">
        <ele>-4.0</ele>
        <time>2019-05-16T10:18:47.927Z</time>
      </trkpt>
      <trkpt lat="38.82343" lon="-9.11304">
        <ele>-4.0</ele>
        <time>2019-05-16T10:18:48.913Z</time>
      </trkpt>
      <trkpt lat="38.82343" lon="-9.11304">
        <ele>-4.0</ele>
        <time>2019-05-16T10:18:49.898Z</time>
      </trkpt>
      <trkpt lat="38.82343" lon="-9.11304">
        <ele>-4.0</ele>
        <time>2019-05-16T10:18:50.935Z</time>
      </trkpt>
      <trkpt lat="38.82343" lon="-9.11304">
        <ele>-4.0</ele>
        <time>2019-05-16T10:18:51.935Z</time>
      </trkpt>
      <trkpt lat="38.82343" lon="-9.11304">
        <ele>-4.0</ele>
        <time>2019-05-16T10:18:52.930Z</time>
      </trkpt>
      <trkpt lat="38.82343" lon="-9.11304">
        <ele>-4.0</ele>
        <time>2019-05-16T10:18:53.916Z</time>
      </trkpt>
      <trkpt lat="38.82343" lon="-9.11304">
        <ele>-4.0</ele>
        <time>2019-05-16T10:18:54.901Z</time>
      </trkpt>
      <trkpt lat="38.82343" lon="-9.11304">
        <ele>-4.0</ele>
        <time>2019-05-16T10:18:55.930Z</time>
      </trkpt>
      <trkpt lat="38.82343" lon="-9.11304">
        <ele>-4.0</ele>
        <time>2019-05-16T10:18:56.935Z</time>
      </trkpt>
      <trkpt lat="38.82343" lon="-9.11304">
        <ele>-4.0</ele>
        <time>2019-05-16T10:18:57.931Z</time>
      </trkpt>
      <trkpt lat="38.82343" lon="-9.11304">
        <ele>-4.0</ele>
        <time>2019-05-16T10:18:58.935Z</time>
      </trkpt>
      <trkpt lat="38.82343" lon="-9.11304">
        <ele>-4.0</ele>
        <time>2019-05-16T10:18:59.936Z</time>
      </trkpt>
      <trkpt lat="38.82343" lon="-9.11304">
        <ele>-4.0</ele>
        <time>2019-05-16T10:19:00.931Z</time>
      </trkpt>
      <trkpt lat="38.82343" lon="-9.11304">
        <ele>-4.0</ele>
        <time>2019-05-16T10:19:01.909Z</time>
      </trkpt>
      <trkpt lat="38.82343" lon="-9.11304">
        <ele>-4.0</ele>
        <time>2019-05-16T10:19:02.920Z</time>
      </trkpt>
      <trkpt lat="38.82343" lon="-9.11304">
        <ele>-4.0</ele>
        <time>2019-05-16T10:19:03.932Z</time>
      </trkpt>
      <trkpt lat="38.82343" lon="-9.11304">
        <ele>-4.0</ele>
        <time>2019-05-16T10:19:04.935Z</time>
      </trkpt>
      <trkpt lat="38.82343" lon="-9.11304">
        <ele>-4.0</ele>
        <time>2019-05-16T10:19:05.936Z</time>
      </trkpt>
      <trkpt lat="38.82343" lon="-9.11304">
        <ele>-4.0</ele>
        <time>2019-05-16T10:19:06.933Z</time>
      </trkpt>
      <trkpt lat="38.82343" lon="-9.11304">
        <ele>-4.0</ele>
        <time>2019-05-16T10:19:07.913Z</time>
      </trkpt>
      <trkpt lat="38.82343" lon="-9.11304">
        <ele>-4.0</ele>
        <time>2019-05-16T10:19:08.935Z</time>
      </trkpt>
      <trkpt lat="38.82343" lon="-9.11304">
        <ele>-4.0</ele>
        <time>2019-05-16T10:19:09.932Z</time>
      </trkpt>
      <trkpt lat="38.82343" lon="-9.11304">
        <ele>-4.0</ele>
        <time>2019-05-16T10:19:10.936Z</time>
      </trkpt>
      <trkpt lat="38.82343" lon="-9.11304">
        <ele>-4.0</ele>
        <time>2019-05-16T10:19:11.932Z</time>
      </trkpt>
      <trkpt lat="38.82343" lon="-9.11304">
        <ele>-4.0</ele>
        <time>2019-05-16T10:19:12.899Z</time>
      </trkpt>
      <trkpt lat="38.82343" lon="-9.11304">
        <ele>-4.0</ele>
        <time>2019-05-16T10:19:13.930Z</time>
      </trkpt>
      <trkpt lat="38.82343" lon="-9.11304">
        <ele>-4.0</ele>
        <time>2019-05-16T10:19:14.916Z</time>
      </trkpt>
      <trkpt lat="38.82343" lon="-9.11304">
        <ele>-4.0</ele>
        <time>2019-05-16T10:19:15.910Z</time>
      </trkpt>
      <trkpt lat="38.82343" lon="-9.11304">
        <ele>-4.0</ele>
        <time>2019-05-16T10:19:16.937Z</time>
      </trkpt>
      <trkpt lat="38.82343" lon="-9.11304">
        <ele>-4.0</ele>
        <time>2019-05-16T10:19:17.932Z</time>
      </trkpt>
      <trkpt lat="38.82346167" lon="-9.11300667">
        <ele>-4.0</ele>
        <time>2019-05-16T10:19:18.908Z</time>
      </trkpt>
      <trkpt lat="38.82346167" lon="-9.11300667">
        <ele>-4.0</ele>
        <time>2019-05-16T10:19:19.934Z</time>
      </trkpt>
      <trkpt lat="38.823495" lon="-9.11296167">
        <ele>-4.0</ele>
        <time>2019-05-16T10:19:20.931Z</time>
      </trkpt>
      <trkpt lat="38.823495" lon="-9.11296167">
        <ele>-4.0</ele>
        <time>2019-05-16T10:19:21.927Z</time>
      </trkpt>
      <trkpt lat="38.82353833" lon="-9.11290833">
        <ele>-5.0</ele>
        <time>2019-05-16T10:19:22.939Z</time>
      </trkpt>
      <trkpt lat="38.82353833" lon="-9.11290833">
        <ele>-5.0</ele>
        <time>2019-05-16T10:19:23.924Z</time>
      </trkpt>
      <trkpt lat="38.82360333" lon="-9.11285667">
        <ele>-6.0</ele>
        <time>2019-05-16T10:19:24.922Z</time>
      </trkpt>
      <trkpt lat="38.82360333" lon="-9.11285667">
        <ele>-6.0</ele>
        <time>2019-05-16T10:19:25.908Z</time>
      </trkpt>
      <trkpt lat="38.82368" lon="-9.112855">
        <ele>-5.0</ele>
        <time>2019-05-16T10:19:26.919Z</time>
      </trkpt>
      <trkpt lat="38.82368" lon="-9.112855">
        <ele>-5.0</ele>
        <time>2019-05-16T10:19:27.922Z</time>
      </trkpt>
      <trkpt lat="38.82374333" lon="-9.11288333">
        <ele>-5.0</ele>
        <time>2019-05-16T10:19:28.932Z</time>
      </trkpt>
      <trkpt lat="38.82374333" lon="-9.11288333">
        <ele>-5.0</ele>
        <time>2019-05-16T10:19:29.908Z</time>
      </trkpt>
      <trkpt lat="38.82380333" lon="-9.11292833">
        <ele>-5.0</ele>
        <time>2019-05-16T10:19:30.918Z</time>
      </trkpt>
      <trkpt lat="38.82380333" lon="-9.11292833">
        <ele>-5.0</ele>
        <time>2019-05-16T10:19:31.914Z</time>
      </trkpt>
      <trkpt lat="38.82386" lon="-9.112965">
        <ele>-5.0</ele>
        <time>2019-05-16T10:19:32.913Z</time>
      </trkpt>
      <trkpt lat="38.82388833" lon="-9.112985">
        <ele>-5.0</ele>
        <time>2019-05-16T10:19:33.911Z</time>
      </trkpt>
      <trkpt lat="38.82388833" lon="-9.112985">
        <ele>-5.0</ele>
        <time>2019-05-16T10:19:34.901Z</time>
      </trkpt>
      <trkpt lat="38.823945" lon="-9.11301333">
        <ele>-5.0</ele>
        <time>2019-05-16T10:19:35.910Z</time>
      </trkpt>
      <trkpt lat="38.82397333" lon="-9.11302667">
        <ele>-5.0</ele>
        <time>2019-05-16T10:19:36.897Z</time>
      </trkpt>
      <trkpt lat="38.82397333" lon="-9.11302667">
        <ele>-5.0</ele>
        <time>2019-05-16T10:19:37.919Z</time>
      </trkpt>
      <trkpt lat="38.82403167" lon="-9.11305667">
        <ele>-5.0</ele>
        <time>2019-05-16T10:19:38.936Z</time>
      </trkpt>
      <trkpt lat="38.82403167" lon="-9.11305667">
        <ele>-5.0</ele>
        <time>2019-05-16T10:19:39.923Z</time>
      </trkpt>
      <trkpt lat="38.824085" lon="-9.113095">
        <ele>-4.0</ele>
        <time>2019-05-16T10:19:40.921Z</time>
      </trkpt>
      <trkpt lat="38.824085" lon="-9.113095">
        <ele>-4.0</ele>
        <time>2019-05-16T10:19:41.902Z</time>
      </trkpt>
      <trkpt lat="38.82413667" lon="-9.113145">
        <ele>-4.0</ele>
        <time>2019-05-16T10:19:42.913Z</time>
      </trkpt>
      <trkpt lat="38.82413667" lon="-9.113145">
        <ele>-4.0</ele>
        <time>2019-05-16T10:19:43.924Z</time>
      </trkpt>
      <trkpt lat="38.82418167" lon="-9.11319167">
        <ele>-3.0</ele>
        <time>2019-05-16T10:19:44.935Z</time>
      </trkpt>
      <trkpt lat="38.82418167" lon="-9.11319167">
        <ele>-3.0</ele>
        <time>2019-05-16T10:19:45.902Z</time>
      </trkpt>
      <trkpt lat="38.82421667" lon="-9.11322167">
        <ele>-3.0</ele>
        <time>2019-05-16T10:19:46.916Z</time>
      </trkpt>
      <trkpt lat="38.82421667" lon="-9.11322167">
        <ele>-3.0</ele>
        <time>2019-05-16T10:19:47.922Z</time>
      </trkpt>
      <trkpt lat="38.82424167" lon="-9.11325333">
        <ele>-3.0</ele>
        <time>2019-05-16T10:19:48.930Z</time>
      </trkpt>
      <trkpt lat="38.82424167" lon="-9.11325333">
        <ele>-3.0</ele>
        <time>2019-05-16T10:19:49.905Z</time>
      </trkpt>
      <trkpt lat="38.82426667" lon="-9.11328">
        <ele>-2.0</ele>
        <time>2019-05-16T10:19:50.915Z</time>
      </trkpt>
      <trkpt lat="38.82426667" lon="-9.11328">
        <ele>-2.0</ele>
        <time>2019-05-16T10:19:51.905Z</time>
      </trkpt>
      <trkpt lat="38.82429333" lon="-9.11330167">
        <ele>-2.0</ele>
        <time>2019-05-16T10:19:52.913Z</time>
      </trkpt>
      <trkpt lat="38.82429333" lon="-9.11330167">
        <ele>-2.0</ele>
        <time>2019-05-16T10:19:53.902Z</time>
      </trkpt>
      <trkpt lat="38.824325" lon="-9.11333667">
        <ele>-2.0</ele>
        <time>2019-05-16T10:19:54.912Z</time>
      </trkpt>
      <trkpt lat="38.824325" lon="-9.11333667">
        <ele>-2.0</ele>
        <time>2019-05-16T10:19:55.931Z</time>
      </trkpt>
      <trkpt lat="38.824365" lon="-9.11338">
        <ele>-2.0</ele>
        <time>2019-05-16T10:19:56.902Z</time>
      </trkpt>
      <trkpt lat="38.824365" lon="-9.11338">
        <ele>-2.0</ele>
        <time>2019-05-16T10:19:57.903Z</time>
      </trkpt>
      <trkpt lat="38.82441667" lon="-9.11343333">
        <ele>-2.0</ele>
        <time>2019-05-16T10:19:58.916Z</time>
      </trkpt>
      <trkpt lat="38.82441667" lon="-9.11343333">
        <ele>-2.0</ele>
        <time>2019-05-16T10:19:59.900Z</time>
      </trkpt>
      <trkpt lat="38.82447333" lon="-9.11349333">
        <ele>-2.0</ele>
        <time>2019-05-16T10:20:00.909Z</time>
      </trkpt>
      <trkpt lat="38.82447333" lon="-9.11349333">
        <ele>-2.0</ele>
        <time>2019-05-16T10:20:01.904Z</time>
      </trkpt>
      <trkpt lat="38.82452333" lon="-9.113545">
        <ele>-2.0</ele>
        <time>2019-05-16T10:20:02.957Z</time>
      </trkpt>
      <trkpt lat="38.82452333" lon="-9.113545">
        <ele>-2.0</ele>
        <time>2019-05-16T10:20:03.911Z</time>
      </trkpt>
      <trkpt lat="38.82457667" lon="-9.113595">
        <ele>-2.0</ele>
        <time>2019-05-16T10:20:04.925Z</time>
      </trkpt>
      <trkpt lat="38.82460333" lon="-9.11362">
        <ele>-2.0</ele>
        <time>2019-05-16T10:20:05.922Z</time>
      </trkpt>
      <trkpt lat="38.82463167" lon="-9.113645">
        <ele>-2.0</ele>
        <time>2019-05-16T10:20:06.920Z</time>
      </trkpt>
      <trkpt lat="38.82463167" lon="-9.113645">
        <ele>-2.0</ele>
        <time>2019-05-16T10:20:07.922Z</time>
      </trkpt>
      <trkpt lat="38.824685" lon="-9.11370167">
        <ele>-2.0</ele>
        <time>2019-05-16T10:20:08.899Z</time>
      </trkpt>
      <trkpt lat="38.824685" lon="-9.11370167">
        <ele>-2.0</ele>
        <time>2019-05-16T10:20:09.916Z</time>
      </trkpt>
      <trkpt lat="38.82473667" lon="-9.11375167">
        <ele>-1.0</ele>
        <time>2019-05-16T10:20:10.939Z</time>
      </trkpt>
      <trkpt lat="38.82473667" lon="-9.11375167">
        <ele>-1.0</ele>
        <time>2019-05-16T10:20:11.926Z</time>
      </trkpt>
      <trkpt lat="38.82478833" lon="-9.113805">
        <ele>-1.0</ele>
        <time>2019-05-16T10:20:12.938Z</time>
      </trkpt>
      <trkpt lat="38.82478833" lon="-9.113805">
        <ele>-1.0</ele>
        <time>2019-05-16T10:20:13.930Z</time>
      </trkpt>
      <trkpt lat="38.82484333" lon="-9.11386333">
        <ele>-1.0</ele>
        <time>2019-05-16T10:20:14.919Z</time>
      </trkpt>
      <trkpt lat="38.82484333" lon="-9.11386333">
        <ele>-1.0</ele>
        <time>2019-05-16T10:20:15.925Z</time>
      </trkpt>
      <trkpt lat="38.82489833" lon="-9.11391833">
        <ele>0.0</ele>
        <time>2019-05-16T10:20:16.912Z</time>
      </trkpt>
      <trkpt lat="38.82489833" lon="-9.11391833">
        <ele>0.0</ele>
        <time>2019-05-16T10:20:17.901Z</time>
      </trkpt>
      <trkpt lat="38.82494833" lon="-9.11397">
        <ele>-1.0</ele>
        <time>2019-05-16T10:20:18.920Z</time>
      </trkpt>
      <trkpt lat="38.82494833" lon="-9.11397">
        <ele>-1.0</ele>
        <time>2019-05-16T10:20:19.926Z</time>
      </trkpt>
      <trkpt lat="38.825" lon="-9.11402167">
        <ele>-1.0</ele>
        <time>2019-05-16T10:20:20.922Z</time>
      </trkpt>
      <trkpt lat="38.825" lon="-9.11402167">
        <ele>-1.0</ele>
        <time>2019-05-16T10:20:21.923Z</time>
      </trkpt>
      <trkpt lat="38.82505167" lon="-9.11407">
        <ele>-1.0</ele>
        <time>2019-05-16T10:20:22.935Z</time>
      </trkpt>
      <trkpt lat="38.82505167" lon="-9.11407">
        <ele>-1.0</ele>
        <time>2019-05-16T10:20:23.923Z</time>
      </trkpt>
      <trkpt lat="38.825095" lon="-9.11410333">
        <ele>-1.0</ele>
        <time>2019-05-16T10:20:24.897Z</time>
      </trkpt>
      <trkpt lat="38.825095" lon="-9.11410333">
        <ele>-1.0</ele>
        <time>2019-05-16T10:20:25.914Z</time>
      </trkpt>
      <trkpt lat="38.82511" lon="-9.11411">
        <ele>-1.0</ele>
        <time>2019-05-16T10:20:26.929Z</time>
      </trkpt>
      <trkpt lat="38.82511" lon="-9.11411">
        <ele>-1.0</ele>
        <time>2019-05-16T10:20:27.936Z</time>
      </trkpt>
      <trkpt lat="38.82510833" lon="-9.11410667">
        <ele>-1.0</ele>
        <time>2019-05-16T10:20:28.908Z</time>
      </trkpt>
      <trkpt lat="38.82510833" lon="-9.11410667">
        <ele>-1.0</ele>
        <time>2019-05-16T10:20:29.930Z</time>
      </trkpt>
      <trkpt lat="38.82510833" lon="-9.11410667">
        <ele>-1.0</ele>
        <time>2019-05-16T10:20:30.898Z</time>
      </trkpt>
      <trkpt lat="38.82510833" lon="-9.11410667">
        <ele>-1.0</ele>
        <time>2019-05-16T10:20:31.907Z</time>
      </trkpt>
      <trkpt lat="38.82510833" lon="-9.11410667">
        <ele>-1.0</ele>
        <time>2019-05-16T10:20:32.915Z</time>
      </trkpt>
      <trkpt lat="38.82510833" lon="-9.11410667">
        <ele>-1.0</ele>
        <time>2019-05-16T10:20:33.926Z</time>
      </trkpt>
      <trkpt lat="38.82510833" lon="-9.11410667">
        <ele>-1.0</ele>
        <time>2019-05-16T10:20:34.933Z</time>
      </trkpt>
      <trkpt lat="38.82510833" lon="-9.11410667">
        <ele>-1.0</ele>
        <time>2019-05-16T10:20:35.898Z</time>
      </trkpt>
      <trkpt lat="38.82510833" lon="-9.11410667">
        <ele>-1.0</ele>
        <time>2019-05-16T10:20:36.931Z</time>
      </trkpt>
      <trkpt lat="38.82510833" lon="-9.11410667">
        <ele>-1.0</ele>
        <time>2019-05-16T10:20:37.936Z</time>
      </trkpt>
      <trkpt lat="38.82510833" lon="-9.11410667">
        <ele>-1.0</ele>
        <time>2019-05-16T10:20:38.897Z</time>
      </trkpt>
      <trkpt lat="38.82510833" lon="-9.11410667">
        <ele>-1.0</ele>
        <time>2019-05-16T10:20:39.930Z</time>
      </trkpt>
      <trkpt lat="38.82510833" lon="-9.11410667">
        <ele>-1.0</ele>
        <time>2019-05-16T10:20:40.935Z</time>
      </trkpt>
      <trkpt lat="38.82510833" lon="-9.11410667">
        <ele>-1.0</ele>
        <time>2019-05-16T10:20:41.930Z</time>
      </trkpt>
      <trkpt lat="38.82511" lon="-9.11411167">
        <ele>-2.0</ele>
        <time>2019-05-16T10:20:42.898Z</time>
      </trkpt>
      <trkpt lat="38.82511" lon="-9.11411167">
        <ele>-2.0</ele>
        <time>2019-05-16T10:20:43.934Z</time>
      </trkpt>
      <trkpt lat="38.82513" lon="-9.11412667">
        <ele>-2.0</ele>
        <time>2019-05-16T10:20:44.936Z</time>
      </trkpt>
      <trkpt lat="38.82513" lon="-9.11412667">
        <ele>-2.0</ele>
        <time>2019-05-16T10:20:45.931Z</time>
      </trkpt>
      <trkpt lat="38.82516" lon="-9.114155">
        <ele>-1.0</ele>
        <time>2019-05-16T10:20:46.898Z</time>
      </trkpt>
      <trkpt lat="38.82516" lon="-9.114155">
        <ele>-1.0</ele>
        <time>2019-05-16T10:20:47.932Z</time>
      </trkpt>
      <trkpt lat="38.825205" lon="-9.11419833">
        <ele>-2.0</ele>
        <time>2019-05-16T10:20:48.900Z</time>
      </trkpt>
      <trkpt lat="38.825205" lon="-9.11419833">
        <ele>-2.0</ele>
        <time>2019-05-16T10:20:49.930Z</time>
      </trkpt>
      <trkpt lat="38.825255" lon="-9.11424667">
        <ele>-1.0</ele>
        <time>2019-05-16T10:20:50.936Z</time>
      </trkpt>
      <trkpt lat="38.825255" lon="-9.11424667">
        <ele>-1.0</ele>
        <time>2019-05-16T10:20:51.932Z</time>
      </trkpt>
      <trkpt lat="38.82530667" lon="-9.11429667">
        <ele>-2.0</ele>
        <time>2019-05-16T10:20:53.008Z</time>
      </trkpt>
      <trkpt lat="38.82530667" lon="-9.11429667">
        <ele>-2.0</ele>
        <time>2019-05-16T10:20:53.923Z</time>
      </trkpt>
      <trkpt lat="38.82536167" lon="-9.114355">
        <ele>-2.0</ele>
        <time>2019-05-16T10:20:54.910Z</time>
      </trkpt>
      <trkpt lat="38.82536167" lon="-9.114355">
        <ele>-2.0</ele>
        <time>2019-05-16T10:20:55.922Z</time>
      </trkpt>
      <trkpt lat="38.82541333" lon="-9.114415">
        <ele>-3.0</ele>
        <time>2019-05-16T10:20:56.938Z</time>
      </trkpt>
      <trkpt lat="38.82541333" lon="-9.114415">
        <ele>-3.0</ele>
        <time>2019-05-16T10:20:57.924Z</time>
      </trkpt>
      <trkpt lat="38.82546333" lon="-9.11447167">
        <ele>-3.0</ele>
        <time>2019-05-16T10:20:58.911Z</time>
      </trkpt>
      <trkpt lat="38.82546333" lon="-9.11447167">
        <ele>-3.0</ele>
        <time>2019-05-16T10:20:59.927Z</time>
      </trkpt>
      <trkpt lat="38.82551667" lon="-9.11453333">
        <ele>-3.0</ele>
        <time>2019-05-16T10:21:00.900Z</time>
      </trkpt>
      <trkpt lat="38.82551667" lon="-9.11453333">
        <ele>-3.0</ele>
        <time>2019-05-16T10:21:01.911Z</time>
      </trkpt>
      <trkpt lat="38.82557333" lon="-9.11456833">
        <ele>-3.0</ele>
        <time>2019-05-16T10:21:02.902Z</time>
      </trkpt>
      <trkpt lat="38.82557333" lon="-9.11456833">
        <ele>-3.0</ele>
        <time>2019-05-16T10:21:03.912Z</time>
      </trkpt>
      <trkpt lat="38.82562" lon="-9.114605">
        <ele>-3.0</ele>
        <time>2019-05-16T10:21:04.924Z</time>
      </trkpt>
      <trkpt lat="38.82562" lon="-9.114605">
        <ele>-3.0</ele>
        <time>2019-05-16T10:21:05.930Z</time>
      </trkpt>
      <trkpt lat="38.82566333" lon="-9.11464333">
        <ele>-3.0</ele>
        <time>2019-05-16T10:21:06.900Z</time>
      </trkpt>
      <trkpt lat="38.82566333" lon="-9.11464333">
        <ele>-3.0</ele>
        <time>2019-05-16T10:21:07.912Z</time>
      </trkpt>
      <trkpt lat="38.82570333" lon="-9.11468">
        <ele>-3.0</ele>
        <time>2019-05-16T10:21:08.924Z</time>
      </trkpt>
      <trkpt lat="38.82572667" lon="-9.11469833">
        <ele>-3.0</ele>
        <time>2019-05-16T10:21:09.902Z</time>
      </trkpt>
      <trkpt lat="38.82572667" lon="-9.11469833">
        <ele>-3.0</ele>
        <time>2019-05-16T10:21:10.911Z</time>
      </trkpt>
      <trkpt lat="38.82577833" lon="-9.11474">
        <ele>-3.0</ele>
        <time>2019-05-16T10:21:11.921Z</time>
      </trkpt>
      <trkpt lat="38.825805" lon="-9.11476333">
        <ele>-3.0</ele>
        <time>2019-05-16T10:21:12.898Z</time>
      </trkpt>
      <trkpt lat="38.825805" lon="-9.11476333">
        <ele>-3.0</ele>
        <time>2019-05-16T10:21:13.902Z</time>
      </trkpt>
      <trkpt lat="38.82585333" lon="-9.11480667">
        <ele>-3.0</ele>
        <time>2019-05-16T10:21:14.914Z</time>
      </trkpt>
      <trkpt lat="38.82585333" lon="-9.11480667">
        <ele>-3.0</ele>
        <time>2019-05-16T10:21:15.925Z</time>
      </trkpt>
      <trkpt lat="38.82589667" lon="-9.11485167">
        <ele>-3.0</ele>
        <time>2019-05-16T10:21:16.914Z</time>
      </trkpt>
      <trkpt lat="38.82589667" lon="-9.11485167">
        <ele>-3.0</ele>
        <time>2019-05-16T10:21:17.925Z</time>
      </trkpt>
      <trkpt lat="38.82594667" lon="-9.11489333">
        <ele>-3.0</ele>
        <time>2019-05-16T10:21:18.900Z</time>
      </trkpt>
      <trkpt lat="38.82594667" lon="-9.11489333">
        <ele>-3.0</ele>
        <time>2019-05-16T10:21:19.904Z</time>
      </trkpt>
      <trkpt lat="38.82599667" lon="-9.114935">
        <ele>-3.0</ele>
        <time>2019-05-16T10:21:20.926Z</time>
      </trkpt>
      <trkpt lat="38.82599667" lon="-9.114935">
        <ele>-3.0</ele>
        <time>2019-05-16T10:21:21.931Z</time>
      </trkpt>
      <trkpt lat="38.826045" lon="-9.11497">
        <ele>-2.0</ele>
        <time>2019-05-16T10:21:22.899Z</time>
      </trkpt>
      <trkpt lat="38.826045" lon="-9.11497">
        <ele>-2.0</ele>
        <time>2019-05-16T10:21:23.901Z</time>
      </trkpt>
      <trkpt lat="38.826095" lon="-9.11500333">
        <ele>-2.0</ele>
        <time>2019-05-16T10:21:24.908Z</time>
      </trkpt>
      <trkpt lat="38.826095" lon="-9.11500333">
        <ele>-2.0</ele>
        <time>2019-05-16T10:21:25.898Z</time>
      </trkpt>
      <trkpt lat="38.82614333" lon="-9.115025">
        <ele>-1.0</ele>
        <time>2019-05-16T10:21:26.908Z</time>
      </trkpt>
      <trkpt lat="38.82614333" lon="-9.115025">
        <ele>-1.0</ele>
        <time>2019-05-16T10:21:27.925Z</time>
      </trkpt>
      <trkpt lat="38.82619667" lon="-9.11503333">
        <ele>-1.0</ele>
        <time>2019-05-16T10:21:28.935Z</time>
      </trkpt>
      <trkpt lat="38.82619667" lon="-9.11503333">
        <ele>-1.0</ele>
        <time>2019-05-16T10:21:29.914Z</time>
      </trkpt>
      <trkpt lat="38.82624667" lon="-9.11504667">
        <ele>-1.0</ele>
        <time>2019-05-16T10:21:30.927Z</time>
      </trkpt>
      <trkpt lat="38.82624667" lon="-9.11504667">
        <ele>-1.0</ele>
        <time>2019-05-16T10:21:31.936Z</time>
      </trkpt>
      <trkpt lat="38.826285" lon="-9.11508333">
        <ele>-1.0</ele>
        <time>2019-05-16T10:21:32.916Z</time>
      </trkpt>
      <trkpt lat="38.826285" lon="-9.11508333">
        <ele>-1.0</ele>
        <time>2019-05-16T10:21:33.903Z</time>
      </trkpt>
      <trkpt lat="38.82632" lon="-9.11512667">
        <ele>-1.0</ele>
        <time>2019-05-16T10:21:34.948Z</time>
      </trkpt>
      <trkpt lat="38.82632" lon="-9.11512667">
        <ele>-1.0</ele>
        <time>2019-05-16T10:21:35.927Z</time>
      </trkpt>
      <trkpt lat="38.82636333" lon="-9.11516">
        <ele>-1.0</ele>
        <time>2019-05-16T10:21:36.934Z</time>
      </trkpt>
      <trkpt lat="38.82636333" lon="-9.11516">
        <ele>-1.0</ele>
        <time>2019-05-16T10:21:37.935Z</time>
      </trkpt>
      <trkpt lat="38.82641167" lon="-9.115205">
        <ele>0.0</ele>
        <time>2019-05-16T10:21:38.922Z</time>
      </trkpt>
      <trkpt lat="38.82641167" lon="-9.115205">
        <ele>0.0</ele>
        <time>2019-05-16T10:21:39.900Z</time>
      </trkpt>
      <trkpt lat="38.82646833" lon="-9.11525">
        <ele>0.0</ele>
        <time>2019-05-16T10:21:40.919Z</time>
      </trkpt>
      <trkpt lat="38.82649833" lon="-9.11527">
        <ele>0.0</ele>
        <time>2019-05-16T10:21:41.933Z</time>
      </trkpt>
      <trkpt lat="38.82653" lon="-9.11528833">
        <ele>0.0</ele>
        <time>2019-05-16T10:21:42.930Z</time>
      </trkpt>
      <trkpt lat="38.82653" lon="-9.11528833">
        <ele>0.0</ele>
        <time>2019-05-16T10:21:43.933Z</time>
      </trkpt>
      <trkpt lat="38.82659167" lon="-9.11532333">
        <ele>0.0</ele>
        <time>2019-05-16T10:21:44.912Z</time>
      </trkpt>
      <trkpt lat="38.82659167" lon="-9.11532333">
        <ele>0.0</ele>
        <time>2019-05-16T10:21:45.912Z</time>
      </trkpt>
      <trkpt lat="38.82665" lon="-9.11536">
        <ele>0.0</ele>
        <time>2019-05-16T10:21:46.923Z</time>
      </trkpt>
      <trkpt lat="38.82667833" lon="-9.11537833">
        <ele>0.0</ele>
        <time>2019-05-16T10:21:47.905Z</time>
      </trkpt>
      <trkpt lat="38.82670833" lon="-9.11539667">
        <ele>0.0</ele>
        <time>2019-05-16T10:21:48.898Z</time>
      </trkpt>
      <trkpt lat="38.82670833" lon="-9.11539667">
        <ele>0.0</ele>
        <time>2019-05-16T10:21:49.934Z</time>
      </trkpt>
      <trkpt lat="38.82677" lon="-9.115435">
        <ele>-1.0</ele>
        <time>2019-05-16T10:21:50.898Z</time>
      </trkpt>
      <trkpt lat="38.82677" lon="-9.115435">
        <ele>-1.0</ele>
        <time>2019-05-16T10:21:51.907Z</time>
      </trkpt>
      <trkpt lat="38.826835" lon="-9.11548667">
        <ele>-1.0</ele>
        <time>2019-05-16T10:21:52.915Z</time>
      </trkpt>
      <trkpt lat="38.826835" lon="-9.11548667">
        <ele>-1.0</ele>
        <time>2019-05-16T10:21:53.911Z</time>
      </trkpt>
      <trkpt lat="38.8269" lon="-9.11554333">
        <ele>-2.0</ele>
        <time>2019-05-16T10:21:54.897Z</time>
      </trkpt>
      <trkpt lat="38.8269" lon="-9.11554333">
        <ele>-2.0</ele>
        <time>2019-05-16T10:21:55.912Z</time>
      </trkpt>
      <trkpt lat="38.82695167" lon="-9.11559">
        <ele>-2.0</ele>
        <time>2019-05-16T10:21:56.931Z</time>
      </trkpt>
      <trkpt lat="38.82695167" lon="-9.11559">
        <ele>-2.0</ele>
        <time>2019-05-16T10:21:57.932Z</time>
      </trkpt>
      <trkpt lat="38.827005" lon="-9.11563167">
        <ele>-2.0</ele>
        <time>2019-05-16T10:21:58.902Z</time>
      </trkpt>
      <trkpt lat="38.827005" lon="-9.11563167">
        <ele>-2.0</ele>
        <time>2019-05-16T10:21:59.935Z</time>
      </trkpt>
      <trkpt lat="38.82706167" lon="-9.11566333">
        <ele>-2.0</ele>
        <time>2019-05-16T10:22:00.903Z</time>
      </trkpt>
      <trkpt lat="38.82706167" lon="-9.11566333">
        <ele>-2.0</ele>
        <time>2019-05-16T10:22:01.925Z</time>
      </trkpt>
      <trkpt lat="38.82712" lon="-9.11568667">
        <ele>-2.0</ele>
        <time>2019-05-16T10:22:02.897Z</time>
      </trkpt>
      <trkpt lat="38.82712" lon="-9.11568667">
        <ele>-2.0</ele>
        <time>2019-05-16T10:22:03.901Z</time>
      </trkpt>
      <trkpt lat="38.82718" lon="-9.11570333">
        <ele>-1.0</ele>
        <time>2019-05-16T10:22:04.910Z</time>
      </trkpt>
      <trkpt lat="38.82718" lon="-9.11570333">
        <ele>-1.0</ele>
        <time>2019-05-16T10:22:05.934Z</time>
      </trkpt>
      <trkpt lat="38.82724333" lon="-9.11571333">
        <ele>-2.0</ele>
        <time>2019-05-16T10:22:06.905Z</time>
      </trkpt>
      <trkpt lat="38.82724333" lon="-9.11571333">
        <ele>-2.0</ele>
        <time>2019-05-16T10:22:07.923Z</time>
      </trkpt>
      <trkpt lat="38.82730833" lon="-9.11571">
        <ele>-2.0</ele>
        <time>2019-05-16T10:22:08.932Z</time>
      </trkpt>
      <trkpt lat="38.82730833" lon="-9.11571">
        <ele>-2.0</ele>
        <time>2019-05-16T10:22:09.925Z</time>
      </trkpt>
      <trkpt lat="38.827375" lon="-9.11570333">
        <ele>-1.0</ele>
        <time>2019-05-16T10:22:10.948Z</time>
      </trkpt>
      <trkpt lat="38.827375" lon="-9.11570333">
        <ele>-1.0</ele>
        <time>2019-05-16T10:22:11.911Z</time>
      </trkpt>
      <trkpt lat="38.82744167" lon="-9.11570333">
        <ele>-1.0</ele>
        <time>2019-05-16T10:22:12.927Z</time>
      </trkpt>
      <trkpt lat="38.82744167" lon="-9.11570333">
        <ele>-1.0</ele>
        <time>2019-05-16T10:22:13.900Z</time>
      </trkpt>
      <trkpt lat="38.82750833" lon="-9.11570167">
        <ele>-2.0</ele>
        <time>2019-05-16T10:22:14.910Z</time>
      </trkpt>
      <trkpt lat="38.82750833" lon="-9.11570167">
        <ele>-2.0</ele>
        <time>2019-05-16T10:22:15.907Z</time>
      </trkpt>
      <trkpt lat="38.82757833" lon="-9.11570833">
        <ele>-2.0</ele>
        <time>2019-05-16T10:22:16.927Z</time>
      </trkpt>
      <trkpt lat="38.82757833" lon="-9.11570833">
        <ele>-2.0</ele>
        <time>2019-05-16T10:22:17.926Z</time>
      </trkpt>
      <trkpt lat="38.82764667" lon="-9.11572">
        <ele>-2.0</ele>
        <time>2019-05-16T10:22:18.900Z</time>
      </trkpt>
      <trkpt lat="38.82764667" lon="-9.11572">
        <ele>-2.0</ele>
        <time>2019-05-16T10:22:19.936Z</time>
      </trkpt>
      <trkpt lat="38.82772167" lon="-9.11571667">
        <ele>-3.0</ele>
        <time>2019-05-16T10:22:20.921Z</time>
      </trkpt>
      <trkpt lat="38.82775833" lon="-9.115715">
        <ele>-3.0</ele>
        <time>2019-05-16T10:22:21.908Z</time>
      </trkpt>
      <trkpt lat="38.82775833" lon="-9.115715">
        <ele>-3.0</ele>
        <time>2019-05-16T10:22:22.901Z</time>
      </trkpt>
      <trkpt lat="38.82783333" lon="-9.11572833">
        <ele>-3.0</ele>
        <time>2019-05-16T10:22:23.910Z</time>
      </trkpt>
      <trkpt lat="38.82786667" lon="-9.115735">
        <ele>-3.0</ele>
        <time>2019-05-16T10:22:24.911Z</time>
      </trkpt>
      <trkpt lat="38.82786667" lon="-9.115735">
        <ele>-3.0</ele>
        <time>2019-05-16T10:22:25.907Z</time>
      </trkpt>
      <trkpt lat="38.82792333" lon="-9.115735">
        <ele>-3.0</ele>
        <time>2019-05-16T10:22:26.918Z</time>
      </trkpt>
      <trkpt lat="38.82792333" lon="-9.115735">
        <ele>-3.0</ele>
        <time>2019-05-16T10:22:27.907Z</time>
      </trkpt>
      <trkpt lat="38.82797167" lon="-9.11573">
        <ele>-2.0</ele>
        <time>2019-05-16T10:22:28.916Z</time>
      </trkpt>
      <trkpt lat="38.82799333" lon="-9.11572833">
        <ele>-2.0</ele>
        <time>2019-05-16T10:22:29.900Z</time>
      </trkpt>
      <trkpt lat="38.82801167" lon="-9.11572833">
        <ele>-2.0</ele>
        <time>2019-05-16T10:22:30.916Z</time>
      </trkpt>
      <trkpt lat="38.82801167" lon="-9.11572833">
        <ele>-2.0</ele>
        <time>2019-05-16T10:22:31.909Z</time>
      </trkpt>
      <trkpt lat="38.82806167" lon="-9.11572333">
        <ele>-2.0</ele>
        <time>2019-05-16T10:22:32.929Z</time>
      </trkpt>
      <trkpt lat="38.82808833" lon="-9.11572">
        <ele>-2.0</ele>
        <time>2019-05-16T10:22:33.915Z</time>
      </trkpt>
      <trkpt lat="38.82808833" lon="-9.11572">
        <ele>-2.0</ele>
        <time>2019-05-16T10:22:34.935Z</time>
      </trkpt>
      <trkpt lat="38.82814333" lon="-9.11570833">
        <ele>-2.0</ele>
        <time>2019-05-16T10:22:35.909Z</time>
      </trkpt>
      <trkpt lat="38.82817167" lon="-9.11570167">
        <ele>-2.0</ele>
        <time>2019-05-16T10:22:36.910Z</time>
      </trkpt>
      <trkpt lat="38.82817167" lon="-9.11570167">
        <ele>-2.0</ele>
        <time>2019-05-16T10:22:37.916Z</time>
      </trkpt>
      <trkpt lat="38.82821833" lon="-9.115695">
        <ele>-2.0</ele>
        <time>2019-05-16T10:22:38.934Z</time>
      </trkpt>
      <trkpt lat="38.82821833" lon="-9.115695">
        <ele>-2.0</ele>
        <time>2019-05-16T10:22:39.904Z</time>
      </trkpt>
      <trkpt lat="38.82827333" lon="-9.11568667">
        <ele>-2.0</ele>
        <time>2019-05-16T10:22:40.915Z</time>
      </trkpt>
      <trkpt lat="38.82827333" lon="-9.11568667">
        <ele>-2.0</ele>
        <time>2019-05-16T10:22:41.912Z</time>
      </trkpt>
      <trkpt lat="38.82834" lon="-9.11568667">
        <ele>-2.0</ele>
        <time>2019-05-16T10:22:42.922Z</time>
      </trkpt>
      <trkpt lat="38.82834" lon="-9.11568667">
        <ele>-2.0</ele>
        <time>2019-05-16T10:22:43.926Z</time>
      </trkpt>
      <trkpt lat="38.828405" lon="-9.11568">
        <ele>-3.0</ele>
        <time>2019-05-16T10:22:44.897Z</time>
      </trkpt>
      <trkpt lat="38.82843667" lon="-9.11567833">
        <ele>-3.0</ele>
        <time>2019-05-16T10:22:45.917Z</time>
      </trkpt>
      <trkpt lat="38.82843667" lon="-9.11567833">
        <ele>-3.0</ele>
        <time>2019-05-16T10:22:46.926Z</time>
      </trkpt>
      <trkpt lat="38.82849833" lon="-9.11568167">
        <ele>-3.0</ele>
        <time>2019-05-16T10:22:47.901Z</time>
      </trkpt>
      <trkpt lat="38.82852833" lon="-9.11568167">
        <ele>-3.0</ele>
        <time>2019-05-16T10:22:48.902Z</time>
      </trkpt>
      <trkpt lat="38.82852833" lon="-9.11568167">
        <ele>-3.0</ele>
        <time>2019-05-16T10:22:49.902Z</time>
      </trkpt>
      <trkpt lat="38.82858833" lon="-9.11567333">
        <ele>-3.0</ele>
        <time>2019-05-16T10:22:50.913Z</time>
      </trkpt>
      <trkpt lat="38.82858833" lon="-9.11567333">
        <ele>-3.0</ele>
        <time>2019-05-16T10:22:51.910Z</time>
      </trkpt>
      <trkpt lat="38.82865167" lon="-9.11567333">
        <ele>-3.0</ele>
        <time>2019-05-16T10:22:52.919Z</time>
      </trkpt>
      <trkpt lat="38.82865167" lon="-9.11567333">
        <ele>-3.0</ele>
        <time>2019-05-16T10:22:53.898Z</time>
      </trkpt>
      <trkpt lat="38.82871167" lon="-9.11566667">
        <ele>-3.0</ele>
        <time>2019-05-16T10:22:54.908Z</time>
      </trkpt>
      <trkpt lat="38.82871167" lon="-9.11566667">
        <ele>-3.0</ele>
        <time>2019-05-16T10:22:55.931Z</time>
      </trkpt>
      <trkpt lat="38.82877333" lon="-9.11565667">
        <ele>-3.0</ele>
        <time>2019-05-16T10:22:56.900Z</time>
      </trkpt>
      <trkpt lat="38.82877333" lon="-9.11565667">
        <ele>-3.0</ele>
        <time>2019-05-16T10:22:57.936Z</time>
      </trkpt>
      <trkpt lat="38.82883833" lon="-9.11564667">
        <ele>-3.0</ele>
        <time>2019-05-16T10:22:58.909Z</time>
      </trkpt>
      <trkpt lat="38.82883833" lon="-9.11564667">
        <ele>-3.0</ele>
        <time>2019-05-16T10:22:59.908Z</time>
      </trkpt>
      <trkpt lat="38.82889833" lon="-9.11563">
        <ele>-4.0</ele>
        <time>2019-05-16T10:23:00.917Z</time>
      </trkpt>
      <trkpt lat="38.82889833" lon="-9.11563">
        <ele>-4.0</ele>
        <time>2019-05-16T10:23:01.914Z</time>
      </trkpt>
      <trkpt lat="38.828955" lon="-9.11560833">
        <ele>-4.0</ele>
        <time>2019-05-16T10:23:02.923Z</time>
      </trkpt>
      <trkpt lat="38.828955" lon="-9.11560833">
        <ele>-4.0</ele>
        <time>2019-05-16T10:23:03.922Z</time>
      </trkpt>
      <trkpt lat="38.82902" lon="-9.11559167">
        <ele>-4.0</ele>
        <time>2019-05-16T10:23:04.935Z</time>
      </trkpt>
      <trkpt lat="38.82902" lon="-9.11559167">
        <ele>-4.0</ele>
        <time>2019-05-16T10:23:05.901Z</time>
      </trkpt>
      <trkpt lat="38.82909333" lon="-9.11558">
        <ele>-4.0</ele>
        <time>2019-05-16T10:23:06.926Z</time>
      </trkpt>
      <trkpt lat="38.82909333" lon="-9.11558">
        <ele>-4.0</ele>
        <time>2019-05-16T10:23:07.898Z</time>
      </trkpt>
      <trkpt lat="38.829165" lon="-9.11556667">
        <ele>-4.0</ele>
        <time>2019-05-16T10:23:08.927Z</time>
      </trkpt>
      <trkpt lat="38.829165" lon="-9.11556667">
        <ele>-4.0</ele>
        <time>2019-05-16T10:23:09.932Z</time>
      </trkpt>
      <trkpt lat="38.829235" lon="-9.11555333">
        <ele>-4.0</ele>
        <time>2019-05-16T10:23:10.904Z</time>
      </trkpt>
      <trkpt lat="38.829235" lon="-9.11555333">
        <ele>-4.0</ele>
        <time>2019-05-16T10:23:11.910Z</time>
      </trkpt>
      <trkpt lat="38.8293" lon="-9.11553667">
        <ele>-4.0</ele>
        <time>2019-05-16T10:23:12.924Z</time>
      </trkpt>
      <trkpt lat="38.8293" lon="-9.11553667">
        <ele>-4.0</ele>
        <time>2019-05-16T10:23:13.910Z</time>
      </trkpt>
      <trkpt lat="38.82935667" lon="-9.11552">
        <ele>-4.0</ele>
        <time>2019-05-16T10:23:14.906Z</time>
      </trkpt>
      <trkpt lat="38.82935667" lon="-9.11552">
        <ele>-4.0</ele>
        <time>2019-05-16T10:23:15.936Z</time>
      </trkpt>
      <trkpt lat="38.82941167" lon="-9.11551167">
        <ele>-4.0</ele>
        <time>2019-05-16T10:23:16.905Z</time>
      </trkpt>
      <trkpt lat="38.82943667" lon="-9.11550667">
        <ele>-4.0</ele>
        <time>2019-05-16T10:23:17.913Z</time>
      </trkpt>
      <trkpt lat="38.829465" lon="-9.11550167">
        <ele>-5.0</ele>
        <time>2019-05-16T10:23:18.914Z</time>
      </trkpt>
      <trkpt lat="38.829465" lon="-9.11550167">
        <ele>-5.0</ele>
        <time>2019-05-16T10:23:19.915Z</time>
      </trkpt>
      <trkpt lat="38.829525" lon="-9.11550167">
        <ele>-5.0</ele>
        <time>2019-05-16T10:23:20.900Z</time>
      </trkpt>
      <trkpt lat="38.829525" lon="-9.11550167">
        <ele>-5.0</ele>
        <time>2019-05-16T10:23:21.902Z</time>
      </trkpt>
      <trkpt lat="38.829585" lon="-9.11549667">
        <ele>-5.0</ele>
        <time>2019-05-16T10:23:22.910Z</time>
      </trkpt>
      <trkpt lat="38.829585" lon="-9.11549667">
        <ele>-5.0</ele>
        <time>2019-05-16T10:23:23.934Z</time>
      </trkpt>
      <trkpt lat="38.829645" lon="-9.11549667">
        <ele>-5.0</ele>
        <time>2019-05-16T10:23:24.904Z</time>
      </trkpt>
      <trkpt lat="38.829645" lon="-9.11549667">
        <ele>-5.0</ele>
        <time>2019-05-16T10:23:25.932Z</time>
      </trkpt>
      <trkpt lat="38.82970167" lon="-9.11549167">
        <ele>-5.0</ele>
        <time>2019-05-16T10:23:26.902Z</time>
      </trkpt>
      <trkpt lat="38.82970167" lon="-9.11549167">
        <ele>-5.0</ele>
        <time>2019-05-16T10:23:27.935Z</time>
      </trkpt>
      <trkpt lat="38.829755" lon="-9.11547833">
        <ele>-5.0</ele>
        <time>2019-05-16T10:23:28.925Z</time>
      </trkpt>
      <trkpt lat="38.82978333" lon="-9.11547333">
        <ele>-5.0</ele>
        <time>2019-05-16T10:23:29.945Z</time>
      </trkpt>
      <trkpt lat="38.82981167" lon="-9.11546833">
        <ele>-5.0</ele>
        <time>2019-05-16T10:23:30.929Z</time>
      </trkpt>
      <trkpt lat="38.82981167" lon="-9.11546833">
        <ele>-5.0</ele>
        <time>2019-05-16T10:23:31.908Z</time>
      </trkpt>
      <trkpt lat="38.82987" lon="-9.115455">
        <ele>-5.0</ele>
        <time>2019-05-16T10:23:32.919Z</time>
      </trkpt>
      <trkpt lat="38.82987" lon="-9.115455">
        <ele>-5.0</ele>
        <time>2019-05-16T10:23:34.016Z</time>
      </trkpt>
      <trkpt lat="38.82990333" lon="-9.11545">
        <ele>-5.0</ele>
        <time>2019-05-16T10:23:34.923Z</time>
      </trkpt>
      <trkpt lat="38.829965" lon="-9.11543833">
        <ele>-5.0</ele>
        <time>2019-05-16T10:23:35.903Z</time>
      </trkpt>
      <trkpt lat="38.82999833" lon="-9.11543">
        <ele>-5.0</ele>
        <time>2019-05-16T10:23:36.930Z</time>
      </trkpt>
      <trkpt lat="38.82999833" lon="-9.11543">
        <ele>-5.0</ele>
        <time>2019-05-16T10:23:37.923Z</time>
      </trkpt>
      <trkpt lat="38.83007" lon="-9.11542333">
        <ele>-5.0</ele>
        <time>2019-05-16T10:23:38.936Z</time>
      </trkpt>
      <trkpt lat="38.83007" lon="-9.11542333">
        <ele>-5.0</ele>
        <time>2019-05-16T10:23:39.908Z</time>
      </trkpt>
      <trkpt lat="38.83013667" lon="-9.11540667">
        <ele>-5.0</ele>
        <time>2019-05-16T10:23:40.917Z</time>
      </trkpt>
      <trkpt lat="38.83013667" lon="-9.11540667">
        <ele>-5.0</ele>
        <time>2019-05-16T10:23:41.908Z</time>
      </trkpt>
      <trkpt lat="38.83020833" lon="-9.11538667">
        <ele>-5.0</ele>
        <time>2019-05-16T10:23:42.924Z</time>
      </trkpt>
      <trkpt lat="38.83020833" lon="-9.11538667">
        <ele>-5.0</ele>
        <time>2019-05-16T10:23:43.916Z</time>
      </trkpt>
      <trkpt lat="38.83027667" lon="-9.11536333">
        <ele>-5.0</ele>
        <time>2019-05-16T10:23:44.927Z</time>
      </trkpt>
      <trkpt lat="38.83027667" lon="-9.11536333">
        <ele>-5.0</ele>
        <time>2019-05-16T10:23:45.921Z</time>
      </trkpt>
      <trkpt lat="38.83034" lon="-9.11533667">
        <ele>-5.0</ele>
        <time>2019-05-16T10:23:46.931Z</time>
      </trkpt>
      <trkpt lat="38.83034" lon="-9.11533667">
        <ele>-5.0</ele>
        <time>2019-05-16T10:23:47.928Z</time>
      </trkpt>
      <trkpt lat="38.83040167" lon="-9.11531167">
        <ele>-5.0</ele>
        <time>2019-05-16T10:23:48.898Z</time>
      </trkpt>
      <trkpt lat="38.83040167" lon="-9.11531167">
        <ele>-5.0</ele>
        <time>2019-05-16T10:23:49.899Z</time>
      </trkpt>
      <trkpt lat="38.83046" lon="-9.11528667">
        <ele>-5.0</ele>
        <time>2019-05-16T10:23:50.908Z</time>
      </trkpt>
      <trkpt lat="38.83046" lon="-9.11528667">
        <ele>-5.0</ele>
        <time>2019-05-16T10:23:51.935Z</time>
      </trkpt>
      <trkpt lat="38.83052167" lon="-9.11526333">
        <ele>-5.0</ele>
        <time>2019-05-16T10:23:52.926Z</time>
      </trkpt>
      <trkpt lat="38.83052167" lon="-9.11526333">
        <ele>-5.0</ele>
        <time>2019-05-16T10:23:53.912Z</time>
      </trkpt>
      <trkpt lat="38.83057667" lon="-9.11523833">
        <ele>-5.0</ele>
        <time>2019-05-16T10:23:54.921Z</time>
      </trkpt>
      <trkpt lat="38.83057667" lon="-9.11523833">
        <ele>-5.0</ele>
        <time>2019-05-16T10:23:55.933Z</time>
      </trkpt>
      <trkpt lat="38.83063167" lon="-9.115215">
        <ele>-6.0</ele>
        <time>2019-05-16T10:23:56.906Z</time>
      </trkpt>
      <trkpt lat="38.83063167" lon="-9.115215">
        <ele>-6.0</ele>
        <time>2019-05-16T10:23:57.923Z</time>
      </trkpt>
      <trkpt lat="38.83068667" lon="-9.11519333">
        <ele>-6.0</ele>
        <time>2019-05-16T10:23:58.940Z</time>
      </trkpt>
      <trkpt lat="38.83068667" lon="-9.11519333">
        <ele>-6.0</ele>
        <time>2019-05-16T10:23:59.924Z</time>
      </trkpt>
      <trkpt lat="38.83074167" lon="-9.115175">
        <ele>-6.0</ele>
        <time>2019-05-16T10:24:00.901Z</time>
      </trkpt>
      <trkpt lat="38.83074167" lon="-9.115175">
        <ele>-6.0</ele>
        <time>2019-05-16T10:24:01.934Z</time>
      </trkpt>
      <trkpt lat="38.830795" lon="-9.115155">
        <ele>-5.0</ele>
        <time>2019-05-16T10:24:02.915Z</time>
      </trkpt>
      <trkpt lat="38.830795" lon="-9.115155">
        <ele>-5.0</ele>
        <time>2019-05-16T10:24:03.914Z</time>
      </trkpt>
      <trkpt lat="38.83085167" lon="-9.11513333">
        <ele>-5.0</ele>
        <time>2019-05-16T10:24:04.934Z</time>
      </trkpt>
      <trkpt lat="38.83085167" lon="-9.11513333">
        <ele>-5.0</ele>
        <time>2019-05-16T10:24:05.927Z</time>
      </trkpt>
      <trkpt lat="38.83091" lon="-9.11511167">
        <ele>-6.0</ele>
        <time>2019-05-16T10:24:06.897Z</time>
      </trkpt>
      <trkpt lat="38.83091" lon="-9.11511167">
        <ele>-6.0</ele>
        <time>2019-05-16T10:24:07.923Z</time>
      </trkpt>
      <trkpt lat="38.83097333" lon="-9.11508833">
        <ele>-6.0</ele>
        <time>2019-05-16T10:24:08.938Z</time>
      </trkpt>
      <trkpt lat="38.83097333" lon="-9.11508833">
        <ele>-6.0</ele>
        <time>2019-05-16T10:24:09.899Z</time>
      </trkpt>
      <trkpt lat="38.83103" lon="-9.115055">
        <ele>-6.0</ele>
        <time>2019-05-16T10:24:10.908Z</time>
      </trkpt>
      <trkpt lat="38.83103" lon="-9.115055">
        <ele>-6.0</ele>
        <time>2019-05-16T10:24:11.897Z</time>
      </trkpt>
      <trkpt lat="38.831085" lon="-9.11502167">
        <ele>-6.0</ele>
        <time>2019-05-16T10:24:12.910Z</time>
      </trkpt>
      <trkpt lat="38.831085" lon="-9.11502167">
        <ele>-6.0</ele>
        <time>2019-05-16T10:24:13.923Z</time>
      </trkpt>
      <trkpt lat="38.83113833" lon="-9.11499">
        <ele>-6.0</ele>
        <time>2019-05-16T10:24:14.900Z</time>
      </trkpt>
      <trkpt lat="38.83113833" lon="-9.11499">
        <ele>-6.0</ele>
        <time>2019-05-16T10:24:15.907Z</time>
      </trkpt>
      <trkpt lat="38.83118833" lon="-9.114965">
        <ele>-6.0</ele>
        <time>2019-05-16T10:24:16.916Z</time>
      </trkpt>
      <trkpt lat="38.83121333" lon="-9.11494833">
        <ele>-6.0</ele>
        <time>2019-05-16T10:24:17.923Z</time>
      </trkpt>
      <trkpt lat="38.83124" lon="-9.114935">
        <ele>-6.0</ele>
        <time>2019-05-16T10:24:18.934Z</time>
      </trkpt>
      <trkpt lat="38.83124" lon="-9.114935">
        <ele>-6.0</ele>
        <time>2019-05-16T10:24:19.915Z</time>
      </trkpt>
      <trkpt lat="38.83129333" lon="-9.114915">
        <ele>-6.0</ele>
        <time>2019-05-16T10:24:20.916Z</time>
      </trkpt>
      <trkpt lat="38.83132" lon="-9.11490167">
        <ele>-6.0</ele>
        <time>2019-05-16T10:24:21.912Z</time>
      </trkpt>
      <trkpt lat="38.83132" lon="-9.11490167">
        <ele>-6.0</ele>
        <time>2019-05-16T10:24:22.927Z</time>
      </trkpt>
      <trkpt lat="38.83137333" lon="-9.11488">
        <ele>-5.0</ele>
        <time>2019-05-16T10:24:23.899Z</time>
      </trkpt>
      <trkpt lat="38.83140167" lon="-9.11487">
        <ele>-5.0</ele>
        <time>2019-05-16T10:24:24.940Z</time>
      </trkpt>
      <trkpt lat="38.83140167" lon="-9.11487">
        <ele>-5.0</ele>
        <time>2019-05-16T10:24:25.897Z</time>
      </trkpt>
      <trkpt lat="38.83145667" lon="-9.11485">
        <ele>-5.0</ele>
        <time>2019-05-16T10:24:26.906Z</time>
      </trkpt>
      <trkpt lat="38.83145667" lon="-9.11485">
        <ele>-5.0</ele>
        <time>2019-05-16T10:24:27.934Z</time>
      </trkpt>
      <trkpt lat="38.83151167" lon="-9.11483167">
        <ele>-5.0</ele>
        <time>2019-05-16T10:24:28.908Z</time>
      </trkpt>
      <trkpt lat="38.83151167" lon="-9.11483167">
        <ele>-5.0</ele>
        <time>2019-05-16T10:24:29.897Z</time>
      </trkpt>
      <trkpt lat="38.83156833" lon="-9.11481333">
        <ele>-5.0</ele>
        <time>2019-05-16T10:24:30.905Z</time>
      </trkpt>
      <trkpt lat="38.83156833" lon="-9.11481333">
        <ele>-5.0</ele>
        <time>2019-05-16T10:24:31.907Z</time>
      </trkpt>
      <trkpt lat="38.83162833" lon="-9.11479167">
        <ele>-5.0</ele>
        <time>2019-05-16T10:24:32.921Z</time>
      </trkpt>
      <trkpt lat="38.83162833" lon="-9.11479167">
        <ele>-5.0</ele>
        <time>2019-05-16T10:24:33.916Z</time>
      </trkpt>
      <trkpt lat="38.83168667" lon="-9.11477667">
        <ele>-5.0</ele>
        <time>2019-05-16T10:24:34.932Z</time>
      </trkpt>
      <trkpt lat="38.83168667" lon="-9.11477667">
        <ele>-5.0</ele>
        <time>2019-05-16T10:24:35.913Z</time>
      </trkpt>
      <trkpt lat="38.83174667" lon="-9.11476">
        <ele>-5.0</ele>
        <time>2019-05-16T10:24:36.921Z</time>
      </trkpt>
      <trkpt lat="38.83174667" lon="-9.11476">
        <ele>-5.0</ele>
        <time>2019-05-16T10:24:37.920Z</time>
      </trkpt>
      <trkpt lat="38.83180667" lon="-9.11474">
        <ele>-5.0</ele>
        <time>2019-05-16T10:24:38.930Z</time>
      </trkpt>
      <trkpt lat="38.83180667" lon="-9.11474">
        <ele>-5.0</ele>
        <time>2019-05-16T10:24:39.908Z</time>
      </trkpt>
      <trkpt lat="38.83180667" lon="-9.11474">
        <ele>-5.0</ele>
        <time>2019-05-16T10:24:40.989Z</time>
      </trkpt>
      <trkpt lat="38.83187" lon="-9.11472667">
        <ele>-5.0</ele>
        <time>2019-05-16T10:24:41.916Z</time>
      </trkpt>
      <trkpt lat="38.83193333" lon="-9.11471167">
        <ele>-5.0</ele>
        <time>2019-05-16T10:24:42.897Z</time>
      </trkpt>
      <trkpt lat="38.83193333" lon="-9.11471167">
        <ele>-5.0</ele>
        <time>2019-05-16T10:24:43.925Z</time>
      </trkpt>
      <trkpt lat="38.832" lon="-9.11470167">
        <ele>-6.0</ele>
        <time>2019-05-16T10:24:44.897Z</time>
      </trkpt>
      <trkpt lat="38.832" lon="-9.11470167">
        <ele>-6.0</ele>
        <time>2019-05-16T10:24:45.901Z</time>
      </trkpt>
      <trkpt lat="38.832065" lon="-9.11469167">
        <ele>-6.0</ele>
        <time>2019-05-16T10:24:46.914Z</time>
      </trkpt>
      <trkpt lat="38.832065" lon="-9.11469167">
        <ele>-6.0</ele>
        <time>2019-05-16T10:24:47.904Z</time>
      </trkpt>
      <trkpt lat="38.83212333" lon="-9.11468167">
        <ele>-5.0</ele>
        <time>2019-05-16T10:24:48.913Z</time>
      </trkpt>
      <trkpt lat="38.83212333" lon="-9.11468167">
        <ele>-5.0</ele>
        <time>2019-05-16T10:24:49.930Z</time>
      </trkpt>
      <trkpt lat="38.83218167" lon="-9.114675">
        <ele>-5.0</ele>
        <time>2019-05-16T10:24:50.911Z</time>
      </trkpt>
      <trkpt lat="38.83218167" lon="-9.114675">
        <ele>-5.0</ele>
        <time>2019-05-16T10:24:51.904Z</time>
      </trkpt>
      <trkpt lat="38.83224" lon="-9.11467167">
        <ele>-5.0</ele>
        <time>2019-05-16T10:24:52.933Z</time>
      </trkpt>
      <trkpt lat="38.83227" lon="-9.11467">
        <ele>-4.0</ele>
        <time>2019-05-16T10:24:53.906Z</time>
      </trkpt>
      <trkpt lat="38.83229833" lon="-9.11466667">
        <ele>-4.0</ele>
        <time>2019-05-16T10:24:54.918Z</time>
      </trkpt>
      <trkpt lat="38.83229833" lon="-9.11466667">
        <ele>-4.0</ele>
        <time>2019-05-16T10:24:55.911Z</time>
      </trkpt>
      <trkpt lat="38.83235167" lon="-9.11466167">
        <ele>-5.0</ele>
        <time>2019-05-16T10:24:56.931Z</time>
      </trkpt>
      <trkpt lat="38.83235167" lon="-9.11466167">
        <ele>-5.0</ele>
        <time>2019-05-16T10:24:57.927Z</time>
      </trkpt>
      <trkpt lat="38.83241" lon="-9.11465667">
        <ele>-5.0</ele>
        <time>2019-05-16T10:24:58.939Z</time>
      </trkpt>
      <trkpt lat="38.83241" lon="-9.11465667">
        <ele>-5.0</ele>
        <time>2019-05-16T10:24:59.926Z</time>
      </trkpt>
      <trkpt lat="38.83246667" lon="-9.11465167">
        <ele>-5.0</ele>
        <time>2019-05-16T10:25:00.907Z</time>
      </trkpt>
      <trkpt lat="38.83246667" lon="-9.11465167">
        <ele>-5.0</ele>
        <time>2019-05-16T10:25:01.911Z</time>
      </trkpt>
      <trkpt lat="38.83252167" lon="-9.11465167">
        <ele>-5.0</ele>
        <time>2019-05-16T10:25:02.922Z</time>
      </trkpt>
      <trkpt lat="38.83252167" lon="-9.11465167">
        <ele>-5.0</ele>
        <time>2019-05-16T10:25:03.919Z</time>
      </trkpt>
      <trkpt lat="38.83257667" lon="-9.11465333">
        <ele>-5.0</ele>
        <time>2019-05-16T10:25:04.898Z</time>
      </trkpt>
      <trkpt lat="38.83257667" lon="-9.11465333">
        <ele>-5.0</ele>
        <time>2019-05-16T10:25:05.901Z</time>
      </trkpt>
      <trkpt lat="38.83263333" lon="-9.11465">
        <ele>-5.0</ele>
        <time>2019-05-16T10:25:06.909Z</time>
      </trkpt>
      <trkpt lat="38.83263333" lon="-9.11465">
        <ele>-5.0</ele>
        <time>2019-05-16T10:25:07.931Z</time>
      </trkpt>
      <trkpt lat="38.8327" lon="-9.114645">
        <ele>-5.0</ele>
        <time>2019-05-16T10:25:08.898Z</time>
      </trkpt>
      <trkpt lat="38.8327" lon="-9.114645">
        <ele>-5.0</ele>
        <time>2019-05-16T10:25:09.933Z</time>
      </trkpt>
      <trkpt lat="38.83276833" lon="-9.11463167">
        <ele>-5.0</ele>
        <time>2019-05-16T10:25:10.908Z</time>
      </trkpt>
      <trkpt lat="38.83276833" lon="-9.11463167">
        <ele>-5.0</ele>
        <time>2019-05-16T10:25:11.933Z</time>
      </trkpt>
      <trkpt lat="38.83284" lon="-9.114615">
        <ele>-5.0</ele>
        <time>2019-05-16T10:25:12.902Z</time>
      </trkpt>
      <trkpt lat="38.83284" lon="-9.114615">
        <ele>-5.0</ele>
        <time>2019-05-16T10:25:13.926Z</time>
      </trkpt>
      <trkpt lat="38.83291333" lon="-9.11459833">
        <ele>-6.0</ele>
        <time>2019-05-16T10:25:14.899Z</time>
      </trkpt>
      <trkpt lat="38.83291333" lon="-9.11459833">
        <ele>-6.0</ele>
        <time>2019-05-16T10:25:15.912Z</time>
      </trkpt>
      <trkpt lat="38.83298833" lon="-9.11458167">
        <ele>-6.0</ele>
        <time>2019-05-16T10:25:16.898Z</time>
      </trkpt>
      <trkpt lat="38.83298833" lon="-9.11458167">
        <ele>-6.0</ele>
        <time>2019-05-16T10:25:17.927Z</time>
      </trkpt>
      <trkpt lat="38.83306167" lon="-9.114565">
        <ele>-6.0</ele>
        <time>2019-05-16T10:25:18.897Z</time>
      </trkpt>
      <trkpt lat="38.83306167" lon="-9.114565">
        <ele>-6.0</ele>
        <time>2019-05-16T10:25:19.915Z</time>
      </trkpt>
      <trkpt lat="38.833135" lon="-9.11455">
        <ele>-6.0</ele>
        <time>2019-05-16T10:25:20.902Z</time>
      </trkpt>
      <trkpt lat="38.833135" lon="-9.11455">
        <ele>-6.0</ele>
        <time>2019-05-16T10:25:21.933Z</time>
      </trkpt>
      <trkpt lat="38.83320333" lon="-9.11453667">
        <ele>-6.0</ele>
        <time>2019-05-16T10:25:22.910Z</time>
      </trkpt>
      <trkpt lat="38.83320333" lon="-9.11453667">
        <ele>-6.0</ele>
        <time>2019-05-16T10:25:23.934Z</time>
      </trkpt>
      <trkpt lat="38.83327333" lon="-9.11452">
        <ele>-6.0</ele>
        <time>2019-05-16T10:25:24.910Z</time>
      </trkpt>
      <trkpt lat="38.83331167" lon="-9.11451167">
        <ele>-6.0</ele>
        <time>2019-05-16T10:25:25.931Z</time>
      </trkpt>
      <trkpt lat="38.83331167" lon="-9.11451167">
        <ele>-6.0</ele>
        <time>2019-05-16T10:25:26.908Z</time>
      </trkpt>
      <trkpt lat="38.83338" lon="-9.11449333">
        <ele>-6.0</ele>
        <time>2019-05-16T10:25:27.923Z</time>
      </trkpt>
      <trkpt lat="38.83338" lon="-9.11449333">
        <ele>-6.0</ele>
        <time>2019-05-16T10:25:28.907Z</time>
      </trkpt>
      <trkpt lat="38.83345" lon="-9.11448667">
        <ele>-6.0</ele>
        <time>2019-05-16T10:25:29.920Z</time>
      </trkpt>
      <trkpt lat="38.833485" lon="-9.11448667">
        <ele>-6.0</ele>
        <time>2019-05-16T10:25:30.934Z</time>
      </trkpt>
      <trkpt lat="38.833485" lon="-9.11448667">
        <ele>-6.0</ele>
        <time>2019-05-16T10:25:31.912Z</time>
      </trkpt>
      <trkpt lat="38.83355" lon="-9.11448167">
        <ele>-6.0</ele>
        <time>2019-05-16T10:25:32.910Z</time>
      </trkpt>
      <trkpt lat="38.83355" lon="-9.11448167">
        <ele>-6.0</ele>
        <time>2019-05-16T10:25:33.900Z</time>
      </trkpt>
      <trkpt lat="38.83362333" lon="-9.11448">
        <ele>-6.0</ele>
        <time>2019-05-16T10:25:34.907Z</time>
      </trkpt>
      <trkpt lat="38.83362333" lon="-9.11448">
        <ele>-6.0</ele>
        <time>2019-05-16T10:25:35.904Z</time>
      </trkpt>
      <trkpt lat="38.8337" lon="-9.11448167">
        <ele>-6.0</ele>
        <time>2019-05-16T10:25:36.920Z</time>
      </trkpt>
      <trkpt lat="38.8337" lon="-9.11448167">
        <ele>-6.0</ele>
        <time>2019-05-16T10:25:37.901Z</time>
      </trkpt>
      <trkpt lat="38.83378" lon="-9.11448167">
        <ele>-6.0</ele>
        <time>2019-05-16T10:25:38.922Z</time>
      </trkpt>
      <trkpt lat="38.83378" lon="-9.11448167">
        <ele>-6.0</ele>
        <time>2019-05-16T10:25:39.934Z</time>
      </trkpt>
      <trkpt lat="38.83385833" lon="-9.11448667">
        <ele>-6.0</ele>
        <time>2019-05-16T10:25:40.924Z</time>
      </trkpt>
      <trkpt lat="38.83385833" lon="-9.11448667">
        <ele>-6.0</ele>
        <time>2019-05-16T10:25:41.916Z</time>
      </trkpt>
      <trkpt lat="38.83394" lon="-9.114495">
        <ele>-6.0</ele>
        <time>2019-05-16T10:25:42.931Z</time>
      </trkpt>
      <trkpt lat="38.83394" lon="-9.114495">
        <ele>-6.0</ele>
        <time>2019-05-16T10:25:43.913Z</time>
      </trkpt>
      <trkpt lat="38.83402333" lon="-9.114505">
        <ele>-7.0</ele>
        <time>2019-05-16T10:25:44.931Z</time>
      </trkpt>
      <trkpt lat="38.83402333" lon="-9.114505">
        <ele>-7.0</ele>
        <time>2019-05-16T10:25:45.923Z</time>
      </trkpt>
      <trkpt lat="38.834105" lon="-9.11452333">
        <ele>-7.0</ele>
        <time>2019-05-16T10:25:46.935Z</time>
      </trkpt>
      <trkpt lat="38.834105" lon="-9.11452333">
        <ele>-7.0</ele>
        <time>2019-05-16T10:25:47.926Z</time>
      </trkpt>
      <trkpt lat="38.83418167" lon="-9.11454">
        <ele>-7.0</ele>
        <time>2019-05-16T10:25:48.897Z</time>
      </trkpt>
      <trkpt lat="38.83418167" lon="-9.11454">
        <ele>-7.0</ele>
        <time>2019-05-16T10:25:49.927Z</time>
      </trkpt>
      <trkpt lat="38.83425333" lon="-9.11456167">
        <ele>-7.0</ele>
        <time>2019-05-16T10:25:50.897Z</time>
      </trkpt>
      <trkpt lat="38.83425333" lon="-9.11456167">
        <ele>-7.0</ele>
        <time>2019-05-16T10:25:51.932Z</time>
      </trkpt>
      <trkpt lat="38.834325" lon="-9.11458">
        <ele>-6.0</ele>
        <time>2019-05-16T10:25:52.900Z</time>
      </trkpt>
      <trkpt lat="38.83436" lon="-9.11459">
        <ele>-6.0</ele>
        <time>2019-05-16T10:25:53.898Z</time>
      </trkpt>
      <trkpt lat="38.83436" lon="-9.11459">
        <ele>-6.0</ele>
        <time>2019-05-16T10:25:54.897Z</time>
      </trkpt>
      <trkpt lat="38.83443" lon="-9.11460333">
        <ele>-6.0</ele>
        <time>2019-05-16T10:25:55.906Z</time>
      </trkpt>
      <trkpt lat="38.83443" lon="-9.11460333">
        <ele>-6.0</ele>
        <time>2019-05-16T10:25:56.901Z</time>
      </trkpt>
      <trkpt lat="38.83450167" lon="-9.11462333">
        <ele>-6.0</ele>
        <time>2019-05-16T10:25:57.912Z</time>
      </trkpt>
      <trkpt lat="38.83450167" lon="-9.11462333">
        <ele>-6.0</ele>
        <time>2019-05-16T10:25:58.902Z</time>
      </trkpt>
      <trkpt lat="38.834575" lon="-9.11464">
        <ele>-6.0</ele>
        <time>2019-05-16T10:25:59.916Z</time>
      </trkpt>
      <trkpt lat="38.83461333" lon="-9.11465167">
        <ele>-6.0</ele>
        <time>2019-05-16T10:26:00.931Z</time>
      </trkpt>
      <trkpt lat="38.83461333" lon="-9.11465167">
        <ele>-6.0</ele>
        <time>2019-05-16T10:26:01.923Z</time>
      </trkpt>
      <trkpt lat="38.834695" lon="-9.11467">
        <ele>-7.0</ele>
        <time>2019-05-16T10:26:02.935Z</time>
      </trkpt>
      <trkpt lat="38.834695" lon="-9.11467">
        <ele>-7.0</ele>
        <time>2019-05-16T10:26:03.912Z</time>
      </trkpt>
      <trkpt lat="38.83477333" lon="-9.11468667">
        <ele>-6.0</ele>
        <time>2019-05-16T10:26:04.918Z</time>
      </trkpt>
      <trkpt lat="38.83480833" lon="-9.11469167">
        <ele>-6.0</ele>
        <time>2019-05-16T10:26:05.930Z</time>
      </trkpt>
      <trkpt lat="38.834845" lon="-9.11469833">
        <ele>-6.0</ele>
        <time>2019-05-16T10:26:06.936Z</time>
      </trkpt>
      <trkpt lat="38.834845" lon="-9.11469833">
        <ele>-6.0</ele>
        <time>2019-05-16T10:26:07.933Z</time>
      </trkpt>
      <trkpt lat="38.834915" lon="-9.114705">
        <ele>-6.0</ele>
        <time>2019-05-16T10:26:08.908Z</time>
      </trkpt>
      <trkpt lat="38.834915" lon="-9.114705">
        <ele>-6.0</ele>
        <time>2019-05-16T10:26:09.932Z</time>
      </trkpt>
      <trkpt lat="38.83497833" lon="-9.11471333">
        <ele>-6.0</ele>
        <time>2019-05-16T10:26:10.901Z</time>
      </trkpt>
      <trkpt lat="38.83497833" lon="-9.11471333">
        <ele>-6.0</ele>
        <time>2019-05-16T10:26:11.907Z</time>
      </trkpt>
      <trkpt lat="38.83503833" lon="-9.11472333">
        <ele>-5.0</ele>
        <time>2019-05-16T10:26:12.914Z</time>
      </trkpt>
      <trkpt lat="38.83503833" lon="-9.11472333">
        <ele>-5.0</ele>
        <time>2019-05-16T10:26:13.934Z</time>
      </trkpt>
      <trkpt lat="38.835095" lon="-9.11473333">
        <ele>-6.0</ele>
        <time>2019-05-16T10:26:14.932Z</time>
      </trkpt>
      <trkpt lat="38.83512333" lon="-9.11474167">
        <ele>-5.0</ele>
        <time>2019-05-16T10:26:15.926Z</time>
      </trkpt>
      <trkpt lat="38.83512333" lon="-9.11474167">
        <ele>-5.0</ele>
        <time>2019-05-16T10:26:16.928Z</time>
      </trkpt>
      <trkpt lat="38.83517833" lon="-9.11475667">
        <ele>-5.0</ele>
        <time>2019-05-16T10:26:17.897Z</time>
      </trkpt>
      <trkpt lat="38.835205" lon="-9.11476167">
        <ele>-5.0</ele>
        <time>2019-05-16T10:26:18.903Z</time>
      </trkpt>
      <trkpt lat="38.835205" lon="-9.11476167">
        <ele>-5.0</ele>
        <time>2019-05-16T10:26:19.932Z</time>
      </trkpt>
      <trkpt lat="38.83526" lon="-9.11477833">
        <ele>-5.0</ele>
        <time>2019-05-16T10:26:20.916Z</time>
      </trkpt>
      <trkpt lat="38.83526" lon="-9.11477833">
        <ele>-5.0</ele>
        <time>2019-05-16T10:26:21.899Z</time>
      </trkpt>
      <trkpt lat="38.83532167" lon="-9.11479167">
        <ele>-5.0</ele>
        <time>2019-05-16T10:26:22.908Z</time>
      </trkpt>
      <trkpt lat="38.83532167" lon="-9.11479167">
        <ele>-5.0</ele>
        <time>2019-05-16T10:26:23.912Z</time>
      </trkpt>
      <trkpt lat="38.83538333" lon="-9.11481167">
        <ele>-5.0</ele>
        <time>2019-05-16T10:26:24.912Z</time>
      </trkpt>
      <trkpt lat="38.83538333" lon="-9.11481167">
        <ele>-5.0</ele>
        <time>2019-05-16T10:26:25.913Z</time>
      </trkpt>
      <trkpt lat="38.835445" lon="-9.114825">
        <ele>-5.0</ele>
        <time>2019-05-16T10:26:26.930Z</time>
      </trkpt>
      <trkpt lat="38.835445" lon="-9.114825">
        <ele>-5.0</ele>
        <time>2019-05-16T10:26:27.911Z</time>
      </trkpt>
      <trkpt lat="38.83550833" lon="-9.11483833">
        <ele>-5.0</ele>
        <time>2019-05-16T10:26:28.920Z</time>
      </trkpt>
      <trkpt lat="38.83554" lon="-9.11484333">
        <ele>-5.0</ele>
        <time>2019-05-16T10:26:29.937Z</time>
      </trkpt>
      <trkpt lat="38.83557" lon="-9.114845">
        <ele>-5.0</ele>
        <time>2019-05-16T10:26:30.916Z</time>
      </trkpt>
      <trkpt lat="38.83557" lon="-9.114845">
        <ele>-5.0</ele>
        <time>2019-05-16T10:26:31.926Z</time>
      </trkpt>
      <trkpt lat="38.83563" lon="-9.114845">
        <ele>-5.0</ele>
        <time>2019-05-16T10:26:32.935Z</time>
      </trkpt>
      <trkpt lat="38.83563" lon="-9.114845">
        <ele>-5.0</ele>
        <time>2019-05-16T10:26:33.928Z</time>
      </trkpt>
      <trkpt lat="38.835695" lon="-9.114845">
        <ele>-5.0</ele>
        <time>2019-05-16T10:26:34.936Z</time>
      </trkpt>
      <trkpt lat="38.835695" lon="-9.114845">
        <ele>-5.0</ele>
        <time>2019-05-16T10:26:35.930Z</time>
      </trkpt>
      <trkpt lat="38.83576667" lon="-9.114845">
        <ele>-6.0</ele>
        <time>2019-05-16T10:26:36.905Z</time>
      </trkpt>
      <trkpt lat="38.83576667" lon="-9.114845">
        <ele>-6.0</ele>
        <time>2019-05-16T10:26:37.932Z</time>
      </trkpt>
      <trkpt lat="38.83576667" lon="-9.114845">
        <ele>-6.0</ele>
        <time>2019-05-16T10:26:38.920Z</time>
      </trkpt>
      <trkpt lat="38.83583667" lon="-9.11484">
        <ele>-6.0</ele>
        <time>2019-05-16T10:26:39.918Z</time>
      </trkpt>
      <trkpt lat="38.835905" lon="-9.11483333">
        <ele>-6.0</ele>
        <time>2019-05-16T10:26:40.930Z</time>
      </trkpt>
      <trkpt lat="38.835905" lon="-9.11483333">
        <ele>-6.0</ele>
        <time>2019-05-16T10:26:41.934Z</time>
      </trkpt>
      <trkpt lat="38.83597" lon="-9.11482333">
        <ele>-6.0</ele>
        <time>2019-05-16T10:26:42.904Z</time>
      </trkpt>
      <trkpt lat="38.83597" lon="-9.11482333">
        <ele>-6.0</ele>
        <time>2019-05-16T10:26:43.930Z</time>
      </trkpt>
      <trkpt lat="38.836035" lon="-9.11481667">
        <ele>-6.0</ele>
        <time>2019-05-16T10:26:44.905Z</time>
      </trkpt>
      <trkpt lat="38.836035" lon="-9.11481667">
        <ele>-6.0</ele>
        <time>2019-05-16T10:26:45.908Z</time>
      </trkpt>
      <trkpt lat="38.836105" lon="-9.11480333">
        <ele>-6.0</ele>
        <time>2019-05-16T10:26:46.915Z</time>
      </trkpt>
      <trkpt lat="38.836105" lon="-9.11480333">
        <ele>-6.0</ele>
        <time>2019-05-16T10:26:47.928Z</time>
      </trkpt>
      <trkpt lat="38.83617167" lon="-9.114795">
        <ele>-6.0</ele>
        <time>2019-05-16T10:26:48.937Z</time>
      </trkpt>
      <trkpt lat="38.83617167" lon="-9.114795">
        <ele>-6.0</ele>
        <time>2019-05-16T10:26:49.930Z</time>
      </trkpt>
      <trkpt lat="38.836235" lon="-9.11478333">
        <ele>-6.0</ele>
        <time>2019-05-16T10:26:50.901Z</time>
      </trkpt>
      <trkpt lat="38.836235" lon="-9.11478333">
        <ele>-6.0</ele>
        <time>2019-05-16T10:26:51.901Z</time>
      </trkpt>
      <trkpt lat="38.83629833" lon="-9.11476833">
        <ele>-6.0</ele>
        <time>2019-05-16T10:26:52.922Z</time>
      </trkpt>
      <trkpt lat="38.83629833" lon="-9.11476833">
        <ele>-6.0</ele>
        <time>2019-05-16T10:26:53.905Z</time>
      </trkpt>
      <trkpt lat="38.836365" lon="-9.11476167">
        <ele>-6.0</ele>
        <time>2019-05-16T10:26:54.930Z</time>
      </trkpt>
      <trkpt lat="38.836365" lon="-9.11476167">
        <ele>-6.0</ele>
        <time>2019-05-16T10:26:55.932Z</time>
      </trkpt>
      <trkpt lat="38.83642667" lon="-9.11474333">
        <ele>-6.0</ele>
        <time>2019-05-16T10:26:56.920Z</time>
      </trkpt>
      <trkpt lat="38.83642667" lon="-9.11474333">
        <ele>-6.0</ele>
        <time>2019-05-16T10:26:57.909Z</time>
      </trkpt>
      <trkpt lat="38.83649" lon="-9.11473">
        <ele>-6.0</ele>
        <time>2019-05-16T10:26:58.919Z</time>
      </trkpt>
      <trkpt lat="38.83649" lon="-9.11473">
        <ele>-6.0</ele>
        <time>2019-05-16T10:26:59.900Z</time>
      </trkpt>
      <trkpt lat="38.83655167" lon="-9.11471833">
        <ele>-6.0</ele>
        <time>2019-05-16T10:27:00.915Z</time>
      </trkpt>
      <trkpt lat="38.836585" lon="-9.114715">
        <ele>-6.0</ele>
        <time>2019-05-16T10:27:01.903Z</time>
      </trkpt>
      <trkpt lat="38.836615" lon="-9.11471">
        <ele>-6.0</ele>
        <time>2019-05-16T10:27:02.933Z</time>
      </trkpt>
      <trkpt lat="38.836615" lon="-9.11471">
        <ele>-6.0</ele>
        <time>2019-05-16T10:27:03.901Z</time>
      </trkpt>
      <trkpt lat="38.83667667" lon="-9.11469667">
        <ele>-6.0</ele>
        <time>2019-05-16T10:27:04.924Z</time>
      </trkpt>
      <trkpt lat="38.83667667" lon="-9.11469667">
        <ele>-6.0</ele>
        <time>2019-05-16T10:27:05.933Z</time>
      </trkpt>
      <trkpt lat="38.83673667" lon="-9.11468333">
        <ele>-6.0</ele>
        <time>2019-05-16T10:27:06.921Z</time>
      </trkpt>
      <trkpt lat="38.83673667" lon="-9.11468333">
        <ele>-6.0</ele>
        <time>2019-05-16T10:27:07.909Z</time>
      </trkpt>
      <trkpt lat="38.83679333" lon="-9.11466667">
        <ele>-6.0</ele>
        <time>2019-05-16T10:27:08.916Z</time>
      </trkpt>
      <trkpt lat="38.83679333" lon="-9.11466667">
        <ele>-6.0</ele>
        <time>2019-05-16T10:27:09.924Z</time>
      </trkpt>
      <trkpt lat="38.83685333" lon="-9.11465">
        <ele>-6.0</ele>
        <time>2019-05-16T10:27:10.930Z</time>
      </trkpt>
      <trkpt lat="38.83685333" lon="-9.11465">
        <ele>-6.0</ele>
        <time>2019-05-16T10:27:11.912Z</time>
      </trkpt>
      <trkpt lat="38.83690833" lon="-9.114635">
        <ele>-6.0</ele>
        <time>2019-05-16T10:27:12.928Z</time>
      </trkpt>
      <trkpt lat="38.83690833" lon="-9.114635">
        <ele>-6.0</ele>
        <time>2019-05-16T10:27:13.928Z</time>
      </trkpt>
      <trkpt lat="38.83695833" lon="-9.11461667">
        <ele>-5.0</ele>
        <time>2019-05-16T10:27:14.938Z</time>
      </trkpt>
      <trkpt lat="38.83695833" lon="-9.11461667">
        <ele>-5.0</ele>
        <time>2019-05-16T10:27:15.926Z</time>
      </trkpt>
      <trkpt lat="38.83701167" lon="-9.1146">
        <ele>-5.0</ele>
        <time>2019-05-16T10:27:16.903Z</time>
      </trkpt>
      <trkpt lat="38.83701167" lon="-9.1146">
        <ele>-5.0</ele>
        <time>2019-05-16T10:27:17.928Z</time>
      </trkpt>
      <trkpt lat="38.83706667" lon="-9.11458">
        <ele>-5.0</ele>
        <time>2019-05-16T10:27:18.912Z</time>
      </trkpt>
      <trkpt lat="38.83706667" lon="-9.11458">
        <ele>-5.0</ele>
        <time>2019-05-16T10:27:19.897Z</time>
      </trkpt>
      <trkpt lat="38.83711667" lon="-9.11454833">
        <ele>-5.0</ele>
        <time>2019-05-16T10:27:20.902Z</time>
      </trkpt>
      <trkpt lat="38.83711667" lon="-9.11454833">
        <ele>-5.0</ele>
        <time>2019-05-16T10:27:21.911Z</time>
      </trkpt>
      <trkpt lat="38.83717" lon="-9.11451833">
        <ele>-5.0</ele>
        <time>2019-05-16T10:27:22.921Z</time>
      </trkpt>
      <trkpt lat="38.83717" lon="-9.11451833">
        <ele>-5.0</ele>
        <time>2019-05-16T10:27:23.920Z</time>
      </trkpt>
      <trkpt lat="38.83721667" lon="-9.11448667">
        <ele>-5.0</ele>
        <time>2019-05-16T10:27:24.932Z</time>
      </trkpt>
      <trkpt lat="38.83721667" lon="-9.11448667">
        <ele>-5.0</ele>
        <time>2019-05-16T10:27:25.901Z</time>
      </trkpt>
      <trkpt lat="38.83726167" lon="-9.11445167">
        <ele>-4.0</ele>
        <time>2019-05-16T10:27:26.913Z</time>
      </trkpt>
      <trkpt lat="38.83726167" lon="-9.11445167">
        <ele>-4.0</ele>
        <time>2019-05-16T10:27:27.929Z</time>
      </trkpt>
      <trkpt lat="38.83731" lon="-9.11441">
        <ele>-4.0</ele>
        <time>2019-05-16T10:27:28.897Z</time>
      </trkpt>
      <trkpt lat="38.83731" lon="-9.11441">
        <ele>-4.0</ele>
        <time>2019-05-16T10:27:29.901Z</time>
      </trkpt>
      <trkpt lat="38.83735667" lon="-9.11436">
        <ele>-4.0</ele>
        <time>2019-05-16T10:27:30.909Z</time>
      </trkpt>
      <trkpt lat="38.83735667" lon="-9.11436">
        <ele>-4.0</ele>
        <time>2019-05-16T10:27:31.933Z</time>
      </trkpt>
      <trkpt lat="38.83740333" lon="-9.11430333">
        <ele>-3.0</ele>
        <time>2019-05-16T10:27:32.905Z</time>
      </trkpt>
      <trkpt lat="38.83742667" lon="-9.114275">
        <ele>-3.0</ele>
        <time>2019-05-16T10:27:33.932Z</time>
      </trkpt>
      <trkpt lat="38.83742667" lon="-9.114275">
        <ele>-3.0</ele>
        <time>2019-05-16T10:27:34.924Z</time>
      </trkpt>
      <trkpt lat="38.83747333" lon="-9.11422167">
        <ele>-3.0</ele>
        <time>2019-05-16T10:27:35.934Z</time>
      </trkpt>
      <trkpt lat="38.83749667" lon="-9.114195">
        <ele>-3.0</ele>
        <time>2019-05-16T10:27:36.935Z</time>
      </trkpt>
      <trkpt lat="38.83752" lon="-9.11416833">
        <ele>-3.0</ele>
        <time>2019-05-16T10:27:37.932Z</time>
      </trkpt>
      <trkpt lat="38.83752" lon="-9.11416833">
        <ele>-3.0</ele>
        <time>2019-05-16T10:27:38.904Z</time>
      </trkpt>
      <trkpt lat="38.83756667" lon="-9.11411">
        <ele>-3.0</ele>
        <time>2019-05-16T10:27:39.914Z</time>
      </trkpt>
      <trkpt lat="38.83756667" lon="-9.11411">
        <ele>-3.0</ele>
        <time>2019-05-16T10:27:40.915Z</time>
      </trkpt>
      <trkpt lat="38.83761667" lon="-9.11405167">
        <ele>-3.0</ele>
        <time>2019-05-16T10:27:41.935Z</time>
      </trkpt>
      <trkpt lat="38.83764167" lon="-9.11402167">
        <ele>-3.0</ele>
        <time>2019-05-16T10:27:42.932Z</time>
      </trkpt>
      <trkpt lat="38.83764167" lon="-9.11402167">
        <ele>-3.0</ele>
        <time>2019-05-16T10:27:43.902Z</time>
      </trkpt>
      <trkpt lat="38.83768833" lon="-9.11395833">
        <ele>-3.0</ele>
        <time>2019-05-16T10:27:44.923Z</time>
      </trkpt>
      <trkpt lat="38.83768833" lon="-9.11395833">
        <ele>-3.0</ele>
        <time>2019-05-16T10:27:45.925Z</time>
      </trkpt>
      <trkpt lat="38.83774" lon="-9.11390167">
        <ele>-3.0</ele>
        <time>2019-05-16T10:27:46.905Z</time>
      </trkpt>
      <trkpt lat="38.83774" lon="-9.11390167">
        <ele>-3.0</ele>
        <time>2019-05-16T10:27:47.906Z</time>
      </trkpt>
      <trkpt lat="38.837795" lon="-9.11384833">
        <ele>-3.0</ele>
        <time>2019-05-16T10:27:48.919Z</time>
      </trkpt>
      <trkpt lat="38.837795" lon="-9.11384833">
        <ele>-3.0</ele>
        <time>2019-05-16T10:27:49.901Z</time>
      </trkpt>
      <trkpt lat="38.83785667" lon="-9.1138">
        <ele>-3.0</ele>
        <time>2019-05-16T10:27:50.911Z</time>
      </trkpt>
      <trkpt lat="38.83785667" lon="-9.1138">
        <ele>-3.0</ele>
        <time>2019-05-16T10:27:51.910Z</time>
      </trkpt>
      <trkpt lat="38.83792333" lon="-9.11375833">
        <ele>-3.0</ele>
        <time>2019-05-16T10:27:52.920Z</time>
      </trkpt>
      <trkpt lat="38.83792333" lon="-9.11375833">
        <ele>-3.0</ele>
        <time>2019-05-16T10:27:53.912Z</time>
      </trkpt>
      <trkpt lat="38.837995" lon="-9.11372167">
        <ele>-3.0</ele>
        <time>2019-05-16T10:27:54.921Z</time>
      </trkpt>
      <trkpt lat="38.837995" lon="-9.11372167">
        <ele>-3.0</ele>
        <time>2019-05-16T10:27:55.906Z</time>
      </trkpt>
      <trkpt lat="38.83806833" lon="-9.11369333">
        <ele>-3.0</ele>
        <time>2019-05-16T10:27:56.919Z</time>
      </trkpt>
      <trkpt lat="38.83806833" lon="-9.11369333">
        <ele>-3.0</ele>
        <time>2019-05-16T10:27:57.928Z</time>
      </trkpt>
      <trkpt lat="38.83814333" lon="-9.11367">
        <ele>-3.0</ele>
        <time>2019-05-16T10:27:58.900Z</time>
      </trkpt>
      <trkpt lat="38.83818" lon="-9.11366167">
        <ele>-3.0</ele>
        <time>2019-05-16T10:27:59.929Z</time>
      </trkpt>
      <trkpt lat="38.83821833" lon="-9.11365167">
        <ele>-3.0</ele>
        <time>2019-05-16T10:28:00.907Z</time>
      </trkpt>
      <trkpt lat="38.83821833" lon="-9.11365167">
        <ele>-3.0</ele>
        <time>2019-05-16T10:28:01.921Z</time>
      </trkpt>
      <trkpt lat="38.83829833" lon="-9.11363667">
        <ele>-4.0</ele>
        <time>2019-05-16T10:28:02.931Z</time>
      </trkpt>
      <trkpt lat="38.83829833" lon="-9.11363667">
        <ele>-4.0</ele>
        <time>2019-05-16T10:28:03.924Z</time>
      </trkpt>
      <trkpt lat="38.83838167" lon="-9.11363">
        <ele>-4.0</ele>
        <time>2019-05-16T10:28:04.933Z</time>
      </trkpt>
      <trkpt lat="38.83838167" lon="-9.11363">
        <ele>-4.0</ele>
        <time>2019-05-16T10:28:05.912Z</time>
      </trkpt>
      <trkpt lat="38.83846333" lon="-9.11363333">
        <ele>-4.0</ele>
        <time>2019-05-16T10:28:06.921Z</time>
      </trkpt>
      <trkpt lat="38.83846333" lon="-9.11363333">
        <ele>-4.0</ele>
        <time>2019-05-16T10:28:07.924Z</time>
      </trkpt>
      <trkpt lat="38.83853667" lon="-9.11363667">
        <ele>-4.0</ele>
        <time>2019-05-16T10:28:08.905Z</time>
      </trkpt>
      <trkpt lat="38.83857333" lon="-9.11364167">
        <ele>-4.0</ele>
        <time>2019-05-16T10:28:09.899Z</time>
      </trkpt>
      <trkpt lat="38.83857333" lon="-9.11364167">
        <ele>-4.0</ele>
        <time>2019-05-16T10:28:10.899Z</time>
      </trkpt>
      <trkpt lat="38.83864833" lon="-9.11365">
        <ele>-4.0</ele>
        <time>2019-05-16T10:28:11.922Z</time>
      </trkpt>
      <trkpt lat="38.83864833" lon="-9.11365">
        <ele>-4.0</ele>
        <time>2019-05-16T10:28:13.001Z</time>
      </trkpt>
      <trkpt lat="38.838685" lon="-9.11365667">
        <ele>-4.0</ele>
        <time>2019-05-16T10:28:13.908Z</time>
      </trkpt>
      <trkpt lat="38.83876" lon="-9.11366833">
        <ele>-4.0</ele>
        <time>2019-05-16T10:28:14.920Z</time>
      </trkpt>
      <trkpt lat="38.83876" lon="-9.11366833">
        <ele>-4.0</ele>
        <time>2019-05-16T10:28:15.931Z</time>
      </trkpt>
      <trkpt lat="38.83883833" lon="-9.11368">
        <ele>-4.0</ele>
        <time>2019-05-16T10:28:16.912Z</time>
      </trkpt>
      <trkpt lat="38.83883833" lon="-9.11368">
        <ele>-4.0</ele>
        <time>2019-05-16T10:28:17.901Z</time>
      </trkpt>
      <trkpt lat="38.83891" lon="-9.11368333">
        <ele>-4.0</ele>
        <time>2019-05-16T10:28:18.912Z</time>
      </trkpt>
      <trkpt lat="38.83891" lon="-9.11368333">
        <ele>-4.0</ele>
        <time>2019-05-16T10:28:19.926Z</time>
      </trkpt>
      <trkpt lat="38.83898" lon="-9.11367167">
        <ele>-4.0</ele>
        <time>2019-05-16T10:28:20.920Z</time>
      </trkpt>
      <trkpt lat="38.83898" lon="-9.11367167">
        <ele>-4.0</ele>
        <time>2019-05-16T10:28:21.898Z</time>
      </trkpt>
      <trkpt lat="38.83904333" lon="-9.113665">
        <ele>-3.0</ele>
        <time>2019-05-16T10:28:22.911Z</time>
      </trkpt>
      <trkpt lat="38.83907167" lon="-9.11366">
        <ele>-4.0</ele>
        <time>2019-05-16T10:28:23.912Z</time>
      </trkpt>
      <trkpt lat="38.83910167" lon="-9.11365833">
        <ele>-4.0</ele>
        <time>2019-05-16T10:28:24.898Z</time>
      </trkpt>
      <trkpt lat="38.83910167" lon="-9.11365833">
        <ele>-4.0</ele>
        <time>2019-05-16T10:28:25.904Z</time>
      </trkpt>
      <trkpt lat="38.83916" lon="-9.11365333">
        <ele>-3.0</ele>
        <time>2019-05-16T10:28:26.915Z</time>
      </trkpt>
      <trkpt lat="38.83916" lon="-9.11365333">
        <ele>-3.0</ele>
        <time>2019-05-16T10:28:27.912Z</time>
      </trkpt>
      <trkpt lat="38.83921833" lon="-9.11365167">
        <ele>-3.0</ele>
        <time>2019-05-16T10:28:28.925Z</time>
      </trkpt>
      <trkpt lat="38.83921833" lon="-9.11365167">
        <ele>-3.0</ele>
        <time>2019-05-16T10:28:29.911Z</time>
      </trkpt>
      <trkpt lat="38.839275" lon="-9.113645">
        <ele>-3.0</ele>
        <time>2019-05-16T10:28:30.919Z</time>
      </trkpt>
      <trkpt lat="38.839275" lon="-9.113645">
        <ele>-3.0</ele>
        <time>2019-05-16T10:28:31.927Z</time>
      </trkpt>
      <trkpt lat="38.83933333" lon="-9.11364167">
        <ele>-3.0</ele>
        <time>2019-05-16T10:28:32.936Z</time>
      </trkpt>
      <trkpt lat="38.83933333" lon="-9.11364167">
        <ele>-3.0</ele>
        <time>2019-05-16T10:28:33.926Z</time>
      </trkpt>
      <trkpt lat="38.83938833" lon="-9.11363333">
        <ele>-3.0</ele>
        <time>2019-05-16T10:28:34.910Z</time>
      </trkpt>
      <trkpt lat="38.83941833" lon="-9.11363">
        <ele>-3.0</ele>
        <time>2019-05-16T10:28:35.927Z</time>
      </trkpt>
      <trkpt lat="38.83941833" lon="-9.11363">
        <ele>-3.0</ele>
        <time>2019-05-16T10:28:36.925Z</time>
      </trkpt>
      <trkpt lat="38.83947667" lon="-9.11362333">
        <ele>-3.0</ele>
        <time>2019-05-16T10:28:37.935Z</time>
      </trkpt>
      <trkpt lat="38.83947667" lon="-9.11362333">
        <ele>-3.0</ele>
        <time>2019-05-16T10:28:38.929Z</time>
      </trkpt>
      <trkpt lat="38.839535" lon="-9.11361667">
        <ele>-3.0</ele>
        <time>2019-05-16T10:28:39.911Z</time>
      </trkpt>
      <trkpt lat="38.839535" lon="-9.11361667">
        <ele>-3.0</ele>
        <time>2019-05-16T10:28:40.936Z</time>
      </trkpt>
      <trkpt lat="38.8396" lon="-9.11360167">
        <ele>-2.0</ele>
        <time>2019-05-16T10:28:41.906Z</time>
      </trkpt>
      <trkpt lat="38.83963167" lon="-9.11359667">
        <ele>-3.0</ele>
        <time>2019-05-16T10:28:42.900Z</time>
      </trkpt>
      <trkpt lat="38.83963167" lon="-9.11359667">
        <ele>-3.0</ele>
        <time>2019-05-16T10:28:43.911Z</time>
      </trkpt>
      <trkpt lat="38.839695" lon="-9.11358833">
        <ele>-3.0</ele>
        <time>2019-05-16T10:28:44.921Z</time>
      </trkpt>
      <trkpt lat="38.839695" lon="-9.11358833">
        <ele>-3.0</ele>
        <time>2019-05-16T10:28:45.924Z</time>
      </trkpt>
      <trkpt lat="38.83976" lon="-9.11358167">
        <ele>-3.0</ele>
        <time>2019-05-16T10:28:46.935Z</time>
      </trkpt>
      <trkpt lat="38.83976" lon="-9.11358167">
        <ele>-3.0</ele>
        <time>2019-05-16T10:28:47.930Z</time>
      </trkpt>
      <trkpt lat="38.839825" lon="-9.11357667">
        <ele>-3.0</ele>
        <time>2019-05-16T10:28:48.898Z</time>
      </trkpt>
      <trkpt lat="38.839825" lon="-9.11357667">
        <ele>-3.0</ele>
        <time>2019-05-16T10:28:49.926Z</time>
      </trkpt>
      <trkpt lat="38.83989167" lon="-9.113575">
        <ele>-3.0</ele>
        <time>2019-05-16T10:28:50.902Z</time>
      </trkpt>
      <trkpt lat="38.83989167" lon="-9.113575">
        <ele>-3.0</ele>
        <time>2019-05-16T10:28:51.906Z</time>
      </trkpt>
      <trkpt lat="38.839955" lon="-9.11357">
        <ele>-3.0</ele>
        <time>2019-05-16T10:28:52.918Z</time>
      </trkpt>
      <trkpt lat="38.839955" lon="-9.11357">
        <ele>-3.0</ele>
        <time>2019-05-16T10:28:53.927Z</time>
      </trkpt>
      <trkpt lat="38.84001833" lon="-9.11356833">
        <ele>-3.0</ele>
        <time>2019-05-16T10:28:54.898Z</time>
      </trkpt>
      <trkpt lat="38.84001833" lon="-9.11356833">
        <ele>-3.0</ele>
        <time>2019-05-16T10:28:55.921Z</time>
      </trkpt>
      <trkpt lat="38.84008167" lon="-9.113565">
        <ele>-2.0</ele>
        <time>2019-05-16T10:28:56.931Z</time>
      </trkpt>
      <trkpt lat="38.84008167" lon="-9.113565">
        <ele>-2.0</ele>
        <time>2019-05-16T10:28:57.902Z</time>
      </trkpt>
      <trkpt lat="38.84013833" lon="-9.11355833">
        <ele>-2.0</ele>
        <time>2019-05-16T10:28:58.913Z</time>
      </trkpt>
      <trkpt lat="38.84013833" lon="-9.11355833">
        <ele>-2.0</ele>
        <time>2019-05-16T10:28:59.936Z</time>
      </trkpt>
      <trkpt lat="38.84019333" lon="-9.113555">
        <ele>-2.0</ele>
        <time>2019-05-16T10:29:00.904Z</time>
      </trkpt>
      <trkpt lat="38.84019333" lon="-9.113555">
        <ele>-2.0</ele>
        <time>2019-05-16T10:29:01.918Z</time>
      </trkpt>
      <trkpt lat="38.84024333" lon="-9.11355167">
        <ele>-2.0</ele>
        <time>2019-05-16T10:29:02.902Z</time>
      </trkpt>
      <trkpt lat="38.84024333" lon="-9.11355167">
        <ele>-2.0</ele>
        <time>2019-05-16T10:29:03.910Z</time>
      </trkpt>
      <trkpt lat="38.84029667" lon="-9.11354667">
        <ele>-2.0</ele>
        <time>2019-05-16T10:29:04.918Z</time>
      </trkpt>
      <trkpt lat="38.84029667" lon="-9.11354667">
        <ele>-2.0</ele>
        <time>2019-05-16T10:29:05.912Z</time>
      </trkpt>
      <trkpt lat="38.84034667" lon="-9.11354667">
        <ele>-1.0</ele>
        <time>2019-05-16T10:29:06.919Z</time>
      </trkpt>
      <trkpt lat="38.84034667" lon="-9.11354667">
        <ele>-1.0</ele>
        <time>2019-05-16T10:29:07.927Z</time>
      </trkpt>
      <trkpt lat="38.84039833" lon="-9.113545">
        <ele>-1.0</ele>
        <time>2019-05-16T10:29:08.935Z</time>
      </trkpt>
      <trkpt lat="38.84039833" lon="-9.113545">
        <ele>-1.0</ele>
        <time>2019-05-16T10:29:09.906Z</time>
      </trkpt>
      <trkpt lat="38.84045167" lon="-9.11354333">
        <ele>-1.0</ele>
        <time>2019-05-16T10:29:10.917Z</time>
      </trkpt>
      <trkpt lat="38.84045167" lon="-9.11354333">
        <ele>-1.0</ele>
        <time>2019-05-16T10:29:11.914Z</time>
      </trkpt>
      <trkpt lat="38.84050833" lon="-9.11354333">
        <ele>-1.0</ele>
        <time>2019-05-16T10:29:12.922Z</time>
      </trkpt>
      <trkpt lat="38.84050833" lon="-9.11354333">
        <ele>-1.0</ele>
        <time>2019-05-16T10:29:13.909Z</time>
      </trkpt>
      <trkpt lat="38.84056833" lon="-9.11353667">
        <ele>-2.0</ele>
        <time>2019-05-16T10:29:14.917Z</time>
      </trkpt>
      <trkpt lat="38.84056833" lon="-9.11353667">
        <ele>-2.0</ele>
        <time>2019-05-16T10:29:15.931Z</time>
      </trkpt>
      <trkpt lat="38.84063" lon="-9.11352667">
        <ele>-2.0</ele>
        <time>2019-05-16T10:29:16.901Z</time>
      </trkpt>
      <trkpt lat="38.84063" lon="-9.11352667">
        <ele>-2.0</ele>
        <time>2019-05-16T10:29:17.924Z</time>
      </trkpt>
      <trkpt lat="38.84069667" lon="-9.11351667">
        <ele>-2.0</ele>
        <time>2019-05-16T10:29:18.935Z</time>
      </trkpt>
      <trkpt lat="38.84069667" lon="-9.11351667">
        <ele>-2.0</ele>
        <time>2019-05-16T10:29:19.936Z</time>
      </trkpt>
      <trkpt lat="38.84076833" lon="-9.113505">
        <ele>-3.0</ele>
        <time>2019-05-16T10:29:20.922Z</time>
      </trkpt>
      <trkpt lat="38.84080667" lon="-9.1135">
        <ele>-3.0</ele>
        <time>2019-05-16T10:29:21.903Z</time>
      </trkpt>
      <trkpt lat="38.84080667" lon="-9.1135">
        <ele>-3.0</ele>
        <time>2019-05-16T10:29:22.909Z</time>
      </trkpt>
      <trkpt lat="38.84088333" lon="-9.11348167">
        <ele>-3.0</ele>
        <time>2019-05-16T10:29:23.918Z</time>
      </trkpt>
      <trkpt lat="38.84092167" lon="-9.11347167">
        <ele>-3.0</ele>
        <time>2019-05-16T10:29:24.931Z</time>
      </trkpt>
      <trkpt lat="38.84092167" lon="-9.11347167">
        <ele>-3.0</ele>
        <time>2019-05-16T10:29:25.927Z</time>
      </trkpt>
      <trkpt lat="38.84100667" lon="-9.11345333">
        <ele>-3.0</ele>
        <time>2019-05-16T10:29:26.898Z</time>
      </trkpt>
      <trkpt lat="38.84100667" lon="-9.11345333">
        <ele>-3.0</ele>
        <time>2019-05-16T10:29:27.930Z</time>
      </trkpt>
      <trkpt lat="38.841095" lon="-9.113425">
        <ele>-3.0</ele>
        <time>2019-05-16T10:29:28.924Z</time>
      </trkpt>
      <trkpt lat="38.841095" lon="-9.113425">
        <ele>-3.0</ele>
        <time>2019-05-16T10:29:29.907Z</time>
      </trkpt>
      <trkpt lat="38.84118333" lon="-9.11339167">
        <ele>-3.0</ele>
        <time>2019-05-16T10:29:30.918Z</time>
      </trkpt>
      <trkpt lat="38.84118333" lon="-9.11339167">
        <ele>-3.0</ele>
        <time>2019-05-16T10:29:31.904Z</time>
      </trkpt>
      <trkpt lat="38.841265" lon="-9.11335667">
        <ele>-3.0</ele>
        <time>2019-05-16T10:29:32.922Z</time>
      </trkpt>
      <trkpt lat="38.841265" lon="-9.11335667">
        <ele>-3.0</ele>
        <time>2019-05-16T10:29:33.930Z</time>
      </trkpt>
      <trkpt lat="38.841335" lon="-9.11331333">
        <ele>-3.0</ele>
        <time>2019-05-16T10:29:34.905Z</time>
      </trkpt>
      <trkpt lat="38.841335" lon="-9.11331333">
        <ele>-3.0</ele>
        <time>2019-05-16T10:29:35.907Z</time>
      </trkpt>
      <trkpt lat="38.84139167" lon="-9.11327333">
        <ele>-3.0</ele>
        <time>2019-05-16T10:29:36.915Z</time>
      </trkpt>
      <trkpt lat="38.84139167" lon="-9.11327333">
        <ele>-3.0</ele>
        <time>2019-05-16T10:29:37.924Z</time>
      </trkpt>
      <trkpt lat="38.84144333" lon="-9.11322667">
        <ele>-2.0</ele>
        <time>2019-05-16T10:29:38.935Z</time>
      </trkpt>
      <trkpt lat="38.84144333" lon="-9.11322667">
        <ele>-2.0</ele>
        <time>2019-05-16T10:29:39.927Z</time>
      </trkpt>
      <trkpt lat="38.84150167" lon="-9.113185">
        <ele>-2.0</ele>
        <time>2019-05-16T10:29:40.900Z</time>
      </trkpt>
      <trkpt lat="38.84153167" lon="-9.11316833">
        <ele>-2.0</ele>
        <time>2019-05-16T10:29:41.897Z</time>
      </trkpt>
      <trkpt lat="38.84156167" lon="-9.11315167">
        <ele>-2.0</ele>
        <time>2019-05-16T10:29:42.915Z</time>
      </trkpt>
      <trkpt lat="38.84156167" lon="-9.11315167">
        <ele>-2.0</ele>
        <time>2019-05-16T10:29:43.932Z</time>
      </trkpt>
      <trkpt lat="38.84160833" lon="-9.11312">
        <ele>-2.0</ele>
        <time>2019-05-16T10:29:44.904Z</time>
      </trkpt>
      <trkpt lat="38.84160833" lon="-9.11312">
        <ele>-2.0</ele>
        <time>2019-05-16T10:29:45.902Z</time>
      </trkpt>
      <trkpt lat="38.84165667" lon="-9.11309667">
        <ele>-2.0</ele>
        <time>2019-05-16T10:29:46.911Z</time>
      </trkpt>
      <trkpt lat="38.84165667" lon="-9.11309667">
        <ele>-2.0</ele>
        <time>2019-05-16T10:29:47.903Z</time>
      </trkpt>
      <trkpt lat="38.841705" lon="-9.11307167">
        <ele>-1.0</ele>
        <time>2019-05-16T10:29:48.919Z</time>
      </trkpt>
      <trkpt lat="38.841705" lon="-9.11307167">
        <ele>-1.0</ele>
        <time>2019-05-16T10:29:49.903Z</time>
      </trkpt>
      <trkpt lat="38.841755" lon="-9.11304667">
        <ele>-1.0</ele>
        <time>2019-05-16T10:29:50.910Z</time>
      </trkpt>
      <trkpt lat="38.841755" lon="-9.11304667">
        <ele>-1.0</ele>
        <time>2019-05-16T10:29:51.902Z</time>
      </trkpt>
      <trkpt lat="38.84181667" lon="-9.11303">
        <ele>-1.0</ele>
        <time>2019-05-16T10:29:52.917Z</time>
      </trkpt>
      <trkpt lat="38.84181667" lon="-9.11303">
        <ele>-1.0</ele>
        <time>2019-05-16T10:29:53.935Z</time>
      </trkpt>
      <trkpt lat="38.84187667" lon="-9.11301833">
        <ele>-1.0</ele>
        <time>2019-05-16T10:29:54.904Z</time>
      </trkpt>
      <trkpt lat="38.84187667" lon="-9.11301833">
        <ele>-1.0</ele>
        <time>2019-05-16T10:29:55.932Z</time>
      </trkpt>
      <trkpt lat="38.84193333" lon="-9.11302167">
        <ele>-2.0</ele>
        <time>2019-05-16T10:29:56.907Z</time>
      </trkpt>
      <trkpt lat="38.84193333" lon="-9.11302167">
        <ele>-2.0</ele>
        <time>2019-05-16T10:29:57.928Z</time>
      </trkpt>
      <trkpt lat="38.842" lon="-9.11303">
        <ele>-2.0</ele>
        <time>2019-05-16T10:29:58.913Z</time>
      </trkpt>
      <trkpt lat="38.842035" lon="-9.11303667">
        <ele>-2.0</ele>
        <time>2019-05-16T10:29:59.897Z</time>
      </trkpt>
      <trkpt lat="38.84207167" lon="-9.11304333">
        <ele>-2.0</ele>
        <time>2019-05-16T10:30:00.899Z</time>
      </trkpt>
      <trkpt lat="38.84207167" lon="-9.11304333">
        <ele>-2.0</ele>
        <time>2019-05-16T10:30:01.901Z</time>
      </trkpt>
      <trkpt lat="38.842145" lon="-9.113065">
        <ele>-2.0</ele>
        <time>2019-05-16T10:30:02.931Z</time>
      </trkpt>
      <trkpt lat="38.842145" lon="-9.113065">
        <ele>-2.0</ele>
        <time>2019-05-16T10:30:03.897Z</time>
      </trkpt>
      <trkpt lat="38.84222333" lon="-9.11309667">
        <ele>-3.0</ele>
        <time>2019-05-16T10:30:04.905Z</time>
      </trkpt>
      <trkpt lat="38.84222333" lon="-9.11309667">
        <ele>-3.0</ele>
        <time>2019-05-16T10:30:05.933Z</time>
      </trkpt>
      <trkpt lat="38.84230167" lon="-9.11313333">
        <ele>-3.0</ele>
        <time>2019-05-16T10:30:06.908Z</time>
      </trkpt>
      <trkpt lat="38.84230167" lon="-9.11313333">
        <ele>-3.0</ele>
        <time>2019-05-16T10:30:07.897Z</time>
      </trkpt>
      <trkpt lat="38.842375" lon="-9.113175">
        <ele>-3.0</ele>
        <time>2019-05-16T10:30:08.913Z</time>
      </trkpt>
      <trkpt lat="38.842375" lon="-9.113175">
        <ele>-3.0</ele>
        <time>2019-05-16T10:30:09.927Z</time>
      </trkpt>
      <trkpt lat="38.84244833" lon="-9.11322333">
        <ele>-3.0</ele>
        <time>2019-05-16T10:30:10.898Z</time>
      </trkpt>
      <trkpt lat="38.84244833" lon="-9.11322333">
        <ele>-3.0</ele>
        <time>2019-05-16T10:30:11.928Z</time>
      </trkpt>
      <trkpt lat="38.84251667" lon="-9.11327333">
        <ele>-4.0</ele>
        <time>2019-05-16T10:30:12.900Z</time>
      </trkpt>
      <trkpt lat="38.84255167" lon="-9.1133">
        <ele>-4.0</ele>
        <time>2019-05-16T10:30:13.915Z</time>
      </trkpt>
      <trkpt lat="38.84255167" lon="-9.1133">
        <ele>-4.0</ele>
        <time>2019-05-16T10:30:14.911Z</time>
      </trkpt>
      <trkpt lat="38.84261833" lon="-9.113355">
        <ele>-4.0</ele>
        <time>2019-05-16T10:30:15.903Z</time>
      </trkpt>
      <trkpt lat="38.84261833" lon="-9.113355">
        <ele>-4.0</ele>
        <time>2019-05-16T10:30:16.926Z</time>
      </trkpt>
      <trkpt lat="38.84268833" lon="-9.11341167">
        <ele>-4.0</ele>
        <time>2019-05-16T10:30:17.934Z</time>
      </trkpt>
      <trkpt lat="38.84268833" lon="-9.11341167">
        <ele>-4.0</ele>
        <time>2019-05-16T10:30:18.926Z</time>
      </trkpt>
      <trkpt lat="38.842755" lon="-9.11347">
        <ele>-5.0</ele>
        <time>2019-05-16T10:30:19.929Z</time>
      </trkpt>
      <trkpt lat="38.842755" lon="-9.11347">
        <ele>-5.0</ele>
        <time>2019-05-16T10:30:20.933Z</time>
      </trkpt>
      <trkpt lat="38.84282333" lon="-9.11352833">
        <ele>-5.0</ele>
        <time>2019-05-16T10:30:21.900Z</time>
      </trkpt>
      <trkpt lat="38.84285667" lon="-9.11355833">
        <ele>-5.0</ele>
        <time>2019-05-16T10:30:22.911Z</time>
      </trkpt>
      <trkpt lat="38.84285667" lon="-9.11355833">
        <ele>-5.0</ele>
        <time>2019-05-16T10:30:23.916Z</time>
      </trkpt>
      <trkpt lat="38.842925" lon="-9.11361833">
        <ele>-5.0</ele>
        <time>2019-05-16T10:30:24.906Z</time>
      </trkpt>
      <trkpt lat="38.842925" lon="-9.11361833">
        <ele>-5.0</ele>
        <time>2019-05-16T10:30:25.935Z</time>
      </trkpt>
      <trkpt lat="38.84299" lon="-9.11367667">
        <ele>-5.0</ele>
        <time>2019-05-16T10:30:26.909Z</time>
      </trkpt>
      <trkpt lat="38.84299" lon="-9.11367667">
        <ele>-5.0</ele>
        <time>2019-05-16T10:30:27.907Z</time>
      </trkpt>
      <trkpt lat="38.84305" lon="-9.11372833">
        <ele>-5.0</ele>
        <time>2019-05-16T10:30:28.916Z</time>
      </trkpt>
      <trkpt lat="38.84307833" lon="-9.11375667">
        <ele>-5.0</ele>
        <time>2019-05-16T10:30:29.916Z</time>
      </trkpt>
      <trkpt lat="38.84310833" lon="-9.11378333">
        <ele>-5.0</ele>
        <time>2019-05-16T10:30:30.897Z</time>
      </trkpt>
      <trkpt lat="38.84310833" lon="-9.11378333">
        <ele>-5.0</ele>
        <time>2019-05-16T10:30:31.931Z</time>
      </trkpt>
      <trkpt lat="38.84316333" lon="-9.11383167">
        <ele>-6.0</ele>
        <time>2019-05-16T10:30:32.903Z</time>
      </trkpt>
      <trkpt lat="38.84316333" lon="-9.11383167">
        <ele>-6.0</ele>
        <time>2019-05-16T10:30:33.911Z</time>
      </trkpt>
      <trkpt lat="38.84322" lon="-9.11387833">
        <ele>-5.0</ele>
        <time>2019-05-16T10:30:34.918Z</time>
      </trkpt>
      <trkpt lat="38.84322" lon="-9.11387833">
        <ele>-5.0</ele>
        <time>2019-05-16T10:30:35.911Z</time>
      </trkpt>
      <trkpt lat="38.843275" lon="-9.11392333">
        <ele>-5.0</ele>
        <time>2019-05-16T10:30:36.927Z</time>
      </trkpt>
      <trkpt lat="38.84330167" lon="-9.11394667">
        <ele>-5.0</ele>
        <time>2019-05-16T10:30:37.919Z</time>
      </trkpt>
      <trkpt lat="38.84330167" lon="-9.11394667">
        <ele>-5.0</ele>
        <time>2019-05-16T10:30:38.917Z</time>
      </trkpt>
      <trkpt lat="38.84335833" lon="-9.113995">
        <ele>-5.0</ele>
        <time>2019-05-16T10:30:39.914Z</time>
      </trkpt>
      <trkpt lat="38.84335833" lon="-9.113995">
        <ele>-5.0</ele>
        <time>2019-05-16T10:30:40.903Z</time>
      </trkpt>
      <trkpt lat="38.84341333" lon="-9.11404333">
        <ele>-5.0</ele>
        <time>2019-05-16T10:30:41.911Z</time>
      </trkpt>
      <trkpt lat="38.84341333" lon="-9.11404333">
        <ele>-5.0</ele>
        <time>2019-05-16T10:30:42.930Z</time>
      </trkpt>
      <trkpt lat="38.84346833" lon="-9.114095">
        <ele>-5.0</ele>
        <time>2019-05-16T10:30:43.901Z</time>
      </trkpt>
      <trkpt lat="38.84346833" lon="-9.114095">
        <ele>-5.0</ele>
        <time>2019-05-16T10:30:44.930Z</time>
      </trkpt>
      <trkpt lat="38.84352333" lon="-9.11413667">
        <ele>-5.0</ele>
        <time>2019-05-16T10:30:45.897Z</time>
      </trkpt>
      <trkpt lat="38.84352333" lon="-9.11413667">
        <ele>-5.0</ele>
        <time>2019-05-16T10:30:46.904Z</time>
      </trkpt>
      <trkpt lat="38.84357667" lon="-9.114185">
        <ele>-5.0</ele>
        <time>2019-05-16T10:30:47.917Z</time>
      </trkpt>
      <trkpt lat="38.84360333" lon="-9.11421">
        <ele>-5.0</ele>
        <time>2019-05-16T10:30:48.929Z</time>
      </trkpt>
      <trkpt lat="38.84360333" lon="-9.11421">
        <ele>-5.0</ele>
        <time>2019-05-16T10:30:49.916Z</time>
      </trkpt>
      <trkpt lat="38.84365667" lon="-9.11425833">
        <ele>-5.0</ele>
        <time>2019-05-16T10:30:50.926Z</time>
      </trkpt>
      <trkpt lat="38.84365667" lon="-9.11425833">
        <ele>-5.0</ele>
        <time>2019-05-16T10:30:51.915Z</time>
      </trkpt>
      <trkpt lat="38.84371167" lon="-9.1143">
        <ele>-5.0</ele>
        <time>2019-05-16T10:30:52.930Z</time>
      </trkpt>
      <trkpt lat="38.84374" lon="-9.11431833">
        <ele>-5.0</ele>
        <time>2019-05-16T10:30:53.899Z</time>
      </trkpt>
      <trkpt lat="38.84374" lon="-9.11431833">
        <ele>-5.0</ele>
        <time>2019-05-16T10:30:54.929Z</time>
      </trkpt>
      <trkpt lat="38.84380167" lon="-9.11434667">
        <ele>-4.0</ele>
        <time>2019-05-16T10:30:55.937Z</time>
      </trkpt>
      <trkpt lat="38.84380167" lon="-9.11434667">
        <ele>-4.0</ele>
        <time>2019-05-16T10:30:56.927Z</time>
      </trkpt>
      <trkpt lat="38.84386667" lon="-9.11436667">
        <ele>-4.0</ele>
        <time>2019-05-16T10:30:57.906Z</time>
      </trkpt>
      <trkpt lat="38.84386667" lon="-9.11436667">
        <ele>-4.0</ele>
        <time>2019-05-16T10:30:58.929Z</time>
      </trkpt>
      <trkpt lat="38.84392333" lon="-9.11437167">
        <ele>-4.0</ele>
        <time>2019-05-16T10:30:59.900Z</time>
      </trkpt>
      <trkpt lat="38.84395167" lon="-9.11437">
        <ele>-4.0</ele>
        <time>2019-05-16T10:31:00.925Z</time>
      </trkpt>
      <trkpt lat="38.84395167" lon="-9.11437">
        <ele>-4.0</ele>
        <time>2019-05-16T10:31:01.925Z</time>
      </trkpt>
      <trkpt lat="38.844" lon="-9.11436167">
        <ele>-4.0</ele>
        <time>2019-05-16T10:31:02.932Z</time>
      </trkpt>
      <trkpt lat="38.844" lon="-9.11436167">
        <ele>-4.0</ele>
        <time>2019-05-16T10:31:03.901Z</time>
      </trkpt>
      <trkpt lat="38.84404333" lon="-9.11433667">
        <ele>-3.0</ele>
        <time>2019-05-16T10:31:04.908Z</time>
      </trkpt>
      <trkpt lat="38.84404333" lon="-9.11433667">
        <ele>-3.0</ele>
        <time>2019-05-16T10:31:05.907Z</time>
      </trkpt>
      <trkpt lat="38.844095" lon="-9.11431167">
        <ele>-3.0</ele>
        <time>2019-05-16T10:31:06.927Z</time>
      </trkpt>
      <trkpt lat="38.844095" lon="-9.11431167">
        <ele>-3.0</ele>
        <time>2019-05-16T10:31:07.918Z</time>
      </trkpt>
      <trkpt lat="38.84414167" lon="-9.11427">
        <ele>-3.0</ele>
        <time>2019-05-16T10:31:08.932Z</time>
      </trkpt>
      <trkpt lat="38.84414167" lon="-9.11427">
        <ele>-3.0</ele>
        <time>2019-05-16T10:31:09.924Z</time>
      </trkpt>
      <trkpt lat="38.84418667" lon="-9.11422833">
        <ele>-3.0</ele>
        <time>2019-05-16T10:31:10.897Z</time>
      </trkpt>
      <trkpt lat="38.84418667" lon="-9.11422833">
        <ele>-3.0</ele>
        <time>2019-05-16T10:31:11.897Z</time>
      </trkpt>
      <trkpt lat="38.84423667" lon="-9.11419">
        <ele>-3.0</ele>
        <time>2019-05-16T10:31:12.907Z</time>
      </trkpt>
      <trkpt lat="38.84423667" lon="-9.11419">
        <ele>-3.0</ele>
        <time>2019-05-16T10:31:13.898Z</time>
      </trkpt>
      <trkpt lat="38.84429167" lon="-9.11414833">
        <ele>-3.0</ele>
        <time>2019-05-16T10:31:14.924Z</time>
      </trkpt>
      <trkpt lat="38.84429167" lon="-9.11414833">
        <ele>-3.0</ele>
        <time>2019-05-16T10:31:15.926Z</time>
      </trkpt>
      <trkpt lat="38.84435" lon="-9.114105">
        <ele>-3.0</ele>
        <time>2019-05-16T10:31:16.903Z</time>
      </trkpt>
      <trkpt lat="38.84438" lon="-9.11408">
        <ele>-3.0</ele>
        <time>2019-05-16T10:31:17.930Z</time>
      </trkpt>
      <trkpt lat="38.84440833" lon="-9.11405333">
        <ele>-3.0</ele>
        <time>2019-05-16T10:31:18.940Z</time>
      </trkpt>
      <trkpt lat="38.84440833" lon="-9.11405333">
        <ele>-3.0</ele>
        <time>2019-05-16T10:31:19.924Z</time>
      </trkpt>
      <trkpt lat="38.84447167" lon="-9.11400667">
        <ele>-3.0</ele>
        <time>2019-05-16T10:31:20.909Z</time>
      </trkpt>
      <trkpt lat="38.84447167" lon="-9.11400667">
        <ele>-3.0</ele>
        <time>2019-05-16T10:31:21.925Z</time>
      </trkpt>
      <trkpt lat="38.844535" lon="-9.11396167">
        <ele>-3.0</ele>
        <time>2019-05-16T10:31:22.935Z</time>
      </trkpt>
      <trkpt lat="38.844535" lon="-9.11396167">
        <ele>-3.0</ele>
        <time>2019-05-16T10:31:23.936Z</time>
      </trkpt>
      <trkpt lat="38.844595" lon="-9.113915">
        <ele>-3.0</ele>
        <time>2019-05-16T10:31:24.908Z</time>
      </trkpt>
      <trkpt lat="38.844595" lon="-9.113915">
        <ele>-3.0</ele>
        <time>2019-05-16T10:31:25.928Z</time>
      </trkpt>
      <trkpt lat="38.84465833" lon="-9.11387833">
        <ele>-3.0</ele>
        <time>2019-05-16T10:31:26.936Z</time>
      </trkpt>
      <trkpt lat="38.84465833" lon="-9.11387833">
        <ele>-3.0</ele>
        <time>2019-05-16T10:31:27.912Z</time>
      </trkpt>
      <trkpt lat="38.844725" lon="-9.11384333">
        <ele>-3.0</ele>
        <time>2019-05-16T10:31:28.922Z</time>
      </trkpt>
      <trkpt lat="38.844725" lon="-9.11384333">
        <ele>-3.0</ele>
        <time>2019-05-16T10:31:29.931Z</time>
      </trkpt>
      <trkpt lat="38.84478833" lon="-9.11381167">
        <ele>-3.0</ele>
        <time>2019-05-16T10:31:30.898Z</time>
      </trkpt>
      <trkpt lat="38.84478833" lon="-9.11381167">
        <ele>-3.0</ele>
        <time>2019-05-16T10:31:31.897Z</time>
      </trkpt>
      <trkpt lat="38.844845" lon="-9.11378667">
        <ele>-4.0</ele>
        <time>2019-05-16T10:31:32.909Z</time>
      </trkpt>
      <trkpt lat="38.844845" lon="-9.11378667">
        <ele>-4.0</ele>
        <time>2019-05-16T10:31:33.917Z</time>
      </trkpt>
      <trkpt lat="38.84489333" lon="-9.11376333">
        <ele>-4.0</ele>
        <time>2019-05-16T10:31:34.931Z</time>
      </trkpt>
      <trkpt lat="38.84489333" lon="-9.11376333">
        <ele>-4.0</ele>
        <time>2019-05-16T10:31:35.931Z</time>
      </trkpt>
      <trkpt lat="38.84494" lon="-9.11373833">
        <ele>-4.0</ele>
        <time>2019-05-16T10:31:36.899Z</time>
      </trkpt>
      <trkpt lat="38.84494" lon="-9.11373833">
        <ele>-4.0</ele>
        <time>2019-05-16T10:31:37.908Z</time>
      </trkpt>
      <trkpt lat="38.84499" lon="-9.113705">
        <ele>-4.0</ele>
        <time>2019-05-16T10:31:38.917Z</time>
      </trkpt>
      <trkpt lat="38.84499" lon="-9.113705">
        <ele>-4.0</ele>
        <time>2019-05-16T10:31:39.903Z</time>
      </trkpt>
      <trkpt lat="38.84504167" lon="-9.11367">
        <ele>-4.0</ele>
        <time>2019-05-16T10:31:40.910Z</time>
      </trkpt>
      <trkpt lat="38.84504167" lon="-9.11367">
        <ele>-4.0</ele>
        <time>2019-05-16T10:31:41.910Z</time>
      </trkpt>
      <trkpt lat="38.84509667" lon="-9.113635">
        <ele>-4.0</ele>
        <time>2019-05-16T10:31:42.931Z</time>
      </trkpt>
      <trkpt lat="38.84509667" lon="-9.113635">
        <ele>-4.0</ele>
        <time>2019-05-16T10:31:43.931Z</time>
      </trkpt>
      <trkpt lat="38.84515" lon="-9.11359667">
        <ele>-4.0</ele>
        <time>2019-05-16T10:31:44.904Z</time>
      </trkpt>
      <trkpt lat="38.84515" lon="-9.11359667">
        <ele>-4.0</ele>
        <time>2019-05-16T10:31:45.898Z</time>
      </trkpt>
      <trkpt lat="38.845205" lon="-9.11355667">
        <ele>-4.0</ele>
        <time>2019-05-16T10:31:46.933Z</time>
      </trkpt>
      <trkpt lat="38.845205" lon="-9.11355667">
        <ele>-4.0</ele>
        <time>2019-05-16T10:31:47.901Z</time>
      </trkpt>
      <trkpt lat="38.84526" lon="-9.11351333">
        <ele>-4.0</ele>
        <time>2019-05-16T10:31:48.920Z</time>
      </trkpt>
      <trkpt lat="38.84526" lon="-9.11351333">
        <ele>-4.0</ele>
        <time>2019-05-16T10:31:49.925Z</time>
      </trkpt>
      <trkpt lat="38.84532167" lon="-9.11348167">
        <ele>-4.0</ele>
        <time>2019-05-16T10:31:50.932Z</time>
      </trkpt>
      <trkpt lat="38.84532167" lon="-9.11348167">
        <ele>-4.0</ele>
        <time>2019-05-16T10:31:51.903Z</time>
      </trkpt>
      <trkpt lat="38.84538" lon="-9.11344833">
        <ele>-4.0</ele>
        <time>2019-05-16T10:31:52.915Z</time>
      </trkpt>
      <trkpt lat="38.84538" lon="-9.11344833">
        <ele>-4.0</ele>
        <time>2019-05-16T10:31:53.930Z</time>
      </trkpt>
      <trkpt lat="38.84543667" lon="-9.11342">
        <ele>-4.0</ele>
        <time>2019-05-16T10:31:54.909Z</time>
      </trkpt>
      <trkpt lat="38.84543667" lon="-9.11342">
        <ele>-4.0</ele>
        <time>2019-05-16T10:31:55.900Z</time>
      </trkpt>
      <trkpt lat="38.84548833" lon="-9.11339167">
        <ele>-4.0</ele>
        <time>2019-05-16T10:31:56.909Z</time>
      </trkpt>
      <trkpt lat="38.84548833" lon="-9.11339167">
        <ele>-4.0</ele>
        <time>2019-05-16T10:31:57.901Z</time>
      </trkpt>
      <trkpt lat="38.845535" lon="-9.113365">
        <ele>-4.0</ele>
        <time>2019-05-16T10:31:58.910Z</time>
      </trkpt>
      <trkpt lat="38.845535" lon="-9.113365">
        <ele>-4.0</ele>
        <time>2019-05-16T10:31:59.932Z</time>
      </trkpt>
      <trkpt lat="38.8456" lon="-9.11333667">
        <ele>-4.0</ele>
        <time>2019-05-16T10:32:00.900Z</time>
      </trkpt>
      <trkpt lat="38.8456" lon="-9.11333667">
        <ele>-4.0</ele>
        <time>2019-05-16T10:32:01.907Z</time>
      </trkpt>
      <trkpt lat="38.84565333" lon="-9.11329833">
        <ele>-4.0</ele>
        <time>2019-05-16T10:32:02.918Z</time>
      </trkpt>
      <trkpt lat="38.84565333" lon="-9.11329833">
        <ele>-4.0</ele>
        <time>2019-05-16T10:32:03.915Z</time>
      </trkpt>
      <trkpt lat="38.8457" lon="-9.11325167">
        <ele>-3.0</ele>
        <time>2019-05-16T10:32:04.926Z</time>
      </trkpt>
      <trkpt lat="38.8457" lon="-9.11325167">
        <ele>-3.0</ele>
        <time>2019-05-16T10:32:05.925Z</time>
      </trkpt>
      <trkpt lat="38.845745" lon="-9.11320667">
        <ele>-3.0</ele>
        <time>2019-05-16T10:32:06.897Z</time>
      </trkpt>
      <trkpt lat="38.845745" lon="-9.11320667">
        <ele>-3.0</ele>
        <time>2019-05-16T10:32:07.929Z</time>
      </trkpt>
      <trkpt lat="38.84578" lon="-9.11314667">
        <ele>-2.0</ele>
        <time>2019-05-16T10:32:08.900Z</time>
      </trkpt>
      <trkpt lat="38.84578" lon="-9.11314667">
        <ele>-2.0</ele>
        <time>2019-05-16T10:32:09.929Z</time>
      </trkpt>
      <trkpt lat="38.845825" lon="-9.11309667">
        <ele>-2.0</ele>
        <time>2019-05-16T10:32:10.940Z</time>
      </trkpt>
      <trkpt lat="38.845825" lon="-9.11309667">
        <ele>-2.0</ele>
        <time>2019-05-16T10:32:11.904Z</time>
      </trkpt>
      <trkpt lat="38.84586833" lon="-9.113045">
        <ele>-1.0</ele>
        <time>2019-05-16T10:32:12.911Z</time>
      </trkpt>
      <trkpt lat="38.84586833" lon="-9.113045">
        <ele>-1.0</ele>
        <time>2019-05-16T10:32:13.910Z</time>
      </trkpt>
      <trkpt lat="38.84591167" lon="-9.11299333">
        <ele>-1.0</ele>
        <time>2019-05-16T10:32:14.921Z</time>
      </trkpt>
      <trkpt lat="38.84591167" lon="-9.11299333">
        <ele>-1.0</ele>
        <time>2019-05-16T10:32:15.901Z</time>
      </trkpt>
      <trkpt lat="38.84594833" lon="-9.11293167">
        <ele>-1.0</ele>
        <time>2019-05-16T10:32:16.911Z</time>
      </trkpt>
      <trkpt lat="38.84594833" lon="-9.11293167">
        <ele>-1.0</ele>
        <time>2019-05-16T10:32:17.911Z</time>
      </trkpt>
      <trkpt lat="38.84596667" lon="-9.11287">
        <ele>-1.0</ele>
        <time>2019-05-16T10:32:18.918Z</time>
      </trkpt>
      <trkpt lat="38.84596667" lon="-9.11287">
        <ele>-1.0</ele>
        <time>2019-05-16T10:32:19.905Z</time>
      </trkpt>
      <trkpt lat="38.84597667" lon="-9.11281667">
        <ele>-1.0</ele>
        <time>2019-05-16T10:32:20.931Z</time>
      </trkpt>
      <trkpt lat="38.845975" lon="-9.11279167">
        <ele>-1.0</ele>
        <time>2019-05-16T10:32:21.904Z</time>
      </trkpt>
      <trkpt lat="38.845975" lon="-9.11279167">
        <ele>-1.0</ele>
        <time>2019-05-16T10:32:22.904Z</time>
      </trkpt>
      <trkpt lat="38.84596" lon="-9.11274833">
        <ele>0.0</ele>
        <time>2019-05-16T10:32:23.923Z</time>
      </trkpt>
      <trkpt lat="38.84595333" lon="-9.11272667">
        <ele>0.0</ele>
        <time>2019-05-16T10:32:24.920Z</time>
      </trkpt>
      <trkpt lat="38.84595333" lon="-9.11272667">
        <ele>0.0</ele>
        <time>2019-05-16T10:32:25.912Z</time>
      </trkpt>
      <trkpt lat="38.84596" lon="-9.11268167">
        <ele>1.0</ele>
        <time>2019-05-16T10:32:26.922Z</time>
      </trkpt>
      <trkpt lat="38.84596" lon="-9.11268167">
        <ele>1.0</ele>
        <time>2019-05-16T10:32:27.908Z</time>
      </trkpt>
      <trkpt lat="38.84598" lon="-9.112645">
        <ele>1.0</ele>
        <time>2019-05-16T10:32:28.902Z</time>
      </trkpt>
      <trkpt lat="38.84598" lon="-9.112645">
        <ele>1.0</ele>
        <time>2019-05-16T10:32:29.929Z</time>
      </trkpt>
      <trkpt lat="38.84601" lon="-9.11261667">
        <ele>2.0</ele>
        <time>2019-05-16T10:32:30.899Z</time>
      </trkpt>
      <trkpt lat="38.84601" lon="-9.11261667">
        <ele>2.0</ele>
        <time>2019-05-16T10:32:31.932Z</time>
      </trkpt>
      <trkpt lat="38.84603833" lon="-9.11258667">
        <ele>2.0</ele>
        <time>2019-05-16T10:32:32.908Z</time>
      </trkpt>
      <trkpt lat="38.84603833" lon="-9.11258667">
        <ele>2.0</ele>
        <time>2019-05-16T10:32:33.914Z</time>
      </trkpt>
      <trkpt lat="38.84606667" lon="-9.11255167">
        <ele>2.0</ele>
        <time>2019-05-16T10:32:34.927Z</time>
      </trkpt>
      <trkpt lat="38.84606667" lon="-9.11255167">
        <ele>2.0</ele>
        <time>2019-05-16T10:32:35.932Z</time>
      </trkpt>
      <trkpt lat="38.84609" lon="-9.11253">
        <ele>2.0</ele>
        <time>2019-05-16T10:32:36.901Z</time>
      </trkpt>
      <trkpt lat="38.84609" lon="-9.11253">
        <ele>2.0</ele>
        <time>2019-05-16T10:32:37.928Z</time>
      </trkpt>
      <trkpt lat="38.84609" lon="-9.11252833">
        <ele>2.0</ele>
        <time>2019-05-16T10:32:38.900Z</time>
      </trkpt>
      <trkpt lat="38.84609" lon="-9.11252833">
        <ele>2.0</ele>
        <time>2019-05-16T10:32:39.913Z</time>
      </trkpt>
      <trkpt lat="38.84608833" lon="-9.11252833">
        <ele>2.0</ele>
        <time>2019-05-16T10:32:40.906Z</time>
      </trkpt>
      <trkpt lat="38.84608833" lon="-9.11252833">
        <ele>2.0</ele>
        <time>2019-05-16T10:32:41.927Z</time>
      </trkpt>
      <trkpt lat="38.84608833" lon="-9.11252833">
        <ele>2.0</ele>
        <time>2019-05-16T10:32:42.933Z</time>
      </trkpt>
      <trkpt lat="38.84608833" lon="-9.11252833">
        <ele>2.0</ele>
        <time>2019-05-16T10:32:43.899Z</time>
      </trkpt>
      <trkpt lat="38.84608833" lon="-9.11252833">
        <ele>2.0</ele>
        <time>2019-05-16T10:32:44.905Z</time>
      </trkpt>
      <trkpt lat="38.84608833" lon="-9.11252833">
        <ele>2.0</ele>
        <time>2019-05-16T10:32:45.911Z</time>
      </trkpt>
      <trkpt lat="38.84608833" lon="-9.11252833">
        <ele>2.0</ele>
        <time>2019-05-16T10:32:46.917Z</time>
      </trkpt>
      <trkpt lat="38.84608833" lon="-9.11252833">
        <ele>2.0</ele>
        <time>2019-05-16T10:32:47.924Z</time>
      </trkpt>
      <trkpt lat="38.84608833" lon="-9.11252833">
        <ele>2.0</ele>
        <time>2019-05-16T10:32:48.909Z</time>
      </trkpt>
      <trkpt lat="38.84608833" lon="-9.11252833">
        <ele>2.0</ele>
        <time>2019-05-16T10:32:49.898Z</time>
      </trkpt>
      <trkpt lat="38.84608833" lon="-9.11252833">
        <ele>2.0</ele>
        <time>2019-05-16T10:32:50.934Z</time>
      </trkpt>
      <trkpt lat="38.84608833" lon="-9.11252833">
        <ele>2.0</ele>
        <time>2019-05-16T10:32:51.897Z</time>
      </trkpt>
      <trkpt lat="38.84608833" lon="-9.11252833">
        <ele>2.0</ele>
        <time>2019-05-16T10:32:52.931Z</time>
      </trkpt>
      <trkpt lat="38.84608833" lon="-9.11252833">
        <ele>2.0</ele>
        <time>2019-05-16T10:32:53.898Z</time>
      </trkpt>
      <trkpt lat="38.84608833" lon="-9.11252833">
        <ele>2.0</ele>
        <time>2019-05-16T10:32:54.935Z</time>
      </trkpt>
      <trkpt lat="38.84608833" lon="-9.11252833">
        <ele>2.0</ele>
        <time>2019-05-16T10:32:55.899Z</time>
      </trkpt>
      <trkpt lat="38.84608833" lon="-9.11252833">
        <ele>2.0</ele>
        <time>2019-05-16T10:32:56.934Z</time>
      </trkpt>
      <trkpt lat="38.84608833" lon="-9.11252833">
        <ele>2.0</ele>
        <time>2019-05-16T10:32:57.899Z</time>
      </trkpt>
      <trkpt lat="38.84608833" lon="-9.11252833">
        <ele>2.0</ele>
        <time>2019-05-16T10:32:58.936Z</time>
      </trkpt>
      <trkpt lat="38.84608833" lon="-9.11252833">
        <ele>2.0</ele>
        <time>2019-05-16T10:32:59.899Z</time>
      </trkpt>
      <trkpt lat="38.84608833" lon="-9.11252833">
        <ele>2.0</ele>
        <time>2019-05-16T10:33:00.899Z</time>
      </trkpt>
      <trkpt lat="38.84608833" lon="-9.11252833">
        <ele>2.0</ele>
        <time>2019-05-16T10:33:01.900Z</time>
      </trkpt>
      <trkpt lat="38.84608833" lon="-9.11252833">
        <ele>2.0</ele>
        <time>2019-05-16T10:33:02.897Z</time>
      </trkpt>
      <trkpt lat="38.84608833" lon="-9.11252833">
        <ele>2.0</ele>
        <time>2019-05-16T10:33:03.935Z</time>
      </trkpt>
      <trkpt lat="38.84608833" lon="-9.11252833">
        <ele>2.0</ele>
        <time>2019-05-16T10:33:04.898Z</time>
      </trkpt>
      <trkpt lat="38.84608833" lon="-9.11252833">
        <ele>2.0</ele>
        <time>2019-05-16T10:33:05.933Z</time>
      </trkpt>
      <trkpt lat="38.84608833" lon="-9.11252833">
        <ele>2.0</ele>
        <time>2019-05-16T10:33:06.900Z</time>
      </trkpt>
      <trkpt lat="38.84608833" lon="-9.11252833">
        <ele>2.0</ele>
        <time>2019-05-16T10:33:07.917Z</time>
      </trkpt>
      <trkpt lat="38.84608833" lon="-9.11252833">
        <ele>2.0</ele>
        <time>2019-05-16T10:33:08.933Z</time>
      </trkpt>
      <trkpt lat="38.84608833" lon="-9.11252833">
        <ele>2.0</ele>
        <time>2019-05-16T10:33:09.898Z</time>
      </trkpt>
      <trkpt lat="38.84608833" lon="-9.11252833">
        <ele>2.0</ele>
        <time>2019-05-16T10:33:10.936Z</time>
      </trkpt>
      <trkpt lat="38.84608833" lon="-9.11252833">
        <ele>2.0</ele>
        <time>2019-05-16T10:33:11.897Z</time>
      </trkpt>
      <trkpt lat="38.84608833" lon="-9.11252833">
        <ele>2.0</ele>
        <time>2019-05-16T10:33:12.935Z</time>
      </trkpt>
      <trkpt lat="38.84608833" lon="-9.11252833">
        <ele>2.0</ele>
        <time>2019-05-16T10:33:13.898Z</time>
      </trkpt>
      <trkpt lat="38.84608833" lon="-9.11252833">
        <ele>2.0</ele>
        <time>2019-05-16T10:33:14.934Z</time>
      </trkpt>
      <trkpt lat="38.84608833" lon="-9.11252833">
        <ele>2.0</ele>
        <time>2019-05-16T10:33:15.898Z</time>
      </trkpt>
      <trkpt lat="38.84608833" lon="-9.11252833">
        <ele>2.0</ele>
        <time>2019-05-16T10:33:16.934Z</time>
      </trkpt>
      <trkpt lat="38.84608833" lon="-9.11252833">
        <ele>2.0</ele>
        <time>2019-05-16T10:33:17.899Z</time>
      </trkpt>
      <trkpt lat="38.84608833" lon="-9.11252833">
        <ele>2.0</ele>
        <time>2019-05-16T10:33:18.901Z</time>
      </trkpt>
      <trkpt lat="38.84608833" lon="-9.11252833">
        <ele>2.0</ele>
        <time>2019-05-16T10:33:19.900Z</time>
      </trkpt>
      <trkpt lat="38.84608833" lon="-9.11252833">
        <ele>2.0</ele>
        <time>2019-05-16T10:33:20.899Z</time>
      </trkpt>
      <trkpt lat="38.84608833" lon="-9.11252833">
        <ele>2.0</ele>
        <time>2019-05-16T10:33:21.898Z</time>
      </trkpt>
      <trkpt lat="38.84608833" lon="-9.11252833">
        <ele>2.0</ele>
        <time>2019-05-16T10:33:22.935Z</time>
      </trkpt>
      <trkpt lat="38.84608833" lon="-9.11252833">
        <ele>2.0</ele>
        <time>2019-05-16T10:33:23.899Z</time>
      </trkpt>
      <trkpt lat="38.84611" lon="-9.11251667">
        <ele>2.0</ele>
        <time>2019-05-16T10:33:24.899Z</time>
      </trkpt>
      <trkpt lat="38.84612667" lon="-9.1125">
        <ele>2.0</ele>
        <time>2019-05-16T10:33:25.899Z</time>
      </trkpt>
      <trkpt lat="38.84612667" lon="-9.1125">
        <ele>2.0</ele>
        <time>2019-05-16T10:33:26.934Z</time>
      </trkpt>
      <trkpt lat="38.84616833" lon="-9.11246">
        <ele>2.0</ele>
        <time>2019-05-16T10:33:27.899Z</time>
      </trkpt>
      <trkpt lat="38.84619333" lon="-9.11243833">
        <ele>2.0</ele>
        <time>2019-05-16T10:33:28.899Z</time>
      </trkpt>
      <trkpt lat="38.84621833" lon="-9.112415">
        <ele>2.0</ele>
        <time>2019-05-16T10:33:29.982Z</time>
      </trkpt>
      <trkpt lat="38.84621833" lon="-9.112415">
        <ele>2.0</ele>
        <time>2019-05-16T10:33:30.901Z</time>
      </trkpt>
      <trkpt lat="38.846265" lon="-9.11236667">
        <ele>2.0</ele>
        <time>2019-05-16T10:33:31.911Z</time>
      </trkpt>
      <trkpt lat="38.84628667" lon="-9.11233833">
        <ele>2.0</ele>
        <time>2019-05-16T10:33:32.922Z</time>
      </trkpt>
      <trkpt lat="38.84628667" lon="-9.11233833">
        <ele>2.0</ele>
        <time>2019-05-16T10:33:33.928Z</time>
      </trkpt>
      <trkpt lat="38.84633333" lon="-9.11228667">
        <ele>2.0</ele>
        <time>2019-05-16T10:33:34.937Z</time>
      </trkpt>
      <trkpt lat="38.84633333" lon="-9.11228667">
        <ele>2.0</ele>
        <time>2019-05-16T10:33:35.914Z</time>
      </trkpt>
      <trkpt lat="38.84638833" lon="-9.11223667">
        <ele>2.0</ele>
        <time>2019-05-16T10:33:36.922Z</time>
      </trkpt>
      <trkpt lat="38.84638833" lon="-9.11223667">
        <ele>2.0</ele>
        <time>2019-05-16T10:33:37.908Z</time>
      </trkpt>
      <trkpt lat="38.84644333" lon="-9.11218833">
        <ele>2.0</ele>
        <time>2019-05-16T10:33:38.917Z</time>
      </trkpt>
      <trkpt lat="38.84644333" lon="-9.11218833">
        <ele>2.0</ele>
        <time>2019-05-16T10:33:39.903Z</time>
      </trkpt>
      <trkpt lat="38.8465" lon="-9.11213833">
        <ele>2.0</ele>
        <time>2019-05-16T10:33:40.912Z</time>
      </trkpt>
      <trkpt lat="38.8465" lon="-9.11213833">
        <ele>2.0</ele>
        <time>2019-05-16T10:33:41.912Z</time>
      </trkpt>
      <trkpt lat="38.846555" lon="-9.11208">
        <ele>2.0</ele>
        <time>2019-05-16T10:33:42.932Z</time>
      </trkpt>
      <trkpt lat="38.846555" lon="-9.11208">
        <ele>2.0</ele>
        <time>2019-05-16T10:33:43.913Z</time>
      </trkpt>
      <trkpt lat="38.846615" lon="-9.11202833">
        <ele>2.0</ele>
        <time>2019-05-16T10:33:44.921Z</time>
      </trkpt>
      <trkpt lat="38.846615" lon="-9.11202833">
        <ele>2.0</ele>
        <time>2019-05-16T10:33:45.900Z</time>
      </trkpt>
      <trkpt lat="38.84667333" lon="-9.11197667">
        <ele>2.0</ele>
        <time>2019-05-16T10:33:46.920Z</time>
      </trkpt>
      <trkpt lat="38.846705" lon="-9.11195333">
        <ele>2.0</ele>
        <time>2019-05-16T10:33:47.911Z</time>
      </trkpt>
      <trkpt lat="38.846735" lon="-9.11193">
        <ele>2.0</ele>
        <time>2019-05-16T10:33:48.939Z</time>
      </trkpt>
      <trkpt lat="38.846735" lon="-9.11193">
        <ele>2.0</ele>
        <time>2019-05-16T10:33:49.932Z</time>
      </trkpt>
      <trkpt lat="38.846795" lon="-9.11188167">
        <ele>1.0</ele>
        <time>2019-05-16T10:33:50.901Z</time>
      </trkpt>
      <trkpt lat="38.846795" lon="-9.11188167">
        <ele>1.0</ele>
        <time>2019-05-16T10:33:51.926Z</time>
      </trkpt>
      <trkpt lat="38.84686" lon="-9.111835">
        <ele>1.0</ele>
        <time>2019-05-16T10:33:52.905Z</time>
      </trkpt>
      <trkpt lat="38.84686" lon="-9.111835">
        <ele>1.0</ele>
        <time>2019-05-16T10:33:53.904Z</time>
      </trkpt>
      <trkpt lat="38.84692833" lon="-9.11178667">
        <ele>1.0</ele>
        <time>2019-05-16T10:33:54.916Z</time>
      </trkpt>
      <trkpt lat="38.84692833" lon="-9.11178667">
        <ele>1.0</ele>
        <time>2019-05-16T10:33:55.901Z</time>
      </trkpt>
      <trkpt lat="38.84699333" lon="-9.11174333">
        <ele>1.0</ele>
        <time>2019-05-16T10:33:56.911Z</time>
      </trkpt>
      <trkpt lat="38.847025" lon="-9.11172333">
        <ele>1.0</ele>
        <time>2019-05-16T10:33:57.906Z</time>
      </trkpt>
      <trkpt lat="38.847025" lon="-9.11172333">
        <ele>1.0</ele>
        <time>2019-05-16T10:33:58.901Z</time>
      </trkpt>
      <trkpt lat="38.84709167" lon="-9.111685">
        <ele>1.0</ele>
        <time>2019-05-16T10:33:59.910Z</time>
      </trkpt>
      <trkpt lat="38.847125" lon="-9.11166667">
        <ele>1.0</ele>
        <time>2019-05-16T10:34:00.915Z</time>
      </trkpt>
      <trkpt lat="38.847125" lon="-9.11166667">
        <ele>1.0</ele>
        <time>2019-05-16T10:34:01.897Z</time>
      </trkpt>
      <trkpt lat="38.84718833" lon="-9.11162833">
        <ele>1.0</ele>
        <time>2019-05-16T10:34:02.934Z</time>
      </trkpt>
      <trkpt lat="38.84718833" lon="-9.11162833">
        <ele>1.0</ele>
        <time>2019-05-16T10:34:03.930Z</time>
      </trkpt>
      <trkpt lat="38.84725333" lon="-9.11159167">
        <ele>1.0</ele>
        <time>2019-05-16T10:34:04.897Z</time>
      </trkpt>
      <trkpt lat="38.84728667" lon="-9.11157833">
        <ele>1.0</ele>
        <time>2019-05-16T10:34:05.911Z</time>
      </trkpt>
      <trkpt lat="38.84732167" lon="-9.111565">
        <ele>1.0</ele>
        <time>2019-05-16T10:34:06.913Z</time>
      </trkpt>
      <trkpt lat="38.84732167" lon="-9.111565">
        <ele>1.0</ele>
        <time>2019-05-16T10:34:07.904Z</time>
      </trkpt>
      <trkpt lat="38.84738333" lon="-9.11153667">
        <ele>1.0</ele>
        <time>2019-05-16T10:34:08.913Z</time>
      </trkpt>
      <trkpt lat="38.84741667" lon="-9.111525">
        <ele>1.0</ele>
        <time>2019-05-16T10:34:09.921Z</time>
      </trkpt>
      <trkpt lat="38.84741667" lon="-9.111525">
        <ele>1.0</ele>
        <time>2019-05-16T10:34:10.914Z</time>
      </trkpt>
      <trkpt lat="38.84748" lon="-9.1115">
        <ele>1.0</ele>
        <time>2019-05-16T10:34:11.922Z</time>
      </trkpt>
      <trkpt lat="38.84751167" lon="-9.11148667">
        <ele>1.0</ele>
        <time>2019-05-16T10:34:12.929Z</time>
      </trkpt>
      <trkpt lat="38.84751167" lon="-9.11148667">
        <ele>1.0</ele>
        <time>2019-05-16T10:34:13.922Z</time>
      </trkpt>
      <trkpt lat="38.84757667" lon="-9.11145833">
        <ele>1.0</ele>
        <time>2019-05-16T10:34:14.933Z</time>
      </trkpt>
      <trkpt lat="38.84757667" lon="-9.11145833">
        <ele>1.0</ele>
        <time>2019-05-16T10:34:15.926Z</time>
      </trkpt>
      <trkpt lat="38.847645" lon="-9.11143167">
        <ele>0.0</ele>
        <time>2019-05-16T10:34:16.900Z</time>
      </trkpt>
      <trkpt lat="38.847645" lon="-9.11143167">
        <ele>0.0</ele>
        <time>2019-05-16T10:34:17.918Z</time>
      </trkpt>
      <trkpt lat="38.84771167" lon="-9.11140333">
        <ele>0.0</ele>
        <time>2019-05-16T10:34:18.909Z</time>
      </trkpt>
      <trkpt lat="38.84771167" lon="-9.11140333">
        <ele>0.0</ele>
        <time>2019-05-16T10:34:19.908Z</time>
      </trkpt>
      <trkpt lat="38.847775" lon="-9.11137667">
        <ele>0.0</ele>
        <time>2019-05-16T10:34:20.931Z</time>
      </trkpt>
      <trkpt lat="38.847775" lon="-9.11137667">
        <ele>0.0</ele>
        <time>2019-05-16T10:34:21.907Z</time>
      </trkpt>
      <trkpt lat="38.847835" lon="-9.11135">
        <ele>0.0</ele>
        <time>2019-05-16T10:34:22.915Z</time>
      </trkpt>
      <trkpt lat="38.847835" lon="-9.11135">
        <ele>0.0</ele>
        <time>2019-05-16T10:34:23.909Z</time>
      </trkpt>
      <trkpt lat="38.84789667" lon="-9.11132667">
        <ele>0.0</ele>
        <time>2019-05-16T10:34:24.919Z</time>
      </trkpt>
      <trkpt lat="38.84789667" lon="-9.11132667">
        <ele>0.0</ele>
        <time>2019-05-16T10:34:25.898Z</time>
      </trkpt>
      <trkpt lat="38.84795833" lon="-9.1113">
        <ele>0.0</ele>
        <time>2019-05-16T10:34:26.907Z</time>
      </trkpt>
      <trkpt lat="38.84795833" lon="-9.1113">
        <ele>0.0</ele>
        <time>2019-05-16T10:34:27.898Z</time>
      </trkpt>
      <trkpt lat="38.84802" lon="-9.11127333">
        <ele>0.0</ele>
        <time>2019-05-16T10:34:28.930Z</time>
      </trkpt>
      <trkpt lat="38.84804833" lon="-9.11126167">
        <ele>0.0</ele>
        <time>2019-05-16T10:34:29.916Z</time>
      </trkpt>
      <trkpt lat="38.84807833" lon="-9.11125167">
        <ele>0.0</ele>
        <time>2019-05-16T10:34:30.916Z</time>
      </trkpt>
      <trkpt lat="38.84807833" lon="-9.11125167">
        <ele>0.0</ele>
        <time>2019-05-16T10:34:31.922Z</time>
      </trkpt>
      <trkpt lat="38.84813667" lon="-9.11122833">
        <ele>0.0</ele>
        <time>2019-05-16T10:34:32.931Z</time>
      </trkpt>
      <trkpt lat="38.84813667" lon="-9.11122833">
        <ele>0.0</ele>
        <time>2019-05-16T10:34:33.928Z</time>
      </trkpt>
      <trkpt lat="38.84819167" lon="-9.11120833">
        <ele>0.0</ele>
        <time>2019-05-16T10:34:34.897Z</time>
      </trkpt>
      <trkpt lat="38.84822" lon="-9.11119833">
        <ele>0.0</ele>
        <time>2019-05-16T10:34:35.917Z</time>
      </trkpt>
      <trkpt lat="38.84824833" lon="-9.11118833">
        <ele>0.0</ele>
        <time>2019-05-16T10:34:36.914Z</time>
      </trkpt>
      <trkpt lat="38.84824833" lon="-9.11118833">
        <ele>0.0</ele>
        <time>2019-05-16T10:34:37.935Z</time>
      </trkpt>
      <trkpt lat="38.84830333" lon="-9.11117167">
        <ele>0.0</ele>
        <time>2019-05-16T10:34:38.905Z</time>
      </trkpt>
      <trkpt lat="38.84833167" lon="-9.11116167">
        <ele>0.0</ele>
        <time>2019-05-16T10:34:39.908Z</time>
      </trkpt>
      <trkpt lat="38.84833167" lon="-9.11116167">
        <ele>0.0</ele>
        <time>2019-05-16T10:34:40.912Z</time>
      </trkpt>
      <trkpt lat="38.848395" lon="-9.11114167">
        <ele>0.0</ele>
        <time>2019-05-16T10:34:41.919Z</time>
      </trkpt>
      <trkpt lat="38.84842667" lon="-9.11113167">
        <ele>0.0</ele>
        <time>2019-05-16T10:34:42.922Z</time>
      </trkpt>
      <trkpt lat="38.84842667" lon="-9.11113167">
        <ele>0.0</ele>
        <time>2019-05-16T10:34:43.917Z</time>
      </trkpt>
      <trkpt lat="38.848495" lon="-9.11110833">
        <ele>0.0</ele>
        <time>2019-05-16T10:34:44.931Z</time>
      </trkpt>
      <trkpt lat="38.848495" lon="-9.11110833">
        <ele>0.0</ele>
        <time>2019-05-16T10:34:45.926Z</time>
      </trkpt>
      <trkpt lat="38.848565" lon="-9.11107833">
        <ele>0.0</ele>
        <time>2019-05-16T10:34:46.902Z</time>
      </trkpt>
      <trkpt lat="38.848565" lon="-9.11107833">
        <ele>0.0</ele>
        <time>2019-05-16T10:34:47.934Z</time>
      </trkpt>
      <trkpt lat="38.848635" lon="-9.11105">
        <ele>-1.0</ele>
        <time>2019-05-16T10:34:48.902Z</time>
      </trkpt>
      <trkpt lat="38.848635" lon="-9.11105">
        <ele>-1.0</ele>
        <time>2019-05-16T10:34:49.930Z</time>
      </trkpt>
      <trkpt lat="38.848705" lon="-9.11101833">
        <ele>-1.0</ele>
        <time>2019-05-16T10:34:50.897Z</time>
      </trkpt>
      <trkpt lat="38.848705" lon="-9.11101833">
        <ele>-1.0</ele>
        <time>2019-05-16T10:34:51.904Z</time>
      </trkpt>
      <trkpt lat="38.848775" lon="-9.11098667">
        <ele>-1.0</ele>
        <time>2019-05-16T10:34:52.912Z</time>
      </trkpt>
      <trkpt lat="38.848775" lon="-9.11098667">
        <ele>-1.0</ele>
        <time>2019-05-16T10:34:53.906Z</time>
      </trkpt>
      <trkpt lat="38.84884667" lon="-9.110955">
        <ele>-1.0</ele>
        <time>2019-05-16T10:34:54.922Z</time>
      </trkpt>
      <trkpt lat="38.84884667" lon="-9.110955">
        <ele>-1.0</ele>
        <time>2019-05-16T10:34:55.928Z</time>
      </trkpt>
      <trkpt lat="38.84892167" lon="-9.11093">
        <ele>-1.0</ele>
        <time>2019-05-16T10:34:56.906Z</time>
      </trkpt>
      <trkpt lat="38.84892167" lon="-9.11093">
        <ele>-1.0</ele>
        <time>2019-05-16T10:34:57.910Z</time>
      </trkpt>
      <trkpt lat="38.848995" lon="-9.1109">
        <ele>-1.0</ele>
        <time>2019-05-16T10:34:58.924Z</time>
      </trkpt>
      <trkpt lat="38.848995" lon="-9.1109">
        <ele>-1.0</ele>
        <time>2019-05-16T10:34:59.908Z</time>
      </trkpt>
      <trkpt lat="38.84906667" lon="-9.11087333">
        <ele>-1.0</ele>
        <time>2019-05-16T10:35:00.918Z</time>
      </trkpt>
      <trkpt lat="38.849105" lon="-9.11086333">
        <ele>-1.0</ele>
        <time>2019-05-16T10:35:01.911Z</time>
      </trkpt>
      <trkpt lat="38.849145" lon="-9.11085667">
        <ele>-1.0</ele>
        <time>2019-05-16T10:35:02.898Z</time>
      </trkpt>
      <trkpt lat="38.849145" lon="-9.11085667">
        <ele>-1.0</ele>
        <time>2019-05-16T10:35:03.916Z</time>
      </trkpt>
      <trkpt lat="38.849225" lon="-9.11085">
        <ele>-1.0</ele>
        <time>2019-05-16T10:35:04.928Z</time>
      </trkpt>
      <trkpt lat="38.849225" lon="-9.11085">
        <ele>-1.0</ele>
        <time>2019-05-16T10:35:05.927Z</time>
      </trkpt>
      <trkpt lat="38.84930667" lon="-9.11084667">
        <ele>-1.0</ele>
        <time>2019-05-16T10:35:06.900Z</time>
      </trkpt>
      <trkpt lat="38.84930667" lon="-9.11084667">
        <ele>-1.0</ele>
        <time>2019-05-16T10:35:07.915Z</time>
      </trkpt>
      <trkpt lat="38.849385" lon="-9.11085">
        <ele>-1.0</ele>
        <time>2019-05-16T10:35:08.927Z</time>
      </trkpt>
      <trkpt lat="38.849385" lon="-9.11085">
        <ele>-1.0</ele>
        <time>2019-05-16T10:35:09.928Z</time>
      </trkpt>
      <trkpt lat="38.84946333" lon="-9.11086">
        <ele>-1.0</ele>
        <time>2019-05-16T10:35:10.897Z</time>
      </trkpt>
      <trkpt lat="38.84946333" lon="-9.11086">
        <ele>-1.0</ele>
        <time>2019-05-16T10:35:11.922Z</time>
      </trkpt>
      <trkpt lat="38.84953833" lon="-9.11087333">
        <ele>-1.0</ele>
        <time>2019-05-16T10:35:12.931Z</time>
      </trkpt>
      <trkpt lat="38.84953833" lon="-9.11087333">
        <ele>-1.0</ele>
        <time>2019-05-16T10:35:13.906Z</time>
      </trkpt>
      <trkpt lat="38.84961167" lon="-9.11088667">
        <ele>-1.0</ele>
        <time>2019-05-16T10:35:14.914Z</time>
      </trkpt>
      <trkpt lat="38.84961167" lon="-9.11088667">
        <ele>-1.0</ele>
        <time>2019-05-16T10:35:15.914Z</time>
      </trkpt>
      <trkpt lat="38.84968333" lon="-9.11089667">
        <ele>-1.0</ele>
        <time>2019-05-16T10:35:16.923Z</time>
      </trkpt>
      <trkpt lat="38.84968333" lon="-9.11089667">
        <ele>-1.0</ele>
        <time>2019-05-16T10:35:17.897Z</time>
      </trkpt>
      <trkpt lat="38.84975333" lon="-9.11090333">
        <ele>-1.0</ele>
        <time>2019-05-16T10:35:18.908Z</time>
      </trkpt>
      <trkpt lat="38.84975333" lon="-9.11090333">
        <ele>-1.0</ele>
        <time>2019-05-16T10:35:19.906Z</time>
      </trkpt>
      <trkpt lat="38.84982333" lon="-9.110915">
        <ele>-1.0</ele>
        <time>2019-05-16T10:35:20.931Z</time>
      </trkpt>
      <trkpt lat="38.84982333" lon="-9.110915">
        <ele>-1.0</ele>
        <time>2019-05-16T10:35:21.901Z</time>
      </trkpt>
      <trkpt lat="38.84989167" lon="-9.11092333">
        <ele>-1.0</ele>
        <time>2019-05-16T10:35:22.919Z</time>
      </trkpt>
      <trkpt lat="38.84989167" lon="-9.11092333">
        <ele>-1.0</ele>
        <time>2019-05-16T10:35:23.929Z</time>
      </trkpt>
      <trkpt lat="38.84996167" lon="-9.11092833">
        <ele>-1.0</ele>
        <time>2019-05-16T10:35:24.920Z</time>
      </trkpt>
      <trkpt lat="38.84996167" lon="-9.11092833">
        <ele>-1.0</ele>
        <time>2019-05-16T10:35:25.901Z</time>
      </trkpt>
      <trkpt lat="38.85003333" lon="-9.11093167">
        <ele>-1.0</ele>
        <time>2019-05-16T10:35:26.911Z</time>
      </trkpt>
      <trkpt lat="38.85003333" lon="-9.11093167">
        <ele>-1.0</ele>
        <time>2019-05-16T10:35:27.900Z</time>
      </trkpt>
      <trkpt lat="38.85010333" lon="-9.11093833">
        <ele>-1.0</ele>
        <time>2019-05-16T10:35:28.907Z</time>
      </trkpt>
      <trkpt lat="38.85010333" lon="-9.11093833">
        <ele>-1.0</ele>
        <time>2019-05-16T10:35:29.926Z</time>
      </trkpt>
      <trkpt lat="38.85017167" lon="-9.11094667">
        <ele>-1.0</ele>
        <time>2019-05-16T10:35:30.899Z</time>
      </trkpt>
      <trkpt lat="38.85017167" lon="-9.11094667">
        <ele>-1.0</ele>
        <time>2019-05-16T10:35:31.929Z</time>
      </trkpt>
      <trkpt lat="38.85023833" lon="-9.11094667">
        <ele>-1.0</ele>
        <time>2019-05-16T10:35:32.901Z</time>
      </trkpt>
      <trkpt lat="38.85023833" lon="-9.11094667">
        <ele>-1.0</ele>
        <time>2019-05-16T10:35:33.923Z</time>
      </trkpt>
      <trkpt lat="38.850305" lon="-9.11094667">
        <ele>0.0</ele>
        <time>2019-05-16T10:35:34.901Z</time>
      </trkpt>
      <trkpt lat="38.850305" lon="-9.11094667">
        <ele>0.0</ele>
        <time>2019-05-16T10:35:35.900Z</time>
      </trkpt>
      <trkpt lat="38.85036667" lon="-9.11094333">
        <ele>0.0</ele>
        <time>2019-05-16T10:35:36.924Z</time>
      </trkpt>
      <trkpt lat="38.85036667" lon="-9.11094333">
        <ele>0.0</ele>
        <time>2019-05-16T10:35:37.913Z</time>
      </trkpt>
      <trkpt lat="38.85042833" lon="-9.11093833">
        <ele>0.0</ele>
        <time>2019-05-16T10:35:38.925Z</time>
      </trkpt>
      <trkpt lat="38.85042833" lon="-9.11093833">
        <ele>0.0</ele>
        <time>2019-05-16T10:35:39.926Z</time>
      </trkpt>
      <trkpt lat="38.85048333" lon="-9.11092667">
        <ele>0.0</ele>
        <time>2019-05-16T10:35:40.899Z</time>
      </trkpt>
      <trkpt lat="38.85048333" lon="-9.11092667">
        <ele>0.0</ele>
        <time>2019-05-16T10:35:41.901Z</time>
      </trkpt>
      <trkpt lat="38.850545" lon="-9.11091333">
        <ele>0.0</ele>
        <time>2019-05-16T10:35:42.912Z</time>
      </trkpt>
      <trkpt lat="38.850545" lon="-9.11091333">
        <ele>0.0</ele>
        <time>2019-05-16T10:35:43.902Z</time>
      </trkpt>
      <trkpt lat="38.85061" lon="-9.11089667">
        <ele>0.0</ele>
        <time>2019-05-16T10:35:44.914Z</time>
      </trkpt>
      <trkpt lat="38.85061" lon="-9.11089667">
        <ele>0.0</ele>
        <time>2019-05-16T10:35:45.909Z</time>
      </trkpt>
      <trkpt lat="38.85067333" lon="-9.11087333">
        <ele>0.0</ele>
        <time>2019-05-16T10:35:46.916Z</time>
      </trkpt>
      <trkpt lat="38.85067333" lon="-9.11087333">
        <ele>0.0</ele>
        <time>2019-05-16T10:35:47.902Z</time>
      </trkpt>
      <trkpt lat="38.850735" lon="-9.11084333">
        <ele>0.0</ele>
        <time>2019-05-16T10:35:48.910Z</time>
      </trkpt>
      <trkpt lat="38.850735" lon="-9.11084333">
        <ele>0.0</ele>
        <time>2019-05-16T10:35:49.901Z</time>
      </trkpt>
      <trkpt lat="38.85079667" lon="-9.11081167">
        <ele>0.0</ele>
        <time>2019-05-16T10:35:50.910Z</time>
      </trkpt>
      <trkpt lat="38.85079667" lon="-9.11081167">
        <ele>0.0</ele>
        <time>2019-05-16T10:35:51.898Z</time>
      </trkpt>
      <trkpt lat="38.85086333" lon="-9.110785">
        <ele>0.0</ele>
        <time>2019-05-16T10:35:52.906Z</time>
      </trkpt>
      <trkpt lat="38.85086333" lon="-9.110785">
        <ele>0.0</ele>
        <time>2019-05-16T10:35:53.903Z</time>
      </trkpt>
      <trkpt lat="38.85092833" lon="-9.11075">
        <ele>0.0</ele>
        <time>2019-05-16T10:35:54.914Z</time>
      </trkpt>
      <trkpt lat="38.85092833" lon="-9.11075">
        <ele>0.0</ele>
        <time>2019-05-16T10:35:55.933Z</time>
      </trkpt>
      <trkpt lat="38.85099" lon="-9.11070333">
        <ele>0.0</ele>
        <time>2019-05-16T10:35:56.901Z</time>
      </trkpt>
      <trkpt lat="38.85099" lon="-9.11070333">
        <ele>0.0</ele>
        <time>2019-05-16T10:35:57.911Z</time>
      </trkpt>
      <trkpt lat="38.85105333" lon="-9.11065667">
        <ele>0.0</ele>
        <time>2019-05-16T10:35:58.919Z</time>
      </trkpt>
      <trkpt lat="38.85105333" lon="-9.11065667">
        <ele>0.0</ele>
        <time>2019-05-16T10:35:59.911Z</time>
      </trkpt>
      <trkpt lat="38.85111333" lon="-9.11060667">
        <ele>0.0</ele>
        <time>2019-05-16T10:36:00.926Z</time>
      </trkpt>
      <trkpt lat="38.85111333" lon="-9.11060667">
        <ele>0.0</ele>
        <time>2019-05-16T10:36:01.907Z</time>
      </trkpt>
      <trkpt lat="38.85117833" lon="-9.11055833">
        <ele>0.0</ele>
        <time>2019-05-16T10:36:02.917Z</time>
      </trkpt>
      <trkpt lat="38.85117833" lon="-9.11055833">
        <ele>0.0</ele>
        <time>2019-05-16T10:36:03.901Z</time>
      </trkpt>
      <trkpt lat="38.85124333" lon="-9.11051167">
        <ele>0.0</ele>
        <time>2019-05-16T10:36:04.912Z</time>
      </trkpt>
      <trkpt lat="38.851275" lon="-9.11048167">
        <ele>0.0</ele>
        <time>2019-05-16T10:36:05.936Z</time>
      </trkpt>
      <trkpt lat="38.85130667" lon="-9.110455">
        <ele>0.0</ele>
        <time>2019-05-16T10:36:06.934Z</time>
      </trkpt>
      <trkpt lat="38.85130667" lon="-9.110455">
        <ele>0.0</ele>
        <time>2019-05-16T10:36:07.927Z</time>
      </trkpt>
      <trkpt lat="38.851365" lon="-9.11040333">
        <ele>0.0</ele>
        <time>2019-05-16T10:36:08.902Z</time>
      </trkpt>
      <trkpt lat="38.851365" lon="-9.11040333">
        <ele>0.0</ele>
        <time>2019-05-16T10:36:09.926Z</time>
      </trkpt>
      <trkpt lat="38.851415" lon="-9.110345">
        <ele>0.0</ele>
        <time>2019-05-16T10:36:10.899Z</time>
      </trkpt>
      <trkpt lat="38.851415" lon="-9.110345">
        <ele>0.0</ele>
        <time>2019-05-16T10:36:11.910Z</time>
      </trkpt>
      <trkpt lat="38.85147" lon="-9.110295">
        <ele>0.0</ele>
        <time>2019-05-16T10:36:12.923Z</time>
      </trkpt>
      <trkpt lat="38.85147" lon="-9.110295">
        <ele>0.0</ele>
        <time>2019-05-16T10:36:13.926Z</time>
      </trkpt>
      <trkpt lat="38.85152333" lon="-9.11024167">
        <ele>0.0</ele>
        <time>2019-05-16T10:36:14.902Z</time>
      </trkpt>
      <trkpt lat="38.85152333" lon="-9.11024167">
        <ele>0.0</ele>
        <time>2019-05-16T10:36:15.932Z</time>
      </trkpt>
      <trkpt lat="38.851575" lon="-9.110185">
        <ele>0.0</ele>
        <time>2019-05-16T10:36:16.900Z</time>
      </trkpt>
      <trkpt lat="38.851575" lon="-9.110185">
        <ele>0.0</ele>
        <time>2019-05-16T10:36:17.922Z</time>
      </trkpt>
      <trkpt lat="38.85163333" lon="-9.110125">
        <ele>0.0</ele>
        <time>2019-05-16T10:36:18.909Z</time>
      </trkpt>
      <trkpt lat="38.85163333" lon="-9.110125">
        <ele>0.0</ele>
        <time>2019-05-16T10:36:19.931Z</time>
      </trkpt>
      <trkpt lat="38.85169333" lon="-9.11006">
        <ele>0.0</ele>
        <time>2019-05-16T10:36:20.914Z</time>
      </trkpt>
      <trkpt lat="38.85169333" lon="-9.11006">
        <ele>0.0</ele>
        <time>2019-05-16T10:36:21.911Z</time>
      </trkpt>
      <trkpt lat="38.85175333" lon="-9.10998833">
        <ele>0.0</ele>
        <time>2019-05-16T10:36:22.921Z</time>
      </trkpt>
      <trkpt lat="38.85175333" lon="-9.10998833">
        <ele>0.0</ele>
        <time>2019-05-16T10:36:23.901Z</time>
      </trkpt>
      <trkpt lat="38.85180667" lon="-9.10991">
        <ele>-1.0</ele>
        <time>2019-05-16T10:36:24.925Z</time>
      </trkpt>
      <trkpt lat="38.85180667" lon="-9.10991">
        <ele>-1.0</ele>
        <time>2019-05-16T10:36:25.909Z</time>
      </trkpt>
      <trkpt lat="38.85185167" lon="-9.10982167">
        <ele>-1.0</ele>
        <time>2019-05-16T10:36:26.917Z</time>
      </trkpt>
      <trkpt lat="38.85185167" lon="-9.10982167">
        <ele>-1.0</ele>
        <time>2019-05-16T10:36:27.902Z</time>
      </trkpt>
      <trkpt lat="38.85189167" lon="-9.10973167">
        <ele>-1.0</ele>
        <time>2019-05-16T10:36:28.917Z</time>
      </trkpt>
      <trkpt lat="38.85189167" lon="-9.10973167">
        <ele>-1.0</ele>
        <time>2019-05-16T10:36:29.906Z</time>
      </trkpt>
      <trkpt lat="38.85193" lon="-9.10965333">
        <ele>-1.0</ele>
        <time>2019-05-16T10:36:30.913Z</time>
      </trkpt>
      <trkpt lat="38.85193" lon="-9.10965333">
        <ele>-1.0</ele>
        <time>2019-05-16T10:36:31.912Z</time>
      </trkpt>
      <trkpt lat="38.85196" lon="-9.109575">
        <ele>-1.0</ele>
        <time>2019-05-16T10:36:32.921Z</time>
      </trkpt>
      <trkpt lat="38.85196" lon="-9.109575">
        <ele>-1.0</ele>
        <time>2019-05-16T10:36:33.920Z</time>
      </trkpt>
      <trkpt lat="38.851995" lon="-9.10949">
        <ele>-1.0</ele>
        <time>2019-05-16T10:36:34.931Z</time>
      </trkpt>
      <trkpt lat="38.85201333" lon="-9.10944333">
        <ele>-1.0</ele>
        <time>2019-05-16T10:36:35.898Z</time>
      </trkpt>
      <trkpt lat="38.85201333" lon="-9.10944333">
        <ele>-1.0</ele>
        <time>2019-05-16T10:36:36.931Z</time>
      </trkpt>
      <trkpt lat="38.85205" lon="-9.10935">
        <ele>-1.0</ele>
        <time>2019-05-16T10:36:37.901Z</time>
      </trkpt>
      <trkpt lat="38.85205" lon="-9.10935">
        <ele>-1.0</ele>
        <time>2019-05-16T10:36:38.930Z</time>
      </trkpt>
      <trkpt lat="38.852095" lon="-9.109265">
        <ele>-2.0</ele>
        <time>2019-05-16T10:36:39.903Z</time>
      </trkpt>
      <trkpt lat="38.852095" lon="-9.109265">
        <ele>-2.0</ele>
        <time>2019-05-16T10:36:40.899Z</time>
      </trkpt>
      <trkpt lat="38.85214167" lon="-9.10918333">
        <ele>-2.0</ele>
        <time>2019-05-16T10:36:41.912Z</time>
      </trkpt>
      <trkpt lat="38.85216833" lon="-9.109145">
        <ele>-2.0</ele>
        <time>2019-05-16T10:36:42.933Z</time>
      </trkpt>
      <trkpt lat="38.85216833" lon="-9.109145">
        <ele>-2.0</ele>
        <time>2019-05-16T10:36:43.901Z</time>
      </trkpt>
      <trkpt lat="38.85222167" lon="-9.109075">
        <ele>-2.0</ele>
        <time>2019-05-16T10:36:44.925Z</time>
      </trkpt>
      <trkpt lat="38.85222167" lon="-9.109075">
        <ele>-2.0</ele>
        <time>2019-05-16T10:36:45.918Z</time>
      </trkpt>
      <trkpt lat="38.85227667" lon="-9.10901">
        <ele>-2.0</ele>
        <time>2019-05-16T10:36:46.936Z</time>
      </trkpt>
      <trkpt lat="38.85227667" lon="-9.10901">
        <ele>-2.0</ele>
        <time>2019-05-16T10:36:47.930Z</time>
      </trkpt>
      <trkpt lat="38.852335" lon="-9.10895167">
        <ele>-2.0</ele>
        <time>2019-05-16T10:36:48.913Z</time>
      </trkpt>
      <trkpt lat="38.852335" lon="-9.10895167">
        <ele>-2.0</ele>
        <time>2019-05-16T10:36:49.930Z</time>
      </trkpt>
      <trkpt lat="38.85239167" lon="-9.10889333">
        <ele>-2.0</ele>
        <time>2019-05-16T10:36:50.915Z</time>
      </trkpt>
      <trkpt lat="38.85239167" lon="-9.10889333">
        <ele>-2.0</ele>
        <time>2019-05-16T10:36:51.898Z</time>
      </trkpt>
      <trkpt lat="38.85245333" lon="-9.108835">
        <ele>-2.0</ele>
        <time>2019-05-16T10:36:52.906Z</time>
      </trkpt>
      <trkpt lat="38.85245333" lon="-9.108835">
        <ele>-2.0</ele>
        <time>2019-05-16T10:36:53.929Z</time>
      </trkpt>
      <trkpt lat="38.85251833" lon="-9.10878333">
        <ele>-2.0</ele>
        <time>2019-05-16T10:36:54.910Z</time>
      </trkpt>
      <trkpt lat="38.85251833" lon="-9.10878333">
        <ele>-2.0</ele>
        <time>2019-05-16T10:36:55.904Z</time>
      </trkpt>
      <trkpt lat="38.85258667" lon="-9.10873667">
        <ele>-2.0</ele>
        <time>2019-05-16T10:36:56.923Z</time>
      </trkpt>
      <trkpt lat="38.85258667" lon="-9.10873667">
        <ele>-2.0</ele>
        <time>2019-05-16T10:36:57.926Z</time>
      </trkpt>
      <trkpt lat="38.85265333" lon="-9.10869667">
        <ele>-1.0</ele>
        <time>2019-05-16T10:36:58.938Z</time>
      </trkpt>
      <trkpt lat="38.85265333" lon="-9.10869667">
        <ele>-1.0</ele>
        <time>2019-05-16T10:36:59.897Z</time>
      </trkpt>
      <trkpt lat="38.85272" lon="-9.10865667">
        <ele>-1.0</ele>
        <time>2019-05-16T10:37:00.912Z</time>
      </trkpt>
      <trkpt lat="38.85272" lon="-9.10865667">
        <ele>-1.0</ele>
        <time>2019-05-16T10:37:01.906Z</time>
      </trkpt>
      <trkpt lat="38.85278667" lon="-9.10862">
        <ele>-1.0</ele>
        <time>2019-05-16T10:37:02.913Z</time>
      </trkpt>
      <trkpt lat="38.85278667" lon="-9.10862">
        <ele>-1.0</ele>
        <time>2019-05-16T10:37:03.908Z</time>
      </trkpt>
      <trkpt lat="38.85285667" lon="-9.10858833">
        <ele>-1.0</ele>
        <time>2019-05-16T10:37:04.919Z</time>
      </trkpt>
      <trkpt lat="38.85288833" lon="-9.108575">
        <ele>-1.0</ele>
        <time>2019-05-16T10:37:05.938Z</time>
      </trkpt>
      <trkpt lat="38.85292167" lon="-9.10856">
        <ele>-1.0</ele>
        <time>2019-05-16T10:37:06.906Z</time>
      </trkpt>
      <trkpt lat="38.85292167" lon="-9.10856">
        <ele>-1.0</ele>
        <time>2019-05-16T10:37:07.923Z</time>
      </trkpt>
      <trkpt lat="38.85298833" lon="-9.10853833">
        <ele>-1.0</ele>
        <time>2019-05-16T10:37:08.901Z</time>
      </trkpt>
      <trkpt lat="38.85302" lon="-9.108525">
        <ele>-1.0</ele>
        <time>2019-05-16T10:37:09.937Z</time>
      </trkpt>
      <trkpt lat="38.85302" lon="-9.108525">
        <ele>-1.0</ele>
        <time>2019-05-16T10:37:10.929Z</time>
      </trkpt>
      <trkpt lat="38.85309" lon="-9.10850167">
        <ele>-1.0</ele>
        <time>2019-05-16T10:37:11.912Z</time>
      </trkpt>
      <trkpt lat="38.853125" lon="-9.10849167">
        <ele>-1.0</ele>
        <time>2019-05-16T10:37:12.936Z</time>
      </trkpt>
      <trkpt lat="38.853125" lon="-9.10849167">
        <ele>-1.0</ele>
        <time>2019-05-16T10:37:13.923Z</time>
      </trkpt>
      <trkpt lat="38.853195" lon="-9.10847167">
        <ele>-1.0</ele>
        <time>2019-05-16T10:37:14.936Z</time>
      </trkpt>
      <trkpt lat="38.853195" lon="-9.10847167">
        <ele>-1.0</ele>
        <time>2019-05-16T10:37:15.926Z</time>
      </trkpt>
      <trkpt lat="38.85326167" lon="-9.10845167">
        <ele>0.0</ele>
        <time>2019-05-16T10:37:16.936Z</time>
      </trkpt>
      <trkpt lat="38.85326167" lon="-9.10845167">
        <ele>0.0</ele>
        <time>2019-05-16T10:37:17.904Z</time>
      </trkpt>
      <trkpt lat="38.85332667" lon="-9.108425">
        <ele>0.0</ele>
        <time>2019-05-16T10:37:18.916Z</time>
      </trkpt>
      <trkpt lat="38.85332667" lon="-9.108425">
        <ele>0.0</ele>
        <time>2019-05-16T10:37:19.936Z</time>
      </trkpt>
      <trkpt lat="38.853395" lon="-9.108395">
        <ele>0.0</ele>
        <time>2019-05-16T10:37:20.916Z</time>
      </trkpt>
      <trkpt lat="38.853395" lon="-9.108395">
        <ele>0.0</ele>
        <time>2019-05-16T10:37:21.926Z</time>
      </trkpt>
      <trkpt lat="38.85346167" lon="-9.10836167">
        <ele>0.0</ele>
        <time>2019-05-16T10:37:22.897Z</time>
      </trkpt>
      <trkpt lat="38.85346167" lon="-9.10836167">
        <ele>0.0</ele>
        <time>2019-05-16T10:37:23.922Z</time>
      </trkpt>
      <trkpt lat="38.85352333" lon="-9.10831833">
        <ele>0.0</ele>
        <time>2019-05-16T10:37:24.932Z</time>
      </trkpt>
      <trkpt lat="38.85352333" lon="-9.10831833">
        <ele>0.0</ele>
        <time>2019-05-16T10:37:25.919Z</time>
      </trkpt>
      <trkpt lat="38.85358667" lon="-9.10827333">
        <ele>0.0</ele>
        <time>2019-05-16T10:37:26.935Z</time>
      </trkpt>
      <trkpt lat="38.85358667" lon="-9.10827333">
        <ele>0.0</ele>
        <time>2019-05-16T10:37:27.926Z</time>
      </trkpt>
      <trkpt lat="38.85365167" lon="-9.108225">
        <ele>0.0</ele>
        <time>2019-05-16T10:37:28.903Z</time>
      </trkpt>
      <trkpt lat="38.85365167" lon="-9.108225">
        <ele>0.0</ele>
        <time>2019-05-16T10:37:29.901Z</time>
      </trkpt>
      <trkpt lat="38.85371" lon="-9.10817">
        <ele>0.0</ele>
        <time>2019-05-16T10:37:30.918Z</time>
      </trkpt>
      <trkpt lat="38.85371" lon="-9.10817">
        <ele>0.0</ele>
        <time>2019-05-16T10:37:31.934Z</time>
      </trkpt>
      <trkpt lat="38.85377167" lon="-9.10811833">
        <ele>0.0</ele>
        <time>2019-05-16T10:37:32.902Z</time>
      </trkpt>
      <trkpt lat="38.85377167" lon="-9.10811833">
        <ele>0.0</ele>
        <time>2019-05-16T10:37:33.934Z</time>
      </trkpt>
      <trkpt lat="38.85383167" lon="-9.10806167">
        <ele>0.0</ele>
        <time>2019-05-16T10:37:34.908Z</time>
      </trkpt>
      <trkpt lat="38.85383167" lon="-9.10806167">
        <ele>0.0</ele>
        <time>2019-05-16T10:37:35.911Z</time>
      </trkpt>
      <trkpt lat="38.85389" lon="-9.10799667">
        <ele>0.0</ele>
        <time>2019-05-16T10:37:36.975Z</time>
      </trkpt>
      <trkpt lat="38.85389" lon="-9.10799667">
        <ele>0.0</ele>
        <time>2019-05-16T10:37:37.897Z</time>
      </trkpt>
      <trkpt lat="38.85395167" lon="-9.10793167">
        <ele>0.0</ele>
        <time>2019-05-16T10:37:38.920Z</time>
      </trkpt>
      <trkpt lat="38.85395167" lon="-9.10793167">
        <ele>0.0</ele>
        <time>2019-05-16T10:37:39.914Z</time>
      </trkpt>
      <trkpt lat="38.85401167" lon="-9.10786833">
        <ele>-1.0</ele>
        <time>2019-05-16T10:37:40.933Z</time>
      </trkpt>
      <trkpt lat="38.85404333" lon="-9.10784">
        <ele>-1.0</ele>
        <time>2019-05-16T10:37:41.919Z</time>
      </trkpt>
      <trkpt lat="38.85407333" lon="-9.10781167">
        <ele>-1.0</ele>
        <time>2019-05-16T10:37:42.928Z</time>
      </trkpt>
      <trkpt lat="38.85407333" lon="-9.10781167">
        <ele>-1.0</ele>
        <time>2019-05-16T10:37:43.908Z</time>
      </trkpt>
      <trkpt lat="38.854135" lon="-9.107765">
        <ele>-1.0</ele>
        <time>2019-05-16T10:37:44.917Z</time>
      </trkpt>
      <trkpt lat="38.854135" lon="-9.107765">
        <ele>-1.0</ele>
        <time>2019-05-16T10:37:45.911Z</time>
      </trkpt>
      <trkpt lat="38.85419333" lon="-9.10771667">
        <ele>0.0</ele>
        <time>2019-05-16T10:37:46.939Z</time>
      </trkpt>
      <trkpt lat="38.85419333" lon="-9.10771667">
        <ele>0.0</ele>
        <time>2019-05-16T10:37:47.931Z</time>
      </trkpt>
      <trkpt lat="38.85425333" lon="-9.10767833">
        <ele>0.0</ele>
        <time>2019-05-16T10:37:48.897Z</time>
      </trkpt>
      <trkpt lat="38.85425333" lon="-9.10767833">
        <ele>0.0</ele>
        <time>2019-05-16T10:37:49.929Z</time>
      </trkpt>
      <trkpt lat="38.854315" lon="-9.107645">
        <ele>0.0</ele>
        <time>2019-05-16T10:37:50.903Z</time>
      </trkpt>
      <trkpt lat="38.85435" lon="-9.10763">
        <ele>0.0</ele>
        <time>2019-05-16T10:37:51.922Z</time>
      </trkpt>
      <trkpt lat="38.85435" lon="-9.10763">
        <ele>0.0</ele>
        <time>2019-05-16T10:37:52.928Z</time>
      </trkpt>
      <trkpt lat="38.85442333" lon="-9.10760667">
        <ele>1.0</ele>
        <time>2019-05-16T10:37:53.939Z</time>
      </trkpt>
      <trkpt lat="38.85445833" lon="-9.10759667">
        <ele>1.0</ele>
        <time>2019-05-16T10:37:54.927Z</time>
      </trkpt>
      <trkpt lat="38.85445833" lon="-9.10759667">
        <ele>1.0</ele>
        <time>2019-05-16T10:37:55.901Z</time>
      </trkpt>
      <trkpt lat="38.85445833" lon="-9.10759667">
        <ele>1.0</ele>
        <time>2019-05-16T10:37:56.921Z</time>
      </trkpt>
      <trkpt lat="38.85453" lon="-9.107575">
        <ele>1.0</ele>
        <time>2019-05-16T10:37:57.908Z</time>
      </trkpt>
      <trkpt lat="38.85460333" lon="-9.10755833">
        <ele>1.0</ele>
        <time>2019-05-16T10:37:58.918Z</time>
      </trkpt>
      <trkpt lat="38.85460333" lon="-9.10755833">
        <ele>1.0</ele>
        <time>2019-05-16T10:37:59.922Z</time>
      </trkpt>
      <trkpt lat="38.85467833" lon="-9.10754667">
        <ele>1.0</ele>
        <time>2019-05-16T10:38:00.933Z</time>
      </trkpt>
      <trkpt lat="38.854715" lon="-9.107535">
        <ele>1.0</ele>
        <time>2019-05-16T10:38:01.921Z</time>
      </trkpt>
      <trkpt lat="38.854715" lon="-9.107535">
        <ele>1.0</ele>
        <time>2019-05-16T10:38:02.906Z</time>
      </trkpt>
      <trkpt lat="38.854785" lon="-9.10751667">
        <ele>1.0</ele>
        <time>2019-05-16T10:38:03.914Z</time>
      </trkpt>
      <trkpt lat="38.854785" lon="-9.10751667">
        <ele>1.0</ele>
        <time>2019-05-16T10:38:04.935Z</time>
      </trkpt>
      <trkpt lat="38.85485333" lon="-9.107505">
        <ele>1.0</ele>
        <time>2019-05-16T10:38:05.908Z</time>
      </trkpt>
      <trkpt lat="38.85488667" lon="-9.107495">
        <ele>1.0</ele>
        <time>2019-05-16T10:38:06.918Z</time>
      </trkpt>
      <trkpt lat="38.85488667" lon="-9.107495">
        <ele>1.0</ele>
        <time>2019-05-16T10:38:07.922Z</time>
      </trkpt>
      <trkpt lat="38.85495667" lon="-9.10747833">
        <ele>1.0</ele>
        <time>2019-05-16T10:38:08.897Z</time>
      </trkpt>
      <trkpt lat="38.85495667" lon="-9.10747833">
        <ele>1.0</ele>
        <time>2019-05-16T10:38:09.929Z</time>
      </trkpt>
      <trkpt lat="38.85502833" lon="-9.10746667">
        <ele>1.0</ele>
        <time>2019-05-16T10:38:10.902Z</time>
      </trkpt>
      <trkpt lat="38.85502833" lon="-9.10746667">
        <ele>1.0</ele>
        <time>2019-05-16T10:38:11.902Z</time>
      </trkpt>
      <trkpt lat="38.85510167" lon="-9.10744833">
        <ele>1.0</ele>
        <time>2019-05-16T10:38:12.910Z</time>
      </trkpt>
      <trkpt lat="38.85513833" lon="-9.107435">
        <ele>1.0</ele>
        <time>2019-05-16T10:38:13.903Z</time>
      </trkpt>
      <trkpt lat="38.85513833" lon="-9.107435">
        <ele>1.0</ele>
        <time>2019-05-16T10:38:14.897Z</time>
      </trkpt>
      <trkpt lat="38.85521333" lon="-9.10742167">
        <ele>1.0</ele>
        <time>2019-05-16T10:38:15.906Z</time>
      </trkpt>
      <trkpt lat="38.85521333" lon="-9.10742167">
        <ele>1.0</ele>
        <time>2019-05-16T10:38:16.929Z</time>
      </trkpt>
      <trkpt lat="38.85528833" lon="-9.10741167">
        <ele>2.0</ele>
        <time>2019-05-16T10:38:17.899Z</time>
      </trkpt>
      <trkpt lat="38.855325" lon="-9.10740333">
        <ele>2.0</ele>
        <time>2019-05-16T10:38:18.935Z</time>
      </trkpt>
      <trkpt lat="38.855325" lon="-9.10740333">
        <ele>2.0</ele>
        <time>2019-05-16T10:38:19.926Z</time>
      </trkpt>
      <trkpt lat="38.85539667" lon="-9.10739167">
        <ele>2.0</ele>
        <time>2019-05-16T10:38:20.919Z</time>
      </trkpt>
      <trkpt lat="38.85539667" lon="-9.10739167">
        <ele>2.0</ele>
        <time>2019-05-16T10:38:21.897Z</time>
      </trkpt>
      <trkpt lat="38.85546833" lon="-9.10738">
        <ele>3.0</ele>
        <time>2019-05-16T10:38:22.907Z</time>
      </trkpt>
      <trkpt lat="38.85546833" lon="-9.10738">
        <ele>3.0</ele>
        <time>2019-05-16T10:38:23.934Z</time>
      </trkpt>
      <trkpt lat="38.855535" lon="-9.10736833">
        <ele>3.0</ele>
        <time>2019-05-16T10:38:24.915Z</time>
      </trkpt>
      <trkpt lat="38.855535" lon="-9.10736833">
        <ele>3.0</ele>
        <time>2019-05-16T10:38:25.926Z</time>
      </trkpt>
      <trkpt lat="38.85560167" lon="-9.10735">
        <ele>4.0</ele>
        <time>2019-05-16T10:38:26.899Z</time>
      </trkpt>
      <trkpt lat="38.85560167" lon="-9.10735">
        <ele>4.0</ele>
        <time>2019-05-16T10:38:27.905Z</time>
      </trkpt>
      <trkpt lat="38.85567333" lon="-9.10732833">
        <ele>4.0</ele>
        <time>2019-05-16T10:38:28.917Z</time>
      </trkpt>
      <trkpt lat="38.85567333" lon="-9.10732833">
        <ele>4.0</ele>
        <time>2019-05-16T10:38:29.901Z</time>
      </trkpt>
      <trkpt lat="38.85574833" lon="-9.10730167">
        <ele>5.0</ele>
        <time>2019-05-16T10:38:30.916Z</time>
      </trkpt>
      <trkpt lat="38.85574833" lon="-9.10730167">
        <ele>5.0</ele>
        <time>2019-05-16T10:38:31.926Z</time>
      </trkpt>
      <trkpt lat="38.855815" lon="-9.10726">
        <ele>5.0</ele>
        <time>2019-05-16T10:38:32.937Z</time>
      </trkpt>
      <trkpt lat="38.855815" lon="-9.10726">
        <ele>5.0</ele>
        <time>2019-05-16T10:38:33.929Z</time>
      </trkpt>
      <trkpt lat="38.85587333" lon="-9.10720333">
        <ele>5.0</ele>
        <time>2019-05-16T10:38:34.902Z</time>
      </trkpt>
      <trkpt lat="38.85587333" lon="-9.10720333">
        <ele>5.0</ele>
        <time>2019-05-16T10:38:35.928Z</time>
      </trkpt>
      <trkpt lat="38.85591833" lon="-9.10713">
        <ele>5.0</ele>
        <time>2019-05-16T10:38:36.899Z</time>
      </trkpt>
      <trkpt lat="38.85591833" lon="-9.10713">
        <ele>5.0</ele>
        <time>2019-05-16T10:38:37.911Z</time>
      </trkpt>
      <trkpt lat="38.85595833" lon="-9.107055">
        <ele>5.0</ele>
        <time>2019-05-16T10:38:38.935Z</time>
      </trkpt>
      <trkpt lat="38.85595833" lon="-9.107055">
        <ele>5.0</ele>
        <time>2019-05-16T10:38:39.917Z</time>
      </trkpt>
      <trkpt lat="38.85599167" lon="-9.10697833">
        <ele>6.0</ele>
        <time>2019-05-16T10:38:40.910Z</time>
      </trkpt>
      <trkpt lat="38.85599167" lon="-9.10697833">
        <ele>6.0</ele>
        <time>2019-05-16T10:38:41.903Z</time>
      </trkpt>
      <trkpt lat="38.85602333" lon="-9.10690167">
        <ele>6.0</ele>
        <time>2019-05-16T10:38:42.915Z</time>
      </trkpt>
      <trkpt lat="38.85602333" lon="-9.10690167">
        <ele>6.0</ele>
        <time>2019-05-16T10:38:43.928Z</time>
      </trkpt>
      <trkpt lat="38.856045" lon="-9.10682">
        <ele>6.0</ele>
        <time>2019-05-16T10:38:44.906Z</time>
      </trkpt>
      <trkpt lat="38.856045" lon="-9.10682">
        <ele>6.0</ele>
        <time>2019-05-16T10:38:45.916Z</time>
      </trkpt>
      <trkpt lat="38.85606" lon="-9.10673167">
        <ele>6.0</ele>
        <time>2019-05-16T10:38:46.935Z</time>
      </trkpt>
      <trkpt lat="38.85606" lon="-9.10673167">
        <ele>6.0</ele>
        <time>2019-05-16T10:38:47.925Z</time>
      </trkpt>
      <trkpt lat="38.85607667" lon="-9.10664667">
        <ele>5.0</ele>
        <time>2019-05-16T10:38:48.939Z</time>
      </trkpt>
      <trkpt lat="38.85607667" lon="-9.10664667">
        <ele>5.0</ele>
        <time>2019-05-16T10:38:49.901Z</time>
      </trkpt>
      <trkpt lat="38.85609167" lon="-9.10656167">
        <ele>6.0</ele>
        <time>2019-05-16T10:38:50.918Z</time>
      </trkpt>
      <trkpt lat="38.85609167" lon="-9.10656167">
        <ele>6.0</ele>
        <time>2019-05-16T10:38:51.935Z</time>
      </trkpt>
      <trkpt lat="38.85610667" lon="-9.106475">
        <ele>6.0</ele>
        <time>2019-05-16T10:38:52.907Z</time>
      </trkpt>
      <trkpt lat="38.85610667" lon="-9.106475">
        <ele>6.0</ele>
        <time>2019-05-16T10:38:53.929Z</time>
      </trkpt>
      <trkpt lat="38.85612167" lon="-9.10639167">
        <ele>5.0</ele>
        <time>2019-05-16T10:38:54.906Z</time>
      </trkpt>
      <trkpt lat="38.85612167" lon="-9.10639167">
        <ele>5.0</ele>
        <time>2019-05-16T10:38:55.929Z</time>
      </trkpt>
      <trkpt lat="38.85614833" lon="-9.10629667">
        <ele>5.0</ele>
        <time>2019-05-16T10:38:56.897Z</time>
      </trkpt>
      <trkpt lat="38.85614833" lon="-9.10629667">
        <ele>5.0</ele>
        <time>2019-05-16T10:38:57.914Z</time>
      </trkpt>
      <trkpt lat="38.85618167" lon="-9.106215">
        <ele>5.0</ele>
        <time>2019-05-16T10:38:58.898Z</time>
      </trkpt>
      <trkpt lat="38.85618167" lon="-9.106215">
        <ele>5.0</ele>
        <time>2019-05-16T10:38:59.929Z</time>
      </trkpt>
      <trkpt lat="38.85621" lon="-9.10614167">
        <ele>5.0</ele>
        <time>2019-05-16T10:39:00.912Z</time>
      </trkpt>
      <trkpt lat="38.85621" lon="-9.10614167">
        <ele>5.0</ele>
        <time>2019-05-16T10:39:01.936Z</time>
      </trkpt>
      <trkpt lat="38.85624167" lon="-9.10607">
        <ele>5.0</ele>
        <time>2019-05-16T10:39:02.929Z</time>
      </trkpt>
      <trkpt lat="38.85624167" lon="-9.10607">
        <ele>5.0</ele>
        <time>2019-05-16T10:39:03.912Z</time>
      </trkpt>
      <trkpt lat="38.85627667" lon="-9.10599667">
        <ele>6.0</ele>
        <time>2019-05-16T10:39:04.923Z</time>
      </trkpt>
      <trkpt lat="38.85627667" lon="-9.10599667">
        <ele>6.0</ele>
        <time>2019-05-16T10:39:05.897Z</time>
      </trkpt>
      <trkpt lat="38.85630333" lon="-9.10592">
        <ele>6.0</ele>
        <time>2019-05-16T10:39:06.913Z</time>
      </trkpt>
      <trkpt lat="38.85630333" lon="-9.10592">
        <ele>6.0</ele>
        <time>2019-05-16T10:39:07.930Z</time>
      </trkpt>
      <trkpt lat="38.85633333" lon="-9.10584667">
        <ele>6.0</ele>
        <time>2019-05-16T10:39:08.898Z</time>
      </trkpt>
      <trkpt lat="38.85633333" lon="-9.10584667">
        <ele>6.0</ele>
        <time>2019-05-16T10:39:09.917Z</time>
      </trkpt>
      <trkpt lat="38.85636" lon="-9.10577167">
        <ele>6.0</ele>
        <time>2019-05-16T10:39:10.930Z</time>
      </trkpt>
      <trkpt lat="38.85636" lon="-9.10577167">
        <ele>6.0</ele>
        <time>2019-05-16T10:39:11.915Z</time>
      </trkpt>
      <trkpt lat="38.85638167" lon="-9.10569333">
        <ele>6.0</ele>
        <time>2019-05-16T10:39:12.926Z</time>
      </trkpt>
      <trkpt lat="38.85638167" lon="-9.10569333">
        <ele>6.0</ele>
        <time>2019-05-16T10:39:13.897Z</time>
      </trkpt>
      <trkpt lat="38.85640333" lon="-9.10562">
        <ele>6.0</ele>
        <time>2019-05-16T10:39:14.905Z</time>
      </trkpt>
      <trkpt lat="38.85640333" lon="-9.10562">
        <ele>6.0</ele>
        <time>2019-05-16T10:39:15.926Z</time>
      </trkpt>
      <trkpt lat="38.856425" lon="-9.10554667">
        <ele>6.0</ele>
        <time>2019-05-16T10:39:16.901Z</time>
      </trkpt>
      <trkpt lat="38.85643833" lon="-9.10551167">
        <ele>7.0</ele>
        <time>2019-05-16T10:39:17.897Z</time>
      </trkpt>
      <trkpt lat="38.85645333" lon="-9.105475">
        <ele>7.0</ele>
        <time>2019-05-16T10:39:18.919Z</time>
      </trkpt>
      <trkpt lat="38.85645333" lon="-9.105475">
        <ele>7.0</ele>
        <time>2019-05-16T10:39:19.924Z</time>
      </trkpt>
      <trkpt lat="38.85647667" lon="-9.10539833">
        <ele>7.0</ele>
        <time>2019-05-16T10:39:20.914Z</time>
      </trkpt>
      <trkpt lat="38.85647667" lon="-9.10539833">
        <ele>7.0</ele>
        <time>2019-05-16T10:39:21.922Z</time>
      </trkpt>
      <trkpt lat="38.8565" lon="-9.10531833">
        <ele>7.0</ele>
        <time>2019-05-16T10:39:22.935Z</time>
      </trkpt>
      <trkpt lat="38.8565" lon="-9.10531833">
        <ele>7.0</ele>
        <time>2019-05-16T10:39:23.910Z</time>
      </trkpt>
      <trkpt lat="38.85652667" lon="-9.10523667">
        <ele>7.0</ele>
        <time>2019-05-16T10:39:24.922Z</time>
      </trkpt>
      <trkpt lat="38.85652667" lon="-9.10523667">
        <ele>7.0</ele>
        <time>2019-05-16T10:39:25.926Z</time>
      </trkpt>
      <trkpt lat="38.85655667" lon="-9.10515667">
        <ele>7.0</ele>
        <time>2019-05-16T10:39:26.903Z</time>
      </trkpt>
      <trkpt lat="38.85655667" lon="-9.10515667">
        <ele>7.0</ele>
        <time>2019-05-16T10:39:27.927Z</time>
      </trkpt>
      <trkpt lat="38.85658333" lon="-9.10507333">
        <ele>7.0</ele>
        <time>2019-05-16T10:39:28.900Z</time>
      </trkpt>
      <trkpt lat="38.85658333" lon="-9.10507333">
        <ele>7.0</ele>
        <time>2019-05-16T10:39:29.907Z</time>
      </trkpt>
      <trkpt lat="38.85661167" lon="-9.10498167">
        <ele>7.0</ele>
        <time>2019-05-16T10:39:30.918Z</time>
      </trkpt>
      <trkpt lat="38.85661167" lon="-9.10498167">
        <ele>7.0</ele>
        <time>2019-05-16T10:39:31.924Z</time>
      </trkpt>
      <trkpt lat="38.856645" lon="-9.10489667">
        <ele>7.0</ele>
        <time>2019-05-16T10:39:32.934Z</time>
      </trkpt>
      <trkpt lat="38.856645" lon="-9.10489667">
        <ele>7.0</ele>
        <time>2019-05-16T10:39:33.937Z</time>
      </trkpt>
      <trkpt lat="38.85667667" lon="-9.104815">
        <ele>7.0</ele>
        <time>2019-05-16T10:39:34.911Z</time>
      </trkpt>
      <trkpt lat="38.85667667" lon="-9.104815">
        <ele>7.0</ele>
        <time>2019-05-16T10:39:35.906Z</time>
      </trkpt>
      <trkpt lat="38.85671333" lon="-9.104735">
        <ele>7.0</ele>
        <time>2019-05-16T10:39:36.924Z</time>
      </trkpt>
      <trkpt lat="38.85671333" lon="-9.104735">
        <ele>7.0</ele>
        <time>2019-05-16T10:39:37.909Z</time>
      </trkpt>
      <trkpt lat="38.85674" lon="-9.10464833">
        <ele>7.0</ele>
        <time>2019-05-16T10:39:38.920Z</time>
      </trkpt>
      <trkpt lat="38.85674" lon="-9.10464833">
        <ele>7.0</ele>
        <time>2019-05-16T10:39:39.906Z</time>
      </trkpt>
      <trkpt lat="38.85676" lon="-9.10456">
        <ele>7.0</ele>
        <time>2019-05-16T10:39:40.918Z</time>
      </trkpt>
      <trkpt lat="38.85676" lon="-9.10456">
        <ele>7.0</ele>
        <time>2019-05-16T10:39:41.930Z</time>
      </trkpt>
      <trkpt lat="38.85678667" lon="-9.10447667">
        <ele>6.0</ele>
        <time>2019-05-16T10:39:42.911Z</time>
      </trkpt>
      <trkpt lat="38.85678667" lon="-9.10447667">
        <ele>6.0</ele>
        <time>2019-05-16T10:39:43.927Z</time>
      </trkpt>
      <trkpt lat="38.856815" lon="-9.10439333">
        <ele>6.0</ele>
        <time>2019-05-16T10:39:44.938Z</time>
      </trkpt>
      <trkpt lat="38.856815" lon="-9.10439333">
        <ele>6.0</ele>
        <time>2019-05-16T10:39:45.936Z</time>
      </trkpt>
      <trkpt lat="38.85684" lon="-9.10431">
        <ele>6.0</ele>
        <time>2019-05-16T10:39:46.908Z</time>
      </trkpt>
      <trkpt lat="38.85684" lon="-9.10431">
        <ele>6.0</ele>
        <time>2019-05-16T10:39:47.906Z</time>
      </trkpt>
      <trkpt lat="38.856865" lon="-9.10422667">
        <ele>6.0</ele>
        <time>2019-05-16T10:39:48.913Z</time>
      </trkpt>
      <trkpt lat="38.85688" lon="-9.104185">
        <ele>6.0</ele>
        <time>2019-05-16T10:39:49.929Z</time>
      </trkpt>
      <trkpt lat="38.85688" lon="-9.104185">
        <ele>6.0</ele>
        <time>2019-05-16T10:39:50.914Z</time>
      </trkpt>
      <trkpt lat="38.85691" lon="-9.10409667">
        <ele>6.0</ele>
        <time>2019-05-16T10:39:51.923Z</time>
      </trkpt>
      <trkpt lat="38.85691" lon="-9.10409667">
        <ele>6.0</ele>
        <time>2019-05-16T10:39:52.911Z</time>
      </trkpt>
      <trkpt lat="38.856945" lon="-9.10401">
        <ele>6.0</ele>
        <time>2019-05-16T10:39:53.922Z</time>
      </trkpt>
      <trkpt lat="38.85696" lon="-9.10396833">
        <ele>6.0</ele>
        <time>2019-05-16T10:39:54.916Z</time>
      </trkpt>
      <trkpt lat="38.85696" lon="-9.10396833">
        <ele>6.0</ele>
        <time>2019-05-16T10:39:55.899Z</time>
      </trkpt>
      <trkpt lat="38.85699167" lon="-9.10389">
        <ele>6.0</ele>
        <time>2019-05-16T10:39:56.909Z</time>
      </trkpt>
      <trkpt lat="38.85699167" lon="-9.10389">
        <ele>6.0</ele>
        <time>2019-05-16T10:39:57.912Z</time>
      </trkpt>
      <trkpt lat="38.85702333" lon="-9.10381167">
        <ele>6.0</ele>
        <time>2019-05-16T10:39:58.922Z</time>
      </trkpt>
      <trkpt lat="38.85702333" lon="-9.10381167">
        <ele>6.0</ele>
        <time>2019-05-16T10:39:59.927Z</time>
      </trkpt>
      <trkpt lat="38.85704833" lon="-9.10372833">
        <ele>6.0</ele>
        <time>2019-05-16T10:40:00.909Z</time>
      </trkpt>
      <trkpt lat="38.85704833" lon="-9.10372833">
        <ele>6.0</ele>
        <time>2019-05-16T10:40:01.935Z</time>
      </trkpt>
      <trkpt lat="38.85708333" lon="-9.10364833">
        <ele>6.0</ele>
        <time>2019-05-16T10:40:02.918Z</time>
      </trkpt>
      <trkpt lat="38.85708333" lon="-9.10364833">
        <ele>6.0</ele>
        <time>2019-05-16T10:40:03.930Z</time>
      </trkpt>
      <trkpt lat="38.85711333" lon="-9.10356333">
        <ele>6.0</ele>
        <time>2019-05-16T10:40:04.898Z</time>
      </trkpt>
      <trkpt lat="38.85711333" lon="-9.10356333">
        <ele>6.0</ele>
        <time>2019-05-16T10:40:05.911Z</time>
      </trkpt>
      <trkpt lat="38.85714167" lon="-9.10347667">
        <ele>6.0</ele>
        <time>2019-05-16T10:40:06.923Z</time>
      </trkpt>
      <trkpt lat="38.85714167" lon="-9.10347667">
        <ele>6.0</ele>
        <time>2019-05-16T10:40:07.898Z</time>
      </trkpt>
      <trkpt lat="38.857165" lon="-9.10339167">
        <ele>6.0</ele>
        <time>2019-05-16T10:40:08.908Z</time>
      </trkpt>
      <trkpt lat="38.857165" lon="-9.10339167">
        <ele>6.0</ele>
        <time>2019-05-16T10:40:09.910Z</time>
      </trkpt>
      <trkpt lat="38.85717833" lon="-9.10330167">
        <ele>6.0</ele>
        <time>2019-05-16T10:40:10.903Z</time>
      </trkpt>
      <trkpt lat="38.85717833" lon="-9.10330167">
        <ele>6.0</ele>
        <time>2019-05-16T10:40:11.931Z</time>
      </trkpt>
      <trkpt lat="38.85718667" lon="-9.10321333">
        <ele>6.0</ele>
        <time>2019-05-16T10:40:12.920Z</time>
      </trkpt>
      <trkpt lat="38.85718667" lon="-9.10321333">
        <ele>6.0</ele>
        <time>2019-05-16T10:40:13.904Z</time>
      </trkpt>
      <trkpt lat="38.85719167" lon="-9.10312667">
        <ele>6.0</ele>
        <time>2019-05-16T10:40:14.911Z</time>
      </trkpt>
      <trkpt lat="38.85719167" lon="-9.10312667">
        <ele>6.0</ele>
        <time>2019-05-16T10:40:15.935Z</time>
      </trkpt>
      <trkpt lat="38.85719" lon="-9.10304167">
        <ele>6.0</ele>
        <time>2019-05-16T10:40:16.914Z</time>
      </trkpt>
      <trkpt lat="38.85719" lon="-9.10304167">
        <ele>6.0</ele>
        <time>2019-05-16T10:40:17.933Z</time>
      </trkpt>
      <trkpt lat="38.85719" lon="-9.10296333">
        <ele>6.0</ele>
        <time>2019-05-16T10:40:18.900Z</time>
      </trkpt>
      <trkpt lat="38.85719" lon="-9.10296333">
        <ele>6.0</ele>
        <time>2019-05-16T10:40:19.933Z</time>
      </trkpt>
      <trkpt lat="38.85718167" lon="-9.102885">
        <ele>6.0</ele>
        <time>2019-05-16T10:40:20.921Z</time>
      </trkpt>
      <trkpt lat="38.85718167" lon="-9.102885">
        <ele>6.0</ele>
        <time>2019-05-16T10:40:21.900Z</time>
      </trkpt>
      <trkpt lat="38.857175" lon="-9.102805">
        <ele>6.0</ele>
        <time>2019-05-16T10:40:22.899Z</time>
      </trkpt>
      <trkpt lat="38.857175" lon="-9.102805">
        <ele>6.0</ele>
        <time>2019-05-16T10:40:23.936Z</time>
      </trkpt>
      <trkpt lat="38.85717333" lon="-9.10272833">
        <ele>7.0</ele>
        <time>2019-05-16T10:40:25.020Z</time>
      </trkpt>
      <trkpt lat="38.85717333" lon="-9.10272833">
        <ele>7.0</ele>
        <time>2019-05-16T10:40:25.927Z</time>
      </trkpt>
      <trkpt lat="38.85716333" lon="-9.10265167">
        <ele>7.0</ele>
        <time>2019-05-16T10:40:26.915Z</time>
      </trkpt>
      <trkpt lat="38.85716333" lon="-9.10265167">
        <ele>7.0</ele>
        <time>2019-05-16T10:40:27.910Z</time>
      </trkpt>
      <trkpt lat="38.85715833" lon="-9.102575">
        <ele>7.0</ele>
        <time>2019-05-16T10:40:28.919Z</time>
      </trkpt>
      <trkpt lat="38.85715833" lon="-9.102575">
        <ele>7.0</ele>
        <time>2019-05-16T10:40:29.904Z</time>
      </trkpt>
      <trkpt lat="38.85716" lon="-9.10250167">
        <ele>8.0</ele>
        <time>2019-05-16T10:40:30.912Z</time>
      </trkpt>
      <trkpt lat="38.85716" lon="-9.10250167">
        <ele>8.0</ele>
        <time>2019-05-16T10:40:31.914Z</time>
      </trkpt>
      <trkpt lat="38.85715833" lon="-9.10243">
        <ele>8.0</ele>
        <time>2019-05-16T10:40:32.934Z</time>
      </trkpt>
      <trkpt lat="38.85715833" lon="-9.10243">
        <ele>8.0</ele>
        <time>2019-05-16T10:40:33.909Z</time>
      </trkpt>
      <trkpt lat="38.85715833" lon="-9.10235667">
        <ele>8.0</ele>
        <time>2019-05-16T10:40:34.920Z</time>
      </trkpt>
      <trkpt lat="38.85715833" lon="-9.10232">
        <ele>8.0</ele>
        <time>2019-05-16T10:40:35.913Z</time>
      </trkpt>
      <trkpt lat="38.85716" lon="-9.10228333">
        <ele>9.0</ele>
        <time>2019-05-16T10:40:36.907Z</time>
      </trkpt>
      <trkpt lat="38.85716" lon="-9.10228333">
        <ele>9.0</ele>
        <time>2019-05-16T10:40:37.912Z</time>
      </trkpt>
      <trkpt lat="38.857165" lon="-9.10221167">
        <ele>9.0</ele>
        <time>2019-05-16T10:40:38.924Z</time>
      </trkpt>
      <trkpt lat="38.857165" lon="-9.102175">
        <ele>9.0</ele>
        <time>2019-05-16T10:40:39.927Z</time>
      </trkpt>
      <trkpt lat="38.857165" lon="-9.102175">
        <ele>9.0</ele>
        <time>2019-05-16T10:40:40.917Z</time>
      </trkpt>
      <trkpt lat="38.85717167" lon="-9.10210167">
        <ele>9.0</ele>
        <time>2019-05-16T10:40:41.924Z</time>
      </trkpt>
      <trkpt lat="38.85717833" lon="-9.10206333">
        <ele>9.0</ele>
        <time>2019-05-16T10:40:42.921Z</time>
      </trkpt>
      <trkpt lat="38.85717833" lon="-9.10206333">
        <ele>9.0</ele>
        <time>2019-05-16T10:40:43.900Z</time>
      </trkpt>
      <trkpt lat="38.85719" lon="-9.101985">
        <ele>9.0</ele>
        <time>2019-05-16T10:40:44.909Z</time>
      </trkpt>
      <trkpt lat="38.85719" lon="-9.101985">
        <ele>9.0</ele>
        <time>2019-05-16T10:40:45.909Z</time>
      </trkpt>
      <trkpt lat="38.85719667" lon="-9.10190667">
        <ele>9.0</ele>
        <time>2019-05-16T10:40:46.916Z</time>
      </trkpt>
      <trkpt lat="38.85719667" lon="-9.10190667">
        <ele>9.0</ele>
        <time>2019-05-16T10:40:47.929Z</time>
      </trkpt>
      <trkpt lat="38.85721" lon="-9.10182833">
        <ele>9.0</ele>
        <time>2019-05-16T10:40:48.902Z</time>
      </trkpt>
      <trkpt lat="38.85721" lon="-9.10182833">
        <ele>9.0</ele>
        <time>2019-05-16T10:40:49.910Z</time>
      </trkpt>
      <trkpt lat="38.857225" lon="-9.10175">
        <ele>9.0</ele>
        <time>2019-05-16T10:40:50.918Z</time>
      </trkpt>
      <trkpt lat="38.85723333" lon="-9.10171">
        <ele>9.0</ele>
        <time>2019-05-16T10:40:51.908Z</time>
      </trkpt>
      <trkpt lat="38.85723333" lon="-9.10171">
        <ele>9.0</ele>
        <time>2019-05-16T10:40:52.907Z</time>
      </trkpt>
      <trkpt lat="38.85725667" lon="-9.10162833">
        <ele>9.0</ele>
        <time>2019-05-16T10:40:53.916Z</time>
      </trkpt>
      <trkpt lat="38.85727" lon="-9.10159">
        <ele>9.0</ele>
        <time>2019-05-16T10:40:54.920Z</time>
      </trkpt>
      <trkpt lat="38.85727" lon="-9.10159">
        <ele>9.0</ele>
        <time>2019-05-16T10:40:55.900Z</time>
      </trkpt>
      <trkpt lat="38.85729667" lon="-9.10151333">
        <ele>9.0</ele>
        <time>2019-05-16T10:40:56.913Z</time>
      </trkpt>
      <trkpt lat="38.85729667" lon="-9.10151333">
        <ele>9.0</ele>
        <time>2019-05-16T10:40:57.911Z</time>
      </trkpt>
      <trkpt lat="38.85732167" lon="-9.101435">
        <ele>9.0</ele>
        <time>2019-05-16T10:40:58.920Z</time>
      </trkpt>
      <trkpt lat="38.85732167" lon="-9.101435">
        <ele>9.0</ele>
        <time>2019-05-16T10:40:59.912Z</time>
      </trkpt>
      <trkpt lat="38.857345" lon="-9.10135">
        <ele>9.0</ele>
        <time>2019-05-16T10:41:00.922Z</time>
      </trkpt>
      <trkpt lat="38.857345" lon="-9.10135">
        <ele>9.0</ele>
        <time>2019-05-16T10:41:01.909Z</time>
      </trkpt>
      <trkpt lat="38.85736333" lon="-9.10127167">
        <ele>9.0</ele>
        <time>2019-05-16T10:41:02.932Z</time>
      </trkpt>
      <trkpt lat="38.85736333" lon="-9.10127167">
        <ele>9.0</ele>
        <time>2019-05-16T10:41:03.936Z</time>
      </trkpt>
      <trkpt lat="38.85738333" lon="-9.10119">
        <ele>10.0</ele>
        <time>2019-05-16T10:41:04.909Z</time>
      </trkpt>
      <trkpt lat="38.85738333" lon="-9.10119">
        <ele>10.0</ele>
        <time>2019-05-16T10:41:05.927Z</time>
      </trkpt>
      <trkpt lat="38.85740167" lon="-9.10111">
        <ele>10.0</ele>
        <time>2019-05-16T10:41:06.936Z</time>
      </trkpt>
      <trkpt lat="38.85740167" lon="-9.10111">
        <ele>10.0</ele>
        <time>2019-05-16T10:41:07.906Z</time>
      </trkpt>
      <trkpt lat="38.857415" lon="-9.101035">
        <ele>10.0</ele>
        <time>2019-05-16T10:41:08.916Z</time>
      </trkpt>
      <trkpt lat="38.857415" lon="-9.101035">
        <ele>10.0</ele>
        <time>2019-05-16T10:41:09.914Z</time>
      </trkpt>
      <trkpt lat="38.85743333" lon="-9.100965">
        <ele>11.0</ele>
        <time>2019-05-16T10:41:10.922Z</time>
      </trkpt>
      <trkpt lat="38.85743333" lon="-9.100965">
        <ele>11.0</ele>
        <time>2019-05-16T10:41:11.929Z</time>
      </trkpt>
      <trkpt lat="38.85745" lon="-9.10089">
        <ele>11.0</ele>
        <time>2019-05-16T10:41:12.899Z</time>
      </trkpt>
      <trkpt lat="38.85745" lon="-9.10089">
        <ele>11.0</ele>
        <time>2019-05-16T10:41:13.902Z</time>
      </trkpt>
      <trkpt lat="38.85747" lon="-9.10080667">
        <ele>12.0</ele>
        <time>2019-05-16T10:41:14.914Z</time>
      </trkpt>
      <trkpt lat="38.85747" lon="-9.10080667">
        <ele>12.0</ele>
        <time>2019-05-16T10:41:15.936Z</time>
      </trkpt>
      <trkpt lat="38.85749" lon="-9.10073">
        <ele>12.0</ele>
        <time>2019-05-16T10:41:16.915Z</time>
      </trkpt>
      <trkpt lat="38.85749" lon="-9.10073">
        <ele>12.0</ele>
        <time>2019-05-16T10:41:17.929Z</time>
      </trkpt>
      <trkpt lat="38.857505" lon="-9.10065333">
        <ele>13.0</ele>
        <time>2019-05-16T10:41:18.905Z</time>
      </trkpt>
      <trkpt lat="38.857505" lon="-9.10065333">
        <ele>13.0</ele>
        <time>2019-05-16T10:41:19.936Z</time>
      </trkpt>
      <trkpt lat="38.857525" lon="-9.10057333">
        <ele>13.0</ele>
        <time>2019-05-16T10:41:20.920Z</time>
      </trkpt>
      <trkpt lat="38.857525" lon="-9.10057333">
        <ele>13.0</ele>
        <time>2019-05-16T10:41:21.925Z</time>
      </trkpt>
      <trkpt lat="38.857535" lon="-9.10049833">
        <ele>13.0</ele>
        <time>2019-05-16T10:41:22.953Z</time>
      </trkpt>
      <trkpt lat="38.85754167" lon="-9.10046">
        <ele>14.0</ele>
        <time>2019-05-16T10:41:23.901Z</time>
      </trkpt>
      <trkpt lat="38.85754167" lon="-9.10046">
        <ele>14.0</ele>
        <time>2019-05-16T10:41:24.909Z</time>
      </trkpt>
      <trkpt lat="38.85755833" lon="-9.10038167">
        <ele>14.0</ele>
        <time>2019-05-16T10:41:25.921Z</time>
      </trkpt>
      <trkpt lat="38.85755833" lon="-9.10038167">
        <ele>14.0</ele>
        <time>2019-05-16T10:41:26.927Z</time>
      </trkpt>
      <trkpt lat="38.85757833" lon="-9.10030167">
        <ele>15.0</ele>
        <time>2019-05-16T10:41:27.906Z</time>
      </trkpt>
      <trkpt lat="38.85759" lon="-9.10026167">
        <ele>15.0</ele>
        <time>2019-05-16T10:41:28.919Z</time>
      </trkpt>
      <trkpt lat="38.85759" lon="-9.10026167">
        <ele>15.0</ele>
        <time>2019-05-16T10:41:29.931Z</time>
      </trkpt>
      <trkpt lat="38.85760167" lon="-9.100185">
        <ele>15.0</ele>
        <time>2019-05-16T10:41:30.897Z</time>
      </trkpt>
      <trkpt lat="38.85760167" lon="-9.100185">
        <ele>15.0</ele>
        <time>2019-05-16T10:41:31.911Z</time>
      </trkpt>
      <trkpt lat="38.85761667" lon="-9.10012">
        <ele>16.0</ele>
        <time>2019-05-16T10:41:32.920Z</time>
      </trkpt>
      <trkpt lat="38.85762167" lon="-9.100095">
        <ele>15.0</ele>
        <time>2019-05-16T10:41:33.920Z</time>
      </trkpt>
      <trkpt lat="38.85762167" lon="-9.100095">
        <ele>15.0</ele>
        <time>2019-05-16T10:41:34.923Z</time>
      </trkpt>
      <trkpt lat="38.85762667" lon="-9.10004667">
        <ele>16.0</ele>
        <time>2019-05-16T10:41:35.908Z</time>
      </trkpt>
      <trkpt lat="38.85763" lon="-9.10002167">
        <ele>16.0</ele>
        <time>2019-05-16T10:41:36.912Z</time>
      </trkpt>
      <trkpt lat="38.85763" lon="-9.10002167">
        <ele>16.0</ele>
        <time>2019-05-16T10:41:37.904Z</time>
      </trkpt>
      <trkpt lat="38.85764" lon="-9.09997">
        <ele>17.0</ele>
        <time>2019-05-16T10:41:38.911Z</time>
      </trkpt>
      <trkpt lat="38.85764" lon="-9.09997">
        <ele>17.0</ele>
        <time>2019-05-16T10:41:39.900Z</time>
      </trkpt>
      <trkpt lat="38.857645" lon="-9.099925">
        <ele>17.0</ele>
        <time>2019-05-16T10:41:40.908Z</time>
      </trkpt>
      <trkpt lat="38.857645" lon="-9.099925">
        <ele>17.0</ele>
        <time>2019-05-16T10:41:41.915Z</time>
      </trkpt>
      <trkpt lat="38.85764667" lon="-9.099885">
        <ele>17.0</ele>
        <time>2019-05-16T10:41:42.930Z</time>
      </trkpt>
      <trkpt lat="38.85764667" lon="-9.099885">
        <ele>17.0</ele>
        <time>2019-05-16T10:41:43.924Z</time>
      </trkpt>
      <trkpt lat="38.85764333" lon="-9.099845">
        <ele>18.0</ele>
        <time>2019-05-16T10:41:44.935Z</time>
      </trkpt>
      <trkpt lat="38.85764333" lon="-9.099845">
        <ele>18.0</ele>
        <time>2019-05-16T10:41:45.921Z</time>
      </trkpt>
      <trkpt lat="38.85763667" lon="-9.09981">
        <ele>18.0</ele>
        <time>2019-05-16T10:41:46.901Z</time>
      </trkpt>
      <trkpt lat="38.85763667" lon="-9.09981">
        <ele>18.0</ele>
        <time>2019-05-16T10:41:47.899Z</time>
      </trkpt>
      <trkpt lat="38.85762167" lon="-9.09977">
        <ele>18.0</ele>
        <time>2019-05-16T10:41:48.960Z</time>
      </trkpt>
      <trkpt lat="38.85762167" lon="-9.09977">
        <ele>18.0</ele>
        <time>2019-05-16T10:41:49.929Z</time>
      </trkpt>
      <trkpt lat="38.85760333" lon="-9.09972">
        <ele>19.0</ele>
        <time>2019-05-16T10:41:50.898Z</time>
      </trkpt>
      <trkpt lat="38.85760333" lon="-9.09972">
        <ele>19.0</ele>
        <time>2019-05-16T10:41:51.899Z</time>
      </trkpt>
      <trkpt lat="38.85757833" lon="-9.09966833">
        <ele>19.0</ele>
        <time>2019-05-16T10:41:52.908Z</time>
      </trkpt>
      <trkpt lat="38.85757833" lon="-9.09966833">
        <ele>19.0</ele>
        <time>2019-05-16T10:41:53.935Z</time>
      </trkpt>
      <trkpt lat="38.85756833" lon="-9.09961">
        <ele>20.0</ele>
        <time>2019-05-16T10:41:54.910Z</time>
      </trkpt>
      <trkpt lat="38.85756833" lon="-9.09961">
        <ele>20.0</ele>
        <time>2019-05-16T10:41:55.903Z</time>
      </trkpt>
      <trkpt lat="38.85756833" lon="-9.09952167">
        <ele>20.0</ele>
        <time>2019-05-16T10:41:56.912Z</time>
      </trkpt>
      <trkpt lat="38.85758" lon="-9.09947167">
        <ele>20.0</ele>
        <time>2019-05-16T10:41:57.916Z</time>
      </trkpt>
      <trkpt lat="38.8576" lon="-9.09942167">
        <ele>20.0</ele>
        <time>2019-05-16T10:41:58.902Z</time>
      </trkpt>
      <trkpt lat="38.8576" lon="-9.09942167">
        <ele>20.0</ele>
        <time>2019-05-16T10:41:59.932Z</time>
      </trkpt>
      <trkpt lat="38.85765833" lon="-9.09933667">
        <ele>20.0</ele>
        <time>2019-05-16T10:42:00.901Z</time>
      </trkpt>
      <trkpt lat="38.85765833" lon="-9.09933667">
        <ele>20.0</ele>
        <time>2019-05-16T10:42:01.936Z</time>
      </trkpt>
      <trkpt lat="38.85773667" lon="-9.09928667">
        <ele>20.0</ele>
        <time>2019-05-16T10:42:02.904Z</time>
      </trkpt>
      <trkpt lat="38.85773667" lon="-9.09928667">
        <ele>20.0</ele>
        <time>2019-05-16T10:42:03.927Z</time>
      </trkpt>
      <trkpt lat="38.85780667" lon="-9.09923">
        <ele>19.0</ele>
        <time>2019-05-16T10:42:04.900Z</time>
      </trkpt>
      <trkpt lat="38.85783833" lon="-9.09920167">
        <ele>19.0</ele>
        <time>2019-05-16T10:42:05.912Z</time>
      </trkpt>
      <trkpt lat="38.85786667" lon="-9.099175">
        <ele>19.0</ele>
        <time>2019-05-16T10:42:06.912Z</time>
      </trkpt>
      <trkpt lat="38.85786667" lon="-9.099175">
        <ele>19.0</ele>
        <time>2019-05-16T10:42:07.916Z</time>
      </trkpt>
      <trkpt lat="38.857905" lon="-9.09912">
        <ele>19.0</ele>
        <time>2019-05-16T10:42:08.933Z</time>
      </trkpt>
      <trkpt lat="38.857905" lon="-9.09912">
        <ele>19.0</ele>
        <time>2019-05-16T10:42:09.915Z</time>
      </trkpt>
      <trkpt lat="38.857935" lon="-9.099065">
        <ele>19.0</ele>
        <time>2019-05-16T10:42:10.928Z</time>
      </trkpt>
      <trkpt lat="38.857935" lon="-9.099065">
        <ele>19.0</ele>
        <time>2019-05-16T10:42:11.900Z</time>
      </trkpt>
      <trkpt lat="38.85796167" lon="-9.09902167">
        <ele>18.0</ele>
        <time>2019-05-16T10:42:12.908Z</time>
      </trkpt>
      <trkpt lat="38.85796167" lon="-9.09902167">
        <ele>18.0</ele>
        <time>2019-05-16T10:42:13.904Z</time>
      </trkpt>
      <trkpt lat="38.85798667" lon="-9.09898">
        <ele>18.0</ele>
        <time>2019-05-16T10:42:14.914Z</time>
      </trkpt>
      <trkpt lat="38.85798667" lon="-9.09898">
        <ele>18.0</ele>
        <time>2019-05-16T10:42:15.924Z</time>
      </trkpt>
      <trkpt lat="38.85802333" lon="-9.098925">
        <ele>18.0</ele>
        <time>2019-05-16T10:42:16.937Z</time>
      </trkpt>
      <trkpt lat="38.85802333" lon="-9.098925">
        <ele>18.0</ele>
        <time>2019-05-16T10:42:17.899Z</time>
      </trkpt>
      <trkpt lat="38.85807167" lon="-9.09885333">
        <ele>18.0</ele>
        <time>2019-05-16T10:42:18.926Z</time>
      </trkpt>
      <trkpt lat="38.85807167" lon="-9.09885333">
        <ele>18.0</ele>
        <time>2019-05-16T10:42:19.901Z</time>
      </trkpt>
      <trkpt lat="38.85813667" lon="-9.09877667">
        <ele>17.0</ele>
        <time>2019-05-16T10:42:20.925Z</time>
      </trkpt>
      <trkpt lat="38.85813667" lon="-9.09877667">
        <ele>17.0</ele>
        <time>2019-05-16T10:42:21.913Z</time>
      </trkpt>
      <trkpt lat="38.858215" lon="-9.09869333">
        <ele>17.0</ele>
        <time>2019-05-16T10:42:22.922Z</time>
      </trkpt>
      <trkpt lat="38.858215" lon="-9.09869333">
        <ele>17.0</ele>
        <time>2019-05-16T10:42:23.932Z</time>
      </trkpt>
      <trkpt lat="38.85830167" lon="-9.09859833">
        <ele>16.0</ele>
        <time>2019-05-16T10:42:24.932Z</time>
      </trkpt>
      <trkpt lat="38.85830167" lon="-9.09859833">
        <ele>16.0</ele>
        <time>2019-05-16T10:42:25.926Z</time>
      </trkpt>
      <trkpt lat="38.85839167" lon="-9.09849667">
        <ele>16.0</ele>
        <time>2019-05-16T10:42:26.935Z</time>
      </trkpt>
      <trkpt lat="38.85839167" lon="-9.09849667">
        <ele>16.0</ele>
        <time>2019-05-16T10:42:27.927Z</time>
      </trkpt>
      <trkpt lat="38.85847333" lon="-9.09838667">
        <ele>16.0</ele>
        <time>2019-05-16T10:42:28.900Z</time>
      </trkpt>
      <trkpt lat="38.85847333" lon="-9.09838667">
        <ele>16.0</ele>
        <time>2019-05-16T10:42:29.927Z</time>
      </trkpt>
      <trkpt lat="38.858545" lon="-9.09828">
        <ele>16.0</ele>
        <time>2019-05-16T10:42:30.897Z</time>
      </trkpt>
      <trkpt lat="38.858545" lon="-9.09828">
        <ele>16.0</ele>
        <time>2019-05-16T10:42:31.929Z</time>
      </trkpt>
      <trkpt lat="38.85861" lon="-9.09818">
        <ele>16.0</ele>
        <time>2019-05-16T10:42:32.902Z</time>
      </trkpt>
      <trkpt lat="38.85861" lon="-9.09818">
        <ele>16.0</ele>
        <time>2019-05-16T10:42:33.911Z</time>
      </trkpt>
      <trkpt lat="38.85866333" lon="-9.09809167">
        <ele>16.0</ele>
        <time>2019-05-16T10:42:34.923Z</time>
      </trkpt>
      <trkpt lat="38.85866333" lon="-9.09809167">
        <ele>16.0</ele>
        <time>2019-05-16T10:42:35.907Z</time>
      </trkpt>
      <trkpt lat="38.8587" lon="-9.09801167">
        <ele>16.0</ele>
        <time>2019-05-16T10:42:36.927Z</time>
      </trkpt>
      <trkpt lat="38.8587" lon="-9.09801167">
        <ele>16.0</ele>
        <time>2019-05-16T10:42:37.903Z</time>
      </trkpt>
      <trkpt lat="38.85875" lon="-9.09794167">
        <ele>16.0</ele>
        <time>2019-05-16T10:42:38.920Z</time>
      </trkpt>
      <trkpt lat="38.85878167" lon="-9.09790167">
        <ele>16.0</ele>
        <time>2019-05-16T10:42:39.917Z</time>
      </trkpt>
      <trkpt lat="38.85878167" lon="-9.09790167">
        <ele>16.0</ele>
        <time>2019-05-16T10:42:40.901Z</time>
      </trkpt>
      <trkpt lat="38.858835" lon="-9.09780333">
        <ele>16.0</ele>
        <time>2019-05-16T10:42:41.911Z</time>
      </trkpt>
      <trkpt lat="38.85886" lon="-9.09775167">
        <ele>16.0</ele>
        <time>2019-05-16T10:42:42.902Z</time>
      </trkpt>
      <trkpt lat="38.85886" lon="-9.09775167">
        <ele>16.0</ele>
        <time>2019-05-16T10:42:43.906Z</time>
      </trkpt>
      <trkpt lat="38.85891167" lon="-9.09766">
        <ele>16.0</ele>
        <time>2019-05-16T10:42:44.919Z</time>
      </trkpt>
      <trkpt lat="38.85891167" lon="-9.09766">
        <ele>16.0</ele>
        <time>2019-05-16T10:42:45.916Z</time>
      </trkpt>
      <trkpt lat="38.85895667" lon="-9.09758333">
        <ele>15.0</ele>
        <time>2019-05-16T10:42:46.927Z</time>
      </trkpt>
      <trkpt lat="38.85895667" lon="-9.09758333">
        <ele>15.0</ele>
        <time>2019-05-16T10:42:47.923Z</time>
      </trkpt>
      <trkpt lat="38.85899667" lon="-9.097515">
        <ele>15.0</ele>
        <time>2019-05-16T10:42:48.936Z</time>
      </trkpt>
      <trkpt lat="38.85899667" lon="-9.097515">
        <ele>15.0</ele>
        <time>2019-05-16T10:42:49.901Z</time>
      </trkpt>
      <trkpt lat="38.85903333" lon="-9.097455">
        <ele>15.0</ele>
        <time>2019-05-16T10:42:50.909Z</time>
      </trkpt>
      <trkpt lat="38.85903333" lon="-9.097455">
        <ele>15.0</ele>
        <time>2019-05-16T10:42:51.918Z</time>
      </trkpt>
      <trkpt lat="38.85906833" lon="-9.09739667">
        <ele>15.0</ele>
        <time>2019-05-16T10:42:52.914Z</time>
      </trkpt>
      <trkpt lat="38.85906833" lon="-9.09739667">
        <ele>15.0</ele>
        <time>2019-05-16T10:42:53.912Z</time>
      </trkpt>
      <trkpt lat="38.85910667" lon="-9.09733167">
        <ele>15.0</ele>
        <time>2019-05-16T10:42:54.920Z</time>
      </trkpt>
      <trkpt lat="38.85910667" lon="-9.09733167">
        <ele>15.0</ele>
        <time>2019-05-16T10:42:55.904Z</time>
      </trkpt>
      <trkpt lat="38.85914833" lon="-9.09726167">
        <ele>15.0</ele>
        <time>2019-05-16T10:42:56.917Z</time>
      </trkpt>
      <trkpt lat="38.85914833" lon="-9.09726167">
        <ele>15.0</ele>
        <time>2019-05-16T10:42:57.915Z</time>
      </trkpt>
      <trkpt lat="38.85918333" lon="-9.09718833">
        <ele>15.0</ele>
        <time>2019-05-16T10:42:58.926Z</time>
      </trkpt>
      <trkpt lat="38.85918333" lon="-9.09718833">
        <ele>15.0</ele>
        <time>2019-05-16T10:42:59.934Z</time>
      </trkpt>
      <trkpt lat="38.85921667" lon="-9.097115">
        <ele>15.0</ele>
        <time>2019-05-16T10:43:00.901Z</time>
      </trkpt>
      <trkpt lat="38.85923167" lon="-9.09707833">
        <ele>15.0</ele>
        <time>2019-05-16T10:43:01.924Z</time>
      </trkpt>
      <trkpt lat="38.859245" lon="-9.09704167">
        <ele>15.0</ele>
        <time>2019-05-16T10:43:02.926Z</time>
      </trkpt>
      <trkpt lat="38.859245" lon="-9.09704167">
        <ele>15.0</ele>
        <time>2019-05-16T10:43:03.929Z</time>
      </trkpt>
      <trkpt lat="38.85927" lon="-9.096965">
        <ele>15.0</ele>
        <time>2019-05-16T10:43:04.902Z</time>
      </trkpt>
      <trkpt lat="38.85927" lon="-9.096965">
        <ele>15.0</ele>
        <time>2019-05-16T10:43:05.899Z</time>
      </trkpt>
      <trkpt lat="38.85929" lon="-9.09689">
        <ele>15.0</ele>
        <time>2019-05-16T10:43:06.900Z</time>
      </trkpt>
      <trkpt lat="38.85929" lon="-9.09689">
        <ele>15.0</ele>
        <time>2019-05-16T10:43:07.928Z</time>
      </trkpt>
      <trkpt lat="38.85930833" lon="-9.09681333">
        <ele>15.0</ele>
        <time>2019-05-16T10:43:08.910Z</time>
      </trkpt>
      <trkpt lat="38.85930833" lon="-9.09681333">
        <ele>15.0</ele>
        <time>2019-05-16T10:43:09.934Z</time>
      </trkpt>
      <trkpt lat="38.85932667" lon="-9.09673667">
        <ele>16.0</ele>
        <time>2019-05-16T10:43:10.906Z</time>
      </trkpt>
      <trkpt lat="38.85932667" lon="-9.09673667">
        <ele>16.0</ele>
        <time>2019-05-16T10:43:11.936Z</time>
      </trkpt>
      <trkpt lat="38.85934333" lon="-9.09665667">
        <ele>16.0</ele>
        <time>2019-05-16T10:43:12.907Z</time>
      </trkpt>
      <trkpt lat="38.85934333" lon="-9.09665667">
        <ele>16.0</ele>
        <time>2019-05-16T10:43:13.928Z</time>
      </trkpt>
      <trkpt lat="38.85936" lon="-9.09657833">
        <ele>16.0</ele>
        <time>2019-05-16T10:43:14.898Z</time>
      </trkpt>
      <trkpt lat="38.85936" lon="-9.09657833">
        <ele>16.0</ele>
        <time>2019-05-16T10:43:15.907Z</time>
      </trkpt>
      <trkpt lat="38.85937667" lon="-9.09650167">
        <ele>17.0</ele>
        <time>2019-05-16T10:43:16.916Z</time>
      </trkpt>
      <trkpt lat="38.85937667" lon="-9.09650167">
        <ele>17.0</ele>
        <time>2019-05-16T10:43:17.904Z</time>
      </trkpt>
      <trkpt lat="38.85939" lon="-9.09642667">
        <ele>17.0</ele>
        <time>2019-05-16T10:43:18.913Z</time>
      </trkpt>
      <trkpt lat="38.85939" lon="-9.09642667">
        <ele>17.0</ele>
        <time>2019-05-16T10:43:19.902Z</time>
      </trkpt>
      <trkpt lat="38.85940667" lon="-9.09635">
        <ele>17.0</ele>
        <time>2019-05-16T10:43:20.925Z</time>
      </trkpt>
      <trkpt lat="38.85940667" lon="-9.09635">
        <ele>17.0</ele>
        <time>2019-05-16T10:43:21.907Z</time>
      </trkpt>
      <trkpt lat="38.85942333" lon="-9.096275">
        <ele>17.0</ele>
        <time>2019-05-16T10:43:22.953Z</time>
      </trkpt>
      <trkpt lat="38.85942333" lon="-9.096275">
        <ele>17.0</ele>
        <time>2019-05-16T10:43:23.910Z</time>
      </trkpt>
      <trkpt lat="38.85943833" lon="-9.0962">
        <ele>17.0</ele>
        <time>2019-05-16T10:43:24.919Z</time>
      </trkpt>
      <trkpt lat="38.85943833" lon="-9.0962">
        <ele>17.0</ele>
        <time>2019-05-16T10:43:25.913Z</time>
      </trkpt>
      <trkpt lat="38.85945167" lon="-9.09613">
        <ele>17.0</ele>
        <time>2019-05-16T10:43:26.925Z</time>
      </trkpt>
      <trkpt lat="38.85945167" lon="-9.09613">
        <ele>17.0</ele>
        <time>2019-05-16T10:43:27.927Z</time>
      </trkpt>
      <trkpt lat="38.859465" lon="-9.096065">
        <ele>17.0</ele>
        <time>2019-05-16T10:43:28.897Z</time>
      </trkpt>
      <trkpt lat="38.859465" lon="-9.096065">
        <ele>17.0</ele>
        <time>2019-05-16T10:43:29.909Z</time>
      </trkpt>
      <trkpt lat="38.859485" lon="-9.09599">
        <ele>17.0</ele>
        <time>2019-05-16T10:43:30.921Z</time>
      </trkpt>
      <trkpt lat="38.859485" lon="-9.09599">
        <ele>17.0</ele>
        <time>2019-05-16T10:43:31.910Z</time>
      </trkpt>
      <trkpt lat="38.85951" lon="-9.09592">
        <ele>17.0</ele>
        <time>2019-05-16T10:43:32.922Z</time>
      </trkpt>
      <trkpt lat="38.85952" lon="-9.09588833">
        <ele>18.0</ele>
        <time>2019-05-16T10:43:33.935Z</time>
      </trkpt>
      <trkpt lat="38.85952" lon="-9.09588833">
        <ele>18.0</ele>
        <time>2019-05-16T10:43:34.927Z</time>
      </trkpt>
      <trkpt lat="38.85954333" lon="-9.09582833">
        <ele>18.0</ele>
        <time>2019-05-16T10:43:35.912Z</time>
      </trkpt>
      <trkpt lat="38.85955667" lon="-9.09580333">
        <ele>18.0</ele>
        <time>2019-05-16T10:43:36.913Z</time>
      </trkpt>
      <trkpt lat="38.85955667" lon="-9.09580333">
        <ele>18.0</ele>
        <time>2019-05-16T10:43:37.908Z</time>
      </trkpt>
      <trkpt lat="38.85958667" lon="-9.09575">
        <ele>18.0</ele>
        <time>2019-05-16T10:43:38.922Z</time>
      </trkpt>
      <trkpt lat="38.85960333" lon="-9.09572167">
        <ele>18.0</ele>
        <time>2019-05-16T10:43:39.931Z</time>
      </trkpt>
      <trkpt lat="38.85960333" lon="-9.09572167">
        <ele>18.0</ele>
        <time>2019-05-16T10:43:40.923Z</time>
      </trkpt>
      <trkpt lat="38.85963833" lon="-9.09566333">
        <ele>18.0</ele>
        <time>2019-05-16T10:43:41.936Z</time>
      </trkpt>
      <trkpt lat="38.85965667" lon="-9.095635">
        <ele>18.0</ele>
        <time>2019-05-16T10:43:42.903Z</time>
      </trkpt>
      <trkpt lat="38.85965667" lon="-9.095635">
        <ele>18.0</ele>
        <time>2019-05-16T10:43:43.932Z</time>
      </trkpt>
      <trkpt lat="38.85969333" lon="-9.09557167">
        <ele>18.0</ele>
        <time>2019-05-16T10:43:44.913Z</time>
      </trkpt>
      <trkpt lat="38.85969333" lon="-9.09557167">
        <ele>18.0</ele>
        <time>2019-05-16T10:43:45.899Z</time>
      </trkpt>
      <trkpt lat="38.859735" lon="-9.09551167">
        <ele>18.0</ele>
        <time>2019-05-16T10:43:46.909Z</time>
      </trkpt>
      <trkpt lat="38.859735" lon="-9.09551167">
        <ele>18.0</ele>
        <time>2019-05-16T10:43:47.901Z</time>
      </trkpt>
      <trkpt lat="38.85977833" lon="-9.09545167">
        <ele>18.0</ele>
        <time>2019-05-16T10:43:48.914Z</time>
      </trkpt>
      <trkpt lat="38.85977833" lon="-9.09545167">
        <ele>18.0</ele>
        <time>2019-05-16T10:43:49.904Z</time>
      </trkpt>
      <trkpt lat="38.85982333" lon="-9.09538667">
        <ele>17.0</ele>
        <time>2019-05-16T10:43:50.913Z</time>
      </trkpt>
      <trkpt lat="38.85982333" lon="-9.09538667">
        <ele>17.0</ele>
        <time>2019-05-16T10:43:51.920Z</time>
      </trkpt>
      <trkpt lat="38.85987333" lon="-9.09532333">
        <ele>17.0</ele>
        <time>2019-05-16T10:43:52.911Z</time>
      </trkpt>
      <trkpt lat="38.85987333" lon="-9.09532333">
        <ele>17.0</ele>
        <time>2019-05-16T10:43:53.911Z</time>
      </trkpt>
      <trkpt lat="38.859925" lon="-9.09526">
        <ele>17.0</ele>
        <time>2019-05-16T10:43:54.919Z</time>
      </trkpt>
      <trkpt lat="38.859925" lon="-9.09526">
        <ele>17.0</ele>
        <time>2019-05-16T10:43:55.902Z</time>
      </trkpt>
      <trkpt lat="38.85998167" lon="-9.09519667">
        <ele>17.0</ele>
        <time>2019-05-16T10:43:56.910Z</time>
      </trkpt>
      <trkpt lat="38.86001" lon="-9.09516333">
        <ele>17.0</ele>
        <time>2019-05-16T10:43:57.916Z</time>
      </trkpt>
      <trkpt lat="38.86001" lon="-9.09516333">
        <ele>17.0</ele>
        <time>2019-05-16T10:43:58.902Z</time>
      </trkpt>
      <trkpt lat="38.86007167" lon="-9.0951">
        <ele>17.0</ele>
        <time>2019-05-16T10:43:59.911Z</time>
      </trkpt>
      <trkpt lat="38.86010167" lon="-9.09506667">
        <ele>17.0</ele>
        <time>2019-05-16T10:44:00.900Z</time>
      </trkpt>
      <trkpt lat="38.86010167" lon="-9.09506667">
        <ele>17.0</ele>
        <time>2019-05-16T10:44:01.904Z</time>
      </trkpt>
      <trkpt lat="38.860165" lon="-9.095">
        <ele>17.0</ele>
        <time>2019-05-16T10:44:02.920Z</time>
      </trkpt>
      <trkpt lat="38.860165" lon="-9.095">
        <ele>17.0</ele>
        <time>2019-05-16T10:44:03.907Z</time>
      </trkpt>
      <trkpt lat="38.86023167" lon="-9.09493167">
        <ele>17.0</ele>
        <time>2019-05-16T10:44:04.915Z</time>
      </trkpt>
      <trkpt lat="38.860265" lon="-9.09489667">
        <ele>17.0</ele>
        <time>2019-05-16T10:44:05.909Z</time>
      </trkpt>
      <trkpt lat="38.86029833" lon="-9.09486">
        <ele>17.0</ele>
        <time>2019-05-16T10:44:06.916Z</time>
      </trkpt>
      <trkpt lat="38.86029833" lon="-9.09486">
        <ele>17.0</ele>
        <time>2019-05-16T10:44:07.897Z</time>
      </trkpt>
      <trkpt lat="38.86036667" lon="-9.09478833">
        <ele>17.0</ele>
        <time>2019-05-16T10:44:08.908Z</time>
      </trkpt>
      <trkpt lat="38.86036667" lon="-9.09478833">
        <ele>17.0</ele>
        <time>2019-05-16T10:44:09.911Z</time>
      </trkpt>
      <trkpt lat="38.86043667" lon="-9.09472">
        <ele>17.0</ele>
        <time>2019-05-16T10:44:10.920Z</time>
      </trkpt>
      <trkpt lat="38.86047" lon="-9.094685">
        <ele>17.0</ele>
        <time>2019-05-16T10:44:11.902Z</time>
      </trkpt>
      <trkpt lat="38.86050333" lon="-9.09464833">
        <ele>17.0</ele>
        <time>2019-05-16T10:44:12.928Z</time>
      </trkpt>
      <trkpt lat="38.86050333" lon="-9.09464833">
        <ele>17.0</ele>
        <time>2019-05-16T10:44:13.931Z</time>
      </trkpt>
      <trkpt lat="38.86057167" lon="-9.09457833">
        <ele>17.0</ele>
        <time>2019-05-16T10:44:14.900Z</time>
      </trkpt>
      <trkpt lat="38.860605" lon="-9.09454333">
        <ele>17.0</ele>
        <time>2019-05-16T10:44:15.906Z</time>
      </trkpt>
      <trkpt lat="38.860605" lon="-9.09454333">
        <ele>17.0</ele>
        <time>2019-05-16T10:44:16.900Z</time>
      </trkpt>
      <trkpt lat="38.86067" lon="-9.09447833">
        <ele>17.0</ele>
        <time>2019-05-16T10:44:17.909Z</time>
      </trkpt>
      <trkpt lat="38.86070167" lon="-9.09444667">
        <ele>17.0</ele>
        <time>2019-05-16T10:44:18.904Z</time>
      </trkpt>
      <trkpt lat="38.86070167" lon="-9.09444667">
        <ele>17.0</ele>
        <time>2019-05-16T10:44:19.934Z</time>
      </trkpt>
      <trkpt lat="38.86076167" lon="-9.09438">
        <ele>17.0</ele>
        <time>2019-05-16T10:44:20.915Z</time>
      </trkpt>
      <trkpt lat="38.86076167" lon="-9.09438">
        <ele>17.0</ele>
        <time>2019-05-16T10:44:21.930Z</time>
      </trkpt>
      <trkpt lat="38.86082167" lon="-9.094315">
        <ele>17.0</ele>
        <time>2019-05-16T10:44:22.901Z</time>
      </trkpt>
      <trkpt lat="38.86082167" lon="-9.094315">
        <ele>17.0</ele>
        <time>2019-05-16T10:44:23.909Z</time>
      </trkpt>
      <trkpt lat="38.86088333" lon="-9.09425333">
        <ele>17.0</ele>
        <time>2019-05-16T10:44:24.930Z</time>
      </trkpt>
      <trkpt lat="38.86088333" lon="-9.09425333">
        <ele>17.0</ele>
        <time>2019-05-16T10:44:25.910Z</time>
      </trkpt>
      <trkpt lat="38.86094" lon="-9.09419167">
        <ele>17.0</ele>
        <time>2019-05-16T10:44:26.921Z</time>
      </trkpt>
      <trkpt lat="38.86096667" lon="-9.09416167">
        <ele>17.0</ele>
        <time>2019-05-16T10:44:27.900Z</time>
      </trkpt>
      <trkpt lat="38.86096667" lon="-9.09416167">
        <ele>17.0</ele>
        <time>2019-05-16T10:44:28.920Z</time>
      </trkpt>
      <trkpt lat="38.86101833" lon="-9.09409833">
        <ele>17.0</ele>
        <time>2019-05-16T10:44:29.929Z</time>
      </trkpt>
      <trkpt lat="38.861045" lon="-9.09406667">
        <ele>17.0</ele>
        <time>2019-05-16T10:44:30.909Z</time>
      </trkpt>
      <trkpt lat="38.861045" lon="-9.09406667">
        <ele>17.0</ele>
        <time>2019-05-16T10:44:31.911Z</time>
      </trkpt>
      <trkpt lat="38.86109833" lon="-9.094005">
        <ele>18.0</ele>
        <time>2019-05-16T10:44:32.928Z</time>
      </trkpt>
      <trkpt lat="38.86109833" lon="-9.094005">
        <ele>18.0</ele>
        <time>2019-05-16T10:44:33.927Z</time>
      </trkpt>
      <trkpt lat="38.86115" lon="-9.09394833">
        <ele>18.0</ele>
        <time>2019-05-16T10:44:34.904Z</time>
      </trkpt>
      <trkpt lat="38.86118" lon="-9.09392167">
        <ele>18.0</ele>
        <time>2019-05-16T10:44:35.936Z</time>
      </trkpt>
      <trkpt lat="38.86118" lon="-9.09392167">
        <ele>18.0</ele>
        <time>2019-05-16T10:44:36.926Z</time>
      </trkpt>
      <trkpt lat="38.86123167" lon="-9.093865">
        <ele>18.0</ele>
        <time>2019-05-16T10:44:37.897Z</time>
      </trkpt>
      <trkpt lat="38.86123167" lon="-9.093865">
        <ele>18.0</ele>
        <time>2019-05-16T10:44:38.923Z</time>
      </trkpt>
      <trkpt lat="38.861285" lon="-9.09381167">
        <ele>18.0</ele>
        <time>2019-05-16T10:44:39.935Z</time>
      </trkpt>
      <trkpt lat="38.86131167" lon="-9.09378333">
        <ele>18.0</ele>
        <time>2019-05-16T10:44:40.917Z</time>
      </trkpt>
      <trkpt lat="38.86133667" lon="-9.093755">
        <ele>18.0</ele>
        <time>2019-05-16T10:44:41.897Z</time>
      </trkpt>
      <trkpt lat="38.86133667" lon="-9.093755">
        <ele>18.0</ele>
        <time>2019-05-16T10:44:42.931Z</time>
      </trkpt>
      <trkpt lat="38.86138667" lon="-9.0937">
        <ele>19.0</ele>
        <time>2019-05-16T10:44:43.904Z</time>
      </trkpt>
      <trkpt lat="38.86138667" lon="-9.0937">
        <ele>19.0</ele>
        <time>2019-05-16T10:44:44.934Z</time>
      </trkpt>
      <trkpt lat="38.86143833" lon="-9.09364667">
        <ele>19.0</ele>
        <time>2019-05-16T10:44:45.905Z</time>
      </trkpt>
      <trkpt lat="38.86143833" lon="-9.09364667">
        <ele>19.0</ele>
        <time>2019-05-16T10:44:46.917Z</time>
      </trkpt>
      <trkpt lat="38.86149" lon="-9.09359333">
        <ele>19.0</ele>
        <time>2019-05-16T10:44:47.934Z</time>
      </trkpt>
      <trkpt lat="38.861515" lon="-9.09356667">
        <ele>19.0</ele>
        <time>2019-05-16T10:44:48.937Z</time>
      </trkpt>
      <trkpt lat="38.861515" lon="-9.09356667">
        <ele>19.0</ele>
        <time>2019-05-16T10:44:49.905Z</time>
      </trkpt>
      <trkpt lat="38.86156167" lon="-9.09351167">
        <ele>19.0</ele>
        <time>2019-05-16T10:44:50.919Z</time>
      </trkpt>
      <trkpt lat="38.86156167" lon="-9.09351167">
        <ele>19.0</ele>
        <time>2019-05-16T10:44:51.906Z</time>
      </trkpt>
      <trkpt lat="38.86160833" lon="-9.09345833">
        <ele>19.0</ele>
        <time>2019-05-16T10:44:52.920Z</time>
      </trkpt>
      <trkpt lat="38.86160833" lon="-9.09345833">
        <ele>19.0</ele>
        <time>2019-05-16T10:44:53.929Z</time>
      </trkpt>
      <trkpt lat="38.86166" lon="-9.093405">
        <ele>19.0</ele>
        <time>2019-05-16T10:44:54.909Z</time>
      </trkpt>
      <trkpt lat="38.86166" lon="-9.093405">
        <ele>19.0</ele>
        <time>2019-05-16T10:44:55.897Z</time>
      </trkpt>
      <trkpt lat="38.86171167" lon="-9.09335">
        <ele>19.0</ele>
        <time>2019-05-16T10:44:56.918Z</time>
      </trkpt>
      <trkpt lat="38.86171167" lon="-9.09335">
        <ele>19.0</ele>
        <time>2019-05-16T10:44:57.908Z</time>
      </trkpt>
      <trkpt lat="38.86176167" lon="-9.093295">
        <ele>19.0</ele>
        <time>2019-05-16T10:44:58.916Z</time>
      </trkpt>
      <trkpt lat="38.86176167" lon="-9.093295">
        <ele>19.0</ele>
        <time>2019-05-16T10:44:59.903Z</time>
      </trkpt>
      <trkpt lat="38.86181" lon="-9.09324333">
        <ele>20.0</ele>
        <time>2019-05-16T10:45:00.911Z</time>
      </trkpt>
      <trkpt lat="38.86181" lon="-9.09324333">
        <ele>20.0</ele>
        <time>2019-05-16T10:45:01.936Z</time>
      </trkpt>
      <trkpt lat="38.86186" lon="-9.09319667">
        <ele>20.0</ele>
        <time>2019-05-16T10:45:02.907Z</time>
      </trkpt>
      <trkpt lat="38.86186" lon="-9.09319667">
        <ele>20.0</ele>
        <time>2019-05-16T10:45:03.932Z</time>
      </trkpt>
      <trkpt lat="38.86190833" lon="-9.09315167">
        <ele>20.0</ele>
        <time>2019-05-16T10:45:04.899Z</time>
      </trkpt>
      <trkpt lat="38.86193167" lon="-9.09312833">
        <ele>20.0</ele>
        <time>2019-05-16T10:45:05.933Z</time>
      </trkpt>
      <trkpt lat="38.86195667" lon="-9.093105">
        <ele>20.0</ele>
        <time>2019-05-16T10:45:06.932Z</time>
      </trkpt>
      <trkpt lat="38.86195667" lon="-9.093105">
        <ele>20.0</ele>
        <time>2019-05-16T10:45:07.910Z</time>
      </trkpt>
      <trkpt lat="38.86201" lon="-9.093055">
        <ele>20.0</ele>
        <time>2019-05-16T10:45:08.923Z</time>
      </trkpt>
      <trkpt lat="38.86203833" lon="-9.09302833">
        <ele>21.0</ele>
        <time>2019-05-16T10:45:09.919Z</time>
      </trkpt>
      <trkpt lat="38.86203833" lon="-9.09302833">
        <ele>21.0</ele>
        <time>2019-05-16T10:45:10.932Z</time>
      </trkpt>
      <trkpt lat="38.862095" lon="-9.09297167">
        <ele>21.0</ele>
        <time>2019-05-16T10:45:11.899Z</time>
      </trkpt>
      <trkpt lat="38.86212333" lon="-9.09294333">
        <ele>21.0</ele>
        <time>2019-05-16T10:45:12.913Z</time>
      </trkpt>
      <trkpt lat="38.86212333" lon="-9.09294333">
        <ele>21.0</ele>
        <time>2019-05-16T10:45:13.906Z</time>
      </trkpt>
      <trkpt lat="38.862175" lon="-9.09288167">
        <ele>21.0</ele>
        <time>2019-05-16T10:45:14.917Z</time>
      </trkpt>
      <trkpt lat="38.862175" lon="-9.09288167">
        <ele>21.0</ele>
        <time>2019-05-16T10:45:15.927Z</time>
      </trkpt>
      <trkpt lat="38.86222667" lon="-9.092825">
        <ele>21.0</ele>
        <time>2019-05-16T10:45:16.915Z</time>
      </trkpt>
      <trkpt lat="38.86222667" lon="-9.092825">
        <ele>21.0</ele>
        <time>2019-05-16T10:45:17.914Z</time>
      </trkpt>
      <trkpt lat="38.86228167" lon="-9.09278">
        <ele>20.0</ele>
        <time>2019-05-16T10:45:18.910Z</time>
      </trkpt>
      <trkpt lat="38.86228167" lon="-9.09278">
        <ele>20.0</ele>
        <time>2019-05-16T10:45:19.909Z</time>
      </trkpt>
      <trkpt lat="38.86233333" lon="-9.09273167">
        <ele>20.0</ele>
        <time>2019-05-16T10:45:20.933Z</time>
      </trkpt>
      <trkpt lat="38.86233333" lon="-9.09273167">
        <ele>20.0</ele>
        <time>2019-05-16T10:45:21.903Z</time>
      </trkpt>
      <trkpt lat="38.86238167" lon="-9.09268">
        <ele>20.0</ele>
        <time>2019-05-16T10:45:22.914Z</time>
      </trkpt>
      <trkpt lat="38.86238167" lon="-9.09268">
        <ele>20.0</ele>
        <time>2019-05-16T10:45:23.901Z</time>
      </trkpt>
      <trkpt lat="38.86243667" lon="-9.09262833">
        <ele>20.0</ele>
        <time>2019-05-16T10:45:24.911Z</time>
      </trkpt>
      <trkpt lat="38.86246333" lon="-9.0926">
        <ele>20.0</ele>
        <time>2019-05-16T10:45:25.929Z</time>
      </trkpt>
      <trkpt lat="38.86246333" lon="-9.0926">
        <ele>20.0</ele>
        <time>2019-05-16T10:45:26.922Z</time>
      </trkpt>
      <trkpt lat="38.86251667" lon="-9.092545">
        <ele>21.0</ele>
        <time>2019-05-16T10:45:27.930Z</time>
      </trkpt>
      <trkpt lat="38.86251667" lon="-9.092545">
        <ele>21.0</ele>
        <time>2019-05-16T10:45:28.903Z</time>
      </trkpt>
      <trkpt lat="38.862575" lon="-9.09250167">
        <ele>21.0</ele>
        <time>2019-05-16T10:45:29.917Z</time>
      </trkpt>
      <trkpt lat="38.862605" lon="-9.09248167">
        <ele>21.0</ele>
        <time>2019-05-16T10:45:30.930Z</time>
      </trkpt>
      <trkpt lat="38.862605" lon="-9.09248167">
        <ele>21.0</ele>
        <time>2019-05-16T10:45:31.932Z</time>
      </trkpt>
      <trkpt lat="38.86266667" lon="-9.092445">
        <ele>22.0</ele>
        <time>2019-05-16T10:45:32.902Z</time>
      </trkpt>
      <trkpt lat="38.86266667" lon="-9.092445">
        <ele>22.0</ele>
        <time>2019-05-16T10:45:33.901Z</time>
      </trkpt>
      <trkpt lat="38.86272333" lon="-9.092415">
        <ele>21.0</ele>
        <time>2019-05-16T10:45:34.913Z</time>
      </trkpt>
      <trkpt lat="38.86272333" lon="-9.092415">
        <ele>21.0</ele>
        <time>2019-05-16T10:45:35.927Z</time>
      </trkpt>
      <trkpt lat="38.86277" lon="-9.09237833">
        <ele>21.0</ele>
        <time>2019-05-16T10:45:36.940Z</time>
      </trkpt>
      <trkpt lat="38.86277" lon="-9.09237833">
        <ele>21.0</ele>
        <time>2019-05-16T10:45:37.910Z</time>
      </trkpt>
      <trkpt lat="38.86280333" lon="-9.09233">
        <ele>21.0</ele>
        <time>2019-05-16T10:45:38.929Z</time>
      </trkpt>
      <trkpt lat="38.86280333" lon="-9.09233">
        <ele>21.0</ele>
        <time>2019-05-16T10:45:39.920Z</time>
      </trkpt>
      <trkpt lat="38.86283667" lon="-9.09228833">
        <ele>21.0</ele>
        <time>2019-05-16T10:45:40.936Z</time>
      </trkpt>
      <trkpt lat="38.86285333" lon="-9.09226667">
        <ele>21.0</ele>
        <time>2019-05-16T10:45:41.899Z</time>
      </trkpt>
      <trkpt lat="38.86286833" lon="-9.09224667">
        <ele>21.0</ele>
        <time>2019-05-16T10:45:42.897Z</time>
      </trkpt>
      <trkpt lat="38.86286833" lon="-9.09224667">
        <ele>21.0</ele>
        <time>2019-05-16T10:45:43.910Z</time>
      </trkpt>
      <trkpt lat="38.86289" lon="-9.092215">
        <ele>20.0</ele>
        <time>2019-05-16T10:45:44.918Z</time>
      </trkpt>
      <trkpt lat="38.86290333" lon="-9.09221833">
        <ele>19.0</ele>
        <time>2019-05-16T10:45:45.912Z</time>
      </trkpt>
      <trkpt lat="38.86290333" lon="-9.09221833">
        <ele>19.0</ele>
        <time>2019-05-16T10:45:46.903Z</time>
      </trkpt>
      <trkpt lat="38.86293" lon="-9.09224667">
        <ele>18.0</ele>
        <time>2019-05-16T10:45:47.924Z</time>
      </trkpt>
      <trkpt lat="38.86293167" lon="-9.09226833">
        <ele>18.0</ele>
        <time>2019-05-16T10:45:48.917Z</time>
      </trkpt>
      <trkpt lat="38.86293167" lon="-9.09226833">
        <ele>18.0</ele>
        <time>2019-05-16T10:45:49.897Z</time>
      </trkpt>
      <trkpt lat="38.86290333" lon="-9.09227167">
        <ele>17.0</ele>
        <time>2019-05-16T10:45:50.907Z</time>
      </trkpt>
      <trkpt lat="38.86290333" lon="-9.09227167">
        <ele>17.0</ele>
        <time>2019-05-16T10:45:51.917Z</time>
      </trkpt>
      <trkpt lat="38.86289833" lon="-9.09224333">
        <ele>17.0</ele>
        <time>2019-05-16T10:45:52.930Z</time>
      </trkpt>
      <trkpt lat="38.86289833" lon="-9.09224333">
        <ele>17.0</ele>
        <time>2019-05-16T10:45:53.936Z</time>
      </trkpt>
      <trkpt lat="38.862905" lon="-9.09223333">
        <ele>17.0</ele>
        <time>2019-05-16T10:45:54.902Z</time>
      </trkpt>
      <trkpt lat="38.862905" lon="-9.09223333">
        <ele>17.0</ele>
        <time>2019-05-16T10:45:55.908Z</time>
      </trkpt>
      <trkpt lat="38.86291167" lon="-9.09223333">
        <ele>17.0</ele>
        <time>2019-05-16T10:45:56.914Z</time>
      </trkpt>
      <trkpt lat="38.86291167" lon="-9.09223333">
        <ele>17.0</ele>
        <time>2019-05-16T10:45:57.899Z</time>
      </trkpt>
      <trkpt lat="38.86291667" lon="-9.09223333">
        <ele>18.0</ele>
        <time>2019-05-16T10:45:58.900Z</time>
      </trkpt>
      <trkpt lat="38.86291667" lon="-9.09223333">
        <ele>18.0</ele>
        <time>2019-05-16T10:45:59.935Z</time>
      </trkpt>
      <trkpt lat="38.86291667" lon="-9.09223333">
        <ele>18.0</ele>
        <time>2019-05-16T10:46:00.902Z</time>
      </trkpt>
      <trkpt lat="38.86291667" lon="-9.09223333">
        <ele>18.0</ele>
        <time>2019-05-16T10:46:01.935Z</time>
      </trkpt>
      <trkpt lat="38.86293833" lon="-9.09223833">
        <ele>18.0</ele>
        <time>2019-05-16T10:46:02.900Z</time>
      </trkpt>
      <trkpt lat="38.86293833" lon="-9.09223833">
        <ele>18.0</ele>
        <time>2019-05-16T10:46:03.935Z</time>
      </trkpt>
      <trkpt lat="38.86296" lon="-9.09224333">
        <ele>18.0</ele>
        <time>2019-05-16T10:46:04.900Z</time>
      </trkpt>
      <trkpt lat="38.86296" lon="-9.09224333">
        <ele>18.0</ele>
        <time>2019-05-16T10:46:05.935Z</time>
      </trkpt>
      <trkpt lat="38.86298667" lon="-9.09225167">
        <ele>18.0</ele>
        <time>2019-05-16T10:46:06.902Z</time>
      </trkpt>
      <trkpt lat="38.86298667" lon="-9.09225167">
        <ele>18.0</ele>
        <time>2019-05-16T10:46:07.898Z</time>
      </trkpt>
      <trkpt lat="38.86301833" lon="-9.09226">
        <ele>18.0</ele>
        <time>2019-05-16T10:46:08.960Z</time>
      </trkpt>
      <trkpt lat="38.86301833" lon="-9.09226">
        <ele>18.0</ele>
        <time>2019-05-16T10:46:09.911Z</time>
      </trkpt>
      <trkpt lat="38.86305333" lon="-9.092255">
        <ele>18.0</ele>
        <time>2019-05-16T10:46:10.921Z</time>
      </trkpt>
      <trkpt lat="38.86307" lon="-9.09226333">
        <ele>18.0</ele>
        <time>2019-05-16T10:46:11.922Z</time>
      </trkpt>
      <trkpt lat="38.86307" lon="-9.09226333">
        <ele>18.0</ele>
        <time>2019-05-16T10:46:12.906Z</time>
      </trkpt>
      <trkpt lat="38.86310333" lon="-9.09228833">
        <ele>18.0</ele>
        <time>2019-05-16T10:46:13.917Z</time>
      </trkpt>
      <trkpt lat="38.86312" lon="-9.09230167">
        <ele>18.0</ele>
        <time>2019-05-16T10:46:14.930Z</time>
      </trkpt>
      <trkpt lat="38.86312" lon="-9.09230167">
        <ele>18.0</ele>
        <time>2019-05-16T10:46:15.929Z</time>
      </trkpt>
      <trkpt lat="38.86316" lon="-9.092315">
        <ele>18.0</ele>
        <time>2019-05-16T10:46:16.902Z</time>
      </trkpt>
      <trkpt lat="38.86316" lon="-9.092315">
        <ele>18.0</ele>
        <time>2019-05-16T10:46:17.929Z</time>
      </trkpt>
      <trkpt lat="38.86320833" lon="-9.09231667">
        <ele>18.0</ele>
        <time>2019-05-16T10:46:18.938Z</time>
      </trkpt>
      <trkpt lat="38.86320833" lon="-9.09231667">
        <ele>18.0</ele>
        <time>2019-05-16T10:46:19.922Z</time>
      </trkpt>
      <trkpt lat="38.863245" lon="-9.092305">
        <ele>19.0</ele>
        <time>2019-05-16T10:46:20.904Z</time>
      </trkpt>
      <trkpt lat="38.863245" lon="-9.092305">
        <ele>19.0</ele>
        <time>2019-05-16T10:46:21.908Z</time>
      </trkpt>
      <trkpt lat="38.86326667" lon="-9.09228333">
        <ele>20.0</ele>
        <time>2019-05-16T10:46:22.920Z</time>
      </trkpt>
      <trkpt lat="38.86326667" lon="-9.09228333">
        <ele>20.0</ele>
        <time>2019-05-16T10:46:23.901Z</time>
      </trkpt>
      <trkpt lat="38.86328333" lon="-9.09225167">
        <ele>20.0</ele>
        <time>2019-05-16T10:46:24.912Z</time>
      </trkpt>
      <trkpt lat="38.86328333" lon="-9.09225167">
        <ele>20.0</ele>
        <time>2019-05-16T10:46:25.924Z</time>
      </trkpt>
      <trkpt lat="38.86329333" lon="-9.09221167">
        <ele>21.0</ele>
        <time>2019-05-16T10:46:26.934Z</time>
      </trkpt>
      <trkpt lat="38.86329333" lon="-9.09221167">
        <ele>21.0</ele>
        <time>2019-05-16T10:46:27.906Z</time>
      </trkpt>
      <trkpt lat="38.86331833" lon="-9.09217">
        <ele>22.0</ele>
        <time>2019-05-16T10:46:28.920Z</time>
      </trkpt>
      <trkpt lat="38.86333" lon="-9.09215">
        <ele>22.0</ele>
        <time>2019-05-16T10:46:29.909Z</time>
      </trkpt>
      <trkpt lat="38.86334" lon="-9.09212833">
        <ele>22.0</ele>
        <time>2019-05-16T10:46:30.904Z</time>
      </trkpt>
      <trkpt lat="38.86334" lon="-9.09212833">
        <ele>22.0</ele>
        <time>2019-05-16T10:46:31.935Z</time>
      </trkpt>
      <trkpt lat="38.86336" lon="-9.09208167">
        <ele>23.0</ele>
        <time>2019-05-16T10:46:32.903Z</time>
      </trkpt>
      <trkpt lat="38.86336" lon="-9.09208167">
        <ele>23.0</ele>
        <time>2019-05-16T10:46:33.927Z</time>
      </trkpt>
      <trkpt lat="38.86339833" lon="-9.09204">
        <ele>24.0</ele>
        <time>2019-05-16T10:46:34.939Z</time>
      </trkpt>
      <trkpt lat="38.86339833" lon="-9.09204">
        <ele>24.0</ele>
        <time>2019-05-16T10:46:35.927Z</time>
      </trkpt>
      <trkpt lat="38.86342333" lon="-9.09198667">
        <ele>25.0</ele>
        <time>2019-05-16T10:46:36.897Z</time>
      </trkpt>
      <trkpt lat="38.86342333" lon="-9.09198667">
        <ele>25.0</ele>
        <time>2019-05-16T10:46:37.912Z</time>
      </trkpt>
      <trkpt lat="38.86344667" lon="-9.09193">
        <ele>26.0</ele>
        <time>2019-05-16T10:46:38.931Z</time>
      </trkpt>
      <trkpt lat="38.86344667" lon="-9.09193">
        <ele>26.0</ele>
        <time>2019-05-16T10:46:39.925Z</time>
      </trkpt>
      <trkpt lat="38.86346833" lon="-9.09187333">
        <ele>27.0</ele>
        <time>2019-05-16T10:46:40.932Z</time>
      </trkpt>
      <trkpt lat="38.86346833" lon="-9.09187333">
        <ele>27.0</ele>
        <time>2019-05-16T10:46:41.897Z</time>
      </trkpt>
      <trkpt lat="38.863485" lon="-9.09180667">
        <ele>27.0</ele>
        <time>2019-05-16T10:46:42.915Z</time>
      </trkpt>
      <trkpt lat="38.863485" lon="-9.09180667">
        <ele>27.0</ele>
        <time>2019-05-16T10:46:43.932Z</time>
      </trkpt>
      <trkpt lat="38.863495" lon="-9.09172833">
        <ele>29.0</ele>
        <time>2019-05-16T10:46:44.926Z</time>
      </trkpt>
      <trkpt lat="38.86350167" lon="-9.09169333">
        <ele>29.0</ele>
        <time>2019-05-16T10:46:45.908Z</time>
      </trkpt>
      <trkpt lat="38.86350167" lon="-9.09169333">
        <ele>29.0</ele>
        <time>2019-05-16T10:46:46.916Z</time>
      </trkpt>
      <trkpt lat="38.863515" lon="-9.09163">
        <ele>30.0</ele>
        <time>2019-05-16T10:46:47.931Z</time>
      </trkpt>
      <trkpt lat="38.86352333" lon="-9.09159667">
        <ele>30.0</ele>
        <time>2019-05-16T10:46:48.934Z</time>
      </trkpt>
      <trkpt lat="38.86352333" lon="-9.09159667">
        <ele>30.0</ele>
        <time>2019-05-16T10:46:49.921Z</time>
      </trkpt>
      <trkpt lat="38.86354" lon="-9.09152167">
        <ele>31.0</ele>
        <time>2019-05-16T10:46:50.931Z</time>
      </trkpt>
      <trkpt lat="38.86354" lon="-9.09152167">
        <ele>31.0</ele>
        <time>2019-05-16T10:46:51.927Z</time>
      </trkpt>
      <trkpt lat="38.86355833" lon="-9.09145333">
        <ele>32.0</ele>
        <time>2019-05-16T10:46:52.900Z</time>
      </trkpt>
      <trkpt lat="38.86356333" lon="-9.09142">
        <ele>32.0</ele>
        <time>2019-05-16T10:46:53.902Z</time>
      </trkpt>
      <trkpt lat="38.86357" lon="-9.09138833">
        <ele>32.0</ele>
        <time>2019-05-16T10:46:54.904Z</time>
      </trkpt>
      <trkpt lat="38.86357" lon="-9.09138833">
        <ele>32.0</ele>
        <time>2019-05-16T10:46:55.930Z</time>
      </trkpt>
      <trkpt lat="38.86358833" lon="-9.09132167">
        <ele>32.0</ele>
        <time>2019-05-16T10:46:56.901Z</time>
      </trkpt>
      <trkpt lat="38.86359667" lon="-9.09128667">
        <ele>32.0</ele>
        <time>2019-05-16T10:46:57.934Z</time>
      </trkpt>
      <trkpt lat="38.86359667" lon="-9.09128667">
        <ele>32.0</ele>
        <time>2019-05-16T10:46:58.926Z</time>
      </trkpt>
      <trkpt lat="38.86362" lon="-9.09122">
        <ele>32.0</ele>
        <time>2019-05-16T10:46:59.933Z</time>
      </trkpt>
      <trkpt lat="38.86363333" lon="-9.09118667">
        <ele>32.0</ele>
        <time>2019-05-16T10:47:00.908Z</time>
      </trkpt>
      <trkpt lat="38.86363333" lon="-9.09118667">
        <ele>32.0</ele>
        <time>2019-05-16T10:47:01.914Z</time>
      </trkpt>
      <trkpt lat="38.86366" lon="-9.09112">
        <ele>32.0</ele>
        <time>2019-05-16T10:47:02.929Z</time>
      </trkpt>
      <trkpt lat="38.86366" lon="-9.09112">
        <ele>32.0</ele>
        <time>2019-05-16T10:47:03.923Z</time>
      </trkpt>
      <trkpt lat="38.86368833" lon="-9.09106167">
        <ele>32.0</ele>
        <time>2019-05-16T10:47:04.933Z</time>
      </trkpt>
      <trkpt lat="38.863705" lon="-9.09103333">
        <ele>32.0</ele>
        <time>2019-05-16T10:47:05.938Z</time>
      </trkpt>
      <trkpt lat="38.86372167" lon="-9.091005">
        <ele>32.0</ele>
        <time>2019-05-16T10:47:06.930Z</time>
      </trkpt>
      <trkpt lat="38.86372167" lon="-9.091005">
        <ele>32.0</ele>
        <time>2019-05-16T10:47:07.909Z</time>
      </trkpt>
      <trkpt lat="38.863755" lon="-9.09095">
        <ele>32.0</ele>
        <time>2019-05-16T10:47:08.916Z</time>
      </trkpt>
      <trkpt lat="38.863755" lon="-9.09095">
        <ele>32.0</ele>
        <time>2019-05-16T10:47:09.899Z</time>
      </trkpt>
      <trkpt lat="38.86378333" lon="-9.09090167">
        <ele>33.0</ele>
        <time>2019-05-16T10:47:10.914Z</time>
      </trkpt>
      <trkpt lat="38.86378333" lon="-9.09090167">
        <ele>33.0</ele>
        <time>2019-05-16T10:47:11.928Z</time>
      </trkpt>
      <trkpt lat="38.86381167" lon="-9.09085167">
        <ele>33.0</ele>
        <time>2019-05-16T10:47:12.936Z</time>
      </trkpt>
      <trkpt lat="38.86381167" lon="-9.09085167">
        <ele>33.0</ele>
        <time>2019-05-16T10:47:13.935Z</time>
      </trkpt>
      <trkpt lat="38.863845" lon="-9.09080167">
        <ele>33.0</ele>
        <time>2019-05-16T10:47:14.909Z</time>
      </trkpt>
      <trkpt lat="38.863845" lon="-9.09080167">
        <ele>33.0</ele>
        <time>2019-05-16T10:47:15.901Z</time>
      </trkpt>
      <trkpt lat="38.86387833" lon="-9.09075">
        <ele>33.0</ele>
        <time>2019-05-16T10:47:16.920Z</time>
      </trkpt>
      <trkpt lat="38.86389333" lon="-9.09072167">
        <ele>34.0</ele>
        <time>2019-05-16T10:47:17.917Z</time>
      </trkpt>
      <trkpt lat="38.86390667" lon="-9.09069333">
        <ele>34.0</ele>
        <time>2019-05-16T10:47:18.926Z</time>
      </trkpt>
      <trkpt lat="38.86390667" lon="-9.09069333">
        <ele>34.0</ele>
        <time>2019-05-16T10:47:19.916Z</time>
      </trkpt>
      <trkpt lat="38.86393667" lon="-9.09064">
        <ele>34.0</ele>
        <time>2019-05-16T10:47:20.897Z</time>
      </trkpt>
      <trkpt lat="38.86393667" lon="-9.09064">
        <ele>34.0</ele>
        <time>2019-05-16T10:47:21.919Z</time>
      </trkpt>
      <trkpt lat="38.86396667" lon="-9.09058333">
        <ele>34.0</ele>
        <time>2019-05-16T10:47:22.932Z</time>
      </trkpt>
      <trkpt lat="38.86396667" lon="-9.09058333">
        <ele>34.0</ele>
        <time>2019-05-16T10:47:23.926Z</time>
      </trkpt>
      <trkpt lat="38.86399833" lon="-9.09052833">
        <ele>35.0</ele>
        <time>2019-05-16T10:47:24.936Z</time>
      </trkpt>
      <trkpt lat="38.86399833" lon="-9.09052833">
        <ele>35.0</ele>
        <time>2019-05-16T10:47:25.902Z</time>
      </trkpt>
      <trkpt lat="38.86402833" lon="-9.09047">
        <ele>35.0</ele>
        <time>2019-05-16T10:47:26.911Z</time>
      </trkpt>
      <trkpt lat="38.86402833" lon="-9.09047">
        <ele>35.0</ele>
        <time>2019-05-16T10:47:27.912Z</time>
      </trkpt>
      <trkpt lat="38.86405167" lon="-9.09041667">
        <ele>35.0</ele>
        <time>2019-05-16T10:47:28.920Z</time>
      </trkpt>
      <trkpt lat="38.86405167" lon="-9.09041667">
        <ele>35.0</ele>
        <time>2019-05-16T10:47:29.908Z</time>
      </trkpt>
      <trkpt lat="38.86408167" lon="-9.09036">
        <ele>35.0</ele>
        <time>2019-05-16T10:47:30.918Z</time>
      </trkpt>
      <trkpt lat="38.86408167" lon="-9.09036">
        <ele>35.0</ele>
        <time>2019-05-16T10:47:31.908Z</time>
      </trkpt>
      <trkpt lat="38.86411333" lon="-9.090305">
        <ele>35.0</ele>
        <time>2019-05-16T10:47:32.921Z</time>
      </trkpt>
      <trkpt lat="38.86411333" lon="-9.090305">
        <ele>35.0</ele>
        <time>2019-05-16T10:47:33.902Z</time>
      </trkpt>
      <trkpt lat="38.86414667" lon="-9.09025167">
        <ele>35.0</ele>
        <time>2019-05-16T10:47:34.911Z</time>
      </trkpt>
      <trkpt lat="38.86414667" lon="-9.09025167">
        <ele>35.0</ele>
        <time>2019-05-16T10:47:35.898Z</time>
      </trkpt>
      <trkpt lat="38.86418" lon="-9.090195">
        <ele>35.0</ele>
        <time>2019-05-16T10:47:36.910Z</time>
      </trkpt>
      <trkpt lat="38.86418" lon="-9.090195">
        <ele>35.0</ele>
        <time>2019-05-16T10:47:37.928Z</time>
      </trkpt>
      <trkpt lat="38.864215" lon="-9.09013667">
        <ele>35.0</ele>
        <time>2019-05-16T10:47:38.903Z</time>
      </trkpt>
      <trkpt lat="38.864215" lon="-9.09013667">
        <ele>35.0</ele>
        <time>2019-05-16T10:47:39.909Z</time>
      </trkpt>
      <trkpt lat="38.86425" lon="-9.09007667">
        <ele>35.0</ele>
        <time>2019-05-16T10:47:40.920Z</time>
      </trkpt>
      <trkpt lat="38.86425" lon="-9.09007667">
        <ele>35.0</ele>
        <time>2019-05-16T10:47:41.931Z</time>
      </trkpt>
      <trkpt lat="38.86428667" lon="-9.09001833">
        <ele>35.0</ele>
        <time>2019-05-16T10:47:42.912Z</time>
      </trkpt>
      <trkpt lat="38.86428667" lon="-9.09001833">
        <ele>35.0</ele>
        <time>2019-05-16T10:47:43.913Z</time>
      </trkpt>
      <trkpt lat="38.86432167" lon="-9.089955">
        <ele>35.0</ele>
        <time>2019-05-16T10:47:44.924Z</time>
      </trkpt>
      <trkpt lat="38.86434167" lon="-9.089925">
        <ele>35.0</ele>
        <time>2019-05-16T10:47:45.906Z</time>
      </trkpt>
      <trkpt lat="38.86434167" lon="-9.089925">
        <ele>35.0</ele>
        <time>2019-05-16T10:47:46.906Z</time>
      </trkpt>
      <trkpt lat="38.86437333" lon="-9.08986333">
        <ele>35.0</ele>
        <time>2019-05-16T10:47:47.916Z</time>
      </trkpt>
      <trkpt lat="38.86437333" lon="-9.08986333">
        <ele>35.0</ele>
        <time>2019-05-16T10:47:48.905Z</time>
      </trkpt>
      <trkpt lat="38.86440667" lon="-9.08980167">
        <ele>35.0</ele>
        <time>2019-05-16T10:47:49.928Z</time>
      </trkpt>
      <trkpt lat="38.864425" lon="-9.08977">
        <ele>35.0</ele>
        <time>2019-05-16T10:47:50.929Z</time>
      </trkpt>
      <trkpt lat="38.864425" lon="-9.08977">
        <ele>35.0</ele>
        <time>2019-05-16T10:47:51.927Z</time>
      </trkpt>
      <trkpt lat="38.86445833" lon="-9.08970167">
        <ele>35.0</ele>
        <time>2019-05-16T10:47:52.940Z</time>
      </trkpt>
      <trkpt lat="38.86445833" lon="-9.08970167">
        <ele>35.0</ele>
        <time>2019-05-16T10:47:53.931Z</time>
      </trkpt>
      <trkpt lat="38.86449" lon="-9.08963">
        <ele>34.0</ele>
        <time>2019-05-16T10:47:54.899Z</time>
      </trkpt>
      <trkpt lat="38.86449" lon="-9.08963">
        <ele>34.0</ele>
        <time>2019-05-16T10:47:55.916Z</time>
      </trkpt>
      <trkpt lat="38.86452667" lon="-9.08955667">
        <ele>34.0</ele>
        <time>2019-05-16T10:47:56.900Z</time>
      </trkpt>
      <trkpt lat="38.86452667" lon="-9.08955667">
        <ele>34.0</ele>
        <time>2019-05-16T10:47:57.936Z</time>
      </trkpt>
      <trkpt lat="38.86457167" lon="-9.08948667">
        <ele>34.0</ele>
        <time>2019-05-16T10:47:58.904Z</time>
      </trkpt>
      <trkpt lat="38.86457167" lon="-9.08948667">
        <ele>34.0</ele>
        <time>2019-05-16T10:47:59.911Z</time>
      </trkpt>
      <trkpt lat="38.86462167" lon="-9.08942">
        <ele>34.0</ele>
        <time>2019-05-16T10:48:00.921Z</time>
      </trkpt>
      <trkpt lat="38.86462167" lon="-9.08942">
        <ele>34.0</ele>
        <time>2019-05-16T10:48:01.909Z</time>
      </trkpt>
      <trkpt lat="38.86468" lon="-9.08936167">
        <ele>34.0</ele>
        <time>2019-05-16T10:48:02.918Z</time>
      </trkpt>
      <trkpt lat="38.86468" lon="-9.08936167">
        <ele>34.0</ele>
        <time>2019-05-16T10:48:03.908Z</time>
      </trkpt>
      <trkpt lat="38.86474" lon="-9.089305">
        <ele>34.0</ele>
        <time>2019-05-16T10:48:04.927Z</time>
      </trkpt>
      <trkpt lat="38.86474" lon="-9.089305">
        <ele>34.0</ele>
        <time>2019-05-16T10:48:05.927Z</time>
      </trkpt>
      <trkpt lat="38.86479833" lon="-9.08925">
        <ele>34.0</ele>
        <time>2019-05-16T10:48:06.909Z</time>
      </trkpt>
      <trkpt lat="38.86479833" lon="-9.08925">
        <ele>34.0</ele>
        <time>2019-05-16T10:48:07.904Z</time>
      </trkpt>
      <trkpt lat="38.86485167" lon="-9.08920333">
        <ele>34.0</ele>
        <time>2019-05-16T10:48:08.911Z</time>
      </trkpt>
      <trkpt lat="38.86485167" lon="-9.08920333">
        <ele>34.0</ele>
        <time>2019-05-16T10:48:09.935Z</time>
      </trkpt>
      <trkpt lat="38.86490333" lon="-9.089165">
        <ele>34.0</ele>
        <time>2019-05-16T10:48:10.902Z</time>
      </trkpt>
      <trkpt lat="38.86490333" lon="-9.089165">
        <ele>34.0</ele>
        <time>2019-05-16T10:48:11.936Z</time>
      </trkpt>
      <trkpt lat="38.864955" lon="-9.08912667">
        <ele>34.0</ele>
        <time>2019-05-16T10:48:12.905Z</time>
      </trkpt>
      <trkpt lat="38.864955" lon="-9.08912667">
        <ele>34.0</ele>
        <time>2019-05-16T10:48:13.932Z</time>
      </trkpt>
      <trkpt lat="38.86500667" lon="-9.08909">
        <ele>34.0</ele>
        <time>2019-05-16T10:48:14.903Z</time>
      </trkpt>
      <trkpt lat="38.86500667" lon="-9.08909">
        <ele>34.0</ele>
        <time>2019-05-16T10:48:15.914Z</time>
      </trkpt>
      <trkpt lat="38.86506" lon="-9.089055">
        <ele>34.0</ele>
        <time>2019-05-16T10:48:16.922Z</time>
      </trkpt>
      <trkpt lat="38.865085" lon="-9.08903667">
        <ele>34.0</ele>
        <time>2019-05-16T10:48:17.914Z</time>
      </trkpt>
      <trkpt lat="38.86511167" lon="-9.08901667">
        <ele>34.0</ele>
        <time>2019-05-16T10:48:18.919Z</time>
      </trkpt>
      <trkpt lat="38.86511167" lon="-9.08901667">
        <ele>34.0</ele>
        <time>2019-05-16T10:48:19.906Z</time>
      </trkpt>
      <trkpt lat="38.86516333" lon="-9.08897833">
        <ele>35.0</ele>
        <time>2019-05-16T10:48:20.897Z</time>
      </trkpt>
      <trkpt lat="38.86519167" lon="-9.08895833">
        <ele>35.0</ele>
        <time>2019-05-16T10:48:21.905Z</time>
      </trkpt>
      <trkpt lat="38.86519167" lon="-9.08895833">
        <ele>35.0</ele>
        <time>2019-05-16T10:48:22.901Z</time>
      </trkpt>
      <trkpt lat="38.86524333" lon="-9.08891333">
        <ele>35.0</ele>
        <time>2019-05-16T10:48:23.917Z</time>
      </trkpt>
      <trkpt lat="38.86527167" lon="-9.08889333">
        <ele>35.0</ele>
        <time>2019-05-16T10:48:24.911Z</time>
      </trkpt>
      <trkpt lat="38.86527167" lon="-9.08889333">
        <ele>35.0</ele>
        <time>2019-05-16T10:48:25.912Z</time>
      </trkpt>
      <trkpt lat="38.86533333" lon="-9.088855">
        <ele>35.0</ele>
        <time>2019-05-16T10:48:26.925Z</time>
      </trkpt>
      <trkpt lat="38.86536667" lon="-9.08883833">
        <ele>35.0</ele>
        <time>2019-05-16T10:48:27.901Z</time>
      </trkpt>
      <trkpt lat="38.8654" lon="-9.08882">
        <ele>35.0</ele>
        <time>2019-05-16T10:48:28.915Z</time>
      </trkpt>
      <trkpt lat="38.8654" lon="-9.08882">
        <ele>35.0</ele>
        <time>2019-05-16T10:48:29.918Z</time>
      </trkpt>
      <trkpt lat="38.86546333" lon="-9.08877667">
        <ele>35.0</ele>
        <time>2019-05-16T10:48:30.935Z</time>
      </trkpt>
      <trkpt lat="38.86546333" lon="-9.08877667">
        <ele>35.0</ele>
        <time>2019-05-16T10:48:31.921Z</time>
      </trkpt>
      <trkpt lat="38.865525" lon="-9.088735">
        <ele>35.0</ele>
        <time>2019-05-16T10:48:32.930Z</time>
      </trkpt>
      <trkpt lat="38.865525" lon="-9.088735">
        <ele>35.0</ele>
        <time>2019-05-16T10:48:33.911Z</time>
      </trkpt>
      <trkpt lat="38.86558167" lon="-9.08869333">
        <ele>35.0</ele>
        <time>2019-05-16T10:48:34.923Z</time>
      </trkpt>
      <trkpt lat="38.86560667" lon="-9.08866667">
        <ele>35.0</ele>
        <time>2019-05-16T10:48:35.901Z</time>
      </trkpt>
      <trkpt lat="38.86562833" lon="-9.08864167">
        <ele>35.0</ele>
        <time>2019-05-16T10:48:36.922Z</time>
      </trkpt>
      <trkpt lat="38.86562833" lon="-9.08864167">
        <ele>35.0</ele>
        <time>2019-05-16T10:48:37.934Z</time>
      </trkpt>
      <trkpt lat="38.865675" lon="-9.08859">
        <ele>35.0</ele>
        <time>2019-05-16T10:48:38.926Z</time>
      </trkpt>
      <trkpt lat="38.865675" lon="-9.08859">
        <ele>35.0</ele>
        <time>2019-05-16T10:48:39.911Z</time>
      </trkpt>
      <trkpt lat="38.86573" lon="-9.08853833">
        <ele>35.0</ele>
        <time>2019-05-16T10:48:40.919Z</time>
      </trkpt>
      <trkpt lat="38.865755" lon="-9.08850833">
        <ele>35.0</ele>
        <time>2019-05-16T10:48:41.931Z</time>
      </trkpt>
      <trkpt lat="38.86578167" lon="-9.08847833">
        <ele>35.0</ele>
        <time>2019-05-16T10:48:42.927Z</time>
      </trkpt>
      <trkpt lat="38.86578167" lon="-9.08847833">
        <ele>35.0</ele>
        <time>2019-05-16T10:48:43.901Z</time>
      </trkpt>
      <trkpt lat="38.865835" lon="-9.08841833">
        <ele>35.0</ele>
        <time>2019-05-16T10:48:44.910Z</time>
      </trkpt>
      <trkpt lat="38.86586" lon="-9.08838667">
        <ele>35.0</ele>
        <time>2019-05-16T10:48:45.904Z</time>
      </trkpt>
      <trkpt lat="38.86586" lon="-9.08838667">
        <ele>35.0</ele>
        <time>2019-05-16T10:48:46.927Z</time>
      </trkpt>
      <trkpt lat="38.86590833" lon="-9.08832167">
        <ele>35.0</ele>
        <time>2019-05-16T10:48:47.937Z</time>
      </trkpt>
      <trkpt lat="38.86593167" lon="-9.08829167">
        <ele>35.0</ele>
        <time>2019-05-16T10:48:48.926Z</time>
      </trkpt>
      <trkpt lat="38.86593167" lon="-9.08829167">
        <ele>35.0</ele>
        <time>2019-05-16T10:48:49.910Z</time>
      </trkpt>
      <trkpt lat="38.86598" lon="-9.08822667">
        <ele>34.0</ele>
        <time>2019-05-16T10:48:50.917Z</time>
      </trkpt>
      <trkpt lat="38.86598" lon="-9.08822667">
        <ele>34.0</ele>
        <time>2019-05-16T10:48:51.907Z</time>
      </trkpt>
      <trkpt lat="38.86602667" lon="-9.08815833">
        <ele>34.0</ele>
        <time>2019-05-16T10:48:52.919Z</time>
      </trkpt>
      <trkpt lat="38.86604833" lon="-9.088125">
        <ele>34.0</ele>
        <time>2019-05-16T10:48:53.934Z</time>
      </trkpt>
      <trkpt lat="38.86607167" lon="-9.08809333">
        <ele>34.0</ele>
        <time>2019-05-16T10:48:54.909Z</time>
      </trkpt>
      <trkpt lat="38.86607167" lon="-9.08809333">
        <ele>34.0</ele>
        <time>2019-05-16T10:48:55.936Z</time>
      </trkpt>
      <trkpt lat="38.866125" lon="-9.08804167">
        <ele>34.0</ele>
        <time>2019-05-16T10:48:56.918Z</time>
      </trkpt>
      <trkpt lat="38.866125" lon="-9.08804167">
        <ele>34.0</ele>
        <time>2019-05-16T10:48:57.901Z</time>
      </trkpt>
      <trkpt lat="38.86618167" lon="-9.08799667">
        <ele>34.0</ele>
        <time>2019-05-16T10:48:58.910Z</time>
      </trkpt>
      <trkpt lat="38.86620833" lon="-9.087975">
        <ele>34.0</ele>
        <time>2019-05-16T10:48:59.913Z</time>
      </trkpt>
      <trkpt lat="38.866235" lon="-9.08795167">
        <ele>34.0</ele>
        <time>2019-05-16T10:49:00.922Z</time>
      </trkpt>
      <trkpt lat="38.866235" lon="-9.08795167">
        <ele>34.0</ele>
        <time>2019-05-16T10:49:01.912Z</time>
      </trkpt>
      <trkpt lat="38.86629167" lon="-9.08790833">
        <ele>34.0</ele>
        <time>2019-05-16T10:49:02.919Z</time>
      </trkpt>
      <trkpt lat="38.86629167" lon="-9.08790833">
        <ele>34.0</ele>
        <time>2019-05-16T10:49:03.906Z</time>
      </trkpt>
      <trkpt lat="38.86634667" lon="-9.08787">
        <ele>34.0</ele>
        <time>2019-05-16T10:49:04.915Z</time>
      </trkpt>
      <trkpt lat="38.86637333" lon="-9.08785">
        <ele>34.0</ele>
        <time>2019-05-16T10:49:05.901Z</time>
      </trkpt>
      <trkpt lat="38.8664" lon="-9.08783167">
        <ele>34.0</ele>
        <time>2019-05-16T10:49:06.901Z</time>
      </trkpt>
      <trkpt lat="38.8664" lon="-9.08783167">
        <ele>34.0</ele>
        <time>2019-05-16T10:49:07.902Z</time>
      </trkpt>
      <trkpt lat="38.866455" lon="-9.08779833">
        <ele>34.0</ele>
        <time>2019-05-16T10:49:08.910Z</time>
      </trkpt>
      <trkpt lat="38.866455" lon="-9.08779833">
        <ele>34.0</ele>
        <time>2019-05-16T10:49:09.899Z</time>
      </trkpt>
      <trkpt lat="38.86651" lon="-9.08776333">
        <ele>34.0</ele>
        <time>2019-05-16T10:49:10.912Z</time>
      </trkpt>
      <trkpt lat="38.86651" lon="-9.08776333">
        <ele>34.0</ele>
        <time>2019-05-16T10:49:11.899Z</time>
      </trkpt>
      <trkpt lat="38.86656333" lon="-9.08773">
        <ele>34.0</ele>
        <time>2019-05-16T10:49:12.933Z</time>
      </trkpt>
      <trkpt lat="38.86656333" lon="-9.08773">
        <ele>34.0</ele>
        <time>2019-05-16T10:49:13.916Z</time>
      </trkpt>
      <trkpt lat="38.86662" lon="-9.087695">
        <ele>34.0</ele>
        <time>2019-05-16T10:49:14.934Z</time>
      </trkpt>
      <trkpt lat="38.86664833" lon="-9.08768">
        <ele>34.0</ele>
        <time>2019-05-16T10:49:15.913Z</time>
      </trkpt>
      <trkpt lat="38.86664833" lon="-9.08768">
        <ele>34.0</ele>
        <time>2019-05-16T10:49:16.928Z</time>
      </trkpt>
      <trkpt lat="38.86671" lon="-9.08765333">
        <ele>34.0</ele>
        <time>2019-05-16T10:49:17.899Z</time>
      </trkpt>
      <trkpt lat="38.86674" lon="-9.08764167">
        <ele>34.0</ele>
        <time>2019-05-16T10:49:18.903Z</time>
      </trkpt>
      <trkpt lat="38.86674" lon="-9.08764167">
        <ele>34.0</ele>
        <time>2019-05-16T10:49:19.924Z</time>
      </trkpt>
      <trkpt lat="38.86679833" lon="-9.08761167">
        <ele>34.0</ele>
        <time>2019-05-16T10:49:20.903Z</time>
      </trkpt>
      <trkpt lat="38.86679833" lon="-9.08761167">
        <ele>34.0</ele>
        <time>2019-05-16T10:49:21.930Z</time>
      </trkpt>
      <trkpt lat="38.86686333" lon="-9.08758">
        <ele>34.0</ele>
        <time>2019-05-16T10:49:22.939Z</time>
      </trkpt>
      <trkpt lat="38.86686333" lon="-9.08758">
        <ele>34.0</ele>
        <time>2019-05-16T10:49:23.931Z</time>
      </trkpt>
      <trkpt lat="38.86692833" lon="-9.08755333">
        <ele>35.0</ele>
        <time>2019-05-16T10:49:24.910Z</time>
      </trkpt>
      <trkpt lat="38.86696" lon="-9.08754">
        <ele>35.0</ele>
        <time>2019-05-16T10:49:25.903Z</time>
      </trkpt>
      <trkpt lat="38.86696" lon="-9.08754">
        <ele>35.0</ele>
        <time>2019-05-16T10:49:26.934Z</time>
      </trkpt>
      <trkpt lat="38.86702333" lon="-9.08751667">
        <ele>35.0</ele>
        <time>2019-05-16T10:49:27.908Z</time>
      </trkpt>
      <trkpt lat="38.86702333" lon="-9.08751667">
        <ele>35.0</ele>
        <time>2019-05-16T10:49:28.927Z</time>
      </trkpt>
      <trkpt lat="38.86708" lon="-9.08749167">
        <ele>35.0</ele>
        <time>2019-05-16T10:49:29.901Z</time>
      </trkpt>
      <trkpt lat="38.86710833" lon="-9.08748167">
        <ele>35.0</ele>
        <time>2019-05-16T10:49:30.898Z</time>
      </trkpt>
      <trkpt lat="38.86710833" lon="-9.08748167">
        <ele>35.0</ele>
        <time>2019-05-16T10:49:31.929Z</time>
      </trkpt>
      <trkpt lat="38.86716167" lon="-9.08746167">
        <ele>36.0</ele>
        <time>2019-05-16T10:49:32.900Z</time>
      </trkpt>
      <trkpt lat="38.86716167" lon="-9.08746167">
        <ele>36.0</ele>
        <time>2019-05-16T10:49:33.929Z</time>
      </trkpt>
      <trkpt lat="38.86721167" lon="-9.08743667">
        <ele>36.0</ele>
        <time>2019-05-16T10:49:34.922Z</time>
      </trkpt>
      <trkpt lat="38.86721167" lon="-9.08743667">
        <ele>36.0</ele>
        <time>2019-05-16T10:49:35.911Z</time>
      </trkpt>
      <trkpt lat="38.867265" lon="-9.08740667">
        <ele>36.0</ele>
        <time>2019-05-16T10:49:36.919Z</time>
      </trkpt>
      <trkpt lat="38.867265" lon="-9.08740667">
        <ele>36.0</ele>
        <time>2019-05-16T10:49:37.930Z</time>
      </trkpt>
      <trkpt lat="38.86732" lon="-9.087375">
        <ele>36.0</ele>
        <time>2019-05-16T10:49:38.913Z</time>
      </trkpt>
      <trkpt lat="38.86732" lon="-9.087375">
        <ele>36.0</ele>
        <time>2019-05-16T10:49:39.908Z</time>
      </trkpt>
      <trkpt lat="38.86737333" lon="-9.08734167">
        <ele>36.0</ele>
        <time>2019-05-16T10:49:40.945Z</time>
      </trkpt>
      <trkpt lat="38.86737333" lon="-9.08734167">
        <ele>36.0</ele>
        <time>2019-05-16T10:49:41.932Z</time>
      </trkpt>
      <trkpt lat="38.86742667" lon="-9.08730833">
        <ele>36.0</ele>
        <time>2019-05-16T10:49:42.902Z</time>
      </trkpt>
      <trkpt lat="38.86742667" lon="-9.08730833">
        <ele>36.0</ele>
        <time>2019-05-16T10:49:43.932Z</time>
      </trkpt>
      <trkpt lat="38.86748167" lon="-9.08726667">
        <ele>36.0</ele>
        <time>2019-05-16T10:49:44.901Z</time>
      </trkpt>
      <trkpt lat="38.86748167" lon="-9.08726667">
        <ele>36.0</ele>
        <time>2019-05-16T10:49:45.935Z</time>
      </trkpt>
      <trkpt lat="38.86753833" lon="-9.08723167">
        <ele>36.0</ele>
        <time>2019-05-16T10:49:46.905Z</time>
      </trkpt>
      <trkpt lat="38.86753833" lon="-9.08723167">
        <ele>36.0</ele>
        <time>2019-05-16T10:49:47.901Z</time>
      </trkpt>
      <trkpt lat="38.86759833" lon="-9.087195">
        <ele>36.0</ele>
        <time>2019-05-16T10:49:48.930Z</time>
      </trkpt>
      <trkpt lat="38.86759833" lon="-9.087195">
        <ele>36.0</ele>
        <time>2019-05-16T10:49:49.918Z</time>
      </trkpt>
      <trkpt lat="38.86765667" lon="-9.08715667">
        <ele>36.0</ele>
        <time>2019-05-16T10:49:50.913Z</time>
      </trkpt>
      <trkpt lat="38.86768667" lon="-9.08713833">
        <ele>36.0</ele>
        <time>2019-05-16T10:49:51.935Z</time>
      </trkpt>
      <trkpt lat="38.86768667" lon="-9.08713833">
        <ele>36.0</ele>
        <time>2019-05-16T10:49:52.930Z</time>
      </trkpt>
      <trkpt lat="38.86774833" lon="-9.08709833">
        <ele>36.0</ele>
        <time>2019-05-16T10:49:53.900Z</time>
      </trkpt>
      <trkpt lat="38.86778" lon="-9.08708167">
        <ele>37.0</ele>
        <time>2019-05-16T10:49:54.905Z</time>
      </trkpt>
      <trkpt lat="38.86778" lon="-9.08708167">
        <ele>37.0</ele>
        <time>2019-05-16T10:49:55.928Z</time>
      </trkpt>
      <trkpt lat="38.86784167" lon="-9.08704667">
        <ele>37.0</ele>
        <time>2019-05-16T10:49:56.900Z</time>
      </trkpt>
      <trkpt lat="38.86787167" lon="-9.08703">
        <ele>37.0</ele>
        <time>2019-05-16T10:49:57.906Z</time>
      </trkpt>
      <trkpt lat="38.86790167" lon="-9.087015">
        <ele>37.0</ele>
        <time>2019-05-16T10:49:58.902Z</time>
      </trkpt>
      <trkpt lat="38.86790167" lon="-9.087015">
        <ele>37.0</ele>
        <time>2019-05-16T10:49:59.920Z</time>
      </trkpt>
      <trkpt lat="38.86796167" lon="-9.08698833">
        <ele>37.0</ele>
        <time>2019-05-16T10:50:00.927Z</time>
      </trkpt>
      <trkpt lat="38.86796167" lon="-9.08698833">
        <ele>37.0</ele>
        <time>2019-05-16T10:50:01.916Z</time>
      </trkpt>
      <trkpt lat="38.86802333" lon="-9.086965">
        <ele>37.0</ele>
        <time>2019-05-16T10:50:02.932Z</time>
      </trkpt>
      <trkpt lat="38.86802333" lon="-9.086965">
        <ele>37.0</ele>
        <time>2019-05-16T10:50:03.911Z</time>
      </trkpt>
      <trkpt lat="38.868085" lon="-9.086945">
        <ele>37.0</ele>
        <time>2019-05-16T10:50:04.919Z</time>
      </trkpt>
      <trkpt lat="38.86811667" lon="-9.086935">
        <ele>37.0</ele>
        <time>2019-05-16T10:50:05.910Z</time>
      </trkpt>
      <trkpt lat="38.86814833" lon="-9.08692667">
        <ele>37.0</ele>
        <time>2019-05-16T10:50:06.940Z</time>
      </trkpt>
      <trkpt lat="38.86814833" lon="-9.08692667">
        <ele>37.0</ele>
        <time>2019-05-16T10:50:07.897Z</time>
      </trkpt>
      <trkpt lat="38.86820833" lon="-9.08689833">
        <ele>37.0</ele>
        <time>2019-05-16T10:50:08.912Z</time>
      </trkpt>
      <trkpt lat="38.86820833" lon="-9.08689833">
        <ele>37.0</ele>
        <time>2019-05-16T10:50:09.931Z</time>
      </trkpt>
      <trkpt lat="38.86826333" lon="-9.08686667">
        <ele>37.0</ele>
        <time>2019-05-16T10:50:10.911Z</time>
      </trkpt>
      <trkpt lat="38.86826333" lon="-9.08686667">
        <ele>37.0</ele>
        <time>2019-05-16T10:50:11.905Z</time>
      </trkpt>
      <trkpt lat="38.86831333" lon="-9.08682333">
        <ele>37.0</ele>
        <time>2019-05-16T10:50:12.912Z</time>
      </trkpt>
      <trkpt lat="38.86831333" lon="-9.08682333">
        <ele>37.0</ele>
        <time>2019-05-16T10:50:13.898Z</time>
      </trkpt>
      <trkpt lat="38.868365" lon="-9.086775">
        <ele>37.0</ele>
        <time>2019-05-16T10:50:14.908Z</time>
      </trkpt>
      <trkpt lat="38.868365" lon="-9.086775">
        <ele>37.0</ele>
        <time>2019-05-16T10:50:15.899Z</time>
      </trkpt>
      <trkpt lat="38.86841833" lon="-9.08673167">
        <ele>37.0</ele>
        <time>2019-05-16T10:50:16.908Z</time>
      </trkpt>
      <trkpt lat="38.86841833" lon="-9.08673167">
        <ele>37.0</ele>
        <time>2019-05-16T10:50:17.932Z</time>
      </trkpt>
      <trkpt lat="38.86846833" lon="-9.08668">
        <ele>37.0</ele>
        <time>2019-05-16T10:50:18.898Z</time>
      </trkpt>
      <trkpt lat="38.86846833" lon="-9.08668">
        <ele>37.0</ele>
        <time>2019-05-16T10:50:19.917Z</time>
      </trkpt>
      <trkpt lat="38.86851167" lon="-9.08662333">
        <ele>37.0</ele>
        <time>2019-05-16T10:50:20.904Z</time>
      </trkpt>
      <trkpt lat="38.86851167" lon="-9.08662333">
        <ele>37.0</ele>
        <time>2019-05-16T10:50:21.908Z</time>
      </trkpt>
      <trkpt lat="38.86855667" lon="-9.08655833">
        <ele>37.0</ele>
        <time>2019-05-16T10:50:22.918Z</time>
      </trkpt>
      <trkpt lat="38.86855667" lon="-9.08655833">
        <ele>37.0</ele>
        <time>2019-05-16T10:50:23.898Z</time>
      </trkpt>
      <trkpt lat="38.86859167" lon="-9.08648667">
        <ele>37.0</ele>
        <time>2019-05-16T10:50:24.906Z</time>
      </trkpt>
      <trkpt lat="38.86859167" lon="-9.08648667">
        <ele>37.0</ele>
        <time>2019-05-16T10:50:25.927Z</time>
      </trkpt>
      <trkpt lat="38.86861833" lon="-9.08640667">
        <ele>37.0</ele>
        <time>2019-05-16T10:50:26.898Z</time>
      </trkpt>
      <trkpt lat="38.86861833" lon="-9.08640667">
        <ele>37.0</ele>
        <time>2019-05-16T10:50:27.937Z</time>
      </trkpt>
      <trkpt lat="38.86864333" lon="-9.08632667">
        <ele>38.0</ele>
        <time>2019-05-16T10:50:28.906Z</time>
      </trkpt>
      <trkpt lat="38.86865333" lon="-9.08628333">
        <ele>37.0</ele>
        <time>2019-05-16T10:50:29.911Z</time>
      </trkpt>
      <trkpt lat="38.868665" lon="-9.08624">
        <ele>38.0</ele>
        <time>2019-05-16T10:50:30.910Z</time>
      </trkpt>
      <trkpt lat="38.868665" lon="-9.08624">
        <ele>38.0</ele>
        <time>2019-05-16T10:50:31.927Z</time>
      </trkpt>
      <trkpt lat="38.86868833" lon="-9.08615667">
        <ele>38.0</ele>
        <time>2019-05-16T10:50:32.898Z</time>
      </trkpt>
      <trkpt lat="38.86868833" lon="-9.08615667">
        <ele>38.0</ele>
        <time>2019-05-16T10:50:33.919Z</time>
      </trkpt>
      <trkpt lat="38.86871333" lon="-9.08607667">
        <ele>38.0</ele>
        <time>2019-05-16T10:50:34.933Z</time>
      </trkpt>
      <trkpt lat="38.86871333" lon="-9.08607667">
        <ele>38.0</ele>
        <time>2019-05-16T10:50:35.921Z</time>
      </trkpt>
      <trkpt lat="38.868735" lon="-9.08599667">
        <ele>38.0</ele>
        <time>2019-05-16T10:50:36.920Z</time>
      </trkpt>
      <trkpt lat="38.868735" lon="-9.08599667">
        <ele>38.0</ele>
        <time>2019-05-16T10:50:37.909Z</time>
      </trkpt>
      <trkpt lat="38.86875667" lon="-9.08591667">
        <ele>38.0</ele>
        <time>2019-05-16T10:50:38.904Z</time>
      </trkpt>
      <trkpt lat="38.86875667" lon="-9.08591667">
        <ele>38.0</ele>
        <time>2019-05-16T10:50:39.911Z</time>
      </trkpt>
      <trkpt lat="38.868775" lon="-9.08583833">
        <ele>38.0</ele>
        <time>2019-05-16T10:50:40.923Z</time>
      </trkpt>
      <trkpt lat="38.868775" lon="-9.08583833">
        <ele>38.0</ele>
        <time>2019-05-16T10:50:41.917Z</time>
      </trkpt>
      <trkpt lat="38.86879167" lon="-9.08576">
        <ele>38.0</ele>
        <time>2019-05-16T10:50:42.925Z</time>
      </trkpt>
      <trkpt lat="38.86879167" lon="-9.08576">
        <ele>38.0</ele>
        <time>2019-05-16T10:50:43.917Z</time>
      </trkpt>
      <trkpt lat="38.86881167" lon="-9.08568167">
        <ele>38.0</ele>
        <time>2019-05-16T10:50:44.936Z</time>
      </trkpt>
      <trkpt lat="38.86881167" lon="-9.08568167">
        <ele>38.0</ele>
        <time>2019-05-16T10:50:45.911Z</time>
      </trkpt>
      <trkpt lat="38.86883167" lon="-9.08560333">
        <ele>38.0</ele>
        <time>2019-05-16T10:50:46.919Z</time>
      </trkpt>
      <trkpt lat="38.86883167" lon="-9.08560333">
        <ele>38.0</ele>
        <time>2019-05-16T10:50:47.929Z</time>
      </trkpt>
      <trkpt lat="38.86885333" lon="-9.08552833">
        <ele>38.0</ele>
        <time>2019-05-16T10:50:48.905Z</time>
      </trkpt>
      <trkpt lat="38.86885333" lon="-9.08552833">
        <ele>38.0</ele>
        <time>2019-05-16T10:50:49.929Z</time>
      </trkpt>
      <trkpt lat="38.86887167" lon="-9.08544833">
        <ele>38.0</ele>
        <time>2019-05-16T10:50:50.897Z</time>
      </trkpt>
      <trkpt lat="38.86887167" lon="-9.08544833">
        <ele>38.0</ele>
        <time>2019-05-16T10:50:51.912Z</time>
      </trkpt>
      <trkpt lat="38.86889333" lon="-9.08537">
        <ele>38.0</ele>
        <time>2019-05-16T10:50:52.925Z</time>
      </trkpt>
      <trkpt lat="38.86889333" lon="-9.08537">
        <ele>38.0</ele>
        <time>2019-05-16T10:50:53.916Z</time>
      </trkpt>
      <trkpt lat="38.86891667" lon="-9.08529333">
        <ele>38.0</ele>
        <time>2019-05-16T10:50:54.930Z</time>
      </trkpt>
      <trkpt lat="38.86891667" lon="-9.08529333">
        <ele>38.0</ele>
        <time>2019-05-16T10:50:55.914Z</time>
      </trkpt>
      <trkpt lat="38.86895333" lon="-9.0852">
        <ele>38.0</ele>
        <time>2019-05-16T10:50:56.927Z</time>
      </trkpt>
      <trkpt lat="38.86895333" lon="-9.0852">
        <ele>38.0</ele>
        <time>2019-05-16T10:50:57.933Z</time>
      </trkpt>
      <trkpt lat="38.869" lon="-9.085115">
        <ele>38.0</ele>
        <time>2019-05-16T10:50:58.906Z</time>
      </trkpt>
      <trkpt lat="38.86902167" lon="-9.08508333">
        <ele>38.0</ele>
        <time>2019-05-16T10:50:59.919Z</time>
      </trkpt>
      <trkpt lat="38.86902167" lon="-9.08508333">
        <ele>38.0</ele>
        <time>2019-05-16T10:51:00.925Z</time>
      </trkpt>
      <trkpt lat="38.869065" lon="-9.085035">
        <ele>38.0</ele>
        <time>2019-05-16T10:51:01.902Z</time>
      </trkpt>
      <trkpt lat="38.869085" lon="-9.08501833">
        <ele>38.0</ele>
        <time>2019-05-16T10:51:02.923Z</time>
      </trkpt>
      <trkpt lat="38.869085" lon="-9.08501833">
        <ele>38.0</ele>
        <time>2019-05-16T10:51:03.898Z</time>
      </trkpt>
      <trkpt lat="38.86912667" lon="-9.08498833">
        <ele>38.0</ele>
        <time>2019-05-16T10:51:04.923Z</time>
      </trkpt>
      <trkpt lat="38.86912667" lon="-9.08498833">
        <ele>38.0</ele>
        <time>2019-05-16T10:51:05.918Z</time>
      </trkpt>
      <trkpt lat="38.86917" lon="-9.08497">
        <ele>38.0</ele>
        <time>2019-05-16T10:51:06.933Z</time>
      </trkpt>
      <trkpt lat="38.86917" lon="-9.08497">
        <ele>38.0</ele>
        <time>2019-05-16T10:51:07.912Z</time>
      </trkpt>
      <trkpt lat="38.86921333" lon="-9.08496167">
        <ele>38.0</ele>
        <time>2019-05-16T10:51:08.899Z</time>
      </trkpt>
      <trkpt lat="38.86921333" lon="-9.08496167">
        <ele>38.0</ele>
        <time>2019-05-16T10:51:09.927Z</time>
      </trkpt>
      <trkpt lat="38.86926333" lon="-9.08495833">
        <ele>38.0</ele>
        <time>2019-05-16T10:51:10.905Z</time>
      </trkpt>
      <trkpt lat="38.86926333" lon="-9.08495833">
        <ele>38.0</ele>
        <time>2019-05-16T10:51:11.927Z</time>
      </trkpt>
      <trkpt lat="38.86932" lon="-9.08495833">
        <ele>38.0</ele>
        <time>2019-05-16T10:51:12.934Z</time>
      </trkpt>
      <trkpt lat="38.86932" lon="-9.08495833">
        <ele>38.0</ele>
        <time>2019-05-16T10:51:13.915Z</time>
      </trkpt>
      <trkpt lat="38.86936667" lon="-9.08496833">
        <ele>39.0</ele>
        <time>2019-05-16T10:51:14.928Z</time>
      </trkpt>
      <trkpt lat="38.86936667" lon="-9.08496833">
        <ele>39.0</ele>
        <time>2019-05-16T10:51:15.916Z</time>
      </trkpt>
      <trkpt lat="38.86939333" lon="-9.08498667">
        <ele>39.0</ele>
        <time>2019-05-16T10:51:16.930Z</time>
      </trkpt>
      <trkpt lat="38.86939333" lon="-9.08498667">
        <ele>39.0</ele>
        <time>2019-05-16T10:51:17.935Z</time>
      </trkpt>
      <trkpt lat="38.86941833" lon="-9.08497667">
        <ele>39.0</ele>
        <time>2019-05-16T10:51:18.913Z</time>
      </trkpt>
      <trkpt lat="38.86941833" lon="-9.08497667">
        <ele>39.0</ele>
        <time>2019-05-16T10:51:19.918Z</time>
      </trkpt>
      <trkpt lat="38.86944667" lon="-9.08496833">
        <ele>39.0</ele>
        <time>2019-05-16T10:51:20.899Z</time>
      </trkpt>
      <trkpt lat="38.86944667" lon="-9.08496833">
        <ele>39.0</ele>
        <time>2019-05-16T10:51:21.931Z</time>
      </trkpt>
      <trkpt lat="38.869455" lon="-9.08497833">
        <ele>39.0</ele>
        <time>2019-05-16T10:51:22.900Z</time>
      </trkpt>
      <trkpt lat="38.869455" lon="-9.08497833">
        <ele>39.0</ele>
        <time>2019-05-16T10:51:23.935Z</time>
      </trkpt>
      <trkpt lat="38.86944833" lon="-9.084995">
        <ele>39.0</ele>
        <time>2019-05-16T10:51:24.906Z</time>
      </trkpt>
      <trkpt lat="38.86944833" lon="-9.084995">
        <ele>39.0</ele>
        <time>2019-05-16T10:51:25.912Z</time>
      </trkpt>
      <trkpt lat="38.86944833" lon="-9.08499833">
        <ele>39.0</ele>
        <time>2019-05-16T10:51:26.901Z</time>
      </trkpt>
      <trkpt lat="38.86944833" lon="-9.08499833">
        <ele>39.0</ele>
        <time>2019-05-16T10:51:27.946Z</time>
      </trkpt>
      <trkpt lat="38.86944833" lon="-9.08499833">
        <ele>39.0</ele>
        <time>2019-05-16T10:51:28.913Z</time>
      </trkpt>
      <trkpt lat="38.86944833" lon="-9.08499833">
        <ele>39.0</ele>
        <time>2019-05-16T10:51:29.897Z</time>
      </trkpt>
      <trkpt lat="38.86944833" lon="-9.08499833">
        <ele>39.0</ele>
        <time>2019-05-16T10:51:30.904Z</time>
      </trkpt>
      <trkpt lat="38.86944833" lon="-9.08499833">
        <ele>39.0</ele>
        <time>2019-05-16T10:51:31.936Z</time>
      </trkpt>
      <trkpt lat="38.869435" lon="-9.08500667">
        <ele>40.0</ele>
        <time>2019-05-16T10:51:32.897Z</time>
      </trkpt>
      <trkpt lat="38.86941833" lon="-9.08501">
        <ele>40.0</ele>
        <time>2019-05-16T10:51:33.913Z</time>
      </trkpt>
      <trkpt lat="38.86941833" lon="-9.08501">
        <ele>40.0</ele>
        <time>2019-05-16T10:51:34.898Z</time>
      </trkpt>
      <trkpt lat="38.86938667" lon="-9.085005">
        <ele>40.0</ele>
        <time>2019-05-16T10:51:35.901Z</time>
      </trkpt>
      <trkpt lat="38.86937" lon="-9.08500167">
        <ele>40.0</ele>
        <time>2019-05-16T10:51:36.904Z</time>
      </trkpt>
      <trkpt lat="38.86937" lon="-9.08500167">
        <ele>40.0</ele>
        <time>2019-05-16T10:51:37.935Z</time>
      </trkpt>
      <trkpt lat="38.86932833" lon="-9.08499667">
        <ele>40.0</ele>
        <time>2019-05-16T10:51:38.900Z</time>
      </trkpt>
      <trkpt lat="38.86932833" lon="-9.08499667">
        <ele>40.0</ele>
        <time>2019-05-16T10:51:39.898Z</time>
      </trkpt>
      <trkpt lat="38.869285" lon="-9.08500167">
        <ele>40.0</ele>
        <time>2019-05-16T10:51:40.909Z</time>
      </trkpt>
      <trkpt lat="38.869285" lon="-9.08500167">
        <ele>40.0</ele>
        <time>2019-05-16T10:51:41.932Z</time>
      </trkpt>
      <trkpt lat="38.86924167" lon="-9.08501167">
        <ele>40.0</ele>
        <time>2019-05-16T10:51:42.904Z</time>
      </trkpt>
      <trkpt lat="38.86924167" lon="-9.08501167">
        <ele>40.0</ele>
        <time>2019-05-16T10:51:43.904Z</time>
      </trkpt>
      <trkpt lat="38.86919667" lon="-9.08502167">
        <ele>40.0</ele>
        <time>2019-05-16T10:51:44.931Z</time>
      </trkpt>
      <trkpt lat="38.86919667" lon="-9.08502167">
        <ele>40.0</ele>
        <time>2019-05-16T10:51:45.936Z</time>
      </trkpt>
      <trkpt lat="38.86915" lon="-9.08504167">
        <ele>40.0</ele>
        <time>2019-05-16T10:51:46.900Z</time>
      </trkpt>
      <trkpt lat="38.86915" lon="-9.08504167">
        <ele>40.0</ele>
        <time>2019-05-16T10:51:47.932Z</time>
      </trkpt>
      <trkpt lat="38.869105" lon="-9.08507167">
        <ele>39.0</ele>
        <time>2019-05-16T10:51:48.907Z</time>
      </trkpt>
      <trkpt lat="38.869105" lon="-9.08507167">
        <ele>39.0</ele>
        <time>2019-05-16T10:51:49.930Z</time>
      </trkpt>
      <trkpt lat="38.86906333" lon="-9.08512833">
        <ele>39.0</ele>
        <time>2019-05-16T10:51:50.900Z</time>
      </trkpt>
      <trkpt lat="38.86906333" lon="-9.08512833">
        <ele>39.0</ele>
        <time>2019-05-16T10:51:51.906Z</time>
      </trkpt>
      <trkpt lat="38.86902333" lon="-9.0852">
        <ele>39.0</ele>
        <time>2019-05-16T10:51:52.914Z</time>
      </trkpt>
      <trkpt lat="38.86902333" lon="-9.0852">
        <ele>39.0</ele>
        <time>2019-05-16T10:51:53.928Z</time>
      </trkpt>
      <trkpt lat="38.86898167" lon="-9.08527667">
        <ele>38.0</ele>
        <time>2019-05-16T10:51:54.923Z</time>
      </trkpt>
      <trkpt lat="38.86898167" lon="-9.08527667">
        <ele>38.0</ele>
        <time>2019-05-16T10:51:55.918Z</time>
      </trkpt>
      <trkpt lat="38.86894833" lon="-9.08536333">
        <ele>38.0</ele>
        <time>2019-05-16T10:51:56.899Z</time>
      </trkpt>
      <trkpt lat="38.86894833" lon="-9.08536333">
        <ele>38.0</ele>
        <time>2019-05-16T10:51:57.923Z</time>
      </trkpt>
      <trkpt lat="38.86891667" lon="-9.08546">
        <ele>37.0</ele>
        <time>2019-05-16T10:51:58.923Z</time>
      </trkpt>
      <trkpt lat="38.86891667" lon="-9.08546">
        <ele>37.0</ele>
        <time>2019-05-16T10:51:59.910Z</time>
      </trkpt>
      <trkpt lat="38.86889" lon="-9.08555833">
        <ele>37.0</ele>
        <time>2019-05-16T10:52:00.924Z</time>
      </trkpt>
      <trkpt lat="38.86889" lon="-9.08555833">
        <ele>37.0</ele>
        <time>2019-05-16T10:52:01.897Z</time>
      </trkpt>
      <trkpt lat="38.86886333" lon="-9.08564833">
        <ele>37.0</ele>
        <time>2019-05-16T10:52:02.912Z</time>
      </trkpt>
      <trkpt lat="38.86886333" lon="-9.08564833">
        <ele>37.0</ele>
        <time>2019-05-16T10:52:03.921Z</time>
      </trkpt>
      <trkpt lat="38.86883667" lon="-9.08573667">
        <ele>37.0</ele>
        <time>2019-05-16T10:52:04.901Z</time>
      </trkpt>
      <trkpt lat="38.86882333" lon="-9.08577667">
        <ele>37.0</ele>
        <time>2019-05-16T10:52:05.907Z</time>
      </trkpt>
      <trkpt lat="38.86880667" lon="-9.08581333">
        <ele>37.0</ele>
        <time>2019-05-16T10:52:06.928Z</time>
      </trkpt>
      <trkpt lat="38.86880667" lon="-9.08581333">
        <ele>37.0</ele>
        <time>2019-05-16T10:52:07.910Z</time>
      </trkpt>
      <trkpt lat="38.86875667" lon="-9.085865">
        <ele>37.0</ele>
        <time>2019-05-16T10:52:08.917Z</time>
      </trkpt>
      <trkpt lat="38.86875667" lon="-9.085865">
        <ele>37.0</ele>
        <time>2019-05-16T10:52:09.923Z</time>
      </trkpt>
      <trkpt lat="38.86875667" lon="-9.085865">
        <ele>37.0</ele>
        <time>2019-05-16T10:52:11.026Z</time>
      </trkpt>
      <trkpt lat="38.86869833" lon="-9.08589">
        <ele>37.0</ele>
        <time>2019-05-16T10:52:11.917Z</time>
      </trkpt>
      <trkpt lat="38.86864667" lon="-9.0859">
        <ele>37.0</ele>
        <time>2019-05-16T10:52:12.930Z</time>
      </trkpt>
      <trkpt lat="38.86864667" lon="-9.0859">
        <ele>37.0</ele>
        <time>2019-05-16T10:52:13.915Z</time>
      </trkpt>
      <trkpt lat="38.868605" lon="-9.08586833">
        <ele>37.0</ele>
        <time>2019-05-16T10:52:14.928Z</time>
      </trkpt>
      <trkpt lat="38.868595" lon="-9.08583833">
        <ele>37.0</ele>
        <time>2019-05-16T10:52:15.898Z</time>
      </trkpt>
      <trkpt lat="38.868595" lon="-9.08583833">
        <ele>37.0</ele>
        <time>2019-05-16T10:52:16.903Z</time>
      </trkpt>
      <trkpt lat="38.86859167" lon="-9.085755">
        <ele>37.0</ele>
        <time>2019-05-16T10:52:17.914Z</time>
      </trkpt>
      <trkpt lat="38.86859333" lon="-9.08571333">
        <ele>37.0</ele>
        <time>2019-05-16T10:52:18.932Z</time>
      </trkpt>
      <trkpt lat="38.86859333" lon="-9.08571333">
        <ele>37.0</ele>
        <time>2019-05-16T10:52:19.906Z</time>
      </trkpt>
      <trkpt lat="38.86860333" lon="-9.08562333">
        <ele>37.0</ele>
        <time>2019-05-16T10:52:20.905Z</time>
      </trkpt>
      <trkpt lat="38.86860333" lon="-9.08562333">
        <ele>37.0</ele>
        <time>2019-05-16T10:52:21.931Z</time>
      </trkpt>
      <trkpt lat="38.86861167" lon="-9.08553667">
        <ele>38.0</ele>
        <time>2019-05-16T10:52:22.918Z</time>
      </trkpt>
      <trkpt lat="38.86861167" lon="-9.08553667">
        <ele>38.0</ele>
        <time>2019-05-16T10:52:23.930Z</time>
      </trkpt>
      <trkpt lat="38.86862" lon="-9.08546167">
        <ele>38.0</ele>
        <time>2019-05-16T10:52:24.898Z</time>
      </trkpt>
      <trkpt lat="38.86862" lon="-9.08546167">
        <ele>38.0</ele>
        <time>2019-05-16T10:52:25.914Z</time>
      </trkpt>
      <trkpt lat="38.86862833" lon="-9.08539167">
        <ele>38.0</ele>
        <time>2019-05-16T10:52:26.925Z</time>
      </trkpt>
      <trkpt lat="38.86862833" lon="-9.08539167">
        <ele>38.0</ele>
        <time>2019-05-16T10:52:27.897Z</time>
      </trkpt>
      <trkpt lat="38.868635" lon="-9.085315">
        <ele>38.0</ele>
        <time>2019-05-16T10:52:28.900Z</time>
      </trkpt>
      <trkpt lat="38.868635" lon="-9.085315">
        <ele>38.0</ele>
        <time>2019-05-16T10:52:29.911Z</time>
      </trkpt>
      <trkpt lat="38.868645" lon="-9.08523667">
        <ele>39.0</ele>
        <time>2019-05-16T10:52:30.935Z</time>
      </trkpt>
      <trkpt lat="38.868645" lon="-9.08523667">
        <ele>39.0</ele>
        <time>2019-05-16T10:52:31.926Z</time>
      </trkpt>
      <trkpt lat="38.86865667" lon="-9.08516167">
        <ele>39.0</ele>
        <time>2019-05-16T10:52:32.898Z</time>
      </trkpt>
      <trkpt lat="38.86865667" lon="-9.08516167">
        <ele>39.0</ele>
        <time>2019-05-16T10:52:33.928Z</time>
      </trkpt>
      <trkpt lat="38.868675" lon="-9.08508833">
        <ele>39.0</ele>
        <time>2019-05-16T10:52:34.897Z</time>
      </trkpt>
      <trkpt lat="38.868675" lon="-9.08508833">
        <ele>39.0</ele>
        <time>2019-05-16T10:52:35.927Z</time>
      </trkpt>
      <trkpt lat="38.86871" lon="-9.08502167">
        <ele>39.0</ele>
        <time>2019-05-16T10:52:36.928Z</time>
      </trkpt>
      <trkpt lat="38.86873" lon="-9.084985">
        <ele>39.0</ele>
        <time>2019-05-16T10:52:37.923Z</time>
      </trkpt>
      <trkpt lat="38.86873" lon="-9.084985">
        <ele>39.0</ele>
        <time>2019-05-16T10:52:38.907Z</time>
      </trkpt>
      <trkpt lat="38.86875" lon="-9.0849">
        <ele>39.0</ele>
        <time>2019-05-16T10:52:39.920Z</time>
      </trkpt>
      <trkpt lat="38.86875" lon="-9.0849">
        <ele>39.0</ele>
        <time>2019-05-16T10:52:40.908Z</time>
      </trkpt>
      <trkpt lat="38.86875667" lon="-9.084815">
        <ele>39.0</ele>
        <time>2019-05-16T10:52:41.905Z</time>
      </trkpt>
      <trkpt lat="38.86875167" lon="-9.084775">
        <ele>39.0</ele>
        <time>2019-05-16T10:52:42.907Z</time>
      </trkpt>
      <trkpt lat="38.86875167" lon="-9.084775">
        <ele>39.0</ele>
        <time>2019-05-16T10:52:43.903Z</time>
      </trkpt>
      <trkpt lat="38.86873667" lon="-9.084695">
        <ele>39.0</ele>
        <time>2019-05-16T10:52:44.911Z</time>
      </trkpt>
      <trkpt lat="38.86873667" lon="-9.084695">
        <ele>39.0</ele>
        <time>2019-05-16T10:52:45.907Z</time>
      </trkpt>
      <trkpt lat="38.868725" lon="-9.08460833">
        <ele>39.0</ele>
        <time>2019-05-16T10:52:46.918Z</time>
      </trkpt>
      <trkpt lat="38.868725" lon="-9.08460833">
        <ele>39.0</ele>
        <time>2019-05-16T10:52:47.907Z</time>
      </trkpt>
      <trkpt lat="38.86872833" lon="-9.08452833">
        <ele>38.0</ele>
        <time>2019-05-16T10:52:48.916Z</time>
      </trkpt>
      <trkpt lat="38.86872833" lon="-9.08452833">
        <ele>38.0</ele>
        <time>2019-05-16T10:52:49.902Z</time>
      </trkpt>
      <trkpt lat="38.86873167" lon="-9.084445">
        <ele>38.0</ele>
        <time>2019-05-16T10:52:50.910Z</time>
      </trkpt>
      <trkpt lat="38.86873167" lon="-9.084445">
        <ele>38.0</ele>
        <time>2019-05-16T10:52:51.908Z</time>
      </trkpt>
      <trkpt lat="38.86874667" lon="-9.08436167">
        <ele>38.0</ele>
        <time>2019-05-16T10:52:52.918Z</time>
      </trkpt>
      <trkpt lat="38.86874667" lon="-9.08436167">
        <ele>38.0</ele>
        <time>2019-05-16T10:52:53.916Z</time>
      </trkpt>
      <trkpt lat="38.868765" lon="-9.084285">
        <ele>37.0</ele>
        <time>2019-05-16T10:52:54.924Z</time>
      </trkpt>
      <trkpt lat="38.868765" lon="-9.084285">
        <ele>37.0</ele>
        <time>2019-05-16T10:52:55.929Z</time>
      </trkpt>
      <trkpt lat="38.86876833" lon="-9.08421">
        <ele>37.0</ele>
        <time>2019-05-16T10:52:56.903Z</time>
      </trkpt>
      <trkpt lat="38.86876833" lon="-9.08421">
        <ele>37.0</ele>
        <time>2019-05-16T10:52:57.902Z</time>
      </trkpt>
      <trkpt lat="38.86877333" lon="-9.08413833">
        <ele>37.0</ele>
        <time>2019-05-16T10:52:58.914Z</time>
      </trkpt>
      <trkpt lat="38.86877333" lon="-9.08413833">
        <ele>37.0</ele>
        <time>2019-05-16T10:52:59.932Z</time>
      </trkpt>
      <trkpt lat="38.86878667" lon="-9.084075">
        <ele>37.0</ele>
        <time>2019-05-16T10:53:00.900Z</time>
      </trkpt>
      <trkpt lat="38.86878667" lon="-9.084075">
        <ele>37.0</ele>
        <time>2019-05-16T10:53:01.913Z</time>
      </trkpt>
      <trkpt lat="38.86878667" lon="-9.08402">
        <ele>37.0</ele>
        <time>2019-05-16T10:53:02.920Z</time>
      </trkpt>
      <trkpt lat="38.86878667" lon="-9.08402">
        <ele>37.0</ele>
        <time>2019-05-16T10:53:03.901Z</time>
      </trkpt>
      <trkpt lat="38.868785" lon="-9.08397333">
        <ele>38.0</ele>
        <time>2019-05-16T10:53:04.920Z</time>
      </trkpt>
      <trkpt lat="38.868785" lon="-9.08397333">
        <ele>38.0</ele>
        <time>2019-05-16T10:53:05.919Z</time>
      </trkpt>
      <trkpt lat="38.86878167" lon="-9.083915">
        <ele>38.0</ele>
        <time>2019-05-16T10:53:06.935Z</time>
      </trkpt>
      <trkpt lat="38.86878167" lon="-9.083915">
        <ele>38.0</ele>
        <time>2019-05-16T10:53:07.936Z</time>
      </trkpt>
      <trkpt lat="38.86877" lon="-9.08386">
        <ele>38.0</ele>
        <time>2019-05-16T10:53:08.910Z</time>
      </trkpt>
      <trkpt lat="38.86876833" lon="-9.08383167">
        <ele>38.0</ele>
        <time>2019-05-16T10:53:09.934Z</time>
      </trkpt>
      <trkpt lat="38.86877" lon="-9.083805">
        <ele>39.0</ele>
        <time>2019-05-16T10:53:10.914Z</time>
      </trkpt>
      <trkpt lat="38.86877" lon="-9.083805">
        <ele>39.0</ele>
        <time>2019-05-16T10:53:11.935Z</time>
      </trkpt>
      <trkpt lat="38.86878167" lon="-9.08374333">
        <ele>39.0</ele>
        <time>2019-05-16T10:53:12.903Z</time>
      </trkpt>
      <trkpt lat="38.86878167" lon="-9.08374333">
        <ele>39.0</ele>
        <time>2019-05-16T10:53:13.907Z</time>
      </trkpt>
      <trkpt lat="38.86878667" lon="-9.0837">
        <ele>39.0</ele>
        <time>2019-05-16T10:53:14.920Z</time>
      </trkpt>
      <trkpt lat="38.86878833" lon="-9.08368">
        <ele>39.0</ele>
        <time>2019-05-16T10:53:15.913Z</time>
      </trkpt>
      <trkpt lat="38.86878833" lon="-9.08368">
        <ele>39.0</ele>
        <time>2019-05-16T10:53:16.910Z</time>
      </trkpt>
      <trkpt lat="38.868795" lon="-9.08363333">
        <ele>39.0</ele>
        <time>2019-05-16T10:53:17.920Z</time>
      </trkpt>
      <trkpt lat="38.86879833" lon="-9.083615">
        <ele>40.0</ele>
        <time>2019-05-16T10:53:18.902Z</time>
      </trkpt>
      <trkpt lat="38.86879833" lon="-9.083615">
        <ele>40.0</ele>
        <time>2019-05-16T10:53:19.900Z</time>
      </trkpt>
      <trkpt lat="38.8688" lon="-9.08357667">
        <ele>40.0</ele>
        <time>2019-05-16T10:53:20.923Z</time>
      </trkpt>
      <trkpt lat="38.8688" lon="-9.08357667">
        <ele>40.0</ele>
        <time>2019-05-16T10:53:21.909Z</time>
      </trkpt>
      <trkpt lat="38.86880167" lon="-9.08354333">
        <ele>40.0</ele>
        <time>2019-05-16T10:53:22.920Z</time>
      </trkpt>
      <trkpt lat="38.86880167" lon="-9.08354333">
        <ele>40.0</ele>
        <time>2019-05-16T10:53:23.905Z</time>
      </trkpt>
      <trkpt lat="38.86880667" lon="-9.08351167">
        <ele>40.0</ele>
        <time>2019-05-16T10:53:24.916Z</time>
      </trkpt>
      <trkpt lat="38.86880667" lon="-9.08351167">
        <ele>40.0</ele>
        <time>2019-05-16T10:53:25.916Z</time>
      </trkpt>
      <trkpt lat="38.86881" lon="-9.08347833">
        <ele>40.0</ele>
        <time>2019-05-16T10:53:26.901Z</time>
      </trkpt>
      <trkpt lat="38.86881167" lon="-9.08345833">
        <ele>40.0</ele>
        <time>2019-05-16T10:53:27.930Z</time>
      </trkpt>
      <trkpt lat="38.86881167" lon="-9.08345833">
        <ele>40.0</ele>
        <time>2019-05-16T10:53:28.904Z</time>
      </trkpt>
      <trkpt lat="38.86881333" lon="-9.08343667">
        <ele>40.0</ele>
        <time>2019-05-16T10:53:29.899Z</time>
      </trkpt>
      <trkpt lat="38.868815" lon="-9.08343333">
        <ele>41.0</ele>
        <time>2019-05-16T10:53:30.932Z</time>
      </trkpt>
      <trkpt lat="38.868815" lon="-9.08343333">
        <ele>41.0</ele>
        <time>2019-05-16T10:53:31.898Z</time>
      </trkpt>
      <trkpt lat="38.868815" lon="-9.08343167">
        <ele>41.0</ele>
        <time>2019-05-16T10:53:32.910Z</time>
      </trkpt>
      <trkpt lat="38.868815" lon="-9.08343167">
        <ele>41.0</ele>
        <time>2019-05-16T10:53:33.924Z</time>
      </trkpt>
      <trkpt lat="38.868815" lon="-9.08343167">
        <ele>41.0</ele>
        <time>2019-05-16T10:53:34.901Z</time>
      </trkpt>
      <trkpt lat="38.868815" lon="-9.08343167">
        <ele>41.0</ele>
        <time>2019-05-16T10:53:35.908Z</time>
      </trkpt>
      <trkpt lat="38.86881333" lon="-9.0834">
        <ele>41.0</ele>
        <time>2019-05-16T10:53:36.910Z</time>
      </trkpt>
      <trkpt lat="38.86881333" lon="-9.0834">
        <ele>41.0</ele>
        <time>2019-05-16T10:53:37.899Z</time>
      </trkpt>
      <trkpt lat="38.868815" lon="-9.08338667">
        <ele>41.0</ele>
        <time>2019-05-16T10:53:38.900Z</time>
      </trkpt>
      <trkpt lat="38.868815" lon="-9.08338667">
        <ele>41.0</ele>
        <time>2019-05-16T10:53:39.936Z</time>
      </trkpt>
      <trkpt lat="38.868815" lon="-9.083385">
        <ele>41.0</ele>
        <time>2019-05-16T10:53:40.898Z</time>
      </trkpt>
      <trkpt lat="38.868815" lon="-9.083385">
        <ele>41.0</ele>
        <time>2019-05-16T10:53:41.899Z</time>
      </trkpt>
      <trkpt lat="38.868815" lon="-9.083385">
        <ele>41.0</ele>
        <time>2019-05-16T10:53:42.904Z</time>
      </trkpt>
      <trkpt lat="38.868815" lon="-9.083385">
        <ele>41.0</ele>
        <time>2019-05-16T10:53:43.935Z</time>
      </trkpt>
      <trkpt lat="38.868815" lon="-9.083385">
        <ele>41.0</ele>
        <time>2019-05-16T10:53:44.902Z</time>
      </trkpt>
      <trkpt lat="38.868815" lon="-9.083385">
        <ele>41.0</ele>
        <time>2019-05-16T10:53:45.936Z</time>
      </trkpt>
      <trkpt lat="38.868815" lon="-9.083385">
        <ele>41.0</ele>
        <time>2019-05-16T10:53:46.900Z</time>
      </trkpt>
      <trkpt lat="38.868815" lon="-9.083385">
        <ele>41.0</ele>
        <time>2019-05-16T10:53:47.898Z</time>
      </trkpt>
      <trkpt lat="38.86881" lon="-9.08335667">
        <ele>40.0</ele>
        <time>2019-05-16T10:53:48.903Z</time>
      </trkpt>
      <trkpt lat="38.86881" lon="-9.08335667">
        <ele>40.0</ele>
        <time>2019-05-16T10:53:49.902Z</time>
      </trkpt>
      <trkpt lat="38.86880667" lon="-9.08332833">
        <ele>41.0</ele>
        <time>2019-05-16T10:53:50.904Z</time>
      </trkpt>
      <trkpt lat="38.86880667" lon="-9.08332833">
        <ele>41.0</ele>
        <time>2019-05-16T10:53:51.936Z</time>
      </trkpt>
      <trkpt lat="38.86880167" lon="-9.08329333">
        <ele>41.0</ele>
        <time>2019-05-16T10:53:52.901Z</time>
      </trkpt>
      <trkpt lat="38.868795" lon="-9.08327333">
        <ele>40.0</ele>
        <time>2019-05-16T10:53:53.979Z</time>
      </trkpt>
      <trkpt lat="38.868795" lon="-9.08327333">
        <ele>40.0</ele>
        <time>2019-05-16T10:53:54.932Z</time>
      </trkpt>
      <trkpt lat="38.86878833" lon="-9.08324667">
        <ele>41.0</ele>
        <time>2019-05-16T10:53:55.910Z</time>
      </trkpt>
      <trkpt lat="38.86879" lon="-9.08324167">
        <ele>41.0</ele>
        <time>2019-05-16T10:53:56.897Z</time>
      </trkpt>
      <trkpt lat="38.86879" lon="-9.08324167">
        <ele>41.0</ele>
        <time>2019-05-16T10:53:57.900Z</time>
      </trkpt>
      <trkpt lat="38.86879" lon="-9.08324167">
        <ele>41.0</ele>
        <time>2019-05-16T10:53:58.922Z</time>
      </trkpt>
      <trkpt lat="38.86879" lon="-9.08324167">
        <ele>41.0</ele>
        <time>2019-05-16T10:53:59.911Z</time>
      </trkpt>
      <trkpt lat="38.86879" lon="-9.08324167">
        <ele>41.0</ele>
        <time>2019-05-16T10:54:00.917Z</time>
      </trkpt>
      <trkpt lat="38.86879" lon="-9.08324167">
        <ele>41.0</ele>
        <time>2019-05-16T10:54:01.928Z</time>
      </trkpt>
      <trkpt lat="38.86878167" lon="-9.08323">
        <ele>41.0</ele>
        <time>2019-05-16T10:54:02.901Z</time>
      </trkpt>
      <trkpt lat="38.86878167" lon="-9.08323">
        <ele>41.0</ele>
        <time>2019-05-16T10:54:03.936Z</time>
      </trkpt>
      <trkpt lat="38.868775" lon="-9.08321833">
        <ele>41.0</ele>
        <time>2019-05-16T10:54:04.900Z</time>
      </trkpt>
      <trkpt lat="38.868775" lon="-9.08321833">
        <ele>41.0</ele>
        <time>2019-05-16T10:54:05.935Z</time>
      </trkpt>
      <trkpt lat="38.86877167" lon="-9.08320333">
        <ele>41.0</ele>
        <time>2019-05-16T10:54:06.904Z</time>
      </trkpt>
      <trkpt lat="38.86877167" lon="-9.08320333">
        <ele>41.0</ele>
        <time>2019-05-16T10:54:07.899Z</time>
      </trkpt>
      <trkpt lat="38.86875833" lon="-9.08318">
        <ele>41.0</ele>
        <time>2019-05-16T10:54:08.900Z</time>
      </trkpt>
      <trkpt lat="38.86875833" lon="-9.08318">
        <ele>41.0</ele>
        <time>2019-05-16T10:54:09.935Z</time>
      </trkpt>
      <trkpt lat="38.86874167" lon="-9.08316">
        <ele>41.0</ele>
        <time>2019-05-16T10:54:10.898Z</time>
      </trkpt>
      <trkpt lat="38.86874167" lon="-9.08316">
        <ele>41.0</ele>
        <time>2019-05-16T10:54:11.936Z</time>
      </trkpt>
      <trkpt lat="38.86872333" lon="-9.08314">
        <ele>41.0</ele>
        <time>2019-05-16T10:54:12.954Z</time>
      </trkpt>
      <trkpt lat="38.86872333" lon="-9.08314">
        <ele>41.0</ele>
        <time>2019-05-16T10:54:13.909Z</time>
      </trkpt>
      <trkpt lat="38.868705" lon="-9.08312167">
        <ele>41.0</ele>
        <time>2019-05-16T10:54:14.919Z</time>
      </trkpt>
      <trkpt lat="38.868705" lon="-9.08312167">
        <ele>41.0</ele>
        <time>2019-05-16T10:54:15.906Z</time>
      </trkpt>
      <trkpt lat="38.86868667" lon="-9.083105">
        <ele>40.0</ele>
        <time>2019-05-16T10:54:16.916Z</time>
      </trkpt>
      <trkpt lat="38.86868667" lon="-9.083105">
        <ele>40.0</ele>
        <time>2019-05-16T10:54:17.934Z</time>
      </trkpt>
      <trkpt lat="38.868665" lon="-9.08308667">
        <ele>40.0</ele>
        <time>2019-05-16T10:54:18.904Z</time>
      </trkpt>
      <trkpt lat="38.868665" lon="-9.08308667">
        <ele>40.0</ele>
        <time>2019-05-16T10:54:19.912Z</time>
      </trkpt>
      <trkpt lat="38.86864167" lon="-9.08307167">
        <ele>40.0</ele>
        <time>2019-05-16T10:54:20.900Z</time>
      </trkpt>
      <trkpt lat="38.86864167" lon="-9.08307167">
        <ele>40.0</ele>
        <time>2019-05-16T10:54:21.932Z</time>
      </trkpt>
      <trkpt lat="38.86862" lon="-9.08306167">
        <ele>40.0</ele>
        <time>2019-05-16T10:54:22.900Z</time>
      </trkpt>
      <trkpt lat="38.86862" lon="-9.08306167">
        <ele>40.0</ele>
        <time>2019-05-16T10:54:23.928Z</time>
      </trkpt>
      <trkpt lat="38.86859667" lon="-9.08305167">
        <ele>40.0</ele>
        <time>2019-05-16T10:54:24.911Z</time>
      </trkpt>
      <trkpt lat="38.86859667" lon="-9.08305167">
        <ele>40.0</ele>
        <time>2019-05-16T10:54:25.899Z</time>
      </trkpt>
      <trkpt lat="38.86857167" lon="-9.08304833">
        <ele>40.0</ele>
        <time>2019-05-16T10:54:26.910Z</time>
      </trkpt>
      <trkpt lat="38.86857167" lon="-9.08304833">
        <ele>40.0</ele>
        <time>2019-05-16T10:54:27.936Z</time>
      </trkpt>
      <trkpt lat="38.868545" lon="-9.08304167">
        <ele>39.0</ele>
        <time>2019-05-16T10:54:28.911Z</time>
      </trkpt>
      <trkpt lat="38.868545" lon="-9.08304167">
        <ele>39.0</ele>
        <time>2019-05-16T10:54:29.932Z</time>
      </trkpt>
      <trkpt lat="38.86852667" lon="-9.08304167">
        <ele>39.0</ele>
        <time>2019-05-16T10:54:30.899Z</time>
      </trkpt>
      <trkpt lat="38.86852667" lon="-9.08304167">
        <ele>39.0</ele>
        <time>2019-05-16T10:54:31.929Z</time>
      </trkpt>
      <trkpt lat="38.86852833" lon="-9.08304">
        <ele>39.0</ele>
        <time>2019-05-16T10:54:32.899Z</time>
      </trkpt>
      <trkpt lat="38.86852833" lon="-9.08304">
        <ele>39.0</ele>
        <time>2019-05-16T10:54:33.933Z</time>
      </trkpt>
      <trkpt lat="38.86852833" lon="-9.08303833">
        <ele>39.0</ele>
        <time>2019-05-16T10:54:34.899Z</time>
      </trkpt>
      <trkpt lat="38.86852833" lon="-9.08303833">
        <ele>39.0</ele>
        <time>2019-05-16T10:54:35.905Z</time>
      </trkpt>
      <trkpt lat="38.86852833" lon="-9.08303833">
        <ele>39.0</ele>
        <time>2019-05-16T10:54:36.911Z</time>
      </trkpt>
      <trkpt lat="38.86852833" lon="-9.08303833">
        <ele>39.0</ele>
        <time>2019-05-16T10:54:37.917Z</time>
      </trkpt>
      <trkpt lat="38.86852833" lon="-9.08303833">
        <ele>39.0</ele>
        <time>2019-05-16T10:54:38.900Z</time>
      </trkpt>
      <trkpt lat="38.86852833" lon="-9.08303833">
        <ele>39.0</ele>
        <time>2019-05-16T10:54:39.933Z</time>
      </trkpt>
      <trkpt lat="38.86852833" lon="-9.08303833">
        <ele>39.0</ele>
        <time>2019-05-16T10:54:40.900Z</time>
      </trkpt>
      <trkpt lat="38.86852833" lon="-9.08303833">
        <ele>39.0</ele>
        <time>2019-05-16T10:54:41.897Z</time>
      </trkpt>
      <trkpt lat="38.86852833" lon="-9.08303833">
        <ele>39.0</ele>
        <time>2019-05-16T10:54:42.916Z</time>
      </trkpt>
      <trkpt lat="38.86852833" lon="-9.08303833">
        <ele>39.0</ele>
        <time>2019-05-16T10:54:43.902Z</time>
      </trkpt>
      <trkpt lat="38.86852833" lon="-9.08303833">
        <ele>39.0</ele>
        <time>2019-05-16T10:54:44.900Z</time>
      </trkpt>
      <trkpt lat="38.86851" lon="-9.08303167">
        <ele>39.0</ele>
        <time>2019-05-16T10:54:45.900Z</time>
      </trkpt>
      <trkpt lat="38.86851" lon="-9.08303167">
        <ele>39.0</ele>
        <time>2019-05-16T10:54:46.935Z</time>
      </trkpt>
      <trkpt lat="38.868485" lon="-9.08300333">
        <ele>39.0</ele>
        <time>2019-05-16T10:54:47.901Z</time>
      </trkpt>
      <trkpt lat="38.86847167" lon="-9.08298667">
        <ele>39.0</ele>
        <time>2019-05-16T10:54:48.902Z</time>
      </trkpt>
      <trkpt lat="38.86847167" lon="-9.08298667">
        <ele>39.0</ele>
        <time>2019-05-16T10:54:49.932Z</time>
      </trkpt>
      <trkpt lat="38.86844833" lon="-9.08295">
        <ele>39.0</ele>
        <time>2019-05-16T10:54:50.946Z</time>
      </trkpt>
      <trkpt lat="38.86844833" lon="-9.08295">
        <ele>39.0</ele>
        <time>2019-05-16T10:54:51.901Z</time>
      </trkpt>
      <trkpt lat="38.86843167" lon="-9.08290333">
        <ele>39.0</ele>
        <time>2019-05-16T10:54:52.913Z</time>
      </trkpt>
      <trkpt lat="38.86843167" lon="-9.08290333">
        <ele>39.0</ele>
        <time>2019-05-16T10:54:53.919Z</time>
      </trkpt>
      <trkpt lat="38.86841833" lon="-9.08284333">
        <ele>39.0</ele>
        <time>2019-05-16T10:54:54.906Z</time>
      </trkpt>
      <trkpt lat="38.86841833" lon="-9.08284333">
        <ele>39.0</ele>
        <time>2019-05-16T10:54:55.922Z</time>
      </trkpt>
      <trkpt lat="38.86840833" lon="-9.08277667">
        <ele>39.0</ele>
        <time>2019-05-16T10:54:56.912Z</time>
      </trkpt>
      <trkpt lat="38.86840833" lon="-9.08277667">
        <ele>39.0</ele>
        <time>2019-05-16T10:54:57.909Z</time>
      </trkpt>
      <trkpt lat="38.86840667" lon="-9.08271">
        <ele>38.0</ele>
        <time>2019-05-16T10:54:58.921Z</time>
      </trkpt>
      <trkpt lat="38.86840667" lon="-9.08271">
        <ele>38.0</ele>
        <time>2019-05-16T10:54:59.935Z</time>
      </trkpt>
      <trkpt lat="38.86841333" lon="-9.08264">
        <ele>37.0</ele>
        <time>2019-05-16T10:55:00.928Z</time>
      </trkpt>
      <trkpt lat="38.86841333" lon="-9.08264">
        <ele>37.0</ele>
        <time>2019-05-16T10:55:01.898Z</time>
      </trkpt>
      <trkpt lat="38.868425" lon="-9.08256833">
        <ele>37.0</ele>
        <time>2019-05-16T10:55:02.908Z</time>
      </trkpt>
      <trkpt lat="38.86843167" lon="-9.08253">
        <ele>37.0</ele>
        <time>2019-05-16T10:55:03.905Z</time>
      </trkpt>
      <trkpt lat="38.86843167" lon="-9.08253">
        <ele>37.0</ele>
        <time>2019-05-16T10:55:04.920Z</time>
      </trkpt>
      <trkpt lat="38.86844333" lon="-9.082455">
        <ele>37.0</ele>
        <time>2019-05-16T10:55:05.933Z</time>
      </trkpt>
      <trkpt lat="38.86844833" lon="-9.08241833">
        <ele>37.0</ele>
        <time>2019-05-16T10:55:06.933Z</time>
      </trkpt>
      <trkpt lat="38.86844833" lon="-9.08241833">
        <ele>37.0</ele>
        <time>2019-05-16T10:55:07.930Z</time>
      </trkpt>
      <trkpt lat="38.868455" lon="-9.08234333">
        <ele>37.0</ele>
        <time>2019-05-16T10:55:08.901Z</time>
      </trkpt>
      <trkpt lat="38.868455" lon="-9.08234333">
        <ele>37.0</ele>
        <time>2019-05-16T10:55:09.928Z</time>
      </trkpt>
      <trkpt lat="38.86846" lon="-9.08226833">
        <ele>36.0</ele>
        <time>2019-05-16T10:55:10.910Z</time>
      </trkpt>
      <trkpt lat="38.86846333" lon="-9.08223">
        <ele>36.0</ele>
        <time>2019-05-16T10:55:11.929Z</time>
      </trkpt>
      <trkpt lat="38.86846667" lon="-9.08219167">
        <ele>37.0</ele>
        <time>2019-05-16T10:55:12.920Z</time>
      </trkpt>
      <trkpt lat="38.86846667" lon="-9.08219167">
        <ele>37.0</ele>
        <time>2019-05-16T10:55:13.929Z</time>
      </trkpt>
      <trkpt lat="38.86847167" lon="-9.08211667">
        <ele>37.0</ele>
        <time>2019-05-16T10:55:14.938Z</time>
      </trkpt>
      <trkpt lat="38.86847167" lon="-9.08211667">
        <ele>37.0</ele>
        <time>2019-05-16T10:55:15.921Z</time>
      </trkpt>
      <trkpt lat="38.86847833" lon="-9.08204667">
        <ele>37.0</ele>
        <time>2019-05-16T10:55:16.932Z</time>
      </trkpt>
      <trkpt lat="38.86848167" lon="-9.08201167">
        <ele>37.0</ele>
        <time>2019-05-16T10:55:17.906Z</time>
      </trkpt>
      <trkpt lat="38.86848667" lon="-9.08197667">
        <ele>37.0</ele>
        <time>2019-05-16T10:55:18.901Z</time>
      </trkpt>
      <trkpt lat="38.86848667" lon="-9.08197667">
        <ele>37.0</ele>
        <time>2019-05-16T10:55:19.932Z</time>
      </trkpt>
      <trkpt lat="38.868495" lon="-9.081905">
        <ele>36.0</ele>
        <time>2019-05-16T10:55:20.912Z</time>
      </trkpt>
      <trkpt lat="38.868495" lon="-9.081905">
        <ele>36.0</ele>
        <time>2019-05-16T10:55:21.906Z</time>
      </trkpt>
      <trkpt lat="38.86850167" lon="-9.08183333">
        <ele>36.0</ele>
        <time>2019-05-16T10:55:22.915Z</time>
      </trkpt>
      <trkpt lat="38.86850167" lon="-9.08183333">
        <ele>36.0</ele>
        <time>2019-05-16T10:55:23.911Z</time>
      </trkpt>
      <trkpt lat="38.86850333" lon="-9.081765">
        <ele>36.0</ele>
        <time>2019-05-16T10:55:24.922Z</time>
      </trkpt>
      <trkpt lat="38.86850333" lon="-9.081765">
        <ele>36.0</ele>
        <time>2019-05-16T10:55:25.907Z</time>
      </trkpt>
      <trkpt lat="38.86850833" lon="-9.081705">
        <ele>36.0</ele>
        <time>2019-05-16T10:55:26.939Z</time>
      </trkpt>
      <trkpt lat="38.86850833" lon="-9.081705">
        <ele>36.0</ele>
        <time>2019-05-16T10:55:27.917Z</time>
      </trkpt>
      <trkpt lat="38.86851" lon="-9.08164833">
        <ele>36.0</ele>
        <time>2019-05-16T10:55:28.934Z</time>
      </trkpt>
      <trkpt lat="38.86851" lon="-9.08164833">
        <ele>36.0</ele>
        <time>2019-05-16T10:55:29.932Z</time>
      </trkpt>
      <trkpt lat="38.86851" lon="-9.08164833">
        <ele>36.0</ele>
        <time>2019-05-16T10:55:31.037Z</time>
      </trkpt>
      <trkpt lat="38.86850667" lon="-9.08158167">
        <ele>37.0</ele>
        <time>2019-05-16T10:55:31.932Z</time>
      </trkpt>
      <trkpt lat="38.86850167" lon="-9.08151333">
        <ele>37.0</ele>
        <time>2019-05-16T10:55:32.900Z</time>
      </trkpt>
      <trkpt lat="38.86850167" lon="-9.08151333">
        <ele>37.0</ele>
        <time>2019-05-16T10:55:33.915Z</time>
      </trkpt>
      <trkpt lat="38.86850333" lon="-9.08145333">
        <ele>37.0</ele>
        <time>2019-05-16T10:55:34.925Z</time>
      </trkpt>
      <trkpt lat="38.86850333" lon="-9.08145333">
        <ele>37.0</ele>
        <time>2019-05-16T10:55:35.917Z</time>
      </trkpt>
      <trkpt lat="38.86851" lon="-9.08140167">
        <ele>37.0</ele>
        <time>2019-05-16T10:55:36.930Z</time>
      </trkpt>
      <trkpt lat="38.86851" lon="-9.08140167">
        <ele>37.0</ele>
        <time>2019-05-16T10:55:37.901Z</time>
      </trkpt>
      <trkpt lat="38.86851167" lon="-9.08135167">
        <ele>37.0</ele>
        <time>2019-05-16T10:55:38.908Z</time>
      </trkpt>
      <trkpt lat="38.86851167" lon="-9.08135167">
        <ele>37.0</ele>
        <time>2019-05-16T10:55:39.916Z</time>
      </trkpt>
      <trkpt lat="38.86851333" lon="-9.08130667">
        <ele>38.0</ele>
        <time>2019-05-16T10:55:40.934Z</time>
      </trkpt>
      <trkpt lat="38.86851333" lon="-9.08130667">
        <ele>38.0</ele>
        <time>2019-05-16T10:55:41.913Z</time>
      </trkpt>
      <trkpt lat="38.86851667" lon="-9.081245">
        <ele>38.0</ele>
        <time>2019-05-16T10:55:42.902Z</time>
      </trkpt>
      <trkpt lat="38.86851667" lon="-9.081245">
        <ele>38.0</ele>
        <time>2019-05-16T10:55:43.916Z</time>
      </trkpt>
      <trkpt lat="38.86851667" lon="-9.08119">
        <ele>38.0</ele>
        <time>2019-05-16T10:55:44.924Z</time>
      </trkpt>
      <trkpt lat="38.86851667" lon="-9.08119">
        <ele>38.0</ele>
        <time>2019-05-16T10:55:45.912Z</time>
      </trkpt>
      <trkpt lat="38.86852167" lon="-9.081145">
        <ele>38.0</ele>
        <time>2019-05-16T10:55:46.899Z</time>
      </trkpt>
      <trkpt lat="38.86852167" lon="-9.081145">
        <ele>38.0</ele>
        <time>2019-05-16T10:55:47.928Z</time>
      </trkpt>
      <trkpt lat="38.86852" lon="-9.08113333">
        <ele>38.0</ele>
        <time>2019-05-16T10:55:48.901Z</time>
      </trkpt>
      <trkpt lat="38.86852" lon="-9.08112667">
        <ele>38.0</ele>
        <time>2019-05-16T10:55:49.932Z</time>
      </trkpt>
      <trkpt lat="38.86852" lon="-9.08112667">
        <ele>38.0</ele>
        <time>2019-05-16T10:55:50.904Z</time>
      </trkpt>
      <trkpt lat="38.86851833" lon="-9.081125">
        <ele>38.0</ele>
        <time>2019-05-16T10:55:51.910Z</time>
      </trkpt>
      <trkpt lat="38.86851833" lon="-9.081125">
        <ele>38.0</ele>
        <time>2019-05-16T10:55:52.915Z</time>
      </trkpt>
      <trkpt lat="38.86851833" lon="-9.081125">
        <ele>38.0</ele>
        <time>2019-05-16T10:55:53.921Z</time>
      </trkpt>
      <trkpt lat="38.86851833" lon="-9.081125">
        <ele>38.0</ele>
        <time>2019-05-16T10:55:54.904Z</time>
      </trkpt>
      <trkpt lat="38.86851833" lon="-9.081125">
        <ele>38.0</ele>
        <time>2019-05-16T10:55:55.902Z</time>
      </trkpt>
      <trkpt lat="38.86851833" lon="-9.081125">
        <ele>38.0</ele>
        <time>2019-05-16T10:55:56.901Z</time>
      </trkpt>
      <trkpt lat="38.86851833" lon="-9.081125">
        <ele>38.0</ele>
        <time>2019-05-16T10:55:57.900Z</time>
      </trkpt>
      <trkpt lat="38.86851833" lon="-9.081125">
        <ele>38.0</ele>
        <time>2019-05-16T10:55:58.915Z</time>
      </trkpt>
      <trkpt lat="38.86851833" lon="-9.081125">
        <ele>38.0</ele>
        <time>2019-05-16T10:55:59.935Z</time>
      </trkpt>
      <trkpt lat="38.86851833" lon="-9.081125">
        <ele>38.0</ele>
        <time>2019-05-16T10:56:00.937Z</time>
      </trkpt>
      <trkpt lat="38.86851833" lon="-9.081125">
        <ele>38.0</ele>
        <time>2019-05-16T10:56:01.904Z</time>
      </trkpt>
      <trkpt lat="38.86851833" lon="-9.081125">
        <ele>38.0</ele>
        <time>2019-05-16T10:56:02.910Z</time>
      </trkpt>
      <trkpt lat="38.86851833" lon="-9.081125">
        <ele>38.0</ele>
        <time>2019-05-16T10:56:03.916Z</time>
      </trkpt>
      <trkpt lat="38.86851833" lon="-9.081125">
        <ele>38.0</ele>
        <time>2019-05-16T10:56:04.904Z</time>
      </trkpt>
      <trkpt lat="38.86851833" lon="-9.081125">
        <ele>38.0</ele>
        <time>2019-05-16T10:56:05.935Z</time>
      </trkpt>
      <trkpt lat="38.86851833" lon="-9.081125">
        <ele>38.0</ele>
        <time>2019-05-16T10:56:06.919Z</time>
      </trkpt>
      <trkpt lat="38.86851833" lon="-9.081125">
        <ele>38.0</ele>
        <time>2019-05-16T10:56:07.906Z</time>
      </trkpt>
      <trkpt lat="38.86851833" lon="-9.081125">
        <ele>38.0</ele>
        <time>2019-05-16T10:56:08.900Z</time>
      </trkpt>
      <trkpt lat="38.86851833" lon="-9.081125">
        <ele>38.0</ele>
        <time>2019-05-16T10:56:09.932Z</time>
      </trkpt>
      <trkpt lat="38.86851833" lon="-9.081125">
        <ele>38.0</ele>
        <time>2019-05-16T10:56:10.930Z</time>
      </trkpt>
      <trkpt lat="38.86851833" lon="-9.081125">
        <ele>38.0</ele>
        <time>2019-05-16T10:56:11.912Z</time>
      </trkpt>
      <trkpt lat="38.86851833" lon="-9.081125">
        <ele>38.0</ele>
        <time>2019-05-16T10:56:12.901Z</time>
      </trkpt>
      <trkpt lat="38.86851833" lon="-9.081125">
        <ele>38.0</ele>
        <time>2019-05-16T10:56:13.936Z</time>
      </trkpt>
      <trkpt lat="38.86851833" lon="-9.081125">
        <ele>38.0</ele>
        <time>2019-05-16T10:56:14.901Z</time>
      </trkpt>
      <trkpt lat="38.86851833" lon="-9.081125">
        <ele>38.0</ele>
        <time>2019-05-16T10:56:15.936Z</time>
      </trkpt>
      <trkpt lat="38.868525" lon="-9.08109667">
        <ele>40.0</ele>
        <time>2019-05-16T10:56:16.900Z</time>
      </trkpt>
      <trkpt lat="38.868525" lon="-9.08109667">
        <ele>40.0</ele>
        <time>2019-05-16T10:56:17.936Z</time>
      </trkpt>
      <trkpt lat="38.86852833" lon="-9.08107333">
        <ele>40.0</ele>
        <time>2019-05-16T10:56:18.905Z</time>
      </trkpt>
      <trkpt lat="38.86852833" lon="-9.08107333">
        <ele>40.0</ele>
        <time>2019-05-16T10:56:19.898Z</time>
      </trkpt>
      <trkpt lat="38.86852833" lon="-9.08103667">
        <ele>39.0</ele>
        <time>2019-05-16T10:56:20.899Z</time>
      </trkpt>
      <trkpt lat="38.86852833" lon="-9.08101833">
        <ele>39.0</ele>
        <time>2019-05-16T10:56:21.920Z</time>
      </trkpt>
      <trkpt lat="38.86852833" lon="-9.08101833">
        <ele>39.0</ele>
        <time>2019-05-16T10:56:22.899Z</time>
      </trkpt>
      <trkpt lat="38.86852833" lon="-9.08098833">
        <ele>39.0</ele>
        <time>2019-05-16T10:56:23.971Z</time>
      </trkpt>
      <trkpt lat="38.86852833" lon="-9.08097333">
        <ele>39.0</ele>
        <time>2019-05-16T10:56:24.918Z</time>
      </trkpt>
      <trkpt lat="38.86852833" lon="-9.08097333">
        <ele>39.0</ele>
        <time>2019-05-16T10:56:25.905Z</time>
      </trkpt>
      <trkpt lat="38.86852833" lon="-9.08093833">
        <ele>39.0</ele>
        <time>2019-05-16T10:56:26.918Z</time>
      </trkpt>
      <trkpt lat="38.86852833" lon="-9.08093833">
        <ele>39.0</ele>
        <time>2019-05-16T10:56:27.920Z</time>
      </trkpt>
      <trkpt lat="38.86853" lon="-9.080895">
        <ele>39.0</ele>
        <time>2019-05-16T10:56:28.930Z</time>
      </trkpt>
      <trkpt lat="38.86853" lon="-9.08086833">
        <ele>39.0</ele>
        <time>2019-05-16T10:56:29.918Z</time>
      </trkpt>
      <trkpt lat="38.86852833" lon="-9.08083833">
        <ele>39.0</ele>
        <time>2019-05-16T10:56:30.934Z</time>
      </trkpt>
      <trkpt lat="38.86852833" lon="-9.08083833">
        <ele>39.0</ele>
        <time>2019-05-16T10:56:31.915Z</time>
      </trkpt>
      <trkpt lat="38.868525" lon="-9.08078167">
        <ele>39.0</ele>
        <time>2019-05-16T10:56:32.916Z</time>
      </trkpt>
      <trkpt lat="38.868525" lon="-9.08078167">
        <ele>39.0</ele>
        <time>2019-05-16T10:56:33.928Z</time>
      </trkpt>
      <trkpt lat="38.868525" lon="-9.08073333">
        <ele>38.0</ele>
        <time>2019-05-16T10:56:34.912Z</time>
      </trkpt>
      <trkpt lat="38.868525" lon="-9.08073333">
        <ele>38.0</ele>
        <time>2019-05-16T10:56:35.924Z</time>
      </trkpt>
      <trkpt lat="38.86852667" lon="-9.080685">
        <ele>38.0</ele>
        <time>2019-05-16T10:56:36.931Z</time>
      </trkpt>
      <trkpt lat="38.86852667" lon="-9.080685">
        <ele>38.0</ele>
        <time>2019-05-16T10:56:37.927Z</time>
      </trkpt>
      <trkpt lat="38.868525" lon="-9.08063333">
        <ele>38.0</ele>
        <time>2019-05-16T10:56:38.900Z</time>
      </trkpt>
      <trkpt lat="38.868525" lon="-9.08063333">
        <ele>38.0</ele>
        <time>2019-05-16T10:56:39.935Z</time>
      </trkpt>
      <trkpt lat="38.868525" lon="-9.08057833">
        <ele>38.0</ele>
        <time>2019-05-16T10:56:40.906Z</time>
      </trkpt>
      <trkpt lat="38.868525" lon="-9.08054833">
        <ele>38.0</ele>
        <time>2019-05-16T10:56:41.918Z</time>
      </trkpt>
      <trkpt lat="38.868525" lon="-9.08052">
        <ele>38.0</ele>
        <time>2019-05-16T10:56:42.920Z</time>
      </trkpt>
      <trkpt lat="38.868525" lon="-9.08052">
        <ele>38.0</ele>
        <time>2019-05-16T10:56:43.910Z</time>
      </trkpt>
      <trkpt lat="38.86852833" lon="-9.08047167">
        <ele>38.0</ele>
        <time>2019-05-16T10:56:44.919Z</time>
      </trkpt>
      <trkpt lat="38.86852833" lon="-9.08047167">
        <ele>38.0</ele>
        <time>2019-05-16T10:56:45.902Z</time>
      </trkpt>
      <trkpt lat="38.868535" lon="-9.08043">
        <ele>38.0</ele>
        <time>2019-05-16T10:56:46.918Z</time>
      </trkpt>
      <trkpt lat="38.868535" lon="-9.08043">
        <ele>38.0</ele>
        <time>2019-05-16T10:56:47.931Z</time>
      </trkpt>
      <trkpt lat="38.86854333" lon="-9.08038167">
        <ele>38.0</ele>
        <time>2019-05-16T10:56:48.897Z</time>
      </trkpt>
      <trkpt lat="38.86854333" lon="-9.08038167">
        <ele>38.0</ele>
        <time>2019-05-16T10:56:49.901Z</time>
      </trkpt>
      <trkpt lat="38.86854833" lon="-9.08036833">
        <ele>38.0</ele>
        <time>2019-05-16T10:56:50.919Z</time>
      </trkpt>
      <trkpt lat="38.86854833" lon="-9.08036833">
        <ele>38.0</ele>
        <time>2019-05-16T10:56:51.935Z</time>
      </trkpt>
      <trkpt lat="38.86854667" lon="-9.08036333">
        <ele>38.0</ele>
        <time>2019-05-16T10:56:52.905Z</time>
      </trkpt>
      <trkpt lat="38.86854667" lon="-9.08036333">
        <ele>38.0</ele>
        <time>2019-05-16T10:56:53.935Z</time>
      </trkpt>
      <trkpt lat="38.86854833" lon="-9.08034667">
        <ele>38.0</ele>
        <time>2019-05-16T10:56:54.901Z</time>
      </trkpt>
      <trkpt lat="38.86854833" lon="-9.08034667">
        <ele>38.0</ele>
        <time>2019-05-16T10:56:55.907Z</time>
      </trkpt>
      <trkpt lat="38.86855167" lon="-9.08034667">
        <ele>38.0</ele>
        <time>2019-05-16T10:56:56.913Z</time>
      </trkpt>
      <trkpt lat="38.86855167" lon="-9.08034667">
        <ele>38.0</ele>
        <time>2019-05-16T10:56:57.921Z</time>
      </trkpt>
      <trkpt lat="38.86855167" lon="-9.08034167">
        <ele>38.0</ele>
        <time>2019-05-16T10:56:58.908Z</time>
      </trkpt>
      <trkpt lat="38.86855167" lon="-9.08034167">
        <ele>38.0</ele>
        <time>2019-05-16T10:56:59.915Z</time>
      </trkpt>
      <trkpt lat="38.86855167" lon="-9.08034167">
        <ele>38.0</ele>
        <time>2019-05-16T10:57:00.902Z</time>
      </trkpt>
      <trkpt lat="38.86855167" lon="-9.08034167">
        <ele>38.0</ele>
        <time>2019-05-16T10:57:01.935Z</time>
      </trkpt>
      <trkpt lat="38.86856333" lon="-9.08030667">
        <ele>38.0</ele>
        <time>2019-05-16T10:57:02.898Z</time>
      </trkpt>
      <trkpt lat="38.86856333" lon="-9.08030667">
        <ele>38.0</ele>
        <time>2019-05-16T10:57:03.936Z</time>
      </trkpt>
      <trkpt lat="38.86857667" lon="-9.08026833">
        <ele>38.0</ele>
        <time>2019-05-16T10:57:04.900Z</time>
      </trkpt>
      <trkpt lat="38.86857667" lon="-9.08026833">
        <ele>38.0</ele>
        <time>2019-05-16T10:57:05.936Z</time>
      </trkpt>
      <trkpt lat="38.86858833" lon="-9.08022">
        <ele>38.0</ele>
        <time>2019-05-16T10:57:06.900Z</time>
      </trkpt>
      <trkpt lat="38.86858833" lon="-9.08022">
        <ele>38.0</ele>
        <time>2019-05-16T10:57:07.935Z</time>
      </trkpt>
      <trkpt lat="38.868605" lon="-9.08016">
        <ele>37.0</ele>
        <time>2019-05-16T10:57:08.930Z</time>
      </trkpt>
      <trkpt lat="38.868605" lon="-9.08016">
        <ele>37.0</ele>
        <time>2019-05-16T10:57:09.908Z</time>
      </trkpt>
      <trkpt lat="38.86862333" lon="-9.08009833">
        <ele>37.0</ele>
        <time>2019-05-16T10:57:10.920Z</time>
      </trkpt>
      <trkpt lat="38.86863333" lon="-9.08006667">
        <ele>37.0</ele>
        <time>2019-05-16T10:57:11.917Z</time>
      </trkpt>
      <trkpt lat="38.868645" lon="-9.080035">
        <ele>37.0</ele>
        <time>2019-05-16T10:57:12.920Z</time>
      </trkpt>
      <trkpt lat="38.868645" lon="-9.080035">
        <ele>37.0</ele>
        <time>2019-05-16T10:57:13.919Z</time>
      </trkpt>
      <trkpt lat="38.868665" lon="-9.07997333">
        <ele>36.0</ele>
        <time>2019-05-16T10:57:14.929Z</time>
      </trkpt>
      <trkpt lat="38.868665" lon="-9.07997333">
        <ele>36.0</ele>
        <time>2019-05-16T10:57:15.928Z</time>
      </trkpt>
      <trkpt lat="38.86868333" lon="-9.07991333">
        <ele>36.0</ele>
        <time>2019-05-16T10:57:16.937Z</time>
      </trkpt>
      <trkpt lat="38.86868333" lon="-9.07991333">
        <ele>36.0</ele>
        <time>2019-05-16T10:57:17.928Z</time>
      </trkpt>
      <trkpt lat="38.86869167" lon="-9.079845">
        <ele>36.0</ele>
        <time>2019-05-16T10:57:18.913Z</time>
      </trkpt>
      <trkpt lat="38.86869167" lon="-9.079845">
        <ele>36.0</ele>
        <time>2019-05-16T10:57:19.897Z</time>
      </trkpt>
      <trkpt lat="38.86869667" lon="-9.07978">
        <ele>36.0</ele>
        <time>2019-05-16T10:57:21.009Z</time>
      </trkpt>
      <trkpt lat="38.86869667" lon="-9.07974833">
        <ele>35.0</ele>
        <time>2019-05-16T10:57:21.909Z</time>
      </trkpt>
      <trkpt lat="38.86869667" lon="-9.07974833">
        <ele>35.0</ele>
        <time>2019-05-16T10:57:22.901Z</time>
      </trkpt>
      <trkpt lat="38.86869667" lon="-9.07968333">
        <ele>35.0</ele>
        <time>2019-05-16T10:57:23.918Z</time>
      </trkpt>
      <trkpt lat="38.86869667" lon="-9.07968333">
        <ele>35.0</ele>
        <time>2019-05-16T10:57:24.911Z</time>
      </trkpt>
      <trkpt lat="38.86869833" lon="-9.079625">
        <ele>34.0</ele>
        <time>2019-05-16T10:57:25.925Z</time>
      </trkpt>
      <trkpt lat="38.86869833" lon="-9.07959667">
        <ele>34.0</ele>
        <time>2019-05-16T10:57:26.922Z</time>
      </trkpt>
      <trkpt lat="38.86869833" lon="-9.07959667">
        <ele>34.0</ele>
        <time>2019-05-16T10:57:27.921Z</time>
      </trkpt>
      <trkpt lat="38.86869667" lon="-9.07953667">
        <ele>34.0</ele>
        <time>2019-05-16T10:57:28.937Z</time>
      </trkpt>
      <trkpt lat="38.86869667" lon="-9.079505">
        <ele>34.0</ele>
        <time>2019-05-16T10:57:29.939Z</time>
      </trkpt>
      <trkpt lat="38.86869667" lon="-9.07947333">
        <ele>34.0</ele>
        <time>2019-05-16T10:57:30.938Z</time>
      </trkpt>
      <trkpt lat="38.86869667" lon="-9.07947333">
        <ele>34.0</ele>
        <time>2019-05-16T10:57:31.932Z</time>
      </trkpt>
      <trkpt lat="38.86869667" lon="-9.07940833">
        <ele>34.0</ele>
        <time>2019-05-16T10:57:32.898Z</time>
      </trkpt>
      <trkpt lat="38.86869667" lon="-9.07940833">
        <ele>34.0</ele>
        <time>2019-05-16T10:57:33.899Z</time>
      </trkpt>
      <trkpt lat="38.8687" lon="-9.07934667">
        <ele>34.0</ele>
        <time>2019-05-16T10:57:34.916Z</time>
      </trkpt>
      <trkpt lat="38.8687" lon="-9.07934667">
        <ele>34.0</ele>
        <time>2019-05-16T10:57:35.900Z</time>
      </trkpt>
      <trkpt lat="38.868705" lon="-9.07928667">
        <ele>33.0</ele>
        <time>2019-05-16T10:57:36.932Z</time>
      </trkpt>
      <trkpt lat="38.868705" lon="-9.07928667">
        <ele>33.0</ele>
        <time>2019-05-16T10:57:37.936Z</time>
      </trkpt>
      <trkpt lat="38.868715" lon="-9.07923167">
        <ele>33.0</ele>
        <time>2019-05-16T10:57:38.904Z</time>
      </trkpt>
      <trkpt lat="38.868715" lon="-9.07923167">
        <ele>33.0</ele>
        <time>2019-05-16T10:57:39.904Z</time>
      </trkpt>
      <trkpt lat="38.86872833" lon="-9.07918667">
        <ele>33.0</ele>
        <time>2019-05-16T10:57:40.916Z</time>
      </trkpt>
      <trkpt lat="38.86872833" lon="-9.07918667">
        <ele>33.0</ele>
        <time>2019-05-16T10:57:41.936Z</time>
      </trkpt>
      <trkpt lat="38.86874167" lon="-9.07913167">
        <ele>33.0</ele>
        <time>2019-05-16T10:57:42.913Z</time>
      </trkpt>
      <trkpt lat="38.86874167" lon="-9.07913167">
        <ele>33.0</ele>
        <time>2019-05-16T10:57:43.903Z</time>
      </trkpt>
      <trkpt lat="38.86875667" lon="-9.07906833">
        <ele>33.0</ele>
        <time>2019-05-16T10:57:44.920Z</time>
      </trkpt>
      <trkpt lat="38.86875667" lon="-9.07906833">
        <ele>33.0</ele>
        <time>2019-05-16T10:57:45.918Z</time>
      </trkpt>
      <trkpt lat="38.86876833" lon="-9.07900833">
        <ele>33.0</ele>
        <time>2019-05-16T10:57:46.951Z</time>
      </trkpt>
      <trkpt lat="38.86876833" lon="-9.07900833">
        <ele>33.0</ele>
        <time>2019-05-16T10:57:47.934Z</time>
      </trkpt>
      <trkpt lat="38.86878167" lon="-9.07894833">
        <ele>32.0</ele>
        <time>2019-05-16T10:57:48.904Z</time>
      </trkpt>
      <trkpt lat="38.86878167" lon="-9.07894833">
        <ele>32.0</ele>
        <time>2019-05-16T10:57:49.921Z</time>
      </trkpt>
      <trkpt lat="38.86879667" lon="-9.07888667">
        <ele>32.0</ele>
        <time>2019-05-16T10:57:50.931Z</time>
      </trkpt>
      <trkpt lat="38.86879667" lon="-9.07888667">
        <ele>32.0</ele>
        <time>2019-05-16T10:57:51.897Z</time>
      </trkpt>
      <trkpt lat="38.868815" lon="-9.07883167">
        <ele>32.0</ele>
        <time>2019-05-16T10:57:52.910Z</time>
      </trkpt>
      <trkpt lat="38.868815" lon="-9.07883167">
        <ele>32.0</ele>
        <time>2019-05-16T10:57:53.914Z</time>
      </trkpt>
      <trkpt lat="38.86882833" lon="-9.07877667">
        <ele>32.0</ele>
        <time>2019-05-16T10:57:54.925Z</time>
      </trkpt>
      <trkpt lat="38.86882833" lon="-9.07877667">
        <ele>32.0</ele>
        <time>2019-05-16T10:57:55.930Z</time>
      </trkpt>
      <trkpt lat="38.86884167" lon="-9.07871833">
        <ele>32.0</ele>
        <time>2019-05-16T10:57:56.903Z</time>
      </trkpt>
      <trkpt lat="38.86884833" lon="-9.07869167">
        <ele>32.0</ele>
        <time>2019-05-16T10:57:57.905Z</time>
      </trkpt>
      <trkpt lat="38.86884833" lon="-9.07869167">
        <ele>32.0</ele>
        <time>2019-05-16T10:57:58.915Z</time>
      </trkpt>
      <trkpt lat="38.86886333" lon="-9.07863">
        <ele>32.0</ele>
        <time>2019-05-16T10:57:59.924Z</time>
      </trkpt>
      <trkpt lat="38.86886833" lon="-9.07859833">
        <ele>32.0</ele>
        <time>2019-05-16T10:58:00.908Z</time>
      </trkpt>
      <trkpt lat="38.86886833" lon="-9.07859833">
        <ele>32.0</ele>
        <time>2019-05-16T10:58:01.904Z</time>
      </trkpt>
      <trkpt lat="38.86888167" lon="-9.07854333">
        <ele>32.0</ele>
        <time>2019-05-16T10:58:02.913Z</time>
      </trkpt>
      <trkpt lat="38.86888167" lon="-9.07854333">
        <ele>32.0</ele>
        <time>2019-05-16T10:58:03.936Z</time>
      </trkpt>
      <trkpt lat="38.86889667" lon="-9.07848333">
        <ele>32.0</ele>
        <time>2019-05-16T10:58:04.950Z</time>
      </trkpt>
      <trkpt lat="38.86889667" lon="-9.07848333">
        <ele>32.0</ele>
        <time>2019-05-16T10:58:05.921Z</time>
      </trkpt>
      <trkpt lat="38.86891167" lon="-9.07842667">
        <ele>32.0</ele>
        <time>2019-05-16T10:58:06.899Z</time>
      </trkpt>
      <trkpt lat="38.86891167" lon="-9.07842667">
        <ele>32.0</ele>
        <time>2019-05-16T10:58:07.930Z</time>
      </trkpt>
      <trkpt lat="38.86892333" lon="-9.07837667">
        <ele>32.0</ele>
        <time>2019-05-16T10:58:08.919Z</time>
      </trkpt>
      <trkpt lat="38.86892333" lon="-9.07837667">
        <ele>32.0</ele>
        <time>2019-05-16T10:58:09.932Z</time>
      </trkpt>
      <trkpt lat="38.86893167" lon="-9.07833333">
        <ele>32.0</ele>
        <time>2019-05-16T10:58:10.903Z</time>
      </trkpt>
      <trkpt lat="38.86893167" lon="-9.07833333">
        <ele>32.0</ele>
        <time>2019-05-16T10:58:11.919Z</time>
      </trkpt>
      <trkpt lat="38.86894333" lon="-9.078285">
        <ele>32.0</ele>
        <time>2019-05-16T10:58:12.912Z</time>
      </trkpt>
      <trkpt lat="38.86894333" lon="-9.078285">
        <ele>32.0</ele>
        <time>2019-05-16T10:58:13.936Z</time>
      </trkpt>
      <trkpt lat="38.86895667" lon="-9.07823333">
        <ele>32.0</ele>
        <time>2019-05-16T10:58:14.920Z</time>
      </trkpt>
      <trkpt lat="38.86895667" lon="-9.07823333">
        <ele>32.0</ele>
        <time>2019-05-16T10:58:15.928Z</time>
      </trkpt>
      <trkpt lat="38.86897333" lon="-9.07817833">
        <ele>32.0</ele>
        <time>2019-05-16T10:58:16.897Z</time>
      </trkpt>
      <trkpt lat="38.86897333" lon="-9.07817833">
        <ele>32.0</ele>
        <time>2019-05-16T10:58:17.919Z</time>
      </trkpt>
      <trkpt lat="38.868985" lon="-9.078155">
        <ele>33.0</ele>
        <time>2019-05-16T10:58:18.897Z</time>
      </trkpt>
      <trkpt lat="38.868985" lon="-9.078155">
        <ele>33.0</ele>
        <time>2019-05-16T10:58:19.912Z</time>
      </trkpt>
      <trkpt lat="38.868985" lon="-9.07815333">
        <ele>33.0</ele>
        <time>2019-05-16T10:58:20.933Z</time>
      </trkpt>
      <trkpt lat="38.868985" lon="-9.07815333">
        <ele>33.0</ele>
        <time>2019-05-16T10:58:21.918Z</time>
      </trkpt>
      <trkpt lat="38.868985" lon="-9.07815333">
        <ele>33.0</ele>
        <time>2019-05-16T10:58:22.930Z</time>
      </trkpt>
      <trkpt lat="38.868985" lon="-9.07815333">
        <ele>33.0</ele>
        <time>2019-05-16T10:58:23.897Z</time>
      </trkpt>
      <trkpt lat="38.868985" lon="-9.07815333">
        <ele>33.0</ele>
        <time>2019-05-16T10:58:24.904Z</time>
      </trkpt>
      <trkpt lat="38.868985" lon="-9.07815333">
        <ele>33.0</ele>
        <time>2019-05-16T10:58:25.902Z</time>
      </trkpt>
      <trkpt lat="38.868985" lon="-9.07815333">
        <ele>33.0</ele>
        <time>2019-05-16T10:58:26.901Z</time>
      </trkpt>
      <trkpt lat="38.868985" lon="-9.07815333">
        <ele>33.0</ele>
        <time>2019-05-16T10:58:27.936Z</time>
      </trkpt>
      <trkpt lat="38.868985" lon="-9.07815333">
        <ele>33.0</ele>
        <time>2019-05-16T10:58:28.899Z</time>
      </trkpt>
      <trkpt lat="38.868985" lon="-9.07815333">
        <ele>33.0</ele>
        <time>2019-05-16T10:58:29.901Z</time>
      </trkpt>
      <trkpt lat="38.868985" lon="-9.07815333">
        <ele>33.0</ele>
        <time>2019-05-16T10:58:30.904Z</time>
      </trkpt>
      <trkpt lat="38.868985" lon="-9.07815333">
        <ele>33.0</ele>
        <time>2019-05-16T10:58:31.899Z</time>
      </trkpt>
      <trkpt lat="38.868985" lon="-9.07815333">
        <ele>33.0</ele>
        <time>2019-05-16T10:58:32.901Z</time>
      </trkpt>
      <trkpt lat="38.868985" lon="-9.07815333">
        <ele>33.0</ele>
        <time>2019-05-16T10:58:33.936Z</time>
      </trkpt>
      <trkpt lat="38.868985" lon="-9.07815333">
        <ele>33.0</ele>
        <time>2019-05-16T10:58:34.901Z</time>
      </trkpt>
      <trkpt lat="38.868985" lon="-9.07815333">
        <ele>33.0</ele>
        <time>2019-05-16T10:58:35.936Z</time>
      </trkpt>
      <trkpt lat="38.868985" lon="-9.07815333">
        <ele>33.0</ele>
        <time>2019-05-16T10:58:36.906Z</time>
      </trkpt>
      <trkpt lat="38.868985" lon="-9.07815333">
        <ele>33.0</ele>
        <time>2019-05-16T10:58:37.897Z</time>
      </trkpt>
      <trkpt lat="38.868985" lon="-9.07815333">
        <ele>33.0</ele>
        <time>2019-05-16T10:58:38.901Z</time>
      </trkpt>
      <trkpt lat="38.868985" lon="-9.07815333">
        <ele>33.0</ele>
        <time>2019-05-16T10:58:39.936Z</time>
      </trkpt>
      <trkpt lat="38.868985" lon="-9.07815333">
        <ele>33.0</ele>
        <time>2019-05-16T10:58:40.900Z</time>
      </trkpt>
      <trkpt lat="38.868985" lon="-9.07815333">
        <ele>33.0</ele>
        <time>2019-05-16T10:58:41.934Z</time>
      </trkpt>
      <trkpt lat="38.868985" lon="-9.07815333">
        <ele>33.0</ele>
        <time>2019-05-16T10:58:42.919Z</time>
      </trkpt>
      <trkpt lat="38.868985" lon="-9.07815333">
        <ele>33.0</ele>
        <time>2019-05-16T10:58:43.905Z</time>
      </trkpt>
      <trkpt lat="38.868985" lon="-9.07815333">
        <ele>33.0</ele>
        <time>2019-05-16T10:58:44.901Z</time>
      </trkpt>
      <trkpt lat="38.868985" lon="-9.07815333">
        <ele>33.0</ele>
        <time>2019-05-16T10:58:45.936Z</time>
      </trkpt>
      <trkpt lat="38.868985" lon="-9.07815333">
        <ele>33.0</ele>
        <time>2019-05-16T10:58:46.901Z</time>
      </trkpt>
      <trkpt lat="38.868985" lon="-9.07815333">
        <ele>33.0</ele>
        <time>2019-05-16T10:58:47.936Z</time>
      </trkpt>
      <trkpt lat="38.868985" lon="-9.07815333">
        <ele>33.0</ele>
        <time>2019-05-16T10:58:48.915Z</time>
      </trkpt>
      <trkpt lat="38.868985" lon="-9.07815333">
        <ele>33.0</ele>
        <time>2019-05-16T10:58:49.904Z</time>
      </trkpt>
      <trkpt lat="38.868985" lon="-9.07815333">
        <ele>33.0</ele>
        <time>2019-05-16T10:58:50.901Z</time>
      </trkpt>
      <trkpt lat="38.868985" lon="-9.07815333">
        <ele>33.0</ele>
        <time>2019-05-16T10:58:51.935Z</time>
      </trkpt>
      <trkpt lat="38.868985" lon="-9.07815333">
        <ele>33.0</ele>
        <time>2019-05-16T10:58:52.901Z</time>
      </trkpt>
      <trkpt lat="38.868985" lon="-9.07815333">
        <ele>33.0</ele>
        <time>2019-05-16T10:58:53.936Z</time>
      </trkpt>
      <trkpt lat="38.868985" lon="-9.07815333">
        <ele>33.0</ele>
        <time>2019-05-16T10:58:54.924Z</time>
      </trkpt>
      <trkpt lat="38.868985" lon="-9.07815333">
        <ele>33.0</ele>
        <time>2019-05-16T10:58:55.909Z</time>
      </trkpt>
      <trkpt lat="38.868985" lon="-9.07815333">
        <ele>33.0</ele>
        <time>2019-05-16T10:58:56.905Z</time>
      </trkpt>
      <trkpt lat="38.868985" lon="-9.07815333">
        <ele>33.0</ele>
        <time>2019-05-16T10:58:57.936Z</time>
      </trkpt>
      <trkpt lat="38.868985" lon="-9.07815333">
        <ele>33.0</ele>
        <time>2019-05-16T10:58:58.901Z</time>
      </trkpt>
      <trkpt lat="38.868985" lon="-9.07815333">
        <ele>33.0</ele>
        <time>2019-05-16T10:58:59.901Z</time>
      </trkpt>
      <trkpt lat="38.868985" lon="-9.07815333">
        <ele>33.0</ele>
        <time>2019-05-16T10:59:00.936Z</time>
      </trkpt>
      <trkpt lat="38.868985" lon="-9.07815333">
        <ele>33.0</ele>
        <time>2019-05-16T10:59:01.901Z</time>
      </trkpt>
      <trkpt lat="38.868985" lon="-9.07815333">
        <ele>33.0</ele>
        <time>2019-05-16T10:59:02.898Z</time>
      </trkpt>
      <trkpt lat="38.868985" lon="-9.07815333">
        <ele>33.0</ele>
        <time>2019-05-16T10:59:03.900Z</time>
      </trkpt>
      <trkpt lat="38.868985" lon="-9.07815333">
        <ele>33.0</ele>
        <time>2019-05-16T10:59:04.936Z</time>
      </trkpt>
      <trkpt lat="38.868985" lon="-9.07815333">
        <ele>33.0</ele>
        <time>2019-05-16T10:59:05.901Z</time>
      </trkpt>
      <trkpt lat="38.868985" lon="-9.07815333">
        <ele>33.0</ele>
        <time>2019-05-16T10:59:06.903Z</time>
      </trkpt>
      <trkpt lat="38.868985" lon="-9.07815333">
        <ele>33.0</ele>
        <time>2019-05-16T10:59:07.936Z</time>
      </trkpt>
      <trkpt lat="38.868985" lon="-9.07815333">
        <ele>33.0</ele>
        <time>2019-05-16T10:59:08.913Z</time>
      </trkpt>
      <trkpt lat="38.868985" lon="-9.07815333">
        <ele>33.0</ele>
        <time>2019-05-16T10:59:09.936Z</time>
      </trkpt>
      <trkpt lat="38.868985" lon="-9.07815333">
        <ele>33.0</ele>
        <time>2019-05-16T10:59:10.901Z</time>
      </trkpt>
      <trkpt lat="38.868985" lon="-9.07815333">
        <ele>33.0</ele>
        <time>2019-05-16T10:59:11.936Z</time>
      </trkpt>
      <trkpt lat="38.868985" lon="-9.07815333">
        <ele>33.0</ele>
        <time>2019-05-16T10:59:12.912Z</time>
      </trkpt>
      <trkpt lat="38.868985" lon="-9.07815333">
        <ele>33.0</ele>
        <time>2019-05-16T10:59:13.898Z</time>
      </trkpt>
      <trkpt lat="38.868985" lon="-9.07815333">
        <ele>33.0</ele>
        <time>2019-05-16T10:59:14.904Z</time>
      </trkpt>
      <trkpt lat="38.868985" lon="-9.07815333">
        <ele>33.0</ele>
        <time>2019-05-16T10:59:15.936Z</time>
      </trkpt>
      <trkpt lat="38.868985" lon="-9.07815333">
        <ele>33.0</ele>
        <time>2019-05-16T10:59:16.901Z</time>
      </trkpt>
      <trkpt lat="38.868985" lon="-9.07815333">
        <ele>33.0</ele>
        <time>2019-05-16T10:59:17.937Z</time>
      </trkpt>
      <trkpt lat="38.868985" lon="-9.07815333">
        <ele>33.0</ele>
        <time>2019-05-16T10:59:18.915Z</time>
      </trkpt>
      <trkpt lat="38.868985" lon="-9.07815333">
        <ele>33.0</ele>
        <time>2019-05-16T10:59:19.901Z</time>
      </trkpt>
      <trkpt lat="38.868985" lon="-9.07815333">
        <ele>33.0</ele>
        <time>2019-05-16T10:59:20.932Z</time>
      </trkpt>
      <trkpt lat="38.868985" lon="-9.07815333">
        <ele>33.0</ele>
        <time>2019-05-16T10:59:21.931Z</time>
      </trkpt>
      <trkpt lat="38.868985" lon="-9.07815333">
        <ele>33.0</ele>
        <time>2019-05-16T10:59:22.897Z</time>
      </trkpt>
      <trkpt lat="38.868985" lon="-9.07815333">
        <ele>33.0</ele>
        <time>2019-05-16T10:59:23.904Z</time>
      </trkpt>
      <trkpt lat="38.868985" lon="-9.07815333">
        <ele>33.0</ele>
        <time>2019-05-16T10:59:24.912Z</time>
      </trkpt>
      <trkpt lat="38.868985" lon="-9.07815333">
        <ele>33.0</ele>
        <time>2019-05-16T10:59:25.898Z</time>
      </trkpt>
      <trkpt lat="38.868985" lon="-9.07815333">
        <ele>33.0</ele>
        <time>2019-05-16T10:59:26.901Z</time>
      </trkpt>
      <trkpt lat="38.868985" lon="-9.07815333">
        <ele>33.0</ele>
        <time>2019-05-16T10:59:27.901Z</time>
      </trkpt>
      <trkpt lat="38.868985" lon="-9.07815333">
        <ele>33.0</ele>
        <time>2019-05-16T10:59:28.901Z</time>
      </trkpt>
      <trkpt lat="38.868985" lon="-9.07815333">
        <ele>33.0</ele>
        <time>2019-05-16T10:59:29.937Z</time>
      </trkpt>
      <trkpt lat="38.86900333" lon="-9.07813667">
        <ele>34.0</ele>
        <time>2019-05-16T10:59:30.904Z</time>
      </trkpt>
      <trkpt lat="38.86900333" lon="-9.07813667">
        <ele>34.0</ele>
        <time>2019-05-16T10:59:31.936Z</time>
      </trkpt>
      <trkpt lat="38.869015" lon="-9.07810833">
        <ele>34.0</ele>
        <time>2019-05-16T10:59:32.899Z</time>
      </trkpt>
      <trkpt lat="38.86902" lon="-9.07808667">
        <ele>34.0</ele>
        <time>2019-05-16T10:59:33.901Z</time>
      </trkpt>
      <trkpt lat="38.86902" lon="-9.07808667">
        <ele>34.0</ele>
        <time>2019-05-16T10:59:34.936Z</time>
      </trkpt>
      <trkpt lat="38.86903333" lon="-9.07803833">
        <ele>33.0</ele>
        <time>2019-05-16T10:59:35.900Z</time>
      </trkpt>
      <trkpt lat="38.86904333" lon="-9.07801">
        <ele>33.0</ele>
        <time>2019-05-16T10:59:36.903Z</time>
      </trkpt>
      <trkpt lat="38.86904333" lon="-9.07801">
        <ele>33.0</ele>
        <time>2019-05-16T10:59:37.901Z</time>
      </trkpt>
      <trkpt lat="38.869065" lon="-9.07795">
        <ele>33.0</ele>
        <time>2019-05-16T10:59:38.966Z</time>
      </trkpt>
      <trkpt lat="38.869065" lon="-9.07795">
        <ele>33.0</ele>
        <time>2019-05-16T10:59:39.921Z</time>
      </trkpt>
      <trkpt lat="38.86907833" lon="-9.07789">
        <ele>33.0</ele>
        <time>2019-05-16T10:59:40.936Z</time>
      </trkpt>
      <trkpt lat="38.86908667" lon="-9.077855">
        <ele>33.0</ele>
        <time>2019-05-16T10:59:41.902Z</time>
      </trkpt>
      <trkpt lat="38.869095" lon="-9.07782">
        <ele>32.0</ele>
        <time>2019-05-16T10:59:42.923Z</time>
      </trkpt>
      <trkpt lat="38.869095" lon="-9.07782">
        <ele>32.0</ele>
        <time>2019-05-16T10:59:43.911Z</time>
      </trkpt>
      <trkpt lat="38.869115" lon="-9.07774667">
        <ele>32.0</ele>
        <time>2019-05-16T10:59:44.928Z</time>
      </trkpt>
      <trkpt lat="38.869115" lon="-9.07774667">
        <ele>32.0</ele>
        <time>2019-05-16T10:59:45.933Z</time>
      </trkpt>
      <trkpt lat="38.86913333" lon="-9.07768333">
        <ele>32.0</ele>
        <time>2019-05-16T10:59:46.902Z</time>
      </trkpt>
      <trkpt lat="38.86914167" lon="-9.07765667">
        <ele>32.0</ele>
        <time>2019-05-16T10:59:47.898Z</time>
      </trkpt>
      <trkpt lat="38.86914667" lon="-9.07762833">
        <ele>31.0</ele>
        <time>2019-05-16T10:59:48.920Z</time>
      </trkpt>
      <trkpt lat="38.86914667" lon="-9.07762833">
        <ele>31.0</ele>
        <time>2019-05-16T10:59:49.901Z</time>
      </trkpt>
      <trkpt lat="38.86915" lon="-9.07758">
        <ele>31.0</ele>
        <time>2019-05-16T10:59:50.913Z</time>
      </trkpt>
      <trkpt lat="38.86915" lon="-9.07758">
        <ele>31.0</ele>
        <time>2019-05-16T10:59:51.909Z</time>
      </trkpt>
      <trkpt lat="38.86915167" lon="-9.07753333">
        <ele>31.0</ele>
        <time>2019-05-16T10:59:52.934Z</time>
      </trkpt>
      <trkpt lat="38.86915167" lon="-9.07753333">
        <ele>31.0</ele>
        <time>2019-05-16T10:59:53.915Z</time>
      </trkpt>
      <trkpt lat="38.86914333" lon="-9.07749">
        <ele>31.0</ele>
        <time>2019-05-16T10:59:54.933Z</time>
      </trkpt>
      <trkpt lat="38.86914333" lon="-9.07749">
        <ele>31.0</ele>
        <time>2019-05-16T10:59:55.935Z</time>
      </trkpt>
      <trkpt lat="38.86912333" lon="-9.07742">
        <ele>32.0</ele>
        <time>2019-05-16T10:59:56.905Z</time>
      </trkpt>
      <trkpt lat="38.86912333" lon="-9.07742">
        <ele>32.0</ele>
        <time>2019-05-16T10:59:57.932Z</time>
      </trkpt>
      <trkpt lat="38.86909667" lon="-9.07733">
        <ele>31.0</ele>
        <time>2019-05-16T10:59:58.900Z</time>
      </trkpt>
      <trkpt lat="38.86909" lon="-9.07729">
        <ele>31.0</ele>
        <time>2019-05-16T10:59:59.900Z</time>
      </trkpt>
      <trkpt lat="38.86909" lon="-9.077255">
        <ele>32.0</ele>
        <time>2019-05-16T11:00:00.918Z</time>
      </trkpt>
      <trkpt lat="38.86909" lon="-9.077255">
        <ele>32.0</ele>
        <time>2019-05-16T11:00:01.912Z</time>
      </trkpt>
      <trkpt lat="38.86909167" lon="-9.07720667">
        <ele>32.0</ele>
        <time>2019-05-16T11:00:02.925Z</time>
      </trkpt>
      <trkpt lat="38.86909167" lon="-9.07720667">
        <ele>32.0</ele>
        <time>2019-05-16T11:00:03.915Z</time>
      </trkpt>
      <trkpt lat="38.86909167" lon="-9.07716833">
        <ele>32.0</ele>
        <time>2019-05-16T11:00:04.930Z</time>
      </trkpt>
      <trkpt lat="38.86909167" lon="-9.07715833">
        <ele>33.0</ele>
        <time>2019-05-16T11:00:05.902Z</time>
      </trkpt>
      <trkpt lat="38.86909333" lon="-9.077155">
        <ele>33.0</ele>
        <time>2019-05-16T11:00:06.898Z</time>
      </trkpt>
      <trkpt lat="38.86909333" lon="-9.077155">
        <ele>33.0</ele>
        <time>2019-05-16T11:00:07.931Z</time>
      </trkpt>
      <trkpt lat="38.86909333" lon="-9.07715333">
        <ele>33.0</ele>
        <time>2019-05-16T11:00:08.904Z</time>
      </trkpt>
      <trkpt lat="38.86909333" lon="-9.07715333">
        <ele>33.0</ele>
        <time>2019-05-16T11:00:09.929Z</time>
      </trkpt>
      <trkpt lat="38.86909333" lon="-9.07715333">
        <ele>33.0</ele>
        <time>2019-05-16T11:00:10.935Z</time>
      </trkpt>
      <trkpt lat="38.86909333" lon="-9.07715333">
        <ele>33.0</ele>
        <time>2019-05-16T11:00:11.901Z</time>
      </trkpt>
      <trkpt lat="38.86909333" lon="-9.07715333">
        <ele>33.0</ele>
        <time>2019-05-16T11:00:12.906Z</time>
      </trkpt>
      <trkpt lat="38.86909333" lon="-9.07715333">
        <ele>33.0</ele>
        <time>2019-05-16T11:00:13.912Z</time>
      </trkpt>
      <trkpt lat="38.86909333" lon="-9.07715333">
        <ele>33.0</ele>
        <time>2019-05-16T11:00:14.903Z</time>
      </trkpt>
      <trkpt lat="38.86909333" lon="-9.07715333">
        <ele>33.0</ele>
        <time>2019-05-16T11:00:15.936Z</time>
      </trkpt>
      <trkpt lat="38.86909333" lon="-9.07715333">
        <ele>33.0</ele>
        <time>2019-05-16T11:00:16.916Z</time>
      </trkpt>
      <trkpt lat="38.86909333" lon="-9.07715333">
        <ele>33.0</ele>
        <time>2019-05-16T11:00:17.938Z</time>
      </trkpt>
      <trkpt lat="38.86909333" lon="-9.07715333">
        <ele>33.0</ele>
        <time>2019-05-16T11:00:18.904Z</time>
      </trkpt>
      <trkpt lat="38.86909333" lon="-9.07715333">
        <ele>33.0</ele>
        <time>2019-05-16T11:00:19.898Z</time>
      </trkpt>
      <trkpt lat="38.86909333" lon="-9.07715333">
        <ele>33.0</ele>
        <time>2019-05-16T11:00:20.908Z</time>
      </trkpt>
      <trkpt lat="38.86909333" lon="-9.07715333">
        <ele>33.0</ele>
        <time>2019-05-16T11:00:21.930Z</time>
      </trkpt>
      <trkpt lat="38.86909333" lon="-9.07715333">
        <ele>33.0</ele>
        <time>2019-05-16T11:00:22.904Z</time>
      </trkpt>
      <trkpt lat="38.86909333" lon="-9.07715333">
        <ele>33.0</ele>
        <time>2019-05-16T11:00:23.915Z</time>
      </trkpt>
      <trkpt lat="38.86909333" lon="-9.07715333">
        <ele>33.0</ele>
        <time>2019-05-16T11:00:24.912Z</time>
      </trkpt>
      <trkpt lat="38.86909333" lon="-9.07715333">
        <ele>33.0</ele>
        <time>2019-05-16T11:00:25.904Z</time>
      </trkpt>
      <trkpt lat="38.86909333" lon="-9.07715333">
        <ele>33.0</ele>
        <time>2019-05-16T11:00:26.904Z</time>
      </trkpt>
      <trkpt lat="38.86909333" lon="-9.07715333">
        <ele>33.0</ele>
        <time>2019-05-16T11:00:27.914Z</time>
      </trkpt>
      <trkpt lat="38.86909333" lon="-9.07715333">
        <ele>33.0</ele>
        <time>2019-05-16T11:00:28.902Z</time>
      </trkpt>
      <trkpt lat="38.86909333" lon="-9.07715333">
        <ele>33.0</ele>
        <time>2019-05-16T11:00:29.904Z</time>
      </trkpt>
      <trkpt lat="38.86909333" lon="-9.07715333">
        <ele>33.0</ele>
        <time>2019-05-16T11:00:30.906Z</time>
      </trkpt>
      <trkpt lat="38.86909333" lon="-9.07715333">
        <ele>33.0</ele>
        <time>2019-05-16T11:00:31.928Z</time>
      </trkpt>
      <trkpt lat="38.86909333" lon="-9.07715333">
        <ele>33.0</ele>
        <time>2019-05-16T11:00:32.902Z</time>
      </trkpt>
      <trkpt lat="38.86909" lon="-9.077105">
        <ele>35.0</ele>
        <time>2019-05-16T11:00:33.909Z</time>
      </trkpt>
      <trkpt lat="38.86907333" lon="-9.07709333">
        <ele>36.0</ele>
        <time>2019-05-16T11:00:34.917Z</time>
      </trkpt>
      <trkpt lat="38.86907333" lon="-9.07709333">
        <ele>36.0</ele>
        <time>2019-05-16T11:00:35.899Z</time>
      </trkpt>
      <trkpt lat="38.86902667" lon="-9.077075">
        <ele>36.0</ele>
        <time>2019-05-16T11:00:36.902Z</time>
      </trkpt>
      <trkpt lat="38.86902667" lon="-9.077075">
        <ele>36.0</ele>
        <time>2019-05-16T11:00:37.898Z</time>
      </trkpt>
      <trkpt lat="38.86896" lon="-9.07705833">
        <ele>36.0</ele>
        <time>2019-05-16T11:00:38.905Z</time>
      </trkpt>
      <trkpt lat="38.86896" lon="-9.07705833">
        <ele>36.0</ele>
        <time>2019-05-16T11:00:39.937Z</time>
      </trkpt>
      <trkpt lat="38.86887833" lon="-9.07703167">
        <ele>36.0</ele>
        <time>2019-05-16T11:00:40.978Z</time>
      </trkpt>
      <trkpt lat="38.86887833" lon="-9.07703167">
        <ele>36.0</ele>
        <time>2019-05-16T11:00:41.921Z</time>
      </trkpt>
      <trkpt lat="38.86878667" lon="-9.07700667">
        <ele>35.0</ele>
        <time>2019-05-16T11:00:42.932Z</time>
      </trkpt>
      <trkpt lat="38.86878667" lon="-9.07700667">
        <ele>35.0</ele>
        <time>2019-05-16T11:00:43.931Z</time>
      </trkpt>
      <trkpt lat="38.868695" lon="-9.07698">
        <ele>35.0</ele>
        <time>2019-05-16T11:00:44.905Z</time>
      </trkpt>
      <trkpt lat="38.86865" lon="-9.07696833">
        <ele>35.0</ele>
        <time>2019-05-16T11:00:45.899Z</time>
      </trkpt>
      <trkpt lat="38.86865" lon="-9.07696833">
        <ele>35.0</ele>
        <time>2019-05-16T11:00:46.931Z</time>
      </trkpt>
      <trkpt lat="38.86856333" lon="-9.076945">
        <ele>35.0</ele>
        <time>2019-05-16T11:00:47.914Z</time>
      </trkpt>
      <trkpt lat="38.868525" lon="-9.07693167">
        <ele>35.0</ele>
        <time>2019-05-16T11:00:48.921Z</time>
      </trkpt>
      <trkpt lat="38.868525" lon="-9.07693167">
        <ele>35.0</ele>
        <time>2019-05-16T11:00:49.930Z</time>
      </trkpt>
      <trkpt lat="38.86845" lon="-9.07691167">
        <ele>35.0</ele>
        <time>2019-05-16T11:00:50.900Z</time>
      </trkpt>
      <trkpt lat="38.86845" lon="-9.07691167">
        <ele>35.0</ele>
        <time>2019-05-16T11:00:51.908Z</time>
      </trkpt>
      <trkpt lat="38.868375" lon="-9.07689833">
        <ele>34.0</ele>
        <time>2019-05-16T11:00:52.898Z</time>
      </trkpt>
      <trkpt lat="38.868375" lon="-9.07689833">
        <ele>34.0</ele>
        <time>2019-05-16T11:00:53.907Z</time>
      </trkpt>
      <trkpt lat="38.86831" lon="-9.07687667">
        <ele>34.0</ele>
        <time>2019-05-16T11:00:54.920Z</time>
      </trkpt>
      <trkpt lat="38.86831" lon="-9.07687667">
        <ele>34.0</ele>
        <time>2019-05-16T11:00:55.931Z</time>
      </trkpt>
      <trkpt lat="38.86825" lon="-9.07686833">
        <ele>34.0</ele>
        <time>2019-05-16T11:00:56.903Z</time>
      </trkpt>
      <trkpt lat="38.86825" lon="-9.07686833">
        <ele>34.0</ele>
        <time>2019-05-16T11:00:57.900Z</time>
      </trkpt>
      <trkpt lat="38.86819667" lon="-9.07685333">
        <ele>34.0</ele>
        <time>2019-05-16T11:00:58.911Z</time>
      </trkpt>
      <trkpt lat="38.86819667" lon="-9.07685333">
        <ele>34.0</ele>
        <time>2019-05-16T11:00:59.918Z</time>
      </trkpt>
      <trkpt lat="38.86814667" lon="-9.07684833">
        <ele>35.0</ele>
        <time>2019-05-16T11:01:00.904Z</time>
      </trkpt>
      <trkpt lat="38.86814667" lon="-9.07684833">
        <ele>35.0</ele>
        <time>2019-05-16T11:01:01.905Z</time>
      </trkpt>
      <trkpt lat="38.8681" lon="-9.076835">
        <ele>35.0</ele>
        <time>2019-05-16T11:01:02.923Z</time>
      </trkpt>
      <trkpt lat="38.8681" lon="-9.076835">
        <ele>35.0</ele>
        <time>2019-05-16T11:01:03.911Z</time>
      </trkpt>
      <trkpt lat="38.86804333" lon="-9.07680833">
        <ele>37.0</ele>
        <time>2019-05-16T11:01:04.921Z</time>
      </trkpt>
      <trkpt lat="38.86804333" lon="-9.07680833">
        <ele>37.0</ele>
        <time>2019-05-16T11:01:05.934Z</time>
      </trkpt>
      <trkpt lat="38.86798" lon="-9.076795">
        <ele>37.0</ele>
        <time>2019-05-16T11:01:06.910Z</time>
      </trkpt>
      <trkpt lat="38.86798" lon="-9.076795">
        <ele>37.0</ele>
        <time>2019-05-16T11:01:07.911Z</time>
      </trkpt>
      <trkpt lat="38.86791333" lon="-9.07677833">
        <ele>38.0</ele>
        <time>2019-05-16T11:01:08.897Z</time>
      </trkpt>
      <trkpt lat="38.86788167" lon="-9.07677833">
        <ele>38.0</ele>
        <time>2019-05-16T11:01:09.937Z</time>
      </trkpt>
      <trkpt lat="38.86788167" lon="-9.07677833">
        <ele>38.0</ele>
        <time>2019-05-16T11:01:10.928Z</time>
      </trkpt>
      <trkpt lat="38.867825" lon="-9.07676833">
        <ele>39.0</ele>
        <time>2019-05-16T11:01:11.907Z</time>
      </trkpt>
      <trkpt lat="38.86780333" lon="-9.07675167">
        <ele>39.0</ele>
        <time>2019-05-16T11:01:12.915Z</time>
      </trkpt>
      <trkpt lat="38.86780333" lon="-9.07675167">
        <ele>39.0</ele>
        <time>2019-05-16T11:01:13.931Z</time>
      </trkpt>
      <trkpt lat="38.86776333" lon="-9.07672">
        <ele>40.0</ele>
        <time>2019-05-16T11:01:14.922Z</time>
      </trkpt>
      <trkpt lat="38.86776333" lon="-9.07672">
        <ele>40.0</ele>
        <time>2019-05-16T11:01:15.910Z</time>
      </trkpt>
      <trkpt lat="38.867725" lon="-9.0767">
        <ele>40.0</ele>
        <time>2019-05-16T11:01:16.919Z</time>
      </trkpt>
      <trkpt lat="38.867725" lon="-9.0767">
        <ele>40.0</ele>
        <time>2019-05-16T11:01:17.931Z</time>
      </trkpt>
      <trkpt lat="38.867695" lon="-9.076675">
        <ele>41.0</ele>
        <time>2019-05-16T11:01:18.901Z</time>
      </trkpt>
      <trkpt lat="38.867695" lon="-9.076675">
        <ele>41.0</ele>
        <time>2019-05-16T11:01:19.921Z</time>
      </trkpt>
      <trkpt lat="38.867665" lon="-9.07664667">
        <ele>41.0</ele>
        <time>2019-05-16T11:01:20.916Z</time>
      </trkpt>
      <trkpt lat="38.867665" lon="-9.07664667">
        <ele>41.0</ele>
        <time>2019-05-16T11:01:21.900Z</time>
      </trkpt>
      <trkpt lat="38.86764833" lon="-9.07661333">
        <ele>42.0</ele>
        <time>2019-05-16T11:01:22.909Z</time>
      </trkpt>
      <trkpt lat="38.867645" lon="-9.07659667">
        <ele>42.0</ele>
        <time>2019-05-16T11:01:23.917Z</time>
      </trkpt>
      <trkpt lat="38.867645" lon="-9.07659667">
        <ele>42.0</ele>
        <time>2019-05-16T11:01:24.927Z</time>
      </trkpt>
      <trkpt lat="38.86763833" lon="-9.07656">
        <ele>42.0</ele>
        <time>2019-05-16T11:01:25.937Z</time>
      </trkpt>
      <trkpt lat="38.86763833" lon="-9.07656">
        <ele>42.0</ele>
        <time>2019-05-16T11:01:26.928Z</time>
      </trkpt>
      <trkpt lat="38.86764167" lon="-9.07653">
        <ele>42.0</ele>
        <time>2019-05-16T11:01:27.907Z</time>
      </trkpt>
      <trkpt lat="38.86764667" lon="-9.07651667">
        <ele>42.0</ele>
        <time>2019-05-16T11:01:28.921Z</time>
      </trkpt>
      <trkpt lat="38.86764667" lon="-9.07651667">
        <ele>42.0</ele>
        <time>2019-05-16T11:01:29.900Z</time>
      </trkpt>
      <trkpt lat="38.86765833" lon="-9.07649">
        <ele>42.0</ele>
        <time>2019-05-16T11:01:30.908Z</time>
      </trkpt>
      <trkpt lat="38.86765833" lon="-9.07649">
        <ele>42.0</ele>
        <time>2019-05-16T11:01:31.901Z</time>
      </trkpt>
      <trkpt lat="38.86767667" lon="-9.076455">
        <ele>42.0</ele>
        <time>2019-05-16T11:01:32.914Z</time>
      </trkpt>
      <trkpt lat="38.86767667" lon="-9.076455">
        <ele>42.0</ele>
        <time>2019-05-16T11:01:33.917Z</time>
      </trkpt>
      <trkpt lat="38.86770167" lon="-9.07640333">
        <ele>42.0</ele>
        <time>2019-05-16T11:01:34.906Z</time>
      </trkpt>
      <trkpt lat="38.86770167" lon="-9.07640333">
        <ele>42.0</ele>
        <time>2019-05-16T11:01:35.931Z</time>
      </trkpt>
      <trkpt lat="38.86773167" lon="-9.076345">
        <ele>42.0</ele>
        <time>2019-05-16T11:01:36.898Z</time>
      </trkpt>
      <trkpt lat="38.86773167" lon="-9.076345">
        <ele>42.0</ele>
        <time>2019-05-16T11:01:37.914Z</time>
      </trkpt>
      <trkpt lat="38.86776833" lon="-9.07628">
        <ele>41.0</ele>
        <time>2019-05-16T11:01:38.924Z</time>
      </trkpt>
      <trkpt lat="38.86776833" lon="-9.07628">
        <ele>41.0</ele>
        <time>2019-05-16T11:01:39.901Z</time>
      </trkpt>
      <trkpt lat="38.86780667" lon="-9.076205">
        <ele>41.0</ele>
        <time>2019-05-16T11:01:40.927Z</time>
      </trkpt>
      <trkpt lat="38.867825" lon="-9.07616667">
        <ele>41.0</ele>
        <time>2019-05-16T11:01:41.922Z</time>
      </trkpt>
      <trkpt lat="38.86784333" lon="-9.07612833">
        <ele>40.0</ele>
        <time>2019-05-16T11:01:42.934Z</time>
      </trkpt>
      <trkpt lat="38.86784333" lon="-9.07612833">
        <ele>40.0</ele>
        <time>2019-05-16T11:01:43.909Z</time>
      </trkpt>
      <trkpt lat="38.86787167" lon="-9.07605">
        <ele>40.0</ele>
        <time>2019-05-16T11:01:44.927Z</time>
      </trkpt>
      <trkpt lat="38.86787167" lon="-9.07605">
        <ele>40.0</ele>
        <time>2019-05-16T11:01:45.919Z</time>
      </trkpt>
      <trkpt lat="38.867885" lon="-9.07598">
        <ele>40.0</ele>
        <time>2019-05-16T11:01:46.932Z</time>
      </trkpt>
      <trkpt lat="38.867885" lon="-9.07598">
        <ele>40.0</ele>
        <time>2019-05-16T11:01:47.897Z</time>
      </trkpt>
      <trkpt lat="38.867885" lon="-9.07591667">
        <ele>40.0</ele>
        <time>2019-05-16T11:01:48.910Z</time>
      </trkpt>
      <trkpt lat="38.867885" lon="-9.07591667">
        <ele>40.0</ele>
        <time>2019-05-16T11:01:49.898Z</time>
      </trkpt>
      <trkpt lat="38.86788667" lon="-9.07585833">
        <ele>40.0</ele>
        <time>2019-05-16T11:01:50.910Z</time>
      </trkpt>
      <trkpt lat="38.86788667" lon="-9.07585833">
        <ele>40.0</ele>
        <time>2019-05-16T11:01:51.926Z</time>
      </trkpt>
      <trkpt lat="38.867895" lon="-9.0758">
        <ele>40.0</ele>
        <time>2019-05-16T11:01:52.936Z</time>
      </trkpt>
      <trkpt lat="38.867895" lon="-9.0758">
        <ele>40.0</ele>
        <time>2019-05-16T11:01:53.932Z</time>
      </trkpt>
      <trkpt lat="38.86792" lon="-9.07574167">
        <ele>40.0</ele>
        <time>2019-05-16T11:01:54.903Z</time>
      </trkpt>
      <trkpt lat="38.86792" lon="-9.07574167">
        <ele>40.0</ele>
        <time>2019-05-16T11:01:55.934Z</time>
      </trkpt>
      <trkpt lat="38.86795167" lon="-9.075675">
        <ele>40.0</ele>
        <time>2019-05-16T11:01:56.937Z</time>
      </trkpt>
      <trkpt lat="38.86795167" lon="-9.075675">
        <ele>40.0</ele>
        <time>2019-05-16T11:01:57.904Z</time>
      </trkpt>
      <trkpt lat="38.86798833" lon="-9.07561">
        <ele>39.0</ele>
        <time>2019-05-16T11:01:58.912Z</time>
      </trkpt>
      <trkpt lat="38.86800833" lon="-9.075575">
        <ele>39.0</ele>
        <time>2019-05-16T11:01:59.906Z</time>
      </trkpt>
      <trkpt lat="38.86803" lon="-9.07553833">
        <ele>39.0</ele>
        <time>2019-05-16T11:02:00.944Z</time>
      </trkpt>
      <trkpt lat="38.86803" lon="-9.07553833">
        <ele>39.0</ele>
        <time>2019-05-16T11:02:01.932Z</time>
      </trkpt>
      <trkpt lat="38.86807167" lon="-9.07546167">
        <ele>39.0</ele>
        <time>2019-05-16T11:02:02.904Z</time>
      </trkpt>
      <trkpt lat="38.86807167" lon="-9.07546167">
        <ele>39.0</ele>
        <time>2019-05-16T11:02:03.924Z</time>
      </trkpt>
      <trkpt lat="38.86811333" lon="-9.07538333">
        <ele>38.0</ele>
        <time>2019-05-16T11:02:04.910Z</time>
      </trkpt>
      <trkpt lat="38.868135" lon="-9.07534333">
        <ele>38.0</ele>
        <time>2019-05-16T11:02:05.917Z</time>
      </trkpt>
      <trkpt lat="38.868155" lon="-9.07530333">
        <ele>38.0</ele>
        <time>2019-05-16T11:02:06.946Z</time>
      </trkpt>
      <trkpt lat="38.868155" lon="-9.07530333">
        <ele>38.0</ele>
        <time>2019-05-16T11:02:07.927Z</time>
      </trkpt>
      <trkpt lat="38.86819333" lon="-9.07523333">
        <ele>38.0</ele>
        <time>2019-05-16T11:02:08.900Z</time>
      </trkpt>
      <trkpt lat="38.868215" lon="-9.07519833">
        <ele>38.0</ele>
        <time>2019-05-16T11:02:09.898Z</time>
      </trkpt>
      <trkpt lat="38.868215" lon="-9.07519833">
        <ele>38.0</ele>
        <time>2019-05-16T11:02:10.933Z</time>
      </trkpt>
      <trkpt lat="38.868255" lon="-9.07512667">
        <ele>38.0</ele>
        <time>2019-05-16T11:02:11.901Z</time>
      </trkpt>
      <trkpt lat="38.868255" lon="-9.07512667">
        <ele>38.0</ele>
        <time>2019-05-16T11:02:12.900Z</time>
      </trkpt>
      <trkpt lat="38.86829667" lon="-9.07505333">
        <ele>38.0</ele>
        <time>2019-05-16T11:02:13.899Z</time>
      </trkpt>
      <trkpt lat="38.86831667" lon="-9.075015">
        <ele>38.0</ele>
        <time>2019-05-16T11:02:14.923Z</time>
      </trkpt>
      <trkpt lat="38.86831667" lon="-9.075015">
        <ele>38.0</ele>
        <time>2019-05-16T11:02:15.917Z</time>
      </trkpt>
      <trkpt lat="38.86835333" lon="-9.07494167">
        <ele>37.0</ele>
        <time>2019-05-16T11:02:16.937Z</time>
      </trkpt>
      <trkpt lat="38.86835333" lon="-9.07494167">
        <ele>37.0</ele>
        <time>2019-05-16T11:02:17.920Z</time>
      </trkpt>
      <trkpt lat="38.86838833" lon="-9.07486">
        <ele>37.0</ele>
        <time>2019-05-16T11:02:18.929Z</time>
      </trkpt>
      <trkpt lat="38.86838833" lon="-9.07486">
        <ele>37.0</ele>
        <time>2019-05-16T11:02:19.906Z</time>
      </trkpt>
      <trkpt lat="38.86843" lon="-9.07476333">
        <ele>36.0</ele>
        <time>2019-05-16T11:02:20.932Z</time>
      </trkpt>
      <trkpt lat="38.86843" lon="-9.07476333">
        <ele>36.0</ele>
        <time>2019-05-16T11:02:21.928Z</time>
      </trkpt>
      <trkpt lat="38.86847667" lon="-9.07466167">
        <ele>36.0</ele>
        <time>2019-05-16T11:02:22.902Z</time>
      </trkpt>
      <trkpt lat="38.86847667" lon="-9.07466167">
        <ele>36.0</ele>
        <time>2019-05-16T11:02:23.902Z</time>
      </trkpt>
      <trkpt lat="38.86852833" lon="-9.07455667">
        <ele>35.0</ele>
        <time>2019-05-16T11:02:24.917Z</time>
      </trkpt>
      <trkpt lat="38.86852833" lon="-9.07455667">
        <ele>35.0</ele>
        <time>2019-05-16T11:02:25.904Z</time>
      </trkpt>
      <trkpt lat="38.86858333" lon="-9.07445">
        <ele>35.0</ele>
        <time>2019-05-16T11:02:26.915Z</time>
      </trkpt>
      <trkpt lat="38.86858333" lon="-9.07445">
        <ele>35.0</ele>
        <time>2019-05-16T11:02:27.918Z</time>
      </trkpt>
      <trkpt lat="38.86863667" lon="-9.074345">
        <ele>34.0</ele>
        <time>2019-05-16T11:02:28.935Z</time>
      </trkpt>
      <trkpt lat="38.86863667" lon="-9.074345">
        <ele>34.0</ele>
        <time>2019-05-16T11:02:29.920Z</time>
      </trkpt>
      <trkpt lat="38.86869167" lon="-9.07424167">
        <ele>34.0</ele>
        <time>2019-05-16T11:02:30.935Z</time>
      </trkpt>
      <trkpt lat="38.86869167" lon="-9.07424167">
        <ele>34.0</ele>
        <time>2019-05-16T11:02:31.903Z</time>
      </trkpt>
      <trkpt lat="38.86874667" lon="-9.07414333">
        <ele>34.0</ele>
        <time>2019-05-16T11:02:32.915Z</time>
      </trkpt>
      <trkpt lat="38.86874667" lon="-9.07414333">
        <ele>34.0</ele>
        <time>2019-05-16T11:02:33.900Z</time>
      </trkpt>
      <trkpt lat="38.86879667" lon="-9.07405167">
        <ele>33.0</ele>
        <time>2019-05-16T11:02:34.919Z</time>
      </trkpt>
      <trkpt lat="38.86879667" lon="-9.07405167">
        <ele>33.0</ele>
        <time>2019-05-16T11:02:35.907Z</time>
      </trkpt>
      <trkpt lat="38.86884167" lon="-9.07396333">
        <ele>33.0</ele>
        <time>2019-05-16T11:02:36.921Z</time>
      </trkpt>
      <trkpt lat="38.86884167" lon="-9.07396333">
        <ele>33.0</ele>
        <time>2019-05-16T11:02:37.917Z</time>
      </trkpt>
      <trkpt lat="38.86888333" lon="-9.073875">
        <ele>33.0</ele>
        <time>2019-05-16T11:02:38.934Z</time>
      </trkpt>
      <trkpt lat="38.86888333" lon="-9.073875">
        <ele>33.0</ele>
        <time>2019-05-16T11:02:39.922Z</time>
      </trkpt>
      <trkpt lat="38.86892167" lon="-9.07378667">
        <ele>32.0</ele>
        <time>2019-05-16T11:02:40.939Z</time>
      </trkpt>
      <trkpt lat="38.86892167" lon="-9.07378667">
        <ele>32.0</ele>
        <time>2019-05-16T11:02:41.914Z</time>
      </trkpt>
      <trkpt lat="38.86896333" lon="-9.073705">
        <ele>32.0</ele>
        <time>2019-05-16T11:02:42.923Z</time>
      </trkpt>
      <trkpt lat="38.86896333" lon="-9.073705">
        <ele>32.0</ele>
        <time>2019-05-16T11:02:43.933Z</time>
      </trkpt>
      <trkpt lat="38.86900833" lon="-9.07362333">
        <ele>32.0</ele>
        <time>2019-05-16T11:02:44.907Z</time>
      </trkpt>
      <trkpt lat="38.86903333" lon="-9.07358">
        <ele>32.0</ele>
        <time>2019-05-16T11:02:45.917Z</time>
      </trkpt>
      <trkpt lat="38.86905667" lon="-9.07353667">
        <ele>31.0</ele>
        <time>2019-05-16T11:02:46.932Z</time>
      </trkpt>
      <trkpt lat="38.86905667" lon="-9.07353667">
        <ele>31.0</ele>
        <time>2019-05-16T11:02:47.918Z</time>
      </trkpt>
      <trkpt lat="38.869105" lon="-9.07345167">
        <ele>31.0</ele>
        <time>2019-05-16T11:02:48.933Z</time>
      </trkpt>
      <trkpt lat="38.869105" lon="-9.07345167">
        <ele>31.0</ele>
        <time>2019-05-16T11:02:49.931Z</time>
      </trkpt>
      <trkpt lat="38.86915167" lon="-9.07336167">
        <ele>30.0</ele>
        <time>2019-05-16T11:02:50.907Z</time>
      </trkpt>
      <trkpt lat="38.86915167" lon="-9.07336167">
        <ele>30.0</ele>
        <time>2019-05-16T11:02:51.928Z</time>
      </trkpt>
      <trkpt lat="38.8692" lon="-9.07327167">
        <ele>30.0</ele>
        <time>2019-05-16T11:02:52.940Z</time>
      </trkpt>
      <trkpt lat="38.8692" lon="-9.07327167">
        <ele>30.0</ele>
        <time>2019-05-16T11:02:53.914Z</time>
      </trkpt>
      <trkpt lat="38.86924667" lon="-9.07318333">
        <ele>30.0</ele>
        <time>2019-05-16T11:02:54.899Z</time>
      </trkpt>
      <trkpt lat="38.86924667" lon="-9.07318333">
        <ele>30.0</ele>
        <time>2019-05-16T11:02:55.911Z</time>
      </trkpt>
      <trkpt lat="38.86929" lon="-9.07309667">
        <ele>30.0</ele>
        <time>2019-05-16T11:02:56.924Z</time>
      </trkpt>
      <trkpt lat="38.86929" lon="-9.07309667">
        <ele>30.0</ele>
        <time>2019-05-16T11:02:57.920Z</time>
      </trkpt>
      <trkpt lat="38.86933167" lon="-9.07301">
        <ele>29.0</ele>
        <time>2019-05-16T11:02:58.931Z</time>
      </trkpt>
      <trkpt lat="38.86933167" lon="-9.07301">
        <ele>29.0</ele>
        <time>2019-05-16T11:02:59.927Z</time>
      </trkpt>
      <trkpt lat="38.86937" lon="-9.07293">
        <ele>29.0</ele>
        <time>2019-05-16T11:03:00.936Z</time>
      </trkpt>
      <trkpt lat="38.86937" lon="-9.07293">
        <ele>29.0</ele>
        <time>2019-05-16T11:03:01.911Z</time>
      </trkpt>
      <trkpt lat="38.86940667" lon="-9.07285">
        <ele>29.0</ele>
        <time>2019-05-16T11:03:02.920Z</time>
      </trkpt>
      <trkpt lat="38.86940667" lon="-9.07285">
        <ele>29.0</ele>
        <time>2019-05-16T11:03:03.913Z</time>
      </trkpt>
      <trkpt lat="38.869445" lon="-9.07276833">
        <ele>29.0</ele>
        <time>2019-05-16T11:03:04.925Z</time>
      </trkpt>
      <trkpt lat="38.869445" lon="-9.07276833">
        <ele>29.0</ele>
        <time>2019-05-16T11:03:05.928Z</time>
      </trkpt>
      <trkpt lat="38.86948833" lon="-9.07268333">
        <ele>28.0</ele>
        <time>2019-05-16T11:03:06.937Z</time>
      </trkpt>
      <trkpt lat="38.86948833" lon="-9.07268333">
        <ele>28.0</ele>
        <time>2019-05-16T11:03:07.929Z</time>
      </trkpt>
      <trkpt lat="38.86953667" lon="-9.0726">
        <ele>27.0</ele>
        <time>2019-05-16T11:03:08.912Z</time>
      </trkpt>
      <trkpt lat="38.86953667" lon="-9.0726">
        <ele>27.0</ele>
        <time>2019-05-16T11:03:09.918Z</time>
      </trkpt>
      <trkpt lat="38.86958833" lon="-9.07250667">
        <ele>27.0</ele>
        <time>2019-05-16T11:03:10.902Z</time>
      </trkpt>
      <trkpt lat="38.86961167" lon="-9.07246167">
        <ele>26.0</ele>
        <time>2019-05-16T11:03:11.902Z</time>
      </trkpt>
      <trkpt lat="38.86963667" lon="-9.07242167">
        <ele>26.0</ele>
        <time>2019-05-16T11:03:12.911Z</time>
      </trkpt>
      <trkpt lat="38.86963667" lon="-9.07242167">
        <ele>26.0</ele>
        <time>2019-05-16T11:03:13.932Z</time>
      </trkpt>
      <trkpt lat="38.86968333" lon="-9.07234667">
        <ele>25.0</ele>
        <time>2019-05-16T11:03:14.905Z</time>
      </trkpt>
      <trkpt lat="38.86968333" lon="-9.07234667">
        <ele>25.0</ele>
        <time>2019-05-16T11:03:15.898Z</time>
      </trkpt>
      <trkpt lat="38.86973" lon="-9.072265">
        <ele>24.0</ele>
        <time>2019-05-16T11:03:16.908Z</time>
      </trkpt>
      <trkpt lat="38.86975333" lon="-9.072225">
        <ele>24.0</ele>
        <time>2019-05-16T11:03:17.933Z</time>
      </trkpt>
      <trkpt lat="38.86977667" lon="-9.07218167">
        <ele>23.0</ele>
        <time>2019-05-16T11:03:18.900Z</time>
      </trkpt>
      <trkpt lat="38.86977667" lon="-9.07218167">
        <ele>23.0</ele>
        <time>2019-05-16T11:03:19.915Z</time>
      </trkpt>
      <trkpt lat="38.869825" lon="-9.07209">
        <ele>22.0</ele>
        <time>2019-05-16T11:03:20.936Z</time>
      </trkpt>
      <trkpt lat="38.869825" lon="-9.07209">
        <ele>22.0</ele>
        <time>2019-05-16T11:03:21.929Z</time>
      </trkpt>
      <trkpt lat="38.869865" lon="-9.071995">
        <ele>21.0</ele>
        <time>2019-05-16T11:03:22.916Z</time>
      </trkpt>
      <trkpt lat="38.869865" lon="-9.071995">
        <ele>21.0</ele>
        <time>2019-05-16T11:03:23.930Z</time>
      </trkpt>
      <trkpt lat="38.86989667" lon="-9.07191333">
        <ele>21.0</ele>
        <time>2019-05-16T11:03:24.911Z</time>
      </trkpt>
      <trkpt lat="38.86989667" lon="-9.07191333">
        <ele>21.0</ele>
        <time>2019-05-16T11:03:25.920Z</time>
      </trkpt>
      <trkpt lat="38.86992667" lon="-9.07183333">
        <ele>21.0</ele>
        <time>2019-05-16T11:03:26.932Z</time>
      </trkpt>
      <trkpt lat="38.86992667" lon="-9.07183333">
        <ele>21.0</ele>
        <time>2019-05-16T11:03:27.903Z</time>
      </trkpt>
      <trkpt lat="38.86995667" lon="-9.071755">
        <ele>20.0</ele>
        <time>2019-05-16T11:03:28.912Z</time>
      </trkpt>
      <trkpt lat="38.86995667" lon="-9.071755">
        <ele>20.0</ele>
        <time>2019-05-16T11:03:29.925Z</time>
      </trkpt>
      <trkpt lat="38.869985" lon="-9.07168667">
        <ele>20.0</ele>
        <time>2019-05-16T11:03:30.939Z</time>
      </trkpt>
      <trkpt lat="38.869985" lon="-9.07168667">
        <ele>20.0</ele>
        <time>2019-05-16T11:03:31.932Z</time>
      </trkpt>
      <trkpt lat="38.87000667" lon="-9.07162333">
        <ele>19.0</ele>
        <time>2019-05-16T11:03:32.900Z</time>
      </trkpt>
      <trkpt lat="38.87000667" lon="-9.07162333">
        <ele>19.0</ele>
        <time>2019-05-16T11:03:33.900Z</time>
      </trkpt>
      <trkpt lat="38.87003" lon="-9.07159">
        <ele>18.0</ele>
        <time>2019-05-16T11:03:34.912Z</time>
      </trkpt>
      <trkpt lat="38.87003" lon="-9.07159">
        <ele>18.0</ele>
        <time>2019-05-16T11:03:35.911Z</time>
      </trkpt>
      <trkpt lat="38.87005667" lon="-9.07156667">
        <ele>18.0</ele>
        <time>2019-05-16T11:03:36.923Z</time>
      </trkpt>
      <trkpt lat="38.87005667" lon="-9.07156667">
        <ele>18.0</ele>
        <time>2019-05-16T11:03:37.906Z</time>
      </trkpt>
      <trkpt lat="38.870085" lon="-9.071545">
        <ele>18.0</ele>
        <time>2019-05-16T11:03:38.914Z</time>
      </trkpt>
      <trkpt lat="38.870085" lon="-9.071545">
        <ele>18.0</ele>
        <time>2019-05-16T11:03:39.928Z</time>
      </trkpt>
      <trkpt lat="38.87010833" lon="-9.07152167">
        <ele>17.0</ele>
        <time>2019-05-16T11:03:40.937Z</time>
      </trkpt>
      <trkpt lat="38.87010833" lon="-9.07152167">
        <ele>17.0</ele>
        <time>2019-05-16T11:03:41.922Z</time>
      </trkpt>
      <trkpt lat="38.87014" lon="-9.07149">
        <ele>17.0</ele>
        <time>2019-05-16T11:03:42.913Z</time>
      </trkpt>
      <trkpt lat="38.87014" lon="-9.07149">
        <ele>17.0</ele>
        <time>2019-05-16T11:03:43.901Z</time>
      </trkpt>
      <trkpt lat="38.87017833" lon="-9.07144667">
        <ele>17.0</ele>
        <time>2019-05-16T11:03:44.910Z</time>
      </trkpt>
      <trkpt lat="38.87017833" lon="-9.07144667">
        <ele>17.0</ele>
        <time>2019-05-16T11:03:45.927Z</time>
      </trkpt>
      <trkpt lat="38.87021333" lon="-9.07139167">
        <ele>17.0</ele>
        <time>2019-05-16T11:03:46.937Z</time>
      </trkpt>
      <trkpt lat="38.87021333" lon="-9.07139167">
        <ele>17.0</ele>
        <time>2019-05-16T11:03:47.898Z</time>
      </trkpt>
      <trkpt lat="38.87024333" lon="-9.071335">
        <ele>17.0</ele>
        <time>2019-05-16T11:03:48.915Z</time>
      </trkpt>
      <trkpt lat="38.87024333" lon="-9.071335">
        <ele>17.0</ele>
        <time>2019-05-16T11:03:49.905Z</time>
      </trkpt>
      <trkpt lat="38.87027333" lon="-9.07127833">
        <ele>17.0</ele>
        <time>2019-05-16T11:03:50.914Z</time>
      </trkpt>
      <trkpt lat="38.87027333" lon="-9.07127833">
        <ele>17.0</ele>
        <time>2019-05-16T11:03:51.936Z</time>
      </trkpt>
      <trkpt lat="38.870305" lon="-9.07121667">
        <ele>17.0</ele>
        <time>2019-05-16T11:03:52.908Z</time>
      </trkpt>
      <trkpt lat="38.870305" lon="-9.07121667">
        <ele>17.0</ele>
        <time>2019-05-16T11:03:53.912Z</time>
      </trkpt>
      <trkpt lat="38.87033667" lon="-9.07115">
        <ele>17.0</ele>
        <time>2019-05-16T11:03:54.927Z</time>
      </trkpt>
      <trkpt lat="38.87033667" lon="-9.07115">
        <ele>17.0</ele>
        <time>2019-05-16T11:03:55.911Z</time>
      </trkpt>
      <trkpt lat="38.87036833" lon="-9.07109">
        <ele>16.0</ele>
        <time>2019-05-16T11:03:56.930Z</time>
      </trkpt>
      <trkpt lat="38.87036833" lon="-9.07109">
        <ele>16.0</ele>
        <time>2019-05-16T11:03:57.915Z</time>
      </trkpt>
      <trkpt lat="38.87040333" lon="-9.071035">
        <ele>16.0</ele>
        <time>2019-05-16T11:03:58.901Z</time>
      </trkpt>
      <trkpt lat="38.87040333" lon="-9.071035">
        <ele>16.0</ele>
        <time>2019-05-16T11:03:59.931Z</time>
      </trkpt>
      <trkpt lat="38.87044" lon="-9.07097667">
        <ele>16.0</ele>
        <time>2019-05-16T11:04:00.899Z</time>
      </trkpt>
      <trkpt lat="38.87044" lon="-9.07097667">
        <ele>16.0</ele>
        <time>2019-05-16T11:04:01.909Z</time>
      </trkpt>
      <trkpt lat="38.870475" lon="-9.07092">
        <ele>16.0</ele>
        <time>2019-05-16T11:04:02.920Z</time>
      </trkpt>
      <trkpt lat="38.87049" lon="-9.07089167">
        <ele>16.0</ele>
        <time>2019-05-16T11:04:03.929Z</time>
      </trkpt>
      <trkpt lat="38.87049" lon="-9.07089167">
        <ele>16.0</ele>
        <time>2019-05-16T11:04:04.927Z</time>
      </trkpt>
      <trkpt lat="38.87051667" lon="-9.07084167">
        <ele>17.0</ele>
        <time>2019-05-16T11:04:05.936Z</time>
      </trkpt>
      <trkpt lat="38.87051667" lon="-9.07084167">
        <ele>17.0</ele>
        <time>2019-05-16T11:04:06.921Z</time>
      </trkpt>
      <trkpt lat="38.87054333" lon="-9.070805">
        <ele>17.0</ele>
        <time>2019-05-16T11:04:07.934Z</time>
      </trkpt>
      <trkpt lat="38.87055833" lon="-9.070785">
        <ele>17.0</ele>
        <time>2019-05-16T11:04:08.917Z</time>
      </trkpt>
      <trkpt lat="38.87055833" lon="-9.070785">
        <ele>17.0</ele>
        <time>2019-05-16T11:04:09.919Z</time>
      </trkpt>
      <trkpt lat="38.87059333" lon="-9.07073667">
        <ele>17.0</ele>
        <time>2019-05-16T11:04:10.933Z</time>
      </trkpt>
      <trkpt lat="38.87059333" lon="-9.07073667">
        <ele>17.0</ele>
        <time>2019-05-16T11:04:11.915Z</time>
      </trkpt>
      <trkpt lat="38.87063333" lon="-9.07068167">
        <ele>17.0</ele>
        <time>2019-05-16T11:04:12.927Z</time>
      </trkpt>
      <trkpt lat="38.87063333" lon="-9.07068167">
        <ele>17.0</ele>
        <time>2019-05-16T11:04:13.903Z</time>
      </trkpt>
      <trkpt lat="38.87068167" lon="-9.07062">
        <ele>17.0</ele>
        <time>2019-05-16T11:04:14.910Z</time>
      </trkpt>
      <trkpt lat="38.87068167" lon="-9.07062">
        <ele>17.0</ele>
        <time>2019-05-16T11:04:15.903Z</time>
      </trkpt>
      <trkpt lat="38.87073167" lon="-9.07055167">
        <ele>17.0</ele>
        <time>2019-05-16T11:04:16.913Z</time>
      </trkpt>
      <trkpt lat="38.87073167" lon="-9.07055167">
        <ele>17.0</ele>
        <time>2019-05-16T11:04:17.937Z</time>
      </trkpt>
      <trkpt lat="38.87077833" lon="-9.07047667">
        <ele>18.0</ele>
        <time>2019-05-16T11:04:18.904Z</time>
      </trkpt>
      <trkpt lat="38.87077833" lon="-9.07047667">
        <ele>18.0</ele>
        <time>2019-05-16T11:04:19.901Z</time>
      </trkpt>
      <trkpt lat="38.87082" lon="-9.070415">
        <ele>18.0</ele>
        <time>2019-05-16T11:04:20.934Z</time>
      </trkpt>
      <trkpt lat="38.87083833" lon="-9.07038667">
        <ele>18.0</ele>
        <time>2019-05-16T11:04:21.927Z</time>
      </trkpt>
      <trkpt lat="38.87083833" lon="-9.07038667">
        <ele>18.0</ele>
        <time>2019-05-16T11:04:22.934Z</time>
      </trkpt>
      <trkpt lat="38.87087333" lon="-9.07033667">
        <ele>18.0</ele>
        <time>2019-05-16T11:04:23.908Z</time>
      </trkpt>
      <trkpt lat="38.87089167" lon="-9.07031167">
        <ele>18.0</ele>
        <time>2019-05-16T11:04:24.944Z</time>
      </trkpt>
      <trkpt lat="38.87089167" lon="-9.07031167">
        <ele>18.0</ele>
        <time>2019-05-16T11:04:25.906Z</time>
      </trkpt>
      <trkpt lat="38.870925" lon="-9.07026333">
        <ele>19.0</ele>
        <time>2019-05-16T11:04:26.927Z</time>
      </trkpt>
      <trkpt lat="38.870925" lon="-9.07026333">
        <ele>19.0</ele>
        <time>2019-05-16T11:04:27.930Z</time>
      </trkpt>
      <trkpt lat="38.87096333" lon="-9.07021167">
        <ele>19.0</ele>
        <time>2019-05-16T11:04:28.900Z</time>
      </trkpt>
      <trkpt lat="38.87096333" lon="-9.07021167">
        <ele>19.0</ele>
        <time>2019-05-16T11:04:29.931Z</time>
      </trkpt>
      <trkpt lat="38.87100667" lon="-9.07016">
        <ele>19.0</ele>
        <time>2019-05-16T11:04:30.900Z</time>
      </trkpt>
      <trkpt lat="38.87100667" lon="-9.07016">
        <ele>19.0</ele>
        <time>2019-05-16T11:04:31.922Z</time>
      </trkpt>
      <trkpt lat="38.87104667" lon="-9.07011333">
        <ele>19.0</ele>
        <time>2019-05-16T11:04:32.934Z</time>
      </trkpt>
      <trkpt lat="38.87104667" lon="-9.07011333">
        <ele>19.0</ele>
        <time>2019-05-16T11:04:33.918Z</time>
      </trkpt>
      <trkpt lat="38.87108833" lon="-9.07006167">
        <ele>19.0</ele>
        <time>2019-05-16T11:04:34.934Z</time>
      </trkpt>
      <trkpt lat="38.87108833" lon="-9.07006167">
        <ele>19.0</ele>
        <time>2019-05-16T11:04:35.914Z</time>
      </trkpt>
      <trkpt lat="38.87113" lon="-9.07000833">
        <ele>19.0</ele>
        <time>2019-05-16T11:04:36.925Z</time>
      </trkpt>
      <trkpt lat="38.87113" lon="-9.07000833">
        <ele>19.0</ele>
        <time>2019-05-16T11:04:37.933Z</time>
      </trkpt>
      <trkpt lat="38.87117167" lon="-9.06994667">
        <ele>19.0</ele>
        <time>2019-05-16T11:04:38.907Z</time>
      </trkpt>
      <trkpt lat="38.87117167" lon="-9.06994667">
        <ele>19.0</ele>
        <time>2019-05-16T11:04:39.915Z</time>
      </trkpt>
      <trkpt lat="38.871215" lon="-9.06988333">
        <ele>19.0</ele>
        <time>2019-05-16T11:04:40.925Z</time>
      </trkpt>
      <trkpt lat="38.871215" lon="-9.06988333">
        <ele>19.0</ele>
        <time>2019-05-16T11:04:41.908Z</time>
      </trkpt>
      <trkpt lat="38.871265" lon="-9.06982167">
        <ele>18.0</ele>
        <time>2019-05-16T11:04:42.917Z</time>
      </trkpt>
      <trkpt lat="38.871265" lon="-9.06982167">
        <ele>18.0</ele>
        <time>2019-05-16T11:04:43.932Z</time>
      </trkpt>
      <trkpt lat="38.87132333" lon="-9.06976">
        <ele>18.0</ele>
        <time>2019-05-16T11:04:44.905Z</time>
      </trkpt>
      <trkpt lat="38.87135333" lon="-9.06973">
        <ele>18.0</ele>
        <time>2019-05-16T11:04:45.901Z</time>
      </trkpt>
      <trkpt lat="38.87135333" lon="-9.06973">
        <ele>18.0</ele>
        <time>2019-05-16T11:04:46.898Z</time>
      </trkpt>
      <trkpt lat="38.8714" lon="-9.06967">
        <ele>18.0</ele>
        <time>2019-05-16T11:04:47.914Z</time>
      </trkpt>
      <trkpt lat="38.87141667" lon="-9.06964333">
        <ele>17.0</ele>
        <time>2019-05-16T11:04:48.918Z</time>
      </trkpt>
      <trkpt lat="38.87141667" lon="-9.06964333">
        <ele>17.0</ele>
        <time>2019-05-16T11:04:49.932Z</time>
      </trkpt>
      <trkpt lat="38.87145" lon="-9.069595">
        <ele>17.0</ele>
        <time>2019-05-16T11:04:50.897Z</time>
      </trkpt>
      <trkpt lat="38.87145" lon="-9.069595">
        <ele>17.0</ele>
        <time>2019-05-16T11:04:51.927Z</time>
      </trkpt>
      <trkpt lat="38.87148333" lon="-9.06955667">
        <ele>17.0</ele>
        <time>2019-05-16T11:04:52.899Z</time>
      </trkpt>
      <trkpt lat="38.87150167" lon="-9.06953333">
        <ele>17.0</ele>
        <time>2019-05-16T11:04:53.919Z</time>
      </trkpt>
      <trkpt lat="38.87151833" lon="-9.06951">
        <ele>18.0</ele>
        <time>2019-05-16T11:04:54.917Z</time>
      </trkpt>
      <trkpt lat="38.87151833" lon="-9.06951">
        <ele>18.0</ele>
        <time>2019-05-16T11:04:55.931Z</time>
      </trkpt>
      <trkpt lat="38.871555" lon="-9.069465">
        <ele>18.0</ele>
        <time>2019-05-16T11:04:56.900Z</time>
      </trkpt>
      <trkpt lat="38.871555" lon="-9.069465">
        <ele>18.0</ele>
        <time>2019-05-16T11:04:57.904Z</time>
      </trkpt>
      <trkpt lat="38.87161" lon="-9.06942333">
        <ele>18.0</ele>
        <time>2019-05-16T11:04:58.911Z</time>
      </trkpt>
      <trkpt lat="38.87161" lon="-9.06942333">
        <ele>18.0</ele>
        <time>2019-05-16T11:04:59.898Z</time>
      </trkpt>
      <trkpt lat="38.87165333" lon="-9.06939">
        <ele>18.0</ele>
        <time>2019-05-16T11:05:00.910Z</time>
      </trkpt>
      <trkpt lat="38.87165333" lon="-9.06939">
        <ele>18.0</ele>
        <time>2019-05-16T11:05:01.907Z</time>
      </trkpt>
      <trkpt lat="38.87169167" lon="-9.069355">
        <ele>19.0</ele>
        <time>2019-05-16T11:05:02.921Z</time>
      </trkpt>
      <trkpt lat="38.87169167" lon="-9.069355">
        <ele>19.0</ele>
        <time>2019-05-16T11:05:03.913Z</time>
      </trkpt>
      <trkpt lat="38.87170333" lon="-9.06932667">
        <ele>19.0</ele>
        <time>2019-05-16T11:05:04.921Z</time>
      </trkpt>
      <trkpt lat="38.87170667" lon="-9.069325">
        <ele>19.0</ele>
        <time>2019-05-16T11:05:05.901Z</time>
      </trkpt>
      <trkpt lat="38.87170667" lon="-9.06932667">
        <ele>19.0</ele>
        <time>2019-05-16T11:05:06.932Z</time>
      </trkpt>
      <trkpt lat="38.87170667" lon="-9.06932667">
        <ele>19.0</ele>
        <time>2019-05-16T11:05:07.919Z</time>
      </trkpt>
      <trkpt lat="38.87170667" lon="-9.06933">
        <ele>19.0</ele>
        <time>2019-05-16T11:05:08.935Z</time>
      </trkpt>
      <trkpt lat="38.87170667" lon="-9.06933">
        <ele>19.0</ele>
        <time>2019-05-16T11:05:09.919Z</time>
      </trkpt>
      <trkpt lat="38.87170667" lon="-9.06933">
        <ele>19.0</ele>
        <time>2019-05-16T11:05:10.925Z</time>
      </trkpt>
      <trkpt lat="38.87170667" lon="-9.06933">
        <ele>19.0</ele>
        <time>2019-05-16T11:05:11.932Z</time>
      </trkpt>
      <trkpt lat="38.87170667" lon="-9.06933">
        <ele>19.0</ele>
        <time>2019-05-16T11:05:12.897Z</time>
      </trkpt>
      <trkpt lat="38.871705" lon="-9.06931833">
        <ele>19.0</ele>
        <time>2019-05-16T11:05:13.904Z</time>
      </trkpt>
      <trkpt lat="38.871705" lon="-9.06931833">
        <ele>19.0</ele>
        <time>2019-05-16T11:05:14.897Z</time>
      </trkpt>
      <trkpt lat="38.87170167" lon="-9.06930333">
        <ele>19.0</ele>
        <time>2019-05-16T11:05:15.902Z</time>
      </trkpt>
      <trkpt lat="38.87170167" lon="-9.06930333">
        <ele>19.0</ele>
        <time>2019-05-16T11:05:16.908Z</time>
      </trkpt>
      <trkpt lat="38.87169" lon="-9.06926833">
        <ele>20.0</ele>
        <time>2019-05-16T11:05:17.903Z</time>
      </trkpt>
      <trkpt lat="38.87167667" lon="-9.069235">
        <ele>20.0</ele>
        <time>2019-05-16T11:05:18.910Z</time>
      </trkpt>
      <trkpt lat="38.87167667" lon="-9.069235">
        <ele>20.0</ele>
        <time>2019-05-16T11:05:19.899Z</time>
      </trkpt>
      <trkpt lat="38.87164667" lon="-9.06915667">
        <ele>20.0</ele>
        <time>2019-05-16T11:05:20.922Z</time>
      </trkpt>
      <trkpt lat="38.87164667" lon="-9.06915667">
        <ele>20.0</ele>
        <time>2019-05-16T11:05:21.902Z</time>
      </trkpt>
      <trkpt lat="38.87161667" lon="-9.06908">
        <ele>19.0</ele>
        <time>2019-05-16T11:05:22.921Z</time>
      </trkpt>
      <trkpt lat="38.87161667" lon="-9.06908">
        <ele>19.0</ele>
        <time>2019-05-16T11:05:23.928Z</time>
      </trkpt>
      <trkpt lat="38.87159333" lon="-9.06899333">
        <ele>19.0</ele>
        <time>2019-05-16T11:05:24.909Z</time>
      </trkpt>
      <trkpt lat="38.87159333" lon="-9.06899333">
        <ele>19.0</ele>
        <time>2019-05-16T11:05:25.932Z</time>
      </trkpt>
      <trkpt lat="38.87154" lon="-9.06893333">
        <ele>19.0</ele>
        <time>2019-05-16T11:05:26.906Z</time>
      </trkpt>
      <trkpt lat="38.87154" lon="-9.06893333">
        <ele>19.0</ele>
        <time>2019-05-16T11:05:27.917Z</time>
      </trkpt>
      <trkpt lat="38.87149667" lon="-9.06881833">
        <ele>19.0</ele>
        <time>2019-05-16T11:05:28.934Z</time>
      </trkpt>
      <trkpt lat="38.87149667" lon="-9.06881833">
        <ele>19.0</ele>
        <time>2019-05-16T11:05:29.899Z</time>
      </trkpt>
      <trkpt lat="38.871435" lon="-9.068725">
        <ele>20.0</ele>
        <time>2019-05-16T11:05:30.907Z</time>
      </trkpt>
      <trkpt lat="38.871435" lon="-9.068725">
        <ele>20.0</ele>
        <time>2019-05-16T11:05:31.932Z</time>
      </trkpt>
      <trkpt lat="38.87136667" lon="-9.06864333">
        <ele>20.0</ele>
        <time>2019-05-16T11:05:32.905Z</time>
      </trkpt>
      <trkpt lat="38.87136667" lon="-9.06864333">
        <ele>20.0</ele>
        <time>2019-05-16T11:05:33.933Z</time>
      </trkpt>
      <trkpt lat="38.87128833" lon="-9.06856833">
        <ele>20.0</ele>
        <time>2019-05-16T11:05:34.901Z</time>
      </trkpt>
      <trkpt lat="38.87128833" lon="-9.06856833">
        <ele>20.0</ele>
        <time>2019-05-16T11:05:35.937Z</time>
      </trkpt>
      <trkpt lat="38.87121" lon="-9.06849167">
        <ele>20.0</ele>
        <time>2019-05-16T11:05:36.910Z</time>
      </trkpt>
      <trkpt lat="38.87121" lon="-9.06849167">
        <ele>20.0</ele>
        <time>2019-05-16T11:05:37.914Z</time>
      </trkpt>
      <trkpt lat="38.87112333" lon="-9.06841333">
        <ele>20.0</ele>
        <time>2019-05-16T11:05:38.922Z</time>
      </trkpt>
      <trkpt lat="38.87112333" lon="-9.06841333">
        <ele>20.0</ele>
        <time>2019-05-16T11:05:39.912Z</time>
      </trkpt>
      <trkpt lat="38.87102833" lon="-9.06833333">
        <ele>20.0</ele>
        <time>2019-05-16T11:05:40.931Z</time>
      </trkpt>
      <trkpt lat="38.87102833" lon="-9.06833333">
        <ele>20.0</ele>
        <time>2019-05-16T11:05:41.920Z</time>
      </trkpt>
      <trkpt lat="38.87093167" lon="-9.06825167">
        <ele>19.0</ele>
        <time>2019-05-16T11:05:42.934Z</time>
      </trkpt>
      <trkpt lat="38.87093167" lon="-9.06825167">
        <ele>19.0</ele>
        <time>2019-05-16T11:05:43.931Z</time>
      </trkpt>
      <trkpt lat="38.87084" lon="-9.06817">
        <ele>19.0</ele>
        <time>2019-05-16T11:05:44.901Z</time>
      </trkpt>
      <trkpt lat="38.87084" lon="-9.06817">
        <ele>19.0</ele>
        <time>2019-05-16T11:05:45.908Z</time>
      </trkpt>
      <trkpt lat="38.87075333" lon="-9.06808667">
        <ele>18.0</ele>
        <time>2019-05-16T11:05:46.918Z</time>
      </trkpt>
      <trkpt lat="38.87075333" lon="-9.06808667">
        <ele>18.0</ele>
        <time>2019-05-16T11:05:47.932Z</time>
      </trkpt>
      <trkpt lat="38.87067167" lon="-9.06799333">
        <ele>17.0</ele>
        <time>2019-05-16T11:05:48.923Z</time>
      </trkpt>
      <trkpt lat="38.87067167" lon="-9.06799333">
        <ele>17.0</ele>
        <time>2019-05-16T11:05:49.901Z</time>
      </trkpt>
      <trkpt lat="38.87059833" lon="-9.06789">
        <ele>17.0</ele>
        <time>2019-05-16T11:05:50.910Z</time>
      </trkpt>
      <trkpt lat="38.87059833" lon="-9.06789">
        <ele>17.0</ele>
        <time>2019-05-16T11:05:51.910Z</time>
      </trkpt>
      <trkpt lat="38.870535" lon="-9.06778167">
        <ele>16.0</ele>
        <time>2019-05-16T11:05:52.917Z</time>
      </trkpt>
      <trkpt lat="38.870535" lon="-9.06778167">
        <ele>16.0</ele>
        <time>2019-05-16T11:05:53.902Z</time>
      </trkpt>
      <trkpt lat="38.87047833" lon="-9.06767333">
        <ele>16.0</ele>
        <time>2019-05-16T11:05:54.910Z</time>
      </trkpt>
      <trkpt lat="38.87047833" lon="-9.06767333">
        <ele>16.0</ele>
        <time>2019-05-16T11:05:55.937Z</time>
      </trkpt>
      <trkpt lat="38.87042333" lon="-9.06755667">
        <ele>16.0</ele>
        <time>2019-05-16T11:05:56.909Z</time>
      </trkpt>
      <trkpt lat="38.870395" lon="-9.06749333">
        <ele>16.0</ele>
        <time>2019-05-16T11:05:57.934Z</time>
      </trkpt>
      <trkpt lat="38.870395" lon="-9.06749333">
        <ele>16.0</ele>
        <time>2019-05-16T11:05:58.907Z</time>
      </trkpt>
      <trkpt lat="38.87034833" lon="-9.06735333">
        <ele>16.0</ele>
        <time>2019-05-16T11:05:59.939Z</time>
      </trkpt>
      <trkpt lat="38.87032667" lon="-9.06727833">
        <ele>16.0</ele>
        <time>2019-05-16T11:06:00.918Z</time>
      </trkpt>
      <trkpt lat="38.87032667" lon="-9.06727833">
        <ele>16.0</ele>
        <time>2019-05-16T11:06:01.931Z</time>
      </trkpt>
      <trkpt lat="38.87028667" lon="-9.06712333">
        <ele>16.0</ele>
        <time>2019-05-16T11:06:02.905Z</time>
      </trkpt>
      <trkpt lat="38.87028667" lon="-9.06712333">
        <ele>16.0</ele>
        <time>2019-05-16T11:06:03.936Z</time>
      </trkpt>
      <trkpt lat="38.87025" lon="-9.06696333">
        <ele>16.0</ele>
        <time>2019-05-16T11:06:04.916Z</time>
      </trkpt>
      <trkpt lat="38.87025" lon="-9.06696333">
        <ele>16.0</ele>
        <time>2019-05-16T11:06:05.918Z</time>
      </trkpt>
      <trkpt lat="38.870215" lon="-9.06680167">
        <ele>16.0</ele>
        <time>2019-05-16T11:06:06.925Z</time>
      </trkpt>
      <trkpt lat="38.870215" lon="-9.06680167">
        <ele>16.0</ele>
        <time>2019-05-16T11:06:07.911Z</time>
      </trkpt>
      <trkpt lat="38.87018167" lon="-9.06663833">
        <ele>16.0</ele>
        <time>2019-05-16T11:06:08.922Z</time>
      </trkpt>
      <trkpt lat="38.87018167" lon="-9.06663833">
        <ele>16.0</ele>
        <time>2019-05-16T11:06:09.901Z</time>
      </trkpt>
      <trkpt lat="38.87015" lon="-9.066475">
        <ele>15.0</ele>
        <time>2019-05-16T11:06:10.901Z</time>
      </trkpt>
      <trkpt lat="38.87015" lon="-9.066475">
        <ele>15.0</ele>
        <time>2019-05-16T11:06:11.934Z</time>
      </trkpt>
      <trkpt lat="38.87011667" lon="-9.06630833">
        <ele>15.0</ele>
        <time>2019-05-16T11:06:12.913Z</time>
      </trkpt>
      <trkpt lat="38.87011667" lon="-9.06630833">
        <ele>15.0</ele>
        <time>2019-05-16T11:06:13.901Z</time>
      </trkpt>
      <trkpt lat="38.87009" lon="-9.06613167">
        <ele>16.0</ele>
        <time>2019-05-16T11:06:14.913Z</time>
      </trkpt>
      <trkpt lat="38.87009" lon="-9.06613167">
        <ele>16.0</ele>
        <time>2019-05-16T11:06:15.907Z</time>
      </trkpt>
      <trkpt lat="38.870055" lon="-9.065955">
        <ele>16.0</ele>
        <time>2019-05-16T11:06:16.923Z</time>
      </trkpt>
      <trkpt lat="38.87003667" lon="-9.06586667">
        <ele>16.0</ele>
        <time>2019-05-16T11:06:17.924Z</time>
      </trkpt>
      <trkpt lat="38.87002" lon="-9.06577833">
        <ele>16.0</ele>
        <time>2019-05-16T11:06:18.902Z</time>
      </trkpt>
      <trkpt lat="38.87002" lon="-9.06577833">
        <ele>16.0</ele>
        <time>2019-05-16T11:06:19.928Z</time>
      </trkpt>
      <trkpt lat="38.86998" lon="-9.06560333">
        <ele>15.0</ele>
        <time>2019-05-16T11:06:20.910Z</time>
      </trkpt>
      <trkpt lat="38.86998" lon="-9.06560333">
        <ele>15.0</ele>
        <time>2019-05-16T11:06:21.912Z</time>
      </trkpt>
      <trkpt lat="38.869945" lon="-9.06543">
        <ele>15.0</ele>
        <time>2019-05-16T11:06:22.934Z</time>
      </trkpt>
      <trkpt lat="38.869945" lon="-9.06543">
        <ele>15.0</ele>
        <time>2019-05-16T11:06:23.930Z</time>
      </trkpt>
      <trkpt lat="38.86990833" lon="-9.065255">
        <ele>14.0</ele>
        <time>2019-05-16T11:06:24.904Z</time>
      </trkpt>
      <trkpt lat="38.86990833" lon="-9.065255">
        <ele>14.0</ele>
        <time>2019-05-16T11:06:25.899Z</time>
      </trkpt>
      <trkpt lat="38.86987167" lon="-9.06508">
        <ele>14.0</ele>
        <time>2019-05-16T11:06:26.923Z</time>
      </trkpt>
      <trkpt lat="38.86987167" lon="-9.06508">
        <ele>14.0</ele>
        <time>2019-05-16T11:06:27.910Z</time>
      </trkpt>
      <trkpt lat="38.86984" lon="-9.064905">
        <ele>14.0</ele>
        <time>2019-05-16T11:06:28.930Z</time>
      </trkpt>
      <trkpt lat="38.869825" lon="-9.06481833">
        <ele>14.0</ele>
        <time>2019-05-16T11:06:29.923Z</time>
      </trkpt>
      <trkpt lat="38.86981" lon="-9.06474">
        <ele>14.0</ele>
        <time>2019-05-16T11:06:30.908Z</time>
      </trkpt>
      <trkpt lat="38.86981" lon="-9.06474">
        <ele>14.0</ele>
        <time>2019-05-16T11:06:31.928Z</time>
      </trkpt>
      <trkpt lat="38.86977833" lon="-9.06460167">
        <ele>14.0</ele>
        <time>2019-05-16T11:06:32.937Z</time>
      </trkpt>
      <trkpt lat="38.86977833" lon="-9.06460167">
        <ele>14.0</ele>
        <time>2019-05-16T11:06:33.911Z</time>
      </trkpt>
      <trkpt lat="38.86974833" lon="-9.06446833">
        <ele>14.0</ele>
        <time>2019-05-16T11:06:34.920Z</time>
      </trkpt>
      <trkpt lat="38.86974833" lon="-9.06446833">
        <ele>14.0</ele>
        <time>2019-05-16T11:06:35.906Z</time>
      </trkpt>
      <trkpt lat="38.86972167" lon="-9.06432833">
        <ele>13.0</ele>
        <time>2019-05-16T11:06:36.924Z</time>
      </trkpt>
      <trkpt lat="38.86972167" lon="-9.06432833">
        <ele>13.0</ele>
        <time>2019-05-16T11:06:37.912Z</time>
      </trkpt>
      <trkpt lat="38.869695" lon="-9.06418667">
        <ele>13.0</ele>
        <time>2019-05-16T11:06:38.923Z</time>
      </trkpt>
      <trkpt lat="38.869695" lon="-9.06418667">
        <ele>13.0</ele>
        <time>2019-05-16T11:06:39.913Z</time>
      </trkpt>
      <trkpt lat="38.869665" lon="-9.06403833">
        <ele>13.0</ele>
        <time>2019-05-16T11:06:40.924Z</time>
      </trkpt>
      <trkpt lat="38.869665" lon="-9.06403833">
        <ele>13.0</ele>
        <time>2019-05-16T11:06:41.932Z</time>
      </trkpt>
      <trkpt lat="38.86963333" lon="-9.06388833">
        <ele>13.0</ele>
        <time>2019-05-16T11:06:42.901Z</time>
      </trkpt>
      <trkpt lat="38.86963333" lon="-9.06388833">
        <ele>13.0</ele>
        <time>2019-05-16T11:06:43.900Z</time>
      </trkpt>
      <trkpt lat="38.86959167" lon="-9.06373833">
        <ele>13.0</ele>
        <time>2019-05-16T11:06:44.910Z</time>
      </trkpt>
      <trkpt lat="38.86957" lon="-9.06366167">
        <ele>13.0</ele>
        <time>2019-05-16T11:06:45.901Z</time>
      </trkpt>
      <trkpt lat="38.86957" lon="-9.06366167">
        <ele>13.0</ele>
        <time>2019-05-16T11:06:46.908Z</time>
      </trkpt>
      <trkpt lat="38.86952167" lon="-9.06350833">
        <ele>13.0</ele>
        <time>2019-05-16T11:06:47.919Z</time>
      </trkpt>
      <trkpt lat="38.869495" lon="-9.06343333">
        <ele>13.0</ele>
        <time>2019-05-16T11:06:48.940Z</time>
      </trkpt>
      <trkpt lat="38.869495" lon="-9.06343333">
        <ele>13.0</ele>
        <time>2019-05-16T11:06:49.932Z</time>
      </trkpt>
      <trkpt lat="38.869435" lon="-9.06328833">
        <ele>13.0</ele>
        <time>2019-05-16T11:06:50.910Z</time>
      </trkpt>
      <trkpt lat="38.869435" lon="-9.06328833">
        <ele>13.0</ele>
        <time>2019-05-16T11:06:51.898Z</time>
      </trkpt>
      <trkpt lat="38.86937167" lon="-9.06314333">
        <ele>13.0</ele>
        <time>2019-05-16T11:06:52.911Z</time>
      </trkpt>
      <trkpt lat="38.86937167" lon="-9.06314333">
        <ele>13.0</ele>
        <time>2019-05-16T11:06:53.923Z</time>
      </trkpt>
      <trkpt lat="38.86930167" lon="-9.06300833">
        <ele>13.0</ele>
        <time>2019-05-16T11:06:54.932Z</time>
      </trkpt>
      <trkpt lat="38.86930167" lon="-9.06300833">
        <ele>13.0</ele>
        <time>2019-05-16T11:06:55.922Z</time>
      </trkpt>
      <trkpt lat="38.86922833" lon="-9.06288">
        <ele>13.0</ele>
        <time>2019-05-16T11:06:56.935Z</time>
      </trkpt>
      <trkpt lat="38.86922833" lon="-9.06288">
        <ele>13.0</ele>
        <time>2019-05-16T11:06:57.932Z</time>
      </trkpt>
      <trkpt lat="38.86914833" lon="-9.06275667">
        <ele>13.0</ele>
        <time>2019-05-16T11:06:58.898Z</time>
      </trkpt>
      <trkpt lat="38.86914833" lon="-9.06275667">
        <ele>13.0</ele>
        <time>2019-05-16T11:06:59.912Z</time>
      </trkpt>
      <trkpt lat="38.86906167" lon="-9.06263833">
        <ele>13.0</ele>
        <time>2019-05-16T11:07:00.920Z</time>
      </trkpt>
      <trkpt lat="38.86901833" lon="-9.06258167">
        <ele>12.0</ele>
        <time>2019-05-16T11:07:01.915Z</time>
      </trkpt>
      <trkpt lat="38.86901833" lon="-9.06258167">
        <ele>12.0</ele>
        <time>2019-05-16T11:07:02.929Z</time>
      </trkpt>
      <trkpt lat="38.86893833" lon="-9.06245667">
        <ele>13.0</ele>
        <time>2019-05-16T11:07:03.931Z</time>
      </trkpt>
      <trkpt lat="38.86893833" lon="-9.06245667">
        <ele>13.0</ele>
        <time>2019-05-16T11:07:04.915Z</time>
      </trkpt>
      <trkpt lat="38.86885" lon="-9.062325">
        <ele>13.0</ele>
        <time>2019-05-16T11:07:05.925Z</time>
      </trkpt>
      <trkpt lat="38.86880167" lon="-9.06225167">
        <ele>13.0</ele>
        <time>2019-05-16T11:07:06.938Z</time>
      </trkpt>
      <trkpt lat="38.86880167" lon="-9.06225167">
        <ele>13.0</ele>
        <time>2019-05-16T11:07:07.899Z</time>
      </trkpt>
      <trkpt lat="38.86869333" lon="-9.06210167">
        <ele>13.0</ele>
        <time>2019-05-16T11:07:08.917Z</time>
      </trkpt>
      <trkpt lat="38.86869333" lon="-9.06210167">
        <ele>13.0</ele>
        <time>2019-05-16T11:07:09.906Z</time>
      </trkpt>
      <trkpt lat="38.86859" lon="-9.06196333">
        <ele>14.0</ele>
        <time>2019-05-16T11:07:10.931Z</time>
      </trkpt>
      <trkpt lat="38.86859" lon="-9.06196333">
        <ele>14.0</ele>
        <time>2019-05-16T11:07:11.929Z</time>
      </trkpt>
      <trkpt lat="38.86850833" lon="-9.06183833">
        <ele>13.0</ele>
        <time>2019-05-16T11:07:12.899Z</time>
      </trkpt>
      <trkpt lat="38.86850833" lon="-9.06183833">
        <ele>13.0</ele>
        <time>2019-05-16T11:07:13.911Z</time>
      </trkpt>
      <trkpt lat="38.86841" lon="-9.06175">
        <ele>14.0</ele>
        <time>2019-05-16T11:07:14.900Z</time>
      </trkpt>
      <trkpt lat="38.86841" lon="-9.06175">
        <ele>14.0</ele>
        <time>2019-05-16T11:07:15.931Z</time>
      </trkpt>
      <trkpt lat="38.86830333" lon="-9.06167667">
        <ele>14.0</ele>
        <time>2019-05-16T11:07:16.899Z</time>
      </trkpt>
      <trkpt lat="38.86830333" lon="-9.06167667">
        <ele>14.0</ele>
        <time>2019-05-16T11:07:17.915Z</time>
      </trkpt>
      <trkpt lat="38.868245" lon="-9.061545">
        <ele>13.0</ele>
        <time>2019-05-16T11:07:18.938Z</time>
      </trkpt>
      <trkpt lat="38.868245" lon="-9.061545">
        <ele>13.0</ele>
        <time>2019-05-16T11:07:19.901Z</time>
      </trkpt>
      <trkpt lat="38.86822667" lon="-9.06139667">
        <ele>13.0</ele>
        <time>2019-05-16T11:07:20.926Z</time>
      </trkpt>
      <trkpt lat="38.86822667" lon="-9.06139667">
        <ele>13.0</ele>
        <time>2019-05-16T11:07:21.901Z</time>
      </trkpt>
      <trkpt lat="38.86819833" lon="-9.061255">
        <ele>12.0</ele>
        <time>2019-05-16T11:07:22.910Z</time>
      </trkpt>
      <trkpt lat="38.86819833" lon="-9.061255">
        <ele>12.0</ele>
        <time>2019-05-16T11:07:23.900Z</time>
      </trkpt>
      <trkpt lat="38.86814167" lon="-9.06112833">
        <ele>11.0</ele>
        <time>2019-05-16T11:07:24.917Z</time>
      </trkpt>
      <trkpt lat="38.86814167" lon="-9.06112833">
        <ele>11.0</ele>
        <time>2019-05-16T11:07:25.902Z</time>
      </trkpt>
      <trkpt lat="38.86807167" lon="-9.06101167">
        <ele>10.0</ele>
        <time>2019-05-16T11:07:26.913Z</time>
      </trkpt>
      <trkpt lat="38.86807167" lon="-9.06101167">
        <ele>10.0</ele>
        <time>2019-05-16T11:07:27.911Z</time>
      </trkpt>
      <trkpt lat="38.86799333" lon="-9.06090167">
        <ele>10.0</ele>
        <time>2019-05-16T11:07:28.919Z</time>
      </trkpt>
      <trkpt lat="38.86799333" lon="-9.06090167">
        <ele>10.0</ele>
        <time>2019-05-16T11:07:29.906Z</time>
      </trkpt>
      <trkpt lat="38.86790167" lon="-9.06079667">
        <ele>10.0</ele>
        <time>2019-05-16T11:07:30.915Z</time>
      </trkpt>
      <trkpt lat="38.86790167" lon="-9.06079667">
        <ele>10.0</ele>
        <time>2019-05-16T11:07:31.900Z</time>
      </trkpt>
      <trkpt lat="38.86781" lon="-9.06068667">
        <ele>10.0</ele>
        <time>2019-05-16T11:07:32.909Z</time>
      </trkpt>
      <trkpt lat="38.86776167" lon="-9.06063167">
        <ele>10.0</ele>
        <time>2019-05-16T11:07:33.914Z</time>
      </trkpt>
      <trkpt lat="38.86776167" lon="-9.06063167">
        <ele>10.0</ele>
        <time>2019-05-16T11:07:34.899Z</time>
      </trkpt>
      <trkpt lat="38.86765667" lon="-9.06052833">
        <ele>9.0</ele>
        <time>2019-05-16T11:07:35.921Z</time>
      </trkpt>
      <trkpt lat="38.86760167" lon="-9.06047833">
        <ele>9.0</ele>
        <time>2019-05-16T11:07:36.915Z</time>
      </trkpt>
      <trkpt lat="38.86760167" lon="-9.06047833">
        <ele>9.0</ele>
        <time>2019-05-16T11:07:37.914Z</time>
      </trkpt>
      <trkpt lat="38.86749167" lon="-9.06037833">
        <ele>9.0</ele>
        <time>2019-05-16T11:07:38.921Z</time>
      </trkpt>
      <trkpt lat="38.86749167" lon="-9.06037833">
        <ele>9.0</ele>
        <time>2019-05-16T11:07:39.901Z</time>
      </trkpt>
      <trkpt lat="38.86738167" lon="-9.06027333">
        <ele>9.0</ele>
        <time>2019-05-16T11:07:40.932Z</time>
      </trkpt>
      <trkpt lat="38.86738167" lon="-9.06027333">
        <ele>9.0</ele>
        <time>2019-05-16T11:07:41.917Z</time>
      </trkpt>
      <trkpt lat="38.86726833" lon="-9.06016667">
        <ele>8.0</ele>
        <time>2019-05-16T11:07:42.940Z</time>
      </trkpt>
      <trkpt lat="38.86726833" lon="-9.06016667">
        <ele>8.0</ele>
        <time>2019-05-16T11:07:43.899Z</time>
      </trkpt>
      <trkpt lat="38.86715667" lon="-9.060065">
        <ele>8.0</ele>
        <time>2019-05-16T11:07:44.909Z</time>
      </trkpt>
      <trkpt lat="38.86715667" lon="-9.060065">
        <ele>8.0</ele>
        <time>2019-05-16T11:07:45.909Z</time>
      </trkpt>
      <trkpt lat="38.867055" lon="-9.05997833">
        <ele>7.0</ele>
        <time>2019-05-16T11:07:46.919Z</time>
      </trkpt>
      <trkpt lat="38.867055" lon="-9.05997833">
        <ele>7.0</ele>
        <time>2019-05-16T11:07:47.915Z</time>
      </trkpt>
      <trkpt lat="38.86694667" lon="-9.05990667">
        <ele>7.0</ele>
        <time>2019-05-16T11:07:48.940Z</time>
      </trkpt>
      <trkpt lat="38.86694667" lon="-9.05990667">
        <ele>7.0</ele>
        <time>2019-05-16T11:07:49.933Z</time>
      </trkpt>
      <trkpt lat="38.86682833" lon="-9.05987">
        <ele>7.0</ele>
        <time>2019-05-16T11:07:50.913Z</time>
      </trkpt>
      <trkpt lat="38.86682833" lon="-9.05987">
        <ele>7.0</ele>
        <time>2019-05-16T11:07:51.898Z</time>
      </trkpt>
      <trkpt lat="38.86674667" lon="-9.05985667">
        <ele>7.0</ele>
        <time>2019-05-16T11:07:52.909Z</time>
      </trkpt>
      <trkpt lat="38.86674667" lon="-9.05985667">
        <ele>7.0</ele>
        <time>2019-05-16T11:07:53.932Z</time>
      </trkpt>
      <trkpt lat="38.86669667" lon="-9.05985833">
        <ele>7.0</ele>
        <time>2019-05-16T11:07:54.901Z</time>
      </trkpt>
      <trkpt lat="38.86669667" lon="-9.05985833">
        <ele>7.0</ele>
        <time>2019-05-16T11:07:55.908Z</time>
      </trkpt>
      <trkpt lat="38.86666" lon="-9.059875">
        <ele>7.0</ele>
        <time>2019-05-16T11:07:56.928Z</time>
      </trkpt>
      <trkpt lat="38.86666" lon="-9.059875">
        <ele>7.0</ele>
        <time>2019-05-16T11:07:57.929Z</time>
      </trkpt>
      <trkpt lat="38.86663333" lon="-9.05988667">
        <ele>7.0</ele>
        <time>2019-05-16T11:07:58.938Z</time>
      </trkpt>
      <trkpt lat="38.86663333" lon="-9.05988667">
        <ele>7.0</ele>
        <time>2019-05-16T11:07:59.932Z</time>
      </trkpt>
      <trkpt lat="38.86663" lon="-9.05988833">
        <ele>8.0</ele>
        <time>2019-05-16T11:08:00.902Z</time>
      </trkpt>
      <trkpt lat="38.86663" lon="-9.05988833">
        <ele>8.0</ele>
        <time>2019-05-16T11:08:01.902Z</time>
      </trkpt>
      <trkpt lat="38.86663167" lon="-9.05989167">
        <ele>8.0</ele>
        <time>2019-05-16T11:08:02.909Z</time>
      </trkpt>
      <trkpt lat="38.86663167" lon="-9.05989167">
        <ele>8.0</ele>
        <time>2019-05-16T11:08:03.915Z</time>
      </trkpt>
      <trkpt lat="38.866615" lon="-9.05990833">
        <ele>9.0</ele>
        <time>2019-05-16T11:08:04.932Z</time>
      </trkpt>
      <trkpt lat="38.86660333" lon="-9.05992167">
        <ele>9.0</ele>
        <time>2019-05-16T11:08:05.898Z</time>
      </trkpt>
      <trkpt lat="38.86658833" lon="-9.05993833">
        <ele>10.0</ele>
        <time>2019-05-16T11:08:06.904Z</time>
      </trkpt>
      <trkpt lat="38.86658833" lon="-9.05993833">
        <ele>10.0</ele>
        <time>2019-05-16T11:08:07.900Z</time>
      </trkpt>
      <trkpt lat="38.866555" lon="-9.05998167">
        <ele>10.0</ele>
        <time>2019-05-16T11:08:08.915Z</time>
      </trkpt>
      <trkpt lat="38.866555" lon="-9.05998167">
        <ele>10.0</ele>
        <time>2019-05-16T11:08:09.901Z</time>
      </trkpt>
      <trkpt lat="38.866515" lon="-9.060025">
        <ele>11.0</ele>
        <time>2019-05-16T11:08:10.917Z</time>
      </trkpt>
      <trkpt lat="38.866515" lon="-9.060025">
        <ele>11.0</ele>
        <time>2019-05-16T11:08:11.903Z</time>
      </trkpt>
      <trkpt lat="38.86645833" lon="-9.06005667">
        <ele>10.0</ele>
        <time>2019-05-16T11:08:12.954Z</time>
      </trkpt>
      <trkpt lat="38.86645833" lon="-9.06005667">
        <ele>10.0</ele>
        <time>2019-05-16T11:08:13.914Z</time>
      </trkpt>
      <trkpt lat="38.86640167" lon="-9.060055">
        <ele>9.0</ele>
        <time>2019-05-16T11:08:14.924Z</time>
      </trkpt>
      <trkpt lat="38.86640167" lon="-9.060055">
        <ele>9.0</ele>
        <time>2019-05-16T11:08:15.913Z</time>
      </trkpt>
      <trkpt lat="38.86634667" lon="-9.06003">
        <ele>9.0</ele>
        <time>2019-05-16T11:08:16.924Z</time>
      </trkpt>
      <trkpt lat="38.86634667" lon="-9.06003">
        <ele>9.0</ele>
        <time>2019-05-16T11:08:17.906Z</time>
      </trkpt>
      <trkpt lat="38.86628" lon="-9.06001333">
        <ele>9.0</ele>
        <time>2019-05-16T11:08:18.926Z</time>
      </trkpt>
      <trkpt lat="38.86628" lon="-9.06001333">
        <ele>9.0</ele>
        <time>2019-05-16T11:08:19.912Z</time>
      </trkpt>
      <trkpt lat="38.86620167" lon="-9.06002167">
        <ele>9.0</ele>
        <time>2019-05-16T11:08:20.905Z</time>
      </trkpt>
      <trkpt lat="38.86620167" lon="-9.06002167">
        <ele>9.0</ele>
        <time>2019-05-16T11:08:21.909Z</time>
      </trkpt>
      <trkpt lat="38.866125" lon="-9.06005333">
        <ele>9.0</ele>
        <time>2019-05-16T11:08:22.919Z</time>
      </trkpt>
      <trkpt lat="38.866125" lon="-9.06005333">
        <ele>9.0</ele>
        <time>2019-05-16T11:08:23.931Z</time>
      </trkpt>
      <trkpt lat="38.86606" lon="-9.06010333">
        <ele>8.0</ele>
        <time>2019-05-16T11:08:24.902Z</time>
      </trkpt>
      <trkpt lat="38.86606" lon="-9.06010333">
        <ele>8.0</ele>
        <time>2019-05-16T11:08:25.929Z</time>
      </trkpt>
      <trkpt lat="38.865995" lon="-9.06016">
        <ele>8.0</ele>
        <time>2019-05-16T11:08:26.898Z</time>
      </trkpt>
      <trkpt lat="38.865995" lon="-9.06016">
        <ele>8.0</ele>
        <time>2019-05-16T11:08:27.915Z</time>
      </trkpt>
      <trkpt lat="38.865925" lon="-9.06022167">
        <ele>9.0</ele>
        <time>2019-05-16T11:08:28.922Z</time>
      </trkpt>
      <trkpt lat="38.86588667" lon="-9.06025167">
        <ele>8.0</ele>
        <time>2019-05-16T11:08:29.914Z</time>
      </trkpt>
      <trkpt lat="38.86584833" lon="-9.06027667">
        <ele>8.0</ele>
        <time>2019-05-16T11:08:30.907Z</time>
      </trkpt>
      <trkpt lat="38.86584833" lon="-9.06027667">
        <ele>8.0</ele>
        <time>2019-05-16T11:08:31.911Z</time>
      </trkpt>
      <trkpt lat="38.865765" lon="-9.060325">
        <ele>8.0</ele>
        <time>2019-05-16T11:08:32.928Z</time>
      </trkpt>
      <trkpt lat="38.865765" lon="-9.060325">
        <ele>8.0</ele>
        <time>2019-05-16T11:08:33.902Z</time>
      </trkpt>
      <trkpt lat="38.86567833" lon="-9.06036167">
        <ele>8.0</ele>
        <time>2019-05-16T11:08:34.909Z</time>
      </trkpt>
      <trkpt lat="38.86567833" lon="-9.06036167">
        <ele>8.0</ele>
        <time>2019-05-16T11:08:35.931Z</time>
      </trkpt>
      <trkpt lat="38.86558667" lon="-9.06039333">
        <ele>8.0</ele>
        <time>2019-05-16T11:08:36.901Z</time>
      </trkpt>
      <trkpt lat="38.86554333" lon="-9.060405">
        <ele>8.0</ele>
        <time>2019-05-16T11:08:37.898Z</time>
      </trkpt>
      <trkpt lat="38.86554333" lon="-9.060405">
        <ele>8.0</ele>
        <time>2019-05-16T11:08:38.910Z</time>
      </trkpt>
      <trkpt lat="38.86545667" lon="-9.06043167">
        <ele>8.0</ele>
        <time>2019-05-16T11:08:39.929Z</time>
      </trkpt>
      <trkpt lat="38.86545667" lon="-9.06043167">
        <ele>8.0</ele>
        <time>2019-05-16T11:08:40.932Z</time>
      </trkpt>
      <trkpt lat="38.865375" lon="-9.06045">
        <ele>8.0</ele>
        <time>2019-05-16T11:08:41.900Z</time>
      </trkpt>
      <trkpt lat="38.865335" lon="-9.06045833">
        <ele>8.0</ele>
        <time>2019-05-16T11:08:42.929Z</time>
      </trkpt>
      <trkpt lat="38.865335" lon="-9.06045833">
        <ele>8.0</ele>
        <time>2019-05-16T11:08:43.915Z</time>
      </trkpt>
      <trkpt lat="38.86525667" lon="-9.06048">
        <ele>8.0</ele>
        <time>2019-05-16T11:08:44.934Z</time>
      </trkpt>
      <trkpt lat="38.86525667" lon="-9.06048">
        <ele>8.0</ele>
        <time>2019-05-16T11:08:45.916Z</time>
      </trkpt>
      <trkpt lat="38.86517667" lon="-9.06049667">
        <ele>8.0</ele>
        <time>2019-05-16T11:08:46.927Z</time>
      </trkpt>
      <trkpt lat="38.86517667" lon="-9.06049667">
        <ele>8.0</ele>
        <time>2019-05-16T11:08:47.920Z</time>
      </trkpt>
      <trkpt lat="38.86509833" lon="-9.06051333">
        <ele>8.0</ele>
        <time>2019-05-16T11:08:48.898Z</time>
      </trkpt>
      <trkpt lat="38.86509833" lon="-9.06051333">
        <ele>8.0</ele>
        <time>2019-05-16T11:08:49.911Z</time>
      </trkpt>
      <trkpt lat="38.86501" lon="-9.06053167">
        <ele>8.0</ele>
        <time>2019-05-16T11:08:50.925Z</time>
      </trkpt>
      <trkpt lat="38.86501" lon="-9.06053167">
        <ele>8.0</ele>
        <time>2019-05-16T11:08:51.931Z</time>
      </trkpt>
      <trkpt lat="38.86492" lon="-9.06053833">
        <ele>8.0</ele>
        <time>2019-05-16T11:08:52.898Z</time>
      </trkpt>
      <trkpt lat="38.86492" lon="-9.06053833">
        <ele>8.0</ele>
        <time>2019-05-16T11:08:53.907Z</time>
      </trkpt>
      <trkpt lat="38.86483167" lon="-9.06055167">
        <ele>9.0</ele>
        <time>2019-05-16T11:08:54.932Z</time>
      </trkpt>
      <trkpt lat="38.86483167" lon="-9.06055167">
        <ele>9.0</ele>
        <time>2019-05-16T11:08:55.923Z</time>
      </trkpt>
      <trkpt lat="38.86475" lon="-9.06057333">
        <ele>9.0</ele>
        <time>2019-05-16T11:08:56.933Z</time>
      </trkpt>
      <trkpt lat="38.86475" lon="-9.06057333">
        <ele>9.0</ele>
        <time>2019-05-16T11:08:57.922Z</time>
      </trkpt>
      <trkpt lat="38.864685" lon="-9.06059167">
        <ele>9.0</ele>
        <time>2019-05-16T11:08:58.929Z</time>
      </trkpt>
      <trkpt lat="38.864685" lon="-9.06059167">
        <ele>9.0</ele>
        <time>2019-05-16T11:08:59.905Z</time>
      </trkpt>
      <trkpt lat="38.86466" lon="-9.06059833">
        <ele>8.0</ele>
        <time>2019-05-16T11:09:00.925Z</time>
      </trkpt>
      <trkpt lat="38.86466" lon="-9.06059833">
        <ele>8.0</ele>
        <time>2019-05-16T11:09:01.911Z</time>
      </trkpt>
      <trkpt lat="38.864635" lon="-9.06060667">
        <ele>8.0</ele>
        <time>2019-05-16T11:09:02.923Z</time>
      </trkpt>
      <trkpt lat="38.864635" lon="-9.06060667">
        <ele>8.0</ele>
        <time>2019-05-16T11:09:03.901Z</time>
      </trkpt>
      <trkpt lat="38.864605" lon="-9.06061333">
        <ele>8.0</ele>
        <time>2019-05-16T11:09:04.920Z</time>
      </trkpt>
      <trkpt lat="38.864585" lon="-9.06061833">
        <ele>8.0</ele>
        <time>2019-05-16T11:09:05.936Z</time>
      </trkpt>
      <trkpt lat="38.86456" lon="-9.06061667">
        <ele>8.0</ele>
        <time>2019-05-16T11:09:06.912Z</time>
      </trkpt>
      <trkpt lat="38.86456" lon="-9.06061667">
        <ele>8.0</ele>
        <time>2019-05-16T11:09:07.911Z</time>
      </trkpt>
      <trkpt lat="38.86451" lon="-9.06057833">
        <ele>8.0</ele>
        <time>2019-05-16T11:09:08.920Z</time>
      </trkpt>
      <trkpt lat="38.86449167" lon="-9.06054667">
        <ele>8.0</ele>
        <time>2019-05-16T11:09:09.920Z</time>
      </trkpt>
      <trkpt lat="38.86447667" lon="-9.060515">
        <ele>9.0</ele>
        <time>2019-05-16T11:09:10.918Z</time>
      </trkpt>
      <trkpt lat="38.86447667" lon="-9.060515">
        <ele>9.0</ele>
        <time>2019-05-16T11:09:11.935Z</time>
      </trkpt>
      <trkpt lat="38.86444667" lon="-9.06045">
        <ele>9.0</ele>
        <time>2019-05-16T11:09:12.910Z</time>
      </trkpt>
      <trkpt lat="38.86444667" lon="-9.06045">
        <ele>9.0</ele>
        <time>2019-05-16T11:09:13.931Z</time>
      </trkpt>
      <trkpt lat="38.864425" lon="-9.06037833">
        <ele>10.0</ele>
        <time>2019-05-16T11:09:14.938Z</time>
      </trkpt>
      <trkpt lat="38.86441333" lon="-9.06034167">
        <ele>11.0</ele>
        <time>2019-05-16T11:09:15.919Z</time>
      </trkpt>
      <trkpt lat="38.86441333" lon="-9.06034167">
        <ele>11.0</ele>
        <time>2019-05-16T11:09:16.904Z</time>
      </trkpt>
      <trkpt lat="38.86438833" lon="-9.06026667">
        <ele>11.0</ele>
        <time>2019-05-16T11:09:17.916Z</time>
      </trkpt>
      <trkpt lat="38.86437667" lon="-9.06023">
        <ele>11.0</ele>
        <time>2019-05-16T11:09:18.932Z</time>
      </trkpt>
      <trkpt lat="38.86437667" lon="-9.06023">
        <ele>11.0</ele>
        <time>2019-05-16T11:09:19.914Z</time>
      </trkpt>
      <trkpt lat="38.86434167" lon="-9.06016167">
        <ele>12.0</ele>
        <time>2019-05-16T11:09:20.899Z</time>
      </trkpt>
      <trkpt lat="38.86434167" lon="-9.06016167">
        <ele>12.0</ele>
        <time>2019-05-16T11:09:21.915Z</time>
      </trkpt>
      <trkpt lat="38.86430833" lon="-9.06009167">
        <ele>12.0</ele>
        <time>2019-05-16T11:09:22.922Z</time>
      </trkpt>
      <trkpt lat="38.86430833" lon="-9.06009167">
        <ele>12.0</ele>
        <time>2019-05-16T11:09:23.906Z</time>
      </trkpt>
      <trkpt lat="38.86427167" lon="-9.06002333">
        <ele>13.0</ele>
        <time>2019-05-16T11:09:24.916Z</time>
      </trkpt>
      <trkpt lat="38.86427167" lon="-9.06002333">
        <ele>13.0</ele>
        <time>2019-05-16T11:09:25.932Z</time>
      </trkpt>
      <trkpt lat="38.864235" lon="-9.05995167">
        <ele>13.0</ele>
        <time>2019-05-16T11:09:26.900Z</time>
      </trkpt>
      <trkpt lat="38.864235" lon="-9.05995167">
        <ele>13.0</ele>
        <time>2019-05-16T11:09:27.931Z</time>
      </trkpt>
      <trkpt lat="38.864195" lon="-9.059875">
        <ele>13.0</ele>
        <time>2019-05-16T11:09:28.903Z</time>
      </trkpt>
      <trkpt lat="38.86417667" lon="-9.05983333">
        <ele>14.0</ele>
        <time>2019-05-16T11:09:29.910Z</time>
      </trkpt>
      <trkpt lat="38.86415167" lon="-9.05978833">
        <ele>14.0</ele>
        <time>2019-05-16T11:09:30.928Z</time>
      </trkpt>
      <trkpt lat="38.86415167" lon="-9.05978833">
        <ele>14.0</ele>
        <time>2019-05-16T11:09:31.936Z</time>
      </trkpt>
      <trkpt lat="38.86410833" lon="-9.0597">
        <ele>14.0</ele>
        <time>2019-05-16T11:09:32.907Z</time>
      </trkpt>
      <trkpt lat="38.86410833" lon="-9.0597">
        <ele>14.0</ele>
        <time>2019-05-16T11:09:33.919Z</time>
      </trkpt>
      <trkpt lat="38.86406333" lon="-9.05961333">
        <ele>14.0</ele>
        <time>2019-05-16T11:09:34.898Z</time>
      </trkpt>
      <trkpt lat="38.86403833" lon="-9.05957">
        <ele>13.0</ele>
        <time>2019-05-16T11:09:35.939Z</time>
      </trkpt>
      <trkpt lat="38.86401333" lon="-9.05952">
        <ele>13.0</ele>
        <time>2019-05-16T11:09:36.908Z</time>
      </trkpt>
      <trkpt lat="38.86401333" lon="-9.05952">
        <ele>13.0</ele>
        <time>2019-05-16T11:09:37.914Z</time>
      </trkpt>
      <trkpt lat="38.863965" lon="-9.059415">
        <ele>13.0</ele>
        <time>2019-05-16T11:09:38.932Z</time>
      </trkpt>
      <trkpt lat="38.863965" lon="-9.059415">
        <ele>13.0</ele>
        <time>2019-05-16T11:09:39.920Z</time>
      </trkpt>
      <trkpt lat="38.86390667" lon="-9.05930167">
        <ele>12.0</ele>
        <time>2019-05-16T11:09:40.934Z</time>
      </trkpt>
      <trkpt lat="38.86387667" lon="-9.05924667">
        <ele>11.0</ele>
        <time>2019-05-16T11:09:41.915Z</time>
      </trkpt>
      <trkpt lat="38.86385" lon="-9.05919333">
        <ele>11.0</ele>
        <time>2019-05-16T11:09:42.918Z</time>
      </trkpt>
      <trkpt lat="38.86385" lon="-9.05919333">
        <ele>11.0</ele>
        <time>2019-05-16T11:09:43.929Z</time>
      </trkpt>
      <trkpt lat="38.8638" lon="-9.05909667">
        <ele>10.0</ele>
        <time>2019-05-16T11:09:44.904Z</time>
      </trkpt>
      <trkpt lat="38.863775" lon="-9.05905333">
        <ele>9.0</ele>
        <time>2019-05-16T11:09:45.937Z</time>
      </trkpt>
      <trkpt lat="38.863775" lon="-9.05905333">
        <ele>9.0</ele>
        <time>2019-05-16T11:09:46.936Z</time>
      </trkpt>
      <trkpt lat="38.86373167" lon="-9.05897167">
        <ele>9.0</ele>
        <time>2019-05-16T11:09:47.921Z</time>
      </trkpt>
      <trkpt lat="38.86371333" lon="-9.05893167">
        <ele>8.0</ele>
        <time>2019-05-16T11:09:48.930Z</time>
      </trkpt>
      <trkpt lat="38.86371333" lon="-9.05893167">
        <ele>8.0</ele>
        <time>2019-05-16T11:09:49.912Z</time>
      </trkpt>
      <trkpt lat="38.86367" lon="-9.05884667">
        <ele>7.0</ele>
        <time>2019-05-16T11:09:50.930Z</time>
      </trkpt>
      <trkpt lat="38.86367" lon="-9.05884667">
        <ele>7.0</ele>
        <time>2019-05-16T11:09:51.907Z</time>
      </trkpt>
      <trkpt lat="38.86361833" lon="-9.05876">
        <ele>6.0</ele>
        <time>2019-05-16T11:09:52.916Z</time>
      </trkpt>
      <trkpt lat="38.86359333" lon="-9.05872833">
        <ele>6.0</ele>
        <time>2019-05-16T11:09:53.918Z</time>
      </trkpt>
      <trkpt lat="38.86356667" lon="-9.05870333">
        <ele>6.0</ele>
        <time>2019-05-16T11:09:54.907Z</time>
      </trkpt>
      <trkpt lat="38.86356667" lon="-9.05870333">
        <ele>6.0</ele>
        <time>2019-05-16T11:09:55.910Z</time>
      </trkpt>
      <trkpt lat="38.863515" lon="-9.05868333">
        <ele>6.0</ele>
        <time>2019-05-16T11:09:56.924Z</time>
      </trkpt>
      <trkpt lat="38.863515" lon="-9.05868333">
        <ele>6.0</ele>
        <time>2019-05-16T11:09:57.903Z</time>
      </trkpt>
      <trkpt lat="38.86346167" lon="-9.05868833">
        <ele>5.0</ele>
        <time>2019-05-16T11:09:58.918Z</time>
      </trkpt>
      <trkpt lat="38.86342833" lon="-9.05870667">
        <ele>5.0</ele>
        <time>2019-05-16T11:09:59.898Z</time>
      </trkpt>
      <trkpt lat="38.86339" lon="-9.05873333">
        <ele>4.0</ele>
        <time>2019-05-16T11:10:00.905Z</time>
      </trkpt>
      <trkpt lat="38.86339" lon="-9.05873333">
        <ele>4.0</ele>
        <time>2019-05-16T11:10:01.901Z</time>
      </trkpt>
      <trkpt lat="38.86330667" lon="-9.058775">
        <ele>4.0</ele>
        <time>2019-05-16T11:10:02.912Z</time>
      </trkpt>
      <trkpt lat="38.86330667" lon="-9.058775">
        <ele>4.0</ele>
        <time>2019-05-16T11:10:03.911Z</time>
      </trkpt>
      <trkpt lat="38.86324333" lon="-9.05877">
        <ele>3.0</ele>
        <time>2019-05-16T11:10:04.920Z</time>
      </trkpt>
      <trkpt lat="38.86322167" lon="-9.05875667">
        <ele>4.0</ele>
        <time>2019-05-16T11:10:05.914Z</time>
      </trkpt>
      <trkpt lat="38.86321167" lon="-9.05874">
        <ele>4.0</ele>
        <time>2019-05-16T11:10:06.939Z</time>
      </trkpt>
      <trkpt lat="38.86321167" lon="-9.05874">
        <ele>4.0</ele>
        <time>2019-05-16T11:10:07.909Z</time>
      </trkpt>
      <trkpt lat="38.863205" lon="-9.05873167">
        <ele>4.0</ele>
        <time>2019-05-16T11:10:08.914Z</time>
      </trkpt>
      <trkpt lat="38.863205" lon="-9.05873167">
        <ele>4.0</ele>
        <time>2019-05-16T11:10:09.898Z</time>
      </trkpt>
      <trkpt lat="38.86320333" lon="-9.05873167">
        <ele>3.0</ele>
        <time>2019-05-16T11:10:10.913Z</time>
      </trkpt>
      <trkpt lat="38.86320333" lon="-9.05873167">
        <ele>3.0</ele>
        <time>2019-05-16T11:10:11.902Z</time>
      </trkpt>
      <trkpt lat="38.86320333" lon="-9.05873167">
        <ele>3.0</ele>
        <time>2019-05-16T11:10:12.908Z</time>
      </trkpt>
      <trkpt lat="38.86320333" lon="-9.05873167">
        <ele>3.0</ele>
        <time>2019-05-16T11:10:13.914Z</time>
      </trkpt>
      <trkpt lat="38.86320333" lon="-9.05873167">
        <ele>3.0</ele>
        <time>2019-05-16T11:10:14.921Z</time>
      </trkpt>
      <trkpt lat="38.86321167" lon="-9.05871">
        <ele>3.0</ele>
        <time>2019-05-16T11:10:15.902Z</time>
      </trkpt>
      <trkpt lat="38.86321167" lon="-9.05871">
        <ele>3.0</ele>
        <time>2019-05-16T11:10:16.897Z</time>
      </trkpt>
      <trkpt lat="38.86322833" lon="-9.05869333">
        <ele>3.0</ele>
        <time>2019-05-16T11:10:17.905Z</time>
      </trkpt>
      <trkpt lat="38.86322833" lon="-9.05869167">
        <ele>3.0</ele>
        <time>2019-05-16T11:10:18.904Z</time>
      </trkpt>
      <trkpt lat="38.86322833" lon="-9.05869167">
        <ele>3.0</ele>
        <time>2019-05-16T11:10:19.897Z</time>
      </trkpt>
      <trkpt lat="38.86323" lon="-9.05869">
        <ele>3.0</ele>
        <time>2019-05-16T11:10:20.925Z</time>
      </trkpt>
      <trkpt lat="38.86323" lon="-9.05869">
        <ele>3.0</ele>
        <time>2019-05-16T11:10:21.909Z</time>
      </trkpt>
      <trkpt lat="38.86323" lon="-9.05869">
        <ele>3.0</ele>
        <time>2019-05-16T11:10:22.915Z</time>
      </trkpt>
      <trkpt lat="38.86323" lon="-9.05869">
        <ele>3.0</ele>
        <time>2019-05-16T11:10:23.923Z</time>
      </trkpt>
      <trkpt lat="38.86325667" lon="-9.058685">
        <ele>3.0</ele>
        <time>2019-05-16T11:10:24.901Z</time>
      </trkpt>
      <trkpt lat="38.86325667" lon="-9.058685">
        <ele>3.0</ele>
        <time>2019-05-16T11:10:25.897Z</time>
      </trkpt>
      <trkpt lat="38.86328" lon="-9.058665">
        <ele>3.0</ele>
        <time>2019-05-16T11:10:26.902Z</time>
      </trkpt>
      <trkpt lat="38.86328" lon="-9.058665">
        <ele>3.0</ele>
        <time>2019-05-16T11:10:27.934Z</time>
      </trkpt>
      <trkpt lat="38.86329167" lon="-9.05863833">
        <ele>3.0</ele>
        <time>2019-05-16T11:10:28.903Z</time>
      </trkpt>
      <trkpt lat="38.86329167" lon="-9.05863833">
        <ele>3.0</ele>
        <time>2019-05-16T11:10:29.897Z</time>
      </trkpt>
      <trkpt lat="38.86328667" lon="-9.05861667">
        <ele>4.0</ele>
        <time>2019-05-16T11:10:30.902Z</time>
      </trkpt>
      <trkpt lat="38.86328667" lon="-9.05861667">
        <ele>4.0</ele>
        <time>2019-05-16T11:10:31.897Z</time>
      </trkpt>
      <trkpt lat="38.86327333" lon="-9.05859667">
        <ele>4.0</ele>
        <time>2019-05-16T11:10:32.902Z</time>
      </trkpt>
      <trkpt lat="38.86327333" lon="-9.05859667">
        <ele>4.0</ele>
        <time>2019-05-16T11:10:33.897Z</time>
      </trkpt>
      <trkpt lat="38.86325833" lon="-9.05857833">
        <ele>4.0</ele>
        <time>2019-05-16T11:10:34.901Z</time>
      </trkpt>
      <trkpt lat="38.86325833" lon="-9.05857833">
        <ele>4.0</ele>
        <time>2019-05-16T11:10:35.897Z</time>
      </trkpt>
      <trkpt lat="38.863245" lon="-9.05856333">
        <ele>3.0</ele>
        <time>2019-05-16T11:10:36.929Z</time>
      </trkpt>
      <trkpt lat="38.863245" lon="-9.05856333">
        <ele>3.0</ele>
        <time>2019-05-16T11:10:37.905Z</time>
      </trkpt>
      <trkpt lat="38.86323667" lon="-9.05855833">
        <ele>3.0</ele>
        <time>2019-05-16T11:10:38.923Z</time>
      </trkpt>
      <trkpt lat="38.863235" lon="-9.05855833">
        <ele>3.0</ele>
        <time>2019-05-16T11:10:39.900Z</time>
      </trkpt>
      <trkpt lat="38.863235" lon="-9.05855833">
        <ele>3.0</ele>
        <time>2019-05-16T11:10:40.931Z</time>
      </trkpt>
      <trkpt lat="38.86323333" lon="-9.05856">
        <ele>3.0</ele>
        <time>2019-05-16T11:10:41.935Z</time>
      </trkpt>
      <trkpt lat="38.86323333" lon="-9.05856">
        <ele>3.0</ele>
        <time>2019-05-16T11:10:42.935Z</time>
      </trkpt>
      <trkpt lat="38.86323333" lon="-9.05856">
        <ele>3.0</ele>
        <time>2019-05-16T11:10:43.900Z</time>
      </trkpt>
      <trkpt lat="38.86323333" lon="-9.05856">
        <ele>3.0</ele>
        <time>2019-05-16T11:10:44.906Z</time>
      </trkpt>
      <trkpt lat="38.86323333" lon="-9.05856">
        <ele>3.0</ele>
        <time>2019-05-16T11:10:45.902Z</time>
      </trkpt>
      <trkpt lat="38.86323333" lon="-9.05856">
        <ele>3.0</ele>
        <time>2019-05-16T11:10:46.897Z</time>
      </trkpt>
      <trkpt lat="38.86323333" lon="-9.05856">
        <ele>3.0</ele>
        <time>2019-05-16T11:10:47.899Z</time>
      </trkpt>
      <trkpt lat="38.86321833" lon="-9.05855">
        <ele>3.0</ele>
        <time>2019-05-16T11:10:48.919Z</time>
      </trkpt>
      <trkpt lat="38.86321833" lon="-9.05855">
        <ele>3.0</ele>
        <time>2019-05-16T11:10:49.905Z</time>
      </trkpt>
      <trkpt lat="38.86318167" lon="-9.05852667">
        <ele>3.0</ele>
        <time>2019-05-16T11:10:50.902Z</time>
      </trkpt>
      <trkpt lat="38.86318167" lon="-9.05852667">
        <ele>3.0</ele>
        <time>2019-05-16T11:10:51.897Z</time>
      </trkpt>
      <trkpt lat="38.863125" lon="-9.0585">
        <ele>3.0</ele>
        <time>2019-05-16T11:10:53.010Z</time>
      </trkpt>
      <trkpt lat="38.863125" lon="-9.0585">
        <ele>3.0</ele>
        <time>2019-05-16T11:10:53.907Z</time>
      </trkpt>
      <trkpt lat="38.86306833" lon="-9.05846667">
        <ele>3.0</ele>
        <time>2019-05-16T11:10:54.918Z</time>
      </trkpt>
      <trkpt lat="38.86306833" lon="-9.05846667">
        <ele>3.0</ele>
        <time>2019-05-16T11:10:55.908Z</time>
      </trkpt>
      <trkpt lat="38.86301333" lon="-9.05843667">
        <ele>3.0</ele>
        <time>2019-05-16T11:10:56.922Z</time>
      </trkpt>
      <trkpt lat="38.862985" lon="-9.05842667">
        <ele>2.0</ele>
        <time>2019-05-16T11:10:57.927Z</time>
      </trkpt>
      <trkpt lat="38.862985" lon="-9.05842667">
        <ele>2.0</ele>
        <time>2019-05-16T11:10:58.921Z</time>
      </trkpt>
      <trkpt lat="38.86293833" lon="-9.05839833">
        <ele>2.0</ele>
        <time>2019-05-16T11:10:59.931Z</time>
      </trkpt>
      <trkpt lat="38.86292" lon="-9.05838667">
        <ele>2.0</ele>
        <time>2019-05-16T11:11:00.922Z</time>
      </trkpt>
      <trkpt lat="38.86292" lon="-9.05838667">
        <ele>2.0</ele>
        <time>2019-05-16T11:11:01.917Z</time>
      </trkpt>
      <trkpt lat="38.86288667" lon="-9.05836333">
        <ele>2.0</ele>
        <time>2019-05-16T11:11:02.905Z</time>
      </trkpt>
      <trkpt lat="38.862865" lon="-9.05835167">
        <ele>2.0</ele>
        <time>2019-05-16T11:11:03.919Z</time>
      </trkpt>
      <trkpt lat="38.862865" lon="-9.05835167">
        <ele>2.0</ele>
        <time>2019-05-16T11:11:04.932Z</time>
      </trkpt>
      <trkpt lat="38.86281" lon="-9.05833167">
        <ele>2.0</ele>
        <time>2019-05-16T11:11:05.900Z</time>
      </trkpt>
      <trkpt lat="38.86278333" lon="-9.05832">
        <ele>2.0</ele>
        <time>2019-05-16T11:11:06.923Z</time>
      </trkpt>
      <trkpt lat="38.86278333" lon="-9.05832">
        <ele>2.0</ele>
        <time>2019-05-16T11:11:07.912Z</time>
      </trkpt>
      <trkpt lat="38.86274667" lon="-9.058275">
        <ele>2.0</ele>
        <time>2019-05-16T11:11:08.919Z</time>
      </trkpt>
      <trkpt lat="38.86274667" lon="-9.058275">
        <ele>2.0</ele>
        <time>2019-05-16T11:11:09.913Z</time>
      </trkpt>
      <trkpt lat="38.86273167" lon="-9.05821833">
        <ele>2.0</ele>
        <time>2019-05-16T11:11:10.921Z</time>
      </trkpt>
      <trkpt lat="38.86273167" lon="-9.05821833">
        <ele>2.0</ele>
        <time>2019-05-16T11:11:11.926Z</time>
      </trkpt>
      <trkpt lat="38.86273667" lon="-9.05816167">
        <ele>2.0</ele>
        <time>2019-05-16T11:11:12.935Z</time>
      </trkpt>
      <trkpt lat="38.86273667" lon="-9.05816167">
        <ele>2.0</ele>
        <time>2019-05-16T11:11:13.917Z</time>
      </trkpt>
      <trkpt lat="38.862765" lon="-9.05812333">
        <ele>3.0</ele>
        <time>2019-05-16T11:11:14.932Z</time>
      </trkpt>
      <trkpt lat="38.862765" lon="-9.05812333">
        <ele>3.0</ele>
        <time>2019-05-16T11:11:15.929Z</time>
      </trkpt>
      <trkpt lat="38.86281167" lon="-9.05814333">
        <ele>3.0</ele>
        <time>2019-05-16T11:11:16.913Z</time>
      </trkpt>
      <trkpt lat="38.86282" lon="-9.058175">
        <ele>3.0</ele>
        <time>2019-05-16T11:11:17.930Z</time>
      </trkpt>
      <trkpt lat="38.86281667" lon="-9.05821167">
        <ele>3.0</ele>
        <time>2019-05-16T11:11:18.923Z</time>
      </trkpt>
      <trkpt lat="38.86281667" lon="-9.05821167">
        <ele>3.0</ele>
        <time>2019-05-16T11:11:19.915Z</time>
      </trkpt>
      <trkpt lat="38.862785" lon="-9.05828">
        <ele>4.0</ele>
        <time>2019-05-16T11:11:20.900Z</time>
      </trkpt>
      <trkpt lat="38.862785" lon="-9.05828">
        <ele>4.0</ele>
        <time>2019-05-16T11:11:21.932Z</time>
      </trkpt>
      <trkpt lat="38.86273167" lon="-9.05834667">
        <ele>4.0</ele>
        <time>2019-05-16T11:11:22.900Z</time>
      </trkpt>
      <trkpt lat="38.86273167" lon="-9.05834667">
        <ele>4.0</ele>
        <time>2019-05-16T11:11:23.929Z</time>
      </trkpt>
      <trkpt lat="38.86268" lon="-9.05842">
        <ele>4.0</ele>
        <time>2019-05-16T11:11:24.936Z</time>
      </trkpt>
      <trkpt lat="38.86268" lon="-9.05842">
        <ele>4.0</ele>
        <time>2019-05-16T11:11:25.909Z</time>
      </trkpt>
      <trkpt lat="38.86262" lon="-9.058475">
        <ele>4.0</ele>
        <time>2019-05-16T11:11:26.918Z</time>
      </trkpt>
      <trkpt lat="38.86262" lon="-9.058475">
        <ele>4.0</ele>
        <time>2019-05-16T11:11:27.901Z</time>
      </trkpt>
      <trkpt lat="38.86256667" lon="-9.05845">
        <ele>4.0</ele>
        <time>2019-05-16T11:11:28.939Z</time>
      </trkpt>
      <trkpt lat="38.86256667" lon="-9.05845">
        <ele>4.0</ele>
        <time>2019-05-16T11:11:29.902Z</time>
      </trkpt>
      <trkpt lat="38.86256667" lon="-9.05845">
        <ele>4.0</ele>
        <time>2019-05-16T11:11:31.025Z</time>
      </trkpt>
      <trkpt lat="38.86254833" lon="-9.05837333">
        <ele>4.0</ele>
        <time>2019-05-16T11:11:31.898Z</time>
      </trkpt>
      <trkpt lat="38.862565" lon="-9.05831">
        <ele>3.0</ele>
        <time>2019-05-16T11:11:32.909Z</time>
      </trkpt>
      <trkpt lat="38.862565" lon="-9.05831">
        <ele>3.0</ele>
        <time>2019-05-16T11:11:33.900Z</time>
      </trkpt>
      <trkpt lat="38.86259833" lon="-9.05823333">
        <ele>2.0</ele>
        <time>2019-05-16T11:11:34.910Z</time>
      </trkpt>
      <trkpt lat="38.86259833" lon="-9.05823333">
        <ele>2.0</ele>
        <time>2019-05-16T11:11:35.903Z</time>
      </trkpt>
      <trkpt lat="38.86261667" lon="-9.05813167">
        <ele>1.0</ele>
        <time>2019-05-16T11:11:36.933Z</time>
      </trkpt>
      <trkpt lat="38.86261667" lon="-9.05813167">
        <ele>1.0</ele>
        <time>2019-05-16T11:11:37.928Z</time>
      </trkpt>
      <trkpt lat="38.862595" lon="-9.05801667">
        <ele>1.0</ele>
        <time>2019-05-16T11:11:38.900Z</time>
      </trkpt>
      <trkpt lat="38.86258" lon="-9.05795833">
        <ele>1.0</ele>
        <time>2019-05-16T11:11:39.903Z</time>
      </trkpt>
      <trkpt lat="38.86258" lon="-9.05795833">
        <ele>1.0</ele>
        <time>2019-05-16T11:11:40.918Z</time>
      </trkpt>
      <trkpt lat="38.86255333" lon="-9.05785167">
        <ele>1.0</ele>
        <time>2019-05-16T11:11:41.897Z</time>
      </trkpt>
      <trkpt lat="38.86253333" lon="-9.057805">
        <ele>1.0</ele>
        <time>2019-05-16T11:11:42.920Z</time>
      </trkpt>
      <trkpt lat="38.86253333" lon="-9.057805">
        <ele>1.0</ele>
        <time>2019-05-16T11:11:43.921Z</time>
      </trkpt>
      <trkpt lat="38.86248333" lon="-9.05771833">
        <ele>1.0</ele>
        <time>2019-05-16T11:11:44.933Z</time>
      </trkpt>
      <trkpt lat="38.86245333" lon="-9.05767833">
        <ele>1.0</ele>
        <time>2019-05-16T11:11:45.909Z</time>
      </trkpt>
      <trkpt lat="38.86245333" lon="-9.05767833">
        <ele>1.0</ele>
        <time>2019-05-16T11:11:46.928Z</time>
      </trkpt>
      <trkpt lat="38.862395" lon="-9.0576">
        <ele>1.0</ele>
        <time>2019-05-16T11:11:47.923Z</time>
      </trkpt>
      <trkpt lat="38.862395" lon="-9.0576">
        <ele>1.0</ele>
        <time>2019-05-16T11:11:48.912Z</time>
      </trkpt>
      <trkpt lat="38.862335" lon="-9.05752">
        <ele>1.0</ele>
        <time>2019-05-16T11:11:49.918Z</time>
      </trkpt>
      <trkpt lat="38.862335" lon="-9.05752">
        <ele>1.0</ele>
        <time>2019-05-16T11:11:50.929Z</time>
      </trkpt>
      <trkpt lat="38.86227833" lon="-9.05744333">
        <ele>2.0</ele>
        <time>2019-05-16T11:11:51.915Z</time>
      </trkpt>
      <trkpt lat="38.86227833" lon="-9.05744333">
        <ele>2.0</ele>
        <time>2019-05-16T11:11:52.918Z</time>
      </trkpt>
      <trkpt lat="38.86223667" lon="-9.05735167">
        <ele>2.0</ele>
        <time>2019-05-16T11:11:53.939Z</time>
      </trkpt>
      <trkpt lat="38.86221333" lon="-9.057305">
        <ele>2.0</ele>
        <time>2019-05-16T11:11:54.914Z</time>
      </trkpt>
      <trkpt lat="38.86221333" lon="-9.057305">
        <ele>2.0</ele>
        <time>2019-05-16T11:11:55.898Z</time>
      </trkpt>
      <trkpt lat="38.862145" lon="-9.05723667">
        <ele>2.0</ele>
        <time>2019-05-16T11:11:56.920Z</time>
      </trkpt>
      <trkpt lat="38.862145" lon="-9.05723667">
        <ele>2.0</ele>
        <time>2019-05-16T11:11:57.915Z</time>
      </trkpt>
      <trkpt lat="38.862085" lon="-9.05719667">
        <ele>2.0</ele>
        <time>2019-05-16T11:11:58.930Z</time>
      </trkpt>
      <trkpt lat="38.862085" lon="-9.05719667">
        <ele>2.0</ele>
        <time>2019-05-16T11:11:59.913Z</time>
      </trkpt>
      <trkpt lat="38.862025" lon="-9.05716167">
        <ele>2.0</ele>
        <time>2019-05-16T11:12:00.922Z</time>
      </trkpt>
      <trkpt lat="38.862025" lon="-9.05716167">
        <ele>2.0</ele>
        <time>2019-05-16T11:12:01.937Z</time>
      </trkpt>
      <trkpt lat="38.86196667" lon="-9.057115">
        <ele>2.0</ele>
        <time>2019-05-16T11:12:02.916Z</time>
      </trkpt>
      <trkpt lat="38.86196667" lon="-9.057115">
        <ele>2.0</ele>
        <time>2019-05-16T11:12:03.906Z</time>
      </trkpt>
      <trkpt lat="38.8619" lon="-9.05706833">
        <ele>1.0</ele>
        <time>2019-05-16T11:12:04.916Z</time>
      </trkpt>
      <trkpt lat="38.86186667" lon="-9.05704">
        <ele>1.0</ele>
        <time>2019-05-16T11:12:05.922Z</time>
      </trkpt>
      <trkpt lat="38.86183167" lon="-9.05700667">
        <ele>1.0</ele>
        <time>2019-05-16T11:12:06.913Z</time>
      </trkpt>
      <trkpt lat="38.86183167" lon="-9.05700667">
        <ele>1.0</ele>
        <time>2019-05-16T11:12:07.910Z</time>
      </trkpt>
      <trkpt lat="38.86176" lon="-9.05693833">
        <ele>1.0</ele>
        <time>2019-05-16T11:12:08.930Z</time>
      </trkpt>
      <trkpt lat="38.86176" lon="-9.05693833">
        <ele>1.0</ele>
        <time>2019-05-16T11:12:09.932Z</time>
      </trkpt>
      <trkpt lat="38.86171333" lon="-9.05684667">
        <ele>1.0</ele>
        <time>2019-05-16T11:12:10.913Z</time>
      </trkpt>
      <trkpt lat="38.86171333" lon="-9.05684667">
        <ele>1.0</ele>
        <time>2019-05-16T11:12:11.899Z</time>
      </trkpt>
      <trkpt lat="38.86166" lon="-9.05678">
        <ele>0.0</ele>
        <time>2019-05-16T11:12:12.908Z</time>
      </trkpt>
      <trkpt lat="38.86166" lon="-9.05678">
        <ele>0.0</ele>
        <time>2019-05-16T11:12:13.908Z</time>
      </trkpt>
      <trkpt lat="38.86163667" lon="-9.05671667">
        <ele>0.0</ele>
        <time>2019-05-16T11:12:14.921Z</time>
      </trkpt>
      <trkpt lat="38.86163667" lon="-9.05671667">
        <ele>0.0</ele>
        <time>2019-05-16T11:12:15.909Z</time>
      </trkpt>
      <trkpt lat="38.86165333" lon="-9.05665833">
        <ele>0.0</ele>
        <time>2019-05-16T11:12:16.930Z</time>
      </trkpt>
      <trkpt lat="38.86165333" lon="-9.05665833">
        <ele>0.0</ele>
        <time>2019-05-16T11:12:17.913Z</time>
      </trkpt>
      <trkpt lat="38.86168667" lon="-9.05660167">
        <ele>0.0</ele>
        <time>2019-05-16T11:12:18.921Z</time>
      </trkpt>
      <trkpt lat="38.86168667" lon="-9.05660167">
        <ele>0.0</ele>
        <time>2019-05-16T11:12:19.921Z</time>
      </trkpt>
      <trkpt lat="38.86171" lon="-9.056535">
        <ele>0.0</ele>
        <time>2019-05-16T11:12:20.905Z</time>
      </trkpt>
      <trkpt lat="38.86171333" lon="-9.05650167">
        <ele>0.0</ele>
        <time>2019-05-16T11:12:21.915Z</time>
      </trkpt>
      <trkpt lat="38.86171333" lon="-9.05650167">
        <ele>0.0</ele>
        <time>2019-05-16T11:12:22.912Z</time>
      </trkpt>
      <trkpt lat="38.8617" lon="-9.056455">
        <ele>1.0</ele>
        <time>2019-05-16T11:12:23.923Z</time>
      </trkpt>
      <trkpt lat="38.861685" lon="-9.05643833">
        <ele>1.0</ele>
        <time>2019-05-16T11:12:24.921Z</time>
      </trkpt>
      <trkpt lat="38.861685" lon="-9.05643833">
        <ele>1.0</ele>
        <time>2019-05-16T11:12:25.916Z</time>
      </trkpt>
      <trkpt lat="38.86164833" lon="-9.05640167">
        <ele>1.0</ele>
        <time>2019-05-16T11:12:26.925Z</time>
      </trkpt>
      <trkpt lat="38.86164833" lon="-9.05640167">
        <ele>1.0</ele>
        <time>2019-05-16T11:12:27.926Z</time>
      </trkpt>
      <trkpt lat="38.86161167" lon="-9.05635667">
        <ele>1.0</ele>
        <time>2019-05-16T11:12:28.937Z</time>
      </trkpt>
      <trkpt lat="38.86161167" lon="-9.05635667">
        <ele>1.0</ele>
        <time>2019-05-16T11:12:29.910Z</time>
      </trkpt>
      <trkpt lat="38.86157833" lon="-9.05630833">
        <ele>1.0</ele>
        <time>2019-05-16T11:12:30.923Z</time>
      </trkpt>
      <trkpt lat="38.86157833" lon="-9.05630833">
        <ele>1.0</ele>
        <time>2019-05-16T11:12:31.916Z</time>
      </trkpt>
      <trkpt lat="38.86157" lon="-9.05625333">
        <ele>1.0</ele>
        <time>2019-05-16T11:12:32.927Z</time>
      </trkpt>
      <trkpt lat="38.86157" lon="-9.05625333">
        <ele>1.0</ele>
        <time>2019-05-16T11:12:33.900Z</time>
      </trkpt>
      <trkpt lat="38.86159167" lon="-9.05621333">
        <ele>1.0</ele>
        <time>2019-05-16T11:12:34.914Z</time>
      </trkpt>
      <trkpt lat="38.86159167" lon="-9.05621333">
        <ele>1.0</ele>
        <time>2019-05-16T11:12:35.915Z</time>
      </trkpt>
      <trkpt lat="38.86161" lon="-9.05619">
        <ele>1.0</ele>
        <time>2019-05-16T11:12:36.924Z</time>
      </trkpt>
      <trkpt lat="38.86161" lon="-9.05619">
        <ele>1.0</ele>
        <time>2019-05-16T11:12:37.898Z</time>
      </trkpt>
      <trkpt lat="38.86162667" lon="-9.05617667">
        <ele>2.0</ele>
        <time>2019-05-16T11:12:38.915Z</time>
      </trkpt>
      <trkpt lat="38.86162667" lon="-9.05617667">
        <ele>2.0</ele>
        <time>2019-05-16T11:12:39.935Z</time>
      </trkpt>
      <trkpt lat="38.861645" lon="-9.05616667">
        <ele>1.0</ele>
        <time>2019-05-16T11:12:40.915Z</time>
      </trkpt>
      <trkpt lat="38.861645" lon="-9.05616667">
        <ele>1.0</ele>
        <time>2019-05-16T11:12:41.917Z</time>
      </trkpt>
      <trkpt lat="38.86167667" lon="-9.05614667">
        <ele>1.0</ele>
        <time>2019-05-16T11:12:42.925Z</time>
      </trkpt>
      <trkpt lat="38.86167667" lon="-9.05614667">
        <ele>1.0</ele>
        <time>2019-05-16T11:12:43.911Z</time>
      </trkpt>
      <trkpt lat="38.86171333" lon="-9.05611833">
        <ele>1.0</ele>
        <time>2019-05-16T11:12:44.924Z</time>
      </trkpt>
      <trkpt lat="38.86171333" lon="-9.05611833">
        <ele>1.0</ele>
        <time>2019-05-16T11:12:45.909Z</time>
      </trkpt>
      <trkpt lat="38.861755" lon="-9.05607833">
        <ele>1.0</ele>
        <time>2019-05-16T11:12:46.927Z</time>
      </trkpt>
      <trkpt lat="38.861755" lon="-9.05607833">
        <ele>1.0</ele>
        <time>2019-05-16T11:12:47.901Z</time>
      </trkpt>
      <trkpt lat="38.86179" lon="-9.05602167">
        <ele>1.0</ele>
        <time>2019-05-16T11:12:48.909Z</time>
      </trkpt>
      <trkpt lat="38.86179" lon="-9.05602167">
        <ele>1.0</ele>
        <time>2019-05-16T11:12:49.931Z</time>
      </trkpt>
      <trkpt lat="38.86183167" lon="-9.05596167">
        <ele>0.0</ele>
        <time>2019-05-16T11:12:50.905Z</time>
      </trkpt>
      <trkpt lat="38.86183167" lon="-9.05596167">
        <ele>0.0</ele>
        <time>2019-05-16T11:12:51.902Z</time>
      </trkpt>
      <trkpt lat="38.861875" lon="-9.0559">
        <ele>0.0</ele>
        <time>2019-05-16T11:12:52.916Z</time>
      </trkpt>
      <trkpt lat="38.86189833" lon="-9.05586667">
        <ele>0.0</ele>
        <time>2019-05-16T11:12:53.936Z</time>
      </trkpt>
      <trkpt lat="38.86192333" lon="-9.05583667">
        <ele>0.0</ele>
        <time>2019-05-16T11:12:54.938Z</time>
      </trkpt>
      <trkpt lat="38.86192333" lon="-9.05583667">
        <ele>0.0</ele>
        <time>2019-05-16T11:12:55.919Z</time>
      </trkpt>
      <trkpt lat="38.86198" lon="-9.055775">
        <ele>-1.0</ele>
        <time>2019-05-16T11:12:56.899Z</time>
      </trkpt>
      <trkpt lat="38.86198" lon="-9.055775">
        <ele>-1.0</ele>
        <time>2019-05-16T11:12:57.908Z</time>
      </trkpt>
      <trkpt lat="38.86203833" lon="-9.05571167">
        <ele>-1.0</ele>
        <time>2019-05-16T11:12:58.923Z</time>
      </trkpt>
      <trkpt lat="38.86203833" lon="-9.05571167">
        <ele>-1.0</ele>
        <time>2019-05-16T11:12:59.911Z</time>
      </trkpt>
      <trkpt lat="38.86209667" lon="-9.05564833">
        <ele>-1.0</ele>
        <time>2019-05-16T11:13:00.921Z</time>
      </trkpt>
      <trkpt lat="38.86209667" lon="-9.05564833">
        <ele>-1.0</ele>
        <time>2019-05-16T11:13:01.907Z</time>
      </trkpt>
      <trkpt lat="38.86215333" lon="-9.055585">
        <ele>-1.0</ele>
        <time>2019-05-16T11:13:02.919Z</time>
      </trkpt>
      <trkpt lat="38.86218167" lon="-9.055555">
        <ele>-1.0</ele>
        <time>2019-05-16T11:13:03.903Z</time>
      </trkpt>
      <trkpt lat="38.86218167" lon="-9.055555">
        <ele>-1.0</ele>
        <time>2019-05-16T11:13:04.934Z</time>
      </trkpt>
      <trkpt lat="38.86223667" lon="-9.05549167">
        <ele>-1.0</ele>
        <time>2019-05-16T11:13:05.901Z</time>
      </trkpt>
      <trkpt lat="38.86226333" lon="-9.05546">
        <ele>-1.0</ele>
        <time>2019-05-16T11:13:06.907Z</time>
      </trkpt>
      <trkpt lat="38.86226333" lon="-9.05546">
        <ele>-1.0</ele>
        <time>2019-05-16T11:13:07.912Z</time>
      </trkpt>
      <trkpt lat="38.86232167" lon="-9.05541">
        <ele>-1.0</ele>
        <time>2019-05-16T11:13:08.924Z</time>
      </trkpt>
      <trkpt lat="38.86232167" lon="-9.05541">
        <ele>-1.0</ele>
        <time>2019-05-16T11:13:09.901Z</time>
      </trkpt>
      <trkpt lat="38.86237333" lon="-9.05535667">
        <ele>-1.0</ele>
        <time>2019-05-16T11:13:10.925Z</time>
      </trkpt>
      <trkpt lat="38.86237333" lon="-9.05535667">
        <ele>-1.0</ele>
        <time>2019-05-16T11:13:11.917Z</time>
      </trkpt>
      <trkpt lat="38.86242667" lon="-9.05530667">
        <ele>0.0</ele>
        <time>2019-05-16T11:13:12.897Z</time>
      </trkpt>
      <trkpt lat="38.86242667" lon="-9.05530667">
        <ele>0.0</ele>
        <time>2019-05-16T11:13:13.911Z</time>
      </trkpt>
      <trkpt lat="38.86248" lon="-9.05525333">
        <ele>0.0</ele>
        <time>2019-05-16T11:13:14.939Z</time>
      </trkpt>
      <trkpt lat="38.86248" lon="-9.05525333">
        <ele>0.0</ele>
        <time>2019-05-16T11:13:15.910Z</time>
      </trkpt>
      <trkpt lat="38.862535" lon="-9.055195">
        <ele>0.0</ele>
        <time>2019-05-16T11:13:16.920Z</time>
      </trkpt>
      <trkpt lat="38.862535" lon="-9.055195">
        <ele>0.0</ele>
        <time>2019-05-16T11:13:17.920Z</time>
      </trkpt>
      <trkpt lat="38.86259167" lon="-9.05513333">
        <ele>0.0</ele>
        <time>2019-05-16T11:13:18.927Z</time>
      </trkpt>
      <trkpt lat="38.86259167" lon="-9.05513333">
        <ele>0.0</ele>
        <time>2019-05-16T11:13:19.907Z</time>
      </trkpt>
      <trkpt lat="38.86265167" lon="-9.055075">
        <ele>0.0</ele>
        <time>2019-05-16T11:13:20.928Z</time>
      </trkpt>
      <trkpt lat="38.86265167" lon="-9.055075">
        <ele>0.0</ele>
        <time>2019-05-16T11:13:21.911Z</time>
      </trkpt>
      <trkpt lat="38.86270833" lon="-9.05501333">
        <ele>0.0</ele>
        <time>2019-05-16T11:13:22.920Z</time>
      </trkpt>
      <trkpt lat="38.86270833" lon="-9.05501333">
        <ele>0.0</ele>
        <time>2019-05-16T11:13:23.931Z</time>
      </trkpt>
      <trkpt lat="38.86277" lon="-9.05495833">
        <ele>0.0</ele>
        <time>2019-05-16T11:13:24.897Z</time>
      </trkpt>
      <trkpt lat="38.86280167" lon="-9.05493">
        <ele>0.0</ele>
        <time>2019-05-16T11:13:25.930Z</time>
      </trkpt>
      <trkpt lat="38.86283167" lon="-9.05489833">
        <ele>0.0</ele>
        <time>2019-05-16T11:13:26.926Z</time>
      </trkpt>
      <trkpt lat="38.86283167" lon="-9.05489833">
        <ele>0.0</ele>
        <time>2019-05-16T11:13:27.909Z</time>
      </trkpt>
      <trkpt lat="38.86289167" lon="-9.05484167">
        <ele>0.0</ele>
        <time>2019-05-16T11:13:28.919Z</time>
      </trkpt>
      <trkpt lat="38.86289167" lon="-9.05484167">
        <ele>0.0</ele>
        <time>2019-05-16T11:13:29.899Z</time>
      </trkpt>
      <trkpt lat="38.86295667" lon="-9.054785">
        <ele>0.0</ele>
        <time>2019-05-16T11:13:30.910Z</time>
      </trkpt>
      <trkpt lat="38.86295667" lon="-9.054785">
        <ele>0.0</ele>
        <time>2019-05-16T11:13:31.905Z</time>
      </trkpt>
      <trkpt lat="38.86302167" lon="-9.05472833">
        <ele>-1.0</ele>
        <time>2019-05-16T11:13:32.913Z</time>
      </trkpt>
      <trkpt lat="38.86302167" lon="-9.05472833">
        <ele>-1.0</ele>
        <time>2019-05-16T11:13:33.931Z</time>
      </trkpt>
      <trkpt lat="38.86308833" lon="-9.05467167">
        <ele>-1.0</ele>
        <time>2019-05-16T11:13:34.899Z</time>
      </trkpt>
      <trkpt lat="38.86308833" lon="-9.05467167">
        <ele>-1.0</ele>
        <time>2019-05-16T11:13:35.923Z</time>
      </trkpt>
      <trkpt lat="38.86315167" lon="-9.05460833">
        <ele>-1.0</ele>
        <time>2019-05-16T11:13:36.938Z</time>
      </trkpt>
      <trkpt lat="38.86315167" lon="-9.05460833">
        <ele>-1.0</ele>
        <time>2019-05-16T11:13:37.900Z</time>
      </trkpt>
      <trkpt lat="38.86321833" lon="-9.05454167">
        <ele>-1.0</ele>
        <time>2019-05-16T11:13:38.920Z</time>
      </trkpt>
      <trkpt lat="38.86321833" lon="-9.05454167">
        <ele>-1.0</ele>
        <time>2019-05-16T11:13:39.910Z</time>
      </trkpt>
      <trkpt lat="38.863285" lon="-9.05447833">
        <ele>-1.0</ele>
        <time>2019-05-16T11:13:40.925Z</time>
      </trkpt>
      <trkpt lat="38.863285" lon="-9.05447833">
        <ele>-1.0</ele>
        <time>2019-05-16T11:13:41.914Z</time>
      </trkpt>
      <trkpt lat="38.86335" lon="-9.05441333">
        <ele>-1.0</ele>
        <time>2019-05-16T11:13:42.926Z</time>
      </trkpt>
      <trkpt lat="38.86335" lon="-9.05441333">
        <ele>-1.0</ele>
        <time>2019-05-16T11:13:43.921Z</time>
      </trkpt>
      <trkpt lat="38.86341167" lon="-9.054345">
        <ele>-1.0</ele>
        <time>2019-05-16T11:13:44.897Z</time>
      </trkpt>
      <trkpt lat="38.86341167" lon="-9.054345">
        <ele>-1.0</ele>
        <time>2019-05-16T11:13:45.901Z</time>
      </trkpt>
      <trkpt lat="38.86347667" lon="-9.05428">
        <ele>-1.0</ele>
        <time>2019-05-16T11:13:46.916Z</time>
      </trkpt>
      <trkpt lat="38.86347667" lon="-9.05428">
        <ele>-1.0</ele>
        <time>2019-05-16T11:13:47.933Z</time>
      </trkpt>
      <trkpt lat="38.86354167" lon="-9.05421">
        <ele>-2.0</ele>
        <time>2019-05-16T11:13:48.919Z</time>
      </trkpt>
      <trkpt lat="38.86354167" lon="-9.05421">
        <ele>-2.0</ele>
        <time>2019-05-16T11:13:49.931Z</time>
      </trkpt>
      <trkpt lat="38.86361667" lon="-9.054135">
        <ele>-2.0</ele>
        <time>2019-05-16T11:13:50.899Z</time>
      </trkpt>
      <trkpt lat="38.863655" lon="-9.054095">
        <ele>-2.0</ele>
        <time>2019-05-16T11:13:51.910Z</time>
      </trkpt>
      <trkpt lat="38.863655" lon="-9.054095">
        <ele>-2.0</ele>
        <time>2019-05-16T11:13:52.931Z</time>
      </trkpt>
      <trkpt lat="38.86373333" lon="-9.05402">
        <ele>-2.0</ele>
        <time>2019-05-16T11:13:53.901Z</time>
      </trkpt>
      <trkpt lat="38.86377167" lon="-9.05398333">
        <ele>-2.0</ele>
        <time>2019-05-16T11:13:54.915Z</time>
      </trkpt>
      <trkpt lat="38.86377167" lon="-9.05398333">
        <ele>-2.0</ele>
        <time>2019-05-16T11:13:55.929Z</time>
      </trkpt>
      <trkpt lat="38.863845" lon="-9.05391">
        <ele>-1.0</ele>
        <time>2019-05-16T11:13:56.901Z</time>
      </trkpt>
      <trkpt lat="38.86388" lon="-9.05387333">
        <ele>-1.0</ele>
        <time>2019-05-16T11:13:57.906Z</time>
      </trkpt>
      <trkpt lat="38.86388" lon="-9.05387333">
        <ele>-1.0</ele>
        <time>2019-05-16T11:13:58.921Z</time>
      </trkpt>
      <trkpt lat="38.86395167" lon="-9.05380333">
        <ele>0.0</ele>
        <time>2019-05-16T11:13:59.939Z</time>
      </trkpt>
      <trkpt lat="38.86398667" lon="-9.05376667">
        <ele>0.0</ele>
        <time>2019-05-16T11:14:00.897Z</time>
      </trkpt>
      <trkpt lat="38.86398667" lon="-9.05376667">
        <ele>0.0</ele>
        <time>2019-05-16T11:14:01.930Z</time>
      </trkpt>
      <trkpt lat="38.864055" lon="-9.053695">
        <ele>0.0</ele>
        <time>2019-05-16T11:14:02.898Z</time>
      </trkpt>
      <trkpt lat="38.864055" lon="-9.053695">
        <ele>0.0</ele>
        <time>2019-05-16T11:14:03.908Z</time>
      </trkpt>
      <trkpt lat="38.864125" lon="-9.05362167">
        <ele>1.0</ele>
        <time>2019-05-16T11:14:04.934Z</time>
      </trkpt>
      <trkpt lat="38.86416167" lon="-9.053585">
        <ele>1.0</ele>
        <time>2019-05-16T11:14:05.911Z</time>
      </trkpt>
      <trkpt lat="38.86419833" lon="-9.05354833">
        <ele>1.0</ele>
        <time>2019-05-16T11:14:06.900Z</time>
      </trkpt>
      <trkpt lat="38.86419833" lon="-9.05354833">
        <ele>1.0</ele>
        <time>2019-05-16T11:14:07.901Z</time>
      </trkpt>
      <trkpt lat="38.86427" lon="-9.05348">
        <ele>1.0</ele>
        <time>2019-05-16T11:14:08.929Z</time>
      </trkpt>
      <trkpt lat="38.86427" lon="-9.05348">
        <ele>1.0</ele>
        <time>2019-05-16T11:14:09.933Z</time>
      </trkpt>
      <trkpt lat="38.86434333" lon="-9.05340667">
        <ele>1.0</ele>
        <time>2019-05-16T11:14:10.914Z</time>
      </trkpt>
      <trkpt lat="38.86434333" lon="-9.05340667">
        <ele>1.0</ele>
        <time>2019-05-16T11:14:11.901Z</time>
      </trkpt>
      <trkpt lat="38.86441833" lon="-9.053335">
        <ele>2.0</ele>
        <time>2019-05-16T11:14:12.910Z</time>
      </trkpt>
      <trkpt lat="38.86441833" lon="-9.053335">
        <ele>2.0</ele>
        <time>2019-05-16T11:14:13.901Z</time>
      </trkpt>
      <trkpt lat="38.86448833" lon="-9.05327167">
        <ele>2.0</ele>
        <time>2019-05-16T11:14:14.909Z</time>
      </trkpt>
      <trkpt lat="38.86448833" lon="-9.05327167">
        <ele>2.0</ele>
        <time>2019-05-16T11:14:15.918Z</time>
      </trkpt>
      <trkpt lat="38.864525" lon="-9.05319333">
        <ele>2.0</ele>
        <time>2019-05-16T11:14:16.936Z</time>
      </trkpt>
      <trkpt lat="38.864525" lon="-9.05319333">
        <ele>2.0</ele>
        <time>2019-05-16T11:14:17.932Z</time>
      </trkpt>
      <trkpt lat="38.86448333" lon="-9.05312833">
        <ele>2.0</ele>
        <time>2019-05-16T11:14:18.905Z</time>
      </trkpt>
      <trkpt lat="38.86445167" lon="-9.05311333">
        <ele>2.0</ele>
        <time>2019-05-16T11:14:19.920Z</time>
      </trkpt>
      <trkpt lat="38.86445167" lon="-9.05311333">
        <ele>2.0</ele>
        <time>2019-05-16T11:14:20.902Z</time>
      </trkpt>
      <trkpt lat="38.86439333" lon="-9.05307167">
        <ele>2.0</ele>
        <time>2019-05-16T11:14:21.914Z</time>
      </trkpt>
      <trkpt lat="38.86439333" lon="-9.05307167">
        <ele>2.0</ele>
        <time>2019-05-16T11:14:22.905Z</time>
      </trkpt>
      <trkpt lat="38.86433167" lon="-9.05303">
        <ele>2.0</ele>
        <time>2019-05-16T11:14:23.921Z</time>
      </trkpt>
      <trkpt lat="38.8643" lon="-9.05300667">
        <ele>1.0</ele>
        <time>2019-05-16T11:14:24.933Z</time>
      </trkpt>
      <trkpt lat="38.8643" lon="-9.05300667">
        <ele>1.0</ele>
        <time>2019-05-16T11:14:25.922Z</time>
      </trkpt>
      <trkpt lat="38.864235" lon="-9.05296833">
        <ele>1.0</ele>
        <time>2019-05-16T11:14:26.934Z</time>
      </trkpt>
      <trkpt lat="38.864235" lon="-9.05296833">
        <ele>1.0</ele>
        <time>2019-05-16T11:14:27.929Z</time>
      </trkpt>
      <trkpt lat="38.86416667" lon="-9.05292333">
        <ele>1.0</ele>
        <time>2019-05-16T11:14:28.900Z</time>
      </trkpt>
      <trkpt lat="38.86413333" lon="-9.052895">
        <ele>1.0</ele>
        <time>2019-05-16T11:14:29.924Z</time>
      </trkpt>
      <trkpt lat="38.86409833" lon="-9.05286833">
        <ele>1.0</ele>
        <time>2019-05-16T11:14:30.903Z</time>
      </trkpt>
      <trkpt lat="38.86409833" lon="-9.05286833">
        <ele>1.0</ele>
        <time>2019-05-16T11:14:31.912Z</time>
      </trkpt>
      <trkpt lat="38.86402667" lon="-9.05281833">
        <ele>1.0</ele>
        <time>2019-05-16T11:14:32.923Z</time>
      </trkpt>
      <trkpt lat="38.86402667" lon="-9.05281833">
        <ele>1.0</ele>
        <time>2019-05-16T11:14:33.920Z</time>
      </trkpt>
      <trkpt lat="38.86395" lon="-9.05277167">
        <ele>1.0</ele>
        <time>2019-05-16T11:14:34.930Z</time>
      </trkpt>
      <trkpt lat="38.86391167" lon="-9.052745">
        <ele>1.0</ele>
        <time>2019-05-16T11:14:35.924Z</time>
      </trkpt>
      <trkpt lat="38.863875" lon="-9.05271833">
        <ele>1.0</ele>
        <time>2019-05-16T11:14:36.931Z</time>
      </trkpt>
      <trkpt lat="38.863875" lon="-9.05271833">
        <ele>1.0</ele>
        <time>2019-05-16T11:14:37.924Z</time>
      </trkpt>
      <trkpt lat="38.86379667" lon="-9.05267">
        <ele>0.0</ele>
        <time>2019-05-16T11:14:38.935Z</time>
      </trkpt>
      <trkpt lat="38.86375667" lon="-9.05264667">
        <ele>0.0</ele>
        <time>2019-05-16T11:14:39.933Z</time>
      </trkpt>
      <trkpt lat="38.86375667" lon="-9.05264667">
        <ele>0.0</ele>
        <time>2019-05-16T11:14:40.909Z</time>
      </trkpt>
      <trkpt lat="38.86368" lon="-9.05259667">
        <ele>0.0</ele>
        <time>2019-05-16T11:14:41.906Z</time>
      </trkpt>
      <trkpt lat="38.86364" lon="-9.05257667">
        <ele>0.0</ele>
        <time>2019-05-16T11:14:42.901Z</time>
      </trkpt>
      <trkpt lat="38.86364" lon="-9.05257667">
        <ele>0.0</ele>
        <time>2019-05-16T11:14:43.925Z</time>
      </trkpt>
      <trkpt lat="38.86355833" lon="-9.05253167">
        <ele>-1.0</ele>
        <time>2019-05-16T11:14:44.897Z</time>
      </trkpt>
      <trkpt lat="38.86355833" lon="-9.05253167">
        <ele>-1.0</ele>
        <time>2019-05-16T11:14:45.931Z</time>
      </trkpt>
      <trkpt lat="38.86347667" lon="-9.05248">
        <ele>-1.0</ele>
        <time>2019-05-16T11:14:46.907Z</time>
      </trkpt>
      <trkpt lat="38.86347667" lon="-9.05248">
        <ele>-1.0</ele>
        <time>2019-05-16T11:14:47.901Z</time>
      </trkpt>
      <trkpt lat="38.86339833" lon="-9.05243">
        <ele>-1.0</ele>
        <time>2019-05-16T11:14:48.911Z</time>
      </trkpt>
      <trkpt lat="38.86339833" lon="-9.05243">
        <ele>-1.0</ele>
        <time>2019-05-16T11:14:49.929Z</time>
      </trkpt>
      <trkpt lat="38.86331833" lon="-9.05237667">
        <ele>-1.0</ele>
        <time>2019-05-16T11:14:50.906Z</time>
      </trkpt>
      <trkpt lat="38.86331833" lon="-9.05237667">
        <ele>-1.0</ele>
        <time>2019-05-16T11:14:51.919Z</time>
      </trkpt>
      <trkpt lat="38.86323833" lon="-9.05232833">
        <ele>-1.0</ele>
        <time>2019-05-16T11:14:52.902Z</time>
      </trkpt>
      <trkpt lat="38.86323833" lon="-9.05232833">
        <ele>-1.0</ele>
        <time>2019-05-16T11:14:53.902Z</time>
      </trkpt>
      <trkpt lat="38.86315833" lon="-9.05228">
        <ele>-1.0</ele>
        <time>2019-05-16T11:14:54.911Z</time>
      </trkpt>
      <trkpt lat="38.86315833" lon="-9.05228">
        <ele>-1.0</ele>
        <time>2019-05-16T11:14:55.907Z</time>
      </trkpt>
      <trkpt lat="38.86308" lon="-9.05223333">
        <ele>-1.0</ele>
        <time>2019-05-16T11:14:56.922Z</time>
      </trkpt>
      <trkpt lat="38.86308" lon="-9.05223333">
        <ele>-1.0</ele>
        <time>2019-05-16T11:14:57.920Z</time>
      </trkpt>
      <trkpt lat="38.86301" lon="-9.05218">
        <ele>-1.0</ele>
        <time>2019-05-16T11:14:58.910Z</time>
      </trkpt>
      <trkpt lat="38.86297833" lon="-9.05215167">
        <ele>-1.0</ele>
        <time>2019-05-16T11:14:59.905Z</time>
      </trkpt>
      <trkpt lat="38.86297833" lon="-9.05215167">
        <ele>-1.0</ele>
        <time>2019-05-16T11:15:00.900Z</time>
      </trkpt>
      <trkpt lat="38.86291" lon="-9.05209833">
        <ele>-1.0</ele>
        <time>2019-05-16T11:15:01.908Z</time>
      </trkpt>
      <trkpt lat="38.86291" lon="-9.05209833">
        <ele>-1.0</ele>
        <time>2019-05-16T11:15:02.934Z</time>
      </trkpt>
      <trkpt lat="38.86284667" lon="-9.052045">
        <ele>-1.0</ele>
        <time>2019-05-16T11:15:03.904Z</time>
      </trkpt>
      <trkpt lat="38.86284667" lon="-9.052045">
        <ele>-1.0</ele>
        <time>2019-05-16T11:15:04.931Z</time>
      </trkpt>
      <trkpt lat="38.862785" lon="-9.05201167">
        <ele>-1.0</ele>
        <time>2019-05-16T11:15:05.898Z</time>
      </trkpt>
      <trkpt lat="38.862755" lon="-9.052">
        <ele>-1.0</ele>
        <time>2019-05-16T11:15:06.936Z</time>
      </trkpt>
      <trkpt lat="38.862755" lon="-9.052">
        <ele>-1.0</ele>
        <time>2019-05-16T11:15:07.904Z</time>
      </trkpt>
      <trkpt lat="38.862695" lon="-9.051985">
        <ele>0.0</ele>
        <time>2019-05-16T11:15:08.916Z</time>
      </trkpt>
      <trkpt lat="38.862695" lon="-9.051985">
        <ele>0.0</ele>
        <time>2019-05-16T11:15:09.911Z</time>
      </trkpt>
      <trkpt lat="38.86263833" lon="-9.05200167">
        <ele>0.0</ele>
        <time>2019-05-16T11:15:10.921Z</time>
      </trkpt>
      <trkpt lat="38.86260833" lon="-9.05199833">
        <ele>0.0</ele>
        <time>2019-05-16T11:15:11.935Z</time>
      </trkpt>
      <trkpt lat="38.86258" lon="-9.05198667">
        <ele>0.0</ele>
        <time>2019-05-16T11:15:12.921Z</time>
      </trkpt>
      <trkpt lat="38.86258" lon="-9.05198667">
        <ele>0.0</ele>
        <time>2019-05-16T11:15:13.912Z</time>
      </trkpt>
      <trkpt lat="38.86252333" lon="-9.05195833">
        <ele>-1.0</ele>
        <time>2019-05-16T11:15:14.920Z</time>
      </trkpt>
      <trkpt lat="38.86252333" lon="-9.05195833">
        <ele>-1.0</ele>
        <time>2019-05-16T11:15:15.933Z</time>
      </trkpt>
      <trkpt lat="38.86247" lon="-9.051935">
        <ele>-1.0</ele>
        <time>2019-05-16T11:15:16.909Z</time>
      </trkpt>
      <trkpt lat="38.86247" lon="-9.051935">
        <ele>-1.0</ele>
        <time>2019-05-16T11:15:17.899Z</time>
      </trkpt>
      <trkpt lat="38.86241833" lon="-9.05191333">
        <ele>-1.0</ele>
        <time>2019-05-16T11:15:18.917Z</time>
      </trkpt>
      <trkpt lat="38.86241833" lon="-9.05191333">
        <ele>-1.0</ele>
        <time>2019-05-16T11:15:19.932Z</time>
      </trkpt>
      <trkpt lat="38.86237" lon="-9.05188167">
        <ele>-1.0</ele>
        <time>2019-05-16T11:15:20.931Z</time>
      </trkpt>
      <trkpt lat="38.86237" lon="-9.05188167">
        <ele>-1.0</ele>
        <time>2019-05-16T11:15:21.930Z</time>
      </trkpt>
      <trkpt lat="38.86232" lon="-9.05185">
        <ele>0.0</ele>
        <time>2019-05-16T11:15:22.903Z</time>
      </trkpt>
      <trkpt lat="38.86229333" lon="-9.05183333">
        <ele>0.0</ele>
        <time>2019-05-16T11:15:23.933Z</time>
      </trkpt>
      <trkpt lat="38.86229333" lon="-9.05183333">
        <ele>0.0</ele>
        <time>2019-05-16T11:15:24.910Z</time>
      </trkpt>
      <trkpt lat="38.86224333" lon="-9.05179833">
        <ele>1.0</ele>
        <time>2019-05-16T11:15:25.920Z</time>
      </trkpt>
      <trkpt lat="38.86222" lon="-9.05178167">
        <ele>1.0</ele>
        <time>2019-05-16T11:15:26.911Z</time>
      </trkpt>
      <trkpt lat="38.86222" lon="-9.05178167">
        <ele>1.0</ele>
        <time>2019-05-16T11:15:27.917Z</time>
      </trkpt>
      <trkpt lat="38.86217667" lon="-9.05175833">
        <ele>0.0</ele>
        <time>2019-05-16T11:15:28.928Z</time>
      </trkpt>
      <trkpt lat="38.86217667" lon="-9.05175833">
        <ele>0.0</ele>
        <time>2019-05-16T11:15:29.930Z</time>
      </trkpt>
      <trkpt lat="38.86215" lon="-9.05170167">
        <ele>0.0</ele>
        <time>2019-05-16T11:15:30.900Z</time>
      </trkpt>
      <trkpt lat="38.86215" lon="-9.05170167">
        <ele>0.0</ele>
        <time>2019-05-16T11:15:31.901Z</time>
      </trkpt>
      <trkpt lat="38.86215667" lon="-9.05164167">
        <ele>0.0</ele>
        <time>2019-05-16T11:15:32.912Z</time>
      </trkpt>
      <trkpt lat="38.86216667" lon="-9.051615">
        <ele>1.0</ele>
        <time>2019-05-16T11:15:33.926Z</time>
      </trkpt>
      <trkpt lat="38.86216667" lon="-9.051615">
        <ele>1.0</ele>
        <time>2019-05-16T11:15:34.935Z</time>
      </trkpt>
      <trkpt lat="38.86218833" lon="-9.05156667">
        <ele>1.0</ele>
        <time>2019-05-16T11:15:35.903Z</time>
      </trkpt>
      <trkpt lat="38.8622" lon="-9.05154333">
        <ele>1.0</ele>
        <time>2019-05-16T11:15:36.915Z</time>
      </trkpt>
      <trkpt lat="38.8622" lon="-9.05154333">
        <ele>1.0</ele>
        <time>2019-05-16T11:15:37.914Z</time>
      </trkpt>
      <trkpt lat="38.86222667" lon="-9.051495">
        <ele>2.0</ele>
        <time>2019-05-16T11:15:38.924Z</time>
      </trkpt>
      <trkpt lat="38.86222667" lon="-9.051495">
        <ele>2.0</ele>
        <time>2019-05-16T11:15:39.899Z</time>
      </trkpt>
      <trkpt lat="38.86225667" lon="-9.05144">
        <ele>2.0</ele>
        <time>2019-05-16T11:15:40.902Z</time>
      </trkpt>
      <trkpt lat="38.86225667" lon="-9.05144">
        <ele>2.0</ele>
        <time>2019-05-16T11:15:41.931Z</time>
      </trkpt>
      <trkpt lat="38.86227667" lon="-9.051375">
        <ele>2.0</ele>
        <time>2019-05-16T11:15:42.901Z</time>
      </trkpt>
      <trkpt lat="38.86227667" lon="-9.051375">
        <ele>2.0</ele>
        <time>2019-05-16T11:15:43.932Z</time>
      </trkpt>
      <trkpt lat="38.86232333" lon="-9.05133">
        <ele>3.0</ele>
        <time>2019-05-16T11:15:44.909Z</time>
      </trkpt>
      <trkpt lat="38.86232333" lon="-9.05133">
        <ele>3.0</ele>
        <time>2019-05-16T11:15:45.922Z</time>
      </trkpt>
      <trkpt lat="38.86238833" lon="-9.05131667">
        <ele>4.0</ele>
        <time>2019-05-16T11:15:46.908Z</time>
      </trkpt>
      <trkpt lat="38.86238833" lon="-9.05131667">
        <ele>4.0</ele>
        <time>2019-05-16T11:15:47.900Z</time>
      </trkpt>
      <trkpt lat="38.86244167" lon="-9.05128167">
        <ele>3.0</ele>
        <time>2019-05-16T11:15:48.930Z</time>
      </trkpt>
      <trkpt lat="38.86244167" lon="-9.05128167">
        <ele>3.0</ele>
        <time>2019-05-16T11:15:49.915Z</time>
      </trkpt>
      <trkpt lat="38.86248167" lon="-9.05124167">
        <ele>3.0</ele>
        <time>2019-05-16T11:15:50.925Z</time>
      </trkpt>
      <trkpt lat="38.86248167" lon="-9.05124167">
        <ele>3.0</ele>
        <time>2019-05-16T11:15:51.911Z</time>
      </trkpt>
      <trkpt lat="38.86252333" lon="-9.051205">
        <ele>4.0</ele>
        <time>2019-05-16T11:15:52.923Z</time>
      </trkpt>
      <trkpt lat="38.86252333" lon="-9.051205">
        <ele>4.0</ele>
        <time>2019-05-16T11:15:53.906Z</time>
      </trkpt>
      <trkpt lat="38.86256" lon="-9.05116667">
        <ele>4.0</ele>
        <time>2019-05-16T11:15:54.918Z</time>
      </trkpt>
      <trkpt lat="38.86256" lon="-9.05116667">
        <ele>4.0</ele>
        <time>2019-05-16T11:15:55.921Z</time>
      </trkpt>
      <trkpt lat="38.86258333" lon="-9.05110833">
        <ele>4.0</ele>
        <time>2019-05-16T11:15:56.937Z</time>
      </trkpt>
      <trkpt lat="38.86258333" lon="-9.05110833">
        <ele>4.0</ele>
        <time>2019-05-16T11:15:57.929Z</time>
      </trkpt>
      <trkpt lat="38.86259833" lon="-9.05102833">
        <ele>4.0</ele>
        <time>2019-05-16T11:15:58.902Z</time>
      </trkpt>
      <trkpt lat="38.86259833" lon="-9.05102833">
        <ele>4.0</ele>
        <time>2019-05-16T11:15:59.903Z</time>
      </trkpt>
      <trkpt lat="38.86262333" lon="-9.050945">
        <ele>4.0</ele>
        <time>2019-05-16T11:16:00.917Z</time>
      </trkpt>
      <trkpt lat="38.86262333" lon="-9.050945">
        <ele>4.0</ele>
        <time>2019-05-16T11:16:01.912Z</time>
      </trkpt>
      <trkpt lat="38.86265167" lon="-9.05086167">
        <ele>4.0</ele>
        <time>2019-05-16T11:16:02.925Z</time>
      </trkpt>
      <trkpt lat="38.86265167" lon="-9.05086167">
        <ele>4.0</ele>
        <time>2019-05-16T11:16:03.919Z</time>
      </trkpt>
      <trkpt lat="38.86267833" lon="-9.050775">
        <ele>4.0</ele>
        <time>2019-05-16T11:16:04.929Z</time>
      </trkpt>
      <trkpt lat="38.86269333" lon="-9.05073167">
        <ele>4.0</ele>
        <time>2019-05-16T11:16:05.903Z</time>
      </trkpt>
      <trkpt lat="38.86270667" lon="-9.05068667">
        <ele>4.0</ele>
        <time>2019-05-16T11:16:06.901Z</time>
      </trkpt>
      <trkpt lat="38.86270667" lon="-9.05068667">
        <ele>4.0</ele>
        <time>2019-05-16T11:16:07.931Z</time>
      </trkpt>
      <trkpt lat="38.86273667" lon="-9.05059667">
        <ele>4.0</ele>
        <time>2019-05-16T11:16:08.899Z</time>
      </trkpt>
      <trkpt lat="38.86273667" lon="-9.05059667">
        <ele>4.0</ele>
        <time>2019-05-16T11:16:09.916Z</time>
      </trkpt>
      <trkpt lat="38.86276833" lon="-9.05051">
        <ele>4.0</ele>
        <time>2019-05-16T11:16:10.928Z</time>
      </trkpt>
      <trkpt lat="38.86278333" lon="-9.050465">
        <ele>4.0</ele>
        <time>2019-05-16T11:16:11.931Z</time>
      </trkpt>
      <trkpt lat="38.86279833" lon="-9.05042167">
        <ele>4.0</ele>
        <time>2019-05-16T11:16:12.898Z</time>
      </trkpt>
      <trkpt lat="38.86279833" lon="-9.05042167">
        <ele>4.0</ele>
        <time>2019-05-16T11:16:13.920Z</time>
      </trkpt>
      <trkpt lat="38.86282667" lon="-9.050335">
        <ele>4.0</ele>
        <time>2019-05-16T11:16:14.910Z</time>
      </trkpt>
      <trkpt lat="38.86282667" lon="-9.050335">
        <ele>4.0</ele>
        <time>2019-05-16T11:16:15.901Z</time>
      </trkpt>
      <trkpt lat="38.86285833" lon="-9.05024833">
        <ele>3.0</ele>
        <time>2019-05-16T11:16:16.911Z</time>
      </trkpt>
      <trkpt lat="38.86285833" lon="-9.05024833">
        <ele>3.0</ele>
        <time>2019-05-16T11:16:17.935Z</time>
      </trkpt>
      <trkpt lat="38.862895" lon="-9.050165">
        <ele>3.0</ele>
        <time>2019-05-16T11:16:18.903Z</time>
      </trkpt>
      <trkpt lat="38.862895" lon="-9.050165">
        <ele>3.0</ele>
        <time>2019-05-16T11:16:19.931Z</time>
      </trkpt>
      <trkpt lat="38.86292833" lon="-9.05007833">
        <ele>3.0</ele>
        <time>2019-05-16T11:16:20.928Z</time>
      </trkpt>
      <trkpt lat="38.86292833" lon="-9.05007833">
        <ele>3.0</ele>
        <time>2019-05-16T11:16:21.937Z</time>
      </trkpt>
      <trkpt lat="38.86296333" lon="-9.04999">
        <ele>3.0</ele>
        <time>2019-05-16T11:16:22.905Z</time>
      </trkpt>
      <trkpt lat="38.86296333" lon="-9.04999">
        <ele>3.0</ele>
        <time>2019-05-16T11:16:23.897Z</time>
      </trkpt>
      <trkpt lat="38.86299667" lon="-9.04990167">
        <ele>3.0</ele>
        <time>2019-05-16T11:16:24.905Z</time>
      </trkpt>
      <trkpt lat="38.86299667" lon="-9.04990167">
        <ele>3.0</ele>
        <time>2019-05-16T11:16:25.928Z</time>
      </trkpt>
      <trkpt lat="38.86302667" lon="-9.04981667">
        <ele>3.0</ele>
        <time>2019-05-16T11:16:26.897Z</time>
      </trkpt>
      <trkpt lat="38.86302667" lon="-9.04981667">
        <ele>3.0</ele>
        <time>2019-05-16T11:16:27.907Z</time>
      </trkpt>
      <trkpt lat="38.863055" lon="-9.04973833">
        <ele>3.0</ele>
        <time>2019-05-16T11:16:28.920Z</time>
      </trkpt>
      <trkpt lat="38.863055" lon="-9.04973833">
        <ele>3.0</ele>
        <time>2019-05-16T11:16:29.911Z</time>
      </trkpt>
      <trkpt lat="38.86308" lon="-9.04966667">
        <ele>3.0</ele>
        <time>2019-05-16T11:16:30.930Z</time>
      </trkpt>
      <trkpt lat="38.86308" lon="-9.04966667">
        <ele>3.0</ele>
        <time>2019-05-16T11:16:31.929Z</time>
      </trkpt>
      <trkpt lat="38.86310167" lon="-9.04960333">
        <ele>3.0</ele>
        <time>2019-05-16T11:16:32.898Z</time>
      </trkpt>
      <trkpt lat="38.86310167" lon="-9.04960333">
        <ele>3.0</ele>
        <time>2019-05-16T11:16:33.914Z</time>
      </trkpt>
      <trkpt lat="38.86312667" lon="-9.04954333">
        <ele>2.0</ele>
        <time>2019-05-16T11:16:34.932Z</time>
      </trkpt>
      <trkpt lat="38.86312667" lon="-9.04954333">
        <ele>2.0</ele>
        <time>2019-05-16T11:16:35.920Z</time>
      </trkpt>
      <trkpt lat="38.86315" lon="-9.04948167">
        <ele>2.0</ele>
        <time>2019-05-16T11:16:36.934Z</time>
      </trkpt>
      <trkpt lat="38.86316" lon="-9.04945">
        <ele>2.0</ele>
        <time>2019-05-16T11:16:37.909Z</time>
      </trkpt>
      <trkpt lat="38.86317" lon="-9.049415">
        <ele>2.0</ele>
        <time>2019-05-16T11:16:38.912Z</time>
      </trkpt>
      <trkpt lat="38.86317" lon="-9.049415">
        <ele>2.0</ele>
        <time>2019-05-16T11:16:39.911Z</time>
      </trkpt>
      <trkpt lat="38.86319667" lon="-9.04935833">
        <ele>2.0</ele>
        <time>2019-05-16T11:16:40.919Z</time>
      </trkpt>
      <trkpt lat="38.86319667" lon="-9.04935833">
        <ele>2.0</ele>
        <time>2019-05-16T11:16:41.913Z</time>
      </trkpt>
      <trkpt lat="38.86321833" lon="-9.04931333">
        <ele>2.0</ele>
        <time>2019-05-16T11:16:42.923Z</time>
      </trkpt>
      <trkpt lat="38.86321833" lon="-9.04931333">
        <ele>2.0</ele>
        <time>2019-05-16T11:16:43.900Z</time>
      </trkpt>
      <trkpt lat="38.86323333" lon="-9.049275">
        <ele>2.0</ele>
        <time>2019-05-16T11:16:44.908Z</time>
      </trkpt>
      <trkpt lat="38.86323333" lon="-9.049275">
        <ele>2.0</ele>
        <time>2019-05-16T11:16:45.913Z</time>
      </trkpt>
      <trkpt lat="38.86323833" lon="-9.049245">
        <ele>2.0</ele>
        <time>2019-05-16T11:16:46.920Z</time>
      </trkpt>
      <trkpt lat="38.86323833" lon="-9.049245">
        <ele>2.0</ele>
        <time>2019-05-16T11:16:47.913Z</time>
      </trkpt>
      <trkpt lat="38.86324333" lon="-9.04923333">
        <ele>2.0</ele>
        <time>2019-05-16T11:16:48.935Z</time>
      </trkpt>
      <trkpt lat="38.86324333" lon="-9.04923333">
        <ele>2.0</ele>
        <time>2019-05-16T11:16:49.931Z</time>
      </trkpt>
      <trkpt lat="38.863245" lon="-9.04923">
        <ele>2.0</ele>
        <time>2019-05-16T11:16:50.901Z</time>
      </trkpt>
      <trkpt lat="38.863245" lon="-9.04923">
        <ele>2.0</ele>
        <time>2019-05-16T11:16:51.921Z</time>
      </trkpt>
      <trkpt lat="38.863245" lon="-9.04923">
        <ele>2.0</ele>
        <time>2019-05-16T11:16:52.934Z</time>
      </trkpt>
      <trkpt lat="38.863245" lon="-9.04923">
        <ele>2.0</ele>
        <time>2019-05-16T11:16:53.900Z</time>
      </trkpt>
      <trkpt lat="38.863245" lon="-9.04923">
        <ele>2.0</ele>
        <time>2019-05-16T11:16:54.906Z</time>
      </trkpt>
      <trkpt lat="38.863245" lon="-9.04923">
        <ele>2.0</ele>
        <time>2019-05-16T11:16:55.897Z</time>
      </trkpt>
      <trkpt lat="38.863245" lon="-9.04923">
        <ele>2.0</ele>
        <time>2019-05-16T11:16:56.905Z</time>
      </trkpt>
      <trkpt lat="38.863245" lon="-9.04923">
        <ele>2.0</ele>
        <time>2019-05-16T11:16:57.897Z</time>
      </trkpt>
      <trkpt lat="38.863245" lon="-9.04923">
        <ele>2.0</ele>
        <time>2019-05-16T11:16:58.900Z</time>
      </trkpt>
      <trkpt lat="38.863245" lon="-9.04923">
        <ele>2.0</ele>
        <time>2019-05-16T11:16:59.897Z</time>
      </trkpt>
      <trkpt lat="38.863245" lon="-9.04923">
        <ele>2.0</ele>
        <time>2019-05-16T11:17:00.904Z</time>
      </trkpt>
      <trkpt lat="38.863245" lon="-9.04923">
        <ele>2.0</ele>
        <time>2019-05-16T11:17:01.899Z</time>
      </trkpt>
      <trkpt lat="38.863245" lon="-9.04923">
        <ele>2.0</ele>
        <time>2019-05-16T11:17:02.902Z</time>
      </trkpt>
      <trkpt lat="38.863245" lon="-9.04923">
        <ele>2.0</ele>
        <time>2019-05-16T11:17:03.897Z</time>
      </trkpt>
      <trkpt lat="38.863245" lon="-9.04923">
        <ele>2.0</ele>
        <time>2019-05-16T11:17:04.901Z</time>
      </trkpt>
      <trkpt lat="38.863245" lon="-9.04923">
        <ele>2.0</ele>
        <time>2019-05-16T11:17:05.897Z</time>
      </trkpt>
      <trkpt lat="38.863245" lon="-9.04923">
        <ele>2.0</ele>
        <time>2019-05-16T11:17:06.905Z</time>
      </trkpt>
      <trkpt lat="38.863245" lon="-9.04923">
        <ele>2.0</ele>
        <time>2019-05-16T11:17:07.902Z</time>
      </trkpt>
      <trkpt lat="38.863245" lon="-9.04923">
        <ele>2.0</ele>
        <time>2019-05-16T11:17:08.900Z</time>
      </trkpt>
      <trkpt lat="38.86325667" lon="-9.04919">
        <ele>1.0</ele>
        <time>2019-05-16T11:17:09.902Z</time>
      </trkpt>
      <trkpt lat="38.86325667" lon="-9.04919">
        <ele>1.0</ele>
        <time>2019-05-16T11:17:10.897Z</time>
      </trkpt>
      <trkpt lat="38.86327167" lon="-9.04914833">
        <ele>1.0</ele>
        <time>2019-05-16T11:17:11.903Z</time>
      </trkpt>
      <trkpt lat="38.86327167" lon="-9.04914833">
        <ele>1.0</ele>
        <time>2019-05-16T11:17:12.899Z</time>
      </trkpt>
      <trkpt lat="38.86328333" lon="-9.04911167">
        <ele>1.0</ele>
        <time>2019-05-16T11:17:13.907Z</time>
      </trkpt>
      <trkpt lat="38.86328333" lon="-9.04911167">
        <ele>1.0</ele>
        <time>2019-05-16T11:17:14.899Z</time>
      </trkpt>
      <trkpt lat="38.86329667" lon="-9.049105">
        <ele>2.0</ele>
        <time>2019-05-16T11:17:15.967Z</time>
      </trkpt>
      <trkpt lat="38.86329667" lon="-9.049105">
        <ele>2.0</ele>
        <time>2019-05-16T11:17:16.932Z</time>
      </trkpt>
      <trkpt lat="38.863295" lon="-9.049115">
        <ele>2.0</ele>
        <time>2019-05-16T11:17:17.917Z</time>
      </trkpt>
      <trkpt lat="38.863295" lon="-9.049115">
        <ele>2.0</ele>
        <time>2019-05-16T11:17:18.924Z</time>
      </trkpt>
      <trkpt lat="38.863295" lon="-9.049115">
        <ele>2.0</ele>
        <time>2019-05-16T11:17:19.931Z</time>
      </trkpt>
      <trkpt lat="38.863295" lon="-9.049115">
        <ele>2.0</ele>
        <time>2019-05-16T11:17:20.911Z</time>
      </trkpt>
      <trkpt lat="38.863295" lon="-9.049115">
        <ele>2.0</ele>
        <time>2019-05-16T11:17:21.900Z</time>
      </trkpt>
      <trkpt lat="38.863295" lon="-9.049115">
        <ele>2.0</ele>
        <time>2019-05-16T11:17:22.917Z</time>
      </trkpt>
      <trkpt lat="38.863295" lon="-9.049115">
        <ele>2.0</ele>
        <time>2019-05-16T11:17:23.899Z</time>
      </trkpt>
      <trkpt lat="38.863295" lon="-9.049115">
        <ele>2.0</ele>
        <time>2019-05-16T11:17:24.904Z</time>
      </trkpt>
      <trkpt lat="38.863295" lon="-9.049115">
        <ele>2.0</ele>
        <time>2019-05-16T11:17:25.897Z</time>
      </trkpt>
      <trkpt lat="38.863295" lon="-9.049115">
        <ele>2.0</ele>
        <time>2019-05-16T11:17:26.902Z</time>
      </trkpt>
      <trkpt lat="38.863295" lon="-9.049115">
        <ele>2.0</ele>
        <time>2019-05-16T11:17:27.901Z</time>
      </trkpt>
      <trkpt lat="38.863295" lon="-9.049115">
        <ele>2.0</ele>
        <time>2019-05-16T11:17:28.902Z</time>
      </trkpt>
      <trkpt lat="38.863295" lon="-9.049115">
        <ele>2.0</ele>
        <time>2019-05-16T11:17:29.899Z</time>
      </trkpt>
      <trkpt lat="38.863295" lon="-9.049115">
        <ele>2.0</ele>
        <time>2019-05-16T11:17:30.904Z</time>
      </trkpt>
      <trkpt lat="38.863295" lon="-9.049115">
        <ele>2.0</ele>
        <time>2019-05-16T11:17:31.932Z</time>
      </trkpt>
      <trkpt lat="38.863295" lon="-9.049115">
        <ele>2.0</ele>
        <time>2019-05-16T11:17:32.918Z</time>
      </trkpt>
      <trkpt lat="38.863295" lon="-9.049115">
        <ele>2.0</ele>
        <time>2019-05-16T11:17:33.915Z</time>
      </trkpt>
      <trkpt lat="38.863295" lon="-9.049115">
        <ele>2.0</ele>
        <time>2019-05-16T11:17:34.902Z</time>
      </trkpt>
      <trkpt lat="38.863295" lon="-9.049115">
        <ele>2.0</ele>
        <time>2019-05-16T11:17:35.902Z</time>
      </trkpt>
      <trkpt lat="38.863295" lon="-9.049115">
        <ele>2.0</ele>
        <time>2019-05-16T11:17:36.904Z</time>
      </trkpt>
      <trkpt lat="38.863295" lon="-9.049115">
        <ele>2.0</ele>
        <time>2019-05-16T11:17:37.897Z</time>
      </trkpt>
      <trkpt lat="38.86329333" lon="-9.04913667">
        <ele>1.0</ele>
        <time>2019-05-16T11:17:38.902Z</time>
      </trkpt>
      <trkpt lat="38.86329333" lon="-9.04913667">
        <ele>1.0</ele>
        <time>2019-05-16T11:17:39.899Z</time>
      </trkpt>
      <trkpt lat="38.86328667" lon="-9.04914667">
        <ele>1.0</ele>
        <time>2019-05-16T11:17:40.897Z</time>
      </trkpt>
      <trkpt lat="38.86328833" lon="-9.04914833">
        <ele>1.0</ele>
        <time>2019-05-16T11:17:41.923Z</time>
      </trkpt>
      <trkpt lat="38.86328833" lon="-9.04914833">
        <ele>1.0</ele>
        <time>2019-05-16T11:17:42.908Z</time>
      </trkpt>
      <trkpt lat="38.86328833" lon="-9.04914833">
        <ele>1.0</ele>
        <time>2019-05-16T11:17:43.901Z</time>
      </trkpt>
      <trkpt lat="38.86328833" lon="-9.04914833">
        <ele>1.0</ele>
        <time>2019-05-16T11:17:44.901Z</time>
      </trkpt>
      <trkpt lat="38.86328833" lon="-9.04914833">
        <ele>1.0</ele>
        <time>2019-05-16T11:17:45.897Z</time>
      </trkpt>
      <trkpt lat="38.86328833" lon="-9.04914833">
        <ele>1.0</ele>
        <time>2019-05-16T11:17:46.899Z</time>
      </trkpt>
      <trkpt lat="38.86328833" lon="-9.04914833">
        <ele>1.0</ele>
        <time>2019-05-16T11:17:47.897Z</time>
      </trkpt>
      <trkpt lat="38.86328833" lon="-9.04914833">
        <ele>1.0</ele>
        <time>2019-05-16T11:17:48.903Z</time>
      </trkpt>
      <trkpt lat="38.86328833" lon="-9.04914833">
        <ele>1.0</ele>
        <time>2019-05-16T11:17:49.897Z</time>
      </trkpt>
      <trkpt lat="38.86328833" lon="-9.04914833">
        <ele>1.0</ele>
        <time>2019-05-16T11:17:50.902Z</time>
      </trkpt>
      <trkpt lat="38.86328833" lon="-9.04914833">
        <ele>1.0</ele>
        <time>2019-05-16T11:17:51.933Z</time>
      </trkpt>
      <trkpt lat="38.86328833" lon="-9.04914833">
        <ele>1.0</ele>
        <time>2019-05-16T11:17:52.918Z</time>
      </trkpt>
      <trkpt lat="38.86328833" lon="-9.04914833">
        <ele>1.0</ele>
        <time>2019-05-16T11:17:53.905Z</time>
      </trkpt>
      <trkpt lat="38.86328833" lon="-9.04914833">
        <ele>1.0</ele>
        <time>2019-05-16T11:17:54.905Z</time>
      </trkpt>
      <trkpt lat="38.86328833" lon="-9.04914833">
        <ele>1.0</ele>
        <time>2019-05-16T11:17:55.897Z</time>
      </trkpt>
      <trkpt lat="38.86328833" lon="-9.04914833">
        <ele>1.0</ele>
        <time>2019-05-16T11:17:56.902Z</time>
      </trkpt>
      <trkpt lat="38.86328833" lon="-9.04914833">
        <ele>1.0</ele>
        <time>2019-05-16T11:17:57.897Z</time>
      </trkpt>
      <trkpt lat="38.86328833" lon="-9.04914833">
        <ele>1.0</ele>
        <time>2019-05-16T11:17:58.902Z</time>
      </trkpt>
      <trkpt lat="38.86328833" lon="-9.04914833">
        <ele>1.0</ele>
        <time>2019-05-16T11:17:59.897Z</time>
      </trkpt>
      <trkpt lat="38.86328833" lon="-9.04914833">
        <ele>1.0</ele>
        <time>2019-05-16T11:18:00.904Z</time>
      </trkpt>
      <trkpt lat="38.86328833" lon="-9.04914833">
        <ele>1.0</ele>
        <time>2019-05-16T11:18:01.900Z</time>
      </trkpt>
      <trkpt lat="38.86328833" lon="-9.04914833">
        <ele>1.0</ele>
        <time>2019-05-16T11:18:02.902Z</time>
      </trkpt>
      <trkpt lat="38.86328833" lon="-9.04914833">
        <ele>1.0</ele>
        <time>2019-05-16T11:18:03.897Z</time>
      </trkpt>
      <trkpt lat="38.86328833" lon="-9.04914833">
        <ele>1.0</ele>
        <time>2019-05-16T11:18:04.902Z</time>
      </trkpt>
      <trkpt lat="38.86328833" lon="-9.04914833">
        <ele>1.0</ele>
        <time>2019-05-16T11:18:05.897Z</time>
      </trkpt>
      <trkpt lat="38.86328833" lon="-9.04914833">
        <ele>1.0</ele>
        <time>2019-05-16T11:18:06.903Z</time>
      </trkpt>
      <trkpt lat="38.86328833" lon="-9.04914833">
        <ele>1.0</ele>
        <time>2019-05-16T11:18:07.897Z</time>
      </trkpt>
      <trkpt lat="38.86328833" lon="-9.04914833">
        <ele>1.0</ele>
        <time>2019-05-16T11:18:08.901Z</time>
      </trkpt>
      <trkpt lat="38.86328833" lon="-9.04914833">
        <ele>1.0</ele>
        <time>2019-05-16T11:18:09.909Z</time>
      </trkpt>
      <trkpt lat="38.86328833" lon="-9.04914833">
        <ele>1.0</ele>
        <time>2019-05-16T11:18:10.904Z</time>
      </trkpt>
      <trkpt lat="38.86328833" lon="-9.04914833">
        <ele>1.0</ele>
        <time>2019-05-16T11:18:11.897Z</time>
      </trkpt>
      <trkpt lat="38.86328833" lon="-9.04914833">
        <ele>1.0</ele>
        <time>2019-05-16T11:18:12.901Z</time>
      </trkpt>
      <trkpt lat="38.86328833" lon="-9.04914833">
        <ele>1.0</ele>
        <time>2019-05-16T11:18:13.902Z</time>
      </trkpt>
      <trkpt lat="38.86328833" lon="-9.04914833">
        <ele>1.0</ele>
        <time>2019-05-16T11:18:14.898Z</time>
      </trkpt>
      <trkpt lat="38.86328833" lon="-9.04914833">
        <ele>1.0</ele>
        <time>2019-05-16T11:18:15.918Z</time>
      </trkpt>
      <trkpt lat="38.86328833" lon="-9.04914833">
        <ele>1.0</ele>
        <time>2019-05-16T11:18:16.898Z</time>
      </trkpt>
      <trkpt lat="38.86329833" lon="-9.04910667">
        <ele>0.0</ele>
        <time>2019-05-16T11:18:17.904Z</time>
      </trkpt>
      <trkpt lat="38.86330333" lon="-9.04909333">
        <ele>0.0</ele>
        <time>2019-05-16T11:18:18.902Z</time>
      </trkpt>
      <trkpt lat="38.863305" lon="-9.04908833">
        <ele>0.0</ele>
        <time>2019-05-16T11:18:19.903Z</time>
      </trkpt>
      <trkpt lat="38.863305" lon="-9.04908833">
        <ele>0.0</ele>
        <time>2019-05-16T11:18:20.902Z</time>
      </trkpt>
      <trkpt lat="38.863305" lon="-9.04909">
        <ele>0.0</ele>
        <time>2019-05-16T11:18:21.927Z</time>
      </trkpt>
      <trkpt lat="38.863305" lon="-9.04909">
        <ele>0.0</ele>
        <time>2019-05-16T11:18:22.905Z</time>
      </trkpt>
      <trkpt lat="38.863305" lon="-9.04909">
        <ele>0.0</ele>
        <time>2019-05-16T11:18:23.911Z</time>
      </trkpt>
      <trkpt lat="38.863305" lon="-9.04909">
        <ele>0.0</ele>
        <time>2019-05-16T11:18:24.917Z</time>
      </trkpt>
      <trkpt lat="38.863305" lon="-9.04909">
        <ele>0.0</ele>
        <time>2019-05-16T11:18:25.929Z</time>
      </trkpt>
      <trkpt lat="38.863305" lon="-9.04909">
        <ele>0.0</ele>
        <time>2019-05-16T11:18:26.978Z</time>
      </trkpt>
      <trkpt lat="38.863305" lon="-9.04909">
        <ele>0.0</ele>
        <time>2019-05-16T11:18:27.934Z</time>
      </trkpt>
      <trkpt lat="38.86330833" lon="-9.04906833">
        <ele>0.0</ele>
        <time>2019-05-16T11:18:28.900Z</time>
      </trkpt>
      <trkpt lat="38.86330833" lon="-9.04906833">
        <ele>0.0</ele>
        <time>2019-05-16T11:18:29.906Z</time>
      </trkpt>
      <trkpt lat="38.86332" lon="-9.04902333">
        <ele>0.0</ele>
        <time>2019-05-16T11:18:30.912Z</time>
      </trkpt>
      <trkpt lat="38.86332" lon="-9.04902333">
        <ele>0.0</ele>
        <time>2019-05-16T11:18:31.900Z</time>
      </trkpt>
      <trkpt lat="38.86333833" lon="-9.04896833">
        <ele>-1.0</ele>
        <time>2019-05-16T11:18:32.965Z</time>
      </trkpt>
      <trkpt lat="38.86333833" lon="-9.04896833">
        <ele>-1.0</ele>
        <time>2019-05-16T11:18:33.914Z</time>
      </trkpt>
      <trkpt lat="38.863365" lon="-9.04891">
        <ele>-1.0</ele>
        <time>2019-05-16T11:18:34.923Z</time>
      </trkpt>
      <trkpt lat="38.86338167" lon="-9.04887333">
        <ele>-1.0</ele>
        <time>2019-05-16T11:18:35.912Z</time>
      </trkpt>
      <trkpt lat="38.86339833" lon="-9.04883167">
        <ele>-1.0</ele>
        <time>2019-05-16T11:18:36.934Z</time>
      </trkpt>
      <trkpt lat="38.86339833" lon="-9.04883167">
        <ele>-1.0</ele>
        <time>2019-05-16T11:18:37.932Z</time>
      </trkpt>
      <trkpt lat="38.86343833" lon="-9.048735">
        <ele>0.0</ele>
        <time>2019-05-16T11:18:38.904Z</time>
      </trkpt>
      <trkpt lat="38.86343833" lon="-9.048735">
        <ele>0.0</ele>
        <time>2019-05-16T11:18:39.919Z</time>
      </trkpt>
      <trkpt lat="38.86348333" lon="-9.04863167">
        <ele>0.0</ele>
        <time>2019-05-16T11:18:40.904Z</time>
      </trkpt>
      <trkpt lat="38.86348333" lon="-9.04863167">
        <ele>0.0</ele>
        <time>2019-05-16T11:18:41.916Z</time>
      </trkpt>
      <trkpt lat="38.863525" lon="-9.04851833">
        <ele>0.0</ele>
        <time>2019-05-16T11:18:42.928Z</time>
      </trkpt>
      <trkpt lat="38.863525" lon="-9.04851833">
        <ele>0.0</ele>
        <time>2019-05-16T11:18:43.930Z</time>
      </trkpt>
      <trkpt lat="38.86356167" lon="-9.04840333">
        <ele>0.0</ele>
        <time>2019-05-16T11:18:44.898Z</time>
      </trkpt>
      <trkpt lat="38.86358167" lon="-9.04835167">
        <ele>0.0</ele>
        <time>2019-05-16T11:18:45.908Z</time>
      </trkpt>
      <trkpt lat="38.86358167" lon="-9.04835167">
        <ele>0.0</ele>
        <time>2019-05-16T11:18:46.897Z</time>
      </trkpt>
      <trkpt lat="38.86362" lon="-9.048255">
        <ele>0.0</ele>
        <time>2019-05-16T11:18:47.907Z</time>
      </trkpt>
      <trkpt lat="38.86363833" lon="-9.04820833">
        <ele>0.0</ele>
        <time>2019-05-16T11:18:48.915Z</time>
      </trkpt>
      <trkpt lat="38.86363833" lon="-9.04820833">
        <ele>0.0</ele>
        <time>2019-05-16T11:18:49.923Z</time>
      </trkpt>
      <trkpt lat="38.863675" lon="-9.04812">
        <ele>0.0</ele>
        <time>2019-05-16T11:18:50.939Z</time>
      </trkpt>
      <trkpt lat="38.863675" lon="-9.04812">
        <ele>0.0</ele>
        <time>2019-05-16T11:18:51.911Z</time>
      </trkpt>
      <trkpt lat="38.86370833" lon="-9.04803167">
        <ele>0.0</ele>
        <time>2019-05-16T11:18:52.921Z</time>
      </trkpt>
      <trkpt lat="38.86370833" lon="-9.04803167">
        <ele>0.0</ele>
        <time>2019-05-16T11:18:53.916Z</time>
      </trkpt>
      <trkpt lat="38.86374333" lon="-9.04794667">
        <ele>0.0</ele>
        <time>2019-05-16T11:18:54.927Z</time>
      </trkpt>
      <trkpt lat="38.86374333" lon="-9.04794667">
        <ele>0.0</ele>
        <time>2019-05-16T11:18:55.904Z</time>
      </trkpt>
      <trkpt lat="38.86377667" lon="-9.04786167">
        <ele>0.0</ele>
        <time>2019-05-16T11:18:56.922Z</time>
      </trkpt>
      <trkpt lat="38.86377667" lon="-9.04786167">
        <ele>0.0</ele>
        <time>2019-05-16T11:18:57.924Z</time>
      </trkpt>
      <trkpt lat="38.86381167" lon="-9.04777667">
        <ele>0.0</ele>
        <time>2019-05-16T11:18:58.940Z</time>
      </trkpt>
      <trkpt lat="38.86383" lon="-9.047735">
        <ele>0.0</ele>
        <time>2019-05-16T11:18:59.935Z</time>
      </trkpt>
      <trkpt lat="38.86385" lon="-9.04769667">
        <ele>0.0</ele>
        <time>2019-05-16T11:19:00.911Z</time>
      </trkpt>
      <trkpt lat="38.86385" lon="-9.04769667">
        <ele>0.0</ele>
        <time>2019-05-16T11:19:01.905Z</time>
      </trkpt>
      <trkpt lat="38.863885" lon="-9.04761333">
        <ele>0.0</ele>
        <time>2019-05-16T11:19:02.914Z</time>
      </trkpt>
      <trkpt lat="38.863885" lon="-9.04761333">
        <ele>0.0</ele>
        <time>2019-05-16T11:19:03.900Z</time>
      </trkpt>
      <trkpt lat="38.86391667" lon="-9.04752833">
        <ele>0.0</ele>
        <time>2019-05-16T11:19:04.911Z</time>
      </trkpt>
      <trkpt lat="38.86391667" lon="-9.04752833">
        <ele>0.0</ele>
        <time>2019-05-16T11:19:05.911Z</time>
      </trkpt>
      <trkpt lat="38.86395" lon="-9.047445">
        <ele>0.0</ele>
        <time>2019-05-16T11:19:06.920Z</time>
      </trkpt>
      <trkpt lat="38.86395" lon="-9.047445">
        <ele>0.0</ele>
        <time>2019-05-16T11:19:07.916Z</time>
      </trkpt>
      <trkpt lat="38.863985" lon="-9.04736167">
        <ele>0.0</ele>
        <time>2019-05-16T11:19:08.932Z</time>
      </trkpt>
      <trkpt lat="38.863985" lon="-9.04736167">
        <ele>0.0</ele>
        <time>2019-05-16T11:19:09.932Z</time>
      </trkpt>
      <trkpt lat="38.86401833" lon="-9.04727667">
        <ele>0.0</ele>
        <time>2019-05-16T11:19:10.902Z</time>
      </trkpt>
      <trkpt lat="38.86403833" lon="-9.047235">
        <ele>0.0</ele>
        <time>2019-05-16T11:19:11.910Z</time>
      </trkpt>
      <trkpt lat="38.86403833" lon="-9.047235">
        <ele>0.0</ele>
        <time>2019-05-16T11:19:12.916Z</time>
      </trkpt>
      <trkpt lat="38.86407333" lon="-9.04715167">
        <ele>0.0</ele>
        <time>2019-05-16T11:19:13.929Z</time>
      </trkpt>
      <trkpt lat="38.86407333" lon="-9.04715167">
        <ele>0.0</ele>
        <time>2019-05-16T11:19:14.932Z</time>
      </trkpt>
      <trkpt lat="38.86411" lon="-9.04707">
        <ele>0.0</ele>
        <time>2019-05-16T11:19:15.914Z</time>
      </trkpt>
      <trkpt lat="38.86411" lon="-9.04707">
        <ele>0.0</ele>
        <time>2019-05-16T11:19:16.897Z</time>
      </trkpt>
      <trkpt lat="38.864145" lon="-9.04698833">
        <ele>0.0</ele>
        <time>2019-05-16T11:19:17.910Z</time>
      </trkpt>
      <trkpt lat="38.86416333" lon="-9.04694833">
        <ele>0.0</ele>
        <time>2019-05-16T11:19:18.897Z</time>
      </trkpt>
      <trkpt lat="38.86416333" lon="-9.04694833">
        <ele>0.0</ele>
        <time>2019-05-16T11:19:19.901Z</time>
      </trkpt>
      <trkpt lat="38.86420167" lon="-9.046865">
        <ele>-1.0</ele>
        <time>2019-05-16T11:19:20.926Z</time>
      </trkpt>
      <trkpt lat="38.86420167" lon="-9.046865">
        <ele>-1.0</ele>
        <time>2019-05-16T11:19:21.930Z</time>
      </trkpt>
      <trkpt lat="38.86423833" lon="-9.04678167">
        <ele>-1.0</ele>
        <time>2019-05-16T11:19:22.902Z</time>
      </trkpt>
      <trkpt lat="38.86423833" lon="-9.04678167">
        <ele>-1.0</ele>
        <time>2019-05-16T11:19:23.897Z</time>
      </trkpt>
      <trkpt lat="38.864275" lon="-9.0467">
        <ele>-1.0</ele>
        <time>2019-05-16T11:19:24.918Z</time>
      </trkpt>
      <trkpt lat="38.864275" lon="-9.0467">
        <ele>-1.0</ele>
        <time>2019-05-16T11:19:25.911Z</time>
      </trkpt>
      <trkpt lat="38.86431" lon="-9.046615">
        <ele>-1.0</ele>
        <time>2019-05-16T11:19:26.918Z</time>
      </trkpt>
      <trkpt lat="38.86431" lon="-9.046615">
        <ele>-1.0</ele>
        <time>2019-05-16T11:19:27.919Z</time>
      </trkpt>
      <trkpt lat="38.86434833" lon="-9.04653167">
        <ele>-1.0</ele>
        <time>2019-05-16T11:19:28.912Z</time>
      </trkpt>
      <trkpt lat="38.86436833" lon="-9.04649167">
        <ele>-1.0</ele>
        <time>2019-05-16T11:19:29.936Z</time>
      </trkpt>
      <trkpt lat="38.86438833" lon="-9.04645">
        <ele>-1.0</ele>
        <time>2019-05-16T11:19:30.944Z</time>
      </trkpt>
      <trkpt lat="38.86438833" lon="-9.04645">
        <ele>-1.0</ele>
        <time>2019-05-16T11:19:31.932Z</time>
      </trkpt>
      <trkpt lat="38.86442333" lon="-9.04637167">
        <ele>-1.0</ele>
        <time>2019-05-16T11:19:32.901Z</time>
      </trkpt>
      <trkpt lat="38.86442333" lon="-9.04637167">
        <ele>-1.0</ele>
        <time>2019-05-16T11:19:33.929Z</time>
      </trkpt>
      <trkpt lat="38.86446167" lon="-9.04629667">
        <ele>-1.0</ele>
        <time>2019-05-16T11:19:34.911Z</time>
      </trkpt>
      <trkpt lat="38.86446167" lon="-9.04629667">
        <ele>-1.0</ele>
        <time>2019-05-16T11:19:35.918Z</time>
      </trkpt>
      <trkpt lat="38.86449667" lon="-9.04622">
        <ele>-1.0</ele>
        <time>2019-05-16T11:19:36.928Z</time>
      </trkpt>
      <trkpt lat="38.86449667" lon="-9.04622">
        <ele>-1.0</ele>
        <time>2019-05-16T11:19:37.899Z</time>
      </trkpt>
      <trkpt lat="38.86453" lon="-9.04614333">
        <ele>-1.0</ele>
        <time>2019-05-16T11:19:38.916Z</time>
      </trkpt>
      <trkpt lat="38.86453" lon="-9.04614333">
        <ele>-1.0</ele>
        <time>2019-05-16T11:19:39.937Z</time>
      </trkpt>
      <trkpt lat="38.864565" lon="-9.046065">
        <ele>-2.0</ele>
        <time>2019-05-16T11:19:40.910Z</time>
      </trkpt>
      <trkpt lat="38.864565" lon="-9.046065">
        <ele>-2.0</ele>
        <time>2019-05-16T11:19:41.926Z</time>
      </trkpt>
      <trkpt lat="38.8646" lon="-9.04599167">
        <ele>-2.0</ele>
        <time>2019-05-16T11:19:42.902Z</time>
      </trkpt>
      <trkpt lat="38.8646" lon="-9.04599167">
        <ele>-2.0</ele>
        <time>2019-05-16T11:19:43.908Z</time>
      </trkpt>
      <trkpt lat="38.864635" lon="-9.04592">
        <ele>-2.0</ele>
        <time>2019-05-16T11:19:44.921Z</time>
      </trkpt>
      <trkpt lat="38.864635" lon="-9.04592">
        <ele>-2.0</ele>
        <time>2019-05-16T11:19:45.901Z</time>
      </trkpt>
      <trkpt lat="38.86466833" lon="-9.04584667">
        <ele>-2.0</ele>
        <time>2019-05-16T11:19:46.909Z</time>
      </trkpt>
      <trkpt lat="38.86466833" lon="-9.04584667">
        <ele>-2.0</ele>
        <time>2019-05-16T11:19:47.902Z</time>
      </trkpt>
      <trkpt lat="38.864705" lon="-9.04578">
        <ele>-2.0</ele>
        <time>2019-05-16T11:19:48.917Z</time>
      </trkpt>
      <trkpt lat="38.864705" lon="-9.04578">
        <ele>-2.0</ele>
        <time>2019-05-16T11:19:49.925Z</time>
      </trkpt>
      <trkpt lat="38.86474" lon="-9.04571">
        <ele>-2.0</ele>
        <time>2019-05-16T11:19:50.935Z</time>
      </trkpt>
      <trkpt lat="38.86474" lon="-9.04571">
        <ele>-2.0</ele>
        <time>2019-05-16T11:19:51.897Z</time>
      </trkpt>
      <trkpt lat="38.86477667" lon="-9.045635">
        <ele>-2.0</ele>
        <time>2019-05-16T11:19:52.906Z</time>
      </trkpt>
      <trkpt lat="38.864795" lon="-9.045595">
        <ele>-2.0</ele>
        <time>2019-05-16T11:19:53.937Z</time>
      </trkpt>
      <trkpt lat="38.864815" lon="-9.04555333">
        <ele>-2.0</ele>
        <time>2019-05-16T11:19:54.936Z</time>
      </trkpt>
      <trkpt lat="38.864815" lon="-9.04555333">
        <ele>-2.0</ele>
        <time>2019-05-16T11:19:55.916Z</time>
      </trkpt>
      <trkpt lat="38.86485167" lon="-9.04547333">
        <ele>-2.0</ele>
        <time>2019-05-16T11:19:56.927Z</time>
      </trkpt>
      <trkpt lat="38.86485167" lon="-9.04547333">
        <ele>-2.0</ele>
        <time>2019-05-16T11:19:57.907Z</time>
      </trkpt>
      <trkpt lat="38.86488667" lon="-9.04539667">
        <ele>-2.0</ele>
        <time>2019-05-16T11:19:58.915Z</time>
      </trkpt>
      <trkpt lat="38.86488667" lon="-9.04539667">
        <ele>-2.0</ele>
        <time>2019-05-16T11:19:59.911Z</time>
      </trkpt>
      <trkpt lat="38.86491333" lon="-9.04534833">
        <ele>-2.0</ele>
        <time>2019-05-16T11:20:00.930Z</time>
      </trkpt>
      <trkpt lat="38.86491333" lon="-9.04534833">
        <ele>-2.0</ele>
        <time>2019-05-16T11:20:01.901Z</time>
      </trkpt>
      <trkpt lat="38.86493667" lon="-9.04530333">
        <ele>-2.0</ele>
        <time>2019-05-16T11:20:02.909Z</time>
      </trkpt>
      <trkpt lat="38.86494833" lon="-9.04527667">
        <ele>-2.0</ele>
        <time>2019-05-16T11:20:03.900Z</time>
      </trkpt>
      <trkpt lat="38.86494833" lon="-9.04527667">
        <ele>-2.0</ele>
        <time>2019-05-16T11:20:04.920Z</time>
      </trkpt>
      <trkpt lat="38.864975" lon="-9.04522">
        <ele>-2.0</ele>
        <time>2019-05-16T11:20:05.928Z</time>
      </trkpt>
      <trkpt lat="38.86499" lon="-9.04519">
        <ele>-2.0</ele>
        <time>2019-05-16T11:20:06.938Z</time>
      </trkpt>
      <trkpt lat="38.86499" lon="-9.04519">
        <ele>-2.0</ele>
        <time>2019-05-16T11:20:07.914Z</time>
      </trkpt>
      <trkpt lat="38.86501833" lon="-9.04512667">
        <ele>-2.0</ele>
        <time>2019-05-16T11:20:08.928Z</time>
      </trkpt>
      <trkpt lat="38.86501833" lon="-9.04512667">
        <ele>-2.0</ele>
        <time>2019-05-16T11:20:09.912Z</time>
      </trkpt>
      <trkpt lat="38.86505167" lon="-9.04505833">
        <ele>-2.0</ele>
        <time>2019-05-16T11:20:10.940Z</time>
      </trkpt>
      <trkpt lat="38.86505167" lon="-9.04505833">
        <ele>-2.0</ele>
        <time>2019-05-16T11:20:11.911Z</time>
      </trkpt>
      <trkpt lat="38.865085" lon="-9.04498667">
        <ele>-2.0</ele>
        <time>2019-05-16T11:20:12.918Z</time>
      </trkpt>
      <trkpt lat="38.865085" lon="-9.04498667">
        <ele>-2.0</ele>
        <time>2019-05-16T11:20:13.935Z</time>
      </trkpt>
      <trkpt lat="38.86512" lon="-9.04491167">
        <ele>-2.0</ele>
        <time>2019-05-16T11:20:14.933Z</time>
      </trkpt>
      <trkpt lat="38.86512" lon="-9.04491167">
        <ele>-2.0</ele>
        <time>2019-05-16T11:20:15.922Z</time>
      </trkpt>
      <trkpt lat="38.86515833" lon="-9.04484">
        <ele>-2.0</ele>
        <time>2019-05-16T11:20:16.911Z</time>
      </trkpt>
      <trkpt lat="38.86515833" lon="-9.04484">
        <ele>-2.0</ele>
        <time>2019-05-16T11:20:17.926Z</time>
      </trkpt>
      <trkpt lat="38.86519333" lon="-9.04476667">
        <ele>-3.0</ele>
        <time>2019-05-16T11:20:18.937Z</time>
      </trkpt>
      <trkpt lat="38.86519333" lon="-9.04476667">
        <ele>-3.0</ele>
        <time>2019-05-16T11:20:19.929Z</time>
      </trkpt>
      <trkpt lat="38.86522833" lon="-9.04469333">
        <ele>-3.0</ele>
        <time>2019-05-16T11:20:20.920Z</time>
      </trkpt>
      <trkpt lat="38.86522833" lon="-9.04469333">
        <ele>-3.0</ele>
        <time>2019-05-16T11:20:21.908Z</time>
      </trkpt>
      <trkpt lat="38.86526333" lon="-9.04462">
        <ele>-3.0</ele>
        <time>2019-05-16T11:20:22.926Z</time>
      </trkpt>
      <trkpt lat="38.86526333" lon="-9.04462">
        <ele>-3.0</ele>
        <time>2019-05-16T11:20:23.903Z</time>
      </trkpt>
      <trkpt lat="38.86530167" lon="-9.04454333">
        <ele>-3.0</ele>
        <time>2019-05-16T11:20:24.920Z</time>
      </trkpt>
      <trkpt lat="38.86530167" lon="-9.04454333">
        <ele>-3.0</ele>
        <time>2019-05-16T11:20:25.901Z</time>
      </trkpt>
      <trkpt lat="38.86533833" lon="-9.044465">
        <ele>-3.0</ele>
        <time>2019-05-16T11:20:26.913Z</time>
      </trkpt>
      <trkpt lat="38.86533833" lon="-9.044465">
        <ele>-3.0</ele>
        <time>2019-05-16T11:20:27.899Z</time>
      </trkpt>
      <trkpt lat="38.86537667" lon="-9.04438333">
        <ele>-3.0</ele>
        <time>2019-05-16T11:20:28.909Z</time>
      </trkpt>
      <trkpt lat="38.86537667" lon="-9.04438333">
        <ele>-3.0</ele>
        <time>2019-05-16T11:20:29.904Z</time>
      </trkpt>
      <trkpt lat="38.86541667" lon="-9.04430333">
        <ele>-3.0</ele>
        <time>2019-05-16T11:20:30.916Z</time>
      </trkpt>
      <trkpt lat="38.86541667" lon="-9.04430333">
        <ele>-3.0</ele>
        <time>2019-05-16T11:20:31.906Z</time>
      </trkpt>
      <trkpt lat="38.865455" lon="-9.04422">
        <ele>-3.0</ele>
        <time>2019-05-16T11:20:32.926Z</time>
      </trkpt>
      <trkpt lat="38.865455" lon="-9.04422">
        <ele>-3.0</ele>
        <time>2019-05-16T11:20:33.899Z</time>
      </trkpt>
      <trkpt lat="38.86549333" lon="-9.04413833">
        <ele>-4.0</ele>
        <time>2019-05-16T11:20:34.906Z</time>
      </trkpt>
      <trkpt lat="38.86549333" lon="-9.04413833">
        <ele>-4.0</ele>
        <time>2019-05-16T11:20:35.921Z</time>
      </trkpt>
      <trkpt lat="38.865535" lon="-9.04406667">
        <ele>-4.0</ele>
        <time>2019-05-16T11:20:36.936Z</time>
      </trkpt>
      <trkpt lat="38.865535" lon="-9.04406667">
        <ele>-4.0</ele>
        <time>2019-05-16T11:20:37.931Z</time>
      </trkpt>
      <trkpt lat="38.865585" lon="-9.04404">
        <ele>-4.0</ele>
        <time>2019-05-16T11:20:38.897Z</time>
      </trkpt>
      <trkpt lat="38.865585" lon="-9.04404">
        <ele>-4.0</ele>
        <time>2019-05-16T11:20:39.918Z</time>
      </trkpt>
      <trkpt lat="38.86563167" lon="-9.04403333">
        <ele>-3.0</ele>
        <time>2019-05-16T11:20:40.935Z</time>
      </trkpt>
      <trkpt lat="38.86563167" lon="-9.04403333">
        <ele>-3.0</ele>
        <time>2019-05-16T11:20:41.915Z</time>
      </trkpt>
      <trkpt lat="38.865655" lon="-9.04399667">
        <ele>-3.0</ele>
        <time>2019-05-16T11:20:42.928Z</time>
      </trkpt>
      <trkpt lat="38.865655" lon="-9.04399667">
        <ele>-3.0</ele>
        <time>2019-05-16T11:20:43.933Z</time>
      </trkpt>
      <trkpt lat="38.86568" lon="-9.04394">
        <ele>-3.0</ele>
        <time>2019-05-16T11:20:44.907Z</time>
      </trkpt>
      <trkpt lat="38.86568" lon="-9.04394">
        <ele>-3.0</ele>
        <time>2019-05-16T11:20:45.921Z</time>
      </trkpt>
      <trkpt lat="38.86570833" lon="-9.04387333">
        <ele>-3.0</ele>
        <time>2019-05-16T11:20:46.934Z</time>
      </trkpt>
      <trkpt lat="38.86570833" lon="-9.04387333">
        <ele>-3.0</ele>
        <time>2019-05-16T11:20:47.930Z</time>
      </trkpt>
      <trkpt lat="38.86573833" lon="-9.04381333">
        <ele>-2.0</ele>
        <time>2019-05-16T11:20:48.936Z</time>
      </trkpt>
      <trkpt lat="38.86573833" lon="-9.04381333">
        <ele>-2.0</ele>
        <time>2019-05-16T11:20:49.912Z</time>
      </trkpt>
      <trkpt lat="38.865775" lon="-9.04378833">
        <ele>-2.0</ele>
        <time>2019-05-16T11:20:50.909Z</time>
      </trkpt>
      <trkpt lat="38.865775" lon="-9.04378833">
        <ele>-2.0</ele>
        <time>2019-05-16T11:20:51.918Z</time>
      </trkpt>
      <trkpt lat="38.86581833" lon="-9.043815">
        <ele>-2.0</ele>
        <time>2019-05-16T11:20:52.934Z</time>
      </trkpt>
      <trkpt lat="38.86583833" lon="-9.04383167">
        <ele>-2.0</ele>
        <time>2019-05-16T11:20:53.924Z</time>
      </trkpt>
      <trkpt lat="38.86586" lon="-9.04385">
        <ele>-2.0</ele>
        <time>2019-05-16T11:20:54.915Z</time>
      </trkpt>
      <trkpt lat="38.86586" lon="-9.04385">
        <ele>-2.0</ele>
        <time>2019-05-16T11:20:55.911Z</time>
      </trkpt>
      <trkpt lat="38.86591167" lon="-9.04388">
        <ele>-2.0</ele>
        <time>2019-05-16T11:20:56.924Z</time>
      </trkpt>
      <trkpt lat="38.86594167" lon="-9.04389833">
        <ele>-2.0</ele>
        <time>2019-05-16T11:20:57.903Z</time>
      </trkpt>
      <trkpt lat="38.86594167" lon="-9.04389833">
        <ele>-2.0</ele>
        <time>2019-05-16T11:20:58.911Z</time>
      </trkpt>
      <trkpt lat="38.86599333" lon="-9.04393">
        <ele>-1.0</ele>
        <time>2019-05-16T11:20:59.926Z</time>
      </trkpt>
      <trkpt lat="38.866015" lon="-9.04394167">
        <ele>-1.0</ele>
        <time>2019-05-16T11:21:00.924Z</time>
      </trkpt>
      <trkpt lat="38.866015" lon="-9.04394167">
        <ele>-1.0</ele>
        <time>2019-05-16T11:21:01.922Z</time>
      </trkpt>
      <trkpt lat="38.86604333" lon="-9.04395667">
        <ele>-1.0</ele>
        <time>2019-05-16T11:21:02.931Z</time>
      </trkpt>
      <trkpt lat="38.86604333" lon="-9.04395667">
        <ele>-1.0</ele>
        <time>2019-05-16T11:21:03.908Z</time>
      </trkpt>
      <trkpt lat="38.866045" lon="-9.043955">
        <ele>-1.0</ele>
        <time>2019-05-16T11:21:04.922Z</time>
      </trkpt>
      <trkpt lat="38.866045" lon="-9.043955">
        <ele>-1.0</ele>
        <time>2019-05-16T11:21:05.920Z</time>
      </trkpt>
      <trkpt lat="38.86604333" lon="-9.04395333">
        <ele>-1.0</ele>
        <time>2019-05-16T11:21:06.935Z</time>
      </trkpt>
      <trkpt lat="38.86604333" lon="-9.04395333">
        <ele>-1.0</ele>
        <time>2019-05-16T11:21:07.923Z</time>
      </trkpt>
      <trkpt lat="38.86604333" lon="-9.04395333">
        <ele>-1.0</ele>
        <time>2019-05-16T11:21:08.931Z</time>
      </trkpt>
      <trkpt lat="38.86604333" lon="-9.04395333">
        <ele>-1.0</ele>
        <time>2019-05-16T11:21:09.897Z</time>
      </trkpt>
      <trkpt lat="38.86604333" lon="-9.04395333">
        <ele>-1.0</ele>
        <time>2019-05-16T11:21:10.903Z</time>
      </trkpt>
      <trkpt lat="38.86604333" lon="-9.04395333">
        <ele>-1.0</ele>
        <time>2019-05-16T11:21:11.908Z</time>
      </trkpt>
      <trkpt lat="38.86603167" lon="-9.043945">
        <ele>0.0</ele>
        <time>2019-05-16T11:21:12.903Z</time>
      </trkpt>
      <trkpt lat="38.86603167" lon="-9.043945">
        <ele>0.0</ele>
        <time>2019-05-16T11:21:13.897Z</time>
      </trkpt>
      <trkpt lat="38.86602833" lon="-9.04394167">
        <ele>0.0</ele>
        <time>2019-05-16T11:21:14.902Z</time>
      </trkpt>
      <trkpt lat="38.86602833" lon="-9.04394167">
        <ele>0.0</ele>
        <time>2019-05-16T11:21:15.897Z</time>
      </trkpt>
      <trkpt lat="38.86602833" lon="-9.04394167">
        <ele>0.0</ele>
        <time>2019-05-16T11:21:16.902Z</time>
      </trkpt>
      <trkpt lat="38.86602833" lon="-9.04394167">
        <ele>0.0</ele>
        <time>2019-05-16T11:21:17.907Z</time>
      </trkpt>
      <trkpt lat="38.86602833" lon="-9.04394167">
        <ele>0.0</ele>
        <time>2019-05-16T11:21:18.899Z</time>
      </trkpt>
      <trkpt lat="38.86602833" lon="-9.04394167">
        <ele>0.0</ele>
        <time>2019-05-16T11:21:19.902Z</time>
      </trkpt>
      <trkpt lat="38.86602833" lon="-9.04394167">
        <ele>0.0</ele>
        <time>2019-05-16T11:21:20.933Z</time>
      </trkpt>
      <trkpt lat="38.86602833" lon="-9.04394167">
        <ele>0.0</ele>
        <time>2019-05-16T11:21:21.903Z</time>
      </trkpt>
      <trkpt lat="38.86602833" lon="-9.04394167">
        <ele>0.0</ele>
        <time>2019-05-16T11:21:22.909Z</time>
      </trkpt>
      <trkpt lat="38.86602833" lon="-9.04394167">
        <ele>0.0</ele>
        <time>2019-05-16T11:21:23.917Z</time>
      </trkpt>
      <trkpt lat="38.86602833" lon="-9.04394167">
        <ele>0.0</ele>
        <time>2019-05-16T11:21:24.905Z</time>
      </trkpt>
      <trkpt lat="38.86602833" lon="-9.04394167">
        <ele>0.0</ele>
        <time>2019-05-16T11:21:25.902Z</time>
      </trkpt>
      <trkpt lat="38.86602833" lon="-9.04394167">
        <ele>0.0</ele>
        <time>2019-05-16T11:21:26.902Z</time>
      </trkpt>
      <trkpt lat="38.86602833" lon="-9.04394167">
        <ele>0.0</ele>
        <time>2019-05-16T11:21:27.897Z</time>
      </trkpt>
      <trkpt lat="38.86602833" lon="-9.04394167">
        <ele>0.0</ele>
        <time>2019-05-16T11:21:28.902Z</time>
      </trkpt>
      <trkpt lat="38.86602833" lon="-9.04394167">
        <ele>0.0</ele>
        <time>2019-05-16T11:21:29.897Z</time>
      </trkpt>
      <trkpt lat="38.86602833" lon="-9.04394167">
        <ele>0.0</ele>
        <time>2019-05-16T11:21:30.905Z</time>
      </trkpt>
      <trkpt lat="38.86602833" lon="-9.04394167">
        <ele>0.0</ele>
        <time>2019-05-16T11:21:31.897Z</time>
      </trkpt>
      <trkpt lat="38.86602833" lon="-9.04394167">
        <ele>0.0</ele>
        <time>2019-05-16T11:21:32.902Z</time>
      </trkpt>
      <trkpt lat="38.86602833" lon="-9.04394167">
        <ele>0.0</ele>
        <time>2019-05-16T11:21:33.933Z</time>
      </trkpt>
      <trkpt lat="38.86602833" lon="-9.04394167">
        <ele>0.0</ele>
        <time>2019-05-16T11:21:34.919Z</time>
      </trkpt>
      <trkpt lat="38.86602833" lon="-9.04394167">
        <ele>0.0</ele>
        <time>2019-05-16T11:21:35.904Z</time>
      </trkpt>
      <trkpt lat="38.86602833" lon="-9.04394167">
        <ele>0.0</ele>
        <time>2019-05-16T11:21:36.902Z</time>
      </trkpt>
      <trkpt lat="38.86602833" lon="-9.04394167">
        <ele>0.0</ele>
        <time>2019-05-16T11:21:37.898Z</time>
      </trkpt>
      <trkpt lat="38.86602833" lon="-9.04394167">
        <ele>0.0</ele>
        <time>2019-05-16T11:21:38.902Z</time>
      </trkpt>
      <trkpt lat="38.86602833" lon="-9.04394167">
        <ele>0.0</ele>
        <time>2019-05-16T11:21:39.934Z</time>
      </trkpt>
      <trkpt lat="38.86602833" lon="-9.04394167">
        <ele>0.0</ele>
        <time>2019-05-16T11:21:40.902Z</time>
      </trkpt>
      <trkpt lat="38.86602833" lon="-9.04394167">
        <ele>0.0</ele>
        <time>2019-05-16T11:21:41.897Z</time>
      </trkpt>
      <trkpt lat="38.86602833" lon="-9.04394167">
        <ele>0.0</ele>
        <time>2019-05-16T11:21:42.905Z</time>
      </trkpt>
      <trkpt lat="38.86602833" lon="-9.04394167">
        <ele>0.0</ele>
        <time>2019-05-16T11:21:43.936Z</time>
      </trkpt>
      <trkpt lat="38.86602833" lon="-9.04394167">
        <ele>0.0</ele>
        <time>2019-05-16T11:21:44.916Z</time>
      </trkpt>
      <trkpt lat="38.86602833" lon="-9.04394167">
        <ele>0.0</ele>
        <time>2019-05-16T11:21:45.902Z</time>
      </trkpt>
      <trkpt lat="38.86602833" lon="-9.04394167">
        <ele>0.0</ele>
        <time>2019-05-16T11:21:46.902Z</time>
      </trkpt>
      <trkpt lat="38.86602833" lon="-9.04394167">
        <ele>0.0</ele>
        <time>2019-05-16T11:21:47.897Z</time>
      </trkpt>
      <trkpt lat="38.86602833" lon="-9.04394167">
        <ele>0.0</ele>
        <time>2019-05-16T11:21:48.904Z</time>
      </trkpt>
      <trkpt lat="38.86602833" lon="-9.04394167">
        <ele>0.0</ele>
        <time>2019-05-16T11:21:49.898Z</time>
      </trkpt>
      <trkpt lat="38.86602833" lon="-9.04394167">
        <ele>0.0</ele>
        <time>2019-05-16T11:21:50.902Z</time>
      </trkpt>
      <trkpt lat="38.86602833" lon="-9.04394167">
        <ele>0.0</ele>
        <time>2019-05-16T11:21:51.897Z</time>
      </trkpt>
      <trkpt lat="38.86603167" lon="-9.04396333">
        <ele>0.0</ele>
        <time>2019-05-16T11:21:52.902Z</time>
      </trkpt>
      <trkpt lat="38.86603167" lon="-9.04396333">
        <ele>0.0</ele>
        <time>2019-05-16T11:21:53.898Z</time>
      </trkpt>
      <trkpt lat="38.86606333" lon="-9.04397833">
        <ele>0.0</ele>
        <time>2019-05-16T11:21:54.906Z</time>
      </trkpt>
      <trkpt lat="38.86606333" lon="-9.04397833">
        <ele>0.0</ele>
        <time>2019-05-16T11:21:55.897Z</time>
      </trkpt>
      <trkpt lat="38.86609833" lon="-9.044">
        <ele>0.0</ele>
        <time>2019-05-16T11:21:56.900Z</time>
      </trkpt>
      <trkpt lat="38.86611667" lon="-9.04401">
        <ele>0.0</ele>
        <time>2019-05-16T11:21:57.903Z</time>
      </trkpt>
      <trkpt lat="38.86611667" lon="-9.04401">
        <ele>0.0</ele>
        <time>2019-05-16T11:21:58.899Z</time>
      </trkpt>
      <trkpt lat="38.86615167" lon="-9.04403667">
        <ele>0.0</ele>
        <time>2019-05-16T11:21:59.979Z</time>
      </trkpt>
      <trkpt lat="38.86617" lon="-9.04405">
        <ele>0.0</ele>
        <time>2019-05-16T11:22:00.906Z</time>
      </trkpt>
      <trkpt lat="38.86617" lon="-9.04405">
        <ele>0.0</ele>
        <time>2019-05-16T11:22:01.931Z</time>
      </trkpt>
      <trkpt lat="38.86620833" lon="-9.044075">
        <ele>0.0</ele>
        <time>2019-05-16T11:22:02.899Z</time>
      </trkpt>
      <trkpt lat="38.86620833" lon="-9.044075">
        <ele>0.0</ele>
        <time>2019-05-16T11:22:03.927Z</time>
      </trkpt>
      <trkpt lat="38.86625" lon="-9.04410167">
        <ele>0.0</ele>
        <time>2019-05-16T11:22:04.901Z</time>
      </trkpt>
      <trkpt lat="38.86627333" lon="-9.04411833">
        <ele>0.0</ele>
        <time>2019-05-16T11:22:05.934Z</time>
      </trkpt>
      <trkpt lat="38.86629667" lon="-9.04413667">
        <ele>0.0</ele>
        <time>2019-05-16T11:22:06.923Z</time>
      </trkpt>
      <trkpt lat="38.86629667" lon="-9.04413667">
        <ele>0.0</ele>
        <time>2019-05-16T11:22:07.918Z</time>
      </trkpt>
      <trkpt lat="38.86634167" lon="-9.04417">
        <ele>0.0</ele>
        <time>2019-05-16T11:22:08.913Z</time>
      </trkpt>
      <trkpt lat="38.86636" lon="-9.04418333">
        <ele>0.0</ele>
        <time>2019-05-16T11:22:09.931Z</time>
      </trkpt>
      <trkpt lat="38.86636" lon="-9.04418333">
        <ele>0.0</ele>
        <time>2019-05-16T11:22:10.911Z</time>
      </trkpt>
      <trkpt lat="38.86639833" lon="-9.044205">
        <ele>0.0</ele>
        <time>2019-05-16T11:22:11.918Z</time>
      </trkpt>
      <trkpt lat="38.86641667" lon="-9.04421833">
        <ele>0.0</ele>
        <time>2019-05-16T11:22:12.914Z</time>
      </trkpt>
      <trkpt lat="38.86641667" lon="-9.04421833">
        <ele>0.0</ele>
        <time>2019-05-16T11:22:13.905Z</time>
      </trkpt>
      <trkpt lat="38.86645667" lon="-9.04424833">
        <ele>0.0</ele>
        <time>2019-05-16T11:22:14.937Z</time>
      </trkpt>
      <trkpt lat="38.86647833" lon="-9.044265">
        <ele>0.0</ele>
        <time>2019-05-16T11:22:15.934Z</time>
      </trkpt>
      <trkpt lat="38.86647833" lon="-9.044265">
        <ele>0.0</ele>
        <time>2019-05-16T11:22:16.933Z</time>
      </trkpt>
      <trkpt lat="38.866525" lon="-9.04429167">
        <ele>0.0</ele>
        <time>2019-05-16T11:22:17.904Z</time>
      </trkpt>
      <trkpt lat="38.866545" lon="-9.04430167">
        <ele>0.0</ele>
        <time>2019-05-16T11:22:18.901Z</time>
      </trkpt>
      <trkpt lat="38.866545" lon="-9.04430167">
        <ele>0.0</ele>
        <time>2019-05-16T11:22:19.921Z</time>
      </trkpt>
      <trkpt lat="38.86655167" lon="-9.04430667">
        <ele>0.0</ele>
        <time>2019-05-16T11:22:20.917Z</time>
      </trkpt>
      <trkpt lat="38.86655167" lon="-9.04430667">
        <ele>0.0</ele>
        <time>2019-05-16T11:22:21.901Z</time>
      </trkpt>
      <trkpt lat="38.86655167" lon="-9.04430667">
        <ele>0.0</ele>
        <time>2019-05-16T11:22:22.912Z</time>
      </trkpt>
      <trkpt lat="38.86655167" lon="-9.04430667">
        <ele>0.0</ele>
        <time>2019-05-16T11:22:23.918Z</time>
      </trkpt>
      <trkpt lat="38.86655167" lon="-9.04430667">
        <ele>0.0</ele>
        <time>2019-05-16T11:22:24.898Z</time>
      </trkpt>
      <trkpt lat="38.86655167" lon="-9.04430667">
        <ele>0.0</ele>
        <time>2019-05-16T11:22:25.905Z</time>
      </trkpt>
      <trkpt lat="38.86655167" lon="-9.04430667">
        <ele>0.0</ele>
        <time>2019-05-16T11:22:26.911Z</time>
      </trkpt>
      <trkpt lat="38.86655167" lon="-9.04430667">
        <ele>0.0</ele>
        <time>2019-05-16T11:22:27.917Z</time>
      </trkpt>
      <trkpt lat="38.86655167" lon="-9.04430667">
        <ele>0.0</ele>
        <time>2019-05-16T11:22:28.899Z</time>
      </trkpt>
      <trkpt lat="38.86655167" lon="-9.04430667">
        <ele>0.0</ele>
        <time>2019-05-16T11:22:29.919Z</time>
      </trkpt>
      <trkpt lat="38.86655167" lon="-9.04430667">
        <ele>0.0</ele>
        <time>2019-05-16T11:22:30.899Z</time>
      </trkpt>
      <trkpt lat="38.86655167" lon="-9.04430667">
        <ele>0.0</ele>
        <time>2019-05-16T11:22:31.902Z</time>
      </trkpt>
      <trkpt lat="38.86655167" lon="-9.04430667">
        <ele>0.0</ele>
        <time>2019-05-16T11:22:32.902Z</time>
      </trkpt>
      <trkpt lat="38.86655167" lon="-9.04430667">
        <ele>0.0</ele>
        <time>2019-05-16T11:22:33.898Z</time>
      </trkpt>
      <trkpt lat="38.86655167" lon="-9.04430667">
        <ele>0.0</ele>
        <time>2019-05-16T11:22:34.904Z</time>
      </trkpt>
      <trkpt lat="38.86655167" lon="-9.04430667">
        <ele>0.0</ele>
        <time>2019-05-16T11:22:35.902Z</time>
      </trkpt>
      <trkpt lat="38.86655167" lon="-9.04430667">
        <ele>0.0</ele>
        <time>2019-05-16T11:22:36.902Z</time>
      </trkpt>
      <trkpt lat="38.86655167" lon="-9.04430667">
        <ele>0.0</ele>
        <time>2019-05-16T11:22:37.897Z</time>
      </trkpt>
      <trkpt lat="38.86655167" lon="-9.04430667">
        <ele>0.0</ele>
        <time>2019-05-16T11:22:38.903Z</time>
      </trkpt>
      <trkpt lat="38.86655167" lon="-9.04430667">
        <ele>0.0</ele>
        <time>2019-05-16T11:22:39.897Z</time>
      </trkpt>
      <trkpt lat="38.86655167" lon="-9.04430667">
        <ele>0.0</ele>
        <time>2019-05-16T11:22:40.902Z</time>
      </trkpt>
      <trkpt lat="38.86655167" lon="-9.04430667">
        <ele>0.0</ele>
        <time>2019-05-16T11:22:41.898Z</time>
      </trkpt>
      <trkpt lat="38.86655167" lon="-9.04430667">
        <ele>0.0</ele>
        <time>2019-05-16T11:22:42.904Z</time>
      </trkpt>
      <trkpt lat="38.86655167" lon="-9.04430667">
        <ele>0.0</ele>
        <time>2019-05-16T11:22:43.897Z</time>
      </trkpt>
      <trkpt lat="38.86657" lon="-9.04432333">
        <ele>-1.0</ele>
        <time>2019-05-16T11:22:44.903Z</time>
      </trkpt>
      <trkpt lat="38.86658667" lon="-9.04433333">
        <ele>-1.0</ele>
        <time>2019-05-16T11:22:45.902Z</time>
      </trkpt>
      <trkpt lat="38.86658667" lon="-9.04433333">
        <ele>-1.0</ele>
        <time>2019-05-16T11:22:46.897Z</time>
      </trkpt>
      <trkpt lat="38.86663" lon="-9.04436">
        <ele>-1.0</ele>
        <time>2019-05-16T11:22:47.903Z</time>
      </trkpt>
      <trkpt lat="38.86663" lon="-9.04436">
        <ele>-1.0</ele>
        <time>2019-05-16T11:22:48.903Z</time>
      </trkpt>
      <trkpt lat="38.86669" lon="-9.04439333">
        <ele>-1.0</ele>
        <time>2019-05-16T11:22:49.902Z</time>
      </trkpt>
      <trkpt lat="38.866725" lon="-9.044415">
        <ele>-1.0</ele>
        <time>2019-05-16T11:22:50.958Z</time>
      </trkpt>
      <trkpt lat="38.866725" lon="-9.044415">
        <ele>-1.0</ele>
        <time>2019-05-16T11:22:51.913Z</time>
      </trkpt>
      <trkpt lat="38.86679667" lon="-9.04446">
        <ele>-1.0</ele>
        <time>2019-05-16T11:22:52.898Z</time>
      </trkpt>
      <trkpt lat="38.86679667" lon="-9.04446">
        <ele>-1.0</ele>
        <time>2019-05-16T11:22:53.911Z</time>
      </trkpt>
      <trkpt lat="38.866875" lon="-9.04450833">
        <ele>-1.0</ele>
        <time>2019-05-16T11:22:54.921Z</time>
      </trkpt>
      <trkpt lat="38.866875" lon="-9.04450833">
        <ele>-1.0</ele>
        <time>2019-05-16T11:22:55.911Z</time>
      </trkpt>
      <trkpt lat="38.866955" lon="-9.04456">
        <ele>0.0</ele>
        <time>2019-05-16T11:22:56.929Z</time>
      </trkpt>
      <trkpt lat="38.866955" lon="-9.04456">
        <ele>0.0</ele>
        <time>2019-05-16T11:22:57.906Z</time>
      </trkpt>
      <trkpt lat="38.86703167" lon="-9.04461167">
        <ele>-1.0</ele>
        <time>2019-05-16T11:22:58.940Z</time>
      </trkpt>
      <trkpt lat="38.86703167" lon="-9.04461167">
        <ele>-1.0</ele>
        <time>2019-05-16T11:22:59.934Z</time>
      </trkpt>
      <trkpt lat="38.8671" lon="-9.04466">
        <ele>-1.0</ele>
        <time>2019-05-16T11:23:00.904Z</time>
      </trkpt>
      <trkpt lat="38.8671" lon="-9.04466">
        <ele>-1.0</ele>
        <time>2019-05-16T11:23:01.930Z</time>
      </trkpt>
      <trkpt lat="38.86716833" lon="-9.04470333">
        <ele>-1.0</ele>
        <time>2019-05-16T11:23:02.897Z</time>
      </trkpt>
      <trkpt lat="38.86716833" lon="-9.04470333">
        <ele>-1.0</ele>
        <time>2019-05-16T11:23:03.901Z</time>
      </trkpt>
      <trkpt lat="38.86724333" lon="-9.04474333">
        <ele>-1.0</ele>
        <time>2019-05-16T11:23:04.912Z</time>
      </trkpt>
      <trkpt lat="38.86724333" lon="-9.04474333">
        <ele>-1.0</ele>
        <time>2019-05-16T11:23:05.910Z</time>
      </trkpt>
      <trkpt lat="38.86733" lon="-9.04478333">
        <ele>-1.0</ele>
        <time>2019-05-16T11:23:06.925Z</time>
      </trkpt>
      <trkpt lat="38.86733" lon="-9.04478333">
        <ele>-1.0</ele>
        <time>2019-05-16T11:23:07.930Z</time>
      </trkpt>
      <trkpt lat="38.86741" lon="-9.04482667">
        <ele>-1.0</ele>
        <time>2019-05-16T11:23:08.910Z</time>
      </trkpt>
      <trkpt lat="38.86741" lon="-9.04482667">
        <ele>-1.0</ele>
        <time>2019-05-16T11:23:09.901Z</time>
      </trkpt>
      <trkpt lat="38.86748" lon="-9.04486167">
        <ele>0.0</ele>
        <time>2019-05-16T11:23:10.924Z</time>
      </trkpt>
      <trkpt lat="38.86748" lon="-9.04486167">
        <ele>0.0</ele>
        <time>2019-05-16T11:23:11.909Z</time>
      </trkpt>
      <trkpt lat="38.86754667" lon="-9.04488667">
        <ele>0.0</ele>
        <time>2019-05-16T11:23:12.917Z</time>
      </trkpt>
      <trkpt lat="38.86754667" lon="-9.04488667">
        <ele>0.0</ele>
        <time>2019-05-16T11:23:13.921Z</time>
      </trkpt>
      <trkpt lat="38.86760833" lon="-9.04490167">
        <ele>0.0</ele>
        <time>2019-05-16T11:23:14.932Z</time>
      </trkpt>
      <trkpt lat="38.86760833" lon="-9.04490167">
        <ele>0.0</ele>
        <time>2019-05-16T11:23:15.916Z</time>
      </trkpt>
      <trkpt lat="38.86766667" lon="-9.04491">
        <ele>0.0</ele>
        <time>2019-05-16T11:23:16.927Z</time>
      </trkpt>
      <trkpt lat="38.86766667" lon="-9.04491">
        <ele>0.0</ele>
        <time>2019-05-16T11:23:17.917Z</time>
      </trkpt>
      <trkpt lat="38.86772333" lon="-9.04491333">
        <ele>0.0</ele>
        <time>2019-05-16T11:23:18.917Z</time>
      </trkpt>
      <trkpt lat="38.86772333" lon="-9.04491333">
        <ele>0.0</ele>
        <time>2019-05-16T11:23:19.911Z</time>
      </trkpt>
      <trkpt lat="38.86778333" lon="-9.04491667">
        <ele>0.0</ele>
        <time>2019-05-16T11:23:20.913Z</time>
      </trkpt>
      <trkpt lat="38.86778333" lon="-9.04491667">
        <ele>0.0</ele>
        <time>2019-05-16T11:23:21.913Z</time>
      </trkpt>
      <trkpt lat="38.86784667" lon="-9.04491667">
        <ele>0.0</ele>
        <time>2019-05-16T11:23:22.920Z</time>
      </trkpt>
      <trkpt lat="38.86784667" lon="-9.04491667">
        <ele>0.0</ele>
        <time>2019-05-16T11:23:23.933Z</time>
      </trkpt>
      <trkpt lat="38.86791" lon="-9.04491667">
        <ele>0.0</ele>
        <time>2019-05-16T11:23:24.910Z</time>
      </trkpt>
      <trkpt lat="38.86791" lon="-9.04491667">
        <ele>0.0</ele>
        <time>2019-05-16T11:23:25.932Z</time>
      </trkpt>
      <trkpt lat="38.867975" lon="-9.04490667">
        <ele>0.0</ele>
        <time>2019-05-16T11:23:26.922Z</time>
      </trkpt>
      <trkpt lat="38.867975" lon="-9.04490667">
        <ele>0.0</ele>
        <time>2019-05-16T11:23:27.901Z</time>
      </trkpt>
      <trkpt lat="38.86803833" lon="-9.04489">
        <ele>0.0</ele>
        <time>2019-05-16T11:23:28.921Z</time>
      </trkpt>
      <trkpt lat="38.86803833" lon="-9.04489">
        <ele>0.0</ele>
        <time>2019-05-16T11:23:29.911Z</time>
      </trkpt>
      <trkpt lat="38.8681" lon="-9.04486833">
        <ele>0.0</ele>
        <time>2019-05-16T11:23:30.900Z</time>
      </trkpt>
      <trkpt lat="38.8681" lon="-9.04486833">
        <ele>0.0</ele>
        <time>2019-05-16T11:23:31.900Z</time>
      </trkpt>
      <trkpt lat="38.86816167" lon="-9.04484167">
        <ele>0.0</ele>
        <time>2019-05-16T11:23:32.929Z</time>
      </trkpt>
      <trkpt lat="38.86819167" lon="-9.04482667">
        <ele>0.0</ele>
        <time>2019-05-16T11:23:33.907Z</time>
      </trkpt>
      <trkpt lat="38.86819167" lon="-9.04482667">
        <ele>0.0</ele>
        <time>2019-05-16T11:23:34.918Z</time>
      </trkpt>
      <trkpt lat="38.86825167" lon="-9.04479667">
        <ele>0.0</ele>
        <time>2019-05-16T11:23:35.936Z</time>
      </trkpt>
      <trkpt lat="38.86828" lon="-9.04478">
        <ele>0.0</ele>
        <time>2019-05-16T11:23:36.923Z</time>
      </trkpt>
      <trkpt lat="38.86828" lon="-9.04478">
        <ele>0.0</ele>
        <time>2019-05-16T11:23:37.905Z</time>
      </trkpt>
      <trkpt lat="38.86833333" lon="-9.044745">
        <ele>0.0</ele>
        <time>2019-05-16T11:23:38.920Z</time>
      </trkpt>
      <trkpt lat="38.86833333" lon="-9.044745">
        <ele>0.0</ele>
        <time>2019-05-16T11:23:39.904Z</time>
      </trkpt>
      <trkpt lat="38.868385" lon="-9.04470667">
        <ele>0.0</ele>
        <time>2019-05-16T11:23:40.928Z</time>
      </trkpt>
      <trkpt lat="38.86841167" lon="-9.04468833">
        <ele>0.0</ele>
        <time>2019-05-16T11:23:41.909Z</time>
      </trkpt>
      <trkpt lat="38.86843667" lon="-9.04467">
        <ele>0.0</ele>
        <time>2019-05-16T11:23:42.913Z</time>
      </trkpt>
      <trkpt lat="38.86843667" lon="-9.04467">
        <ele>0.0</ele>
        <time>2019-05-16T11:23:43.906Z</time>
      </trkpt>
      <trkpt lat="38.86848833" lon="-9.04463167">
        <ele>0.0</ele>
        <time>2019-05-16T11:23:44.911Z</time>
      </trkpt>
      <trkpt lat="38.868515" lon="-9.04461333">
        <ele>0.0</ele>
        <time>2019-05-16T11:23:45.927Z</time>
      </trkpt>
      <trkpt lat="38.868515" lon="-9.04461333">
        <ele>0.0</ele>
        <time>2019-05-16T11:23:46.911Z</time>
      </trkpt>
      <trkpt lat="38.868565" lon="-9.04457667">
        <ele>0.0</ele>
        <time>2019-05-16T11:23:47.922Z</time>
      </trkpt>
      <trkpt lat="38.86859" lon="-9.04455833">
        <ele>0.0</ele>
        <time>2019-05-16T11:23:48.921Z</time>
      </trkpt>
      <trkpt lat="38.86859" lon="-9.04455833">
        <ele>0.0</ele>
        <time>2019-05-16T11:23:49.913Z</time>
      </trkpt>
      <trkpt lat="38.86864" lon="-9.04451667">
        <ele>0.0</ele>
        <time>2019-05-16T11:23:50.921Z</time>
      </trkpt>
      <trkpt lat="38.86864" lon="-9.04451667">
        <ele>0.0</ele>
        <time>2019-05-16T11:23:51.900Z</time>
      </trkpt>
      <trkpt lat="38.86869" lon="-9.04447667">
        <ele>1.0</ele>
        <time>2019-05-16T11:23:52.910Z</time>
      </trkpt>
      <trkpt lat="38.86869" lon="-9.04447667">
        <ele>1.0</ele>
        <time>2019-05-16T11:23:53.923Z</time>
      </trkpt>
      <trkpt lat="38.86874167" lon="-9.044435">
        <ele>0.0</ele>
        <time>2019-05-16T11:23:54.901Z</time>
      </trkpt>
      <trkpt lat="38.86874167" lon="-9.044435">
        <ele>0.0</ele>
        <time>2019-05-16T11:23:55.922Z</time>
      </trkpt>
      <trkpt lat="38.86879333" lon="-9.04439167">
        <ele>0.0</ele>
        <time>2019-05-16T11:23:56.921Z</time>
      </trkpt>
      <trkpt lat="38.86879333" lon="-9.04439167">
        <ele>0.0</ele>
        <time>2019-05-16T11:23:57.918Z</time>
      </trkpt>
      <trkpt lat="38.86884167" lon="-9.04434833">
        <ele>1.0</ele>
        <time>2019-05-16T11:23:58.939Z</time>
      </trkpt>
      <trkpt lat="38.86884167" lon="-9.04434833">
        <ele>1.0</ele>
        <time>2019-05-16T11:23:59.923Z</time>
      </trkpt>
      <trkpt lat="38.86889" lon="-9.044305">
        <ele>1.0</ele>
        <time>2019-05-16T11:24:00.897Z</time>
      </trkpt>
      <trkpt lat="38.86889" lon="-9.044305">
        <ele>1.0</ele>
        <time>2019-05-16T11:24:01.905Z</time>
      </trkpt>
      <trkpt lat="38.868945" lon="-9.04426333">
        <ele>0.0</ele>
        <time>2019-05-16T11:24:02.913Z</time>
      </trkpt>
      <trkpt lat="38.868945" lon="-9.04426333">
        <ele>0.0</ele>
        <time>2019-05-16T11:24:03.907Z</time>
      </trkpt>
      <trkpt lat="38.86900167" lon="-9.044215">
        <ele>1.0</ele>
        <time>2019-05-16T11:24:04.916Z</time>
      </trkpt>
      <trkpt lat="38.869035" lon="-9.04418667">
        <ele>1.0</ele>
        <time>2019-05-16T11:24:05.903Z</time>
      </trkpt>
      <trkpt lat="38.86907" lon="-9.04415833">
        <ele>1.0</ele>
        <time>2019-05-16T11:24:06.931Z</time>
      </trkpt>
      <trkpt lat="38.86907" lon="-9.04415833">
        <ele>1.0</ele>
        <time>2019-05-16T11:24:07.919Z</time>
      </trkpt>
      <trkpt lat="38.869135" lon="-9.04410333">
        <ele>1.0</ele>
        <time>2019-05-16T11:24:08.935Z</time>
      </trkpt>
      <trkpt lat="38.869135" lon="-9.04410333">
        <ele>1.0</ele>
        <time>2019-05-16T11:24:09.930Z</time>
      </trkpt>
      <trkpt lat="38.8692" lon="-9.04404667">
        <ele>0.0</ele>
        <time>2019-05-16T11:24:10.899Z</time>
      </trkpt>
      <trkpt lat="38.8692" lon="-9.04404667">
        <ele>0.0</ele>
        <time>2019-05-16T11:24:11.930Z</time>
      </trkpt>
      <trkpt lat="38.869265" lon="-9.043995">
        <ele>0.0</ele>
        <time>2019-05-16T11:24:12.900Z</time>
      </trkpt>
      <trkpt lat="38.869265" lon="-9.043995">
        <ele>0.0</ele>
        <time>2019-05-16T11:24:13.916Z</time>
      </trkpt>
      <trkpt lat="38.86933" lon="-9.04394">
        <ele>0.0</ele>
        <time>2019-05-16T11:24:14.926Z</time>
      </trkpt>
      <trkpt lat="38.86933" lon="-9.04394">
        <ele>0.0</ele>
        <time>2019-05-16T11:24:15.913Z</time>
      </trkpt>
      <trkpt lat="38.86939333" lon="-9.04388833">
        <ele>0.0</ele>
        <time>2019-05-16T11:24:16.927Z</time>
      </trkpt>
      <trkpt lat="38.86939333" lon="-9.04388833">
        <ele>0.0</ele>
        <time>2019-05-16T11:24:17.915Z</time>
      </trkpt>
      <trkpt lat="38.86945667" lon="-9.043835">
        <ele>0.0</ele>
        <time>2019-05-16T11:24:18.921Z</time>
      </trkpt>
      <trkpt lat="38.86945667" lon="-9.043835">
        <ele>0.0</ele>
        <time>2019-05-16T11:24:19.904Z</time>
      </trkpt>
      <trkpt lat="38.86952333" lon="-9.04378">
        <ele>0.0</ele>
        <time>2019-05-16T11:24:20.933Z</time>
      </trkpt>
      <trkpt lat="38.86952333" lon="-9.04378">
        <ele>0.0</ele>
        <time>2019-05-16T11:24:21.925Z</time>
      </trkpt>
      <trkpt lat="38.86959333" lon="-9.04372333">
        <ele>0.0</ele>
        <time>2019-05-16T11:24:22.935Z</time>
      </trkpt>
      <trkpt lat="38.86959333" lon="-9.04372333">
        <ele>0.0</ele>
        <time>2019-05-16T11:24:23.911Z</time>
      </trkpt>
      <trkpt lat="38.86966167" lon="-9.043665">
        <ele>0.0</ele>
        <time>2019-05-16T11:24:24.927Z</time>
      </trkpt>
      <trkpt lat="38.86966167" lon="-9.043665">
        <ele>0.0</ele>
        <time>2019-05-16T11:24:25.911Z</time>
      </trkpt>
      <trkpt lat="38.86973167" lon="-9.04361167">
        <ele>0.0</ele>
        <time>2019-05-16T11:24:26.921Z</time>
      </trkpt>
      <trkpt lat="38.86973167" lon="-9.04361167">
        <ele>0.0</ele>
        <time>2019-05-16T11:24:27.916Z</time>
      </trkpt>
      <trkpt lat="38.8698" lon="-9.043555">
        <ele>0.0</ele>
        <time>2019-05-16T11:24:28.928Z</time>
      </trkpt>
      <trkpt lat="38.8698" lon="-9.043555">
        <ele>0.0</ele>
        <time>2019-05-16T11:24:29.923Z</time>
      </trkpt>
      <trkpt lat="38.86986833" lon="-9.04349833">
        <ele>0.0</ele>
        <time>2019-05-16T11:24:30.930Z</time>
      </trkpt>
      <trkpt lat="38.86986833" lon="-9.04349833">
        <ele>0.0</ele>
        <time>2019-05-16T11:24:31.923Z</time>
      </trkpt>
      <trkpt lat="38.86993667" lon="-9.043445">
        <ele>0.0</ele>
        <time>2019-05-16T11:24:32.897Z</time>
      </trkpt>
      <trkpt lat="38.86997" lon="-9.04341667">
        <ele>0.0</ele>
        <time>2019-05-16T11:24:33.912Z</time>
      </trkpt>
      <trkpt lat="38.86997" lon="-9.04341667">
        <ele>0.0</ele>
        <time>2019-05-16T11:24:34.932Z</time>
      </trkpt>
      <trkpt lat="38.87003667" lon="-9.043365">
        <ele>0.0</ele>
        <time>2019-05-16T11:24:35.900Z</time>
      </trkpt>
      <trkpt lat="38.87006667" lon="-9.04333833">
        <ele>0.0</ele>
        <time>2019-05-16T11:24:36.907Z</time>
      </trkpt>
      <trkpt lat="38.87009833" lon="-9.043315">
        <ele>0.0</ele>
        <time>2019-05-16T11:24:37.902Z</time>
      </trkpt>
      <trkpt lat="38.87009833" lon="-9.043315">
        <ele>0.0</ele>
        <time>2019-05-16T11:24:38.921Z</time>
      </trkpt>
      <trkpt lat="38.87016" lon="-9.043265">
        <ele>0.0</ele>
        <time>2019-05-16T11:24:39.899Z</time>
      </trkpt>
      <trkpt lat="38.87019" lon="-9.04324">
        <ele>0.0</ele>
        <time>2019-05-16T11:24:40.935Z</time>
      </trkpt>
      <trkpt lat="38.87019" lon="-9.04324">
        <ele>0.0</ele>
        <time>2019-05-16T11:24:41.921Z</time>
      </trkpt>
      <trkpt lat="38.87024833" lon="-9.04319167">
        <ele>0.0</ele>
        <time>2019-05-16T11:24:42.936Z</time>
      </trkpt>
      <trkpt lat="38.87024833" lon="-9.04319167">
        <ele>0.0</ele>
        <time>2019-05-16T11:24:43.936Z</time>
      </trkpt>
      <trkpt lat="38.87030833" lon="-9.04314333">
        <ele>0.0</ele>
        <time>2019-05-16T11:24:44.927Z</time>
      </trkpt>
      <trkpt lat="38.87030833" lon="-9.04314333">
        <ele>0.0</ele>
        <time>2019-05-16T11:24:45.928Z</time>
      </trkpt>
      <trkpt lat="38.87036667" lon="-9.043095">
        <ele>0.0</ele>
        <time>2019-05-16T11:24:46.942Z</time>
      </trkpt>
      <trkpt lat="38.87036667" lon="-9.043095">
        <ele>0.0</ele>
        <time>2019-05-16T11:24:47.920Z</time>
      </trkpt>
      <trkpt lat="38.87042667" lon="-9.04304667">
        <ele>0.0</ele>
        <time>2019-05-16T11:24:48.926Z</time>
      </trkpt>
      <trkpt lat="38.87042667" lon="-9.04304667">
        <ele>0.0</ele>
        <time>2019-05-16T11:24:49.930Z</time>
      </trkpt>
      <trkpt lat="38.870485" lon="-9.04299333">
        <ele>0.0</ele>
        <time>2019-05-16T11:24:50.901Z</time>
      </trkpt>
      <trkpt lat="38.870485" lon="-9.04299333">
        <ele>0.0</ele>
        <time>2019-05-16T11:24:51.932Z</time>
      </trkpt>
      <trkpt lat="38.87054667" lon="-9.04294667">
        <ele>0.0</ele>
        <time>2019-05-16T11:24:52.908Z</time>
      </trkpt>
      <trkpt lat="38.87054667" lon="-9.04294667">
        <ele>0.0</ele>
        <time>2019-05-16T11:24:53.921Z</time>
      </trkpt>
      <trkpt lat="38.87060833" lon="-9.04289667">
        <ele>0.0</ele>
        <time>2019-05-16T11:24:54.936Z</time>
      </trkpt>
      <trkpt lat="38.87060833" lon="-9.04289667">
        <ele>0.0</ele>
        <time>2019-05-16T11:24:55.932Z</time>
      </trkpt>
      <trkpt lat="38.87066833" lon="-9.042845">
        <ele>0.0</ele>
        <time>2019-05-16T11:24:56.902Z</time>
      </trkpt>
      <trkpt lat="38.87066833" lon="-9.042845">
        <ele>0.0</ele>
        <time>2019-05-16T11:24:57.900Z</time>
      </trkpt>
      <trkpt lat="38.87073167" lon="-9.04279667">
        <ele>0.0</ele>
        <time>2019-05-16T11:24:58.919Z</time>
      </trkpt>
      <trkpt lat="38.87073167" lon="-9.04279667">
        <ele>0.0</ele>
        <time>2019-05-16T11:24:59.933Z</time>
      </trkpt>
      <trkpt lat="38.87079333" lon="-9.04274333">
        <ele>0.0</ele>
        <time>2019-05-16T11:25:00.904Z</time>
      </trkpt>
      <trkpt lat="38.87079333" lon="-9.04274333">
        <ele>0.0</ele>
        <time>2019-05-16T11:25:01.921Z</time>
      </trkpt>
      <trkpt lat="38.87085667" lon="-9.042695">
        <ele>0.0</ele>
        <time>2019-05-16T11:25:02.936Z</time>
      </trkpt>
      <trkpt lat="38.87085667" lon="-9.042695">
        <ele>0.0</ele>
        <time>2019-05-16T11:25:03.907Z</time>
      </trkpt>
      <trkpt lat="38.87091833" lon="-9.04264333">
        <ele>0.0</ele>
        <time>2019-05-16T11:25:04.920Z</time>
      </trkpt>
      <trkpt lat="38.87095" lon="-9.042625">
        <ele>0.0</ele>
        <time>2019-05-16T11:25:05.935Z</time>
      </trkpt>
      <trkpt lat="38.87098167" lon="-9.04262167">
        <ele>0.0</ele>
        <time>2019-05-16T11:25:06.926Z</time>
      </trkpt>
      <trkpt lat="38.87098167" lon="-9.04262167">
        <ele>0.0</ele>
        <time>2019-05-16T11:25:07.901Z</time>
      </trkpt>
      <trkpt lat="38.87102167" lon="-9.04264667">
        <ele>0.0</ele>
        <time>2019-05-16T11:25:08.936Z</time>
      </trkpt>
      <trkpt lat="38.87103333" lon="-9.04266667">
        <ele>-1.0</ele>
        <time>2019-05-16T11:25:09.930Z</time>
      </trkpt>
      <trkpt lat="38.87103333" lon="-9.04266667">
        <ele>-1.0</ele>
        <time>2019-05-16T11:25:10.899Z</time>
      </trkpt>
      <trkpt lat="38.87105167" lon="-9.04271167">
        <ele>0.0</ele>
        <time>2019-05-16T11:25:11.916Z</time>
      </trkpt>
      <trkpt lat="38.87106167" lon="-9.042735">
        <ele>0.0</ele>
        <time>2019-05-16T11:25:12.908Z</time>
      </trkpt>
      <trkpt lat="38.87106167" lon="-9.042735">
        <ele>0.0</ele>
        <time>2019-05-16T11:25:13.924Z</time>
      </trkpt>
      <trkpt lat="38.87109" lon="-9.04276667">
        <ele>0.0</ele>
        <time>2019-05-16T11:25:14.933Z</time>
      </trkpt>
      <trkpt lat="38.87109" lon="-9.04276667">
        <ele>0.0</ele>
        <time>2019-05-16T11:25:15.921Z</time>
      </trkpt>
      <trkpt lat="38.87112167" lon="-9.042765">
        <ele>-1.0</ele>
        <time>2019-05-16T11:25:16.934Z</time>
      </trkpt>
      <trkpt lat="38.87112167" lon="-9.042765">
        <ele>-1.0</ele>
        <time>2019-05-16T11:25:17.930Z</time>
      </trkpt>
      <trkpt lat="38.871155" lon="-9.04274167">
        <ele>-1.0</ele>
        <time>2019-05-16T11:25:18.898Z</time>
      </trkpt>
      <trkpt lat="38.871155" lon="-9.04274167">
        <ele>-1.0</ele>
        <time>2019-05-16T11:25:19.916Z</time>
      </trkpt>
      <trkpt lat="38.87118667" lon="-9.04271167">
        <ele>-1.0</ele>
        <time>2019-05-16T11:25:20.907Z</time>
      </trkpt>
      <trkpt lat="38.87118667" lon="-9.04271167">
        <ele>-1.0</ele>
        <time>2019-05-16T11:25:21.931Z</time>
      </trkpt>
      <trkpt lat="38.87122333" lon="-9.04267833">
        <ele>-1.0</ele>
        <time>2019-05-16T11:25:22.911Z</time>
      </trkpt>
      <trkpt lat="38.87122333" lon="-9.04267833">
        <ele>-1.0</ele>
        <time>2019-05-16T11:25:23.901Z</time>
      </trkpt>
      <trkpt lat="38.87126333" lon="-9.04264167">
        <ele>-1.0</ele>
        <time>2019-05-16T11:25:24.917Z</time>
      </trkpt>
      <trkpt lat="38.87126333" lon="-9.04264167">
        <ele>-1.0</ele>
        <time>2019-05-16T11:25:25.920Z</time>
      </trkpt>
      <trkpt lat="38.87131" lon="-9.04259667">
        <ele>-1.0</ele>
        <time>2019-05-16T11:25:26.900Z</time>
      </trkpt>
      <trkpt lat="38.87131" lon="-9.04259667">
        <ele>-1.0</ele>
        <time>2019-05-16T11:25:27.921Z</time>
      </trkpt>
      <trkpt lat="38.87137" lon="-9.04254667">
        <ele>-1.0</ele>
        <time>2019-05-16T11:25:28.940Z</time>
      </trkpt>
      <trkpt lat="38.87137" lon="-9.04254667">
        <ele>-1.0</ele>
        <time>2019-05-16T11:25:29.914Z</time>
      </trkpt>
      <trkpt lat="38.87142833" lon="-9.04249667">
        <ele>0.0</ele>
        <time>2019-05-16T11:25:30.924Z</time>
      </trkpt>
      <trkpt lat="38.87142833" lon="-9.04249667">
        <ele>0.0</ele>
        <time>2019-05-16T11:25:31.911Z</time>
      </trkpt>
      <trkpt lat="38.87148667" lon="-9.04244833">
        <ele>0.0</ele>
        <time>2019-05-16T11:25:32.923Z</time>
      </trkpt>
      <trkpt lat="38.87148667" lon="-9.04244833">
        <ele>0.0</ele>
        <time>2019-05-16T11:25:33.931Z</time>
      </trkpt>
      <trkpt lat="38.871545" lon="-9.0424">
        <ele>0.0</ele>
        <time>2019-05-16T11:25:34.901Z</time>
      </trkpt>
      <trkpt lat="38.871545" lon="-9.0424">
        <ele>0.0</ele>
        <time>2019-05-16T11:25:35.898Z</time>
      </trkpt>
      <trkpt lat="38.871605" lon="-9.04235">
        <ele>-1.0</ele>
        <time>2019-05-16T11:25:36.931Z</time>
      </trkpt>
      <trkpt lat="38.871605" lon="-9.04235">
        <ele>-1.0</ele>
        <time>2019-05-16T11:25:37.900Z</time>
      </trkpt>
      <trkpt lat="38.87166667" lon="-9.0423">
        <ele>-1.0</ele>
        <time>2019-05-16T11:25:38.920Z</time>
      </trkpt>
      <trkpt lat="38.87166667" lon="-9.0423">
        <ele>-1.0</ele>
        <time>2019-05-16T11:25:39.906Z</time>
      </trkpt>
      <trkpt lat="38.87172833" lon="-9.04224833">
        <ele>0.0</ele>
        <time>2019-05-16T11:25:40.932Z</time>
      </trkpt>
      <trkpt lat="38.87176" lon="-9.04222333">
        <ele>0.0</ele>
        <time>2019-05-16T11:25:41.914Z</time>
      </trkpt>
      <trkpt lat="38.87179" lon="-9.04219667">
        <ele>0.0</ele>
        <time>2019-05-16T11:25:42.903Z</time>
      </trkpt>
      <trkpt lat="38.87179" lon="-9.04219667">
        <ele>0.0</ele>
        <time>2019-05-16T11:25:43.931Z</time>
      </trkpt>
      <trkpt lat="38.871855" lon="-9.042145">
        <ele>-1.0</ele>
        <time>2019-05-16T11:25:44.900Z</time>
      </trkpt>
      <trkpt lat="38.871855" lon="-9.042145">
        <ele>-1.0</ele>
        <time>2019-05-16T11:25:45.901Z</time>
      </trkpt>
      <trkpt lat="38.87192" lon="-9.04209167">
        <ele>0.0</ele>
        <time>2019-05-16T11:25:46.923Z</time>
      </trkpt>
      <trkpt lat="38.87195" lon="-9.04206667">
        <ele>0.0</ele>
        <time>2019-05-16T11:25:47.904Z</time>
      </trkpt>
      <trkpt lat="38.87198167" lon="-9.04204">
        <ele>0.0</ele>
        <time>2019-05-16T11:25:48.924Z</time>
      </trkpt>
      <trkpt lat="38.87198167" lon="-9.04204">
        <ele>0.0</ele>
        <time>2019-05-16T11:25:49.922Z</time>
      </trkpt>
      <trkpt lat="38.87204333" lon="-9.04198833">
        <ele>0.0</ele>
        <time>2019-05-16T11:25:50.936Z</time>
      </trkpt>
      <trkpt lat="38.87204333" lon="-9.04198833">
        <ele>0.0</ele>
        <time>2019-05-16T11:25:51.933Z</time>
      </trkpt>
      <trkpt lat="38.872105" lon="-9.04193667">
        <ele>0.0</ele>
        <time>2019-05-16T11:25:52.900Z</time>
      </trkpt>
      <trkpt lat="38.872105" lon="-9.04193667">
        <ele>0.0</ele>
        <time>2019-05-16T11:25:53.915Z</time>
      </trkpt>
      <trkpt lat="38.87217" lon="-9.04188333">
        <ele>0.0</ele>
        <time>2019-05-16T11:25:54.924Z</time>
      </trkpt>
      <trkpt lat="38.87217" lon="-9.04188333">
        <ele>0.0</ele>
        <time>2019-05-16T11:25:55.908Z</time>
      </trkpt>
      <trkpt lat="38.872235" lon="-9.04183333">
        <ele>0.0</ele>
        <time>2019-05-16T11:25:56.916Z</time>
      </trkpt>
      <trkpt lat="38.872235" lon="-9.04183333">
        <ele>0.0</ele>
        <time>2019-05-16T11:25:57.913Z</time>
      </trkpt>
      <trkpt lat="38.87229667" lon="-9.04177833">
        <ele>0.0</ele>
        <time>2019-05-16T11:25:58.924Z</time>
      </trkpt>
      <trkpt lat="38.87229667" lon="-9.04177833">
        <ele>0.0</ele>
        <time>2019-05-16T11:25:59.932Z</time>
      </trkpt>
      <trkpt lat="38.87235833" lon="-9.04172667">
        <ele>0.0</ele>
        <time>2019-05-16T11:26:00.904Z</time>
      </trkpt>
      <trkpt lat="38.87235833" lon="-9.04172667">
        <ele>0.0</ele>
        <time>2019-05-16T11:26:01.910Z</time>
      </trkpt>
      <trkpt lat="38.87242167" lon="-9.041675">
        <ele>0.0</ele>
        <time>2019-05-16T11:26:02.921Z</time>
      </trkpt>
      <trkpt lat="38.87242167" lon="-9.041675">
        <ele>0.0</ele>
        <time>2019-05-16T11:26:03.905Z</time>
      </trkpt>
      <trkpt lat="38.87248833" lon="-9.04162333">
        <ele>0.0</ele>
        <time>2019-05-16T11:26:04.905Z</time>
      </trkpt>
      <trkpt lat="38.87248833" lon="-9.04162333">
        <ele>0.0</ele>
        <time>2019-05-16T11:26:05.932Z</time>
      </trkpt>
      <trkpt lat="38.872555" lon="-9.04156667">
        <ele>0.0</ele>
        <time>2019-05-16T11:26:06.904Z</time>
      </trkpt>
      <trkpt lat="38.872555" lon="-9.04156667">
        <ele>0.0</ele>
        <time>2019-05-16T11:26:07.921Z</time>
      </trkpt>
      <trkpt lat="38.872625" lon="-9.04151">
        <ele>0.0</ele>
        <time>2019-05-16T11:26:08.935Z</time>
      </trkpt>
      <trkpt lat="38.872625" lon="-9.04151">
        <ele>0.0</ele>
        <time>2019-05-16T11:26:09.908Z</time>
      </trkpt>
      <trkpt lat="38.87269333" lon="-9.041455">
        <ele>0.0</ele>
        <time>2019-05-16T11:26:10.936Z</time>
      </trkpt>
      <trkpt lat="38.87269333" lon="-9.041455">
        <ele>0.0</ele>
        <time>2019-05-16T11:26:11.932Z</time>
      </trkpt>
      <trkpt lat="38.87276167" lon="-9.0414">
        <ele>0.0</ele>
        <time>2019-05-16T11:26:12.907Z</time>
      </trkpt>
      <trkpt lat="38.87276167" lon="-9.0414">
        <ele>0.0</ele>
        <time>2019-05-16T11:26:13.936Z</time>
      </trkpt>
      <trkpt lat="38.87282833" lon="-9.04133833">
        <ele>0.0</ele>
        <time>2019-05-16T11:26:14.905Z</time>
      </trkpt>
      <trkpt lat="38.87282833" lon="-9.04133833">
        <ele>0.0</ele>
        <time>2019-05-16T11:26:15.930Z</time>
      </trkpt>
      <trkpt lat="38.87289833" lon="-9.04128167">
        <ele>0.0</ele>
        <time>2019-05-16T11:26:16.899Z</time>
      </trkpt>
      <trkpt lat="38.87289833" lon="-9.04128167">
        <ele>0.0</ele>
        <time>2019-05-16T11:26:17.936Z</time>
      </trkpt>
      <trkpt lat="38.87296667" lon="-9.04122667">
        <ele>0.0</ele>
        <time>2019-05-16T11:26:18.913Z</time>
      </trkpt>
      <trkpt lat="38.87296667" lon="-9.04122667">
        <ele>0.0</ele>
        <time>2019-05-16T11:26:19.909Z</time>
      </trkpt>
      <trkpt lat="38.873035" lon="-9.041175">
        <ele>-1.0</ele>
        <time>2019-05-16T11:26:20.897Z</time>
      </trkpt>
      <trkpt lat="38.873035" lon="-9.041175">
        <ele>-1.0</ele>
        <time>2019-05-16T11:26:21.922Z</time>
      </trkpt>
      <trkpt lat="38.87309833" lon="-9.04112167">
        <ele>-1.0</ele>
        <time>2019-05-16T11:26:22.942Z</time>
      </trkpt>
      <trkpt lat="38.87309833" lon="-9.04112167">
        <ele>-1.0</ele>
        <time>2019-05-16T11:26:23.925Z</time>
      </trkpt>
      <trkpt lat="38.873165" lon="-9.04107167">
        <ele>-1.0</ele>
        <time>2019-05-16T11:26:24.934Z</time>
      </trkpt>
      <trkpt lat="38.873165" lon="-9.04107167">
        <ele>-1.0</ele>
        <time>2019-05-16T11:26:25.924Z</time>
      </trkpt>
      <trkpt lat="38.87322667" lon="-9.04102167">
        <ele>-1.0</ele>
        <time>2019-05-16T11:26:26.931Z</time>
      </trkpt>
      <trkpt lat="38.87322667" lon="-9.04102167">
        <ele>-1.0</ele>
        <time>2019-05-16T11:26:27.931Z</time>
      </trkpt>
      <trkpt lat="38.87328333" lon="-9.040975">
        <ele>-1.0</ele>
        <time>2019-05-16T11:26:28.897Z</time>
      </trkpt>
      <trkpt lat="38.87328333" lon="-9.040975">
        <ele>-1.0</ele>
        <time>2019-05-16T11:26:29.913Z</time>
      </trkpt>
      <trkpt lat="38.87334" lon="-9.04093333">
        <ele>-1.0</ele>
        <time>2019-05-16T11:26:30.920Z</time>
      </trkpt>
      <trkpt lat="38.87334" lon="-9.04093333">
        <ele>-1.0</ele>
        <time>2019-05-16T11:26:31.907Z</time>
      </trkpt>
      <trkpt lat="38.87339167" lon="-9.04088667">
        <ele>-1.0</ele>
        <time>2019-05-16T11:26:32.919Z</time>
      </trkpt>
      <trkpt lat="38.87339167" lon="-9.04088667">
        <ele>-1.0</ele>
        <time>2019-05-16T11:26:33.931Z</time>
      </trkpt>
      <trkpt lat="38.87344667" lon="-9.04084333">
        <ele>-1.0</ele>
        <time>2019-05-16T11:26:34.906Z</time>
      </trkpt>
      <trkpt lat="38.873475" lon="-9.04082167">
        <ele>0.0</ele>
        <time>2019-05-16T11:26:35.920Z</time>
      </trkpt>
      <trkpt lat="38.873475" lon="-9.04082167">
        <ele>0.0</ele>
        <time>2019-05-16T11:26:36.928Z</time>
      </trkpt>
      <trkpt lat="38.87353333" lon="-9.04077">
        <ele>0.0</ele>
        <time>2019-05-16T11:26:37.907Z</time>
      </trkpt>
      <trkpt lat="38.87353333" lon="-9.04077">
        <ele>0.0</ele>
        <time>2019-05-16T11:26:38.904Z</time>
      </trkpt>
      <trkpt lat="38.87359333" lon="-9.040725">
        <ele>0.0</ele>
        <time>2019-05-16T11:26:39.913Z</time>
      </trkpt>
      <trkpt lat="38.87359333" lon="-9.040725">
        <ele>0.0</ele>
        <time>2019-05-16T11:26:40.934Z</time>
      </trkpt>
      <trkpt lat="38.87365667" lon="-9.04067">
        <ele>0.0</ele>
        <time>2019-05-16T11:26:41.908Z</time>
      </trkpt>
      <trkpt lat="38.87369" lon="-9.04064167">
        <ele>0.0</ele>
        <time>2019-05-16T11:26:42.922Z</time>
      </trkpt>
      <trkpt lat="38.87369" lon="-9.04064167">
        <ele>0.0</ele>
        <time>2019-05-16T11:26:43.916Z</time>
      </trkpt>
      <trkpt lat="38.873755" lon="-9.04059">
        <ele>0.0</ele>
        <time>2019-05-16T11:26:44.933Z</time>
      </trkpt>
      <trkpt lat="38.87379" lon="-9.040565">
        <ele>0.0</ele>
        <time>2019-05-16T11:26:45.928Z</time>
      </trkpt>
      <trkpt lat="38.87379" lon="-9.040565">
        <ele>0.0</ele>
        <time>2019-05-16T11:26:46.915Z</time>
      </trkpt>
      <trkpt lat="38.873855" lon="-9.04051333">
        <ele>-1.0</ele>
        <time>2019-05-16T11:26:47.900Z</time>
      </trkpt>
      <trkpt lat="38.87388833" lon="-9.04049">
        <ele>-1.0</ele>
        <time>2019-05-16T11:26:48.912Z</time>
      </trkpt>
      <trkpt lat="38.87388833" lon="-9.04049">
        <ele>-1.0</ele>
        <time>2019-05-16T11:26:49.930Z</time>
      </trkpt>
      <trkpt lat="38.87395167" lon="-9.04043833">
        <ele>-1.0</ele>
        <time>2019-05-16T11:26:50.904Z</time>
      </trkpt>
      <trkpt lat="38.87395167" lon="-9.04043833">
        <ele>-1.0</ele>
        <time>2019-05-16T11:26:51.901Z</time>
      </trkpt>
      <trkpt lat="38.87401333" lon="-9.04038833">
        <ele>-2.0</ele>
        <time>2019-05-16T11:26:52.912Z</time>
      </trkpt>
      <trkpt lat="38.87401333" lon="-9.04038833">
        <ele>-2.0</ele>
        <time>2019-05-16T11:26:53.901Z</time>
      </trkpt>
      <trkpt lat="38.87407667" lon="-9.04034333">
        <ele>-2.0</ele>
        <time>2019-05-16T11:26:54.911Z</time>
      </trkpt>
      <trkpt lat="38.87407667" lon="-9.04034333">
        <ele>-2.0</ele>
        <time>2019-05-16T11:26:55.910Z</time>
      </trkpt>
      <trkpt lat="38.87413833" lon="-9.04029667">
        <ele>-2.0</ele>
        <time>2019-05-16T11:26:56.930Z</time>
      </trkpt>
      <trkpt lat="38.87416833" lon="-9.04027">
        <ele>-2.0</ele>
        <time>2019-05-16T11:26:57.917Z</time>
      </trkpt>
      <trkpt lat="38.87416833" lon="-9.04027">
        <ele>-2.0</ele>
        <time>2019-05-16T11:26:58.923Z</time>
      </trkpt>
      <trkpt lat="38.87422833" lon="-9.04022">
        <ele>-2.0</ele>
        <time>2019-05-16T11:26:59.936Z</time>
      </trkpt>
      <trkpt lat="38.87425833" lon="-9.040195">
        <ele>-2.0</ele>
        <time>2019-05-16T11:27:00.915Z</time>
      </trkpt>
      <trkpt lat="38.87425833" lon="-9.040195">
        <ele>-2.0</ele>
        <time>2019-05-16T11:27:01.923Z</time>
      </trkpt>
      <trkpt lat="38.87432" lon="-9.04014833">
        <ele>-3.0</ele>
        <time>2019-05-16T11:27:02.897Z</time>
      </trkpt>
      <trkpt lat="38.87432" lon="-9.04014833">
        <ele>-3.0</ele>
        <time>2019-05-16T11:27:03.915Z</time>
      </trkpt>
      <trkpt lat="38.87438333" lon="-9.0401">
        <ele>-3.0</ele>
        <time>2019-05-16T11:27:04.913Z</time>
      </trkpt>
      <trkpt lat="38.87441333" lon="-9.040075">
        <ele>-3.0</ele>
        <time>2019-05-16T11:27:05.917Z</time>
      </trkpt>
      <trkpt lat="38.874445" lon="-9.04005167">
        <ele>-3.0</ele>
        <time>2019-05-16T11:27:06.919Z</time>
      </trkpt>
      <trkpt lat="38.874445" lon="-9.04005167">
        <ele>-3.0</ele>
        <time>2019-05-16T11:27:07.932Z</time>
      </trkpt>
      <trkpt lat="38.87451" lon="-9.04000333">
        <ele>-3.0</ele>
        <time>2019-05-16T11:27:08.899Z</time>
      </trkpt>
      <trkpt lat="38.87451" lon="-9.04000333">
        <ele>-3.0</ele>
        <time>2019-05-16T11:27:09.927Z</time>
      </trkpt>
      <trkpt lat="38.87457667" lon="-9.039955">
        <ele>-4.0</ele>
        <time>2019-05-16T11:27:10.898Z</time>
      </trkpt>
      <trkpt lat="38.87457667" lon="-9.039955">
        <ele>-4.0</ele>
        <time>2019-05-16T11:27:11.930Z</time>
      </trkpt>
      <trkpt lat="38.87464333" lon="-9.0399">
        <ele>-4.0</ele>
        <time>2019-05-16T11:27:12.904Z</time>
      </trkpt>
      <trkpt lat="38.87464333" lon="-9.0399">
        <ele>-4.0</ele>
        <time>2019-05-16T11:27:13.902Z</time>
      </trkpt>
      <trkpt lat="38.87471" lon="-9.03984167">
        <ele>-3.0</ele>
        <time>2019-05-16T11:27:14.922Z</time>
      </trkpt>
      <trkpt lat="38.87471" lon="-9.03984167">
        <ele>-3.0</ele>
        <time>2019-05-16T11:27:15.921Z</time>
      </trkpt>
      <trkpt lat="38.874775" lon="-9.03978833">
        <ele>-3.0</ele>
        <time>2019-05-16T11:27:16.930Z</time>
      </trkpt>
      <trkpt lat="38.87480667" lon="-9.03976167">
        <ele>-3.0</ele>
        <time>2019-05-16T11:27:17.925Z</time>
      </trkpt>
      <trkpt lat="38.87483667" lon="-9.03973167">
        <ele>-3.0</ele>
        <time>2019-05-16T11:27:18.919Z</time>
      </trkpt>
      <trkpt lat="38.87483667" lon="-9.03973167">
        <ele>-3.0</ele>
        <time>2019-05-16T11:27:19.927Z</time>
      </trkpt>
      <trkpt lat="38.87490167" lon="-9.03967167">
        <ele>-3.0</ele>
        <time>2019-05-16T11:27:20.932Z</time>
      </trkpt>
      <trkpt lat="38.87490167" lon="-9.03967167">
        <ele>-3.0</ele>
        <time>2019-05-16T11:27:21.933Z</time>
      </trkpt>
      <trkpt lat="38.87496667" lon="-9.03961167">
        <ele>-2.0</ele>
        <time>2019-05-16T11:27:22.902Z</time>
      </trkpt>
      <trkpt lat="38.87496667" lon="-9.03961167">
        <ele>-2.0</ele>
        <time>2019-05-16T11:27:23.930Z</time>
      </trkpt>
      <trkpt lat="38.87503167" lon="-9.03955667">
        <ele>-1.0</ele>
        <time>2019-05-16T11:27:24.909Z</time>
      </trkpt>
      <trkpt lat="38.87503167" lon="-9.03955667">
        <ele>-1.0</ele>
        <time>2019-05-16T11:27:25.921Z</time>
      </trkpt>
      <trkpt lat="38.87509167" lon="-9.03950333">
        <ele>-1.0</ele>
        <time>2019-05-16T11:27:26.940Z</time>
      </trkpt>
      <trkpt lat="38.87509167" lon="-9.03950333">
        <ele>-1.0</ele>
        <time>2019-05-16T11:27:27.906Z</time>
      </trkpt>
      <trkpt lat="38.875155" lon="-9.03945167">
        <ele>-1.0</ele>
        <time>2019-05-16T11:27:28.939Z</time>
      </trkpt>
      <trkpt lat="38.87518667" lon="-9.03942667">
        <ele>0.0</ele>
        <time>2019-05-16T11:27:29.916Z</time>
      </trkpt>
      <trkpt lat="38.87521667" lon="-9.0394">
        <ele>0.0</ele>
        <time>2019-05-16T11:27:30.899Z</time>
      </trkpt>
      <trkpt lat="38.87521667" lon="-9.0394">
        <ele>0.0</ele>
        <time>2019-05-16T11:27:31.924Z</time>
      </trkpt>
      <trkpt lat="38.87528" lon="-9.03935167">
        <ele>0.0</ele>
        <time>2019-05-16T11:27:32.899Z</time>
      </trkpt>
      <trkpt lat="38.87528" lon="-9.03935167">
        <ele>0.0</ele>
        <time>2019-05-16T11:27:33.900Z</time>
      </trkpt>
      <trkpt lat="38.87533833" lon="-9.03930167">
        <ele>-1.0</ele>
        <time>2019-05-16T11:27:34.914Z</time>
      </trkpt>
      <trkpt lat="38.87533833" lon="-9.03930167">
        <ele>-1.0</ele>
        <time>2019-05-16T11:27:35.921Z</time>
      </trkpt>
      <trkpt lat="38.87540333" lon="-9.039255">
        <ele>-1.0</ele>
        <time>2019-05-16T11:27:36.934Z</time>
      </trkpt>
      <trkpt lat="38.87540333" lon="-9.039255">
        <ele>-1.0</ele>
        <time>2019-05-16T11:27:37.912Z</time>
      </trkpt>
      <trkpt lat="38.875465" lon="-9.03920333">
        <ele>-1.0</ele>
        <time>2019-05-16T11:27:38.923Z</time>
      </trkpt>
      <trkpt lat="38.875465" lon="-9.03920333">
        <ele>-1.0</ele>
        <time>2019-05-16T11:27:39.932Z</time>
      </trkpt>
      <trkpt lat="38.87552833" lon="-9.03914667">
        <ele>-1.0</ele>
        <time>2019-05-16T11:27:40.901Z</time>
      </trkpt>
      <trkpt lat="38.87552833" lon="-9.03914667">
        <ele>-1.0</ele>
        <time>2019-05-16T11:27:41.927Z</time>
      </trkpt>
      <trkpt lat="38.87558833" lon="-9.03909333">
        <ele>-1.0</ele>
        <time>2019-05-16T11:27:42.898Z</time>
      </trkpt>
      <trkpt lat="38.87558833" lon="-9.03909333">
        <ele>-1.0</ele>
        <time>2019-05-16T11:27:43.903Z</time>
      </trkpt>
      <trkpt lat="38.87565" lon="-9.03904">
        <ele>-1.0</ele>
        <time>2019-05-16T11:27:44.926Z</time>
      </trkpt>
      <trkpt lat="38.87565" lon="-9.03904">
        <ele>-1.0</ele>
        <time>2019-05-16T11:27:45.930Z</time>
      </trkpt>
      <trkpt lat="38.87571167" lon="-9.038985">
        <ele>-1.0</ele>
        <time>2019-05-16T11:27:46.905Z</time>
      </trkpt>
      <trkpt lat="38.87571167" lon="-9.038985">
        <ele>-1.0</ele>
        <time>2019-05-16T11:27:47.904Z</time>
      </trkpt>
      <trkpt lat="38.875775" lon="-9.03893333">
        <ele>-1.0</ele>
        <time>2019-05-16T11:27:48.913Z</time>
      </trkpt>
      <trkpt lat="38.87580667" lon="-9.03890667">
        <ele>-1.0</ele>
        <time>2019-05-16T11:27:49.905Z</time>
      </trkpt>
      <trkpt lat="38.87580667" lon="-9.03890667">
        <ele>-1.0</ele>
        <time>2019-05-16T11:27:50.898Z</time>
      </trkpt>
      <trkpt lat="38.87587" lon="-9.03885833">
        <ele>-1.0</ele>
        <time>2019-05-16T11:27:51.927Z</time>
      </trkpt>
      <trkpt lat="38.87587" lon="-9.03885833">
        <ele>-1.0</ele>
        <time>2019-05-16T11:27:52.910Z</time>
      </trkpt>
      <trkpt lat="38.87593" lon="-9.03881333">
        <ele>-1.0</ele>
        <time>2019-05-16T11:27:53.924Z</time>
      </trkpt>
      <trkpt lat="38.87596" lon="-9.03879167">
        <ele>-1.0</ele>
        <time>2019-05-16T11:27:54.923Z</time>
      </trkpt>
      <trkpt lat="38.87596" lon="-9.03879167">
        <ele>-1.0</ele>
        <time>2019-05-16T11:27:55.904Z</time>
      </trkpt>
      <trkpt lat="38.87602333" lon="-9.03874833">
        <ele>-1.0</ele>
        <time>2019-05-16T11:27:56.916Z</time>
      </trkpt>
      <trkpt lat="38.87602333" lon="-9.03874833">
        <ele>-1.0</ele>
        <time>2019-05-16T11:27:57.908Z</time>
      </trkpt>
      <trkpt lat="38.87608667" lon="-9.038705">
        <ele>-1.0</ele>
        <time>2019-05-16T11:27:58.920Z</time>
      </trkpt>
      <trkpt lat="38.87608667" lon="-9.038705">
        <ele>-1.0</ele>
        <time>2019-05-16T11:27:59.927Z</time>
      </trkpt>
      <trkpt lat="38.87615167" lon="-9.03866833">
        <ele>0.0</ele>
        <time>2019-05-16T11:28:00.901Z</time>
      </trkpt>
      <trkpt lat="38.87615167" lon="-9.03866833">
        <ele>0.0</ele>
        <time>2019-05-16T11:28:01.932Z</time>
      </trkpt>
      <trkpt lat="38.87621667" lon="-9.03864667">
        <ele>0.0</ele>
        <time>2019-05-16T11:28:02.914Z</time>
      </trkpt>
      <trkpt lat="38.87621667" lon="-9.03864667">
        <ele>0.0</ele>
        <time>2019-05-16T11:28:03.930Z</time>
      </trkpt>
      <trkpt lat="38.87627667" lon="-9.03862833">
        <ele>0.0</ele>
        <time>2019-05-16T11:28:04.897Z</time>
      </trkpt>
      <trkpt lat="38.87627667" lon="-9.03862833">
        <ele>0.0</ele>
        <time>2019-05-16T11:28:05.901Z</time>
      </trkpt>
      <trkpt lat="38.87633167" lon="-9.038605">
        <ele>0.0</ele>
        <time>2019-05-16T11:28:06.911Z</time>
      </trkpt>
      <trkpt lat="38.87633167" lon="-9.038605">
        <ele>0.0</ele>
        <time>2019-05-16T11:28:07.902Z</time>
      </trkpt>
      <trkpt lat="38.87638333" lon="-9.038595">
        <ele>1.0</ele>
        <time>2019-05-16T11:28:08.911Z</time>
      </trkpt>
      <trkpt lat="38.87638333" lon="-9.038595">
        <ele>1.0</ele>
        <time>2019-05-16T11:28:09.911Z</time>
      </trkpt>
      <trkpt lat="38.876435" lon="-9.03858667">
        <ele>1.0</ele>
        <time>2019-05-16T11:28:10.980Z</time>
      </trkpt>
      <trkpt lat="38.876435" lon="-9.03858667">
        <ele>1.0</ele>
        <time>2019-05-16T11:28:11.900Z</time>
      </trkpt>
      <trkpt lat="38.87649167" lon="-9.03858">
        <ele>1.0</ele>
        <time>2019-05-16T11:28:12.909Z</time>
      </trkpt>
      <trkpt lat="38.87649167" lon="-9.03858">
        <ele>1.0</ele>
        <time>2019-05-16T11:28:13.909Z</time>
      </trkpt>
      <trkpt lat="38.87654833" lon="-9.03858167">
        <ele>1.0</ele>
        <time>2019-05-16T11:28:14.917Z</time>
      </trkpt>
      <trkpt lat="38.87654833" lon="-9.03858167">
        <ele>1.0</ele>
        <time>2019-05-16T11:28:15.930Z</time>
      </trkpt>
      <trkpt lat="38.87660667" lon="-9.03858333">
        <ele>2.0</ele>
        <time>2019-05-16T11:28:16.910Z</time>
      </trkpt>
      <trkpt lat="38.87660667" lon="-9.03858333">
        <ele>2.0</ele>
        <time>2019-05-16T11:28:17.922Z</time>
      </trkpt>
      <trkpt lat="38.876665" lon="-9.03858833">
        <ele>3.0</ele>
        <time>2019-05-16T11:28:18.933Z</time>
      </trkpt>
      <trkpt lat="38.876665" lon="-9.03858833">
        <ele>3.0</ele>
        <time>2019-05-16T11:28:19.913Z</time>
      </trkpt>
      <trkpt lat="38.87672167" lon="-9.03859167">
        <ele>3.0</ele>
        <time>2019-05-16T11:28:20.902Z</time>
      </trkpt>
      <trkpt lat="38.87672167" lon="-9.03859167">
        <ele>3.0</ele>
        <time>2019-05-16T11:28:21.923Z</time>
      </trkpt>
      <trkpt lat="38.87678" lon="-9.03860167">
        <ele>3.0</ele>
        <time>2019-05-16T11:28:22.938Z</time>
      </trkpt>
      <trkpt lat="38.87678" lon="-9.03860167">
        <ele>3.0</ele>
        <time>2019-05-16T11:28:23.923Z</time>
      </trkpt>
      <trkpt lat="38.87684" lon="-9.03861667">
        <ele>3.0</ele>
        <time>2019-05-16T11:28:24.898Z</time>
      </trkpt>
      <trkpt lat="38.87684" lon="-9.03861667">
        <ele>3.0</ele>
        <time>2019-05-16T11:28:25.933Z</time>
      </trkpt>
      <trkpt lat="38.87689833" lon="-9.03863833">
        <ele>4.0</ele>
        <time>2019-05-16T11:28:26.901Z</time>
      </trkpt>
      <trkpt lat="38.87689833" lon="-9.03863833">
        <ele>4.0</ele>
        <time>2019-05-16T11:28:27.921Z</time>
      </trkpt>
      <trkpt lat="38.87695167" lon="-9.03865833">
        <ele>3.0</ele>
        <time>2019-05-16T11:28:28.930Z</time>
      </trkpt>
      <trkpt lat="38.87695167" lon="-9.03865833">
        <ele>3.0</ele>
        <time>2019-05-16T11:28:29.932Z</time>
      </trkpt>
      <trkpt lat="38.877005" lon="-9.03867833">
        <ele>4.0</ele>
        <time>2019-05-16T11:28:30.899Z</time>
      </trkpt>
      <trkpt lat="38.877005" lon="-9.03867833">
        <ele>4.0</ele>
        <time>2019-05-16T11:28:31.932Z</time>
      </trkpt>
      <trkpt lat="38.87705667" lon="-9.038705">
        <ele>4.0</ele>
        <time>2019-05-16T11:28:32.906Z</time>
      </trkpt>
      <trkpt lat="38.87705667" lon="-9.038705">
        <ele>4.0</ele>
        <time>2019-05-16T11:28:33.921Z</time>
      </trkpt>
      <trkpt lat="38.87710833" lon="-9.038735">
        <ele>4.0</ele>
        <time>2019-05-16T11:28:34.897Z</time>
      </trkpt>
      <trkpt lat="38.87710833" lon="-9.038735">
        <ele>4.0</ele>
        <time>2019-05-16T11:28:35.922Z</time>
      </trkpt>
      <trkpt lat="38.87716167" lon="-9.03877">
        <ele>4.0</ele>
        <time>2019-05-16T11:28:36.902Z</time>
      </trkpt>
      <trkpt lat="38.87716167" lon="-9.03877">
        <ele>4.0</ele>
        <time>2019-05-16T11:28:37.919Z</time>
      </trkpt>
      <trkpt lat="38.877215" lon="-9.03880667">
        <ele>4.0</ele>
        <time>2019-05-16T11:28:38.933Z</time>
      </trkpt>
      <trkpt lat="38.877215" lon="-9.03880667">
        <ele>4.0</ele>
        <time>2019-05-16T11:28:39.897Z</time>
      </trkpt>
      <trkpt lat="38.87726333" lon="-9.03884667">
        <ele>4.0</ele>
        <time>2019-05-16T11:28:40.910Z</time>
      </trkpt>
      <trkpt lat="38.87729" lon="-9.03886667">
        <ele>4.0</ele>
        <time>2019-05-16T11:28:41.900Z</time>
      </trkpt>
      <trkpt lat="38.877315" lon="-9.03888833">
        <ele>4.0</ele>
        <time>2019-05-16T11:28:42.918Z</time>
      </trkpt>
      <trkpt lat="38.877315" lon="-9.03888833">
        <ele>4.0</ele>
        <time>2019-05-16T11:28:43.903Z</time>
      </trkpt>
      <trkpt lat="38.877355" lon="-9.03893667">
        <ele>4.0</ele>
        <time>2019-05-16T11:28:44.913Z</time>
      </trkpt>
      <trkpt lat="38.877355" lon="-9.03893667">
        <ele>4.0</ele>
        <time>2019-05-16T11:28:45.898Z</time>
      </trkpt>
      <trkpt lat="38.87739667" lon="-9.03898333">
        <ele>4.0</ele>
        <time>2019-05-16T11:28:46.914Z</time>
      </trkpt>
      <trkpt lat="38.87739667" lon="-9.03898333">
        <ele>4.0</ele>
        <time>2019-05-16T11:28:47.929Z</time>
      </trkpt>
      <trkpt lat="38.87743667" lon="-9.03903667">
        <ele>4.0</ele>
        <time>2019-05-16T11:28:48.907Z</time>
      </trkpt>
      <trkpt lat="38.87743667" lon="-9.03903667">
        <ele>4.0</ele>
        <time>2019-05-16T11:28:49.932Z</time>
      </trkpt>
      <trkpt lat="38.87747667" lon="-9.03908833">
        <ele>4.0</ele>
        <time>2019-05-16T11:28:50.899Z</time>
      </trkpt>
      <trkpt lat="38.87747667" lon="-9.03908833">
        <ele>4.0</ele>
        <time>2019-05-16T11:28:51.912Z</time>
      </trkpt>
      <trkpt lat="38.87751333" lon="-9.03914167">
        <ele>4.0</ele>
        <time>2019-05-16T11:28:52.934Z</time>
      </trkpt>
      <trkpt lat="38.87753333" lon="-9.03917">
        <ele>4.0</ele>
        <time>2019-05-16T11:28:53.914Z</time>
      </trkpt>
      <trkpt lat="38.87755167" lon="-9.03920333">
        <ele>4.0</ele>
        <time>2019-05-16T11:28:54.900Z</time>
      </trkpt>
      <trkpt lat="38.87755167" lon="-9.03920333">
        <ele>4.0</ele>
        <time>2019-05-16T11:28:55.901Z</time>
      </trkpt>
      <trkpt lat="38.877595" lon="-9.03926833">
        <ele>4.0</ele>
        <time>2019-05-16T11:28:56.911Z</time>
      </trkpt>
      <trkpt lat="38.877595" lon="-9.03926833">
        <ele>4.0</ele>
        <time>2019-05-16T11:28:57.930Z</time>
      </trkpt>
      <trkpt lat="38.87763833" lon="-9.039335">
        <ele>4.0</ele>
        <time>2019-05-16T11:28:58.897Z</time>
      </trkpt>
      <trkpt lat="38.87763833" lon="-9.039335">
        <ele>4.0</ele>
        <time>2019-05-16T11:28:59.916Z</time>
      </trkpt>
      <trkpt lat="38.87768333" lon="-9.03939333">
        <ele>4.0</ele>
        <time>2019-05-16T11:29:00.927Z</time>
      </trkpt>
      <trkpt lat="38.87768333" lon="-9.03939333">
        <ele>4.0</ele>
        <time>2019-05-16T11:29:01.916Z</time>
      </trkpt>
      <trkpt lat="38.877725" lon="-9.03945667">
        <ele>4.0</ele>
        <time>2019-05-16T11:29:02.928Z</time>
      </trkpt>
      <trkpt lat="38.877725" lon="-9.03945667">
        <ele>4.0</ele>
        <time>2019-05-16T11:29:03.910Z</time>
      </trkpt>
      <trkpt lat="38.87776167" lon="-9.03951333">
        <ele>4.0</ele>
        <time>2019-05-16T11:29:04.922Z</time>
      </trkpt>
      <trkpt lat="38.87776167" lon="-9.03951333">
        <ele>4.0</ele>
        <time>2019-05-16T11:29:05.934Z</time>
      </trkpt>
      <trkpt lat="38.87779833" lon="-9.039575">
        <ele>4.0</ele>
        <time>2019-05-16T11:29:06.903Z</time>
      </trkpt>
      <trkpt lat="38.87779833" lon="-9.039575">
        <ele>4.0</ele>
        <time>2019-05-16T11:29:07.922Z</time>
      </trkpt>
      <trkpt lat="38.87784" lon="-9.03963167">
        <ele>4.0</ele>
        <time>2019-05-16T11:29:08.939Z</time>
      </trkpt>
      <trkpt lat="38.87784" lon="-9.03963167">
        <ele>4.0</ele>
        <time>2019-05-16T11:29:09.933Z</time>
      </trkpt>
      <trkpt lat="38.87788167" lon="-9.03969333">
        <ele>4.0</ele>
        <time>2019-05-16T11:29:10.907Z</time>
      </trkpt>
      <trkpt lat="38.87790333" lon="-9.03972667">
        <ele>4.0</ele>
        <time>2019-05-16T11:29:11.911Z</time>
      </trkpt>
      <trkpt lat="38.87792833" lon="-9.03975833">
        <ele>4.0</ele>
        <time>2019-05-16T11:29:12.912Z</time>
      </trkpt>
      <trkpt lat="38.87792833" lon="-9.03975833">
        <ele>4.0</ele>
        <time>2019-05-16T11:29:13.924Z</time>
      </trkpt>
      <trkpt lat="38.87797167" lon="-9.03982333">
        <ele>4.0</ele>
        <time>2019-05-16T11:29:14.936Z</time>
      </trkpt>
      <trkpt lat="38.87797167" lon="-9.03982333">
        <ele>4.0</ele>
        <time>2019-05-16T11:29:15.933Z</time>
      </trkpt>
      <trkpt lat="38.87801167" lon="-9.03988333">
        <ele>4.0</ele>
        <time>2019-05-16T11:29:16.909Z</time>
      </trkpt>
      <trkpt lat="38.87801167" lon="-9.03988333">
        <ele>4.0</ele>
        <time>2019-05-16T11:29:17.931Z</time>
      </trkpt>
      <trkpt lat="38.87804833" lon="-9.03994">
        <ele>4.0</ele>
        <time>2019-05-16T11:29:18.903Z</time>
      </trkpt>
      <trkpt lat="38.87804833" lon="-9.03994">
        <ele>4.0</ele>
        <time>2019-05-16T11:29:19.901Z</time>
      </trkpt>
      <trkpt lat="38.87808667" lon="-9.03999">
        <ele>4.0</ele>
        <time>2019-05-16T11:29:20.924Z</time>
      </trkpt>
      <trkpt lat="38.87808667" lon="-9.03999">
        <ele>4.0</ele>
        <time>2019-05-16T11:29:21.911Z</time>
      </trkpt>
      <trkpt lat="38.87812333" lon="-9.04003833">
        <ele>4.0</ele>
        <time>2019-05-16T11:29:22.921Z</time>
      </trkpt>
      <trkpt lat="38.87812333" lon="-9.04003833">
        <ele>4.0</ele>
        <time>2019-05-16T11:29:23.932Z</time>
      </trkpt>
      <trkpt lat="38.87816167" lon="-9.04009167">
        <ele>4.0</ele>
        <time>2019-05-16T11:29:24.910Z</time>
      </trkpt>
      <trkpt lat="38.87818" lon="-9.04012167">
        <ele>4.0</ele>
        <time>2019-05-16T11:29:25.912Z</time>
      </trkpt>
      <trkpt lat="38.87818" lon="-9.04012167">
        <ele>4.0</ele>
        <time>2019-05-16T11:29:26.909Z</time>
      </trkpt>
      <trkpt lat="38.87821667" lon="-9.04017833">
        <ele>4.0</ele>
        <time>2019-05-16T11:29:27.929Z</time>
      </trkpt>
      <trkpt lat="38.87823667" lon="-9.040205">
        <ele>5.0</ele>
        <time>2019-05-16T11:29:28.911Z</time>
      </trkpt>
      <trkpt lat="38.87823667" lon="-9.040205">
        <ele>5.0</ele>
        <time>2019-05-16T11:29:29.923Z</time>
      </trkpt>
      <trkpt lat="38.87828167" lon="-9.04025833">
        <ele>5.0</ele>
        <time>2019-05-16T11:29:30.897Z</time>
      </trkpt>
      <trkpt lat="38.87828167" lon="-9.04025833">
        <ele>5.0</ele>
        <time>2019-05-16T11:29:31.932Z</time>
      </trkpt>
      <trkpt lat="38.87832" lon="-9.040315">
        <ele>5.0</ele>
        <time>2019-05-16T11:29:32.906Z</time>
      </trkpt>
      <trkpt lat="38.87832" lon="-9.040315">
        <ele>5.0</ele>
        <time>2019-05-16T11:29:33.900Z</time>
      </trkpt>
      <trkpt lat="38.87836167" lon="-9.04036833">
        <ele>5.0</ele>
        <time>2019-05-16T11:29:34.913Z</time>
      </trkpt>
      <trkpt lat="38.87836167" lon="-9.04036833">
        <ele>5.0</ele>
        <time>2019-05-16T11:29:35.901Z</time>
      </trkpt>
      <trkpt lat="38.87840167" lon="-9.04042333">
        <ele>5.0</ele>
        <time>2019-05-16T11:29:36.909Z</time>
      </trkpt>
      <trkpt lat="38.87840167" lon="-9.04042333">
        <ele>5.0</ele>
        <time>2019-05-16T11:29:37.908Z</time>
      </trkpt>
      <trkpt lat="38.878445" lon="-9.04047667">
        <ele>5.0</ele>
        <time>2019-05-16T11:29:38.915Z</time>
      </trkpt>
      <trkpt lat="38.878445" lon="-9.04047667">
        <ele>5.0</ele>
        <time>2019-05-16T11:29:39.906Z</time>
      </trkpt>
      <trkpt lat="38.87848667" lon="-9.04053333">
        <ele>6.0</ele>
        <time>2019-05-16T11:29:40.914Z</time>
      </trkpt>
      <trkpt lat="38.87848667" lon="-9.04053333">
        <ele>6.0</ele>
        <time>2019-05-16T11:29:41.911Z</time>
      </trkpt>
      <trkpt lat="38.87852833" lon="-9.040595">
        <ele>6.0</ele>
        <time>2019-05-16T11:29:42.919Z</time>
      </trkpt>
      <trkpt lat="38.87852833" lon="-9.040595">
        <ele>6.0</ele>
        <time>2019-05-16T11:29:43.901Z</time>
      </trkpt>
      <trkpt lat="38.87857167" lon="-9.04065833">
        <ele>6.0</ele>
        <time>2019-05-16T11:29:44.926Z</time>
      </trkpt>
      <trkpt lat="38.87857167" lon="-9.04065833">
        <ele>6.0</ele>
        <time>2019-05-16T11:29:45.921Z</time>
      </trkpt>
      <trkpt lat="38.87861833" lon="-9.04072167">
        <ele>6.0</ele>
        <time>2019-05-16T11:29:46.931Z</time>
      </trkpt>
      <trkpt lat="38.87861833" lon="-9.04072167">
        <ele>6.0</ele>
        <time>2019-05-16T11:29:47.933Z</time>
      </trkpt>
      <trkpt lat="38.87866167" lon="-9.040785">
        <ele>6.0</ele>
        <time>2019-05-16T11:29:48.903Z</time>
      </trkpt>
      <trkpt lat="38.87866167" lon="-9.040785">
        <ele>6.0</ele>
        <time>2019-05-16T11:29:49.925Z</time>
      </trkpt>
      <trkpt lat="38.87870167" lon="-9.04084">
        <ele>6.0</ele>
        <time>2019-05-16T11:29:50.937Z</time>
      </trkpt>
      <trkpt lat="38.87870167" lon="-9.04084">
        <ele>6.0</ele>
        <time>2019-05-16T11:29:51.904Z</time>
      </trkpt>
      <trkpt lat="38.87874167" lon="-9.04090333">
        <ele>6.0</ele>
        <time>2019-05-16T11:29:52.917Z</time>
      </trkpt>
      <trkpt lat="38.87874167" lon="-9.04090333">
        <ele>6.0</ele>
        <time>2019-05-16T11:29:53.930Z</time>
      </trkpt>
      <trkpt lat="38.87878333" lon="-9.040965">
        <ele>6.0</ele>
        <time>2019-05-16T11:29:54.900Z</time>
      </trkpt>
      <trkpt lat="38.87878333" lon="-9.040965">
        <ele>6.0</ele>
        <time>2019-05-16T11:29:55.917Z</time>
      </trkpt>
      <trkpt lat="38.87882667" lon="-9.04102333">
        <ele>6.0</ele>
        <time>2019-05-16T11:29:56.924Z</time>
      </trkpt>
      <trkpt lat="38.87884833" lon="-9.041055">
        <ele>6.0</ele>
        <time>2019-05-16T11:29:57.922Z</time>
      </trkpt>
      <trkpt lat="38.87884833" lon="-9.041055">
        <ele>6.0</ele>
        <time>2019-05-16T11:29:58.911Z</time>
      </trkpt>
      <trkpt lat="38.87889167" lon="-9.04112">
        <ele>6.0</ele>
        <time>2019-05-16T11:29:59.926Z</time>
      </trkpt>
      <trkpt lat="38.87891667" lon="-9.04115">
        <ele>6.0</ele>
        <time>2019-05-16T11:30:00.931Z</time>
      </trkpt>
      <trkpt lat="38.87891667" lon="-9.04115">
        <ele>6.0</ele>
        <time>2019-05-16T11:30:01.900Z</time>
      </trkpt>
      <trkpt lat="38.87896333" lon="-9.04121667">
        <ele>6.0</ele>
        <time>2019-05-16T11:30:02.910Z</time>
      </trkpt>
      <trkpt lat="38.87896333" lon="-9.04121667">
        <ele>6.0</ele>
        <time>2019-05-16T11:30:03.916Z</time>
      </trkpt>
      <trkpt lat="38.87901167" lon="-9.04127833">
        <ele>6.0</ele>
        <time>2019-05-16T11:30:04.930Z</time>
      </trkpt>
      <trkpt lat="38.87901167" lon="-9.04127833">
        <ele>6.0</ele>
        <time>2019-05-16T11:30:05.898Z</time>
      </trkpt>
      <trkpt lat="38.87905833" lon="-9.04134167">
        <ele>7.0</ele>
        <time>2019-05-16T11:30:06.913Z</time>
      </trkpt>
      <trkpt lat="38.87905833" lon="-9.04134167">
        <ele>7.0</ele>
        <time>2019-05-16T11:30:07.921Z</time>
      </trkpt>
      <trkpt lat="38.879105" lon="-9.04141167">
        <ele>7.0</ele>
        <time>2019-05-16T11:30:08.937Z</time>
      </trkpt>
      <trkpt lat="38.879105" lon="-9.04141167">
        <ele>7.0</ele>
        <time>2019-05-16T11:30:09.916Z</time>
      </trkpt>
      <trkpt lat="38.87915" lon="-9.04147833">
        <ele>7.0</ele>
        <time>2019-05-16T11:30:10.924Z</time>
      </trkpt>
      <trkpt lat="38.87917333" lon="-9.04151">
        <ele>7.0</ele>
        <time>2019-05-16T11:30:11.937Z</time>
      </trkpt>
      <trkpt lat="38.879195" lon="-9.04154333">
        <ele>7.0</ele>
        <time>2019-05-16T11:30:12.927Z</time>
      </trkpt>
      <trkpt lat="38.879195" lon="-9.04154333">
        <ele>7.0</ele>
        <time>2019-05-16T11:30:13.922Z</time>
      </trkpt>
      <trkpt lat="38.87924667" lon="-9.04159833">
        <ele>7.0</ele>
        <time>2019-05-16T11:30:14.931Z</time>
      </trkpt>
      <trkpt lat="38.87924667" lon="-9.04159833">
        <ele>7.0</ele>
        <time>2019-05-16T11:30:15.913Z</time>
      </trkpt>
      <trkpt lat="38.879305" lon="-9.04166">
        <ele>7.0</ele>
        <time>2019-05-16T11:30:16.922Z</time>
      </trkpt>
      <trkpt lat="38.879305" lon="-9.04166">
        <ele>7.0</ele>
        <time>2019-05-16T11:30:17.903Z</time>
      </trkpt>
      <trkpt lat="38.879355" lon="-9.04172167">
        <ele>7.0</ele>
        <time>2019-05-16T11:30:18.921Z</time>
      </trkpt>
      <trkpt lat="38.879355" lon="-9.04172167">
        <ele>7.0</ele>
        <time>2019-05-16T11:30:19.913Z</time>
      </trkpt>
      <trkpt lat="38.87939833" lon="-9.04177667">
        <ele>7.0</ele>
        <time>2019-05-16T11:30:20.910Z</time>
      </trkpt>
      <trkpt lat="38.87939833" lon="-9.04177667">
        <ele>7.0</ele>
        <time>2019-05-16T11:30:21.917Z</time>
      </trkpt>
      <trkpt lat="38.87944333" lon="-9.041825">
        <ele>8.0</ele>
        <time>2019-05-16T11:30:22.935Z</time>
      </trkpt>
      <trkpt lat="38.87944333" lon="-9.041825">
        <ele>8.0</ele>
        <time>2019-05-16T11:30:23.899Z</time>
      </trkpt>
      <trkpt lat="38.87948333" lon="-9.04187833">
        <ele>8.0</ele>
        <time>2019-05-16T11:30:24.908Z</time>
      </trkpt>
      <trkpt lat="38.87948333" lon="-9.04187833">
        <ele>8.0</ele>
        <time>2019-05-16T11:30:25.909Z</time>
      </trkpt>
      <trkpt lat="38.87953" lon="-9.04193333">
        <ele>8.0</ele>
        <time>2019-05-16T11:30:26.918Z</time>
      </trkpt>
      <trkpt lat="38.87953" lon="-9.04193333">
        <ele>8.0</ele>
        <time>2019-05-16T11:30:27.900Z</time>
      </trkpt>
      <trkpt lat="38.87956833" lon="-9.04198833">
        <ele>8.0</ele>
        <time>2019-05-16T11:30:28.934Z</time>
      </trkpt>
      <trkpt lat="38.87959" lon="-9.04201167">
        <ele>8.0</ele>
        <time>2019-05-16T11:30:29.929Z</time>
      </trkpt>
      <trkpt lat="38.87960833" lon="-9.04204">
        <ele>8.0</ele>
        <time>2019-05-16T11:30:30.927Z</time>
      </trkpt>
      <trkpt lat="38.87960833" lon="-9.04204">
        <ele>8.0</ele>
        <time>2019-05-16T11:30:31.923Z</time>
      </trkpt>
      <trkpt lat="38.87965167" lon="-9.04209833">
        <ele>8.0</ele>
        <time>2019-05-16T11:30:32.935Z</time>
      </trkpt>
      <trkpt lat="38.87965167" lon="-9.04209833">
        <ele>8.0</ele>
        <time>2019-05-16T11:30:33.901Z</time>
      </trkpt>
      <trkpt lat="38.87969833" lon="-9.04215333">
        <ele>8.0</ele>
        <time>2019-05-16T11:30:34.914Z</time>
      </trkpt>
      <trkpt lat="38.87969833" lon="-9.04215333">
        <ele>8.0</ele>
        <time>2019-05-16T11:30:35.898Z</time>
      </trkpt>
      <trkpt lat="38.87974167" lon="-9.04221333">
        <ele>8.0</ele>
        <time>2019-05-16T11:30:36.906Z</time>
      </trkpt>
      <trkpt lat="38.87974167" lon="-9.04221333">
        <ele>8.0</ele>
        <time>2019-05-16T11:30:37.919Z</time>
      </trkpt>
      <trkpt lat="38.87978833" lon="-9.04227667">
        <ele>8.0</ele>
        <time>2019-05-16T11:30:38.900Z</time>
      </trkpt>
      <trkpt lat="38.87981333" lon="-9.04230667">
        <ele>8.0</ele>
        <time>2019-05-16T11:30:39.922Z</time>
      </trkpt>
      <trkpt lat="38.87981333" lon="-9.04230667">
        <ele>8.0</ele>
        <time>2019-05-16T11:30:40.928Z</time>
      </trkpt>
      <trkpt lat="38.87986333" lon="-9.04233333">
        <ele>8.0</ele>
        <time>2019-05-16T11:30:41.898Z</time>
      </trkpt>
      <trkpt lat="38.879885" lon="-9.04232333">
        <ele>8.0</ele>
        <time>2019-05-16T11:30:42.898Z</time>
      </trkpt>
      <trkpt lat="38.879885" lon="-9.04232333">
        <ele>8.0</ele>
        <time>2019-05-16T11:30:43.900Z</time>
      </trkpt>
      <trkpt lat="38.87991667" lon="-9.04228">
        <ele>8.0</ele>
        <time>2019-05-16T11:30:44.910Z</time>
      </trkpt>
      <trkpt lat="38.87991667" lon="-9.04228">
        <ele>8.0</ele>
        <time>2019-05-16T11:30:45.912Z</time>
      </trkpt>
      <trkpt lat="38.87994" lon="-9.04222667">
        <ele>8.0</ele>
        <time>2019-05-16T11:30:46.932Z</time>
      </trkpt>
      <trkpt lat="38.87994" lon="-9.04222667">
        <ele>8.0</ele>
        <time>2019-05-16T11:30:47.901Z</time>
      </trkpt>
      <trkpt lat="38.87996833" lon="-9.04220333">
        <ele>8.0</ele>
        <time>2019-05-16T11:30:48.911Z</time>
      </trkpt>
      <trkpt lat="38.87996833" lon="-9.04220333">
        <ele>8.0</ele>
        <time>2019-05-16T11:30:49.904Z</time>
      </trkpt>
      <trkpt lat="38.880005" lon="-9.04219167">
        <ele>7.0</ele>
        <time>2019-05-16T11:30:50.920Z</time>
      </trkpt>
      <trkpt lat="38.880005" lon="-9.04219167">
        <ele>7.0</ele>
        <time>2019-05-16T11:30:51.904Z</time>
      </trkpt>
      <trkpt lat="38.88005833" lon="-9.04221333">
        <ele>7.0</ele>
        <time>2019-05-16T11:30:52.925Z</time>
      </trkpt>
      <trkpt lat="38.88005833" lon="-9.04221333">
        <ele>7.0</ele>
        <time>2019-05-16T11:30:53.911Z</time>
      </trkpt>
      <trkpt lat="38.88011" lon="-9.04226">
        <ele>7.0</ele>
        <time>2019-05-16T11:30:54.918Z</time>
      </trkpt>
      <trkpt lat="38.88011" lon="-9.04226">
        <ele>7.0</ele>
        <time>2019-05-16T11:30:55.899Z</time>
      </trkpt>
      <trkpt lat="38.88015667" lon="-9.04229">
        <ele>6.0</ele>
        <time>2019-05-16T11:30:56.916Z</time>
      </trkpt>
      <trkpt lat="38.88015667" lon="-9.04229">
        <ele>6.0</ele>
        <time>2019-05-16T11:30:57.936Z</time>
      </trkpt>
      <trkpt lat="38.88018833" lon="-9.04232833">
        <ele>6.0</ele>
        <time>2019-05-16T11:30:58.898Z</time>
      </trkpt>
      <trkpt lat="38.880205" lon="-9.04234333">
        <ele>6.0</ele>
        <time>2019-05-16T11:30:59.922Z</time>
      </trkpt>
      <trkpt lat="38.880205" lon="-9.04234333">
        <ele>6.0</ele>
        <time>2019-05-16T11:31:00.901Z</time>
      </trkpt>
      <trkpt lat="38.88023667" lon="-9.04238">
        <ele>5.0</ele>
        <time>2019-05-16T11:31:01.911Z</time>
      </trkpt>
      <trkpt lat="38.88023667" lon="-9.04238">
        <ele>5.0</ele>
        <time>2019-05-16T11:31:02.899Z</time>
      </trkpt>
      <trkpt lat="38.880255" lon="-9.04239833">
        <ele>5.0</ele>
        <time>2019-05-16T11:31:03.912Z</time>
      </trkpt>
      <trkpt lat="38.880255" lon="-9.04239833">
        <ele>5.0</ele>
        <time>2019-05-16T11:31:04.934Z</time>
      </trkpt>
      <trkpt lat="38.88025667" lon="-9.0424">
        <ele>5.0</ele>
        <time>2019-05-16T11:31:05.906Z</time>
      </trkpt>
      <trkpt lat="38.88025667" lon="-9.0424">
        <ele>5.0</ele>
        <time>2019-05-16T11:31:06.911Z</time>
      </trkpt>
      <trkpt lat="38.88025667" lon="-9.0424">
        <ele>5.0</ele>
        <time>2019-05-16T11:31:07.918Z</time>
      </trkpt>
      <trkpt lat="38.88025667" lon="-9.0424">
        <ele>5.0</ele>
        <time>2019-05-16T11:31:08.931Z</time>
      </trkpt>
      <trkpt lat="38.88025667" lon="-9.0424">
        <ele>5.0</ele>
        <time>2019-05-16T11:31:09.897Z</time>
      </trkpt>
      <trkpt lat="38.88027667" lon="-9.04242">
        <ele>5.0</ele>
        <time>2019-05-16T11:31:10.924Z</time>
      </trkpt>
      <trkpt lat="38.88027667" lon="-9.04242">
        <ele>5.0</ele>
        <time>2019-05-16T11:31:11.911Z</time>
      </trkpt>
      <trkpt lat="38.88030833" lon="-9.04245333">
        <ele>5.0</ele>
        <time>2019-05-16T11:31:12.902Z</time>
      </trkpt>
      <trkpt lat="38.88030833" lon="-9.04245333">
        <ele>5.0</ele>
        <time>2019-05-16T11:31:13.898Z</time>
      </trkpt>
      <trkpt lat="38.88034667" lon="-9.04248833">
        <ele>4.0</ele>
        <time>2019-05-16T11:31:14.924Z</time>
      </trkpt>
      <trkpt lat="38.88034667" lon="-9.04248833">
        <ele>4.0</ele>
        <time>2019-05-16T11:31:15.910Z</time>
      </trkpt>
      <trkpt lat="38.88038333" lon="-9.04252833">
        <ele>4.0</ele>
        <time>2019-05-16T11:31:16.966Z</time>
      </trkpt>
      <trkpt lat="38.88038333" lon="-9.04252833">
        <ele>4.0</ele>
        <time>2019-05-16T11:31:17.899Z</time>
      </trkpt>
      <trkpt lat="38.88042" lon="-9.04257">
        <ele>4.0</ele>
        <time>2019-05-16T11:31:18.924Z</time>
      </trkpt>
      <trkpt lat="38.88042" lon="-9.04257">
        <ele>4.0</ele>
        <time>2019-05-16T11:31:19.909Z</time>
      </trkpt>
      <trkpt lat="38.88045333" lon="-9.042615">
        <ele>4.0</ele>
        <time>2019-05-16T11:31:20.903Z</time>
      </trkpt>
      <trkpt lat="38.88045333" lon="-9.042615">
        <ele>4.0</ele>
        <time>2019-05-16T11:31:21.922Z</time>
      </trkpt>
      <trkpt lat="38.88049333" lon="-9.04266">
        <ele>3.0</ele>
        <time>2019-05-16T11:31:22.934Z</time>
      </trkpt>
      <trkpt lat="38.88049333" lon="-9.04266">
        <ele>3.0</ele>
        <time>2019-05-16T11:31:23.922Z</time>
      </trkpt>
      <trkpt lat="38.880535" lon="-9.042705">
        <ele>3.0</ele>
        <time>2019-05-16T11:31:24.912Z</time>
      </trkpt>
      <trkpt lat="38.880535" lon="-9.042705">
        <ele>3.0</ele>
        <time>2019-05-16T11:31:25.932Z</time>
      </trkpt>
      <trkpt lat="38.88057833" lon="-9.04275333">
        <ele>3.0</ele>
        <time>2019-05-16T11:31:26.901Z</time>
      </trkpt>
      <trkpt lat="38.88057833" lon="-9.04275333">
        <ele>3.0</ele>
        <time>2019-05-16T11:31:27.901Z</time>
      </trkpt>
      <trkpt lat="38.880625" lon="-9.04280333">
        <ele>3.0</ele>
        <time>2019-05-16T11:31:28.923Z</time>
      </trkpt>
      <trkpt lat="38.88065" lon="-9.042825">
        <ele>3.0</ele>
        <time>2019-05-16T11:31:29.992Z</time>
      </trkpt>
      <trkpt lat="38.88067667" lon="-9.04284667">
        <ele>3.0</ele>
        <time>2019-05-16T11:31:30.899Z</time>
      </trkpt>
      <trkpt lat="38.88067667" lon="-9.04284667">
        <ele>3.0</ele>
        <time>2019-05-16T11:31:31.918Z</time>
      </trkpt>
      <trkpt lat="38.880735" lon="-9.04288667">
        <ele>3.0</ele>
        <time>2019-05-16T11:31:32.935Z</time>
      </trkpt>
      <trkpt lat="38.88076167" lon="-9.042905">
        <ele>4.0</ele>
        <time>2019-05-16T11:31:33.903Z</time>
      </trkpt>
      <trkpt lat="38.88076167" lon="-9.042905">
        <ele>4.0</ele>
        <time>2019-05-16T11:31:34.905Z</time>
      </trkpt>
      <trkpt lat="38.88081667" lon="-9.042935">
        <ele>4.0</ele>
        <time>2019-05-16T11:31:35.915Z</time>
      </trkpt>
      <trkpt lat="38.88084167" lon="-9.04294833">
        <ele>4.0</ele>
        <time>2019-05-16T11:31:36.901Z</time>
      </trkpt>
      <trkpt lat="38.88084167" lon="-9.04294833">
        <ele>4.0</ele>
        <time>2019-05-16T11:31:37.912Z</time>
      </trkpt>
      <trkpt lat="38.88089" lon="-9.04297667">
        <ele>4.0</ele>
        <time>2019-05-16T11:31:38.897Z</time>
      </trkpt>
      <trkpt lat="38.88089" lon="-9.04297667">
        <ele>4.0</ele>
        <time>2019-05-16T11:31:39.919Z</time>
      </trkpt>
      <trkpt lat="38.88094" lon="-9.04299333">
        <ele>4.0</ele>
        <time>2019-05-16T11:31:40.915Z</time>
      </trkpt>
      <trkpt lat="38.88094" lon="-9.04299333">
        <ele>4.0</ele>
        <time>2019-05-16T11:31:41.921Z</time>
      </trkpt>
      <trkpt lat="38.88099333" lon="-9.043">
        <ele>5.0</ele>
        <time>2019-05-16T11:31:42.936Z</time>
      </trkpt>
      <trkpt lat="38.88099333" lon="-9.043">
        <ele>5.0</ele>
        <time>2019-05-16T11:31:43.935Z</time>
      </trkpt>
      <trkpt lat="38.88104167" lon="-9.04299167">
        <ele>5.0</ele>
        <time>2019-05-16T11:31:44.904Z</time>
      </trkpt>
      <trkpt lat="38.88104167" lon="-9.04299167">
        <ele>5.0</ele>
        <time>2019-05-16T11:31:45.926Z</time>
      </trkpt>
      <trkpt lat="38.881095" lon="-9.04297333">
        <ele>5.0</ele>
        <time>2019-05-16T11:31:46.903Z</time>
      </trkpt>
      <trkpt lat="38.881095" lon="-9.04297333">
        <ele>5.0</ele>
        <time>2019-05-16T11:31:47.898Z</time>
      </trkpt>
      <trkpt lat="38.88113833" lon="-9.04294">
        <ele>5.0</ele>
        <time>2019-05-16T11:31:48.931Z</time>
      </trkpt>
      <trkpt lat="38.88113833" lon="-9.04294">
        <ele>5.0</ele>
        <time>2019-05-16T11:31:49.923Z</time>
      </trkpt>
      <trkpt lat="38.88117167" lon="-9.04289333">
        <ele>4.0</ele>
        <time>2019-05-16T11:31:50.936Z</time>
      </trkpt>
      <trkpt lat="38.88117167" lon="-9.04289333">
        <ele>4.0</ele>
        <time>2019-05-16T11:31:51.934Z</time>
      </trkpt>
      <trkpt lat="38.88119833" lon="-9.042845">
        <ele>4.0</ele>
        <time>2019-05-16T11:31:52.919Z</time>
      </trkpt>
      <trkpt lat="38.88119833" lon="-9.042845">
        <ele>4.0</ele>
        <time>2019-05-16T11:31:53.905Z</time>
      </trkpt>
      <trkpt lat="38.88121167" lon="-9.04279167">
        <ele>4.0</ele>
        <time>2019-05-16T11:31:54.915Z</time>
      </trkpt>
      <trkpt lat="38.88121167" lon="-9.04279167">
        <ele>4.0</ele>
        <time>2019-05-16T11:31:55.912Z</time>
      </trkpt>
      <trkpt lat="38.88124333" lon="-9.04277667">
        <ele>4.0</ele>
        <time>2019-05-16T11:31:56.921Z</time>
      </trkpt>
      <trkpt lat="38.88124333" lon="-9.04277667">
        <ele>4.0</ele>
        <time>2019-05-16T11:31:57.901Z</time>
      </trkpt>
      <trkpt lat="38.88124833" lon="-9.04280333">
        <ele>3.0</ele>
        <time>2019-05-16T11:31:58.920Z</time>
      </trkpt>
      <trkpt lat="38.88124833" lon="-9.04280333">
        <ele>3.0</ele>
        <time>2019-05-16T11:31:59.906Z</time>
      </trkpt>
      <trkpt lat="38.88123167" lon="-9.04282667">
        <ele>3.0</ele>
        <time>2019-05-16T11:32:00.923Z</time>
      </trkpt>
      <trkpt lat="38.88123167" lon="-9.04282667">
        <ele>3.0</ele>
        <time>2019-05-16T11:32:01.913Z</time>
      </trkpt>
      <trkpt lat="38.88121167" lon="-9.042845">
        <ele>3.0</ele>
        <time>2019-05-16T11:32:02.927Z</time>
      </trkpt>
      <trkpt lat="38.88121167" lon="-9.042845">
        <ele>3.0</ele>
        <time>2019-05-16T11:32:03.919Z</time>
      </trkpt>
      <trkpt lat="38.88119167" lon="-9.04287833">
        <ele>3.0</ele>
        <time>2019-05-16T11:32:04.928Z</time>
      </trkpt>
      <trkpt lat="38.88117833" lon="-9.04289667">
        <ele>3.0</ele>
        <time>2019-05-16T11:32:05.936Z</time>
      </trkpt>
      <trkpt lat="38.88115833" lon="-9.042915">
        <ele>3.0</ele>
        <time>2019-05-16T11:32:06.909Z</time>
      </trkpt>
      <trkpt lat="38.88115833" lon="-9.042915">
        <ele>3.0</ele>
        <time>2019-05-16T11:32:07.911Z</time>
      </trkpt>
      <trkpt lat="38.881125" lon="-9.04294333">
        <ele>3.0</ele>
        <time>2019-05-16T11:32:08.954Z</time>
      </trkpt>
      <trkpt lat="38.881125" lon="-9.04294333">
        <ele>3.0</ele>
        <time>2019-05-16T11:32:09.901Z</time>
      </trkpt>
      <trkpt lat="38.88112833" lon="-9.04297667">
        <ele>3.0</ele>
        <time>2019-05-16T11:32:10.909Z</time>
      </trkpt>
      <trkpt lat="38.88112833" lon="-9.04297667">
        <ele>3.0</ele>
        <time>2019-05-16T11:32:11.929Z</time>
      </trkpt>
      <trkpt lat="38.88115167" lon="-9.04296667">
        <ele>2.0</ele>
        <time>2019-05-16T11:32:12.900Z</time>
      </trkpt>
      <trkpt lat="38.88115167" lon="-9.04296667">
        <ele>2.0</ele>
        <time>2019-05-16T11:32:13.913Z</time>
      </trkpt>
      <trkpt lat="38.881185" lon="-9.04292333">
        <ele>2.0</ele>
        <time>2019-05-16T11:32:14.908Z</time>
      </trkpt>
      <trkpt lat="38.881185" lon="-9.04292333">
        <ele>2.0</ele>
        <time>2019-05-16T11:32:15.903Z</time>
      </trkpt>
      <trkpt lat="38.88123" lon="-9.04287333">
        <ele>2.0</ele>
        <time>2019-05-16T11:32:16.911Z</time>
      </trkpt>
      <trkpt lat="38.88123" lon="-9.04287333">
        <ele>2.0</ele>
        <time>2019-05-16T11:32:17.912Z</time>
      </trkpt>
      <trkpt lat="38.88128333" lon="-9.04282167">
        <ele>2.0</ele>
        <time>2019-05-16T11:32:18.929Z</time>
      </trkpt>
      <trkpt lat="38.88128333" lon="-9.04282167">
        <ele>2.0</ele>
        <time>2019-05-16T11:32:19.929Z</time>
      </trkpt>
      <trkpt lat="38.881345" lon="-9.04276167">
        <ele>2.0</ele>
        <time>2019-05-16T11:32:20.922Z</time>
      </trkpt>
      <trkpt lat="38.881345" lon="-9.04276167">
        <ele>2.0</ele>
        <time>2019-05-16T11:32:21.900Z</time>
      </trkpt>
      <trkpt lat="38.881405" lon="-9.04269833">
        <ele>2.0</ele>
        <time>2019-05-16T11:32:22.907Z</time>
      </trkpt>
      <trkpt lat="38.881405" lon="-9.04269833">
        <ele>2.0</ele>
        <time>2019-05-16T11:32:23.915Z</time>
      </trkpt>
      <trkpt lat="38.881465" lon="-9.04263333">
        <ele>2.0</ele>
        <time>2019-05-16T11:32:24.923Z</time>
      </trkpt>
      <trkpt lat="38.881465" lon="-9.04263333">
        <ele>2.0</ele>
        <time>2019-05-16T11:32:25.917Z</time>
      </trkpt>
      <trkpt lat="38.88152833" lon="-9.04256667">
        <ele>2.0</ele>
        <time>2019-05-16T11:32:26.924Z</time>
      </trkpt>
      <trkpt lat="38.88152833" lon="-9.04256667">
        <ele>2.0</ele>
        <time>2019-05-16T11:32:27.920Z</time>
      </trkpt>
      <trkpt lat="38.88159667" lon="-9.0425">
        <ele>1.0</ele>
        <time>2019-05-16T11:32:28.936Z</time>
      </trkpt>
      <trkpt lat="38.88159667" lon="-9.0425">
        <ele>1.0</ele>
        <time>2019-05-16T11:32:29.911Z</time>
      </trkpt>
      <trkpt lat="38.88166667" lon="-9.042425">
        <ele>1.0</ele>
        <time>2019-05-16T11:32:30.923Z</time>
      </trkpt>
      <trkpt lat="38.88166667" lon="-9.042425">
        <ele>1.0</ele>
        <time>2019-05-16T11:32:31.924Z</time>
      </trkpt>
      <trkpt lat="38.88174333" lon="-9.04235">
        <ele>1.0</ele>
        <time>2019-05-16T11:32:32.932Z</time>
      </trkpt>
      <trkpt lat="38.88174333" lon="-9.04235">
        <ele>1.0</ele>
        <time>2019-05-16T11:32:33.910Z</time>
      </trkpt>
      <trkpt lat="38.88183167" lon="-9.042265">
        <ele>1.0</ele>
        <time>2019-05-16T11:32:34.924Z</time>
      </trkpt>
      <trkpt lat="38.88183167" lon="-9.042265">
        <ele>1.0</ele>
        <time>2019-05-16T11:32:35.921Z</time>
      </trkpt>
      <trkpt lat="38.88192333" lon="-9.04217667">
        <ele>1.0</ele>
        <time>2019-05-16T11:32:36.939Z</time>
      </trkpt>
      <trkpt lat="38.88192333" lon="-9.04217667">
        <ele>1.0</ele>
        <time>2019-05-16T11:32:37.922Z</time>
      </trkpt>
      <trkpt lat="38.88201167" lon="-9.04209667">
        <ele>1.0</ele>
        <time>2019-05-16T11:32:38.933Z</time>
      </trkpt>
      <trkpt lat="38.88201167" lon="-9.04209667">
        <ele>1.0</ele>
        <time>2019-05-16T11:32:39.910Z</time>
      </trkpt>
      <trkpt lat="38.88209333" lon="-9.04201833">
        <ele>1.0</ele>
        <time>2019-05-16T11:32:40.910Z</time>
      </trkpt>
      <trkpt lat="38.88209333" lon="-9.04201833">
        <ele>1.0</ele>
        <time>2019-05-16T11:32:41.934Z</time>
      </trkpt>
      <trkpt lat="38.88217" lon="-9.041935">
        <ele>1.0</ele>
        <time>2019-05-16T11:32:42.902Z</time>
      </trkpt>
      <trkpt lat="38.88217" lon="-9.041935">
        <ele>1.0</ele>
        <time>2019-05-16T11:32:43.927Z</time>
      </trkpt>
      <trkpt lat="38.88224" lon="-9.04185">
        <ele>1.0</ele>
        <time>2019-05-16T11:32:44.937Z</time>
      </trkpt>
      <trkpt lat="38.88224" lon="-9.04185">
        <ele>1.0</ele>
        <time>2019-05-16T11:32:45.901Z</time>
      </trkpt>
      <trkpt lat="38.88231667" lon="-9.04177167">
        <ele>1.0</ele>
        <time>2019-05-16T11:32:46.911Z</time>
      </trkpt>
      <trkpt lat="38.88235667" lon="-9.04173167">
        <ele>1.0</ele>
        <time>2019-05-16T11:32:47.920Z</time>
      </trkpt>
      <trkpt lat="38.88235667" lon="-9.04173167">
        <ele>1.0</ele>
        <time>2019-05-16T11:32:48.917Z</time>
      </trkpt>
      <trkpt lat="38.88243167" lon="-9.04164667">
        <ele>2.0</ele>
        <time>2019-05-16T11:32:49.927Z</time>
      </trkpt>
      <trkpt lat="38.88246667" lon="-9.04160833">
        <ele>2.0</ele>
        <time>2019-05-16T11:32:50.928Z</time>
      </trkpt>
      <trkpt lat="38.88246667" lon="-9.04160833">
        <ele>2.0</ele>
        <time>2019-05-16T11:32:51.922Z</time>
      </trkpt>
      <trkpt lat="38.88253833" lon="-9.04153833">
        <ele>2.0</ele>
        <time>2019-05-16T11:32:52.907Z</time>
      </trkpt>
      <trkpt lat="38.88253833" lon="-9.04153833">
        <ele>2.0</ele>
        <time>2019-05-16T11:32:53.930Z</time>
      </trkpt>
      <trkpt lat="38.88261" lon="-9.041475">
        <ele>2.0</ele>
        <time>2019-05-16T11:32:54.900Z</time>
      </trkpt>
      <trkpt lat="38.88261" lon="-9.041475">
        <ele>2.0</ele>
        <time>2019-05-16T11:32:55.897Z</time>
      </trkpt>
      <trkpt lat="38.88269" lon="-9.041405">
        <ele>2.0</ele>
        <time>2019-05-16T11:32:56.910Z</time>
      </trkpt>
      <trkpt lat="38.88269" lon="-9.041405">
        <ele>2.0</ele>
        <time>2019-05-16T11:32:57.906Z</time>
      </trkpt>
      <trkpt lat="38.88276" lon="-9.04133333">
        <ele>2.0</ele>
        <time>2019-05-16T11:32:58.920Z</time>
      </trkpt>
      <trkpt lat="38.88276" lon="-9.04133333">
        <ele>2.0</ele>
        <time>2019-05-16T11:32:59.914Z</time>
      </trkpt>
      <trkpt lat="38.88283" lon="-9.04127333">
        <ele>2.0</ele>
        <time>2019-05-16T11:33:00.898Z</time>
      </trkpt>
      <trkpt lat="38.88283" lon="-9.04127333">
        <ele>2.0</ele>
        <time>2019-05-16T11:33:01.901Z</time>
      </trkpt>
      <trkpt lat="38.8829" lon="-9.04121167">
        <ele>2.0</ele>
        <time>2019-05-16T11:33:02.909Z</time>
      </trkpt>
      <trkpt lat="38.8829" lon="-9.04121167">
        <ele>2.0</ele>
        <time>2019-05-16T11:33:03.911Z</time>
      </trkpt>
      <trkpt lat="38.88296667" lon="-9.04115167">
        <ele>2.0</ele>
        <time>2019-05-16T11:33:04.920Z</time>
      </trkpt>
      <trkpt lat="38.88296667" lon="-9.04115167">
        <ele>2.0</ele>
        <time>2019-05-16T11:33:05.901Z</time>
      </trkpt>
      <trkpt lat="38.88302833" lon="-9.04109">
        <ele>2.0</ele>
        <time>2019-05-16T11:33:06.914Z</time>
      </trkpt>
      <trkpt lat="38.88302833" lon="-9.04109">
        <ele>2.0</ele>
        <time>2019-05-16T11:33:07.921Z</time>
      </trkpt>
      <trkpt lat="38.88308333" lon="-9.04103167">
        <ele>2.0</ele>
        <time>2019-05-16T11:33:08.933Z</time>
      </trkpt>
      <trkpt lat="38.88308333" lon="-9.04103167">
        <ele>2.0</ele>
        <time>2019-05-16T11:33:09.904Z</time>
      </trkpt>
      <trkpt lat="38.88313833" lon="-9.04098">
        <ele>2.0</ele>
        <time>2019-05-16T11:33:10.912Z</time>
      </trkpt>
      <trkpt lat="38.88313833" lon="-9.04098">
        <ele>2.0</ele>
        <time>2019-05-16T11:33:11.931Z</time>
      </trkpt>
      <trkpt lat="38.8832" lon="-9.040915">
        <ele>2.0</ele>
        <time>2019-05-16T11:33:12.905Z</time>
      </trkpt>
      <trkpt lat="38.8832" lon="-9.040915">
        <ele>2.0</ele>
        <time>2019-05-16T11:33:13.898Z</time>
      </trkpt>
      <trkpt lat="38.88326833" lon="-9.040835">
        <ele>2.0</ele>
        <time>2019-05-16T11:33:14.926Z</time>
      </trkpt>
      <trkpt lat="38.88326833" lon="-9.040835">
        <ele>2.0</ele>
        <time>2019-05-16T11:33:15.916Z</time>
      </trkpt>
      <trkpt lat="38.88333" lon="-9.04075833">
        <ele>2.0</ele>
        <time>2019-05-16T11:33:16.923Z</time>
      </trkpt>
      <trkpt lat="38.88333" lon="-9.04075833">
        <ele>2.0</ele>
        <time>2019-05-16T11:33:17.921Z</time>
      </trkpt>
      <trkpt lat="38.88338833" lon="-9.040685">
        <ele>2.0</ele>
        <time>2019-05-16T11:33:18.936Z</time>
      </trkpt>
      <trkpt lat="38.88338833" lon="-9.040685">
        <ele>2.0</ele>
        <time>2019-05-16T11:33:19.912Z</time>
      </trkpt>
      <trkpt lat="38.88344167" lon="-9.040615">
        <ele>2.0</ele>
        <time>2019-05-16T11:33:20.935Z</time>
      </trkpt>
      <trkpt lat="38.88344167" lon="-9.040615">
        <ele>2.0</ele>
        <time>2019-05-16T11:33:21.904Z</time>
      </trkpt>
      <trkpt lat="38.88349" lon="-9.04054833">
        <ele>2.0</ele>
        <time>2019-05-16T11:33:22.915Z</time>
      </trkpt>
      <trkpt lat="38.88349" lon="-9.04054833">
        <ele>2.0</ele>
        <time>2019-05-16T11:33:23.911Z</time>
      </trkpt>
      <trkpt lat="38.88354167" lon="-9.04048167">
        <ele>2.0</ele>
        <time>2019-05-16T11:33:24.923Z</time>
      </trkpt>
      <trkpt lat="38.88354167" lon="-9.04048167">
        <ele>2.0</ele>
        <time>2019-05-16T11:33:25.915Z</time>
      </trkpt>
      <trkpt lat="38.88359333" lon="-9.04041667">
        <ele>2.0</ele>
        <time>2019-05-16T11:33:26.927Z</time>
      </trkpt>
      <trkpt lat="38.88359333" lon="-9.04041667">
        <ele>2.0</ele>
        <time>2019-05-16T11:33:27.913Z</time>
      </trkpt>
      <trkpt lat="38.88364667" lon="-9.04035">
        <ele>2.0</ele>
        <time>2019-05-16T11:33:28.934Z</time>
      </trkpt>
      <trkpt lat="38.88367333" lon="-9.04031833">
        <ele>2.0</ele>
        <time>2019-05-16T11:33:29.901Z</time>
      </trkpt>
      <trkpt lat="38.88370167" lon="-9.04028333">
        <ele>2.0</ele>
        <time>2019-05-16T11:33:30.899Z</time>
      </trkpt>
      <trkpt lat="38.88370167" lon="-9.04028333">
        <ele>2.0</ele>
        <time>2019-05-16T11:33:31.906Z</time>
      </trkpt>
      <trkpt lat="38.88376167" lon="-9.04021167">
        <ele>2.0</ele>
        <time>2019-05-16T11:33:32.920Z</time>
      </trkpt>
      <trkpt lat="38.88376167" lon="-9.04021167">
        <ele>2.0</ele>
        <time>2019-05-16T11:33:33.900Z</time>
      </trkpt>
      <trkpt lat="38.883825" lon="-9.040145">
        <ele>2.0</ele>
        <time>2019-05-16T11:33:34.920Z</time>
      </trkpt>
      <trkpt lat="38.883825" lon="-9.040145">
        <ele>2.0</ele>
        <time>2019-05-16T11:33:35.920Z</time>
      </trkpt>
      <trkpt lat="38.883895" lon="-9.040095">
        <ele>2.0</ele>
        <time>2019-05-16T11:33:36.900Z</time>
      </trkpt>
      <trkpt lat="38.883895" lon="-9.040095">
        <ele>2.0</ele>
        <time>2019-05-16T11:33:37.933Z</time>
      </trkpt>
      <trkpt lat="38.88396167" lon="-9.04004667">
        <ele>2.0</ele>
        <time>2019-05-16T11:33:38.901Z</time>
      </trkpt>
      <trkpt lat="38.88396167" lon="-9.04004667">
        <ele>2.0</ele>
        <time>2019-05-16T11:33:39.920Z</time>
      </trkpt>
      <trkpt lat="38.884025" lon="-9.04000167">
        <ele>2.0</ele>
        <time>2019-05-16T11:33:40.930Z</time>
      </trkpt>
      <trkpt lat="38.884055" lon="-9.03997833">
        <ele>2.0</ele>
        <time>2019-05-16T11:33:41.916Z</time>
      </trkpt>
      <trkpt lat="38.884055" lon="-9.03997833">
        <ele>2.0</ele>
        <time>2019-05-16T11:33:42.937Z</time>
      </trkpt>
      <trkpt lat="38.884115" lon="-9.03992833">
        <ele>2.0</ele>
        <time>2019-05-16T11:33:43.907Z</time>
      </trkpt>
      <trkpt lat="38.884115" lon="-9.03992833">
        <ele>2.0</ele>
        <time>2019-05-16T11:33:44.898Z</time>
      </trkpt>
      <trkpt lat="38.88417167" lon="-9.03987667">
        <ele>2.0</ele>
        <time>2019-05-16T11:33:45.934Z</time>
      </trkpt>
      <trkpt lat="38.8842" lon="-9.03984833">
        <ele>2.0</ele>
        <time>2019-05-16T11:33:46.918Z</time>
      </trkpt>
      <trkpt lat="38.8842" lon="-9.03984833">
        <ele>2.0</ele>
        <time>2019-05-16T11:33:47.911Z</time>
      </trkpt>
      <trkpt lat="38.88425667" lon="-9.03978333">
        <ele>2.0</ele>
        <time>2019-05-16T11:33:48.919Z</time>
      </trkpt>
      <trkpt lat="38.88425667" lon="-9.03978333">
        <ele>2.0</ele>
        <time>2019-05-16T11:33:49.904Z</time>
      </trkpt>
      <trkpt lat="38.88432167" lon="-9.03972">
        <ele>2.0</ele>
        <time>2019-05-16T11:33:50.915Z</time>
      </trkpt>
      <trkpt lat="38.88432167" lon="-9.03972">
        <ele>2.0</ele>
        <time>2019-05-16T11:33:51.906Z</time>
      </trkpt>
      <trkpt lat="38.88438" lon="-9.03965667">
        <ele>2.0</ele>
        <time>2019-05-16T11:33:52.920Z</time>
      </trkpt>
      <trkpt lat="38.88438" lon="-9.03965667">
        <ele>2.0</ele>
        <time>2019-05-16T11:33:53.929Z</time>
      </trkpt>
      <trkpt lat="38.88444167" lon="-9.03960167">
        <ele>2.0</ele>
        <time>2019-05-16T11:33:54.904Z</time>
      </trkpt>
      <trkpt lat="38.88444167" lon="-9.03960167">
        <ele>2.0</ele>
        <time>2019-05-16T11:33:55.933Z</time>
      </trkpt>
      <trkpt lat="38.8845" lon="-9.03954833">
        <ele>2.0</ele>
        <time>2019-05-16T11:33:56.901Z</time>
      </trkpt>
      <trkpt lat="38.8845" lon="-9.03954833">
        <ele>2.0</ele>
        <time>2019-05-16T11:33:57.919Z</time>
      </trkpt>
      <trkpt lat="38.88455667" lon="-9.03949">
        <ele>2.0</ele>
        <time>2019-05-16T11:33:58.933Z</time>
      </trkpt>
      <trkpt lat="38.88455667" lon="-9.03949">
        <ele>2.0</ele>
        <time>2019-05-16T11:33:59.916Z</time>
      </trkpt>
      <trkpt lat="38.88461667" lon="-9.03943333">
        <ele>1.0</ele>
        <time>2019-05-16T11:34:00.927Z</time>
      </trkpt>
      <trkpt lat="38.88461667" lon="-9.03943333">
        <ele>1.0</ele>
        <time>2019-05-16T11:34:01.911Z</time>
      </trkpt>
      <trkpt lat="38.88467333" lon="-9.03937167">
        <ele>1.0</ele>
        <time>2019-05-16T11:34:02.922Z</time>
      </trkpt>
      <trkpt lat="38.88467333" lon="-9.03937167">
        <ele>1.0</ele>
        <time>2019-05-16T11:34:03.909Z</time>
      </trkpt>
      <trkpt lat="38.88473167" lon="-9.03931167">
        <ele>1.0</ele>
        <time>2019-05-16T11:34:04.916Z</time>
      </trkpt>
      <trkpt lat="38.88473167" lon="-9.03931167">
        <ele>1.0</ele>
        <time>2019-05-16T11:34:05.921Z</time>
      </trkpt>
      <trkpt lat="38.88478833" lon="-9.03925">
        <ele>1.0</ele>
        <time>2019-05-16T11:34:06.904Z</time>
      </trkpt>
      <trkpt lat="38.88478833" lon="-9.03925">
        <ele>1.0</ele>
        <time>2019-05-16T11:34:07.921Z</time>
      </trkpt>
      <trkpt lat="38.88484333" lon="-9.03919167">
        <ele>1.0</ele>
        <time>2019-05-16T11:34:08.933Z</time>
      </trkpt>
      <trkpt lat="38.88484333" lon="-9.03919167">
        <ele>1.0</ele>
        <time>2019-05-16T11:34:09.930Z</time>
      </trkpt>
      <trkpt lat="38.8849" lon="-9.03913333">
        <ele>1.0</ele>
        <time>2019-05-16T11:34:10.899Z</time>
      </trkpt>
      <trkpt lat="38.8849" lon="-9.03913333">
        <ele>1.0</ele>
        <time>2019-05-16T11:34:11.908Z</time>
      </trkpt>
      <trkpt lat="38.884955" lon="-9.039075">
        <ele>1.0</ele>
        <time>2019-05-16T11:34:12.922Z</time>
      </trkpt>
      <trkpt lat="38.884955" lon="-9.039075">
        <ele>1.0</ele>
        <time>2019-05-16T11:34:13.911Z</time>
      </trkpt>
      <trkpt lat="38.88501" lon="-9.03901167">
        <ele>1.0</ele>
        <time>2019-05-16T11:34:14.925Z</time>
      </trkpt>
      <trkpt lat="38.88501" lon="-9.03901167">
        <ele>1.0</ele>
        <time>2019-05-16T11:34:15.932Z</time>
      </trkpt>
      <trkpt lat="38.88506667" lon="-9.03894667">
        <ele>1.0</ele>
        <time>2019-05-16T11:34:16.900Z</time>
      </trkpt>
      <trkpt lat="38.88506667" lon="-9.03894667">
        <ele>1.0</ele>
        <time>2019-05-16T11:34:17.920Z</time>
      </trkpt>
      <trkpt lat="38.88512667" lon="-9.03888667">
        <ele>1.0</ele>
        <time>2019-05-16T11:34:18.928Z</time>
      </trkpt>
      <trkpt lat="38.88512667" lon="-9.03888667">
        <ele>1.0</ele>
        <time>2019-05-16T11:34:19.907Z</time>
      </trkpt>
      <trkpt lat="38.88518167" lon="-9.03882333">
        <ele>1.0</ele>
        <time>2019-05-16T11:34:20.911Z</time>
      </trkpt>
      <trkpt lat="38.88518167" lon="-9.03882333">
        <ele>1.0</ele>
        <time>2019-05-16T11:34:21.922Z</time>
      </trkpt>
      <trkpt lat="38.88523833" lon="-9.03876833">
        <ele>1.0</ele>
        <time>2019-05-16T11:34:22.935Z</time>
      </trkpt>
      <trkpt lat="38.88523833" lon="-9.03876833">
        <ele>1.0</ele>
        <time>2019-05-16T11:34:23.935Z</time>
      </trkpt>
      <trkpt lat="38.88529" lon="-9.03872">
        <ele>1.0</ele>
        <time>2019-05-16T11:34:24.916Z</time>
      </trkpt>
      <trkpt lat="38.88529" lon="-9.03872">
        <ele>1.0</ele>
        <time>2019-05-16T11:34:25.899Z</time>
      </trkpt>
      <trkpt lat="38.88534167" lon="-9.03867333">
        <ele>1.0</ele>
        <time>2019-05-16T11:34:26.910Z</time>
      </trkpt>
      <trkpt lat="38.88534167" lon="-9.03867333">
        <ele>1.0</ele>
        <time>2019-05-16T11:34:27.915Z</time>
      </trkpt>
      <trkpt lat="38.88538667" lon="-9.03862167">
        <ele>1.0</ele>
        <time>2019-05-16T11:34:28.923Z</time>
      </trkpt>
      <trkpt lat="38.88538667" lon="-9.03862167">
        <ele>1.0</ele>
        <time>2019-05-16T11:34:29.909Z</time>
      </trkpt>
      <trkpt lat="38.885425" lon="-9.03856167">
        <ele>0.0</ele>
        <time>2019-05-16T11:34:30.922Z</time>
      </trkpt>
      <trkpt lat="38.885425" lon="-9.03856167">
        <ele>0.0</ele>
        <time>2019-05-16T11:34:31.911Z</time>
      </trkpt>
      <trkpt lat="38.88547" lon="-9.03849833">
        <ele>0.0</ele>
        <time>2019-05-16T11:34:32.920Z</time>
      </trkpt>
      <trkpt lat="38.88547" lon="-9.03849833">
        <ele>0.0</ele>
        <time>2019-05-16T11:34:33.930Z</time>
      </trkpt>
      <trkpt lat="38.88554167" lon="-9.03846">
        <ele>0.0</ele>
        <time>2019-05-16T11:34:34.903Z</time>
      </trkpt>
      <trkpt lat="38.88554167" lon="-9.03846">
        <ele>0.0</ele>
        <time>2019-05-16T11:34:35.930Z</time>
      </trkpt>
      <trkpt lat="38.885615" lon="-9.03842833">
        <ele>0.0</ele>
        <time>2019-05-16T11:34:36.901Z</time>
      </trkpt>
      <trkpt lat="38.885615" lon="-9.03842833">
        <ele>0.0</ele>
        <time>2019-05-16T11:34:37.902Z</time>
      </trkpt>
      <trkpt lat="38.88568" lon="-9.03838667">
        <ele>0.0</ele>
        <time>2019-05-16T11:34:38.923Z</time>
      </trkpt>
      <trkpt lat="38.88568" lon="-9.03838667">
        <ele>0.0</ele>
        <time>2019-05-16T11:34:39.901Z</time>
      </trkpt>
      <trkpt lat="38.885735" lon="-9.038335">
        <ele>0.0</ele>
        <time>2019-05-16T11:34:40.910Z</time>
      </trkpt>
      <trkpt lat="38.885735" lon="-9.038335">
        <ele>0.0</ele>
        <time>2019-05-16T11:34:41.915Z</time>
      </trkpt>
      <trkpt lat="38.88578333" lon="-9.038285">
        <ele>0.0</ele>
        <time>2019-05-16T11:34:42.923Z</time>
      </trkpt>
      <trkpt lat="38.88578333" lon="-9.038285">
        <ele>0.0</ele>
        <time>2019-05-16T11:34:43.902Z</time>
      </trkpt>
      <trkpt lat="38.88583333" lon="-9.03823333">
        <ele>0.0</ele>
        <time>2019-05-16T11:34:44.912Z</time>
      </trkpt>
      <trkpt lat="38.885855" lon="-9.03820667">
        <ele>0.0</ele>
        <time>2019-05-16T11:34:45.902Z</time>
      </trkpt>
      <trkpt lat="38.885855" lon="-9.03820667">
        <ele>0.0</ele>
        <time>2019-05-16T11:34:46.907Z</time>
      </trkpt>
      <trkpt lat="38.88590667" lon="-9.03815">
        <ele>0.0</ele>
        <time>2019-05-16T11:34:47.920Z</time>
      </trkpt>
      <trkpt lat="38.88593667" lon="-9.03812167">
        <ele>0.0</ele>
        <time>2019-05-16T11:34:48.925Z</time>
      </trkpt>
      <trkpt lat="38.88593667" lon="-9.03812167">
        <ele>0.0</ele>
        <time>2019-05-16T11:34:49.930Z</time>
      </trkpt>
      <trkpt lat="38.886" lon="-9.03806333">
        <ele>0.0</ele>
        <time>2019-05-16T11:34:50.898Z</time>
      </trkpt>
      <trkpt lat="38.886" lon="-9.03806333">
        <ele>0.0</ele>
        <time>2019-05-16T11:34:51.933Z</time>
      </trkpt>
      <trkpt lat="38.88605333" lon="-9.038005">
        <ele>0.0</ele>
        <time>2019-05-16T11:34:52.901Z</time>
      </trkpt>
      <trkpt lat="38.88605333" lon="-9.038005">
        <ele>0.0</ele>
        <time>2019-05-16T11:34:53.901Z</time>
      </trkpt>
      <trkpt lat="38.886105" lon="-9.03794667">
        <ele>0.0</ele>
        <time>2019-05-16T11:34:54.911Z</time>
      </trkpt>
      <trkpt lat="38.886105" lon="-9.03794667">
        <ele>0.0</ele>
        <time>2019-05-16T11:34:55.931Z</time>
      </trkpt>
      <trkpt lat="38.88615833" lon="-9.03788">
        <ele>0.0</ele>
        <time>2019-05-16T11:34:56.902Z</time>
      </trkpt>
      <trkpt lat="38.88615833" lon="-9.03788">
        <ele>0.0</ele>
        <time>2019-05-16T11:34:57.917Z</time>
      </trkpt>
      <trkpt lat="38.88622333" lon="-9.03781667">
        <ele>0.0</ele>
        <time>2019-05-16T11:34:58.933Z</time>
      </trkpt>
      <trkpt lat="38.88622333" lon="-9.03781667">
        <ele>0.0</ele>
        <time>2019-05-16T11:34:59.897Z</time>
      </trkpt>
      <trkpt lat="38.88628" lon="-9.03774333">
        <ele>0.0</ele>
        <time>2019-05-16T11:35:00.905Z</time>
      </trkpt>
      <trkpt lat="38.88628" lon="-9.03774333">
        <ele>0.0</ele>
        <time>2019-05-16T11:35:01.933Z</time>
      </trkpt>
      <trkpt lat="38.88633333" lon="-9.03766333">
        <ele>0.0</ele>
        <time>2019-05-16T11:35:02.899Z</time>
      </trkpt>
      <trkpt lat="38.88633333" lon="-9.03766333">
        <ele>0.0</ele>
        <time>2019-05-16T11:35:03.897Z</time>
      </trkpt>
      <trkpt lat="38.88638667" lon="-9.03757">
        <ele>0.0</ele>
        <time>2019-05-16T11:35:04.913Z</time>
      </trkpt>
      <trkpt lat="38.88638667" lon="-9.03757">
        <ele>0.0</ele>
        <time>2019-05-16T11:35:05.911Z</time>
      </trkpt>
      <trkpt lat="38.88644" lon="-9.037475">
        <ele>0.0</ele>
        <time>2019-05-16T11:35:06.921Z</time>
      </trkpt>
      <trkpt lat="38.88644" lon="-9.037475">
        <ele>0.0</ele>
        <time>2019-05-16T11:35:07.928Z</time>
      </trkpt>
      <trkpt lat="38.8865" lon="-9.03739">
        <ele>0.0</ele>
        <time>2019-05-16T11:35:08.916Z</time>
      </trkpt>
      <trkpt lat="38.8865" lon="-9.03739">
        <ele>0.0</ele>
        <time>2019-05-16T11:35:09.932Z</time>
      </trkpt>
      <trkpt lat="38.88656833" lon="-9.03731333">
        <ele>0.0</ele>
        <time>2019-05-16T11:35:10.902Z</time>
      </trkpt>
      <trkpt lat="38.88660167" lon="-9.037275">
        <ele>0.0</ele>
        <time>2019-05-16T11:35:11.908Z</time>
      </trkpt>
      <trkpt lat="38.88663833" lon="-9.037235">
        <ele>1.0</ele>
        <time>2019-05-16T11:35:12.927Z</time>
      </trkpt>
      <trkpt lat="38.88663833" lon="-9.037235">
        <ele>1.0</ele>
        <time>2019-05-16T11:35:13.930Z</time>
      </trkpt>
      <trkpt lat="38.88670667" lon="-9.03715667">
        <ele>1.0</ele>
        <time>2019-05-16T11:35:14.898Z</time>
      </trkpt>
      <trkpt lat="38.88670667" lon="-9.03715667">
        <ele>1.0</ele>
        <time>2019-05-16T11:35:15.931Z</time>
      </trkpt>
      <trkpt lat="38.88677333" lon="-9.03707833">
        <ele>1.0</ele>
        <time>2019-05-16T11:35:16.900Z</time>
      </trkpt>
      <trkpt lat="38.88680667" lon="-9.03704">
        <ele>1.0</ele>
        <time>2019-05-16T11:35:17.898Z</time>
      </trkpt>
      <trkpt lat="38.88684167" lon="-9.03700167">
        <ele>1.0</ele>
        <time>2019-05-16T11:35:18.924Z</time>
      </trkpt>
      <trkpt lat="38.88684167" lon="-9.03700167">
        <ele>1.0</ele>
        <time>2019-05-16T11:35:19.909Z</time>
      </trkpt>
      <trkpt lat="38.88691" lon="-9.03692833">
        <ele>1.0</ele>
        <time>2019-05-16T11:35:20.936Z</time>
      </trkpt>
      <trkpt lat="38.88694333" lon="-9.036895">
        <ele>1.0</ele>
        <time>2019-05-16T11:35:21.938Z</time>
      </trkpt>
      <trkpt lat="38.88694333" lon="-9.036895">
        <ele>1.0</ele>
        <time>2019-05-16T11:35:22.911Z</time>
      </trkpt>
      <trkpt lat="38.887015" lon="-9.03683">
        <ele>1.0</ele>
        <time>2019-05-16T11:35:23.920Z</time>
      </trkpt>
      <trkpt lat="38.88704833" lon="-9.036795">
        <ele>1.0</ele>
        <time>2019-05-16T11:35:24.898Z</time>
      </trkpt>
      <trkpt lat="38.88704833" lon="-9.036795">
        <ele>1.0</ele>
        <time>2019-05-16T11:35:25.921Z</time>
      </trkpt>
      <trkpt lat="38.88711333" lon="-9.03672167">
        <ele>1.0</ele>
        <time>2019-05-16T11:35:26.932Z</time>
      </trkpt>
      <trkpt lat="38.88711333" lon="-9.03672167">
        <ele>1.0</ele>
        <time>2019-05-16T11:35:27.931Z</time>
      </trkpt>
      <trkpt lat="38.887175" lon="-9.03664667">
        <ele>1.0</ele>
        <time>2019-05-16T11:35:28.919Z</time>
      </trkpt>
      <trkpt lat="38.887175" lon="-9.03664667">
        <ele>1.0</ele>
        <time>2019-05-16T11:35:29.919Z</time>
      </trkpt>
      <trkpt lat="38.88723667" lon="-9.03657667">
        <ele>1.0</ele>
        <time>2019-05-16T11:35:30.929Z</time>
      </trkpt>
      <trkpt lat="38.88723667" lon="-9.03657667">
        <ele>1.0</ele>
        <time>2019-05-16T11:35:31.904Z</time>
      </trkpt>
      <trkpt lat="38.88729833" lon="-9.03650833">
        <ele>1.0</ele>
        <time>2019-05-16T11:35:32.914Z</time>
      </trkpt>
      <trkpt lat="38.88729833" lon="-9.03650833">
        <ele>1.0</ele>
        <time>2019-05-16T11:35:33.912Z</time>
      </trkpt>
      <trkpt lat="38.88736" lon="-9.03643833">
        <ele>1.0</ele>
        <time>2019-05-16T11:35:34.920Z</time>
      </trkpt>
      <trkpt lat="38.88736" lon="-9.03643833">
        <ele>1.0</ele>
        <time>2019-05-16T11:35:35.909Z</time>
      </trkpt>
      <trkpt lat="38.88742333" lon="-9.036375">
        <ele>1.0</ele>
        <time>2019-05-16T11:35:36.918Z</time>
      </trkpt>
      <trkpt lat="38.88742333" lon="-9.036375">
        <ele>1.0</ele>
        <time>2019-05-16T11:35:37.921Z</time>
      </trkpt>
      <trkpt lat="38.88748333" lon="-9.03631167">
        <ele>1.0</ele>
        <time>2019-05-16T11:35:38.907Z</time>
      </trkpt>
      <trkpt lat="38.88748333" lon="-9.03631167">
        <ele>1.0</ele>
        <time>2019-05-16T11:35:39.906Z</time>
      </trkpt>
      <trkpt lat="38.887545" lon="-9.03625667">
        <ele>1.0</ele>
        <time>2019-05-16T11:35:40.923Z</time>
      </trkpt>
      <trkpt lat="38.887545" lon="-9.03625667">
        <ele>1.0</ele>
        <time>2019-05-16T11:35:41.934Z</time>
      </trkpt>
      <trkpt lat="38.88760333" lon="-9.03619667">
        <ele>1.0</ele>
        <time>2019-05-16T11:35:42.906Z</time>
      </trkpt>
      <trkpt lat="38.88760333" lon="-9.03619667">
        <ele>1.0</ele>
        <time>2019-05-16T11:35:43.934Z</time>
      </trkpt>
      <trkpt lat="38.88766167" lon="-9.03613167">
        <ele>1.0</ele>
        <time>2019-05-16T11:35:44.906Z</time>
      </trkpt>
      <trkpt lat="38.88766167" lon="-9.03613167">
        <ele>1.0</ele>
        <time>2019-05-16T11:35:45.909Z</time>
      </trkpt>
      <trkpt lat="38.88772167" lon="-9.03606">
        <ele>1.0</ele>
        <time>2019-05-16T11:35:46.922Z</time>
      </trkpt>
      <trkpt lat="38.88772167" lon="-9.03606">
        <ele>1.0</ele>
        <time>2019-05-16T11:35:47.923Z</time>
      </trkpt>
      <trkpt lat="38.887785" lon="-9.03598833">
        <ele>1.0</ele>
        <time>2019-05-16T11:35:48.933Z</time>
      </trkpt>
      <trkpt lat="38.88781833" lon="-9.035955">
        <ele>1.0</ele>
        <time>2019-05-16T11:35:49.910Z</time>
      </trkpt>
      <trkpt lat="38.88781833" lon="-9.035955">
        <ele>1.0</ele>
        <time>2019-05-16T11:35:51.051Z</time>
      </trkpt>
      <trkpt lat="38.88785167" lon="-9.03592333">
        <ele>1.0</ele>
        <time>2019-05-16T11:35:51.917Z</time>
      </trkpt>
      <trkpt lat="38.887915" lon="-9.03585667">
        <ele>1.0</ele>
        <time>2019-05-16T11:35:52.934Z</time>
      </trkpt>
      <trkpt lat="38.887915" lon="-9.03585667">
        <ele>1.0</ele>
        <time>2019-05-16T11:35:53.915Z</time>
      </trkpt>
      <trkpt lat="38.88797333" lon="-9.03578667">
        <ele>1.0</ele>
        <time>2019-05-16T11:35:54.922Z</time>
      </trkpt>
      <trkpt lat="38.88797333" lon="-9.03578667">
        <ele>1.0</ele>
        <time>2019-05-16T11:35:55.923Z</time>
      </trkpt>
      <trkpt lat="38.888035" lon="-9.03572833">
        <ele>1.0</ele>
        <time>2019-05-16T11:35:56.934Z</time>
      </trkpt>
      <trkpt lat="38.888035" lon="-9.03572833">
        <ele>1.0</ele>
        <time>2019-05-16T11:35:57.921Z</time>
      </trkpt>
      <trkpt lat="38.88809833" lon="-9.03567667">
        <ele>2.0</ele>
        <time>2019-05-16T11:35:58.936Z</time>
      </trkpt>
      <trkpt lat="38.88809833" lon="-9.03567667">
        <ele>2.0</ele>
        <time>2019-05-16T11:35:59.931Z</time>
      </trkpt>
      <trkpt lat="38.88815833" lon="-9.035615">
        <ele>2.0</ele>
        <time>2019-05-16T11:36:00.923Z</time>
      </trkpt>
      <trkpt lat="38.88815833" lon="-9.035615">
        <ele>2.0</ele>
        <time>2019-05-16T11:36:01.912Z</time>
      </trkpt>
      <trkpt lat="38.88821667" lon="-9.035555">
        <ele>2.0</ele>
        <time>2019-05-16T11:36:02.921Z</time>
      </trkpt>
      <trkpt lat="38.88821667" lon="-9.035555">
        <ele>2.0</ele>
        <time>2019-05-16T11:36:03.903Z</time>
      </trkpt>
      <trkpt lat="38.88827667" lon="-9.035495">
        <ele>1.0</ele>
        <time>2019-05-16T11:36:04.911Z</time>
      </trkpt>
      <trkpt lat="38.88827667" lon="-9.035495">
        <ele>1.0</ele>
        <time>2019-05-16T11:36:05.914Z</time>
      </trkpt>
      <trkpt lat="38.88832833" lon="-9.03543167">
        <ele>1.0</ele>
        <time>2019-05-16T11:36:06.923Z</time>
      </trkpt>
      <trkpt lat="38.88832833" lon="-9.03543167">
        <ele>1.0</ele>
        <time>2019-05-16T11:36:07.903Z</time>
      </trkpt>
      <trkpt lat="38.88837667" lon="-9.03536833">
        <ele>1.0</ele>
        <time>2019-05-16T11:36:08.911Z</time>
      </trkpt>
      <trkpt lat="38.88837667" lon="-9.03536833">
        <ele>1.0</ele>
        <time>2019-05-16T11:36:09.921Z</time>
      </trkpt>
      <trkpt lat="38.88843167" lon="-9.03531333">
        <ele>1.0</ele>
        <time>2019-05-16T11:36:10.907Z</time>
      </trkpt>
      <trkpt lat="38.88843167" lon="-9.03531333">
        <ele>1.0</ele>
        <time>2019-05-16T11:36:11.925Z</time>
      </trkpt>
      <trkpt lat="38.88848667" lon="-9.03525167">
        <ele>1.0</ele>
        <time>2019-05-16T11:36:12.934Z</time>
      </trkpt>
      <trkpt lat="38.88848667" lon="-9.03525167">
        <ele>1.0</ele>
        <time>2019-05-16T11:36:13.914Z</time>
      </trkpt>
      <trkpt lat="38.88854167" lon="-9.03519333">
        <ele>1.0</ele>
        <time>2019-05-16T11:36:14.920Z</time>
      </trkpt>
      <trkpt lat="38.88854167" lon="-9.03519333">
        <ele>1.0</ele>
        <time>2019-05-16T11:36:15.924Z</time>
      </trkpt>
      <trkpt lat="38.88859667" lon="-9.03513167">
        <ele>2.0</ele>
        <time>2019-05-16T11:36:16.905Z</time>
      </trkpt>
      <trkpt lat="38.88859667" lon="-9.03513167">
        <ele>2.0</ele>
        <time>2019-05-16T11:36:17.930Z</time>
      </trkpt>
      <trkpt lat="38.88865" lon="-9.035065">
        <ele>2.0</ele>
        <time>2019-05-16T11:36:18.905Z</time>
      </trkpt>
      <trkpt lat="38.88865" lon="-9.035065">
        <ele>2.0</ele>
        <time>2019-05-16T11:36:19.921Z</time>
      </trkpt>
      <trkpt lat="38.88870667" lon="-9.03500667">
        <ele>2.0</ele>
        <time>2019-05-16T11:36:20.904Z</time>
      </trkpt>
      <trkpt lat="38.88873667" lon="-9.03498">
        <ele>2.0</ele>
        <time>2019-05-16T11:36:21.924Z</time>
      </trkpt>
      <trkpt lat="38.88873667" lon="-9.03498">
        <ele>2.0</ele>
        <time>2019-05-16T11:36:22.922Z</time>
      </trkpt>
      <trkpt lat="38.88879333" lon="-9.03492667">
        <ele>2.0</ele>
        <time>2019-05-16T11:36:23.940Z</time>
      </trkpt>
      <trkpt lat="38.88881833" lon="-9.03489333">
        <ele>2.0</ele>
        <time>2019-05-16T11:36:24.905Z</time>
      </trkpt>
      <trkpt lat="38.88881833" lon="-9.03489333">
        <ele>2.0</ele>
        <time>2019-05-16T11:36:25.933Z</time>
      </trkpt>
      <trkpt lat="38.888875" lon="-9.03483833">
        <ele>3.0</ele>
        <time>2019-05-16T11:36:26.909Z</time>
      </trkpt>
      <trkpt lat="38.888875" lon="-9.03483833">
        <ele>3.0</ele>
        <time>2019-05-16T11:36:27.900Z</time>
      </trkpt>
      <trkpt lat="38.88893167" lon="-9.03477833">
        <ele>3.0</ele>
        <time>2019-05-16T11:36:28.929Z</time>
      </trkpt>
      <trkpt lat="38.88893167" lon="-9.03477833">
        <ele>3.0</ele>
        <time>2019-05-16T11:36:29.920Z</time>
      </trkpt>
      <trkpt lat="38.88898833" lon="-9.03471167">
        <ele>3.0</ele>
        <time>2019-05-16T11:36:30.929Z</time>
      </trkpt>
      <trkpt lat="38.88898833" lon="-9.03471167">
        <ele>3.0</ele>
        <time>2019-05-16T11:36:31.902Z</time>
      </trkpt>
      <trkpt lat="38.889045" lon="-9.03465333">
        <ele>3.0</ele>
        <time>2019-05-16T11:36:32.910Z</time>
      </trkpt>
      <trkpt lat="38.88907" lon="-9.03462333">
        <ele>3.0</ele>
        <time>2019-05-16T11:36:33.910Z</time>
      </trkpt>
      <trkpt lat="38.88907" lon="-9.03462333">
        <ele>3.0</ele>
        <time>2019-05-16T11:36:34.933Z</time>
      </trkpt>
      <trkpt lat="38.88911833" lon="-9.034575">
        <ele>4.0</ele>
        <time>2019-05-16T11:36:35.906Z</time>
      </trkpt>
      <trkpt lat="38.88914167" lon="-9.03455">
        <ele>4.0</ele>
        <time>2019-05-16T11:36:36.929Z</time>
      </trkpt>
      <trkpt lat="38.88914167" lon="-9.03455">
        <ele>4.0</ele>
        <time>2019-05-16T11:36:37.925Z</time>
      </trkpt>
      <trkpt lat="38.88919333" lon="-9.03449833">
        <ele>4.0</ele>
        <time>2019-05-16T11:36:38.934Z</time>
      </trkpt>
      <trkpt lat="38.88919333" lon="-9.03449833">
        <ele>4.0</ele>
        <time>2019-05-16T11:36:39.911Z</time>
      </trkpt>
      <trkpt lat="38.88925167" lon="-9.034445">
        <ele>4.0</ele>
        <time>2019-05-16T11:36:40.898Z</time>
      </trkpt>
      <trkpt lat="38.88925167" lon="-9.034445">
        <ele>4.0</ele>
        <time>2019-05-16T11:36:41.911Z</time>
      </trkpt>
      <trkpt lat="38.889305" lon="-9.03438333">
        <ele>4.0</ele>
        <time>2019-05-16T11:36:42.920Z</time>
      </trkpt>
      <trkpt lat="38.889305" lon="-9.03438333">
        <ele>4.0</ele>
        <time>2019-05-16T11:36:43.912Z</time>
      </trkpt>
      <trkpt lat="38.889365" lon="-9.034325">
        <ele>4.0</ele>
        <time>2019-05-16T11:36:44.919Z</time>
      </trkpt>
      <trkpt lat="38.889365" lon="-9.034325">
        <ele>4.0</ele>
        <time>2019-05-16T11:36:45.911Z</time>
      </trkpt>
      <trkpt lat="38.889425" lon="-9.03426333">
        <ele>4.0</ele>
        <time>2019-05-16T11:36:46.918Z</time>
      </trkpt>
      <trkpt lat="38.889425" lon="-9.03426333">
        <ele>4.0</ele>
        <time>2019-05-16T11:36:47.920Z</time>
      </trkpt>
      <trkpt lat="38.88948" lon="-9.03420167">
        <ele>4.0</ele>
        <time>2019-05-16T11:36:48.935Z</time>
      </trkpt>
      <trkpt lat="38.88948" lon="-9.03420167">
        <ele>4.0</ele>
        <time>2019-05-16T11:36:49.917Z</time>
      </trkpt>
      <trkpt lat="38.889535" lon="-9.034145">
        <ele>5.0</ele>
        <time>2019-05-16T11:36:50.927Z</time>
      </trkpt>
      <trkpt lat="38.889535" lon="-9.034145">
        <ele>5.0</ele>
        <time>2019-05-16T11:36:51.917Z</time>
      </trkpt>
      <trkpt lat="38.88959333" lon="-9.03409">
        <ele>6.0</ele>
        <time>2019-05-16T11:36:52.937Z</time>
      </trkpt>
      <trkpt lat="38.88959333" lon="-9.03409">
        <ele>6.0</ele>
        <time>2019-05-16T11:36:53.911Z</time>
      </trkpt>
      <trkpt lat="38.88965" lon="-9.03403">
        <ele>7.0</ele>
        <time>2019-05-16T11:36:54.921Z</time>
      </trkpt>
      <trkpt lat="38.88965" lon="-9.03403">
        <ele>7.0</ele>
        <time>2019-05-16T11:36:55.904Z</time>
      </trkpt>
      <trkpt lat="38.889705" lon="-9.03396167">
        <ele>7.0</ele>
        <time>2019-05-16T11:36:56.930Z</time>
      </trkpt>
      <trkpt lat="38.889705" lon="-9.03396167">
        <ele>7.0</ele>
        <time>2019-05-16T11:36:57.921Z</time>
      </trkpt>
      <trkpt lat="38.889755" lon="-9.03389667">
        <ele>7.0</ele>
        <time>2019-05-16T11:36:58.945Z</time>
      </trkpt>
      <trkpt lat="38.889755" lon="-9.03389667">
        <ele>7.0</ele>
        <time>2019-05-16T11:36:59.922Z</time>
      </trkpt>
      <trkpt lat="38.88980167" lon="-9.03383833">
        <ele>7.0</ele>
        <time>2019-05-16T11:37:00.897Z</time>
      </trkpt>
      <trkpt lat="38.88980167" lon="-9.03383833">
        <ele>7.0</ele>
        <time>2019-05-16T11:37:01.921Z</time>
      </trkpt>
      <trkpt lat="38.889845" lon="-9.033785">
        <ele>7.0</ele>
        <time>2019-05-16T11:37:02.897Z</time>
      </trkpt>
      <trkpt lat="38.889845" lon="-9.033785">
        <ele>7.0</ele>
        <time>2019-05-16T11:37:03.913Z</time>
      </trkpt>
      <trkpt lat="38.889885" lon="-9.03373667">
        <ele>7.0</ele>
        <time>2019-05-16T11:37:04.923Z</time>
      </trkpt>
      <trkpt lat="38.889885" lon="-9.03373667">
        <ele>7.0</ele>
        <time>2019-05-16T11:37:05.918Z</time>
      </trkpt>
      <trkpt lat="38.88992667" lon="-9.03368833">
        <ele>7.0</ele>
        <time>2019-05-16T11:37:06.928Z</time>
      </trkpt>
      <trkpt lat="38.88992667" lon="-9.03368833">
        <ele>7.0</ele>
        <time>2019-05-16T11:37:07.922Z</time>
      </trkpt>
      <trkpt lat="38.88997" lon="-9.033645">
        <ele>7.0</ele>
        <time>2019-05-16T11:37:08.907Z</time>
      </trkpt>
      <trkpt lat="38.88997" lon="-9.033645">
        <ele>7.0</ele>
        <time>2019-05-16T11:37:09.906Z</time>
      </trkpt>
      <trkpt lat="38.890015" lon="-9.033595">
        <ele>7.0</ele>
        <time>2019-05-16T11:37:10.913Z</time>
      </trkpt>
      <trkpt lat="38.890015" lon="-9.033595">
        <ele>7.0</ele>
        <time>2019-05-16T11:37:11.935Z</time>
      </trkpt>
      <trkpt lat="38.89006" lon="-9.03354167">
        <ele>7.0</ele>
        <time>2019-05-16T11:37:12.903Z</time>
      </trkpt>
      <trkpt lat="38.89006" lon="-9.03354167">
        <ele>7.0</ele>
        <time>2019-05-16T11:37:13.920Z</time>
      </trkpt>
      <trkpt lat="38.89010333" lon="-9.03349333">
        <ele>7.0</ele>
        <time>2019-05-16T11:37:14.901Z</time>
      </trkpt>
      <trkpt lat="38.89010333" lon="-9.03349333">
        <ele>7.0</ele>
        <time>2019-05-16T11:37:15.911Z</time>
      </trkpt>
      <trkpt lat="38.89014667" lon="-9.03344167">
        <ele>6.0</ele>
        <time>2019-05-16T11:37:16.919Z</time>
      </trkpt>
      <trkpt lat="38.89014667" lon="-9.03344167">
        <ele>6.0</ele>
        <time>2019-05-16T11:37:17.914Z</time>
      </trkpt>
      <trkpt lat="38.89019" lon="-9.03338833">
        <ele>7.0</ele>
        <time>2019-05-16T11:37:18.924Z</time>
      </trkpt>
      <trkpt lat="38.89019" lon="-9.03338833">
        <ele>7.0</ele>
        <time>2019-05-16T11:37:19.905Z</time>
      </trkpt>
      <trkpt lat="38.890245" lon="-9.03333833">
        <ele>6.0</ele>
        <time>2019-05-16T11:37:20.897Z</time>
      </trkpt>
      <trkpt lat="38.89027333" lon="-9.03331167">
        <ele>6.0</ele>
        <time>2019-05-16T11:37:21.938Z</time>
      </trkpt>
      <trkpt lat="38.89027333" lon="-9.03331167">
        <ele>6.0</ele>
        <time>2019-05-16T11:37:22.934Z</time>
      </trkpt>
      <trkpt lat="38.890325" lon="-9.03325">
        <ele>6.0</ele>
        <time>2019-05-16T11:37:23.913Z</time>
      </trkpt>
      <trkpt lat="38.890325" lon="-9.03325">
        <ele>6.0</ele>
        <time>2019-05-16T11:37:24.908Z</time>
      </trkpt>
      <trkpt lat="38.89035667" lon="-9.033175">
        <ele>5.0</ele>
        <time>2019-05-16T11:37:25.920Z</time>
      </trkpt>
      <trkpt lat="38.89035667" lon="-9.033175">
        <ele>5.0</ele>
        <time>2019-05-16T11:37:26.916Z</time>
      </trkpt>
      <trkpt lat="38.89038167" lon="-9.03311333">
        <ele>5.0</ele>
        <time>2019-05-16T11:37:27.926Z</time>
      </trkpt>
      <trkpt lat="38.89038167" lon="-9.03311333">
        <ele>5.0</ele>
        <time>2019-05-16T11:37:28.922Z</time>
      </trkpt>
      <trkpt lat="38.89042" lon="-9.03306333">
        <ele>5.0</ele>
        <time>2019-05-16T11:37:29.936Z</time>
      </trkpt>
      <trkpt lat="38.89044" lon="-9.03304333">
        <ele>4.0</ele>
        <time>2019-05-16T11:37:30.938Z</time>
      </trkpt>
      <trkpt lat="38.89044" lon="-9.03304333">
        <ele>4.0</ele>
        <time>2019-05-16T11:37:31.934Z</time>
      </trkpt>
      <trkpt lat="38.89049167" lon="-9.03303333">
        <ele>5.0</ele>
        <time>2019-05-16T11:37:32.970Z</time>
      </trkpt>
      <trkpt lat="38.89049167" lon="-9.03303333">
        <ele>5.0</ele>
        <time>2019-05-16T11:37:33.923Z</time>
      </trkpt>
      <trkpt lat="38.89053833" lon="-9.033035">
        <ele>5.0</ele>
        <time>2019-05-16T11:37:34.938Z</time>
      </trkpt>
      <trkpt lat="38.89055167" lon="-9.03304667">
        <ele>5.0</ele>
        <time>2019-05-16T11:37:35.922Z</time>
      </trkpt>
      <trkpt lat="38.89055167" lon="-9.03304667">
        <ele>5.0</ele>
        <time>2019-05-16T11:37:36.924Z</time>
      </trkpt>
      <trkpt lat="38.89058" lon="-9.03306667">
        <ele>5.0</ele>
        <time>2019-05-16T11:37:37.933Z</time>
      </trkpt>
      <trkpt lat="38.89058" lon="-9.03306667">
        <ele>5.0</ele>
        <time>2019-05-16T11:37:38.901Z</time>
      </trkpt>
      <trkpt lat="38.89059" lon="-9.03312">
        <ele>5.0</ele>
        <time>2019-05-16T11:37:39.910Z</time>
      </trkpt>
      <trkpt lat="38.89059" lon="-9.03312">
        <ele>5.0</ele>
        <time>2019-05-16T11:37:40.933Z</time>
      </trkpt>
      <trkpt lat="38.89056833" lon="-9.03312667">
        <ele>5.0</ele>
        <time>2019-05-16T11:37:41.907Z</time>
      </trkpt>
      <trkpt lat="38.89056833" lon="-9.03312667">
        <ele>5.0</ele>
        <time>2019-05-16T11:37:42.930Z</time>
      </trkpt>
      <trkpt lat="38.89055333" lon="-9.03311667">
        <ele>5.0</ele>
        <time>2019-05-16T11:37:43.904Z</time>
      </trkpt>
      <trkpt lat="38.89054667" lon="-9.03311333">
        <ele>5.0</ele>
        <time>2019-05-16T11:37:44.903Z</time>
      </trkpt>
      <trkpt lat="38.89054667" lon="-9.03311333">
        <ele>5.0</ele>
        <time>2019-05-16T11:37:45.899Z</time>
      </trkpt>
      <trkpt lat="38.89053333" lon="-9.0331">
        <ele>5.0</ele>
        <time>2019-05-16T11:37:46.908Z</time>
      </trkpt>
      <trkpt lat="38.89053333" lon="-9.0331">
        <ele>5.0</ele>
        <time>2019-05-16T11:37:47.911Z</time>
      </trkpt>
      <trkpt lat="38.89053333" lon="-9.03309833">
        <ele>5.0</ele>
        <time>2019-05-16T11:37:48.930Z</time>
      </trkpt>
      <trkpt lat="38.89053333" lon="-9.03309833">
        <ele>5.0</ele>
        <time>2019-05-16T11:37:49.936Z</time>
      </trkpt>
      <trkpt lat="38.89053333" lon="-9.03309833">
        <ele>5.0</ele>
        <time>2019-05-16T11:37:50.902Z</time>
      </trkpt>
      <trkpt lat="38.89053333" lon="-9.03309833">
        <ele>5.0</ele>
        <time>2019-05-16T11:37:51.908Z</time>
      </trkpt>
      <trkpt lat="38.89053333" lon="-9.03309833">
        <ele>5.0</ele>
        <time>2019-05-16T11:37:52.914Z</time>
      </trkpt>
      <trkpt lat="38.89053333" lon="-9.03309833">
        <ele>5.0</ele>
        <time>2019-05-16T11:37:53.904Z</time>
      </trkpt>
      <trkpt lat="38.89053333" lon="-9.03309833">
        <ele>5.0</ele>
        <time>2019-05-16T11:37:54.908Z</time>
      </trkpt>
      <trkpt lat="38.89053333" lon="-9.03309833">
        <ele>5.0</ele>
        <time>2019-05-16T11:37:55.914Z</time>
      </trkpt>
      <trkpt lat="38.89048833" lon="-9.03307167">
        <ele>3.0</ele>
        <time>2019-05-16T11:37:56.902Z</time>
      </trkpt>
      <trkpt lat="38.89048" lon="-9.03306667">
        <ele>3.0</ele>
        <time>2019-05-16T11:37:57.904Z</time>
      </trkpt>
      <trkpt lat="38.89047333" lon="-9.03306333">
        <ele>3.0</ele>
        <time>2019-05-16T11:37:58.908Z</time>
      </trkpt>
      <trkpt lat="38.89047333" lon="-9.03306333">
        <ele>3.0</ele>
        <time>2019-05-16T11:37:59.901Z</time>
      </trkpt>
      <trkpt lat="38.89046" lon="-9.03305167">
        <ele>3.0</ele>
        <time>2019-05-16T11:38:00.964Z</time>
      </trkpt>
      <trkpt lat="38.89046" lon="-9.03305167">
        <ele>3.0</ele>
        <time>2019-05-16T11:38:01.912Z</time>
      </trkpt>
      <trkpt lat="38.890445" lon="-9.03304667">
        <ele>4.0</ele>
        <time>2019-05-16T11:38:02.923Z</time>
      </trkpt>
      <trkpt lat="38.890445" lon="-9.03304667">
        <ele>4.0</ele>
        <time>2019-05-16T11:38:03.934Z</time>
      </trkpt>
      <trkpt lat="38.89044167" lon="-9.03304667">
        <ele>4.0</ele>
        <time>2019-05-16T11:38:04.897Z</time>
      </trkpt>
      <trkpt lat="38.89044167" lon="-9.03304667">
        <ele>4.0</ele>
        <time>2019-05-16T11:38:05.936Z</time>
      </trkpt>
      <trkpt lat="38.89044" lon="-9.03304667">
        <ele>4.0</ele>
        <time>2019-05-16T11:38:06.904Z</time>
      </trkpt>
      <trkpt lat="38.89044" lon="-9.03304667">
        <ele>4.0</ele>
        <time>2019-05-16T11:38:07.920Z</time>
      </trkpt>
      <trkpt lat="38.89044" lon="-9.03304667">
        <ele>4.0</ele>
        <time>2019-05-16T11:38:08.930Z</time>
      </trkpt>
      <trkpt lat="38.89044" lon="-9.03304667">
        <ele>4.0</ele>
        <time>2019-05-16T11:38:09.936Z</time>
      </trkpt>
      <trkpt lat="38.89044" lon="-9.03304667">
        <ele>4.0</ele>
        <time>2019-05-16T11:38:10.902Z</time>
      </trkpt>
      <trkpt lat="38.89044" lon="-9.03304667">
        <ele>4.0</ele>
        <time>2019-05-16T11:38:11.907Z</time>
      </trkpt>
      <trkpt lat="38.89044" lon="-9.03304667">
        <ele>4.0</ele>
        <time>2019-05-16T11:38:12.913Z</time>
      </trkpt>
      <trkpt lat="38.89044" lon="-9.03304667">
        <ele>4.0</ele>
        <time>2019-05-16T11:38:13.910Z</time>
      </trkpt>
      <trkpt lat="38.89044" lon="-9.03304667">
        <ele>4.0</ele>
        <time>2019-05-16T11:38:14.903Z</time>
      </trkpt>
      <trkpt lat="38.89044" lon="-9.03304667">
        <ele>4.0</ele>
        <time>2019-05-16T11:38:15.899Z</time>
      </trkpt>
      <trkpt lat="38.89044" lon="-9.03304667">
        <ele>4.0</ele>
        <time>2019-05-16T11:38:16.918Z</time>
      </trkpt>
      <trkpt lat="38.89044" lon="-9.03304667">
        <ele>4.0</ele>
        <time>2019-05-16T11:38:17.902Z</time>
      </trkpt>
      <trkpt lat="38.89044" lon="-9.03304667">
        <ele>4.0</ele>
        <time>2019-05-16T11:38:18.915Z</time>
      </trkpt>
      <trkpt lat="38.89044" lon="-9.03304667">
        <ele>4.0</ele>
        <time>2019-05-16T11:38:19.901Z</time>
      </trkpt>
      <trkpt lat="38.89044" lon="-9.03304667">
        <ele>4.0</ele>
        <time>2019-05-16T11:38:20.902Z</time>
      </trkpt>
      <trkpt lat="38.89044" lon="-9.03304667">
        <ele>4.0</ele>
        <time>2019-05-16T11:38:21.908Z</time>
      </trkpt>
      <trkpt lat="38.89044" lon="-9.03304667">
        <ele>4.0</ele>
        <time>2019-05-16T11:38:22.901Z</time>
      </trkpt>
      <trkpt lat="38.89044" lon="-9.03304667">
        <ele>4.0</ele>
        <time>2019-05-16T11:38:23.906Z</time>
      </trkpt>
      <trkpt lat="38.89044" lon="-9.03304667">
        <ele>4.0</ele>
        <time>2019-05-16T11:38:24.904Z</time>
      </trkpt>
      <trkpt lat="38.89044" lon="-9.03304667">
        <ele>4.0</ele>
        <time>2019-05-16T11:38:25.905Z</time>
      </trkpt>
      <trkpt lat="38.89044" lon="-9.03304667">
        <ele>4.0</ele>
        <time>2019-05-16T11:38:26.901Z</time>
      </trkpt>
      <trkpt lat="38.89044" lon="-9.03304667">
        <ele>4.0</ele>
        <time>2019-05-16T11:38:27.907Z</time>
      </trkpt>
      <trkpt lat="38.89044" lon="-9.03304667">
        <ele>4.0</ele>
        <time>2019-05-16T11:38:28.905Z</time>
      </trkpt>
      <trkpt lat="38.89044" lon="-9.03304667">
        <ele>4.0</ele>
        <time>2019-05-16T11:38:29.902Z</time>
      </trkpt>
      <trkpt lat="38.89044" lon="-9.03304667">
        <ele>4.0</ele>
        <time>2019-05-16T11:38:30.909Z</time>
      </trkpt>
      <trkpt lat="38.89044" lon="-9.03304667">
        <ele>4.0</ele>
        <time>2019-05-16T11:38:31.901Z</time>
      </trkpt>
      <trkpt lat="38.89044" lon="-9.03304667">
        <ele>4.0</ele>
        <time>2019-05-16T11:38:32.898Z</time>
      </trkpt>
      <trkpt lat="38.89044" lon="-9.03304667">
        <ele>4.0</ele>
        <time>2019-05-16T11:38:33.906Z</time>
      </trkpt>
      <trkpt lat="38.89044" lon="-9.03304667">
        <ele>4.0</ele>
        <time>2019-05-16T11:38:34.904Z</time>
      </trkpt>
      <trkpt lat="38.89044" lon="-9.03304667">
        <ele>4.0</ele>
        <time>2019-05-16T11:38:35.906Z</time>
      </trkpt>
      <trkpt lat="38.89044" lon="-9.03304667">
        <ele>4.0</ele>
        <time>2019-05-16T11:38:36.908Z</time>
      </trkpt>
      <trkpt lat="38.89044" lon="-9.03304667">
        <ele>4.0</ele>
        <time>2019-05-16T11:38:37.911Z</time>
      </trkpt>
      <trkpt lat="38.89044" lon="-9.03304667">
        <ele>4.0</ele>
        <time>2019-05-16T11:38:38.905Z</time>
      </trkpt>
      <trkpt lat="38.89044" lon="-9.03304667">
        <ele>4.0</ele>
        <time>2019-05-16T11:38:39.902Z</time>
      </trkpt>
      <trkpt lat="38.89044" lon="-9.03304667">
        <ele>4.0</ele>
        <time>2019-05-16T11:38:40.905Z</time>
      </trkpt>
      <trkpt lat="38.89044" lon="-9.03304667">
        <ele>4.0</ele>
        <time>2019-05-16T11:38:41.936Z</time>
      </trkpt>
      <trkpt lat="38.89044" lon="-9.03304667">
        <ele>4.0</ele>
        <time>2019-05-16T11:38:42.925Z</time>
      </trkpt>
      <trkpt lat="38.89044" lon="-9.03304667">
        <ele>4.0</ele>
        <time>2019-05-16T11:38:43.920Z</time>
      </trkpt>
      <trkpt lat="38.89044" lon="-9.03304667">
        <ele>4.0</ele>
        <time>2019-05-16T11:38:44.906Z</time>
      </trkpt>
      <trkpt lat="38.89044" lon="-9.03304667">
        <ele>4.0</ele>
        <time>2019-05-16T11:38:45.903Z</time>
      </trkpt>
      <trkpt lat="38.89044" lon="-9.03304667">
        <ele>4.0</ele>
        <time>2019-05-16T11:38:46.899Z</time>
      </trkpt>
      <trkpt lat="38.89044" lon="-9.03304667">
        <ele>4.0</ele>
        <time>2019-05-16T11:38:47.904Z</time>
      </trkpt>
      <trkpt lat="38.89044" lon="-9.03304667">
        <ele>4.0</ele>
        <time>2019-05-16T11:38:48.907Z</time>
      </trkpt>
      <trkpt lat="38.89044" lon="-9.03304667">
        <ele>4.0</ele>
        <time>2019-05-16T11:38:49.899Z</time>
      </trkpt>
      <trkpt lat="38.89044" lon="-9.03304667">
        <ele>4.0</ele>
        <time>2019-05-16T11:38:50.904Z</time>
      </trkpt>
      <trkpt lat="38.89044" lon="-9.03304667">
        <ele>4.0</ele>
        <time>2019-05-16T11:38:51.900Z</time>
      </trkpt>
      <trkpt lat="38.89044" lon="-9.03304667">
        <ele>4.0</ele>
        <time>2019-05-16T11:38:52.937Z</time>
      </trkpt>
      <trkpt lat="38.89044" lon="-9.03304667">
        <ele>4.0</ele>
        <time>2019-05-16T11:38:53.924Z</time>
      </trkpt>
      <trkpt lat="38.89044" lon="-9.03304667">
        <ele>4.0</ele>
        <time>2019-05-16T11:38:54.909Z</time>
      </trkpt>
      <trkpt lat="38.89044" lon="-9.03304667">
        <ele>4.0</ele>
        <time>2019-05-16T11:38:55.901Z</time>
      </trkpt>
      <trkpt lat="38.89044" lon="-9.03304667">
        <ele>4.0</ele>
        <time>2019-05-16T11:38:56.904Z</time>
      </trkpt>
      <trkpt lat="38.89044" lon="-9.03304667">
        <ele>4.0</ele>
        <time>2019-05-16T11:38:57.900Z</time>
      </trkpt>
      <trkpt lat="38.89044" lon="-9.03304667">
        <ele>4.0</ele>
        <time>2019-05-16T11:38:58.905Z</time>
      </trkpt>
      <trkpt lat="38.89044" lon="-9.03304667">
        <ele>4.0</ele>
        <time>2019-05-16T11:38:59.902Z</time>
      </trkpt>
      <trkpt lat="38.89040333" lon="-9.03298333">
        <ele>6.0</ele>
        <time>2019-05-16T11:39:00.905Z</time>
      </trkpt>
      <trkpt lat="38.89040333" lon="-9.03298333">
        <ele>6.0</ele>
        <time>2019-05-16T11:39:01.899Z</time>
      </trkpt>
      <trkpt lat="38.89040167" lon="-9.03300667">
        <ele>6.0</ele>
        <time>2019-05-16T11:39:02.926Z</time>
      </trkpt>
      <trkpt lat="38.89040167" lon="-9.03300667">
        <ele>6.0</ele>
        <time>2019-05-16T11:39:03.905Z</time>
      </trkpt>
      <trkpt lat="38.89040333" lon="-9.03301167">
        <ele>6.0</ele>
        <time>2019-05-16T11:39:04.904Z</time>
      </trkpt>
      <trkpt lat="38.89040333" lon="-9.03301167">
        <ele>6.0</ele>
        <time>2019-05-16T11:39:05.911Z</time>
      </trkpt>
      <trkpt lat="38.89041167" lon="-9.033015">
        <ele>6.0</ele>
        <time>2019-05-16T11:39:06.923Z</time>
      </trkpt>
      <trkpt lat="38.89041167" lon="-9.033015">
        <ele>6.0</ele>
        <time>2019-05-16T11:39:07.933Z</time>
      </trkpt>
      <trkpt lat="38.89041333" lon="-9.03301333">
        <ele>6.0</ele>
        <time>2019-05-16T11:39:08.898Z</time>
      </trkpt>
      <trkpt lat="38.89041333" lon="-9.03301333">
        <ele>6.0</ele>
        <time>2019-05-16T11:39:09.904Z</time>
      </trkpt>
      <trkpt lat="38.89041333" lon="-9.03301333">
        <ele>6.0</ele>
        <time>2019-05-16T11:39:10.910Z</time>
      </trkpt>
      <trkpt lat="38.89041333" lon="-9.03301333">
        <ele>6.0</ele>
        <time>2019-05-16T11:39:11.916Z</time>
      </trkpt>
      <trkpt lat="38.89041333" lon="-9.03301333">
        <ele>6.0</ele>
        <time>2019-05-16T11:39:12.907Z</time>
      </trkpt>
      <trkpt lat="38.89041333" lon="-9.03301333">
        <ele>6.0</ele>
        <time>2019-05-16T11:39:13.912Z</time>
      </trkpt>
      <trkpt lat="38.89041333" lon="-9.03301333">
        <ele>6.0</ele>
        <time>2019-05-16T11:39:14.904Z</time>
      </trkpt>
      <trkpt lat="38.89041333" lon="-9.03301333">
        <ele>6.0</ele>
        <time>2019-05-16T11:39:15.899Z</time>
      </trkpt>
      <trkpt lat="38.89041333" lon="-9.03301333">
        <ele>6.0</ele>
        <time>2019-05-16T11:39:16.904Z</time>
      </trkpt>
      <trkpt lat="38.89041333" lon="-9.03301333">
        <ele>6.0</ele>
        <time>2019-05-16T11:39:17.900Z</time>
      </trkpt>
      <trkpt lat="38.89041333" lon="-9.03301333">
        <ele>6.0</ele>
        <time>2019-05-16T11:39:18.919Z</time>
      </trkpt>
      <trkpt lat="38.89041333" lon="-9.03301333">
        <ele>6.0</ele>
        <time>2019-05-16T11:39:19.906Z</time>
      </trkpt>
      <trkpt lat="38.89041333" lon="-9.03301333">
        <ele>6.0</ele>
        <time>2019-05-16T11:39:20.907Z</time>
      </trkpt>
      <trkpt lat="38.89041333" lon="-9.03301333">
        <ele>6.0</ele>
        <time>2019-05-16T11:39:21.918Z</time>
      </trkpt>
      <trkpt lat="38.89041333" lon="-9.03301333">
        <ele>6.0</ele>
        <time>2019-05-16T11:39:22.924Z</time>
      </trkpt>
      <trkpt lat="38.89041333" lon="-9.03301333">
        <ele>6.0</ele>
        <time>2019-05-16T11:39:23.930Z</time>
      </trkpt>
      <trkpt lat="38.89041333" lon="-9.03301333">
        <ele>6.0</ele>
        <time>2019-05-16T11:39:24.912Z</time>
      </trkpt>
      <trkpt lat="38.89041333" lon="-9.03301333">
        <ele>6.0</ele>
        <time>2019-05-16T11:39:25.912Z</time>
      </trkpt>
      <trkpt lat="38.89041333" lon="-9.03301333">
        <ele>6.0</ele>
        <time>2019-05-16T11:39:26.905Z</time>
      </trkpt>
      <trkpt lat="38.89041333" lon="-9.03301333">
        <ele>6.0</ele>
        <time>2019-05-16T11:39:27.900Z</time>
      </trkpt>
      <trkpt lat="38.89041333" lon="-9.03301333">
        <ele>6.0</ele>
        <time>2019-05-16T11:39:28.904Z</time>
      </trkpt>
      <trkpt lat="38.89041333" lon="-9.03301333">
        <ele>6.0</ele>
        <time>2019-05-16T11:39:29.899Z</time>
      </trkpt>
      <trkpt lat="38.89041333" lon="-9.03301333">
        <ele>6.0</ele>
        <time>2019-05-16T11:39:30.907Z</time>
      </trkpt>
      <trkpt lat="38.89041333" lon="-9.03301333">
        <ele>6.0</ele>
        <time>2019-05-16T11:39:31.901Z</time>
      </trkpt>
      <trkpt lat="38.89039667" lon="-9.03313333">
        <ele>6.0</ele>
        <time>2019-05-16T11:39:32.902Z</time>
      </trkpt>
      <trkpt lat="38.89039833" lon="-9.03314167">
        <ele>6.0</ele>
        <time>2019-05-16T11:39:33.926Z</time>
      </trkpt>
      <trkpt lat="38.89039833" lon="-9.03314167">
        <ele>6.0</ele>
        <time>2019-05-16T11:39:34.918Z</time>
      </trkpt>
      <trkpt lat="38.89039833" lon="-9.03314833">
        <ele>6.0</ele>
        <time>2019-05-16T11:39:35.927Z</time>
      </trkpt>
      <trkpt lat="38.89039833" lon="-9.03314833">
        <ele>6.0</ele>
        <time>2019-05-16T11:39:36.919Z</time>
      </trkpt>
      <trkpt lat="38.89039833" lon="-9.03314833">
        <ele>6.0</ele>
        <time>2019-05-16T11:39:37.918Z</time>
      </trkpt>
      <trkpt lat="38.89039833" lon="-9.03314833">
        <ele>6.0</ele>
        <time>2019-05-16T11:39:38.930Z</time>
      </trkpt>
      <trkpt lat="38.89039833" lon="-9.03314833">
        <ele>6.0</ele>
        <time>2019-05-16T11:39:39.898Z</time>
      </trkpt>
      <trkpt lat="38.89039833" lon="-9.03314833">
        <ele>6.0</ele>
        <time>2019-05-16T11:39:40.904Z</time>
      </trkpt>
      <trkpt lat="38.89039833" lon="-9.03314833">
        <ele>6.0</ele>
        <time>2019-05-16T11:39:41.909Z</time>
      </trkpt>
      <trkpt lat="38.89039833" lon="-9.03314833">
        <ele>6.0</ele>
        <time>2019-05-16T11:39:42.915Z</time>
      </trkpt>
      <trkpt lat="38.89039833" lon="-9.03314833">
        <ele>6.0</ele>
        <time>2019-05-16T11:39:43.916Z</time>
      </trkpt>
      <trkpt lat="38.89039833" lon="-9.03314833">
        <ele>6.0</ele>
        <time>2019-05-16T11:39:44.902Z</time>
      </trkpt>
      <trkpt lat="38.89039833" lon="-9.03314833">
        <ele>6.0</ele>
        <time>2019-05-16T11:39:45.899Z</time>
      </trkpt>
      <trkpt lat="38.89029833" lon="-9.03314667">
        <ele>6.0</ele>
        <time>2019-05-16T11:39:46.904Z</time>
      </trkpt>
      <trkpt lat="38.89029833" lon="-9.03314667">
        <ele>6.0</ele>
        <time>2019-05-16T11:39:47.899Z</time>
      </trkpt>
      <trkpt lat="38.89031" lon="-9.03314333">
        <ele>6.0</ele>
        <time>2019-05-16T11:39:48.970Z</time>
      </trkpt>
      <trkpt lat="38.89031" lon="-9.03314333">
        <ele>6.0</ele>
        <time>2019-05-16T11:39:49.931Z</time>
      </trkpt>
      <trkpt lat="38.89031" lon="-9.03314333">
        <ele>6.0</ele>
        <time>2019-05-16T11:39:50.914Z</time>
      </trkpt>
      <trkpt lat="38.89031" lon="-9.03314333">
        <ele>6.0</ele>
        <time>2019-05-16T11:39:51.909Z</time>
      </trkpt>
      <trkpt lat="38.89031" lon="-9.03314333">
        <ele>6.0</ele>
        <time>2019-05-16T11:39:52.899Z</time>
      </trkpt>
      <trkpt lat="38.89031" lon="-9.03314333">
        <ele>6.0</ele>
        <time>2019-05-16T11:39:53.902Z</time>
      </trkpt>
      <trkpt lat="38.89031" lon="-9.03314333">
        <ele>6.0</ele>
        <time>2019-05-16T11:39:54.908Z</time>
      </trkpt>
      <trkpt lat="38.89031" lon="-9.03314333">
        <ele>6.0</ele>
        <time>2019-05-16T11:39:55.914Z</time>
      </trkpt>
      <trkpt lat="38.89031" lon="-9.03314333">
        <ele>6.0</ele>
        <time>2019-05-16T11:39:56.920Z</time>
      </trkpt>
      <trkpt lat="38.89031" lon="-9.03314333">
        <ele>6.0</ele>
        <time>2019-05-16T11:39:57.901Z</time>
      </trkpt>
      <trkpt lat="38.89031" lon="-9.03314333">
        <ele>6.0</ele>
        <time>2019-05-16T11:39:58.905Z</time>
      </trkpt>
      <trkpt lat="38.89031" lon="-9.03314333">
        <ele>6.0</ele>
        <time>2019-05-16T11:39:59.900Z</time>
      </trkpt>
      <trkpt lat="38.89031" lon="-9.03314333">
        <ele>6.0</ele>
        <time>2019-05-16T11:40:00.908Z</time>
      </trkpt>
      <trkpt lat="38.89031" lon="-9.03314333">
        <ele>6.0</ele>
        <time>2019-05-16T11:40:01.913Z</time>
      </trkpt>
      <trkpt lat="38.89031" lon="-9.03314333">
        <ele>6.0</ele>
        <time>2019-05-16T11:40:02.905Z</time>
      </trkpt>
      <trkpt lat="38.89031" lon="-9.03314333">
        <ele>6.0</ele>
        <time>2019-05-16T11:40:03.901Z</time>
      </trkpt>
      <trkpt lat="38.89031" lon="-9.03314333">
        <ele>6.0</ele>
        <time>2019-05-16T11:40:04.900Z</time>
      </trkpt>
      <trkpt lat="38.89031" lon="-9.03314333">
        <ele>6.0</ele>
        <time>2019-05-16T11:40:05.900Z</time>
      </trkpt>
      <trkpt lat="38.89031" lon="-9.03314333">
        <ele>6.0</ele>
        <time>2019-05-16T11:40:06.907Z</time>
      </trkpt>
      <trkpt lat="38.89031" lon="-9.03314333">
        <ele>6.0</ele>
        <time>2019-05-16T11:40:07.905Z</time>
      </trkpt>
      <trkpt lat="38.89031" lon="-9.03314333">
        <ele>6.0</ele>
        <time>2019-05-16T11:40:08.904Z</time>
      </trkpt>
      <trkpt lat="38.89031" lon="-9.03314333">
        <ele>6.0</ele>
        <time>2019-05-16T11:40:09.903Z</time>
      </trkpt>
      <trkpt lat="38.89031" lon="-9.03314333">
        <ele>6.0</ele>
        <time>2019-05-16T11:40:10.906Z</time>
      </trkpt>
      <trkpt lat="38.89031" lon="-9.03314333">
        <ele>6.0</ele>
        <time>2019-05-16T11:40:11.901Z</time>
      </trkpt>
      <trkpt lat="38.89031" lon="-9.03314333">
        <ele>6.0</ele>
        <time>2019-05-16T11:40:12.908Z</time>
      </trkpt>
      <trkpt lat="38.89031" lon="-9.03314333">
        <ele>6.0</ele>
        <time>2019-05-16T11:40:13.900Z</time>
      </trkpt>
      <trkpt lat="38.89031" lon="-9.03314333">
        <ele>6.0</ele>
        <time>2019-05-16T11:40:14.904Z</time>
      </trkpt>
      <trkpt lat="38.89031" lon="-9.03314333">
        <ele>6.0</ele>
        <time>2019-05-16T11:40:15.901Z</time>
      </trkpt>
      <trkpt lat="38.89034333" lon="-9.03315667">
        <ele>3.0</ele>
        <time>2019-05-16T11:40:16.906Z</time>
      </trkpt>
      <trkpt lat="38.89034333" lon="-9.03315667">
        <ele>3.0</ele>
        <time>2019-05-16T11:40:17.910Z</time>
      </trkpt>
      <trkpt lat="38.890335" lon="-9.033165">
        <ele>3.0</ele>
        <time>2019-05-16T11:40:18.908Z</time>
      </trkpt>
      <trkpt lat="38.890335" lon="-9.033165">
        <ele>3.0</ele>
        <time>2019-05-16T11:40:19.902Z</time>
      </trkpt>
      <trkpt lat="38.89033167" lon="-9.03316833">
        <ele>3.0</ele>
        <time>2019-05-16T11:40:20.932Z</time>
      </trkpt>
      <trkpt lat="38.89033333" lon="-9.03317167">
        <ele>3.0</ele>
        <time>2019-05-16T11:40:21.936Z</time>
      </trkpt>
      <trkpt lat="38.89033333" lon="-9.03317167">
        <ele>3.0</ele>
        <time>2019-05-16T11:40:22.902Z</time>
      </trkpt>
      <trkpt lat="38.89033667" lon="-9.03318667">
        <ele>3.0</ele>
        <time>2019-05-16T11:40:23.910Z</time>
      </trkpt>
      <trkpt lat="38.890335" lon="-9.03319167">
        <ele>3.0</ele>
        <time>2019-05-16T11:40:24.908Z</time>
      </trkpt>
      <trkpt lat="38.890335" lon="-9.03319167">
        <ele>3.0</ele>
        <time>2019-05-16T11:40:25.919Z</time>
      </trkpt>
      <trkpt lat="38.89034" lon="-9.03319667">
        <ele>4.0</ele>
        <time>2019-05-16T11:40:26.965Z</time>
      </trkpt>
      <trkpt lat="38.89034" lon="-9.03319667">
        <ele>4.0</ele>
        <time>2019-05-16T11:40:27.916Z</time>
      </trkpt>
      <trkpt lat="38.89034833" lon="-9.03319167">
        <ele>6.0</ele>
        <time>2019-05-16T11:40:28.924Z</time>
      </trkpt>
      <trkpt lat="38.89034833" lon="-9.03319167">
        <ele>6.0</ele>
        <time>2019-05-16T11:40:29.931Z</time>
      </trkpt>
      <trkpt lat="38.89034833" lon="-9.03319167">
        <ele>6.0</ele>
        <time>2019-05-16T11:40:30.897Z</time>
      </trkpt>
      <trkpt lat="38.89034833" lon="-9.03319167">
        <ele>6.0</ele>
        <time>2019-05-16T11:40:31.901Z</time>
      </trkpt>
      <trkpt lat="38.89034833" lon="-9.03319167">
        <ele>6.0</ele>
        <time>2019-05-16T11:40:32.904Z</time>
      </trkpt>
      <trkpt lat="38.89034833" lon="-9.03319167">
        <ele>6.0</ele>
        <time>2019-05-16T11:40:33.898Z</time>
      </trkpt>
      <trkpt lat="38.89034833" lon="-9.03319167">
        <ele>6.0</ele>
        <time>2019-05-16T11:40:34.904Z</time>
      </trkpt>
      <trkpt lat="38.89034833" lon="-9.03319167">
        <ele>6.0</ele>
        <time>2019-05-16T11:40:35.936Z</time>
      </trkpt>
      <trkpt lat="38.89034833" lon="-9.03319167">
        <ele>6.0</ele>
        <time>2019-05-16T11:40:36.904Z</time>
      </trkpt>
      <trkpt lat="38.89034833" lon="-9.03319167">
        <ele>6.0</ele>
        <time>2019-05-16T11:40:37.903Z</time>
      </trkpt>
      <trkpt lat="38.89034833" lon="-9.03319167">
        <ele>6.0</ele>
        <time>2019-05-16T11:40:38.904Z</time>
      </trkpt>
      <trkpt lat="38.89034833" lon="-9.03319167">
        <ele>6.0</ele>
        <time>2019-05-16T11:40:39.905Z</time>
      </trkpt>
      <trkpt lat="38.89034833" lon="-9.03319167">
        <ele>6.0</ele>
        <time>2019-05-16T11:40:40.900Z</time>
      </trkpt>
      <trkpt lat="38.89034833" lon="-9.03319167">
        <ele>6.0</ele>
        <time>2019-05-16T11:40:41.904Z</time>
      </trkpt>
      <trkpt lat="38.89034833" lon="-9.03319167">
        <ele>6.0</ele>
        <time>2019-05-16T11:40:42.906Z</time>
      </trkpt>
      <trkpt lat="38.89034833" lon="-9.03319167">
        <ele>6.0</ele>
        <time>2019-05-16T11:40:43.935Z</time>
      </trkpt>
      <trkpt lat="38.89034833" lon="-9.03319167">
        <ele>6.0</ele>
        <time>2019-05-16T11:40:44.902Z</time>
      </trkpt>
      <trkpt lat="38.89034833" lon="-9.03319167">
        <ele>6.0</ele>
        <time>2019-05-16T11:40:45.899Z</time>
      </trkpt>
      <trkpt lat="38.89034833" lon="-9.03319167">
        <ele>6.0</ele>
        <time>2019-05-16T11:40:46.904Z</time>
      </trkpt>
      <trkpt lat="38.89034833" lon="-9.03319167">
        <ele>6.0</ele>
        <time>2019-05-16T11:40:47.900Z</time>
      </trkpt>
      <trkpt lat="38.89034833" lon="-9.03319167">
        <ele>6.0</ele>
        <time>2019-05-16T11:40:48.908Z</time>
      </trkpt>
      <trkpt lat="38.89034833" lon="-9.03319167">
        <ele>6.0</ele>
        <time>2019-05-16T11:40:49.900Z</time>
      </trkpt>
      <trkpt lat="38.89034833" lon="-9.03319167">
        <ele>6.0</ele>
        <time>2019-05-16T11:40:50.904Z</time>
      </trkpt>
      <trkpt lat="38.89034833" lon="-9.03319167">
        <ele>6.0</ele>
        <time>2019-05-16T11:40:51.901Z</time>
      </trkpt>
      <trkpt lat="38.89034833" lon="-9.03319167">
        <ele>6.0</ele>
        <time>2019-05-16T11:40:52.906Z</time>
      </trkpt>
      <trkpt lat="38.89034833" lon="-9.03319167">
        <ele>6.0</ele>
        <time>2019-05-16T11:40:53.920Z</time>
      </trkpt>
      <trkpt lat="38.89034833" lon="-9.03319167">
        <ele>6.0</ele>
        <time>2019-05-16T11:40:54.907Z</time>
      </trkpt>
      <trkpt lat="38.89034833" lon="-9.03319167">
        <ele>6.0</ele>
        <time>2019-05-16T11:40:55.900Z</time>
      </trkpt>
      <trkpt lat="38.89034833" lon="-9.03319167">
        <ele>6.0</ele>
        <time>2019-05-16T11:40:56.904Z</time>
      </trkpt>
      <trkpt lat="38.89034833" lon="-9.03319167">
        <ele>6.0</ele>
        <time>2019-05-16T11:40:57.910Z</time>
      </trkpt>
      <trkpt lat="38.89034833" lon="-9.03319167">
        <ele>6.0</ele>
        <time>2019-05-16T11:40:58.914Z</time>
      </trkpt>
      <trkpt lat="38.89034833" lon="-9.03319167">
        <ele>6.0</ele>
        <time>2019-05-16T11:40:59.905Z</time>
      </trkpt>
      <trkpt lat="38.89034833" lon="-9.03319167">
        <ele>6.0</ele>
        <time>2019-05-16T11:41:00.908Z</time>
      </trkpt>
      <trkpt lat="38.89034833" lon="-9.03319167">
        <ele>6.0</ele>
        <time>2019-05-16T11:41:01.899Z</time>
      </trkpt>
      <trkpt lat="38.89034833" lon="-9.03319167">
        <ele>6.0</ele>
        <time>2019-05-16T11:41:02.904Z</time>
      </trkpt>
      <trkpt lat="38.89034833" lon="-9.03319167">
        <ele>6.0</ele>
        <time>2019-05-16T11:41:03.900Z</time>
      </trkpt>
      <trkpt lat="38.89034833" lon="-9.03319167">
        <ele>6.0</ele>
        <time>2019-05-16T11:41:04.918Z</time>
      </trkpt>
      <trkpt lat="38.89034833" lon="-9.03319167">
        <ele>6.0</ele>
        <time>2019-05-16T11:41:05.903Z</time>
      </trkpt>
      <trkpt lat="38.89042667" lon="-9.03326333">
        <ele>8.0</ele>
        <time>2019-05-16T11:41:06.907Z</time>
      </trkpt>
      <trkpt lat="38.89042667" lon="-9.03326333">
        <ele>8.0</ele>
        <time>2019-05-16T11:41:07.900Z</time>
      </trkpt>
      <trkpt lat="38.89045167" lon="-9.03327167">
        <ele>8.0</ele>
        <time>2019-05-16T11:41:08.965Z</time>
      </trkpt>
      <trkpt lat="38.89045167" lon="-9.03327167">
        <ele>8.0</ele>
        <time>2019-05-16T11:41:09.902Z</time>
      </trkpt>
      <trkpt lat="38.89046333" lon="-9.03327833">
        <ele>8.0</ele>
        <time>2019-05-16T11:41:10.923Z</time>
      </trkpt>
      <trkpt lat="38.89046333" lon="-9.03327833">
        <ele>8.0</ele>
        <time>2019-05-16T11:41:11.931Z</time>
      </trkpt>
      <trkpt lat="38.89046333" lon="-9.03327833">
        <ele>8.0</ele>
        <time>2019-05-16T11:41:12.906Z</time>
      </trkpt>
      <trkpt lat="38.89046333" lon="-9.03327833">
        <ele>8.0</ele>
        <time>2019-05-16T11:41:13.927Z</time>
      </trkpt>
      <trkpt lat="38.89046333" lon="-9.03327833">
        <ele>8.0</ele>
        <time>2019-05-16T11:41:14.933Z</time>
      </trkpt>
      <trkpt lat="38.89046333" lon="-9.03327833">
        <ele>8.0</ele>
        <time>2019-05-16T11:41:15.899Z</time>
      </trkpt>
      <trkpt lat="38.89046333" lon="-9.03327833">
        <ele>8.0</ele>
        <time>2019-05-16T11:41:16.905Z</time>
      </trkpt>
      <trkpt lat="38.89046333" lon="-9.03327833">
        <ele>8.0</ele>
        <time>2019-05-16T11:41:17.931Z</time>
      </trkpt>
      <trkpt lat="38.89046333" lon="-9.03327833">
        <ele>8.0</ele>
        <time>2019-05-16T11:41:18.907Z</time>
      </trkpt>
      <trkpt lat="38.89046333" lon="-9.03327833">
        <ele>8.0</ele>
        <time>2019-05-16T11:41:19.914Z</time>
      </trkpt>
      <trkpt lat="38.89055833" lon="-9.03325167">
        <ele>7.0</ele>
        <time>2019-05-16T11:41:20.911Z</time>
      </trkpt>
      <trkpt lat="38.89056333" lon="-9.03324833">
        <ele>7.0</ele>
        <time>2019-05-16T11:41:21.904Z</time>
      </trkpt>
      <trkpt lat="38.89056667" lon="-9.03324667">
        <ele>7.0</ele>
        <time>2019-05-16T11:41:22.911Z</time>
      </trkpt>
      <trkpt lat="38.89056667" lon="-9.03324667">
        <ele>7.0</ele>
        <time>2019-05-16T11:41:23.917Z</time>
      </trkpt>
      <trkpt lat="38.89057" lon="-9.03324333">
        <ele>7.0</ele>
        <time>2019-05-16T11:41:24.920Z</time>
      </trkpt>
      <trkpt lat="38.89057" lon="-9.03324333">
        <ele>7.0</ele>
        <time>2019-05-16T11:41:25.927Z</time>
      </trkpt>
      <trkpt lat="38.89057" lon="-9.03324333">
        <ele>7.0</ele>
        <time>2019-05-16T11:41:26.898Z</time>
      </trkpt>
      <trkpt lat="38.89057" lon="-9.03324333">
        <ele>7.0</ele>
        <time>2019-05-16T11:41:27.905Z</time>
      </trkpt>
      <trkpt lat="38.89057" lon="-9.03324333">
        <ele>7.0</ele>
        <time>2019-05-16T11:41:28.924Z</time>
      </trkpt>
      <trkpt lat="38.89057" lon="-9.03324333">
        <ele>7.0</ele>
        <time>2019-05-16T11:41:29.930Z</time>
      </trkpt>
      <trkpt lat="38.89057" lon="-9.03324333">
        <ele>7.0</ele>
        <time>2019-05-16T11:41:30.898Z</time>
      </trkpt>
      <trkpt lat="38.89057" lon="-9.03324333">
        <ele>7.0</ele>
        <time>2019-05-16T11:41:31.905Z</time>
      </trkpt>
      <trkpt lat="38.89057" lon="-9.03324333">
        <ele>7.0</ele>
        <time>2019-05-16T11:41:32.931Z</time>
      </trkpt>
      <trkpt lat="38.89057" lon="-9.03324333">
        <ele>7.0</ele>
        <time>2019-05-16T11:41:33.919Z</time>
      </trkpt>
      <trkpt lat="38.89057" lon="-9.03324333">
        <ele>7.0</ele>
        <time>2019-05-16T11:41:34.904Z</time>
      </trkpt>
      <trkpt lat="38.89057" lon="-9.03324333">
        <ele>7.0</ele>
        <time>2019-05-16T11:41:35.900Z</time>
      </trkpt>
      <trkpt lat="38.89057" lon="-9.03324333">
        <ele>7.0</ele>
        <time>2019-05-16T11:41:36.907Z</time>
      </trkpt>
      <trkpt lat="38.89057" lon="-9.03324333">
        <ele>7.0</ele>
        <time>2019-05-16T11:41:37.900Z</time>
      </trkpt>
      <trkpt lat="38.89057" lon="-9.03324333">
        <ele>7.0</ele>
        <time>2019-05-16T11:41:38.904Z</time>
      </trkpt>
      <trkpt lat="38.89057" lon="-9.03324333">
        <ele>7.0</ele>
        <time>2019-05-16T11:41:39.900Z</time>
      </trkpt>
      <trkpt lat="38.89057" lon="-9.03324333">
        <ele>7.0</ele>
        <time>2019-05-16T11:41:40.903Z</time>
      </trkpt>
      <trkpt lat="38.89057" lon="-9.03324333">
        <ele>7.0</ele>
        <time>2019-05-16T11:41:41.900Z</time>
      </trkpt>
      <trkpt lat="38.89057" lon="-9.03324333">
        <ele>7.0</ele>
        <time>2019-05-16T11:41:42.907Z</time>
      </trkpt>
      <trkpt lat="38.89057" lon="-9.03324333">
        <ele>7.0</ele>
        <time>2019-05-16T11:41:43.902Z</time>
      </trkpt>
      <trkpt lat="38.89057" lon="-9.03324333">
        <ele>7.0</ele>
        <time>2019-05-16T11:41:44.905Z</time>
      </trkpt>
      <trkpt lat="38.89057" lon="-9.03324333">
        <ele>7.0</ele>
        <time>2019-05-16T11:41:45.899Z</time>
      </trkpt>
      <trkpt lat="38.89057" lon="-9.03324333">
        <ele>7.0</ele>
        <time>2019-05-16T11:41:46.904Z</time>
      </trkpt>
      <trkpt lat="38.89057" lon="-9.03324333">
        <ele>7.0</ele>
        <time>2019-05-16T11:41:47.936Z</time>
      </trkpt>
      <trkpt lat="38.89057" lon="-9.03324333">
        <ele>7.0</ele>
        <time>2019-05-16T11:41:48.923Z</time>
      </trkpt>
      <trkpt lat="38.89057" lon="-9.03324333">
        <ele>7.0</ele>
        <time>2019-05-16T11:41:49.908Z</time>
      </trkpt>
      <trkpt lat="38.89057" lon="-9.03324333">
        <ele>7.0</ele>
        <time>2019-05-16T11:41:50.900Z</time>
      </trkpt>
      <trkpt lat="38.89057" lon="-9.03324333">
        <ele>7.0</ele>
        <time>2019-05-16T11:41:51.904Z</time>
      </trkpt>
      <trkpt lat="38.89057" lon="-9.03324333">
        <ele>7.0</ele>
        <time>2019-05-16T11:41:52.899Z</time>
      </trkpt>
      <trkpt lat="38.89057" lon="-9.03324333">
        <ele>7.0</ele>
        <time>2019-05-16T11:41:53.902Z</time>
      </trkpt>
      <trkpt lat="38.89057" lon="-9.03324333">
        <ele>7.0</ele>
        <time>2019-05-16T11:41:54.907Z</time>
      </trkpt>
      <trkpt lat="38.89057" lon="-9.03324333">
        <ele>7.0</ele>
        <time>2019-05-16T11:41:55.900Z</time>
      </trkpt>
      <trkpt lat="38.89057" lon="-9.03324333">
        <ele>7.0</ele>
        <time>2019-05-16T11:41:56.904Z</time>
      </trkpt>
      <trkpt lat="38.89057" lon="-9.03324333">
        <ele>7.0</ele>
        <time>2019-05-16T11:41:57.900Z</time>
      </trkpt>
      <trkpt lat="38.89057" lon="-9.03324333">
        <ele>7.0</ele>
        <time>2019-05-16T11:41:58.911Z</time>
      </trkpt>
      <trkpt lat="38.89057" lon="-9.03324333">
        <ele>7.0</ele>
        <time>2019-05-16T11:41:59.907Z</time>
      </trkpt>
      <trkpt lat="38.89057" lon="-9.03324333">
        <ele>7.0</ele>
        <time>2019-05-16T11:42:00.907Z</time>
      </trkpt>
      <trkpt lat="38.89057" lon="-9.03324333">
        <ele>7.0</ele>
        <time>2019-05-16T11:42:01.899Z</time>
      </trkpt>
      <trkpt lat="38.89057" lon="-9.03324333">
        <ele>7.0</ele>
        <time>2019-05-16T11:42:02.904Z</time>
      </trkpt>
      <trkpt lat="38.89057" lon="-9.03324333">
        <ele>7.0</ele>
        <time>2019-05-16T11:42:03.901Z</time>
      </trkpt>
      <trkpt lat="38.89057" lon="-9.03324333">
        <ele>7.0</ele>
        <time>2019-05-16T11:42:04.902Z</time>
      </trkpt>
      <trkpt lat="38.89057" lon="-9.03324333">
        <ele>7.0</ele>
        <time>2019-05-16T11:42:05.906Z</time>
      </trkpt>
      <trkpt lat="38.89057" lon="-9.03324333">
        <ele>7.0</ele>
        <time>2019-05-16T11:42:06.909Z</time>
      </trkpt>
      <trkpt lat="38.89057" lon="-9.03324333">
        <ele>7.0</ele>
        <time>2019-05-16T11:42:07.900Z</time>
      </trkpt>
      <trkpt lat="38.89057" lon="-9.03324333">
        <ele>7.0</ele>
        <time>2019-05-16T11:42:08.908Z</time>
      </trkpt>
      <trkpt lat="38.89057" lon="-9.03324333">
        <ele>7.0</ele>
        <time>2019-05-16T11:42:09.901Z</time>
      </trkpt>
      <trkpt lat="38.89057" lon="-9.03324333">
        <ele>7.0</ele>
        <time>2019-05-16T11:42:10.906Z</time>
      </trkpt>
      <trkpt lat="38.89057" lon="-9.03324333">
        <ele>7.0</ele>
        <time>2019-05-16T11:42:11.901Z</time>
      </trkpt>
      <trkpt lat="38.89057" lon="-9.03324333">
        <ele>7.0</ele>
        <time>2019-05-16T11:42:12.907Z</time>
      </trkpt>
      <trkpt lat="38.89057" lon="-9.03324333">
        <ele>7.0</ele>
        <time>2019-05-16T11:42:13.901Z</time>
      </trkpt>
      <trkpt lat="38.89057" lon="-9.03324333">
        <ele>7.0</ele>
        <time>2019-05-16T11:42:14.901Z</time>
      </trkpt>
      <trkpt lat="38.89057" lon="-9.03324333">
        <ele>7.0</ele>
        <time>2019-05-16T11:42:15.925Z</time>
      </trkpt>
      <trkpt lat="38.89057" lon="-9.03324333">
        <ele>7.0</ele>
        <time>2019-05-16T11:42:16.903Z</time>
      </trkpt>
      <trkpt lat="38.89057" lon="-9.03324333">
        <ele>7.0</ele>
        <time>2019-05-16T11:42:17.904Z</time>
      </trkpt>
      <trkpt lat="38.89057" lon="-9.03324333">
        <ele>7.0</ele>
        <time>2019-05-16T11:42:18.907Z</time>
      </trkpt>
      <trkpt lat="38.89057" lon="-9.03324333">
        <ele>7.0</ele>
        <time>2019-05-16T11:42:19.906Z</time>
      </trkpt>
      <trkpt lat="38.89057" lon="-9.03324333">
        <ele>7.0</ele>
        <time>2019-05-16T11:42:20.902Z</time>
      </trkpt>
      <trkpt lat="38.89057" lon="-9.03324333">
        <ele>7.0</ele>
        <time>2019-05-16T11:42:21.903Z</time>
      </trkpt>
      <trkpt lat="38.89057" lon="-9.03324333">
        <ele>7.0</ele>
        <time>2019-05-16T11:42:22.909Z</time>
      </trkpt>
      <trkpt lat="38.89057" lon="-9.03324333">
        <ele>7.0</ele>
        <time>2019-05-16T11:42:23.915Z</time>
      </trkpt>
      <trkpt lat="38.89057" lon="-9.03324333">
        <ele>7.0</ele>
        <time>2019-05-16T11:42:24.921Z</time>
      </trkpt>
      <trkpt lat="38.89057" lon="-9.03324333">
        <ele>7.0</ele>
        <time>2019-05-16T11:42:25.908Z</time>
      </trkpt>
      <trkpt lat="38.89057" lon="-9.03324333">
        <ele>7.0</ele>
        <time>2019-05-16T11:42:26.903Z</time>
      </trkpt>
      <trkpt lat="38.89057" lon="-9.03324333">
        <ele>7.0</ele>
        <time>2019-05-16T11:42:27.900Z</time>
      </trkpt>
      <trkpt lat="38.89057" lon="-9.03324333">
        <ele>7.0</ele>
        <time>2019-05-16T11:42:28.904Z</time>
      </trkpt>
      <trkpt lat="38.89057" lon="-9.03324333">
        <ele>7.0</ele>
        <time>2019-05-16T11:42:29.900Z</time>
      </trkpt>
      <trkpt lat="38.89057" lon="-9.03324333">
        <ele>7.0</ele>
        <time>2019-05-16T11:42:30.905Z</time>
      </trkpt>
      <trkpt lat="38.89057" lon="-9.03324333">
        <ele>7.0</ele>
        <time>2019-05-16T11:42:31.900Z</time>
      </trkpt>
      <trkpt lat="38.89057" lon="-9.03324333">
        <ele>7.0</ele>
        <time>2019-05-16T11:42:32.904Z</time>
      </trkpt>
      <trkpt lat="38.89057" lon="-9.03324333">
        <ele>7.0</ele>
        <time>2019-05-16T11:42:33.900Z</time>
      </trkpt>
      <trkpt lat="38.89057" lon="-9.03324333">
        <ele>7.0</ele>
        <time>2019-05-16T11:42:34.897Z</time>
      </trkpt>
      <trkpt lat="38.89057" lon="-9.03324333">
        <ele>7.0</ele>
        <time>2019-05-16T11:42:35.903Z</time>
      </trkpt>
      <trkpt lat="38.89057" lon="-9.03324333">
        <ele>7.0</ele>
        <time>2019-05-16T11:42:36.903Z</time>
      </trkpt>
      <trkpt lat="38.89057" lon="-9.03324333">
        <ele>7.0</ele>
        <time>2019-05-16T11:42:37.904Z</time>
      </trkpt>
      <trkpt lat="38.89057" lon="-9.03324333">
        <ele>7.0</ele>
        <time>2019-05-16T11:42:38.903Z</time>
      </trkpt>
      <trkpt lat="38.89057" lon="-9.03324333">
        <ele>7.0</ele>
        <time>2019-05-16T11:42:39.905Z</time>
      </trkpt>
      <trkpt lat="38.89057" lon="-9.03324333">
        <ele>7.0</ele>
        <time>2019-05-16T11:42:40.900Z</time>
      </trkpt>
      <trkpt lat="38.89057" lon="-9.03324333">
        <ele>7.0</ele>
        <time>2019-05-16T11:42:41.904Z</time>
      </trkpt>
      <trkpt lat="38.89057" lon="-9.03324333">
        <ele>7.0</ele>
        <time>2019-05-16T11:42:42.907Z</time>
      </trkpt>
      <trkpt lat="38.89057" lon="-9.03324333">
        <ele>7.0</ele>
        <time>2019-05-16T11:42:43.900Z</time>
      </trkpt>
      <trkpt lat="38.89057" lon="-9.03324333">
        <ele>7.0</ele>
        <time>2019-05-16T11:42:44.902Z</time>
      </trkpt>
      <trkpt lat="38.89057" lon="-9.03324333">
        <ele>7.0</ele>
        <time>2019-05-16T11:42:45.905Z</time>
      </trkpt>
      <trkpt lat="38.89057" lon="-9.03324333">
        <ele>7.0</ele>
        <time>2019-05-16T11:42:46.900Z</time>
      </trkpt>
      <trkpt lat="38.89057" lon="-9.03324333">
        <ele>7.0</ele>
        <time>2019-05-16T11:42:47.904Z</time>
      </trkpt>
      <trkpt lat="38.89057" lon="-9.03324333">
        <ele>7.0</ele>
        <time>2019-05-16T11:42:48.908Z</time>
      </trkpt>
      <trkpt lat="38.89057" lon="-9.03324333">
        <ele>7.0</ele>
        <time>2019-05-16T11:42:49.900Z</time>
      </trkpt>
      <trkpt lat="38.89057" lon="-9.03324333">
        <ele>7.0</ele>
        <time>2019-05-16T11:42:50.905Z</time>
      </trkpt>
      <trkpt lat="38.89057" lon="-9.03324333">
        <ele>7.0</ele>
        <time>2019-05-16T11:42:51.900Z</time>
      </trkpt>
      <trkpt lat="38.89057" lon="-9.03324333">
        <ele>7.0</ele>
        <time>2019-05-16T11:42:52.905Z</time>
      </trkpt>
      <trkpt lat="38.89057" lon="-9.03324333">
        <ele>7.0</ele>
        <time>2019-05-16T11:42:53.900Z</time>
      </trkpt>
      <trkpt lat="38.89057" lon="-9.03324333">
        <ele>7.0</ele>
        <time>2019-05-16T11:42:54.927Z</time>
      </trkpt>
      <trkpt lat="38.89057" lon="-9.03324333">
        <ele>7.0</ele>
        <time>2019-05-16T11:42:55.916Z</time>
      </trkpt>
      <trkpt lat="38.89057" lon="-9.03324333">
        <ele>7.0</ele>
        <time>2019-05-16T11:42:56.904Z</time>
      </trkpt>
      <trkpt lat="38.89057" lon="-9.03324333">
        <ele>7.0</ele>
        <time>2019-05-16T11:42:57.900Z</time>
      </trkpt>
      <trkpt lat="38.89057" lon="-9.03324333">
        <ele>7.0</ele>
        <time>2019-05-16T11:42:58.904Z</time>
      </trkpt>
      <trkpt lat="38.89057" lon="-9.03324333">
        <ele>7.0</ele>
        <time>2019-05-16T11:42:59.900Z</time>
      </trkpt>
      <trkpt lat="38.89057" lon="-9.03324333">
        <ele>7.0</ele>
        <time>2019-05-16T11:43:00.907Z</time>
      </trkpt>
      <trkpt lat="38.89057" lon="-9.03324333">
        <ele>7.0</ele>
        <time>2019-05-16T11:43:01.900Z</time>
      </trkpt>
      <trkpt lat="38.89057" lon="-9.03324333">
        <ele>7.0</ele>
        <time>2019-05-16T11:43:02.904Z</time>
      </trkpt>
      <trkpt lat="38.89057" lon="-9.03324333">
        <ele>7.0</ele>
        <time>2019-05-16T11:43:03.900Z</time>
      </trkpt>
      <trkpt lat="38.89057" lon="-9.03324333">
        <ele>7.0</ele>
        <time>2019-05-16T11:43:04.905Z</time>
      </trkpt>
      <trkpt lat="38.89057" lon="-9.03324333">
        <ele>7.0</ele>
        <time>2019-05-16T11:43:05.900Z</time>
      </trkpt>
      <trkpt lat="38.89057" lon="-9.03324333">
        <ele>7.0</ele>
        <time>2019-05-16T11:43:06.907Z</time>
      </trkpt>
      <trkpt lat="38.89057" lon="-9.03324333">
        <ele>7.0</ele>
        <time>2019-05-16T11:43:07.899Z</time>
      </trkpt>
      <trkpt lat="38.89057" lon="-9.03324333">
        <ele>7.0</ele>
        <time>2019-05-16T11:43:08.906Z</time>
      </trkpt>
      <trkpt lat="38.89057" lon="-9.03324333">
        <ele>7.0</ele>
        <time>2019-05-16T11:43:09.900Z</time>
      </trkpt>
      <trkpt lat="38.89057" lon="-9.03324333">
        <ele>7.0</ele>
        <time>2019-05-16T11:43:10.905Z</time>
      </trkpt>
      <trkpt lat="38.89057" lon="-9.03324333">
        <ele>7.0</ele>
        <time>2019-05-16T11:43:11.904Z</time>
      </trkpt>
      <trkpt lat="38.89057" lon="-9.03324333">
        <ele>7.0</ele>
        <time>2019-05-16T11:43:12.909Z</time>
      </trkpt>
      <trkpt lat="38.89057" lon="-9.03324333">
        <ele>7.0</ele>
        <time>2019-05-16T11:43:13.900Z</time>
      </trkpt>
      <trkpt lat="38.89057" lon="-9.03324333">
        <ele>7.0</ele>
        <time>2019-05-16T11:43:14.905Z</time>
      </trkpt>
      <trkpt lat="38.89057" lon="-9.03324333">
        <ele>7.0</ele>
        <time>2019-05-16T11:43:15.900Z</time>
      </trkpt>
      <trkpt lat="38.89057" lon="-9.03324333">
        <ele>7.0</ele>
        <time>2019-05-16T11:43:16.900Z</time>
      </trkpt>
      <trkpt lat="38.89057" lon="-9.03324333">
        <ele>7.0</ele>
        <time>2019-05-16T11:43:17.907Z</time>
      </trkpt>
      <trkpt lat="38.89057" lon="-9.03324333">
        <ele>7.0</ele>
        <time>2019-05-16T11:43:18.902Z</time>
      </trkpt>
      <trkpt lat="38.89057" lon="-9.03324333">
        <ele>7.0</ele>
        <time>2019-05-16T11:43:19.905Z</time>
      </trkpt>
      <trkpt lat="38.89057" lon="-9.03324333">
        <ele>7.0</ele>
        <time>2019-05-16T11:43:20.911Z</time>
      </trkpt>
      <trkpt lat="38.89057" lon="-9.03324333">
        <ele>7.0</ele>
        <time>2019-05-16T11:43:21.903Z</time>
      </trkpt>
      <trkpt lat="38.89057" lon="-9.03324333">
        <ele>7.0</ele>
        <time>2019-05-16T11:43:22.909Z</time>
      </trkpt>
      <trkpt lat="38.89057" lon="-9.03324333">
        <ele>7.0</ele>
        <time>2019-05-16T11:43:23.915Z</time>
      </trkpt>
      <trkpt lat="38.89057" lon="-9.03324333">
        <ele>7.0</ele>
        <time>2019-05-16T11:43:24.921Z</time>
      </trkpt>
      <trkpt lat="38.89057" lon="-9.03324333">
        <ele>7.0</ele>
        <time>2019-05-16T11:43:25.915Z</time>
      </trkpt>
      <trkpt lat="38.89057" lon="-9.03324333">
        <ele>7.0</ele>
        <time>2019-05-16T11:43:26.906Z</time>
      </trkpt>
      <trkpt lat="38.89057" lon="-9.03324333">
        <ele>7.0</ele>
        <time>2019-05-16T11:43:27.908Z</time>
      </trkpt>
      <trkpt lat="38.89057" lon="-9.03324333">
        <ele>7.0</ele>
        <time>2019-05-16T11:43:28.905Z</time>
      </trkpt>
      <trkpt lat="38.89057" lon="-9.03324333">
        <ele>7.0</ele>
        <time>2019-05-16T11:43:29.904Z</time>
      </trkpt>
      <trkpt lat="38.89057" lon="-9.03324333">
        <ele>7.0</ele>
        <time>2019-05-16T11:43:30.907Z</time>
      </trkpt>
      <trkpt lat="38.89057" lon="-9.03324333">
        <ele>7.0</ele>
        <time>2019-05-16T11:43:31.900Z</time>
      </trkpt>
      <trkpt lat="38.89062" lon="-9.03334833">
        <ele>3.0</ele>
        <time>2019-05-16T11:43:32.905Z</time>
      </trkpt>
      <trkpt lat="38.89062" lon="-9.03334833">
        <ele>3.0</ele>
        <time>2019-05-16T11:43:33.901Z</time>
      </trkpt>
      <trkpt lat="38.89062167" lon="-9.03336167">
        <ele>2.0</ele>
        <time>2019-05-16T11:43:34.941Z</time>
      </trkpt>
      <trkpt lat="38.89062167" lon="-9.03336167">
        <ele>2.0</ele>
        <time>2019-05-16T11:43:35.902Z</time>
      </trkpt>
      <trkpt lat="38.89062333" lon="-9.03336667">
        <ele>2.0</ele>
        <time>2019-05-16T11:43:36.911Z</time>
      </trkpt>
      <trkpt lat="38.89062333" lon="-9.03336667">
        <ele>2.0</ele>
        <time>2019-05-16T11:43:37.905Z</time>
      </trkpt>
      <trkpt lat="38.89062333" lon="-9.03336667">
        <ele>2.0</ele>
        <time>2019-05-16T11:43:38.904Z</time>
      </trkpt>
      <trkpt lat="38.89062333" lon="-9.03336667">
        <ele>2.0</ele>
        <time>2019-05-16T11:43:39.915Z</time>
      </trkpt>
      <trkpt lat="38.89062333" lon="-9.03336667">
        <ele>2.0</ele>
        <time>2019-05-16T11:43:40.921Z</time>
      </trkpt>
      <trkpt lat="38.89062333" lon="-9.03336667">
        <ele>2.0</ele>
        <time>2019-05-16T11:43:41.931Z</time>
      </trkpt>
      <trkpt lat="38.89062333" lon="-9.03336667">
        <ele>2.0</ele>
        <time>2019-05-16T11:43:42.898Z</time>
      </trkpt>
      <trkpt lat="38.89062333" lon="-9.03336667">
        <ele>2.0</ele>
        <time>2019-05-16T11:43:43.904Z</time>
      </trkpt>
      <trkpt lat="38.89062333" lon="-9.03336667">
        <ele>2.0</ele>
        <time>2019-05-16T11:43:44.910Z</time>
      </trkpt>
      <trkpt lat="38.89062333" lon="-9.03336667">
        <ele>2.0</ele>
        <time>2019-05-16T11:43:45.898Z</time>
      </trkpt>
      <trkpt lat="38.89062333" lon="-9.03336667">
        <ele>2.0</ele>
        <time>2019-05-16T11:43:46.905Z</time>
      </trkpt>
      <trkpt lat="38.89062333" lon="-9.03336667">
        <ele>2.0</ele>
        <time>2019-05-16T11:43:47.913Z</time>
      </trkpt>
      <trkpt lat="38.89062333" lon="-9.03336667">
        <ele>2.0</ele>
        <time>2019-05-16T11:43:48.904Z</time>
      </trkpt>
      <trkpt lat="38.89062333" lon="-9.03336667">
        <ele>2.0</ele>
        <time>2019-05-16T11:43:49.900Z</time>
      </trkpt>
      <trkpt lat="38.89062333" lon="-9.03336667">
        <ele>2.0</ele>
        <time>2019-05-16T11:43:50.904Z</time>
      </trkpt>
      <trkpt lat="38.89062333" lon="-9.03336667">
        <ele>2.0</ele>
        <time>2019-05-16T11:43:51.907Z</time>
      </trkpt>
      <trkpt lat="38.89062333" lon="-9.03336667">
        <ele>2.0</ele>
        <time>2019-05-16T11:43:52.900Z</time>
      </trkpt>
      <trkpt lat="38.89062333" lon="-9.03336667">
        <ele>2.0</ele>
        <time>2019-05-16T11:43:53.904Z</time>
      </trkpt>
      <trkpt lat="38.89062333" lon="-9.03336667">
        <ele>2.0</ele>
        <time>2019-05-16T11:43:54.907Z</time>
      </trkpt>
      <trkpt lat="38.89062333" lon="-9.03336667">
        <ele>2.0</ele>
        <time>2019-05-16T11:43:55.897Z</time>
      </trkpt>
      <trkpt lat="38.89062333" lon="-9.03336667">
        <ele>2.0</ele>
        <time>2019-05-16T11:43:56.902Z</time>
      </trkpt>
      <trkpt lat="38.89062333" lon="-9.03336667">
        <ele>2.0</ele>
        <time>2019-05-16T11:43:57.902Z</time>
      </trkpt>
      <trkpt lat="38.89062333" lon="-9.03336667">
        <ele>2.0</ele>
        <time>2019-05-16T11:43:58.906Z</time>
      </trkpt>
      <trkpt lat="38.89062333" lon="-9.03336667">
        <ele>2.0</ele>
        <time>2019-05-16T11:43:59.902Z</time>
      </trkpt>
      <trkpt lat="38.89062333" lon="-9.03336667">
        <ele>2.0</ele>
        <time>2019-05-16T11:44:00.909Z</time>
      </trkpt>
      <trkpt lat="38.89062333" lon="-9.03336667">
        <ele>2.0</ele>
        <time>2019-05-16T11:44:01.902Z</time>
      </trkpt>
      <trkpt lat="38.89062333" lon="-9.03336667">
        <ele>2.0</ele>
        <time>2019-05-16T11:44:02.907Z</time>
      </trkpt>
      <trkpt lat="38.89062333" lon="-9.03336667">
        <ele>2.0</ele>
        <time>2019-05-16T11:44:03.901Z</time>
      </trkpt>
      <trkpt lat="38.89062333" lon="-9.03336667">
        <ele>2.0</ele>
        <time>2019-05-16T11:44:04.905Z</time>
      </trkpt>
      <trkpt lat="38.89062333" lon="-9.03336667">
        <ele>2.0</ele>
        <time>2019-05-16T11:44:05.899Z</time>
      </trkpt>
      <trkpt lat="38.89062333" lon="-9.03336667">
        <ele>2.0</ele>
        <time>2019-05-16T11:44:06.923Z</time>
      </trkpt>
      <trkpt lat="38.89062333" lon="-9.03336667">
        <ele>2.0</ele>
        <time>2019-05-16T11:44:07.901Z</time>
      </trkpt>
      <trkpt lat="38.89062333" lon="-9.03336667">
        <ele>2.0</ele>
        <time>2019-05-16T11:44:08.906Z</time>
      </trkpt>
      <trkpt lat="38.89062333" lon="-9.03336667">
        <ele>2.0</ele>
        <time>2019-05-16T11:44:09.901Z</time>
      </trkpt>
      <trkpt lat="38.89062333" lon="-9.03336667">
        <ele>2.0</ele>
        <time>2019-05-16T11:44:10.906Z</time>
      </trkpt>
      <trkpt lat="38.89062333" lon="-9.03336667">
        <ele>2.0</ele>
        <time>2019-05-16T11:44:11.902Z</time>
      </trkpt>
      <trkpt lat="38.89062333" lon="-9.03336667">
        <ele>2.0</ele>
        <time>2019-05-16T11:44:12.908Z</time>
      </trkpt>
      <trkpt lat="38.89062333" lon="-9.03336667">
        <ele>2.0</ele>
        <time>2019-05-16T11:44:13.903Z</time>
      </trkpt>
      <trkpt lat="38.89062333" lon="-9.03336667">
        <ele>2.0</ele>
        <time>2019-05-16T11:44:14.906Z</time>
      </trkpt>
      <trkpt lat="38.89062333" lon="-9.03336667">
        <ele>2.0</ele>
        <time>2019-05-16T11:44:15.897Z</time>
      </trkpt>
      <trkpt lat="38.89062333" lon="-9.03336667">
        <ele>2.0</ele>
        <time>2019-05-16T11:44:16.906Z</time>
      </trkpt>
      <trkpt lat="38.89062333" lon="-9.03336667">
        <ele>2.0</ele>
        <time>2019-05-16T11:44:17.901Z</time>
      </trkpt>
      <trkpt lat="38.89062333" lon="-9.03336667">
        <ele>2.0</ele>
        <time>2019-05-16T11:44:18.928Z</time>
      </trkpt>
      <trkpt lat="38.89062333" lon="-9.03336667">
        <ele>2.0</ele>
        <time>2019-05-16T11:44:19.898Z</time>
      </trkpt>
      <trkpt lat="38.89062333" lon="-9.03336667">
        <ele>2.0</ele>
        <time>2019-05-16T11:44:20.914Z</time>
      </trkpt>
      <trkpt lat="38.89062333" lon="-9.03336667">
        <ele>2.0</ele>
        <time>2019-05-16T11:44:21.905Z</time>
      </trkpt>
      <trkpt lat="38.89062333" lon="-9.03336667">
        <ele>2.0</ele>
        <time>2019-05-16T11:44:22.900Z</time>
      </trkpt>
      <trkpt lat="38.89062333" lon="-9.03336667">
        <ele>2.0</ele>
        <time>2019-05-16T11:44:23.911Z</time>
      </trkpt>
      <trkpt lat="38.89062333" lon="-9.03336667">
        <ele>2.0</ele>
        <time>2019-05-16T11:44:24.909Z</time>
      </trkpt>
      <trkpt lat="38.89062333" lon="-9.03336667">
        <ele>2.0</ele>
        <time>2019-05-16T11:44:25.935Z</time>
      </trkpt>
      <trkpt lat="38.89062333" lon="-9.03336667">
        <ele>2.0</ele>
        <time>2019-05-16T11:44:26.905Z</time>
      </trkpt>
      <trkpt lat="38.89062333" lon="-9.03336667">
        <ele>2.0</ele>
        <time>2019-05-16T11:44:27.900Z</time>
      </trkpt>
      <trkpt lat="38.89062333" lon="-9.03336667">
        <ele>2.0</ele>
        <time>2019-05-16T11:44:28.906Z</time>
      </trkpt>
      <trkpt lat="38.89062333" lon="-9.03336667">
        <ele>2.0</ele>
        <time>2019-05-16T11:44:29.900Z</time>
      </trkpt>
      <trkpt lat="38.89062333" lon="-9.03336667">
        <ele>2.0</ele>
        <time>2019-05-16T11:44:30.907Z</time>
      </trkpt>
      <trkpt lat="38.89062333" lon="-9.03336667">
        <ele>2.0</ele>
        <time>2019-05-16T11:44:31.900Z</time>
      </trkpt>
      <trkpt lat="38.89062333" lon="-9.03336667">
        <ele>2.0</ele>
        <time>2019-05-16T11:44:32.906Z</time>
      </trkpt>
      <trkpt lat="38.89062333" lon="-9.03336667">
        <ele>2.0</ele>
        <time>2019-05-16T11:44:33.900Z</time>
      </trkpt>
      <trkpt lat="38.89062333" lon="-9.03336667">
        <ele>2.0</ele>
        <time>2019-05-16T11:44:34.905Z</time>
      </trkpt>
      <trkpt lat="38.89062333" lon="-9.03336667">
        <ele>2.0</ele>
        <time>2019-05-16T11:44:35.905Z</time>
      </trkpt>
      <trkpt lat="38.89062333" lon="-9.03336667">
        <ele>2.0</ele>
        <time>2019-05-16T11:44:36.906Z</time>
      </trkpt>
      <trkpt lat="38.89062333" lon="-9.03336667">
        <ele>2.0</ele>
        <time>2019-05-16T11:44:37.900Z</time>
      </trkpt>
      <trkpt lat="38.89062333" lon="-9.03336667">
        <ele>2.0</ele>
        <time>2019-05-16T11:44:38.905Z</time>
      </trkpt>
      <trkpt lat="38.89062333" lon="-9.03336667">
        <ele>2.0</ele>
        <time>2019-05-16T11:44:39.900Z</time>
      </trkpt>
      <trkpt lat="38.89062333" lon="-9.03336667">
        <ele>2.0</ele>
        <time>2019-05-16T11:44:40.905Z</time>
      </trkpt>
      <trkpt lat="38.89062333" lon="-9.03336667">
        <ele>2.0</ele>
        <time>2019-05-16T11:44:41.906Z</time>
      </trkpt>
      <trkpt lat="38.89062333" lon="-9.03336667">
        <ele>2.0</ele>
        <time>2019-05-16T11:44:42.902Z</time>
      </trkpt>
      <trkpt lat="38.89062333" lon="-9.03336667">
        <ele>2.0</ele>
        <time>2019-05-16T11:44:43.905Z</time>
      </trkpt>
      <trkpt lat="38.89062333" lon="-9.03336667">
        <ele>2.0</ele>
        <time>2019-05-16T11:44:44.905Z</time>
      </trkpt>
      <trkpt lat="38.89062333" lon="-9.03336667">
        <ele>2.0</ele>
        <time>2019-05-16T11:44:45.901Z</time>
      </trkpt>
      <trkpt lat="38.89064167" lon="-9.03348167">
        <ele>-2.0</ele>
        <time>2019-05-16T11:44:46.906Z</time>
      </trkpt>
      <trkpt lat="38.89064167" lon="-9.03348167">
        <ele>-2.0</ele>
        <time>2019-05-16T11:44:47.900Z</time>
      </trkpt>
      <trkpt lat="38.89065167" lon="-9.0335">
        <ele>-2.0</ele>
        <time>2019-05-16T11:44:48.934Z</time>
      </trkpt>
      <trkpt lat="38.89065167" lon="-9.0335">
        <ele>-2.0</ele>
        <time>2019-05-16T11:44:49.932Z</time>
      </trkpt>
      <trkpt lat="38.890655" lon="-9.033505">
        <ele>-3.0</ele>
        <time>2019-05-16T11:44:50.903Z</time>
      </trkpt>
      <trkpt lat="38.890655" lon="-9.033505">
        <ele>-3.0</ele>
        <time>2019-05-16T11:44:51.902Z</time>
      </trkpt>
      <trkpt lat="38.890655" lon="-9.033505">
        <ele>-3.0</ele>
        <time>2019-05-16T11:44:52.911Z</time>
      </trkpt>
      <trkpt lat="38.890655" lon="-9.033505">
        <ele>-3.0</ele>
        <time>2019-05-16T11:44:53.900Z</time>
      </trkpt>
      <trkpt lat="38.890655" lon="-9.033505">
        <ele>-3.0</ele>
        <time>2019-05-16T11:44:54.912Z</time>
      </trkpt>
      <trkpt lat="38.890655" lon="-9.033505">
        <ele>-3.0</ele>
        <time>2019-05-16T11:44:55.923Z</time>
      </trkpt>
      <trkpt lat="38.890655" lon="-9.033505">
        <ele>-3.0</ele>
        <time>2019-05-16T11:44:56.929Z</time>
      </trkpt>
      <trkpt lat="38.890655" lon="-9.033505">
        <ele>-3.0</ele>
        <time>2019-05-16T11:44:57.935Z</time>
      </trkpt>
      <trkpt lat="38.890655" lon="-9.033505">
        <ele>-3.0</ele>
        <time>2019-05-16T11:44:58.901Z</time>
      </trkpt>
      <trkpt lat="38.890655" lon="-9.033505">
        <ele>-3.0</ele>
        <time>2019-05-16T11:44:59.917Z</time>
      </trkpt>
      <trkpt lat="38.890655" lon="-9.033505">
        <ele>-3.0</ele>
        <time>2019-05-16T11:45:00.919Z</time>
      </trkpt>
      <trkpt lat="38.890655" lon="-9.033505">
        <ele>-3.0</ele>
        <time>2019-05-16T11:45:01.906Z</time>
      </trkpt>
      <trkpt lat="38.890655" lon="-9.033505">
        <ele>-3.0</ele>
        <time>2019-05-16T11:45:02.900Z</time>
      </trkpt>
      <trkpt lat="38.890655" lon="-9.033505">
        <ele>-3.0</ele>
        <time>2019-05-16T11:45:03.920Z</time>
      </trkpt>
      <trkpt lat="38.890655" lon="-9.033505">
        <ele>-3.0</ele>
        <time>2019-05-16T11:45:04.906Z</time>
      </trkpt>
      <trkpt lat="38.890655" lon="-9.033505">
        <ele>-3.0</ele>
        <time>2019-05-16T11:45:05.905Z</time>
      </trkpt>
      <trkpt lat="38.890655" lon="-9.033505">
        <ele>-3.0</ele>
        <time>2019-05-16T11:45:06.907Z</time>
      </trkpt>
      <trkpt lat="38.890655" lon="-9.033505">
        <ele>-3.0</ele>
        <time>2019-05-16T11:45:07.907Z</time>
      </trkpt>
      <trkpt lat="38.890655" lon="-9.033505">
        <ele>-3.0</ele>
        <time>2019-05-16T11:45:08.905Z</time>
      </trkpt>
      <trkpt lat="38.890655" lon="-9.033505">
        <ele>-3.0</ele>
        <time>2019-05-16T11:45:09.901Z</time>
      </trkpt>
      <trkpt lat="38.890655" lon="-9.033505">
        <ele>-3.0</ele>
        <time>2019-05-16T11:45:10.906Z</time>
      </trkpt>
      <trkpt lat="38.890655" lon="-9.033505">
        <ele>-3.0</ele>
        <time>2019-05-16T11:45:11.900Z</time>
      </trkpt>
      <trkpt lat="38.890655" lon="-9.033505">
        <ele>-3.0</ele>
        <time>2019-05-16T11:45:12.907Z</time>
      </trkpt>
      <trkpt lat="38.890655" lon="-9.033505">
        <ele>-3.0</ele>
        <time>2019-05-16T11:45:13.900Z</time>
      </trkpt>
      <trkpt lat="38.890655" lon="-9.033505">
        <ele>-3.0</ele>
        <time>2019-05-16T11:45:14.906Z</time>
      </trkpt>
      <trkpt lat="38.890655" lon="-9.033505">
        <ele>-3.0</ele>
        <time>2019-05-16T11:45:15.902Z</time>
      </trkpt>
      <trkpt lat="38.890655" lon="-9.033505">
        <ele>-3.0</ele>
        <time>2019-05-16T11:45:16.905Z</time>
      </trkpt>
      <trkpt lat="38.890655" lon="-9.033505">
        <ele>-3.0</ele>
        <time>2019-05-16T11:45:17.903Z</time>
      </trkpt>
      <trkpt lat="38.890655" lon="-9.033505">
        <ele>-3.0</ele>
        <time>2019-05-16T11:45:18.908Z</time>
      </trkpt>
      <trkpt lat="38.890655" lon="-9.033505">
        <ele>-3.0</ele>
        <time>2019-05-16T11:45:19.905Z</time>
      </trkpt>
      <trkpt lat="38.890655" lon="-9.033505">
        <ele>-3.0</ele>
        <time>2019-05-16T11:45:20.912Z</time>
      </trkpt>
      <trkpt lat="38.890655" lon="-9.033505">
        <ele>-3.0</ele>
        <time>2019-05-16T11:45:21.909Z</time>
      </trkpt>
      <trkpt lat="38.890655" lon="-9.033505">
        <ele>-3.0</ele>
        <time>2019-05-16T11:45:22.915Z</time>
      </trkpt>
      <trkpt lat="38.890655" lon="-9.033505">
        <ele>-3.0</ele>
        <time>2019-05-16T11:45:23.921Z</time>
      </trkpt>
      <trkpt lat="38.890655" lon="-9.033505">
        <ele>-3.0</ele>
        <time>2019-05-16T11:45:24.906Z</time>
      </trkpt>
      <trkpt lat="38.890655" lon="-9.033505">
        <ele>-3.0</ele>
        <time>2019-05-16T11:45:25.905Z</time>
      </trkpt>
      <trkpt lat="38.890655" lon="-9.033505">
        <ele>-3.0</ele>
        <time>2019-05-16T11:45:26.901Z</time>
      </trkpt>
      <trkpt lat="38.890655" lon="-9.033505">
        <ele>-3.0</ele>
        <time>2019-05-16T11:45:27.910Z</time>
      </trkpt>
      <trkpt lat="38.890655" lon="-9.033505">
        <ele>-3.0</ele>
        <time>2019-05-16T11:45:28.913Z</time>
      </trkpt>
      <trkpt lat="38.890655" lon="-9.033505">
        <ele>-3.0</ele>
        <time>2019-05-16T11:45:29.910Z</time>
      </trkpt>
      <trkpt lat="38.890655" lon="-9.033505">
        <ele>-3.0</ele>
        <time>2019-05-16T11:45:30.908Z</time>
      </trkpt>
      <trkpt lat="38.890655" lon="-9.033505">
        <ele>-3.0</ele>
        <time>2019-05-16T11:45:31.900Z</time>
      </trkpt>
      <trkpt lat="38.890655" lon="-9.033505">
        <ele>-3.0</ele>
        <time>2019-05-16T11:45:32.906Z</time>
      </trkpt>
      <trkpt lat="38.890655" lon="-9.033505">
        <ele>-3.0</ele>
        <time>2019-05-16T11:45:33.897Z</time>
      </trkpt>
      <trkpt lat="38.890655" lon="-9.033505">
        <ele>-3.0</ele>
        <time>2019-05-16T11:45:34.925Z</time>
      </trkpt>
      <trkpt lat="38.890655" lon="-9.033505">
        <ele>-3.0</ele>
        <time>2019-05-16T11:45:35.908Z</time>
      </trkpt>
      <trkpt lat="38.890655" lon="-9.033505">
        <ele>-3.0</ele>
        <time>2019-05-16T11:45:36.902Z</time>
      </trkpt>
      <trkpt lat="38.890655" lon="-9.033505">
        <ele>-3.0</ele>
        <time>2019-05-16T11:45:37.910Z</time>
      </trkpt>
      <trkpt lat="38.890655" lon="-9.033505">
        <ele>-3.0</ele>
        <time>2019-05-16T11:45:38.902Z</time>
      </trkpt>
      <trkpt lat="38.890655" lon="-9.033505">
        <ele>-3.0</ele>
        <time>2019-05-16T11:45:39.905Z</time>
      </trkpt>
      <trkpt lat="38.890655" lon="-9.033505">
        <ele>-3.0</ele>
        <time>2019-05-16T11:45:40.905Z</time>
      </trkpt>
      <trkpt lat="38.890655" lon="-9.033505">
        <ele>-3.0</ele>
        <time>2019-05-16T11:45:41.900Z</time>
      </trkpt>
      <trkpt lat="38.890655" lon="-9.033505">
        <ele>-3.0</ele>
        <time>2019-05-16T11:45:42.907Z</time>
      </trkpt>
      <trkpt lat="38.890655" lon="-9.033505">
        <ele>-3.0</ele>
        <time>2019-05-16T11:45:43.899Z</time>
      </trkpt>
      <trkpt lat="38.890655" lon="-9.033505">
        <ele>-3.0</ele>
        <time>2019-05-16T11:45:44.905Z</time>
      </trkpt>
      <trkpt lat="38.890655" lon="-9.033505">
        <ele>-3.0</ele>
        <time>2019-05-16T11:45:45.906Z</time>
      </trkpt>
      <trkpt lat="38.890655" lon="-9.033505">
        <ele>-3.0</ele>
        <time>2019-05-16T11:45:46.900Z</time>
      </trkpt>
      <trkpt lat="38.890655" lon="-9.033505">
        <ele>-3.0</ele>
        <time>2019-05-16T11:45:47.905Z</time>
      </trkpt>
      <trkpt lat="38.890655" lon="-9.033505">
        <ele>-3.0</ele>
        <time>2019-05-16T11:45:48.907Z</time>
      </trkpt>
      <trkpt lat="38.890655" lon="-9.033505">
        <ele>-3.0</ele>
        <time>2019-05-16T11:45:49.900Z</time>
      </trkpt>
      <trkpt lat="38.890655" lon="-9.033505">
        <ele>-3.0</ele>
        <time>2019-05-16T11:45:50.902Z</time>
      </trkpt>
      <trkpt lat="38.890655" lon="-9.033505">
        <ele>-3.0</ele>
        <time>2019-05-16T11:45:51.900Z</time>
      </trkpt>
      <trkpt lat="38.890655" lon="-9.033505">
        <ele>-3.0</ele>
        <time>2019-05-16T11:45:52.906Z</time>
      </trkpt>
      <trkpt lat="38.890655" lon="-9.033505">
        <ele>-3.0</ele>
        <time>2019-05-16T11:45:53.902Z</time>
      </trkpt>
      <trkpt lat="38.890655" lon="-9.033505">
        <ele>-3.0</ele>
        <time>2019-05-16T11:45:54.909Z</time>
      </trkpt>
      <trkpt lat="38.890655" lon="-9.033505">
        <ele>-3.0</ele>
        <time>2019-05-16T11:45:55.902Z</time>
      </trkpt>
      <trkpt lat="38.890655" lon="-9.033505">
        <ele>-3.0</ele>
        <time>2019-05-16T11:45:56.904Z</time>
      </trkpt>
      <trkpt lat="38.890655" lon="-9.033505">
        <ele>-3.0</ele>
        <time>2019-05-16T11:45:57.910Z</time>
      </trkpt>
      <trkpt lat="38.890655" lon="-9.033505">
        <ele>-3.0</ele>
        <time>2019-05-16T11:45:58.901Z</time>
      </trkpt>
      <trkpt lat="38.890655" lon="-9.033505">
        <ele>-3.0</ele>
        <time>2019-05-16T11:45:59.906Z</time>
      </trkpt>
      <trkpt lat="38.890655" lon="-9.033505">
        <ele>-3.0</ele>
        <time>2019-05-16T11:46:00.909Z</time>
      </trkpt>
      <trkpt lat="38.890655" lon="-9.033505">
        <ele>-3.0</ele>
        <time>2019-05-16T11:46:01.902Z</time>
      </trkpt>
      <trkpt lat="38.890655" lon="-9.033505">
        <ele>-3.0</ele>
        <time>2019-05-16T11:46:02.907Z</time>
      </trkpt>
      <trkpt lat="38.890655" lon="-9.033505">
        <ele>-3.0</ele>
        <time>2019-05-16T11:46:03.902Z</time>
      </trkpt>
      <trkpt lat="38.890655" lon="-9.033505">
        <ele>-3.0</ele>
        <time>2019-05-16T11:46:04.906Z</time>
      </trkpt>
      <trkpt lat="38.890655" lon="-9.033505">
        <ele>-3.0</ele>
        <time>2019-05-16T11:46:05.904Z</time>
      </trkpt>
      <trkpt lat="38.890655" lon="-9.033505">
        <ele>-3.0</ele>
        <time>2019-05-16T11:46:06.898Z</time>
      </trkpt>
      <trkpt lat="38.890655" lon="-9.033505">
        <ele>-3.0</ele>
        <time>2019-05-16T11:46:07.910Z</time>
      </trkpt>
      <trkpt lat="38.890655" lon="-9.033505">
        <ele>-3.0</ele>
        <time>2019-05-16T11:46:08.901Z</time>
      </trkpt>
      <trkpt lat="38.89074333" lon="-9.033545">
        <ele>-1.0</ele>
        <time>2019-05-16T11:46:09.906Z</time>
      </trkpt>
      <trkpt lat="38.89075167" lon="-9.03355167">
        <ele>0.0</ele>
        <time>2019-05-16T11:46:10.906Z</time>
      </trkpt>
      <trkpt lat="38.89075167" lon="-9.03355167">
        <ele>0.0</ele>
        <time>2019-05-16T11:46:11.901Z</time>
      </trkpt>
      <trkpt lat="38.89076167" lon="-9.03356167">
        <ele>0.0</ele>
        <time>2019-05-16T11:46:12.926Z</time>
      </trkpt>
      <trkpt lat="38.89076167" lon="-9.03356167">
        <ele>0.0</ele>
        <time>2019-05-16T11:46:13.899Z</time>
      </trkpt>
      <trkpt lat="38.89076167" lon="-9.03356167">
        <ele>0.0</ele>
        <time>2019-05-16T11:46:14.911Z</time>
      </trkpt>
      <trkpt lat="38.89076167" lon="-9.03356167">
        <ele>0.0</ele>
        <time>2019-05-16T11:46:15.920Z</time>
      </trkpt>
      <trkpt lat="38.89076167" lon="-9.03356167">
        <ele>0.0</ele>
        <time>2019-05-16T11:46:16.916Z</time>
      </trkpt>
      <trkpt lat="38.89076167" lon="-9.03356167">
        <ele>0.0</ele>
        <time>2019-05-16T11:46:17.932Z</time>
      </trkpt>
      <trkpt lat="38.89076167" lon="-9.03356167">
        <ele>0.0</ele>
        <time>2019-05-16T11:46:18.906Z</time>
      </trkpt>
      <trkpt lat="38.89076167" lon="-9.03356167">
        <ele>0.0</ele>
        <time>2019-05-16T11:46:19.936Z</time>
      </trkpt>
      <trkpt lat="38.89076167" lon="-9.03356167">
        <ele>0.0</ele>
        <time>2019-05-16T11:46:20.924Z</time>
      </trkpt>
      <trkpt lat="38.89076167" lon="-9.03356167">
        <ele>0.0</ele>
        <time>2019-05-16T11:46:21.925Z</time>
      </trkpt>
      <trkpt lat="38.89076167" lon="-9.03356167">
        <ele>0.0</ele>
        <time>2019-05-16T11:46:22.933Z</time>
      </trkpt>
      <trkpt lat="38.89076167" lon="-9.03356167">
        <ele>0.0</ele>
        <time>2019-05-16T11:46:23.900Z</time>
      </trkpt>
      <trkpt lat="38.8907" lon="-9.03359667">
        <ele>2.0</ele>
        <time>2019-05-16T11:46:24.908Z</time>
      </trkpt>
      <trkpt lat="38.8907" lon="-9.03359667">
        <ele>2.0</ele>
        <time>2019-05-16T11:46:25.901Z</time>
      </trkpt>
      <trkpt lat="38.8907" lon="-9.03359333">
        <ele>2.0</ele>
        <time>2019-05-16T11:46:26.897Z</time>
      </trkpt>
      <trkpt lat="38.89070167" lon="-9.03360333">
        <ele>2.0</ele>
        <time>2019-05-16T11:46:27.928Z</time>
      </trkpt>
      <trkpt lat="38.89070167" lon="-9.03360333">
        <ele>2.0</ele>
        <time>2019-05-16T11:46:28.901Z</time>
      </trkpt>
      <trkpt lat="38.89070167" lon="-9.03360833">
        <ele>2.0</ele>
        <time>2019-05-16T11:46:29.971Z</time>
      </trkpt>
      <trkpt lat="38.89070167" lon="-9.03360833">
        <ele>2.0</ele>
        <time>2019-05-16T11:46:30.912Z</time>
      </trkpt>
      <trkpt lat="38.89070167" lon="-9.03360833">
        <ele>2.0</ele>
        <time>2019-05-16T11:46:31.922Z</time>
      </trkpt>
      <trkpt lat="38.89070167" lon="-9.03360833">
        <ele>2.0</ele>
        <time>2019-05-16T11:46:32.901Z</time>
      </trkpt>
      <trkpt lat="38.89070167" lon="-9.03360833">
        <ele>2.0</ele>
        <time>2019-05-16T11:46:33.921Z</time>
      </trkpt>
      <trkpt lat="38.89070167" lon="-9.03360833">
        <ele>2.0</ele>
        <time>2019-05-16T11:46:34.933Z</time>
      </trkpt>
      <trkpt lat="38.89070167" lon="-9.03360833">
        <ele>2.0</ele>
        <time>2019-05-16T11:46:35.899Z</time>
      </trkpt>
      <trkpt lat="38.89070167" lon="-9.03360833">
        <ele>2.0</ele>
        <time>2019-05-16T11:46:36.905Z</time>
      </trkpt>
      <trkpt lat="38.89070167" lon="-9.03360833">
        <ele>2.0</ele>
        <time>2019-05-16T11:46:37.910Z</time>
      </trkpt>
      <trkpt lat="38.89070167" lon="-9.03360833">
        <ele>2.0</ele>
        <time>2019-05-16T11:46:38.916Z</time>
      </trkpt>
      <trkpt lat="38.89070167" lon="-9.03360833">
        <ele>2.0</ele>
        <time>2019-05-16T11:46:39.903Z</time>
      </trkpt>
      <trkpt lat="38.89070167" lon="-9.03360833">
        <ele>2.0</ele>
        <time>2019-05-16T11:46:40.905Z</time>
      </trkpt>
      <trkpt lat="38.89070167" lon="-9.03360833">
        <ele>2.0</ele>
        <time>2019-05-16T11:46:41.901Z</time>
      </trkpt>
      <trkpt lat="38.89070167" lon="-9.03360833">
        <ele>2.0</ele>
        <time>2019-05-16T11:46:42.907Z</time>
      </trkpt>
      <trkpt lat="38.89070167" lon="-9.03360833">
        <ele>2.0</ele>
        <time>2019-05-16T11:46:43.900Z</time>
      </trkpt>
      <trkpt lat="38.89070167" lon="-9.03360833">
        <ele>2.0</ele>
        <time>2019-05-16T11:46:44.905Z</time>
      </trkpt>
      <trkpt lat="38.89070167" lon="-9.03360833">
        <ele>2.0</ele>
        <time>2019-05-16T11:46:45.901Z</time>
      </trkpt>
      <trkpt lat="38.89070167" lon="-9.03360833">
        <ele>2.0</ele>
        <time>2019-05-16T11:46:46.905Z</time>
      </trkpt>
      <trkpt lat="38.89070167" lon="-9.03360833">
        <ele>2.0</ele>
        <time>2019-05-16T11:46:47.904Z</time>
      </trkpt>
      <trkpt lat="38.89070167" lon="-9.03360833">
        <ele>2.0</ele>
        <time>2019-05-16T11:46:48.908Z</time>
      </trkpt>
      <trkpt lat="38.89070167" lon="-9.03360833">
        <ele>2.0</ele>
        <time>2019-05-16T11:46:49.900Z</time>
      </trkpt>
      <trkpt lat="38.89070167" lon="-9.03360833">
        <ele>2.0</ele>
        <time>2019-05-16T11:46:50.905Z</time>
      </trkpt>
      <trkpt lat="38.89070167" lon="-9.03360833">
        <ele>2.0</ele>
        <time>2019-05-16T11:46:51.901Z</time>
      </trkpt>
      <trkpt lat="38.89070167" lon="-9.03360833">
        <ele>2.0</ele>
        <time>2019-05-16T11:46:52.905Z</time>
      </trkpt>
      <trkpt lat="38.89070167" lon="-9.03360833">
        <ele>2.0</ele>
        <time>2019-05-16T11:46:53.904Z</time>
      </trkpt>
      <trkpt lat="38.89070167" lon="-9.03360833">
        <ele>2.0</ele>
        <time>2019-05-16T11:46:54.905Z</time>
      </trkpt>
      <trkpt lat="38.89070167" lon="-9.03360833">
        <ele>2.0</ele>
        <time>2019-05-16T11:46:55.901Z</time>
      </trkpt>
      <trkpt lat="38.89070167" lon="-9.03360833">
        <ele>2.0</ele>
        <time>2019-05-16T11:46:56.905Z</time>
      </trkpt>
      <trkpt lat="38.89070167" lon="-9.03360833">
        <ele>2.0</ele>
        <time>2019-05-16T11:46:57.900Z</time>
      </trkpt>
      <trkpt lat="38.89070167" lon="-9.03360833">
        <ele>2.0</ele>
        <time>2019-05-16T11:46:58.907Z</time>
      </trkpt>
      <trkpt lat="38.89070167" lon="-9.03360833">
        <ele>2.0</ele>
        <time>2019-05-16T11:46:59.900Z</time>
      </trkpt>
      <trkpt lat="38.89070167" lon="-9.03360833">
        <ele>2.0</ele>
        <time>2019-05-16T11:47:00.904Z</time>
      </trkpt>
      <trkpt lat="38.89070167" lon="-9.03360833">
        <ele>2.0</ele>
        <time>2019-05-16T11:47:01.900Z</time>
      </trkpt>
      <trkpt lat="38.89070167" lon="-9.03360833">
        <ele>2.0</ele>
        <time>2019-05-16T11:47:02.906Z</time>
      </trkpt>
      <trkpt lat="38.89070167" lon="-9.03360833">
        <ele>2.0</ele>
        <time>2019-05-16T11:47:03.901Z</time>
      </trkpt>
      <trkpt lat="38.89070167" lon="-9.03360833">
        <ele>2.0</ele>
        <time>2019-05-16T11:47:04.906Z</time>
      </trkpt>
      <trkpt lat="38.89070167" lon="-9.03360833">
        <ele>2.0</ele>
        <time>2019-05-16T11:47:05.905Z</time>
      </trkpt>
      <trkpt lat="38.89070167" lon="-9.03360833">
        <ele>2.0</ele>
        <time>2019-05-16T11:47:06.907Z</time>
      </trkpt>
      <trkpt lat="38.89070167" lon="-9.03360833">
        <ele>2.0</ele>
        <time>2019-05-16T11:47:07.920Z</time>
      </trkpt>
      <trkpt lat="38.89070167" lon="-9.03360833">
        <ele>2.0</ele>
        <time>2019-05-16T11:47:08.906Z</time>
      </trkpt>
      <trkpt lat="38.89070167" lon="-9.03360833">
        <ele>2.0</ele>
        <time>2019-05-16T11:47:09.901Z</time>
      </trkpt>
      <trkpt lat="38.89070167" lon="-9.03360833">
        <ele>2.0</ele>
        <time>2019-05-16T11:47:10.905Z</time>
      </trkpt>
      <trkpt lat="38.89070167" lon="-9.03360833">
        <ele>2.0</ele>
        <time>2019-05-16T11:47:11.900Z</time>
      </trkpt>
      <trkpt lat="38.89070167" lon="-9.03360833">
        <ele>2.0</ele>
        <time>2019-05-16T11:47:12.908Z</time>
      </trkpt>
      <trkpt lat="38.89070167" lon="-9.03360833">
        <ele>2.0</ele>
        <time>2019-05-16T11:47:13.897Z</time>
      </trkpt>
      <trkpt lat="38.89070167" lon="-9.03360833">
        <ele>2.0</ele>
        <time>2019-05-16T11:47:14.905Z</time>
      </trkpt>
      <trkpt lat="38.89070167" lon="-9.03360833">
        <ele>2.0</ele>
        <time>2019-05-16T11:47:15.900Z</time>
      </trkpt>
      <trkpt lat="38.89070167" lon="-9.03360833">
        <ele>2.0</ele>
        <time>2019-05-16T11:47:16.905Z</time>
      </trkpt>
      <trkpt lat="38.89070167" lon="-9.03360833">
        <ele>2.0</ele>
        <time>2019-05-16T11:47:17.900Z</time>
      </trkpt>
      <trkpt lat="38.89070167" lon="-9.03360833">
        <ele>2.0</ele>
        <time>2019-05-16T11:47:18.908Z</time>
      </trkpt>
      <trkpt lat="38.89070167" lon="-9.03360833">
        <ele>2.0</ele>
        <time>2019-05-16T11:47:19.900Z</time>
      </trkpt>
      <trkpt lat="38.89070167" lon="-9.03360833">
        <ele>2.0</ele>
        <time>2019-05-16T11:47:20.901Z</time>
      </trkpt>
      <trkpt lat="38.89070167" lon="-9.03360833">
        <ele>2.0</ele>
        <time>2019-05-16T11:47:21.900Z</time>
      </trkpt>
      <trkpt lat="38.89070167" lon="-9.03360833">
        <ele>2.0</ele>
        <time>2019-05-16T11:47:22.906Z</time>
      </trkpt>
      <trkpt lat="38.89070167" lon="-9.03360833">
        <ele>2.0</ele>
        <time>2019-05-16T11:47:23.912Z</time>
      </trkpt>
      <trkpt lat="38.89070167" lon="-9.03360833">
        <ele>2.0</ele>
        <time>2019-05-16T11:47:24.918Z</time>
      </trkpt>
      <trkpt lat="38.89070167" lon="-9.03360833">
        <ele>2.0</ele>
        <time>2019-05-16T11:47:25.919Z</time>
      </trkpt>
      <trkpt lat="38.89070167" lon="-9.03360833">
        <ele>2.0</ele>
        <time>2019-05-16T11:47:26.905Z</time>
      </trkpt>
      <trkpt lat="38.89070167" lon="-9.03360833">
        <ele>2.0</ele>
        <time>2019-05-16T11:47:27.903Z</time>
      </trkpt>
      <trkpt lat="38.89070167" lon="-9.03360833">
        <ele>2.0</ele>
        <time>2019-05-16T11:47:28.914Z</time>
      </trkpt>
      <trkpt lat="38.89070167" lon="-9.03360833">
        <ele>2.0</ele>
        <time>2019-05-16T11:47:29.902Z</time>
      </trkpt>
      <trkpt lat="38.89070167" lon="-9.03360833">
        <ele>2.0</ele>
        <time>2019-05-16T11:47:30.908Z</time>
      </trkpt>
      <trkpt lat="38.89070167" lon="-9.03360833">
        <ele>2.0</ele>
        <time>2019-05-16T11:47:31.900Z</time>
      </trkpt>
      <trkpt lat="38.89070167" lon="-9.03360833">
        <ele>2.0</ele>
        <time>2019-05-16T11:47:32.903Z</time>
      </trkpt>
      <trkpt lat="38.89070167" lon="-9.03360833">
        <ele>2.0</ele>
        <time>2019-05-16T11:47:33.899Z</time>
      </trkpt>
      <trkpt lat="38.89070167" lon="-9.03360833">
        <ele>2.0</ele>
        <time>2019-05-16T11:47:34.908Z</time>
      </trkpt>
      <trkpt lat="38.89070167" lon="-9.03360833">
        <ele>2.0</ele>
        <time>2019-05-16T11:47:35.899Z</time>
      </trkpt>
      <trkpt lat="38.89070167" lon="-9.03360833">
        <ele>2.0</ele>
        <time>2019-05-16T11:47:36.907Z</time>
      </trkpt>
      <trkpt lat="38.89070167" lon="-9.03360833">
        <ele>2.0</ele>
        <time>2019-05-16T11:47:37.900Z</time>
      </trkpt>
      <trkpt lat="38.890775" lon="-9.03368667">
        <ele>5.0</ele>
        <time>2019-05-16T11:47:38.906Z</time>
      </trkpt>
      <trkpt lat="38.890775" lon="-9.03368667">
        <ele>5.0</ele>
        <time>2019-05-16T11:47:39.900Z</time>
      </trkpt>
      <trkpt lat="38.89077667" lon="-9.033695">
        <ele>5.0</ele>
        <time>2019-05-16T11:47:40.917Z</time>
      </trkpt>
      <trkpt lat="38.89077667" lon="-9.033695">
        <ele>5.0</ele>
        <time>2019-05-16T11:47:41.913Z</time>
      </trkpt>
      <trkpt lat="38.89077667" lon="-9.033695">
        <ele>5.0</ele>
        <time>2019-05-16T11:47:42.927Z</time>
      </trkpt>
      <trkpt lat="38.89077667" lon="-9.033695">
        <ele>5.0</ele>
        <time>2019-05-16T11:47:43.917Z</time>
      </trkpt>
      <trkpt lat="38.89077667" lon="-9.033695">
        <ele>5.0</ele>
        <time>2019-05-16T11:47:44.926Z</time>
      </trkpt>
      <trkpt lat="38.89077667" lon="-9.033695">
        <ele>5.0</ele>
        <time>2019-05-16T11:47:45.919Z</time>
      </trkpt>
      <trkpt lat="38.89077667" lon="-9.033695">
        <ele>5.0</ele>
        <time>2019-05-16T11:47:46.933Z</time>
      </trkpt>
      <trkpt lat="38.89077667" lon="-9.033695">
        <ele>5.0</ele>
        <time>2019-05-16T11:47:47.899Z</time>
      </trkpt>
      <trkpt lat="38.89077667" lon="-9.033695">
        <ele>5.0</ele>
        <time>2019-05-16T11:47:48.920Z</time>
      </trkpt>
      <trkpt lat="38.89077667" lon="-9.033695">
        <ele>5.0</ele>
        <time>2019-05-16T11:47:49.924Z</time>
      </trkpt>
      <trkpt lat="38.89077667" lon="-9.033695">
        <ele>5.0</ele>
        <time>2019-05-16T11:47:50.908Z</time>
      </trkpt>
      <trkpt lat="38.89077667" lon="-9.033695">
        <ele>5.0</ele>
        <time>2019-05-16T11:47:51.901Z</time>
      </trkpt>
      <trkpt lat="38.89077667" lon="-9.033695">
        <ele>5.0</ele>
        <time>2019-05-16T11:47:52.906Z</time>
      </trkpt>
      <trkpt lat="38.89077667" lon="-9.033695">
        <ele>5.0</ele>
        <time>2019-05-16T11:47:53.901Z</time>
      </trkpt>
      <trkpt lat="38.89077667" lon="-9.033695">
        <ele>5.0</ele>
        <time>2019-05-16T11:47:54.909Z</time>
      </trkpt>
      <trkpt lat="38.89077667" lon="-9.033695">
        <ele>5.0</ele>
        <time>2019-05-16T11:47:55.902Z</time>
      </trkpt>
      <trkpt lat="38.8908" lon="-9.033735">
        <ele>8.0</ele>
        <time>2019-05-16T11:47:56.906Z</time>
      </trkpt>
      <trkpt lat="38.8908" lon="-9.033735">
        <ele>8.0</ele>
        <time>2019-05-16T11:47:57.899Z</time>
      </trkpt>
      <trkpt lat="38.890815" lon="-9.033725">
        <ele>9.0</ele>
        <time>2019-05-16T11:47:58.915Z</time>
      </trkpt>
      <trkpt lat="38.890825" lon="-9.033715">
        <ele>9.0</ele>
        <time>2019-05-16T11:47:59.906Z</time>
      </trkpt>
      <trkpt lat="38.89083167" lon="-9.033705">
        <ele>10.0</ele>
        <time>2019-05-16T11:48:00.908Z</time>
      </trkpt>
      <trkpt lat="38.89083167" lon="-9.033705">
        <ele>10.0</ele>
        <time>2019-05-16T11:48:01.902Z</time>
      </trkpt>
      <trkpt lat="38.89083667" lon="-9.0337">
        <ele>10.0</ele>
        <time>2019-05-16T11:48:02.971Z</time>
      </trkpt>
      <trkpt lat="38.89083667" lon="-9.0337">
        <ele>10.0</ele>
        <time>2019-05-16T11:48:03.909Z</time>
      </trkpt>
      <trkpt lat="38.89083833" lon="-9.03369833">
        <ele>11.0</ele>
        <time>2019-05-16T11:48:04.917Z</time>
      </trkpt>
      <trkpt lat="38.89083833" lon="-9.03369833">
        <ele>11.0</ele>
        <time>2019-05-16T11:48:05.902Z</time>
      </trkpt>
      <trkpt lat="38.89083833" lon="-9.03369833">
        <ele>11.0</ele>
        <time>2019-05-16T11:48:06.907Z</time>
      </trkpt>
      <trkpt lat="38.89083833" lon="-9.03369833">
        <ele>11.0</ele>
        <time>2019-05-16T11:48:07.917Z</time>
      </trkpt>
      <trkpt lat="38.89083833" lon="-9.03369833">
        <ele>11.0</ele>
        <time>2019-05-16T11:48:08.924Z</time>
      </trkpt>
      <trkpt lat="38.89083833" lon="-9.03369833">
        <ele>11.0</ele>
        <time>2019-05-16T11:48:09.908Z</time>
      </trkpt>
      <trkpt lat="38.89085833" lon="-9.03367167">
        <ele>10.0</ele>
        <time>2019-05-16T11:48:10.906Z</time>
      </trkpt>
      <trkpt lat="38.89085833" lon="-9.03367167">
        <ele>10.0</ele>
        <time>2019-05-16T11:48:11.901Z</time>
      </trkpt>
      <trkpt lat="38.89086667" lon="-9.03367167">
        <ele>10.0</ele>
        <time>2019-05-16T11:48:12.908Z</time>
      </trkpt>
      <trkpt lat="38.89086667" lon="-9.03367167">
        <ele>10.0</ele>
        <time>2019-05-16T11:48:13.927Z</time>
      </trkpt>
      <trkpt lat="38.89088167" lon="-9.03367167">
        <ele>10.0</ele>
        <time>2019-05-16T11:48:14.913Z</time>
      </trkpt>
      <trkpt lat="38.89088167" lon="-9.03367167">
        <ele>10.0</ele>
        <time>2019-05-16T11:48:15.900Z</time>
      </trkpt>
      <trkpt lat="38.89089" lon="-9.033685">
        <ele>10.0</ele>
        <time>2019-05-16T11:48:16.961Z</time>
      </trkpt>
      <trkpt lat="38.89089" lon="-9.033685">
        <ele>10.0</ele>
        <time>2019-05-16T11:48:17.921Z</time>
      </trkpt>
      <trkpt lat="38.89089667" lon="-9.03369833">
        <ele>11.0</ele>
        <time>2019-05-16T11:48:18.898Z</time>
      </trkpt>
      <trkpt lat="38.89089667" lon="-9.03369833">
        <ele>11.0</ele>
        <time>2019-05-16T11:48:19.932Z</time>
      </trkpt>
      <trkpt lat="38.89089333" lon="-9.03370167">
        <ele>11.0</ele>
        <time>2019-05-16T11:48:20.920Z</time>
      </trkpt>
      <trkpt lat="38.89089333" lon="-9.03370167">
        <ele>11.0</ele>
        <time>2019-05-16T11:48:21.911Z</time>
      </trkpt>
      <trkpt lat="38.890895" lon="-9.03370167">
        <ele>11.0</ele>
        <time>2019-05-16T11:48:22.921Z</time>
      </trkpt>
      <trkpt lat="38.890895" lon="-9.03370167">
        <ele>11.0</ele>
        <time>2019-05-16T11:48:23.931Z</time>
      </trkpt>
      <trkpt lat="38.890895" lon="-9.03370167">
        <ele>11.0</ele>
        <time>2019-05-16T11:48:24.898Z</time>
      </trkpt>
      <trkpt lat="38.890895" lon="-9.03370167">
        <ele>11.0</ele>
        <time>2019-05-16T11:48:25.904Z</time>
      </trkpt>
      <trkpt lat="38.89089833" lon="-9.03369667">
        <ele>13.0</ele>
        <time>2019-05-16T11:48:26.910Z</time>
      </trkpt>
      <trkpt lat="38.89089833" lon="-9.03369667">
        <ele>13.0</ele>
        <time>2019-05-16T11:48:27.920Z</time>
      </trkpt>
      <trkpt lat="38.89091167" lon="-9.03370833">
        <ele>13.0</ele>
        <time>2019-05-16T11:48:28.906Z</time>
      </trkpt>
      <trkpt lat="38.89091167" lon="-9.03370833">
        <ele>13.0</ele>
        <time>2019-05-16T11:48:29.900Z</time>
      </trkpt>
      <trkpt lat="38.89092333" lon="-9.03372">
        <ele>14.0</ele>
        <time>2019-05-16T11:48:30.907Z</time>
      </trkpt>
      <trkpt lat="38.89092333" lon="-9.03372">
        <ele>14.0</ele>
        <time>2019-05-16T11:48:31.910Z</time>
      </trkpt>
      <trkpt lat="38.89094" lon="-9.03372833">
        <ele>14.0</ele>
        <time>2019-05-16T11:48:32.974Z</time>
      </trkpt>
      <trkpt lat="38.89094" lon="-9.03372833">
        <ele>14.0</ele>
        <time>2019-05-16T11:48:33.901Z</time>
      </trkpt>
      <trkpt lat="38.89096167" lon="-9.03374167">
        <ele>15.0</ele>
        <time>2019-05-16T11:48:34.913Z</time>
      </trkpt>
      <trkpt lat="38.89096167" lon="-9.03374167">
        <ele>15.0</ele>
        <time>2019-05-16T11:48:35.935Z</time>
      </trkpt>
      <trkpt lat="38.89098" lon="-9.03375667">
        <ele>15.0</ele>
        <time>2019-05-16T11:48:36.905Z</time>
      </trkpt>
      <trkpt lat="38.89098" lon="-9.03375667">
        <ele>15.0</ele>
        <time>2019-05-16T11:48:37.912Z</time>
      </trkpt>
      <trkpt lat="38.89098833" lon="-9.033765">
        <ele>16.0</ele>
        <time>2019-05-16T11:48:38.923Z</time>
      </trkpt>
      <trkpt lat="38.89098833" lon="-9.033765">
        <ele>16.0</ele>
        <time>2019-05-16T11:48:39.899Z</time>
      </trkpt>
      <trkpt lat="38.89100667" lon="-9.03377833">
        <ele>16.0</ele>
        <time>2019-05-16T11:48:40.907Z</time>
      </trkpt>
      <trkpt lat="38.89100667" lon="-9.03377833">
        <ele>16.0</ele>
        <time>2019-05-16T11:48:41.933Z</time>
      </trkpt>
      <trkpt lat="38.891025" lon="-9.03380167">
        <ele>17.0</ele>
        <time>2019-05-16T11:48:42.902Z</time>
      </trkpt>
      <trkpt lat="38.891025" lon="-9.03380167">
        <ele>17.0</ele>
        <time>2019-05-16T11:48:43.921Z</time>
      </trkpt>
      <trkpt lat="38.89104333" lon="-9.033825">
        <ele>17.0</ele>
        <time>2019-05-16T11:48:44.900Z</time>
      </trkpt>
      <trkpt lat="38.89104333" lon="-9.033825">
        <ele>17.0</ele>
        <time>2019-05-16T11:48:45.905Z</time>
      </trkpt>
      <trkpt lat="38.89105667" lon="-9.03384333">
        <ele>17.0</ele>
        <time>2019-05-16T11:48:46.917Z</time>
      </trkpt>
      <trkpt lat="38.89105667" lon="-9.03384333">
        <ele>17.0</ele>
        <time>2019-05-16T11:48:47.905Z</time>
      </trkpt>
      <trkpt lat="38.89106833" lon="-9.03386167">
        <ele>18.0</ele>
        <time>2019-05-16T11:48:48.916Z</time>
      </trkpt>
      <trkpt lat="38.89106833" lon="-9.03386167">
        <ele>18.0</ele>
        <time>2019-05-16T11:48:49.924Z</time>
      </trkpt>
      <trkpt lat="38.89108667" lon="-9.033885">
        <ele>18.0</ele>
        <time>2019-05-16T11:48:50.937Z</time>
      </trkpt>
      <trkpt lat="38.891095" lon="-9.033895">
        <ele>18.0</ele>
        <time>2019-05-16T11:48:51.923Z</time>
      </trkpt>
      <trkpt lat="38.891095" lon="-9.033895">
        <ele>18.0</ele>
        <time>2019-05-16T11:48:52.904Z</time>
      </trkpt>
      <trkpt lat="38.89111167" lon="-9.03391667">
        <ele>18.0</ele>
        <time>2019-05-16T11:48:53.919Z</time>
      </trkpt>
      <trkpt lat="38.89112" lon="-9.03393167">
        <ele>18.0</ele>
        <time>2019-05-16T11:48:54.923Z</time>
      </trkpt>
      <trkpt lat="38.89112" lon="-9.03393167">
        <ele>18.0</ele>
        <time>2019-05-16T11:48:55.912Z</time>
      </trkpt>
      <trkpt lat="38.89113667" lon="-9.033955">
        <ele>19.0</ele>
        <time>2019-05-16T11:48:56.940Z</time>
      </trkpt>
      <trkpt lat="38.89113667" lon="-9.033955">
        <ele>19.0</ele>
        <time>2019-05-16T11:48:57.908Z</time>
      </trkpt>
      <trkpt lat="38.891155" lon="-9.03397833">
        <ele>19.0</ele>
        <time>2019-05-16T11:48:58.928Z</time>
      </trkpt>
      <trkpt lat="38.891155" lon="-9.03397833">
        <ele>19.0</ele>
        <time>2019-05-16T11:48:59.911Z</time>
      </trkpt>
      <trkpt lat="38.89117833" lon="-9.03400667">
        <ele>19.0</ele>
        <time>2019-05-16T11:49:00.930Z</time>
      </trkpt>
      <trkpt lat="38.89117833" lon="-9.03400667">
        <ele>19.0</ele>
        <time>2019-05-16T11:49:01.900Z</time>
      </trkpt>
      <trkpt lat="38.89120333" lon="-9.034035">
        <ele>20.0</ele>
        <time>2019-05-16T11:49:02.910Z</time>
      </trkpt>
      <trkpt lat="38.89120333" lon="-9.034035">
        <ele>20.0</ele>
        <time>2019-05-16T11:49:03.903Z</time>
      </trkpt>
      <trkpt lat="38.89122167" lon="-9.03407">
        <ele>20.0</ele>
        <time>2019-05-16T11:49:04.919Z</time>
      </trkpt>
      <trkpt lat="38.89122167" lon="-9.03407">
        <ele>20.0</ele>
        <time>2019-05-16T11:49:05.921Z</time>
      </trkpt>
      <trkpt lat="38.89124333" lon="-9.03412167">
        <ele>20.0</ele>
        <time>2019-05-16T11:49:06.936Z</time>
      </trkpt>
      <trkpt lat="38.89124333" lon="-9.03412167">
        <ele>20.0</ele>
        <time>2019-05-16T11:49:07.932Z</time>
      </trkpt>
      <trkpt lat="38.891265" lon="-9.03417167">
        <ele>20.0</ele>
        <time>2019-05-16T11:49:08.900Z</time>
      </trkpt>
      <trkpt lat="38.89128" lon="-9.03418833">
        <ele>20.0</ele>
        <time>2019-05-16T11:49:09.924Z</time>
      </trkpt>
      <trkpt lat="38.89128" lon="-9.03418833">
        <ele>20.0</ele>
        <time>2019-05-16T11:49:10.904Z</time>
      </trkpt>
      <trkpt lat="38.89130667" lon="-9.03423">
        <ele>21.0</ele>
        <time>2019-05-16T11:49:11.912Z</time>
      </trkpt>
      <trkpt lat="38.89132" lon="-9.03425167">
        <ele>21.0</ele>
        <time>2019-05-16T11:49:12.936Z</time>
      </trkpt>
      <trkpt lat="38.89132" lon="-9.03425167">
        <ele>21.0</ele>
        <time>2019-05-16T11:49:13.934Z</time>
      </trkpt>
      <trkpt lat="38.89135333" lon="-9.03429167">
        <ele>21.0</ele>
        <time>2019-05-16T11:49:14.910Z</time>
      </trkpt>
      <trkpt lat="38.89135333" lon="-9.03429167">
        <ele>21.0</ele>
        <time>2019-05-16T11:49:15.931Z</time>
      </trkpt>
      <trkpt lat="38.89139" lon="-9.03433">
        <ele>21.0</ele>
        <time>2019-05-16T11:49:16.898Z</time>
      </trkpt>
      <trkpt lat="38.89139" lon="-9.03433">
        <ele>21.0</ele>
        <time>2019-05-16T11:49:17.919Z</time>
      </trkpt>
      <trkpt lat="38.89142167" lon="-9.034365">
        <ele>20.0</ele>
        <time>2019-05-16T11:49:18.930Z</time>
      </trkpt>
      <trkpt lat="38.89142167" lon="-9.034365">
        <ele>20.0</ele>
        <time>2019-05-16T11:49:19.910Z</time>
      </trkpt>
      <trkpt lat="38.891455" lon="-9.03440667">
        <ele>21.0</ele>
        <time>2019-05-16T11:49:20.907Z</time>
      </trkpt>
      <trkpt lat="38.891455" lon="-9.03440667">
        <ele>21.0</ele>
        <time>2019-05-16T11:49:21.936Z</time>
      </trkpt>
      <trkpt lat="38.89148667" lon="-9.03444667">
        <ele>21.0</ele>
        <time>2019-05-16T11:49:22.905Z</time>
      </trkpt>
      <trkpt lat="38.89148667" lon="-9.03444667">
        <ele>21.0</ele>
        <time>2019-05-16T11:49:23.934Z</time>
      </trkpt>
      <trkpt lat="38.89151833" lon="-9.03447667">
        <ele>21.0</ele>
        <time>2019-05-16T11:49:24.910Z</time>
      </trkpt>
      <trkpt lat="38.89151833" lon="-9.03447667">
        <ele>21.0</ele>
        <time>2019-05-16T11:49:25.923Z</time>
      </trkpt>
      <trkpt lat="38.89153667" lon="-9.03452">
        <ele>21.0</ele>
        <time>2019-05-16T11:49:26.900Z</time>
      </trkpt>
      <trkpt lat="38.89153667" lon="-9.03452">
        <ele>21.0</ele>
        <time>2019-05-16T11:49:27.913Z</time>
      </trkpt>
      <trkpt lat="38.89156333" lon="-9.03455">
        <ele>21.0</ele>
        <time>2019-05-16T11:49:28.926Z</time>
      </trkpt>
      <trkpt lat="38.89156333" lon="-9.03455">
        <ele>21.0</ele>
        <time>2019-05-16T11:49:29.918Z</time>
      </trkpt>
      <trkpt lat="38.89158833" lon="-9.03458333">
        <ele>21.0</ele>
        <time>2019-05-16T11:49:30.926Z</time>
      </trkpt>
      <trkpt lat="38.89158833" lon="-9.03458333">
        <ele>21.0</ele>
        <time>2019-05-16T11:49:31.919Z</time>
      </trkpt>
      <trkpt lat="38.89162333" lon="-9.03462">
        <ele>21.0</ele>
        <time>2019-05-16T11:49:32.930Z</time>
      </trkpt>
      <trkpt lat="38.89162333" lon="-9.03462">
        <ele>21.0</ele>
        <time>2019-05-16T11:49:33.901Z</time>
      </trkpt>
      <trkpt lat="38.89166667" lon="-9.03466">
        <ele>20.0</ele>
        <time>2019-05-16T11:49:34.912Z</time>
      </trkpt>
      <trkpt lat="38.89166667" lon="-9.03466">
        <ele>20.0</ele>
        <time>2019-05-16T11:49:35.902Z</time>
      </trkpt>
      <trkpt lat="38.89170833" lon="-9.03470333">
        <ele>20.0</ele>
        <time>2019-05-16T11:49:36.917Z</time>
      </trkpt>
      <trkpt lat="38.89170833" lon="-9.03470333">
        <ele>20.0</ele>
        <time>2019-05-16T11:49:37.931Z</time>
      </trkpt>
      <trkpt lat="38.89174833" lon="-9.03474333">
        <ele>20.0</ele>
        <time>2019-05-16T11:49:38.901Z</time>
      </trkpt>
      <trkpt lat="38.89174833" lon="-9.03474333">
        <ele>20.0</ele>
        <time>2019-05-16T11:49:39.897Z</time>
      </trkpt>
      <trkpt lat="38.89179" lon="-9.034775">
        <ele>19.0</ele>
        <time>2019-05-16T11:49:40.906Z</time>
      </trkpt>
      <trkpt lat="38.89180833" lon="-9.03479">
        <ele>19.0</ele>
        <time>2019-05-16T11:49:41.902Z</time>
      </trkpt>
      <trkpt lat="38.891825" lon="-9.034805">
        <ele>19.0</ele>
        <time>2019-05-16T11:49:42.920Z</time>
      </trkpt>
      <trkpt lat="38.891825" lon="-9.034805">
        <ele>19.0</ele>
        <time>2019-05-16T11:49:43.931Z</time>
      </trkpt>
      <trkpt lat="38.89186333" lon="-9.034845">
        <ele>19.0</ele>
        <time>2019-05-16T11:49:44.908Z</time>
      </trkpt>
      <trkpt lat="38.89186333" lon="-9.034845">
        <ele>19.0</ele>
        <time>2019-05-16T11:49:45.910Z</time>
      </trkpt>
      <trkpt lat="38.89190167" lon="-9.03489333">
        <ele>20.0</ele>
        <time>2019-05-16T11:49:46.921Z</time>
      </trkpt>
      <trkpt lat="38.89190167" lon="-9.03489333">
        <ele>20.0</ele>
        <time>2019-05-16T11:49:47.919Z</time>
      </trkpt>
      <trkpt lat="38.89194" lon="-9.03492833">
        <ele>19.0</ele>
        <time>2019-05-16T11:49:48.932Z</time>
      </trkpt>
      <trkpt lat="38.89194" lon="-9.03492833">
        <ele>19.0</ele>
        <time>2019-05-16T11:49:49.934Z</time>
      </trkpt>
      <trkpt lat="38.891985" lon="-9.03496167">
        <ele>19.0</ele>
        <time>2019-05-16T11:49:50.917Z</time>
      </trkpt>
      <trkpt lat="38.891985" lon="-9.03496167">
        <ele>19.0</ele>
        <time>2019-05-16T11:49:51.932Z</time>
      </trkpt>
      <trkpt lat="38.89202167" lon="-9.034985">
        <ele>18.0</ele>
        <time>2019-05-16T11:49:52.911Z</time>
      </trkpt>
      <trkpt lat="38.89202167" lon="-9.034985">
        <ele>18.0</ele>
        <time>2019-05-16T11:49:53.912Z</time>
      </trkpt>
      <trkpt lat="38.89205333" lon="-9.035015">
        <ele>18.0</ele>
        <time>2019-05-16T11:49:54.923Z</time>
      </trkpt>
      <trkpt lat="38.89205333" lon="-9.035015">
        <ele>18.0</ele>
        <time>2019-05-16T11:49:55.932Z</time>
      </trkpt>
      <trkpt lat="38.8921" lon="-9.035045">
        <ele>17.0</ele>
        <time>2019-05-16T11:49:56.903Z</time>
      </trkpt>
      <trkpt lat="38.8921" lon="-9.035045">
        <ele>17.0</ele>
        <time>2019-05-16T11:49:57.904Z</time>
      </trkpt>
      <trkpt lat="38.89214667" lon="-9.03507333">
        <ele>17.0</ele>
        <time>2019-05-16T11:49:58.910Z</time>
      </trkpt>
      <trkpt lat="38.89216833" lon="-9.03508667">
        <ele>16.0</ele>
        <time>2019-05-16T11:49:59.917Z</time>
      </trkpt>
      <trkpt lat="38.89219" lon="-9.03510167">
        <ele>16.0</ele>
        <time>2019-05-16T11:50:00.910Z</time>
      </trkpt>
      <trkpt lat="38.89219" lon="-9.03510167">
        <ele>16.0</ele>
        <time>2019-05-16T11:50:01.934Z</time>
      </trkpt>
      <trkpt lat="38.89223667" lon="-9.035125">
        <ele>16.0</ele>
        <time>2019-05-16T11:50:02.907Z</time>
      </trkpt>
      <trkpt lat="38.89223667" lon="-9.035125">
        <ele>16.0</ele>
        <time>2019-05-16T11:50:03.906Z</time>
      </trkpt>
      <trkpt lat="38.89229" lon="-9.03514333">
        <ele>16.0</ele>
        <time>2019-05-16T11:50:04.915Z</time>
      </trkpt>
      <trkpt lat="38.89229" lon="-9.03514333">
        <ele>16.0</ele>
        <time>2019-05-16T11:50:05.904Z</time>
      </trkpt>
      <trkpt lat="38.89233833" lon="-9.03516667">
        <ele>16.0</ele>
        <time>2019-05-16T11:50:06.912Z</time>
      </trkpt>
      <trkpt lat="38.89233833" lon="-9.03516667">
        <ele>16.0</ele>
        <time>2019-05-16T11:50:07.917Z</time>
      </trkpt>
      <trkpt lat="38.89238833" lon="-9.03518333">
        <ele>16.0</ele>
        <time>2019-05-16T11:50:08.931Z</time>
      </trkpt>
      <trkpt lat="38.89238833" lon="-9.03518333">
        <ele>16.0</ele>
        <time>2019-05-16T11:50:09.905Z</time>
      </trkpt>
      <trkpt lat="38.89243667" lon="-9.035205">
        <ele>17.0</ele>
        <time>2019-05-16T11:50:10.919Z</time>
      </trkpt>
      <trkpt lat="38.89243667" lon="-9.035205">
        <ele>17.0</ele>
        <time>2019-05-16T11:50:11.933Z</time>
      </trkpt>
      <trkpt lat="38.89249167" lon="-9.03521667">
        <ele>16.0</ele>
        <time>2019-05-16T11:50:12.913Z</time>
      </trkpt>
      <trkpt lat="38.89249167" lon="-9.03521667">
        <ele>16.0</ele>
        <time>2019-05-16T11:50:13.928Z</time>
      </trkpt>
      <trkpt lat="38.89255" lon="-9.03523333">
        <ele>16.0</ele>
        <time>2019-05-16T11:50:14.905Z</time>
      </trkpt>
      <trkpt lat="38.89255" lon="-9.03523333">
        <ele>16.0</ele>
        <time>2019-05-16T11:50:15.899Z</time>
      </trkpt>
      <trkpt lat="38.89260667" lon="-9.03525">
        <ele>16.0</ele>
        <time>2019-05-16T11:50:16.911Z</time>
      </trkpt>
      <trkpt lat="38.89260667" lon="-9.03525">
        <ele>16.0</ele>
        <time>2019-05-16T11:50:17.900Z</time>
      </trkpt>
      <trkpt lat="38.89266667" lon="-9.03525667">
        <ele>16.0</ele>
        <time>2019-05-16T11:50:18.913Z</time>
      </trkpt>
      <trkpt lat="38.89266667" lon="-9.03525667">
        <ele>16.0</ele>
        <time>2019-05-16T11:50:19.902Z</time>
      </trkpt>
      <trkpt lat="38.89272" lon="-9.03526333">
        <ele>15.0</ele>
        <time>2019-05-16T11:50:20.927Z</time>
      </trkpt>
      <trkpt lat="38.89272" lon="-9.03526333">
        <ele>15.0</ele>
        <time>2019-05-16T11:50:21.900Z</time>
      </trkpt>
      <trkpt lat="38.89277167" lon="-9.035275">
        <ele>14.0</ele>
        <time>2019-05-16T11:50:22.913Z</time>
      </trkpt>
      <trkpt lat="38.89277167" lon="-9.035275">
        <ele>14.0</ele>
        <time>2019-05-16T11:50:23.907Z</time>
      </trkpt>
      <trkpt lat="38.89282333" lon="-9.035285">
        <ele>14.0</ele>
        <time>2019-05-16T11:50:24.923Z</time>
      </trkpt>
      <trkpt lat="38.89282333" lon="-9.035285">
        <ele>14.0</ele>
        <time>2019-05-16T11:50:25.932Z</time>
      </trkpt>
      <trkpt lat="38.892875" lon="-9.035295">
        <ele>14.0</ele>
        <time>2019-05-16T11:50:26.901Z</time>
      </trkpt>
      <trkpt lat="38.892875" lon="-9.035295">
        <ele>14.0</ele>
        <time>2019-05-16T11:50:27.900Z</time>
      </trkpt>
      <trkpt lat="38.89292667" lon="-9.03529833">
        <ele>14.0</ele>
        <time>2019-05-16T11:50:28.907Z</time>
      </trkpt>
      <trkpt lat="38.89295" lon="-9.03530333">
        <ele>14.0</ele>
        <time>2019-05-16T11:50:29.939Z</time>
      </trkpt>
      <trkpt lat="38.89295" lon="-9.03530333">
        <ele>14.0</ele>
        <time>2019-05-16T11:50:31.052Z</time>
      </trkpt>
      <trkpt lat="38.89297333" lon="-9.03530833">
        <ele>14.0</ele>
        <time>2019-05-16T11:50:31.918Z</time>
      </trkpt>
      <trkpt lat="38.892995" lon="-9.03531">
        <ele>13.0</ele>
        <time>2019-05-16T11:50:32.930Z</time>
      </trkpt>
      <trkpt lat="38.892995" lon="-9.03531">
        <ele>13.0</ele>
        <time>2019-05-16T11:50:33.910Z</time>
      </trkpt>
      <trkpt lat="38.89299333" lon="-9.03530833">
        <ele>13.0</ele>
        <time>2019-05-16T11:50:34.918Z</time>
      </trkpt>
      <trkpt lat="38.89299333" lon="-9.03530833">
        <ele>13.0</ele>
        <time>2019-05-16T11:50:35.930Z</time>
      </trkpt>
      <trkpt lat="38.89299333" lon="-9.03530833">
        <ele>13.0</ele>
        <time>2019-05-16T11:50:36.936Z</time>
      </trkpt>
      <trkpt lat="38.89299333" lon="-9.03530833">
        <ele>13.0</ele>
        <time>2019-05-16T11:50:37.901Z</time>
      </trkpt>
      <trkpt lat="38.89299333" lon="-9.03530833">
        <ele>13.0</ele>
        <time>2019-05-16T11:50:38.921Z</time>
      </trkpt>
      <trkpt lat="38.89299333" lon="-9.03530833">
        <ele>13.0</ele>
        <time>2019-05-16T11:50:39.908Z</time>
      </trkpt>
      <trkpt lat="38.89299333" lon="-9.03530833">
        <ele>13.0</ele>
        <time>2019-05-16T11:50:40.901Z</time>
      </trkpt>
      <trkpt lat="38.89299333" lon="-9.03530833">
        <ele>13.0</ele>
        <time>2019-05-16T11:50:41.904Z</time>
      </trkpt>
      <trkpt lat="38.89299333" lon="-9.03530833">
        <ele>13.0</ele>
        <time>2019-05-16T11:50:42.907Z</time>
      </trkpt>
      <trkpt lat="38.89299333" lon="-9.03530833">
        <ele>13.0</ele>
        <time>2019-05-16T11:50:43.909Z</time>
      </trkpt>
      <trkpt lat="38.89299333" lon="-9.03530833">
        <ele>13.0</ele>
        <time>2019-05-16T11:50:44.900Z</time>
      </trkpt>
      <trkpt lat="38.89299333" lon="-9.03530833">
        <ele>13.0</ele>
        <time>2019-05-16T11:50:45.899Z</time>
      </trkpt>
      <trkpt lat="38.89299333" lon="-9.03530833">
        <ele>13.0</ele>
        <time>2019-05-16T11:50:46.905Z</time>
      </trkpt>
      <trkpt lat="38.89299333" lon="-9.03530833">
        <ele>13.0</ele>
        <time>2019-05-16T11:50:47.900Z</time>
      </trkpt>
      <trkpt lat="38.89299333" lon="-9.03530833">
        <ele>13.0</ele>
        <time>2019-05-16T11:50:48.908Z</time>
      </trkpt>
      <trkpt lat="38.89299333" lon="-9.03530833">
        <ele>13.0</ele>
        <time>2019-05-16T11:50:49.916Z</time>
      </trkpt>
      <trkpt lat="38.89299333" lon="-9.03530833">
        <ele>13.0</ele>
        <time>2019-05-16T11:50:50.905Z</time>
      </trkpt>
      <trkpt lat="38.89299333" lon="-9.03530833">
        <ele>13.0</ele>
        <time>2019-05-16T11:50:51.900Z</time>
      </trkpt>
      <trkpt lat="38.89299333" lon="-9.03530833">
        <ele>13.0</ele>
        <time>2019-05-16T11:50:52.905Z</time>
      </trkpt>
      <trkpt lat="38.89299333" lon="-9.03530833">
        <ele>13.0</ele>
        <time>2019-05-16T11:50:53.904Z</time>
      </trkpt>
      <trkpt lat="38.89299333" lon="-9.03530833">
        <ele>13.0</ele>
        <time>2019-05-16T11:50:54.903Z</time>
      </trkpt>
      <trkpt lat="38.89299333" lon="-9.03530833">
        <ele>13.0</ele>
        <time>2019-05-16T11:50:55.904Z</time>
      </trkpt>
      <trkpt lat="38.89299333" lon="-9.03530833">
        <ele>13.0</ele>
        <time>2019-05-16T11:50:56.907Z</time>
      </trkpt>
      <trkpt lat="38.893015" lon="-9.03530167">
        <ele>11.0</ele>
        <time>2019-05-16T11:50:57.905Z</time>
      </trkpt>
      <trkpt lat="38.893015" lon="-9.03530167">
        <ele>11.0</ele>
        <time>2019-05-16T11:50:58.900Z</time>
      </trkpt>
      <trkpt lat="38.89302333" lon="-9.03530333">
        <ele>11.0</ele>
        <time>2019-05-16T11:50:59.904Z</time>
      </trkpt>
      <trkpt lat="38.893025" lon="-9.03530167">
        <ele>10.0</ele>
        <time>2019-05-16T11:51:00.907Z</time>
      </trkpt>
      <trkpt lat="38.893025" lon="-9.03530167">
        <ele>10.0</ele>
        <time>2019-05-16T11:51:01.900Z</time>
      </trkpt>
      <trkpt lat="38.893025" lon="-9.03530167">
        <ele>10.0</ele>
        <time>2019-05-16T11:51:02.904Z</time>
      </trkpt>
      <trkpt lat="38.893025" lon="-9.03530167">
        <ele>10.0</ele>
        <time>2019-05-16T11:51:03.900Z</time>
      </trkpt>
      <trkpt lat="38.893025" lon="-9.03530167">
        <ele>10.0</ele>
        <time>2019-05-16T11:51:04.925Z</time>
      </trkpt>
      <trkpt lat="38.893025" lon="-9.03530167">
        <ele>10.0</ele>
        <time>2019-05-16T11:51:05.910Z</time>
      </trkpt>
      <trkpt lat="38.893025" lon="-9.03530167">
        <ele>10.0</ele>
        <time>2019-05-16T11:51:06.908Z</time>
      </trkpt>
      <trkpt lat="38.893025" lon="-9.03530167">
        <ele>10.0</ele>
        <time>2019-05-16T11:51:07.900Z</time>
      </trkpt>
      <trkpt lat="38.893025" lon="-9.03530167">
        <ele>10.0</ele>
        <time>2019-05-16T11:51:08.906Z</time>
      </trkpt>
      <trkpt lat="38.893025" lon="-9.03530167">
        <ele>10.0</ele>
        <time>2019-05-16T11:51:09.900Z</time>
      </trkpt>
      <trkpt lat="38.893025" lon="-9.03530167">
        <ele>10.0</ele>
        <time>2019-05-16T11:51:10.905Z</time>
      </trkpt>
      <trkpt lat="38.893025" lon="-9.03530167">
        <ele>10.0</ele>
        <time>2019-05-16T11:51:11.900Z</time>
      </trkpt>
      <trkpt lat="38.893025" lon="-9.03530167">
        <ele>10.0</ele>
        <time>2019-05-16T11:51:12.907Z</time>
      </trkpt>
      <trkpt lat="38.893025" lon="-9.03530167">
        <ele>10.0</ele>
        <time>2019-05-16T11:51:13.901Z</time>
      </trkpt>
      <trkpt lat="38.89304667" lon="-9.03532167">
        <ele>9.0</ele>
        <time>2019-05-16T11:51:14.905Z</time>
      </trkpt>
      <trkpt lat="38.89304667" lon="-9.03532167">
        <ele>9.0</ele>
        <time>2019-05-16T11:51:15.900Z</time>
      </trkpt>
      <trkpt lat="38.89307667" lon="-9.03533">
        <ele>9.0</ele>
        <time>2019-05-16T11:51:16.903Z</time>
      </trkpt>
      <trkpt lat="38.89307667" lon="-9.03533">
        <ele>9.0</ele>
        <time>2019-05-16T11:51:17.900Z</time>
      </trkpt>
      <trkpt lat="38.89312" lon="-9.03533833">
        <ele>9.0</ele>
        <time>2019-05-16T11:51:18.907Z</time>
      </trkpt>
      <trkpt lat="38.89314667" lon="-9.03534">
        <ele>9.0</ele>
        <time>2019-05-16T11:51:19.905Z</time>
      </trkpt>
      <trkpt lat="38.89314667" lon="-9.03534">
        <ele>9.0</ele>
        <time>2019-05-16T11:51:20.903Z</time>
      </trkpt>
      <trkpt lat="38.893205" lon="-9.03534833">
        <ele>9.0</ele>
        <time>2019-05-16T11:51:21.902Z</time>
      </trkpt>
      <trkpt lat="38.893205" lon="-9.03534833">
        <ele>9.0</ele>
        <time>2019-05-16T11:51:22.898Z</time>
      </trkpt>
      <trkpt lat="38.89326833" lon="-9.03536">
        <ele>9.0</ele>
        <time>2019-05-16T11:51:23.910Z</time>
      </trkpt>
      <trkpt lat="38.89329833" lon="-9.03536667">
        <ele>9.0</ele>
        <time>2019-05-16T11:51:24.900Z</time>
      </trkpt>
      <trkpt lat="38.89329833" lon="-9.03536667">
        <ele>9.0</ele>
        <time>2019-05-16T11:51:25.921Z</time>
      </trkpt>
      <trkpt lat="38.89335833" lon="-9.03537667">
        <ele>9.0</ele>
        <time>2019-05-16T11:51:26.902Z</time>
      </trkpt>
      <trkpt lat="38.89335833" lon="-9.03537667">
        <ele>9.0</ele>
        <time>2019-05-16T11:51:27.908Z</time>
      </trkpt>
      <trkpt lat="38.89341" lon="-9.03538833">
        <ele>9.0</ele>
        <time>2019-05-16T11:51:28.900Z</time>
      </trkpt>
      <trkpt lat="38.89341" lon="-9.03538833">
        <ele>9.0</ele>
        <time>2019-05-16T11:51:29.921Z</time>
      </trkpt>
      <trkpt lat="38.89346167" lon="-9.03540333">
        <ele>9.0</ele>
        <time>2019-05-16T11:51:30.899Z</time>
      </trkpt>
      <trkpt lat="38.89346167" lon="-9.03540333">
        <ele>9.0</ele>
        <time>2019-05-16T11:51:31.910Z</time>
      </trkpt>
      <trkpt lat="38.89353" lon="-9.03543">
        <ele>9.0</ele>
        <time>2019-05-16T11:51:32.917Z</time>
      </trkpt>
      <trkpt lat="38.89355667" lon="-9.03544333">
        <ele>9.0</ele>
        <time>2019-05-16T11:51:33.926Z</time>
      </trkpt>
      <trkpt lat="38.89355667" lon="-9.03544333">
        <ele>9.0</ele>
        <time>2019-05-16T11:51:34.928Z</time>
      </trkpt>
      <trkpt lat="38.8936" lon="-9.03547">
        <ele>10.0</ele>
        <time>2019-05-16T11:51:35.897Z</time>
      </trkpt>
      <trkpt lat="38.89361833" lon="-9.03548167">
        <ele>10.0</ele>
        <time>2019-05-16T11:51:36.937Z</time>
      </trkpt>
      <trkpt lat="38.89361833" lon="-9.03548167">
        <ele>10.0</ele>
        <time>2019-05-16T11:51:37.912Z</time>
      </trkpt>
      <trkpt lat="38.89366333" lon="-9.03550667">
        <ele>11.0</ele>
        <time>2019-05-16T11:51:38.938Z</time>
      </trkpt>
      <trkpt lat="38.89369167" lon="-9.03552333">
        <ele>11.0</ele>
        <time>2019-05-16T11:51:39.905Z</time>
      </trkpt>
      <trkpt lat="38.89369167" lon="-9.03552333">
        <ele>11.0</ele>
        <time>2019-05-16T11:51:40.920Z</time>
      </trkpt>
      <trkpt lat="38.89375333" lon="-9.035555">
        <ele>11.0</ele>
        <time>2019-05-16T11:51:41.931Z</time>
      </trkpt>
      <trkpt lat="38.893785" lon="-9.03555333">
        <ele>11.0</ele>
        <time>2019-05-16T11:51:42.899Z</time>
      </trkpt>
      <trkpt lat="38.893785" lon="-9.03555333">
        <ele>11.0</ele>
        <time>2019-05-16T11:51:43.911Z</time>
      </trkpt>
      <trkpt lat="38.89383667" lon="-9.035525">
        <ele>11.0</ele>
        <time>2019-05-16T11:51:44.923Z</time>
      </trkpt>
      <trkpt lat="38.89383667" lon="-9.035525">
        <ele>11.0</ele>
        <time>2019-05-16T11:51:45.901Z</time>
      </trkpt>
      <trkpt lat="38.89388333" lon="-9.03548333">
        <ele>11.0</ele>
        <time>2019-05-16T11:51:46.912Z</time>
      </trkpt>
      <trkpt lat="38.89391" lon="-9.03546333">
        <ele>11.0</ele>
        <time>2019-05-16T11:51:47.900Z</time>
      </trkpt>
      <trkpt lat="38.89391" lon="-9.03546333">
        <ele>11.0</ele>
        <time>2019-05-16T11:51:48.932Z</time>
      </trkpt>
      <trkpt lat="38.89397333" lon="-9.035445">
        <ele>10.0</ele>
        <time>2019-05-16T11:51:49.901Z</time>
      </trkpt>
      <trkpt lat="38.89397333" lon="-9.035445">
        <ele>10.0</ele>
        <time>2019-05-16T11:51:50.901Z</time>
      </trkpt>
      <trkpt lat="38.89405667" lon="-9.03544333">
        <ele>10.0</ele>
        <time>2019-05-16T11:51:51.928Z</time>
      </trkpt>
      <trkpt lat="38.89405667" lon="-9.03544333">
        <ele>10.0</ele>
        <time>2019-05-16T11:51:52.900Z</time>
      </trkpt>
      <trkpt lat="38.89412833" lon="-9.03544167">
        <ele>10.0</ele>
        <time>2019-05-16T11:51:53.910Z</time>
      </trkpt>
      <trkpt lat="38.89416" lon="-9.03544167">
        <ele>11.0</ele>
        <time>2019-05-16T11:51:54.903Z</time>
      </trkpt>
      <trkpt lat="38.89416" lon="-9.03544167">
        <ele>11.0</ele>
        <time>2019-05-16T11:51:55.933Z</time>
      </trkpt>
      <trkpt lat="38.89422833" lon="-9.035435">
        <ele>12.0</ele>
        <time>2019-05-16T11:51:56.907Z</time>
      </trkpt>
      <trkpt lat="38.89422833" lon="-9.035435">
        <ele>12.0</ele>
        <time>2019-05-16T11:51:57.921Z</time>
      </trkpt>
      <trkpt lat="38.89428667" lon="-9.03543667">
        <ele>14.0</ele>
        <time>2019-05-16T11:51:58.934Z</time>
      </trkpt>
      <trkpt lat="38.89428667" lon="-9.03543667">
        <ele>14.0</ele>
        <time>2019-05-16T11:51:59.932Z</time>
      </trkpt>
      <trkpt lat="38.89434167" lon="-9.035435">
        <ele>15.0</ele>
        <time>2019-05-16T11:52:00.900Z</time>
      </trkpt>
      <trkpt lat="38.89434167" lon="-9.035435">
        <ele>15.0</ele>
        <time>2019-05-16T11:52:01.924Z</time>
      </trkpt>
      <trkpt lat="38.89439" lon="-9.03542167">
        <ele>16.0</ele>
        <time>2019-05-16T11:52:02.905Z</time>
      </trkpt>
      <trkpt lat="38.89439" lon="-9.03542167">
        <ele>16.0</ele>
        <time>2019-05-16T11:52:03.900Z</time>
      </trkpt>
      <trkpt lat="38.89444" lon="-9.03541833">
        <ele>18.0</ele>
        <time>2019-05-16T11:52:04.916Z</time>
      </trkpt>
      <trkpt lat="38.89444" lon="-9.03541833">
        <ele>18.0</ele>
        <time>2019-05-16T11:52:05.930Z</time>
      </trkpt>
      <trkpt lat="38.89448667" lon="-9.03541">
        <ele>19.0</ele>
        <time>2019-05-16T11:52:06.899Z</time>
      </trkpt>
      <trkpt lat="38.89448667" lon="-9.03541">
        <ele>19.0</ele>
        <time>2019-05-16T11:52:07.926Z</time>
      </trkpt>
      <trkpt lat="38.89453167" lon="-9.0354">
        <ele>20.0</ele>
        <time>2019-05-16T11:52:08.935Z</time>
      </trkpt>
      <trkpt lat="38.89453167" lon="-9.0354">
        <ele>20.0</ele>
        <time>2019-05-16T11:52:09.897Z</time>
      </trkpt>
      <trkpt lat="38.89457167" lon="-9.03536167">
        <ele>23.0</ele>
        <time>2019-05-16T11:52:10.905Z</time>
      </trkpt>
      <trkpt lat="38.89457167" lon="-9.03536167">
        <ele>23.0</ele>
        <time>2019-05-16T11:52:11.908Z</time>
      </trkpt>
      <trkpt lat="38.89461333" lon="-9.03535833">
        <ele>25.0</ele>
        <time>2019-05-16T11:52:12.920Z</time>
      </trkpt>
      <trkpt lat="38.89461333" lon="-9.03535833">
        <ele>25.0</ele>
        <time>2019-05-16T11:52:13.914Z</time>
      </trkpt>
      <trkpt lat="38.89465667" lon="-9.03536">
        <ele>27.0</ele>
        <time>2019-05-16T11:52:14.926Z</time>
      </trkpt>
      <trkpt lat="38.89465667" lon="-9.03536">
        <ele>27.0</ele>
        <time>2019-05-16T11:52:15.932Z</time>
      </trkpt>
      <trkpt lat="38.89470667" lon="-9.03537">
        <ele>28.0</ele>
        <time>2019-05-16T11:52:16.905Z</time>
      </trkpt>
      <trkpt lat="38.89470667" lon="-9.03537">
        <ele>28.0</ele>
        <time>2019-05-16T11:52:17.927Z</time>
      </trkpt>
      <trkpt lat="38.89475167" lon="-9.03536333">
        <ele>29.0</ele>
        <time>2019-05-16T11:52:18.936Z</time>
      </trkpt>
      <trkpt lat="38.89475167" lon="-9.03536333">
        <ele>29.0</ele>
        <time>2019-05-16T11:52:19.928Z</time>
      </trkpt>
      <trkpt lat="38.894805" lon="-9.03533">
        <ele>32.0</ele>
        <time>2019-05-16T11:52:20.901Z</time>
      </trkpt>
      <trkpt lat="38.894825" lon="-9.03533">
        <ele>33.0</ele>
        <time>2019-05-16T11:52:21.912Z</time>
      </trkpt>
      <trkpt lat="38.894825" lon="-9.03533">
        <ele>33.0</ele>
        <time>2019-05-16T11:52:22.920Z</time>
      </trkpt>
      <trkpt lat="38.89483667" lon="-9.03532">
        <ele>39.0</ele>
        <time>2019-05-16T11:52:23.932Z</time>
      </trkpt>
      <trkpt lat="38.89485167" lon="-9.03533">
        <ele>40.0</ele>
        <time>2019-05-16T11:52:24.915Z</time>
      </trkpt>
      <trkpt lat="38.89485167" lon="-9.03533">
        <ele>40.0</ele>
        <time>2019-05-16T11:52:25.922Z</time>
      </trkpt>
      <trkpt lat="38.89490167" lon="-9.035375">
        <ele>41.0</ele>
        <time>2019-05-16T11:52:26.937Z</time>
      </trkpt>
      <trkpt lat="38.89490167" lon="-9.035375">
        <ele>41.0</ele>
        <time>2019-05-16T11:52:27.910Z</time>
      </trkpt>
      <trkpt lat="38.89494333" lon="-9.03541167">
        <ele>42.0</ele>
        <time>2019-05-16T11:52:28.927Z</time>
      </trkpt>
      <trkpt lat="38.89494333" lon="-9.03541167">
        <ele>42.0</ele>
        <time>2019-05-16T11:52:29.914Z</time>
      </trkpt>
      <trkpt lat="38.89498333" lon="-9.03543167">
        <ele>44.0</ele>
        <time>2019-05-16T11:52:30.930Z</time>
      </trkpt>
      <trkpt lat="38.89498333" lon="-9.03543167">
        <ele>44.0</ele>
        <time>2019-05-16T11:52:31.928Z</time>
      </trkpt>
      <trkpt lat="38.895055" lon="-9.03540333">
        <ele>46.0</ele>
        <time>2019-05-16T11:52:32.936Z</time>
      </trkpt>
      <trkpt lat="38.895055" lon="-9.03540333">
        <ele>46.0</ele>
        <time>2019-05-16T11:52:33.931Z</time>
      </trkpt>
      <trkpt lat="38.89509833" lon="-9.03535833">
        <ele>47.0</ele>
        <time>2019-05-16T11:52:34.900Z</time>
      </trkpt>
      <trkpt lat="38.89509833" lon="-9.03535833">
        <ele>47.0</ele>
        <time>2019-05-16T11:52:35.900Z</time>
      </trkpt>
      <trkpt lat="38.895145" lon="-9.035355">
        <ele>47.0</ele>
        <time>2019-05-16T11:52:36.907Z</time>
      </trkpt>
      <trkpt lat="38.895145" lon="-9.035355">
        <ele>47.0</ele>
        <time>2019-05-16T11:52:37.922Z</time>
      </trkpt>
      <trkpt lat="38.89517" lon="-9.035285">
        <ele>47.0</ele>
        <time>2019-05-16T11:52:38.910Z</time>
      </trkpt>
      <trkpt lat="38.89517" lon="-9.035285">
        <ele>47.0</ele>
        <time>2019-05-16T11:52:39.905Z</time>
      </trkpt>
      <trkpt lat="38.895205" lon="-9.03520333">
        <ele>46.0</ele>
        <time>2019-05-16T11:52:40.915Z</time>
      </trkpt>
      <trkpt lat="38.895205" lon="-9.03520333">
        <ele>46.0</ele>
        <time>2019-05-16T11:52:41.906Z</time>
      </trkpt>
      <trkpt lat="38.89523833" lon="-9.035125">
        <ele>45.0</ele>
        <time>2019-05-16T11:52:42.921Z</time>
      </trkpt>
      <trkpt lat="38.89523833" lon="-9.035125">
        <ele>45.0</ele>
        <time>2019-05-16T11:52:43.916Z</time>
      </trkpt>
      <trkpt lat="38.89525667" lon="-9.035035">
        <ele>44.0</ele>
        <time>2019-05-16T11:52:44.924Z</time>
      </trkpt>
      <trkpt lat="38.89527667" lon="-9.03499167">
        <ele>44.0</ele>
        <time>2019-05-16T11:52:45.933Z</time>
      </trkpt>
      <trkpt lat="38.89527667" lon="-9.03499167">
        <ele>44.0</ele>
        <time>2019-05-16T11:52:46.935Z</time>
      </trkpt>
      <trkpt lat="38.895295" lon="-9.0349">
        <ele>44.0</ele>
        <time>2019-05-16T11:52:47.899Z</time>
      </trkpt>
      <trkpt lat="38.895305" lon="-9.03485333">
        <ele>43.0</ele>
        <time>2019-05-16T11:52:48.923Z</time>
      </trkpt>
      <trkpt lat="38.895305" lon="-9.03485333">
        <ele>43.0</ele>
        <time>2019-05-16T11:52:49.910Z</time>
      </trkpt>
      <trkpt lat="38.89533" lon="-9.03476667">
        <ele>41.0</ele>
        <time>2019-05-16T11:52:50.928Z</time>
      </trkpt>
      <trkpt lat="38.89533" lon="-9.03476667">
        <ele>41.0</ele>
        <time>2019-05-16T11:52:51.900Z</time>
      </trkpt>
      <trkpt lat="38.895345" lon="-9.03467167">
        <ele>39.0</ele>
        <time>2019-05-16T11:52:52.917Z</time>
      </trkpt>
      <trkpt lat="38.89537" lon="-9.03463333">
        <ele>38.0</ele>
        <time>2019-05-16T11:52:53.913Z</time>
      </trkpt>
      <trkpt lat="38.89539167" lon="-9.03459333">
        <ele>37.0</ele>
        <time>2019-05-16T11:52:54.910Z</time>
      </trkpt>
      <trkpt lat="38.89539167" lon="-9.03459333">
        <ele>37.0</ele>
        <time>2019-05-16T11:52:55.898Z</time>
      </trkpt>
      <trkpt lat="38.89544167" lon="-9.03451667">
        <ele>36.0</ele>
        <time>2019-05-16T11:52:56.909Z</time>
      </trkpt>
      <trkpt lat="38.89544167" lon="-9.03451667">
        <ele>36.0</ele>
        <time>2019-05-16T11:52:57.911Z</time>
      </trkpt>
      <trkpt lat="38.89550167" lon="-9.03444667">
        <ele>33.0</ele>
        <time>2019-05-16T11:52:58.927Z</time>
      </trkpt>
      <trkpt lat="38.89550167" lon="-9.03444667">
        <ele>33.0</ele>
        <time>2019-05-16T11:52:59.932Z</time>
      </trkpt>
      <trkpt lat="38.895545" lon="-9.034385">
        <ele>31.0</ele>
        <time>2019-05-16T11:53:00.908Z</time>
      </trkpt>
      <trkpt lat="38.895545" lon="-9.034385">
        <ele>31.0</ele>
        <time>2019-05-16T11:53:01.900Z</time>
      </trkpt>
      <trkpt lat="38.89557833" lon="-9.03431167">
        <ele>30.0</ele>
        <time>2019-05-16T11:53:02.910Z</time>
      </trkpt>
      <trkpt lat="38.89557833" lon="-9.03431167">
        <ele>30.0</ele>
        <time>2019-05-16T11:53:03.921Z</time>
      </trkpt>
      <trkpt lat="38.89563" lon="-9.03426">
        <ele>28.0</ele>
        <time>2019-05-16T11:53:04.935Z</time>
      </trkpt>
      <trkpt lat="38.89566333" lon="-9.03426">
        <ele>28.0</ele>
        <time>2019-05-16T11:53:05.919Z</time>
      </trkpt>
      <trkpt lat="38.89566333" lon="-9.03426">
        <ele>28.0</ele>
        <time>2019-05-16T11:53:06.921Z</time>
      </trkpt>
      <trkpt lat="38.89571" lon="-9.03426833">
        <ele>27.0</ele>
        <time>2019-05-16T11:53:07.937Z</time>
      </trkpt>
      <trkpt lat="38.89571" lon="-9.03426833">
        <ele>27.0</ele>
        <time>2019-05-16T11:53:08.928Z</time>
      </trkpt>
      <trkpt lat="38.895755" lon="-9.03428667">
        <ele>26.0</ele>
        <time>2019-05-16T11:53:09.897Z</time>
      </trkpt>
      <trkpt lat="38.895755" lon="-9.03428667">
        <ele>26.0</ele>
        <time>2019-05-16T11:53:10.924Z</time>
      </trkpt>
      <trkpt lat="38.89579667" lon="-9.03431833">
        <ele>24.0</ele>
        <time>2019-05-16T11:53:11.932Z</time>
      </trkpt>
      <trkpt lat="38.89582" lon="-9.03433333">
        <ele>24.0</ele>
        <time>2019-05-16T11:53:12.916Z</time>
      </trkpt>
      <trkpt lat="38.89582" lon="-9.03433333">
        <ele>24.0</ele>
        <time>2019-05-16T11:53:13.901Z</time>
      </trkpt>
      <trkpt lat="38.89586333" lon="-9.03436667">
        <ele>23.0</ele>
        <time>2019-05-16T11:53:14.909Z</time>
      </trkpt>
      <trkpt lat="38.89586333" lon="-9.03436667">
        <ele>23.0</ele>
        <time>2019-05-16T11:53:15.918Z</time>
      </trkpt>
      <trkpt lat="38.895915" lon="-9.03439667">
        <ele>22.0</ele>
        <time>2019-05-16T11:53:16.928Z</time>
      </trkpt>
      <trkpt lat="38.895915" lon="-9.03439667">
        <ele>22.0</ele>
        <time>2019-05-16T11:53:17.901Z</time>
      </trkpt>
      <trkpt lat="38.89596333" lon="-9.034435">
        <ele>21.0</ele>
        <time>2019-05-16T11:53:18.930Z</time>
      </trkpt>
      <trkpt lat="38.89596333" lon="-9.034435">
        <ele>21.0</ele>
        <time>2019-05-16T11:53:19.921Z</time>
      </trkpt>
      <trkpt lat="38.89601167" lon="-9.03447">
        <ele>20.0</ele>
        <time>2019-05-16T11:53:20.906Z</time>
      </trkpt>
      <trkpt lat="38.89601167" lon="-9.03447">
        <ele>20.0</ele>
        <time>2019-05-16T11:53:21.935Z</time>
      </trkpt>
      <trkpt lat="38.896055" lon="-9.03450667">
        <ele>20.0</ele>
        <time>2019-05-16T11:53:22.907Z</time>
      </trkpt>
      <trkpt lat="38.896055" lon="-9.03450667">
        <ele>20.0</ele>
        <time>2019-05-16T11:53:23.913Z</time>
      </trkpt>
      <trkpt lat="38.89609333" lon="-9.03454333">
        <ele>19.0</ele>
        <time>2019-05-16T11:53:24.924Z</time>
      </trkpt>
      <trkpt lat="38.89609333" lon="-9.03454333">
        <ele>19.0</ele>
        <time>2019-05-16T11:53:25.897Z</time>
      </trkpt>
      <trkpt lat="38.896135" lon="-9.03458333">
        <ele>19.0</ele>
        <time>2019-05-16T11:53:26.904Z</time>
      </trkpt>
      <trkpt lat="38.896135" lon="-9.03458333">
        <ele>19.0</ele>
        <time>2019-05-16T11:53:27.927Z</time>
      </trkpt>
      <trkpt lat="38.89619667" lon="-9.03462833">
        <ele>19.0</ele>
        <time>2019-05-16T11:53:28.898Z</time>
      </trkpt>
      <trkpt lat="38.89619667" lon="-9.03462833">
        <ele>19.0</ele>
        <time>2019-05-16T11:53:29.921Z</time>
      </trkpt>
      <trkpt lat="38.89625833" lon="-9.03467167">
        <ele>19.0</ele>
        <time>2019-05-16T11:53:30.931Z</time>
      </trkpt>
      <trkpt lat="38.89625833" lon="-9.03467167">
        <ele>19.0</ele>
        <time>2019-05-16T11:53:31.899Z</time>
      </trkpt>
      <trkpt lat="38.89631167" lon="-9.03471667">
        <ele>19.0</ele>
        <time>2019-05-16T11:53:32.908Z</time>
      </trkpt>
      <trkpt lat="38.89631167" lon="-9.03471667">
        <ele>19.0</ele>
        <time>2019-05-16T11:53:33.903Z</time>
      </trkpt>
      <trkpt lat="38.89636333" lon="-9.03475667">
        <ele>18.0</ele>
        <time>2019-05-16T11:53:34.915Z</time>
      </trkpt>
      <trkpt lat="38.89636333" lon="-9.03475667">
        <ele>18.0</ele>
        <time>2019-05-16T11:53:35.932Z</time>
      </trkpt>
      <trkpt lat="38.8964" lon="-9.034795">
        <ele>17.0</ele>
        <time>2019-05-16T11:53:36.900Z</time>
      </trkpt>
      <trkpt lat="38.8964" lon="-9.034795">
        <ele>17.0</ele>
        <time>2019-05-16T11:53:37.935Z</time>
      </trkpt>
      <trkpt lat="38.89644833" lon="-9.03483167">
        <ele>16.0</ele>
        <time>2019-05-16T11:53:38.902Z</time>
      </trkpt>
      <trkpt lat="38.89647333" lon="-9.03485">
        <ele>16.0</ele>
        <time>2019-05-16T11:53:39.912Z</time>
      </trkpt>
      <trkpt lat="38.89647333" lon="-9.03485">
        <ele>16.0</ele>
        <time>2019-05-16T11:53:40.906Z</time>
      </trkpt>
      <trkpt lat="38.89651833" lon="-9.03488667">
        <ele>15.0</ele>
        <time>2019-05-16T11:53:41.920Z</time>
      </trkpt>
      <trkpt lat="38.89654" lon="-9.03489333">
        <ele>15.0</ele>
        <time>2019-05-16T11:53:42.916Z</time>
      </trkpt>
      <trkpt lat="38.89654" lon="-9.03489333">
        <ele>15.0</ele>
        <time>2019-05-16T11:53:43.928Z</time>
      </trkpt>
      <trkpt lat="38.89658333" lon="-9.034875">
        <ele>16.0</ele>
        <time>2019-05-16T11:53:44.937Z</time>
      </trkpt>
      <trkpt lat="38.89660333" lon="-9.03486167">
        <ele>16.0</ele>
        <time>2019-05-16T11:53:45.920Z</time>
      </trkpt>
      <trkpt lat="38.89660333" lon="-9.03486167">
        <ele>16.0</ele>
        <time>2019-05-16T11:53:46.904Z</time>
      </trkpt>
      <trkpt lat="38.89663" lon="-9.03483167">
        <ele>16.0</ele>
        <time>2019-05-16T11:53:47.928Z</time>
      </trkpt>
      <trkpt lat="38.896645" lon="-9.03482167">
        <ele>16.0</ele>
        <time>2019-05-16T11:53:48.937Z</time>
      </trkpt>
      <trkpt lat="38.896645" lon="-9.03482167">
        <ele>16.0</ele>
        <time>2019-05-16T11:53:49.902Z</time>
      </trkpt>
      <trkpt lat="38.89667833" lon="-9.034835">
        <ele>15.0</ele>
        <time>2019-05-16T11:53:50.918Z</time>
      </trkpt>
      <trkpt lat="38.89669167" lon="-9.034855">
        <ele>15.0</ele>
        <time>2019-05-16T11:53:51.908Z</time>
      </trkpt>
      <trkpt lat="38.89669167" lon="-9.034855">
        <ele>15.0</ele>
        <time>2019-05-16T11:53:52.921Z</time>
      </trkpt>
      <trkpt lat="38.89667667" lon="-9.03488833">
        <ele>14.0</ele>
        <time>2019-05-16T11:53:53.900Z</time>
      </trkpt>
      <trkpt lat="38.89666167" lon="-9.03487833">
        <ele>14.0</ele>
        <time>2019-05-16T11:53:54.926Z</time>
      </trkpt>
      <trkpt lat="38.89666167" lon="-9.03487833">
        <ele>14.0</ele>
        <time>2019-05-16T11:53:55.919Z</time>
      </trkpt>
      <trkpt lat="38.89665833" lon="-9.034835">
        <ele>14.0</ele>
        <time>2019-05-16T11:53:56.898Z</time>
      </trkpt>
      <trkpt lat="38.89666833" lon="-9.03481833">
        <ele>14.0</ele>
        <time>2019-05-16T11:53:57.897Z</time>
      </trkpt>
      <trkpt lat="38.89666833" lon="-9.03481833">
        <ele>14.0</ele>
        <time>2019-05-16T11:53:58.903Z</time>
      </trkpt>
      <trkpt lat="38.89669167" lon="-9.034795">
        <ele>13.0</ele>
        <time>2019-05-16T11:53:59.909Z</time>
      </trkpt>
      <trkpt lat="38.896705" lon="-9.03478167">
        <ele>13.0</ele>
        <time>2019-05-16T11:54:00.915Z</time>
      </trkpt>
      <trkpt lat="38.896705" lon="-9.03478167">
        <ele>13.0</ele>
        <time>2019-05-16T11:54:01.921Z</time>
      </trkpt>
      <trkpt lat="38.89673667" lon="-9.03473833">
        <ele>12.0</ele>
        <time>2019-05-16T11:54:02.928Z</time>
      </trkpt>
      <trkpt lat="38.89673667" lon="-9.03473833">
        <ele>12.0</ele>
        <time>2019-05-16T11:54:03.928Z</time>
      </trkpt>
      <trkpt lat="38.896765" lon="-9.03468167">
        <ele>10.0</ele>
        <time>2019-05-16T11:54:04.899Z</time>
      </trkpt>
      <trkpt lat="38.89678667" lon="-9.03464833">
        <ele>10.0</ele>
        <time>2019-05-16T11:54:05.925Z</time>
      </trkpt>
      <trkpt lat="38.89678667" lon="-9.03464833">
        <ele>10.0</ele>
        <time>2019-05-16T11:54:06.898Z</time>
      </trkpt>
      <trkpt lat="38.89684" lon="-9.03458667">
        <ele>10.0</ele>
        <time>2019-05-16T11:54:07.909Z</time>
      </trkpt>
      <trkpt lat="38.89684" lon="-9.03458667">
        <ele>10.0</ele>
        <time>2019-05-16T11:54:08.905Z</time>
      </trkpt>
      <trkpt lat="38.896895" lon="-9.03452333">
        <ele>10.0</ele>
        <time>2019-05-16T11:54:09.916Z</time>
      </trkpt>
      <trkpt lat="38.896895" lon="-9.03452333">
        <ele>10.0</ele>
        <time>2019-05-16T11:54:10.931Z</time>
      </trkpt>
      <trkpt lat="38.89694833" lon="-9.03448667">
        <ele>10.0</ele>
        <time>2019-05-16T11:54:11.900Z</time>
      </trkpt>
      <trkpt lat="38.89694833" lon="-9.03448667">
        <ele>10.0</ele>
        <time>2019-05-16T11:54:12.926Z</time>
      </trkpt>
      <trkpt lat="38.896985" lon="-9.03443333">
        <ele>9.0</ele>
        <time>2019-05-16T11:54:13.910Z</time>
      </trkpt>
      <trkpt lat="38.896985" lon="-9.03443333">
        <ele>9.0</ele>
        <time>2019-05-16T11:54:14.899Z</time>
      </trkpt>
      <trkpt lat="38.89700167" lon="-9.03437667">
        <ele>9.0</ele>
        <time>2019-05-16T11:54:15.912Z</time>
      </trkpt>
      <trkpt lat="38.89700167" lon="-9.03437667">
        <ele>9.0</ele>
        <time>2019-05-16T11:54:16.920Z</time>
      </trkpt>
      <trkpt lat="38.89702667" lon="-9.03432167">
        <ele>9.0</ele>
        <time>2019-05-16T11:54:17.906Z</time>
      </trkpt>
      <trkpt lat="38.89704667" lon="-9.03429833">
        <ele>9.0</ele>
        <time>2019-05-16T11:54:18.910Z</time>
      </trkpt>
      <trkpt lat="38.89704667" lon="-9.03429833">
        <ele>9.0</ele>
        <time>2019-05-16T11:54:19.915Z</time>
      </trkpt>
      <trkpt lat="38.89708" lon="-9.03424833">
        <ele>8.0</ele>
        <time>2019-05-16T11:54:20.936Z</time>
      </trkpt>
      <trkpt lat="38.89708" lon="-9.03424833">
        <ele>8.0</ele>
        <time>2019-05-16T11:54:21.919Z</time>
      </trkpt>
      <trkpt lat="38.89710167" lon="-9.0342">
        <ele>8.0</ele>
        <time>2019-05-16T11:54:22.902Z</time>
      </trkpt>
      <trkpt lat="38.89710167" lon="-9.0342">
        <ele>8.0</ele>
        <time>2019-05-16T11:54:23.900Z</time>
      </trkpt>
      <trkpt lat="38.89710833" lon="-9.03416167">
        <ele>8.0</ele>
        <time>2019-05-16T11:54:24.916Z</time>
      </trkpt>
      <trkpt lat="38.89710833" lon="-9.03416167">
        <ele>8.0</ele>
        <time>2019-05-16T11:54:25.929Z</time>
      </trkpt>
      <trkpt lat="38.897125" lon="-9.03413833">
        <ele>8.0</ele>
        <time>2019-05-16T11:54:26.901Z</time>
      </trkpt>
      <trkpt lat="38.897125" lon="-9.03413833">
        <ele>8.0</ele>
        <time>2019-05-16T11:54:27.907Z</time>
      </trkpt>
      <trkpt lat="38.89713" lon="-9.03413667">
        <ele>7.0</ele>
        <time>2019-05-16T11:54:28.923Z</time>
      </trkpt>
      <trkpt lat="38.89713" lon="-9.03413833">
        <ele>7.0</ele>
        <time>2019-05-16T11:54:29.917Z</time>
      </trkpt>
      <trkpt lat="38.89713" lon="-9.03413833">
        <ele>7.0</ele>
        <time>2019-05-16T11:54:30.900Z</time>
      </trkpt>
      <trkpt lat="38.89713" lon="-9.03413833">
        <ele>7.0</ele>
        <time>2019-05-16T11:54:31.908Z</time>
      </trkpt>
      <trkpt lat="38.89713" lon="-9.03413833">
        <ele>7.0</ele>
        <time>2019-05-16T11:54:32.923Z</time>
      </trkpt>
      <trkpt lat="38.89713" lon="-9.03413833">
        <ele>7.0</ele>
        <time>2019-05-16T11:54:33.898Z</time>
      </trkpt>
      <trkpt lat="38.89713" lon="-9.03413833">
        <ele>7.0</ele>
        <time>2019-05-16T11:54:34.907Z</time>
      </trkpt>
      <trkpt lat="38.89713" lon="-9.03413833">
        <ele>7.0</ele>
        <time>2019-05-16T11:54:35.905Z</time>
      </trkpt>
      <trkpt lat="38.89717833" lon="-9.034095">
        <ele>7.0</ele>
        <time>2019-05-16T11:54:36.924Z</time>
      </trkpt>
      <trkpt lat="38.89717833" lon="-9.034095">
        <ele>7.0</ele>
        <time>2019-05-16T11:54:37.911Z</time>
      </trkpt>
      <trkpt lat="38.89720833" lon="-9.03406">
        <ele>7.0</ele>
        <time>2019-05-16T11:54:38.913Z</time>
      </trkpt>
      <trkpt lat="38.89720833" lon="-9.03406">
        <ele>7.0</ele>
        <time>2019-05-16T11:54:39.906Z</time>
      </trkpt>
      <trkpt lat="38.89723833" lon="-9.03401167">
        <ele>7.0</ele>
        <time>2019-05-16T11:54:41.017Z</time>
      </trkpt>
      <trkpt lat="38.89723833" lon="-9.03401167">
        <ele>7.0</ele>
        <time>2019-05-16T11:54:41.921Z</time>
      </trkpt>
      <trkpt lat="38.89726667" lon="-9.03395667">
        <ele>7.0</ele>
        <time>2019-05-16T11:54:42.899Z</time>
      </trkpt>
      <trkpt lat="38.89726667" lon="-9.03395667">
        <ele>7.0</ele>
        <time>2019-05-16T11:54:43.899Z</time>
      </trkpt>
      <trkpt lat="38.89729167" lon="-9.03390167">
        <ele>6.0</ele>
        <time>2019-05-16T11:54:44.912Z</time>
      </trkpt>
      <trkpt lat="38.89729167" lon="-9.03390167">
        <ele>6.0</ele>
        <time>2019-05-16T11:54:45.909Z</time>
      </trkpt>
      <trkpt lat="38.89731667" lon="-9.03384667">
        <ele>6.0</ele>
        <time>2019-05-16T11:54:46.925Z</time>
      </trkpt>
      <trkpt lat="38.89731667" lon="-9.03384667">
        <ele>6.0</ele>
        <time>2019-05-16T11:54:47.933Z</time>
      </trkpt>
      <trkpt lat="38.897345" lon="-9.03379333">
        <ele>6.0</ele>
        <time>2019-05-16T11:54:48.910Z</time>
      </trkpt>
      <trkpt lat="38.897345" lon="-9.03379333">
        <ele>6.0</ele>
        <time>2019-05-16T11:54:49.911Z</time>
      </trkpt>
      <trkpt lat="38.897375" lon="-9.03373833">
        <ele>5.0</ele>
        <time>2019-05-16T11:54:50.924Z</time>
      </trkpt>
      <trkpt lat="38.897375" lon="-9.03373833">
        <ele>5.0</ele>
        <time>2019-05-16T11:54:51.899Z</time>
      </trkpt>
      <trkpt lat="38.89740667" lon="-9.03368167">
        <ele>5.0</ele>
        <time>2019-05-16T11:54:52.909Z</time>
      </trkpt>
      <trkpt lat="38.89740667" lon="-9.03368167">
        <ele>5.0</ele>
        <time>2019-05-16T11:54:53.915Z</time>
      </trkpt>
      <trkpt lat="38.89744833" lon="-9.03363333">
        <ele>4.0</ele>
        <time>2019-05-16T11:54:54.928Z</time>
      </trkpt>
      <trkpt lat="38.89744833" lon="-9.03363333">
        <ele>4.0</ele>
        <time>2019-05-16T11:54:55.932Z</time>
      </trkpt>
      <trkpt lat="38.89749333" lon="-9.03358667">
        <ele>4.0</ele>
        <time>2019-05-16T11:54:56.903Z</time>
      </trkpt>
      <trkpt lat="38.89749333" lon="-9.03358667">
        <ele>4.0</ele>
        <time>2019-05-16T11:54:57.904Z</time>
      </trkpt>
      <trkpt lat="38.89753" lon="-9.03354">
        <ele>4.0</ele>
        <time>2019-05-16T11:54:58.914Z</time>
      </trkpt>
      <trkpt lat="38.89753" lon="-9.03354">
        <ele>4.0</ele>
        <time>2019-05-16T11:54:59.915Z</time>
      </trkpt>
      <trkpt lat="38.89756" lon="-9.03348833">
        <ele>4.0</ele>
        <time>2019-05-16T11:55:00.928Z</time>
      </trkpt>
      <trkpt lat="38.89756" lon="-9.03348833">
        <ele>4.0</ele>
        <time>2019-05-16T11:55:01.932Z</time>
      </trkpt>
      <trkpt lat="38.89759167" lon="-9.03343">
        <ele>4.0</ele>
        <time>2019-05-16T11:55:02.905Z</time>
      </trkpt>
      <trkpt lat="38.89759167" lon="-9.03343">
        <ele>4.0</ele>
        <time>2019-05-16T11:55:03.933Z</time>
      </trkpt>
      <trkpt lat="38.89762167" lon="-9.033365">
        <ele>4.0</ele>
        <time>2019-05-16T11:55:04.904Z</time>
      </trkpt>
      <trkpt lat="38.89762167" lon="-9.033365">
        <ele>4.0</ele>
        <time>2019-05-16T11:55:05.933Z</time>
      </trkpt>
      <trkpt lat="38.89766" lon="-9.03330167">
        <ele>4.0</ele>
        <time>2019-05-16T11:55:06.901Z</time>
      </trkpt>
      <trkpt lat="38.89766" lon="-9.03330167">
        <ele>4.0</ele>
        <time>2019-05-16T11:55:07.935Z</time>
      </trkpt>
      <trkpt lat="38.89770167" lon="-9.03324833">
        <ele>4.0</ele>
        <time>2019-05-16T11:55:08.919Z</time>
      </trkpt>
      <trkpt lat="38.89770167" lon="-9.03324833">
        <ele>4.0</ele>
        <time>2019-05-16T11:55:09.902Z</time>
      </trkpt>
      <trkpt lat="38.897745" lon="-9.0332">
        <ele>4.0</ele>
        <time>2019-05-16T11:55:10.910Z</time>
      </trkpt>
      <trkpt lat="38.897765" lon="-9.03317833">
        <ele>4.0</ele>
        <time>2019-05-16T11:55:11.909Z</time>
      </trkpt>
      <trkpt lat="38.897765" lon="-9.03317833">
        <ele>4.0</ele>
        <time>2019-05-16T11:55:12.912Z</time>
      </trkpt>
      <trkpt lat="38.89780167" lon="-9.03312667">
        <ele>4.0</ele>
        <time>2019-05-16T11:55:13.920Z</time>
      </trkpt>
      <trkpt lat="38.89782167" lon="-9.0331">
        <ele>4.0</ele>
        <time>2019-05-16T11:55:14.901Z</time>
      </trkpt>
      <trkpt lat="38.89782167" lon="-9.0331">
        <ele>4.0</ele>
        <time>2019-05-16T11:55:15.905Z</time>
      </trkpt>
      <trkpt lat="38.89786167" lon="-9.03304333">
        <ele>4.0</ele>
        <time>2019-05-16T11:55:16.918Z</time>
      </trkpt>
      <trkpt lat="38.89786167" lon="-9.03304333">
        <ele>4.0</ele>
        <time>2019-05-16T11:55:17.901Z</time>
      </trkpt>
      <trkpt lat="38.89789833" lon="-9.03298333">
        <ele>5.0</ele>
        <time>2019-05-16T11:55:18.913Z</time>
      </trkpt>
      <trkpt lat="38.89789833" lon="-9.03298333">
        <ele>5.0</ele>
        <time>2019-05-16T11:55:19.902Z</time>
      </trkpt>
      <trkpt lat="38.89793333" lon="-9.03293">
        <ele>5.0</ele>
        <time>2019-05-16T11:55:20.899Z</time>
      </trkpt>
      <trkpt lat="38.89793333" lon="-9.03293">
        <ele>5.0</ele>
        <time>2019-05-16T11:55:21.915Z</time>
      </trkpt>
      <trkpt lat="38.89796667" lon="-9.032865">
        <ele>5.0</ele>
        <time>2019-05-16T11:55:22.922Z</time>
      </trkpt>
      <trkpt lat="38.89796667" lon="-9.032865">
        <ele>5.0</ele>
        <time>2019-05-16T11:55:23.914Z</time>
      </trkpt>
      <trkpt lat="38.89799833" lon="-9.03279667">
        <ele>5.0</ele>
        <time>2019-05-16T11:55:24.937Z</time>
      </trkpt>
      <trkpt lat="38.89799833" lon="-9.03279667">
        <ele>5.0</ele>
        <time>2019-05-16T11:55:25.912Z</time>
      </trkpt>
      <trkpt lat="38.89803333" lon="-9.03273167">
        <ele>5.0</ele>
        <time>2019-05-16T11:55:26.930Z</time>
      </trkpt>
      <trkpt lat="38.89803333" lon="-9.03273167">
        <ele>5.0</ele>
        <time>2019-05-16T11:55:27.914Z</time>
      </trkpt>
      <trkpt lat="38.89806667" lon="-9.03266333">
        <ele>5.0</ele>
        <time>2019-05-16T11:55:28.911Z</time>
      </trkpt>
      <trkpt lat="38.89806667" lon="-9.03266333">
        <ele>5.0</ele>
        <time>2019-05-16T11:55:29.932Z</time>
      </trkpt>
      <trkpt lat="38.89810333" lon="-9.03259833">
        <ele>5.0</ele>
        <time>2019-05-16T11:55:30.906Z</time>
      </trkpt>
      <trkpt lat="38.89810333" lon="-9.03259833">
        <ele>5.0</ele>
        <time>2019-05-16T11:55:31.918Z</time>
      </trkpt>
      <trkpt lat="38.89814333" lon="-9.03253167">
        <ele>5.0</ele>
        <time>2019-05-16T11:55:32.901Z</time>
      </trkpt>
      <trkpt lat="38.89814333" lon="-9.03253167">
        <ele>5.0</ele>
        <time>2019-05-16T11:55:33.900Z</time>
      </trkpt>
      <trkpt lat="38.89818333" lon="-9.03246333">
        <ele>4.0</ele>
        <time>2019-05-16T11:55:34.933Z</time>
      </trkpt>
      <trkpt lat="38.89818333" lon="-9.03246333">
        <ele>4.0</ele>
        <time>2019-05-16T11:55:35.921Z</time>
      </trkpt>
      <trkpt lat="38.89822333" lon="-9.032395">
        <ele>4.0</ele>
        <time>2019-05-16T11:55:36.900Z</time>
      </trkpt>
      <trkpt lat="38.89822333" lon="-9.032395">
        <ele>4.0</ele>
        <time>2019-05-16T11:55:37.932Z</time>
      </trkpt>
      <trkpt lat="38.89826167" lon="-9.03232667">
        <ele>4.0</ele>
        <time>2019-05-16T11:55:38.904Z</time>
      </trkpt>
      <trkpt lat="38.89826167" lon="-9.03232667">
        <ele>4.0</ele>
        <time>2019-05-16T11:55:39.913Z</time>
      </trkpt>
      <trkpt lat="38.89826167" lon="-9.03232667">
        <ele>4.0</ele>
        <time>2019-05-16T11:55:40.950Z</time>
      </trkpt>
      <trkpt lat="38.89829833" lon="-9.03226">
        <ele>4.0</ele>
        <time>2019-05-16T11:55:41.917Z</time>
      </trkpt>
      <trkpt lat="38.89833167" lon="-9.03219333">
        <ele>4.0</ele>
        <time>2019-05-16T11:55:42.929Z</time>
      </trkpt>
      <trkpt lat="38.89833167" lon="-9.03219333">
        <ele>4.0</ele>
        <time>2019-05-16T11:55:43.912Z</time>
      </trkpt>
      <trkpt lat="38.89836667" lon="-9.03212833">
        <ele>4.0</ele>
        <time>2019-05-16T11:55:44.921Z</time>
      </trkpt>
      <trkpt lat="38.89836667" lon="-9.03212833">
        <ele>4.0</ele>
        <time>2019-05-16T11:55:45.909Z</time>
      </trkpt>
      <trkpt lat="38.89840167" lon="-9.03206333">
        <ele>4.0</ele>
        <time>2019-05-16T11:55:46.919Z</time>
      </trkpt>
      <trkpt lat="38.89842" lon="-9.03203333">
        <ele>4.0</ele>
        <time>2019-05-16T11:55:47.936Z</time>
      </trkpt>
      <trkpt lat="38.89843833" lon="-9.03200167">
        <ele>4.0</ele>
        <time>2019-05-16T11:55:48.903Z</time>
      </trkpt>
      <trkpt lat="38.89843833" lon="-9.03200167">
        <ele>4.0</ele>
        <time>2019-05-16T11:55:49.934Z</time>
      </trkpt>
      <trkpt lat="38.898475" lon="-9.03194167">
        <ele>4.0</ele>
        <time>2019-05-16T11:55:50.902Z</time>
      </trkpt>
      <trkpt lat="38.898475" lon="-9.03194167">
        <ele>4.0</ele>
        <time>2019-05-16T11:55:51.935Z</time>
      </trkpt>
      <trkpt lat="38.89851167" lon="-9.03188167">
        <ele>4.0</ele>
        <time>2019-05-16T11:55:52.906Z</time>
      </trkpt>
      <trkpt lat="38.89851167" lon="-9.03188167">
        <ele>4.0</ele>
        <time>2019-05-16T11:55:53.936Z</time>
      </trkpt>
      <trkpt lat="38.89855" lon="-9.03182167">
        <ele>4.0</ele>
        <time>2019-05-16T11:55:54.906Z</time>
      </trkpt>
      <trkpt lat="38.89855" lon="-9.03182167">
        <ele>4.0</ele>
        <time>2019-05-16T11:55:55.931Z</time>
      </trkpt>
      <trkpt lat="38.898585" lon="-9.03176333">
        <ele>4.0</ele>
        <time>2019-05-16T11:55:56.901Z</time>
      </trkpt>
      <trkpt lat="38.898585" lon="-9.03176333">
        <ele>4.0</ele>
        <time>2019-05-16T11:55:57.911Z</time>
      </trkpt>
      <trkpt lat="38.89861833" lon="-9.03171">
        <ele>4.0</ele>
        <time>2019-05-16T11:55:58.932Z</time>
      </trkpt>
      <trkpt lat="38.89861833" lon="-9.03171">
        <ele>4.0</ele>
        <time>2019-05-16T11:55:59.935Z</time>
      </trkpt>
      <trkpt lat="38.89865333" lon="-9.03165833">
        <ele>4.0</ele>
        <time>2019-05-16T11:56:00.905Z</time>
      </trkpt>
      <trkpt lat="38.89865333" lon="-9.03165833">
        <ele>4.0</ele>
        <time>2019-05-16T11:56:01.897Z</time>
      </trkpt>
      <trkpt lat="38.89869167" lon="-9.03160833">
        <ele>4.0</ele>
        <time>2019-05-16T11:56:02.913Z</time>
      </trkpt>
      <trkpt lat="38.89869167" lon="-9.03160833">
        <ele>4.0</ele>
        <time>2019-05-16T11:56:03.911Z</time>
      </trkpt>
      <trkpt lat="38.89872833" lon="-9.03155">
        <ele>4.0</ele>
        <time>2019-05-16T11:56:04.925Z</time>
      </trkpt>
      <trkpt lat="38.89874667" lon="-9.03151833">
        <ele>4.0</ele>
        <time>2019-05-16T11:56:05.922Z</time>
      </trkpt>
      <trkpt lat="38.898765" lon="-9.03149">
        <ele>4.0</ele>
        <time>2019-05-16T11:56:06.906Z</time>
      </trkpt>
      <trkpt lat="38.898765" lon="-9.03149">
        <ele>4.0</ele>
        <time>2019-05-16T11:56:07.906Z</time>
      </trkpt>
      <trkpt lat="38.8988" lon="-9.03143167">
        <ele>4.0</ele>
        <time>2019-05-16T11:56:08.918Z</time>
      </trkpt>
      <trkpt lat="38.89881833" lon="-9.03140333">
        <ele>4.0</ele>
        <time>2019-05-16T11:56:09.932Z</time>
      </trkpt>
      <trkpt lat="38.89881833" lon="-9.03140333">
        <ele>4.0</ele>
        <time>2019-05-16T11:56:10.928Z</time>
      </trkpt>
      <trkpt lat="38.898855" lon="-9.03134333">
        <ele>4.0</ele>
        <time>2019-05-16T11:56:11.938Z</time>
      </trkpt>
      <trkpt lat="38.898875" lon="-9.03131333">
        <ele>4.0</ele>
        <time>2019-05-16T11:56:12.918Z</time>
      </trkpt>
      <trkpt lat="38.898875" lon="-9.03131333">
        <ele>4.0</ele>
        <time>2019-05-16T11:56:13.931Z</time>
      </trkpt>
      <trkpt lat="38.898915" lon="-9.03125333">
        <ele>4.0</ele>
        <time>2019-05-16T11:56:14.899Z</time>
      </trkpt>
      <trkpt lat="38.898915" lon="-9.03125333">
        <ele>4.0</ele>
        <time>2019-05-16T11:56:15.901Z</time>
      </trkpt>
      <trkpt lat="38.89895167" lon="-9.03118833">
        <ele>4.0</ele>
        <time>2019-05-16T11:56:16.914Z</time>
      </trkpt>
      <trkpt lat="38.89895167" lon="-9.03118833">
        <ele>4.0</ele>
        <time>2019-05-16T11:56:17.899Z</time>
      </trkpt>
      <trkpt lat="38.89899333" lon="-9.031125">
        <ele>5.0</ele>
        <time>2019-05-16T11:56:18.930Z</time>
      </trkpt>
      <trkpt lat="38.89899333" lon="-9.031125">
        <ele>5.0</ele>
        <time>2019-05-16T11:56:19.918Z</time>
      </trkpt>
      <trkpt lat="38.89903167" lon="-9.03107333">
        <ele>5.0</ele>
        <time>2019-05-16T11:56:20.908Z</time>
      </trkpt>
      <trkpt lat="38.89903167" lon="-9.03107333">
        <ele>5.0</ele>
        <time>2019-05-16T11:56:21.930Z</time>
      </trkpt>
      <trkpt lat="38.89907833" lon="-9.03103667">
        <ele>5.0</ele>
        <time>2019-05-16T11:56:22.901Z</time>
      </trkpt>
      <trkpt lat="38.89907833" lon="-9.03103667">
        <ele>5.0</ele>
        <time>2019-05-16T11:56:23.920Z</time>
      </trkpt>
      <trkpt lat="38.89912167" lon="-9.03100667">
        <ele>5.0</ele>
        <time>2019-05-16T11:56:24.930Z</time>
      </trkpt>
      <trkpt lat="38.89912167" lon="-9.03100667">
        <ele>5.0</ele>
        <time>2019-05-16T11:56:25.936Z</time>
      </trkpt>
      <trkpt lat="38.89916167" lon="-9.03097833">
        <ele>5.0</ele>
        <time>2019-05-16T11:56:26.906Z</time>
      </trkpt>
      <trkpt lat="38.89916167" lon="-9.03097833">
        <ele>5.0</ele>
        <time>2019-05-16T11:56:27.900Z</time>
      </trkpt>
      <trkpt lat="38.899195" lon="-9.03094">
        <ele>5.0</ele>
        <time>2019-05-16T11:56:28.912Z</time>
      </trkpt>
      <trkpt lat="38.899195" lon="-9.03094">
        <ele>5.0</ele>
        <time>2019-05-16T11:56:29.921Z</time>
      </trkpt>
      <trkpt lat="38.89923" lon="-9.03089667">
        <ele>5.0</ele>
        <time>2019-05-16T11:56:30.933Z</time>
      </trkpt>
      <trkpt lat="38.89923" lon="-9.03089667">
        <ele>5.0</ele>
        <time>2019-05-16T11:56:31.932Z</time>
      </trkpt>
      <trkpt lat="38.899265" lon="-9.03085333">
        <ele>5.0</ele>
        <time>2019-05-16T11:56:32.901Z</time>
      </trkpt>
      <trkpt lat="38.899265" lon="-9.03085333">
        <ele>5.0</ele>
        <time>2019-05-16T11:56:33.914Z</time>
      </trkpt>
      <trkpt lat="38.89930333" lon="-9.03081">
        <ele>5.0</ele>
        <time>2019-05-16T11:56:34.926Z</time>
      </trkpt>
      <trkpt lat="38.89930333" lon="-9.03081">
        <ele>5.0</ele>
        <time>2019-05-16T11:56:35.906Z</time>
      </trkpt>
      <trkpt lat="38.89934" lon="-9.03076333">
        <ele>6.0</ele>
        <time>2019-05-16T11:56:36.918Z</time>
      </trkpt>
      <trkpt lat="38.89934" lon="-9.03076333">
        <ele>6.0</ele>
        <time>2019-05-16T11:56:37.936Z</time>
      </trkpt>
      <trkpt lat="38.89937667" lon="-9.03071833">
        <ele>6.0</ele>
        <time>2019-05-16T11:56:38.919Z</time>
      </trkpt>
      <trkpt lat="38.89937667" lon="-9.03071833">
        <ele>6.0</ele>
        <time>2019-05-16T11:56:39.920Z</time>
      </trkpt>
      <trkpt lat="38.89941667" lon="-9.03069333">
        <ele>6.0</ele>
        <time>2019-05-16T11:56:40.936Z</time>
      </trkpt>
      <trkpt lat="38.89941667" lon="-9.03069333">
        <ele>6.0</ele>
        <time>2019-05-16T11:56:41.909Z</time>
      </trkpt>
      <trkpt lat="38.89946" lon="-9.03067167">
        <ele>6.0</ele>
        <time>2019-05-16T11:56:42.929Z</time>
      </trkpt>
      <trkpt lat="38.89946" lon="-9.03067167">
        <ele>6.0</ele>
        <time>2019-05-16T11:56:43.901Z</time>
      </trkpt>
      <trkpt lat="38.89950667" lon="-9.03064833">
        <ele>6.0</ele>
        <time>2019-05-16T11:56:44.912Z</time>
      </trkpt>
      <trkpt lat="38.89950667" lon="-9.03064833">
        <ele>6.0</ele>
        <time>2019-05-16T11:56:45.932Z</time>
      </trkpt>
      <trkpt lat="38.89954833" lon="-9.030625">
        <ele>6.0</ele>
        <time>2019-05-16T11:56:46.901Z</time>
      </trkpt>
      <trkpt lat="38.89954833" lon="-9.030625">
        <ele>6.0</ele>
        <time>2019-05-16T11:56:47.911Z</time>
      </trkpt>
      <trkpt lat="38.89958667" lon="-9.03060167">
        <ele>6.0</ele>
        <time>2019-05-16T11:56:48.923Z</time>
      </trkpt>
      <trkpt lat="38.89958667" lon="-9.03060167">
        <ele>6.0</ele>
        <time>2019-05-16T11:56:49.931Z</time>
      </trkpt>
      <trkpt lat="38.89962167" lon="-9.03057333">
        <ele>6.0</ele>
        <time>2019-05-16T11:56:50.910Z</time>
      </trkpt>
      <trkpt lat="38.89962167" lon="-9.03057333">
        <ele>6.0</ele>
        <time>2019-05-16T11:56:51.905Z</time>
      </trkpt>
      <trkpt lat="38.89965667" lon="-9.030545">
        <ele>6.0</ele>
        <time>2019-05-16T11:56:52.917Z</time>
      </trkpt>
      <trkpt lat="38.89965667" lon="-9.030545">
        <ele>6.0</ele>
        <time>2019-05-16T11:56:53.920Z</time>
      </trkpt>
      <trkpt lat="38.89969" lon="-9.03051833">
        <ele>6.0</ele>
        <time>2019-05-16T11:56:54.931Z</time>
      </trkpt>
      <trkpt lat="38.89969" lon="-9.03051833">
        <ele>6.0</ele>
        <time>2019-05-16T11:56:55.933Z</time>
      </trkpt>
      <trkpt lat="38.89972333" lon="-9.03050333">
        <ele>6.0</ele>
        <time>2019-05-16T11:56:56.900Z</time>
      </trkpt>
      <trkpt lat="38.89972333" lon="-9.03050333">
        <ele>6.0</ele>
        <time>2019-05-16T11:56:57.899Z</time>
      </trkpt>
      <trkpt lat="38.89975167" lon="-9.03048">
        <ele>6.0</ele>
        <time>2019-05-16T11:56:58.925Z</time>
      </trkpt>
      <trkpt lat="38.89975167" lon="-9.03048">
        <ele>6.0</ele>
        <time>2019-05-16T11:56:59.924Z</time>
      </trkpt>
      <trkpt lat="38.89978" lon="-9.03045833">
        <ele>7.0</ele>
        <time>2019-05-16T11:57:00.939Z</time>
      </trkpt>
      <trkpt lat="38.89978" lon="-9.03045833">
        <ele>7.0</ele>
        <time>2019-05-16T11:57:01.905Z</time>
      </trkpt>
      <trkpt lat="38.89981667" lon="-9.030435">
        <ele>6.0</ele>
        <time>2019-05-16T11:57:02.916Z</time>
      </trkpt>
      <trkpt lat="38.89981667" lon="-9.030435">
        <ele>6.0</ele>
        <time>2019-05-16T11:57:03.909Z</time>
      </trkpt>
      <trkpt lat="38.89987667" lon="-9.0304">
        <ele>6.0</ele>
        <time>2019-05-16T11:57:04.919Z</time>
      </trkpt>
      <trkpt lat="38.89987667" lon="-9.0304">
        <ele>6.0</ele>
        <time>2019-05-16T11:57:05.924Z</time>
      </trkpt>
      <trkpt lat="38.89992667" lon="-9.03036167">
        <ele>6.0</ele>
        <time>2019-05-16T11:57:06.933Z</time>
      </trkpt>
      <trkpt lat="38.89992667" lon="-9.03036167">
        <ele>6.0</ele>
        <time>2019-05-16T11:57:07.935Z</time>
      </trkpt>
      <trkpt lat="38.899965" lon="-9.03034667">
        <ele>6.0</ele>
        <time>2019-05-16T11:57:08.905Z</time>
      </trkpt>
      <trkpt lat="38.89997167" lon="-9.03034667">
        <ele>6.0</ele>
        <time>2019-05-16T11:57:09.917Z</time>
      </trkpt>
      <trkpt lat="38.89997167" lon="-9.03034667">
        <ele>6.0</ele>
        <time>2019-05-16T11:57:10.911Z</time>
      </trkpt>
      <trkpt lat="38.89997833" lon="-9.03034333">
        <ele>5.0</ele>
        <time>2019-05-16T11:57:11.923Z</time>
      </trkpt>
      <trkpt lat="38.89997667" lon="-9.030345">
        <ele>5.0</ele>
        <time>2019-05-16T11:57:12.898Z</time>
      </trkpt>
      <trkpt lat="38.89997667" lon="-9.030345">
        <ele>5.0</ele>
        <time>2019-05-16T11:57:13.904Z</time>
      </trkpt>
      <trkpt lat="38.89997667" lon="-9.03034667">
        <ele>5.0</ele>
        <time>2019-05-16T11:57:14.910Z</time>
      </trkpt>
      <trkpt lat="38.89997667" lon="-9.03034667">
        <ele>5.0</ele>
        <time>2019-05-16T11:57:15.915Z</time>
      </trkpt>
      <trkpt lat="38.89997667" lon="-9.03034667">
        <ele>5.0</ele>
        <time>2019-05-16T11:57:16.907Z</time>
      </trkpt>
      <trkpt lat="38.89997667" lon="-9.03034667">
        <ele>5.0</ele>
        <time>2019-05-16T11:57:17.903Z</time>
      </trkpt>
      <trkpt lat="38.89998667" lon="-9.03032833">
        <ele>5.0</ele>
        <time>2019-05-16T11:57:18.910Z</time>
      </trkpt>
      <trkpt lat="38.89998667" lon="-9.03032833">
        <ele>5.0</ele>
        <time>2019-05-16T11:57:19.900Z</time>
      </trkpt>
      <trkpt lat="38.89998833" lon="-9.03031167">
        <ele>5.0</ele>
        <time>2019-05-16T11:57:20.933Z</time>
      </trkpt>
      <trkpt lat="38.89998667" lon="-9.03029667">
        <ele>5.0</ele>
        <time>2019-05-16T11:57:21.924Z</time>
      </trkpt>
      <trkpt lat="38.89998667" lon="-9.03029667">
        <ele>5.0</ele>
        <time>2019-05-16T11:57:22.932Z</time>
      </trkpt>
      <trkpt lat="38.89998" lon="-9.03026333">
        <ele>5.0</ele>
        <time>2019-05-16T11:57:23.906Z</time>
      </trkpt>
      <trkpt lat="38.89998" lon="-9.03026333">
        <ele>5.0</ele>
        <time>2019-05-16T11:57:24.903Z</time>
      </trkpt>
      <trkpt lat="38.89997" lon="-9.03023">
        <ele>5.0</ele>
        <time>2019-05-16T11:57:25.907Z</time>
      </trkpt>
      <trkpt lat="38.89997" lon="-9.03023">
        <ele>5.0</ele>
        <time>2019-05-16T11:57:26.900Z</time>
      </trkpt>
      <trkpt lat="38.899965" lon="-9.03018667">
        <ele>5.0</ele>
        <time>2019-05-16T11:57:27.906Z</time>
      </trkpt>
      <trkpt lat="38.899965" lon="-9.03018667">
        <ele>5.0</ele>
        <time>2019-05-16T11:57:28.916Z</time>
      </trkpt>
      <trkpt lat="38.89994667" lon="-9.03014167">
        <ele>5.0</ele>
        <time>2019-05-16T11:57:29.939Z</time>
      </trkpt>
      <trkpt lat="38.89993667" lon="-9.03011667">
        <ele>6.0</ele>
        <time>2019-05-16T11:57:30.902Z</time>
      </trkpt>
      <trkpt lat="38.89993667" lon="-9.03011667">
        <ele>6.0</ele>
        <time>2019-05-16T11:57:31.921Z</time>
      </trkpt>
      <trkpt lat="38.89991833" lon="-9.03005833">
        <ele>6.0</ele>
        <time>2019-05-16T11:57:32.940Z</time>
      </trkpt>
      <trkpt lat="38.89991833" lon="-9.03005833">
        <ele>6.0</ele>
        <time>2019-05-16T11:57:33.932Z</time>
      </trkpt>
      <trkpt lat="38.89989667" lon="-9.02999667">
        <ele>6.0</ele>
        <time>2019-05-16T11:57:34.899Z</time>
      </trkpt>
      <trkpt lat="38.89989667" lon="-9.02999667">
        <ele>6.0</ele>
        <time>2019-05-16T11:57:35.908Z</time>
      </trkpt>
      <trkpt lat="38.89987833" lon="-9.02992833">
        <ele>6.0</ele>
        <time>2019-05-16T11:57:36.916Z</time>
      </trkpt>
      <trkpt lat="38.89987833" lon="-9.02992833">
        <ele>6.0</ele>
        <time>2019-05-16T11:57:37.915Z</time>
      </trkpt>
      <trkpt lat="38.89984667" lon="-9.02985333">
        <ele>6.0</ele>
        <time>2019-05-16T11:57:38.931Z</time>
      </trkpt>
      <trkpt lat="38.89983" lon="-9.02982">
        <ele>6.0</ele>
        <time>2019-05-16T11:57:39.908Z</time>
      </trkpt>
      <trkpt lat="38.89983" lon="-9.02982">
        <ele>6.0</ele>
        <time>2019-05-16T11:57:40.931Z</time>
      </trkpt>
      <trkpt lat="38.899815" lon="-9.029745">
        <ele>6.0</ele>
        <time>2019-05-16T11:57:41.917Z</time>
      </trkpt>
      <trkpt lat="38.89981" lon="-9.02970833">
        <ele>7.0</ele>
        <time>2019-05-16T11:57:42.920Z</time>
      </trkpt>
      <trkpt lat="38.89981" lon="-9.02970833">
        <ele>7.0</ele>
        <time>2019-05-16T11:57:43.902Z</time>
      </trkpt>
      <trkpt lat="38.89980667" lon="-9.029625">
        <ele>7.0</ele>
        <time>2019-05-16T11:57:44.913Z</time>
      </trkpt>
      <trkpt lat="38.89980667" lon="-9.029625">
        <ele>7.0</ele>
        <time>2019-05-16T11:57:45.915Z</time>
      </trkpt>
      <trkpt lat="38.899815" lon="-9.02954">
        <ele>8.0</ele>
        <time>2019-05-16T11:57:46.926Z</time>
      </trkpt>
      <trkpt lat="38.899815" lon="-9.02954">
        <ele>8.0</ele>
        <time>2019-05-16T11:57:47.921Z</time>
      </trkpt>
      <trkpt lat="38.89981833" lon="-9.02945833">
        <ele>8.0</ele>
        <time>2019-05-16T11:57:48.934Z</time>
      </trkpt>
      <trkpt lat="38.89981833" lon="-9.02945833">
        <ele>8.0</ele>
        <time>2019-05-16T11:57:49.932Z</time>
      </trkpt>
      <trkpt lat="38.89982667" lon="-9.02937333">
        <ele>8.0</ele>
        <time>2019-05-16T11:57:50.903Z</time>
      </trkpt>
      <trkpt lat="38.89982667" lon="-9.02937333">
        <ele>8.0</ele>
        <time>2019-05-16T11:57:51.932Z</time>
      </trkpt>
      <trkpt lat="38.89984333" lon="-9.02928333">
        <ele>9.0</ele>
        <time>2019-05-16T11:57:52.901Z</time>
      </trkpt>
      <trkpt lat="38.89984333" lon="-9.02928333">
        <ele>9.0</ele>
        <time>2019-05-16T11:57:53.934Z</time>
      </trkpt>
      <trkpt lat="38.89986167" lon="-9.029195">
        <ele>9.0</ele>
        <time>2019-05-16T11:57:54.903Z</time>
      </trkpt>
      <trkpt lat="38.89986167" lon="-9.029195">
        <ele>9.0</ele>
        <time>2019-05-16T11:57:55.905Z</time>
      </trkpt>
      <trkpt lat="38.89988" lon="-9.02910833">
        <ele>9.0</ele>
        <time>2019-05-16T11:57:56.937Z</time>
      </trkpt>
      <trkpt lat="38.89988" lon="-9.02910833">
        <ele>9.0</ele>
        <time>2019-05-16T11:57:57.929Z</time>
      </trkpt>
      <trkpt lat="38.89991" lon="-9.029025">
        <ele>9.0</ele>
        <time>2019-05-16T11:57:58.904Z</time>
      </trkpt>
      <trkpt lat="38.89992833" lon="-9.02898167">
        <ele>9.0</ele>
        <time>2019-05-16T11:57:59.913Z</time>
      </trkpt>
      <trkpt lat="38.89994833" lon="-9.02894167">
        <ele>9.0</ele>
        <time>2019-05-16T11:58:00.905Z</time>
      </trkpt>
      <trkpt lat="38.89994833" lon="-9.02894167">
        <ele>9.0</ele>
        <time>2019-05-16T11:58:01.923Z</time>
      </trkpt>
      <trkpt lat="38.89997167" lon="-9.028855">
        <ele>8.0</ele>
        <time>2019-05-16T11:58:02.901Z</time>
      </trkpt>
      <trkpt lat="38.899985" lon="-9.02881833">
        <ele>8.0</ele>
        <time>2019-05-16T11:58:03.899Z</time>
      </trkpt>
      <trkpt lat="38.899985" lon="-9.02881833">
        <ele>8.0</ele>
        <time>2019-05-16T11:58:04.911Z</time>
      </trkpt>
      <trkpt lat="38.900015" lon="-9.02875">
        <ele>8.0</ele>
        <time>2019-05-16T11:58:05.921Z</time>
      </trkpt>
      <trkpt lat="38.90003" lon="-9.028715">
        <ele>8.0</ele>
        <time>2019-05-16T11:58:06.933Z</time>
      </trkpt>
      <trkpt lat="38.90003" lon="-9.028715">
        <ele>8.0</ele>
        <time>2019-05-16T11:58:07.902Z</time>
      </trkpt>
      <trkpt lat="38.90006167" lon="-9.02863833">
        <ele>8.0</ele>
        <time>2019-05-16T11:58:08.921Z</time>
      </trkpt>
      <trkpt lat="38.90006167" lon="-9.02863833">
        <ele>8.0</ele>
        <time>2019-05-16T11:58:09.932Z</time>
      </trkpt>
      <trkpt lat="38.90008" lon="-9.02855833">
        <ele>9.0</ele>
        <time>2019-05-16T11:58:10.901Z</time>
      </trkpt>
      <trkpt lat="38.90008" lon="-9.02855833">
        <ele>9.0</ele>
        <time>2019-05-16T11:58:11.937Z</time>
      </trkpt>
      <trkpt lat="38.900105" lon="-9.028485">
        <ele>9.0</ele>
        <time>2019-05-16T11:58:12.914Z</time>
      </trkpt>
      <trkpt lat="38.90011667" lon="-9.02844833">
        <ele>9.0</ele>
        <time>2019-05-16T11:58:13.898Z</time>
      </trkpt>
      <trkpt lat="38.90011667" lon="-9.02844833">
        <ele>9.0</ele>
        <time>2019-05-16T11:58:14.918Z</time>
      </trkpt>
      <trkpt lat="38.900145" lon="-9.02838333">
        <ele>9.0</ele>
        <time>2019-05-16T11:58:15.934Z</time>
      </trkpt>
      <trkpt lat="38.90016" lon="-9.02834667">
        <ele>10.0</ele>
        <time>2019-05-16T11:58:16.904Z</time>
      </trkpt>
      <trkpt lat="38.90016" lon="-9.02834667">
        <ele>10.0</ele>
        <time>2019-05-16T11:58:17.916Z</time>
      </trkpt>
      <trkpt lat="38.90018833" lon="-9.02827167">
        <ele>10.0</ele>
        <time>2019-05-16T11:58:18.930Z</time>
      </trkpt>
      <trkpt lat="38.90018833" lon="-9.02827167">
        <ele>10.0</ele>
        <time>2019-05-16T11:58:19.911Z</time>
      </trkpt>
      <trkpt lat="38.90021667" lon="-9.02820167">
        <ele>10.0</ele>
        <time>2019-05-16T11:58:20.929Z</time>
      </trkpt>
      <trkpt lat="38.90021667" lon="-9.02820167">
        <ele>10.0</ele>
        <time>2019-05-16T11:58:21.918Z</time>
      </trkpt>
      <trkpt lat="38.90024667" lon="-9.02813333">
        <ele>10.0</ele>
        <time>2019-05-16T11:58:22.940Z</time>
      </trkpt>
      <trkpt lat="38.90026333" lon="-9.02809667">
        <ele>10.0</ele>
        <time>2019-05-16T11:58:23.915Z</time>
      </trkpt>
      <trkpt lat="38.90028" lon="-9.02806167">
        <ele>10.0</ele>
        <time>2019-05-16T11:58:24.908Z</time>
      </trkpt>
      <trkpt lat="38.90028" lon="-9.02806167">
        <ele>10.0</ele>
        <time>2019-05-16T11:58:25.932Z</time>
      </trkpt>
      <trkpt lat="38.90030333" lon="-9.02798333">
        <ele>10.0</ele>
        <time>2019-05-16T11:58:26.901Z</time>
      </trkpt>
      <trkpt lat="38.90030333" lon="-9.02798333">
        <ele>10.0</ele>
        <time>2019-05-16T11:58:27.922Z</time>
      </trkpt>
      <trkpt lat="38.90032" lon="-9.02790667">
        <ele>11.0</ele>
        <time>2019-05-16T11:58:28.930Z</time>
      </trkpt>
      <trkpt lat="38.90032" lon="-9.02790667">
        <ele>11.0</ele>
        <time>2019-05-16T11:58:29.916Z</time>
      </trkpt>
      <trkpt lat="38.90033333" lon="-9.027835">
        <ele>11.0</ele>
        <time>2019-05-16T11:58:30.929Z</time>
      </trkpt>
      <trkpt lat="38.90033333" lon="-9.027835">
        <ele>11.0</ele>
        <time>2019-05-16T11:58:31.901Z</time>
      </trkpt>
      <trkpt lat="38.90035167" lon="-9.027765">
        <ele>11.0</ele>
        <time>2019-05-16T11:58:32.911Z</time>
      </trkpt>
      <trkpt lat="38.90035167" lon="-9.027765">
        <ele>11.0</ele>
        <time>2019-05-16T11:58:33.900Z</time>
      </trkpt>
      <trkpt lat="38.90037" lon="-9.02769333">
        <ele>12.0</ele>
        <time>2019-05-16T11:58:34.919Z</time>
      </trkpt>
      <trkpt lat="38.90037" lon="-9.02769333">
        <ele>12.0</ele>
        <time>2019-05-16T11:58:35.917Z</time>
      </trkpt>
      <trkpt lat="38.90037" lon="-9.02762333">
        <ele>12.0</ele>
        <time>2019-05-16T11:58:36.936Z</time>
      </trkpt>
      <trkpt lat="38.90037" lon="-9.02762333">
        <ele>12.0</ele>
        <time>2019-05-16T11:58:37.914Z</time>
      </trkpt>
      <trkpt lat="38.90039" lon="-9.02756">
        <ele>11.0</ele>
        <time>2019-05-16T11:58:38.903Z</time>
      </trkpt>
      <trkpt lat="38.90039" lon="-9.02756">
        <ele>11.0</ele>
        <time>2019-05-16T11:58:39.932Z</time>
      </trkpt>
      <trkpt lat="38.90043167" lon="-9.02749667">
        <ele>12.0</ele>
        <time>2019-05-16T11:58:40.915Z</time>
      </trkpt>
      <trkpt lat="38.90043167" lon="-9.02749667">
        <ele>12.0</ele>
        <time>2019-05-16T11:58:41.901Z</time>
      </trkpt>
      <trkpt lat="38.90046167" lon="-9.027425">
        <ele>12.0</ele>
        <time>2019-05-16T11:58:42.949Z</time>
      </trkpt>
      <trkpt lat="38.90046167" lon="-9.027425">
        <ele>12.0</ele>
        <time>2019-05-16T11:58:43.903Z</time>
      </trkpt>
      <trkpt lat="38.90049667" lon="-9.02736333">
        <ele>13.0</ele>
        <time>2019-05-16T11:58:44.910Z</time>
      </trkpt>
      <trkpt lat="38.90051" lon="-9.02733333">
        <ele>13.0</ele>
        <time>2019-05-16T11:58:45.920Z</time>
      </trkpt>
      <trkpt lat="38.90051" lon="-9.02733333">
        <ele>13.0</ele>
        <time>2019-05-16T11:58:46.908Z</time>
      </trkpt>
      <trkpt lat="38.900535" lon="-9.02727167">
        <ele>13.0</ele>
        <time>2019-05-16T11:58:47.919Z</time>
      </trkpt>
      <trkpt lat="38.90054667" lon="-9.02724333">
        <ele>13.0</ele>
        <time>2019-05-16T11:58:48.900Z</time>
      </trkpt>
      <trkpt lat="38.90054667" lon="-9.02724333">
        <ele>13.0</ele>
        <time>2019-05-16T11:58:49.920Z</time>
      </trkpt>
      <trkpt lat="38.90057167" lon="-9.02718667">
        <ele>14.0</ele>
        <time>2019-05-16T11:58:50.897Z</time>
      </trkpt>
      <trkpt lat="38.90057167" lon="-9.02718667">
        <ele>14.0</ele>
        <time>2019-05-16T11:58:51.902Z</time>
      </trkpt>
      <trkpt lat="38.90059667" lon="-9.02713667">
        <ele>14.0</ele>
        <time>2019-05-16T11:58:52.915Z</time>
      </trkpt>
      <trkpt lat="38.90059667" lon="-9.02713667">
        <ele>14.0</ele>
        <time>2019-05-16T11:58:53.915Z</time>
      </trkpt>
      <trkpt lat="38.90062" lon="-9.02708833">
        <ele>14.0</ele>
        <time>2019-05-16T11:58:54.930Z</time>
      </trkpt>
      <trkpt lat="38.90062" lon="-9.02708833">
        <ele>14.0</ele>
        <time>2019-05-16T11:58:55.921Z</time>
      </trkpt>
      <trkpt lat="38.90064167" lon="-9.02703833">
        <ele>14.0</ele>
        <time>2019-05-16T11:58:56.898Z</time>
      </trkpt>
      <trkpt lat="38.90064167" lon="-9.02703833">
        <ele>14.0</ele>
        <time>2019-05-16T11:58:57.930Z</time>
      </trkpt>
      <trkpt lat="38.90065667" lon="-9.026995">
        <ele>14.0</ele>
        <time>2019-05-16T11:58:58.898Z</time>
      </trkpt>
      <trkpt lat="38.90065667" lon="-9.026995">
        <ele>14.0</ele>
        <time>2019-05-16T11:58:59.925Z</time>
      </trkpt>
      <trkpt lat="38.90066333" lon="-9.02696667">
        <ele>14.0</ele>
        <time>2019-05-16T11:59:00.939Z</time>
      </trkpt>
      <trkpt lat="38.90066333" lon="-9.02696667">
        <ele>14.0</ele>
        <time>2019-05-16T11:59:01.907Z</time>
      </trkpt>
      <trkpt lat="38.90067167" lon="-9.026975">
        <ele>14.0</ele>
        <time>2019-05-16T11:59:02.916Z</time>
      </trkpt>
      <trkpt lat="38.90067167" lon="-9.026975">
        <ele>14.0</ele>
        <time>2019-05-16T11:59:03.932Z</time>
      </trkpt>
      <trkpt lat="38.90066" lon="-9.027005">
        <ele>14.0</ele>
        <time>2019-05-16T11:59:04.899Z</time>
      </trkpt>
      <trkpt lat="38.90064833" lon="-9.02702833">
        <ele>14.0</ele>
        <time>2019-05-16T11:59:05.906Z</time>
      </trkpt>
      <trkpt lat="38.90063333" lon="-9.02705833">
        <ele>14.0</ele>
        <time>2019-05-16T11:59:06.910Z</time>
      </trkpt>
      <trkpt lat="38.90063333" lon="-9.02705833">
        <ele>14.0</ele>
        <time>2019-05-16T11:59:07.902Z</time>
      </trkpt>
      <trkpt lat="38.90059167" lon="-9.02714833">
        <ele>13.0</ele>
        <time>2019-05-16T11:59:08.930Z</time>
      </trkpt>
      <trkpt lat="38.90059167" lon="-9.02714833">
        <ele>13.0</ele>
        <time>2019-05-16T11:59:09.912Z</time>
      </trkpt>
      <trkpt lat="38.90054333" lon="-9.027265">
        <ele>12.0</ele>
        <time>2019-05-16T11:59:10.930Z</time>
      </trkpt>
      <trkpt lat="38.90052" lon="-9.02732167">
        <ele>12.0</ele>
        <time>2019-05-16T11:59:11.921Z</time>
      </trkpt>
      <trkpt lat="38.90052" lon="-9.02732167">
        <ele>12.0</ele>
        <time>2019-05-16T11:59:13.080Z</time>
      </trkpt>
      <trkpt lat="38.90049667" lon="-9.02737333">
        <ele>11.0</ele>
        <time>2019-05-16T11:59:13.907Z</time>
      </trkpt>
      <trkpt lat="38.90046333" lon="-9.02744167">
        <ele>11.0</ele>
        <time>2019-05-16T11:59:14.918Z</time>
      </trkpt>
      <trkpt lat="38.90046333" lon="-9.02744167">
        <ele>11.0</ele>
        <time>2019-05-16T11:59:15.934Z</time>
      </trkpt>
      <trkpt lat="38.90045833" lon="-9.027495">
        <ele>10.0</ele>
        <time>2019-05-16T11:59:16.927Z</time>
      </trkpt>
      <trkpt lat="38.90046833" lon="-9.0275">
        <ele>10.0</ele>
        <time>2019-05-16T11:59:17.912Z</time>
      </trkpt>
      <trkpt lat="38.900485" lon="-9.02750167">
        <ele>10.0</ele>
        <time>2019-05-16T11:59:18.911Z</time>
      </trkpt>
      <trkpt lat="38.900485" lon="-9.02750167">
        <ele>10.0</ele>
        <time>2019-05-16T11:59:19.905Z</time>
      </trkpt>
      <trkpt lat="38.90049667" lon="-9.027505">
        <ele>10.0</ele>
        <time>2019-05-16T11:59:20.930Z</time>
      </trkpt>
      <trkpt lat="38.90049667" lon="-9.027505">
        <ele>10.0</ele>
        <time>2019-05-16T11:59:21.902Z</time>
      </trkpt>
      <trkpt lat="38.90049667" lon="-9.027505">
        <ele>10.0</ele>
        <time>2019-05-16T11:59:22.909Z</time>
      </trkpt>
      <trkpt lat="38.9005" lon="-9.02750667">
        <ele>10.0</ele>
        <time>2019-05-16T11:59:23.915Z</time>
      </trkpt>
      <trkpt lat="38.9005" lon="-9.02750667">
        <ele>10.0</ele>
        <time>2019-05-16T11:59:24.922Z</time>
      </trkpt>
      <trkpt lat="38.9005" lon="-9.02750667">
        <ele>10.0</ele>
        <time>2019-05-16T11:59:25.909Z</time>
      </trkpt>
      <trkpt lat="38.9005" lon="-9.02750667">
        <ele>10.0</ele>
        <time>2019-05-16T11:59:26.905Z</time>
      </trkpt>
      <trkpt lat="38.9005" lon="-9.02750667">
        <ele>10.0</ele>
        <time>2019-05-16T11:59:27.901Z</time>
      </trkpt>
      <trkpt lat="38.9005" lon="-9.02750667">
        <ele>10.0</ele>
        <time>2019-05-16T11:59:28.921Z</time>
      </trkpt>
      <trkpt lat="38.9005" lon="-9.02750667">
        <ele>10.0</ele>
        <time>2019-05-16T11:59:29.904Z</time>
      </trkpt>
      <trkpt lat="38.9005" lon="-9.02750667">
        <ele>10.0</ele>
        <time>2019-05-16T11:59:30.908Z</time>
      </trkpt>
      <trkpt lat="38.9005" lon="-9.02750667">
        <ele>10.0</ele>
        <time>2019-05-16T11:59:31.900Z</time>
      </trkpt>
      <trkpt lat="38.9005" lon="-9.02750667">
        <ele>10.0</ele>
        <time>2019-05-16T11:59:32.910Z</time>
      </trkpt>
      <trkpt lat="38.9005" lon="-9.02750667">
        <ele>10.0</ele>
        <time>2019-05-16T11:59:33.902Z</time>
      </trkpt>
      <trkpt lat="38.90054" lon="-9.027535">
        <ele>11.0</ele>
        <time>2019-05-16T11:59:34.905Z</time>
      </trkpt>
      <trkpt lat="38.90055667" lon="-9.02754333">
        <ele>11.0</ele>
        <time>2019-05-16T11:59:35.907Z</time>
      </trkpt>
      <trkpt lat="38.900575" lon="-9.02754667">
        <ele>11.0</ele>
        <time>2019-05-16T11:59:36.908Z</time>
      </trkpt>
      <trkpt lat="38.900575" lon="-9.02754667">
        <ele>11.0</ele>
        <time>2019-05-16T11:59:37.910Z</time>
      </trkpt>
      <trkpt lat="38.90061333" lon="-9.02754833">
        <ele>11.0</ele>
        <time>2019-05-16T11:59:38.914Z</time>
      </trkpt>
      <trkpt lat="38.90061333" lon="-9.02754833">
        <ele>11.0</ele>
        <time>2019-05-16T11:59:39.902Z</time>
      </trkpt>
      <trkpt lat="38.900655" lon="-9.02754833">
        <ele>12.0</ele>
        <time>2019-05-16T11:59:40.907Z</time>
      </trkpt>
      <trkpt lat="38.900655" lon="-9.02754833">
        <ele>12.0</ele>
        <time>2019-05-16T11:59:41.921Z</time>
      </trkpt>
      <trkpt lat="38.90071167" lon="-9.02754">
        <ele>12.0</ele>
        <time>2019-05-16T11:59:42.930Z</time>
      </trkpt>
      <trkpt lat="38.90071167" lon="-9.02754">
        <ele>12.0</ele>
        <time>2019-05-16T11:59:43.901Z</time>
      </trkpt>
      <trkpt lat="38.90077333" lon="-9.027525">
        <ele>13.0</ele>
        <time>2019-05-16T11:59:44.912Z</time>
      </trkpt>
      <trkpt lat="38.90080667" lon="-9.02751833">
        <ele>13.0</ele>
        <time>2019-05-16T11:59:45.935Z</time>
      </trkpt>
      <trkpt lat="38.90080667" lon="-9.02751833">
        <ele>13.0</ele>
        <time>2019-05-16T11:59:46.908Z</time>
      </trkpt>
      <trkpt lat="38.90087333" lon="-9.02750167">
        <ele>14.0</ele>
        <time>2019-05-16T11:59:47.932Z</time>
      </trkpt>
      <trkpt lat="38.90087333" lon="-9.02750167">
        <ele>14.0</ele>
        <time>2019-05-16T11:59:48.919Z</time>
      </trkpt>
      <trkpt lat="38.900935" lon="-9.02749167">
        <ele>15.0</ele>
        <time>2019-05-16T11:59:49.934Z</time>
      </trkpt>
      <trkpt lat="38.900935" lon="-9.02749167">
        <ele>15.0</ele>
        <time>2019-05-16T11:59:50.925Z</time>
      </trkpt>
      <trkpt lat="38.900995" lon="-9.027485">
        <ele>17.0</ele>
        <time>2019-05-16T11:59:51.916Z</time>
      </trkpt>
      <trkpt lat="38.900995" lon="-9.027485">
        <ele>17.0</ele>
        <time>2019-05-16T11:59:52.919Z</time>
      </trkpt>
      <trkpt lat="38.90105" lon="-9.02748167">
        <ele>19.0</ele>
        <time>2019-05-16T11:59:53.926Z</time>
      </trkpt>
      <trkpt lat="38.90108" lon="-9.02747833">
        <ele>20.0</ele>
        <time>2019-05-16T11:59:54.913Z</time>
      </trkpt>
      <trkpt lat="38.90108" lon="-9.02747833">
        <ele>20.0</ele>
        <time>2019-05-16T11:59:55.911Z</time>
      </trkpt>
      <trkpt lat="38.90113667" lon="-9.02747">
        <ele>21.0</ele>
        <time>2019-05-16T11:59:56.919Z</time>
      </trkpt>
      <trkpt lat="38.90113667" lon="-9.02747">
        <ele>21.0</ele>
        <time>2019-05-16T11:59:57.913Z</time>
      </trkpt>
      <trkpt lat="38.90119" lon="-9.02745667">
        <ele>21.0</ele>
        <time>2019-05-16T11:59:58.934Z</time>
      </trkpt>
      <trkpt lat="38.90119" lon="-9.02745667">
        <ele>21.0</ele>
        <time>2019-05-16T11:59:59.932Z</time>
      </trkpt>
      <trkpt lat="38.901245" lon="-9.027445">
        <ele>22.0</ele>
        <time>2019-05-16T12:00:00.900Z</time>
      </trkpt>
      <trkpt lat="38.901245" lon="-9.027445">
        <ele>22.0</ele>
        <time>2019-05-16T12:00:01.933Z</time>
      </trkpt>
      <trkpt lat="38.90130167" lon="-9.02744333">
        <ele>22.0</ele>
        <time>2019-05-16T12:00:02.900Z</time>
      </trkpt>
      <trkpt lat="38.90130167" lon="-9.02744333">
        <ele>22.0</ele>
        <time>2019-05-16T12:00:03.901Z</time>
      </trkpt>
      <trkpt lat="38.90135833" lon="-9.02744167">
        <ele>23.0</ele>
        <time>2019-05-16T12:00:04.925Z</time>
      </trkpt>
      <trkpt lat="38.90138667" lon="-9.02743833">
        <ele>23.0</ele>
        <time>2019-05-16T12:00:05.914Z</time>
      </trkpt>
      <trkpt lat="38.90141833" lon="-9.02743333">
        <ele>23.0</ele>
        <time>2019-05-16T12:00:06.898Z</time>
      </trkpt>
      <trkpt lat="38.90141833" lon="-9.02743333">
        <ele>23.0</ele>
        <time>2019-05-16T12:00:07.934Z</time>
      </trkpt>
      <trkpt lat="38.90147833" lon="-9.02743833">
        <ele>23.0</ele>
        <time>2019-05-16T12:00:08.906Z</time>
      </trkpt>
      <trkpt lat="38.90151167" lon="-9.02744">
        <ele>23.0</ele>
        <time>2019-05-16T12:00:09.932Z</time>
      </trkpt>
      <trkpt lat="38.90151167" lon="-9.02744">
        <ele>23.0</ele>
        <time>2019-05-16T12:00:10.932Z</time>
      </trkpt>
      <trkpt lat="38.90157667" lon="-9.02743667">
        <ele>23.0</ele>
        <time>2019-05-16T12:00:11.901Z</time>
      </trkpt>
      <trkpt lat="38.90161" lon="-9.02743833">
        <ele>24.0</ele>
        <time>2019-05-16T12:00:12.905Z</time>
      </trkpt>
      <trkpt lat="38.90161" lon="-9.02743833">
        <ele>24.0</ele>
        <time>2019-05-16T12:00:13.930Z</time>
      </trkpt>
      <trkpt lat="38.90167167" lon="-9.02744">
        <ele>24.0</ele>
        <time>2019-05-16T12:00:14.901Z</time>
      </trkpt>
      <trkpt lat="38.90167167" lon="-9.02744">
        <ele>24.0</ele>
        <time>2019-05-16T12:00:15.921Z</time>
      </trkpt>
      <trkpt lat="38.90173333" lon="-9.02744">
        <ele>25.0</ele>
        <time>2019-05-16T12:00:16.925Z</time>
      </trkpt>
      <trkpt lat="38.90173333" lon="-9.02744">
        <ele>25.0</ele>
        <time>2019-05-16T12:00:17.913Z</time>
      </trkpt>
      <trkpt lat="38.90179167" lon="-9.02744">
        <ele>25.0</ele>
        <time>2019-05-16T12:00:18.931Z</time>
      </trkpt>
      <trkpt lat="38.90179167" lon="-9.02744">
        <ele>25.0</ele>
        <time>2019-05-16T12:00:19.934Z</time>
      </trkpt>
      <trkpt lat="38.901845" lon="-9.02744667">
        <ele>26.0</ele>
        <time>2019-05-16T12:00:20.908Z</time>
      </trkpt>
      <trkpt lat="38.901845" lon="-9.02744667">
        <ele>26.0</ele>
        <time>2019-05-16T12:00:21.903Z</time>
      </trkpt>
      <trkpt lat="38.901905" lon="-9.02745">
        <ele>26.0</ele>
        <time>2019-05-16T12:00:22.912Z</time>
      </trkpt>
      <trkpt lat="38.901905" lon="-9.02745">
        <ele>26.0</ele>
        <time>2019-05-16T12:00:23.931Z</time>
      </trkpt>
      <trkpt lat="38.90196" lon="-9.02745167">
        <ele>26.0</ele>
        <time>2019-05-16T12:00:24.898Z</time>
      </trkpt>
      <trkpt lat="38.90196" lon="-9.02745167">
        <ele>26.0</ele>
        <time>2019-05-16T12:00:25.918Z</time>
      </trkpt>
      <trkpt lat="38.902015" lon="-9.02745167">
        <ele>28.0</ele>
        <time>2019-05-16T12:00:26.931Z</time>
      </trkpt>
      <trkpt lat="38.902015" lon="-9.02745167">
        <ele>28.0</ele>
        <time>2019-05-16T12:00:27.901Z</time>
      </trkpt>
      <trkpt lat="38.90207" lon="-9.027435">
        <ele>29.0</ele>
        <time>2019-05-16T12:00:28.924Z</time>
      </trkpt>
      <trkpt lat="38.90209833" lon="-9.02742833">
        <ele>29.0</ele>
        <time>2019-05-16T12:00:29.909Z</time>
      </trkpt>
      <trkpt lat="38.90212833" lon="-9.02742667">
        <ele>29.0</ele>
        <time>2019-05-16T12:00:30.934Z</time>
      </trkpt>
      <trkpt lat="38.90215833" lon="-9.027425">
        <ele>29.0</ele>
        <time>2019-05-16T12:00:31.913Z</time>
      </trkpt>
      <trkpt lat="38.90215833" lon="-9.027425">
        <ele>29.0</ele>
        <time>2019-05-16T12:00:32.907Z</time>
      </trkpt>
      <trkpt lat="38.90221667" lon="-9.02743333">
        <ele>29.0</ele>
        <time>2019-05-16T12:00:33.940Z</time>
      </trkpt>
      <trkpt lat="38.90221667" lon="-9.02743333">
        <ele>29.0</ele>
        <time>2019-05-16T12:00:34.932Z</time>
      </trkpt>
      <trkpt lat="38.90227167" lon="-9.02744167">
        <ele>30.0</ele>
        <time>2019-05-16T12:00:35.904Z</time>
      </trkpt>
      <trkpt lat="38.90229667" lon="-9.02744333">
        <ele>30.0</ele>
        <time>2019-05-16T12:00:36.925Z</time>
      </trkpt>
      <trkpt lat="38.90229667" lon="-9.02744333">
        <ele>30.0</ele>
        <time>2019-05-16T12:00:37.921Z</time>
      </trkpt>
      <trkpt lat="38.90234833" lon="-9.02745167">
        <ele>31.0</ele>
        <time>2019-05-16T12:00:38.930Z</time>
      </trkpt>
      <trkpt lat="38.90234833" lon="-9.02745167">
        <ele>31.0</ele>
        <time>2019-05-16T12:00:39.924Z</time>
      </trkpt>
      <trkpt lat="38.90234833" lon="-9.02745167">
        <ele>31.0</ele>
        <time>2019-05-16T12:00:40.949Z</time>
      </trkpt>
      <trkpt lat="38.90243" lon="-9.02746333">
        <ele>31.0</ele>
        <time>2019-05-16T12:00:41.935Z</time>
      </trkpt>
      <trkpt lat="38.90245833" lon="-9.02747167">
        <ele>32.0</ele>
        <time>2019-05-16T12:00:42.898Z</time>
      </trkpt>
      <trkpt lat="38.90245833" lon="-9.02747167">
        <ele>32.0</ele>
        <time>2019-05-16T12:00:43.913Z</time>
      </trkpt>
      <trkpt lat="38.90251333" lon="-9.027485">
        <ele>33.0</ele>
        <time>2019-05-16T12:00:44.922Z</time>
      </trkpt>
      <trkpt lat="38.90251333" lon="-9.027485">
        <ele>33.0</ele>
        <time>2019-05-16T12:00:45.901Z</time>
      </trkpt>
      <trkpt lat="38.90256833" lon="-9.02750833">
        <ele>35.0</ele>
        <time>2019-05-16T12:00:46.919Z</time>
      </trkpt>
      <trkpt lat="38.90256833" lon="-9.02750833">
        <ele>35.0</ele>
        <time>2019-05-16T12:00:47.912Z</time>
      </trkpt>
      <trkpt lat="38.90262333" lon="-9.027535">
        <ele>36.0</ele>
        <time>2019-05-16T12:00:48.927Z</time>
      </trkpt>
      <trkpt lat="38.90262333" lon="-9.027535">
        <ele>36.0</ele>
        <time>2019-05-16T12:00:49.905Z</time>
      </trkpt>
      <trkpt lat="38.90268" lon="-9.02756">
        <ele>36.0</ele>
        <time>2019-05-16T12:00:50.914Z</time>
      </trkpt>
      <trkpt lat="38.90268" lon="-9.02756">
        <ele>36.0</ele>
        <time>2019-05-16T12:00:51.922Z</time>
      </trkpt>
      <trkpt lat="38.90273667" lon="-9.02758333">
        <ele>36.0</ele>
        <time>2019-05-16T12:00:52.937Z</time>
      </trkpt>
      <trkpt lat="38.90276333" lon="-9.02759667">
        <ele>36.0</ele>
        <time>2019-05-16T12:00:53.908Z</time>
      </trkpt>
      <trkpt lat="38.90279" lon="-9.02761">
        <ele>36.0</ele>
        <time>2019-05-16T12:00:54.904Z</time>
      </trkpt>
      <trkpt lat="38.90279" lon="-9.02761">
        <ele>36.0</ele>
        <time>2019-05-16T12:00:55.936Z</time>
      </trkpt>
      <trkpt lat="38.902845" lon="-9.027635">
        <ele>36.0</ele>
        <time>2019-05-16T12:00:56.905Z</time>
      </trkpt>
      <trkpt lat="38.902845" lon="-9.027635">
        <ele>36.0</ele>
        <time>2019-05-16T12:00:57.932Z</time>
      </trkpt>
      <trkpt lat="38.90290167" lon="-9.02766333">
        <ele>36.0</ele>
        <time>2019-05-16T12:00:58.900Z</time>
      </trkpt>
      <trkpt lat="38.90290167" lon="-9.02766333">
        <ele>36.0</ele>
        <time>2019-05-16T12:00:59.935Z</time>
      </trkpt>
      <trkpt lat="38.90296167" lon="-9.02769">
        <ele>37.0</ele>
        <time>2019-05-16T12:01:00.902Z</time>
      </trkpt>
      <trkpt lat="38.90296167" lon="-9.02769">
        <ele>37.0</ele>
        <time>2019-05-16T12:01:01.932Z</time>
      </trkpt>
      <trkpt lat="38.90301333" lon="-9.02771833">
        <ele>37.0</ele>
        <time>2019-05-16T12:01:02.903Z</time>
      </trkpt>
      <trkpt lat="38.90301333" lon="-9.02771833">
        <ele>37.0</ele>
        <time>2019-05-16T12:01:03.928Z</time>
      </trkpt>
      <trkpt lat="38.90307" lon="-9.02774333">
        <ele>37.0</ele>
        <time>2019-05-16T12:01:04.903Z</time>
      </trkpt>
      <trkpt lat="38.90307" lon="-9.02774333">
        <ele>37.0</ele>
        <time>2019-05-16T12:01:05.924Z</time>
      </trkpt>
      <trkpt lat="38.90312667" lon="-9.02776667">
        <ele>37.0</ele>
        <time>2019-05-16T12:01:06.936Z</time>
      </trkpt>
      <trkpt lat="38.90312667" lon="-9.02776667">
        <ele>37.0</ele>
        <time>2019-05-16T12:01:07.935Z</time>
      </trkpt>
      <trkpt lat="38.90318167" lon="-9.027795">
        <ele>38.0</ele>
        <time>2019-05-16T12:01:08.923Z</time>
      </trkpt>
      <trkpt lat="38.90318167" lon="-9.027795">
        <ele>38.0</ele>
        <time>2019-05-16T12:01:09.922Z</time>
      </trkpt>
      <trkpt lat="38.90324667" lon="-9.02782333">
        <ele>38.0</ele>
        <time>2019-05-16T12:01:10.933Z</time>
      </trkpt>
      <trkpt lat="38.90324667" lon="-9.02782333">
        <ele>38.0</ele>
        <time>2019-05-16T12:01:11.923Z</time>
      </trkpt>
      <trkpt lat="38.90330833" lon="-9.02785333">
        <ele>38.0</ele>
        <time>2019-05-16T12:01:12.937Z</time>
      </trkpt>
      <trkpt lat="38.90330833" lon="-9.02785333">
        <ele>38.0</ele>
        <time>2019-05-16T12:01:13.899Z</time>
      </trkpt>
      <trkpt lat="38.90336333" lon="-9.02788">
        <ele>38.0</ele>
        <time>2019-05-16T12:01:14.914Z</time>
      </trkpt>
      <trkpt lat="38.90339" lon="-9.02789">
        <ele>38.0</ele>
        <time>2019-05-16T12:01:15.917Z</time>
      </trkpt>
      <trkpt lat="38.90339" lon="-9.02789">
        <ele>38.0</ele>
        <time>2019-05-16T12:01:16.908Z</time>
      </trkpt>
      <trkpt lat="38.903445" lon="-9.02791333">
        <ele>38.0</ele>
        <time>2019-05-16T12:01:17.917Z</time>
      </trkpt>
      <trkpt lat="38.90347" lon="-9.02792333">
        <ele>38.0</ele>
        <time>2019-05-16T12:01:18.917Z</time>
      </trkpt>
      <trkpt lat="38.90347" lon="-9.02792333">
        <ele>38.0</ele>
        <time>2019-05-16T12:01:19.902Z</time>
      </trkpt>
      <trkpt lat="38.90352" lon="-9.02794167">
        <ele>38.0</ele>
        <time>2019-05-16T12:01:20.924Z</time>
      </trkpt>
      <trkpt lat="38.90352" lon="-9.02794167">
        <ele>38.0</ele>
        <time>2019-05-16T12:01:21.910Z</time>
      </trkpt>
      <trkpt lat="38.90357" lon="-9.02796167">
        <ele>37.0</ele>
        <time>2019-05-16T12:01:22.920Z</time>
      </trkpt>
      <trkpt lat="38.90357" lon="-9.02796167">
        <ele>37.0</ele>
        <time>2019-05-16T12:01:23.898Z</time>
      </trkpt>
      <trkpt lat="38.90362167" lon="-9.02798333">
        <ele>37.0</ele>
        <time>2019-05-16T12:01:24.907Z</time>
      </trkpt>
      <trkpt lat="38.90365" lon="-9.02799333">
        <ele>37.0</ele>
        <time>2019-05-16T12:01:25.904Z</time>
      </trkpt>
      <trkpt lat="38.90365" lon="-9.02799333">
        <ele>37.0</ele>
        <time>2019-05-16T12:01:26.919Z</time>
      </trkpt>
      <trkpt lat="38.903705" lon="-9.02801333">
        <ele>36.0</ele>
        <time>2019-05-16T12:01:27.933Z</time>
      </trkpt>
      <trkpt lat="38.903705" lon="-9.02801333">
        <ele>36.0</ele>
        <time>2019-05-16T12:01:28.934Z</time>
      </trkpt>
      <trkpt lat="38.90376333" lon="-9.02803333">
        <ele>36.0</ele>
        <time>2019-05-16T12:01:29.920Z</time>
      </trkpt>
      <trkpt lat="38.90379167" lon="-9.02804333">
        <ele>35.0</ele>
        <time>2019-05-16T12:01:30.923Z</time>
      </trkpt>
      <trkpt lat="38.90379167" lon="-9.02804333">
        <ele>35.0</ele>
        <time>2019-05-16T12:01:31.907Z</time>
      </trkpt>
      <trkpt lat="38.90385" lon="-9.02806333">
        <ele>35.0</ele>
        <time>2019-05-16T12:01:32.924Z</time>
      </trkpt>
      <trkpt lat="38.90385" lon="-9.02806333">
        <ele>35.0</ele>
        <time>2019-05-16T12:01:33.932Z</time>
      </trkpt>
      <trkpt lat="38.90389833" lon="-9.02808667">
        <ele>35.0</ele>
        <time>2019-05-16T12:01:34.946Z</time>
      </trkpt>
      <trkpt lat="38.90389833" lon="-9.02808667">
        <ele>35.0</ele>
        <time>2019-05-16T12:01:35.923Z</time>
      </trkpt>
      <trkpt lat="38.90394833" lon="-9.02811">
        <ele>34.0</ele>
        <time>2019-05-16T12:01:36.934Z</time>
      </trkpt>
      <trkpt lat="38.90394833" lon="-9.02811">
        <ele>34.0</ele>
        <time>2019-05-16T12:01:37.923Z</time>
      </trkpt>
      <trkpt lat="38.90399333" lon="-9.028125">
        <ele>34.0</ele>
        <time>2019-05-16T12:01:38.901Z</time>
      </trkpt>
      <trkpt lat="38.90399333" lon="-9.028125">
        <ele>34.0</ele>
        <time>2019-05-16T12:01:39.901Z</time>
      </trkpt>
      <trkpt lat="38.904035" lon="-9.02814">
        <ele>33.0</ele>
        <time>2019-05-16T12:01:40.909Z</time>
      </trkpt>
      <trkpt lat="38.90406" lon="-9.02814">
        <ele>33.0</ele>
        <time>2019-05-16T12:01:41.936Z</time>
      </trkpt>
      <trkpt lat="38.90406" lon="-9.02814">
        <ele>33.0</ele>
        <time>2019-05-16T12:01:42.926Z</time>
      </trkpt>
      <trkpt lat="38.90411333" lon="-9.02813167">
        <ele>32.0</ele>
        <time>2019-05-16T12:01:43.935Z</time>
      </trkpt>
      <trkpt lat="38.90411333" lon="-9.02813167">
        <ele>32.0</ele>
        <time>2019-05-16T12:01:44.925Z</time>
      </trkpt>
      <trkpt lat="38.904165" lon="-9.02812">
        <ele>31.0</ele>
        <time>2019-05-16T12:01:45.899Z</time>
      </trkpt>
      <trkpt lat="38.90419167" lon="-9.02811333">
        <ele>31.0</ele>
        <time>2019-05-16T12:01:46.898Z</time>
      </trkpt>
      <trkpt lat="38.90419167" lon="-9.02811333">
        <ele>31.0</ele>
        <time>2019-05-16T12:01:47.932Z</time>
      </trkpt>
      <trkpt lat="38.90424" lon="-9.02809833">
        <ele>30.0</ele>
        <time>2019-05-16T12:01:48.904Z</time>
      </trkpt>
      <trkpt lat="38.90424" lon="-9.02809833">
        <ele>30.0</ele>
        <time>2019-05-16T12:01:49.917Z</time>
      </trkpt>
      <trkpt lat="38.90428167" lon="-9.02807333">
        <ele>29.0</ele>
        <time>2019-05-16T12:01:50.930Z</time>
      </trkpt>
      <trkpt lat="38.90428167" lon="-9.02807333">
        <ele>29.0</ele>
        <time>2019-05-16T12:01:51.933Z</time>
      </trkpt>
      <trkpt lat="38.904325" lon="-9.02804333">
        <ele>29.0</ele>
        <time>2019-05-16T12:01:52.916Z</time>
      </trkpt>
      <trkpt lat="38.904325" lon="-9.02804333">
        <ele>29.0</ele>
        <time>2019-05-16T12:01:53.924Z</time>
      </trkpt>
      <trkpt lat="38.90436833" lon="-9.02800833">
        <ele>28.0</ele>
        <time>2019-05-16T12:01:54.897Z</time>
      </trkpt>
      <trkpt lat="38.90436833" lon="-9.02800833">
        <ele>28.0</ele>
        <time>2019-05-16T12:01:55.912Z</time>
      </trkpt>
      <trkpt lat="38.90441333" lon="-9.02797833">
        <ele>28.0</ele>
        <time>2019-05-16T12:01:56.923Z</time>
      </trkpt>
      <trkpt lat="38.90443667" lon="-9.02795833">
        <ele>28.0</ele>
        <time>2019-05-16T12:01:57.934Z</time>
      </trkpt>
      <trkpt lat="38.90443667" lon="-9.02795833">
        <ele>28.0</ele>
        <time>2019-05-16T12:01:58.915Z</time>
      </trkpt>
      <trkpt lat="38.90449" lon="-9.02791167">
        <ele>27.0</ele>
        <time>2019-05-16T12:01:59.936Z</time>
      </trkpt>
      <trkpt lat="38.904515" lon="-9.02788667">
        <ele>26.0</ele>
        <time>2019-05-16T12:02:00.915Z</time>
      </trkpt>
      <trkpt lat="38.904515" lon="-9.02788667">
        <ele>26.0</ele>
        <time>2019-05-16T12:02:01.909Z</time>
      </trkpt>
      <trkpt lat="38.90456667" lon="-9.02783167">
        <ele>25.0</ele>
        <time>2019-05-16T12:02:02.926Z</time>
      </trkpt>
      <trkpt lat="38.90456667" lon="-9.02783167">
        <ele>25.0</ele>
        <time>2019-05-16T12:02:03.925Z</time>
      </trkpt>
      <trkpt lat="38.90461833" lon="-9.02776333">
        <ele>24.0</ele>
        <time>2019-05-16T12:02:04.937Z</time>
      </trkpt>
      <trkpt lat="38.90461833" lon="-9.02776333">
        <ele>24.0</ele>
        <time>2019-05-16T12:02:05.908Z</time>
      </trkpt>
      <trkpt lat="38.904665" lon="-9.02768833">
        <ele>23.0</ele>
        <time>2019-05-16T12:02:06.920Z</time>
      </trkpt>
      <trkpt lat="38.904665" lon="-9.02768833">
        <ele>23.0</ele>
        <time>2019-05-16T12:02:07.930Z</time>
      </trkpt>
      <trkpt lat="38.90470667" lon="-9.0276">
        <ele>23.0</ele>
        <time>2019-05-16T12:02:08.905Z</time>
      </trkpt>
      <trkpt lat="38.90470667" lon="-9.0276">
        <ele>23.0</ele>
        <time>2019-05-16T12:02:09.924Z</time>
      </trkpt>
      <trkpt lat="38.904755" lon="-9.02751167">
        <ele>23.0</ele>
        <time>2019-05-16T12:02:10.897Z</time>
      </trkpt>
      <trkpt lat="38.904755" lon="-9.02751167">
        <ele>23.0</ele>
        <time>2019-05-16T12:02:11.901Z</time>
      </trkpt>
      <trkpt lat="38.904815" lon="-9.02742833">
        <ele>22.0</ele>
        <time>2019-05-16T12:02:12.909Z</time>
      </trkpt>
      <trkpt lat="38.904815" lon="-9.02742833">
        <ele>22.0</ele>
        <time>2019-05-16T12:02:13.902Z</time>
      </trkpt>
      <trkpt lat="38.90487667" lon="-9.027345">
        <ele>22.0</ele>
        <time>2019-05-16T12:02:14.930Z</time>
      </trkpt>
      <trkpt lat="38.90490667" lon="-9.02730833">
        <ele>22.0</ele>
        <time>2019-05-16T12:02:15.919Z</time>
      </trkpt>
      <trkpt lat="38.90490667" lon="-9.02730833">
        <ele>22.0</ele>
        <time>2019-05-16T12:02:16.922Z</time>
      </trkpt>
      <trkpt lat="38.90496" lon="-9.02723833">
        <ele>21.0</ele>
        <time>2019-05-16T12:02:17.931Z</time>
      </trkpt>
      <trkpt lat="38.90499167" lon="-9.02720167">
        <ele>21.0</ele>
        <time>2019-05-16T12:02:18.927Z</time>
      </trkpt>
      <trkpt lat="38.90499167" lon="-9.02720167">
        <ele>21.0</ele>
        <time>2019-05-16T12:02:19.919Z</time>
      </trkpt>
      <trkpt lat="38.905055" lon="-9.02713833">
        <ele>21.0</ele>
        <time>2019-05-16T12:02:20.909Z</time>
      </trkpt>
      <trkpt lat="38.905055" lon="-9.02713833">
        <ele>21.0</ele>
        <time>2019-05-16T12:02:21.901Z</time>
      </trkpt>
      <trkpt lat="38.90512167" lon="-9.02706667">
        <ele>20.0</ele>
        <time>2019-05-16T12:02:22.943Z</time>
      </trkpt>
      <trkpt lat="38.90512167" lon="-9.02706667">
        <ele>20.0</ele>
        <time>2019-05-16T12:02:23.898Z</time>
      </trkpt>
      <trkpt lat="38.90518833" lon="-9.02699333">
        <ele>19.0</ele>
        <time>2019-05-16T12:02:24.906Z</time>
      </trkpt>
      <trkpt lat="38.90518833" lon="-9.02699333">
        <ele>19.0</ele>
        <time>2019-05-16T12:02:25.919Z</time>
      </trkpt>
      <trkpt lat="38.90526333" lon="-9.02692833">
        <ele>18.0</ele>
        <time>2019-05-16T12:02:26.930Z</time>
      </trkpt>
      <trkpt lat="38.90526333" lon="-9.02692833">
        <ele>18.0</ele>
        <time>2019-05-16T12:02:27.903Z</time>
      </trkpt>
      <trkpt lat="38.90533833" lon="-9.02686667">
        <ele>17.0</ele>
        <time>2019-05-16T12:02:28.897Z</time>
      </trkpt>
      <trkpt lat="38.90537667" lon="-9.02683667">
        <ele>17.0</ele>
        <time>2019-05-16T12:02:29.897Z</time>
      </trkpt>
      <trkpt lat="38.905415" lon="-9.02680833">
        <ele>17.0</ele>
        <time>2019-05-16T12:02:30.923Z</time>
      </trkpt>
      <trkpt lat="38.905415" lon="-9.02680833">
        <ele>17.0</ele>
        <time>2019-05-16T12:02:31.907Z</time>
      </trkpt>
      <trkpt lat="38.90549333" lon="-9.02675333">
        <ele>16.0</ele>
        <time>2019-05-16T12:02:32.913Z</time>
      </trkpt>
      <trkpt lat="38.90549333" lon="-9.02675333">
        <ele>16.0</ele>
        <time>2019-05-16T12:02:33.934Z</time>
      </trkpt>
      <trkpt lat="38.90556" lon="-9.02669833">
        <ele>16.0</ele>
        <time>2019-05-16T12:02:34.913Z</time>
      </trkpt>
      <trkpt lat="38.90556" lon="-9.02669833">
        <ele>16.0</ele>
        <time>2019-05-16T12:02:35.929Z</time>
      </trkpt>
      <trkpt lat="38.90561667" lon="-9.02664">
        <ele>15.0</ele>
        <time>2019-05-16T12:02:36.911Z</time>
      </trkpt>
      <trkpt lat="38.90561667" lon="-9.02664">
        <ele>15.0</ele>
        <time>2019-05-16T12:02:37.903Z</time>
      </trkpt>
      <trkpt lat="38.90566333" lon="-9.02658833">
        <ele>15.0</ele>
        <time>2019-05-16T12:02:38.907Z</time>
      </trkpt>
      <trkpt lat="38.90566333" lon="-9.02658833">
        <ele>15.0</ele>
        <time>2019-05-16T12:02:39.932Z</time>
      </trkpt>
      <trkpt lat="38.90566333" lon="-9.02658833">
        <ele>15.0</ele>
        <time>2019-05-16T12:02:40.949Z</time>
      </trkpt>
      <trkpt lat="38.9057" lon="-9.02655167">
        <ele>15.0</ele>
        <time>2019-05-16T12:02:41.902Z</time>
      </trkpt>
      <trkpt lat="38.90571333" lon="-9.02653667">
        <ele>15.0</ele>
        <time>2019-05-16T12:02:42.927Z</time>
      </trkpt>
      <trkpt lat="38.90571333" lon="-9.02653667">
        <ele>15.0</ele>
        <time>2019-05-16T12:02:43.922Z</time>
      </trkpt>
      <trkpt lat="38.905715" lon="-9.026535">
        <ele>15.0</ele>
        <time>2019-05-16T12:02:44.938Z</time>
      </trkpt>
      <trkpt lat="38.905715" lon="-9.026535">
        <ele>15.0</ele>
        <time>2019-05-16T12:02:45.922Z</time>
      </trkpt>
      <trkpt lat="38.905715" lon="-9.026535">
        <ele>15.0</ele>
        <time>2019-05-16T12:02:46.936Z</time>
      </trkpt>
      <trkpt lat="38.905715" lon="-9.026535">
        <ele>15.0</ele>
        <time>2019-05-16T12:02:47.902Z</time>
      </trkpt>
      <trkpt lat="38.905715" lon="-9.026535">
        <ele>15.0</ele>
        <time>2019-05-16T12:02:48.926Z</time>
      </trkpt>
      <trkpt lat="38.905715" lon="-9.026535">
        <ele>15.0</ele>
        <time>2019-05-16T12:02:49.898Z</time>
      </trkpt>
      <trkpt lat="38.905715" lon="-9.026535">
        <ele>15.0</ele>
        <time>2019-05-16T12:02:50.916Z</time>
      </trkpt>
      <trkpt lat="38.905715" lon="-9.026535">
        <ele>15.0</ele>
        <time>2019-05-16T12:02:51.907Z</time>
      </trkpt>
      <trkpt lat="38.905715" lon="-9.026535">
        <ele>15.0</ele>
        <time>2019-05-16T12:02:52.902Z</time>
      </trkpt>
      <trkpt lat="38.90574333" lon="-9.02649833">
        <ele>14.0</ele>
        <time>2019-05-16T12:02:53.906Z</time>
      </trkpt>
      <trkpt lat="38.905765" lon="-9.0265">
        <ele>14.0</ele>
        <time>2019-05-16T12:02:54.921Z</time>
      </trkpt>
      <trkpt lat="38.90578667" lon="-9.02651167">
        <ele>14.0</ele>
        <time>2019-05-16T12:02:55.907Z</time>
      </trkpt>
      <trkpt lat="38.90578667" lon="-9.02651167">
        <ele>14.0</ele>
        <time>2019-05-16T12:02:56.901Z</time>
      </trkpt>
      <trkpt lat="38.90582833" lon="-9.02655667">
        <ele>15.0</ele>
        <time>2019-05-16T12:02:57.905Z</time>
      </trkpt>
      <trkpt lat="38.90582833" lon="-9.02655667">
        <ele>15.0</ele>
        <time>2019-05-16T12:02:58.909Z</time>
      </trkpt>
      <trkpt lat="38.90587333" lon="-9.02661667">
        <ele>15.0</ele>
        <time>2019-05-16T12:02:59.966Z</time>
      </trkpt>
      <trkpt lat="38.90587333" lon="-9.02661667">
        <ele>15.0</ele>
        <time>2019-05-16T12:03:00.934Z</time>
      </trkpt>
      <trkpt lat="38.90592667" lon="-9.02668333">
        <ele>15.0</ele>
        <time>2019-05-16T12:03:01.907Z</time>
      </trkpt>
      <trkpt lat="38.905955" lon="-9.02672">
        <ele>15.0</ele>
        <time>2019-05-16T12:03:02.898Z</time>
      </trkpt>
      <trkpt lat="38.905955" lon="-9.02672">
        <ele>15.0</ele>
        <time>2019-05-16T12:03:03.933Z</time>
      </trkpt>
      <trkpt lat="38.90602167" lon="-9.02678833">
        <ele>15.0</ele>
        <time>2019-05-16T12:03:04.905Z</time>
      </trkpt>
      <trkpt lat="38.90602167" lon="-9.02678833">
        <ele>15.0</ele>
        <time>2019-05-16T12:03:05.905Z</time>
      </trkpt>
      <trkpt lat="38.90609167" lon="-9.026855">
        <ele>15.0</ele>
        <time>2019-05-16T12:03:06.942Z</time>
      </trkpt>
      <trkpt lat="38.90609167" lon="-9.026855">
        <ele>15.0</ele>
        <time>2019-05-16T12:03:07.932Z</time>
      </trkpt>
      <trkpt lat="38.90616833" lon="-9.026915">
        <ele>15.0</ele>
        <time>2019-05-16T12:03:08.901Z</time>
      </trkpt>
      <trkpt lat="38.90616833" lon="-9.026915">
        <ele>15.0</ele>
        <time>2019-05-16T12:03:09.925Z</time>
      </trkpt>
      <trkpt lat="38.90623667" lon="-9.02696833">
        <ele>15.0</ele>
        <time>2019-05-16T12:03:10.897Z</time>
      </trkpt>
      <trkpt lat="38.90623667" lon="-9.02696833">
        <ele>15.0</ele>
        <time>2019-05-16T12:03:11.915Z</time>
      </trkpt>
      <trkpt lat="38.90630833" lon="-9.02701333">
        <ele>15.0</ele>
        <time>2019-05-16T12:03:12.928Z</time>
      </trkpt>
      <trkpt lat="38.90630833" lon="-9.02701333">
        <ele>15.0</ele>
        <time>2019-05-16T12:03:13.912Z</time>
      </trkpt>
      <trkpt lat="38.90637333" lon="-9.02705667">
        <ele>15.0</ele>
        <time>2019-05-16T12:03:14.920Z</time>
      </trkpt>
      <trkpt lat="38.90637333" lon="-9.02705667">
        <ele>15.0</ele>
        <time>2019-05-16T12:03:15.930Z</time>
      </trkpt>
      <trkpt lat="38.90643167" lon="-9.02709167">
        <ele>15.0</ele>
        <time>2019-05-16T12:03:16.902Z</time>
      </trkpt>
      <trkpt lat="38.90643167" lon="-9.02709167">
        <ele>15.0</ele>
        <time>2019-05-16T12:03:17.929Z</time>
      </trkpt>
      <trkpt lat="38.90649" lon="-9.02711667">
        <ele>15.0</ele>
        <time>2019-05-16T12:03:18.931Z</time>
      </trkpt>
      <trkpt lat="38.90649" lon="-9.02711667">
        <ele>15.0</ele>
        <time>2019-05-16T12:03:19.911Z</time>
      </trkpt>
      <trkpt lat="38.90654667" lon="-9.02714">
        <ele>16.0</ele>
        <time>2019-05-16T12:03:20.934Z</time>
      </trkpt>
      <trkpt lat="38.90654667" lon="-9.02714">
        <ele>16.0</ele>
        <time>2019-05-16T12:03:21.924Z</time>
      </trkpt>
      <trkpt lat="38.90660667" lon="-9.02717833">
        <ele>17.0</ele>
        <time>2019-05-16T12:03:22.898Z</time>
      </trkpt>
      <trkpt lat="38.90660667" lon="-9.02717833">
        <ele>17.0</ele>
        <time>2019-05-16T12:03:23.921Z</time>
      </trkpt>
      <trkpt lat="38.90667667" lon="-9.0272">
        <ele>18.0</ele>
        <time>2019-05-16T12:03:24.933Z</time>
      </trkpt>
      <trkpt lat="38.90667667" lon="-9.0272">
        <ele>18.0</ele>
        <time>2019-05-16T12:03:25.912Z</time>
      </trkpt>
      <trkpt lat="38.90676167" lon="-9.02722">
        <ele>20.0</ele>
        <time>2019-05-16T12:03:26.922Z</time>
      </trkpt>
      <trkpt lat="38.90676167" lon="-9.02722">
        <ele>20.0</ele>
        <time>2019-05-16T12:03:27.911Z</time>
      </trkpt>
      <trkpt lat="38.906845" lon="-9.027215">
        <ele>20.0</ele>
        <time>2019-05-16T12:03:28.901Z</time>
      </trkpt>
      <trkpt lat="38.906845" lon="-9.027215">
        <ele>20.0</ele>
        <time>2019-05-16T12:03:29.932Z</time>
      </trkpt>
      <trkpt lat="38.90692" lon="-9.027215">
        <ele>21.0</ele>
        <time>2019-05-16T12:03:30.900Z</time>
      </trkpt>
      <trkpt lat="38.90692" lon="-9.027215">
        <ele>21.0</ele>
        <time>2019-05-16T12:03:31.931Z</time>
      </trkpt>
      <trkpt lat="38.90698833" lon="-9.02721667">
        <ele>22.0</ele>
        <time>2019-05-16T12:03:32.900Z</time>
      </trkpt>
      <trkpt lat="38.907025" lon="-9.02722167">
        <ele>22.0</ele>
        <time>2019-05-16T12:03:33.913Z</time>
      </trkpt>
      <trkpt lat="38.907025" lon="-9.02722167">
        <ele>22.0</ele>
        <time>2019-05-16T12:03:34.908Z</time>
      </trkpt>
      <trkpt lat="38.90709833" lon="-9.02723167">
        <ele>22.0</ele>
        <time>2019-05-16T12:03:35.916Z</time>
      </trkpt>
      <trkpt lat="38.90713" lon="-9.02724">
        <ele>22.0</ele>
        <time>2019-05-16T12:03:36.922Z</time>
      </trkpt>
      <trkpt lat="38.90713" lon="-9.02724">
        <ele>22.0</ele>
        <time>2019-05-16T12:03:37.903Z</time>
      </trkpt>
      <trkpt lat="38.90719" lon="-9.02725333">
        <ele>22.0</ele>
        <time>2019-05-16T12:03:38.956Z</time>
      </trkpt>
      <trkpt lat="38.90719" lon="-9.02725333">
        <ele>22.0</ele>
        <time>2019-05-16T12:03:39.916Z</time>
      </trkpt>
      <trkpt lat="38.90724833" lon="-9.02726833">
        <ele>23.0</ele>
        <time>2019-05-16T12:03:40.930Z</time>
      </trkpt>
      <trkpt lat="38.90724833" lon="-9.02726833">
        <ele>23.0</ele>
        <time>2019-05-16T12:03:41.921Z</time>
      </trkpt>
      <trkpt lat="38.907305" lon="-9.02728333">
        <ele>23.0</ele>
        <time>2019-05-16T12:03:42.929Z</time>
      </trkpt>
      <trkpt lat="38.907305" lon="-9.02728333">
        <ele>23.0</ele>
        <time>2019-05-16T12:03:43.898Z</time>
      </trkpt>
      <trkpt lat="38.90736" lon="-9.02730333">
        <ele>24.0</ele>
        <time>2019-05-16T12:03:44.907Z</time>
      </trkpt>
      <trkpt lat="38.90736" lon="-9.02730333">
        <ele>24.0</ele>
        <time>2019-05-16T12:03:45.905Z</time>
      </trkpt>
      <trkpt lat="38.90741" lon="-9.027325">
        <ele>25.0</ele>
        <time>2019-05-16T12:03:46.918Z</time>
      </trkpt>
      <trkpt lat="38.90743667" lon="-9.027335">
        <ele>26.0</ele>
        <time>2019-05-16T12:03:47.929Z</time>
      </trkpt>
      <trkpt lat="38.907465" lon="-9.02734667">
        <ele>26.0</ele>
        <time>2019-05-16T12:03:48.922Z</time>
      </trkpt>
      <trkpt lat="38.907465" lon="-9.02734667">
        <ele>26.0</ele>
        <time>2019-05-16T12:03:49.912Z</time>
      </trkpt>
      <trkpt lat="38.90752" lon="-9.02736833">
        <ele>26.0</ele>
        <time>2019-05-16T12:03:50.926Z</time>
      </trkpt>
      <trkpt lat="38.90752" lon="-9.02736833">
        <ele>26.0</ele>
        <time>2019-05-16T12:03:51.936Z</time>
      </trkpt>
      <trkpt lat="38.907575" lon="-9.02738667">
        <ele>26.0</ele>
        <time>2019-05-16T12:03:52.908Z</time>
      </trkpt>
      <trkpt lat="38.907605" lon="-9.02739833">
        <ele>26.0</ele>
        <time>2019-05-16T12:03:53.918Z</time>
      </trkpt>
      <trkpt lat="38.90763" lon="-9.027415">
        <ele>27.0</ele>
        <time>2019-05-16T12:03:54.916Z</time>
      </trkpt>
      <trkpt lat="38.90763" lon="-9.027415">
        <ele>27.0</ele>
        <time>2019-05-16T12:03:55.900Z</time>
      </trkpt>
      <trkpt lat="38.90768167" lon="-9.02744833">
        <ele>28.0</ele>
        <time>2019-05-16T12:03:56.939Z</time>
      </trkpt>
      <trkpt lat="38.907705" lon="-9.02746667">
        <ele>28.0</ele>
        <time>2019-05-16T12:03:57.910Z</time>
      </trkpt>
      <trkpt lat="38.907705" lon="-9.02746667">
        <ele>28.0</ele>
        <time>2019-05-16T12:03:58.901Z</time>
      </trkpt>
      <trkpt lat="38.90774833" lon="-9.02750167">
        <ele>28.0</ele>
        <time>2019-05-16T12:03:59.907Z</time>
      </trkpt>
      <trkpt lat="38.90777" lon="-9.02752167">
        <ele>28.0</ele>
        <time>2019-05-16T12:04:00.937Z</time>
      </trkpt>
      <trkpt lat="38.90777" lon="-9.02752167">
        <ele>28.0</ele>
        <time>2019-05-16T12:04:01.920Z</time>
      </trkpt>
      <trkpt lat="38.90780333" lon="-9.02757">
        <ele>28.0</ele>
        <time>2019-05-16T12:04:02.921Z</time>
      </trkpt>
      <trkpt lat="38.90780333" lon="-9.02757">
        <ele>28.0</ele>
        <time>2019-05-16T12:04:03.933Z</time>
      </trkpt>
      <trkpt lat="38.90783167" lon="-9.02762667">
        <ele>29.0</ele>
        <time>2019-05-16T12:04:04.925Z</time>
      </trkpt>
      <trkpt lat="38.90784167" lon="-9.02766">
        <ele>30.0</ele>
        <time>2019-05-16T12:04:05.910Z</time>
      </trkpt>
      <trkpt lat="38.90785333" lon="-9.02769167">
        <ele>31.0</ele>
        <time>2019-05-16T12:04:06.926Z</time>
      </trkpt>
      <trkpt lat="38.90785333" lon="-9.02769167">
        <ele>31.0</ele>
        <time>2019-05-16T12:04:07.898Z</time>
      </trkpt>
      <trkpt lat="38.90788833" lon="-9.027765">
        <ele>32.0</ele>
        <time>2019-05-16T12:04:08.902Z</time>
      </trkpt>
      <trkpt lat="38.90788833" lon="-9.027765">
        <ele>32.0</ele>
        <time>2019-05-16T12:04:09.906Z</time>
      </trkpt>
      <trkpt lat="38.90792833" lon="-9.02784">
        <ele>34.0</ele>
        <time>2019-05-16T12:04:10.926Z</time>
      </trkpt>
      <trkpt lat="38.90792833" lon="-9.02784">
        <ele>34.0</ele>
        <time>2019-05-16T12:04:11.897Z</time>
      </trkpt>
      <trkpt lat="38.90797833" lon="-9.02791167">
        <ele>33.0</ele>
        <time>2019-05-16T12:04:12.905Z</time>
      </trkpt>
      <trkpt lat="38.90797833" lon="-9.02791167">
        <ele>33.0</ele>
        <time>2019-05-16T12:04:13.911Z</time>
      </trkpt>
      <trkpt lat="38.908035" lon="-9.02797333">
        <ele>33.0</ele>
        <time>2019-05-16T12:04:14.920Z</time>
      </trkpt>
      <trkpt lat="38.908035" lon="-9.02797333">
        <ele>33.0</ele>
        <time>2019-05-16T12:04:15.911Z</time>
      </trkpt>
      <trkpt lat="38.90809167" lon="-9.02801667">
        <ele>33.0</ele>
        <time>2019-05-16T12:04:16.924Z</time>
      </trkpt>
      <trkpt lat="38.90809167" lon="-9.02801667">
        <ele>33.0</ele>
        <time>2019-05-16T12:04:17.931Z</time>
      </trkpt>
      <trkpt lat="38.90813667" lon="-9.02807333">
        <ele>33.0</ele>
        <time>2019-05-16T12:04:18.899Z</time>
      </trkpt>
      <trkpt lat="38.90813667" lon="-9.02807333">
        <ele>33.0</ele>
        <time>2019-05-16T12:04:19.921Z</time>
      </trkpt>
      <trkpt lat="38.90818667" lon="-9.02812167">
        <ele>35.0</ele>
        <time>2019-05-16T12:04:20.903Z</time>
      </trkpt>
      <trkpt lat="38.90818667" lon="-9.02812167">
        <ele>35.0</ele>
        <time>2019-05-16T12:04:21.906Z</time>
      </trkpt>
      <trkpt lat="38.908235" lon="-9.02815333">
        <ele>35.0</ele>
        <time>2019-05-16T12:04:22.929Z</time>
      </trkpt>
      <trkpt lat="38.908235" lon="-9.02815333">
        <ele>35.0</ele>
        <time>2019-05-16T12:04:23.936Z</time>
      </trkpt>
      <trkpt lat="38.908275" lon="-9.02816667">
        <ele>36.0</ele>
        <time>2019-05-16T12:04:24.907Z</time>
      </trkpt>
      <trkpt lat="38.908275" lon="-9.02816667">
        <ele>36.0</ele>
        <time>2019-05-16T12:04:25.903Z</time>
      </trkpt>
      <trkpt lat="38.90829167" lon="-9.02816833">
        <ele>37.0</ele>
        <time>2019-05-16T12:04:26.910Z</time>
      </trkpt>
      <trkpt lat="38.90829167" lon="-9.02816833">
        <ele>37.0</ele>
        <time>2019-05-16T12:04:27.904Z</time>
      </trkpt>
      <trkpt lat="38.90829667" lon="-9.02817">
        <ele>37.0</ele>
        <time>2019-05-16T12:04:28.924Z</time>
      </trkpt>
      <trkpt lat="38.90829667" lon="-9.02817">
        <ele>37.0</ele>
        <time>2019-05-16T12:04:29.911Z</time>
      </trkpt>
      <trkpt lat="38.90829833" lon="-9.02816667">
        <ele>37.0</ele>
        <time>2019-05-16T12:04:30.917Z</time>
      </trkpt>
      <trkpt lat="38.90829833" lon="-9.02816667">
        <ele>37.0</ele>
        <time>2019-05-16T12:04:31.923Z</time>
      </trkpt>
      <trkpt lat="38.90829833" lon="-9.02816667">
        <ele>37.0</ele>
        <time>2019-05-16T12:04:32.929Z</time>
      </trkpt>
      <trkpt lat="38.90829833" lon="-9.02816667">
        <ele>37.0</ele>
        <time>2019-05-16T12:04:33.903Z</time>
      </trkpt>
      <trkpt lat="38.90833167" lon="-9.02815333">
        <ele>38.0</ele>
        <time>2019-05-16T12:04:34.910Z</time>
      </trkpt>
      <trkpt lat="38.90833167" lon="-9.02815333">
        <ele>38.0</ele>
        <time>2019-05-16T12:04:35.901Z</time>
      </trkpt>
      <trkpt lat="38.90838667" lon="-9.02812167">
        <ele>38.0</ele>
        <time>2019-05-16T12:04:36.905Z</time>
      </trkpt>
      <trkpt lat="38.90838667" lon="-9.02812167">
        <ele>38.0</ele>
        <time>2019-05-16T12:04:37.901Z</time>
      </trkpt>
      <trkpt lat="38.90844167" lon="-9.02805833">
        <ele>37.0</ele>
        <time>2019-05-16T12:04:38.908Z</time>
      </trkpt>
      <trkpt lat="38.90844167" lon="-9.02805833">
        <ele>37.0</ele>
        <time>2019-05-16T12:04:39.900Z</time>
      </trkpt>
      <trkpt lat="38.90848667" lon="-9.02798">
        <ele>37.0</ele>
        <time>2019-05-16T12:04:40.968Z</time>
      </trkpt>
      <trkpt lat="38.90848667" lon="-9.02798">
        <ele>37.0</ele>
        <time>2019-05-16T12:04:41.910Z</time>
      </trkpt>
      <trkpt lat="38.90853333" lon="-9.027895">
        <ele>37.0</ele>
        <time>2019-05-16T12:04:42.927Z</time>
      </trkpt>
      <trkpt lat="38.90853333" lon="-9.027895">
        <ele>37.0</ele>
        <time>2019-05-16T12:04:43.933Z</time>
      </trkpt>
      <trkpt lat="38.908585" lon="-9.02780667">
        <ele>36.0</ele>
        <time>2019-05-16T12:04:44.935Z</time>
      </trkpt>
      <trkpt lat="38.908585" lon="-9.02780667">
        <ele>36.0</ele>
        <time>2019-05-16T12:04:45.899Z</time>
      </trkpt>
      <trkpt lat="38.90863167" lon="-9.02772333">
        <ele>35.0</ele>
        <time>2019-05-16T12:04:46.920Z</time>
      </trkpt>
      <trkpt lat="38.90865667" lon="-9.02768167">
        <ele>35.0</ele>
        <time>2019-05-16T12:04:47.917Z</time>
      </trkpt>
      <trkpt lat="38.908675" lon="-9.02764333">
        <ele>35.0</ele>
        <time>2019-05-16T12:04:48.920Z</time>
      </trkpt>
      <trkpt lat="38.908675" lon="-9.02764333">
        <ele>35.0</ele>
        <time>2019-05-16T12:04:49.902Z</time>
      </trkpt>
      <trkpt lat="38.90871833" lon="-9.02756833">
        <ele>35.0</ele>
        <time>2019-05-16T12:04:50.925Z</time>
      </trkpt>
      <trkpt lat="38.90871833" lon="-9.02756833">
        <ele>35.0</ele>
        <time>2019-05-16T12:04:51.911Z</time>
      </trkpt>
      <trkpt lat="38.90876333" lon="-9.02749833">
        <ele>34.0</ele>
        <time>2019-05-16T12:04:52.920Z</time>
      </trkpt>
      <trkpt lat="38.90876333" lon="-9.02749833">
        <ele>34.0</ele>
        <time>2019-05-16T12:04:53.904Z</time>
      </trkpt>
      <trkpt lat="38.90881" lon="-9.02743167">
        <ele>34.0</ele>
        <time>2019-05-16T12:04:54.915Z</time>
      </trkpt>
      <trkpt lat="38.90881" lon="-9.02743167">
        <ele>34.0</ele>
        <time>2019-05-16T12:04:55.933Z</time>
      </trkpt>
      <trkpt lat="38.90886167" lon="-9.02737">
        <ele>33.0</ele>
        <time>2019-05-16T12:04:56.908Z</time>
      </trkpt>
      <trkpt lat="38.90886167" lon="-9.02737">
        <ele>33.0</ele>
        <time>2019-05-16T12:04:57.935Z</time>
      </trkpt>
      <trkpt lat="38.90890167" lon="-9.02731333">
        <ele>32.0</ele>
        <time>2019-05-16T12:04:58.903Z</time>
      </trkpt>
      <trkpt lat="38.90890167" lon="-9.02731333">
        <ele>32.0</ele>
        <time>2019-05-16T12:04:59.935Z</time>
      </trkpt>
      <trkpt lat="38.908945" lon="-9.02726167">
        <ele>32.0</ele>
        <time>2019-05-16T12:05:00.913Z</time>
      </trkpt>
      <trkpt lat="38.908945" lon="-9.02726167">
        <ele>32.0</ele>
        <time>2019-05-16T12:05:01.906Z</time>
      </trkpt>
      <trkpt lat="38.90898" lon="-9.027215">
        <ele>31.0</ele>
        <time>2019-05-16T12:05:02.922Z</time>
      </trkpt>
      <trkpt lat="38.90898" lon="-9.027215">
        <ele>31.0</ele>
        <time>2019-05-16T12:05:03.936Z</time>
      </trkpt>
      <trkpt lat="38.90902667" lon="-9.02717">
        <ele>31.0</ele>
        <time>2019-05-16T12:05:04.904Z</time>
      </trkpt>
      <trkpt lat="38.90902667" lon="-9.02717">
        <ele>31.0</ele>
        <time>2019-05-16T12:05:05.913Z</time>
      </trkpt>
      <trkpt lat="38.90907333" lon="-9.02712167">
        <ele>31.0</ele>
        <time>2019-05-16T12:05:06.924Z</time>
      </trkpt>
      <trkpt lat="38.90907333" lon="-9.02712167">
        <ele>31.0</ele>
        <time>2019-05-16T12:05:07.917Z</time>
      </trkpt>
      <trkpt lat="38.90911333" lon="-9.02708">
        <ele>30.0</ele>
        <time>2019-05-16T12:05:08.927Z</time>
      </trkpt>
      <trkpt lat="38.90913833" lon="-9.02706">
        <ele>30.0</ele>
        <time>2019-05-16T12:05:09.926Z</time>
      </trkpt>
      <trkpt lat="38.90913833" lon="-9.02706">
        <ele>30.0</ele>
        <time>2019-05-16T12:05:10.910Z</time>
      </trkpt>
      <trkpt lat="38.90918667" lon="-9.027025">
        <ele>30.0</ele>
        <time>2019-05-16T12:05:11.903Z</time>
      </trkpt>
      <trkpt lat="38.90921167" lon="-9.027005">
        <ele>29.0</ele>
        <time>2019-05-16T12:05:12.927Z</time>
      </trkpt>
      <trkpt lat="38.90921167" lon="-9.027005">
        <ele>29.0</ele>
        <time>2019-05-16T12:05:13.921Z</time>
      </trkpt>
      <trkpt lat="38.90924333" lon="-9.02696167">
        <ele>29.0</ele>
        <time>2019-05-16T12:05:14.898Z</time>
      </trkpt>
      <trkpt lat="38.90924333" lon="-9.02696167">
        <ele>29.0</ele>
        <time>2019-05-16T12:05:15.933Z</time>
      </trkpt>
      <trkpt lat="38.90928167" lon="-9.02691667">
        <ele>29.0</ele>
        <time>2019-05-16T12:05:16.903Z</time>
      </trkpt>
      <trkpt lat="38.90928167" lon="-9.02691667">
        <ele>29.0</ele>
        <time>2019-05-16T12:05:17.922Z</time>
      </trkpt>
      <trkpt lat="38.90933333" lon="-9.02686833">
        <ele>29.0</ele>
        <time>2019-05-16T12:05:18.929Z</time>
      </trkpt>
      <trkpt lat="38.90933333" lon="-9.02686833">
        <ele>29.0</ele>
        <time>2019-05-16T12:05:19.906Z</time>
      </trkpt>
      <trkpt lat="38.909385" lon="-9.026815">
        <ele>28.0</ele>
        <time>2019-05-16T12:05:20.899Z</time>
      </trkpt>
      <trkpt lat="38.909385" lon="-9.026815">
        <ele>28.0</ele>
        <time>2019-05-16T12:05:21.901Z</time>
      </trkpt>
      <trkpt lat="38.909435" lon="-9.026765">
        <ele>28.0</ele>
        <time>2019-05-16T12:05:22.922Z</time>
      </trkpt>
      <trkpt lat="38.909435" lon="-9.026765">
        <ele>28.0</ele>
        <time>2019-05-16T12:05:23.903Z</time>
      </trkpt>
      <trkpt lat="38.90947833" lon="-9.02671667">
        <ele>28.0</ele>
        <time>2019-05-16T12:05:24.919Z</time>
      </trkpt>
      <trkpt lat="38.90947833" lon="-9.02671667">
        <ele>28.0</ele>
        <time>2019-05-16T12:05:25.923Z</time>
      </trkpt>
      <trkpt lat="38.90953167" lon="-9.02667333">
        <ele>27.0</ele>
        <time>2019-05-16T12:05:26.934Z</time>
      </trkpt>
      <trkpt lat="38.90953167" lon="-9.02667333">
        <ele>27.0</ele>
        <time>2019-05-16T12:05:27.933Z</time>
      </trkpt>
      <trkpt lat="38.90958" lon="-9.02663333">
        <ele>27.0</ele>
        <time>2019-05-16T12:05:28.917Z</time>
      </trkpt>
      <trkpt lat="38.90958" lon="-9.02663333">
        <ele>27.0</ele>
        <time>2019-05-16T12:05:29.929Z</time>
      </trkpt>
      <trkpt lat="38.90962833" lon="-9.02659">
        <ele>27.0</ele>
        <time>2019-05-16T12:05:30.905Z</time>
      </trkpt>
      <trkpt lat="38.90962833" lon="-9.02659">
        <ele>27.0</ele>
        <time>2019-05-16T12:05:31.899Z</time>
      </trkpt>
      <trkpt lat="38.90967667" lon="-9.02654833">
        <ele>27.0</ele>
        <time>2019-05-16T12:05:32.912Z</time>
      </trkpt>
      <trkpt lat="38.90967667" lon="-9.02654833">
        <ele>27.0</ele>
        <time>2019-05-16T12:05:33.901Z</time>
      </trkpt>
      <trkpt lat="38.90972667" lon="-9.02650833">
        <ele>26.0</ele>
        <time>2019-05-16T12:05:34.897Z</time>
      </trkpt>
      <trkpt lat="38.90975333" lon="-9.02648667">
        <ele>26.0</ele>
        <time>2019-05-16T12:05:35.917Z</time>
      </trkpt>
      <trkpt lat="38.90978" lon="-9.02646333">
        <ele>26.0</ele>
        <time>2019-05-16T12:05:36.925Z</time>
      </trkpt>
      <trkpt lat="38.90978" lon="-9.02646333">
        <ele>26.0</ele>
        <time>2019-05-16T12:05:37.911Z</time>
      </trkpt>
      <trkpt lat="38.90983833" lon="-9.02641333">
        <ele>25.0</ele>
        <time>2019-05-16T12:05:38.934Z</time>
      </trkpt>
      <trkpt lat="38.90983833" lon="-9.02641333">
        <ele>25.0</ele>
        <time>2019-05-16T12:05:39.933Z</time>
      </trkpt>
      <trkpt lat="38.909895" lon="-9.02636833">
        <ele>25.0</ele>
        <time>2019-05-16T12:05:40.906Z</time>
      </trkpt>
      <trkpt lat="38.90992333" lon="-9.02635">
        <ele>25.0</ele>
        <time>2019-05-16T12:05:41.909Z</time>
      </trkpt>
      <trkpt lat="38.90995167" lon="-9.026335">
        <ele>25.0</ele>
        <time>2019-05-16T12:05:42.906Z</time>
      </trkpt>
      <trkpt lat="38.90995167" lon="-9.026335">
        <ele>25.0</ele>
        <time>2019-05-16T12:05:43.916Z</time>
      </trkpt>
      <trkpt lat="38.91000833" lon="-9.026295">
        <ele>25.0</ele>
        <time>2019-05-16T12:05:44.924Z</time>
      </trkpt>
      <trkpt lat="38.91000833" lon="-9.026295">
        <ele>25.0</ele>
        <time>2019-05-16T12:05:45.908Z</time>
      </trkpt>
      <trkpt lat="38.91006833" lon="-9.026255">
        <ele>25.0</ele>
        <time>2019-05-16T12:05:46.917Z</time>
      </trkpt>
      <trkpt lat="38.91006833" lon="-9.026255">
        <ele>25.0</ele>
        <time>2019-05-16T12:05:47.933Z</time>
      </trkpt>
      <trkpt lat="38.91013" lon="-9.02621833">
        <ele>25.0</ele>
        <time>2019-05-16T12:05:48.909Z</time>
      </trkpt>
      <trkpt lat="38.91013" lon="-9.02621833">
        <ele>25.0</ele>
        <time>2019-05-16T12:05:49.933Z</time>
      </trkpt>
      <trkpt lat="38.91019667" lon="-9.02618">
        <ele>26.0</ele>
        <time>2019-05-16T12:05:50.901Z</time>
      </trkpt>
      <trkpt lat="38.91023167" lon="-9.02616167">
        <ele>26.0</ele>
        <time>2019-05-16T12:05:51.914Z</time>
      </trkpt>
      <trkpt lat="38.91023167" lon="-9.02616167">
        <ele>26.0</ele>
        <time>2019-05-16T12:05:52.911Z</time>
      </trkpt>
      <trkpt lat="38.91030833" lon="-9.02611667">
        <ele>26.0</ele>
        <time>2019-05-16T12:05:53.921Z</time>
      </trkpt>
      <trkpt lat="38.91034833" lon="-9.02609333">
        <ele>26.0</ele>
        <time>2019-05-16T12:05:54.932Z</time>
      </trkpt>
      <trkpt lat="38.91034833" lon="-9.02609333">
        <ele>26.0</ele>
        <time>2019-05-16T12:05:55.910Z</time>
      </trkpt>
      <trkpt lat="38.910435" lon="-9.02604">
        <ele>26.0</ele>
        <time>2019-05-16T12:05:56.898Z</time>
      </trkpt>
      <trkpt lat="38.910435" lon="-9.02604">
        <ele>26.0</ele>
        <time>2019-05-16T12:05:57.903Z</time>
      </trkpt>
      <trkpt lat="38.91053667" lon="-9.02597833">
        <ele>25.0</ele>
        <time>2019-05-16T12:05:58.935Z</time>
      </trkpt>
      <trkpt lat="38.91053667" lon="-9.02597833">
        <ele>25.0</ele>
        <time>2019-05-16T12:05:59.919Z</time>
      </trkpt>
      <trkpt lat="38.910635" lon="-9.02591">
        <ele>24.0</ele>
        <time>2019-05-16T12:06:00.897Z</time>
      </trkpt>
      <trkpt lat="38.910635" lon="-9.02591">
        <ele>24.0</ele>
        <time>2019-05-16T12:06:01.929Z</time>
      </trkpt>
      <trkpt lat="38.91073" lon="-9.025835">
        <ele>24.0</ele>
        <time>2019-05-16T12:06:02.921Z</time>
      </trkpt>
      <trkpt lat="38.91073" lon="-9.025835">
        <ele>24.0</ele>
        <time>2019-05-16T12:06:03.933Z</time>
      </trkpt>
      <trkpt lat="38.910825" lon="-9.02575667">
        <ele>23.0</ele>
        <time>2019-05-16T12:06:04.902Z</time>
      </trkpt>
      <trkpt lat="38.910825" lon="-9.02575667">
        <ele>23.0</ele>
        <time>2019-05-16T12:06:05.933Z</time>
      </trkpt>
      <trkpt lat="38.91092167" lon="-9.025685">
        <ele>23.0</ele>
        <time>2019-05-16T12:06:06.911Z</time>
      </trkpt>
      <trkpt lat="38.91092167" lon="-9.025685">
        <ele>23.0</ele>
        <time>2019-05-16T12:06:07.935Z</time>
      </trkpt>
      <trkpt lat="38.91100833" lon="-9.02561333">
        <ele>24.0</ele>
        <time>2019-05-16T12:06:08.934Z</time>
      </trkpt>
      <trkpt lat="38.91100833" lon="-9.02561333">
        <ele>24.0</ele>
        <time>2019-05-16T12:06:09.933Z</time>
      </trkpt>
      <trkpt lat="38.91109333" lon="-9.02555">
        <ele>24.0</ele>
        <time>2019-05-16T12:06:10.905Z</time>
      </trkpt>
      <trkpt lat="38.91113167" lon="-9.025515">
        <ele>24.0</ele>
        <time>2019-05-16T12:06:11.904Z</time>
      </trkpt>
      <trkpt lat="38.91113167" lon="-9.025515">
        <ele>24.0</ele>
        <time>2019-05-16T12:06:12.909Z</time>
      </trkpt>
      <trkpt lat="38.911205" lon="-9.02544333">
        <ele>24.0</ele>
        <time>2019-05-16T12:06:13.900Z</time>
      </trkpt>
      <trkpt lat="38.91124167" lon="-9.025405">
        <ele>24.0</ele>
        <time>2019-05-16T12:06:14.921Z</time>
      </trkpt>
      <trkpt lat="38.91124167" lon="-9.025405">
        <ele>24.0</ele>
        <time>2019-05-16T12:06:15.936Z</time>
      </trkpt>
      <trkpt lat="38.91131167" lon="-9.02533167">
        <ele>23.0</ele>
        <time>2019-05-16T12:06:16.918Z</time>
      </trkpt>
      <trkpt lat="38.91134667" lon="-9.025295">
        <ele>23.0</ele>
        <time>2019-05-16T12:06:17.919Z</time>
      </trkpt>
      <trkpt lat="38.91138333" lon="-9.02525833">
        <ele>23.0</ele>
        <time>2019-05-16T12:06:18.928Z</time>
      </trkpt>
      <trkpt lat="38.91138333" lon="-9.02525833">
        <ele>23.0</ele>
        <time>2019-05-16T12:06:19.899Z</time>
      </trkpt>
      <trkpt lat="38.91145667" lon="-9.02519167">
        <ele>23.0</ele>
        <time>2019-05-16T12:06:20.925Z</time>
      </trkpt>
      <trkpt lat="38.91149167" lon="-9.02515833">
        <ele>22.0</ele>
        <time>2019-05-16T12:06:21.934Z</time>
      </trkpt>
      <trkpt lat="38.91149167" lon="-9.02515833">
        <ele>22.0</ele>
        <time>2019-05-16T12:06:22.901Z</time>
      </trkpt>
      <trkpt lat="38.911565" lon="-9.02508833">
        <ele>22.0</ele>
        <time>2019-05-16T12:06:23.909Z</time>
      </trkpt>
      <trkpt lat="38.91160167" lon="-9.02505667">
        <ele>22.0</ele>
        <time>2019-05-16T12:06:24.920Z</time>
      </trkpt>
      <trkpt lat="38.91160167" lon="-9.02505667">
        <ele>22.0</ele>
        <time>2019-05-16T12:06:25.921Z</time>
      </trkpt>
      <trkpt lat="38.91167667" lon="-9.02498667">
        <ele>22.0</ele>
        <time>2019-05-16T12:06:26.939Z</time>
      </trkpt>
      <trkpt lat="38.91167667" lon="-9.02498667">
        <ele>22.0</ele>
        <time>2019-05-16T12:06:27.901Z</time>
      </trkpt>
      <trkpt lat="38.91175167" lon="-9.02491833">
        <ele>21.0</ele>
        <time>2019-05-16T12:06:28.903Z</time>
      </trkpt>
      <trkpt lat="38.91179" lon="-9.024885">
        <ele>21.0</ele>
        <time>2019-05-16T12:06:29.903Z</time>
      </trkpt>
      <trkpt lat="38.91182833" lon="-9.02484833">
        <ele>21.0</ele>
        <time>2019-05-16T12:06:30.937Z</time>
      </trkpt>
      <trkpt lat="38.91182833" lon="-9.02484833">
        <ele>21.0</ele>
        <time>2019-05-16T12:06:31.901Z</time>
      </trkpt>
      <trkpt lat="38.91190667" lon="-9.02477667">
        <ele>21.0</ele>
        <time>2019-05-16T12:06:32.910Z</time>
      </trkpt>
      <trkpt lat="38.91190667" lon="-9.02477667">
        <ele>21.0</ele>
        <time>2019-05-16T12:06:33.914Z</time>
      </trkpt>
      <trkpt lat="38.91198333" lon="-9.02470667">
        <ele>20.0</ele>
        <time>2019-05-16T12:06:34.924Z</time>
      </trkpt>
      <trkpt lat="38.91198333" lon="-9.02470667">
        <ele>20.0</ele>
        <time>2019-05-16T12:06:35.932Z</time>
      </trkpt>
      <trkpt lat="38.91206" lon="-9.02463667">
        <ele>20.0</ele>
        <time>2019-05-16T12:06:36.907Z</time>
      </trkpt>
      <trkpt lat="38.91206" lon="-9.02463667">
        <ele>20.0</ele>
        <time>2019-05-16T12:06:37.922Z</time>
      </trkpt>
      <trkpt lat="38.91213833" lon="-9.02456667">
        <ele>19.0</ele>
        <time>2019-05-16T12:06:38.903Z</time>
      </trkpt>
      <trkpt lat="38.91213833" lon="-9.02456667">
        <ele>19.0</ele>
        <time>2019-05-16T12:06:39.916Z</time>
      </trkpt>
      <trkpt lat="38.91221667" lon="-9.02449333">
        <ele>19.0</ele>
        <time>2019-05-16T12:06:40.915Z</time>
      </trkpt>
      <trkpt lat="38.91221667" lon="-9.02449333">
        <ele>19.0</ele>
        <time>2019-05-16T12:06:41.911Z</time>
      </trkpt>
      <trkpt lat="38.9123" lon="-9.02442">
        <ele>18.0</ele>
        <time>2019-05-16T12:06:42.923Z</time>
      </trkpt>
      <trkpt lat="38.9123" lon="-9.02442">
        <ele>18.0</ele>
        <time>2019-05-16T12:06:43.917Z</time>
      </trkpt>
      <trkpt lat="38.91238667" lon="-9.02434333">
        <ele>18.0</ele>
        <time>2019-05-16T12:06:44.925Z</time>
      </trkpt>
      <trkpt lat="38.91238667" lon="-9.02434333">
        <ele>18.0</ele>
        <time>2019-05-16T12:06:45.903Z</time>
      </trkpt>
      <trkpt lat="38.912475" lon="-9.024275">
        <ele>18.0</ele>
        <time>2019-05-16T12:06:46.912Z</time>
      </trkpt>
      <trkpt lat="38.912475" lon="-9.024275">
        <ele>18.0</ele>
        <time>2019-05-16T12:06:47.898Z</time>
      </trkpt>
      <trkpt lat="38.91255833" lon="-9.02421">
        <ele>17.0</ele>
        <time>2019-05-16T12:06:48.929Z</time>
      </trkpt>
      <trkpt lat="38.91255833" lon="-9.02421">
        <ele>17.0</ele>
        <time>2019-05-16T12:06:49.916Z</time>
      </trkpt>
      <trkpt lat="38.91263" lon="-9.02414833">
        <ele>17.0</ele>
        <time>2019-05-16T12:06:50.923Z</time>
      </trkpt>
      <trkpt lat="38.91263" lon="-9.02414833">
        <ele>17.0</ele>
        <time>2019-05-16T12:06:51.915Z</time>
      </trkpt>
      <trkpt lat="38.9127" lon="-9.02408833">
        <ele>17.0</ele>
        <time>2019-05-16T12:06:52.926Z</time>
      </trkpt>
      <trkpt lat="38.9127" lon="-9.02408833">
        <ele>17.0</ele>
        <time>2019-05-16T12:06:53.911Z</time>
      </trkpt>
      <trkpt lat="38.91276833" lon="-9.02403">
        <ele>17.0</ele>
        <time>2019-05-16T12:06:54.923Z</time>
      </trkpt>
      <trkpt lat="38.91276833" lon="-9.02403">
        <ele>17.0</ele>
        <time>2019-05-16T12:06:55.897Z</time>
      </trkpt>
      <trkpt lat="38.91282667" lon="-9.02397333">
        <ele>17.0</ele>
        <time>2019-05-16T12:06:56.904Z</time>
      </trkpt>
      <trkpt lat="38.91282667" lon="-9.02397333">
        <ele>17.0</ele>
        <time>2019-05-16T12:06:57.902Z</time>
      </trkpt>
      <trkpt lat="38.91288167" lon="-9.02391833">
        <ele>17.0</ele>
        <time>2019-05-16T12:06:58.936Z</time>
      </trkpt>
      <trkpt lat="38.91288167" lon="-9.02391833">
        <ele>17.0</ele>
        <time>2019-05-16T12:06:59.900Z</time>
      </trkpt>
      <trkpt lat="38.91294" lon="-9.02386667">
        <ele>17.0</ele>
        <time>2019-05-16T12:07:00.912Z</time>
      </trkpt>
      <trkpt lat="38.91294" lon="-9.02386667">
        <ele>17.0</ele>
        <time>2019-05-16T12:07:01.924Z</time>
      </trkpt>
      <trkpt lat="38.91300167" lon="-9.02380833">
        <ele>17.0</ele>
        <time>2019-05-16T12:07:02.933Z</time>
      </trkpt>
      <trkpt lat="38.91303333" lon="-9.02377667">
        <ele>17.0</ele>
        <time>2019-05-16T12:07:03.930Z</time>
      </trkpt>
      <trkpt lat="38.91303333" lon="-9.02377667">
        <ele>17.0</ele>
        <time>2019-05-16T12:07:04.921Z</time>
      </trkpt>
      <trkpt lat="38.91309333" lon="-9.023715">
        <ele>17.0</ele>
        <time>2019-05-16T12:07:05.932Z</time>
      </trkpt>
      <trkpt lat="38.913125" lon="-9.02368333">
        <ele>17.0</ele>
        <time>2019-05-16T12:07:06.912Z</time>
      </trkpt>
      <trkpt lat="38.913125" lon="-9.02368333">
        <ele>17.0</ele>
        <time>2019-05-16T12:07:07.921Z</time>
      </trkpt>
      <trkpt lat="38.91318667" lon="-9.02362">
        <ele>16.0</ele>
        <time>2019-05-16T12:07:08.937Z</time>
      </trkpt>
      <trkpt lat="38.91318667" lon="-9.02362">
        <ele>16.0</ele>
        <time>2019-05-16T12:07:09.933Z</time>
      </trkpt>
      <trkpt lat="38.91325333" lon="-9.02355667">
        <ele>16.0</ele>
        <time>2019-05-16T12:07:10.901Z</time>
      </trkpt>
      <trkpt lat="38.91328667" lon="-9.02352333">
        <ele>16.0</ele>
        <time>2019-05-16T12:07:11.901Z</time>
      </trkpt>
      <trkpt lat="38.91332" lon="-9.02348833">
        <ele>16.0</ele>
        <time>2019-05-16T12:07:12.916Z</time>
      </trkpt>
      <trkpt lat="38.91332" lon="-9.02348833">
        <ele>16.0</ele>
        <time>2019-05-16T12:07:13.921Z</time>
      </trkpt>
      <trkpt lat="38.913385" lon="-9.02342">
        <ele>16.0</ele>
        <time>2019-05-16T12:07:14.933Z</time>
      </trkpt>
      <trkpt lat="38.913385" lon="-9.02342">
        <ele>16.0</ele>
        <time>2019-05-16T12:07:15.935Z</time>
      </trkpt>
      <trkpt lat="38.91344333" lon="-9.02335333">
        <ele>16.0</ele>
        <time>2019-05-16T12:07:16.915Z</time>
      </trkpt>
      <trkpt lat="38.91347167" lon="-9.02331833">
        <ele>16.0</ele>
        <time>2019-05-16T12:07:17.916Z</time>
      </trkpt>
      <trkpt lat="38.91349833" lon="-9.02328">
        <ele>16.0</ele>
        <time>2019-05-16T12:07:18.929Z</time>
      </trkpt>
      <trkpt lat="38.91349833" lon="-9.02328">
        <ele>16.0</ele>
        <time>2019-05-16T12:07:19.907Z</time>
      </trkpt>
      <trkpt lat="38.913555" lon="-9.02320333">
        <ele>16.0</ele>
        <time>2019-05-16T12:07:20.906Z</time>
      </trkpt>
      <trkpt lat="38.913555" lon="-9.02320333">
        <ele>16.0</ele>
        <time>2019-05-16T12:07:21.910Z</time>
      </trkpt>
      <trkpt lat="38.91362" lon="-9.02312333">
        <ele>16.0</ele>
        <time>2019-05-16T12:07:22.915Z</time>
      </trkpt>
      <trkpt lat="38.91362" lon="-9.02312333">
        <ele>16.0</ele>
        <time>2019-05-16T12:07:23.932Z</time>
      </trkpt>
      <trkpt lat="38.913705" lon="-9.02305333">
        <ele>16.0</ele>
        <time>2019-05-16T12:07:24.900Z</time>
      </trkpt>
      <trkpt lat="38.913705" lon="-9.02305333">
        <ele>16.0</ele>
        <time>2019-05-16T12:07:25.933Z</time>
      </trkpt>
      <trkpt lat="38.91376667" lon="-9.02297">
        <ele>16.0</ele>
        <time>2019-05-16T12:07:26.901Z</time>
      </trkpt>
      <trkpt lat="38.91376667" lon="-9.02297">
        <ele>16.0</ele>
        <time>2019-05-16T12:07:27.936Z</time>
      </trkpt>
      <trkpt lat="38.91382667" lon="-9.02288833">
        <ele>16.0</ele>
        <time>2019-05-16T12:07:28.902Z</time>
      </trkpt>
      <trkpt lat="38.913855" lon="-9.022845">
        <ele>16.0</ele>
        <time>2019-05-16T12:07:29.938Z</time>
      </trkpt>
      <trkpt lat="38.91388167" lon="-9.02280167">
        <ele>16.0</ele>
        <time>2019-05-16T12:07:30.923Z</time>
      </trkpt>
      <trkpt lat="38.91388167" lon="-9.02280167">
        <ele>16.0</ele>
        <time>2019-05-16T12:07:31.902Z</time>
      </trkpt>
      <trkpt lat="38.91393667" lon="-9.02271333">
        <ele>16.0</ele>
        <time>2019-05-16T12:07:32.909Z</time>
      </trkpt>
      <trkpt lat="38.91396333" lon="-9.022665">
        <ele>16.0</ele>
        <time>2019-05-16T12:07:33.909Z</time>
      </trkpt>
      <trkpt lat="38.91396333" lon="-9.022665">
        <ele>16.0</ele>
        <time>2019-05-16T12:07:34.921Z</time>
      </trkpt>
      <trkpt lat="38.91401833" lon="-9.02256667">
        <ele>16.0</ele>
        <time>2019-05-16T12:07:35.931Z</time>
      </trkpt>
      <trkpt lat="38.914045" lon="-9.02251667">
        <ele>16.0</ele>
        <time>2019-05-16T12:07:36.933Z</time>
      </trkpt>
      <trkpt lat="38.914045" lon="-9.02251667">
        <ele>16.0</ele>
        <time>2019-05-16T12:07:37.922Z</time>
      </trkpt>
      <trkpt lat="38.914095" lon="-9.02241833">
        <ele>16.0</ele>
        <time>2019-05-16T12:07:38.932Z</time>
      </trkpt>
      <trkpt lat="38.914095" lon="-9.02241833">
        <ele>16.0</ele>
        <time>2019-05-16T12:07:39.925Z</time>
      </trkpt>
      <trkpt lat="38.91414167" lon="-9.02231">
        <ele>16.0</ele>
        <time>2019-05-16T12:07:40.898Z</time>
      </trkpt>
      <trkpt lat="38.91414167" lon="-9.02231">
        <ele>16.0</ele>
        <time>2019-05-16T12:07:41.935Z</time>
      </trkpt>
      <trkpt lat="38.91419333" lon="-9.0222">
        <ele>16.0</ele>
        <time>2019-05-16T12:07:42.910Z</time>
      </trkpt>
      <trkpt lat="38.91419333" lon="-9.0222">
        <ele>16.0</ele>
        <time>2019-05-16T12:07:43.915Z</time>
      </trkpt>
      <trkpt lat="38.91425167" lon="-9.02209167">
        <ele>16.0</ele>
        <time>2019-05-16T12:07:44.922Z</time>
      </trkpt>
      <trkpt lat="38.91425167" lon="-9.02209167">
        <ele>16.0</ele>
        <time>2019-05-16T12:07:45.933Z</time>
      </trkpt>
      <trkpt lat="38.91431667" lon="-9.02197833">
        <ele>15.0</ele>
        <time>2019-05-16T12:07:46.901Z</time>
      </trkpt>
      <trkpt lat="38.91431667" lon="-9.02197833">
        <ele>15.0</ele>
        <time>2019-05-16T12:07:47.935Z</time>
      </trkpt>
      <trkpt lat="38.91438833" lon="-9.02185833">
        <ele>14.0</ele>
        <time>2019-05-16T12:07:48.906Z</time>
      </trkpt>
      <trkpt lat="38.91442667" lon="-9.021795">
        <ele>14.0</ele>
        <time>2019-05-16T12:07:49.920Z</time>
      </trkpt>
      <trkpt lat="38.91442667" lon="-9.021795">
        <ele>14.0</ele>
        <time>2019-05-16T12:07:50.933Z</time>
      </trkpt>
      <trkpt lat="38.91452" lon="-9.02167833">
        <ele>13.0</ele>
        <time>2019-05-16T12:07:51.901Z</time>
      </trkpt>
      <trkpt lat="38.91452" lon="-9.02167833">
        <ele>13.0</ele>
        <time>2019-05-16T12:07:52.936Z</time>
      </trkpt>
      <trkpt lat="38.91461" lon="-9.02158167">
        <ele>12.0</ele>
        <time>2019-05-16T12:07:53.914Z</time>
      </trkpt>
      <trkpt lat="38.91466" lon="-9.02153333">
        <ele>12.0</ele>
        <time>2019-05-16T12:07:54.898Z</time>
      </trkpt>
      <trkpt lat="38.91466" lon="-9.02153333">
        <ele>12.0</ele>
        <time>2019-05-16T12:07:55.901Z</time>
      </trkpt>
      <trkpt lat="38.91476333" lon="-9.02144833">
        <ele>11.0</ele>
        <time>2019-05-16T12:07:56.913Z</time>
      </trkpt>
      <trkpt lat="38.91476333" lon="-9.02144833">
        <ele>11.0</ele>
        <time>2019-05-16T12:07:57.897Z</time>
      </trkpt>
      <trkpt lat="38.91486667" lon="-9.02138">
        <ele>11.0</ele>
        <time>2019-05-16T12:07:58.928Z</time>
      </trkpt>
      <trkpt lat="38.91486667" lon="-9.02138">
        <ele>11.0</ele>
        <time>2019-05-16T12:07:59.910Z</time>
      </trkpt>
      <trkpt lat="38.91496833" lon="-9.02131">
        <ele>11.0</ele>
        <time>2019-05-16T12:08:00.922Z</time>
      </trkpt>
      <trkpt lat="38.91496833" lon="-9.02131">
        <ele>11.0</ele>
        <time>2019-05-16T12:08:01.933Z</time>
      </trkpt>
      <trkpt lat="38.91507333" lon="-9.02125333">
        <ele>10.0</ele>
        <time>2019-05-16T12:08:02.908Z</time>
      </trkpt>
      <trkpt lat="38.91507333" lon="-9.02125333">
        <ele>10.0</ele>
        <time>2019-05-16T12:08:03.906Z</time>
      </trkpt>
      <trkpt lat="38.91517833" lon="-9.02122">
        <ele>10.0</ele>
        <time>2019-05-16T12:08:04.919Z</time>
      </trkpt>
      <trkpt lat="38.91517833" lon="-9.02122">
        <ele>10.0</ele>
        <time>2019-05-16T12:08:05.914Z</time>
      </trkpt>
      <trkpt lat="38.91527167" lon="-9.021185">
        <ele>10.0</ele>
        <time>2019-05-16T12:08:06.922Z</time>
      </trkpt>
      <trkpt lat="38.91527167" lon="-9.021185">
        <ele>10.0</ele>
        <time>2019-05-16T12:08:07.918Z</time>
      </trkpt>
      <trkpt lat="38.91536667" lon="-9.02116333">
        <ele>10.0</ele>
        <time>2019-05-16T12:08:08.935Z</time>
      </trkpt>
      <trkpt lat="38.91540667" lon="-9.02115167">
        <ele>11.0</ele>
        <time>2019-05-16T12:08:09.921Z</time>
      </trkpt>
      <trkpt lat="38.91540667" lon="-9.02115167">
        <ele>11.0</ele>
        <time>2019-05-16T12:08:10.918Z</time>
      </trkpt>
      <trkpt lat="38.91548833" lon="-9.02112667">
        <ele>11.0</ele>
        <time>2019-05-16T12:08:11.904Z</time>
      </trkpt>
      <trkpt lat="38.91553" lon="-9.02111333">
        <ele>11.0</ele>
        <time>2019-05-16T12:08:12.918Z</time>
      </trkpt>
      <trkpt lat="38.91553" lon="-9.02111333">
        <ele>11.0</ele>
        <time>2019-05-16T12:08:13.914Z</time>
      </trkpt>
      <trkpt lat="38.91561" lon="-9.021085">
        <ele>11.0</ele>
        <time>2019-05-16T12:08:14.905Z</time>
      </trkpt>
      <trkpt lat="38.91561" lon="-9.021085">
        <ele>11.0</ele>
        <time>2019-05-16T12:08:15.923Z</time>
      </trkpt>
      <trkpt lat="38.91569333" lon="-9.02105667">
        <ele>11.0</ele>
        <time>2019-05-16T12:08:16.934Z</time>
      </trkpt>
      <trkpt lat="38.91573833" lon="-9.02104333">
        <ele>11.0</ele>
        <time>2019-05-16T12:08:17.899Z</time>
      </trkpt>
      <trkpt lat="38.91578" lon="-9.02103">
        <ele>12.0</ele>
        <time>2019-05-16T12:08:18.915Z</time>
      </trkpt>
      <trkpt lat="38.91578" lon="-9.02103">
        <ele>12.0</ele>
        <time>2019-05-16T12:08:19.912Z</time>
      </trkpt>
      <trkpt lat="38.915865" lon="-9.021">
        <ele>12.0</ele>
        <time>2019-05-16T12:08:20.900Z</time>
      </trkpt>
      <trkpt lat="38.91591" lon="-9.02098333">
        <ele>12.0</ele>
        <time>2019-05-16T12:08:21.915Z</time>
      </trkpt>
      <trkpt lat="38.91591" lon="-9.02098333">
        <ele>12.0</ele>
        <time>2019-05-16T12:08:22.900Z</time>
      </trkpt>
      <trkpt lat="38.915985" lon="-9.02096333">
        <ele>12.0</ele>
        <time>2019-05-16T12:08:23.907Z</time>
      </trkpt>
      <trkpt lat="38.91600833" lon="-9.020955">
        <ele>12.0</ele>
        <time>2019-05-16T12:08:24.903Z</time>
      </trkpt>
      <trkpt lat="38.91600833" lon="-9.020955">
        <ele>12.0</ele>
        <time>2019-05-16T12:08:25.902Z</time>
      </trkpt>
      <trkpt lat="38.916045" lon="-9.02094">
        <ele>13.0</ele>
        <time>2019-05-16T12:08:26.913Z</time>
      </trkpt>
      <trkpt lat="38.916045" lon="-9.02094">
        <ele>13.0</ele>
        <time>2019-05-16T12:08:27.898Z</time>
      </trkpt>
      <trkpt lat="38.91607333" lon="-9.02092167">
        <ele>11.0</ele>
        <time>2019-05-16T12:08:28.933Z</time>
      </trkpt>
      <trkpt lat="38.91607333" lon="-9.02092167">
        <ele>11.0</ele>
        <time>2019-05-16T12:08:29.926Z</time>
      </trkpt>
      <trkpt lat="38.91608667" lon="-9.02091667">
        <ele>11.0</ele>
        <time>2019-05-16T12:08:30.899Z</time>
      </trkpt>
      <trkpt lat="38.91608667" lon="-9.02091667">
        <ele>11.0</ele>
        <time>2019-05-16T12:08:31.926Z</time>
      </trkpt>
      <trkpt lat="38.91608833" lon="-9.02091667">
        <ele>11.0</ele>
        <time>2019-05-16T12:08:32.935Z</time>
      </trkpt>
      <trkpt lat="38.91608833" lon="-9.02091667">
        <ele>11.0</ele>
        <time>2019-05-16T12:08:33.905Z</time>
      </trkpt>
      <trkpt lat="38.91608667" lon="-9.02091833">
        <ele>11.0</ele>
        <time>2019-05-16T12:08:34.911Z</time>
      </trkpt>
      <trkpt lat="38.91608667" lon="-9.02091833">
        <ele>11.0</ele>
        <time>2019-05-16T12:08:35.917Z</time>
      </trkpt>
      <trkpt lat="38.91608667" lon="-9.02091833">
        <ele>11.0</ele>
        <time>2019-05-16T12:08:36.924Z</time>
      </trkpt>
      <trkpt lat="38.91608667" lon="-9.02091833">
        <ele>11.0</ele>
        <time>2019-05-16T12:08:37.940Z</time>
      </trkpt>
      <trkpt lat="38.91608667" lon="-9.02091833">
        <ele>11.0</ele>
        <time>2019-05-16T12:08:38.925Z</time>
      </trkpt>
      <trkpt lat="38.91608667" lon="-9.02091833">
        <ele>11.0</ele>
        <time>2019-05-16T12:08:39.909Z</time>
      </trkpt>
      <trkpt lat="38.91608667" lon="-9.02091833">
        <ele>11.0</ele>
        <time>2019-05-16T12:08:40.906Z</time>
      </trkpt>
      <trkpt lat="38.91608667" lon="-9.02091833">
        <ele>11.0</ele>
        <time>2019-05-16T12:08:41.897Z</time>
      </trkpt>
      <trkpt lat="38.91608667" lon="-9.02091833">
        <ele>11.0</ele>
        <time>2019-05-16T12:08:42.923Z</time>
      </trkpt>
      <trkpt lat="38.91608667" lon="-9.02091833">
        <ele>11.0</ele>
        <time>2019-05-16T12:08:43.911Z</time>
      </trkpt>
      <trkpt lat="38.91608667" lon="-9.02091833">
        <ele>11.0</ele>
        <time>2019-05-16T12:08:44.906Z</time>
      </trkpt>
      <trkpt lat="38.91608667" lon="-9.02091833">
        <ele>11.0</ele>
        <time>2019-05-16T12:08:45.901Z</time>
      </trkpt>
      <trkpt lat="38.91608667" lon="-9.02091833">
        <ele>11.0</ele>
        <time>2019-05-16T12:08:46.906Z</time>
      </trkpt>
      <trkpt lat="38.91608667" lon="-9.02091833">
        <ele>11.0</ele>
        <time>2019-05-16T12:08:47.904Z</time>
      </trkpt>
      <trkpt lat="38.91608667" lon="-9.02091833">
        <ele>11.0</ele>
        <time>2019-05-16T12:08:48.923Z</time>
      </trkpt>
      <trkpt lat="38.91608667" lon="-9.02091833">
        <ele>11.0</ele>
        <time>2019-05-16T12:08:49.909Z</time>
      </trkpt>
      <trkpt lat="38.91608667" lon="-9.02091833">
        <ele>11.0</ele>
        <time>2019-05-16T12:08:50.906Z</time>
      </trkpt>
      <trkpt lat="38.91608667" lon="-9.02091833">
        <ele>11.0</ele>
        <time>2019-05-16T12:08:51.901Z</time>
      </trkpt>
      <trkpt lat="38.91608667" lon="-9.02091833">
        <ele>11.0</ele>
        <time>2019-05-16T12:08:52.903Z</time>
      </trkpt>
      <trkpt lat="38.91608667" lon="-9.02091833">
        <ele>11.0</ele>
        <time>2019-05-16T12:08:53.903Z</time>
      </trkpt>
      <trkpt lat="38.91608667" lon="-9.02091833">
        <ele>11.0</ele>
        <time>2019-05-16T12:08:54.908Z</time>
      </trkpt>
      <trkpt lat="38.91608667" lon="-9.02091833">
        <ele>11.0</ele>
        <time>2019-05-16T12:08:55.902Z</time>
      </trkpt>
      <trkpt lat="38.91608667" lon="-9.02091833">
        <ele>11.0</ele>
        <time>2019-05-16T12:08:56.906Z</time>
      </trkpt>
      <trkpt lat="38.91608667" lon="-9.02091833">
        <ele>11.0</ele>
        <time>2019-05-16T12:08:57.910Z</time>
      </trkpt>
      <trkpt lat="38.91608667" lon="-9.02091833">
        <ele>11.0</ele>
        <time>2019-05-16T12:08:58.912Z</time>
      </trkpt>
      <trkpt lat="38.91608667" lon="-9.02091833">
        <ele>11.0</ele>
        <time>2019-05-16T12:08:59.903Z</time>
      </trkpt>
      <trkpt lat="38.91608667" lon="-9.02091833">
        <ele>11.0</ele>
        <time>2019-05-16T12:09:00.908Z</time>
      </trkpt>
      <trkpt lat="38.91608667" lon="-9.02091833">
        <ele>11.0</ele>
        <time>2019-05-16T12:09:01.901Z</time>
      </trkpt>
      <trkpt lat="38.91608667" lon="-9.02091833">
        <ele>11.0</ele>
        <time>2019-05-16T12:09:02.906Z</time>
      </trkpt>
      <trkpt lat="38.91608667" lon="-9.02091833">
        <ele>11.0</ele>
        <time>2019-05-16T12:09:03.907Z</time>
      </trkpt>
      <trkpt lat="38.91608667" lon="-9.02091833">
        <ele>11.0</ele>
        <time>2019-05-16T12:09:04.901Z</time>
      </trkpt>
      <trkpt lat="38.91608667" lon="-9.02091833">
        <ele>11.0</ele>
        <time>2019-05-16T12:09:05.912Z</time>
      </trkpt>
      <trkpt lat="38.91608667" lon="-9.02091833">
        <ele>11.0</ele>
        <time>2019-05-16T12:09:06.908Z</time>
      </trkpt>
      <trkpt lat="38.91608667" lon="-9.02091833">
        <ele>11.0</ele>
        <time>2019-05-16T12:09:07.910Z</time>
      </trkpt>
      <trkpt lat="38.91608667" lon="-9.02091833">
        <ele>11.0</ele>
        <time>2019-05-16T12:09:08.912Z</time>
      </trkpt>
      <trkpt lat="38.91608667" lon="-9.02091833">
        <ele>11.0</ele>
        <time>2019-05-16T12:09:09.901Z</time>
      </trkpt>
      <trkpt lat="38.91608667" lon="-9.02091833">
        <ele>11.0</ele>
        <time>2019-05-16T12:09:10.906Z</time>
      </trkpt>
      <trkpt lat="38.91608667" lon="-9.02091833">
        <ele>11.0</ele>
        <time>2019-05-16T12:09:11.902Z</time>
      </trkpt>
      <trkpt lat="38.91608667" lon="-9.02091833">
        <ele>11.0</ele>
        <time>2019-05-16T12:09:12.908Z</time>
      </trkpt>
      <trkpt lat="38.91608667" lon="-9.02091833">
        <ele>11.0</ele>
        <time>2019-05-16T12:09:13.901Z</time>
      </trkpt>
      <trkpt lat="38.91608667" lon="-9.02091833">
        <ele>11.0</ele>
        <time>2019-05-16T12:09:14.906Z</time>
      </trkpt>
      <trkpt lat="38.91608667" lon="-9.02091833">
        <ele>11.0</ele>
        <time>2019-05-16T12:09:15.901Z</time>
      </trkpt>
      <trkpt lat="38.91608667" lon="-9.02091833">
        <ele>11.0</ele>
        <time>2019-05-16T12:09:16.906Z</time>
      </trkpt>
      <trkpt lat="38.91608667" lon="-9.02091833">
        <ele>11.0</ele>
        <time>2019-05-16T12:09:17.910Z</time>
      </trkpt>
      <trkpt lat="38.91608667" lon="-9.02091833">
        <ele>11.0</ele>
        <time>2019-05-16T12:09:18.922Z</time>
      </trkpt>
      <trkpt lat="38.91608667" lon="-9.02091833">
        <ele>11.0</ele>
        <time>2019-05-16T12:09:19.920Z</time>
      </trkpt>
      <trkpt lat="38.91608667" lon="-9.02091833">
        <ele>11.0</ele>
        <time>2019-05-16T12:09:20.923Z</time>
      </trkpt>
      <trkpt lat="38.91608667" lon="-9.02091833">
        <ele>11.0</ele>
        <time>2019-05-16T12:09:21.936Z</time>
      </trkpt>
      <trkpt lat="38.91608667" lon="-9.02091833">
        <ele>11.0</ele>
        <time>2019-05-16T12:09:22.902Z</time>
      </trkpt>
      <trkpt lat="38.91608667" lon="-9.02091833">
        <ele>11.0</ele>
        <time>2019-05-16T12:09:23.908Z</time>
      </trkpt>
      <trkpt lat="38.91608667" lon="-9.02091833">
        <ele>11.0</ele>
        <time>2019-05-16T12:09:24.914Z</time>
      </trkpt>
      <trkpt lat="38.91608667" lon="-9.02091833">
        <ele>11.0</ele>
        <time>2019-05-16T12:09:25.930Z</time>
      </trkpt>
      <trkpt lat="38.91608667" lon="-9.02091833">
        <ele>11.0</ele>
        <time>2019-05-16T12:09:26.912Z</time>
      </trkpt>
      <trkpt lat="38.91608667" lon="-9.02091833">
        <ele>11.0</ele>
        <time>2019-05-16T12:09:27.922Z</time>
      </trkpt>
      <trkpt lat="38.91608667" lon="-9.02091833">
        <ele>11.0</ele>
        <time>2019-05-16T12:09:28.906Z</time>
      </trkpt>
      <trkpt lat="38.91608667" lon="-9.02091833">
        <ele>11.0</ele>
        <time>2019-05-16T12:09:29.904Z</time>
      </trkpt>
      <trkpt lat="38.91608667" lon="-9.02091833">
        <ele>11.0</ele>
        <time>2019-05-16T12:09:30.908Z</time>
      </trkpt>
      <trkpt lat="38.91608667" lon="-9.02091833">
        <ele>11.0</ele>
        <time>2019-05-16T12:09:31.901Z</time>
      </trkpt>
      <trkpt lat="38.91608667" lon="-9.02091833">
        <ele>11.0</ele>
        <time>2019-05-16T12:09:32.906Z</time>
      </trkpt>
      <trkpt lat="38.91608667" lon="-9.02091833">
        <ele>11.0</ele>
        <time>2019-05-16T12:09:33.901Z</time>
      </trkpt>
      <trkpt lat="38.91608667" lon="-9.02091833">
        <ele>11.0</ele>
        <time>2019-05-16T12:09:34.906Z</time>
      </trkpt>
      <trkpt lat="38.91608667" lon="-9.02091833">
        <ele>11.0</ele>
        <time>2019-05-16T12:09:35.901Z</time>
      </trkpt>
      <trkpt lat="38.91608667" lon="-9.02091833">
        <ele>11.0</ele>
        <time>2019-05-16T12:09:36.908Z</time>
      </trkpt>
      <trkpt lat="38.91608667" lon="-9.02091833">
        <ele>11.0</ele>
        <time>2019-05-16T12:09:37.910Z</time>
      </trkpt>
      <trkpt lat="38.91608667" lon="-9.02091833">
        <ele>11.0</ele>
        <time>2019-05-16T12:09:38.912Z</time>
      </trkpt>
      <trkpt lat="38.91608667" lon="-9.02091833">
        <ele>11.0</ele>
        <time>2019-05-16T12:09:39.901Z</time>
      </trkpt>
      <trkpt lat="38.91608667" lon="-9.02091833">
        <ele>11.0</ele>
        <time>2019-05-16T12:09:40.905Z</time>
      </trkpt>
      <trkpt lat="38.91608667" lon="-9.02091833">
        <ele>11.0</ele>
        <time>2019-05-16T12:09:41.901Z</time>
      </trkpt>
      <trkpt lat="38.91608667" lon="-9.02091833">
        <ele>11.0</ele>
        <time>2019-05-16T12:09:42.905Z</time>
      </trkpt>
      <trkpt lat="38.91608667" lon="-9.02091833">
        <ele>11.0</ele>
        <time>2019-05-16T12:09:43.901Z</time>
      </trkpt>
      <trkpt lat="38.91608667" lon="-9.02091833">
        <ele>11.0</ele>
        <time>2019-05-16T12:09:44.906Z</time>
      </trkpt>
      <trkpt lat="38.91608667" lon="-9.02091833">
        <ele>11.0</ele>
        <time>2019-05-16T12:09:45.901Z</time>
      </trkpt>
      <trkpt lat="38.91608667" lon="-9.02091833">
        <ele>11.0</ele>
        <time>2019-05-16T12:09:46.906Z</time>
      </trkpt>
      <trkpt lat="38.91608667" lon="-9.02091833">
        <ele>11.0</ele>
        <time>2019-05-16T12:09:47.910Z</time>
      </trkpt>
      <trkpt lat="38.91608667" lon="-9.02091833">
        <ele>11.0</ele>
        <time>2019-05-16T12:09:48.910Z</time>
      </trkpt>
      <trkpt lat="38.91608667" lon="-9.02091833">
        <ele>11.0</ele>
        <time>2019-05-16T12:09:49.906Z</time>
      </trkpt>
      <trkpt lat="38.91608667" lon="-9.02091833">
        <ele>11.0</ele>
        <time>2019-05-16T12:09:50.901Z</time>
      </trkpt>
      <trkpt lat="38.91608667" lon="-9.02091833">
        <ele>11.0</ele>
        <time>2019-05-16T12:09:51.906Z</time>
      </trkpt>
      <trkpt lat="38.91608667" lon="-9.02091833">
        <ele>11.0</ele>
        <time>2019-05-16T12:09:52.901Z</time>
      </trkpt>
      <trkpt lat="38.91608667" lon="-9.02091833">
        <ele>11.0</ele>
        <time>2019-05-16T12:09:53.906Z</time>
      </trkpt>
      <trkpt lat="38.91608667" lon="-9.02091833">
        <ele>11.0</ele>
        <time>2019-05-16T12:09:54.922Z</time>
      </trkpt>
      <trkpt lat="38.91608667" lon="-9.02091833">
        <ele>11.0</ele>
        <time>2019-05-16T12:09:55.901Z</time>
      </trkpt>
      <trkpt lat="38.91608667" lon="-9.02091833">
        <ele>11.0</ele>
        <time>2019-05-16T12:09:56.905Z</time>
      </trkpt>
      <trkpt lat="38.91608667" lon="-9.02091833">
        <ele>11.0</ele>
        <time>2019-05-16T12:09:57.907Z</time>
      </trkpt>
      <trkpt lat="38.91608667" lon="-9.02091833">
        <ele>11.0</ele>
        <time>2019-05-16T12:09:58.912Z</time>
      </trkpt>
      <trkpt lat="38.91608667" lon="-9.02091833">
        <ele>11.0</ele>
        <time>2019-05-16T12:09:59.901Z</time>
      </trkpt>
      <trkpt lat="38.91608667" lon="-9.02091833">
        <ele>11.0</ele>
        <time>2019-05-16T12:10:00.908Z</time>
      </trkpt>
      <trkpt lat="38.91608667" lon="-9.02091833">
        <ele>11.0</ele>
        <time>2019-05-16T12:10:01.901Z</time>
      </trkpt>
      <trkpt lat="38.91608667" lon="-9.02091833">
        <ele>11.0</ele>
        <time>2019-05-16T12:10:02.906Z</time>
      </trkpt>
      <trkpt lat="38.91608667" lon="-9.02091833">
        <ele>11.0</ele>
        <time>2019-05-16T12:10:03.902Z</time>
      </trkpt>
      <trkpt lat="38.916105" lon="-9.02093333">
        <ele>9.0</ele>
        <time>2019-05-16T12:10:04.906Z</time>
      </trkpt>
      <trkpt lat="38.916105" lon="-9.02093333">
        <ele>9.0</ele>
        <time>2019-05-16T12:10:05.901Z</time>
      </trkpt>
      <trkpt lat="38.91614333" lon="-9.02091833">
        <ele>9.0</ele>
        <time>2019-05-16T12:10:06.916Z</time>
      </trkpt>
      <trkpt lat="38.91614333" lon="-9.02091833">
        <ele>9.0</ele>
        <time>2019-05-16T12:10:07.910Z</time>
      </trkpt>
      <trkpt lat="38.91618833" lon="-9.020905">
        <ele>8.0</ele>
        <time>2019-05-16T12:10:08.908Z</time>
      </trkpt>
      <trkpt lat="38.91618833" lon="-9.020905">
        <ele>8.0</ele>
        <time>2019-05-16T12:10:09.906Z</time>
      </trkpt>
      <trkpt lat="38.91624333" lon="-9.02088">
        <ele>8.0</ele>
        <time>2019-05-16T12:10:10.912Z</time>
      </trkpt>
      <trkpt lat="38.91624333" lon="-9.02088">
        <ele>8.0</ele>
        <time>2019-05-16T12:10:11.902Z</time>
      </trkpt>
      <trkpt lat="38.916315" lon="-9.02085">
        <ele>8.0</ele>
        <time>2019-05-16T12:10:12.979Z</time>
      </trkpt>
      <trkpt lat="38.916315" lon="-9.02085">
        <ele>8.0</ele>
        <time>2019-05-16T12:10:13.901Z</time>
      </trkpt>
      <trkpt lat="38.9164" lon="-9.02081167">
        <ele>8.0</ele>
        <time>2019-05-16T12:10:14.908Z</time>
      </trkpt>
      <trkpt lat="38.9164" lon="-9.02081167">
        <ele>8.0</ele>
        <time>2019-05-16T12:10:15.900Z</time>
      </trkpt>
      <trkpt lat="38.91649167" lon="-9.02077">
        <ele>8.0</ele>
        <time>2019-05-16T12:10:16.910Z</time>
      </trkpt>
      <trkpt lat="38.91649167" lon="-9.02077">
        <ele>8.0</ele>
        <time>2019-05-16T12:10:17.909Z</time>
      </trkpt>
      <trkpt lat="38.916585" lon="-9.02072333">
        <ele>8.0</ele>
        <time>2019-05-16T12:10:18.933Z</time>
      </trkpt>
      <trkpt lat="38.916585" lon="-9.02072333">
        <ele>8.0</ele>
        <time>2019-05-16T12:10:19.916Z</time>
      </trkpt>
      <trkpt lat="38.91667667" lon="-9.02067">
        <ele>7.0</ele>
        <time>2019-05-16T12:10:20.898Z</time>
      </trkpt>
      <trkpt lat="38.91667667" lon="-9.02067">
        <ele>7.0</ele>
        <time>2019-05-16T12:10:21.934Z</time>
      </trkpt>
      <trkpt lat="38.91676667" lon="-9.02061">
        <ele>7.0</ele>
        <time>2019-05-16T12:10:22.904Z</time>
      </trkpt>
      <trkpt lat="38.91676667" lon="-9.02061">
        <ele>7.0</ele>
        <time>2019-05-16T12:10:23.936Z</time>
      </trkpt>
      <trkpt lat="38.916855" lon="-9.02055">
        <ele>7.0</ele>
        <time>2019-05-16T12:10:24.916Z</time>
      </trkpt>
      <trkpt lat="38.916855" lon="-9.02055">
        <ele>7.0</ele>
        <time>2019-05-16T12:10:25.908Z</time>
      </trkpt>
      <trkpt lat="38.91694333" lon="-9.02048167">
        <ele>7.0</ele>
        <time>2019-05-16T12:10:26.920Z</time>
      </trkpt>
      <trkpt lat="38.91694333" lon="-9.02048167">
        <ele>7.0</ele>
        <time>2019-05-16T12:10:27.931Z</time>
      </trkpt>
      <trkpt lat="38.91702333" lon="-9.02041167">
        <ele>7.0</ele>
        <time>2019-05-16T12:10:28.900Z</time>
      </trkpt>
      <trkpt lat="38.91705833" lon="-9.02038">
        <ele>7.0</ele>
        <time>2019-05-16T12:10:29.922Z</time>
      </trkpt>
      <trkpt lat="38.91709667" lon="-9.02034667">
        <ele>7.0</ele>
        <time>2019-05-16T12:10:30.921Z</time>
      </trkpt>
      <trkpt lat="38.91709667" lon="-9.02034667">
        <ele>7.0</ele>
        <time>2019-05-16T12:10:31.918Z</time>
      </trkpt>
      <trkpt lat="38.917175" lon="-9.02028167">
        <ele>7.0</ele>
        <time>2019-05-16T12:10:32.930Z</time>
      </trkpt>
      <trkpt lat="38.917175" lon="-9.02028167">
        <ele>7.0</ele>
        <time>2019-05-16T12:10:33.902Z</time>
      </trkpt>
      <trkpt lat="38.91725333" lon="-9.020215">
        <ele>7.0</ele>
        <time>2019-05-16T12:10:34.914Z</time>
      </trkpt>
      <trkpt lat="38.91725333" lon="-9.020215">
        <ele>7.0</ele>
        <time>2019-05-16T12:10:35.907Z</time>
      </trkpt>
      <trkpt lat="38.917325" lon="-9.02016">
        <ele>8.0</ele>
        <time>2019-05-16T12:10:36.915Z</time>
      </trkpt>
      <trkpt lat="38.917325" lon="-9.02016">
        <ele>8.0</ele>
        <time>2019-05-16T12:10:37.925Z</time>
      </trkpt>
      <trkpt lat="38.9174" lon="-9.02010833">
        <ele>8.0</ele>
        <time>2019-05-16T12:10:38.899Z</time>
      </trkpt>
      <trkpt lat="38.9174" lon="-9.02010833">
        <ele>8.0</ele>
        <time>2019-05-16T12:10:39.921Z</time>
      </trkpt>
      <trkpt lat="38.91747833" lon="-9.020045">
        <ele>7.0</ele>
        <time>2019-05-16T12:10:40.930Z</time>
      </trkpt>
      <trkpt lat="38.91747833" lon="-9.020045">
        <ele>7.0</ele>
        <time>2019-05-16T12:10:41.932Z</time>
      </trkpt>
      <trkpt lat="38.91755333" lon="-9.01997333">
        <ele>7.0</ele>
        <time>2019-05-16T12:10:42.901Z</time>
      </trkpt>
      <trkpt lat="38.91755333" lon="-9.01997333">
        <ele>7.0</ele>
        <time>2019-05-16T12:10:43.933Z</time>
      </trkpt>
      <trkpt lat="38.91763" lon="-9.01989667">
        <ele>7.0</ele>
        <time>2019-05-16T12:10:44.913Z</time>
      </trkpt>
      <trkpt lat="38.91763" lon="-9.01989667">
        <ele>7.0</ele>
        <time>2019-05-16T12:10:45.901Z</time>
      </trkpt>
      <trkpt lat="38.91770333" lon="-9.019815">
        <ele>6.0</ele>
        <time>2019-05-16T12:10:46.922Z</time>
      </trkpt>
      <trkpt lat="38.91770333" lon="-9.019815">
        <ele>6.0</ele>
        <time>2019-05-16T12:10:47.919Z</time>
      </trkpt>
      <trkpt lat="38.91776833" lon="-9.019735">
        <ele>7.0</ele>
        <time>2019-05-16T12:10:48.897Z</time>
      </trkpt>
      <trkpt lat="38.91776833" lon="-9.019735">
        <ele>7.0</ele>
        <time>2019-05-16T12:10:49.911Z</time>
      </trkpt>
      <trkpt lat="38.91783833" lon="-9.01965667">
        <ele>7.0</ele>
        <time>2019-05-16T12:10:50.927Z</time>
      </trkpt>
      <trkpt lat="38.91787333" lon="-9.01961833">
        <ele>7.0</ele>
        <time>2019-05-16T12:10:51.919Z</time>
      </trkpt>
      <trkpt lat="38.91787333" lon="-9.01961833">
        <ele>7.0</ele>
        <time>2019-05-16T12:10:52.931Z</time>
      </trkpt>
      <trkpt lat="38.91793833" lon="-9.01954167">
        <ele>7.0</ele>
        <time>2019-05-16T12:10:53.899Z</time>
      </trkpt>
      <trkpt lat="38.91797" lon="-9.01950667">
        <ele>7.0</ele>
        <time>2019-05-16T12:10:54.914Z</time>
      </trkpt>
      <trkpt lat="38.91797" lon="-9.01950667">
        <ele>7.0</ele>
        <time>2019-05-16T12:10:55.898Z</time>
      </trkpt>
      <trkpt lat="38.91803333" lon="-9.01943167">
        <ele>7.0</ele>
        <time>2019-05-16T12:10:56.905Z</time>
      </trkpt>
      <trkpt lat="38.91803333" lon="-9.01943167">
        <ele>7.0</ele>
        <time>2019-05-16T12:10:57.936Z</time>
      </trkpt>
      <trkpt lat="38.91809833" lon="-9.01936833">
        <ele>7.0</ele>
        <time>2019-05-16T12:10:58.903Z</time>
      </trkpt>
      <trkpt lat="38.91809833" lon="-9.01936833">
        <ele>7.0</ele>
        <time>2019-05-16T12:10:59.932Z</time>
      </trkpt>
      <trkpt lat="38.918155" lon="-9.01930667">
        <ele>7.0</ele>
        <time>2019-05-16T12:11:00.911Z</time>
      </trkpt>
      <trkpt lat="38.918155" lon="-9.01930667">
        <ele>7.0</ele>
        <time>2019-05-16T12:11:01.909Z</time>
      </trkpt>
      <trkpt lat="38.918205" lon="-9.01925333">
        <ele>7.0</ele>
        <time>2019-05-16T12:11:02.929Z</time>
      </trkpt>
      <trkpt lat="38.918205" lon="-9.01925333">
        <ele>7.0</ele>
        <time>2019-05-16T12:11:03.936Z</time>
      </trkpt>
      <trkpt lat="38.918245" lon="-9.01921">
        <ele>7.0</ele>
        <time>2019-05-16T12:11:04.927Z</time>
      </trkpt>
      <trkpt lat="38.918245" lon="-9.01921">
        <ele>7.0</ele>
        <time>2019-05-16T12:11:05.911Z</time>
      </trkpt>
      <trkpt lat="38.91828333" lon="-9.01916667">
        <ele>7.0</ele>
        <time>2019-05-16T12:11:06.922Z</time>
      </trkpt>
      <trkpt lat="38.91828333" lon="-9.01916667">
        <ele>7.0</ele>
        <time>2019-05-16T12:11:07.910Z</time>
      </trkpt>
      <trkpt lat="38.91833167" lon="-9.01911167">
        <ele>7.0</ele>
        <time>2019-05-16T12:11:08.933Z</time>
      </trkpt>
      <trkpt lat="38.91833167" lon="-9.01911167">
        <ele>7.0</ele>
        <time>2019-05-16T12:11:09.904Z</time>
      </trkpt>
      <trkpt lat="38.918385" lon="-9.01904667">
        <ele>8.0</ele>
        <time>2019-05-16T12:11:10.915Z</time>
      </trkpt>
      <trkpt lat="38.918385" lon="-9.01904667">
        <ele>8.0</ele>
        <time>2019-05-16T12:11:11.936Z</time>
      </trkpt>
      <trkpt lat="38.91844333" lon="-9.01898">
        <ele>8.0</ele>
        <time>2019-05-16T12:11:12.923Z</time>
      </trkpt>
      <trkpt lat="38.91844333" lon="-9.01898">
        <ele>8.0</ele>
        <time>2019-05-16T12:11:13.901Z</time>
      </trkpt>
      <trkpt lat="38.91849667" lon="-9.01891167">
        <ele>9.0</ele>
        <time>2019-05-16T12:11:14.910Z</time>
      </trkpt>
      <trkpt lat="38.91849667" lon="-9.01891167">
        <ele>9.0</ele>
        <time>2019-05-16T12:11:15.911Z</time>
      </trkpt>
      <trkpt lat="38.91855333" lon="-9.01885">
        <ele>9.0</ele>
        <time>2019-05-16T12:11:16.927Z</time>
      </trkpt>
      <trkpt lat="38.91855333" lon="-9.01885">
        <ele>9.0</ele>
        <time>2019-05-16T12:11:17.911Z</time>
      </trkpt>
      <trkpt lat="38.918605" lon="-9.01878833">
        <ele>8.0</ele>
        <time>2019-05-16T12:11:18.919Z</time>
      </trkpt>
      <trkpt lat="38.918605" lon="-9.01878833">
        <ele>8.0</ele>
        <time>2019-05-16T12:11:19.919Z</time>
      </trkpt>
      <trkpt lat="38.91866" lon="-9.01872833">
        <ele>9.0</ele>
        <time>2019-05-16T12:11:20.900Z</time>
      </trkpt>
      <trkpt lat="38.91866" lon="-9.01872833">
        <ele>9.0</ele>
        <time>2019-05-16T12:11:21.920Z</time>
      </trkpt>
      <trkpt lat="38.918715" lon="-9.01866">
        <ele>9.0</ele>
        <time>2019-05-16T12:11:22.938Z</time>
      </trkpt>
      <trkpt lat="38.918715" lon="-9.01866">
        <ele>9.0</ele>
        <time>2019-05-16T12:11:23.898Z</time>
      </trkpt>
      <trkpt lat="38.91877333" lon="-9.01858833">
        <ele>9.0</ele>
        <time>2019-05-16T12:11:24.907Z</time>
      </trkpt>
      <trkpt lat="38.91877333" lon="-9.01858833">
        <ele>9.0</ele>
        <time>2019-05-16T12:11:25.899Z</time>
      </trkpt>
      <trkpt lat="38.91883333" lon="-9.01851">
        <ele>9.0</ele>
        <time>2019-05-16T12:11:26.908Z</time>
      </trkpt>
      <trkpt lat="38.91883333" lon="-9.01851">
        <ele>9.0</ele>
        <time>2019-05-16T12:11:27.909Z</time>
      </trkpt>
      <trkpt lat="38.918895" lon="-9.01843">
        <ele>8.0</ele>
        <time>2019-05-16T12:11:28.902Z</time>
      </trkpt>
      <trkpt lat="38.918895" lon="-9.01843">
        <ele>8.0</ele>
        <time>2019-05-16T12:11:29.920Z</time>
      </trkpt>
      <trkpt lat="38.91895667" lon="-9.01834667">
        <ele>9.0</ele>
        <time>2019-05-16T12:11:30.931Z</time>
      </trkpt>
      <trkpt lat="38.91895667" lon="-9.01834667">
        <ele>9.0</ele>
        <time>2019-05-16T12:11:31.925Z</time>
      </trkpt>
      <trkpt lat="38.91902167" lon="-9.01826333">
        <ele>8.0</ele>
        <time>2019-05-16T12:11:32.934Z</time>
      </trkpt>
      <trkpt lat="38.91902167" lon="-9.01826333">
        <ele>8.0</ele>
        <time>2019-05-16T12:11:33.918Z</time>
      </trkpt>
      <trkpt lat="38.91908667" lon="-9.01817833">
        <ele>8.0</ele>
        <time>2019-05-16T12:11:34.926Z</time>
      </trkpt>
      <trkpt lat="38.91908667" lon="-9.01817833">
        <ele>8.0</ele>
        <time>2019-05-16T12:11:35.911Z</time>
      </trkpt>
      <trkpt lat="38.919155" lon="-9.01809333">
        <ele>8.0</ele>
        <time>2019-05-16T12:11:36.922Z</time>
      </trkpt>
      <trkpt lat="38.919155" lon="-9.01809333">
        <ele>8.0</ele>
        <time>2019-05-16T12:11:37.935Z</time>
      </trkpt>
      <trkpt lat="38.91922833" lon="-9.01801">
        <ele>9.0</ele>
        <time>2019-05-16T12:11:38.901Z</time>
      </trkpt>
      <trkpt lat="38.91922833" lon="-9.01801">
        <ele>9.0</ele>
        <time>2019-05-16T12:11:39.913Z</time>
      </trkpt>
      <trkpt lat="38.91930333" lon="-9.01792333">
        <ele>9.0</ele>
        <time>2019-05-16T12:11:40.922Z</time>
      </trkpt>
      <trkpt lat="38.91930333" lon="-9.01792333">
        <ele>9.0</ele>
        <time>2019-05-16T12:11:41.920Z</time>
      </trkpt>
      <trkpt lat="38.91938" lon="-9.01783167">
        <ele>9.0</ele>
        <time>2019-05-16T12:11:42.929Z</time>
      </trkpt>
      <trkpt lat="38.91938" lon="-9.01783167">
        <ele>9.0</ele>
        <time>2019-05-16T12:11:43.901Z</time>
      </trkpt>
      <trkpt lat="38.91945167" lon="-9.01774333">
        <ele>9.0</ele>
        <time>2019-05-16T12:11:44.925Z</time>
      </trkpt>
      <trkpt lat="38.91945167" lon="-9.01774333">
        <ele>9.0</ele>
        <time>2019-05-16T12:11:45.911Z</time>
      </trkpt>
      <trkpt lat="38.919515" lon="-9.01765">
        <ele>9.0</ele>
        <time>2019-05-16T12:11:46.940Z</time>
      </trkpt>
      <trkpt lat="38.919515" lon="-9.01765">
        <ele>9.0</ele>
        <time>2019-05-16T12:11:47.898Z</time>
      </trkpt>
      <trkpt lat="38.91958333" lon="-9.01755333">
        <ele>9.0</ele>
        <time>2019-05-16T12:11:48.906Z</time>
      </trkpt>
      <trkpt lat="38.91958333" lon="-9.01755333">
        <ele>9.0</ele>
        <time>2019-05-16T12:11:49.921Z</time>
      </trkpt>
      <trkpt lat="38.91965167" lon="-9.01746">
        <ele>9.0</ele>
        <time>2019-05-16T12:11:50.930Z</time>
      </trkpt>
      <trkpt lat="38.91965167" lon="-9.01746">
        <ele>9.0</ele>
        <time>2019-05-16T12:11:51.934Z</time>
      </trkpt>
      <trkpt lat="38.91972833" lon="-9.01736667">
        <ele>8.0</ele>
        <time>2019-05-16T12:11:52.914Z</time>
      </trkpt>
      <trkpt lat="38.91972833" lon="-9.01736667">
        <ele>8.0</ele>
        <time>2019-05-16T12:11:53.911Z</time>
      </trkpt>
      <trkpt lat="38.919805" lon="-9.01727167">
        <ele>8.0</ele>
        <time>2019-05-16T12:11:54.926Z</time>
      </trkpt>
      <trkpt lat="38.919805" lon="-9.01727167">
        <ele>8.0</ele>
        <time>2019-05-16T12:11:55.918Z</time>
      </trkpt>
      <trkpt lat="38.91988333" lon="-9.017175">
        <ele>8.0</ele>
        <time>2019-05-16T12:11:56.931Z</time>
      </trkpt>
      <trkpt lat="38.91988333" lon="-9.017175">
        <ele>8.0</ele>
        <time>2019-05-16T12:11:57.934Z</time>
      </trkpt>
      <trkpt lat="38.91996167" lon="-9.01708333">
        <ele>7.0</ele>
        <time>2019-05-16T12:11:58.928Z</time>
      </trkpt>
      <trkpt lat="38.91996167" lon="-9.01708333">
        <ele>7.0</ele>
        <time>2019-05-16T12:11:59.913Z</time>
      </trkpt>
      <trkpt lat="38.92003667" lon="-9.016995">
        <ele>7.0</ele>
        <time>2019-05-16T12:12:00.900Z</time>
      </trkpt>
      <trkpt lat="38.92003667" lon="-9.016995">
        <ele>7.0</ele>
        <time>2019-05-16T12:12:01.901Z</time>
      </trkpt>
      <trkpt lat="38.92011" lon="-9.01691833">
        <ele>7.0</ele>
        <time>2019-05-16T12:12:02.910Z</time>
      </trkpt>
      <trkpt lat="38.92011" lon="-9.01691833">
        <ele>7.0</ele>
        <time>2019-05-16T12:12:03.911Z</time>
      </trkpt>
      <trkpt lat="38.92018667" lon="-9.01683333">
        <ele>6.0</ele>
        <time>2019-05-16T12:12:04.920Z</time>
      </trkpt>
      <trkpt lat="38.92023" lon="-9.01679">
        <ele>6.0</ele>
        <time>2019-05-16T12:12:05.932Z</time>
      </trkpt>
      <trkpt lat="38.920275" lon="-9.01674833">
        <ele>6.0</ele>
        <time>2019-05-16T12:12:06.928Z</time>
      </trkpt>
      <trkpt lat="38.920275" lon="-9.01674833">
        <ele>6.0</ele>
        <time>2019-05-16T12:12:07.931Z</time>
      </trkpt>
      <trkpt lat="38.92036" lon="-9.01667">
        <ele>6.0</ele>
        <time>2019-05-16T12:12:08.901Z</time>
      </trkpt>
      <trkpt lat="38.92036" lon="-9.01667">
        <ele>6.0</ele>
        <time>2019-05-16T12:12:09.901Z</time>
      </trkpt>
      <trkpt lat="38.92044333" lon="-9.01659167">
        <ele>5.0</ele>
        <time>2019-05-16T12:12:10.912Z</time>
      </trkpt>
      <trkpt lat="38.920485" lon="-9.01655">
        <ele>5.0</ele>
        <time>2019-05-16T12:12:11.925Z</time>
      </trkpt>
      <trkpt lat="38.92053167" lon="-9.01651">
        <ele>5.0</ele>
        <time>2019-05-16T12:12:12.937Z</time>
      </trkpt>
      <trkpt lat="38.92053167" lon="-9.01651">
        <ele>5.0</ele>
        <time>2019-05-16T12:12:13.905Z</time>
      </trkpt>
      <trkpt lat="38.92062" lon="-9.01643667">
        <ele>5.0</ele>
        <time>2019-05-16T12:12:14.914Z</time>
      </trkpt>
      <trkpt lat="38.92062" lon="-9.01643667">
        <ele>5.0</ele>
        <time>2019-05-16T12:12:15.928Z</time>
      </trkpt>
      <trkpt lat="38.92071167" lon="-9.01637333">
        <ele>5.0</ele>
        <time>2019-05-16T12:12:16.937Z</time>
      </trkpt>
      <trkpt lat="38.92071167" lon="-9.01637333">
        <ele>5.0</ele>
        <time>2019-05-16T12:12:17.919Z</time>
      </trkpt>
      <trkpt lat="38.92079833" lon="-9.016305">
        <ele>5.0</ele>
        <time>2019-05-16T12:12:18.904Z</time>
      </trkpt>
      <trkpt lat="38.92079833" lon="-9.016305">
        <ele>5.0</ele>
        <time>2019-05-16T12:12:19.924Z</time>
      </trkpt>
      <trkpt lat="38.92088167" lon="-9.01623">
        <ele>6.0</ele>
        <time>2019-05-16T12:12:20.915Z</time>
      </trkpt>
      <trkpt lat="38.92092167" lon="-9.01619333">
        <ele>6.0</ele>
        <time>2019-05-16T12:12:21.920Z</time>
      </trkpt>
      <trkpt lat="38.92092167" lon="-9.01619333">
        <ele>6.0</ele>
        <time>2019-05-16T12:12:22.897Z</time>
      </trkpt>
      <trkpt lat="38.92099833" lon="-9.01612333">
        <ele>6.0</ele>
        <time>2019-05-16T12:12:23.908Z</time>
      </trkpt>
      <trkpt lat="38.92103667" lon="-9.01608833">
        <ele>6.0</ele>
        <time>2019-05-16T12:12:24.916Z</time>
      </trkpt>
      <trkpt lat="38.92103667" lon="-9.01608833">
        <ele>6.0</ele>
        <time>2019-05-16T12:12:25.918Z</time>
      </trkpt>
      <trkpt lat="38.92111167" lon="-9.01601667">
        <ele>7.0</ele>
        <time>2019-05-16T12:12:26.933Z</time>
      </trkpt>
      <trkpt lat="38.92111167" lon="-9.01601667">
        <ele>7.0</ele>
        <time>2019-05-16T12:12:27.919Z</time>
      </trkpt>
      <trkpt lat="38.921185" lon="-9.01594667">
        <ele>7.0</ele>
        <time>2019-05-16T12:12:28.926Z</time>
      </trkpt>
      <trkpt lat="38.921185" lon="-9.01594667">
        <ele>7.0</ele>
        <time>2019-05-16T12:12:29.918Z</time>
      </trkpt>
      <trkpt lat="38.921255" lon="-9.01587333">
        <ele>7.0</ele>
        <time>2019-05-16T12:12:30.926Z</time>
      </trkpt>
      <trkpt lat="38.921255" lon="-9.01587333">
        <ele>7.0</ele>
        <time>2019-05-16T12:12:31.909Z</time>
      </trkpt>
      <trkpt lat="38.92132833" lon="-9.01579833">
        <ele>7.0</ele>
        <time>2019-05-16T12:12:32.911Z</time>
      </trkpt>
      <trkpt lat="38.92136667" lon="-9.01576">
        <ele>7.0</ele>
        <time>2019-05-16T12:12:33.930Z</time>
      </trkpt>
      <trkpt lat="38.92136667" lon="-9.01576">
        <ele>7.0</ele>
        <time>2019-05-16T12:12:34.927Z</time>
      </trkpt>
      <trkpt lat="38.92144167" lon="-9.015685">
        <ele>7.0</ele>
        <time>2019-05-16T12:12:35.930Z</time>
      </trkpt>
      <trkpt lat="38.92144167" lon="-9.015685">
        <ele>7.0</ele>
        <time>2019-05-16T12:12:36.926Z</time>
      </trkpt>
      <trkpt lat="38.92152" lon="-9.01560167">
        <ele>6.0</ele>
        <time>2019-05-16T12:12:37.937Z</time>
      </trkpt>
      <trkpt lat="38.92152" lon="-9.01560167">
        <ele>6.0</ele>
        <time>2019-05-16T12:12:38.902Z</time>
      </trkpt>
      <trkpt lat="38.921595" lon="-9.01551167">
        <ele>6.0</ele>
        <time>2019-05-16T12:12:39.920Z</time>
      </trkpt>
      <trkpt lat="38.921595" lon="-9.01551167">
        <ele>6.0</ele>
        <time>2019-05-16T12:12:40.911Z</time>
      </trkpt>
      <trkpt lat="38.92166833" lon="-9.01541833">
        <ele>6.0</ele>
        <time>2019-05-16T12:12:41.900Z</time>
      </trkpt>
      <trkpt lat="38.921705" lon="-9.01536833">
        <ele>6.0</ele>
        <time>2019-05-16T12:12:42.928Z</time>
      </trkpt>
      <trkpt lat="38.921705" lon="-9.01536833">
        <ele>6.0</ele>
        <time>2019-05-16T12:12:43.933Z</time>
      </trkpt>
      <trkpt lat="38.92177667" lon="-9.01526667">
        <ele>6.0</ele>
        <time>2019-05-16T12:12:44.901Z</time>
      </trkpt>
      <trkpt lat="38.92177667" lon="-9.01526667">
        <ele>6.0</ele>
        <time>2019-05-16T12:12:45.914Z</time>
      </trkpt>
      <trkpt lat="38.921845" lon="-9.01516833">
        <ele>6.0</ele>
        <time>2019-05-16T12:12:46.923Z</time>
      </trkpt>
      <trkpt lat="38.921845" lon="-9.01516833">
        <ele>6.0</ele>
        <time>2019-05-16T12:12:47.915Z</time>
      </trkpt>
      <trkpt lat="38.92190833" lon="-9.01506833">
        <ele>6.0</ele>
        <time>2019-05-16T12:12:48.928Z</time>
      </trkpt>
      <trkpt lat="38.92190833" lon="-9.01506833">
        <ele>6.0</ele>
        <time>2019-05-16T12:12:49.901Z</time>
      </trkpt>
      <trkpt lat="38.92197" lon="-9.01497">
        <ele>7.0</ele>
        <time>2019-05-16T12:12:50.927Z</time>
      </trkpt>
      <trkpt lat="38.92197" lon="-9.01497">
        <ele>7.0</ele>
        <time>2019-05-16T12:12:51.900Z</time>
      </trkpt>
      <trkpt lat="38.92203" lon="-9.01487">
        <ele>7.0</ele>
        <time>2019-05-16T12:12:52.917Z</time>
      </trkpt>
      <trkpt lat="38.92203" lon="-9.01487">
        <ele>7.0</ele>
        <time>2019-05-16T12:12:53.898Z</time>
      </trkpt>
      <trkpt lat="38.922085" lon="-9.01478333">
        <ele>7.0</ele>
        <time>2019-05-16T12:12:54.906Z</time>
      </trkpt>
      <trkpt lat="38.922085" lon="-9.01478333">
        <ele>7.0</ele>
        <time>2019-05-16T12:12:55.899Z</time>
      </trkpt>
      <trkpt lat="38.92213167" lon="-9.01470833">
        <ele>8.0</ele>
        <time>2019-05-16T12:12:56.909Z</time>
      </trkpt>
      <trkpt lat="38.92213167" lon="-9.01470833">
        <ele>8.0</ele>
        <time>2019-05-16T12:12:57.898Z</time>
      </trkpt>
      <trkpt lat="38.92217333" lon="-9.01464">
        <ele>9.0</ele>
        <time>2019-05-16T12:12:58.907Z</time>
      </trkpt>
      <trkpt lat="38.92217333" lon="-9.01464">
        <ele>9.0</ele>
        <time>2019-05-16T12:12:59.935Z</time>
      </trkpt>
      <trkpt lat="38.92220833" lon="-9.01457333">
        <ele>9.0</ele>
        <time>2019-05-16T12:13:00.910Z</time>
      </trkpt>
      <trkpt lat="38.92220833" lon="-9.01457333">
        <ele>9.0</ele>
        <time>2019-05-16T12:13:01.936Z</time>
      </trkpt>
      <trkpt lat="38.92224" lon="-9.014515">
        <ele>10.0</ele>
        <time>2019-05-16T12:13:02.903Z</time>
      </trkpt>
      <trkpt lat="38.92224" lon="-9.014515">
        <ele>10.0</ele>
        <time>2019-05-16T12:13:03.907Z</time>
      </trkpt>
      <trkpt lat="38.92227833" lon="-9.01445667">
        <ele>11.0</ele>
        <time>2019-05-16T12:13:04.921Z</time>
      </trkpt>
      <trkpt lat="38.92227833" lon="-9.01445667">
        <ele>11.0</ele>
        <time>2019-05-16T12:13:05.913Z</time>
      </trkpt>
      <trkpt lat="38.92231667" lon="-9.01440167">
        <ele>11.0</ele>
        <time>2019-05-16T12:13:06.920Z</time>
      </trkpt>
      <trkpt lat="38.92231667" lon="-9.01440167">
        <ele>11.0</ele>
        <time>2019-05-16T12:13:07.901Z</time>
      </trkpt>
      <trkpt lat="38.922355" lon="-9.01434333">
        <ele>12.0</ele>
        <time>2019-05-16T12:13:08.901Z</time>
      </trkpt>
      <trkpt lat="38.92237333" lon="-9.01431333">
        <ele>12.0</ele>
        <time>2019-05-16T12:13:09.930Z</time>
      </trkpt>
      <trkpt lat="38.92237333" lon="-9.01431333">
        <ele>12.0</ele>
        <time>2019-05-16T12:13:10.919Z</time>
      </trkpt>
      <trkpt lat="38.92241167" lon="-9.01425">
        <ele>12.0</ele>
        <time>2019-05-16T12:13:11.935Z</time>
      </trkpt>
      <trkpt lat="38.92243167" lon="-9.01421667">
        <ele>13.0</ele>
        <time>2019-05-16T12:13:12.921Z</time>
      </trkpt>
      <trkpt lat="38.92243167" lon="-9.01421667">
        <ele>13.0</ele>
        <time>2019-05-16T12:13:13.901Z</time>
      </trkpt>
      <trkpt lat="38.92247667" lon="-9.01413667">
        <ele>15.0</ele>
        <time>2019-05-16T12:13:14.908Z</time>
      </trkpt>
      <trkpt lat="38.92247667" lon="-9.01413667">
        <ele>15.0</ele>
        <time>2019-05-16T12:13:15.921Z</time>
      </trkpt>
      <trkpt lat="38.92253" lon="-9.014045">
        <ele>16.0</ele>
        <time>2019-05-16T12:13:16.930Z</time>
      </trkpt>
      <trkpt lat="38.92253" lon="-9.014045">
        <ele>16.0</ele>
        <time>2019-05-16T12:13:17.925Z</time>
      </trkpt>
      <trkpt lat="38.92258" lon="-9.01396167">
        <ele>16.0</ele>
        <time>2019-05-16T12:13:18.907Z</time>
      </trkpt>
      <trkpt lat="38.92258" lon="-9.01396167">
        <ele>16.0</ele>
        <time>2019-05-16T12:13:19.902Z</time>
      </trkpt>
      <trkpt lat="38.92262833" lon="-9.01388">
        <ele>17.0</ele>
        <time>2019-05-16T12:13:20.928Z</time>
      </trkpt>
      <trkpt lat="38.92262833" lon="-9.01388">
        <ele>17.0</ele>
        <time>2019-05-16T12:13:21.907Z</time>
      </trkpt>
      <trkpt lat="38.92267333" lon="-9.0138">
        <ele>18.0</ele>
        <time>2019-05-16T12:13:22.915Z</time>
      </trkpt>
      <trkpt lat="38.92267333" lon="-9.0138">
        <ele>18.0</ele>
        <time>2019-05-16T12:13:23.921Z</time>
      </trkpt>
      <trkpt lat="38.92272333" lon="-9.01371667">
        <ele>18.0</ele>
        <time>2019-05-16T12:13:24.933Z</time>
      </trkpt>
      <trkpt lat="38.92272333" lon="-9.01371667">
        <ele>18.0</ele>
        <time>2019-05-16T12:13:25.933Z</time>
      </trkpt>
      <trkpt lat="38.922775" lon="-9.01364">
        <ele>18.0</ele>
        <time>2019-05-16T12:13:26.901Z</time>
      </trkpt>
      <trkpt lat="38.922775" lon="-9.01364">
        <ele>18.0</ele>
        <time>2019-05-16T12:13:27.933Z</time>
      </trkpt>
      <trkpt lat="38.92282667" lon="-9.01356167">
        <ele>19.0</ele>
        <time>2019-05-16T12:13:28.901Z</time>
      </trkpt>
      <trkpt lat="38.92282667" lon="-9.01356167">
        <ele>19.0</ele>
        <time>2019-05-16T12:13:29.904Z</time>
      </trkpt>
      <trkpt lat="38.92288333" lon="-9.01347667">
        <ele>18.0</ele>
        <time>2019-05-16T12:13:30.923Z</time>
      </trkpt>
      <trkpt lat="38.92288333" lon="-9.01347667">
        <ele>18.0</ele>
        <time>2019-05-16T12:13:31.935Z</time>
      </trkpt>
      <trkpt lat="38.92294167" lon="-9.01339167">
        <ele>18.0</ele>
        <time>2019-05-16T12:13:32.910Z</time>
      </trkpt>
      <trkpt lat="38.92294167" lon="-9.01339167">
        <ele>18.0</ele>
        <time>2019-05-16T12:13:33.926Z</time>
      </trkpt>
      <trkpt lat="38.923005" lon="-9.0133">
        <ele>18.0</ele>
        <time>2019-05-16T12:13:34.937Z</time>
      </trkpt>
      <trkpt lat="38.923005" lon="-9.0133">
        <ele>18.0</ele>
        <time>2019-05-16T12:13:35.902Z</time>
      </trkpt>
      <trkpt lat="38.92307167" lon="-9.01321333">
        <ele>17.0</ele>
        <time>2019-05-16T12:13:36.911Z</time>
      </trkpt>
      <trkpt lat="38.92307167" lon="-9.01321333">
        <ele>17.0</ele>
        <time>2019-05-16T12:13:37.901Z</time>
      </trkpt>
      <trkpt lat="38.923135" lon="-9.01312333">
        <ele>16.0</ele>
        <time>2019-05-16T12:13:38.909Z</time>
      </trkpt>
      <trkpt lat="38.923135" lon="-9.01312333">
        <ele>16.0</ele>
        <time>2019-05-16T12:13:39.922Z</time>
      </trkpt>
      <trkpt lat="38.92319833" lon="-9.01303667">
        <ele>16.0</ele>
        <time>2019-05-16T12:13:40.902Z</time>
      </trkpt>
      <trkpt lat="38.92323167" lon="-9.01299333">
        <ele>15.0</ele>
        <time>2019-05-16T12:13:41.900Z</time>
      </trkpt>
      <trkpt lat="38.92326833" lon="-9.01295333">
        <ele>15.0</ele>
        <time>2019-05-16T12:13:42.913Z</time>
      </trkpt>
      <trkpt lat="38.92326833" lon="-9.01295333">
        <ele>15.0</ele>
        <time>2019-05-16T12:13:43.936Z</time>
      </trkpt>
      <trkpt lat="38.92333167" lon="-9.01287167">
        <ele>14.0</ele>
        <time>2019-05-16T12:13:44.905Z</time>
      </trkpt>
      <trkpt lat="38.92333167" lon="-9.01287167">
        <ele>14.0</ele>
        <time>2019-05-16T12:13:45.935Z</time>
      </trkpt>
      <trkpt lat="38.92339167" lon="-9.0128">
        <ele>12.0</ele>
        <time>2019-05-16T12:13:46.909Z</time>
      </trkpt>
      <trkpt lat="38.92339167" lon="-9.0128">
        <ele>12.0</ele>
        <time>2019-05-16T12:13:47.899Z</time>
      </trkpt>
      <trkpt lat="38.92344667" lon="-9.01272833">
        <ele>11.0</ele>
        <time>2019-05-16T12:13:48.912Z</time>
      </trkpt>
      <trkpt lat="38.92344667" lon="-9.01272833">
        <ele>11.0</ele>
        <time>2019-05-16T12:13:49.936Z</time>
      </trkpt>
      <trkpt lat="38.92350333" lon="-9.01265667">
        <ele>10.0</ele>
        <time>2019-05-16T12:13:50.910Z</time>
      </trkpt>
      <trkpt lat="38.92350333" lon="-9.01265667">
        <ele>10.0</ele>
        <time>2019-05-16T12:13:51.904Z</time>
      </trkpt>
      <trkpt lat="38.92355833" lon="-9.01258">
        <ele>11.0</ele>
        <time>2019-05-16T12:13:52.914Z</time>
      </trkpt>
      <trkpt lat="38.92355833" lon="-9.01258">
        <ele>11.0</ele>
        <time>2019-05-16T12:13:53.921Z</time>
      </trkpt>
      <trkpt lat="38.92361333" lon="-9.01250333">
        <ele>10.0</ele>
        <time>2019-05-16T12:13:54.932Z</time>
      </trkpt>
      <trkpt lat="38.92361333" lon="-9.01250333">
        <ele>10.0</ele>
        <time>2019-05-16T12:13:55.915Z</time>
      </trkpt>
      <trkpt lat="38.92367667" lon="-9.01244167">
        <ele>10.0</ele>
        <time>2019-05-16T12:13:56.954Z</time>
      </trkpt>
      <trkpt lat="38.92367667" lon="-9.01244167">
        <ele>10.0</ele>
        <time>2019-05-16T12:13:57.921Z</time>
      </trkpt>
      <trkpt lat="38.92374333" lon="-9.012375">
        <ele>11.0</ele>
        <time>2019-05-16T12:13:58.897Z</time>
      </trkpt>
      <trkpt lat="38.92374333" lon="-9.012375">
        <ele>11.0</ele>
        <time>2019-05-16T12:13:59.924Z</time>
      </trkpt>
      <trkpt lat="38.92381167" lon="-9.01232">
        <ele>11.0</ele>
        <time>2019-05-16T12:14:00.905Z</time>
      </trkpt>
      <trkpt lat="38.92381167" lon="-9.01232">
        <ele>11.0</ele>
        <time>2019-05-16T12:14:01.920Z</time>
      </trkpt>
      <trkpt lat="38.92387333" lon="-9.01225333">
        <ele>11.0</ele>
        <time>2019-05-16T12:14:02.929Z</time>
      </trkpt>
      <trkpt lat="38.92387333" lon="-9.01225333">
        <ele>11.0</ele>
        <time>2019-05-16T12:14:03.919Z</time>
      </trkpt>
      <trkpt lat="38.92394167" lon="-9.01218833">
        <ele>11.0</ele>
        <time>2019-05-16T12:14:04.929Z</time>
      </trkpt>
      <trkpt lat="38.92394167" lon="-9.01218833">
        <ele>11.0</ele>
        <time>2019-05-16T12:14:05.921Z</time>
      </trkpt>
      <trkpt lat="38.924015" lon="-9.01212333">
        <ele>11.0</ele>
        <time>2019-05-16T12:14:06.930Z</time>
      </trkpt>
      <trkpt lat="38.924015" lon="-9.01212333">
        <ele>11.0</ele>
        <time>2019-05-16T12:14:07.924Z</time>
      </trkpt>
      <trkpt lat="38.92408167" lon="-9.012055">
        <ele>12.0</ele>
        <time>2019-05-16T12:14:08.937Z</time>
      </trkpt>
      <trkpt lat="38.92408167" lon="-9.012055">
        <ele>12.0</ele>
        <time>2019-05-16T12:14:09.906Z</time>
      </trkpt>
      <trkpt lat="38.92414" lon="-9.01199333">
        <ele>12.0</ele>
        <time>2019-05-16T12:14:10.916Z</time>
      </trkpt>
      <trkpt lat="38.92414" lon="-9.01199333">
        <ele>12.0</ele>
        <time>2019-05-16T12:14:11.931Z</time>
      </trkpt>
      <trkpt lat="38.92419333" lon="-9.01194167">
        <ele>13.0</ele>
        <time>2019-05-16T12:14:12.906Z</time>
      </trkpt>
      <trkpt lat="38.92419333" lon="-9.01194167">
        <ele>13.0</ele>
        <time>2019-05-16T12:14:13.899Z</time>
      </trkpt>
      <trkpt lat="38.92424833" lon="-9.01188833">
        <ele>13.0</ele>
        <time>2019-05-16T12:14:14.912Z</time>
      </trkpt>
      <trkpt lat="38.92424833" lon="-9.01188833">
        <ele>13.0</ele>
        <time>2019-05-16T12:14:15.915Z</time>
      </trkpt>
      <trkpt lat="38.9243" lon="-9.01183333">
        <ele>13.0</ele>
        <time>2019-05-16T12:14:16.926Z</time>
      </trkpt>
      <trkpt lat="38.9243" lon="-9.01183333">
        <ele>13.0</ele>
        <time>2019-05-16T12:14:17.911Z</time>
      </trkpt>
      <trkpt lat="38.92435333" lon="-9.011775">
        <ele>13.0</ele>
        <time>2019-05-16T12:14:18.927Z</time>
      </trkpt>
      <trkpt lat="38.92435333" lon="-9.011775">
        <ele>13.0</ele>
        <time>2019-05-16T12:14:19.904Z</time>
      </trkpt>
      <trkpt lat="38.924405" lon="-9.011725">
        <ele>14.0</ele>
        <time>2019-05-16T12:14:20.927Z</time>
      </trkpt>
      <trkpt lat="38.924405" lon="-9.011725">
        <ele>14.0</ele>
        <time>2019-05-16T12:14:21.905Z</time>
      </trkpt>
      <trkpt lat="38.92444667" lon="-9.01167667">
        <ele>15.0</ele>
        <time>2019-05-16T12:14:22.914Z</time>
      </trkpt>
      <trkpt lat="38.92444667" lon="-9.01167667">
        <ele>15.0</ele>
        <time>2019-05-16T12:14:23.912Z</time>
      </trkpt>
      <trkpt lat="38.92449333" lon="-9.01162833">
        <ele>15.0</ele>
        <time>2019-05-16T12:14:24.921Z</time>
      </trkpt>
      <trkpt lat="38.92449333" lon="-9.01162833">
        <ele>15.0</ele>
        <time>2019-05-16T12:14:25.910Z</time>
      </trkpt>
      <trkpt lat="38.924535" lon="-9.01158">
        <ele>15.0</ele>
        <time>2019-05-16T12:14:26.921Z</time>
      </trkpt>
      <trkpt lat="38.924535" lon="-9.01158">
        <ele>15.0</ele>
        <time>2019-05-16T12:14:27.919Z</time>
      </trkpt>
      <trkpt lat="38.92457" lon="-9.011515">
        <ele>16.0</ele>
        <time>2019-05-16T12:14:28.934Z</time>
      </trkpt>
      <trkpt lat="38.92457" lon="-9.011515">
        <ele>16.0</ele>
        <time>2019-05-16T12:14:29.899Z</time>
      </trkpt>
      <trkpt lat="38.92458833" lon="-9.01144667">
        <ele>16.0</ele>
        <time>2019-05-16T12:14:30.910Z</time>
      </trkpt>
      <trkpt lat="38.92458833" lon="-9.01144667">
        <ele>16.0</ele>
        <time>2019-05-16T12:14:31.908Z</time>
      </trkpt>
      <trkpt lat="38.92459833" lon="-9.01139167">
        <ele>16.0</ele>
        <time>2019-05-16T12:14:32.920Z</time>
      </trkpt>
      <trkpt lat="38.92459833" lon="-9.01139167">
        <ele>16.0</ele>
        <time>2019-05-16T12:14:33.906Z</time>
      </trkpt>
      <trkpt lat="38.92459333" lon="-9.01133667">
        <ele>17.0</ele>
        <time>2019-05-16T12:14:34.915Z</time>
      </trkpt>
      <trkpt lat="38.92459333" lon="-9.01133667">
        <ele>17.0</ele>
        <time>2019-05-16T12:14:35.926Z</time>
      </trkpt>
      <trkpt lat="38.924585" lon="-9.01128667">
        <ele>17.0</ele>
        <time>2019-05-16T12:14:36.900Z</time>
      </trkpt>
      <trkpt lat="38.924585" lon="-9.01128667">
        <ele>17.0</ele>
        <time>2019-05-16T12:14:37.925Z</time>
      </trkpt>
      <trkpt lat="38.92457333" lon="-9.01123">
        <ele>17.0</ele>
        <time>2019-05-16T12:14:38.910Z</time>
      </trkpt>
      <trkpt lat="38.92457333" lon="-9.01123">
        <ele>17.0</ele>
        <time>2019-05-16T12:14:39.904Z</time>
      </trkpt>
      <trkpt lat="38.92456167" lon="-9.01118333">
        <ele>16.0</ele>
        <time>2019-05-16T12:14:40.913Z</time>
      </trkpt>
      <trkpt lat="38.92456167" lon="-9.01118333">
        <ele>16.0</ele>
        <time>2019-05-16T12:14:41.902Z</time>
      </trkpt>
      <trkpt lat="38.92454667" lon="-9.01113667">
        <ele>16.0</ele>
        <time>2019-05-16T12:14:42.911Z</time>
      </trkpt>
      <trkpt lat="38.92454667" lon="-9.01113667">
        <ele>16.0</ele>
        <time>2019-05-16T12:14:43.933Z</time>
      </trkpt>
      <trkpt lat="38.92452833" lon="-9.01109">
        <ele>16.0</ele>
        <time>2019-05-16T12:14:44.901Z</time>
      </trkpt>
      <trkpt lat="38.92451833" lon="-9.01106333">
        <ele>16.0</ele>
        <time>2019-05-16T12:14:45.901Z</time>
      </trkpt>
      <trkpt lat="38.92451833" lon="-9.01106333">
        <ele>16.0</ele>
        <time>2019-05-16T12:14:46.935Z</time>
      </trkpt>
      <trkpt lat="38.92449333" lon="-9.01100833">
        <ele>15.0</ele>
        <time>2019-05-16T12:14:47.908Z</time>
      </trkpt>
      <trkpt lat="38.92448167" lon="-9.01097833">
        <ele>15.0</ele>
        <time>2019-05-16T12:14:48.910Z</time>
      </trkpt>
      <trkpt lat="38.92448167" lon="-9.01097833">
        <ele>15.0</ele>
        <time>2019-05-16T12:14:49.898Z</time>
      </trkpt>
      <trkpt lat="38.92445833" lon="-9.010915">
        <ele>15.0</ele>
        <time>2019-05-16T12:14:50.907Z</time>
      </trkpt>
      <trkpt lat="38.92445833" lon="-9.010915">
        <ele>15.0</ele>
        <time>2019-05-16T12:14:51.902Z</time>
      </trkpt>
      <trkpt lat="38.92443167" lon="-9.010845">
        <ele>14.0</ele>
        <time>2019-05-16T12:14:52.923Z</time>
      </trkpt>
      <trkpt lat="38.92443167" lon="-9.010845">
        <ele>14.0</ele>
        <time>2019-05-16T12:14:53.936Z</time>
      </trkpt>
      <trkpt lat="38.92440333" lon="-9.01077333">
        <ele>13.0</ele>
        <time>2019-05-16T12:14:54.905Z</time>
      </trkpt>
      <trkpt lat="38.92440333" lon="-9.01077333">
        <ele>13.0</ele>
        <time>2019-05-16T12:14:55.912Z</time>
      </trkpt>
      <trkpt lat="38.92437167" lon="-9.01068333">
        <ele>13.0</ele>
        <time>2019-05-16T12:14:56.923Z</time>
      </trkpt>
      <trkpt lat="38.92437167" lon="-9.01068333">
        <ele>13.0</ele>
        <time>2019-05-16T12:14:57.912Z</time>
      </trkpt>
      <trkpt lat="38.92435" lon="-9.01057167">
        <ele>11.0</ele>
        <time>2019-05-16T12:14:58.919Z</time>
      </trkpt>
      <trkpt lat="38.92435" lon="-9.01057167">
        <ele>11.0</ele>
        <time>2019-05-16T12:14:59.915Z</time>
      </trkpt>
      <trkpt lat="38.924335" lon="-9.01044">
        <ele>10.0</ele>
        <time>2019-05-16T12:15:00.929Z</time>
      </trkpt>
      <trkpt lat="38.924335" lon="-9.01044">
        <ele>10.0</ele>
        <time>2019-05-16T12:15:01.933Z</time>
      </trkpt>
      <trkpt lat="38.92432333" lon="-9.01031667">
        <ele>10.0</ele>
        <time>2019-05-16T12:15:02.902Z</time>
      </trkpt>
      <trkpt lat="38.92432333" lon="-9.01031667">
        <ele>10.0</ele>
        <time>2019-05-16T12:15:03.931Z</time>
      </trkpt>
      <trkpt lat="38.92432667" lon="-9.01024">
        <ele>9.0</ele>
        <time>2019-05-16T12:15:04.900Z</time>
      </trkpt>
      <trkpt lat="38.92432667" lon="-9.01024">
        <ele>9.0</ele>
        <time>2019-05-16T12:15:05.907Z</time>
      </trkpt>
      <trkpt lat="38.92432333" lon="-9.01015167">
        <ele>8.0</ele>
        <time>2019-05-16T12:15:06.917Z</time>
      </trkpt>
      <trkpt lat="38.92432333" lon="-9.01015167">
        <ele>8.0</ele>
        <time>2019-05-16T12:15:07.903Z</time>
      </trkpt>
      <trkpt lat="38.92432333" lon="-9.01004833">
        <ele>7.0</ele>
        <time>2019-05-16T12:15:08.915Z</time>
      </trkpt>
      <trkpt lat="38.92432333" lon="-9.01004833">
        <ele>7.0</ele>
        <time>2019-05-16T12:15:09.900Z</time>
      </trkpt>
      <trkpt lat="38.924325" lon="-9.009945">
        <ele>6.0</ele>
        <time>2019-05-16T12:15:10.910Z</time>
      </trkpt>
      <trkpt lat="38.924325" lon="-9.009945">
        <ele>6.0</ele>
        <time>2019-05-16T12:15:11.904Z</time>
      </trkpt>
      <trkpt lat="38.92432833" lon="-9.00984167">
        <ele>5.0</ele>
        <time>2019-05-16T12:15:12.916Z</time>
      </trkpt>
      <trkpt lat="38.92432833" lon="-9.00984167">
        <ele>5.0</ele>
        <time>2019-05-16T12:15:13.902Z</time>
      </trkpt>
      <trkpt lat="38.92434" lon="-9.00972667">
        <ele>5.0</ele>
        <time>2019-05-16T12:15:14.915Z</time>
      </trkpt>
      <trkpt lat="38.92434" lon="-9.00972667">
        <ele>5.0</ele>
        <time>2019-05-16T12:15:15.934Z</time>
      </trkpt>
      <trkpt lat="38.92437333" lon="-9.00962333">
        <ele>4.0</ele>
        <time>2019-05-16T12:15:16.916Z</time>
      </trkpt>
      <trkpt lat="38.92439167" lon="-9.00957333">
        <ele>3.0</ele>
        <time>2019-05-16T12:15:17.910Z</time>
      </trkpt>
      <trkpt lat="38.92441" lon="-9.00952333">
        <ele>3.0</ele>
        <time>2019-05-16T12:15:18.915Z</time>
      </trkpt>
      <trkpt lat="38.92441" lon="-9.00952333">
        <ele>3.0</ele>
        <time>2019-05-16T12:15:19.920Z</time>
      </trkpt>
      <trkpt lat="38.92445167" lon="-9.009415">
        <ele>3.0</ele>
        <time>2019-05-16T12:15:20.900Z</time>
      </trkpt>
      <trkpt lat="38.92445167" lon="-9.009415">
        <ele>3.0</ele>
        <time>2019-05-16T12:15:21.901Z</time>
      </trkpt>
      <trkpt lat="38.92449167" lon="-9.00930167">
        <ele>3.0</ele>
        <time>2019-05-16T12:15:22.909Z</time>
      </trkpt>
      <trkpt lat="38.92449167" lon="-9.00930167">
        <ele>3.0</ele>
        <time>2019-05-16T12:15:23.911Z</time>
      </trkpt>
      <trkpt lat="38.92453667" lon="-9.00919667">
        <ele>3.0</ele>
        <time>2019-05-16T12:15:24.931Z</time>
      </trkpt>
      <trkpt lat="38.92453667" lon="-9.00919667">
        <ele>3.0</ele>
        <time>2019-05-16T12:15:25.927Z</time>
      </trkpt>
      <trkpt lat="38.92459833" lon="-9.00912333">
        <ele>4.0</ele>
        <time>2019-05-16T12:15:26.901Z</time>
      </trkpt>
      <trkpt lat="38.92459833" lon="-9.00912333">
        <ele>4.0</ele>
        <time>2019-05-16T12:15:27.905Z</time>
      </trkpt>
      <trkpt lat="38.92468167" lon="-9.009095">
        <ele>5.0</ele>
        <time>2019-05-16T12:15:28.899Z</time>
      </trkpt>
      <trkpt lat="38.92468167" lon="-9.009095">
        <ele>5.0</ele>
        <time>2019-05-16T12:15:29.921Z</time>
      </trkpt>
      <trkpt lat="38.92477167" lon="-9.00909167">
        <ele>5.0</ele>
        <time>2019-05-16T12:15:30.904Z</time>
      </trkpt>
      <trkpt lat="38.92477167" lon="-9.00909167">
        <ele>5.0</ele>
        <time>2019-05-16T12:15:31.911Z</time>
      </trkpt>
      <trkpt lat="38.92486" lon="-9.009085">
        <ele>4.0</ele>
        <time>2019-05-16T12:15:32.925Z</time>
      </trkpt>
      <trkpt lat="38.92486" lon="-9.009085">
        <ele>4.0</ele>
        <time>2019-05-16T12:15:33.922Z</time>
      </trkpt>
      <trkpt lat="38.92495167" lon="-9.00905833">
        <ele>4.0</ele>
        <time>2019-05-16T12:15:34.903Z</time>
      </trkpt>
      <trkpt lat="38.92495167" lon="-9.00905833">
        <ele>4.0</ele>
        <time>2019-05-16T12:15:35.909Z</time>
      </trkpt>
      <trkpt lat="38.92504" lon="-9.00901833">
        <ele>4.0</ele>
        <time>2019-05-16T12:15:36.923Z</time>
      </trkpt>
      <trkpt lat="38.92504" lon="-9.00901833">
        <ele>4.0</ele>
        <time>2019-05-16T12:15:37.907Z</time>
      </trkpt>
      <trkpt lat="38.92512333" lon="-9.00896833">
        <ele>4.0</ele>
        <time>2019-05-16T12:15:38.935Z</time>
      </trkpt>
      <trkpt lat="38.92512333" lon="-9.00896833">
        <ele>4.0</ele>
        <time>2019-05-16T12:15:39.911Z</time>
      </trkpt>
      <trkpt lat="38.92520167" lon="-9.0089">
        <ele>5.0</ele>
        <time>2019-05-16T12:15:40.921Z</time>
      </trkpt>
      <trkpt lat="38.92520167" lon="-9.0089">
        <ele>5.0</ele>
        <time>2019-05-16T12:15:41.933Z</time>
      </trkpt>
      <trkpt lat="38.92527833" lon="-9.008825">
        <ele>5.0</ele>
        <time>2019-05-16T12:15:42.907Z</time>
      </trkpt>
      <trkpt lat="38.92527833" lon="-9.008825">
        <ele>5.0</ele>
        <time>2019-05-16T12:15:43.902Z</time>
      </trkpt>
      <trkpt lat="38.92535333" lon="-9.00875">
        <ele>5.0</ele>
        <time>2019-05-16T12:15:44.914Z</time>
      </trkpt>
      <trkpt lat="38.92535333" lon="-9.00875">
        <ele>5.0</ele>
        <time>2019-05-16T12:15:45.920Z</time>
      </trkpt>
      <trkpt lat="38.92539333" lon="-9.00865167">
        <ele>6.0</ele>
        <time>2019-05-16T12:15:46.931Z</time>
      </trkpt>
      <trkpt lat="38.92539333" lon="-9.00865167">
        <ele>6.0</ele>
        <time>2019-05-16T12:15:47.922Z</time>
      </trkpt>
      <trkpt lat="38.92539" lon="-9.008545">
        <ele>6.0</ele>
        <time>2019-05-16T12:15:48.936Z</time>
      </trkpt>
      <trkpt lat="38.92539" lon="-9.008545">
        <ele>6.0</ele>
        <time>2019-05-16T12:15:49.909Z</time>
      </trkpt>
      <trkpt lat="38.925355" lon="-9.00846167">
        <ele>7.0</ele>
        <time>2019-05-16T12:15:50.918Z</time>
      </trkpt>
      <trkpt lat="38.925355" lon="-9.00846167">
        <ele>7.0</ele>
        <time>2019-05-16T12:15:51.901Z</time>
      </trkpt>
      <trkpt lat="38.92531167" lon="-9.00838333">
        <ele>7.0</ele>
        <time>2019-05-16T12:15:52.909Z</time>
      </trkpt>
      <trkpt lat="38.92531167" lon="-9.00838333">
        <ele>7.0</ele>
        <time>2019-05-16T12:15:53.935Z</time>
      </trkpt>
      <trkpt lat="38.92528167" lon="-9.0083">
        <ele>7.0</ele>
        <time>2019-05-16T12:15:54.910Z</time>
      </trkpt>
      <trkpt lat="38.92528167" lon="-9.0083">
        <ele>7.0</ele>
        <time>2019-05-16T12:15:55.922Z</time>
      </trkpt>
      <trkpt lat="38.92525333" lon="-9.00822167">
        <ele>7.0</ele>
        <time>2019-05-16T12:15:56.929Z</time>
      </trkpt>
      <trkpt lat="38.92525333" lon="-9.00822167">
        <ele>7.0</ele>
        <time>2019-05-16T12:15:57.930Z</time>
      </trkpt>
      <trkpt lat="38.92522833" lon="-9.00815167">
        <ele>7.0</ele>
        <time>2019-05-16T12:15:58.909Z</time>
      </trkpt>
      <trkpt lat="38.92522833" lon="-9.00815167">
        <ele>7.0</ele>
        <time>2019-05-16T12:15:59.911Z</time>
      </trkpt>
      <trkpt lat="38.92520167" lon="-9.00809167">
        <ele>7.0</ele>
        <time>2019-05-16T12:16:00.922Z</time>
      </trkpt>
      <trkpt lat="38.92520167" lon="-9.00809167">
        <ele>7.0</ele>
        <time>2019-05-16T12:16:01.904Z</time>
      </trkpt>
      <trkpt lat="38.92517333" lon="-9.008035">
        <ele>7.0</ele>
        <time>2019-05-16T12:16:02.916Z</time>
      </trkpt>
      <trkpt lat="38.92517333" lon="-9.008035">
        <ele>7.0</ele>
        <time>2019-05-16T12:16:03.936Z</time>
      </trkpt>
      <trkpt lat="38.92517167" lon="-9.007985">
        <ele>6.0</ele>
        <time>2019-05-16T12:16:04.906Z</time>
      </trkpt>
      <trkpt lat="38.92517167" lon="-9.007985">
        <ele>6.0</ele>
        <time>2019-05-16T12:16:05.901Z</time>
      </trkpt>
      <trkpt lat="38.92519833" lon="-9.00798167">
        <ele>7.0</ele>
        <time>2019-05-16T12:16:06.934Z</time>
      </trkpt>
      <trkpt lat="38.92519833" lon="-9.00798167">
        <ele>7.0</ele>
        <time>2019-05-16T12:16:07.934Z</time>
      </trkpt>
      <trkpt lat="38.92520333" lon="-9.00798833">
        <ele>7.0</ele>
        <time>2019-05-16T12:16:08.903Z</time>
      </trkpt>
      <trkpt lat="38.92520333" lon="-9.00798833">
        <ele>7.0</ele>
        <time>2019-05-16T12:16:09.901Z</time>
      </trkpt>
      <trkpt lat="38.92520667" lon="-9.00798667">
        <ele>7.0</ele>
        <time>2019-05-16T12:16:10.920Z</time>
      </trkpt>
      <trkpt lat="38.92520667" lon="-9.00798667">
        <ele>7.0</ele>
        <time>2019-05-16T12:16:11.907Z</time>
      </trkpt>
      <trkpt lat="38.92520667" lon="-9.00798667">
        <ele>7.0</ele>
        <time>2019-05-16T12:16:12.913Z</time>
      </trkpt>
      <trkpt lat="38.92520667" lon="-9.00798667">
        <ele>7.0</ele>
        <time>2019-05-16T12:16:13.918Z</time>
      </trkpt>
      <trkpt lat="38.92520667" lon="-9.00798667">
        <ele>7.0</ele>
        <time>2019-05-16T12:16:14.924Z</time>
      </trkpt>
      <trkpt lat="38.92520667" lon="-9.00798667">
        <ele>7.0</ele>
        <time>2019-05-16T12:16:15.934Z</time>
      </trkpt>
      <trkpt lat="38.92520667" lon="-9.00798667">
        <ele>7.0</ele>
        <time>2019-05-16T12:16:16.905Z</time>
      </trkpt>
      <trkpt lat="38.92520667" lon="-9.00798667">
        <ele>7.0</ele>
        <time>2019-05-16T12:16:17.915Z</time>
      </trkpt>
      <trkpt lat="38.92520667" lon="-9.00798667">
        <ele>7.0</ele>
        <time>2019-05-16T12:16:18.919Z</time>
      </trkpt>
      <trkpt lat="38.92520667" lon="-9.00798667">
        <ele>7.0</ele>
        <time>2019-05-16T12:16:19.903Z</time>
      </trkpt>
      <trkpt lat="38.92520667" lon="-9.00798667">
        <ele>7.0</ele>
        <time>2019-05-16T12:16:20.902Z</time>
      </trkpt>
      <trkpt lat="38.92520667" lon="-9.00798667">
        <ele>7.0</ele>
        <time>2019-05-16T12:16:21.933Z</time>
      </trkpt>
      <trkpt lat="38.92520667" lon="-9.00798667">
        <ele>7.0</ele>
        <time>2019-05-16T12:16:22.899Z</time>
      </trkpt>
      <trkpt lat="38.92520667" lon="-9.00798667">
        <ele>7.0</ele>
        <time>2019-05-16T12:16:23.907Z</time>
      </trkpt>
      <trkpt lat="38.92520667" lon="-9.00798667">
        <ele>7.0</ele>
        <time>2019-05-16T12:16:24.908Z</time>
      </trkpt>
      <trkpt lat="38.92520667" lon="-9.00798667">
        <ele>7.0</ele>
        <time>2019-05-16T12:16:25.903Z</time>
      </trkpt>
      <trkpt lat="38.92520667" lon="-9.00798667">
        <ele>7.0</ele>
        <time>2019-05-16T12:16:26.906Z</time>
      </trkpt>
      <trkpt lat="38.92520667" lon="-9.00798667">
        <ele>7.0</ele>
        <time>2019-05-16T12:16:27.910Z</time>
      </trkpt>
      <trkpt lat="38.92520667" lon="-9.00798667">
        <ele>7.0</ele>
        <time>2019-05-16T12:16:28.906Z</time>
      </trkpt>
      <trkpt lat="38.92520667" lon="-9.00798667">
        <ele>7.0</ele>
        <time>2019-05-16T12:16:29.901Z</time>
      </trkpt>
      <trkpt lat="38.92520667" lon="-9.00798667">
        <ele>7.0</ele>
        <time>2019-05-16T12:16:30.906Z</time>
      </trkpt>
      <trkpt lat="38.92520667" lon="-9.00798667">
        <ele>7.0</ele>
        <time>2019-05-16T12:16:31.902Z</time>
      </trkpt>
      <trkpt lat="38.92520667" lon="-9.00798667">
        <ele>7.0</ele>
        <time>2019-05-16T12:16:32.906Z</time>
      </trkpt>
      <trkpt lat="38.92520667" lon="-9.00798667">
        <ele>7.0</ele>
        <time>2019-05-16T12:16:33.902Z</time>
      </trkpt>
      <trkpt lat="38.92520667" lon="-9.00798667">
        <ele>7.0</ele>
        <time>2019-05-16T12:16:34.906Z</time>
      </trkpt>
      <trkpt lat="38.92520667" lon="-9.00798667">
        <ele>7.0</ele>
        <time>2019-05-16T12:16:35.901Z</time>
      </trkpt>
      <trkpt lat="38.92520667" lon="-9.00798667">
        <ele>7.0</ele>
        <time>2019-05-16T12:16:36.909Z</time>
      </trkpt>
      <trkpt lat="38.92520667" lon="-9.00798667">
        <ele>7.0</ele>
        <time>2019-05-16T12:16:37.908Z</time>
      </trkpt>
      <trkpt lat="38.92520667" lon="-9.00798667">
        <ele>7.0</ele>
        <time>2019-05-16T12:16:38.912Z</time>
      </trkpt>
      <trkpt lat="38.92520667" lon="-9.00798667">
        <ele>7.0</ele>
        <time>2019-05-16T12:16:39.902Z</time>
      </trkpt>
      <trkpt lat="38.92520667" lon="-9.00798667">
        <ele>7.0</ele>
        <time>2019-05-16T12:16:40.907Z</time>
      </trkpt>
      <trkpt lat="38.92520667" lon="-9.00798667">
        <ele>7.0</ele>
        <time>2019-05-16T12:16:41.901Z</time>
      </trkpt>
      <trkpt lat="38.92520667" lon="-9.00798667">
        <ele>7.0</ele>
        <time>2019-05-16T12:16:42.929Z</time>
      </trkpt>
      <trkpt lat="38.92520667" lon="-9.00798667">
        <ele>7.0</ele>
        <time>2019-05-16T12:16:43.914Z</time>
      </trkpt>
      <trkpt lat="38.92520667" lon="-9.00798667">
        <ele>7.0</ele>
        <time>2019-05-16T12:16:44.906Z</time>
      </trkpt>
      <trkpt lat="38.92520667" lon="-9.00798667">
        <ele>7.0</ele>
        <time>2019-05-16T12:16:45.901Z</time>
      </trkpt>
      <trkpt lat="38.92520667" lon="-9.00798667">
        <ele>7.0</ele>
        <time>2019-05-16T12:16:46.906Z</time>
      </trkpt>
      <trkpt lat="38.92520667" lon="-9.00798667">
        <ele>7.0</ele>
        <time>2019-05-16T12:16:47.904Z</time>
      </trkpt>
      <trkpt lat="38.92520667" lon="-9.00798667">
        <ele>7.0</ele>
        <time>2019-05-16T12:16:48.910Z</time>
      </trkpt>
      <trkpt lat="38.92520667" lon="-9.00798667">
        <ele>7.0</ele>
        <time>2019-05-16T12:16:49.902Z</time>
      </trkpt>
      <trkpt lat="38.92520667" lon="-9.00798667">
        <ele>7.0</ele>
        <time>2019-05-16T12:16:50.906Z</time>
      </trkpt>
      <trkpt lat="38.92520667" lon="-9.00798667">
        <ele>7.0</ele>
        <time>2019-05-16T12:16:51.901Z</time>
      </trkpt>
      <trkpt lat="38.92520667" lon="-9.00798667">
        <ele>7.0</ele>
        <time>2019-05-16T12:16:52.904Z</time>
      </trkpt>
      <trkpt lat="38.92520667" lon="-9.00798667">
        <ele>7.0</ele>
        <time>2019-05-16T12:16:53.907Z</time>
      </trkpt>
      <trkpt lat="38.92520667" lon="-9.00798667">
        <ele>7.0</ele>
        <time>2019-05-16T12:16:54.908Z</time>
      </trkpt>
      <trkpt lat="38.92520667" lon="-9.00798667">
        <ele>7.0</ele>
        <time>2019-05-16T12:16:55.901Z</time>
      </trkpt>
      <trkpt lat="38.92520667" lon="-9.00798667">
        <ele>7.0</ele>
        <time>2019-05-16T12:16:56.906Z</time>
      </trkpt>
      <trkpt lat="38.92520667" lon="-9.00798667">
        <ele>7.0</ele>
        <time>2019-05-16T12:16:57.910Z</time>
      </trkpt>
      <trkpt lat="38.92520667" lon="-9.00798667">
        <ele>7.0</ele>
        <time>2019-05-16T12:16:58.910Z</time>
      </trkpt>
      <trkpt lat="38.92520667" lon="-9.00798667">
        <ele>7.0</ele>
        <time>2019-05-16T12:16:59.901Z</time>
      </trkpt>
      <trkpt lat="38.92520667" lon="-9.00798667">
        <ele>7.0</ele>
        <time>2019-05-16T12:17:00.909Z</time>
      </trkpt>
      <trkpt lat="38.92520667" lon="-9.00798667">
        <ele>7.0</ele>
        <time>2019-05-16T12:17:01.902Z</time>
      </trkpt>
      <trkpt lat="38.92520667" lon="-9.00798667">
        <ele>7.0</ele>
        <time>2019-05-16T12:17:02.927Z</time>
      </trkpt>
      <trkpt lat="38.92520667" lon="-9.00798667">
        <ele>7.0</ele>
        <time>2019-05-16T12:17:03.912Z</time>
      </trkpt>
      <trkpt lat="38.92520667" lon="-9.00798667">
        <ele>7.0</ele>
        <time>2019-05-16T12:17:04.907Z</time>
      </trkpt>
      <trkpt lat="38.92520667" lon="-9.00798667">
        <ele>7.0</ele>
        <time>2019-05-16T12:17:05.901Z</time>
      </trkpt>
      <trkpt lat="38.92520667" lon="-9.00798667">
        <ele>7.0</ele>
        <time>2019-05-16T12:17:06.908Z</time>
      </trkpt>
      <trkpt lat="38.92520667" lon="-9.00798667">
        <ele>7.0</ele>
        <time>2019-05-16T12:17:07.904Z</time>
      </trkpt>
      <trkpt lat="38.92520667" lon="-9.00798667">
        <ele>7.0</ele>
        <time>2019-05-16T12:17:08.909Z</time>
      </trkpt>
      <trkpt lat="38.92520667" lon="-9.00798667">
        <ele>7.0</ele>
        <time>2019-05-16T12:17:09.901Z</time>
      </trkpt>
      <trkpt lat="38.92520667" lon="-9.00798667">
        <ele>7.0</ele>
        <time>2019-05-16T12:17:10.906Z</time>
      </trkpt>
      <trkpt lat="38.92520667" lon="-9.00798667">
        <ele>7.0</ele>
        <time>2019-05-16T12:17:11.901Z</time>
      </trkpt>
      <trkpt lat="38.92520667" lon="-9.00798667">
        <ele>7.0</ele>
        <time>2019-05-16T12:17:12.928Z</time>
      </trkpt>
      <trkpt lat="38.92520667" lon="-9.00798667">
        <ele>7.0</ele>
        <time>2019-05-16T12:17:13.915Z</time>
      </trkpt>
      <trkpt lat="38.92520667" lon="-9.00798667">
        <ele>7.0</ele>
        <time>2019-05-16T12:17:14.901Z</time>
      </trkpt>
      <trkpt lat="38.92520667" lon="-9.00798667">
        <ele>7.0</ele>
        <time>2019-05-16T12:17:15.905Z</time>
      </trkpt>
      <trkpt lat="38.92520667" lon="-9.00798667">
        <ele>7.0</ele>
        <time>2019-05-16T12:17:16.901Z</time>
      </trkpt>
      <trkpt lat="38.92520667" lon="-9.00798667">
        <ele>7.0</ele>
        <time>2019-05-16T12:17:17.921Z</time>
      </trkpt>
      <trkpt lat="38.92520667" lon="-9.00798667">
        <ele>7.0</ele>
        <time>2019-05-16T12:17:18.909Z</time>
      </trkpt>
      <trkpt lat="38.92520667" lon="-9.00798667">
        <ele>7.0</ele>
        <time>2019-05-16T12:17:19.901Z</time>
      </trkpt>
      <trkpt lat="38.92520667" lon="-9.00798667">
        <ele>7.0</ele>
        <time>2019-05-16T12:17:20.901Z</time>
      </trkpt>
      <trkpt lat="38.92520667" lon="-9.00798667">
        <ele>7.0</ele>
        <time>2019-05-16T12:17:21.905Z</time>
      </trkpt>
      <trkpt lat="38.92520667" lon="-9.00798667">
        <ele>7.0</ele>
        <time>2019-05-16T12:17:22.911Z</time>
      </trkpt>
      <trkpt lat="38.92520667" lon="-9.00798667">
        <ele>7.0</ele>
        <time>2019-05-16T12:17:23.917Z</time>
      </trkpt>
      <trkpt lat="38.92520667" lon="-9.00798667">
        <ele>7.0</ele>
        <time>2019-05-16T12:17:24.905Z</time>
      </trkpt>
      <trkpt lat="38.92520667" lon="-9.00798667">
        <ele>7.0</ele>
        <time>2019-05-16T12:17:25.901Z</time>
      </trkpt>
      <trkpt lat="38.92520667" lon="-9.00798667">
        <ele>7.0</ele>
        <time>2019-05-16T12:17:26.907Z</time>
      </trkpt>
      <trkpt lat="38.92520667" lon="-9.00798667">
        <ele>7.0</ele>
        <time>2019-05-16T12:17:27.910Z</time>
      </trkpt>
      <trkpt lat="38.92520667" lon="-9.00798667">
        <ele>7.0</ele>
        <time>2019-05-16T12:17:28.922Z</time>
      </trkpt>
      <trkpt lat="38.92520667" lon="-9.00798667">
        <ele>7.0</ele>
        <time>2019-05-16T12:17:29.905Z</time>
      </trkpt>
      <trkpt lat="38.92520667" lon="-9.00798667">
        <ele>7.0</ele>
        <time>2019-05-16T12:17:30.910Z</time>
      </trkpt>
      <trkpt lat="38.92520667" lon="-9.00798667">
        <ele>7.0</ele>
        <time>2019-05-16T12:17:31.905Z</time>
      </trkpt>
      <trkpt lat="38.92520667" lon="-9.00798667">
        <ele>7.0</ele>
        <time>2019-05-16T12:17:32.900Z</time>
      </trkpt>
      <trkpt lat="38.92520667" lon="-9.00798667">
        <ele>7.0</ele>
        <time>2019-05-16T12:17:33.922Z</time>
      </trkpt>
      <trkpt lat="38.92520667" lon="-9.00798667">
        <ele>7.0</ele>
        <time>2019-05-16T12:17:34.908Z</time>
      </trkpt>
      <trkpt lat="38.92520667" lon="-9.00798667">
        <ele>7.0</ele>
        <time>2019-05-16T12:17:35.906Z</time>
      </trkpt>
      <trkpt lat="38.92520667" lon="-9.00798667">
        <ele>7.0</ele>
        <time>2019-05-16T12:17:36.908Z</time>
      </trkpt>
      <trkpt lat="38.92520667" lon="-9.00798667">
        <ele>7.0</ele>
        <time>2019-05-16T12:17:37.908Z</time>
      </trkpt>
      <trkpt lat="38.92520667" lon="-9.00798667">
        <ele>7.0</ele>
        <time>2019-05-16T12:17:38.910Z</time>
      </trkpt>
      <trkpt lat="38.92520667" lon="-9.00798667">
        <ele>7.0</ele>
        <time>2019-05-16T12:17:39.901Z</time>
      </trkpt>
      <trkpt lat="38.92520667" lon="-9.00798667">
        <ele>7.0</ele>
        <time>2019-05-16T12:17:40.907Z</time>
      </trkpt>
      <trkpt lat="38.92520667" lon="-9.00798667">
        <ele>7.0</ele>
        <time>2019-05-16T12:17:41.902Z</time>
      </trkpt>
      <trkpt lat="38.92520667" lon="-9.00798667">
        <ele>7.0</ele>
        <time>2019-05-16T12:17:42.936Z</time>
      </trkpt>
      <trkpt lat="38.92520667" lon="-9.00798667">
        <ele>7.0</ele>
        <time>2019-05-16T12:17:43.920Z</time>
      </trkpt>
      <trkpt lat="38.92520667" lon="-9.00798667">
        <ele>7.0</ele>
        <time>2019-05-16T12:17:44.906Z</time>
      </trkpt>
      <trkpt lat="38.92520667" lon="-9.00798667">
        <ele>7.0</ele>
        <time>2019-05-16T12:17:45.906Z</time>
      </trkpt>
      <trkpt lat="38.92520667" lon="-9.00798667">
        <ele>7.0</ele>
        <time>2019-05-16T12:17:46.906Z</time>
      </trkpt>
      <trkpt lat="38.92520667" lon="-9.00798667">
        <ele>7.0</ele>
        <time>2019-05-16T12:17:47.904Z</time>
      </trkpt>
      <trkpt lat="38.92520667" lon="-9.00798667">
        <ele>7.0</ele>
        <time>2019-05-16T12:17:48.910Z</time>
      </trkpt>
      <trkpt lat="38.92520667" lon="-9.00798667">
        <ele>7.0</ele>
        <time>2019-05-16T12:17:49.901Z</time>
      </trkpt>
      <trkpt lat="38.92520667" lon="-9.00798667">
        <ele>7.0</ele>
        <time>2019-05-16T12:17:50.906Z</time>
      </trkpt>
      <trkpt lat="38.92520667" lon="-9.00798667">
        <ele>7.0</ele>
        <time>2019-05-16T12:17:51.902Z</time>
      </trkpt>
      <trkpt lat="38.92520667" lon="-9.00798667">
        <ele>7.0</ele>
        <time>2019-05-16T12:17:52.910Z</time>
      </trkpt>
      <trkpt lat="38.92520667" lon="-9.00798667">
        <ele>7.0</ele>
        <time>2019-05-16T12:17:53.902Z</time>
      </trkpt>
      <trkpt lat="38.92520667" lon="-9.00798667">
        <ele>7.0</ele>
        <time>2019-05-16T12:17:54.908Z</time>
      </trkpt>
      <trkpt lat="38.92520667" lon="-9.00798667">
        <ele>7.0</ele>
        <time>2019-05-16T12:17:55.901Z</time>
      </trkpt>
      <trkpt lat="38.92520667" lon="-9.00798667">
        <ele>7.0</ele>
        <time>2019-05-16T12:17:56.904Z</time>
      </trkpt>
      <trkpt lat="38.92520667" lon="-9.00798667">
        <ele>7.0</ele>
        <time>2019-05-16T12:17:57.910Z</time>
      </trkpt>
      <trkpt lat="38.92520667" lon="-9.00798667">
        <ele>7.0</ele>
        <time>2019-05-16T12:17:58.909Z</time>
      </trkpt>
      <trkpt lat="38.92520667" lon="-9.00798667">
        <ele>7.0</ele>
        <time>2019-05-16T12:17:59.902Z</time>
      </trkpt>
      <trkpt lat="38.92520667" lon="-9.00798667">
        <ele>7.0</ele>
        <time>2019-05-16T12:18:00.909Z</time>
      </trkpt>
      <trkpt lat="38.92520667" lon="-9.00798667">
        <ele>7.0</ele>
        <time>2019-05-16T12:18:01.902Z</time>
      </trkpt>
      <trkpt lat="38.925215" lon="-9.00805667">
        <ele>13.0</ele>
        <time>2019-05-16T12:18:02.906Z</time>
      </trkpt>
      <trkpt lat="38.925215" lon="-9.00805667">
        <ele>13.0</ele>
        <time>2019-05-16T12:18:03.902Z</time>
      </trkpt>
      <trkpt lat="38.92523" lon="-9.00810167">
        <ele>13.0</ele>
        <time>2019-05-16T12:18:04.907Z</time>
      </trkpt>
      <trkpt lat="38.92523" lon="-9.00810167">
        <ele>13.0</ele>
        <time>2019-05-16T12:18:05.902Z</time>
      </trkpt>
      <trkpt lat="38.92525" lon="-9.00814333">
        <ele>13.0</ele>
        <time>2019-05-16T12:18:06.908Z</time>
      </trkpt>
      <trkpt lat="38.92525" lon="-9.00814333">
        <ele>13.0</ele>
        <time>2019-05-16T12:18:07.904Z</time>
      </trkpt>
      <trkpt lat="38.925275" lon="-9.00820333">
        <ele>12.0</ele>
        <time>2019-05-16T12:18:09.008Z</time>
      </trkpt>
      <trkpt lat="38.925275" lon="-9.00820333">
        <ele>12.0</ele>
        <time>2019-05-16T12:18:09.921Z</time>
      </trkpt>
      <trkpt lat="38.92529833" lon="-9.00828667">
        <ele>12.0</ele>
        <time>2019-05-16T12:18:10.932Z</time>
      </trkpt>
      <trkpt lat="38.92529833" lon="-9.00828667">
        <ele>12.0</ele>
        <time>2019-05-16T12:18:11.907Z</time>
      </trkpt>
      <trkpt lat="38.92533167" lon="-9.00837167">
        <ele>12.0</ele>
        <time>2019-05-16T12:18:12.917Z</time>
      </trkpt>
      <trkpt lat="38.92533167" lon="-9.00837167">
        <ele>12.0</ele>
        <time>2019-05-16T12:18:13.909Z</time>
      </trkpt>
      <trkpt lat="38.92537667" lon="-9.00844833">
        <ele>12.0</ele>
        <time>2019-05-16T12:18:14.917Z</time>
      </trkpt>
      <trkpt lat="38.92537667" lon="-9.00844833">
        <ele>12.0</ele>
        <time>2019-05-16T12:18:15.933Z</time>
      </trkpt>
      <trkpt lat="38.92540333" lon="-9.00852833">
        <ele>13.0</ele>
        <time>2019-05-16T12:18:16.900Z</time>
      </trkpt>
      <trkpt lat="38.92540333" lon="-9.00852833">
        <ele>13.0</ele>
        <time>2019-05-16T12:18:17.927Z</time>
      </trkpt>
      <trkpt lat="38.92542167" lon="-9.00860667">
        <ele>13.0</ele>
        <time>2019-05-16T12:18:18.940Z</time>
      </trkpt>
      <trkpt lat="38.92542167" lon="-9.00860667">
        <ele>13.0</ele>
        <time>2019-05-16T12:18:19.915Z</time>
      </trkpt>
      <trkpt lat="38.92545" lon="-9.00860833">
        <ele>13.0</ele>
        <time>2019-05-16T12:18:20.904Z</time>
      </trkpt>
      <trkpt lat="38.92545" lon="-9.00860833">
        <ele>13.0</ele>
        <time>2019-05-16T12:18:21.914Z</time>
      </trkpt>
      <trkpt lat="38.925455" lon="-9.00855833">
        <ele>13.0</ele>
        <time>2019-05-16T12:18:22.922Z</time>
      </trkpt>
      <trkpt lat="38.925455" lon="-9.00855833">
        <ele>13.0</ele>
        <time>2019-05-16T12:18:23.919Z</time>
      </trkpt>
      <trkpt lat="38.92544333" lon="-9.00850833">
        <ele>13.0</ele>
        <time>2019-05-16T12:18:24.928Z</time>
      </trkpt>
      <trkpt lat="38.92544333" lon="-9.00850833">
        <ele>13.0</ele>
        <time>2019-05-16T12:18:25.924Z</time>
      </trkpt>
      <trkpt lat="38.92542167" lon="-9.00845167">
        <ele>13.0</ele>
        <time>2019-05-16T12:18:26.898Z</time>
      </trkpt>
      <trkpt lat="38.92542167" lon="-9.00845167">
        <ele>13.0</ele>
        <time>2019-05-16T12:18:27.912Z</time>
      </trkpt>
      <trkpt lat="38.92539667" lon="-9.00839333">
        <ele>12.0</ele>
        <time>2019-05-16T12:18:28.932Z</time>
      </trkpt>
      <trkpt lat="38.92538333" lon="-9.00836">
        <ele>12.0</ele>
        <time>2019-05-16T12:18:29.898Z</time>
      </trkpt>
      <trkpt lat="38.92537167" lon="-9.008325">
        <ele>12.0</ele>
        <time>2019-05-16T12:18:30.899Z</time>
      </trkpt>
      <trkpt lat="38.92537167" lon="-9.008325">
        <ele>12.0</ele>
        <time>2019-05-16T12:18:31.911Z</time>
      </trkpt>
      <trkpt lat="38.925345" lon="-9.00825333">
        <ele>12.0</ele>
        <time>2019-05-16T12:18:32.926Z</time>
      </trkpt>
      <trkpt lat="38.925345" lon="-9.00825333">
        <ele>12.0</ele>
        <time>2019-05-16T12:18:33.918Z</time>
      </trkpt>
      <trkpt lat="38.92531833" lon="-9.00819167">
        <ele>13.0</ele>
        <time>2019-05-16T12:18:34.926Z</time>
      </trkpt>
      <trkpt lat="38.92531833" lon="-9.00819167">
        <ele>13.0</ele>
        <time>2019-05-16T12:18:35.918Z</time>
      </trkpt>
      <trkpt lat="38.925295" lon="-9.00813167">
        <ele>13.0</ele>
        <time>2019-05-16T12:18:36.930Z</time>
      </trkpt>
      <trkpt lat="38.925295" lon="-9.00813167">
        <ele>13.0</ele>
        <time>2019-05-16T12:18:37.918Z</time>
      </trkpt>
      <trkpt lat="38.92527333" lon="-9.00807333">
        <ele>13.0</ele>
        <time>2019-05-16T12:18:38.936Z</time>
      </trkpt>
      <trkpt lat="38.92527333" lon="-9.00807333">
        <ele>13.0</ele>
        <time>2019-05-16T12:18:39.901Z</time>
      </trkpt>
      <trkpt lat="38.92527333" lon="-9.00807333">
        <ele>13.0</ele>
        <time>2019-05-16T12:18:40.961Z</time>
      </trkpt>
      <trkpt lat="38.92526167" lon="-9.00801833">
        <ele>13.0</ele>
        <time>2019-05-16T12:18:41.924Z</time>
      </trkpt>
      <trkpt lat="38.92522667" lon="-9.00794167">
        <ele>14.0</ele>
        <time>2019-05-16T12:18:42.934Z</time>
      </trkpt>
      <trkpt lat="38.92522667" lon="-9.00794167">
        <ele>14.0</ele>
        <time>2019-05-16T12:18:43.911Z</time>
      </trkpt>
      <trkpt lat="38.92518667" lon="-9.00784333">
        <ele>14.0</ele>
        <time>2019-05-16T12:18:44.925Z</time>
      </trkpt>
      <trkpt lat="38.92518667" lon="-9.00784333">
        <ele>14.0</ele>
        <time>2019-05-16T12:18:45.936Z</time>
      </trkpt>
      <trkpt lat="38.92513833" lon="-9.00773667">
        <ele>15.0</ele>
        <time>2019-05-16T12:18:46.906Z</time>
      </trkpt>
      <trkpt lat="38.92513833" lon="-9.00773667">
        <ele>15.0</ele>
        <time>2019-05-16T12:18:47.911Z</time>
      </trkpt>
      <trkpt lat="38.925105" lon="-9.007645">
        <ele>15.0</ele>
        <time>2019-05-16T12:18:48.910Z</time>
      </trkpt>
      <trkpt lat="38.925105" lon="-9.007645">
        <ele>15.0</ele>
        <time>2019-05-16T12:18:49.908Z</time>
      </trkpt>
      <trkpt lat="38.92507167" lon="-9.00757167">
        <ele>15.0</ele>
        <time>2019-05-16T12:18:50.915Z</time>
      </trkpt>
      <trkpt lat="38.92507167" lon="-9.00757167">
        <ele>15.0</ele>
        <time>2019-05-16T12:18:51.911Z</time>
      </trkpt>
      <trkpt lat="38.92504" lon="-9.00750167">
        <ele>15.0</ele>
        <time>2019-05-16T12:18:52.920Z</time>
      </trkpt>
      <trkpt lat="38.92504" lon="-9.00750167">
        <ele>15.0</ele>
        <time>2019-05-16T12:18:53.934Z</time>
      </trkpt>
      <trkpt lat="38.92503" lon="-9.00743833">
        <ele>13.0</ele>
        <time>2019-05-16T12:18:54.901Z</time>
      </trkpt>
      <trkpt lat="38.92503" lon="-9.00743833">
        <ele>13.0</ele>
        <time>2019-05-16T12:18:55.923Z</time>
      </trkpt>
      <trkpt lat="38.92501667" lon="-9.00740667">
        <ele>13.0</ele>
        <time>2019-05-16T12:18:56.933Z</time>
      </trkpt>
      <trkpt lat="38.92501667" lon="-9.00740667">
        <ele>13.0</ele>
        <time>2019-05-16T12:18:57.936Z</time>
      </trkpt>
      <trkpt lat="38.92500333" lon="-9.00737167">
        <ele>14.0</ele>
        <time>2019-05-16T12:18:58.922Z</time>
      </trkpt>
      <trkpt lat="38.92500333" lon="-9.00737167">
        <ele>14.0</ele>
        <time>2019-05-16T12:18:59.911Z</time>
      </trkpt>
      <trkpt lat="38.92498167" lon="-9.00732167">
        <ele>14.0</ele>
        <time>2019-05-16T12:19:00.922Z</time>
      </trkpt>
      <trkpt lat="38.92498167" lon="-9.00732167">
        <ele>14.0</ele>
        <time>2019-05-16T12:19:01.912Z</time>
      </trkpt>
      <trkpt lat="38.92494667" lon="-9.00725333">
        <ele>14.0</ele>
        <time>2019-05-16T12:19:02.921Z</time>
      </trkpt>
      <trkpt lat="38.92494667" lon="-9.00725333">
        <ele>14.0</ele>
        <time>2019-05-16T12:19:03.897Z</time>
      </trkpt>
      <trkpt lat="38.924915" lon="-9.00718">
        <ele>15.0</ele>
        <time>2019-05-16T12:19:04.908Z</time>
      </trkpt>
      <trkpt lat="38.924915" lon="-9.00718">
        <ele>15.0</ele>
        <time>2019-05-16T12:19:05.936Z</time>
      </trkpt>
      <trkpt lat="38.92489" lon="-9.00711167">
        <ele>15.0</ele>
        <time>2019-05-16T12:19:06.903Z</time>
      </trkpt>
      <trkpt lat="38.92489" lon="-9.00711167">
        <ele>15.0</ele>
        <time>2019-05-16T12:19:07.913Z</time>
      </trkpt>
      <trkpt lat="38.92486" lon="-9.00703333">
        <ele>15.0</ele>
        <time>2019-05-16T12:19:08.920Z</time>
      </trkpt>
      <trkpt lat="38.92486" lon="-9.00703333">
        <ele>15.0</ele>
        <time>2019-05-16T12:19:09.911Z</time>
      </trkpt>
      <trkpt lat="38.924825" lon="-9.006955">
        <ele>16.0</ele>
        <time>2019-05-16T12:19:10.907Z</time>
      </trkpt>
      <trkpt lat="38.924825" lon="-9.006955">
        <ele>16.0</ele>
        <time>2019-05-16T12:19:11.934Z</time>
      </trkpt>
      <trkpt lat="38.924795" lon="-9.00687833">
        <ele>16.0</ele>
        <time>2019-05-16T12:19:12.906Z</time>
      </trkpt>
      <trkpt lat="38.924795" lon="-9.00687833">
        <ele>16.0</ele>
        <time>2019-05-16T12:19:13.897Z</time>
      </trkpt>
      <trkpt lat="38.92477333" lon="-9.0068">
        <ele>15.0</ele>
        <time>2019-05-16T12:19:14.910Z</time>
      </trkpt>
      <trkpt lat="38.92477333" lon="-9.0068">
        <ele>15.0</ele>
        <time>2019-05-16T12:19:15.909Z</time>
      </trkpt>
      <trkpt lat="38.924745" lon="-9.006735">
        <ele>15.0</ele>
        <time>2019-05-16T12:19:16.925Z</time>
      </trkpt>
      <trkpt lat="38.92472667" lon="-9.00671167">
        <ele>16.0</ele>
        <time>2019-05-16T12:19:17.922Z</time>
      </trkpt>
      <trkpt lat="38.92472667" lon="-9.00671167">
        <ele>16.0</ele>
        <time>2019-05-16T12:19:18.913Z</time>
      </trkpt>
      <trkpt lat="38.92472667" lon="-9.00668167">
        <ele>14.0</ele>
        <time>2019-05-16T12:19:19.921Z</time>
      </trkpt>
      <trkpt lat="38.92472667" lon="-9.00668167">
        <ele>14.0</ele>
        <time>2019-05-16T12:19:20.899Z</time>
      </trkpt>
      <trkpt lat="38.92474167" lon="-9.00664833">
        <ele>13.0</ele>
        <time>2019-05-16T12:19:21.915Z</time>
      </trkpt>
      <trkpt lat="38.92474167" lon="-9.00664833">
        <ele>13.0</ele>
        <time>2019-05-16T12:19:22.899Z</time>
      </trkpt>
      <trkpt lat="38.92476833" lon="-9.00659333">
        <ele>12.0</ele>
        <time>2019-05-16T12:19:23.909Z</time>
      </trkpt>
      <trkpt lat="38.92479333" lon="-9.00657667">
        <ele>12.0</ele>
        <time>2019-05-16T12:19:24.913Z</time>
      </trkpt>
      <trkpt lat="38.92479333" lon="-9.00657667">
        <ele>12.0</ele>
        <time>2019-05-16T12:19:25.897Z</time>
      </trkpt>
      <trkpt lat="38.92486" lon="-9.00653167">
        <ele>11.0</ele>
        <time>2019-05-16T12:19:26.910Z</time>
      </trkpt>
      <trkpt lat="38.924895" lon="-9.00650833">
        <ele>11.0</ele>
        <time>2019-05-16T12:19:27.919Z</time>
      </trkpt>
      <trkpt lat="38.924895" lon="-9.00650833">
        <ele>11.0</ele>
        <time>2019-05-16T12:19:28.936Z</time>
      </trkpt>
      <trkpt lat="38.92495167" lon="-9.00645167">
        <ele>11.0</ele>
        <time>2019-05-16T12:19:29.904Z</time>
      </trkpt>
      <trkpt lat="38.92498167" lon="-9.00642667">
        <ele>10.0</ele>
        <time>2019-05-16T12:19:30.930Z</time>
      </trkpt>
      <trkpt lat="38.92498167" lon="-9.00642667">
        <ele>10.0</ele>
        <time>2019-05-16T12:19:31.919Z</time>
      </trkpt>
      <trkpt lat="38.92504167" lon="-9.00638">
        <ele>10.0</ele>
        <time>2019-05-16T12:19:32.904Z</time>
      </trkpt>
      <trkpt lat="38.925075" lon="-9.00635833">
        <ele>10.0</ele>
        <time>2019-05-16T12:19:33.927Z</time>
      </trkpt>
      <trkpt lat="38.925075" lon="-9.00635833">
        <ele>10.0</ele>
        <time>2019-05-16T12:19:34.898Z</time>
      </trkpt>
      <trkpt lat="38.925075" lon="-9.00635833">
        <ele>10.0</ele>
        <time>2019-05-16T12:19:35.938Z</time>
      </trkpt>
      <trkpt lat="38.92517167" lon="-9.00629833">
        <ele>9.0</ele>
        <time>2019-05-16T12:19:36.903Z</time>
      </trkpt>
      <trkpt lat="38.92517167" lon="-9.00629833">
        <ele>9.0</ele>
        <time>2019-05-16T12:19:37.900Z</time>
      </trkpt>
      <trkpt lat="38.92523667" lon="-9.00626833">
        <ele>9.0</ele>
        <time>2019-05-16T12:19:38.931Z</time>
      </trkpt>
      <trkpt lat="38.92523667" lon="-9.00626833">
        <ele>9.0</ele>
        <time>2019-05-16T12:19:39.933Z</time>
      </trkpt>
      <trkpt lat="38.9253" lon="-9.00623333">
        <ele>8.0</ele>
        <time>2019-05-16T12:19:40.916Z</time>
      </trkpt>
      <trkpt lat="38.9253" lon="-9.00623333">
        <ele>8.0</ele>
        <time>2019-05-16T12:19:41.926Z</time>
      </trkpt>
      <trkpt lat="38.92536167" lon="-9.00619833">
        <ele>8.0</ele>
        <time>2019-05-16T12:19:42.937Z</time>
      </trkpt>
      <trkpt lat="38.92536167" lon="-9.00619833">
        <ele>8.0</ele>
        <time>2019-05-16T12:19:43.898Z</time>
      </trkpt>
      <trkpt lat="38.92542" lon="-9.00617167">
        <ele>8.0</ele>
        <time>2019-05-16T12:19:44.906Z</time>
      </trkpt>
      <trkpt lat="38.92542" lon="-9.00617167">
        <ele>8.0</ele>
        <time>2019-05-16T12:19:45.911Z</time>
      </trkpt>
      <trkpt lat="38.925475" lon="-9.006145">
        <ele>7.0</ele>
        <time>2019-05-16T12:19:46.931Z</time>
      </trkpt>
      <trkpt lat="38.925475" lon="-9.006145">
        <ele>7.0</ele>
        <time>2019-05-16T12:19:47.920Z</time>
      </trkpt>
      <trkpt lat="38.92553167" lon="-9.00615">
        <ele>7.0</ele>
        <time>2019-05-16T12:19:48.897Z</time>
      </trkpt>
      <trkpt lat="38.92553167" lon="-9.00615">
        <ele>7.0</ele>
        <time>2019-05-16T12:19:49.922Z</time>
      </trkpt>
      <trkpt lat="38.92557667" lon="-9.00619833">
        <ele>7.0</ele>
        <time>2019-05-16T12:19:50.902Z</time>
      </trkpt>
      <trkpt lat="38.92557667" lon="-9.00619833">
        <ele>7.0</ele>
        <time>2019-05-16T12:19:51.925Z</time>
      </trkpt>
      <trkpt lat="38.92560833" lon="-9.006215">
        <ele>7.0</ele>
        <time>2019-05-16T12:19:52.933Z</time>
      </trkpt>
      <trkpt lat="38.92562333" lon="-9.00621">
        <ele>8.0</ele>
        <time>2019-05-16T12:19:53.913Z</time>
      </trkpt>
      <trkpt lat="38.92564167" lon="-9.00620667">
        <ele>8.0</ele>
        <time>2019-05-16T12:19:54.922Z</time>
      </trkpt>
      <trkpt lat="38.92564167" lon="-9.00620667">
        <ele>8.0</ele>
        <time>2019-05-16T12:19:55.901Z</time>
      </trkpt>
      <trkpt lat="38.92567833" lon="-9.00621">
        <ele>8.0</ele>
        <time>2019-05-16T12:19:56.908Z</time>
      </trkpt>
      <trkpt lat="38.92567833" lon="-9.00621">
        <ele>8.0</ele>
        <time>2019-05-16T12:19:57.918Z</time>
      </trkpt>
      <trkpt lat="38.92571667" lon="-9.00620667">
        <ele>8.0</ele>
        <time>2019-05-16T12:19:58.934Z</time>
      </trkpt>
      <trkpt lat="38.92571667" lon="-9.00620667">
        <ele>8.0</ele>
        <time>2019-05-16T12:19:59.933Z</time>
      </trkpt>
      <trkpt lat="38.925755" lon="-9.00621">
        <ele>8.0</ele>
        <time>2019-05-16T12:20:00.901Z</time>
      </trkpt>
      <trkpt lat="38.925755" lon="-9.00621">
        <ele>8.0</ele>
        <time>2019-05-16T12:20:01.920Z</time>
      </trkpt>
      <trkpt lat="38.92580167" lon="-9.00621">
        <ele>7.0</ele>
        <time>2019-05-16T12:20:02.928Z</time>
      </trkpt>
      <trkpt lat="38.92582667" lon="-9.00620167">
        <ele>6.0</ele>
        <time>2019-05-16T12:20:03.935Z</time>
      </trkpt>
      <trkpt lat="38.92582667" lon="-9.00620167">
        <ele>6.0</ele>
        <time>2019-05-16T12:20:04.901Z</time>
      </trkpt>
      <trkpt lat="38.925875" lon="-9.00618">
        <ele>6.0</ele>
        <time>2019-05-16T12:20:05.914Z</time>
      </trkpt>
      <trkpt lat="38.92590333" lon="-9.006165">
        <ele>5.0</ele>
        <time>2019-05-16T12:20:06.921Z</time>
      </trkpt>
      <trkpt lat="38.92590333" lon="-9.006165">
        <ele>5.0</ele>
        <time>2019-05-16T12:20:07.911Z</time>
      </trkpt>
      <trkpt lat="38.92595167" lon="-9.00614333">
        <ele>4.0</ele>
        <time>2019-05-16T12:20:08.939Z</time>
      </trkpt>
      <trkpt lat="38.92595167" lon="-9.00614333">
        <ele>4.0</ele>
        <time>2019-05-16T12:20:09.935Z</time>
      </trkpt>
      <trkpt lat="38.926" lon="-9.006125">
        <ele>4.0</ele>
        <time>2019-05-16T12:20:10.898Z</time>
      </trkpt>
      <trkpt lat="38.926" lon="-9.006125">
        <ele>4.0</ele>
        <time>2019-05-16T12:20:11.901Z</time>
      </trkpt>
      <trkpt lat="38.92604333" lon="-9.00613">
        <ele>5.0</ele>
        <time>2019-05-16T12:20:12.920Z</time>
      </trkpt>
      <trkpt lat="38.92604333" lon="-9.00613">
        <ele>5.0</ele>
        <time>2019-05-16T12:20:13.924Z</time>
      </trkpt>
      <trkpt lat="38.92607333" lon="-9.00617">
        <ele>6.0</ele>
        <time>2019-05-16T12:20:14.935Z</time>
      </trkpt>
      <trkpt lat="38.92607333" lon="-9.00617">
        <ele>6.0</ele>
        <time>2019-05-16T12:20:15.907Z</time>
      </trkpt>
      <trkpt lat="38.92607833" lon="-9.00622833">
        <ele>7.0</ele>
        <time>2019-05-16T12:20:16.918Z</time>
      </trkpt>
      <trkpt lat="38.92607833" lon="-9.00622833">
        <ele>7.0</ele>
        <time>2019-05-16T12:20:17.938Z</time>
      </trkpt>
      <trkpt lat="38.926055" lon="-9.00625167">
        <ele>6.0</ele>
        <time>2019-05-16T12:20:18.921Z</time>
      </trkpt>
      <trkpt lat="38.926055" lon="-9.00625167">
        <ele>6.0</ele>
        <time>2019-05-16T12:20:19.926Z</time>
      </trkpt>
      <trkpt lat="38.92601333" lon="-9.00624833">
        <ele>6.0</ele>
        <time>2019-05-16T12:20:20.908Z</time>
      </trkpt>
      <trkpt lat="38.92601333" lon="-9.00624833">
        <ele>6.0</ele>
        <time>2019-05-16T12:20:21.909Z</time>
      </trkpt>
      <trkpt lat="38.92600333" lon="-9.006245">
        <ele>5.0</ele>
        <time>2019-05-16T12:20:22.917Z</time>
      </trkpt>
      <trkpt lat="38.92600333" lon="-9.006245">
        <ele>5.0</ele>
        <time>2019-05-16T12:20:23.901Z</time>
      </trkpt>
      <trkpt lat="38.92600667" lon="-9.00625">
        <ele>5.0</ele>
        <time>2019-05-16T12:20:24.919Z</time>
      </trkpt>
      <trkpt lat="38.92600667" lon="-9.00625">
        <ele>5.0</ele>
        <time>2019-05-16T12:20:25.934Z</time>
      </trkpt>
      <trkpt lat="38.92600667" lon="-9.00625">
        <ele>5.0</ele>
        <time>2019-05-16T12:20:26.901Z</time>
      </trkpt>
      <trkpt lat="38.92600667" lon="-9.00625">
        <ele>5.0</ele>
        <time>2019-05-16T12:20:27.906Z</time>
      </trkpt>
      <trkpt lat="38.92600667" lon="-9.00625">
        <ele>5.0</ele>
        <time>2019-05-16T12:20:28.913Z</time>
      </trkpt>
      <trkpt lat="38.92600667" lon="-9.00625">
        <ele>5.0</ele>
        <time>2019-05-16T12:20:29.901Z</time>
      </trkpt>
      <trkpt lat="38.92600667" lon="-9.00625">
        <ele>5.0</ele>
        <time>2019-05-16T12:20:30.908Z</time>
      </trkpt>
      <trkpt lat="38.92600667" lon="-9.00625">
        <ele>5.0</ele>
        <time>2019-05-16T12:20:31.902Z</time>
      </trkpt>
      <trkpt lat="38.92600667" lon="-9.00625">
        <ele>5.0</ele>
        <time>2019-05-16T12:20:32.907Z</time>
      </trkpt>
      <trkpt lat="38.92600667" lon="-9.00625">
        <ele>5.0</ele>
        <time>2019-05-16T12:20:33.898Z</time>
      </trkpt>
      <trkpt lat="38.92600667" lon="-9.00625">
        <ele>5.0</ele>
        <time>2019-05-16T12:20:34.927Z</time>
      </trkpt>
      <trkpt lat="38.92600667" lon="-9.00625">
        <ele>5.0</ele>
        <time>2019-05-16T12:20:35.913Z</time>
      </trkpt>
      <trkpt lat="38.92600667" lon="-9.00625">
        <ele>5.0</ele>
        <time>2019-05-16T12:20:36.907Z</time>
      </trkpt>
      <trkpt lat="38.92600667" lon="-9.00625">
        <ele>5.0</ele>
        <time>2019-05-16T12:20:37.910Z</time>
      </trkpt>
      <trkpt lat="38.92600667" lon="-9.00625">
        <ele>5.0</ele>
        <time>2019-05-16T12:20:38.910Z</time>
      </trkpt>
      <trkpt lat="38.92600667" lon="-9.00625">
        <ele>5.0</ele>
        <time>2019-05-16T12:20:39.908Z</time>
      </trkpt>
      <trkpt lat="38.92600667" lon="-9.00625">
        <ele>5.0</ele>
        <time>2019-05-16T12:20:40.906Z</time>
      </trkpt>
      <trkpt lat="38.92600667" lon="-9.00625">
        <ele>5.0</ele>
        <time>2019-05-16T12:20:41.902Z</time>
      </trkpt>
      <trkpt lat="38.92600667" lon="-9.00625">
        <ele>5.0</ele>
        <time>2019-05-16T12:20:42.908Z</time>
      </trkpt>
      <trkpt lat="38.92600667" lon="-9.00625">
        <ele>5.0</ele>
        <time>2019-05-16T12:20:43.901Z</time>
      </trkpt>
      <trkpt lat="38.92600667" lon="-9.00625">
        <ele>5.0</ele>
        <time>2019-05-16T12:20:44.927Z</time>
      </trkpt>
      <trkpt lat="38.92600667" lon="-9.00625">
        <ele>5.0</ele>
        <time>2019-05-16T12:20:45.920Z</time>
      </trkpt>
      <trkpt lat="38.92600667" lon="-9.00625">
        <ele>5.0</ele>
        <time>2019-05-16T12:20:46.908Z</time>
      </trkpt>
      <trkpt lat="38.92600667" lon="-9.00625">
        <ele>5.0</ele>
        <time>2019-05-16T12:20:47.908Z</time>
      </trkpt>
      <trkpt lat="38.92600667" lon="-9.00625">
        <ele>5.0</ele>
        <time>2019-05-16T12:20:48.912Z</time>
      </trkpt>
      <trkpt lat="38.92600667" lon="-9.00625">
        <ele>5.0</ele>
        <time>2019-05-16T12:20:49.901Z</time>
      </trkpt>
      <trkpt lat="38.92600667" lon="-9.00625">
        <ele>5.0</ele>
        <time>2019-05-16T12:20:50.905Z</time>
      </trkpt>
      <trkpt lat="38.92600667" lon="-9.00625">
        <ele>5.0</ele>
        <time>2019-05-16T12:20:51.902Z</time>
      </trkpt>
      <trkpt lat="38.92600667" lon="-9.00625">
        <ele>5.0</ele>
        <time>2019-05-16T12:20:52.900Z</time>
      </trkpt>
      <trkpt lat="38.92600667" lon="-9.00625">
        <ele>5.0</ele>
        <time>2019-05-16T12:20:53.920Z</time>
      </trkpt>
      <trkpt lat="38.92600667" lon="-9.00625">
        <ele>5.0</ele>
        <time>2019-05-16T12:20:54.907Z</time>
      </trkpt>
      <trkpt lat="38.92600667" lon="-9.00625">
        <ele>5.0</ele>
        <time>2019-05-16T12:20:55.901Z</time>
      </trkpt>
      <trkpt lat="38.92600667" lon="-9.00625">
        <ele>5.0</ele>
        <time>2019-05-16T12:20:56.906Z</time>
      </trkpt>
      <trkpt lat="38.92600667" lon="-9.00625">
        <ele>5.0</ele>
        <time>2019-05-16T12:20:57.904Z</time>
      </trkpt>
      <trkpt lat="38.92600667" lon="-9.00625">
        <ele>5.0</ele>
        <time>2019-05-16T12:20:58.909Z</time>
      </trkpt>
      <trkpt lat="38.92600667" lon="-9.00625">
        <ele>5.0</ele>
        <time>2019-05-16T12:20:59.908Z</time>
      </trkpt>
      <trkpt lat="38.92600667" lon="-9.00625">
        <ele>5.0</ele>
        <time>2019-05-16T12:21:00.910Z</time>
      </trkpt>
      <trkpt lat="38.92600667" lon="-9.00625">
        <ele>5.0</ele>
        <time>2019-05-16T12:21:01.902Z</time>
      </trkpt>
      <trkpt lat="38.92600667" lon="-9.00625">
        <ele>5.0</ele>
        <time>2019-05-16T12:21:02.907Z</time>
      </trkpt>
      <trkpt lat="38.92600667" lon="-9.00625">
        <ele>5.0</ele>
        <time>2019-05-16T12:21:03.902Z</time>
      </trkpt>
      <trkpt lat="38.92600667" lon="-9.00625">
        <ele>5.0</ele>
        <time>2019-05-16T12:21:04.898Z</time>
      </trkpt>
      <trkpt lat="38.92600667" lon="-9.00625">
        <ele>5.0</ele>
        <time>2019-05-16T12:21:05.906Z</time>
      </trkpt>
      <trkpt lat="38.92600667" lon="-9.00625">
        <ele>5.0</ele>
        <time>2019-05-16T12:21:06.906Z</time>
      </trkpt>
      <trkpt lat="38.92600667" lon="-9.00625">
        <ele>5.0</ele>
        <time>2019-05-16T12:21:07.910Z</time>
      </trkpt>
      <trkpt lat="38.92600667" lon="-9.00625">
        <ele>5.0</ele>
        <time>2019-05-16T12:21:08.912Z</time>
      </trkpt>
      <trkpt lat="38.92600667" lon="-9.00625">
        <ele>5.0</ele>
        <time>2019-05-16T12:21:09.910Z</time>
      </trkpt>
      <trkpt lat="38.92600667" lon="-9.00625">
        <ele>5.0</ele>
        <time>2019-05-16T12:21:10.906Z</time>
      </trkpt>
      <trkpt lat="38.92600667" lon="-9.00625">
        <ele>5.0</ele>
        <time>2019-05-16T12:21:11.901Z</time>
      </trkpt>
      <trkpt lat="38.92600667" lon="-9.00625">
        <ele>5.0</ele>
        <time>2019-05-16T12:21:12.908Z</time>
      </trkpt>
      <trkpt lat="38.92600667" lon="-9.00625">
        <ele>5.0</ele>
        <time>2019-05-16T12:21:13.901Z</time>
      </trkpt>
      <trkpt lat="38.92600667" lon="-9.00625">
        <ele>5.0</ele>
        <time>2019-05-16T12:21:14.899Z</time>
      </trkpt>
      <trkpt lat="38.92600667" lon="-9.00625">
        <ele>5.0</ele>
        <time>2019-05-16T12:21:15.907Z</time>
      </trkpt>
      <trkpt lat="38.92600667" lon="-9.00625">
        <ele>5.0</ele>
        <time>2019-05-16T12:21:16.902Z</time>
      </trkpt>
      <trkpt lat="38.92600667" lon="-9.00625">
        <ele>5.0</ele>
        <time>2019-05-16T12:21:17.906Z</time>
      </trkpt>
      <trkpt lat="38.92600667" lon="-9.00625">
        <ele>5.0</ele>
        <time>2019-05-16T12:21:18.909Z</time>
      </trkpt>
      <trkpt lat="38.92600667" lon="-9.00625">
        <ele>5.0</ele>
        <time>2019-05-16T12:21:19.919Z</time>
      </trkpt>
      <trkpt lat="38.92600667" lon="-9.00625">
        <ele>5.0</ele>
        <time>2019-05-16T12:21:20.901Z</time>
      </trkpt>
      <trkpt lat="38.92600667" lon="-9.00625">
        <ele>5.0</ele>
        <time>2019-05-16T12:21:21.910Z</time>
      </trkpt>
      <trkpt lat="38.92600667" lon="-9.00625">
        <ele>5.0</ele>
        <time>2019-05-16T12:21:22.916Z</time>
      </trkpt>
      <trkpt lat="38.92600667" lon="-9.00625">
        <ele>5.0</ele>
        <time>2019-05-16T12:21:23.926Z</time>
      </trkpt>
      <trkpt lat="38.92600667" lon="-9.00625">
        <ele>5.0</ele>
        <time>2019-05-16T12:21:24.915Z</time>
      </trkpt>
      <trkpt lat="38.92600667" lon="-9.00625">
        <ele>5.0</ele>
        <time>2019-05-16T12:21:25.902Z</time>
      </trkpt>
      <trkpt lat="38.92600667" lon="-9.00625">
        <ele>5.0</ele>
        <time>2019-05-16T12:21:26.906Z</time>
      </trkpt>
      <trkpt lat="38.92600667" lon="-9.00625">
        <ele>5.0</ele>
        <time>2019-05-16T12:21:27.918Z</time>
      </trkpt>
      <trkpt lat="38.92600667" lon="-9.00625">
        <ele>5.0</ele>
        <time>2019-05-16T12:21:28.913Z</time>
      </trkpt>
      <trkpt lat="38.92600667" lon="-9.00625">
        <ele>5.0</ele>
        <time>2019-05-16T12:21:29.902Z</time>
      </trkpt>
      <trkpt lat="38.92600667" lon="-9.00625">
        <ele>5.0</ele>
        <time>2019-05-16T12:21:30.908Z</time>
      </trkpt>
      <trkpt lat="38.92600667" lon="-9.00625">
        <ele>5.0</ele>
        <time>2019-05-16T12:21:31.903Z</time>
      </trkpt>
      <trkpt lat="38.92600667" lon="-9.00625">
        <ele>5.0</ele>
        <time>2019-05-16T12:21:32.907Z</time>
      </trkpt>
      <trkpt lat="38.92600667" lon="-9.00625">
        <ele>5.0</ele>
        <time>2019-05-16T12:21:33.905Z</time>
      </trkpt>
      <trkpt lat="38.92600667" lon="-9.00625">
        <ele>5.0</ele>
        <time>2019-05-16T12:21:34.907Z</time>
      </trkpt>
      <trkpt lat="38.92600667" lon="-9.00625">
        <ele>5.0</ele>
        <time>2019-05-16T12:21:35.914Z</time>
      </trkpt>
      <trkpt lat="38.92600667" lon="-9.00625">
        <ele>5.0</ele>
        <time>2019-05-16T12:21:36.908Z</time>
      </trkpt>
      <trkpt lat="38.92600667" lon="-9.00625">
        <ele>5.0</ele>
        <time>2019-05-16T12:21:37.910Z</time>
      </trkpt>
      <trkpt lat="38.92600667" lon="-9.00625">
        <ele>5.0</ele>
        <time>2019-05-16T12:21:38.914Z</time>
      </trkpt>
      <trkpt lat="38.92600667" lon="-9.00625">
        <ele>5.0</ele>
        <time>2019-05-16T12:21:39.901Z</time>
      </trkpt>
      <trkpt lat="38.92600667" lon="-9.00625">
        <ele>5.0</ele>
        <time>2019-05-16T12:21:40.904Z</time>
      </trkpt>
      <trkpt lat="38.92600667" lon="-9.00625">
        <ele>5.0</ele>
        <time>2019-05-16T12:21:41.906Z</time>
      </trkpt>
      <trkpt lat="38.92600667" lon="-9.00625">
        <ele>5.0</ele>
        <time>2019-05-16T12:21:42.906Z</time>
      </trkpt>
      <trkpt lat="38.92600667" lon="-9.00625">
        <ele>5.0</ele>
        <time>2019-05-16T12:21:43.902Z</time>
      </trkpt>
      <trkpt lat="38.92600667" lon="-9.00625">
        <ele>5.0</ele>
        <time>2019-05-16T12:21:44.928Z</time>
      </trkpt>
      <trkpt lat="38.92600667" lon="-9.00625">
        <ele>5.0</ele>
        <time>2019-05-16T12:21:45.920Z</time>
      </trkpt>
      <trkpt lat="38.92600667" lon="-9.00625">
        <ele>5.0</ele>
        <time>2019-05-16T12:21:46.906Z</time>
      </trkpt>
      <trkpt lat="38.92600667" lon="-9.00625">
        <ele>5.0</ele>
        <time>2019-05-16T12:21:47.910Z</time>
      </trkpt>
      <trkpt lat="38.92600667" lon="-9.00625">
        <ele>5.0</ele>
        <time>2019-05-16T12:21:48.914Z</time>
      </trkpt>
      <trkpt lat="38.92600667" lon="-9.00625">
        <ele>5.0</ele>
        <time>2019-05-16T12:21:49.902Z</time>
      </trkpt>
      <trkpt lat="38.92600667" lon="-9.00625">
        <ele>5.0</ele>
        <time>2019-05-16T12:21:50.907Z</time>
      </trkpt>
      <trkpt lat="38.92600667" lon="-9.00625">
        <ele>5.0</ele>
        <time>2019-05-16T12:21:51.902Z</time>
      </trkpt>
      <trkpt lat="38.92600667" lon="-9.00625">
        <ele>5.0</ele>
        <time>2019-05-16T12:21:52.906Z</time>
      </trkpt>
      <trkpt lat="38.92600667" lon="-9.00625">
        <ele>5.0</ele>
        <time>2019-05-16T12:21:53.913Z</time>
      </trkpt>
      <trkpt lat="38.92600667" lon="-9.00625">
        <ele>5.0</ele>
        <time>2019-05-16T12:21:54.909Z</time>
      </trkpt>
      <trkpt lat="38.92600667" lon="-9.00625">
        <ele>5.0</ele>
        <time>2019-05-16T12:21:55.898Z</time>
      </trkpt>
      <trkpt lat="38.92600667" lon="-9.00625">
        <ele>5.0</ele>
        <time>2019-05-16T12:21:56.923Z</time>
      </trkpt>
      <trkpt lat="38.92600667" lon="-9.00625">
        <ele>5.0</ele>
        <time>2019-05-16T12:21:57.908Z</time>
      </trkpt>
      <trkpt lat="38.92600667" lon="-9.00625">
        <ele>5.0</ele>
        <time>2019-05-16T12:21:58.913Z</time>
      </trkpt>
      <trkpt lat="38.92600667" lon="-9.00625">
        <ele>5.0</ele>
        <time>2019-05-16T12:21:59.902Z</time>
      </trkpt>
      <trkpt lat="38.92600667" lon="-9.00625">
        <ele>5.0</ele>
        <time>2019-05-16T12:22:00.909Z</time>
      </trkpt>
      <trkpt lat="38.92600667" lon="-9.00625">
        <ele>5.0</ele>
        <time>2019-05-16T12:22:01.902Z</time>
      </trkpt>
      <trkpt lat="38.92600667" lon="-9.00625">
        <ele>5.0</ele>
        <time>2019-05-16T12:22:02.904Z</time>
      </trkpt>
      <trkpt lat="38.92600667" lon="-9.00625">
        <ele>5.0</ele>
        <time>2019-05-16T12:22:03.906Z</time>
      </trkpt>
      <trkpt lat="38.92600667" lon="-9.00625">
        <ele>5.0</ele>
        <time>2019-05-16T12:22:04.898Z</time>
      </trkpt>
      <trkpt lat="38.92600667" lon="-9.00625">
        <ele>5.0</ele>
        <time>2019-05-16T12:22:05.924Z</time>
      </trkpt>
      <trkpt lat="38.92600667" lon="-9.00625">
        <ele>5.0</ele>
        <time>2019-05-16T12:22:06.916Z</time>
      </trkpt>
      <trkpt lat="38.92600667" lon="-9.00625">
        <ele>5.0</ele>
        <time>2019-05-16T12:22:07.910Z</time>
      </trkpt>
      <trkpt lat="38.92600667" lon="-9.00625">
        <ele>5.0</ele>
        <time>2019-05-16T12:22:08.922Z</time>
      </trkpt>
      <trkpt lat="38.92600667" lon="-9.00625">
        <ele>5.0</ele>
        <time>2019-05-16T12:22:09.908Z</time>
      </trkpt>
      <trkpt lat="38.92600667" lon="-9.00625">
        <ele>5.0</ele>
        <time>2019-05-16T12:22:10.924Z</time>
      </trkpt>
      <trkpt lat="38.92600667" lon="-9.00625">
        <ele>5.0</ele>
        <time>2019-05-16T12:22:11.903Z</time>
      </trkpt>
      <trkpt lat="38.92600667" lon="-9.00625">
        <ele>5.0</ele>
        <time>2019-05-16T12:22:12.907Z</time>
      </trkpt>
      <trkpt lat="38.92600667" lon="-9.00625">
        <ele>5.0</ele>
        <time>2019-05-16T12:22:13.903Z</time>
      </trkpt>
      <trkpt lat="38.92600667" lon="-9.00625">
        <ele>5.0</ele>
        <time>2019-05-16T12:22:14.906Z</time>
      </trkpt>
      <trkpt lat="38.92600667" lon="-9.00625">
        <ele>5.0</ele>
        <time>2019-05-16T12:22:15.910Z</time>
      </trkpt>
      <trkpt lat="38.92600667" lon="-9.00625">
        <ele>5.0</ele>
        <time>2019-05-16T12:22:16.907Z</time>
      </trkpt>
      <trkpt lat="38.92600667" lon="-9.00625">
        <ele>5.0</ele>
        <time>2019-05-16T12:22:17.906Z</time>
      </trkpt>
      <trkpt lat="38.92600667" lon="-9.00625">
        <ele>5.0</ele>
        <time>2019-05-16T12:22:18.917Z</time>
      </trkpt>
      <trkpt lat="38.92600667" lon="-9.00625">
        <ele>5.0</ele>
        <time>2019-05-16T12:22:19.904Z</time>
      </trkpt>
      <trkpt lat="38.92600667" lon="-9.00625">
        <ele>5.0</ele>
        <time>2019-05-16T12:22:20.936Z</time>
      </trkpt>
      <trkpt lat="38.92600667" lon="-9.00625">
        <ele>5.0</ele>
        <time>2019-05-16T12:22:21.936Z</time>
      </trkpt>
      <trkpt lat="38.92600667" lon="-9.00625">
        <ele>5.0</ele>
        <time>2019-05-16T12:22:22.902Z</time>
      </trkpt>
      <trkpt lat="38.92600667" lon="-9.00625">
        <ele>5.0</ele>
        <time>2019-05-16T12:22:23.908Z</time>
      </trkpt>
      <trkpt lat="38.92600667" lon="-9.00625">
        <ele>5.0</ele>
        <time>2019-05-16T12:22:24.914Z</time>
      </trkpt>
      <trkpt lat="38.92600667" lon="-9.00625">
        <ele>5.0</ele>
        <time>2019-05-16T12:22:25.902Z</time>
      </trkpt>
      <trkpt lat="38.92600667" lon="-9.00625">
        <ele>5.0</ele>
        <time>2019-05-16T12:22:26.907Z</time>
      </trkpt>
      <trkpt lat="38.92600667" lon="-9.00625">
        <ele>5.0</ele>
        <time>2019-05-16T12:22:27.920Z</time>
      </trkpt>
      <trkpt lat="38.92600667" lon="-9.00625">
        <ele>5.0</ele>
        <time>2019-05-16T12:22:28.916Z</time>
      </trkpt>
      <trkpt lat="38.92600667" lon="-9.00625">
        <ele>5.0</ele>
        <time>2019-05-16T12:22:29.902Z</time>
      </trkpt>
      <trkpt lat="38.92600667" lon="-9.00625">
        <ele>5.0</ele>
        <time>2019-05-16T12:22:30.909Z</time>
      </trkpt>
      <trkpt lat="38.92600667" lon="-9.00625">
        <ele>5.0</ele>
        <time>2019-05-16T12:22:31.902Z</time>
      </trkpt>
      <trkpt lat="38.92600667" lon="-9.00625">
        <ele>5.0</ele>
        <time>2019-05-16T12:22:32.907Z</time>
      </trkpt>
      <trkpt lat="38.92600667" lon="-9.00625">
        <ele>5.0</ele>
        <time>2019-05-16T12:22:33.902Z</time>
      </trkpt>
      <trkpt lat="38.92600667" lon="-9.00625">
        <ele>5.0</ele>
        <time>2019-05-16T12:22:34.906Z</time>
      </trkpt>
      <trkpt lat="38.92600667" lon="-9.00625">
        <ele>5.0</ele>
        <time>2019-05-16T12:22:35.901Z</time>
      </trkpt>
      <trkpt lat="38.92600667" lon="-9.00625">
        <ele>5.0</ele>
        <time>2019-05-16T12:22:36.909Z</time>
      </trkpt>
      <trkpt lat="38.92600667" lon="-9.00625">
        <ele>5.0</ele>
        <time>2019-05-16T12:22:37.907Z</time>
      </trkpt>
      <trkpt lat="38.92600667" lon="-9.00625">
        <ele>5.0</ele>
        <time>2019-05-16T12:22:38.913Z</time>
      </trkpt>
      <trkpt lat="38.92600667" lon="-9.00625">
        <ele>5.0</ele>
        <time>2019-05-16T12:22:39.902Z</time>
      </trkpt>
      <trkpt lat="38.92600667" lon="-9.00625">
        <ele>5.0</ele>
        <time>2019-05-16T12:22:40.905Z</time>
      </trkpt>
      <trkpt lat="38.92600667" lon="-9.00625">
        <ele>5.0</ele>
        <time>2019-05-16T12:22:41.902Z</time>
      </trkpt>
      <trkpt lat="38.92600667" lon="-9.00625">
        <ele>5.0</ele>
        <time>2019-05-16T12:22:42.909Z</time>
      </trkpt>
      <trkpt lat="38.92600667" lon="-9.00625">
        <ele>5.0</ele>
        <time>2019-05-16T12:22:43.902Z</time>
      </trkpt>
      <trkpt lat="38.92600667" lon="-9.00625">
        <ele>5.0</ele>
        <time>2019-05-16T12:22:44.906Z</time>
      </trkpt>
      <trkpt lat="38.92600667" lon="-9.00625">
        <ele>5.0</ele>
        <time>2019-05-16T12:22:45.902Z</time>
      </trkpt>
      <trkpt lat="38.92600667" lon="-9.00625">
        <ele>5.0</ele>
        <time>2019-05-16T12:22:46.907Z</time>
      </trkpt>
      <trkpt lat="38.92600667" lon="-9.00625">
        <ele>5.0</ele>
        <time>2019-05-16T12:22:47.910Z</time>
      </trkpt>
      <trkpt lat="38.92600667" lon="-9.00625">
        <ele>5.0</ele>
        <time>2019-05-16T12:22:48.910Z</time>
      </trkpt>
      <trkpt lat="38.92600667" lon="-9.00625">
        <ele>5.0</ele>
        <time>2019-05-16T12:22:49.902Z</time>
      </trkpt>
      <trkpt lat="38.92600667" lon="-9.00625">
        <ele>5.0</ele>
        <time>2019-05-16T12:22:50.906Z</time>
      </trkpt>
      <trkpt lat="38.92600667" lon="-9.00625">
        <ele>5.0</ele>
        <time>2019-05-16T12:22:51.901Z</time>
      </trkpt>
      <trkpt lat="38.92600667" lon="-9.00625">
        <ele>5.0</ele>
        <time>2019-05-16T12:22:52.906Z</time>
      </trkpt>
      <trkpt lat="38.92600667" lon="-9.00625">
        <ele>5.0</ele>
        <time>2019-05-16T12:22:53.902Z</time>
      </trkpt>
      <trkpt lat="38.92600667" lon="-9.00625">
        <ele>5.0</ele>
        <time>2019-05-16T12:22:54.929Z</time>
      </trkpt>
      <trkpt lat="38.92600667" lon="-9.00625">
        <ele>5.0</ele>
        <time>2019-05-16T12:22:55.915Z</time>
      </trkpt>
      <trkpt lat="38.92600667" lon="-9.00625">
        <ele>5.0</ele>
        <time>2019-05-16T12:22:56.906Z</time>
      </trkpt>
      <trkpt lat="38.92600667" lon="-9.00625">
        <ele>5.0</ele>
        <time>2019-05-16T12:22:57.910Z</time>
      </trkpt>
      <trkpt lat="38.92600667" lon="-9.00625">
        <ele>5.0</ele>
        <time>2019-05-16T12:22:58.911Z</time>
      </trkpt>
      <trkpt lat="38.92600667" lon="-9.00625">
        <ele>5.0</ele>
        <time>2019-05-16T12:22:59.901Z</time>
      </trkpt>
      <trkpt lat="38.92600667" lon="-9.00625">
        <ele>5.0</ele>
        <time>2019-05-16T12:23:00.909Z</time>
      </trkpt>
      <trkpt lat="38.92600667" lon="-9.00625">
        <ele>5.0</ele>
        <time>2019-05-16T12:23:01.902Z</time>
      </trkpt>
      <trkpt lat="38.92600667" lon="-9.00625">
        <ele>5.0</ele>
        <time>2019-05-16T12:23:02.907Z</time>
      </trkpt>
      <trkpt lat="38.92600667" lon="-9.00625">
        <ele>5.0</ele>
        <time>2019-05-16T12:23:03.902Z</time>
      </trkpt>
      <trkpt lat="38.92600667" lon="-9.00625">
        <ele>5.0</ele>
        <time>2019-05-16T12:23:04.907Z</time>
      </trkpt>
      <trkpt lat="38.92600667" lon="-9.00625">
        <ele>5.0</ele>
        <time>2019-05-16T12:23:05.897Z</time>
      </trkpt>
      <trkpt lat="38.92600667" lon="-9.00625">
        <ele>5.0</ele>
        <time>2019-05-16T12:23:06.922Z</time>
      </trkpt>
      <trkpt lat="38.92600667" lon="-9.00625">
        <ele>5.0</ele>
        <time>2019-05-16T12:23:07.907Z</time>
      </trkpt>
      <trkpt lat="38.92600667" lon="-9.00625">
        <ele>5.0</ele>
        <time>2019-05-16T12:23:08.915Z</time>
      </trkpt>
      <trkpt lat="38.92600667" lon="-9.00625">
        <ele>5.0</ele>
        <time>2019-05-16T12:23:09.902Z</time>
      </trkpt>
      <trkpt lat="38.92600667" lon="-9.00625">
        <ele>5.0</ele>
        <time>2019-05-16T12:23:10.906Z</time>
      </trkpt>
      <trkpt lat="38.92600667" lon="-9.00625">
        <ele>5.0</ele>
        <time>2019-05-16T12:23:11.902Z</time>
      </trkpt>
      <trkpt lat="38.92600667" lon="-9.00625">
        <ele>5.0</ele>
        <time>2019-05-16T12:23:12.909Z</time>
      </trkpt>
      <trkpt lat="38.92600667" lon="-9.00625">
        <ele>5.0</ele>
        <time>2019-05-16T12:23:13.902Z</time>
      </trkpt>
      <trkpt lat="38.92600667" lon="-9.00625">
        <ele>5.0</ele>
        <time>2019-05-16T12:23:14.907Z</time>
      </trkpt>
      <trkpt lat="38.92600667" lon="-9.00625">
        <ele>5.0</ele>
        <time>2019-05-16T12:23:15.922Z</time>
      </trkpt>
      <trkpt lat="38.92600667" lon="-9.00625">
        <ele>5.0</ele>
        <time>2019-05-16T12:23:16.910Z</time>
      </trkpt>
      <trkpt lat="38.92600667" lon="-9.00625">
        <ele>5.0</ele>
        <time>2019-05-16T12:23:17.910Z</time>
      </trkpt>
      <trkpt lat="38.92600667" lon="-9.00625">
        <ele>5.0</ele>
        <time>2019-05-16T12:23:18.911Z</time>
      </trkpt>
      <trkpt lat="38.92600667" lon="-9.00625">
        <ele>5.0</ele>
        <time>2019-05-16T12:23:19.902Z</time>
      </trkpt>
      <trkpt lat="38.92600667" lon="-9.00625">
        <ele>5.0</ele>
        <time>2019-05-16T12:23:20.902Z</time>
      </trkpt>
      <trkpt lat="38.92600667" lon="-9.00625">
        <ele>5.0</ele>
        <time>2019-05-16T12:23:21.901Z</time>
      </trkpt>
      <trkpt lat="38.92600667" lon="-9.00625">
        <ele>5.0</ele>
        <time>2019-05-16T12:23:22.907Z</time>
      </trkpt>
      <trkpt lat="38.92600667" lon="-9.00625">
        <ele>5.0</ele>
        <time>2019-05-16T12:23:23.913Z</time>
      </trkpt>
      <trkpt lat="38.92600667" lon="-9.00625">
        <ele>5.0</ele>
        <time>2019-05-16T12:23:24.919Z</time>
      </trkpt>
      <trkpt lat="38.92600667" lon="-9.00625">
        <ele>5.0</ele>
        <time>2019-05-16T12:23:25.908Z</time>
      </trkpt>
      <trkpt lat="38.92600667" lon="-9.00625">
        <ele>5.0</ele>
        <time>2019-05-16T12:23:26.909Z</time>
      </trkpt>
      <trkpt lat="38.92600667" lon="-9.00625">
        <ele>5.0</ele>
        <time>2019-05-16T12:23:27.915Z</time>
      </trkpt>
      <trkpt lat="38.92600667" lon="-9.00625">
        <ele>5.0</ele>
        <time>2019-05-16T12:23:28.914Z</time>
      </trkpt>
      <trkpt lat="38.92600667" lon="-9.00625">
        <ele>5.0</ele>
        <time>2019-05-16T12:23:29.902Z</time>
      </trkpt>
      <trkpt lat="38.92600667" lon="-9.00625">
        <ele>5.0</ele>
        <time>2019-05-16T12:23:30.911Z</time>
      </trkpt>
      <trkpt lat="38.92600667" lon="-9.00625">
        <ele>5.0</ele>
        <time>2019-05-16T12:23:31.906Z</time>
      </trkpt>
      <trkpt lat="38.92600667" lon="-9.00625">
        <ele>5.0</ele>
        <time>2019-05-16T12:23:32.920Z</time>
      </trkpt>
      <trkpt lat="38.92600667" lon="-9.00625">
        <ele>5.0</ele>
        <time>2019-05-16T12:23:33.902Z</time>
      </trkpt>
      <trkpt lat="38.92600667" lon="-9.00625">
        <ele>5.0</ele>
        <time>2019-05-16T12:23:34.907Z</time>
      </trkpt>
      <trkpt lat="38.92600667" lon="-9.00625">
        <ele>5.0</ele>
        <time>2019-05-16T12:23:35.902Z</time>
      </trkpt>
      <trkpt lat="38.92600667" lon="-9.00625">
        <ele>5.0</ele>
        <time>2019-05-16T12:23:36.911Z</time>
      </trkpt>
      <trkpt lat="38.92600667" lon="-9.00625">
        <ele>5.0</ele>
        <time>2019-05-16T12:23:37.907Z</time>
      </trkpt>
      <trkpt lat="38.92600667" lon="-9.00625">
        <ele>5.0</ele>
        <time>2019-05-16T12:23:38.915Z</time>
      </trkpt>
      <trkpt lat="38.92600667" lon="-9.00625">
        <ele>5.0</ele>
        <time>2019-05-16T12:23:39.907Z</time>
      </trkpt>
      <trkpt lat="38.92600667" lon="-9.00625">
        <ele>5.0</ele>
        <time>2019-05-16T12:23:40.905Z</time>
      </trkpt>
      <trkpt lat="38.92600667" lon="-9.00625">
        <ele>5.0</ele>
        <time>2019-05-16T12:23:41.907Z</time>
      </trkpt>
      <trkpt lat="38.92600667" lon="-9.00625">
        <ele>5.0</ele>
        <time>2019-05-16T12:23:42.904Z</time>
      </trkpt>
      <trkpt lat="38.92600667" lon="-9.00625">
        <ele>5.0</ele>
        <time>2019-05-16T12:23:43.907Z</time>
      </trkpt>
      <trkpt lat="38.92600667" lon="-9.00625">
        <ele>5.0</ele>
        <time>2019-05-16T12:23:44.905Z</time>
      </trkpt>
      <trkpt lat="38.92600667" lon="-9.00625">
        <ele>5.0</ele>
        <time>2019-05-16T12:23:45.907Z</time>
      </trkpt>
      <trkpt lat="38.92600667" lon="-9.00625">
        <ele>5.0</ele>
        <time>2019-05-16T12:23:46.902Z</time>
      </trkpt>
      <trkpt lat="38.92600667" lon="-9.00625">
        <ele>5.0</ele>
        <time>2019-05-16T12:23:47.907Z</time>
      </trkpt>
      <trkpt lat="38.92600667" lon="-9.00625">
        <ele>5.0</ele>
        <time>2019-05-16T12:23:48.907Z</time>
      </trkpt>
      <trkpt lat="38.92600667" lon="-9.00625">
        <ele>5.0</ele>
        <time>2019-05-16T12:23:49.908Z</time>
      </trkpt>
      <trkpt lat="38.92600667" lon="-9.00625">
        <ele>5.0</ele>
        <time>2019-05-16T12:23:50.902Z</time>
      </trkpt>
      <trkpt lat="38.92600667" lon="-9.00625">
        <ele>5.0</ele>
        <time>2019-05-16T12:23:51.907Z</time>
      </trkpt>
      <trkpt lat="38.92600667" lon="-9.00625">
        <ele>5.0</ele>
        <time>2019-05-16T12:23:52.907Z</time>
      </trkpt>
      <trkpt lat="38.92600667" lon="-9.00625">
        <ele>5.0</ele>
        <time>2019-05-16T12:23:53.905Z</time>
      </trkpt>
      <trkpt lat="38.92600667" lon="-9.00625">
        <ele>5.0</ele>
        <time>2019-05-16T12:23:54.909Z</time>
      </trkpt>
      <trkpt lat="38.92600667" lon="-9.00625">
        <ele>5.0</ele>
        <time>2019-05-16T12:23:55.902Z</time>
      </trkpt>
      <trkpt lat="38.92600667" lon="-9.00625">
        <ele>5.0</ele>
        <time>2019-05-16T12:23:56.928Z</time>
      </trkpt>
      <trkpt lat="38.92600667" lon="-9.00625">
        <ele>5.0</ele>
        <time>2019-05-16T12:23:57.911Z</time>
      </trkpt>
      <trkpt lat="38.92600667" lon="-9.00625">
        <ele>5.0</ele>
        <time>2019-05-16T12:23:58.914Z</time>
      </trkpt>
      <trkpt lat="38.92600667" lon="-9.00625">
        <ele>5.0</ele>
        <time>2019-05-16T12:23:59.907Z</time>
      </trkpt>
      <trkpt lat="38.92600667" lon="-9.00625">
        <ele>5.0</ele>
        <time>2019-05-16T12:24:00.909Z</time>
      </trkpt>
      <trkpt lat="38.92600667" lon="-9.00625">
        <ele>5.0</ele>
        <time>2019-05-16T12:24:01.907Z</time>
      </trkpt>
      <trkpt lat="38.92600667" lon="-9.00625">
        <ele>5.0</ele>
        <time>2019-05-16T12:24:02.907Z</time>
      </trkpt>
      <trkpt lat="38.92600667" lon="-9.00625">
        <ele>5.0</ele>
        <time>2019-05-16T12:24:03.902Z</time>
      </trkpt>
      <trkpt lat="38.92600667" lon="-9.00625">
        <ele>5.0</ele>
        <time>2019-05-16T12:24:04.907Z</time>
      </trkpt>
      <trkpt lat="38.92600667" lon="-9.00625">
        <ele>5.0</ele>
        <time>2019-05-16T12:24:05.905Z</time>
      </trkpt>
      <trkpt lat="38.92600667" lon="-9.00625">
        <ele>5.0</ele>
        <time>2019-05-16T12:24:06.909Z</time>
      </trkpt>
      <trkpt lat="38.92600667" lon="-9.00625">
        <ele>5.0</ele>
        <time>2019-05-16T12:24:07.907Z</time>
      </trkpt>
      <trkpt lat="38.92600667" lon="-9.00625">
        <ele>5.0</ele>
        <time>2019-05-16T12:24:08.912Z</time>
      </trkpt>
      <trkpt lat="38.92600667" lon="-9.00625">
        <ele>5.0</ele>
        <time>2019-05-16T12:24:09.907Z</time>
      </trkpt>
      <trkpt lat="38.92600667" lon="-9.00625">
        <ele>5.0</ele>
        <time>2019-05-16T12:24:10.902Z</time>
      </trkpt>
      <trkpt lat="38.92600667" lon="-9.00625">
        <ele>5.0</ele>
        <time>2019-05-16T12:24:11.906Z</time>
      </trkpt>
      <trkpt lat="38.92600667" lon="-9.00625">
        <ele>5.0</ele>
        <time>2019-05-16T12:24:12.930Z</time>
      </trkpt>
      <trkpt lat="38.92600667" lon="-9.00625">
        <ele>5.0</ele>
        <time>2019-05-16T12:24:13.916Z</time>
      </trkpt>
      <trkpt lat="38.92600667" lon="-9.00625">
        <ele>5.0</ele>
        <time>2019-05-16T12:24:14.902Z</time>
      </trkpt>
      <trkpt lat="38.92600667" lon="-9.00625">
        <ele>5.0</ele>
        <time>2019-05-16T12:24:15.907Z</time>
      </trkpt>
      <trkpt lat="38.92600667" lon="-9.00625">
        <ele>5.0</ele>
        <time>2019-05-16T12:24:16.902Z</time>
      </trkpt>
      <trkpt lat="38.92600667" lon="-9.00625">
        <ele>5.0</ele>
        <time>2019-05-16T12:24:17.908Z</time>
      </trkpt>
      <trkpt lat="38.92600667" lon="-9.00625">
        <ele>5.0</ele>
        <time>2019-05-16T12:24:18.912Z</time>
      </trkpt>
      <trkpt lat="38.92600667" lon="-9.00625">
        <ele>5.0</ele>
        <time>2019-05-16T12:24:19.907Z</time>
      </trkpt>
      <trkpt lat="38.92600667" lon="-9.00625">
        <ele>5.0</ele>
        <time>2019-05-16T12:24:20.910Z</time>
      </trkpt>
      <trkpt lat="38.92600667" lon="-9.00625">
        <ele>5.0</ele>
        <time>2019-05-16T12:24:21.922Z</time>
      </trkpt>
      <trkpt lat="38.92600667" lon="-9.00625">
        <ele>5.0</ele>
        <time>2019-05-16T12:24:22.932Z</time>
      </trkpt>
      <trkpt lat="38.92600667" lon="-9.00625">
        <ele>5.0</ele>
        <time>2019-05-16T12:24:23.899Z</time>
      </trkpt>
      <trkpt lat="38.92600667" lon="-9.00625">
        <ele>5.0</ele>
        <time>2019-05-16T12:24:24.925Z</time>
      </trkpt>
      <trkpt lat="38.92600667" lon="-9.00625">
        <ele>5.0</ele>
        <time>2019-05-16T12:24:25.909Z</time>
      </trkpt>
      <trkpt lat="38.92600667" lon="-9.00625">
        <ele>5.0</ele>
        <time>2019-05-16T12:24:26.907Z</time>
      </trkpt>
      <trkpt lat="38.92600667" lon="-9.00625">
        <ele>5.0</ele>
        <time>2019-05-16T12:24:27.908Z</time>
      </trkpt>
      <trkpt lat="38.92600667" lon="-9.00625">
        <ele>5.0</ele>
        <time>2019-05-16T12:24:28.913Z</time>
      </trkpt>
      <trkpt lat="38.92600667" lon="-9.00625">
        <ele>5.0</ele>
        <time>2019-05-16T12:24:29.908Z</time>
      </trkpt>
      <trkpt lat="38.92600667" lon="-9.00625">
        <ele>5.0</ele>
        <time>2019-05-16T12:24:30.909Z</time>
      </trkpt>
      <trkpt lat="38.92600667" lon="-9.00625">
        <ele>5.0</ele>
        <time>2019-05-16T12:24:31.905Z</time>
      </trkpt>
      <trkpt lat="38.92600667" lon="-9.00625">
        <ele>5.0</ele>
        <time>2019-05-16T12:24:32.907Z</time>
      </trkpt>
      <trkpt lat="38.92600667" lon="-9.00625">
        <ele>5.0</ele>
        <time>2019-05-16T12:24:33.907Z</time>
      </trkpt>
      <trkpt lat="38.92600667" lon="-9.00625">
        <ele>5.0</ele>
        <time>2019-05-16T12:24:34.906Z</time>
      </trkpt>
      <trkpt lat="38.92600667" lon="-9.00625">
        <ele>5.0</ele>
        <time>2019-05-16T12:24:35.907Z</time>
      </trkpt>
      <trkpt lat="38.92600667" lon="-9.00625">
        <ele>5.0</ele>
        <time>2019-05-16T12:24:36.907Z</time>
      </trkpt>
      <trkpt lat="38.92600667" lon="-9.00625">
        <ele>5.0</ele>
        <time>2019-05-16T12:24:37.907Z</time>
      </trkpt>
      <trkpt lat="38.92600667" lon="-9.00625">
        <ele>5.0</ele>
        <time>2019-05-16T12:24:38.915Z</time>
      </trkpt>
      <trkpt lat="38.92600667" lon="-9.00625">
        <ele>5.0</ele>
        <time>2019-05-16T12:24:39.907Z</time>
      </trkpt>
      <trkpt lat="38.92600667" lon="-9.00625">
        <ele>5.0</ele>
        <time>2019-05-16T12:24:40.905Z</time>
      </trkpt>
      <trkpt lat="38.92600667" lon="-9.00625">
        <ele>5.0</ele>
        <time>2019-05-16T12:24:41.899Z</time>
      </trkpt>
      <trkpt lat="38.92600667" lon="-9.00625">
        <ele>5.0</ele>
        <time>2019-05-16T12:24:42.925Z</time>
      </trkpt>
      <trkpt lat="38.92600667" lon="-9.00625">
        <ele>5.0</ele>
        <time>2019-05-16T12:24:43.908Z</time>
      </trkpt>
      <trkpt lat="38.92600667" lon="-9.00625">
        <ele>5.0</ele>
        <time>2019-05-16T12:24:44.907Z</time>
      </trkpt>
      <trkpt lat="38.92600667" lon="-9.00625">
        <ele>5.0</ele>
        <time>2019-05-16T12:24:45.910Z</time>
      </trkpt>
      <trkpt lat="38.92600667" lon="-9.00625">
        <ele>5.0</ele>
        <time>2019-05-16T12:24:46.902Z</time>
      </trkpt>
      <trkpt lat="38.92600667" lon="-9.00625">
        <ele>5.0</ele>
        <time>2019-05-16T12:24:47.907Z</time>
      </trkpt>
      <trkpt lat="38.92600667" lon="-9.00625">
        <ele>5.0</ele>
        <time>2019-05-16T12:24:48.908Z</time>
      </trkpt>
      <trkpt lat="38.92600667" lon="-9.00625">
        <ele>5.0</ele>
        <time>2019-05-16T12:24:49.907Z</time>
      </trkpt>
      <trkpt lat="38.92600667" lon="-9.00625">
        <ele>5.0</ele>
        <time>2019-05-16T12:24:50.907Z</time>
      </trkpt>
      <trkpt lat="38.92600667" lon="-9.00625">
        <ele>5.0</ele>
        <time>2019-05-16T12:24:51.907Z</time>
      </trkpt>
      <trkpt lat="38.92600667" lon="-9.00625">
        <ele>5.0</ele>
        <time>2019-05-16T12:24:52.902Z</time>
      </trkpt>
      <trkpt lat="38.92600667" lon="-9.00625">
        <ele>5.0</ele>
        <time>2019-05-16T12:24:53.927Z</time>
      </trkpt>
      <trkpt lat="38.92600667" lon="-9.00625">
        <ele>5.0</ele>
        <time>2019-05-16T12:24:54.926Z</time>
      </trkpt>
      <trkpt lat="38.92600667" lon="-9.00625">
        <ele>5.0</ele>
        <time>2019-05-16T12:24:55.910Z</time>
      </trkpt>
      <trkpt lat="38.92600667" lon="-9.00625">
        <ele>5.0</ele>
        <time>2019-05-16T12:24:56.898Z</time>
      </trkpt>
      <trkpt lat="38.92600667" lon="-9.00625">
        <ele>5.0</ele>
        <time>2019-05-16T12:24:57.907Z</time>
      </trkpt>
      <trkpt lat="38.92600667" lon="-9.00625">
        <ele>5.0</ele>
        <time>2019-05-16T12:24:58.905Z</time>
      </trkpt>
      <trkpt lat="38.92600667" lon="-9.00625">
        <ele>5.0</ele>
        <time>2019-05-16T12:24:59.907Z</time>
      </trkpt>
      <trkpt lat="38.92600667" lon="-9.00625">
        <ele>5.0</ele>
        <time>2019-05-16T12:25:00.904Z</time>
      </trkpt>
      <trkpt lat="38.92600667" lon="-9.00625">
        <ele>5.0</ele>
        <time>2019-05-16T12:25:01.907Z</time>
      </trkpt>
      <trkpt lat="38.92600667" lon="-9.00625">
        <ele>5.0</ele>
        <time>2019-05-16T12:25:02.905Z</time>
      </trkpt>
      <trkpt lat="38.92600667" lon="-9.00625">
        <ele>5.0</ele>
        <time>2019-05-16T12:25:03.907Z</time>
      </trkpt>
      <trkpt lat="38.92600667" lon="-9.00625">
        <ele>5.0</ele>
        <time>2019-05-16T12:25:04.902Z</time>
      </trkpt>
      <trkpt lat="38.92600667" lon="-9.00625">
        <ele>5.0</ele>
        <time>2019-05-16T12:25:05.907Z</time>
      </trkpt>
      <trkpt lat="38.92600667" lon="-9.00625">
        <ele>5.0</ele>
        <time>2019-05-16T12:25:06.900Z</time>
      </trkpt>
      <trkpt lat="38.92600667" lon="-9.00625">
        <ele>5.0</ele>
        <time>2019-05-16T12:25:07.907Z</time>
      </trkpt>
      <trkpt lat="38.92600667" lon="-9.00625">
        <ele>5.0</ele>
        <time>2019-05-16T12:25:08.909Z</time>
      </trkpt>
      <trkpt lat="38.92600667" lon="-9.00625">
        <ele>5.0</ele>
        <time>2019-05-16T12:25:09.902Z</time>
      </trkpt>
      <trkpt lat="38.92600667" lon="-9.00625">
        <ele>5.0</ele>
        <time>2019-05-16T12:25:10.907Z</time>
      </trkpt>
      <trkpt lat="38.92600667" lon="-9.00625">
        <ele>5.0</ele>
        <time>2019-05-16T12:25:11.903Z</time>
      </trkpt>
      <trkpt lat="38.92600667" lon="-9.00625">
        <ele>5.0</ele>
        <time>2019-05-16T12:25:12.910Z</time>
      </trkpt>
      <trkpt lat="38.92600667" lon="-9.00625">
        <ele>5.0</ele>
        <time>2019-05-16T12:25:13.902Z</time>
      </trkpt>
      <trkpt lat="38.92600667" lon="-9.00625">
        <ele>5.0</ele>
        <time>2019-05-16T12:25:14.927Z</time>
      </trkpt>
      <trkpt lat="38.92600667" lon="-9.00625">
        <ele>5.0</ele>
        <time>2019-05-16T12:25:15.908Z</time>
      </trkpt>
      <trkpt lat="38.92600667" lon="-9.00625">
        <ele>5.0</ele>
        <time>2019-05-16T12:25:16.915Z</time>
      </trkpt>
      <trkpt lat="38.92600667" lon="-9.00625">
        <ele>5.0</ele>
        <time>2019-05-16T12:25:17.908Z</time>
      </trkpt>
      <trkpt lat="38.92600667" lon="-9.00625">
        <ele>5.0</ele>
        <time>2019-05-16T12:25:18.914Z</time>
      </trkpt>
      <trkpt lat="38.92600667" lon="-9.00625">
        <ele>5.0</ele>
        <time>2019-05-16T12:25:19.907Z</time>
      </trkpt>
      <trkpt lat="38.92600667" lon="-9.00625">
        <ele>5.0</ele>
        <time>2019-05-16T12:25:20.920Z</time>
      </trkpt>
      <trkpt lat="38.92600667" lon="-9.00625">
        <ele>5.0</ele>
        <time>2019-05-16T12:25:21.922Z</time>
      </trkpt>
      <trkpt lat="38.92600667" lon="-9.00625">
        <ele>5.0</ele>
        <time>2019-05-16T12:25:22.928Z</time>
      </trkpt>
      <trkpt lat="38.92600667" lon="-9.00625">
        <ele>5.0</ele>
        <time>2019-05-16T12:25:23.936Z</time>
      </trkpt>
      <trkpt lat="38.92600667" lon="-9.00625">
        <ele>5.0</ele>
        <time>2019-05-16T12:25:24.904Z</time>
      </trkpt>
      <trkpt lat="38.92600667" lon="-9.00625">
        <ele>5.0</ele>
        <time>2019-05-16T12:25:25.907Z</time>
      </trkpt>
      <trkpt lat="38.92600667" lon="-9.00625">
        <ele>5.0</ele>
        <time>2019-05-16T12:25:26.907Z</time>
      </trkpt>
      <trkpt lat="38.92600667" lon="-9.00625">
        <ele>5.0</ele>
        <time>2019-05-16T12:25:27.910Z</time>
      </trkpt>
      <trkpt lat="38.92600667" lon="-9.00625">
        <ele>5.0</ele>
        <time>2019-05-16T12:25:28.922Z</time>
      </trkpt>
      <trkpt lat="38.92600667" lon="-9.00625">
        <ele>5.0</ele>
        <time>2019-05-16T12:25:29.906Z</time>
      </trkpt>
      <trkpt lat="38.92600667" lon="-9.00625">
        <ele>5.0</ele>
        <time>2019-05-16T12:25:30.909Z</time>
      </trkpt>
      <trkpt lat="38.92600667" lon="-9.00625">
        <ele>5.0</ele>
        <time>2019-05-16T12:25:31.908Z</time>
      </trkpt>
      <trkpt lat="38.92600667" lon="-9.00625">
        <ele>5.0</ele>
        <time>2019-05-16T12:25:32.907Z</time>
      </trkpt>
      <trkpt lat="38.92600667" lon="-9.00625">
        <ele>5.0</ele>
        <time>2019-05-16T12:25:33.905Z</time>
      </trkpt>
      <trkpt lat="38.92600667" lon="-9.00625">
        <ele>5.0</ele>
        <time>2019-05-16T12:25:34.907Z</time>
      </trkpt>
      <trkpt lat="38.92600667" lon="-9.00625">
        <ele>5.0</ele>
        <time>2019-05-16T12:25:35.903Z</time>
      </trkpt>
      <trkpt lat="38.92600667" lon="-9.00625">
        <ele>5.0</ele>
        <time>2019-05-16T12:25:36.909Z</time>
      </trkpt>
      <trkpt lat="38.92600667" lon="-9.00625">
        <ele>5.0</ele>
        <time>2019-05-16T12:25:37.910Z</time>
      </trkpt>
      <trkpt lat="38.92600667" lon="-9.00625">
        <ele>5.0</ele>
        <time>2019-05-16T12:25:38.913Z</time>
      </trkpt>
      <trkpt lat="38.92600667" lon="-9.00625">
        <ele>5.0</ele>
        <time>2019-05-16T12:25:39.907Z</time>
      </trkpt>
      <trkpt lat="38.92600667" lon="-9.00625">
        <ele>5.0</ele>
        <time>2019-05-16T12:25:40.908Z</time>
      </trkpt>
      <trkpt lat="38.92600667" lon="-9.00625">
        <ele>5.0</ele>
        <time>2019-05-16T12:25:41.903Z</time>
      </trkpt>
      <trkpt lat="38.92600667" lon="-9.00625">
        <ele>5.0</ele>
        <time>2019-05-16T12:25:42.909Z</time>
      </trkpt>
      <trkpt lat="38.92600667" lon="-9.00625">
        <ele>5.0</ele>
        <time>2019-05-16T12:25:43.903Z</time>
      </trkpt>
      <trkpt lat="38.92600667" lon="-9.00625">
        <ele>5.0</ele>
        <time>2019-05-16T12:25:44.907Z</time>
      </trkpt>
      <trkpt lat="38.92600667" lon="-9.00625">
        <ele>5.0</ele>
        <time>2019-05-16T12:25:45.902Z</time>
      </trkpt>
      <trkpt lat="38.92600667" lon="-9.00625">
        <ele>5.0</ele>
        <time>2019-05-16T12:25:46.907Z</time>
      </trkpt>
      <trkpt lat="38.92600667" lon="-9.00625">
        <ele>5.0</ele>
        <time>2019-05-16T12:25:47.910Z</time>
      </trkpt>
      <trkpt lat="38.92600667" lon="-9.00625">
        <ele>5.0</ele>
        <time>2019-05-16T12:25:48.921Z</time>
      </trkpt>
      <trkpt lat="38.92600667" lon="-9.00625">
        <ele>5.0</ele>
        <time>2019-05-16T12:25:49.909Z</time>
      </trkpt>
      <trkpt lat="38.92600667" lon="-9.00625">
        <ele>5.0</ele>
        <time>2019-05-16T12:25:50.905Z</time>
      </trkpt>
      <trkpt lat="38.92600667" lon="-9.00625">
        <ele>5.0</ele>
        <time>2019-05-16T12:25:51.907Z</time>
      </trkpt>
      <trkpt lat="38.92600667" lon="-9.00625">
        <ele>5.0</ele>
        <time>2019-05-16T12:25:52.905Z</time>
      </trkpt>
      <trkpt lat="38.92600667" lon="-9.00625">
        <ele>5.0</ele>
        <time>2019-05-16T12:25:53.907Z</time>
      </trkpt>
      <trkpt lat="38.92600667" lon="-9.00625">
        <ele>5.0</ele>
        <time>2019-05-16T12:25:54.910Z</time>
      </trkpt>
      <trkpt lat="38.92600667" lon="-9.00625">
        <ele>5.0</ele>
        <time>2019-05-16T12:25:55.905Z</time>
      </trkpt>
      <trkpt lat="38.92600667" lon="-9.00625">
        <ele>5.0</ele>
        <time>2019-05-16T12:25:56.905Z</time>
      </trkpt>
      <trkpt lat="38.92600667" lon="-9.00625">
        <ele>5.0</ele>
        <time>2019-05-16T12:25:57.910Z</time>
      </trkpt>
      <trkpt lat="38.92600667" lon="-9.00625">
        <ele>5.0</ele>
        <time>2019-05-16T12:25:58.913Z</time>
      </trkpt>
      <trkpt lat="38.92600667" lon="-9.00625">
        <ele>5.0</ele>
        <time>2019-05-16T12:25:59.906Z</time>
      </trkpt>
      <trkpt lat="38.92600667" lon="-9.00625">
        <ele>5.0</ele>
        <time>2019-05-16T12:26:00.910Z</time>
      </trkpt>
      <trkpt lat="38.92600667" lon="-9.00625">
        <ele>5.0</ele>
        <time>2019-05-16T12:26:01.907Z</time>
      </trkpt>
      <trkpt lat="38.92600667" lon="-9.00625">
        <ele>5.0</ele>
        <time>2019-05-16T12:26:02.905Z</time>
      </trkpt>
      <trkpt lat="38.92600667" lon="-9.00625">
        <ele>5.0</ele>
        <time>2019-05-16T12:26:03.907Z</time>
      </trkpt>
      <trkpt lat="38.92600667" lon="-9.00625">
        <ele>5.0</ele>
        <time>2019-05-16T12:26:04.903Z</time>
      </trkpt>
      <trkpt lat="38.92600667" lon="-9.00625">
        <ele>5.0</ele>
        <time>2019-05-16T12:26:05.908Z</time>
      </trkpt>
      <trkpt lat="38.92600667" lon="-9.00625">
        <ele>5.0</ele>
        <time>2019-05-16T12:26:06.909Z</time>
      </trkpt>
      <trkpt lat="38.92600667" lon="-9.00625">
        <ele>5.0</ele>
        <time>2019-05-16T12:26:07.910Z</time>
      </trkpt>
      <trkpt lat="38.92600667" lon="-9.00625">
        <ele>5.0</ele>
        <time>2019-05-16T12:26:08.925Z</time>
      </trkpt>
      <trkpt lat="38.92600667" lon="-9.00625">
        <ele>5.0</ele>
        <time>2019-05-16T12:26:09.909Z</time>
      </trkpt>
      <trkpt lat="38.92600667" lon="-9.00625">
        <ele>5.0</ele>
        <time>2019-05-16T12:26:10.905Z</time>
      </trkpt>
      <trkpt lat="38.92600667" lon="-9.00625">
        <ele>5.0</ele>
        <time>2019-05-16T12:26:11.908Z</time>
      </trkpt>
      <trkpt lat="38.92600667" lon="-9.00625">
        <ele>5.0</ele>
        <time>2019-05-16T12:26:12.920Z</time>
      </trkpt>
      <trkpt lat="38.92600667" lon="-9.00625">
        <ele>5.0</ele>
        <time>2019-05-16T12:26:13.921Z</time>
      </trkpt>
      <trkpt lat="38.92600667" lon="-9.00625">
        <ele>5.0</ele>
        <time>2019-05-16T12:26:14.908Z</time>
      </trkpt>
      <trkpt lat="38.92600667" lon="-9.00625">
        <ele>5.0</ele>
        <time>2019-05-16T12:26:15.902Z</time>
      </trkpt>
      <trkpt lat="38.92600667" lon="-9.00625">
        <ele>5.0</ele>
        <time>2019-05-16T12:26:16.906Z</time>
      </trkpt>
      <trkpt lat="38.92600667" lon="-9.00625">
        <ele>5.0</ele>
        <time>2019-05-16T12:26:17.910Z</time>
      </trkpt>
      <trkpt lat="38.92600667" lon="-9.00625">
        <ele>5.0</ele>
        <time>2019-05-16T12:26:18.916Z</time>
      </trkpt>
      <trkpt lat="38.92600667" lon="-9.00625">
        <ele>5.0</ele>
        <time>2019-05-16T12:26:19.925Z</time>
      </trkpt>
      <trkpt lat="38.92600667" lon="-9.00625">
        <ele>5.0</ele>
        <time>2019-05-16T12:26:20.931Z</time>
      </trkpt>
      <trkpt lat="38.92600667" lon="-9.00625">
        <ele>5.0</ele>
        <time>2019-05-16T12:26:21.898Z</time>
      </trkpt>
      <trkpt lat="38.92600667" lon="-9.00625">
        <ele>5.0</ele>
        <time>2019-05-16T12:26:22.904Z</time>
      </trkpt>
      <trkpt lat="38.92600667" lon="-9.00625">
        <ele>5.0</ele>
        <time>2019-05-16T12:26:23.910Z</time>
      </trkpt>
      <trkpt lat="38.92600667" lon="-9.00625">
        <ele>5.0</ele>
        <time>2019-05-16T12:26:24.916Z</time>
      </trkpt>
      <trkpt lat="38.92600667" lon="-9.00625">
        <ele>5.0</ele>
        <time>2019-05-16T12:26:25.908Z</time>
      </trkpt>
      <trkpt lat="38.92600667" lon="-9.00625">
        <ele>5.0</ele>
        <time>2019-05-16T12:26:26.903Z</time>
      </trkpt>
      <trkpt lat="38.92600667" lon="-9.00625">
        <ele>5.0</ele>
        <time>2019-05-16T12:26:27.910Z</time>
      </trkpt>
      <trkpt lat="38.92600667" lon="-9.00625">
        <ele>5.0</ele>
        <time>2019-05-16T12:26:28.915Z</time>
      </trkpt>
      <trkpt lat="38.92600667" lon="-9.00625">
        <ele>5.0</ele>
        <time>2019-05-16T12:26:29.907Z</time>
      </trkpt>
      <trkpt lat="38.92600667" lon="-9.00625">
        <ele>5.0</ele>
        <time>2019-05-16T12:26:30.904Z</time>
      </trkpt>
      <trkpt lat="38.92600667" lon="-9.00625">
        <ele>5.0</ele>
        <time>2019-05-16T12:26:31.908Z</time>
      </trkpt>
      <trkpt lat="38.92600667" lon="-9.00625">
        <ele>5.0</ele>
        <time>2019-05-16T12:26:32.903Z</time>
      </trkpt>
      <trkpt lat="38.92600667" lon="-9.00625">
        <ele>5.0</ele>
        <time>2019-05-16T12:26:33.908Z</time>
      </trkpt>
      <trkpt lat="38.92600667" lon="-9.00625">
        <ele>5.0</ele>
        <time>2019-05-16T12:26:34.905Z</time>
      </trkpt>
      <trkpt lat="38.92600667" lon="-9.00625">
        <ele>5.0</ele>
        <time>2019-05-16T12:26:35.907Z</time>
      </trkpt>
      <trkpt lat="38.92600667" lon="-9.00625">
        <ele>5.0</ele>
        <time>2019-05-16T12:26:36.904Z</time>
      </trkpt>
      <trkpt lat="38.92600667" lon="-9.00625">
        <ele>5.0</ele>
        <time>2019-05-16T12:26:37.907Z</time>
      </trkpt>
      <trkpt lat="38.92600667" lon="-9.00625">
        <ele>5.0</ele>
        <time>2019-05-16T12:26:38.915Z</time>
      </trkpt>
      <trkpt lat="38.92600667" lon="-9.00625">
        <ele>5.0</ele>
        <time>2019-05-16T12:26:39.904Z</time>
      </trkpt>
      <trkpt lat="38.92600667" lon="-9.00625">
        <ele>5.0</ele>
        <time>2019-05-16T12:26:40.903Z</time>
      </trkpt>
      <trkpt lat="38.92600667" lon="-9.00625">
        <ele>5.0</ele>
        <time>2019-05-16T12:26:41.907Z</time>
      </trkpt>
      <trkpt lat="38.92600667" lon="-9.00625">
        <ele>5.0</ele>
        <time>2019-05-16T12:26:42.904Z</time>
      </trkpt>
      <trkpt lat="38.92600667" lon="-9.00625">
        <ele>5.0</ele>
        <time>2019-05-16T12:26:43.907Z</time>
      </trkpt>
      <trkpt lat="38.92600667" lon="-9.00625">
        <ele>5.0</ele>
        <time>2019-05-16T12:26:44.902Z</time>
      </trkpt>
      <trkpt lat="38.92600667" lon="-9.00625">
        <ele>5.0</ele>
        <time>2019-05-16T12:26:45.907Z</time>
      </trkpt>
      <trkpt lat="38.92600667" lon="-9.00625">
        <ele>5.0</ele>
        <time>2019-05-16T12:26:46.905Z</time>
      </trkpt>
      <trkpt lat="38.92600667" lon="-9.00625">
        <ele>5.0</ele>
        <time>2019-05-16T12:26:47.910Z</time>
      </trkpt>
      <trkpt lat="38.92600667" lon="-9.00625">
        <ele>5.0</ele>
        <time>2019-05-16T12:26:48.925Z</time>
      </trkpt>
      <trkpt lat="38.92600667" lon="-9.00625">
        <ele>5.0</ele>
        <time>2019-05-16T12:26:49.909Z</time>
      </trkpt>
      <trkpt lat="38.92600667" lon="-9.00625">
        <ele>5.0</ele>
        <time>2019-05-16T12:26:50.902Z</time>
      </trkpt>
      <trkpt lat="38.92600667" lon="-9.00625">
        <ele>5.0</ele>
        <time>2019-05-16T12:26:51.907Z</time>
      </trkpt>
      <trkpt lat="38.92600667" lon="-9.00625">
        <ele>5.0</ele>
        <time>2019-05-16T12:26:52.908Z</time>
      </trkpt>
      <trkpt lat="38.92600667" lon="-9.00625">
        <ele>5.0</ele>
        <time>2019-05-16T12:26:53.907Z</time>
      </trkpt>
      <trkpt lat="38.92600667" lon="-9.00625">
        <ele>5.0</ele>
        <time>2019-05-16T12:26:54.904Z</time>
      </trkpt>
      <trkpt lat="38.92600667" lon="-9.00625">
        <ele>5.0</ele>
        <time>2019-05-16T12:26:55.907Z</time>
      </trkpt>
      <trkpt lat="38.92600667" lon="-9.00625">
        <ele>5.0</ele>
        <time>2019-05-16T12:26:56.908Z</time>
      </trkpt>
      <trkpt lat="38.92600667" lon="-9.00625">
        <ele>5.0</ele>
        <time>2019-05-16T12:26:57.897Z</time>
      </trkpt>
      <trkpt lat="38.92600667" lon="-9.00625">
        <ele>5.0</ele>
        <time>2019-05-16T12:26:58.911Z</time>
      </trkpt>
      <trkpt lat="38.92600667" lon="-9.00625">
        <ele>5.0</ele>
        <time>2019-05-16T12:26:59.907Z</time>
      </trkpt>
      <trkpt lat="38.92600667" lon="-9.00625">
        <ele>5.0</ele>
        <time>2019-05-16T12:27:00.905Z</time>
      </trkpt>
      <trkpt lat="38.92600667" lon="-9.00625">
        <ele>5.0</ele>
        <time>2019-05-16T12:27:01.908Z</time>
      </trkpt>
      <trkpt lat="38.92600667" lon="-9.00625">
        <ele>5.0</ele>
        <time>2019-05-16T12:27:02.907Z</time>
      </trkpt>
      <trkpt lat="38.92600667" lon="-9.00625">
        <ele>5.0</ele>
        <time>2019-05-16T12:27:03.903Z</time>
      </trkpt>
      <trkpt lat="38.92600667" lon="-9.00625">
        <ele>5.0</ele>
        <time>2019-05-16T12:27:04.907Z</time>
      </trkpt>
      <trkpt lat="38.92600667" lon="-9.00625">
        <ele>5.0</ele>
        <time>2019-05-16T12:27:05.905Z</time>
      </trkpt>
      <trkpt lat="38.92600667" lon="-9.00625">
        <ele>5.0</ele>
        <time>2019-05-16T12:27:06.909Z</time>
      </trkpt>
      <trkpt lat="38.92600667" lon="-9.00625">
        <ele>5.0</ele>
        <time>2019-05-16T12:27:07.897Z</time>
      </trkpt>
      <trkpt lat="38.92600667" lon="-9.00625">
        <ele>5.0</ele>
        <time>2019-05-16T12:27:08.920Z</time>
      </trkpt>
      <trkpt lat="38.92600667" lon="-9.00625">
        <ele>5.0</ele>
        <time>2019-05-16T12:27:09.907Z</time>
      </trkpt>
      <trkpt lat="38.92600667" lon="-9.00625">
        <ele>5.0</ele>
        <time>2019-05-16T12:27:10.903Z</time>
      </trkpt>
      <trkpt lat="38.92600667" lon="-9.00625">
        <ele>5.0</ele>
        <time>2019-05-16T12:27:11.907Z</time>
      </trkpt>
      <trkpt lat="38.92600667" lon="-9.00625">
        <ele>5.0</ele>
        <time>2019-05-16T12:27:12.930Z</time>
      </trkpt>
      <trkpt lat="38.92600667" lon="-9.00625">
        <ele>5.0</ele>
        <time>2019-05-16T12:27:13.908Z</time>
      </trkpt>
      <trkpt lat="38.92600667" lon="-9.00625">
        <ele>5.0</ele>
        <time>2019-05-16T12:27:14.928Z</time>
      </trkpt>
      <trkpt lat="38.92600667" lon="-9.00625">
        <ele>5.0</ele>
        <time>2019-05-16T12:27:15.914Z</time>
      </trkpt>
      <trkpt lat="38.92600667" lon="-9.00625">
        <ele>5.0</ele>
        <time>2019-05-16T12:27:16.905Z</time>
      </trkpt>
      <trkpt lat="38.92600667" lon="-9.00625">
        <ele>5.0</ele>
        <time>2019-05-16T12:27:17.915Z</time>
      </trkpt>
      <trkpt lat="38.92600667" lon="-9.00625">
        <ele>5.0</ele>
        <time>2019-05-16T12:27:18.920Z</time>
      </trkpt>
      <trkpt lat="38.92600667" lon="-9.00625">
        <ele>5.0</ele>
        <time>2019-05-16T12:27:19.908Z</time>
      </trkpt>
      <trkpt lat="38.92600667" lon="-9.00625">
        <ele>5.0</ele>
        <time>2019-05-16T12:27:20.902Z</time>
      </trkpt>
      <trkpt lat="38.92600667" lon="-9.00625">
        <ele>5.0</ele>
        <time>2019-05-16T12:27:21.910Z</time>
      </trkpt>
      <trkpt lat="38.92600667" lon="-9.00625">
        <ele>5.0</ele>
        <time>2019-05-16T12:27:22.916Z</time>
      </trkpt>
      <trkpt lat="38.92600667" lon="-9.00625">
        <ele>5.0</ele>
        <time>2019-05-16T12:27:23.922Z</time>
      </trkpt>
      <trkpt lat="38.92600667" lon="-9.00625">
        <ele>5.0</ele>
        <time>2019-05-16T12:27:24.929Z</time>
      </trkpt>
      <trkpt lat="38.92600667" lon="-9.00625">
        <ele>5.0</ele>
        <time>2019-05-16T12:27:25.914Z</time>
      </trkpt>
      <trkpt lat="38.92600667" lon="-9.00625">
        <ele>5.0</ele>
        <time>2019-05-16T12:27:26.908Z</time>
      </trkpt>
      <trkpt lat="38.92600667" lon="-9.00625">
        <ele>5.0</ele>
        <time>2019-05-16T12:27:27.905Z</time>
      </trkpt>
      <trkpt lat="38.92600667" lon="-9.00625">
        <ele>5.0</ele>
        <time>2019-05-16T12:27:28.923Z</time>
      </trkpt>
      <trkpt lat="38.92600667" lon="-9.00625">
        <ele>5.0</ele>
        <time>2019-05-16T12:27:29.910Z</time>
      </trkpt>
      <trkpt lat="38.92600667" lon="-9.00625">
        <ele>5.0</ele>
        <time>2019-05-16T12:27:30.905Z</time>
      </trkpt>
      <trkpt lat="38.92600667" lon="-9.00625">
        <ele>5.0</ele>
        <time>2019-05-16T12:27:31.908Z</time>
      </trkpt>
      <trkpt lat="38.92600667" lon="-9.00625">
        <ele>5.0</ele>
        <time>2019-05-16T12:27:32.903Z</time>
      </trkpt>
      <trkpt lat="38.92600667" lon="-9.00625">
        <ele>5.0</ele>
        <time>2019-05-16T12:27:33.927Z</time>
      </trkpt>
      <trkpt lat="38.92600667" lon="-9.00625">
        <ele>5.0</ele>
        <time>2019-05-16T12:27:34.913Z</time>
      </trkpt>
      <trkpt lat="38.92600667" lon="-9.00625">
        <ele>5.0</ele>
        <time>2019-05-16T12:27:35.907Z</time>
      </trkpt>
      <trkpt lat="38.92600667" lon="-9.00625">
        <ele>5.0</ele>
        <time>2019-05-16T12:27:36.904Z</time>
      </trkpt>
      <trkpt lat="38.92600667" lon="-9.00625">
        <ele>5.0</ele>
        <time>2019-05-16T12:27:37.908Z</time>
      </trkpt>
      <trkpt lat="38.92600667" lon="-9.00625">
        <ele>5.0</ele>
        <time>2019-05-16T12:27:38.908Z</time>
      </trkpt>
      <trkpt lat="38.92600667" lon="-9.00625">
        <ele>5.0</ele>
        <time>2019-05-16T12:27:39.906Z</time>
      </trkpt>
      <trkpt lat="38.92600667" lon="-9.00625">
        <ele>5.0</ele>
        <time>2019-05-16T12:27:40.905Z</time>
      </trkpt>
      <trkpt lat="38.92600667" lon="-9.00625">
        <ele>5.0</ele>
        <time>2019-05-16T12:27:41.907Z</time>
      </trkpt>
      <trkpt lat="38.92600667" lon="-9.00625">
        <ele>5.0</ele>
        <time>2019-05-16T12:27:42.904Z</time>
      </trkpt>
      <trkpt lat="38.92600667" lon="-9.00625">
        <ele>5.0</ele>
        <time>2019-05-16T12:27:43.907Z</time>
      </trkpt>
      <trkpt lat="38.92600667" lon="-9.00625">
        <ele>5.0</ele>
        <time>2019-05-16T12:27:44.904Z</time>
      </trkpt>
      <trkpt lat="38.92600667" lon="-9.00625">
        <ele>5.0</ele>
        <time>2019-05-16T12:27:45.908Z</time>
      </trkpt>
      <trkpt lat="38.92600667" lon="-9.00625">
        <ele>5.0</ele>
        <time>2019-05-16T12:27:46.905Z</time>
      </trkpt>
      <trkpt lat="38.92600667" lon="-9.00625">
        <ele>5.0</ele>
        <time>2019-05-16T12:27:47.908Z</time>
      </trkpt>
      <trkpt lat="38.92609667" lon="-9.00623333">
        <ele>2.0</ele>
        <time>2019-05-16T12:27:48.924Z</time>
      </trkpt>
      <trkpt lat="38.92609667" lon="-9.00623333">
        <ele>2.0</ele>
        <time>2019-05-16T12:27:49.908Z</time>
      </trkpt>
      <trkpt lat="38.92611333" lon="-9.00622667">
        <ele>2.0</ele>
        <time>2019-05-16T12:27:50.908Z</time>
      </trkpt>
      <trkpt lat="38.92612333" lon="-9.00622333">
        <ele>2.0</ele>
        <time>2019-05-16T12:27:51.969Z</time>
      </trkpt>
      <trkpt lat="38.92612333" lon="-9.00622333">
        <ele>2.0</ele>
        <time>2019-05-16T12:27:52.911Z</time>
      </trkpt>
      <trkpt lat="38.92612333" lon="-9.00622333">
        <ele>2.0</ele>
        <time>2019-05-16T12:27:53.931Z</time>
      </trkpt>
      <trkpt lat="38.92612333" lon="-9.00622333">
        <ele>2.0</ele>
        <time>2019-05-16T12:27:54.920Z</time>
      </trkpt>
      <trkpt lat="38.92612333" lon="-9.00622333">
        <ele>2.0</ele>
        <time>2019-05-16T12:27:55.906Z</time>
      </trkpt>
      <trkpt lat="38.92612333" lon="-9.00622333">
        <ele>2.0</ele>
        <time>2019-05-16T12:27:56.912Z</time>
      </trkpt>
      <trkpt lat="38.92612333" lon="-9.00622333">
        <ele>2.0</ele>
        <time>2019-05-16T12:27:57.917Z</time>
      </trkpt>
      <trkpt lat="38.92612333" lon="-9.00622333">
        <ele>2.0</ele>
        <time>2019-05-16T12:27:58.924Z</time>
      </trkpt>
      <trkpt lat="38.92612333" lon="-9.00622333">
        <ele>2.0</ele>
        <time>2019-05-16T12:27:59.916Z</time>
      </trkpt>
      <trkpt lat="38.92612333" lon="-9.00622333">
        <ele>2.0</ele>
        <time>2019-05-16T12:28:00.910Z</time>
      </trkpt>
      <trkpt lat="38.92612333" lon="-9.00622333">
        <ele>2.0</ele>
        <time>2019-05-16T12:28:01.908Z</time>
      </trkpt>
      <trkpt lat="38.92612333" lon="-9.00622333">
        <ele>2.0</ele>
        <time>2019-05-16T12:28:02.903Z</time>
      </trkpt>
      <trkpt lat="38.92612333" lon="-9.00622333">
        <ele>2.0</ele>
        <time>2019-05-16T12:28:03.907Z</time>
      </trkpt>
      <trkpt lat="38.92612333" lon="-9.00622333">
        <ele>2.0</ele>
        <time>2019-05-16T12:28:04.900Z</time>
      </trkpt>
      <trkpt lat="38.92612333" lon="-9.00622333">
        <ele>2.0</ele>
        <time>2019-05-16T12:28:05.924Z</time>
      </trkpt>
      <trkpt lat="38.92612333" lon="-9.00622333">
        <ele>2.0</ele>
        <time>2019-05-16T12:28:06.908Z</time>
      </trkpt>
      <trkpt lat="38.92612333" lon="-9.00622333">
        <ele>2.0</ele>
        <time>2019-05-16T12:28:07.935Z</time>
      </trkpt>
      <trkpt lat="38.92612333" lon="-9.00622333">
        <ele>2.0</ele>
        <time>2019-05-16T12:28:08.922Z</time>
      </trkpt>
      <trkpt lat="38.92612333" lon="-9.00622333">
        <ele>2.0</ele>
        <time>2019-05-16T12:28:09.908Z</time>
      </trkpt>
      <trkpt lat="38.92612333" lon="-9.00622333">
        <ele>2.0</ele>
        <time>2019-05-16T12:28:10.905Z</time>
      </trkpt>
      <trkpt lat="38.92612333" lon="-9.00622333">
        <ele>2.0</ele>
        <time>2019-05-16T12:28:11.907Z</time>
      </trkpt>
      <trkpt lat="38.92612333" lon="-9.00622333">
        <ele>2.0</ele>
        <time>2019-05-16T12:28:12.905Z</time>
      </trkpt>
      <trkpt lat="38.92612333" lon="-9.00622333">
        <ele>2.0</ele>
        <time>2019-05-16T12:28:13.907Z</time>
      </trkpt>
      <trkpt lat="38.92612333" lon="-9.00622333">
        <ele>2.0</ele>
        <time>2019-05-16T12:28:14.904Z</time>
      </trkpt>
      <trkpt lat="38.92612333" lon="-9.00622333">
        <ele>2.0</ele>
        <time>2019-05-16T12:28:15.908Z</time>
      </trkpt>
      <trkpt lat="38.92612333" lon="-9.00622333">
        <ele>2.0</ele>
        <time>2019-05-16T12:28:16.906Z</time>
      </trkpt>
      <trkpt lat="38.92612333" lon="-9.00622333">
        <ele>2.0</ele>
        <time>2019-05-16T12:28:17.907Z</time>
      </trkpt>
      <trkpt lat="38.92612333" lon="-9.00622333">
        <ele>2.0</ele>
        <time>2019-05-16T12:28:18.909Z</time>
      </trkpt>
      <trkpt lat="38.92621667" lon="-9.00622">
        <ele>2.0</ele>
        <time>2019-05-16T12:28:19.908Z</time>
      </trkpt>
      <trkpt lat="38.92621667" lon="-9.00622">
        <ele>2.0</ele>
        <time>2019-05-16T12:28:20.911Z</time>
      </trkpt>
      <trkpt lat="38.926235" lon="-9.00622">
        <ele>2.0</ele>
        <time>2019-05-16T12:28:21.915Z</time>
      </trkpt>
      <trkpt lat="38.926235" lon="-9.00622">
        <ele>2.0</ele>
        <time>2019-05-16T12:28:22.915Z</time>
      </trkpt>
      <trkpt lat="38.926235" lon="-9.00622167">
        <ele>2.0</ele>
        <time>2019-05-16T12:28:23.929Z</time>
      </trkpt>
      <trkpt lat="38.926235" lon="-9.00622167">
        <ele>2.0</ele>
        <time>2019-05-16T12:28:24.933Z</time>
      </trkpt>
      <trkpt lat="38.926235" lon="-9.00622167">
        <ele>2.0</ele>
        <time>2019-05-16T12:28:25.903Z</time>
      </trkpt>
      <trkpt lat="38.926235" lon="-9.00622167">
        <ele>2.0</ele>
        <time>2019-05-16T12:28:26.928Z</time>
      </trkpt>
      <trkpt lat="38.926235" lon="-9.00622167">
        <ele>2.0</ele>
        <time>2019-05-16T12:28:27.897Z</time>
      </trkpt>
      <trkpt lat="38.926235" lon="-9.00622167">
        <ele>2.0</ele>
        <time>2019-05-16T12:28:28.921Z</time>
      </trkpt>
      <trkpt lat="38.926235" lon="-9.00622167">
        <ele>2.0</ele>
        <time>2019-05-16T12:28:29.927Z</time>
      </trkpt>
      <trkpt lat="38.926235" lon="-9.00622167">
        <ele>2.0</ele>
        <time>2019-05-16T12:28:30.897Z</time>
      </trkpt>
      <trkpt lat="38.926235" lon="-9.00622167">
        <ele>2.0</ele>
        <time>2019-05-16T12:28:31.903Z</time>
      </trkpt>
      <trkpt lat="38.926235" lon="-9.00622167">
        <ele>2.0</ele>
        <time>2019-05-16T12:28:32.908Z</time>
      </trkpt>
      <trkpt lat="38.926235" lon="-9.00622167">
        <ele>2.0</ele>
        <time>2019-05-16T12:28:33.914Z</time>
      </trkpt>
      <trkpt lat="38.926235" lon="-9.00622167">
        <ele>2.0</ele>
        <time>2019-05-16T12:28:34.906Z</time>
      </trkpt>
      <trkpt lat="38.926235" lon="-9.00622167">
        <ele>2.0</ele>
        <time>2019-05-16T12:28:35.909Z</time>
      </trkpt>
      <trkpt lat="38.926235" lon="-9.00622167">
        <ele>2.0</ele>
        <time>2019-05-16T12:28:36.903Z</time>
      </trkpt>
      <trkpt lat="38.926235" lon="-9.00622167">
        <ele>2.0</ele>
        <time>2019-05-16T12:28:37.908Z</time>
      </trkpt>
      <trkpt lat="38.926235" lon="-9.00622167">
        <ele>2.0</ele>
        <time>2019-05-16T12:28:38.911Z</time>
      </trkpt>
      <trkpt lat="38.926235" lon="-9.00622167">
        <ele>2.0</ele>
        <time>2019-05-16T12:28:39.905Z</time>
      </trkpt>
      <trkpt lat="38.926235" lon="-9.00622167">
        <ele>2.0</ele>
        <time>2019-05-16T12:28:40.907Z</time>
      </trkpt>
      <trkpt lat="38.926235" lon="-9.00622167">
        <ele>2.0</ele>
        <time>2019-05-16T12:28:41.905Z</time>
      </trkpt>
      <trkpt lat="38.926235" lon="-9.00622167">
        <ele>2.0</ele>
        <time>2019-05-16T12:28:42.915Z</time>
      </trkpt>
      <trkpt lat="38.926235" lon="-9.00622167">
        <ele>2.0</ele>
        <time>2019-05-16T12:28:43.908Z</time>
      </trkpt>
      <trkpt lat="38.926235" lon="-9.00622167">
        <ele>2.0</ele>
        <time>2019-05-16T12:28:44.905Z</time>
      </trkpt>
      <trkpt lat="38.926235" lon="-9.00622167">
        <ele>2.0</ele>
        <time>2019-05-16T12:28:45.908Z</time>
      </trkpt>
      <trkpt lat="38.926235" lon="-9.00622167">
        <ele>2.0</ele>
        <time>2019-05-16T12:28:46.906Z</time>
      </trkpt>
      <trkpt lat="38.926235" lon="-9.00622167">
        <ele>2.0</ele>
        <time>2019-05-16T12:28:47.908Z</time>
      </trkpt>
      <trkpt lat="38.926235" lon="-9.00622167">
        <ele>2.0</ele>
        <time>2019-05-16T12:28:48.910Z</time>
      </trkpt>
      <trkpt lat="38.926235" lon="-9.00622167">
        <ele>2.0</ele>
        <time>2019-05-16T12:28:49.907Z</time>
      </trkpt>
      <trkpt lat="38.926235" lon="-9.00622167">
        <ele>2.0</ele>
        <time>2019-05-16T12:28:50.908Z</time>
      </trkpt>
      <trkpt lat="38.926235" lon="-9.00622167">
        <ele>2.0</ele>
        <time>2019-05-16T12:28:51.905Z</time>
      </trkpt>
      <trkpt lat="38.926235" lon="-9.00622167">
        <ele>2.0</ele>
        <time>2019-05-16T12:28:52.908Z</time>
      </trkpt>
      <trkpt lat="38.926235" lon="-9.00622167">
        <ele>2.0</ele>
        <time>2019-05-16T12:28:53.905Z</time>
      </trkpt>
      <trkpt lat="38.926235" lon="-9.00622167">
        <ele>2.0</ele>
        <time>2019-05-16T12:28:54.930Z</time>
      </trkpt>
      <trkpt lat="38.926235" lon="-9.00622167">
        <ele>2.0</ele>
        <time>2019-05-16T12:28:55.913Z</time>
      </trkpt>
      <trkpt lat="38.926235" lon="-9.00622167">
        <ele>2.0</ele>
        <time>2019-05-16T12:28:56.908Z</time>
      </trkpt>
      <trkpt lat="38.926235" lon="-9.00622167">
        <ele>2.0</ele>
        <time>2019-05-16T12:28:57.908Z</time>
      </trkpt>
      <trkpt lat="38.926235" lon="-9.00622167">
        <ele>2.0</ele>
        <time>2019-05-16T12:28:58.911Z</time>
      </trkpt>
      <trkpt lat="38.926235" lon="-9.00622167">
        <ele>2.0</ele>
        <time>2019-05-16T12:28:59.908Z</time>
      </trkpt>
      <trkpt lat="38.926235" lon="-9.00622167">
        <ele>2.0</ele>
        <time>2019-05-16T12:29:00.905Z</time>
      </trkpt>
      <trkpt lat="38.926355" lon="-9.00622">
        <ele>1.0</ele>
        <time>2019-05-16T12:29:01.908Z</time>
      </trkpt>
      <trkpt lat="38.926355" lon="-9.00622">
        <ele>1.0</ele>
        <time>2019-05-16T12:29:02.903Z</time>
      </trkpt>
      <trkpt lat="38.92641667" lon="-9.00621333">
        <ele>1.0</ele>
        <time>2019-05-16T12:29:03.907Z</time>
      </trkpt>
      <trkpt lat="38.92641667" lon="-9.00621333">
        <ele>1.0</ele>
        <time>2019-05-16T12:29:04.922Z</time>
      </trkpt>
      <trkpt lat="38.92645833" lon="-9.00620833">
        <ele>1.0</ele>
        <time>2019-05-16T12:29:05.928Z</time>
      </trkpt>
      <trkpt lat="38.92645833" lon="-9.00620833">
        <ele>1.0</ele>
        <time>2019-05-16T12:29:06.899Z</time>
      </trkpt>
      <trkpt lat="38.92646667" lon="-9.00620667">
        <ele>1.0</ele>
        <time>2019-05-16T12:29:07.911Z</time>
      </trkpt>
      <trkpt lat="38.92646667" lon="-9.00620667">
        <ele>1.0</ele>
        <time>2019-05-16T12:29:08.911Z</time>
      </trkpt>
      <trkpt lat="38.92649167" lon="-9.0062">
        <ele>1.0</ele>
        <time>2019-05-16T12:29:09.911Z</time>
      </trkpt>
      <trkpt lat="38.92649833" lon="-9.00619833">
        <ele>0.0</ele>
        <time>2019-05-16T12:29:10.921Z</time>
      </trkpt>
      <trkpt lat="38.92649833" lon="-9.00619833">
        <ele>0.0</ele>
        <time>2019-05-16T12:29:11.926Z</time>
      </trkpt>
      <trkpt lat="38.926495" lon="-9.00619667">
        <ele>0.0</ele>
        <time>2019-05-16T12:29:12.931Z</time>
      </trkpt>
      <trkpt lat="38.926495" lon="-9.00619667">
        <ele>0.0</ele>
        <time>2019-05-16T12:29:13.902Z</time>
      </trkpt>
      <trkpt lat="38.92649833" lon="-9.006195">
        <ele>0.0</ele>
        <time>2019-05-16T12:29:14.923Z</time>
      </trkpt>
      <trkpt lat="38.92649833" lon="-9.006195">
        <ele>0.0</ele>
        <time>2019-05-16T12:29:15.907Z</time>
      </trkpt>
      <trkpt lat="38.92649833" lon="-9.006195">
        <ele>0.0</ele>
        <time>2019-05-16T12:29:16.906Z</time>
      </trkpt>
      <trkpt lat="38.92649833" lon="-9.006195">
        <ele>0.0</ele>
        <time>2019-05-16T12:29:17.908Z</time>
      </trkpt>
      <trkpt lat="38.92649833" lon="-9.006195">
        <ele>0.0</ele>
        <time>2019-05-16T12:29:18.911Z</time>
      </trkpt>
      <trkpt lat="38.92649833" lon="-9.006195">
        <ele>0.0</ele>
        <time>2019-05-16T12:29:19.907Z</time>
      </trkpt>
      <trkpt lat="38.92649833" lon="-9.006195">
        <ele>0.0</ele>
        <time>2019-05-16T12:29:20.911Z</time>
      </trkpt>
      <trkpt lat="38.92649833" lon="-9.006195">
        <ele>0.0</ele>
        <time>2019-05-16T12:29:21.921Z</time>
      </trkpt>
      <trkpt lat="38.92649833" lon="-9.006195">
        <ele>0.0</ele>
        <time>2019-05-16T12:29:22.927Z</time>
      </trkpt>
      <trkpt lat="38.92649833" lon="-9.006195">
        <ele>0.0</ele>
        <time>2019-05-16T12:29:23.933Z</time>
      </trkpt>
      <trkpt lat="38.92649833" lon="-9.006195">
        <ele>0.0</ele>
        <time>2019-05-16T12:29:24.905Z</time>
      </trkpt>
      <trkpt lat="38.92649833" lon="-9.006195">
        <ele>0.0</ele>
        <time>2019-05-16T12:29:25.907Z</time>
      </trkpt>
      <trkpt lat="38.92649833" lon="-9.006195">
        <ele>0.0</ele>
        <time>2019-05-16T12:29:26.909Z</time>
      </trkpt>
      <trkpt lat="38.92649833" lon="-9.006195">
        <ele>0.0</ele>
        <time>2019-05-16T12:29:27.910Z</time>
      </trkpt>
      <trkpt lat="38.92649833" lon="-9.006195">
        <ele>0.0</ele>
        <time>2019-05-16T12:29:28.923Z</time>
      </trkpt>
      <trkpt lat="38.92649833" lon="-9.006195">
        <ele>0.0</ele>
        <time>2019-05-16T12:29:29.908Z</time>
      </trkpt>
      <trkpt lat="38.92649833" lon="-9.006195">
        <ele>0.0</ele>
        <time>2019-05-16T12:29:30.905Z</time>
      </trkpt>
      <trkpt lat="38.92649833" lon="-9.006195">
        <ele>0.0</ele>
        <time>2019-05-16T12:29:31.908Z</time>
      </trkpt>
      <trkpt lat="38.92649833" lon="-9.006195">
        <ele>0.0</ele>
        <time>2019-05-16T12:29:32.904Z</time>
      </trkpt>
      <trkpt lat="38.92649833" lon="-9.006195">
        <ele>0.0</ele>
        <time>2019-05-16T12:29:33.907Z</time>
      </trkpt>
      <trkpt lat="38.92649833" lon="-9.006195">
        <ele>0.0</ele>
        <time>2019-05-16T12:29:34.908Z</time>
      </trkpt>
      <trkpt lat="38.92649833" lon="-9.006195">
        <ele>0.0</ele>
        <time>2019-05-16T12:29:35.902Z</time>
      </trkpt>
      <trkpt lat="38.92649833" lon="-9.006195">
        <ele>0.0</ele>
        <time>2019-05-16T12:29:36.926Z</time>
      </trkpt>
      <trkpt lat="38.92649833" lon="-9.006195">
        <ele>0.0</ele>
        <time>2019-05-16T12:29:37.912Z</time>
      </trkpt>
      <trkpt lat="38.92649833" lon="-9.006195">
        <ele>0.0</ele>
        <time>2019-05-16T12:29:38.909Z</time>
      </trkpt>
      <trkpt lat="38.92649833" lon="-9.006195">
        <ele>0.0</ele>
        <time>2019-05-16T12:29:39.907Z</time>
      </trkpt>
      <trkpt lat="38.92649833" lon="-9.006195">
        <ele>0.0</ele>
        <time>2019-05-16T12:29:40.900Z</time>
      </trkpt>
      <trkpt lat="38.92649833" lon="-9.006195">
        <ele>0.0</ele>
        <time>2019-05-16T12:29:41.924Z</time>
      </trkpt>
      <trkpt lat="38.92649833" lon="-9.006195">
        <ele>0.0</ele>
        <time>2019-05-16T12:29:42.907Z</time>
      </trkpt>
      <trkpt lat="38.92659167" lon="-9.00615333">
        <ele>-2.0</ele>
        <time>2019-05-16T12:29:43.908Z</time>
      </trkpt>
      <trkpt lat="38.92659167" lon="-9.00615333">
        <ele>-2.0</ele>
        <time>2019-05-16T12:29:44.906Z</time>
      </trkpt>
      <trkpt lat="38.926585" lon="-9.00615667">
        <ele>-2.0</ele>
        <time>2019-05-16T12:29:45.913Z</time>
      </trkpt>
      <trkpt lat="38.926585" lon="-9.00615667">
        <ele>-2.0</ele>
        <time>2019-05-16T12:29:46.924Z</time>
      </trkpt>
      <trkpt lat="38.926585" lon="-9.00615667">
        <ele>-2.0</ele>
        <time>2019-05-16T12:29:47.930Z</time>
      </trkpt>
      <trkpt lat="38.926585" lon="-9.00615667">
        <ele>-2.0</ele>
        <time>2019-05-16T12:29:48.898Z</time>
      </trkpt>
      <trkpt lat="38.926585" lon="-9.00615667">
        <ele>-2.0</ele>
        <time>2019-05-16T12:29:49.905Z</time>
      </trkpt>
      <trkpt lat="38.926585" lon="-9.00615667">
        <ele>-2.0</ele>
        <time>2019-05-16T12:29:50.976Z</time>
      </trkpt>
      <trkpt lat="38.926585" lon="-9.00615667">
        <ele>-2.0</ele>
        <time>2019-05-16T12:29:51.934Z</time>
      </trkpt>
      <trkpt lat="38.926585" lon="-9.00615667">
        <ele>-2.0</ele>
        <time>2019-05-16T12:29:52.900Z</time>
      </trkpt>
      <trkpt lat="38.926585" lon="-9.00615667">
        <ele>-2.0</ele>
        <time>2019-05-16T12:29:53.906Z</time>
      </trkpt>
      <trkpt lat="38.926585" lon="-9.00615667">
        <ele>-2.0</ele>
        <time>2019-05-16T12:29:54.912Z</time>
      </trkpt>
      <trkpt lat="38.926585" lon="-9.00615667">
        <ele>-2.0</ele>
        <time>2019-05-16T12:29:55.907Z</time>
      </trkpt>
      <trkpt lat="38.926585" lon="-9.00615667">
        <ele>-2.0</ele>
        <time>2019-05-16T12:29:56.909Z</time>
      </trkpt>
      <trkpt lat="38.926585" lon="-9.00615667">
        <ele>-2.0</ele>
        <time>2019-05-16T12:29:57.909Z</time>
      </trkpt>
      <trkpt lat="38.926585" lon="-9.00615667">
        <ele>-2.0</ele>
        <time>2019-05-16T12:29:58.910Z</time>
      </trkpt>
      <trkpt lat="38.926585" lon="-9.00615667">
        <ele>-2.0</ele>
        <time>2019-05-16T12:29:59.908Z</time>
      </trkpt>
      <trkpt lat="38.926585" lon="-9.00615667">
        <ele>-2.0</ele>
        <time>2019-05-16T12:30:00.905Z</time>
      </trkpt>
      <trkpt lat="38.926585" lon="-9.00615667">
        <ele>-2.0</ele>
        <time>2019-05-16T12:30:01.908Z</time>
      </trkpt>
      <trkpt lat="38.926585" lon="-9.00615667">
        <ele>-2.0</ele>
        <time>2019-05-16T12:30:02.903Z</time>
      </trkpt>
      <trkpt lat="38.926585" lon="-9.00615667">
        <ele>-2.0</ele>
        <time>2019-05-16T12:30:03.927Z</time>
      </trkpt>
      <trkpt lat="38.926585" lon="-9.00615667">
        <ele>-2.0</ele>
        <time>2019-05-16T12:30:04.911Z</time>
      </trkpt>
      <trkpt lat="38.926585" lon="-9.00615667">
        <ele>-2.0</ele>
        <time>2019-05-16T12:30:05.909Z</time>
      </trkpt>
      <trkpt lat="38.926585" lon="-9.00615667">
        <ele>-2.0</ele>
        <time>2019-05-16T12:30:06.905Z</time>
      </trkpt>
      <trkpt lat="38.926585" lon="-9.00615667">
        <ele>-2.0</ele>
        <time>2019-05-16T12:30:07.908Z</time>
      </trkpt>
      <trkpt lat="38.926585" lon="-9.00615667">
        <ele>-2.0</ele>
        <time>2019-05-16T12:30:08.909Z</time>
      </trkpt>
      <trkpt lat="38.926585" lon="-9.00615667">
        <ele>-2.0</ele>
        <time>2019-05-16T12:30:09.905Z</time>
      </trkpt>
      <trkpt lat="38.926585" lon="-9.00615667">
        <ele>-2.0</ele>
        <time>2019-05-16T12:30:10.908Z</time>
      </trkpt>
      <trkpt lat="38.926585" lon="-9.00615667">
        <ele>-2.0</ele>
        <time>2019-05-16T12:30:11.908Z</time>
      </trkpt>
      <trkpt lat="38.926585" lon="-9.00615667">
        <ele>-2.0</ele>
        <time>2019-05-16T12:30:12.902Z</time>
      </trkpt>
      <trkpt lat="38.926585" lon="-9.00615667">
        <ele>-2.0</ele>
        <time>2019-05-16T12:30:13.908Z</time>
      </trkpt>
      <trkpt lat="38.926585" lon="-9.00615667">
        <ele>-2.0</ele>
        <time>2019-05-16T12:30:14.902Z</time>
      </trkpt>
      <trkpt lat="38.926585" lon="-9.00615667">
        <ele>-2.0</ele>
        <time>2019-05-16T12:30:15.908Z</time>
      </trkpt>
      <trkpt lat="38.926585" lon="-9.00615667">
        <ele>-2.0</ele>
        <time>2019-05-16T12:30:16.904Z</time>
      </trkpt>
      <trkpt lat="38.926585" lon="-9.00615667">
        <ele>-2.0</ele>
        <time>2019-05-16T12:30:17.908Z</time>
      </trkpt>
      <trkpt lat="38.926585" lon="-9.00615667">
        <ele>-2.0</ele>
        <time>2019-05-16T12:30:18.908Z</time>
      </trkpt>
      <trkpt lat="38.926585" lon="-9.00615667">
        <ele>-2.0</ele>
        <time>2019-05-16T12:30:19.908Z</time>
      </trkpt>
      <trkpt lat="38.926585" lon="-9.00615667">
        <ele>-2.0</ele>
        <time>2019-05-16T12:30:20.911Z</time>
      </trkpt>
      <trkpt lat="38.926585" lon="-9.00615667">
        <ele>-2.0</ele>
        <time>2019-05-16T12:30:21.903Z</time>
      </trkpt>
      <trkpt lat="38.926585" lon="-9.00615667">
        <ele>-2.0</ele>
        <time>2019-05-16T12:30:22.909Z</time>
      </trkpt>
      <trkpt lat="38.926585" lon="-9.00615667">
        <ele>-2.0</ele>
        <time>2019-05-16T12:30:23.915Z</time>
      </trkpt>
      <trkpt lat="38.926585" lon="-9.00615667">
        <ele>-2.0</ele>
        <time>2019-05-16T12:30:24.920Z</time>
      </trkpt>
      <trkpt lat="38.926585" lon="-9.00615667">
        <ele>-2.0</ele>
        <time>2019-05-16T12:30:25.908Z</time>
      </trkpt>
      <trkpt lat="38.926585" lon="-9.00615667">
        <ele>-2.0</ele>
        <time>2019-05-16T12:30:26.903Z</time>
      </trkpt>
      <trkpt lat="38.926585" lon="-9.00615667">
        <ele>-2.0</ele>
        <time>2019-05-16T12:30:27.910Z</time>
      </trkpt>
      <trkpt lat="38.926585" lon="-9.00615667">
        <ele>-2.0</ele>
        <time>2019-05-16T12:30:28.914Z</time>
      </trkpt>
      <trkpt lat="38.926585" lon="-9.00615667">
        <ele>-2.0</ele>
        <time>2019-05-16T12:30:29.905Z</time>
      </trkpt>
      <trkpt lat="38.926585" lon="-9.00615667">
        <ele>-2.0</ele>
        <time>2019-05-16T12:30:30.910Z</time>
      </trkpt>
      <trkpt lat="38.926585" lon="-9.00615667">
        <ele>-2.0</ele>
        <time>2019-05-16T12:30:31.909Z</time>
      </trkpt>
      <trkpt lat="38.926585" lon="-9.00615667">
        <ele>-2.0</ele>
        <time>2019-05-16T12:30:32.903Z</time>
      </trkpt>
      <trkpt lat="38.926585" lon="-9.00615667">
        <ele>-2.0</ele>
        <time>2019-05-16T12:30:33.928Z</time>
      </trkpt>
      <trkpt lat="38.926585" lon="-9.00615667">
        <ele>-2.0</ele>
        <time>2019-05-16T12:30:34.914Z</time>
      </trkpt>
      <trkpt lat="38.926585" lon="-9.00615667">
        <ele>-2.0</ele>
        <time>2019-05-16T12:30:35.906Z</time>
      </trkpt>
      <trkpt lat="38.926585" lon="-9.00615667">
        <ele>-2.0</ele>
        <time>2019-05-16T12:30:36.910Z</time>
      </trkpt>
      <trkpt lat="38.926585" lon="-9.00615667">
        <ele>-2.0</ele>
        <time>2019-05-16T12:30:37.910Z</time>
      </trkpt>
      <trkpt lat="38.926585" lon="-9.00615667">
        <ele>-2.0</ele>
        <time>2019-05-16T12:30:38.913Z</time>
      </trkpt>
      <trkpt lat="38.926585" lon="-9.00615667">
        <ele>-2.0</ele>
        <time>2019-05-16T12:30:39.908Z</time>
      </trkpt>
      <trkpt lat="38.926585" lon="-9.00615667">
        <ele>-2.0</ele>
        <time>2019-05-16T12:30:40.903Z</time>
      </trkpt>
      <trkpt lat="38.926585" lon="-9.00615667">
        <ele>-2.0</ele>
        <time>2019-05-16T12:30:41.908Z</time>
      </trkpt>
      <trkpt lat="38.926585" lon="-9.00615667">
        <ele>-2.0</ele>
        <time>2019-05-16T12:30:42.926Z</time>
      </trkpt>
      <trkpt lat="38.926585" lon="-9.00615667">
        <ele>-2.0</ele>
        <time>2019-05-16T12:30:43.911Z</time>
      </trkpt>
      <trkpt lat="38.926585" lon="-9.00615667">
        <ele>-2.0</ele>
        <time>2019-05-16T12:30:44.901Z</time>
      </trkpt>
      <trkpt lat="38.926585" lon="-9.00615667">
        <ele>-2.0</ele>
        <time>2019-05-16T12:30:45.906Z</time>
      </trkpt>
      <trkpt lat="38.926585" lon="-9.00615667">
        <ele>-2.0</ele>
        <time>2019-05-16T12:30:46.903Z</time>
      </trkpt>
      <trkpt lat="38.926585" lon="-9.00615667">
        <ele>-2.0</ele>
        <time>2019-05-16T12:30:47.910Z</time>
      </trkpt>
      <trkpt lat="38.926585" lon="-9.00615667">
        <ele>-2.0</ele>
        <time>2019-05-16T12:30:48.920Z</time>
      </trkpt>
      <trkpt lat="38.926585" lon="-9.00615667">
        <ele>-2.0</ele>
        <time>2019-05-16T12:30:49.900Z</time>
      </trkpt>
      <trkpt lat="38.926585" lon="-9.00615667">
        <ele>-2.0</ele>
        <time>2019-05-16T12:30:50.908Z</time>
      </trkpt>
      <trkpt lat="38.926585" lon="-9.00615667">
        <ele>-2.0</ele>
        <time>2019-05-16T12:30:51.906Z</time>
      </trkpt>
      <trkpt lat="38.926585" lon="-9.00615667">
        <ele>-2.0</ele>
        <time>2019-05-16T12:30:52.903Z</time>
      </trkpt>
      <trkpt lat="38.926585" lon="-9.00615667">
        <ele>-2.0</ele>
        <time>2019-05-16T12:30:53.928Z</time>
      </trkpt>
      <trkpt lat="38.926585" lon="-9.00615667">
        <ele>-2.0</ele>
        <time>2019-05-16T12:30:54.916Z</time>
      </trkpt>
      <trkpt lat="38.926585" lon="-9.00615667">
        <ele>-2.0</ele>
        <time>2019-05-16T12:30:55.908Z</time>
      </trkpt>
      <trkpt lat="38.926585" lon="-9.00615667">
        <ele>-2.0</ele>
        <time>2019-05-16T12:30:56.903Z</time>
      </trkpt>
      <trkpt lat="38.926585" lon="-9.00615667">
        <ele>-2.0</ele>
        <time>2019-05-16T12:30:57.910Z</time>
      </trkpt>
      <trkpt lat="38.926585" lon="-9.00615667">
        <ele>-2.0</ele>
        <time>2019-05-16T12:30:58.913Z</time>
      </trkpt>
      <trkpt lat="38.926585" lon="-9.00615667">
        <ele>-2.0</ele>
        <time>2019-05-16T12:30:59.900Z</time>
      </trkpt>
      <trkpt lat="38.926585" lon="-9.00615667">
        <ele>-2.0</ele>
        <time>2019-05-16T12:31:00.924Z</time>
      </trkpt>
      <trkpt lat="38.926585" lon="-9.00615667">
        <ele>-2.0</ele>
        <time>2019-05-16T12:31:01.906Z</time>
      </trkpt>
      <trkpt lat="38.926585" lon="-9.00615667">
        <ele>-2.0</ele>
        <time>2019-05-16T12:31:02.903Z</time>
      </trkpt>
      <trkpt lat="38.926585" lon="-9.00615667">
        <ele>-2.0</ele>
        <time>2019-05-16T12:31:03.908Z</time>
      </trkpt>
      <trkpt lat="38.926585" lon="-9.00615667">
        <ele>-2.0</ele>
        <time>2019-05-16T12:31:04.906Z</time>
      </trkpt>
      <trkpt lat="38.926585" lon="-9.00615667">
        <ele>-2.0</ele>
        <time>2019-05-16T12:31:05.920Z</time>
      </trkpt>
      <trkpt lat="38.926585" lon="-9.00615667">
        <ele>-2.0</ele>
        <time>2019-05-16T12:31:06.905Z</time>
      </trkpt>
      <trkpt lat="38.926585" lon="-9.00615667">
        <ele>-2.0</ele>
        <time>2019-05-16T12:31:07.910Z</time>
      </trkpt>
      <trkpt lat="38.926585" lon="-9.00615667">
        <ele>-2.0</ele>
        <time>2019-05-16T12:31:08.913Z</time>
      </trkpt>
      <trkpt lat="38.92650333" lon="-9.00621167">
        <ele>-6.0</ele>
        <time>2019-05-16T12:31:09.913Z</time>
      </trkpt>
      <trkpt lat="38.92649333" lon="-9.00621167">
        <ele>-6.0</ele>
        <time>2019-05-16T12:31:10.916Z</time>
      </trkpt>
      <trkpt lat="38.92649333" lon="-9.00621167">
        <ele>-6.0</ele>
        <time>2019-05-16T12:31:11.907Z</time>
      </trkpt>
      <trkpt lat="38.92646667" lon="-9.00621">
        <ele>-6.0</ele>
        <time>2019-05-16T12:31:12.918Z</time>
      </trkpt>
      <trkpt lat="38.92646667" lon="-9.00621">
        <ele>-6.0</ele>
        <time>2019-05-16T12:31:13.902Z</time>
      </trkpt>
      <trkpt lat="38.92646667" lon="-9.00621">
        <ele>-6.0</ele>
        <time>2019-05-16T12:31:14.924Z</time>
      </trkpt>
      <trkpt lat="38.92646667" lon="-9.00621">
        <ele>-6.0</ele>
        <time>2019-05-16T12:31:15.908Z</time>
      </trkpt>
      <trkpt lat="38.92646667" lon="-9.00621">
        <ele>-6.0</ele>
        <time>2019-05-16T12:31:16.897Z</time>
      </trkpt>
      <trkpt lat="38.92646667" lon="-9.00621">
        <ele>-6.0</ele>
        <time>2019-05-16T12:31:17.916Z</time>
      </trkpt>
      <trkpt lat="38.92646667" lon="-9.00621">
        <ele>-6.0</ele>
        <time>2019-05-16T12:31:18.922Z</time>
      </trkpt>
      <trkpt lat="38.92646667" lon="-9.00621">
        <ele>-6.0</ele>
        <time>2019-05-16T12:31:19.928Z</time>
      </trkpt>
      <trkpt lat="38.92646667" lon="-9.00621">
        <ele>-6.0</ele>
        <time>2019-05-16T12:31:20.902Z</time>
      </trkpt>
      <trkpt lat="38.92646667" lon="-9.00621">
        <ele>-6.0</ele>
        <time>2019-05-16T12:31:21.901Z</time>
      </trkpt>
      <trkpt lat="38.92646667" lon="-9.00621">
        <ele>-6.0</ele>
        <time>2019-05-16T12:31:22.907Z</time>
      </trkpt>
      <trkpt lat="38.92646667" lon="-9.00621">
        <ele>-6.0</ele>
        <time>2019-05-16T12:31:23.913Z</time>
      </trkpt>
      <trkpt lat="38.92646667" lon="-9.00621">
        <ele>-6.0</ele>
        <time>2019-05-16T12:31:24.918Z</time>
      </trkpt>
      <trkpt lat="38.92646667" lon="-9.00621">
        <ele>-6.0</ele>
        <time>2019-05-16T12:31:25.908Z</time>
      </trkpt>
      <trkpt lat="38.92646667" lon="-9.00621">
        <ele>-6.0</ele>
        <time>2019-05-16T12:31:26.904Z</time>
      </trkpt>
      <trkpt lat="38.92646667" lon="-9.00621">
        <ele>-6.0</ele>
        <time>2019-05-16T12:31:27.908Z</time>
      </trkpt>
      <trkpt lat="38.92646667" lon="-9.00621">
        <ele>-6.0</ele>
        <time>2019-05-16T12:31:28.912Z</time>
      </trkpt>
      <trkpt lat="38.92646667" lon="-9.00621">
        <ele>-6.0</ele>
        <time>2019-05-16T12:31:29.908Z</time>
      </trkpt>
      <trkpt lat="38.92646667" lon="-9.00621">
        <ele>-6.0</ele>
        <time>2019-05-16T12:31:30.905Z</time>
      </trkpt>
      <trkpt lat="38.92646667" lon="-9.00621">
        <ele>-6.0</ele>
        <time>2019-05-16T12:31:31.908Z</time>
      </trkpt>
      <trkpt lat="38.92646667" lon="-9.00621">
        <ele>-6.0</ele>
        <time>2019-05-16T12:31:32.903Z</time>
      </trkpt>
      <trkpt lat="38.92646667" lon="-9.00621">
        <ele>-6.0</ele>
        <time>2019-05-16T12:31:33.928Z</time>
      </trkpt>
      <trkpt lat="38.92646667" lon="-9.00621">
        <ele>-6.0</ele>
        <time>2019-05-16T12:31:34.911Z</time>
      </trkpt>
      <trkpt lat="38.92646667" lon="-9.00621">
        <ele>-6.0</ele>
        <time>2019-05-16T12:31:35.908Z</time>
      </trkpt>
      <trkpt lat="38.92646667" lon="-9.00621">
        <ele>-6.0</ele>
        <time>2019-05-16T12:31:36.909Z</time>
      </trkpt>
      <trkpt lat="38.92646667" lon="-9.00621">
        <ele>-6.0</ele>
        <time>2019-05-16T12:31:37.908Z</time>
      </trkpt>
      <trkpt lat="38.92646667" lon="-9.00621">
        <ele>-6.0</ele>
        <time>2019-05-16T12:31:38.910Z</time>
      </trkpt>
      <trkpt lat="38.92646667" lon="-9.00621">
        <ele>-6.0</ele>
        <time>2019-05-16T12:31:39.909Z</time>
      </trkpt>
      <trkpt lat="38.92646667" lon="-9.00621">
        <ele>-6.0</ele>
        <time>2019-05-16T12:31:40.906Z</time>
      </trkpt>
      <trkpt lat="38.92646667" lon="-9.00621">
        <ele>-6.0</ele>
        <time>2019-05-16T12:31:41.910Z</time>
      </trkpt>
      <trkpt lat="38.92646667" lon="-9.00621">
        <ele>-6.0</ele>
        <time>2019-05-16T12:31:42.905Z</time>
      </trkpt>
      <trkpt lat="38.92646667" lon="-9.00621">
        <ele>-6.0</ele>
        <time>2019-05-16T12:31:43.908Z</time>
      </trkpt>
      <trkpt lat="38.92646667" lon="-9.00621">
        <ele>-6.0</ele>
        <time>2019-05-16T12:31:44.906Z</time>
      </trkpt>
      <trkpt lat="38.92646667" lon="-9.00621">
        <ele>-6.0</ele>
        <time>2019-05-16T12:31:45.908Z</time>
      </trkpt>
      <trkpt lat="38.92646667" lon="-9.00621">
        <ele>-6.0</ele>
        <time>2019-05-16T12:31:46.907Z</time>
      </trkpt>
      <trkpt lat="38.92646667" lon="-9.00621">
        <ele>-6.0</ele>
        <time>2019-05-16T12:31:47.910Z</time>
      </trkpt>
      <trkpt lat="38.92646667" lon="-9.00621">
        <ele>-6.0</ele>
        <time>2019-05-16T12:31:48.911Z</time>
      </trkpt>
      <trkpt lat="38.92646667" lon="-9.00621">
        <ele>-6.0</ele>
        <time>2019-05-16T12:31:49.908Z</time>
      </trkpt>
      <trkpt lat="38.92646667" lon="-9.00621">
        <ele>-6.0</ele>
        <time>2019-05-16T12:31:50.904Z</time>
      </trkpt>
      <trkpt lat="38.92646667" lon="-9.00621">
        <ele>-6.0</ele>
        <time>2019-05-16T12:31:51.907Z</time>
      </trkpt>
      <trkpt lat="38.92646667" lon="-9.00621">
        <ele>-6.0</ele>
        <time>2019-05-16T12:31:52.906Z</time>
      </trkpt>
      <trkpt lat="38.92646667" lon="-9.00621">
        <ele>-6.0</ele>
        <time>2019-05-16T12:31:53.908Z</time>
      </trkpt>
      <trkpt lat="38.92646667" lon="-9.00621">
        <ele>-6.0</ele>
        <time>2019-05-16T12:31:54.907Z</time>
      </trkpt>
      <trkpt lat="38.92646667" lon="-9.00621">
        <ele>-6.0</ele>
        <time>2019-05-16T12:31:55.908Z</time>
      </trkpt>
      <trkpt lat="38.92646667" lon="-9.00621">
        <ele>-6.0</ele>
        <time>2019-05-16T12:31:56.903Z</time>
      </trkpt>
      <trkpt lat="38.92646667" lon="-9.00621">
        <ele>-6.0</ele>
        <time>2019-05-16T12:31:57.909Z</time>
      </trkpt>
      <trkpt lat="38.92646667" lon="-9.00621">
        <ele>-6.0</ele>
        <time>2019-05-16T12:31:58.909Z</time>
      </trkpt>
      <trkpt lat="38.92646667" lon="-9.00621">
        <ele>-6.0</ele>
        <time>2019-05-16T12:31:59.908Z</time>
      </trkpt>
      <trkpt lat="38.92646667" lon="-9.00621">
        <ele>-6.0</ele>
        <time>2019-05-16T12:32:00.905Z</time>
      </trkpt>
      <trkpt lat="38.92646667" lon="-9.00621">
        <ele>-6.0</ele>
        <time>2019-05-16T12:32:01.908Z</time>
      </trkpt>
      <trkpt lat="38.92646667" lon="-9.00621">
        <ele>-6.0</ele>
        <time>2019-05-16T12:32:02.903Z</time>
      </trkpt>
      <trkpt lat="38.92646667" lon="-9.00621">
        <ele>-6.0</ele>
        <time>2019-05-16T12:32:03.927Z</time>
      </trkpt>
      <trkpt lat="38.92646667" lon="-9.00621">
        <ele>-6.0</ele>
        <time>2019-05-16T12:32:04.920Z</time>
      </trkpt>
      <trkpt lat="38.92646667" lon="-9.00621">
        <ele>-6.0</ele>
        <time>2019-05-16T12:32:05.906Z</time>
      </trkpt>
      <trkpt lat="38.92646667" lon="-9.00621">
        <ele>-6.0</ele>
        <time>2019-05-16T12:32:06.910Z</time>
      </trkpt>
      <trkpt lat="38.92646667" lon="-9.00621">
        <ele>-6.0</ele>
        <time>2019-05-16T12:32:07.908Z</time>
      </trkpt>
      <trkpt lat="38.92646667" lon="-9.00621">
        <ele>-6.0</ele>
        <time>2019-05-16T12:32:08.909Z</time>
      </trkpt>
      <trkpt lat="38.92644667" lon="-9.00617167">
        <ele>-6.0</ele>
        <time>2019-05-16T12:32:09.908Z</time>
      </trkpt>
      <trkpt lat="38.92644667" lon="-9.00617167">
        <ele>-6.0</ele>
        <time>2019-05-16T12:32:10.903Z</time>
      </trkpt>
      <trkpt lat="38.92634" lon="-9.00619">
        <ele>-4.0</ele>
        <time>2019-05-16T12:32:11.908Z</time>
      </trkpt>
      <trkpt lat="38.92634" lon="-9.00619">
        <ele>-4.0</ele>
        <time>2019-05-16T12:32:12.910Z</time>
      </trkpt>
      <trkpt lat="38.9263" lon="-9.00618833">
        <ele>-4.0</ele>
        <time>2019-05-16T12:32:14.004Z</time>
      </trkpt>
      <trkpt lat="38.9263" lon="-9.00618833">
        <ele>-4.0</ele>
        <time>2019-05-16T12:32:14.932Z</time>
      </trkpt>
      <trkpt lat="38.92626833" lon="-9.00617833">
        <ele>-3.0</ele>
        <time>2019-05-16T12:32:15.900Z</time>
      </trkpt>
      <trkpt lat="38.92626833" lon="-9.00617833">
        <ele>-3.0</ele>
        <time>2019-05-16T12:32:16.928Z</time>
      </trkpt>
      <trkpt lat="38.926205" lon="-9.00618167">
        <ele>-2.0</ele>
        <time>2019-05-16T12:32:17.938Z</time>
      </trkpt>
      <trkpt lat="38.926205" lon="-9.00618167">
        <ele>-2.0</ele>
        <time>2019-05-16T12:32:18.932Z</time>
      </trkpt>
      <trkpt lat="38.92618333" lon="-9.006185">
        <ele>-2.0</ele>
        <time>2019-05-16T12:32:19.900Z</time>
      </trkpt>
      <trkpt lat="38.92618333" lon="-9.006185">
        <ele>-2.0</ele>
        <time>2019-05-16T12:32:20.904Z</time>
      </trkpt>
      <trkpt lat="38.92618333" lon="-9.006185">
        <ele>-2.0</ele>
        <time>2019-05-16T12:32:21.909Z</time>
      </trkpt>
      <trkpt lat="38.92618333" lon="-9.006185">
        <ele>-2.0</ele>
        <time>2019-05-16T12:32:22.920Z</time>
      </trkpt>
      <trkpt lat="38.92618333" lon="-9.006185">
        <ele>-2.0</ele>
        <time>2019-05-16T12:32:23.926Z</time>
      </trkpt>
      <trkpt lat="38.92618333" lon="-9.006185">
        <ele>-2.0</ele>
        <time>2019-05-16T12:32:24.901Z</time>
      </trkpt>
      <trkpt lat="38.92618333" lon="-9.006185">
        <ele>-2.0</ele>
        <time>2019-05-16T12:32:25.907Z</time>
      </trkpt>
      <trkpt lat="38.92609" lon="-9.00618833">
        <ele>1.0</ele>
        <time>2019-05-16T12:32:26.908Z</time>
      </trkpt>
      <trkpt lat="38.92609" lon="-9.00618833">
        <ele>1.0</ele>
        <time>2019-05-16T12:32:27.910Z</time>
      </trkpt>
      <trkpt lat="38.926075" lon="-9.006185">
        <ele>2.0</ele>
        <time>2019-05-16T12:32:28.923Z</time>
      </trkpt>
      <trkpt lat="38.926075" lon="-9.006185">
        <ele>2.0</ele>
        <time>2019-05-16T12:32:29.907Z</time>
      </trkpt>
      <trkpt lat="38.92606667" lon="-9.006185">
        <ele>2.0</ele>
        <time>2019-05-16T12:32:30.907Z</time>
      </trkpt>
      <trkpt lat="38.92606667" lon="-9.006185">
        <ele>2.0</ele>
        <time>2019-05-16T12:32:31.904Z</time>
      </trkpt>
      <trkpt lat="38.92607667" lon="-9.00616833">
        <ele>2.0</ele>
        <time>2019-05-16T12:32:32.908Z</time>
      </trkpt>
      <trkpt lat="38.92609833" lon="-9.00615833">
        <ele>2.0</ele>
        <time>2019-05-16T12:32:33.982Z</time>
      </trkpt>
      <trkpt lat="38.92609833" lon="-9.00615833">
        <ele>2.0</ele>
        <time>2019-05-16T12:32:34.936Z</time>
      </trkpt>
      <trkpt lat="38.926125" lon="-9.00612667">
        <ele>3.0</ele>
        <time>2019-05-16T12:32:35.909Z</time>
      </trkpt>
      <trkpt lat="38.926125" lon="-9.00612667">
        <ele>3.0</ele>
        <time>2019-05-16T12:32:36.900Z</time>
      </trkpt>
      <trkpt lat="38.92616833" lon="-9.00611">
        <ele>3.0</ele>
        <time>2019-05-16T12:32:37.910Z</time>
      </trkpt>
      <trkpt lat="38.92616833" lon="-9.00611">
        <ele>3.0</ele>
        <time>2019-05-16T12:32:38.897Z</time>
      </trkpt>
      <trkpt lat="38.92623" lon="-9.00610167">
        <ele>3.0</ele>
        <time>2019-05-16T12:32:39.909Z</time>
      </trkpt>
      <trkpt lat="38.92623" lon="-9.00610167">
        <ele>3.0</ele>
        <time>2019-05-16T12:32:40.904Z</time>
      </trkpt>
      <trkpt lat="38.92629167" lon="-9.006085">
        <ele>3.0</ele>
        <time>2019-05-16T12:32:41.933Z</time>
      </trkpt>
      <trkpt lat="38.92631833" lon="-9.00606833">
        <ele>3.0</ele>
        <time>2019-05-16T12:32:42.933Z</time>
      </trkpt>
      <trkpt lat="38.92631833" lon="-9.00606833">
        <ele>3.0</ele>
        <time>2019-05-16T12:32:43.933Z</time>
      </trkpt>
      <trkpt lat="38.92636833" lon="-9.006025">
        <ele>3.0</ele>
        <time>2019-05-16T12:32:44.920Z</time>
      </trkpt>
      <trkpt lat="38.92636833" lon="-9.006025">
        <ele>3.0</ele>
        <time>2019-05-16T12:32:45.910Z</time>
      </trkpt>
      <trkpt lat="38.92641667" lon="-9.00598167">
        <ele>3.0</ele>
        <time>2019-05-16T12:32:46.920Z</time>
      </trkpt>
      <trkpt lat="38.92641667" lon="-9.00598167">
        <ele>3.0</ele>
        <time>2019-05-16T12:32:47.913Z</time>
      </trkpt>
      <trkpt lat="38.92647" lon="-9.00593833">
        <ele>4.0</ele>
        <time>2019-05-16T12:32:48.900Z</time>
      </trkpt>
      <trkpt lat="38.92647" lon="-9.00593833">
        <ele>4.0</ele>
        <time>2019-05-16T12:32:49.934Z</time>
      </trkpt>
      <trkpt lat="38.926525" lon="-9.00589833">
        <ele>4.0</ele>
        <time>2019-05-16T12:32:50.902Z</time>
      </trkpt>
      <trkpt lat="38.92655333" lon="-9.00588167">
        <ele>4.0</ele>
        <time>2019-05-16T12:32:51.908Z</time>
      </trkpt>
      <trkpt lat="38.92655333" lon="-9.00588167">
        <ele>4.0</ele>
        <time>2019-05-16T12:32:52.935Z</time>
      </trkpt>
      <trkpt lat="38.92661333" lon="-9.005865">
        <ele>5.0</ele>
        <time>2019-05-16T12:32:53.910Z</time>
      </trkpt>
      <trkpt lat="38.92664333" lon="-9.005865">
        <ele>5.0</ele>
        <time>2019-05-16T12:32:54.900Z</time>
      </trkpt>
      <trkpt lat="38.92664333" lon="-9.005865">
        <ele>5.0</ele>
        <time>2019-05-16T12:32:55.928Z</time>
      </trkpt>
      <trkpt lat="38.92670667" lon="-9.00585333">
        <ele>5.0</ele>
        <time>2019-05-16T12:32:56.905Z</time>
      </trkpt>
      <trkpt lat="38.92673667" lon="-9.00584333">
        <ele>6.0</ele>
        <time>2019-05-16T12:32:57.906Z</time>
      </trkpt>
      <trkpt lat="38.92673667" lon="-9.00584333">
        <ele>6.0</ele>
        <time>2019-05-16T12:32:58.899Z</time>
      </trkpt>
      <trkpt lat="38.92680167" lon="-9.005825">
        <ele>6.0</ele>
        <time>2019-05-16T12:32:59.907Z</time>
      </trkpt>
      <trkpt lat="38.926835" lon="-9.00581833">
        <ele>6.0</ele>
        <time>2019-05-16T12:33:00.907Z</time>
      </trkpt>
      <trkpt lat="38.926835" lon="-9.00581833">
        <ele>6.0</ele>
        <time>2019-05-16T12:33:01.921Z</time>
      </trkpt>
      <trkpt lat="38.9269" lon="-9.00581167">
        <ele>6.0</ele>
        <time>2019-05-16T12:33:02.932Z</time>
      </trkpt>
      <trkpt lat="38.9269" lon="-9.00581167">
        <ele>6.0</ele>
        <time>2019-05-16T12:33:03.908Z</time>
      </trkpt>
      <trkpt lat="38.92696667" lon="-9.0058">
        <ele>6.0</ele>
        <time>2019-05-16T12:33:04.917Z</time>
      </trkpt>
      <trkpt lat="38.927" lon="-9.00579333">
        <ele>6.0</ele>
        <time>2019-05-16T12:33:05.908Z</time>
      </trkpt>
      <trkpt lat="38.927" lon="-9.00579333">
        <ele>6.0</ele>
        <time>2019-05-16T12:33:06.898Z</time>
      </trkpt>
      <trkpt lat="38.927065" lon="-9.00578667">
        <ele>7.0</ele>
        <time>2019-05-16T12:33:07.908Z</time>
      </trkpt>
      <trkpt lat="38.927065" lon="-9.00578667">
        <ele>7.0</ele>
        <time>2019-05-16T12:33:08.921Z</time>
      </trkpt>
      <trkpt lat="38.92713" lon="-9.00577667">
        <ele>7.0</ele>
        <time>2019-05-16T12:33:09.930Z</time>
      </trkpt>
      <trkpt lat="38.92713" lon="-9.00577667">
        <ele>7.0</ele>
        <time>2019-05-16T12:33:10.917Z</time>
      </trkpt>
      <trkpt lat="38.92719167" lon="-9.00576833">
        <ele>7.0</ele>
        <time>2019-05-16T12:33:11.933Z</time>
      </trkpt>
      <trkpt lat="38.92722333" lon="-9.00576333">
        <ele>7.0</ele>
        <time>2019-05-16T12:33:12.930Z</time>
      </trkpt>
      <trkpt lat="38.92722333" lon="-9.00576333">
        <ele>7.0</ele>
        <time>2019-05-16T12:33:13.926Z</time>
      </trkpt>
      <trkpt lat="38.92728833" lon="-9.00575">
        <ele>8.0</ele>
        <time>2019-05-16T12:33:14.900Z</time>
      </trkpt>
      <trkpt lat="38.92728833" lon="-9.00575">
        <ele>8.0</ele>
        <time>2019-05-16T12:33:15.924Z</time>
      </trkpt>
      <trkpt lat="38.927355" lon="-9.005745">
        <ele>8.0</ele>
        <time>2019-05-16T12:33:16.910Z</time>
      </trkpt>
      <trkpt lat="38.927355" lon="-9.005745">
        <ele>8.0</ele>
        <time>2019-05-16T12:33:17.907Z</time>
      </trkpt>
      <trkpt lat="38.927415" lon="-9.00574">
        <ele>8.0</ele>
        <time>2019-05-16T12:33:18.907Z</time>
      </trkpt>
      <trkpt lat="38.927415" lon="-9.00574">
        <ele>8.0</ele>
        <time>2019-05-16T12:33:19.904Z</time>
      </trkpt>
      <trkpt lat="38.92747833" lon="-9.00573333">
        <ele>8.0</ele>
        <time>2019-05-16T12:33:20.926Z</time>
      </trkpt>
      <trkpt lat="38.92747833" lon="-9.00573333">
        <ele>8.0</ele>
        <time>2019-05-16T12:33:21.924Z</time>
      </trkpt>
      <trkpt lat="38.92753833" lon="-9.00572833">
        <ele>8.0</ele>
        <time>2019-05-16T12:33:22.902Z</time>
      </trkpt>
      <trkpt lat="38.92753833" lon="-9.00572833">
        <ele>8.0</ele>
        <time>2019-05-16T12:33:23.935Z</time>
      </trkpt>
      <trkpt lat="38.92759833" lon="-9.00572333">
        <ele>8.0</ele>
        <time>2019-05-16T12:33:24.908Z</time>
      </trkpt>
      <trkpt lat="38.92762833" lon="-9.00571833">
        <ele>8.0</ele>
        <time>2019-05-16T12:33:25.908Z</time>
      </trkpt>
      <trkpt lat="38.92765833" lon="-9.005715">
        <ele>8.0</ele>
        <time>2019-05-16T12:33:26.939Z</time>
      </trkpt>
      <trkpt lat="38.92765833" lon="-9.005715">
        <ele>8.0</ele>
        <time>2019-05-16T12:33:27.928Z</time>
      </trkpt>
      <trkpt lat="38.92772" lon="-9.00570667">
        <ele>8.0</ele>
        <time>2019-05-16T12:33:28.900Z</time>
      </trkpt>
      <trkpt lat="38.92775167" lon="-9.005705">
        <ele>8.0</ele>
        <time>2019-05-16T12:33:29.929Z</time>
      </trkpt>
      <trkpt lat="38.92778" lon="-9.00570333">
        <ele>8.0</ele>
        <time>2019-05-16T12:33:30.920Z</time>
      </trkpt>
      <trkpt lat="38.92778" lon="-9.00570333">
        <ele>8.0</ele>
        <time>2019-05-16T12:33:31.921Z</time>
      </trkpt>
      <trkpt lat="38.92784" lon="-9.00569833">
        <ele>9.0</ele>
        <time>2019-05-16T12:33:32.930Z</time>
      </trkpt>
      <trkpt lat="38.92784" lon="-9.00569833">
        <ele>9.0</ele>
        <time>2019-05-16T12:33:33.898Z</time>
      </trkpt>
      <trkpt lat="38.92790333" lon="-9.005695">
        <ele>9.0</ele>
        <time>2019-05-16T12:33:34.906Z</time>
      </trkpt>
      <trkpt lat="38.92790333" lon="-9.005695">
        <ele>9.0</ele>
        <time>2019-05-16T12:33:35.927Z</time>
      </trkpt>
      <trkpt lat="38.92796667" lon="-9.00568833">
        <ele>9.0</ele>
        <time>2019-05-16T12:33:36.907Z</time>
      </trkpt>
      <trkpt lat="38.92796667" lon="-9.00568833">
        <ele>9.0</ele>
        <time>2019-05-16T12:33:37.901Z</time>
      </trkpt>
      <trkpt lat="38.92802667" lon="-9.00567833">
        <ele>9.0</ele>
        <time>2019-05-16T12:33:38.898Z</time>
      </trkpt>
      <trkpt lat="38.92802667" lon="-9.00567833">
        <ele>9.0</ele>
        <time>2019-05-16T12:33:39.900Z</time>
      </trkpt>
      <trkpt lat="38.92808667" lon="-9.00567333">
        <ele>9.0</ele>
        <time>2019-05-16T12:33:40.950Z</time>
      </trkpt>
      <trkpt lat="38.92808667" lon="-9.00567333">
        <ele>9.0</ele>
        <time>2019-05-16T12:33:41.916Z</time>
      </trkpt>
      <trkpt lat="38.928155" lon="-9.00566833">
        <ele>10.0</ele>
        <time>2019-05-16T12:33:42.927Z</time>
      </trkpt>
      <trkpt lat="38.928155" lon="-9.00566833">
        <ele>10.0</ele>
        <time>2019-05-16T12:33:43.919Z</time>
      </trkpt>
      <trkpt lat="38.92821667" lon="-9.00566333">
        <ele>10.0</ele>
        <time>2019-05-16T12:33:44.925Z</time>
      </trkpt>
      <trkpt lat="38.92821667" lon="-9.00566333">
        <ele>10.0</ele>
        <time>2019-05-16T12:33:45.923Z</time>
      </trkpt>
      <trkpt lat="38.92827833" lon="-9.005655">
        <ele>9.0</ele>
        <time>2019-05-16T12:33:46.934Z</time>
      </trkpt>
      <trkpt lat="38.92827833" lon="-9.005655">
        <ele>9.0</ele>
        <time>2019-05-16T12:33:47.921Z</time>
      </trkpt>
      <trkpt lat="38.92833833" lon="-9.00565167">
        <ele>10.0</ele>
        <time>2019-05-16T12:33:48.900Z</time>
      </trkpt>
      <trkpt lat="38.92833833" lon="-9.00565167">
        <ele>10.0</ele>
        <time>2019-05-16T12:33:49.931Z</time>
      </trkpt>
      <trkpt lat="38.928395" lon="-9.00564333">
        <ele>11.0</ele>
        <time>2019-05-16T12:33:50.919Z</time>
      </trkpt>
      <trkpt lat="38.928395" lon="-9.00564333">
        <ele>11.0</ele>
        <time>2019-05-16T12:33:51.914Z</time>
      </trkpt>
      <trkpt lat="38.92845" lon="-9.00563">
        <ele>11.0</ele>
        <time>2019-05-16T12:33:52.932Z</time>
      </trkpt>
      <trkpt lat="38.92845" lon="-9.00563">
        <ele>11.0</ele>
        <time>2019-05-16T12:33:53.922Z</time>
      </trkpt>
      <trkpt lat="38.92851" lon="-9.00561667">
        <ele>11.0</ele>
        <time>2019-05-16T12:33:54.930Z</time>
      </trkpt>
      <trkpt lat="38.92851" lon="-9.00561667">
        <ele>11.0</ele>
        <time>2019-05-16T12:33:55.921Z</time>
      </trkpt>
      <trkpt lat="38.92857" lon="-9.00561333">
        <ele>11.0</ele>
        <time>2019-05-16T12:33:56.928Z</time>
      </trkpt>
      <trkpt lat="38.92859833" lon="-9.00561">
        <ele>11.0</ele>
        <time>2019-05-16T12:33:57.903Z</time>
      </trkpt>
      <trkpt lat="38.92859833" lon="-9.00561">
        <ele>11.0</ele>
        <time>2019-05-16T12:33:58.918Z</time>
      </trkpt>
      <trkpt lat="38.928655" lon="-9.00561">
        <ele>12.0</ele>
        <time>2019-05-16T12:33:59.936Z</time>
      </trkpt>
      <trkpt lat="38.92868333" lon="-9.005605">
        <ele>13.0</ele>
        <time>2019-05-16T12:34:00.936Z</time>
      </trkpt>
      <trkpt lat="38.92868333" lon="-9.005605">
        <ele>13.0</ele>
        <time>2019-05-16T12:34:01.920Z</time>
      </trkpt>
      <trkpt lat="38.928745" lon="-9.00559667">
        <ele>13.0</ele>
        <time>2019-05-16T12:34:02.931Z</time>
      </trkpt>
      <trkpt lat="38.928775" lon="-9.00559167">
        <ele>13.0</ele>
        <time>2019-05-16T12:34:03.913Z</time>
      </trkpt>
      <trkpt lat="38.928775" lon="-9.00559167">
        <ele>13.0</ele>
        <time>2019-05-16T12:34:04.935Z</time>
      </trkpt>
      <trkpt lat="38.92883667" lon="-9.00558167">
        <ele>13.0</ele>
        <time>2019-05-16T12:34:05.905Z</time>
      </trkpt>
      <trkpt lat="38.92883667" lon="-9.00558167">
        <ele>13.0</ele>
        <time>2019-05-16T12:34:07.080Z</time>
      </trkpt>
      <trkpt lat="38.92886833" lon="-9.00557333">
        <ele>13.0</ele>
        <time>2019-05-16T12:34:07.921Z</time>
      </trkpt>
      <trkpt lat="38.92893333" lon="-9.00556">
        <ele>13.0</ele>
        <time>2019-05-16T12:34:08.898Z</time>
      </trkpt>
      <trkpt lat="38.92893333" lon="-9.00556">
        <ele>13.0</ele>
        <time>2019-05-16T12:34:09.936Z</time>
      </trkpt>
      <trkpt lat="38.92899833" lon="-9.00554833">
        <ele>13.0</ele>
        <time>2019-05-16T12:34:10.911Z</time>
      </trkpt>
      <trkpt lat="38.92899833" lon="-9.00554833">
        <ele>13.0</ele>
        <time>2019-05-16T12:34:11.928Z</time>
      </trkpt>
      <trkpt lat="38.929065" lon="-9.00553167">
        <ele>13.0</ele>
        <time>2019-05-16T12:34:12.898Z</time>
      </trkpt>
      <trkpt lat="38.929065" lon="-9.00553167">
        <ele>13.0</ele>
        <time>2019-05-16T12:34:13.910Z</time>
      </trkpt>
      <trkpt lat="38.92912667" lon="-9.005515">
        <ele>13.0</ele>
        <time>2019-05-16T12:34:14.921Z</time>
      </trkpt>
      <trkpt lat="38.92912667" lon="-9.005515">
        <ele>13.0</ele>
        <time>2019-05-16T12:34:15.936Z</time>
      </trkpt>
      <trkpt lat="38.92918833" lon="-9.00549">
        <ele>13.0</ele>
        <time>2019-05-16T12:34:16.908Z</time>
      </trkpt>
      <trkpt lat="38.92918833" lon="-9.00549">
        <ele>13.0</ele>
        <time>2019-05-16T12:34:17.909Z</time>
      </trkpt>
      <trkpt lat="38.92924833" lon="-9.00546333">
        <ele>13.0</ele>
        <time>2019-05-16T12:34:18.935Z</time>
      </trkpt>
      <trkpt lat="38.92924833" lon="-9.00546333">
        <ele>13.0</ele>
        <time>2019-05-16T12:34:19.928Z</time>
      </trkpt>
      <trkpt lat="38.92931167" lon="-9.005435">
        <ele>13.0</ele>
        <time>2019-05-16T12:34:20.908Z</time>
      </trkpt>
      <trkpt lat="38.92931167" lon="-9.005435">
        <ele>13.0</ele>
        <time>2019-05-16T12:34:21.935Z</time>
      </trkpt>
      <trkpt lat="38.92937667" lon="-9.005405">
        <ele>13.0</ele>
        <time>2019-05-16T12:34:22.905Z</time>
      </trkpt>
      <trkpt lat="38.92937667" lon="-9.005405">
        <ele>13.0</ele>
        <time>2019-05-16T12:34:23.901Z</time>
      </trkpt>
      <trkpt lat="38.929445" lon="-9.005375">
        <ele>13.0</ele>
        <time>2019-05-16T12:34:24.911Z</time>
      </trkpt>
      <trkpt lat="38.929445" lon="-9.005375">
        <ele>13.0</ele>
        <time>2019-05-16T12:34:25.904Z</time>
      </trkpt>
      <trkpt lat="38.92951" lon="-9.00534667">
        <ele>13.0</ele>
        <time>2019-05-16T12:34:26.915Z</time>
      </trkpt>
      <trkpt lat="38.92951" lon="-9.00534667">
        <ele>13.0</ele>
        <time>2019-05-16T12:34:27.899Z</time>
      </trkpt>
      <trkpt lat="38.92957167" lon="-9.005315">
        <ele>13.0</ele>
        <time>2019-05-16T12:34:28.906Z</time>
      </trkpt>
      <trkpt lat="38.92960167" lon="-9.00530167">
        <ele>13.0</ele>
        <time>2019-05-16T12:34:29.898Z</time>
      </trkpt>
      <trkpt lat="38.92963167" lon="-9.00528667">
        <ele>13.0</ele>
        <time>2019-05-16T12:34:30.902Z</time>
      </trkpt>
      <trkpt lat="38.92963167" lon="-9.00528667">
        <ele>13.0</ele>
        <time>2019-05-16T12:34:31.935Z</time>
      </trkpt>
      <trkpt lat="38.92969" lon="-9.00525167">
        <ele>13.0</ele>
        <time>2019-05-16T12:34:32.909Z</time>
      </trkpt>
      <trkpt lat="38.92969" lon="-9.00525167">
        <ele>13.0</ele>
        <time>2019-05-16T12:34:33.912Z</time>
      </trkpt>
      <trkpt lat="38.92974333" lon="-9.005215">
        <ele>13.0</ele>
        <time>2019-05-16T12:34:34.922Z</time>
      </trkpt>
      <trkpt lat="38.92974333" lon="-9.005215">
        <ele>13.0</ele>
        <time>2019-05-16T12:34:35.919Z</time>
      </trkpt>
      <trkpt lat="38.92980167" lon="-9.00517833">
        <ele>13.0</ele>
        <time>2019-05-16T12:34:36.926Z</time>
      </trkpt>
      <trkpt lat="38.92980167" lon="-9.00517833">
        <ele>13.0</ele>
        <time>2019-05-16T12:34:37.900Z</time>
      </trkpt>
      <trkpt lat="38.92986167" lon="-9.00514667">
        <ele>13.0</ele>
        <time>2019-05-16T12:34:38.923Z</time>
      </trkpt>
      <trkpt lat="38.92986167" lon="-9.00514667">
        <ele>13.0</ele>
        <time>2019-05-16T12:34:39.897Z</time>
      </trkpt>
      <trkpt lat="38.92992" lon="-9.005115">
        <ele>13.0</ele>
        <time>2019-05-16T12:34:40.907Z</time>
      </trkpt>
      <trkpt lat="38.92992" lon="-9.005115">
        <ele>13.0</ele>
        <time>2019-05-16T12:34:41.901Z</time>
      </trkpt>
      <trkpt lat="38.92997833" lon="-9.005085">
        <ele>13.0</ele>
        <time>2019-05-16T12:34:42.921Z</time>
      </trkpt>
      <trkpt lat="38.92997833" lon="-9.005085">
        <ele>13.0</ele>
        <time>2019-05-16T12:34:43.905Z</time>
      </trkpt>
      <trkpt lat="38.93003833" lon="-9.005055">
        <ele>13.0</ele>
        <time>2019-05-16T12:34:44.920Z</time>
      </trkpt>
      <trkpt lat="38.93003833" lon="-9.005055">
        <ele>13.0</ele>
        <time>2019-05-16T12:34:45.935Z</time>
      </trkpt>
      <trkpt lat="38.9301" lon="-9.00502667">
        <ele>13.0</ele>
        <time>2019-05-16T12:34:46.912Z</time>
      </trkpt>
      <trkpt lat="38.9301" lon="-9.00502667">
        <ele>13.0</ele>
        <time>2019-05-16T12:34:47.910Z</time>
      </trkpt>
      <trkpt lat="38.93016" lon="-9.00500667">
        <ele>13.0</ele>
        <time>2019-05-16T12:34:48.900Z</time>
      </trkpt>
      <trkpt lat="38.93016" lon="-9.00500667">
        <ele>13.0</ele>
        <time>2019-05-16T12:34:49.910Z</time>
      </trkpt>
      <trkpt lat="38.93022" lon="-9.00498">
        <ele>13.0</ele>
        <time>2019-05-16T12:34:50.917Z</time>
      </trkpt>
      <trkpt lat="38.93022" lon="-9.00498">
        <ele>13.0</ele>
        <time>2019-05-16T12:34:51.904Z</time>
      </trkpt>
      <trkpt lat="38.93028" lon="-9.00495333">
        <ele>13.0</ele>
        <time>2019-05-16T12:34:52.924Z</time>
      </trkpt>
      <trkpt lat="38.93028" lon="-9.00495333">
        <ele>13.0</ele>
        <time>2019-05-16T12:34:53.902Z</time>
      </trkpt>
      <trkpt lat="38.93033833" lon="-9.00493333">
        <ele>13.0</ele>
        <time>2019-05-16T12:34:54.929Z</time>
      </trkpt>
      <trkpt lat="38.93033833" lon="-9.00493333">
        <ele>13.0</ele>
        <time>2019-05-16T12:34:55.918Z</time>
      </trkpt>
      <trkpt lat="38.93039667" lon="-9.00490833">
        <ele>13.0</ele>
        <time>2019-05-16T12:34:56.932Z</time>
      </trkpt>
      <trkpt lat="38.93039667" lon="-9.00490833">
        <ele>13.0</ele>
        <time>2019-05-16T12:34:57.926Z</time>
      </trkpt>
      <trkpt lat="38.93045167" lon="-9.00487667">
        <ele>13.0</ele>
        <time>2019-05-16T12:34:58.904Z</time>
      </trkpt>
      <trkpt lat="38.93045167" lon="-9.00487667">
        <ele>13.0</ele>
        <time>2019-05-16T12:34:59.937Z</time>
      </trkpt>
      <trkpt lat="38.93051" lon="-9.00485">
        <ele>13.0</ele>
        <time>2019-05-16T12:35:00.904Z</time>
      </trkpt>
      <trkpt lat="38.93051" lon="-9.00485">
        <ele>13.0</ele>
        <time>2019-05-16T12:35:01.906Z</time>
      </trkpt>
      <trkpt lat="38.93057" lon="-9.00484667">
        <ele>13.0</ele>
        <time>2019-05-16T12:35:02.921Z</time>
      </trkpt>
      <trkpt lat="38.93057" lon="-9.00484667">
        <ele>13.0</ele>
        <time>2019-05-16T12:35:03.916Z</time>
      </trkpt>
      <trkpt lat="38.93062833" lon="-9.00486333">
        <ele>13.0</ele>
        <time>2019-05-16T12:35:04.923Z</time>
      </trkpt>
      <trkpt lat="38.93062833" lon="-9.00486333">
        <ele>13.0</ele>
        <time>2019-05-16T12:35:05.903Z</time>
      </trkpt>
      <trkpt lat="38.930685" lon="-9.00489333">
        <ele>13.0</ele>
        <time>2019-05-16T12:35:06.972Z</time>
      </trkpt>
      <trkpt lat="38.930685" lon="-9.00489333">
        <ele>13.0</ele>
        <time>2019-05-16T12:35:07.939Z</time>
      </trkpt>
      <trkpt lat="38.93074" lon="-9.00493333">
        <ele>13.0</ele>
        <time>2019-05-16T12:35:08.913Z</time>
      </trkpt>
      <trkpt lat="38.93074" lon="-9.00493333">
        <ele>13.0</ele>
        <time>2019-05-16T12:35:09.921Z</time>
      </trkpt>
      <trkpt lat="38.93079333" lon="-9.004975">
        <ele>12.0</ele>
        <time>2019-05-16T12:35:10.932Z</time>
      </trkpt>
      <trkpt lat="38.93079333" lon="-9.004975">
        <ele>12.0</ele>
        <time>2019-05-16T12:35:11.901Z</time>
      </trkpt>
      <trkpt lat="38.93084833" lon="-9.00501833">
        <ele>12.0</ele>
        <time>2019-05-16T12:35:12.900Z</time>
      </trkpt>
      <trkpt lat="38.93084833" lon="-9.00501833">
        <ele>12.0</ele>
        <time>2019-05-16T12:35:13.936Z</time>
      </trkpt>
      <trkpt lat="38.930905" lon="-9.00506167">
        <ele>12.0</ele>
        <time>2019-05-16T12:35:14.916Z</time>
      </trkpt>
      <trkpt lat="38.930905" lon="-9.00506167">
        <ele>12.0</ele>
        <time>2019-05-16T12:35:15.936Z</time>
      </trkpt>
      <trkpt lat="38.93096167" lon="-9.005105">
        <ele>12.0</ele>
        <time>2019-05-16T12:35:16.906Z</time>
      </trkpt>
      <trkpt lat="38.93096167" lon="-9.005105">
        <ele>12.0</ele>
        <time>2019-05-16T12:35:17.936Z</time>
      </trkpt>
      <trkpt lat="38.931015" lon="-9.00514333">
        <ele>12.0</ele>
        <time>2019-05-16T12:35:18.904Z</time>
      </trkpt>
      <trkpt lat="38.931015" lon="-9.00514333">
        <ele>12.0</ele>
        <time>2019-05-16T12:35:19.915Z</time>
      </trkpt>
      <trkpt lat="38.931075" lon="-9.00519167">
        <ele>12.0</ele>
        <time>2019-05-16T12:35:20.907Z</time>
      </trkpt>
      <trkpt lat="38.931075" lon="-9.00519167">
        <ele>12.0</ele>
        <time>2019-05-16T12:35:21.912Z</time>
      </trkpt>
      <trkpt lat="38.931135" lon="-9.00523667">
        <ele>12.0</ele>
        <time>2019-05-16T12:35:22.920Z</time>
      </trkpt>
      <trkpt lat="38.931135" lon="-9.00523667">
        <ele>12.0</ele>
        <time>2019-05-16T12:35:23.901Z</time>
      </trkpt>
      <trkpt lat="38.931195" lon="-9.00527667">
        <ele>12.0</ele>
        <time>2019-05-16T12:35:24.910Z</time>
      </trkpt>
      <trkpt lat="38.931195" lon="-9.00527667">
        <ele>12.0</ele>
        <time>2019-05-16T12:35:25.919Z</time>
      </trkpt>
      <trkpt lat="38.93125833" lon="-9.00527667">
        <ele>12.0</ele>
        <time>2019-05-16T12:35:26.933Z</time>
      </trkpt>
      <trkpt lat="38.93128833" lon="-9.00526333">
        <ele>12.0</ele>
        <time>2019-05-16T12:35:27.900Z</time>
      </trkpt>
      <trkpt lat="38.93128833" lon="-9.00526333">
        <ele>12.0</ele>
        <time>2019-05-16T12:35:28.902Z</time>
      </trkpt>
      <trkpt lat="38.93135" lon="-9.005235">
        <ele>12.0</ele>
        <time>2019-05-16T12:35:29.931Z</time>
      </trkpt>
      <trkpt lat="38.93137833" lon="-9.00522167">
        <ele>12.0</ele>
        <time>2019-05-16T12:35:30.928Z</time>
      </trkpt>
      <trkpt lat="38.93137833" lon="-9.00522167">
        <ele>12.0</ele>
        <time>2019-05-16T12:35:31.927Z</time>
      </trkpt>
      <trkpt lat="38.931435" lon="-9.00519667">
        <ele>13.0</ele>
        <time>2019-05-16T12:35:32.902Z</time>
      </trkpt>
      <trkpt lat="38.93146167" lon="-9.005185">
        <ele>13.0</ele>
        <time>2019-05-16T12:35:33.918Z</time>
      </trkpt>
      <trkpt lat="38.93146167" lon="-9.005185">
        <ele>13.0</ele>
        <time>2019-05-16T12:35:34.905Z</time>
      </trkpt>
      <trkpt lat="38.931515" lon="-9.00516">
        <ele>13.0</ele>
        <time>2019-05-16T12:35:35.915Z</time>
      </trkpt>
      <trkpt lat="38.93154333" lon="-9.00514833">
        <ele>13.0</ele>
        <time>2019-05-16T12:35:36.924Z</time>
      </trkpt>
      <trkpt lat="38.93154333" lon="-9.00514833">
        <ele>13.0</ele>
        <time>2019-05-16T12:35:37.908Z</time>
      </trkpt>
      <trkpt lat="38.93159667" lon="-9.00512333">
        <ele>14.0</ele>
        <time>2019-05-16T12:35:38.950Z</time>
      </trkpt>
      <trkpt lat="38.93162667" lon="-9.00510833">
        <ele>14.0</ele>
        <time>2019-05-16T12:35:39.910Z</time>
      </trkpt>
      <trkpt lat="38.93162667" lon="-9.00510833">
        <ele>14.0</ele>
        <time>2019-05-16T12:35:40.936Z</time>
      </trkpt>
      <trkpt lat="38.93168667" lon="-9.00508">
        <ele>14.0</ele>
        <time>2019-05-16T12:35:41.906Z</time>
      </trkpt>
      <trkpt lat="38.93171667" lon="-9.005065">
        <ele>14.0</ele>
        <time>2019-05-16T12:35:42.909Z</time>
      </trkpt>
      <trkpt lat="38.93171667" lon="-9.005065">
        <ele>14.0</ele>
        <time>2019-05-16T12:35:43.909Z</time>
      </trkpt>
      <trkpt lat="38.93178" lon="-9.005035">
        <ele>14.0</ele>
        <time>2019-05-16T12:35:44.933Z</time>
      </trkpt>
      <trkpt lat="38.93178" lon="-9.005035">
        <ele>14.0</ele>
        <time>2019-05-16T12:35:45.905Z</time>
      </trkpt>
      <trkpt lat="38.931845" lon="-9.005005">
        <ele>14.0</ele>
        <time>2019-05-16T12:35:46.911Z</time>
      </trkpt>
      <trkpt lat="38.931845" lon="-9.005005">
        <ele>14.0</ele>
        <time>2019-05-16T12:35:47.914Z</time>
      </trkpt>
      <trkpt lat="38.93190667" lon="-9.00497333">
        <ele>14.0</ele>
        <time>2019-05-16T12:35:48.932Z</time>
      </trkpt>
      <trkpt lat="38.93190667" lon="-9.00497333">
        <ele>14.0</ele>
        <time>2019-05-16T12:35:49.929Z</time>
      </trkpt>
      <trkpt lat="38.93196833" lon="-9.004945">
        <ele>14.0</ele>
        <time>2019-05-16T12:35:50.897Z</time>
      </trkpt>
      <trkpt lat="38.93196833" lon="-9.004945">
        <ele>14.0</ele>
        <time>2019-05-16T12:35:51.906Z</time>
      </trkpt>
      <trkpt lat="38.93202833" lon="-9.00491667">
        <ele>14.0</ele>
        <time>2019-05-16T12:35:52.919Z</time>
      </trkpt>
      <trkpt lat="38.93202833" lon="-9.00491667">
        <ele>14.0</ele>
        <time>2019-05-16T12:35:53.925Z</time>
      </trkpt>
      <trkpt lat="38.932085" lon="-9.00489167">
        <ele>14.0</ele>
        <time>2019-05-16T12:35:54.932Z</time>
      </trkpt>
      <trkpt lat="38.932085" lon="-9.00489167">
        <ele>14.0</ele>
        <time>2019-05-16T12:35:55.900Z</time>
      </trkpt>
      <trkpt lat="38.93214333" lon="-9.004865">
        <ele>14.0</ele>
        <time>2019-05-16T12:35:56.910Z</time>
      </trkpt>
      <trkpt lat="38.93214333" lon="-9.004865">
        <ele>14.0</ele>
        <time>2019-05-16T12:35:57.901Z</time>
      </trkpt>
      <trkpt lat="38.9322" lon="-9.00484">
        <ele>14.0</ele>
        <time>2019-05-16T12:35:58.915Z</time>
      </trkpt>
      <trkpt lat="38.9322" lon="-9.00484">
        <ele>14.0</ele>
        <time>2019-05-16T12:35:59.904Z</time>
      </trkpt>
      <trkpt lat="38.93225833" lon="-9.004815">
        <ele>14.0</ele>
        <time>2019-05-16T12:36:00.917Z</time>
      </trkpt>
      <trkpt lat="38.93225833" lon="-9.004815">
        <ele>14.0</ele>
        <time>2019-05-16T12:36:01.899Z</time>
      </trkpt>
      <trkpt lat="38.93231667" lon="-9.00478833">
        <ele>13.0</ele>
        <time>2019-05-16T12:36:02.910Z</time>
      </trkpt>
      <trkpt lat="38.93231667" lon="-9.00478833">
        <ele>13.0</ele>
        <time>2019-05-16T12:36:03.903Z</time>
      </trkpt>
      <trkpt lat="38.932365" lon="-9.00475">
        <ele>14.0</ele>
        <time>2019-05-16T12:36:04.923Z</time>
      </trkpt>
      <trkpt lat="38.93237333" lon="-9.00471667">
        <ele>14.0</ele>
        <time>2019-05-16T12:36:05.905Z</time>
      </trkpt>
      <trkpt lat="38.93237333" lon="-9.00468167">
        <ele>14.0</ele>
        <time>2019-05-16T12:36:06.928Z</time>
      </trkpt>
      <trkpt lat="38.93237333" lon="-9.00468167">
        <ele>14.0</ele>
        <time>2019-05-16T12:36:07.918Z</time>
      </trkpt>
      <trkpt lat="38.93235833" lon="-9.00459667">
        <ele>14.0</ele>
        <time>2019-05-16T12:36:08.905Z</time>
      </trkpt>
      <trkpt lat="38.93235833" lon="-9.00459667">
        <ele>14.0</ele>
        <time>2019-05-16T12:36:09.931Z</time>
      </trkpt>
      <trkpt lat="38.932345" lon="-9.00450333">
        <ele>14.0</ele>
        <time>2019-05-16T12:36:10.909Z</time>
      </trkpt>
      <trkpt lat="38.932345" lon="-9.00450333">
        <ele>14.0</ele>
        <time>2019-05-16T12:36:11.935Z</time>
      </trkpt>
      <trkpt lat="38.93233667" lon="-9.00439833">
        <ele>13.0</ele>
        <time>2019-05-16T12:36:12.904Z</time>
      </trkpt>
      <trkpt lat="38.93233667" lon="-9.00439833">
        <ele>13.0</ele>
        <time>2019-05-16T12:36:13.898Z</time>
      </trkpt>
      <trkpt lat="38.93234167" lon="-9.004295">
        <ele>13.0</ele>
        <time>2019-05-16T12:36:14.920Z</time>
      </trkpt>
      <trkpt lat="38.93234167" lon="-9.004295">
        <ele>13.0</ele>
        <time>2019-05-16T12:36:15.920Z</time>
      </trkpt>
      <trkpt lat="38.93238" lon="-9.0042">
        <ele>13.0</ele>
        <time>2019-05-16T12:36:16.931Z</time>
      </trkpt>
      <trkpt lat="38.93238" lon="-9.0042">
        <ele>13.0</ele>
        <time>2019-05-16T12:36:17.926Z</time>
      </trkpt>
      <trkpt lat="38.93242167" lon="-9.00411667">
        <ele>14.0</ele>
        <time>2019-05-16T12:36:18.920Z</time>
      </trkpt>
      <trkpt lat="38.93242167" lon="-9.00411667">
        <ele>14.0</ele>
        <time>2019-05-16T12:36:19.915Z</time>
      </trkpt>
      <trkpt lat="38.93247" lon="-9.00403833">
        <ele>14.0</ele>
        <time>2019-05-16T12:36:20.901Z</time>
      </trkpt>
      <trkpt lat="38.93247" lon="-9.00403833">
        <ele>14.0</ele>
        <time>2019-05-16T12:36:21.910Z</time>
      </trkpt>
      <trkpt lat="38.93254" lon="-9.00398833">
        <ele>14.0</ele>
        <time>2019-05-16T12:36:22.920Z</time>
      </trkpt>
      <trkpt lat="38.93254" lon="-9.00398833">
        <ele>14.0</ele>
        <time>2019-05-16T12:36:23.911Z</time>
      </trkpt>
      <trkpt lat="38.93261333" lon="-9.00393833">
        <ele>14.0</ele>
        <time>2019-05-16T12:36:24.928Z</time>
      </trkpt>
      <trkpt lat="38.93261333" lon="-9.00393833">
        <ele>14.0</ele>
        <time>2019-05-16T12:36:25.922Z</time>
      </trkpt>
      <trkpt lat="38.93268667" lon="-9.003885">
        <ele>14.0</ele>
        <time>2019-05-16T12:36:26.931Z</time>
      </trkpt>
      <trkpt lat="38.93268667" lon="-9.003885">
        <ele>14.0</ele>
        <time>2019-05-16T12:36:27.920Z</time>
      </trkpt>
      <trkpt lat="38.93275667" lon="-9.00382667">
        <ele>14.0</ele>
        <time>2019-05-16T12:36:28.905Z</time>
      </trkpt>
      <trkpt lat="38.93275667" lon="-9.00382667">
        <ele>14.0</ele>
        <time>2019-05-16T12:36:29.902Z</time>
      </trkpt>
      <trkpt lat="38.93283" lon="-9.00376833">
        <ele>14.0</ele>
        <time>2019-05-16T12:36:30.929Z</time>
      </trkpt>
      <trkpt lat="38.93283" lon="-9.00376833">
        <ele>14.0</ele>
        <time>2019-05-16T12:36:31.920Z</time>
      </trkpt>
      <trkpt lat="38.93290667" lon="-9.00370833">
        <ele>14.0</ele>
        <time>2019-05-16T12:36:32.930Z</time>
      </trkpt>
      <trkpt lat="38.93290667" lon="-9.00370833">
        <ele>14.0</ele>
        <time>2019-05-16T12:36:33.901Z</time>
      </trkpt>
      <trkpt lat="38.932985" lon="-9.00364833">
        <ele>14.0</ele>
        <time>2019-05-16T12:36:34.908Z</time>
      </trkpt>
      <trkpt lat="38.932985" lon="-9.00364833">
        <ele>14.0</ele>
        <time>2019-05-16T12:36:35.904Z</time>
      </trkpt>
      <trkpt lat="38.93306167" lon="-9.00359667">
        <ele>14.0</ele>
        <time>2019-05-16T12:36:36.918Z</time>
      </trkpt>
      <trkpt lat="38.93306167" lon="-9.00359667">
        <ele>14.0</ele>
        <time>2019-05-16T12:36:37.921Z</time>
      </trkpt>
      <trkpt lat="38.93313" lon="-9.003545">
        <ele>14.0</ele>
        <time>2019-05-16T12:36:38.917Z</time>
      </trkpt>
      <trkpt lat="38.93313" lon="-9.003545">
        <ele>14.0</ele>
        <time>2019-05-16T12:36:39.902Z</time>
      </trkpt>
      <trkpt lat="38.933195" lon="-9.00349">
        <ele>14.0</ele>
        <time>2019-05-16T12:36:40.926Z</time>
      </trkpt>
      <trkpt lat="38.933195" lon="-9.00349">
        <ele>14.0</ele>
        <time>2019-05-16T12:36:41.924Z</time>
      </trkpt>
      <trkpt lat="38.93326333" lon="-9.00344">
        <ele>14.0</ele>
        <time>2019-05-16T12:36:42.936Z</time>
      </trkpt>
      <trkpt lat="38.93326333" lon="-9.00344">
        <ele>14.0</ele>
        <time>2019-05-16T12:36:43.924Z</time>
      </trkpt>
      <trkpt lat="38.93333167" lon="-9.00338833">
        <ele>14.0</ele>
        <time>2019-05-16T12:36:44.903Z</time>
      </trkpt>
      <trkpt lat="38.93333167" lon="-9.00338833">
        <ele>14.0</ele>
        <time>2019-05-16T12:36:45.921Z</time>
      </trkpt>
      <trkpt lat="38.933395" lon="-9.00333167">
        <ele>14.0</ele>
        <time>2019-05-16T12:36:46.931Z</time>
      </trkpt>
      <trkpt lat="38.933395" lon="-9.00333167">
        <ele>14.0</ele>
        <time>2019-05-16T12:36:47.910Z</time>
      </trkpt>
      <trkpt lat="38.93344833" lon="-9.003255">
        <ele>14.0</ele>
        <time>2019-05-16T12:36:48.903Z</time>
      </trkpt>
      <trkpt lat="38.93344833" lon="-9.003255">
        <ele>14.0</ele>
        <time>2019-05-16T12:36:49.921Z</time>
      </trkpt>
      <trkpt lat="38.933505" lon="-9.00318">
        <ele>14.0</ele>
        <time>2019-05-16T12:36:50.930Z</time>
      </trkpt>
      <trkpt lat="38.933505" lon="-9.00318">
        <ele>14.0</ele>
        <time>2019-05-16T12:36:51.913Z</time>
      </trkpt>
      <trkpt lat="38.93355833" lon="-9.00310333">
        <ele>14.0</ele>
        <time>2019-05-16T12:36:52.926Z</time>
      </trkpt>
      <trkpt lat="38.93358667" lon="-9.003065">
        <ele>14.0</ele>
        <time>2019-05-16T12:36:53.918Z</time>
      </trkpt>
      <trkpt lat="38.93361333" lon="-9.00302833">
        <ele>14.0</ele>
        <time>2019-05-16T12:36:54.910Z</time>
      </trkpt>
      <trkpt lat="38.93361333" lon="-9.00302833">
        <ele>14.0</ele>
        <time>2019-05-16T12:36:55.928Z</time>
      </trkpt>
      <trkpt lat="38.93367667" lon="-9.002965">
        <ele>14.0</ele>
        <time>2019-05-16T12:36:56.899Z</time>
      </trkpt>
      <trkpt lat="38.93367667" lon="-9.002965">
        <ele>14.0</ele>
        <time>2019-05-16T12:36:57.907Z</time>
      </trkpt>
      <trkpt lat="38.933745" lon="-9.00291167">
        <ele>14.0</ele>
        <time>2019-05-16T12:36:58.900Z</time>
      </trkpt>
      <trkpt lat="38.93377833" lon="-9.002885">
        <ele>13.0</ele>
        <time>2019-05-16T12:36:59.911Z</time>
      </trkpt>
      <trkpt lat="38.93381167" lon="-9.00285833">
        <ele>13.0</ele>
        <time>2019-05-16T12:37:00.918Z</time>
      </trkpt>
      <trkpt lat="38.93381167" lon="-9.00285833">
        <ele>13.0</ele>
        <time>2019-05-16T12:37:01.915Z</time>
      </trkpt>
      <trkpt lat="38.93387833" lon="-9.00280167">
        <ele>13.0</ele>
        <time>2019-05-16T12:37:02.930Z</time>
      </trkpt>
      <trkpt lat="38.93391333" lon="-9.002775">
        <ele>13.0</ele>
        <time>2019-05-16T12:37:03.900Z</time>
      </trkpt>
      <trkpt lat="38.93395167" lon="-9.00274667">
        <ele>13.0</ele>
        <time>2019-05-16T12:37:04.915Z</time>
      </trkpt>
      <trkpt lat="38.93395167" lon="-9.00274667">
        <ele>13.0</ele>
        <time>2019-05-16T12:37:05.932Z</time>
      </trkpt>
      <trkpt lat="38.93402167" lon="-9.00269167">
        <ele>13.0</ele>
        <time>2019-05-16T12:37:06.910Z</time>
      </trkpt>
      <trkpt lat="38.93402167" lon="-9.00269167">
        <ele>13.0</ele>
        <time>2019-05-16T12:37:07.931Z</time>
      </trkpt>
      <trkpt lat="38.93409" lon="-9.002635">
        <ele>13.0</ele>
        <time>2019-05-16T12:37:08.922Z</time>
      </trkpt>
      <trkpt lat="38.934125" lon="-9.00260667">
        <ele>13.0</ele>
        <time>2019-05-16T12:37:09.916Z</time>
      </trkpt>
      <trkpt lat="38.934125" lon="-9.00260667">
        <ele>13.0</ele>
        <time>2019-05-16T12:37:10.919Z</time>
      </trkpt>
      <trkpt lat="38.934195" lon="-9.00255167">
        <ele>13.0</ele>
        <time>2019-05-16T12:37:11.929Z</time>
      </trkpt>
      <trkpt lat="38.93423" lon="-9.002525">
        <ele>13.0</ele>
        <time>2019-05-16T12:37:12.921Z</time>
      </trkpt>
      <trkpt lat="38.93423" lon="-9.002525">
        <ele>13.0</ele>
        <time>2019-05-16T12:37:13.924Z</time>
      </trkpt>
      <trkpt lat="38.93430333" lon="-9.00247167">
        <ele>13.0</ele>
        <time>2019-05-16T12:37:14.931Z</time>
      </trkpt>
      <trkpt lat="38.93430333" lon="-9.00247167">
        <ele>13.0</ele>
        <time>2019-05-16T12:37:15.919Z</time>
      </trkpt>
      <trkpt lat="38.93437333" lon="-9.00242">
        <ele>13.0</ele>
        <time>2019-05-16T12:37:16.930Z</time>
      </trkpt>
      <trkpt lat="38.93437333" lon="-9.00242">
        <ele>13.0</ele>
        <time>2019-05-16T12:37:17.898Z</time>
      </trkpt>
      <trkpt lat="38.93443833" lon="-9.00236167">
        <ele>13.0</ele>
        <time>2019-05-16T12:37:18.920Z</time>
      </trkpt>
      <trkpt lat="38.93443833" lon="-9.00236167">
        <ele>13.0</ele>
        <time>2019-05-16T12:37:19.919Z</time>
      </trkpt>
      <trkpt lat="38.93450667" lon="-9.00230833">
        <ele>13.0</ele>
        <time>2019-05-16T12:37:20.918Z</time>
      </trkpt>
      <trkpt lat="38.93450667" lon="-9.00230833">
        <ele>13.0</ele>
        <time>2019-05-16T12:37:21.921Z</time>
      </trkpt>
      <trkpt lat="38.93457333" lon="-9.00226">
        <ele>13.0</ele>
        <time>2019-05-16T12:37:22.931Z</time>
      </trkpt>
      <trkpt lat="38.93457333" lon="-9.00226">
        <ele>13.0</ele>
        <time>2019-05-16T12:37:23.911Z</time>
      </trkpt>
      <trkpt lat="38.93463833" lon="-9.00221">
        <ele>13.0</ele>
        <time>2019-05-16T12:37:24.926Z</time>
      </trkpt>
      <trkpt lat="38.93463833" lon="-9.00221">
        <ele>13.0</ele>
        <time>2019-05-16T12:37:25.915Z</time>
      </trkpt>
      <trkpt lat="38.93470167" lon="-9.00216">
        <ele>13.0</ele>
        <time>2019-05-16T12:37:26.927Z</time>
      </trkpt>
      <trkpt lat="38.93470167" lon="-9.00216">
        <ele>13.0</ele>
        <time>2019-05-16T12:37:27.912Z</time>
      </trkpt>
      <trkpt lat="38.934765" lon="-9.00211">
        <ele>13.0</ele>
        <time>2019-05-16T12:37:28.898Z</time>
      </trkpt>
      <trkpt lat="38.934765" lon="-9.00211">
        <ele>13.0</ele>
        <time>2019-05-16T12:37:29.930Z</time>
      </trkpt>
      <trkpt lat="38.93482667" lon="-9.00205667">
        <ele>13.0</ele>
        <time>2019-05-16T12:37:30.900Z</time>
      </trkpt>
      <trkpt lat="38.93482667" lon="-9.00205667">
        <ele>13.0</ele>
        <time>2019-05-16T12:37:31.907Z</time>
      </trkpt>
      <trkpt lat="38.93489333" lon="-9.00200333">
        <ele>13.0</ele>
        <time>2019-05-16T12:37:32.921Z</time>
      </trkpt>
      <trkpt lat="38.93489333" lon="-9.00200333">
        <ele>13.0</ele>
        <time>2019-05-16T12:37:33.911Z</time>
      </trkpt>
      <trkpt lat="38.93496167" lon="-9.00195">
        <ele>13.0</ele>
        <time>2019-05-16T12:37:34.927Z</time>
      </trkpt>
      <trkpt lat="38.93496167" lon="-9.00195">
        <ele>13.0</ele>
        <time>2019-05-16T12:37:35.918Z</time>
      </trkpt>
      <trkpt lat="38.93503" lon="-9.001895">
        <ele>13.0</ele>
        <time>2019-05-16T12:37:36.934Z</time>
      </trkpt>
      <trkpt lat="38.93503" lon="-9.001895">
        <ele>13.0</ele>
        <time>2019-05-16T12:37:37.904Z</time>
      </trkpt>
      <trkpt lat="38.9351" lon="-9.00184">
        <ele>13.0</ele>
        <time>2019-05-16T12:37:38.915Z</time>
      </trkpt>
      <trkpt lat="38.93513333" lon="-9.00181333">
        <ele>13.0</ele>
        <time>2019-05-16T12:37:39.912Z</time>
      </trkpt>
      <trkpt lat="38.93513333" lon="-9.00181333">
        <ele>13.0</ele>
        <time>2019-05-16T12:37:40.917Z</time>
      </trkpt>
      <trkpt lat="38.9352" lon="-9.00176167">
        <ele>13.0</ele>
        <time>2019-05-16T12:37:41.902Z</time>
      </trkpt>
      <trkpt lat="38.935235" lon="-9.00173667">
        <ele>13.0</ele>
        <time>2019-05-16T12:37:42.972Z</time>
      </trkpt>
      <trkpt lat="38.935235" lon="-9.00173667">
        <ele>13.0</ele>
        <time>2019-05-16T12:37:43.905Z</time>
      </trkpt>
      <trkpt lat="38.9353" lon="-9.001685">
        <ele>14.0</ele>
        <time>2019-05-16T12:37:44.917Z</time>
      </trkpt>
      <trkpt lat="38.9353" lon="-9.001685">
        <ele>14.0</ele>
        <time>2019-05-16T12:37:45.901Z</time>
      </trkpt>
      <trkpt lat="38.93536667" lon="-9.00163333">
        <ele>13.0</ele>
        <time>2019-05-16T12:37:46.910Z</time>
      </trkpt>
      <trkpt lat="38.93536667" lon="-9.00163333">
        <ele>13.0</ele>
        <time>2019-05-16T12:37:47.912Z</time>
      </trkpt>
      <trkpt lat="38.93543333" lon="-9.00157833">
        <ele>13.0</ele>
        <time>2019-05-16T12:37:48.929Z</time>
      </trkpt>
      <trkpt lat="38.93543333" lon="-9.00157833">
        <ele>13.0</ele>
        <time>2019-05-16T12:37:49.922Z</time>
      </trkpt>
      <trkpt lat="38.93550167" lon="-9.001525">
        <ele>13.0</ele>
        <time>2019-05-16T12:37:50.931Z</time>
      </trkpt>
      <trkpt lat="38.93550167" lon="-9.001525">
        <ele>13.0</ele>
        <time>2019-05-16T12:37:51.911Z</time>
      </trkpt>
      <trkpt lat="38.93557167" lon="-9.00146833">
        <ele>12.0</ele>
        <time>2019-05-16T12:37:52.920Z</time>
      </trkpt>
      <trkpt lat="38.93557167" lon="-9.00146833">
        <ele>12.0</ele>
        <time>2019-05-16T12:37:53.918Z</time>
      </trkpt>
      <trkpt lat="38.93564167" lon="-9.001415">
        <ele>12.0</ele>
        <time>2019-05-16T12:37:54.928Z</time>
      </trkpt>
      <trkpt lat="38.93564167" lon="-9.001415">
        <ele>12.0</ele>
        <time>2019-05-16T12:37:55.917Z</time>
      </trkpt>
      <trkpt lat="38.935715" lon="-9.001365">
        <ele>12.0</ele>
        <time>2019-05-16T12:37:56.926Z</time>
      </trkpt>
      <trkpt lat="38.935715" lon="-9.001365">
        <ele>12.0</ele>
        <time>2019-05-16T12:37:57.921Z</time>
      </trkpt>
      <trkpt lat="38.93579167" lon="-9.00131833">
        <ele>12.0</ele>
        <time>2019-05-16T12:37:58.902Z</time>
      </trkpt>
      <trkpt lat="38.93579167" lon="-9.00131833">
        <ele>12.0</ele>
        <time>2019-05-16T12:37:59.903Z</time>
      </trkpt>
      <trkpt lat="38.93586667" lon="-9.00127167">
        <ele>12.0</ele>
        <time>2019-05-16T12:38:00.920Z</time>
      </trkpt>
      <trkpt lat="38.93586667" lon="-9.00127167">
        <ele>12.0</ele>
        <time>2019-05-16T12:38:01.915Z</time>
      </trkpt>
      <trkpt lat="38.93594167" lon="-9.00122">
        <ele>12.0</ele>
        <time>2019-05-16T12:38:02.924Z</time>
      </trkpt>
      <trkpt lat="38.93598167" lon="-9.00119667">
        <ele>12.0</ele>
        <time>2019-05-16T12:38:03.931Z</time>
      </trkpt>
      <trkpt lat="38.93598167" lon="-9.00119667">
        <ele>12.0</ele>
        <time>2019-05-16T12:38:04.921Z</time>
      </trkpt>
      <trkpt lat="38.93605833" lon="-9.00115">
        <ele>13.0</ele>
        <time>2019-05-16T12:38:05.929Z</time>
      </trkpt>
      <trkpt lat="38.93605833" lon="-9.00115">
        <ele>13.0</ele>
        <time>2019-05-16T12:38:06.899Z</time>
      </trkpt>
      <trkpt lat="38.93613333" lon="-9.00110167">
        <ele>13.0</ele>
        <time>2019-05-16T12:38:07.919Z</time>
      </trkpt>
      <trkpt lat="38.93617" lon="-9.00107667">
        <ele>13.0</ele>
        <time>2019-05-16T12:38:08.923Z</time>
      </trkpt>
      <trkpt lat="38.93617" lon="-9.00107667">
        <ele>13.0</ele>
        <time>2019-05-16T12:38:09.919Z</time>
      </trkpt>
      <trkpt lat="38.93624833" lon="-9.00103167">
        <ele>13.0</ele>
        <time>2019-05-16T12:38:10.927Z</time>
      </trkpt>
      <trkpt lat="38.93628667" lon="-9.00100833">
        <ele>13.0</ele>
        <time>2019-05-16T12:38:11.916Z</time>
      </trkpt>
      <trkpt lat="38.93628667" lon="-9.00100833">
        <ele>13.0</ele>
        <time>2019-05-16T12:38:12.900Z</time>
      </trkpt>
      <trkpt lat="38.93636333" lon="-9.00095833">
        <ele>13.0</ele>
        <time>2019-05-16T12:38:13.914Z</time>
      </trkpt>
      <trkpt lat="38.93640333" lon="-9.00093333">
        <ele>13.0</ele>
        <time>2019-05-16T12:38:14.918Z</time>
      </trkpt>
      <trkpt lat="38.93640333" lon="-9.00093333">
        <ele>13.0</ele>
        <time>2019-05-16T12:38:15.921Z</time>
      </trkpt>
      <trkpt lat="38.936475" lon="-9.000885">
        <ele>12.0</ele>
        <time>2019-05-16T12:38:16.933Z</time>
      </trkpt>
      <trkpt lat="38.936475" lon="-9.000885">
        <ele>12.0</ele>
        <time>2019-05-16T12:38:17.901Z</time>
      </trkpt>
      <trkpt lat="38.93654833" lon="-9.000835">
        <ele>12.0</ele>
        <time>2019-05-16T12:38:18.917Z</time>
      </trkpt>
      <trkpt lat="38.93654833" lon="-9.000835">
        <ele>12.0</ele>
        <time>2019-05-16T12:38:19.909Z</time>
      </trkpt>
      <trkpt lat="38.93661333" lon="-9.000775">
        <ele>11.0</ele>
        <time>2019-05-16T12:38:20.931Z</time>
      </trkpt>
      <trkpt lat="38.93661333" lon="-9.000775">
        <ele>11.0</ele>
        <time>2019-05-16T12:38:21.930Z</time>
      </trkpt>
      <trkpt lat="38.93667833" lon="-9.00070833">
        <ele>11.0</ele>
        <time>2019-05-16T12:38:22.910Z</time>
      </trkpt>
      <trkpt lat="38.93667833" lon="-9.00070833">
        <ele>11.0</ele>
        <time>2019-05-16T12:38:23.899Z</time>
      </trkpt>
      <trkpt lat="38.93674167" lon="-9.00063833">
        <ele>10.0</ele>
        <time>2019-05-16T12:38:24.910Z</time>
      </trkpt>
      <trkpt lat="38.93674167" lon="-9.00063833">
        <ele>10.0</ele>
        <time>2019-05-16T12:38:25.905Z</time>
      </trkpt>
      <trkpt lat="38.93680667" lon="-9.000575">
        <ele>10.0</ele>
        <time>2019-05-16T12:38:26.918Z</time>
      </trkpt>
      <trkpt lat="38.93680667" lon="-9.000575">
        <ele>10.0</ele>
        <time>2019-05-16T12:38:27.919Z</time>
      </trkpt>
      <trkpt lat="38.93687167" lon="-9.00051333">
        <ele>10.0</ele>
        <time>2019-05-16T12:38:28.901Z</time>
      </trkpt>
      <trkpt lat="38.93687167" lon="-9.00051333">
        <ele>10.0</ele>
        <time>2019-05-16T12:38:29.911Z</time>
      </trkpt>
      <trkpt lat="38.93693167" lon="-9.00044833">
        <ele>9.0</ele>
        <time>2019-05-16T12:38:30.921Z</time>
      </trkpt>
      <trkpt lat="38.93693167" lon="-9.00044833">
        <ele>9.0</ele>
        <time>2019-05-16T12:38:31.909Z</time>
      </trkpt>
      <trkpt lat="38.93698833" lon="-9.00039333">
        <ele>9.0</ele>
        <time>2019-05-16T12:38:32.915Z</time>
      </trkpt>
      <trkpt lat="38.93698833" lon="-9.00039333">
        <ele>9.0</ele>
        <time>2019-05-16T12:38:33.923Z</time>
      </trkpt>
      <trkpt lat="38.93704" lon="-9.000345">
        <ele>9.0</ele>
        <time>2019-05-16T12:38:34.935Z</time>
      </trkpt>
      <trkpt lat="38.93704" lon="-9.000345">
        <ele>9.0</ele>
        <time>2019-05-16T12:38:35.921Z</time>
      </trkpt>
      <trkpt lat="38.93708167" lon="-9.00030667">
        <ele>8.0</ele>
        <time>2019-05-16T12:38:36.931Z</time>
      </trkpt>
      <trkpt lat="38.93708167" lon="-9.00030667">
        <ele>8.0</ele>
        <time>2019-05-16T12:38:37.913Z</time>
      </trkpt>
      <trkpt lat="38.93710833" lon="-9.00027">
        <ele>8.0</ele>
        <time>2019-05-16T12:38:38.901Z</time>
      </trkpt>
      <trkpt lat="38.93710833" lon="-9.00027">
        <ele>8.0</ele>
        <time>2019-05-16T12:38:39.936Z</time>
      </trkpt>
      <trkpt lat="38.93713667" lon="-9.00024333">
        <ele>8.0</ele>
        <time>2019-05-16T12:38:40.906Z</time>
      </trkpt>
      <trkpt lat="38.93713667" lon="-9.00024333">
        <ele>8.0</ele>
        <time>2019-05-16T12:38:41.929Z</time>
      </trkpt>
      <trkpt lat="38.93713667" lon="-9.00024333">
        <ele>8.0</ele>
        <time>2019-05-16T12:38:42.973Z</time>
      </trkpt>
      <trkpt lat="38.93716333" lon="-9.00021">
        <ele>7.0</ele>
        <time>2019-05-16T12:38:43.907Z</time>
      </trkpt>
      <trkpt lat="38.937195" lon="-9.00017667">
        <ele>7.0</ele>
        <time>2019-05-16T12:38:44.924Z</time>
      </trkpt>
      <trkpt lat="38.937215" lon="-9.00016333">
        <ele>7.0</ele>
        <time>2019-05-16T12:38:45.930Z</time>
      </trkpt>
      <trkpt lat="38.937215" lon="-9.00016333">
        <ele>7.0</ele>
        <time>2019-05-16T12:38:46.933Z</time>
      </trkpt>
      <trkpt lat="38.93725333" lon="-9.000135">
        <ele>7.0</ele>
        <time>2019-05-16T12:38:47.905Z</time>
      </trkpt>
      <trkpt lat="38.93726833" lon="-9.00011333">
        <ele>7.0</ele>
        <time>2019-05-16T12:38:48.915Z</time>
      </trkpt>
      <trkpt lat="38.93726833" lon="-9.00011333">
        <ele>7.0</ele>
        <time>2019-05-16T12:38:49.933Z</time>
      </trkpt>
      <trkpt lat="38.937265" lon="-9.00006167">
        <ele>7.0</ele>
        <time>2019-05-16T12:38:50.905Z</time>
      </trkpt>
      <trkpt lat="38.937265" lon="-9.00006167">
        <ele>7.0</ele>
        <time>2019-05-16T12:38:51.929Z</time>
      </trkpt>
      <trkpt lat="38.93724" lon="-9.00002333">
        <ele>7.0</ele>
        <time>2019-05-16T12:38:52.904Z</time>
      </trkpt>
      <trkpt lat="38.937225" lon="-9.000005">
        <ele>7.0</ele>
        <time>2019-05-16T12:38:53.906Z</time>
      </trkpt>
      <trkpt lat="38.937225" lon="-9.000005">
        <ele>7.0</ele>
        <time>2019-05-16T12:38:54.904Z</time>
      </trkpt>
      <trkpt lat="38.93719667" lon="-8.99996833">
        <ele>7.0</ele>
        <time>2019-05-16T12:38:55.920Z</time>
      </trkpt>
      <trkpt lat="38.93718833" lon="-8.99995167">
        <ele>8.0</ele>
        <time>2019-05-16T12:38:56.903Z</time>
      </trkpt>
      <trkpt lat="38.93718833" lon="-8.99995167">
        <ele>8.0</ele>
        <time>2019-05-16T12:38:57.921Z</time>
      </trkpt>
      <trkpt lat="38.93719" lon="-8.99993833">
        <ele>8.0</ele>
        <time>2019-05-16T12:38:58.918Z</time>
      </trkpt>
      <trkpt lat="38.93719" lon="-8.99993833">
        <ele>8.0</ele>
        <time>2019-05-16T12:38:59.913Z</time>
      </trkpt>
      <trkpt lat="38.93718833" lon="-8.99993667">
        <ele>9.0</ele>
        <time>2019-05-16T12:39:00.924Z</time>
      </trkpt>
      <trkpt lat="38.93718833" lon="-8.99993667">
        <ele>9.0</ele>
        <time>2019-05-16T12:39:01.897Z</time>
      </trkpt>
      <trkpt lat="38.93718833" lon="-8.99993667">
        <ele>9.0</ele>
        <time>2019-05-16T12:39:02.903Z</time>
      </trkpt>
      <trkpt lat="38.93718833" lon="-8.99993667">
        <ele>9.0</ele>
        <time>2019-05-16T12:39:03.909Z</time>
      </trkpt>
      <trkpt lat="38.93718833" lon="-8.99993667">
        <ele>9.0</ele>
        <time>2019-05-16T12:39:04.918Z</time>
      </trkpt>
      <trkpt lat="38.93718833" lon="-8.99993667">
        <ele>9.0</ele>
        <time>2019-05-16T12:39:05.905Z</time>
      </trkpt>
      <trkpt lat="38.93718833" lon="-8.99993667">
        <ele>9.0</ele>
        <time>2019-05-16T12:39:06.908Z</time>
      </trkpt>
      <trkpt lat="38.93718833" lon="-8.99993667">
        <ele>9.0</ele>
        <time>2019-05-16T12:39:07.912Z</time>
      </trkpt>
      <trkpt lat="38.93718833" lon="-8.99993667">
        <ele>9.0</ele>
        <time>2019-05-16T12:39:08.919Z</time>
      </trkpt>
      <trkpt lat="38.93718833" lon="-8.99993667">
        <ele>9.0</ele>
        <time>2019-05-16T12:39:09.907Z</time>
      </trkpt>
      <trkpt lat="38.93718833" lon="-8.99993667">
        <ele>9.0</ele>
        <time>2019-05-16T12:39:10.909Z</time>
      </trkpt>
      <trkpt lat="38.93718833" lon="-8.99993667">
        <ele>9.0</ele>
        <time>2019-05-16T12:39:11.904Z</time>
      </trkpt>
      <trkpt lat="38.93718833" lon="-8.99993667">
        <ele>9.0</ele>
        <time>2019-05-16T12:39:12.911Z</time>
      </trkpt>
      <trkpt lat="38.93718833" lon="-8.99993667">
        <ele>9.0</ele>
        <time>2019-05-16T12:39:13.906Z</time>
      </trkpt>
      <trkpt lat="38.93718833" lon="-8.99993667">
        <ele>9.0</ele>
        <time>2019-05-16T12:39:14.909Z</time>
      </trkpt>
      <trkpt lat="38.93718833" lon="-8.99993667">
        <ele>9.0</ele>
        <time>2019-05-16T12:39:15.910Z</time>
      </trkpt>
      <trkpt lat="38.93718833" lon="-8.99993667">
        <ele>9.0</ele>
        <time>2019-05-16T12:39:16.905Z</time>
      </trkpt>
      <trkpt lat="38.93718833" lon="-8.99993667">
        <ele>9.0</ele>
        <time>2019-05-16T12:39:17.909Z</time>
      </trkpt>
      <trkpt lat="38.93718833" lon="-8.99993667">
        <ele>9.0</ele>
        <time>2019-05-16T12:39:18.921Z</time>
      </trkpt>
      <trkpt lat="38.93718833" lon="-8.99993667">
        <ele>9.0</ele>
        <time>2019-05-16T12:39:19.906Z</time>
      </trkpt>
      <trkpt lat="38.93718833" lon="-8.99993667">
        <ele>9.0</ele>
        <time>2019-05-16T12:39:20.933Z</time>
      </trkpt>
      <trkpt lat="38.93718833" lon="-8.99993667">
        <ele>9.0</ele>
        <time>2019-05-16T12:39:21.914Z</time>
      </trkpt>
      <trkpt lat="38.93718833" lon="-8.99993667">
        <ele>9.0</ele>
        <time>2019-05-16T12:39:22.921Z</time>
      </trkpt>
      <trkpt lat="38.93718833" lon="-8.99993667">
        <ele>9.0</ele>
        <time>2019-05-16T12:39:23.927Z</time>
      </trkpt>
      <trkpt lat="38.93718833" lon="-8.99993667">
        <ele>9.0</ele>
        <time>2019-05-16T12:39:24.926Z</time>
      </trkpt>
      <trkpt lat="38.93718833" lon="-8.99993667">
        <ele>9.0</ele>
        <time>2019-05-16T12:39:25.911Z</time>
      </trkpt>
      <trkpt lat="38.93720667" lon="-8.999945">
        <ele>10.0</ele>
        <time>2019-05-16T12:39:26.910Z</time>
      </trkpt>
      <trkpt lat="38.93720667" lon="-8.999945">
        <ele>10.0</ele>
        <time>2019-05-16T12:39:27.920Z</time>
      </trkpt>
      <trkpt lat="38.93722167" lon="-8.99997333">
        <ele>11.0</ele>
        <time>2019-05-16T12:39:28.915Z</time>
      </trkpt>
      <trkpt lat="38.93722167" lon="-8.99997333">
        <ele>11.0</ele>
        <time>2019-05-16T12:39:29.907Z</time>
      </trkpt>
      <trkpt lat="38.93723167" lon="-9.000005">
        <ele>11.0</ele>
        <time>2019-05-16T12:39:30.912Z</time>
      </trkpt>
      <trkpt lat="38.93723167" lon="-9.000005">
        <ele>11.0</ele>
        <time>2019-05-16T12:39:31.905Z</time>
      </trkpt>
      <trkpt lat="38.93724" lon="-9.00003333">
        <ele>10.0</ele>
        <time>2019-05-16T12:39:32.909Z</time>
      </trkpt>
      <trkpt lat="38.937245" lon="-9.000045">
        <ele>10.0</ele>
        <time>2019-05-16T12:39:33.935Z</time>
      </trkpt>
      <trkpt lat="38.937245" lon="-9.000045">
        <ele>10.0</ele>
        <time>2019-05-16T12:39:34.911Z</time>
      </trkpt>
      <trkpt lat="38.937255" lon="-9.00007333">
        <ele>10.0</ele>
        <time>2019-05-16T12:39:35.920Z</time>
      </trkpt>
      <trkpt lat="38.93726" lon="-9.00008833">
        <ele>10.0</ele>
        <time>2019-05-16T12:39:36.935Z</time>
      </trkpt>
      <trkpt lat="38.93726" lon="-9.00008833">
        <ele>10.0</ele>
        <time>2019-05-16T12:39:37.897Z</time>
      </trkpt>
      <trkpt lat="38.93726333" lon="-9.00011">
        <ele>10.0</ele>
        <time>2019-05-16T12:39:38.906Z</time>
      </trkpt>
      <trkpt lat="38.93726333" lon="-9.00011">
        <ele>10.0</ele>
        <time>2019-05-16T12:39:39.911Z</time>
      </trkpt>
      <trkpt lat="38.937265" lon="-9.00011333">
        <ele>10.0</ele>
        <time>2019-05-16T12:39:40.919Z</time>
      </trkpt>
      <trkpt lat="38.937265" lon="-9.00011333">
        <ele>10.0</ele>
        <time>2019-05-16T12:39:41.901Z</time>
      </trkpt>
      <trkpt lat="38.937265" lon="-9.00011333">
        <ele>10.0</ele>
        <time>2019-05-16T12:39:42.908Z</time>
      </trkpt>
      <trkpt lat="38.937265" lon="-9.00011333">
        <ele>10.0</ele>
        <time>2019-05-16T12:39:43.914Z</time>
      </trkpt>
      <trkpt lat="38.937265" lon="-9.00011333">
        <ele>10.0</ele>
        <time>2019-05-16T12:39:44.920Z</time>
      </trkpt>
      <trkpt lat="38.937265" lon="-9.00011333">
        <ele>10.0</ele>
        <time>2019-05-16T12:39:45.914Z</time>
      </trkpt>
      <trkpt lat="38.937265" lon="-9.00011333">
        <ele>10.0</ele>
        <time>2019-05-16T12:39:46.909Z</time>
      </trkpt>
      <trkpt lat="38.937265" lon="-9.00011333">
        <ele>10.0</ele>
        <time>2019-05-16T12:39:47.910Z</time>
      </trkpt>
      <trkpt lat="38.937265" lon="-9.00011333">
        <ele>10.0</ele>
        <time>2019-05-16T12:39:48.916Z</time>
      </trkpt>
      <trkpt lat="38.937265" lon="-9.00011333">
        <ele>10.0</ele>
        <time>2019-05-16T12:39:49.904Z</time>
      </trkpt>
      <trkpt lat="38.937265" lon="-9.00011333">
        <ele>10.0</ele>
        <time>2019-05-16T12:39:50.909Z</time>
      </trkpt>
      <trkpt lat="38.937265" lon="-9.00011333">
        <ele>10.0</ele>
        <time>2019-05-16T12:39:51.904Z</time>
      </trkpt>
      <trkpt lat="38.937265" lon="-9.00011333">
        <ele>10.0</ele>
        <time>2019-05-16T12:39:52.923Z</time>
      </trkpt>
      <trkpt lat="38.937265" lon="-9.00011333">
        <ele>10.0</ele>
        <time>2019-05-16T12:39:53.908Z</time>
      </trkpt>
      <trkpt lat="38.93728" lon="-9.00010333">
        <ele>10.0</ele>
        <time>2019-05-16T12:39:54.911Z</time>
      </trkpt>
      <trkpt lat="38.93728" lon="-9.00010333">
        <ele>10.0</ele>
        <time>2019-05-16T12:39:55.905Z</time>
      </trkpt>
      <trkpt lat="38.93729333" lon="-9.00009167">
        <ele>10.0</ele>
        <time>2019-05-16T12:39:56.909Z</time>
      </trkpt>
      <trkpt lat="38.93729333" lon="-9.00009167">
        <ele>10.0</ele>
        <time>2019-05-16T12:39:57.910Z</time>
      </trkpt>
      <trkpt lat="38.93732167" lon="-9.00006667">
        <ele>10.0</ele>
        <time>2019-05-16T12:39:58.909Z</time>
      </trkpt>
      <trkpt lat="38.93732167" lon="-9.00006667">
        <ele>10.0</ele>
        <time>2019-05-16T12:39:59.904Z</time>
      </trkpt>
      <trkpt lat="38.93735667" lon="-9.00003667">
        <ele>10.0</ele>
        <time>2019-05-16T12:40:00.970Z</time>
      </trkpt>
      <trkpt lat="38.93735667" lon="-9.00003667">
        <ele>10.0</ele>
        <time>2019-05-16T12:40:01.901Z</time>
      </trkpt>
      <trkpt lat="38.93739167" lon="-9.00000167">
        <ele>10.0</ele>
        <time>2019-05-16T12:40:02.908Z</time>
      </trkpt>
      <trkpt lat="38.93739167" lon="-9.00000167">
        <ele>10.0</ele>
        <time>2019-05-16T12:40:03.920Z</time>
      </trkpt>
      <trkpt lat="38.93742833" lon="-8.99996333">
        <ele>10.0</ele>
        <time>2019-05-16T12:40:04.928Z</time>
      </trkpt>
      <trkpt lat="38.93742833" lon="-8.99996333">
        <ele>10.0</ele>
        <time>2019-05-16T12:40:05.898Z</time>
      </trkpt>
      <trkpt lat="38.93747167" lon="-8.99992167">
        <ele>10.0</ele>
        <time>2019-05-16T12:40:06.906Z</time>
      </trkpt>
      <trkpt lat="38.93747167" lon="-8.99992167">
        <ele>10.0</ele>
        <time>2019-05-16T12:40:07.908Z</time>
      </trkpt>
      <trkpt lat="38.93752" lon="-8.99987333">
        <ele>10.0</ele>
        <time>2019-05-16T12:40:08.920Z</time>
      </trkpt>
      <trkpt lat="38.93752" lon="-8.99987333">
        <ele>10.0</ele>
        <time>2019-05-16T12:40:09.937Z</time>
      </trkpt>
      <trkpt lat="38.93757" lon="-8.999825">
        <ele>10.0</ele>
        <time>2019-05-16T12:40:10.921Z</time>
      </trkpt>
      <trkpt lat="38.93757" lon="-8.999825">
        <ele>10.0</ele>
        <time>2019-05-16T12:40:11.930Z</time>
      </trkpt>
      <trkpt lat="38.93762333" lon="-8.999775">
        <ele>10.0</ele>
        <time>2019-05-16T12:40:12.909Z</time>
      </trkpt>
      <trkpt lat="38.93762333" lon="-8.999775">
        <ele>10.0</ele>
        <time>2019-05-16T12:40:13.905Z</time>
      </trkpt>
      <trkpt lat="38.93768" lon="-8.99972">
        <ele>10.0</ele>
        <time>2019-05-16T12:40:14.917Z</time>
      </trkpt>
      <trkpt lat="38.93768" lon="-8.99972">
        <ele>10.0</ele>
        <time>2019-05-16T12:40:15.901Z</time>
      </trkpt>
      <trkpt lat="38.93773833" lon="-8.999665">
        <ele>10.0</ele>
        <time>2019-05-16T12:40:16.910Z</time>
      </trkpt>
      <trkpt lat="38.93773833" lon="-8.999665">
        <ele>10.0</ele>
        <time>2019-05-16T12:40:17.929Z</time>
      </trkpt>
      <trkpt lat="38.937795" lon="-8.99960667">
        <ele>10.0</ele>
        <time>2019-05-16T12:40:18.908Z</time>
      </trkpt>
      <trkpt lat="38.937795" lon="-8.99960667">
        <ele>10.0</ele>
        <time>2019-05-16T12:40:19.899Z</time>
      </trkpt>
      <trkpt lat="38.93785333" lon="-8.99954667">
        <ele>10.0</ele>
        <time>2019-05-16T12:40:20.919Z</time>
      </trkpt>
      <trkpt lat="38.93785333" lon="-8.99954667">
        <ele>10.0</ele>
        <time>2019-05-16T12:40:21.900Z</time>
      </trkpt>
      <trkpt lat="38.93791" lon="-8.99948667">
        <ele>10.0</ele>
        <time>2019-05-16T12:40:22.911Z</time>
      </trkpt>
      <trkpt lat="38.93791" lon="-8.99948667">
        <ele>10.0</ele>
        <time>2019-05-16T12:40:23.930Z</time>
      </trkpt>
      <trkpt lat="38.93796667" lon="-8.99942833">
        <ele>10.0</ele>
        <time>2019-05-16T12:40:24.911Z</time>
      </trkpt>
      <trkpt lat="38.93796667" lon="-8.99942833">
        <ele>10.0</ele>
        <time>2019-05-16T12:40:25.908Z</time>
      </trkpt>
      <trkpt lat="38.93802667" lon="-8.99937167">
        <ele>10.0</ele>
        <time>2019-05-16T12:40:26.917Z</time>
      </trkpt>
      <trkpt lat="38.93802667" lon="-8.99937167">
        <ele>10.0</ele>
        <time>2019-05-16T12:40:27.936Z</time>
      </trkpt>
      <trkpt lat="38.93808667" lon="-8.99931333">
        <ele>10.0</ele>
        <time>2019-05-16T12:40:28.913Z</time>
      </trkpt>
      <trkpt lat="38.93808667" lon="-8.99931333">
        <ele>10.0</ele>
        <time>2019-05-16T12:40:29.902Z</time>
      </trkpt>
      <trkpt lat="38.93814667" lon="-8.99925167">
        <ele>10.0</ele>
        <time>2019-05-16T12:40:30.919Z</time>
      </trkpt>
      <trkpt lat="38.93814667" lon="-8.99925167">
        <ele>10.0</ele>
        <time>2019-05-16T12:40:31.924Z</time>
      </trkpt>
      <trkpt lat="38.93820667" lon="-8.99918833">
        <ele>10.0</ele>
        <time>2019-05-16T12:40:32.932Z</time>
      </trkpt>
      <trkpt lat="38.93820667" lon="-8.99918833">
        <ele>10.0</ele>
        <time>2019-05-16T12:40:33.898Z</time>
      </trkpt>
      <trkpt lat="38.93826833" lon="-8.99912333">
        <ele>10.0</ele>
        <time>2019-05-16T12:40:34.910Z</time>
      </trkpt>
      <trkpt lat="38.93830167" lon="-8.99909167">
        <ele>10.0</ele>
        <time>2019-05-16T12:40:35.921Z</time>
      </trkpt>
      <trkpt lat="38.938335" lon="-8.99906">
        <ele>10.0</ele>
        <time>2019-05-16T12:40:36.939Z</time>
      </trkpt>
      <trkpt lat="38.938335" lon="-8.99906">
        <ele>10.0</ele>
        <time>2019-05-16T12:40:37.932Z</time>
      </trkpt>
      <trkpt lat="38.9384" lon="-8.99899667">
        <ele>11.0</ele>
        <time>2019-05-16T12:40:38.906Z</time>
      </trkpt>
      <trkpt lat="38.9384" lon="-8.99899667">
        <ele>11.0</ele>
        <time>2019-05-16T12:40:39.913Z</time>
      </trkpt>
      <trkpt lat="38.93846333" lon="-8.99894">
        <ele>10.0</ele>
        <time>2019-05-16T12:40:40.921Z</time>
      </trkpt>
      <trkpt lat="38.93846333" lon="-8.99894">
        <ele>10.0</ele>
        <time>2019-05-16T12:40:41.910Z</time>
      </trkpt>
      <trkpt lat="38.93852333" lon="-8.99888167">
        <ele>10.0</ele>
        <time>2019-05-16T12:40:42.930Z</time>
      </trkpt>
      <trkpt lat="38.93852333" lon="-8.99888167">
        <ele>10.0</ele>
        <time>2019-05-16T12:40:43.936Z</time>
      </trkpt>
      <trkpt lat="38.93858167" lon="-8.99882167">
        <ele>10.0</ele>
        <time>2019-05-16T12:40:44.903Z</time>
      </trkpt>
      <trkpt lat="38.93861167" lon="-8.99879167">
        <ele>10.0</ele>
        <time>2019-05-16T12:40:45.903Z</time>
      </trkpt>
      <trkpt lat="38.93861167" lon="-8.99879167">
        <ele>10.0</ele>
        <time>2019-05-16T12:40:46.899Z</time>
      </trkpt>
      <trkpt lat="38.938675" lon="-8.99872667">
        <ele>10.0</ele>
        <time>2019-05-16T12:40:47.931Z</time>
      </trkpt>
      <trkpt lat="38.93870667" lon="-8.998695">
        <ele>10.0</ele>
        <time>2019-05-16T12:40:48.938Z</time>
      </trkpt>
      <trkpt lat="38.93870667" lon="-8.998695">
        <ele>10.0</ele>
        <time>2019-05-16T12:40:49.915Z</time>
      </trkpt>
      <trkpt lat="38.93877167" lon="-8.99862833">
        <ele>10.0</ele>
        <time>2019-05-16T12:40:50.932Z</time>
      </trkpt>
      <trkpt lat="38.93877167" lon="-8.99862833">
        <ele>10.0</ele>
        <time>2019-05-16T12:40:51.897Z</time>
      </trkpt>
      <trkpt lat="38.93884" lon="-8.99856333">
        <ele>10.0</ele>
        <time>2019-05-16T12:40:52.916Z</time>
      </trkpt>
      <trkpt lat="38.93887333" lon="-8.99853167">
        <ele>10.0</ele>
        <time>2019-05-16T12:40:53.909Z</time>
      </trkpt>
      <trkpt lat="38.93890667" lon="-8.99849833">
        <ele>11.0</ele>
        <time>2019-05-16T12:40:54.936Z</time>
      </trkpt>
      <trkpt lat="38.93890667" lon="-8.99849833">
        <ele>11.0</ele>
        <time>2019-05-16T12:40:55.905Z</time>
      </trkpt>
      <trkpt lat="38.93897333" lon="-8.99843167">
        <ele>11.0</ele>
        <time>2019-05-16T12:40:56.917Z</time>
      </trkpt>
      <trkpt lat="38.93897333" lon="-8.99843167">
        <ele>11.0</ele>
        <time>2019-05-16T12:40:57.914Z</time>
      </trkpt>
      <trkpt lat="38.93904" lon="-8.99836333">
        <ele>11.0</ele>
        <time>2019-05-16T12:40:58.905Z</time>
      </trkpt>
      <trkpt lat="38.93904" lon="-8.99836333">
        <ele>11.0</ele>
        <time>2019-05-16T12:40:59.936Z</time>
      </trkpt>
      <trkpt lat="38.93910833" lon="-8.99829667">
        <ele>11.0</ele>
        <time>2019-05-16T12:41:00.904Z</time>
      </trkpt>
      <trkpt lat="38.93910833" lon="-8.99829667">
        <ele>11.0</ele>
        <time>2019-05-16T12:41:01.922Z</time>
      </trkpt>
      <trkpt lat="38.93918" lon="-8.99822833">
        <ele>11.0</ele>
        <time>2019-05-16T12:41:02.942Z</time>
      </trkpt>
      <trkpt lat="38.93918" lon="-8.99822833">
        <ele>11.0</ele>
        <time>2019-05-16T12:41:03.925Z</time>
      </trkpt>
      <trkpt lat="38.93925333" lon="-8.998155">
        <ele>11.0</ele>
        <time>2019-05-16T12:41:04.931Z</time>
      </trkpt>
      <trkpt lat="38.93925333" lon="-8.998155">
        <ele>11.0</ele>
        <time>2019-05-16T12:41:05.923Z</time>
      </trkpt>
      <trkpt lat="38.939325" lon="-8.99808">
        <ele>11.0</ele>
        <time>2019-05-16T12:41:06.933Z</time>
      </trkpt>
      <trkpt lat="38.939325" lon="-8.99808">
        <ele>11.0</ele>
        <time>2019-05-16T12:41:07.933Z</time>
      </trkpt>
      <trkpt lat="38.93939667" lon="-8.99800667">
        <ele>11.0</ele>
        <time>2019-05-16T12:41:08.918Z</time>
      </trkpt>
      <trkpt lat="38.93939667" lon="-8.99800667">
        <ele>11.0</ele>
        <time>2019-05-16T12:41:09.897Z</time>
      </trkpt>
      <trkpt lat="38.93946833" lon="-8.99793667">
        <ele>11.0</ele>
        <time>2019-05-16T12:41:10.908Z</time>
      </trkpt>
      <trkpt lat="38.93946833" lon="-8.99793667">
        <ele>11.0</ele>
        <time>2019-05-16T12:41:11.899Z</time>
      </trkpt>
      <trkpt lat="38.93953667" lon="-8.99786833">
        <ele>11.0</ele>
        <time>2019-05-16T12:41:12.909Z</time>
      </trkpt>
      <trkpt lat="38.93953667" lon="-8.99786833">
        <ele>11.0</ele>
        <time>2019-05-16T12:41:13.906Z</time>
      </trkpt>
      <trkpt lat="38.939605" lon="-8.9978">
        <ele>11.0</ele>
        <time>2019-05-16T12:41:14.916Z</time>
      </trkpt>
      <trkpt lat="38.939605" lon="-8.9978">
        <ele>11.0</ele>
        <time>2019-05-16T12:41:15.906Z</time>
      </trkpt>
      <trkpt lat="38.939675" lon="-8.99773333">
        <ele>11.0</ele>
        <time>2019-05-16T12:41:16.925Z</time>
      </trkpt>
      <trkpt lat="38.939675" lon="-8.99773333">
        <ele>11.0</ele>
        <time>2019-05-16T12:41:17.926Z</time>
      </trkpt>
      <trkpt lat="38.93974333" lon="-8.99766167">
        <ele>11.0</ele>
        <time>2019-05-16T12:41:18.900Z</time>
      </trkpt>
      <trkpt lat="38.93974333" lon="-8.99766167">
        <ele>11.0</ele>
        <time>2019-05-16T12:41:19.923Z</time>
      </trkpt>
      <trkpt lat="38.939815" lon="-8.99759333">
        <ele>11.0</ele>
        <time>2019-05-16T12:41:20.908Z</time>
      </trkpt>
      <trkpt lat="38.939815" lon="-8.99759333">
        <ele>11.0</ele>
        <time>2019-05-16T12:41:21.906Z</time>
      </trkpt>
      <trkpt lat="38.93988667" lon="-8.99752667">
        <ele>11.0</ele>
        <time>2019-05-16T12:41:22.931Z</time>
      </trkpt>
      <trkpt lat="38.93988667" lon="-8.99752667">
        <ele>11.0</ele>
        <time>2019-05-16T12:41:23.936Z</time>
      </trkpt>
      <trkpt lat="38.93995833" lon="-8.99745667">
        <ele>11.0</ele>
        <time>2019-05-16T12:41:24.912Z</time>
      </trkpt>
      <trkpt lat="38.93995833" lon="-8.99745667">
        <ele>11.0</ele>
        <time>2019-05-16T12:41:25.921Z</time>
      </trkpt>
      <trkpt lat="38.94002667" lon="-8.99738333">
        <ele>11.0</ele>
        <time>2019-05-16T12:41:26.915Z</time>
      </trkpt>
      <trkpt lat="38.94002667" lon="-8.99738333">
        <ele>11.0</ele>
        <time>2019-05-16T12:41:27.897Z</time>
      </trkpt>
      <trkpt lat="38.940095" lon="-8.99731333">
        <ele>11.0</ele>
        <time>2019-05-16T12:41:28.911Z</time>
      </trkpt>
      <trkpt lat="38.940095" lon="-8.99731333">
        <ele>11.0</ele>
        <time>2019-05-16T12:41:29.911Z</time>
      </trkpt>
      <trkpt lat="38.940165" lon="-8.99724167">
        <ele>11.0</ele>
        <time>2019-05-16T12:41:30.918Z</time>
      </trkpt>
      <trkpt lat="38.940165" lon="-8.99724167">
        <ele>11.0</ele>
        <time>2019-05-16T12:41:31.904Z</time>
      </trkpt>
      <trkpt lat="38.94023667" lon="-8.99716833">
        <ele>11.0</ele>
        <time>2019-05-16T12:41:32.911Z</time>
      </trkpt>
      <trkpt lat="38.94023667" lon="-8.99716833">
        <ele>11.0</ele>
        <time>2019-05-16T12:41:33.904Z</time>
      </trkpt>
      <trkpt lat="38.94030667" lon="-8.99709333">
        <ele>11.0</ele>
        <time>2019-05-16T12:41:34.917Z</time>
      </trkpt>
      <trkpt lat="38.94030667" lon="-8.99709333">
        <ele>11.0</ele>
        <time>2019-05-16T12:41:35.902Z</time>
      </trkpt>
      <trkpt lat="38.94038" lon="-8.99702167">
        <ele>11.0</ele>
        <time>2019-05-16T12:41:36.912Z</time>
      </trkpt>
      <trkpt lat="38.94038" lon="-8.99702167">
        <ele>11.0</ele>
        <time>2019-05-16T12:41:37.923Z</time>
      </trkpt>
      <trkpt lat="38.94045167" lon="-8.99695167">
        <ele>11.0</ele>
        <time>2019-05-16T12:41:38.931Z</time>
      </trkpt>
      <trkpt lat="38.94045167" lon="-8.99695167">
        <ele>11.0</ele>
        <time>2019-05-16T12:41:39.908Z</time>
      </trkpt>
      <trkpt lat="38.94052" lon="-8.99687833">
        <ele>11.0</ele>
        <time>2019-05-16T12:41:40.920Z</time>
      </trkpt>
      <trkpt lat="38.94052" lon="-8.99687833">
        <ele>11.0</ele>
        <time>2019-05-16T12:41:41.910Z</time>
      </trkpt>
      <trkpt lat="38.94059667" lon="-8.99681167">
        <ele>11.0</ele>
        <time>2019-05-16T12:41:42.921Z</time>
      </trkpt>
      <trkpt lat="38.94059667" lon="-8.99681167">
        <ele>11.0</ele>
        <time>2019-05-16T12:41:43.921Z</time>
      </trkpt>
      <trkpt lat="38.94067" lon="-8.996745">
        <ele>11.0</ele>
        <time>2019-05-16T12:41:44.930Z</time>
      </trkpt>
      <trkpt lat="38.94067" lon="-8.996745">
        <ele>11.0</ele>
        <time>2019-05-16T12:41:45.901Z</time>
      </trkpt>
      <trkpt lat="38.940745" lon="-8.99667333">
        <ele>11.0</ele>
        <time>2019-05-16T12:41:46.909Z</time>
      </trkpt>
      <trkpt lat="38.940745" lon="-8.99667333">
        <ele>11.0</ele>
        <time>2019-05-16T12:41:47.915Z</time>
      </trkpt>
      <trkpt lat="38.94081833" lon="-8.9966">
        <ele>11.0</ele>
        <time>2019-05-16T12:41:48.910Z</time>
      </trkpt>
      <trkpt lat="38.94081833" lon="-8.9966">
        <ele>11.0</ele>
        <time>2019-05-16T12:41:49.921Z</time>
      </trkpt>
      <trkpt lat="38.94089167" lon="-8.99652833">
        <ele>11.0</ele>
        <time>2019-05-16T12:41:50.929Z</time>
      </trkpt>
      <trkpt lat="38.94089167" lon="-8.99652833">
        <ele>11.0</ele>
        <time>2019-05-16T12:41:51.908Z</time>
      </trkpt>
      <trkpt lat="38.94096667" lon="-8.99645833">
        <ele>11.0</ele>
        <time>2019-05-16T12:41:52.932Z</time>
      </trkpt>
      <trkpt lat="38.94096667" lon="-8.99645833">
        <ele>11.0</ele>
        <time>2019-05-16T12:41:53.908Z</time>
      </trkpt>
      <trkpt lat="38.94104" lon="-8.99639">
        <ele>11.0</ele>
        <time>2019-05-16T12:41:54.924Z</time>
      </trkpt>
      <trkpt lat="38.94104" lon="-8.99639">
        <ele>11.0</ele>
        <time>2019-05-16T12:41:55.913Z</time>
      </trkpt>
      <trkpt lat="38.94111167" lon="-8.99631833">
        <ele>11.0</ele>
        <time>2019-05-16T12:41:56.920Z</time>
      </trkpt>
      <trkpt lat="38.94114667" lon="-8.99628333">
        <ele>11.0</ele>
        <time>2019-05-16T12:41:57.911Z</time>
      </trkpt>
      <trkpt lat="38.94114667" lon="-8.99628333">
        <ele>11.0</ele>
        <time>2019-05-16T12:41:58.897Z</time>
      </trkpt>
      <trkpt lat="38.94122" lon="-8.99622">
        <ele>11.0</ele>
        <time>2019-05-16T12:41:59.904Z</time>
      </trkpt>
      <trkpt lat="38.94125667" lon="-8.99619167">
        <ele>11.0</ele>
        <time>2019-05-16T12:42:00.914Z</time>
      </trkpt>
      <trkpt lat="38.94125667" lon="-8.99619167">
        <ele>11.0</ele>
        <time>2019-05-16T12:42:01.903Z</time>
      </trkpt>
      <trkpt lat="38.94132833" lon="-8.99612833">
        <ele>10.0</ele>
        <time>2019-05-16T12:42:02.914Z</time>
      </trkpt>
      <trkpt lat="38.94132833" lon="-8.99612833">
        <ele>10.0</ele>
        <time>2019-05-16T12:42:03.903Z</time>
      </trkpt>
      <trkpt lat="38.9414" lon="-8.99606167">
        <ele>10.0</ele>
        <time>2019-05-16T12:42:04.915Z</time>
      </trkpt>
      <trkpt lat="38.9414" lon="-8.99606167">
        <ele>10.0</ele>
        <time>2019-05-16T12:42:05.901Z</time>
      </trkpt>
      <trkpt lat="38.94147" lon="-8.99599833">
        <ele>10.0</ele>
        <time>2019-05-16T12:42:06.910Z</time>
      </trkpt>
      <trkpt lat="38.94147" lon="-8.99599833">
        <ele>10.0</ele>
        <time>2019-05-16T12:42:07.901Z</time>
      </trkpt>
      <trkpt lat="38.94154333" lon="-8.99594">
        <ele>10.0</ele>
        <time>2019-05-16T12:42:08.912Z</time>
      </trkpt>
      <trkpt lat="38.94154333" lon="-8.99594">
        <ele>10.0</ele>
        <time>2019-05-16T12:42:09.900Z</time>
      </trkpt>
      <trkpt lat="38.94161667" lon="-8.99587833">
        <ele>10.0</ele>
        <time>2019-05-16T12:42:10.937Z</time>
      </trkpt>
      <trkpt lat="38.94161667" lon="-8.99587833">
        <ele>10.0</ele>
        <time>2019-05-16T12:42:11.916Z</time>
      </trkpt>
      <trkpt lat="38.94169333" lon="-8.99581833">
        <ele>10.0</ele>
        <time>2019-05-16T12:42:12.927Z</time>
      </trkpt>
      <trkpt lat="38.94169333" lon="-8.99581833">
        <ele>10.0</ele>
        <time>2019-05-16T12:42:13.921Z</time>
      </trkpt>
      <trkpt lat="38.94176833" lon="-8.99575167">
        <ele>10.0</ele>
        <time>2019-05-16T12:42:14.928Z</time>
      </trkpt>
      <trkpt lat="38.94176833" lon="-8.99575167">
        <ele>10.0</ele>
        <time>2019-05-16T12:42:15.913Z</time>
      </trkpt>
      <trkpt lat="38.94184667" lon="-8.99569167">
        <ele>10.0</ele>
        <time>2019-05-16T12:42:16.920Z</time>
      </trkpt>
      <trkpt lat="38.94184667" lon="-8.99569167">
        <ele>10.0</ele>
        <time>2019-05-16T12:42:17.899Z</time>
      </trkpt>
      <trkpt lat="38.94192333" lon="-8.99562833">
        <ele>11.0</ele>
        <time>2019-05-16T12:42:18.908Z</time>
      </trkpt>
      <trkpt lat="38.94192333" lon="-8.99562833">
        <ele>11.0</ele>
        <time>2019-05-16T12:42:19.919Z</time>
      </trkpt>
      <trkpt lat="38.94199667" lon="-8.99556167">
        <ele>11.0</ele>
        <time>2019-05-16T12:42:20.901Z</time>
      </trkpt>
      <trkpt lat="38.94203" lon="-8.995525">
        <ele>11.0</ele>
        <time>2019-05-16T12:42:21.898Z</time>
      </trkpt>
      <trkpt lat="38.94203" lon="-8.995525">
        <ele>11.0</ele>
        <time>2019-05-16T12:42:22.916Z</time>
      </trkpt>
      <trkpt lat="38.942095" lon="-8.99545167">
        <ele>11.0</ele>
        <time>2019-05-16T12:42:23.927Z</time>
      </trkpt>
      <trkpt lat="38.94212667" lon="-8.99541833">
        <ele>10.0</ele>
        <time>2019-05-16T12:42:24.899Z</time>
      </trkpt>
      <trkpt lat="38.94212667" lon="-8.99541833">
        <ele>10.0</ele>
        <time>2019-05-16T12:42:25.903Z</time>
      </trkpt>
      <trkpt lat="38.94218833" lon="-8.99535333">
        <ele>10.0</ele>
        <time>2019-05-16T12:42:26.909Z</time>
      </trkpt>
      <trkpt lat="38.94218833" lon="-8.99535333">
        <ele>10.0</ele>
        <time>2019-05-16T12:42:27.899Z</time>
      </trkpt>
      <trkpt lat="38.94225" lon="-8.995285">
        <ele>10.0</ele>
        <time>2019-05-16T12:42:28.913Z</time>
      </trkpt>
      <trkpt lat="38.94228" lon="-8.99525167">
        <ele>10.0</ele>
        <time>2019-05-16T12:42:29.902Z</time>
      </trkpt>
      <trkpt lat="38.94231167" lon="-8.99522333">
        <ele>10.0</ele>
        <time>2019-05-16T12:42:30.932Z</time>
      </trkpt>
      <trkpt lat="38.94231167" lon="-8.99522333">
        <ele>10.0</ele>
        <time>2019-05-16T12:42:31.919Z</time>
      </trkpt>
      <trkpt lat="38.94237" lon="-8.99515667">
        <ele>10.0</ele>
        <time>2019-05-16T12:42:32.930Z</time>
      </trkpt>
      <trkpt lat="38.94237" lon="-8.99515667">
        <ele>10.0</ele>
        <time>2019-05-16T12:42:33.899Z</time>
      </trkpt>
      <trkpt lat="38.94243" lon="-8.995105">
        <ele>9.0</ele>
        <time>2019-05-16T12:42:34.908Z</time>
      </trkpt>
      <trkpt lat="38.94243" lon="-8.995105">
        <ele>9.0</ele>
        <time>2019-05-16T12:42:35.915Z</time>
      </trkpt>
      <trkpt lat="38.942495" lon="-8.99505833">
        <ele>9.0</ele>
        <time>2019-05-16T12:42:36.933Z</time>
      </trkpt>
      <trkpt lat="38.942495" lon="-8.99505833">
        <ele>9.0</ele>
        <time>2019-05-16T12:42:37.936Z</time>
      </trkpt>
      <trkpt lat="38.94257167" lon="-8.99501">
        <ele>9.0</ele>
        <time>2019-05-16T12:42:38.903Z</time>
      </trkpt>
      <trkpt lat="38.94257167" lon="-8.99501">
        <ele>9.0</ele>
        <time>2019-05-16T12:42:39.920Z</time>
      </trkpt>
      <trkpt lat="38.94264667" lon="-8.99496167">
        <ele>9.0</ele>
        <time>2019-05-16T12:42:40.903Z</time>
      </trkpt>
      <trkpt lat="38.94264667" lon="-8.99496167">
        <ele>9.0</ele>
        <time>2019-05-16T12:42:41.898Z</time>
      </trkpt>
      <trkpt lat="38.94271833" lon="-8.99491667">
        <ele>10.0</ele>
        <time>2019-05-16T12:42:42.912Z</time>
      </trkpt>
      <trkpt lat="38.94271833" lon="-8.99491667">
        <ele>10.0</ele>
        <time>2019-05-16T12:42:43.898Z</time>
      </trkpt>
      <trkpt lat="38.94279167" lon="-8.99487">
        <ele>10.0</ele>
        <time>2019-05-16T12:42:44.908Z</time>
      </trkpt>
      <trkpt lat="38.94282833" lon="-8.99484833">
        <ele>10.0</ele>
        <time>2019-05-16T12:42:45.914Z</time>
      </trkpt>
      <trkpt lat="38.94282833" lon="-8.99484833">
        <ele>10.0</ele>
        <time>2019-05-16T12:42:46.911Z</time>
      </trkpt>
      <trkpt lat="38.9429" lon="-8.99481333">
        <ele>10.0</ele>
        <time>2019-05-16T12:42:47.918Z</time>
      </trkpt>
      <trkpt lat="38.942935" lon="-8.994795">
        <ele>10.0</ele>
        <time>2019-05-16T12:42:48.921Z</time>
      </trkpt>
      <trkpt lat="38.942935" lon="-8.994795">
        <ele>10.0</ele>
        <time>2019-05-16T12:42:49.930Z</time>
      </trkpt>
      <trkpt lat="38.94301333" lon="-8.99475833">
        <ele>11.0</ele>
        <time>2019-05-16T12:42:50.900Z</time>
      </trkpt>
      <trkpt lat="38.94301333" lon="-8.99475833">
        <ele>11.0</ele>
        <time>2019-05-16T12:42:51.928Z</time>
      </trkpt>
      <trkpt lat="38.94309" lon="-8.99472667">
        <ele>11.0</ele>
        <time>2019-05-16T12:42:52.936Z</time>
      </trkpt>
      <trkpt lat="38.94309" lon="-8.99472667">
        <ele>11.0</ele>
        <time>2019-05-16T12:42:53.897Z</time>
      </trkpt>
      <trkpt lat="38.94316167" lon="-8.99469">
        <ele>11.0</ele>
        <time>2019-05-16T12:42:54.908Z</time>
      </trkpt>
      <trkpt lat="38.94316167" lon="-8.99469">
        <ele>11.0</ele>
        <time>2019-05-16T12:42:55.923Z</time>
      </trkpt>
      <trkpt lat="38.94322833" lon="-8.99465">
        <ele>11.0</ele>
        <time>2019-05-16T12:42:56.897Z</time>
      </trkpt>
      <trkpt lat="38.94322833" lon="-8.99465">
        <ele>11.0</ele>
        <time>2019-05-16T12:42:57.904Z</time>
      </trkpt>
      <trkpt lat="38.9433" lon="-8.99460833">
        <ele>11.0</ele>
        <time>2019-05-16T12:42:58.911Z</time>
      </trkpt>
      <trkpt lat="38.9433" lon="-8.99460833">
        <ele>11.0</ele>
        <time>2019-05-16T12:42:59.911Z</time>
      </trkpt>
      <trkpt lat="38.94337" lon="-8.99456333">
        <ele>11.0</ele>
        <time>2019-05-16T12:43:00.919Z</time>
      </trkpt>
      <trkpt lat="38.94340333" lon="-8.99454167">
        <ele>11.0</ele>
        <time>2019-05-16T12:43:01.900Z</time>
      </trkpt>
      <trkpt lat="38.94340333" lon="-8.99454167">
        <ele>11.0</ele>
        <time>2019-05-16T12:43:02.903Z</time>
      </trkpt>
      <trkpt lat="38.94347" lon="-8.99449833">
        <ele>11.0</ele>
        <time>2019-05-16T12:43:03.910Z</time>
      </trkpt>
      <trkpt lat="38.9435" lon="-8.99447833">
        <ele>11.0</ele>
        <time>2019-05-16T12:43:04.923Z</time>
      </trkpt>
      <trkpt lat="38.9435" lon="-8.99447833">
        <ele>11.0</ele>
        <time>2019-05-16T12:43:05.911Z</time>
      </trkpt>
      <trkpt lat="38.94355667" lon="-8.99444">
        <ele>11.0</ele>
        <time>2019-05-16T12:43:06.935Z</time>
      </trkpt>
      <trkpt lat="38.94355667" lon="-8.99444">
        <ele>11.0</ele>
        <time>2019-05-16T12:43:07.916Z</time>
      </trkpt>
      <trkpt lat="38.94361667" lon="-8.9944">
        <ele>11.0</ele>
        <time>2019-05-16T12:43:08.901Z</time>
      </trkpt>
      <trkpt lat="38.94361667" lon="-8.9944">
        <ele>11.0</ele>
        <time>2019-05-16T12:43:09.903Z</time>
      </trkpt>
      <trkpt lat="38.943675" lon="-8.99436667">
        <ele>12.0</ele>
        <time>2019-05-16T12:43:10.916Z</time>
      </trkpt>
      <trkpt lat="38.94370167" lon="-8.99434833">
        <ele>12.0</ele>
        <time>2019-05-16T12:43:11.917Z</time>
      </trkpt>
      <trkpt lat="38.94372667" lon="-8.99433">
        <ele>12.0</ele>
        <time>2019-05-16T12:43:12.898Z</time>
      </trkpt>
      <trkpt lat="38.94372667" lon="-8.99433">
        <ele>12.0</ele>
        <time>2019-05-16T12:43:13.901Z</time>
      </trkpt>
      <trkpt lat="38.94378167" lon="-8.99429833">
        <ele>12.0</ele>
        <time>2019-05-16T12:43:14.898Z</time>
      </trkpt>
      <trkpt lat="38.94378167" lon="-8.99429833">
        <ele>12.0</ele>
        <time>2019-05-16T12:43:15.911Z</time>
      </trkpt>
      <trkpt lat="38.943835" lon="-8.99426333">
        <ele>12.0</ele>
        <time>2019-05-16T12:43:16.920Z</time>
      </trkpt>
      <trkpt lat="38.943835" lon="-8.99426333">
        <ele>12.0</ele>
        <time>2019-05-16T12:43:17.918Z</time>
      </trkpt>
      <trkpt lat="38.94389" lon="-8.99422667">
        <ele>13.0</ele>
        <time>2019-05-16T12:43:18.929Z</time>
      </trkpt>
      <trkpt lat="38.94389" lon="-8.99422667">
        <ele>13.0</ele>
        <time>2019-05-16T12:43:19.899Z</time>
      </trkpt>
      <trkpt lat="38.94396" lon="-8.994185">
        <ele>13.0</ele>
        <time>2019-05-16T12:43:20.920Z</time>
      </trkpt>
      <trkpt lat="38.94396" lon="-8.994185">
        <ele>13.0</ele>
        <time>2019-05-16T12:43:21.911Z</time>
      </trkpt>
      <trkpt lat="38.94402833" lon="-8.99415333">
        <ele>13.0</ele>
        <time>2019-05-16T12:43:22.935Z</time>
      </trkpt>
      <trkpt lat="38.94402833" lon="-8.99415333">
        <ele>13.0</ele>
        <time>2019-05-16T12:43:23.919Z</time>
      </trkpt>
      <trkpt lat="38.94409667" lon="-8.99413">
        <ele>13.0</ele>
        <time>2019-05-16T12:43:24.928Z</time>
      </trkpt>
      <trkpt lat="38.94409667" lon="-8.99413">
        <ele>13.0</ele>
        <time>2019-05-16T12:43:25.929Z</time>
      </trkpt>
      <trkpt lat="38.94416167" lon="-8.99409667">
        <ele>13.0</ele>
        <time>2019-05-16T12:43:26.940Z</time>
      </trkpt>
      <trkpt lat="38.94416167" lon="-8.99409667">
        <ele>13.0</ele>
        <time>2019-05-16T12:43:27.914Z</time>
      </trkpt>
      <trkpt lat="38.94422667" lon="-8.99405667">
        <ele>13.0</ele>
        <time>2019-05-16T12:43:28.909Z</time>
      </trkpt>
      <trkpt lat="38.94422667" lon="-8.99405667">
        <ele>13.0</ele>
        <time>2019-05-16T12:43:29.917Z</time>
      </trkpt>
      <trkpt lat="38.94429333" lon="-8.99401667">
        <ele>13.0</ele>
        <time>2019-05-16T12:43:30.927Z</time>
      </trkpt>
      <trkpt lat="38.94429333" lon="-8.99401667">
        <ele>13.0</ele>
        <time>2019-05-16T12:43:31.918Z</time>
      </trkpt>
      <trkpt lat="38.94436" lon="-8.99397333">
        <ele>13.0</ele>
        <time>2019-05-16T12:43:32.930Z</time>
      </trkpt>
      <trkpt lat="38.94439333" lon="-8.99395">
        <ele>13.0</ele>
        <time>2019-05-16T12:43:33.930Z</time>
      </trkpt>
      <trkpt lat="38.94439333" lon="-8.99395">
        <ele>13.0</ele>
        <time>2019-05-16T12:43:34.927Z</time>
      </trkpt>
      <trkpt lat="38.94446167" lon="-8.99390833">
        <ele>13.0</ele>
        <time>2019-05-16T12:43:35.901Z</time>
      </trkpt>
      <trkpt lat="38.944495" lon="-8.993885">
        <ele>13.0</ele>
        <time>2019-05-16T12:43:36.925Z</time>
      </trkpt>
      <trkpt lat="38.944495" lon="-8.993885">
        <ele>13.0</ele>
        <time>2019-05-16T12:43:37.908Z</time>
      </trkpt>
      <trkpt lat="38.94456167" lon="-8.993835">
        <ele>13.0</ele>
        <time>2019-05-16T12:43:38.901Z</time>
      </trkpt>
      <trkpt lat="38.94456167" lon="-8.993835">
        <ele>13.0</ele>
        <time>2019-05-16T12:43:39.917Z</time>
      </trkpt>
      <trkpt lat="38.94463333" lon="-8.99379">
        <ele>13.0</ele>
        <time>2019-05-16T12:43:40.935Z</time>
      </trkpt>
      <trkpt lat="38.94463333" lon="-8.99379">
        <ele>13.0</ele>
        <time>2019-05-16T12:43:41.936Z</time>
      </trkpt>
      <trkpt lat="38.944705" lon="-8.99374333">
        <ele>13.0</ele>
        <time>2019-05-16T12:43:42.908Z</time>
      </trkpt>
      <trkpt lat="38.944705" lon="-8.99374333">
        <ele>13.0</ele>
        <time>2019-05-16T12:43:43.899Z</time>
      </trkpt>
      <trkpt lat="38.94477833" lon="-8.993695">
        <ele>13.0</ele>
        <time>2019-05-16T12:43:44.910Z</time>
      </trkpt>
      <trkpt lat="38.94477833" lon="-8.993695">
        <ele>13.0</ele>
        <time>2019-05-16T12:43:45.912Z</time>
      </trkpt>
      <trkpt lat="38.94485167" lon="-8.99364833">
        <ele>13.0</ele>
        <time>2019-05-16T12:43:46.919Z</time>
      </trkpt>
      <trkpt lat="38.94485167" lon="-8.99364833">
        <ele>13.0</ele>
        <time>2019-05-16T12:43:47.901Z</time>
      </trkpt>
      <trkpt lat="38.94492667" lon="-8.99359833">
        <ele>13.0</ele>
        <time>2019-05-16T12:43:48.908Z</time>
      </trkpt>
      <trkpt lat="38.94492667" lon="-8.99359833">
        <ele>13.0</ele>
        <time>2019-05-16T12:43:49.929Z</time>
      </trkpt>
      <trkpt lat="38.94500167" lon="-8.99355">
        <ele>13.0</ele>
        <time>2019-05-16T12:43:50.927Z</time>
      </trkpt>
      <trkpt lat="38.94500167" lon="-8.99355">
        <ele>13.0</ele>
        <time>2019-05-16T12:43:51.908Z</time>
      </trkpt>
      <trkpt lat="38.94507667" lon="-8.993505">
        <ele>13.0</ele>
        <time>2019-05-16T12:43:52.919Z</time>
      </trkpt>
      <trkpt lat="38.94511333" lon="-8.99348167">
        <ele>13.0</ele>
        <time>2019-05-16T12:43:53.907Z</time>
      </trkpt>
      <trkpt lat="38.94515" lon="-8.993455">
        <ele>13.0</ele>
        <time>2019-05-16T12:43:54.924Z</time>
      </trkpt>
      <trkpt lat="38.94515" lon="-8.993455">
        <ele>13.0</ele>
        <time>2019-05-16T12:43:55.911Z</time>
      </trkpt>
      <trkpt lat="38.94522333" lon="-8.99340667">
        <ele>13.0</ele>
        <time>2019-05-16T12:43:56.922Z</time>
      </trkpt>
      <trkpt lat="38.94522333" lon="-8.99340667">
        <ele>13.0</ele>
        <time>2019-05-16T12:43:57.899Z</time>
      </trkpt>
      <trkpt lat="38.94529667" lon="-8.99336167">
        <ele>13.0</ele>
        <time>2019-05-16T12:43:58.913Z</time>
      </trkpt>
      <trkpt lat="38.94529667" lon="-8.99336167">
        <ele>13.0</ele>
        <time>2019-05-16T12:43:59.920Z</time>
      </trkpt>
      <trkpt lat="38.94536667" lon="-8.993315">
        <ele>13.0</ele>
        <time>2019-05-16T12:44:00.903Z</time>
      </trkpt>
      <trkpt lat="38.94536667" lon="-8.993315">
        <ele>13.0</ele>
        <time>2019-05-16T12:44:01.899Z</time>
      </trkpt>
      <trkpt lat="38.945435" lon="-8.99327">
        <ele>13.0</ele>
        <time>2019-05-16T12:44:02.909Z</time>
      </trkpt>
      <trkpt lat="38.945435" lon="-8.99327">
        <ele>13.0</ele>
        <time>2019-05-16T12:44:03.916Z</time>
      </trkpt>
      <trkpt lat="38.945505" lon="-8.99322167">
        <ele>13.0</ele>
        <time>2019-05-16T12:44:04.928Z</time>
      </trkpt>
      <trkpt lat="38.94554" lon="-8.99319667">
        <ele>13.0</ele>
        <time>2019-05-16T12:44:05.914Z</time>
      </trkpt>
      <trkpt lat="38.94557667" lon="-8.99317167">
        <ele>13.0</ele>
        <time>2019-05-16T12:44:06.922Z</time>
      </trkpt>
      <trkpt lat="38.94557667" lon="-8.99317167">
        <ele>13.0</ele>
        <time>2019-05-16T12:44:07.897Z</time>
      </trkpt>
      <trkpt lat="38.945655" lon="-8.99312333">
        <ele>13.0</ele>
        <time>2019-05-16T12:44:08.916Z</time>
      </trkpt>
      <trkpt lat="38.945655" lon="-8.99312333">
        <ele>13.0</ele>
        <time>2019-05-16T12:44:09.901Z</time>
      </trkpt>
      <trkpt lat="38.94573333" lon="-8.993075">
        <ele>13.0</ele>
        <time>2019-05-16T12:44:10.911Z</time>
      </trkpt>
      <trkpt lat="38.94573333" lon="-8.993075">
        <ele>13.0</ele>
        <time>2019-05-16T12:44:11.937Z</time>
      </trkpt>
      <trkpt lat="38.94581333" lon="-8.99302">
        <ele>12.0</ele>
        <time>2019-05-16T12:44:12.905Z</time>
      </trkpt>
      <trkpt lat="38.94581333" lon="-8.99302">
        <ele>12.0</ele>
        <time>2019-05-16T12:44:13.898Z</time>
      </trkpt>
      <trkpt lat="38.94589167" lon="-8.99296667">
        <ele>12.0</ele>
        <time>2019-05-16T12:44:14.910Z</time>
      </trkpt>
      <trkpt lat="38.94589167" lon="-8.99296667">
        <ele>12.0</ele>
        <time>2019-05-16T12:44:15.901Z</time>
      </trkpt>
      <trkpt lat="38.94597333" lon="-8.992915">
        <ele>12.0</ele>
        <time>2019-05-16T12:44:16.910Z</time>
      </trkpt>
      <trkpt lat="38.94597333" lon="-8.992915">
        <ele>12.0</ele>
        <time>2019-05-16T12:44:17.897Z</time>
      </trkpt>
      <trkpt lat="38.94605333" lon="-8.99286333">
        <ele>12.0</ele>
        <time>2019-05-16T12:44:18.909Z</time>
      </trkpt>
      <trkpt lat="38.94605333" lon="-8.99286333">
        <ele>12.0</ele>
        <time>2019-05-16T12:44:19.908Z</time>
      </trkpt>
      <trkpt lat="38.94613167" lon="-8.99281167">
        <ele>12.0</ele>
        <time>2019-05-16T12:44:20.929Z</time>
      </trkpt>
      <trkpt lat="38.94613167" lon="-8.99281167">
        <ele>12.0</ele>
        <time>2019-05-16T12:44:21.913Z</time>
      </trkpt>
      <trkpt lat="38.94620833" lon="-8.99276167">
        <ele>12.0</ele>
        <time>2019-05-16T12:44:22.901Z</time>
      </trkpt>
      <trkpt lat="38.94620833" lon="-8.99276167">
        <ele>12.0</ele>
        <time>2019-05-16T12:44:23.921Z</time>
      </trkpt>
      <trkpt lat="38.94628167" lon="-8.99271167">
        <ele>12.0</ele>
        <time>2019-05-16T12:44:24.899Z</time>
      </trkpt>
      <trkpt lat="38.94628167" lon="-8.99271167">
        <ele>12.0</ele>
        <time>2019-05-16T12:44:25.917Z</time>
      </trkpt>
      <trkpt lat="38.94635167" lon="-8.99266">
        <ele>12.0</ele>
        <time>2019-05-16T12:44:26.934Z</time>
      </trkpt>
      <trkpt lat="38.94638833" lon="-8.992635">
        <ele>12.0</ele>
        <time>2019-05-16T12:44:27.911Z</time>
      </trkpt>
      <trkpt lat="38.94638833" lon="-8.992635">
        <ele>12.0</ele>
        <time>2019-05-16T12:44:28.918Z</time>
      </trkpt>
      <trkpt lat="38.94646167" lon="-8.99259">
        <ele>12.0</ele>
        <time>2019-05-16T12:44:29.927Z</time>
      </trkpt>
      <trkpt lat="38.94649833" lon="-8.992565">
        <ele>12.0</ele>
        <time>2019-05-16T12:44:30.930Z</time>
      </trkpt>
      <trkpt lat="38.946535" lon="-8.99254333">
        <ele>12.0</ele>
        <time>2019-05-16T12:44:31.910Z</time>
      </trkpt>
      <trkpt lat="38.946535" lon="-8.99254333">
        <ele>12.0</ele>
        <time>2019-05-16T12:44:32.923Z</time>
      </trkpt>
      <trkpt lat="38.94660667" lon="-8.9925">
        <ele>12.0</ele>
        <time>2019-05-16T12:44:33.937Z</time>
      </trkpt>
      <trkpt lat="38.94660667" lon="-8.9925">
        <ele>12.0</ele>
        <time>2019-05-16T12:44:34.900Z</time>
      </trkpt>
      <trkpt lat="38.94667167" lon="-8.99245">
        <ele>12.0</ele>
        <time>2019-05-16T12:44:35.910Z</time>
      </trkpt>
      <trkpt lat="38.94667167" lon="-8.99245">
        <ele>12.0</ele>
        <time>2019-05-16T12:44:36.918Z</time>
      </trkpt>
      <trkpt lat="38.94667167" lon="-8.99245">
        <ele>12.0</ele>
        <time>2019-05-16T12:44:37.961Z</time>
      </trkpt>
      <trkpt lat="38.946775" lon="-8.99238667">
        <ele>12.0</ele>
        <time>2019-05-16T12:44:38.897Z</time>
      </trkpt>
      <trkpt lat="38.946775" lon="-8.99238667">
        <ele>12.0</ele>
        <time>2019-05-16T12:44:39.910Z</time>
      </trkpt>
      <trkpt lat="38.94684167" lon="-8.99234333">
        <ele>12.0</ele>
        <time>2019-05-16T12:44:40.926Z</time>
      </trkpt>
      <trkpt lat="38.94684167" lon="-8.99234333">
        <ele>12.0</ele>
        <time>2019-05-16T12:44:41.901Z</time>
      </trkpt>
      <trkpt lat="38.946905" lon="-8.99230167">
        <ele>12.0</ele>
        <time>2019-05-16T12:44:42.915Z</time>
      </trkpt>
      <trkpt lat="38.946905" lon="-8.99230167">
        <ele>12.0</ele>
        <time>2019-05-16T12:44:43.900Z</time>
      </trkpt>
      <trkpt lat="38.94696833" lon="-8.99225833">
        <ele>12.0</ele>
        <time>2019-05-16T12:44:44.910Z</time>
      </trkpt>
      <trkpt lat="38.94696833" lon="-8.99225833">
        <ele>12.0</ele>
        <time>2019-05-16T12:44:45.911Z</time>
      </trkpt>
      <trkpt lat="38.94703" lon="-8.992215">
        <ele>12.0</ele>
        <time>2019-05-16T12:44:46.924Z</time>
      </trkpt>
      <trkpt lat="38.94703" lon="-8.992215">
        <ele>12.0</ele>
        <time>2019-05-16T12:44:47.901Z</time>
      </trkpt>
      <trkpt lat="38.94709" lon="-8.992175">
        <ele>12.0</ele>
        <time>2019-05-16T12:44:48.902Z</time>
      </trkpt>
      <trkpt lat="38.94709" lon="-8.992175">
        <ele>12.0</ele>
        <time>2019-05-16T12:44:49.899Z</time>
      </trkpt>
      <trkpt lat="38.94715" lon="-8.992135">
        <ele>11.0</ele>
        <time>2019-05-16T12:44:50.910Z</time>
      </trkpt>
      <trkpt lat="38.94715" lon="-8.992135">
        <ele>11.0</ele>
        <time>2019-05-16T12:44:51.897Z</time>
      </trkpt>
      <trkpt lat="38.94721833" lon="-8.99209667">
        <ele>11.0</ele>
        <time>2019-05-16T12:44:52.908Z</time>
      </trkpt>
      <trkpt lat="38.94721833" lon="-8.99209667">
        <ele>11.0</ele>
        <time>2019-05-16T12:44:53.908Z</time>
      </trkpt>
      <trkpt lat="38.94728667" lon="-8.99205667">
        <ele>11.0</ele>
        <time>2019-05-16T12:44:54.920Z</time>
      </trkpt>
      <trkpt lat="38.94728667" lon="-8.99205667">
        <ele>11.0</ele>
        <time>2019-05-16T12:44:55.899Z</time>
      </trkpt>
      <trkpt lat="38.94735833" lon="-8.99201">
        <ele>11.0</ele>
        <time>2019-05-16T12:44:56.909Z</time>
      </trkpt>
      <trkpt lat="38.94735833" lon="-8.99201">
        <ele>11.0</ele>
        <time>2019-05-16T12:44:57.936Z</time>
      </trkpt>
      <trkpt lat="38.94743" lon="-8.991965">
        <ele>11.0</ele>
        <time>2019-05-16T12:44:58.909Z</time>
      </trkpt>
      <trkpt lat="38.94743" lon="-8.991965">
        <ele>11.0</ele>
        <time>2019-05-16T12:44:59.929Z</time>
      </trkpt>
      <trkpt lat="38.9475" lon="-8.99192">
        <ele>11.0</ele>
        <time>2019-05-16T12:45:00.899Z</time>
      </trkpt>
      <trkpt lat="38.9475" lon="-8.99192">
        <ele>11.0</ele>
        <time>2019-05-16T12:45:01.923Z</time>
      </trkpt>
      <trkpt lat="38.94757" lon="-8.99187">
        <ele>11.0</ele>
        <time>2019-05-16T12:45:02.931Z</time>
      </trkpt>
      <trkpt lat="38.94757" lon="-8.99187">
        <ele>11.0</ele>
        <time>2019-05-16T12:45:03.919Z</time>
      </trkpt>
      <trkpt lat="38.94764" lon="-8.99182333">
        <ele>11.0</ele>
        <time>2019-05-16T12:45:04.928Z</time>
      </trkpt>
      <trkpt lat="38.94764" lon="-8.99182333">
        <ele>11.0</ele>
        <time>2019-05-16T12:45:05.906Z</time>
      </trkpt>
      <trkpt lat="38.947715" lon="-8.99177667">
        <ele>11.0</ele>
        <time>2019-05-16T12:45:06.913Z</time>
      </trkpt>
      <trkpt lat="38.947715" lon="-8.99177667">
        <ele>11.0</ele>
        <time>2019-05-16T12:45:07.921Z</time>
      </trkpt>
      <trkpt lat="38.94779" lon="-8.991725">
        <ele>11.0</ele>
        <time>2019-05-16T12:45:08.904Z</time>
      </trkpt>
      <trkpt lat="38.94782833" lon="-8.99169833">
        <ele>11.0</ele>
        <time>2019-05-16T12:45:09.913Z</time>
      </trkpt>
      <trkpt lat="38.94786833" lon="-8.991675">
        <ele>11.0</ele>
        <time>2019-05-16T12:45:10.909Z</time>
      </trkpt>
      <trkpt lat="38.94786833" lon="-8.991675">
        <ele>11.0</ele>
        <time>2019-05-16T12:45:11.911Z</time>
      </trkpt>
      <trkpt lat="38.947945" lon="-8.99162167">
        <ele>11.0</ele>
        <time>2019-05-16T12:45:12.907Z</time>
      </trkpt>
      <trkpt lat="38.947945" lon="-8.99162167">
        <ele>11.0</ele>
        <time>2019-05-16T12:45:13.914Z</time>
      </trkpt>
      <trkpt lat="38.94801833" lon="-8.99156833">
        <ele>11.0</ele>
        <time>2019-05-16T12:45:14.927Z</time>
      </trkpt>
      <trkpt lat="38.94801833" lon="-8.99156833">
        <ele>11.0</ele>
        <time>2019-05-16T12:45:15.898Z</time>
      </trkpt>
      <trkpt lat="38.94809333" lon="-8.99151833">
        <ele>11.0</ele>
        <time>2019-05-16T12:45:16.922Z</time>
      </trkpt>
      <trkpt lat="38.94809333" lon="-8.99151833">
        <ele>11.0</ele>
        <time>2019-05-16T12:45:17.901Z</time>
      </trkpt>
      <trkpt lat="38.94816667" lon="-8.991475">
        <ele>11.0</ele>
        <time>2019-05-16T12:45:18.909Z</time>
      </trkpt>
      <trkpt lat="38.94816667" lon="-8.991475">
        <ele>11.0</ele>
        <time>2019-05-16T12:45:19.918Z</time>
      </trkpt>
      <trkpt lat="38.94824167" lon="-8.99143">
        <ele>11.0</ele>
        <time>2019-05-16T12:45:20.902Z</time>
      </trkpt>
      <trkpt lat="38.94824167" lon="-8.99143">
        <ele>11.0</ele>
        <time>2019-05-16T12:45:21.897Z</time>
      </trkpt>
      <trkpt lat="38.948315" lon="-8.99138">
        <ele>11.0</ele>
        <time>2019-05-16T12:45:22.905Z</time>
      </trkpt>
      <trkpt lat="38.948315" lon="-8.99138">
        <ele>11.0</ele>
        <time>2019-05-16T12:45:23.907Z</time>
      </trkpt>
      <trkpt lat="38.94839167" lon="-8.99133333">
        <ele>11.0</ele>
        <time>2019-05-16T12:45:24.919Z</time>
      </trkpt>
      <trkpt lat="38.94839167" lon="-8.99133333">
        <ele>11.0</ele>
        <time>2019-05-16T12:45:25.906Z</time>
      </trkpt>
      <trkpt lat="38.94846833" lon="-8.99128333">
        <ele>11.0</ele>
        <time>2019-05-16T12:45:26.918Z</time>
      </trkpt>
      <trkpt lat="38.94846833" lon="-8.99128333">
        <ele>11.0</ele>
        <time>2019-05-16T12:45:27.916Z</time>
      </trkpt>
      <trkpt lat="38.948545" lon="-8.99123167">
        <ele>11.0</ele>
        <time>2019-05-16T12:45:28.906Z</time>
      </trkpt>
      <trkpt lat="38.948545" lon="-8.99123167">
        <ele>11.0</ele>
        <time>2019-05-16T12:45:29.911Z</time>
      </trkpt>
      <trkpt lat="38.94862167" lon="-8.99118">
        <ele>11.0</ele>
        <time>2019-05-16T12:45:30.921Z</time>
      </trkpt>
      <trkpt lat="38.94862167" lon="-8.99118">
        <ele>11.0</ele>
        <time>2019-05-16T12:45:31.912Z</time>
      </trkpt>
      <trkpt lat="38.94869667" lon="-8.99113167">
        <ele>10.0</ele>
        <time>2019-05-16T12:45:32.921Z</time>
      </trkpt>
      <trkpt lat="38.94869667" lon="-8.99113167">
        <ele>10.0</ele>
        <time>2019-05-16T12:45:33.904Z</time>
      </trkpt>
      <trkpt lat="38.94876833" lon="-8.99108">
        <ele>10.0</ele>
        <time>2019-05-16T12:45:34.912Z</time>
      </trkpt>
      <trkpt lat="38.94876833" lon="-8.99108">
        <ele>10.0</ele>
        <time>2019-05-16T12:45:35.910Z</time>
      </trkpt>
      <trkpt lat="38.94883667" lon="-8.99103333">
        <ele>10.0</ele>
        <time>2019-05-16T12:45:36.921Z</time>
      </trkpt>
      <trkpt lat="38.94883667" lon="-8.99103333">
        <ele>10.0</ele>
        <time>2019-05-16T12:45:37.919Z</time>
      </trkpt>
      <trkpt lat="38.94883667" lon="-8.99103333">
        <ele>10.0</ele>
        <time>2019-05-16T12:45:38.948Z</time>
      </trkpt>
      <trkpt lat="38.94894333" lon="-8.99096833">
        <ele>10.0</ele>
        <time>2019-05-16T12:45:39.922Z</time>
      </trkpt>
      <trkpt lat="38.94894333" lon="-8.99096833">
        <ele>10.0</ele>
        <time>2019-05-16T12:45:40.903Z</time>
      </trkpt>
      <trkpt lat="38.94901333" lon="-8.990925">
        <ele>10.0</ele>
        <time>2019-05-16T12:45:41.920Z</time>
      </trkpt>
      <trkpt lat="38.94904833" lon="-8.99090333">
        <ele>10.0</ele>
        <time>2019-05-16T12:45:42.932Z</time>
      </trkpt>
      <trkpt lat="38.94904833" lon="-8.99090333">
        <ele>10.0</ele>
        <time>2019-05-16T12:45:43.921Z</time>
      </trkpt>
      <trkpt lat="38.94911333" lon="-8.99085333">
        <ele>10.0</ele>
        <time>2019-05-16T12:45:44.934Z</time>
      </trkpt>
      <trkpt lat="38.94911333" lon="-8.99085333">
        <ele>10.0</ele>
        <time>2019-05-16T12:45:45.897Z</time>
      </trkpt>
      <trkpt lat="38.94918" lon="-8.99081333">
        <ele>10.0</ele>
        <time>2019-05-16T12:45:46.912Z</time>
      </trkpt>
      <trkpt lat="38.94918" lon="-8.99081333">
        <ele>10.0</ele>
        <time>2019-05-16T12:45:47.929Z</time>
      </trkpt>
      <trkpt lat="38.94924667" lon="-8.99077667">
        <ele>10.0</ele>
        <time>2019-05-16T12:45:48.902Z</time>
      </trkpt>
      <trkpt lat="38.94924667" lon="-8.99077667">
        <ele>10.0</ele>
        <time>2019-05-16T12:45:49.937Z</time>
      </trkpt>
      <trkpt lat="38.94931" lon="-8.99073333">
        <ele>10.0</ele>
        <time>2019-05-16T12:45:50.906Z</time>
      </trkpt>
      <trkpt lat="38.94931" lon="-8.99073333">
        <ele>10.0</ele>
        <time>2019-05-16T12:45:51.897Z</time>
      </trkpt>
      <trkpt lat="38.94937333" lon="-8.99069333">
        <ele>10.0</ele>
        <time>2019-05-16T12:45:52.919Z</time>
      </trkpt>
      <trkpt lat="38.94937333" lon="-8.99069333">
        <ele>10.0</ele>
        <time>2019-05-16T12:45:53.910Z</time>
      </trkpt>
      <trkpt lat="38.94943667" lon="-8.99064833">
        <ele>10.0</ele>
        <time>2019-05-16T12:45:54.924Z</time>
      </trkpt>
      <trkpt lat="38.94943667" lon="-8.99064833">
        <ele>10.0</ele>
        <time>2019-05-16T12:45:55.927Z</time>
      </trkpt>
      <trkpt lat="38.94950167" lon="-8.99060333">
        <ele>10.0</ele>
        <time>2019-05-16T12:45:56.924Z</time>
      </trkpt>
      <trkpt lat="38.94950167" lon="-8.99060333">
        <ele>10.0</ele>
        <time>2019-05-16T12:45:57.903Z</time>
      </trkpt>
      <trkpt lat="38.94956167" lon="-8.99055833">
        <ele>10.0</ele>
        <time>2019-05-16T12:45:58.920Z</time>
      </trkpt>
      <trkpt lat="38.94956167" lon="-8.99055833">
        <ele>10.0</ele>
        <time>2019-05-16T12:45:59.899Z</time>
      </trkpt>
      <trkpt lat="38.94961667" lon="-8.99051167">
        <ele>10.0</ele>
        <time>2019-05-16T12:46:00.912Z</time>
      </trkpt>
      <trkpt lat="38.94961667" lon="-8.99051167">
        <ele>10.0</ele>
        <time>2019-05-16T12:46:01.922Z</time>
      </trkpt>
      <trkpt lat="38.94967333" lon="-8.99046833">
        <ele>10.0</ele>
        <time>2019-05-16T12:46:02.932Z</time>
      </trkpt>
      <trkpt lat="38.94967333" lon="-8.99046833">
        <ele>10.0</ele>
        <time>2019-05-16T12:46:03.900Z</time>
      </trkpt>
      <trkpt lat="38.94973333" lon="-8.990425">
        <ele>10.0</ele>
        <time>2019-05-16T12:46:04.907Z</time>
      </trkpt>
      <trkpt lat="38.94973333" lon="-8.990425">
        <ele>10.0</ele>
        <time>2019-05-16T12:46:05.952Z</time>
      </trkpt>
      <trkpt lat="38.94979667" lon="-8.99038833">
        <ele>10.0</ele>
        <time>2019-05-16T12:46:06.922Z</time>
      </trkpt>
      <trkpt lat="38.94979667" lon="-8.99038833">
        <ele>10.0</ele>
        <time>2019-05-16T12:46:07.910Z</time>
      </trkpt>
      <trkpt lat="38.94985667" lon="-8.99034167">
        <ele>9.0</ele>
        <time>2019-05-16T12:46:08.920Z</time>
      </trkpt>
      <trkpt lat="38.94985667" lon="-8.99034167">
        <ele>9.0</ele>
        <time>2019-05-16T12:46:09.901Z</time>
      </trkpt>
      <trkpt lat="38.94991667" lon="-8.99029167">
        <ele>9.0</ele>
        <time>2019-05-16T12:46:10.916Z</time>
      </trkpt>
      <trkpt lat="38.94991667" lon="-8.99029167">
        <ele>9.0</ele>
        <time>2019-05-16T12:46:11.921Z</time>
      </trkpt>
      <trkpt lat="38.94998" lon="-8.99024167">
        <ele>9.0</ele>
        <time>2019-05-16T12:46:12.934Z</time>
      </trkpt>
      <trkpt lat="38.94998" lon="-8.99024167">
        <ele>9.0</ele>
        <time>2019-05-16T12:46:13.932Z</time>
      </trkpt>
      <trkpt lat="38.95004333" lon="-8.99018833">
        <ele>9.0</ele>
        <time>2019-05-16T12:46:14.902Z</time>
      </trkpt>
      <trkpt lat="38.95004333" lon="-8.99018833">
        <ele>9.0</ele>
        <time>2019-05-16T12:46:15.924Z</time>
      </trkpt>
      <trkpt lat="38.95010833" lon="-8.99013333">
        <ele>9.0</ele>
        <time>2019-05-16T12:46:16.935Z</time>
      </trkpt>
      <trkpt lat="38.95010833" lon="-8.99013333">
        <ele>9.0</ele>
        <time>2019-05-16T12:46:17.935Z</time>
      </trkpt>
      <trkpt lat="38.95017833" lon="-8.99008">
        <ele>9.0</ele>
        <time>2019-05-16T12:46:18.902Z</time>
      </trkpt>
      <trkpt lat="38.95017833" lon="-8.99008">
        <ele>9.0</ele>
        <time>2019-05-16T12:46:19.908Z</time>
      </trkpt>
      <trkpt lat="38.95025" lon="-8.99003167">
        <ele>9.0</ele>
        <time>2019-05-16T12:46:20.935Z</time>
      </trkpt>
      <trkpt lat="38.95025" lon="-8.99003167">
        <ele>9.0</ele>
        <time>2019-05-16T12:46:21.931Z</time>
      </trkpt>
      <trkpt lat="38.95031667" lon="-8.98997333">
        <ele>9.0</ele>
        <time>2019-05-16T12:46:22.900Z</time>
      </trkpt>
      <trkpt lat="38.95031667" lon="-8.98997333">
        <ele>9.0</ele>
        <time>2019-05-16T12:46:23.926Z</time>
      </trkpt>
      <trkpt lat="38.95039167" lon="-8.98992">
        <ele>9.0</ele>
        <time>2019-05-16T12:46:24.910Z</time>
      </trkpt>
      <trkpt lat="38.95039167" lon="-8.98992">
        <ele>9.0</ele>
        <time>2019-05-16T12:46:25.930Z</time>
      </trkpt>
      <trkpt lat="38.95046833" lon="-8.98986333">
        <ele>9.0</ele>
        <time>2019-05-16T12:46:26.902Z</time>
      </trkpt>
      <trkpt lat="38.95046833" lon="-8.98986333">
        <ele>9.0</ele>
        <time>2019-05-16T12:46:27.922Z</time>
      </trkpt>
      <trkpt lat="38.95054333" lon="-8.98980333">
        <ele>9.0</ele>
        <time>2019-05-16T12:46:28.900Z</time>
      </trkpt>
      <trkpt lat="38.95054333" lon="-8.98980333">
        <ele>9.0</ele>
        <time>2019-05-16T12:46:29.899Z</time>
      </trkpt>
      <trkpt lat="38.95061333" lon="-8.98974167">
        <ele>9.0</ele>
        <time>2019-05-16T12:46:30.919Z</time>
      </trkpt>
      <trkpt lat="38.95061333" lon="-8.98974167">
        <ele>9.0</ele>
        <time>2019-05-16T12:46:31.921Z</time>
      </trkpt>
      <trkpt lat="38.95065833" lon="-8.989655">
        <ele>9.0</ele>
        <time>2019-05-16T12:46:32.902Z</time>
      </trkpt>
      <trkpt lat="38.95065833" lon="-8.989655">
        <ele>9.0</ele>
        <time>2019-05-16T12:46:33.901Z</time>
      </trkpt>
      <trkpt lat="38.95064" lon="-8.98956333">
        <ele>9.0</ele>
        <time>2019-05-16T12:46:34.970Z</time>
      </trkpt>
      <trkpt lat="38.95064" lon="-8.98956333">
        <ele>9.0</ele>
        <time>2019-05-16T12:46:35.909Z</time>
      </trkpt>
      <trkpt lat="38.95058667" lon="-8.989485">
        <ele>9.0</ele>
        <time>2019-05-16T12:46:36.913Z</time>
      </trkpt>
      <trkpt lat="38.95058667" lon="-8.989485">
        <ele>9.0</ele>
        <time>2019-05-16T12:46:37.899Z</time>
      </trkpt>
      <trkpt lat="38.950545" lon="-8.98940167">
        <ele>9.0</ele>
        <time>2019-05-16T12:46:38.915Z</time>
      </trkpt>
      <trkpt lat="38.950545" lon="-8.98940167">
        <ele>9.0</ele>
        <time>2019-05-16T12:46:39.907Z</time>
      </trkpt>
      <trkpt lat="38.950575" lon="-8.989315">
        <ele>9.0</ele>
        <time>2019-05-16T12:46:40.932Z</time>
      </trkpt>
      <trkpt lat="38.950575" lon="-8.989315">
        <ele>9.0</ele>
        <time>2019-05-16T12:46:41.897Z</time>
      </trkpt>
      <trkpt lat="38.95063" lon="-8.98925833">
        <ele>9.0</ele>
        <time>2019-05-16T12:46:42.910Z</time>
      </trkpt>
      <trkpt lat="38.95063" lon="-8.98925833">
        <ele>9.0</ele>
        <time>2019-05-16T12:46:43.901Z</time>
      </trkpt>
      <trkpt lat="38.95068" lon="-8.98920667">
        <ele>9.0</ele>
        <time>2019-05-16T12:46:44.913Z</time>
      </trkpt>
      <trkpt lat="38.950705" lon="-8.98918167">
        <ele>9.0</ele>
        <time>2019-05-16T12:46:45.909Z</time>
      </trkpt>
      <trkpt lat="38.950705" lon="-8.98918167">
        <ele>9.0</ele>
        <time>2019-05-16T12:46:46.908Z</time>
      </trkpt>
      <trkpt lat="38.950755" lon="-8.98913">
        <ele>9.0</ele>
        <time>2019-05-16T12:46:47.932Z</time>
      </trkpt>
      <trkpt lat="38.95078167" lon="-8.98910833">
        <ele>9.0</ele>
        <time>2019-05-16T12:46:48.934Z</time>
      </trkpt>
      <trkpt lat="38.95078167" lon="-8.98910833">
        <ele>9.0</ele>
        <time>2019-05-16T12:46:49.904Z</time>
      </trkpt>
      <trkpt lat="38.950835" lon="-8.98906167">
        <ele>9.0</ele>
        <time>2019-05-16T12:46:50.914Z</time>
      </trkpt>
      <trkpt lat="38.950835" lon="-8.98906167">
        <ele>9.0</ele>
        <time>2019-05-16T12:46:51.897Z</time>
      </trkpt>
      <trkpt lat="38.95088333" lon="-8.98901167">
        <ele>9.0</ele>
        <time>2019-05-16T12:46:52.908Z</time>
      </trkpt>
      <trkpt lat="38.95088333" lon="-8.98901167">
        <ele>9.0</ele>
        <time>2019-05-16T12:46:53.917Z</time>
      </trkpt>
      <trkpt lat="38.95093333" lon="-8.98896333">
        <ele>9.0</ele>
        <time>2019-05-16T12:46:54.908Z</time>
      </trkpt>
      <trkpt lat="38.95093333" lon="-8.98896333">
        <ele>9.0</ele>
        <time>2019-05-16T12:46:55.897Z</time>
      </trkpt>
      <trkpt lat="38.950985" lon="-8.98891167">
        <ele>9.0</ele>
        <time>2019-05-16T12:46:56.905Z</time>
      </trkpt>
      <trkpt lat="38.950985" lon="-8.98891167">
        <ele>9.0</ele>
        <time>2019-05-16T12:46:57.912Z</time>
      </trkpt>
      <trkpt lat="38.95104" lon="-8.98886167">
        <ele>9.0</ele>
        <time>2019-05-16T12:46:58.900Z</time>
      </trkpt>
      <trkpt lat="38.95104" lon="-8.98886167">
        <ele>9.0</ele>
        <time>2019-05-16T12:46:59.919Z</time>
      </trkpt>
      <trkpt lat="38.95109333" lon="-8.988805">
        <ele>9.0</ele>
        <time>2019-05-16T12:47:00.932Z</time>
      </trkpt>
      <trkpt lat="38.95109333" lon="-8.988805">
        <ele>9.0</ele>
        <time>2019-05-16T12:47:01.916Z</time>
      </trkpt>
      <trkpt lat="38.95109333" lon="-8.988805">
        <ele>9.0</ele>
        <time>2019-05-16T12:47:02.965Z</time>
      </trkpt>
      <trkpt lat="38.95115167" lon="-8.98875">
        <ele>9.0</ele>
        <time>2019-05-16T12:47:03.921Z</time>
      </trkpt>
      <trkpt lat="38.95121167" lon="-8.98869167">
        <ele>9.0</ele>
        <time>2019-05-16T12:47:04.928Z</time>
      </trkpt>
      <trkpt lat="38.95121167" lon="-8.98869167">
        <ele>9.0</ele>
        <time>2019-05-16T12:47:05.912Z</time>
      </trkpt>
      <trkpt lat="38.95127333" lon="-8.98863">
        <ele>9.0</ele>
        <time>2019-05-16T12:47:06.919Z</time>
      </trkpt>
      <trkpt lat="38.95127333" lon="-8.98863">
        <ele>9.0</ele>
        <time>2019-05-16T12:47:07.908Z</time>
      </trkpt>
      <trkpt lat="38.951335" lon="-8.98857167">
        <ele>9.0</ele>
        <time>2019-05-16T12:47:08.934Z</time>
      </trkpt>
      <trkpt lat="38.951335" lon="-8.98857167">
        <ele>9.0</ele>
        <time>2019-05-16T12:47:09.899Z</time>
      </trkpt>
      <trkpt lat="38.95139667" lon="-8.988515">
        <ele>9.0</ele>
        <time>2019-05-16T12:47:10.910Z</time>
      </trkpt>
      <trkpt lat="38.95139667" lon="-8.988515">
        <ele>9.0</ele>
        <time>2019-05-16T12:47:11.901Z</time>
      </trkpt>
      <trkpt lat="38.951455" lon="-8.98845667">
        <ele>9.0</ele>
        <time>2019-05-16T12:47:12.909Z</time>
      </trkpt>
      <trkpt lat="38.951455" lon="-8.98845667">
        <ele>9.0</ele>
        <time>2019-05-16T12:47:13.901Z</time>
      </trkpt>
      <trkpt lat="38.95151667" lon="-8.98839833">
        <ele>9.0</ele>
        <time>2019-05-16T12:47:14.914Z</time>
      </trkpt>
      <trkpt lat="38.95151667" lon="-8.98839833">
        <ele>9.0</ele>
        <time>2019-05-16T12:47:15.899Z</time>
      </trkpt>
      <trkpt lat="38.951575" lon="-8.98834">
        <ele>9.0</ele>
        <time>2019-05-16T12:47:16.909Z</time>
      </trkpt>
      <trkpt lat="38.951575" lon="-8.98834">
        <ele>9.0</ele>
        <time>2019-05-16T12:47:17.908Z</time>
      </trkpt>
      <trkpt lat="38.95163333" lon="-8.98827833">
        <ele>9.0</ele>
        <time>2019-05-16T12:47:18.908Z</time>
      </trkpt>
      <trkpt lat="38.95163333" lon="-8.98827833">
        <ele>9.0</ele>
        <time>2019-05-16T12:47:19.922Z</time>
      </trkpt>
      <trkpt lat="38.951695" lon="-8.98821833">
        <ele>9.0</ele>
        <time>2019-05-16T12:47:20.903Z</time>
      </trkpt>
      <trkpt lat="38.951695" lon="-8.98821833">
        <ele>9.0</ele>
        <time>2019-05-16T12:47:21.905Z</time>
      </trkpt>
      <trkpt lat="38.95175833" lon="-8.98815667">
        <ele>8.0</ele>
        <time>2019-05-16T12:47:22.916Z</time>
      </trkpt>
      <trkpt lat="38.95175833" lon="-8.98815667">
        <ele>8.0</ele>
        <time>2019-05-16T12:47:23.898Z</time>
      </trkpt>
      <trkpt lat="38.95182167" lon="-8.98808833">
        <ele>9.0</ele>
        <time>2019-05-16T12:47:24.909Z</time>
      </trkpt>
      <trkpt lat="38.95182167" lon="-8.98808833">
        <ele>9.0</ele>
        <time>2019-05-16T12:47:25.925Z</time>
      </trkpt>
      <trkpt lat="38.95188667" lon="-8.98803">
        <ele>9.0</ele>
        <time>2019-05-16T12:47:26.933Z</time>
      </trkpt>
      <trkpt lat="38.95188667" lon="-8.98803">
        <ele>9.0</ele>
        <time>2019-05-16T12:47:27.923Z</time>
      </trkpt>
      <trkpt lat="38.95195167" lon="-8.98797167">
        <ele>8.0</ele>
        <time>2019-05-16T12:47:28.933Z</time>
      </trkpt>
      <trkpt lat="38.95195167" lon="-8.98797167">
        <ele>8.0</ele>
        <time>2019-05-16T12:47:29.910Z</time>
      </trkpt>
      <trkpt lat="38.95201667" lon="-8.987915">
        <ele>8.0</ele>
        <time>2019-05-16T12:47:30.927Z</time>
      </trkpt>
      <trkpt lat="38.95201667" lon="-8.987915">
        <ele>8.0</ele>
        <time>2019-05-16T12:47:31.902Z</time>
      </trkpt>
      <trkpt lat="38.95206167" lon="-8.98784667">
        <ele>9.0</ele>
        <time>2019-05-16T12:47:32.912Z</time>
      </trkpt>
      <trkpt lat="38.95206167" lon="-8.98784667">
        <ele>9.0</ele>
        <time>2019-05-16T12:47:33.899Z</time>
      </trkpt>
      <trkpt lat="38.95209667" lon="-8.98776833">
        <ele>9.0</ele>
        <time>2019-05-16T12:47:34.915Z</time>
      </trkpt>
      <trkpt lat="38.95209667" lon="-8.98776833">
        <ele>9.0</ele>
        <time>2019-05-16T12:47:35.911Z</time>
      </trkpt>
      <trkpt lat="38.95212833" lon="-8.987675">
        <ele>8.0</ele>
        <time>2019-05-16T12:47:36.920Z</time>
      </trkpt>
      <trkpt lat="38.95212833" lon="-8.987675">
        <ele>8.0</ele>
        <time>2019-05-16T12:47:37.922Z</time>
      </trkpt>
      <trkpt lat="38.952175" lon="-8.987595">
        <ele>8.0</ele>
        <time>2019-05-16T12:47:38.904Z</time>
      </trkpt>
      <trkpt lat="38.952175" lon="-8.987595">
        <ele>8.0</ele>
        <time>2019-05-16T12:47:39.906Z</time>
      </trkpt>
      <trkpt lat="38.95220333" lon="-8.98754167">
        <ele>8.0</ele>
        <time>2019-05-16T12:47:40.918Z</time>
      </trkpt>
      <trkpt lat="38.95220333" lon="-8.98754167">
        <ele>8.0</ele>
        <time>2019-05-16T12:47:41.903Z</time>
      </trkpt>
      <trkpt lat="38.95221167" lon="-8.98752667">
        <ele>7.0</ele>
        <time>2019-05-16T12:47:42.915Z</time>
      </trkpt>
      <trkpt lat="38.95221167" lon="-8.98752667">
        <ele>7.0</ele>
        <time>2019-05-16T12:47:43.897Z</time>
      </trkpt>
      <trkpt lat="38.952215" lon="-8.98753167">
        <ele>7.0</ele>
        <time>2019-05-16T12:47:44.914Z</time>
      </trkpt>
      <trkpt lat="38.952215" lon="-8.98753167">
        <ele>7.0</ele>
        <time>2019-05-16T12:47:45.919Z</time>
      </trkpt>
      <trkpt lat="38.952215" lon="-8.98753167">
        <ele>7.0</ele>
        <time>2019-05-16T12:47:46.901Z</time>
      </trkpt>
      <trkpt lat="38.952215" lon="-8.98753167">
        <ele>7.0</ele>
        <time>2019-05-16T12:47:47.911Z</time>
      </trkpt>
      <trkpt lat="38.952215" lon="-8.98753167">
        <ele>7.0</ele>
        <time>2019-05-16T12:47:48.904Z</time>
      </trkpt>
      <trkpt lat="38.952215" lon="-8.98753167">
        <ele>7.0</ele>
        <time>2019-05-16T12:47:49.914Z</time>
      </trkpt>
      <trkpt lat="38.952215" lon="-8.98753167">
        <ele>7.0</ele>
        <time>2019-05-16T12:47:50.908Z</time>
      </trkpt>
      <trkpt lat="38.952215" lon="-8.98753167">
        <ele>7.0</ele>
        <time>2019-05-16T12:47:51.910Z</time>
      </trkpt>
      <trkpt lat="38.952215" lon="-8.98753167">
        <ele>7.0</ele>
        <time>2019-05-16T12:47:52.906Z</time>
      </trkpt>
      <trkpt lat="38.952215" lon="-8.98753167">
        <ele>7.0</ele>
        <time>2019-05-16T12:47:53.924Z</time>
      </trkpt>
      <trkpt lat="38.952215" lon="-8.98753167">
        <ele>7.0</ele>
        <time>2019-05-16T12:47:54.915Z</time>
      </trkpt>
      <trkpt lat="38.952215" lon="-8.98753167">
        <ele>7.0</ele>
        <time>2019-05-16T12:47:55.904Z</time>
      </trkpt>
      <trkpt lat="38.952215" lon="-8.98753167">
        <ele>7.0</ele>
        <time>2019-05-16T12:47:56.911Z</time>
      </trkpt>
      <trkpt lat="38.952215" lon="-8.98753167">
        <ele>7.0</ele>
        <time>2019-05-16T12:47:57.906Z</time>
      </trkpt>
      <trkpt lat="38.952215" lon="-8.98753167">
        <ele>7.0</ele>
        <time>2019-05-16T12:47:58.907Z</time>
      </trkpt>
      <trkpt lat="38.952215" lon="-8.98753167">
        <ele>7.0</ele>
        <time>2019-05-16T12:47:59.910Z</time>
      </trkpt>
      <trkpt lat="38.952215" lon="-8.98753167">
        <ele>7.0</ele>
        <time>2019-05-16T12:48:00.911Z</time>
      </trkpt>
      <trkpt lat="38.952215" lon="-8.98753167">
        <ele>7.0</ele>
        <time>2019-05-16T12:48:01.905Z</time>
      </trkpt>
      <trkpt lat="38.952215" lon="-8.98753167">
        <ele>7.0</ele>
        <time>2019-05-16T12:48:02.911Z</time>
      </trkpt>
      <trkpt lat="38.952215" lon="-8.98753167">
        <ele>7.0</ele>
        <time>2019-05-16T12:48:03.901Z</time>
      </trkpt>
      <trkpt lat="38.952215" lon="-8.98753167">
        <ele>7.0</ele>
        <time>2019-05-16T12:48:04.906Z</time>
      </trkpt>
      <trkpt lat="38.952215" lon="-8.98753167">
        <ele>7.0</ele>
        <time>2019-05-16T12:48:05.914Z</time>
      </trkpt>
      <trkpt lat="38.952215" lon="-8.98753167">
        <ele>7.0</ele>
        <time>2019-05-16T12:48:06.920Z</time>
      </trkpt>
      <trkpt lat="38.952215" lon="-8.98753167">
        <ele>7.0</ele>
        <time>2019-05-16T12:48:07.927Z</time>
      </trkpt>
      <trkpt lat="38.952215" lon="-8.98753167">
        <ele>7.0</ele>
        <time>2019-05-16T12:48:08.912Z</time>
      </trkpt>
      <trkpt lat="38.952215" lon="-8.98753167">
        <ele>7.0</ele>
        <time>2019-05-16T12:48:09.910Z</time>
      </trkpt>
      <trkpt lat="38.952215" lon="-8.98753167">
        <ele>7.0</ele>
        <time>2019-05-16T12:48:10.920Z</time>
      </trkpt>
      <trkpt lat="38.952215" lon="-8.98753167">
        <ele>7.0</ele>
        <time>2019-05-16T12:48:11.925Z</time>
      </trkpt>
      <trkpt lat="38.952215" lon="-8.98753167">
        <ele>7.0</ele>
        <time>2019-05-16T12:48:12.911Z</time>
      </trkpt>
      <trkpt lat="38.952215" lon="-8.98753167">
        <ele>7.0</ele>
        <time>2019-05-16T12:48:13.905Z</time>
      </trkpt>
      <trkpt lat="38.952215" lon="-8.98753167">
        <ele>7.0</ele>
        <time>2019-05-16T12:48:14.901Z</time>
      </trkpt>
      <trkpt lat="38.952215" lon="-8.98753167">
        <ele>7.0</ele>
        <time>2019-05-16T12:48:15.910Z</time>
      </trkpt>
      <trkpt lat="38.952215" lon="-8.98753167">
        <ele>7.0</ele>
        <time>2019-05-16T12:48:16.919Z</time>
      </trkpt>
      <trkpt lat="38.952215" lon="-8.98753167">
        <ele>7.0</ele>
        <time>2019-05-16T12:48:17.929Z</time>
      </trkpt>
      <trkpt lat="38.952215" lon="-8.98753167">
        <ele>7.0</ele>
        <time>2019-05-16T12:48:18.908Z</time>
      </trkpt>
      <trkpt lat="38.952215" lon="-8.98753167">
        <ele>7.0</ele>
        <time>2019-05-16T12:48:19.910Z</time>
      </trkpt>
      <trkpt lat="38.952215" lon="-8.98753167">
        <ele>7.0</ele>
        <time>2019-05-16T12:48:20.903Z</time>
      </trkpt>
      <trkpt lat="38.952215" lon="-8.98753167">
        <ele>7.0</ele>
        <time>2019-05-16T12:48:21.913Z</time>
      </trkpt>
      <trkpt lat="38.952215" lon="-8.98753167">
        <ele>7.0</ele>
        <time>2019-05-16T12:48:22.921Z</time>
      </trkpt>
      <trkpt lat="38.952215" lon="-8.98753167">
        <ele>7.0</ele>
        <time>2019-05-16T12:48:23.911Z</time>
      </trkpt>
      <trkpt lat="38.952215" lon="-8.98753167">
        <ele>7.0</ele>
        <time>2019-05-16T12:48:24.913Z</time>
      </trkpt>
      <trkpt lat="38.952215" lon="-8.98753167">
        <ele>7.0</ele>
        <time>2019-05-16T12:48:25.907Z</time>
      </trkpt>
      <trkpt lat="38.952215" lon="-8.98753167">
        <ele>7.0</ele>
        <time>2019-05-16T12:48:26.910Z</time>
      </trkpt>
      <trkpt lat="38.952215" lon="-8.98753167">
        <ele>7.0</ele>
        <time>2019-05-16T12:48:27.905Z</time>
      </trkpt>
      <trkpt lat="38.952215" lon="-8.98753167">
        <ele>7.0</ele>
        <time>2019-05-16T12:48:28.923Z</time>
      </trkpt>
      <trkpt lat="38.952215" lon="-8.98753167">
        <ele>7.0</ele>
        <time>2019-05-16T12:48:29.905Z</time>
      </trkpt>
      <trkpt lat="38.952215" lon="-8.98753167">
        <ele>7.0</ele>
        <time>2019-05-16T12:48:30.912Z</time>
      </trkpt>
      <trkpt lat="38.952215" lon="-8.98753167">
        <ele>7.0</ele>
        <time>2019-05-16T12:48:31.905Z</time>
      </trkpt>
      <trkpt lat="38.952215" lon="-8.98753167">
        <ele>7.0</ele>
        <time>2019-05-16T12:48:32.909Z</time>
      </trkpt>
      <trkpt lat="38.952215" lon="-8.98753167">
        <ele>7.0</ele>
        <time>2019-05-16T12:48:33.905Z</time>
      </trkpt>
      <trkpt lat="38.952215" lon="-8.98753167">
        <ele>7.0</ele>
        <time>2019-05-16T12:48:34.910Z</time>
      </trkpt>
      <trkpt lat="38.952215" lon="-8.98753167">
        <ele>7.0</ele>
        <time>2019-05-16T12:48:35.905Z</time>
      </trkpt>
      <trkpt lat="38.95223333" lon="-8.98749167">
        <ele>8.0</ele>
        <time>2019-05-16T12:48:36.912Z</time>
      </trkpt>
      <trkpt lat="38.95223333" lon="-8.98749167">
        <ele>8.0</ele>
        <time>2019-05-16T12:48:37.904Z</time>
      </trkpt>
      <trkpt lat="38.95224667" lon="-8.98746167">
        <ele>8.0</ele>
        <time>2019-05-16T12:48:38.923Z</time>
      </trkpt>
      <trkpt lat="38.95224667" lon="-8.98746167">
        <ele>8.0</ele>
        <time>2019-05-16T12:48:39.914Z</time>
      </trkpt>
      <trkpt lat="38.95227333" lon="-8.98744167">
        <ele>8.0</ele>
        <time>2019-05-16T12:48:40.910Z</time>
      </trkpt>
      <trkpt lat="38.95228667" lon="-8.98743833">
        <ele>8.0</ele>
        <time>2019-05-16T12:48:41.909Z</time>
      </trkpt>
      <trkpt lat="38.95229833" lon="-8.987435">
        <ele>8.0</ele>
        <time>2019-05-16T12:48:42.911Z</time>
      </trkpt>
      <trkpt lat="38.95229833" lon="-8.987435">
        <ele>8.0</ele>
        <time>2019-05-16T12:48:43.905Z</time>
      </trkpt>
      <trkpt lat="38.952325" lon="-8.98743667">
        <ele>8.0</ele>
        <time>2019-05-16T12:48:44.980Z</time>
      </trkpt>
      <trkpt lat="38.952325" lon="-8.98743667">
        <ele>8.0</ele>
        <time>2019-05-16T12:48:45.927Z</time>
      </trkpt>
      <trkpt lat="38.95235167" lon="-8.98743833">
        <ele>8.0</ele>
        <time>2019-05-16T12:48:46.900Z</time>
      </trkpt>
      <trkpt lat="38.95235167" lon="-8.98743833">
        <ele>8.0</ele>
        <time>2019-05-16T12:48:47.897Z</time>
      </trkpt>
      <trkpt lat="38.952385" lon="-8.98743">
        <ele>7.0</ele>
        <time>2019-05-16T12:48:48.911Z</time>
      </trkpt>
      <trkpt lat="38.952385" lon="-8.98743">
        <ele>7.0</ele>
        <time>2019-05-16T12:48:49.919Z</time>
      </trkpt>
      <trkpt lat="38.95241833" lon="-8.98740667">
        <ele>6.0</ele>
        <time>2019-05-16T12:48:50.930Z</time>
      </trkpt>
      <trkpt lat="38.95241833" lon="-8.98740667">
        <ele>6.0</ele>
        <time>2019-05-16T12:48:51.900Z</time>
      </trkpt>
      <trkpt lat="38.95245167" lon="-8.98737833">
        <ele>6.0</ele>
        <time>2019-05-16T12:48:52.912Z</time>
      </trkpt>
      <trkpt lat="38.95247167" lon="-8.987365">
        <ele>6.0</ele>
        <time>2019-05-16T12:48:53.928Z</time>
      </trkpt>
      <trkpt lat="38.95249333" lon="-8.98735667">
        <ele>6.0</ele>
        <time>2019-05-16T12:48:54.910Z</time>
      </trkpt>
      <trkpt lat="38.95249333" lon="-8.98735667">
        <ele>6.0</ele>
        <time>2019-05-16T12:48:55.915Z</time>
      </trkpt>
      <trkpt lat="38.95253167" lon="-8.987335">
        <ele>5.0</ele>
        <time>2019-05-16T12:48:56.933Z</time>
      </trkpt>
      <trkpt lat="38.95253167" lon="-8.987335">
        <ele>5.0</ele>
        <time>2019-05-16T12:48:57.901Z</time>
      </trkpt>
      <trkpt lat="38.95257" lon="-8.98731">
        <ele>5.0</ele>
        <time>2019-05-16T12:48:58.916Z</time>
      </trkpt>
      <trkpt lat="38.95257" lon="-8.98731">
        <ele>5.0</ele>
        <time>2019-05-16T12:48:59.901Z</time>
      </trkpt>
      <trkpt lat="38.95261" lon="-8.987295">
        <ele>4.0</ele>
        <time>2019-05-16T12:49:00.929Z</time>
      </trkpt>
      <trkpt lat="38.95261" lon="-8.987295">
        <ele>4.0</ele>
        <time>2019-05-16T12:49:01.921Z</time>
      </trkpt>
      <trkpt lat="38.95265333" lon="-8.98730333">
        <ele>4.0</ele>
        <time>2019-05-16T12:49:02.934Z</time>
      </trkpt>
      <trkpt lat="38.95265333" lon="-8.98730333">
        <ele>4.0</ele>
        <time>2019-05-16T12:49:03.933Z</time>
      </trkpt>
      <trkpt lat="38.952695" lon="-8.98731667">
        <ele>4.0</ele>
        <time>2019-05-16T12:49:04.908Z</time>
      </trkpt>
      <trkpt lat="38.952695" lon="-8.98731667">
        <ele>4.0</ele>
        <time>2019-05-16T12:49:05.906Z</time>
      </trkpt>
      <trkpt lat="38.95273667" lon="-8.98732667">
        <ele>3.0</ele>
        <time>2019-05-16T12:49:06.918Z</time>
      </trkpt>
      <trkpt lat="38.95273667" lon="-8.98732667">
        <ele>3.0</ele>
        <time>2019-05-16T12:49:07.897Z</time>
      </trkpt>
      <trkpt lat="38.95277667" lon="-8.98734333">
        <ele>3.0</ele>
        <time>2019-05-16T12:49:08.907Z</time>
      </trkpt>
      <trkpt lat="38.95277667" lon="-8.98734333">
        <ele>3.0</ele>
        <time>2019-05-16T12:49:09.898Z</time>
      </trkpt>
      <trkpt lat="38.95282333" lon="-8.98737333">
        <ele>3.0</ele>
        <time>2019-05-16T12:49:10.906Z</time>
      </trkpt>
      <trkpt lat="38.95282333" lon="-8.98737333">
        <ele>3.0</ele>
        <time>2019-05-16T12:49:11.922Z</time>
      </trkpt>
      <trkpt lat="38.952875" lon="-8.98738333">
        <ele>4.0</ele>
        <time>2019-05-16T12:49:12.899Z</time>
      </trkpt>
      <trkpt lat="38.952875" lon="-8.98738333">
        <ele>4.0</ele>
        <time>2019-05-16T12:49:13.914Z</time>
      </trkpt>
      <trkpt lat="38.95292833" lon="-8.98738333">
        <ele>4.0</ele>
        <time>2019-05-16T12:49:14.922Z</time>
      </trkpt>
      <trkpt lat="38.95292833" lon="-8.98738333">
        <ele>4.0</ele>
        <time>2019-05-16T12:49:15.905Z</time>
      </trkpt>
      <trkpt lat="38.95298" lon="-8.9874">
        <ele>4.0</ele>
        <time>2019-05-16T12:49:16.897Z</time>
      </trkpt>
      <trkpt lat="38.95298" lon="-8.9874">
        <ele>4.0</ele>
        <time>2019-05-16T12:49:17.900Z</time>
      </trkpt>
      <trkpt lat="38.95303333" lon="-8.98738833">
        <ele>4.0</ele>
        <time>2019-05-16T12:49:18.911Z</time>
      </trkpt>
      <trkpt lat="38.95303333" lon="-8.98738833">
        <ele>4.0</ele>
        <time>2019-05-16T12:49:19.910Z</time>
      </trkpt>
      <trkpt lat="38.95308667" lon="-8.98736667">
        <ele>5.0</ele>
        <time>2019-05-16T12:49:20.907Z</time>
      </trkpt>
      <trkpt lat="38.95308667" lon="-8.98736667">
        <ele>5.0</ele>
        <time>2019-05-16T12:49:21.917Z</time>
      </trkpt>
      <trkpt lat="38.95314167" lon="-8.98734">
        <ele>6.0</ele>
        <time>2019-05-16T12:49:22.929Z</time>
      </trkpt>
      <trkpt lat="38.95314167" lon="-8.98734">
        <ele>6.0</ele>
        <time>2019-05-16T12:49:23.917Z</time>
      </trkpt>
      <trkpt lat="38.953195" lon="-8.9873">
        <ele>7.0</ele>
        <time>2019-05-16T12:49:24.928Z</time>
      </trkpt>
      <trkpt lat="38.953195" lon="-8.9873">
        <ele>7.0</ele>
        <time>2019-05-16T12:49:25.899Z</time>
      </trkpt>
      <trkpt lat="38.95325" lon="-8.98725667">
        <ele>7.0</ele>
        <time>2019-05-16T12:49:26.911Z</time>
      </trkpt>
      <trkpt lat="38.95325" lon="-8.98725667">
        <ele>7.0</ele>
        <time>2019-05-16T12:49:27.908Z</time>
      </trkpt>
      <trkpt lat="38.95330667" lon="-8.98722333">
        <ele>8.0</ele>
        <time>2019-05-16T12:49:28.902Z</time>
      </trkpt>
      <trkpt lat="38.95330667" lon="-8.98722333">
        <ele>8.0</ele>
        <time>2019-05-16T12:49:29.899Z</time>
      </trkpt>
      <trkpt lat="38.953365" lon="-8.98718333">
        <ele>9.0</ele>
        <time>2019-05-16T12:49:30.908Z</time>
      </trkpt>
      <trkpt lat="38.953365" lon="-8.98718333">
        <ele>9.0</ele>
        <time>2019-05-16T12:49:31.899Z</time>
      </trkpt>
      <trkpt lat="38.953425" lon="-8.987155">
        <ele>10.0</ele>
        <time>2019-05-16T12:49:32.930Z</time>
      </trkpt>
      <trkpt lat="38.953425" lon="-8.987155">
        <ele>10.0</ele>
        <time>2019-05-16T12:49:33.936Z</time>
      </trkpt>
      <trkpt lat="38.95348" lon="-8.98713167">
        <ele>12.0</ele>
        <time>2019-05-16T12:49:34.909Z</time>
      </trkpt>
      <trkpt lat="38.95348" lon="-8.98713167">
        <ele>12.0</ele>
        <time>2019-05-16T12:49:35.924Z</time>
      </trkpt>
      <trkpt lat="38.953535" lon="-8.98710667">
        <ele>12.0</ele>
        <time>2019-05-16T12:49:36.935Z</time>
      </trkpt>
      <trkpt lat="38.953535" lon="-8.98710667">
        <ele>12.0</ele>
        <time>2019-05-16T12:49:37.897Z</time>
      </trkpt>
      <trkpt lat="38.95358667" lon="-8.987075">
        <ele>12.0</ele>
        <time>2019-05-16T12:49:38.914Z</time>
      </trkpt>
      <trkpt lat="38.95358667" lon="-8.987075">
        <ele>12.0</ele>
        <time>2019-05-16T12:49:39.901Z</time>
      </trkpt>
      <trkpt lat="38.95363667" lon="-8.98704167">
        <ele>12.0</ele>
        <time>2019-05-16T12:49:40.914Z</time>
      </trkpt>
      <trkpt lat="38.95363667" lon="-8.98704167">
        <ele>12.0</ele>
        <time>2019-05-16T12:49:41.925Z</time>
      </trkpt>
      <trkpt lat="38.95368833" lon="-8.98700667">
        <ele>12.0</ele>
        <time>2019-05-16T12:49:42.933Z</time>
      </trkpt>
      <trkpt lat="38.95368833" lon="-8.98700667">
        <ele>12.0</ele>
        <time>2019-05-16T12:49:43.905Z</time>
      </trkpt>
      <trkpt lat="38.95373" lon="-8.98695833">
        <ele>13.0</ele>
        <time>2019-05-16T12:49:44.912Z</time>
      </trkpt>
      <trkpt lat="38.95373" lon="-8.98695833">
        <ele>13.0</ele>
        <time>2019-05-16T12:49:45.899Z</time>
      </trkpt>
      <trkpt lat="38.95376667" lon="-8.98691833">
        <ele>13.0</ele>
        <time>2019-05-16T12:49:46.912Z</time>
      </trkpt>
      <trkpt lat="38.95376667" lon="-8.98691833">
        <ele>13.0</ele>
        <time>2019-05-16T12:49:47.930Z</time>
      </trkpt>
      <trkpt lat="38.95381667" lon="-8.98688333">
        <ele>13.0</ele>
        <time>2019-05-16T12:49:48.906Z</time>
      </trkpt>
      <trkpt lat="38.95381667" lon="-8.98688333">
        <ele>13.0</ele>
        <time>2019-05-16T12:49:49.921Z</time>
      </trkpt>
      <trkpt lat="38.95386833" lon="-8.98685667">
        <ele>14.0</ele>
        <time>2019-05-16T12:49:50.932Z</time>
      </trkpt>
      <trkpt lat="38.95386833" lon="-8.98685667">
        <ele>14.0</ele>
        <time>2019-05-16T12:49:51.897Z</time>
      </trkpt>
      <trkpt lat="38.95392667" lon="-8.98683">
        <ele>14.0</ele>
        <time>2019-05-16T12:49:52.921Z</time>
      </trkpt>
      <trkpt lat="38.95392667" lon="-8.98683">
        <ele>14.0</ele>
        <time>2019-05-16T12:49:53.901Z</time>
      </trkpt>
      <trkpt lat="38.95398333" lon="-8.9868">
        <ele>14.0</ele>
        <time>2019-05-16T12:49:54.911Z</time>
      </trkpt>
      <trkpt lat="38.95398333" lon="-8.9868">
        <ele>14.0</ele>
        <time>2019-05-16T12:49:55.914Z</time>
      </trkpt>
      <trkpt lat="38.95404167" lon="-8.98676333">
        <ele>14.0</ele>
        <time>2019-05-16T12:49:56.924Z</time>
      </trkpt>
      <trkpt lat="38.95404167" lon="-8.98676333">
        <ele>14.0</ele>
        <time>2019-05-16T12:49:57.911Z</time>
      </trkpt>
      <trkpt lat="38.95409667" lon="-8.98672167">
        <ele>14.0</ele>
        <time>2019-05-16T12:49:58.910Z</time>
      </trkpt>
      <trkpt lat="38.95409667" lon="-8.98672167">
        <ele>14.0</ele>
        <time>2019-05-16T12:49:59.908Z</time>
      </trkpt>
      <trkpt lat="38.954145" lon="-8.98668333">
        <ele>14.0</ele>
        <time>2019-05-16T12:50:00.920Z</time>
      </trkpt>
      <trkpt lat="38.954145" lon="-8.98668333">
        <ele>14.0</ele>
        <time>2019-05-16T12:50:01.909Z</time>
      </trkpt>
      <trkpt lat="38.95418833" lon="-8.98665">
        <ele>14.0</ele>
        <time>2019-05-16T12:50:02.920Z</time>
      </trkpt>
      <trkpt lat="38.95418833" lon="-8.98665">
        <ele>14.0</ele>
        <time>2019-05-16T12:50:03.902Z</time>
      </trkpt>
      <trkpt lat="38.95423667" lon="-8.98662167">
        <ele>14.0</ele>
        <time>2019-05-16T12:50:04.920Z</time>
      </trkpt>
      <trkpt lat="38.95423667" lon="-8.98662167">
        <ele>14.0</ele>
        <time>2019-05-16T12:50:05.921Z</time>
      </trkpt>
      <trkpt lat="38.95428" lon="-8.98659667">
        <ele>14.0</ele>
        <time>2019-05-16T12:50:06.930Z</time>
      </trkpt>
      <trkpt lat="38.95428" lon="-8.98659667">
        <ele>14.0</ele>
        <time>2019-05-16T12:50:07.913Z</time>
      </trkpt>
      <trkpt lat="38.95431833" lon="-8.98657">
        <ele>13.0</ele>
        <time>2019-05-16T12:50:08.907Z</time>
      </trkpt>
      <trkpt lat="38.95431833" lon="-8.98657">
        <ele>13.0</ele>
        <time>2019-05-16T12:50:09.931Z</time>
      </trkpt>
      <trkpt lat="38.95437167" lon="-8.98653667">
        <ele>13.0</ele>
        <time>2019-05-16T12:50:10.902Z</time>
      </trkpt>
      <trkpt lat="38.95440167" lon="-8.98651667">
        <ele>13.0</ele>
        <time>2019-05-16T12:50:11.918Z</time>
      </trkpt>
      <trkpt lat="38.95442833" lon="-8.98649167">
        <ele>13.0</ele>
        <time>2019-05-16T12:50:12.941Z</time>
      </trkpt>
      <trkpt lat="38.95442833" lon="-8.98649167">
        <ele>13.0</ele>
        <time>2019-05-16T12:50:13.923Z</time>
      </trkpt>
      <trkpt lat="38.95448333" lon="-8.98644167">
        <ele>13.0</ele>
        <time>2019-05-16T12:50:14.938Z</time>
      </trkpt>
      <trkpt lat="38.95448333" lon="-8.98644167">
        <ele>13.0</ele>
        <time>2019-05-16T12:50:15.910Z</time>
      </trkpt>
      <trkpt lat="38.954545" lon="-8.986395">
        <ele>12.0</ele>
        <time>2019-05-16T12:50:16.961Z</time>
      </trkpt>
      <trkpt lat="38.954545" lon="-8.986395">
        <ele>12.0</ele>
        <time>2019-05-16T12:50:17.902Z</time>
      </trkpt>
      <trkpt lat="38.95460333" lon="-8.98636">
        <ele>12.0</ele>
        <time>2019-05-16T12:50:18.909Z</time>
      </trkpt>
      <trkpt lat="38.95460333" lon="-8.98636">
        <ele>12.0</ele>
        <time>2019-05-16T12:50:19.914Z</time>
      </trkpt>
      <trkpt lat="38.95466167" lon="-8.986325">
        <ele>12.0</ele>
        <time>2019-05-16T12:50:20.917Z</time>
      </trkpt>
      <trkpt lat="38.95466167" lon="-8.986325">
        <ele>12.0</ele>
        <time>2019-05-16T12:50:21.905Z</time>
      </trkpt>
      <trkpt lat="38.95472667" lon="-8.98628">
        <ele>11.0</ele>
        <time>2019-05-16T12:50:22.915Z</time>
      </trkpt>
      <trkpt lat="38.95472667" lon="-8.98628">
        <ele>11.0</ele>
        <time>2019-05-16T12:50:23.910Z</time>
      </trkpt>
      <trkpt lat="38.95479333" lon="-8.98625">
        <ele>10.0</ele>
        <time>2019-05-16T12:50:24.918Z</time>
      </trkpt>
      <trkpt lat="38.95479333" lon="-8.98625">
        <ele>10.0</ele>
        <time>2019-05-16T12:50:25.918Z</time>
      </trkpt>
      <trkpt lat="38.95485667" lon="-8.98621">
        <ele>10.0</ele>
        <time>2019-05-16T12:50:26.933Z</time>
      </trkpt>
      <trkpt lat="38.95485667" lon="-8.98621">
        <ele>10.0</ele>
        <time>2019-05-16T12:50:27.911Z</time>
      </trkpt>
      <trkpt lat="38.95492" lon="-8.98616833">
        <ele>10.0</ele>
        <time>2019-05-16T12:50:28.899Z</time>
      </trkpt>
      <trkpt lat="38.95494667" lon="-8.98614667">
        <ele>10.0</ele>
        <time>2019-05-16T12:50:29.920Z</time>
      </trkpt>
      <trkpt lat="38.95497833" lon="-8.986125">
        <ele>9.0</ele>
        <time>2019-05-16T12:50:30.920Z</time>
      </trkpt>
      <trkpt lat="38.95497833" lon="-8.986125">
        <ele>9.0</ele>
        <time>2019-05-16T12:50:31.904Z</time>
      </trkpt>
      <trkpt lat="38.95504" lon="-8.98608167">
        <ele>9.0</ele>
        <time>2019-05-16T12:50:32.911Z</time>
      </trkpt>
      <trkpt lat="38.95504" lon="-8.98608167">
        <ele>9.0</ele>
        <time>2019-05-16T12:50:33.911Z</time>
      </trkpt>
      <trkpt lat="38.95508667" lon="-8.98604167">
        <ele>8.0</ele>
        <time>2019-05-16T12:50:34.935Z</time>
      </trkpt>
      <trkpt lat="38.95508667" lon="-8.98604167">
        <ele>8.0</ele>
        <time>2019-05-16T12:50:35.933Z</time>
      </trkpt>
      <trkpt lat="38.95515667" lon="-8.98599167">
        <ele>8.0</ele>
        <time>2019-05-16T12:50:36.910Z</time>
      </trkpt>
      <trkpt lat="38.95515667" lon="-8.98599167">
        <ele>8.0</ele>
        <time>2019-05-16T12:50:37.899Z</time>
      </trkpt>
      <trkpt lat="38.95523" lon="-8.98594333">
        <ele>7.0</ele>
        <time>2019-05-16T12:50:38.909Z</time>
      </trkpt>
      <trkpt lat="38.95523" lon="-8.98594333">
        <ele>7.0</ele>
        <time>2019-05-16T12:50:39.926Z</time>
      </trkpt>
      <trkpt lat="38.95529167" lon="-8.9859">
        <ele>6.0</ele>
        <time>2019-05-16T12:50:40.904Z</time>
      </trkpt>
      <trkpt lat="38.95529167" lon="-8.9859">
        <ele>6.0</ele>
        <time>2019-05-16T12:50:41.919Z</time>
      </trkpt>
      <trkpt lat="38.95534667" lon="-8.98586333">
        <ele>6.0</ele>
        <time>2019-05-16T12:50:42.928Z</time>
      </trkpt>
      <trkpt lat="38.95534667" lon="-8.98586333">
        <ele>6.0</ele>
        <time>2019-05-16T12:50:43.931Z</time>
      </trkpt>
      <trkpt lat="38.955395" lon="-8.985825">
        <ele>5.0</ele>
        <time>2019-05-16T12:50:44.901Z</time>
      </trkpt>
      <trkpt lat="38.955395" lon="-8.985825">
        <ele>5.0</ele>
        <time>2019-05-16T12:50:45.926Z</time>
      </trkpt>
      <trkpt lat="38.95545833" lon="-8.985775">
        <ele>4.0</ele>
        <time>2019-05-16T12:50:46.902Z</time>
      </trkpt>
      <trkpt lat="38.95545833" lon="-8.985775">
        <ele>4.0</ele>
        <time>2019-05-16T12:50:47.928Z</time>
      </trkpt>
      <trkpt lat="38.95552167" lon="-8.98572667">
        <ele>3.0</ele>
        <time>2019-05-16T12:50:48.905Z</time>
      </trkpt>
      <trkpt lat="38.95552167" lon="-8.98572667">
        <ele>3.0</ele>
        <time>2019-05-16T12:50:49.901Z</time>
      </trkpt>
      <trkpt lat="38.95559" lon="-8.985675">
        <ele>3.0</ele>
        <time>2019-05-16T12:50:50.919Z</time>
      </trkpt>
      <trkpt lat="38.95559" lon="-8.985675">
        <ele>3.0</ele>
        <time>2019-05-16T12:50:51.917Z</time>
      </trkpt>
      <trkpt lat="38.95567" lon="-8.98562167">
        <ele>2.0</ele>
        <time>2019-05-16T12:50:52.932Z</time>
      </trkpt>
      <trkpt lat="38.95567" lon="-8.98562167">
        <ele>2.0</ele>
        <time>2019-05-16T12:50:53.934Z</time>
      </trkpt>
      <trkpt lat="38.95574333" lon="-8.98557167">
        <ele>2.0</ele>
        <time>2019-05-16T12:50:54.910Z</time>
      </trkpt>
      <trkpt lat="38.95574333" lon="-8.98557167">
        <ele>2.0</ele>
        <time>2019-05-16T12:50:55.923Z</time>
      </trkpt>
      <trkpt lat="38.95581667" lon="-8.98552167">
        <ele>1.0</ele>
        <time>2019-05-16T12:50:56.931Z</time>
      </trkpt>
      <trkpt lat="38.95581667" lon="-8.98552167">
        <ele>1.0</ele>
        <time>2019-05-16T12:50:57.913Z</time>
      </trkpt>
      <trkpt lat="38.95589167" lon="-8.98547333">
        <ele>1.0</ele>
        <time>2019-05-16T12:50:58.903Z</time>
      </trkpt>
      <trkpt lat="38.95593" lon="-8.98544833">
        <ele>1.0</ele>
        <time>2019-05-16T12:50:59.905Z</time>
      </trkpt>
      <trkpt lat="38.95593" lon="-8.98544833">
        <ele>1.0</ele>
        <time>2019-05-16T12:51:00.914Z</time>
      </trkpt>
      <trkpt lat="38.95600833" lon="-8.98539167">
        <ele>0.0</ele>
        <time>2019-05-16T12:51:01.923Z</time>
      </trkpt>
      <trkpt lat="38.95604833" lon="-8.98536333">
        <ele>0.0</ele>
        <time>2019-05-16T12:51:02.927Z</time>
      </trkpt>
      <trkpt lat="38.95604833" lon="-8.98536333">
        <ele>0.0</ele>
        <time>2019-05-16T12:51:03.911Z</time>
      </trkpt>
      <trkpt lat="38.95612833" lon="-8.985305">
        <ele>0.0</ele>
        <time>2019-05-16T12:51:04.897Z</time>
      </trkpt>
      <trkpt lat="38.95612833" lon="-8.985305">
        <ele>0.0</ele>
        <time>2019-05-16T12:51:05.929Z</time>
      </trkpt>
      <trkpt lat="38.95620333" lon="-8.98525167">
        <ele>0.0</ele>
        <time>2019-05-16T12:51:06.904Z</time>
      </trkpt>
      <trkpt lat="38.95620333" lon="-8.98525167">
        <ele>0.0</ele>
        <time>2019-05-16T12:51:07.904Z</time>
      </trkpt>
      <trkpt lat="38.95628" lon="-8.985205">
        <ele>0.0</ele>
        <time>2019-05-16T12:51:08.921Z</time>
      </trkpt>
      <trkpt lat="38.956315" lon="-8.98518">
        <ele>0.0</ele>
        <time>2019-05-16T12:51:09.928Z</time>
      </trkpt>
      <trkpt lat="38.956315" lon="-8.98518">
        <ele>0.0</ele>
        <time>2019-05-16T12:51:10.909Z</time>
      </trkpt>
      <trkpt lat="38.95638333" lon="-8.98512667">
        <ele>0.0</ele>
        <time>2019-05-16T12:51:11.918Z</time>
      </trkpt>
      <trkpt lat="38.95641333" lon="-8.98510167">
        <ele>0.0</ele>
        <time>2019-05-16T12:51:12.906Z</time>
      </trkpt>
      <trkpt lat="38.95641333" lon="-8.98510167">
        <ele>0.0</ele>
        <time>2019-05-16T12:51:13.921Z</time>
      </trkpt>
      <trkpt lat="38.95641333" lon="-8.98510167">
        <ele>0.0</ele>
        <time>2019-05-16T12:51:14.930Z</time>
      </trkpt>
      <trkpt lat="38.956485" lon="-8.98503">
        <ele>0.0</ele>
        <time>2019-05-16T12:51:15.923Z</time>
      </trkpt>
      <trkpt lat="38.956485" lon="-8.98503">
        <ele>0.0</ele>
        <time>2019-05-16T12:51:16.897Z</time>
      </trkpt>
      <trkpt lat="38.95649833" lon="-8.98497">
        <ele>0.0</ele>
        <time>2019-05-16T12:51:17.905Z</time>
      </trkpt>
      <trkpt lat="38.95649167" lon="-8.98494">
        <ele>0.0</ele>
        <time>2019-05-16T12:51:18.902Z</time>
      </trkpt>
      <trkpt lat="38.95649167" lon="-8.98494">
        <ele>0.0</ele>
        <time>2019-05-16T12:51:19.908Z</time>
      </trkpt>
      <trkpt lat="38.956465" lon="-8.984875">
        <ele>0.0</ele>
        <time>2019-05-16T12:51:20.931Z</time>
      </trkpt>
      <trkpt lat="38.956465" lon="-8.984875">
        <ele>0.0</ele>
        <time>2019-05-16T12:51:21.907Z</time>
      </trkpt>
      <trkpt lat="38.95643833" lon="-8.984815">
        <ele>0.0</ele>
        <time>2019-05-16T12:51:22.931Z</time>
      </trkpt>
      <trkpt lat="38.95643833" lon="-8.984815">
        <ele>0.0</ele>
        <time>2019-05-16T12:51:23.925Z</time>
      </trkpt>
      <trkpt lat="38.95643667" lon="-8.98474">
        <ele>1.0</ele>
        <time>2019-05-16T12:51:24.933Z</time>
      </trkpt>
      <trkpt lat="38.95643667" lon="-8.98474">
        <ele>1.0</ele>
        <time>2019-05-16T12:51:25.901Z</time>
      </trkpt>
      <trkpt lat="38.956465" lon="-8.98467333">
        <ele>1.0</ele>
        <time>2019-05-16T12:51:26.910Z</time>
      </trkpt>
      <trkpt lat="38.956465" lon="-8.98467333">
        <ele>1.0</ele>
        <time>2019-05-16T12:51:27.899Z</time>
      </trkpt>
      <trkpt lat="38.95648333" lon="-8.98460667">
        <ele>2.0</ele>
        <time>2019-05-16T12:51:28.907Z</time>
      </trkpt>
      <trkpt lat="38.95648333" lon="-8.98460667">
        <ele>2.0</ele>
        <time>2019-05-16T12:51:29.915Z</time>
      </trkpt>
      <trkpt lat="38.95649" lon="-8.98453333">
        <ele>3.0</ele>
        <time>2019-05-16T12:51:30.922Z</time>
      </trkpt>
      <trkpt lat="38.95649" lon="-8.98453333">
        <ele>3.0</ele>
        <time>2019-05-16T12:51:31.902Z</time>
      </trkpt>
      <trkpt lat="38.956495" lon="-8.98447">
        <ele>4.0</ele>
        <time>2019-05-16T12:51:32.912Z</time>
      </trkpt>
      <trkpt lat="38.95649333" lon="-8.98444167">
        <ele>4.0</ele>
        <time>2019-05-16T12:51:33.902Z</time>
      </trkpt>
      <trkpt lat="38.95649333" lon="-8.98444167">
        <ele>4.0</ele>
        <time>2019-05-16T12:51:34.912Z</time>
      </trkpt>
      <trkpt lat="38.95647833" lon="-8.98439167">
        <ele>4.0</ele>
        <time>2019-05-16T12:51:35.909Z</time>
      </trkpt>
      <trkpt lat="38.95647833" lon="-8.98439167">
        <ele>4.0</ele>
        <time>2019-05-16T12:51:36.898Z</time>
      </trkpt>
      <trkpt lat="38.95646333" lon="-8.98434167">
        <ele>5.0</ele>
        <time>2019-05-16T12:51:37.906Z</time>
      </trkpt>
      <trkpt lat="38.95646333" lon="-8.98434167">
        <ele>5.0</ele>
        <time>2019-05-16T12:51:38.905Z</time>
      </trkpt>
      <trkpt lat="38.95645333" lon="-8.98428833">
        <ele>5.0</ele>
        <time>2019-05-16T12:51:39.923Z</time>
      </trkpt>
      <trkpt lat="38.95645333" lon="-8.98428833">
        <ele>5.0</ele>
        <time>2019-05-16T12:51:40.931Z</time>
      </trkpt>
      <trkpt lat="38.95644333" lon="-8.98423833">
        <ele>6.0</ele>
        <time>2019-05-16T12:51:41.901Z</time>
      </trkpt>
      <trkpt lat="38.95643667" lon="-8.98421333">
        <ele>6.0</ele>
        <time>2019-05-16T12:51:42.916Z</time>
      </trkpt>
      <trkpt lat="38.95643667" lon="-8.98421333">
        <ele>6.0</ele>
        <time>2019-05-16T12:51:43.929Z</time>
      </trkpt>
      <trkpt lat="38.95642167" lon="-8.984175">
        <ele>6.0</ele>
        <time>2019-05-16T12:51:44.911Z</time>
      </trkpt>
      <trkpt lat="38.95642167" lon="-8.984175">
        <ele>6.0</ele>
        <time>2019-05-16T12:51:45.905Z</time>
      </trkpt>
      <trkpt lat="38.956405" lon="-8.98414">
        <ele>7.0</ele>
        <time>2019-05-16T12:51:46.907Z</time>
      </trkpt>
      <trkpt lat="38.956405" lon="-8.98414">
        <ele>7.0</ele>
        <time>2019-05-16T12:51:47.912Z</time>
      </trkpt>
      <trkpt lat="38.95638333" lon="-8.984105">
        <ele>7.0</ele>
        <time>2019-05-16T12:51:48.921Z</time>
      </trkpt>
      <trkpt lat="38.95638333" lon="-8.984105">
        <ele>7.0</ele>
        <time>2019-05-16T12:51:49.903Z</time>
      </trkpt>
      <trkpt lat="38.95637" lon="-8.98407167">
        <ele>7.0</ele>
        <time>2019-05-16T12:51:50.906Z</time>
      </trkpt>
      <trkpt lat="38.95637" lon="-8.98407167">
        <ele>7.0</ele>
        <time>2019-05-16T12:51:51.900Z</time>
      </trkpt>
      <trkpt lat="38.95638667" lon="-8.98406667">
        <ele>7.0</ele>
        <time>2019-05-16T12:51:52.917Z</time>
      </trkpt>
      <trkpt lat="38.95638667" lon="-8.98406667">
        <ele>7.0</ele>
        <time>2019-05-16T12:51:53.899Z</time>
      </trkpt>
      <trkpt lat="38.95639667" lon="-8.98410167">
        <ele>8.0</ele>
        <time>2019-05-16T12:51:54.932Z</time>
      </trkpt>
      <trkpt lat="38.95639667" lon="-8.98410167">
        <ele>8.0</ele>
        <time>2019-05-16T12:51:55.902Z</time>
      </trkpt>
      <trkpt lat="38.95641" lon="-8.98414833">
        <ele>8.0</ele>
        <time>2019-05-16T12:51:56.913Z</time>
      </trkpt>
      <trkpt lat="38.95641" lon="-8.98414833">
        <ele>8.0</ele>
        <time>2019-05-16T12:51:57.918Z</time>
      </trkpt>
      <trkpt lat="38.95642333" lon="-8.98420167">
        <ele>9.0</ele>
        <time>2019-05-16T12:51:58.903Z</time>
      </trkpt>
      <trkpt lat="38.95643167" lon="-8.98423">
        <ele>9.0</ele>
        <time>2019-05-16T12:51:59.923Z</time>
      </trkpt>
      <trkpt lat="38.95644167" lon="-8.98426">
        <ele>9.0</ele>
        <time>2019-05-16T12:52:00.925Z</time>
      </trkpt>
      <trkpt lat="38.95644167" lon="-8.98426">
        <ele>9.0</ele>
        <time>2019-05-16T12:52:01.897Z</time>
      </trkpt>
      <trkpt lat="38.956455" lon="-8.98432833">
        <ele>10.0</ele>
        <time>2019-05-16T12:52:02.913Z</time>
      </trkpt>
      <trkpt lat="38.956455" lon="-8.98432833">
        <ele>10.0</ele>
        <time>2019-05-16T12:52:03.897Z</time>
      </trkpt>
      <trkpt lat="38.956455" lon="-8.98432833">
        <ele>10.0</ele>
        <time>2019-05-16T12:52:04.900Z</time>
      </trkpt>
      <trkpt lat="38.95647" lon="-8.98440667">
        <ele>10.0</ele>
        <time>2019-05-16T12:52:05.916Z</time>
      </trkpt>
      <trkpt lat="38.95648833" lon="-8.98448167">
        <ele>10.0</ele>
        <time>2019-05-16T12:52:06.898Z</time>
      </trkpt>
      <trkpt lat="38.95648833" lon="-8.98448167">
        <ele>10.0</ele>
        <time>2019-05-16T12:52:07.921Z</time>
      </trkpt>
      <trkpt lat="38.95650333" lon="-8.98455833">
        <ele>11.0</ele>
        <time>2019-05-16T12:52:08.905Z</time>
      </trkpt>
      <trkpt lat="38.95650333" lon="-8.98455833">
        <ele>11.0</ele>
        <time>2019-05-16T12:52:09.931Z</time>
      </trkpt>
      <trkpt lat="38.95653167" lon="-8.984605">
        <ele>11.0</ele>
        <time>2019-05-16T12:52:10.957Z</time>
      </trkpt>
      <trkpt lat="38.95653167" lon="-8.984605">
        <ele>11.0</ele>
        <time>2019-05-16T12:52:11.935Z</time>
      </trkpt>
      <trkpt lat="38.95658" lon="-8.98460167">
        <ele>11.0</ele>
        <time>2019-05-16T12:52:12.907Z</time>
      </trkpt>
      <trkpt lat="38.95658" lon="-8.98460167">
        <ele>11.0</ele>
        <time>2019-05-16T12:52:13.900Z</time>
      </trkpt>
      <trkpt lat="38.95663" lon="-8.98456667">
        <ele>11.0</ele>
        <time>2019-05-16T12:52:14.931Z</time>
      </trkpt>
      <trkpt lat="38.95663" lon="-8.98456667">
        <ele>11.0</ele>
        <time>2019-05-16T12:52:15.908Z</time>
      </trkpt>
      <trkpt lat="38.95668" lon="-8.98451833">
        <ele>12.0</ele>
        <time>2019-05-16T12:52:16.920Z</time>
      </trkpt>
      <trkpt lat="38.95668" lon="-8.98451833">
        <ele>12.0</ele>
        <time>2019-05-16T12:52:17.904Z</time>
      </trkpt>
      <trkpt lat="38.956735" lon="-8.98446167">
        <ele>12.0</ele>
        <time>2019-05-16T12:52:18.910Z</time>
      </trkpt>
      <trkpt lat="38.956735" lon="-8.98446167">
        <ele>12.0</ele>
        <time>2019-05-16T12:52:19.905Z</time>
      </trkpt>
      <trkpt lat="38.95679167" lon="-8.9844">
        <ele>12.0</ele>
        <time>2019-05-16T12:52:20.928Z</time>
      </trkpt>
      <trkpt lat="38.95679167" lon="-8.9844">
        <ele>12.0</ele>
        <time>2019-05-16T12:52:21.911Z</time>
      </trkpt>
      <trkpt lat="38.956855" lon="-8.98434">
        <ele>12.0</ele>
        <time>2019-05-16T12:52:22.936Z</time>
      </trkpt>
      <trkpt lat="38.956855" lon="-8.98434">
        <ele>12.0</ele>
        <time>2019-05-16T12:52:23.905Z</time>
      </trkpt>
      <trkpt lat="38.95692" lon="-8.98427833">
        <ele>12.0</ele>
        <time>2019-05-16T12:52:24.940Z</time>
      </trkpt>
      <trkpt lat="38.95692" lon="-8.98427833">
        <ele>12.0</ele>
        <time>2019-05-16T12:52:25.897Z</time>
      </trkpt>
      <trkpt lat="38.95698333" lon="-8.98421">
        <ele>12.0</ele>
        <time>2019-05-16T12:52:26.905Z</time>
      </trkpt>
      <trkpt lat="38.95698333" lon="-8.98421">
        <ele>12.0</ele>
        <time>2019-05-16T12:52:27.912Z</time>
      </trkpt>
      <trkpt lat="38.95704167" lon="-8.98413833">
        <ele>12.0</ele>
        <time>2019-05-16T12:52:28.920Z</time>
      </trkpt>
      <trkpt lat="38.95704167" lon="-8.98413833">
        <ele>12.0</ele>
        <time>2019-05-16T12:52:29.897Z</time>
      </trkpt>
      <trkpt lat="38.9571" lon="-8.98406667">
        <ele>12.0</ele>
        <time>2019-05-16T12:52:30.905Z</time>
      </trkpt>
      <trkpt lat="38.9571" lon="-8.98406667">
        <ele>12.0</ele>
        <time>2019-05-16T12:52:31.897Z</time>
      </trkpt>
      <trkpt lat="38.95715833" lon="-8.98400167">
        <ele>12.0</ele>
        <time>2019-05-16T12:52:32.910Z</time>
      </trkpt>
      <trkpt lat="38.95715833" lon="-8.98400167">
        <ele>12.0</ele>
        <time>2019-05-16T12:52:33.913Z</time>
      </trkpt>
      <trkpt lat="38.95721833" lon="-8.98393667">
        <ele>12.0</ele>
        <time>2019-05-16T12:52:34.897Z</time>
      </trkpt>
      <trkpt lat="38.95721833" lon="-8.98393667">
        <ele>12.0</ele>
        <time>2019-05-16T12:52:35.901Z</time>
      </trkpt>
      <trkpt lat="38.95728333" lon="-8.98386167">
        <ele>12.0</ele>
        <time>2019-05-16T12:52:36.909Z</time>
      </trkpt>
      <trkpt lat="38.95731667" lon="-8.98382167">
        <ele>12.0</ele>
        <time>2019-05-16T12:52:37.913Z</time>
      </trkpt>
      <trkpt lat="38.95731667" lon="-8.98382167">
        <ele>12.0</ele>
        <time>2019-05-16T12:52:38.900Z</time>
      </trkpt>
      <trkpt lat="38.95738167" lon="-8.98374333">
        <ele>12.0</ele>
        <time>2019-05-16T12:52:39.919Z</time>
      </trkpt>
      <trkpt lat="38.95741333" lon="-8.98370333">
        <ele>12.0</ele>
        <time>2019-05-16T12:52:40.901Z</time>
      </trkpt>
      <trkpt lat="38.95741333" lon="-8.98370333">
        <ele>12.0</ele>
        <time>2019-05-16T12:52:41.927Z</time>
      </trkpt>
      <trkpt lat="38.957475" lon="-8.98362167">
        <ele>12.0</ele>
        <time>2019-05-16T12:52:42.907Z</time>
      </trkpt>
      <trkpt lat="38.957475" lon="-8.98362167">
        <ele>12.0</ele>
        <time>2019-05-16T12:52:43.899Z</time>
      </trkpt>
      <trkpt lat="38.95754167" lon="-8.98354833">
        <ele>12.0</ele>
        <time>2019-05-16T12:52:44.910Z</time>
      </trkpt>
      <trkpt lat="38.95754167" lon="-8.98354833">
        <ele>12.0</ele>
        <time>2019-05-16T12:52:45.911Z</time>
      </trkpt>
      <trkpt lat="38.957605" lon="-8.983475">
        <ele>12.0</ele>
        <time>2019-05-16T12:52:46.930Z</time>
      </trkpt>
      <trkpt lat="38.957605" lon="-8.983475">
        <ele>12.0</ele>
        <time>2019-05-16T12:52:47.926Z</time>
      </trkpt>
      <trkpt lat="38.95766833" lon="-8.983405">
        <ele>13.0</ele>
        <time>2019-05-16T12:52:48.905Z</time>
      </trkpt>
      <trkpt lat="38.95766833" lon="-8.983405">
        <ele>13.0</ele>
        <time>2019-05-16T12:52:49.905Z</time>
      </trkpt>
      <trkpt lat="38.95773167" lon="-8.983335">
        <ele>13.0</ele>
        <time>2019-05-16T12:52:50.919Z</time>
      </trkpt>
      <trkpt lat="38.95773167" lon="-8.983335">
        <ele>13.0</ele>
        <time>2019-05-16T12:52:51.913Z</time>
      </trkpt>
      <trkpt lat="38.95779167" lon="-8.98327">
        <ele>13.0</ele>
        <time>2019-05-16T12:52:52.951Z</time>
      </trkpt>
      <trkpt lat="38.95779167" lon="-8.98327">
        <ele>13.0</ele>
        <time>2019-05-16T12:52:53.897Z</time>
      </trkpt>
      <trkpt lat="38.95785167" lon="-8.98321">
        <ele>13.0</ele>
        <time>2019-05-16T12:52:54.905Z</time>
      </trkpt>
      <trkpt lat="38.95785167" lon="-8.98321">
        <ele>13.0</ele>
        <time>2019-05-16T12:52:55.931Z</time>
      </trkpt>
      <trkpt lat="38.957905" lon="-8.98314333">
        <ele>13.0</ele>
        <time>2019-05-16T12:52:56.904Z</time>
      </trkpt>
      <trkpt lat="38.957905" lon="-8.98314333">
        <ele>13.0</ele>
        <time>2019-05-16T12:52:57.900Z</time>
      </trkpt>
      <trkpt lat="38.95796" lon="-8.983085">
        <ele>12.0</ele>
        <time>2019-05-16T12:52:58.907Z</time>
      </trkpt>
      <trkpt lat="38.95796" lon="-8.983085">
        <ele>12.0</ele>
        <time>2019-05-16T12:52:59.900Z</time>
      </trkpt>
      <trkpt lat="38.95801667" lon="-8.98302833">
        <ele>12.0</ele>
        <time>2019-05-16T12:53:00.907Z</time>
      </trkpt>
      <trkpt lat="38.95801667" lon="-8.98302833">
        <ele>12.0</ele>
        <time>2019-05-16T12:53:01.911Z</time>
      </trkpt>
      <trkpt lat="38.958075" lon="-8.98297">
        <ele>13.0</ele>
        <time>2019-05-16T12:53:02.921Z</time>
      </trkpt>
      <trkpt lat="38.958075" lon="-8.98297">
        <ele>13.0</ele>
        <time>2019-05-16T12:53:03.916Z</time>
      </trkpt>
      <trkpt lat="38.95813333" lon="-8.982915">
        <ele>12.0</ele>
        <time>2019-05-16T12:53:04.902Z</time>
      </trkpt>
      <trkpt lat="38.95813333" lon="-8.982915">
        <ele>12.0</ele>
        <time>2019-05-16T12:53:05.897Z</time>
      </trkpt>
      <trkpt lat="38.95819" lon="-8.98285833">
        <ele>12.0</ele>
        <time>2019-05-16T12:53:06.912Z</time>
      </trkpt>
      <trkpt lat="38.95819" lon="-8.98285833">
        <ele>12.0</ele>
        <time>2019-05-16T12:53:07.919Z</time>
      </trkpt>
      <trkpt lat="38.95824833" lon="-8.982805">
        <ele>12.0</ele>
        <time>2019-05-16T12:53:08.907Z</time>
      </trkpt>
      <trkpt lat="38.958275" lon="-8.98277833">
        <ele>12.0</ele>
        <time>2019-05-16T12:53:09.900Z</time>
      </trkpt>
      <trkpt lat="38.958275" lon="-8.98277833">
        <ele>12.0</ele>
        <time>2019-05-16T12:53:10.930Z</time>
      </trkpt>
      <trkpt lat="38.958335" lon="-8.98273">
        <ele>12.0</ele>
        <time>2019-05-16T12:53:11.903Z</time>
      </trkpt>
      <trkpt lat="38.95836667" lon="-8.98270833">
        <ele>12.0</ele>
        <time>2019-05-16T12:53:12.904Z</time>
      </trkpt>
      <trkpt lat="38.95836667" lon="-8.98270833">
        <ele>12.0</ele>
        <time>2019-05-16T12:53:13.921Z</time>
      </trkpt>
      <trkpt lat="38.95842" lon="-8.98265667">
        <ele>12.0</ele>
        <time>2019-05-16T12:53:14.930Z</time>
      </trkpt>
      <trkpt lat="38.95842" lon="-8.98265667">
        <ele>12.0</ele>
        <time>2019-05-16T12:53:15.905Z</time>
      </trkpt>
      <trkpt lat="38.958475" lon="-8.9826">
        <ele>11.0</ele>
        <time>2019-05-16T12:53:16.912Z</time>
      </trkpt>
      <trkpt lat="38.958475" lon="-8.9826">
        <ele>11.0</ele>
        <time>2019-05-16T12:53:17.933Z</time>
      </trkpt>
      <trkpt lat="38.95853333" lon="-8.98254333">
        <ele>11.0</ele>
        <time>2019-05-16T12:53:18.910Z</time>
      </trkpt>
      <trkpt lat="38.95853333" lon="-8.98254333">
        <ele>11.0</ele>
        <time>2019-05-16T12:53:19.921Z</time>
      </trkpt>
      <trkpt lat="38.95859167" lon="-8.98248833">
        <ele>11.0</ele>
        <time>2019-05-16T12:53:20.927Z</time>
      </trkpt>
      <trkpt lat="38.95862167" lon="-8.98246167">
        <ele>11.0</ele>
        <time>2019-05-16T12:53:21.918Z</time>
      </trkpt>
      <trkpt lat="38.95862167" lon="-8.98246167">
        <ele>11.0</ele>
        <time>2019-05-16T12:53:22.911Z</time>
      </trkpt>
      <trkpt lat="38.95867833" lon="-8.98240667">
        <ele>11.0</ele>
        <time>2019-05-16T12:53:23.922Z</time>
      </trkpt>
      <trkpt lat="38.95870667" lon="-8.98238">
        <ele>11.0</ele>
        <time>2019-05-16T12:53:24.933Z</time>
      </trkpt>
      <trkpt lat="38.95870667" lon="-8.98238">
        <ele>11.0</ele>
        <time>2019-05-16T12:53:25.897Z</time>
      </trkpt>
      <trkpt lat="38.958765" lon="-8.98232167">
        <ele>11.0</ele>
        <time>2019-05-16T12:53:26.912Z</time>
      </trkpt>
      <trkpt lat="38.958765" lon="-8.98232167">
        <ele>11.0</ele>
        <time>2019-05-16T12:53:27.901Z</time>
      </trkpt>
      <trkpt lat="38.95882333" lon="-8.982265">
        <ele>11.0</ele>
        <time>2019-05-16T12:53:28.908Z</time>
      </trkpt>
      <trkpt lat="38.95882333" lon="-8.982265">
        <ele>11.0</ele>
        <time>2019-05-16T12:53:29.923Z</time>
      </trkpt>
      <trkpt lat="38.95887833" lon="-8.98221">
        <ele>11.0</ele>
        <time>2019-05-16T12:53:30.933Z</time>
      </trkpt>
      <trkpt lat="38.95887833" lon="-8.98221">
        <ele>11.0</ele>
        <time>2019-05-16T12:53:31.911Z</time>
      </trkpt>
      <trkpt lat="38.95893" lon="-8.98215833">
        <ele>11.0</ele>
        <time>2019-05-16T12:53:32.919Z</time>
      </trkpt>
      <trkpt lat="38.95893" lon="-8.98215833">
        <ele>11.0</ele>
        <time>2019-05-16T12:53:33.931Z</time>
      </trkpt>
      <trkpt lat="38.95897667" lon="-8.98210333">
        <ele>11.0</ele>
        <time>2019-05-16T12:53:34.904Z</time>
      </trkpt>
      <trkpt lat="38.95897667" lon="-8.98210333">
        <ele>11.0</ele>
        <time>2019-05-16T12:53:35.898Z</time>
      </trkpt>
      <trkpt lat="38.95897667" lon="-8.98210333">
        <ele>11.0</ele>
        <time>2019-05-16T12:53:36.912Z</time>
      </trkpt>
      <trkpt lat="38.95902667" lon="-8.98205">
        <ele>11.0</ele>
        <time>2019-05-16T12:53:37.921Z</time>
      </trkpt>
      <trkpt lat="38.95907667" lon="-8.98200667">
        <ele>11.0</ele>
        <time>2019-05-16T12:53:38.903Z</time>
      </trkpt>
      <trkpt lat="38.95907667" lon="-8.98200667">
        <ele>11.0</ele>
        <time>2019-05-16T12:53:39.897Z</time>
      </trkpt>
      <trkpt lat="38.959125" lon="-8.98196167">
        <ele>11.0</ele>
        <time>2019-05-16T12:53:40.906Z</time>
      </trkpt>
      <trkpt lat="38.959125" lon="-8.98196167">
        <ele>11.0</ele>
        <time>2019-05-16T12:53:41.909Z</time>
      </trkpt>
      <trkpt lat="38.95917667" lon="-8.98190833">
        <ele>11.0</ele>
        <time>2019-05-16T12:53:42.899Z</time>
      </trkpt>
      <trkpt lat="38.95917667" lon="-8.98190833">
        <ele>11.0</ele>
        <time>2019-05-16T12:53:43.897Z</time>
      </trkpt>
      <trkpt lat="38.959225" lon="-8.981845">
        <ele>11.0</ele>
        <time>2019-05-16T12:53:44.915Z</time>
      </trkpt>
      <trkpt lat="38.959225" lon="-8.981845">
        <ele>11.0</ele>
        <time>2019-05-16T12:53:45.926Z</time>
      </trkpt>
      <trkpt lat="38.95927833" lon="-8.981795">
        <ele>10.0</ele>
        <time>2019-05-16T12:53:46.903Z</time>
      </trkpt>
      <trkpt lat="38.95927833" lon="-8.981795">
        <ele>10.0</ele>
        <time>2019-05-16T12:53:47.921Z</time>
      </trkpt>
      <trkpt lat="38.95933333" lon="-8.98175167">
        <ele>11.0</ele>
        <time>2019-05-16T12:53:48.935Z</time>
      </trkpt>
      <trkpt lat="38.95933333" lon="-8.98175167">
        <ele>11.0</ele>
        <time>2019-05-16T12:53:49.904Z</time>
      </trkpt>
      <trkpt lat="38.95939167" lon="-8.98170667">
        <ele>11.0</ele>
        <time>2019-05-16T12:53:50.916Z</time>
      </trkpt>
      <trkpt lat="38.95939167" lon="-8.98170667">
        <ele>11.0</ele>
        <time>2019-05-16T12:53:51.920Z</time>
      </trkpt>
      <trkpt lat="38.95944667" lon="-8.98165">
        <ele>11.0</ele>
        <time>2019-05-16T12:53:52.933Z</time>
      </trkpt>
      <trkpt lat="38.95944667" lon="-8.98165">
        <ele>11.0</ele>
        <time>2019-05-16T12:53:53.921Z</time>
      </trkpt>
      <trkpt lat="38.959505" lon="-8.98159333">
        <ele>12.0</ele>
        <time>2019-05-16T12:53:54.930Z</time>
      </trkpt>
      <trkpt lat="38.959505" lon="-8.98159333">
        <ele>12.0</ele>
        <time>2019-05-16T12:53:55.919Z</time>
      </trkpt>
      <trkpt lat="38.95956167" lon="-8.98153667">
        <ele>12.0</ele>
        <time>2019-05-16T12:53:56.930Z</time>
      </trkpt>
      <trkpt lat="38.95956167" lon="-8.98153667">
        <ele>12.0</ele>
        <time>2019-05-16T12:53:57.911Z</time>
      </trkpt>
      <trkpt lat="38.95962" lon="-8.98147667">
        <ele>12.0</ele>
        <time>2019-05-16T12:53:58.904Z</time>
      </trkpt>
      <trkpt lat="38.95962" lon="-8.98147667">
        <ele>12.0</ele>
        <time>2019-05-16T12:53:59.897Z</time>
      </trkpt>
      <trkpt lat="38.959675" lon="-8.981415">
        <ele>12.0</ele>
        <time>2019-05-16T12:54:00.909Z</time>
      </trkpt>
      <trkpt lat="38.959675" lon="-8.981415">
        <ele>12.0</ele>
        <time>2019-05-16T12:54:01.915Z</time>
      </trkpt>
      <trkpt lat="38.95973" lon="-8.981355">
        <ele>12.0</ele>
        <time>2019-05-16T12:54:02.910Z</time>
      </trkpt>
      <trkpt lat="38.95973" lon="-8.981355">
        <ele>12.0</ele>
        <time>2019-05-16T12:54:03.923Z</time>
      </trkpt>
      <trkpt lat="38.959785" lon="-8.981295">
        <ele>12.0</ele>
        <time>2019-05-16T12:54:04.898Z</time>
      </trkpt>
      <trkpt lat="38.959785" lon="-8.981295">
        <ele>12.0</ele>
        <time>2019-05-16T12:54:05.928Z</time>
      </trkpt>
      <trkpt lat="38.95984" lon="-8.981235">
        <ele>12.0</ele>
        <time>2019-05-16T12:54:06.903Z</time>
      </trkpt>
      <trkpt lat="38.95984" lon="-8.981235">
        <ele>12.0</ele>
        <time>2019-05-16T12:54:07.897Z</time>
      </trkpt>
      <trkpt lat="38.959895" lon="-8.981175">
        <ele>12.0</ele>
        <time>2019-05-16T12:54:08.908Z</time>
      </trkpt>
      <trkpt lat="38.959895" lon="-8.981175">
        <ele>12.0</ele>
        <time>2019-05-16T12:54:09.919Z</time>
      </trkpt>
      <trkpt lat="38.95995" lon="-8.98111667">
        <ele>12.0</ele>
        <time>2019-05-16T12:54:10.927Z</time>
      </trkpt>
      <trkpt lat="38.95995" lon="-8.98111667">
        <ele>12.0</ele>
        <time>2019-05-16T12:54:11.921Z</time>
      </trkpt>
      <trkpt lat="38.960005" lon="-8.98105833">
        <ele>12.0</ele>
        <time>2019-05-16T12:54:12.933Z</time>
      </trkpt>
      <trkpt lat="38.960005" lon="-8.98105833">
        <ele>12.0</ele>
        <time>2019-05-16T12:54:13.936Z</time>
      </trkpt>
      <trkpt lat="38.96005667" lon="-8.98099833">
        <ele>12.0</ele>
        <time>2019-05-16T12:54:14.911Z</time>
      </trkpt>
      <trkpt lat="38.96005667" lon="-8.98099833">
        <ele>12.0</ele>
        <time>2019-05-16T12:54:15.899Z</time>
      </trkpt>
      <trkpt lat="38.96011167" lon="-8.98094167">
        <ele>12.0</ele>
        <time>2019-05-16T12:54:16.914Z</time>
      </trkpt>
      <trkpt lat="38.96011167" lon="-8.98094167">
        <ele>12.0</ele>
        <time>2019-05-16T12:54:17.924Z</time>
      </trkpt>
      <trkpt lat="38.96016167" lon="-8.98087667">
        <ele>12.0</ele>
        <time>2019-05-16T12:54:18.932Z</time>
      </trkpt>
      <trkpt lat="38.96016167" lon="-8.98087667">
        <ele>12.0</ele>
        <time>2019-05-16T12:54:19.917Z</time>
      </trkpt>
      <trkpt lat="38.96021167" lon="-8.98081">
        <ele>12.0</ele>
        <time>2019-05-16T12:54:20.900Z</time>
      </trkpt>
      <trkpt lat="38.96023833" lon="-8.98077833">
        <ele>12.0</ele>
        <time>2019-05-16T12:54:21.901Z</time>
      </trkpt>
      <trkpt lat="38.96023833" lon="-8.98077833">
        <ele>12.0</ele>
        <time>2019-05-16T12:54:22.910Z</time>
      </trkpt>
      <trkpt lat="38.96029167" lon="-8.980715">
        <ele>12.0</ele>
        <time>2019-05-16T12:54:23.918Z</time>
      </trkpt>
      <trkpt lat="38.960315" lon="-8.98068">
        <ele>12.0</ele>
        <time>2019-05-16T12:54:24.936Z</time>
      </trkpt>
      <trkpt lat="38.960315" lon="-8.98068">
        <ele>12.0</ele>
        <time>2019-05-16T12:54:25.907Z</time>
      </trkpt>
      <trkpt lat="38.960365" lon="-8.98061167">
        <ele>12.0</ele>
        <time>2019-05-16T12:54:26.920Z</time>
      </trkpt>
      <trkpt lat="38.960365" lon="-8.98061167">
        <ele>12.0</ele>
        <time>2019-05-16T12:54:27.917Z</time>
      </trkpt>
      <trkpt lat="38.96042" lon="-8.98055">
        <ele>12.0</ele>
        <time>2019-05-16T12:54:28.904Z</time>
      </trkpt>
      <trkpt lat="38.96042" lon="-8.98055">
        <ele>12.0</ele>
        <time>2019-05-16T12:54:29.899Z</time>
      </trkpt>
      <trkpt lat="38.96047" lon="-8.980485">
        <ele>11.0</ele>
        <time>2019-05-16T12:54:30.917Z</time>
      </trkpt>
      <trkpt lat="38.96047" lon="-8.980485">
        <ele>11.0</ele>
        <time>2019-05-16T12:54:31.910Z</time>
      </trkpt>
      <trkpt lat="38.96052" lon="-8.98041667">
        <ele>11.0</ele>
        <time>2019-05-16T12:54:32.925Z</time>
      </trkpt>
      <trkpt lat="38.96052" lon="-8.98041667">
        <ele>11.0</ele>
        <time>2019-05-16T12:54:33.926Z</time>
      </trkpt>
      <trkpt lat="38.96056833" lon="-8.98034833">
        <ele>12.0</ele>
        <time>2019-05-16T12:54:34.901Z</time>
      </trkpt>
      <trkpt lat="38.96056833" lon="-8.98034833">
        <ele>12.0</ele>
        <time>2019-05-16T12:54:35.901Z</time>
      </trkpt>
      <trkpt lat="38.96062333" lon="-8.98028333">
        <ele>11.0</ele>
        <time>2019-05-16T12:54:36.910Z</time>
      </trkpt>
      <trkpt lat="38.96062333" lon="-8.98028333">
        <ele>11.0</ele>
        <time>2019-05-16T12:54:37.906Z</time>
      </trkpt>
      <trkpt lat="38.96067167" lon="-8.980215">
        <ele>11.0</ele>
        <time>2019-05-16T12:54:38.918Z</time>
      </trkpt>
      <trkpt lat="38.96067167" lon="-8.980215">
        <ele>11.0</ele>
        <time>2019-05-16T12:54:39.925Z</time>
      </trkpt>
      <trkpt lat="38.96072333" lon="-8.98015">
        <ele>11.0</ele>
        <time>2019-05-16T12:54:40.905Z</time>
      </trkpt>
      <trkpt lat="38.96072333" lon="-8.98015">
        <ele>11.0</ele>
        <time>2019-05-16T12:54:41.911Z</time>
      </trkpt>
      <trkpt lat="38.96077167" lon="-8.98008">
        <ele>11.0</ele>
        <time>2019-05-16T12:54:42.923Z</time>
      </trkpt>
      <trkpt lat="38.96077167" lon="-8.98008">
        <ele>11.0</ele>
        <time>2019-05-16T12:54:43.926Z</time>
      </trkpt>
      <trkpt lat="38.960825" lon="-8.98001333">
        <ele>11.0</ele>
        <time>2019-05-16T12:54:44.900Z</time>
      </trkpt>
      <trkpt lat="38.96085" lon="-8.97998">
        <ele>11.0</ele>
        <time>2019-05-16T12:54:45.933Z</time>
      </trkpt>
      <trkpt lat="38.96085" lon="-8.97998">
        <ele>11.0</ele>
        <time>2019-05-16T12:54:46.929Z</time>
      </trkpt>
      <trkpt lat="38.96089667" lon="-8.97991">
        <ele>11.0</ele>
        <time>2019-05-16T12:54:47.936Z</time>
      </trkpt>
      <trkpt lat="38.96092167" lon="-8.97988">
        <ele>11.0</ele>
        <time>2019-05-16T12:54:48.930Z</time>
      </trkpt>
      <trkpt lat="38.96092167" lon="-8.97988">
        <ele>11.0</ele>
        <time>2019-05-16T12:54:49.929Z</time>
      </trkpt>
      <trkpt lat="38.96097333" lon="-8.97981833">
        <ele>11.0</ele>
        <time>2019-05-16T12:54:50.909Z</time>
      </trkpt>
      <trkpt lat="38.96097333" lon="-8.97981833">
        <ele>11.0</ele>
        <time>2019-05-16T12:54:51.935Z</time>
      </trkpt>
      <trkpt lat="38.961015" lon="-8.97974833">
        <ele>11.0</ele>
        <time>2019-05-16T12:54:52.902Z</time>
      </trkpt>
      <trkpt lat="38.961015" lon="-8.97974833">
        <ele>11.0</ele>
        <time>2019-05-16T12:54:53.901Z</time>
      </trkpt>
      <trkpt lat="38.96106167" lon="-8.97967833">
        <ele>11.0</ele>
        <time>2019-05-16T12:54:54.919Z</time>
      </trkpt>
      <trkpt lat="38.96106167" lon="-8.97967833">
        <ele>11.0</ele>
        <time>2019-05-16T12:54:55.927Z</time>
      </trkpt>
      <trkpt lat="38.96111" lon="-8.97960667">
        <ele>11.0</ele>
        <time>2019-05-16T12:54:56.907Z</time>
      </trkpt>
      <trkpt lat="38.96111" lon="-8.97960667">
        <ele>11.0</ele>
        <time>2019-05-16T12:54:57.920Z</time>
      </trkpt>
      <trkpt lat="38.96116167" lon="-8.97953667">
        <ele>11.0</ele>
        <time>2019-05-16T12:54:58.906Z</time>
      </trkpt>
      <trkpt lat="38.96116167" lon="-8.97953667">
        <ele>11.0</ele>
        <time>2019-05-16T12:54:59.908Z</time>
      </trkpt>
      <trkpt lat="38.96121167" lon="-8.979465">
        <ele>11.0</ele>
        <time>2019-05-16T12:55:00.945Z</time>
      </trkpt>
      <trkpt lat="38.96121167" lon="-8.979465">
        <ele>11.0</ele>
        <time>2019-05-16T12:55:01.912Z</time>
      </trkpt>
      <trkpt lat="38.961265" lon="-8.97939167">
        <ele>11.0</ele>
        <time>2019-05-16T12:55:02.924Z</time>
      </trkpt>
      <trkpt lat="38.961265" lon="-8.97939167">
        <ele>11.0</ele>
        <time>2019-05-16T12:55:03.905Z</time>
      </trkpt>
      <trkpt lat="38.96131667" lon="-8.97931667">
        <ele>11.0</ele>
        <time>2019-05-16T12:55:04.920Z</time>
      </trkpt>
      <trkpt lat="38.96131667" lon="-8.97931667">
        <ele>11.0</ele>
        <time>2019-05-16T12:55:05.901Z</time>
      </trkpt>
      <trkpt lat="38.96137" lon="-8.97924167">
        <ele>11.0</ele>
        <time>2019-05-16T12:55:06.910Z</time>
      </trkpt>
      <trkpt lat="38.96137" lon="-8.97924167">
        <ele>11.0</ele>
        <time>2019-05-16T12:55:07.918Z</time>
      </trkpt>
      <trkpt lat="38.96142167" lon="-8.97917">
        <ele>11.0</ele>
        <time>2019-05-16T12:55:08.928Z</time>
      </trkpt>
      <trkpt lat="38.96142167" lon="-8.97917">
        <ele>11.0</ele>
        <time>2019-05-16T12:55:09.927Z</time>
      </trkpt>
      <trkpt lat="38.961475" lon="-8.9791">
        <ele>11.0</ele>
        <time>2019-05-16T12:55:10.910Z</time>
      </trkpt>
      <trkpt lat="38.961475" lon="-8.9791">
        <ele>11.0</ele>
        <time>2019-05-16T12:55:11.923Z</time>
      </trkpt>
      <trkpt lat="38.96152833" lon="-8.97902833">
        <ele>11.0</ele>
        <time>2019-05-16T12:55:12.935Z</time>
      </trkpt>
      <trkpt lat="38.96152833" lon="-8.97902833">
        <ele>11.0</ele>
        <time>2019-05-16T12:55:13.897Z</time>
      </trkpt>
      <trkpt lat="38.96158" lon="-8.97895667">
        <ele>11.0</ele>
        <time>2019-05-16T12:55:14.916Z</time>
      </trkpt>
      <trkpt lat="38.96158" lon="-8.97895667">
        <ele>11.0</ele>
        <time>2019-05-16T12:55:15.899Z</time>
      </trkpt>
      <trkpt lat="38.96162833" lon="-8.97888333">
        <ele>11.0</ele>
        <time>2019-05-16T12:55:16.908Z</time>
      </trkpt>
      <trkpt lat="38.96165333" lon="-8.97884833">
        <ele>10.0</ele>
        <time>2019-05-16T12:55:17.897Z</time>
      </trkpt>
      <trkpt lat="38.96168" lon="-8.97881167">
        <ele>10.0</ele>
        <time>2019-05-16T12:55:18.942Z</time>
      </trkpt>
      <trkpt lat="38.96168" lon="-8.97881167">
        <ele>10.0</ele>
        <time>2019-05-16T12:55:19.910Z</time>
      </trkpt>
      <trkpt lat="38.96173" lon="-8.97873667">
        <ele>10.0</ele>
        <time>2019-05-16T12:55:20.935Z</time>
      </trkpt>
      <trkpt lat="38.96173" lon="-8.97873667">
        <ele>10.0</ele>
        <time>2019-05-16T12:55:21.903Z</time>
      </trkpt>
      <trkpt lat="38.96178" lon="-8.97866667">
        <ele>10.0</ele>
        <time>2019-05-16T12:55:22.914Z</time>
      </trkpt>
      <trkpt lat="38.96178" lon="-8.97866667">
        <ele>10.0</ele>
        <time>2019-05-16T12:55:23.899Z</time>
      </trkpt>
      <trkpt lat="38.961835" lon="-8.97859833">
        <ele>10.0</ele>
        <time>2019-05-16T12:55:24.906Z</time>
      </trkpt>
      <trkpt lat="38.961835" lon="-8.97859833">
        <ele>10.0</ele>
        <time>2019-05-16T12:55:25.926Z</time>
      </trkpt>
      <trkpt lat="38.96188667" lon="-8.97852167">
        <ele>11.0</ele>
        <time>2019-05-16T12:55:26.907Z</time>
      </trkpt>
      <trkpt lat="38.96188667" lon="-8.97852167">
        <ele>11.0</ele>
        <time>2019-05-16T12:55:27.906Z</time>
      </trkpt>
      <trkpt lat="38.961945" lon="-8.97845333">
        <ele>11.0</ele>
        <time>2019-05-16T12:55:28.930Z</time>
      </trkpt>
      <trkpt lat="38.961945" lon="-8.97845333">
        <ele>11.0</ele>
        <time>2019-05-16T12:55:29.934Z</time>
      </trkpt>
      <trkpt lat="38.962005" lon="-8.97838333">
        <ele>10.0</ele>
        <time>2019-05-16T12:55:30.910Z</time>
      </trkpt>
      <trkpt lat="38.962005" lon="-8.97838333">
        <ele>10.0</ele>
        <time>2019-05-16T12:55:31.912Z</time>
      </trkpt>
      <trkpt lat="38.96206667" lon="-8.97832">
        <ele>10.0</ele>
        <time>2019-05-16T12:55:32.923Z</time>
      </trkpt>
      <trkpt lat="38.96206667" lon="-8.97832">
        <ele>10.0</ele>
        <time>2019-05-16T12:55:33.927Z</time>
      </trkpt>
      <trkpt lat="38.96212833" lon="-8.97826167">
        <ele>10.0</ele>
        <time>2019-05-16T12:55:34.902Z</time>
      </trkpt>
      <trkpt lat="38.96212833" lon="-8.97826167">
        <ele>10.0</ele>
        <time>2019-05-16T12:55:35.918Z</time>
      </trkpt>
      <trkpt lat="38.96219333" lon="-8.97820667">
        <ele>10.0</ele>
        <time>2019-05-16T12:55:36.931Z</time>
      </trkpt>
      <trkpt lat="38.96219333" lon="-8.97820667">
        <ele>10.0</ele>
        <time>2019-05-16T12:55:37.938Z</time>
      </trkpt>
      <trkpt lat="38.96225667" lon="-8.97814667">
        <ele>10.0</ele>
        <time>2019-05-16T12:55:38.905Z</time>
      </trkpt>
      <trkpt lat="38.96225667" lon="-8.97814667">
        <ele>10.0</ele>
        <time>2019-05-16T12:55:39.901Z</time>
      </trkpt>
      <trkpt lat="38.96232333" lon="-8.97809">
        <ele>10.0</ele>
        <time>2019-05-16T12:55:40.911Z</time>
      </trkpt>
      <trkpt lat="38.96235667" lon="-8.97806833">
        <ele>10.0</ele>
        <time>2019-05-16T12:55:41.910Z</time>
      </trkpt>
      <trkpt lat="38.96235667" lon="-8.97806833">
        <ele>10.0</ele>
        <time>2019-05-16T12:55:42.908Z</time>
      </trkpt>
      <trkpt lat="38.962425" lon="-8.97802167">
        <ele>10.0</ele>
        <time>2019-05-16T12:55:43.930Z</time>
      </trkpt>
      <trkpt lat="38.962425" lon="-8.97802167">
        <ele>10.0</ele>
        <time>2019-05-16T12:55:44.928Z</time>
      </trkpt>
      <trkpt lat="38.96249" lon="-8.977985">
        <ele>10.0</ele>
        <time>2019-05-16T12:55:45.909Z</time>
      </trkpt>
      <trkpt lat="38.96249" lon="-8.977985">
        <ele>10.0</ele>
        <time>2019-05-16T12:55:46.934Z</time>
      </trkpt>
      <trkpt lat="38.96255333" lon="-8.97795167">
        <ele>10.0</ele>
        <time>2019-05-16T12:55:47.902Z</time>
      </trkpt>
      <trkpt lat="38.96255333" lon="-8.97795167">
        <ele>10.0</ele>
        <time>2019-05-16T12:55:48.910Z</time>
      </trkpt>
      <trkpt lat="38.96261" lon="-8.97792333">
        <ele>10.0</ele>
        <time>2019-05-16T12:55:49.918Z</time>
      </trkpt>
      <trkpt lat="38.96261" lon="-8.97792333">
        <ele>10.0</ele>
        <time>2019-05-16T12:55:50.899Z</time>
      </trkpt>
      <trkpt lat="38.96266333" lon="-8.97789833">
        <ele>10.0</ele>
        <time>2019-05-16T12:55:51.909Z</time>
      </trkpt>
      <trkpt lat="38.96266333" lon="-8.97789833">
        <ele>10.0</ele>
        <time>2019-05-16T12:55:52.916Z</time>
      </trkpt>
      <trkpt lat="38.96272167" lon="-8.97787">
        <ele>9.0</ele>
        <time>2019-05-16T12:55:53.928Z</time>
      </trkpt>
      <trkpt lat="38.962755" lon="-8.97786">
        <ele>9.0</ele>
        <time>2019-05-16T12:55:54.934Z</time>
      </trkpt>
      <trkpt lat="38.962755" lon="-8.97786">
        <ele>9.0</ele>
        <time>2019-05-16T12:55:55.907Z</time>
      </trkpt>
      <trkpt lat="38.96282167" lon="-8.97784167">
        <ele>9.0</ele>
        <time>2019-05-16T12:55:56.915Z</time>
      </trkpt>
      <trkpt lat="38.962855" lon="-8.97783167">
        <ele>9.0</ele>
        <time>2019-05-16T12:55:57.930Z</time>
      </trkpt>
      <trkpt lat="38.962855" lon="-8.97783167">
        <ele>9.0</ele>
        <time>2019-05-16T12:55:58.932Z</time>
      </trkpt>
      <trkpt lat="38.96291833" lon="-8.97781333">
        <ele>9.0</ele>
        <time>2019-05-16T12:55:59.918Z</time>
      </trkpt>
      <trkpt lat="38.96295167" lon="-8.97780667">
        <ele>8.0</ele>
        <time>2019-05-16T12:56:00.900Z</time>
      </trkpt>
      <trkpt lat="38.96298667" lon="-8.97780333">
        <ele>8.0</ele>
        <time>2019-05-16T12:56:01.912Z</time>
      </trkpt>
      <trkpt lat="38.96298667" lon="-8.97780333">
        <ele>8.0</ele>
        <time>2019-05-16T12:56:02.899Z</time>
      </trkpt>
      <trkpt lat="38.963055" lon="-8.97780167">
        <ele>8.0</ele>
        <time>2019-05-16T12:56:03.908Z</time>
      </trkpt>
      <trkpt lat="38.963055" lon="-8.97780167">
        <ele>8.0</ele>
        <time>2019-05-16T12:56:04.901Z</time>
      </trkpt>
      <trkpt lat="38.96312667" lon="-8.97779333">
        <ele>8.0</ele>
        <time>2019-05-16T12:56:05.909Z</time>
      </trkpt>
      <trkpt lat="38.96316167" lon="-8.97779">
        <ele>8.0</ele>
        <time>2019-05-16T12:56:06.910Z</time>
      </trkpt>
      <trkpt lat="38.96316167" lon="-8.97779">
        <ele>8.0</ele>
        <time>2019-05-16T12:56:07.921Z</time>
      </trkpt>
      <trkpt lat="38.96323" lon="-8.97778333">
        <ele>8.0</ele>
        <time>2019-05-16T12:56:08.906Z</time>
      </trkpt>
      <trkpt lat="38.96323" lon="-8.97778333">
        <ele>8.0</ele>
        <time>2019-05-16T12:56:09.907Z</time>
      </trkpt>
      <trkpt lat="38.96330333" lon="-8.97778167">
        <ele>7.0</ele>
        <time>2019-05-16T12:56:10.901Z</time>
      </trkpt>
      <trkpt lat="38.96330333" lon="-8.97778167">
        <ele>7.0</ele>
        <time>2019-05-16T12:56:11.905Z</time>
      </trkpt>
      <trkpt lat="38.96337833" lon="-8.977785">
        <ele>7.0</ele>
        <time>2019-05-16T12:56:12.919Z</time>
      </trkpt>
      <trkpt lat="38.96337833" lon="-8.977785">
        <ele>7.0</ele>
        <time>2019-05-16T12:56:13.910Z</time>
      </trkpt>
      <trkpt lat="38.96345167" lon="-8.97778833">
        <ele>7.0</ele>
        <time>2019-05-16T12:56:14.926Z</time>
      </trkpt>
      <trkpt lat="38.96345167" lon="-8.97778833">
        <ele>7.0</ele>
        <time>2019-05-16T12:56:15.920Z</time>
      </trkpt>
      <trkpt lat="38.96351833" lon="-8.97779833">
        <ele>7.0</ele>
        <time>2019-05-16T12:56:16.931Z</time>
      </trkpt>
      <trkpt lat="38.96351833" lon="-8.97779833">
        <ele>7.0</ele>
        <time>2019-05-16T12:56:17.899Z</time>
      </trkpt>
      <trkpt lat="38.96358" lon="-8.97780833">
        <ele>7.0</ele>
        <time>2019-05-16T12:56:18.941Z</time>
      </trkpt>
      <trkpt lat="38.96358" lon="-8.97780833">
        <ele>7.0</ele>
        <time>2019-05-16T12:56:19.934Z</time>
      </trkpt>
      <trkpt lat="38.96363667" lon="-8.97782">
        <ele>7.0</ele>
        <time>2019-05-16T12:56:20.925Z</time>
      </trkpt>
      <trkpt lat="38.96363667" lon="-8.97782">
        <ele>7.0</ele>
        <time>2019-05-16T12:56:21.909Z</time>
      </trkpt>
      <trkpt lat="38.96369333" lon="-8.97783333">
        <ele>6.0</ele>
        <time>2019-05-16T12:56:22.921Z</time>
      </trkpt>
      <trkpt lat="38.96369333" lon="-8.97783333">
        <ele>6.0</ele>
        <time>2019-05-16T12:56:23.898Z</time>
      </trkpt>
      <trkpt lat="38.96374667" lon="-8.97784167">
        <ele>6.0</ele>
        <time>2019-05-16T12:56:24.909Z</time>
      </trkpt>
      <trkpt lat="38.96374667" lon="-8.97784167">
        <ele>6.0</ele>
        <time>2019-05-16T12:56:25.912Z</time>
      </trkpt>
      <trkpt lat="38.96379667" lon="-8.97784833">
        <ele>6.0</ele>
        <time>2019-05-16T12:56:26.919Z</time>
      </trkpt>
      <trkpt lat="38.96379667" lon="-8.97784833">
        <ele>6.0</ele>
        <time>2019-05-16T12:56:27.912Z</time>
      </trkpt>
      <trkpt lat="38.963845" lon="-8.97785333">
        <ele>6.0</ele>
        <time>2019-05-16T12:56:28.901Z</time>
      </trkpt>
      <trkpt lat="38.963845" lon="-8.97785333">
        <ele>6.0</ele>
        <time>2019-05-16T12:56:29.911Z</time>
      </trkpt>
      <trkpt lat="38.96389167" lon="-8.977865">
        <ele>6.0</ele>
        <time>2019-05-16T12:56:30.925Z</time>
      </trkpt>
      <trkpt lat="38.96389167" lon="-8.977865">
        <ele>6.0</ele>
        <time>2019-05-16T12:56:31.931Z</time>
      </trkpt>
      <trkpt lat="38.96393833" lon="-8.97788">
        <ele>6.0</ele>
        <time>2019-05-16T12:56:32.917Z</time>
      </trkpt>
      <trkpt lat="38.96396333" lon="-8.97788667">
        <ele>6.0</ele>
        <time>2019-05-16T12:56:33.933Z</time>
      </trkpt>
      <trkpt lat="38.96396333" lon="-8.97788667">
        <ele>6.0</ele>
        <time>2019-05-16T12:56:34.927Z</time>
      </trkpt>
      <trkpt lat="38.96401333" lon="-8.97789667">
        <ele>6.0</ele>
        <time>2019-05-16T12:56:35.902Z</time>
      </trkpt>
      <trkpt lat="38.96403833" lon="-8.97790167">
        <ele>6.0</ele>
        <time>2019-05-16T12:56:36.904Z</time>
      </trkpt>
      <trkpt lat="38.96403833" lon="-8.97790167">
        <ele>6.0</ele>
        <time>2019-05-16T12:56:37.901Z</time>
      </trkpt>
      <trkpt lat="38.96408833" lon="-8.97791333">
        <ele>6.0</ele>
        <time>2019-05-16T12:56:38.908Z</time>
      </trkpt>
      <trkpt lat="38.96408833" lon="-8.97791333">
        <ele>6.0</ele>
        <time>2019-05-16T12:56:39.910Z</time>
      </trkpt>
      <trkpt lat="38.96413833" lon="-8.977925">
        <ele>6.0</ele>
        <time>2019-05-16T12:56:40.918Z</time>
      </trkpt>
      <trkpt lat="38.96413833" lon="-8.977925">
        <ele>6.0</ele>
        <time>2019-05-16T12:56:41.927Z</time>
      </trkpt>
      <trkpt lat="38.96418833" lon="-8.97793833">
        <ele>5.0</ele>
        <time>2019-05-16T12:56:42.901Z</time>
      </trkpt>
      <trkpt lat="38.96418833" lon="-8.97793833">
        <ele>5.0</ele>
        <time>2019-05-16T12:56:43.899Z</time>
      </trkpt>
      <trkpt lat="38.96424333" lon="-8.97794167">
        <ele>5.0</ele>
        <time>2019-05-16T12:56:44.910Z</time>
      </trkpt>
      <trkpt lat="38.96424333" lon="-8.97794167">
        <ele>5.0</ele>
        <time>2019-05-16T12:56:45.899Z</time>
      </trkpt>
      <trkpt lat="38.96429667" lon="-8.97795">
        <ele>5.0</ele>
        <time>2019-05-16T12:56:46.915Z</time>
      </trkpt>
      <trkpt lat="38.96429667" lon="-8.97795">
        <ele>5.0</ele>
        <time>2019-05-16T12:56:47.903Z</time>
      </trkpt>
      <trkpt lat="38.96435333" lon="-8.97795833">
        <ele>5.0</ele>
        <time>2019-05-16T12:56:48.926Z</time>
      </trkpt>
      <trkpt lat="38.96435333" lon="-8.97795833">
        <ele>5.0</ele>
        <time>2019-05-16T12:56:49.925Z</time>
      </trkpt>
      <trkpt lat="38.96440833" lon="-8.97796667">
        <ele>5.0</ele>
        <time>2019-05-16T12:56:50.902Z</time>
      </trkpt>
      <trkpt lat="38.96440833" lon="-8.97796667">
        <ele>5.0</ele>
        <time>2019-05-16T12:56:51.920Z</time>
      </trkpt>
      <trkpt lat="38.96446333" lon="-8.97797667">
        <ele>5.0</ele>
        <time>2019-05-16T12:56:52.935Z</time>
      </trkpt>
      <trkpt lat="38.96449167" lon="-8.97798333">
        <ele>5.0</ele>
        <time>2019-05-16T12:56:53.898Z</time>
      </trkpt>
      <trkpt lat="38.96452" lon="-8.97799">
        <ele>5.0</ele>
        <time>2019-05-16T12:56:54.907Z</time>
      </trkpt>
      <trkpt lat="38.96452" lon="-8.97799">
        <ele>5.0</ele>
        <time>2019-05-16T12:56:55.908Z</time>
      </trkpt>
      <trkpt lat="38.964575" lon="-8.978">
        <ele>4.0</ele>
        <time>2019-05-16T12:56:56.904Z</time>
      </trkpt>
      <trkpt lat="38.9646" lon="-8.97800667">
        <ele>4.0</ele>
        <time>2019-05-16T12:56:57.933Z</time>
      </trkpt>
      <trkpt lat="38.9646" lon="-8.97800667">
        <ele>4.0</ele>
        <time>2019-05-16T12:56:58.901Z</time>
      </trkpt>
      <trkpt lat="38.96465167" lon="-8.97801667">
        <ele>4.0</ele>
        <time>2019-05-16T12:56:59.910Z</time>
      </trkpt>
      <trkpt lat="38.96467667" lon="-8.978015">
        <ele>4.0</ele>
        <time>2019-05-16T12:57:00.898Z</time>
      </trkpt>
      <trkpt lat="38.96467667" lon="-8.978015">
        <ele>4.0</ele>
        <time>2019-05-16T12:57:01.913Z</time>
      </trkpt>
      <trkpt lat="38.964725" lon="-8.97802333">
        <ele>4.0</ele>
        <time>2019-05-16T12:57:02.922Z</time>
      </trkpt>
      <trkpt lat="38.964725" lon="-8.97802333">
        <ele>4.0</ele>
        <time>2019-05-16T12:57:03.918Z</time>
      </trkpt>
      <trkpt lat="38.96477833" lon="-8.978045">
        <ele>4.0</ele>
        <time>2019-05-16T12:57:04.935Z</time>
      </trkpt>
      <trkpt lat="38.96477833" lon="-8.978045">
        <ele>4.0</ele>
        <time>2019-05-16T12:57:05.909Z</time>
      </trkpt>
      <trkpt lat="38.96483" lon="-8.97805667">
        <ele>4.0</ele>
        <time>2019-05-16T12:57:06.926Z</time>
      </trkpt>
      <trkpt lat="38.96483" lon="-8.97805667">
        <ele>4.0</ele>
        <time>2019-05-16T12:57:07.911Z</time>
      </trkpt>
      <trkpt lat="38.96488333" lon="-8.97807">
        <ele>4.0</ele>
        <time>2019-05-16T12:57:08.899Z</time>
      </trkpt>
      <trkpt lat="38.96488333" lon="-8.97807">
        <ele>4.0</ele>
        <time>2019-05-16T12:57:09.912Z</time>
      </trkpt>
      <trkpt lat="38.96493833" lon="-8.97808167">
        <ele>5.0</ele>
        <time>2019-05-16T12:57:10.932Z</time>
      </trkpt>
      <trkpt lat="38.96493833" lon="-8.97808167">
        <ele>5.0</ele>
        <time>2019-05-16T12:57:11.933Z</time>
      </trkpt>
      <trkpt lat="38.96493833" lon="-8.97808167">
        <ele>5.0</ele>
        <time>2019-05-16T12:57:12.957Z</time>
      </trkpt>
      <trkpt lat="38.96499333" lon="-8.978095">
        <ele>5.0</ele>
        <time>2019-05-16T12:57:13.910Z</time>
      </trkpt>
      <trkpt lat="38.96505167" lon="-8.97810333">
        <ele>5.0</ele>
        <time>2019-05-16T12:57:14.921Z</time>
      </trkpt>
      <trkpt lat="38.96505167" lon="-8.97810333">
        <ele>5.0</ele>
        <time>2019-05-16T12:57:15.911Z</time>
      </trkpt>
      <trkpt lat="38.96510833" lon="-8.97811333">
        <ele>5.0</ele>
        <time>2019-05-16T12:57:16.920Z</time>
      </trkpt>
      <trkpt lat="38.96510833" lon="-8.97811333">
        <ele>5.0</ele>
        <time>2019-05-16T12:57:17.916Z</time>
      </trkpt>
      <trkpt lat="38.96516" lon="-8.97812333">
        <ele>5.0</ele>
        <time>2019-05-16T12:57:18.908Z</time>
      </trkpt>
      <trkpt lat="38.96516" lon="-8.97812333">
        <ele>5.0</ele>
        <time>2019-05-16T12:57:19.905Z</time>
      </trkpt>
      <trkpt lat="38.96521333" lon="-8.97813333">
        <ele>5.0</ele>
        <time>2019-05-16T12:57:20.928Z</time>
      </trkpt>
      <trkpt lat="38.96521333" lon="-8.97813333">
        <ele>5.0</ele>
        <time>2019-05-16T12:57:21.918Z</time>
      </trkpt>
      <trkpt lat="38.96526833" lon="-8.97814333">
        <ele>5.0</ele>
        <time>2019-05-16T12:57:22.927Z</time>
      </trkpt>
      <trkpt lat="38.96526833" lon="-8.97814333">
        <ele>5.0</ele>
        <time>2019-05-16T12:57:23.933Z</time>
      </trkpt>
      <trkpt lat="38.965325" lon="-8.97815167">
        <ele>5.0</ele>
        <time>2019-05-16T12:57:24.906Z</time>
      </trkpt>
      <trkpt lat="38.965325" lon="-8.97815167">
        <ele>5.0</ele>
        <time>2019-05-16T12:57:25.925Z</time>
      </trkpt>
      <trkpt lat="38.96538333" lon="-8.978165">
        <ele>5.0</ele>
        <time>2019-05-16T12:57:26.935Z</time>
      </trkpt>
      <trkpt lat="38.96538333" lon="-8.978165">
        <ele>5.0</ele>
        <time>2019-05-16T12:57:27.921Z</time>
      </trkpt>
      <trkpt lat="38.96544" lon="-8.978175">
        <ele>5.0</ele>
        <time>2019-05-16T12:57:28.911Z</time>
      </trkpt>
      <trkpt lat="38.96544" lon="-8.978175">
        <ele>5.0</ele>
        <time>2019-05-16T12:57:29.901Z</time>
      </trkpt>
      <trkpt lat="38.96549833" lon="-8.97819">
        <ele>5.0</ele>
        <time>2019-05-16T12:57:30.915Z</time>
      </trkpt>
      <trkpt lat="38.96549833" lon="-8.97819">
        <ele>5.0</ele>
        <time>2019-05-16T12:57:31.901Z</time>
      </trkpt>
      <trkpt lat="38.96555333" lon="-8.97821">
        <ele>5.0</ele>
        <time>2019-05-16T12:57:32.910Z</time>
      </trkpt>
      <trkpt lat="38.96555333" lon="-8.97821">
        <ele>5.0</ele>
        <time>2019-05-16T12:57:33.929Z</time>
      </trkpt>
      <trkpt lat="38.96561" lon="-8.97822667">
        <ele>5.0</ele>
        <time>2019-05-16T12:57:34.902Z</time>
      </trkpt>
      <trkpt lat="38.96561" lon="-8.97822667">
        <ele>5.0</ele>
        <time>2019-05-16T12:57:35.912Z</time>
      </trkpt>
      <trkpt lat="38.96567" lon="-8.97824167">
        <ele>6.0</ele>
        <time>2019-05-16T12:57:36.922Z</time>
      </trkpt>
      <trkpt lat="38.96567" lon="-8.97824167">
        <ele>6.0</ele>
        <time>2019-05-16T12:57:37.920Z</time>
      </trkpt>
      <trkpt lat="38.96573333" lon="-8.978255">
        <ele>6.0</ele>
        <time>2019-05-16T12:57:38.934Z</time>
      </trkpt>
      <trkpt lat="38.96573333" lon="-8.978255">
        <ele>6.0</ele>
        <time>2019-05-16T12:57:39.933Z</time>
      </trkpt>
      <trkpt lat="38.96579667" lon="-8.978265">
        <ele>6.0</ele>
        <time>2019-05-16T12:57:40.904Z</time>
      </trkpt>
      <trkpt lat="38.96579667" lon="-8.978265">
        <ele>6.0</ele>
        <time>2019-05-16T12:57:41.910Z</time>
      </trkpt>
      <trkpt lat="38.96586" lon="-8.97828">
        <ele>6.0</ele>
        <time>2019-05-16T12:57:42.919Z</time>
      </trkpt>
      <trkpt lat="38.96586" lon="-8.97828">
        <ele>6.0</ele>
        <time>2019-05-16T12:57:43.905Z</time>
      </trkpt>
      <trkpt lat="38.96592333" lon="-8.97829167">
        <ele>6.0</ele>
        <time>2019-05-16T12:57:44.901Z</time>
      </trkpt>
      <trkpt lat="38.96592333" lon="-8.97829167">
        <ele>6.0</ele>
        <time>2019-05-16T12:57:45.901Z</time>
      </trkpt>
      <trkpt lat="38.96598667" lon="-8.97830333">
        <ele>6.0</ele>
        <time>2019-05-16T12:57:46.913Z</time>
      </trkpt>
      <trkpt lat="38.96598667" lon="-8.97830333">
        <ele>6.0</ele>
        <time>2019-05-16T12:57:47.915Z</time>
      </trkpt>
      <trkpt lat="38.96605167" lon="-8.978315">
        <ele>6.0</ele>
        <time>2019-05-16T12:57:48.906Z</time>
      </trkpt>
      <trkpt lat="38.96605167" lon="-8.978315">
        <ele>6.0</ele>
        <time>2019-05-16T12:57:49.901Z</time>
      </trkpt>
      <trkpt lat="38.966115" lon="-8.978325">
        <ele>6.0</ele>
        <time>2019-05-16T12:57:50.909Z</time>
      </trkpt>
      <trkpt lat="38.966115" lon="-8.978325">
        <ele>6.0</ele>
        <time>2019-05-16T12:57:51.912Z</time>
      </trkpt>
      <trkpt lat="38.96618167" lon="-8.97833667">
        <ele>6.0</ele>
        <time>2019-05-16T12:57:52.920Z</time>
      </trkpt>
      <trkpt lat="38.96618167" lon="-8.97833667">
        <ele>6.0</ele>
        <time>2019-05-16T12:57:53.918Z</time>
      </trkpt>
      <trkpt lat="38.96624667" lon="-8.97835167">
        <ele>6.0</ele>
        <time>2019-05-16T12:57:54.930Z</time>
      </trkpt>
      <trkpt lat="38.96624667" lon="-8.97835167">
        <ele>6.0</ele>
        <time>2019-05-16T12:57:55.897Z</time>
      </trkpt>
      <trkpt lat="38.96631" lon="-8.97836833">
        <ele>6.0</ele>
        <time>2019-05-16T12:57:56.909Z</time>
      </trkpt>
      <trkpt lat="38.96634167" lon="-8.978375">
        <ele>6.0</ele>
        <time>2019-05-16T12:57:57.916Z</time>
      </trkpt>
      <trkpt lat="38.96637333" lon="-8.97838333">
        <ele>6.0</ele>
        <time>2019-05-16T12:57:58.933Z</time>
      </trkpt>
      <trkpt lat="38.96637333" lon="-8.97838333">
        <ele>6.0</ele>
        <time>2019-05-16T12:57:59.931Z</time>
      </trkpt>
      <trkpt lat="38.966435" lon="-8.97839667">
        <ele>6.0</ele>
        <time>2019-05-16T12:58:00.904Z</time>
      </trkpt>
      <trkpt lat="38.966435" lon="-8.97839667">
        <ele>6.0</ele>
        <time>2019-05-16T12:58:01.914Z</time>
      </trkpt>
      <trkpt lat="38.96649833" lon="-8.97841333">
        <ele>6.0</ele>
        <time>2019-05-16T12:58:02.921Z</time>
      </trkpt>
      <trkpt lat="38.96649833" lon="-8.97841333">
        <ele>6.0</ele>
        <time>2019-05-16T12:58:03.897Z</time>
      </trkpt>
      <trkpt lat="38.96656" lon="-8.97842833">
        <ele>6.0</ele>
        <time>2019-05-16T12:58:04.906Z</time>
      </trkpt>
      <trkpt lat="38.96656" lon="-8.97842833">
        <ele>6.0</ele>
        <time>2019-05-16T12:58:05.920Z</time>
      </trkpt>
      <trkpt lat="38.96662" lon="-8.978445">
        <ele>6.0</ele>
        <time>2019-05-16T12:58:06.928Z</time>
      </trkpt>
      <trkpt lat="38.96662" lon="-8.978445">
        <ele>6.0</ele>
        <time>2019-05-16T12:58:07.925Z</time>
      </trkpt>
      <trkpt lat="38.96667833" lon="-8.97847">
        <ele>7.0</ele>
        <time>2019-05-16T12:58:08.910Z</time>
      </trkpt>
      <trkpt lat="38.96667833" lon="-8.97847">
        <ele>7.0</ele>
        <time>2019-05-16T12:58:09.904Z</time>
      </trkpt>
      <trkpt lat="38.96673333" lon="-8.97849167">
        <ele>7.0</ele>
        <time>2019-05-16T12:58:10.915Z</time>
      </trkpt>
      <trkpt lat="38.96673333" lon="-8.97849167">
        <ele>7.0</ele>
        <time>2019-05-16T12:58:11.901Z</time>
      </trkpt>
      <trkpt lat="38.96678667" lon="-8.97852333">
        <ele>7.0</ele>
        <time>2019-05-16T12:58:12.917Z</time>
      </trkpt>
      <trkpt lat="38.96678667" lon="-8.97852333">
        <ele>7.0</ele>
        <time>2019-05-16T12:58:13.921Z</time>
      </trkpt>
      <trkpt lat="38.966845" lon="-8.978545">
        <ele>7.0</ele>
        <time>2019-05-16T12:58:14.932Z</time>
      </trkpt>
      <trkpt lat="38.966845" lon="-8.978545">
        <ele>7.0</ele>
        <time>2019-05-16T12:58:15.921Z</time>
      </trkpt>
      <trkpt lat="38.96690167" lon="-8.978575">
        <ele>7.0</ele>
        <time>2019-05-16T12:58:16.931Z</time>
      </trkpt>
      <trkpt lat="38.96690167" lon="-8.978575">
        <ele>7.0</ele>
        <time>2019-05-16T12:58:17.899Z</time>
      </trkpt>
      <trkpt lat="38.96695167" lon="-8.97861">
        <ele>8.0</ele>
        <time>2019-05-16T12:58:18.906Z</time>
      </trkpt>
      <trkpt lat="38.96695167" lon="-8.97861">
        <ele>8.0</ele>
        <time>2019-05-16T12:58:19.930Z</time>
      </trkpt>
      <trkpt lat="38.96699833" lon="-8.97863833">
        <ele>8.0</ele>
        <time>2019-05-16T12:58:20.913Z</time>
      </trkpt>
      <trkpt lat="38.96699833" lon="-8.97863833">
        <ele>8.0</ele>
        <time>2019-05-16T12:58:21.901Z</time>
      </trkpt>
      <trkpt lat="38.96704167" lon="-8.97866333">
        <ele>8.0</ele>
        <time>2019-05-16T12:58:22.925Z</time>
      </trkpt>
      <trkpt lat="38.96704167" lon="-8.97866333">
        <ele>8.0</ele>
        <time>2019-05-16T12:58:23.936Z</time>
      </trkpt>
      <trkpt lat="38.96708333" lon="-8.97869">
        <ele>8.0</ele>
        <time>2019-05-16T12:58:24.910Z</time>
      </trkpt>
      <trkpt lat="38.96708333" lon="-8.97869">
        <ele>8.0</ele>
        <time>2019-05-16T12:58:25.906Z</time>
      </trkpt>
      <trkpt lat="38.96711833" lon="-8.97868333">
        <ele>8.0</ele>
        <time>2019-05-16T12:58:26.915Z</time>
      </trkpt>
      <trkpt lat="38.96711833" lon="-8.97868333">
        <ele>8.0</ele>
        <time>2019-05-16T12:58:27.925Z</time>
      </trkpt>
      <trkpt lat="38.96714333" lon="-8.97865667">
        <ele>8.0</ele>
        <time>2019-05-16T12:58:28.913Z</time>
      </trkpt>
      <trkpt lat="38.96714333" lon="-8.97865667">
        <ele>8.0</ele>
        <time>2019-05-16T12:58:29.899Z</time>
      </trkpt>
      <trkpt lat="38.96716833" lon="-8.97862667">
        <ele>8.0</ele>
        <time>2019-05-16T12:58:30.910Z</time>
      </trkpt>
      <trkpt lat="38.96716833" lon="-8.97862667">
        <ele>8.0</ele>
        <time>2019-05-16T12:58:31.898Z</time>
      </trkpt>
      <trkpt lat="38.96719333" lon="-8.9786">
        <ele>7.0</ele>
        <time>2019-05-16T12:58:32.912Z</time>
      </trkpt>
      <trkpt lat="38.96720833" lon="-8.97858667">
        <ele>7.0</ele>
        <time>2019-05-16T12:58:33.906Z</time>
      </trkpt>
      <trkpt lat="38.967225" lon="-8.978575">
        <ele>7.0</ele>
        <time>2019-05-16T12:58:34.901Z</time>
      </trkpt>
      <trkpt lat="38.967225" lon="-8.978575">
        <ele>7.0</ele>
        <time>2019-05-16T12:58:35.901Z</time>
      </trkpt>
      <trkpt lat="38.96726" lon="-8.97855">
        <ele>7.0</ele>
        <time>2019-05-16T12:58:36.910Z</time>
      </trkpt>
      <trkpt lat="38.96726" lon="-8.97855">
        <ele>7.0</ele>
        <time>2019-05-16T12:58:37.901Z</time>
      </trkpt>
      <trkpt lat="38.96729167" lon="-8.97852333">
        <ele>6.0</ele>
        <time>2019-05-16T12:58:38.912Z</time>
      </trkpt>
      <trkpt lat="38.96729167" lon="-8.97852333">
        <ele>6.0</ele>
        <time>2019-05-16T12:58:39.905Z</time>
      </trkpt>
      <trkpt lat="38.96732833" lon="-8.97850333">
        <ele>6.0</ele>
        <time>2019-05-16T12:58:40.915Z</time>
      </trkpt>
      <trkpt lat="38.96732833" lon="-8.97850333">
        <ele>6.0</ele>
        <time>2019-05-16T12:58:41.900Z</time>
      </trkpt>
      <trkpt lat="38.96736833" lon="-8.97848667">
        <ele>6.0</ele>
        <time>2019-05-16T12:58:42.909Z</time>
      </trkpt>
      <trkpt lat="38.96736833" lon="-8.97848667">
        <ele>6.0</ele>
        <time>2019-05-16T12:58:43.899Z</time>
      </trkpt>
      <trkpt lat="38.96740333" lon="-8.97846333">
        <ele>6.0</ele>
        <time>2019-05-16T12:58:44.908Z</time>
      </trkpt>
      <trkpt lat="38.96740333" lon="-8.97846333">
        <ele>6.0</ele>
        <time>2019-05-16T12:58:45.908Z</time>
      </trkpt>
      <trkpt lat="38.96744" lon="-8.97844333">
        <ele>6.0</ele>
        <time>2019-05-16T12:58:46.918Z</time>
      </trkpt>
      <trkpt lat="38.96744" lon="-8.97844333">
        <ele>6.0</ele>
        <time>2019-05-16T12:58:47.911Z</time>
      </trkpt>
      <trkpt lat="38.96747667" lon="-8.97842333">
        <ele>5.0</ele>
        <time>2019-05-16T12:58:48.923Z</time>
      </trkpt>
      <trkpt lat="38.96747667" lon="-8.97842333">
        <ele>5.0</ele>
        <time>2019-05-16T12:58:49.906Z</time>
      </trkpt>
      <trkpt lat="38.967515" lon="-8.978405">
        <ele>5.0</ele>
        <time>2019-05-16T12:58:50.922Z</time>
      </trkpt>
      <trkpt lat="38.967515" lon="-8.978405">
        <ele>5.0</ele>
        <time>2019-05-16T12:58:51.902Z</time>
      </trkpt>
      <trkpt lat="38.96755833" lon="-8.97838">
        <ele>5.0</ele>
        <time>2019-05-16T12:58:52.913Z</time>
      </trkpt>
      <trkpt lat="38.96755833" lon="-8.97838">
        <ele>5.0</ele>
        <time>2019-05-16T12:58:53.902Z</time>
      </trkpt>
      <trkpt lat="38.96760833" lon="-8.97835">
        <ele>5.0</ele>
        <time>2019-05-16T12:58:54.912Z</time>
      </trkpt>
      <trkpt lat="38.96760833" lon="-8.97835">
        <ele>5.0</ele>
        <time>2019-05-16T12:58:55.928Z</time>
      </trkpt>
      <trkpt lat="38.967665" lon="-8.97832333">
        <ele>5.0</ele>
        <time>2019-05-16T12:58:56.900Z</time>
      </trkpt>
      <trkpt lat="38.967665" lon="-8.97832333">
        <ele>5.0</ele>
        <time>2019-05-16T12:58:57.931Z</time>
      </trkpt>
      <trkpt lat="38.967725" lon="-8.97828333">
        <ele>5.0</ele>
        <time>2019-05-16T12:58:58.908Z</time>
      </trkpt>
      <trkpt lat="38.967725" lon="-8.97828333">
        <ele>5.0</ele>
        <time>2019-05-16T12:58:59.899Z</time>
      </trkpt>
      <trkpt lat="38.96778667" lon="-8.97825167">
        <ele>5.0</ele>
        <time>2019-05-16T12:59:00.930Z</time>
      </trkpt>
      <trkpt lat="38.96778667" lon="-8.97825167">
        <ele>5.0</ele>
        <time>2019-05-16T12:59:01.924Z</time>
      </trkpt>
      <trkpt lat="38.96784833" lon="-8.97822167">
        <ele>5.0</ele>
        <time>2019-05-16T12:59:02.936Z</time>
      </trkpt>
      <trkpt lat="38.96784833" lon="-8.97822167">
        <ele>5.0</ele>
        <time>2019-05-16T12:59:03.903Z</time>
      </trkpt>
      <trkpt lat="38.96791167" lon="-8.978185">
        <ele>5.0</ele>
        <time>2019-05-16T12:59:04.921Z</time>
      </trkpt>
      <trkpt lat="38.96791167" lon="-8.978185">
        <ele>5.0</ele>
        <time>2019-05-16T12:59:05.918Z</time>
      </trkpt>
      <trkpt lat="38.96797667" lon="-8.97814833">
        <ele>5.0</ele>
        <time>2019-05-16T12:59:06.925Z</time>
      </trkpt>
      <trkpt lat="38.96797667" lon="-8.97814833">
        <ele>5.0</ele>
        <time>2019-05-16T12:59:07.910Z</time>
      </trkpt>
      <trkpt lat="38.96804333" lon="-8.978115">
        <ele>5.0</ele>
        <time>2019-05-16T12:59:08.901Z</time>
      </trkpt>
      <trkpt lat="38.96804333" lon="-8.978115">
        <ele>5.0</ele>
        <time>2019-05-16T12:59:09.898Z</time>
      </trkpt>
      <trkpt lat="38.96810833" lon="-8.97808167">
        <ele>4.0</ele>
        <time>2019-05-16T12:59:10.906Z</time>
      </trkpt>
      <trkpt lat="38.96814" lon="-8.97806167">
        <ele>4.0</ele>
        <time>2019-05-16T12:59:11.931Z</time>
      </trkpt>
      <trkpt lat="38.96817167" lon="-8.97804333">
        <ele>4.0</ele>
        <time>2019-05-16T12:59:12.910Z</time>
      </trkpt>
      <trkpt lat="38.96817167" lon="-8.97804333">
        <ele>4.0</ele>
        <time>2019-05-16T12:59:13.898Z</time>
      </trkpt>
      <trkpt lat="38.96823833" lon="-8.978">
        <ele>4.0</ele>
        <time>2019-05-16T12:59:14.908Z</time>
      </trkpt>
      <trkpt lat="38.96827" lon="-8.97798">
        <ele>4.0</ele>
        <time>2019-05-16T12:59:15.914Z</time>
      </trkpt>
      <trkpt lat="38.96827" lon="-8.97798">
        <ele>4.0</ele>
        <time>2019-05-16T12:59:16.911Z</time>
      </trkpt>
      <trkpt lat="38.96833167" lon="-8.97794">
        <ele>4.0</ele>
        <time>2019-05-16T12:59:17.926Z</time>
      </trkpt>
      <trkpt lat="38.96836333" lon="-8.97792333">
        <ele>4.0</ele>
        <time>2019-05-16T12:59:18.930Z</time>
      </trkpt>
      <trkpt lat="38.96836333" lon="-8.97792333">
        <ele>4.0</ele>
        <time>2019-05-16T12:59:19.904Z</time>
      </trkpt>
      <trkpt lat="38.96842167" lon="-8.97789167">
        <ele>4.0</ele>
        <time>2019-05-16T12:59:20.898Z</time>
      </trkpt>
      <trkpt lat="38.96842167" lon="-8.97789167">
        <ele>4.0</ele>
        <time>2019-05-16T12:59:21.920Z</time>
      </trkpt>
      <trkpt lat="38.96847333" lon="-8.97785833">
        <ele>3.0</ele>
        <time>2019-05-16T12:59:22.931Z</time>
      </trkpt>
      <trkpt lat="38.9685" lon="-8.97784">
        <ele>3.0</ele>
        <time>2019-05-16T12:59:23.929Z</time>
      </trkpt>
      <trkpt lat="38.9685" lon="-8.97784">
        <ele>3.0</ele>
        <time>2019-05-16T12:59:24.912Z</time>
      </trkpt>
      <trkpt lat="38.96855333" lon="-8.97780167">
        <ele>3.0</ele>
        <time>2019-05-16T12:59:25.929Z</time>
      </trkpt>
      <trkpt lat="38.96855333" lon="-8.97780167">
        <ele>3.0</ele>
        <time>2019-05-16T12:59:26.911Z</time>
      </trkpt>
      <trkpt lat="38.96861167" lon="-8.97777167">
        <ele>3.0</ele>
        <time>2019-05-16T12:59:27.919Z</time>
      </trkpt>
      <trkpt lat="38.96861167" lon="-8.97777167">
        <ele>3.0</ele>
        <time>2019-05-16T12:59:28.936Z</time>
      </trkpt>
      <trkpt lat="38.96866833" lon="-8.97773833">
        <ele>3.0</ele>
        <time>2019-05-16T12:59:29.902Z</time>
      </trkpt>
      <trkpt lat="38.96869667" lon="-8.97771667">
        <ele>3.0</ele>
        <time>2019-05-16T12:59:30.916Z</time>
      </trkpt>
      <trkpt lat="38.96869667" lon="-8.97771667">
        <ele>3.0</ele>
        <time>2019-05-16T12:59:31.901Z</time>
      </trkpt>
      <trkpt lat="38.96875333" lon="-8.977685">
        <ele>3.0</ele>
        <time>2019-05-16T12:59:32.913Z</time>
      </trkpt>
      <trkpt lat="38.96877833" lon="-8.97767">
        <ele>3.0</ele>
        <time>2019-05-16T12:59:33.930Z</time>
      </trkpt>
      <trkpt lat="38.96877833" lon="-8.97767">
        <ele>3.0</ele>
        <time>2019-05-16T12:59:34.931Z</time>
      </trkpt>
      <trkpt lat="38.96883167" lon="-8.97763833">
        <ele>3.0</ele>
        <time>2019-05-16T12:59:35.901Z</time>
      </trkpt>
      <trkpt lat="38.96885833" lon="-8.97762333">
        <ele>3.0</ele>
        <time>2019-05-16T12:59:36.924Z</time>
      </trkpt>
      <trkpt lat="38.96885833" lon="-8.97762333">
        <ele>3.0</ele>
        <time>2019-05-16T12:59:37.930Z</time>
      </trkpt>
      <trkpt lat="38.96891333" lon="-8.97758833">
        <ele>3.0</ele>
        <time>2019-05-16T12:59:38.902Z</time>
      </trkpt>
      <trkpt lat="38.96891333" lon="-8.97758833">
        <ele>3.0</ele>
        <time>2019-05-16T12:59:39.936Z</time>
      </trkpt>
      <trkpt lat="38.96897333" lon="-8.97755833">
        <ele>2.0</ele>
        <time>2019-05-16T12:59:40.905Z</time>
      </trkpt>
      <trkpt lat="38.969005" lon="-8.977545">
        <ele>2.0</ele>
        <time>2019-05-16T12:59:41.902Z</time>
      </trkpt>
      <trkpt lat="38.96903667" lon="-8.97752667">
        <ele>2.0</ele>
        <time>2019-05-16T12:59:42.935Z</time>
      </trkpt>
      <trkpt lat="38.96903667" lon="-8.97752667">
        <ele>2.0</ele>
        <time>2019-05-16T12:59:43.919Z</time>
      </trkpt>
      <trkpt lat="38.96909667" lon="-8.97748667">
        <ele>2.0</ele>
        <time>2019-05-16T12:59:44.927Z</time>
      </trkpt>
      <trkpt lat="38.96909667" lon="-8.97748667">
        <ele>2.0</ele>
        <time>2019-05-16T12:59:45.924Z</time>
      </trkpt>
      <trkpt lat="38.96916167" lon="-8.97745333">
        <ele>2.0</ele>
        <time>2019-05-16T12:59:46.931Z</time>
      </trkpt>
      <trkpt lat="38.96916167" lon="-8.97745333">
        <ele>2.0</ele>
        <time>2019-05-16T12:59:47.930Z</time>
      </trkpt>
      <trkpt lat="38.96922667" lon="-8.97742167">
        <ele>2.0</ele>
        <time>2019-05-16T12:59:48.913Z</time>
      </trkpt>
      <trkpt lat="38.96922667" lon="-8.97742167">
        <ele>2.0</ele>
        <time>2019-05-16T12:59:49.912Z</time>
      </trkpt>
      <trkpt lat="38.96929333" lon="-8.977385">
        <ele>2.0</ele>
        <time>2019-05-16T12:59:50.923Z</time>
      </trkpt>
      <trkpt lat="38.96929333" lon="-8.977385">
        <ele>2.0</ele>
        <time>2019-05-16T12:59:51.919Z</time>
      </trkpt>
      <trkpt lat="38.96936" lon="-8.97735333">
        <ele>2.0</ele>
        <time>2019-05-16T12:59:52.929Z</time>
      </trkpt>
      <trkpt lat="38.96936" lon="-8.97735333">
        <ele>2.0</ele>
        <time>2019-05-16T12:59:53.908Z</time>
      </trkpt>
      <trkpt lat="38.96942667" lon="-8.97732167">
        <ele>2.0</ele>
        <time>2019-05-16T12:59:54.918Z</time>
      </trkpt>
      <trkpt lat="38.96942667" lon="-8.97732167">
        <ele>2.0</ele>
        <time>2019-05-16T12:59:55.929Z</time>
      </trkpt>
      <trkpt lat="38.96948833" lon="-8.97728667">
        <ele>2.0</ele>
        <time>2019-05-16T12:59:56.937Z</time>
      </trkpt>
      <trkpt lat="38.96948833" lon="-8.97728667">
        <ele>2.0</ele>
        <time>2019-05-16T12:59:57.923Z</time>
      </trkpt>
      <trkpt lat="38.969555" lon="-8.977255">
        <ele>2.0</ele>
        <time>2019-05-16T12:59:58.907Z</time>
      </trkpt>
      <trkpt lat="38.969555" lon="-8.977255">
        <ele>2.0</ele>
        <time>2019-05-16T12:59:59.897Z</time>
      </trkpt>
      <trkpt lat="38.96962" lon="-8.97721833">
        <ele>2.0</ele>
        <time>2019-05-16T13:00:00.907Z</time>
      </trkpt>
      <trkpt lat="38.96962" lon="-8.97721833">
        <ele>2.0</ele>
        <time>2019-05-16T13:00:01.931Z</time>
      </trkpt>
      <trkpt lat="38.96968833" lon="-8.97719167">
        <ele>2.0</ele>
        <time>2019-05-16T13:00:02.905Z</time>
      </trkpt>
      <trkpt lat="38.96968833" lon="-8.97719167">
        <ele>2.0</ele>
        <time>2019-05-16T13:00:03.910Z</time>
      </trkpt>
      <trkpt lat="38.96975667" lon="-8.97716167">
        <ele>2.0</ele>
        <time>2019-05-16T13:00:04.921Z</time>
      </trkpt>
      <trkpt lat="38.96979" lon="-8.97714667">
        <ele>2.0</ele>
        <time>2019-05-16T13:00:05.918Z</time>
      </trkpt>
      <trkpt lat="38.96982167" lon="-8.97713">
        <ele>2.0</ele>
        <time>2019-05-16T13:00:06.921Z</time>
      </trkpt>
      <trkpt lat="38.96982167" lon="-8.97713">
        <ele>2.0</ele>
        <time>2019-05-16T13:00:07.922Z</time>
      </trkpt>
      <trkpt lat="38.96988667" lon="-8.97710167">
        <ele>2.0</ele>
        <time>2019-05-16T13:00:08.908Z</time>
      </trkpt>
      <trkpt lat="38.96988667" lon="-8.97710167">
        <ele>2.0</ele>
        <time>2019-05-16T13:00:09.897Z</time>
      </trkpt>
      <trkpt lat="38.96995" lon="-8.97707167">
        <ele>2.0</ele>
        <time>2019-05-16T13:00:10.908Z</time>
      </trkpt>
      <trkpt lat="38.96995" lon="-8.97707167">
        <ele>2.0</ele>
        <time>2019-05-16T13:00:11.936Z</time>
      </trkpt>
      <trkpt lat="38.97001167" lon="-8.977045">
        <ele>2.0</ele>
        <time>2019-05-16T13:00:12.904Z</time>
      </trkpt>
      <trkpt lat="38.97001167" lon="-8.977045">
        <ele>2.0</ele>
        <time>2019-05-16T13:00:13.933Z</time>
      </trkpt>
      <trkpt lat="38.970075" lon="-8.977015">
        <ele>2.0</ele>
        <time>2019-05-16T13:00:14.901Z</time>
      </trkpt>
      <trkpt lat="38.970075" lon="-8.977015">
        <ele>2.0</ele>
        <time>2019-05-16T13:00:15.904Z</time>
      </trkpt>
      <trkpt lat="38.97013833" lon="-8.97699">
        <ele>2.0</ele>
        <time>2019-05-16T13:00:16.911Z</time>
      </trkpt>
      <trkpt lat="38.97013833" lon="-8.97699">
        <ele>2.0</ele>
        <time>2019-05-16T13:00:17.901Z</time>
      </trkpt>
      <trkpt lat="38.9702" lon="-8.976965">
        <ele>2.0</ele>
        <time>2019-05-16T13:00:18.909Z</time>
      </trkpt>
      <trkpt lat="38.9702" lon="-8.976965">
        <ele>2.0</ele>
        <time>2019-05-16T13:00:19.917Z</time>
      </trkpt>
      <trkpt lat="38.97026333" lon="-8.97694">
        <ele>2.0</ele>
        <time>2019-05-16T13:00:20.918Z</time>
      </trkpt>
      <trkpt lat="38.97026333" lon="-8.97694">
        <ele>2.0</ele>
        <time>2019-05-16T13:00:21.905Z</time>
      </trkpt>
      <trkpt lat="38.970325" lon="-8.97691333">
        <ele>2.0</ele>
        <time>2019-05-16T13:00:22.912Z</time>
      </trkpt>
      <trkpt lat="38.970325" lon="-8.97691333">
        <ele>2.0</ele>
        <time>2019-05-16T13:00:23.917Z</time>
      </trkpt>
      <trkpt lat="38.97038833" lon="-8.97688667">
        <ele>1.0</ele>
        <time>2019-05-16T13:00:24.925Z</time>
      </trkpt>
      <trkpt lat="38.97038833" lon="-8.97688667">
        <ele>1.0</ele>
        <time>2019-05-16T13:00:25.921Z</time>
      </trkpt>
      <trkpt lat="38.97045167" lon="-8.97686">
        <ele>1.0</ele>
        <time>2019-05-16T13:00:26.938Z</time>
      </trkpt>
      <trkpt lat="38.97045167" lon="-8.97686">
        <ele>1.0</ele>
        <time>2019-05-16T13:00:27.897Z</time>
      </trkpt>
      <trkpt lat="38.97051667" lon="-8.97683333">
        <ele>1.0</ele>
        <time>2019-05-16T13:00:28.912Z</time>
      </trkpt>
      <trkpt lat="38.97051667" lon="-8.97683333">
        <ele>1.0</ele>
        <time>2019-05-16T13:00:29.897Z</time>
      </trkpt>
      <trkpt lat="38.97058" lon="-8.97680667">
        <ele>1.0</ele>
        <time>2019-05-16T13:00:30.914Z</time>
      </trkpt>
      <trkpt lat="38.97058" lon="-8.97680667">
        <ele>1.0</ele>
        <time>2019-05-16T13:00:31.899Z</time>
      </trkpt>
      <trkpt lat="38.97064333" lon="-8.97678">
        <ele>1.0</ele>
        <time>2019-05-16T13:00:32.909Z</time>
      </trkpt>
      <trkpt lat="38.97064333" lon="-8.97678">
        <ele>1.0</ele>
        <time>2019-05-16T13:00:33.934Z</time>
      </trkpt>
      <trkpt lat="38.97070833" lon="-8.976755">
        <ele>1.0</ele>
        <time>2019-05-16T13:00:34.904Z</time>
      </trkpt>
      <trkpt lat="38.97074167" lon="-8.97674167">
        <ele>1.0</ele>
        <time>2019-05-16T13:00:35.918Z</time>
      </trkpt>
      <trkpt lat="38.97074167" lon="-8.97674167">
        <ele>1.0</ele>
        <time>2019-05-16T13:00:36.918Z</time>
      </trkpt>
      <trkpt lat="38.97080833" lon="-8.97671333">
        <ele>1.0</ele>
        <time>2019-05-16T13:00:37.926Z</time>
      </trkpt>
      <trkpt lat="38.97080833" lon="-8.97671333">
        <ele>1.0</ele>
        <time>2019-05-16T13:00:38.911Z</time>
      </trkpt>
      <trkpt lat="38.970875" lon="-8.97668833">
        <ele>1.0</ele>
        <time>2019-05-16T13:00:39.924Z</time>
      </trkpt>
      <trkpt lat="38.97090833" lon="-8.97667167">
        <ele>1.0</ele>
        <time>2019-05-16T13:00:40.900Z</time>
      </trkpt>
      <trkpt lat="38.97090833" lon="-8.97667167">
        <ele>1.0</ele>
        <time>2019-05-16T13:00:41.920Z</time>
      </trkpt>
      <trkpt lat="38.970975" lon="-8.97664667">
        <ele>1.0</ele>
        <time>2019-05-16T13:00:42.931Z</time>
      </trkpt>
      <trkpt lat="38.970975" lon="-8.97664667">
        <ele>1.0</ele>
        <time>2019-05-16T13:00:43.897Z</time>
      </trkpt>
      <trkpt lat="38.97104167" lon="-8.97661667">
        <ele>1.0</ele>
        <time>2019-05-16T13:00:44.930Z</time>
      </trkpt>
      <trkpt lat="38.97104167" lon="-8.97661667">
        <ele>1.0</ele>
        <time>2019-05-16T13:00:45.925Z</time>
      </trkpt>
      <trkpt lat="38.97110833" lon="-8.976585">
        <ele>1.0</ele>
        <time>2019-05-16T13:00:46.934Z</time>
      </trkpt>
      <trkpt lat="38.97110833" lon="-8.976585">
        <ele>1.0</ele>
        <time>2019-05-16T13:00:47.931Z</time>
      </trkpt>
      <trkpt lat="38.97117333" lon="-8.97655333">
        <ele>1.0</ele>
        <time>2019-05-16T13:00:48.903Z</time>
      </trkpt>
      <trkpt lat="38.97117333" lon="-8.97655333">
        <ele>1.0</ele>
        <time>2019-05-16T13:00:49.897Z</time>
      </trkpt>
      <trkpt lat="38.97124" lon="-8.97652167">
        <ele>1.0</ele>
        <time>2019-05-16T13:00:50.905Z</time>
      </trkpt>
      <trkpt lat="38.97124" lon="-8.97652167">
        <ele>1.0</ele>
        <time>2019-05-16T13:00:51.915Z</time>
      </trkpt>
      <trkpt lat="38.9713" lon="-8.97649167">
        <ele>1.0</ele>
        <time>2019-05-16T13:00:52.929Z</time>
      </trkpt>
      <trkpt lat="38.9713" lon="-8.97649167">
        <ele>1.0</ele>
        <time>2019-05-16T13:00:53.923Z</time>
      </trkpt>
      <trkpt lat="38.97136333" lon="-8.97646333">
        <ele>1.0</ele>
        <time>2019-05-16T13:00:54.931Z</time>
      </trkpt>
      <trkpt lat="38.97136333" lon="-8.97646333">
        <ele>1.0</ele>
        <time>2019-05-16T13:00:55.908Z</time>
      </trkpt>
      <trkpt lat="38.97142667" lon="-8.97643333">
        <ele>1.0</ele>
        <time>2019-05-16T13:00:56.900Z</time>
      </trkpt>
      <trkpt lat="38.97142667" lon="-8.97643333">
        <ele>1.0</ele>
        <time>2019-05-16T13:00:57.915Z</time>
      </trkpt>
      <trkpt lat="38.97149167" lon="-8.97640167">
        <ele>1.0</ele>
        <time>2019-05-16T13:00:58.909Z</time>
      </trkpt>
      <trkpt lat="38.97149167" lon="-8.97640167">
        <ele>1.0</ele>
        <time>2019-05-16T13:00:59.897Z</time>
      </trkpt>
      <trkpt lat="38.97155667" lon="-8.97636833">
        <ele>1.0</ele>
        <time>2019-05-16T13:01:00.906Z</time>
      </trkpt>
      <trkpt lat="38.97155667" lon="-8.97636833">
        <ele>1.0</ele>
        <time>2019-05-16T13:01:01.910Z</time>
      </trkpt>
      <trkpt lat="38.97162" lon="-8.97634833">
        <ele>1.0</ele>
        <time>2019-05-16T13:01:02.922Z</time>
      </trkpt>
      <trkpt lat="38.97162" lon="-8.97634833">
        <ele>1.0</ele>
        <time>2019-05-16T13:01:03.905Z</time>
      </trkpt>
      <trkpt lat="38.97168333" lon="-8.97635167">
        <ele>0.0</ele>
        <time>2019-05-16T13:01:04.915Z</time>
      </trkpt>
      <trkpt lat="38.97168333" lon="-8.97635167">
        <ele>0.0</ele>
        <time>2019-05-16T13:01:05.926Z</time>
      </trkpt>
      <trkpt lat="38.97174333" lon="-8.97639167">
        <ele>0.0</ele>
        <time>2019-05-16T13:01:06.935Z</time>
      </trkpt>
      <trkpt lat="38.97174333" lon="-8.97639167">
        <ele>0.0</ele>
        <time>2019-05-16T13:01:07.928Z</time>
      </trkpt>
      <trkpt lat="38.97178667" lon="-8.97645">
        <ele>0.0</ele>
        <time>2019-05-16T13:01:08.923Z</time>
      </trkpt>
      <trkpt lat="38.97180333" lon="-8.97648">
        <ele>0.0</ele>
        <time>2019-05-16T13:01:09.900Z</time>
      </trkpt>
      <trkpt lat="38.97180333" lon="-8.97648">
        <ele>0.0</ele>
        <time>2019-05-16T13:01:10.897Z</time>
      </trkpt>
      <trkpt lat="38.97183167" lon="-8.97654">
        <ele>0.0</ele>
        <time>2019-05-16T13:01:11.910Z</time>
      </trkpt>
      <trkpt lat="38.97184667" lon="-8.97657167">
        <ele>0.0</ele>
        <time>2019-05-16T13:01:12.903Z</time>
      </trkpt>
      <trkpt lat="38.97184667" lon="-8.97657167">
        <ele>0.0</ele>
        <time>2019-05-16T13:01:13.912Z</time>
      </trkpt>
      <trkpt lat="38.97187" lon="-8.976645">
        <ele>1.0</ele>
        <time>2019-05-16T13:01:14.923Z</time>
      </trkpt>
      <trkpt lat="38.97187" lon="-8.976645">
        <ele>1.0</ele>
        <time>2019-05-16T13:01:15.910Z</time>
      </trkpt>
      <trkpt lat="38.97189667" lon="-8.97672">
        <ele>1.0</ele>
        <time>2019-05-16T13:01:16.918Z</time>
      </trkpt>
      <trkpt lat="38.97191167" lon="-8.97675833">
        <ele>1.0</ele>
        <time>2019-05-16T13:01:17.910Z</time>
      </trkpt>
      <trkpt lat="38.97191167" lon="-8.97675833">
        <ele>1.0</ele>
        <time>2019-05-16T13:01:18.912Z</time>
      </trkpt>
      <trkpt lat="38.97194167" lon="-8.97683667">
        <ele>1.0</ele>
        <time>2019-05-16T13:01:19.907Z</time>
      </trkpt>
      <trkpt lat="38.97194167" lon="-8.97683667">
        <ele>1.0</ele>
        <time>2019-05-16T13:01:20.908Z</time>
      </trkpt>
      <trkpt lat="38.97197333" lon="-8.97691833">
        <ele>1.0</ele>
        <time>2019-05-16T13:01:21.903Z</time>
      </trkpt>
      <trkpt lat="38.97197333" lon="-8.97691833">
        <ele>1.0</ele>
        <time>2019-05-16T13:01:22.901Z</time>
      </trkpt>
      <trkpt lat="38.97200333" lon="-8.977">
        <ele>1.0</ele>
        <time>2019-05-16T13:01:23.910Z</time>
      </trkpt>
      <trkpt lat="38.97202" lon="-8.97703833">
        <ele>1.0</ele>
        <time>2019-05-16T13:01:24.920Z</time>
      </trkpt>
      <trkpt lat="38.97202" lon="-8.97703833">
        <ele>1.0</ele>
        <time>2019-05-16T13:01:25.928Z</time>
      </trkpt>
      <trkpt lat="38.97205833" lon="-8.97710667">
        <ele>1.0</ele>
        <time>2019-05-16T13:01:26.900Z</time>
      </trkpt>
      <trkpt lat="38.97205833" lon="-8.97710667">
        <ele>1.0</ele>
        <time>2019-05-16T13:01:27.919Z</time>
      </trkpt>
      <trkpt lat="38.97210667" lon="-8.97716">
        <ele>1.0</ele>
        <time>2019-05-16T13:01:28.935Z</time>
      </trkpt>
      <trkpt lat="38.972135" lon="-8.97717833">
        <ele>1.0</ele>
        <time>2019-05-16T13:01:29.920Z</time>
      </trkpt>
      <trkpt lat="38.97216667" lon="-8.97719">
        <ele>1.0</ele>
        <time>2019-05-16T13:01:30.926Z</time>
      </trkpt>
      <trkpt lat="38.97216667" lon="-8.97719">
        <ele>1.0</ele>
        <time>2019-05-16T13:01:31.927Z</time>
      </trkpt>
      <trkpt lat="38.97223333" lon="-8.97718667">
        <ele>1.0</ele>
        <time>2019-05-16T13:01:32.899Z</time>
      </trkpt>
      <trkpt lat="38.97223333" lon="-8.97718667">
        <ele>1.0</ele>
        <time>2019-05-16T13:01:33.930Z</time>
      </trkpt>
      <trkpt lat="38.972295" lon="-8.97714333">
        <ele>0.0</ele>
        <time>2019-05-16T13:01:34.910Z</time>
      </trkpt>
      <trkpt lat="38.972295" lon="-8.97714333">
        <ele>0.0</ele>
        <time>2019-05-16T13:01:35.933Z</time>
      </trkpt>
      <trkpt lat="38.97235" lon="-8.97708833">
        <ele>1.0</ele>
        <time>2019-05-16T13:01:36.912Z</time>
      </trkpt>
      <trkpt lat="38.97235" lon="-8.97708833">
        <ele>1.0</ele>
        <time>2019-05-16T13:01:37.900Z</time>
      </trkpt>
      <trkpt lat="38.97240667" lon="-8.97703667">
        <ele>0.0</ele>
        <time>2019-05-16T13:01:38.908Z</time>
      </trkpt>
      <trkpt lat="38.97240667" lon="-8.97703667">
        <ele>0.0</ele>
        <time>2019-05-16T13:01:39.911Z</time>
      </trkpt>
      <trkpt lat="38.97246167" lon="-8.97699">
        <ele>0.0</ele>
        <time>2019-05-16T13:01:40.937Z</time>
      </trkpt>
      <trkpt lat="38.97249" lon="-8.97696833">
        <ele>0.0</ele>
        <time>2019-05-16T13:01:41.934Z</time>
      </trkpt>
      <trkpt lat="38.97251833" lon="-8.97694833">
        <ele>0.0</ele>
        <time>2019-05-16T13:01:42.908Z</time>
      </trkpt>
      <trkpt lat="38.97251833" lon="-8.97694833">
        <ele>0.0</ele>
        <time>2019-05-16T13:01:43.936Z</time>
      </trkpt>
      <trkpt lat="38.97257333" lon="-8.97691">
        <ele>0.0</ele>
        <time>2019-05-16T13:01:44.908Z</time>
      </trkpt>
      <trkpt lat="38.97257333" lon="-8.97691">
        <ele>0.0</ele>
        <time>2019-05-16T13:01:45.913Z</time>
      </trkpt>
      <trkpt lat="38.972625" lon="-8.97686667">
        <ele>0.0</ele>
        <time>2019-05-16T13:01:46.929Z</time>
      </trkpt>
      <trkpt lat="38.97265" lon="-8.976845">
        <ele>0.0</ele>
        <time>2019-05-16T13:01:47.928Z</time>
      </trkpt>
      <trkpt lat="38.97265" lon="-8.976845">
        <ele>0.0</ele>
        <time>2019-05-16T13:01:48.901Z</time>
      </trkpt>
      <trkpt lat="38.97270167" lon="-8.97680333">
        <ele>1.0</ele>
        <time>2019-05-16T13:01:49.910Z</time>
      </trkpt>
      <trkpt lat="38.97270167" lon="-8.97680333">
        <ele>1.0</ele>
        <time>2019-05-16T13:01:50.936Z</time>
      </trkpt>
      <trkpt lat="38.97275333" lon="-8.97676333">
        <ele>1.0</ele>
        <time>2019-05-16T13:01:51.906Z</time>
      </trkpt>
      <trkpt lat="38.97275333" lon="-8.97676333">
        <ele>1.0</ele>
        <time>2019-05-16T13:01:52.921Z</time>
      </trkpt>
      <trkpt lat="38.97280667" lon="-8.97672833">
        <ele>0.0</ele>
        <time>2019-05-16T13:01:53.910Z</time>
      </trkpt>
      <trkpt lat="38.97283333" lon="-8.97670667">
        <ele>1.0</ele>
        <time>2019-05-16T13:01:54.925Z</time>
      </trkpt>
      <trkpt lat="38.97283333" lon="-8.97670667">
        <ele>1.0</ele>
        <time>2019-05-16T13:01:55.917Z</time>
      </trkpt>
      <trkpt lat="38.97288833" lon="-8.97666833">
        <ele>1.0</ele>
        <time>2019-05-16T13:01:56.905Z</time>
      </trkpt>
      <trkpt lat="38.97288833" lon="-8.97666833">
        <ele>1.0</ele>
        <time>2019-05-16T13:01:57.931Z</time>
      </trkpt>
      <trkpt lat="38.97294667" lon="-8.976625">
        <ele>1.0</ele>
        <time>2019-05-16T13:01:58.930Z</time>
      </trkpt>
      <trkpt lat="38.97297667" lon="-8.97660167">
        <ele>1.0</ele>
        <time>2019-05-16T13:01:59.912Z</time>
      </trkpt>
      <trkpt lat="38.97300667" lon="-8.97658">
        <ele>1.0</ele>
        <time>2019-05-16T13:02:00.911Z</time>
      </trkpt>
      <trkpt lat="38.97300667" lon="-8.97658">
        <ele>1.0</ele>
        <time>2019-05-16T13:02:01.897Z</time>
      </trkpt>
      <trkpt lat="38.97306833" lon="-8.97654">
        <ele>1.0</ele>
        <time>2019-05-16T13:02:02.908Z</time>
      </trkpt>
      <trkpt lat="38.97306833" lon="-8.97654">
        <ele>1.0</ele>
        <time>2019-05-16T13:02:03.897Z</time>
      </trkpt>
      <trkpt lat="38.97313" lon="-8.97649667">
        <ele>1.0</ele>
        <time>2019-05-16T13:02:04.904Z</time>
      </trkpt>
      <trkpt lat="38.97315833" lon="-8.97647167">
        <ele>1.0</ele>
        <time>2019-05-16T13:02:05.919Z</time>
      </trkpt>
      <trkpt lat="38.97318833" lon="-8.97645">
        <ele>1.0</ele>
        <time>2019-05-16T13:02:06.905Z</time>
      </trkpt>
      <trkpt lat="38.97318833" lon="-8.97645">
        <ele>1.0</ele>
        <time>2019-05-16T13:02:07.926Z</time>
      </trkpt>
      <trkpt lat="38.97324833" lon="-8.976405">
        <ele>1.0</ele>
        <time>2019-05-16T13:02:08.911Z</time>
      </trkpt>
      <trkpt lat="38.97324833" lon="-8.976405">
        <ele>1.0</ele>
        <time>2019-05-16T13:02:09.911Z</time>
      </trkpt>
      <trkpt lat="38.97331167" lon="-8.97635667">
        <ele>1.0</ele>
        <time>2019-05-16T13:02:10.930Z</time>
      </trkpt>
      <trkpt lat="38.97331167" lon="-8.97635667">
        <ele>1.0</ele>
        <time>2019-05-16T13:02:11.929Z</time>
      </trkpt>
      <trkpt lat="38.97336833" lon="-8.97630667">
        <ele>1.0</ele>
        <time>2019-05-16T13:02:12.908Z</time>
      </trkpt>
      <trkpt lat="38.97336833" lon="-8.97630667">
        <ele>1.0</ele>
        <time>2019-05-16T13:02:13.912Z</time>
      </trkpt>
      <trkpt lat="38.97342833" lon="-8.97626333">
        <ele>1.0</ele>
        <time>2019-05-16T13:02:14.920Z</time>
      </trkpt>
      <trkpt lat="38.97342833" lon="-8.97626333">
        <ele>1.0</ele>
        <time>2019-05-16T13:02:15.901Z</time>
      </trkpt>
      <trkpt lat="38.97348833" lon="-8.97622">
        <ele>1.0</ele>
        <time>2019-05-16T13:02:16.912Z</time>
      </trkpt>
      <trkpt lat="38.97348833" lon="-8.97622">
        <ele>1.0</ele>
        <time>2019-05-16T13:02:17.907Z</time>
      </trkpt>
      <trkpt lat="38.97355" lon="-8.97617333">
        <ele>1.0</ele>
        <time>2019-05-16T13:02:18.922Z</time>
      </trkpt>
      <trkpt lat="38.97355" lon="-8.97617333">
        <ele>1.0</ele>
        <time>2019-05-16T13:02:19.918Z</time>
      </trkpt>
      <trkpt lat="38.973615" lon="-8.97613333">
        <ele>1.0</ele>
        <time>2019-05-16T13:02:20.901Z</time>
      </trkpt>
      <trkpt lat="38.973615" lon="-8.97613333">
        <ele>1.0</ele>
        <time>2019-05-16T13:02:21.926Z</time>
      </trkpt>
      <trkpt lat="38.97367667" lon="-8.97608333">
        <ele>1.0</ele>
        <time>2019-05-16T13:02:22.909Z</time>
      </trkpt>
      <trkpt lat="38.97367667" lon="-8.97608333">
        <ele>1.0</ele>
        <time>2019-05-16T13:02:23.899Z</time>
      </trkpt>
      <trkpt lat="38.97374167" lon="-8.97603667">
        <ele>2.0</ele>
        <time>2019-05-16T13:02:24.909Z</time>
      </trkpt>
      <trkpt lat="38.97374167" lon="-8.97603667">
        <ele>2.0</ele>
        <time>2019-05-16T13:02:25.915Z</time>
      </trkpt>
      <trkpt lat="38.97380667" lon="-8.97599">
        <ele>2.0</ele>
        <time>2019-05-16T13:02:26.905Z</time>
      </trkpt>
      <trkpt lat="38.97380667" lon="-8.97599">
        <ele>2.0</ele>
        <time>2019-05-16T13:02:27.901Z</time>
      </trkpt>
      <trkpt lat="38.97387167" lon="-8.97594333">
        <ele>2.0</ele>
        <time>2019-05-16T13:02:28.915Z</time>
      </trkpt>
      <trkpt lat="38.973905" lon="-8.97592167">
        <ele>2.0</ele>
        <time>2019-05-16T13:02:29.912Z</time>
      </trkpt>
      <trkpt lat="38.97393667" lon="-8.97589833">
        <ele>2.0</ele>
        <time>2019-05-16T13:02:30.905Z</time>
      </trkpt>
      <trkpt lat="38.97393667" lon="-8.97589833">
        <ele>2.0</ele>
        <time>2019-05-16T13:02:31.900Z</time>
      </trkpt>
      <trkpt lat="38.974" lon="-8.97585833">
        <ele>2.0</ele>
        <time>2019-05-16T13:02:32.911Z</time>
      </trkpt>
      <trkpt lat="38.974" lon="-8.97585833">
        <ele>2.0</ele>
        <time>2019-05-16T13:02:33.922Z</time>
      </trkpt>
      <trkpt lat="38.97406167" lon="-8.97581833">
        <ele>2.0</ele>
        <time>2019-05-16T13:02:34.950Z</time>
      </trkpt>
      <trkpt lat="38.97409167" lon="-8.97579667">
        <ele>2.0</ele>
        <time>2019-05-16T13:02:35.902Z</time>
      </trkpt>
      <trkpt lat="38.97412167" lon="-8.975775">
        <ele>2.0</ele>
        <time>2019-05-16T13:02:36.920Z</time>
      </trkpt>
      <trkpt lat="38.97412167" lon="-8.975775">
        <ele>2.0</ele>
        <time>2019-05-16T13:02:37.910Z</time>
      </trkpt>
      <trkpt lat="38.97412167" lon="-8.975775">
        <ele>2.0</ele>
        <time>2019-05-16T13:02:38.975Z</time>
      </trkpt>
      <trkpt lat="38.97417833" lon="-8.975725">
        <ele>2.0</ele>
        <time>2019-05-16T13:02:39.901Z</time>
      </trkpt>
      <trkpt lat="38.97423667" lon="-8.975685">
        <ele>2.0</ele>
        <time>2019-05-16T13:02:40.912Z</time>
      </trkpt>
      <trkpt lat="38.97426833" lon="-8.97566667">
        <ele>2.0</ele>
        <time>2019-05-16T13:02:41.906Z</time>
      </trkpt>
      <trkpt lat="38.9743" lon="-8.97564833">
        <ele>2.0</ele>
        <time>2019-05-16T13:02:42.928Z</time>
      </trkpt>
      <trkpt lat="38.9743" lon="-8.97564833">
        <ele>2.0</ele>
        <time>2019-05-16T13:02:43.897Z</time>
      </trkpt>
      <trkpt lat="38.97435833" lon="-8.97560667">
        <ele>2.0</ele>
        <time>2019-05-16T13:02:44.909Z</time>
      </trkpt>
      <trkpt lat="38.97438667" lon="-8.97558167">
        <ele>2.0</ele>
        <time>2019-05-16T13:02:45.922Z</time>
      </trkpt>
      <trkpt lat="38.97438667" lon="-8.97558167">
        <ele>2.0</ele>
        <time>2019-05-16T13:02:46.924Z</time>
      </trkpt>
      <trkpt lat="38.97444667" lon="-8.97553833">
        <ele>2.0</ele>
        <time>2019-05-16T13:02:47.932Z</time>
      </trkpt>
      <trkpt lat="38.97447667" lon="-8.97551833">
        <ele>2.0</ele>
        <time>2019-05-16T13:02:48.914Z</time>
      </trkpt>
      <trkpt lat="38.97447667" lon="-8.97551833">
        <ele>2.0</ele>
        <time>2019-05-16T13:02:49.911Z</time>
      </trkpt>
      <trkpt lat="38.97454" lon="-8.97548">
        <ele>2.0</ele>
        <time>2019-05-16T13:02:50.920Z</time>
      </trkpt>
      <trkpt lat="38.97454" lon="-8.97548">
        <ele>2.0</ele>
        <time>2019-05-16T13:02:51.916Z</time>
      </trkpt>
      <trkpt lat="38.97460167" lon="-8.97543667">
        <ele>2.0</ele>
        <time>2019-05-16T13:02:52.927Z</time>
      </trkpt>
      <trkpt lat="38.97460167" lon="-8.97543667">
        <ele>2.0</ele>
        <time>2019-05-16T13:02:53.915Z</time>
      </trkpt>
      <trkpt lat="38.974665" lon="-8.975395">
        <ele>2.0</ele>
        <time>2019-05-16T13:02:54.930Z</time>
      </trkpt>
      <trkpt lat="38.974665" lon="-8.975395">
        <ele>2.0</ele>
        <time>2019-05-16T13:02:55.917Z</time>
      </trkpt>
      <trkpt lat="38.97472833" lon="-8.97535167">
        <ele>2.0</ele>
        <time>2019-05-16T13:02:56.928Z</time>
      </trkpt>
      <trkpt lat="38.97475833" lon="-8.97532667">
        <ele>2.0</ele>
        <time>2019-05-16T13:02:57.906Z</time>
      </trkpt>
      <trkpt lat="38.97475833" lon="-8.97532667">
        <ele>2.0</ele>
        <time>2019-05-16T13:02:58.911Z</time>
      </trkpt>
      <trkpt lat="38.97481833" lon="-8.97527667">
        <ele>2.0</ele>
        <time>2019-05-16T13:02:59.920Z</time>
      </trkpt>
      <trkpt lat="38.97484833" lon="-8.97525833">
        <ele>2.0</ele>
        <time>2019-05-16T13:03:00.923Z</time>
      </trkpt>
      <trkpt lat="38.97484833" lon="-8.97525833">
        <ele>2.0</ele>
        <time>2019-05-16T13:03:01.905Z</time>
      </trkpt>
      <trkpt lat="38.97491167" lon="-8.97521667">
        <ele>2.0</ele>
        <time>2019-05-16T13:03:02.922Z</time>
      </trkpt>
      <trkpt lat="38.97491167" lon="-8.97521667">
        <ele>2.0</ele>
        <time>2019-05-16T13:03:03.917Z</time>
      </trkpt>
      <trkpt lat="38.974975" lon="-8.97517833">
        <ele>2.0</ele>
        <time>2019-05-16T13:03:04.925Z</time>
      </trkpt>
      <trkpt lat="38.974975" lon="-8.97517833">
        <ele>2.0</ele>
        <time>2019-05-16T13:03:05.910Z</time>
      </trkpt>
      <trkpt lat="38.97503667" lon="-8.97513667">
        <ele>2.0</ele>
        <time>2019-05-16T13:03:06.922Z</time>
      </trkpt>
      <trkpt lat="38.97503667" lon="-8.97513667">
        <ele>2.0</ele>
        <time>2019-05-16T13:03:07.911Z</time>
      </trkpt>
      <trkpt lat="38.975095" lon="-8.97509">
        <ele>2.0</ele>
        <time>2019-05-16T13:03:08.934Z</time>
      </trkpt>
      <trkpt lat="38.975095" lon="-8.97509">
        <ele>2.0</ele>
        <time>2019-05-16T13:03:09.914Z</time>
      </trkpt>
      <trkpt lat="38.975155" lon="-8.97504833">
        <ele>2.0</ele>
        <time>2019-05-16T13:03:10.924Z</time>
      </trkpt>
      <trkpt lat="38.97518667" lon="-8.97503">
        <ele>2.0</ele>
        <time>2019-05-16T13:03:11.922Z</time>
      </trkpt>
      <trkpt lat="38.97521667" lon="-8.97501167">
        <ele>2.0</ele>
        <time>2019-05-16T13:03:12.916Z</time>
      </trkpt>
      <trkpt lat="38.97521667" lon="-8.97501167">
        <ele>2.0</ele>
        <time>2019-05-16T13:03:13.921Z</time>
      </trkpt>
      <trkpt lat="38.975275" lon="-8.97497333">
        <ele>2.0</ele>
        <time>2019-05-16T13:03:14.930Z</time>
      </trkpt>
      <trkpt lat="38.975275" lon="-8.97497333">
        <ele>2.0</ele>
        <time>2019-05-16T13:03:15.909Z</time>
      </trkpt>
      <trkpt lat="38.975335" lon="-8.97493333">
        <ele>2.0</ele>
        <time>2019-05-16T13:03:16.920Z</time>
      </trkpt>
      <trkpt lat="38.975365" lon="-8.97491167">
        <ele>2.0</ele>
        <time>2019-05-16T13:03:17.932Z</time>
      </trkpt>
      <trkpt lat="38.975395" lon="-8.97489167">
        <ele>2.0</ele>
        <time>2019-05-16T13:03:18.930Z</time>
      </trkpt>
      <trkpt lat="38.975395" lon="-8.97489167">
        <ele>2.0</ele>
        <time>2019-05-16T13:03:19.907Z</time>
      </trkpt>
      <trkpt lat="38.97545667" lon="-8.97485333">
        <ele>2.0</ele>
        <time>2019-05-16T13:03:20.928Z</time>
      </trkpt>
      <trkpt lat="38.97545667" lon="-8.97485333">
        <ele>2.0</ele>
        <time>2019-05-16T13:03:21.912Z</time>
      </trkpt>
      <trkpt lat="38.97551667" lon="-8.97480833">
        <ele>2.0</ele>
        <time>2019-05-16T13:03:22.922Z</time>
      </trkpt>
      <trkpt lat="38.97551667" lon="-8.97480833">
        <ele>2.0</ele>
        <time>2019-05-16T13:03:23.901Z</time>
      </trkpt>
      <trkpt lat="38.97558" lon="-8.97476333">
        <ele>2.0</ele>
        <time>2019-05-16T13:03:24.913Z</time>
      </trkpt>
      <trkpt lat="38.97558" lon="-8.97476333">
        <ele>2.0</ele>
        <time>2019-05-16T13:03:25.897Z</time>
      </trkpt>
      <trkpt lat="38.975645" lon="-8.97472">
        <ele>2.0</ele>
        <time>2019-05-16T13:03:26.910Z</time>
      </trkpt>
      <trkpt lat="38.975645" lon="-8.97472">
        <ele>2.0</ele>
        <time>2019-05-16T13:03:27.897Z</time>
      </trkpt>
      <trkpt lat="38.97571" lon="-8.97467667">
        <ele>2.0</ele>
        <time>2019-05-16T13:03:28.908Z</time>
      </trkpt>
      <trkpt lat="38.97571" lon="-8.97467667">
        <ele>2.0</ele>
        <time>2019-05-16T13:03:29.899Z</time>
      </trkpt>
      <trkpt lat="38.975775" lon="-8.974635">
        <ele>2.0</ele>
        <time>2019-05-16T13:03:30.931Z</time>
      </trkpt>
      <trkpt lat="38.975775" lon="-8.974635">
        <ele>2.0</ele>
        <time>2019-05-16T13:03:31.902Z</time>
      </trkpt>
      <trkpt lat="38.97583667" lon="-8.97459">
        <ele>2.0</ele>
        <time>2019-05-16T13:03:32.913Z</time>
      </trkpt>
      <trkpt lat="38.97583667" lon="-8.97459">
        <ele>2.0</ele>
        <time>2019-05-16T13:03:33.903Z</time>
      </trkpt>
      <trkpt lat="38.97589833" lon="-8.97454333">
        <ele>2.0</ele>
        <time>2019-05-16T13:03:34.918Z</time>
      </trkpt>
      <trkpt lat="38.97592667" lon="-8.97452">
        <ele>2.0</ele>
        <time>2019-05-16T13:03:35.914Z</time>
      </trkpt>
      <trkpt lat="38.975955" lon="-8.9745">
        <ele>2.0</ele>
        <time>2019-05-16T13:03:36.933Z</time>
      </trkpt>
      <trkpt lat="38.975955" lon="-8.9745">
        <ele>2.0</ele>
        <time>2019-05-16T13:03:37.919Z</time>
      </trkpt>
      <trkpt lat="38.97600333" lon="-8.97445167">
        <ele>1.0</ele>
        <time>2019-05-16T13:03:38.932Z</time>
      </trkpt>
      <trkpt lat="38.97602" lon="-8.974425">
        <ele>2.0</ele>
        <time>2019-05-16T13:03:39.919Z</time>
      </trkpt>
      <trkpt lat="38.97602" lon="-8.974425">
        <ele>2.0</ele>
        <time>2019-05-16T13:03:40.922Z</time>
      </trkpt>
      <trkpt lat="38.97603333" lon="-8.974365">
        <ele>2.0</ele>
        <time>2019-05-16T13:03:41.940Z</time>
      </trkpt>
      <trkpt lat="38.97603333" lon="-8.974335">
        <ele>2.0</ele>
        <time>2019-05-16T13:03:42.900Z</time>
      </trkpt>
      <trkpt lat="38.97603333" lon="-8.974335">
        <ele>2.0</ele>
        <time>2019-05-16T13:03:43.910Z</time>
      </trkpt>
      <trkpt lat="38.97603" lon="-8.97427833">
        <ele>2.0</ele>
        <time>2019-05-16T13:03:44.917Z</time>
      </trkpt>
      <trkpt lat="38.97603" lon="-8.97427833">
        <ele>2.0</ele>
        <time>2019-05-16T13:03:45.917Z</time>
      </trkpt>
      <trkpt lat="38.97602333" lon="-8.97422333">
        <ele>2.0</ele>
        <time>2019-05-16T13:03:46.927Z</time>
      </trkpt>
      <trkpt lat="38.97602333" lon="-8.97422333">
        <ele>2.0</ele>
        <time>2019-05-16T13:03:47.898Z</time>
      </trkpt>
      <trkpt lat="38.97601" lon="-8.974175">
        <ele>2.0</ele>
        <time>2019-05-16T13:03:48.925Z</time>
      </trkpt>
      <trkpt lat="38.97601" lon="-8.974175">
        <ele>2.0</ele>
        <time>2019-05-16T13:03:49.920Z</time>
      </trkpt>
      <trkpt lat="38.97599167" lon="-8.97413167">
        <ele>4.0</ele>
        <time>2019-05-16T13:03:50.930Z</time>
      </trkpt>
      <trkpt lat="38.97599167" lon="-8.97413167">
        <ele>4.0</ele>
        <time>2019-05-16T13:03:51.897Z</time>
      </trkpt>
      <trkpt lat="38.97598167" lon="-8.97411">
        <ele>5.0</ele>
        <time>2019-05-16T13:03:52.908Z</time>
      </trkpt>
      <trkpt lat="38.97598167" lon="-8.97411">
        <ele>5.0</ele>
        <time>2019-05-16T13:03:53.900Z</time>
      </trkpt>
      <trkpt lat="38.975985" lon="-8.97409667">
        <ele>5.0</ele>
        <time>2019-05-16T13:03:54.923Z</time>
      </trkpt>
      <trkpt lat="38.975985" lon="-8.97409667">
        <ele>5.0</ele>
        <time>2019-05-16T13:03:55.923Z</time>
      </trkpt>
      <trkpt lat="38.97599333" lon="-8.97409667">
        <ele>6.0</ele>
        <time>2019-05-16T13:03:56.934Z</time>
      </trkpt>
      <trkpt lat="38.97599333" lon="-8.97409667">
        <ele>6.0</ele>
        <time>2019-05-16T13:03:57.901Z</time>
      </trkpt>
      <trkpt lat="38.97599333" lon="-8.97409667">
        <ele>6.0</ele>
        <time>2019-05-16T13:03:58.910Z</time>
      </trkpt>
      <trkpt lat="38.97599333" lon="-8.97409667">
        <ele>6.0</ele>
        <time>2019-05-16T13:03:59.905Z</time>
      </trkpt>
      <trkpt lat="38.97599333" lon="-8.97409667">
        <ele>6.0</ele>
        <time>2019-05-16T13:04:00.911Z</time>
      </trkpt>
      <trkpt lat="38.97599333" lon="-8.97409667">
        <ele>6.0</ele>
        <time>2019-05-16T13:04:01.917Z</time>
      </trkpt>
      <trkpt lat="38.97599333" lon="-8.97409667">
        <ele>6.0</ele>
        <time>2019-05-16T13:04:02.923Z</time>
      </trkpt>
      <trkpt lat="38.97599333" lon="-8.97409667">
        <ele>6.0</ele>
        <time>2019-05-16T13:04:03.929Z</time>
      </trkpt>
      <trkpt lat="38.97599333" lon="-8.97409667">
        <ele>6.0</ele>
        <time>2019-05-16T13:04:04.908Z</time>
      </trkpt>
      <trkpt lat="38.97599333" lon="-8.97409667">
        <ele>6.0</ele>
        <time>2019-05-16T13:04:05.911Z</time>
      </trkpt>
      <trkpt lat="38.976" lon="-8.97409167">
        <ele>7.0</ele>
        <time>2019-05-16T13:04:06.913Z</time>
      </trkpt>
      <trkpt lat="38.976" lon="-8.97409167">
        <ele>7.0</ele>
        <time>2019-05-16T13:04:07.906Z</time>
      </trkpt>
      <trkpt lat="38.976005" lon="-8.97406833">
        <ele>6.0</ele>
        <time>2019-05-16T13:04:08.926Z</time>
      </trkpt>
      <trkpt lat="38.976005" lon="-8.97406833">
        <ele>6.0</ele>
        <time>2019-05-16T13:04:09.912Z</time>
      </trkpt>
      <trkpt lat="38.97601" lon="-8.97405333">
        <ele>6.0</ele>
        <time>2019-05-16T13:04:10.912Z</time>
      </trkpt>
      <trkpt lat="38.97601" lon="-8.97405333">
        <ele>6.0</ele>
        <time>2019-05-16T13:04:11.907Z</time>
      </trkpt>
      <trkpt lat="38.97600833" lon="-8.97405167">
        <ele>6.0</ele>
        <time>2019-05-16T13:04:12.915Z</time>
      </trkpt>
      <trkpt lat="38.97600833" lon="-8.97405167">
        <ele>6.0</ele>
        <time>2019-05-16T13:04:13.905Z</time>
      </trkpt>
      <trkpt lat="38.97600833" lon="-8.97405167">
        <ele>6.0</ele>
        <time>2019-05-16T13:04:14.910Z</time>
      </trkpt>
      <trkpt lat="38.97600833" lon="-8.97405167">
        <ele>6.0</ele>
        <time>2019-05-16T13:04:15.905Z</time>
      </trkpt>
      <trkpt lat="38.97600833" lon="-8.97405167">
        <ele>6.0</ele>
        <time>2019-05-16T13:04:16.909Z</time>
      </trkpt>
      <trkpt lat="38.97600833" lon="-8.97405167">
        <ele>6.0</ele>
        <time>2019-05-16T13:04:17.930Z</time>
      </trkpt>
      <trkpt lat="38.97600833" lon="-8.97405167">
        <ele>6.0</ele>
        <time>2019-05-16T13:04:18.927Z</time>
      </trkpt>
      <trkpt lat="38.97600833" lon="-8.97405167">
        <ele>6.0</ele>
        <time>2019-05-16T13:04:19.912Z</time>
      </trkpt>
      <trkpt lat="38.97600833" lon="-8.97405167">
        <ele>6.0</ele>
        <time>2019-05-16T13:04:20.902Z</time>
      </trkpt>
      <trkpt lat="38.97600833" lon="-8.97405167">
        <ele>6.0</ele>
        <time>2019-05-16T13:04:21.923Z</time>
      </trkpt>
      <trkpt lat="38.97600833" lon="-8.97405167">
        <ele>6.0</ele>
        <time>2019-05-16T13:04:22.929Z</time>
      </trkpt>
      <trkpt lat="38.97600833" lon="-8.97405167">
        <ele>6.0</ele>
        <time>2019-05-16T13:04:23.906Z</time>
      </trkpt>
      <trkpt lat="38.97600833" lon="-8.97405167">
        <ele>6.0</ele>
        <time>2019-05-16T13:04:24.934Z</time>
      </trkpt>
      <trkpt lat="38.97600833" lon="-8.97405167">
        <ele>6.0</ele>
        <time>2019-05-16T13:04:25.924Z</time>
      </trkpt>
      <trkpt lat="38.97600833" lon="-8.97405167">
        <ele>6.0</ele>
        <time>2019-05-16T13:04:26.907Z</time>
      </trkpt>
      <trkpt lat="38.97600833" lon="-8.97405167">
        <ele>6.0</ele>
        <time>2019-05-16T13:04:27.907Z</time>
      </trkpt>
      <trkpt lat="38.97600833" lon="-8.97405167">
        <ele>6.0</ele>
        <time>2019-05-16T13:04:28.919Z</time>
      </trkpt>
      <trkpt lat="38.97600833" lon="-8.97405167">
        <ele>6.0</ele>
        <time>2019-05-16T13:04:29.910Z</time>
      </trkpt>
      <trkpt lat="38.97600833" lon="-8.97405167">
        <ele>6.0</ele>
        <time>2019-05-16T13:04:30.914Z</time>
      </trkpt>
      <trkpt lat="38.97600833" lon="-8.97405167">
        <ele>6.0</ele>
        <time>2019-05-16T13:04:31.906Z</time>
      </trkpt>
      <trkpt lat="38.97600833" lon="-8.97405167">
        <ele>6.0</ele>
        <time>2019-05-16T13:04:32.911Z</time>
      </trkpt>
      <trkpt lat="38.97600833" lon="-8.97405167">
        <ele>6.0</ele>
        <time>2019-05-16T13:04:33.908Z</time>
      </trkpt>
      <trkpt lat="38.97600833" lon="-8.97405167">
        <ele>6.0</ele>
        <time>2019-05-16T13:04:34.910Z</time>
      </trkpt>
      <trkpt lat="38.97600833" lon="-8.97405167">
        <ele>6.0</ele>
        <time>2019-05-16T13:04:35.906Z</time>
      </trkpt>
      <trkpt lat="38.97600833" lon="-8.97405167">
        <ele>6.0</ele>
        <time>2019-05-16T13:04:36.914Z</time>
      </trkpt>
      <trkpt lat="38.97600833" lon="-8.97405167">
        <ele>6.0</ele>
        <time>2019-05-16T13:04:37.906Z</time>
      </trkpt>
      <trkpt lat="38.97600833" lon="-8.97405167">
        <ele>6.0</ele>
        <time>2019-05-16T13:04:38.910Z</time>
      </trkpt>
      <trkpt lat="38.97600833" lon="-8.97405167">
        <ele>6.0</ele>
        <time>2019-05-16T13:04:39.912Z</time>
      </trkpt>
      <trkpt lat="38.97600833" lon="-8.97405167">
        <ele>6.0</ele>
        <time>2019-05-16T13:04:40.906Z</time>
      </trkpt>
      <trkpt lat="38.97600833" lon="-8.97405167">
        <ele>6.0</ele>
        <time>2019-05-16T13:04:41.911Z</time>
      </trkpt>
      <trkpt lat="38.97600833" lon="-8.97405167">
        <ele>6.0</ele>
        <time>2019-05-16T13:04:42.914Z</time>
      </trkpt>
      <trkpt lat="38.97600833" lon="-8.97405167">
        <ele>6.0</ele>
        <time>2019-05-16T13:04:43.906Z</time>
      </trkpt>
      <trkpt lat="38.97600833" lon="-8.97405167">
        <ele>6.0</ele>
        <time>2019-05-16T13:04:44.932Z</time>
      </trkpt>
      <trkpt lat="38.97600833" lon="-8.97405167">
        <ele>6.0</ele>
        <time>2019-05-16T13:04:45.917Z</time>
      </trkpt>
      <trkpt lat="38.97600833" lon="-8.97405167">
        <ele>6.0</ele>
        <time>2019-05-16T13:04:46.910Z</time>
      </trkpt>
      <trkpt lat="38.97600833" lon="-8.97405167">
        <ele>6.0</ele>
        <time>2019-05-16T13:04:47.905Z</time>
      </trkpt>
      <trkpt lat="38.97600833" lon="-8.97405167">
        <ele>6.0</ele>
        <time>2019-05-16T13:04:48.916Z</time>
      </trkpt>
      <trkpt lat="38.97600833" lon="-8.97405167">
        <ele>6.0</ele>
        <time>2019-05-16T13:04:49.908Z</time>
      </trkpt>
      <trkpt lat="38.97600833" lon="-8.97405167">
        <ele>6.0</ele>
        <time>2019-05-16T13:04:50.910Z</time>
      </trkpt>
      <trkpt lat="38.97600833" lon="-8.97405167">
        <ele>6.0</ele>
        <time>2019-05-16T13:04:51.911Z</time>
      </trkpt>
      <trkpt lat="38.97600833" lon="-8.97405167">
        <ele>6.0</ele>
        <time>2019-05-16T13:04:52.905Z</time>
      </trkpt>
      <trkpt lat="38.97600833" lon="-8.97405167">
        <ele>6.0</ele>
        <time>2019-05-16T13:04:53.911Z</time>
      </trkpt>
      <trkpt lat="38.97600833" lon="-8.97405167">
        <ele>6.0</ele>
        <time>2019-05-16T13:04:54.914Z</time>
      </trkpt>
      <trkpt lat="38.97600833" lon="-8.97405167">
        <ele>6.0</ele>
        <time>2019-05-16T13:04:55.911Z</time>
      </trkpt>
      <trkpt lat="38.97600833" lon="-8.97405167">
        <ele>6.0</ele>
        <time>2019-05-16T13:04:56.906Z</time>
      </trkpt>
      <trkpt lat="38.97600833" lon="-8.97405167">
        <ele>6.0</ele>
        <time>2019-05-16T13:04:57.931Z</time>
      </trkpt>
      <trkpt lat="38.97600833" lon="-8.97405167">
        <ele>6.0</ele>
        <time>2019-05-16T13:04:58.927Z</time>
      </trkpt>
      <trkpt lat="38.97600833" lon="-8.97405167">
        <ele>6.0</ele>
        <time>2019-05-16T13:04:59.912Z</time>
      </trkpt>
      <trkpt lat="38.97600833" lon="-8.97405167">
        <ele>6.0</ele>
        <time>2019-05-16T13:05:00.914Z</time>
      </trkpt>
      <trkpt lat="38.97600833" lon="-8.97405167">
        <ele>6.0</ele>
        <time>2019-05-16T13:05:01.906Z</time>
      </trkpt>
      <trkpt lat="38.97600833" lon="-8.97405167">
        <ele>6.0</ele>
        <time>2019-05-16T13:05:02.911Z</time>
      </trkpt>
      <trkpt lat="38.97600833" lon="-8.97405167">
        <ele>6.0</ele>
        <time>2019-05-16T13:05:03.916Z</time>
      </trkpt>
      <trkpt lat="38.97600833" lon="-8.97405167">
        <ele>6.0</ele>
        <time>2019-05-16T13:05:04.909Z</time>
      </trkpt>
      <trkpt lat="38.97600833" lon="-8.97405167">
        <ele>6.0</ele>
        <time>2019-05-16T13:05:05.905Z</time>
      </trkpt>
      <trkpt lat="38.97600833" lon="-8.97405167">
        <ele>6.0</ele>
        <time>2019-05-16T13:05:06.910Z</time>
      </trkpt>
      <trkpt lat="38.97600833" lon="-8.97405167">
        <ele>6.0</ele>
        <time>2019-05-16T13:05:07.904Z</time>
      </trkpt>
      <trkpt lat="38.97600833" lon="-8.97405167">
        <ele>6.0</ele>
        <time>2019-05-16T13:05:08.913Z</time>
      </trkpt>
      <trkpt lat="38.97600833" lon="-8.97405167">
        <ele>6.0</ele>
        <time>2019-05-16T13:05:09.906Z</time>
      </trkpt>
      <trkpt lat="38.97600833" lon="-8.97405167">
        <ele>6.0</ele>
        <time>2019-05-16T13:05:10.910Z</time>
      </trkpt>
      <trkpt lat="38.97600833" lon="-8.97405167">
        <ele>6.0</ele>
        <time>2019-05-16T13:05:11.905Z</time>
      </trkpt>
      <trkpt lat="38.97600833" lon="-8.97405167">
        <ele>6.0</ele>
        <time>2019-05-16T13:05:12.913Z</time>
      </trkpt>
      <trkpt lat="38.97600833" lon="-8.97405167">
        <ele>6.0</ele>
        <time>2019-05-16T13:05:13.905Z</time>
      </trkpt>
      <trkpt lat="38.97600833" lon="-8.97405167">
        <ele>6.0</ele>
        <time>2019-05-16T13:05:14.931Z</time>
      </trkpt>
      <trkpt lat="38.97600833" lon="-8.97405167">
        <ele>6.0</ele>
        <time>2019-05-16T13:05:15.916Z</time>
      </trkpt>
      <trkpt lat="38.97600833" lon="-8.97405167">
        <ele>6.0</ele>
        <time>2019-05-16T13:05:16.905Z</time>
      </trkpt>
      <trkpt lat="38.97600833" lon="-8.97405167">
        <ele>6.0</ele>
        <time>2019-05-16T13:05:17.930Z</time>
      </trkpt>
      <trkpt lat="38.97600833" lon="-8.97405167">
        <ele>6.0</ele>
        <time>2019-05-16T13:05:18.926Z</time>
      </trkpt>
      <trkpt lat="38.97600833" lon="-8.97405167">
        <ele>6.0</ele>
        <time>2019-05-16T13:05:19.910Z</time>
      </trkpt>
      <trkpt lat="38.97600833" lon="-8.97405167">
        <ele>6.0</ele>
        <time>2019-05-16T13:05:20.912Z</time>
      </trkpt>
      <trkpt lat="38.97600833" lon="-8.97405167">
        <ele>6.0</ele>
        <time>2019-05-16T13:05:21.914Z</time>
      </trkpt>
      <trkpt lat="38.97600833" lon="-8.97405167">
        <ele>6.0</ele>
        <time>2019-05-16T13:05:22.920Z</time>
      </trkpt>
      <trkpt lat="38.97600833" lon="-8.97405167">
        <ele>6.0</ele>
        <time>2019-05-16T13:05:23.926Z</time>
      </trkpt>
      <trkpt lat="38.97600833" lon="-8.97405167">
        <ele>6.0</ele>
        <time>2019-05-16T13:05:24.912Z</time>
      </trkpt>
      <trkpt lat="38.97600833" lon="-8.97405167">
        <ele>6.0</ele>
        <time>2019-05-16T13:05:25.916Z</time>
      </trkpt>
      <trkpt lat="38.97600833" lon="-8.97405167">
        <ele>6.0</ele>
        <time>2019-05-16T13:05:26.907Z</time>
      </trkpt>
      <trkpt lat="38.97600833" lon="-8.97405167">
        <ele>6.0</ele>
        <time>2019-05-16T13:05:27.913Z</time>
      </trkpt>
      <trkpt lat="38.97600833" lon="-8.97405167">
        <ele>6.0</ele>
        <time>2019-05-16T13:05:28.918Z</time>
      </trkpt>
      <trkpt lat="38.97600833" lon="-8.97405167">
        <ele>6.0</ele>
        <time>2019-05-16T13:05:29.924Z</time>
      </trkpt>
      <trkpt lat="38.97600833" lon="-8.97405167">
        <ele>6.0</ele>
        <time>2019-05-16T13:05:30.913Z</time>
      </trkpt>
      <trkpt lat="38.97600833" lon="-8.97405167">
        <ele>6.0</ele>
        <time>2019-05-16T13:05:31.906Z</time>
      </trkpt>
      <trkpt lat="38.97600833" lon="-8.97405167">
        <ele>6.0</ele>
        <time>2019-05-16T13:05:32.928Z</time>
      </trkpt>
      <trkpt lat="38.97600833" lon="-8.97405167">
        <ele>6.0</ele>
        <time>2019-05-16T13:05:33.908Z</time>
      </trkpt>
      <trkpt lat="38.97600833" lon="-8.97405167">
        <ele>6.0</ele>
        <time>2019-05-16T13:05:34.911Z</time>
      </trkpt>
      <trkpt lat="38.97600833" lon="-8.97405167">
        <ele>6.0</ele>
        <time>2019-05-16T13:05:35.911Z</time>
      </trkpt>
      <trkpt lat="38.97600833" lon="-8.97405167">
        <ele>6.0</ele>
        <time>2019-05-16T13:05:36.914Z</time>
      </trkpt>
      <trkpt lat="38.97600833" lon="-8.97405167">
        <ele>6.0</ele>
        <time>2019-05-16T13:05:37.905Z</time>
      </trkpt>
      <trkpt lat="38.97600833" lon="-8.97405167">
        <ele>6.0</ele>
        <time>2019-05-16T13:05:38.921Z</time>
      </trkpt>
      <trkpt lat="38.97600833" lon="-8.97405167">
        <ele>6.0</ele>
        <time>2019-05-16T13:05:39.908Z</time>
      </trkpt>
      <trkpt lat="38.97600833" lon="-8.97405167">
        <ele>6.0</ele>
        <time>2019-05-16T13:05:40.911Z</time>
      </trkpt>
      <trkpt lat="38.97600833" lon="-8.97405167">
        <ele>6.0</ele>
        <time>2019-05-16T13:05:41.926Z</time>
      </trkpt>
      <trkpt lat="38.97600833" lon="-8.97405167">
        <ele>6.0</ele>
        <time>2019-05-16T13:05:42.932Z</time>
      </trkpt>
      <trkpt lat="38.97600833" lon="-8.97405167">
        <ele>6.0</ele>
        <time>2019-05-16T13:05:43.899Z</time>
      </trkpt>
      <trkpt lat="38.97600833" lon="-8.97405167">
        <ele>6.0</ele>
        <time>2019-05-16T13:05:44.911Z</time>
      </trkpt>
      <trkpt lat="38.97600833" lon="-8.97405167">
        <ele>6.0</ele>
        <time>2019-05-16T13:05:45.906Z</time>
      </trkpt>
      <trkpt lat="38.97600833" lon="-8.97405167">
        <ele>6.0</ele>
        <time>2019-05-16T13:05:46.910Z</time>
      </trkpt>
      <trkpt lat="38.97600833" lon="-8.97405167">
        <ele>6.0</ele>
        <time>2019-05-16T13:05:47.905Z</time>
      </trkpt>
      <trkpt lat="38.97600833" lon="-8.97405167">
        <ele>6.0</ele>
        <time>2019-05-16T13:05:48.927Z</time>
      </trkpt>
      <trkpt lat="38.97600833" lon="-8.97405167">
        <ele>6.0</ele>
        <time>2019-05-16T13:05:49.912Z</time>
      </trkpt>
      <trkpt lat="38.97600833" lon="-8.97405167">
        <ele>6.0</ele>
        <time>2019-05-16T13:05:50.911Z</time>
      </trkpt>
      <trkpt lat="38.97600833" lon="-8.97405167">
        <ele>6.0</ele>
        <time>2019-05-16T13:05:51.906Z</time>
      </trkpt>
      <trkpt lat="38.97600833" lon="-8.97405167">
        <ele>6.0</ele>
        <time>2019-05-16T13:05:52.911Z</time>
      </trkpt>
      <trkpt lat="38.97600833" lon="-8.97405167">
        <ele>6.0</ele>
        <time>2019-05-16T13:05:53.905Z</time>
      </trkpt>
      <trkpt lat="38.97600833" lon="-8.97405167">
        <ele>6.0</ele>
        <time>2019-05-16T13:05:54.913Z</time>
      </trkpt>
      <trkpt lat="38.97600833" lon="-8.97405167">
        <ele>6.0</ele>
        <time>2019-05-16T13:05:55.906Z</time>
      </trkpt>
      <trkpt lat="38.97600833" lon="-8.97405167">
        <ele>6.0</ele>
        <time>2019-05-16T13:05:56.925Z</time>
      </trkpt>
      <trkpt lat="38.97600833" lon="-8.97405167">
        <ele>6.0</ele>
        <time>2019-05-16T13:05:57.911Z</time>
      </trkpt>
      <trkpt lat="38.97600833" lon="-8.97405167">
        <ele>6.0</ele>
        <time>2019-05-16T13:05:58.911Z</time>
      </trkpt>
      <trkpt lat="38.97600833" lon="-8.97405167">
        <ele>6.0</ele>
        <time>2019-05-16T13:05:59.906Z</time>
      </trkpt>
      <trkpt lat="38.97600833" lon="-8.97405167">
        <ele>6.0</ele>
        <time>2019-05-16T13:06:00.915Z</time>
      </trkpt>
      <trkpt lat="38.97600833" lon="-8.97405167">
        <ele>6.0</ele>
        <time>2019-05-16T13:06:01.905Z</time>
      </trkpt>
      <trkpt lat="38.97600833" lon="-8.97405167">
        <ele>6.0</ele>
        <time>2019-05-16T13:06:02.911Z</time>
      </trkpt>
      <trkpt lat="38.97600833" lon="-8.97405167">
        <ele>6.0</ele>
        <time>2019-05-16T13:06:03.912Z</time>
      </trkpt>
      <trkpt lat="38.97600833" lon="-8.97405167">
        <ele>6.0</ele>
        <time>2019-05-16T13:06:04.906Z</time>
      </trkpt>
      <trkpt lat="38.97600833" lon="-8.97405167">
        <ele>6.0</ele>
        <time>2019-05-16T13:06:05.910Z</time>
      </trkpt>
      <trkpt lat="38.97600833" lon="-8.97405167">
        <ele>6.0</ele>
        <time>2019-05-16T13:06:06.912Z</time>
      </trkpt>
      <trkpt lat="38.97600833" lon="-8.97405167">
        <ele>6.0</ele>
        <time>2019-05-16T13:06:07.906Z</time>
      </trkpt>
      <trkpt lat="38.97600833" lon="-8.97405167">
        <ele>6.0</ele>
        <time>2019-05-16T13:06:08.912Z</time>
      </trkpt>
      <trkpt lat="38.97600833" lon="-8.97405167">
        <ele>6.0</ele>
        <time>2019-05-16T13:06:09.910Z</time>
      </trkpt>
      <trkpt lat="38.97600833" lon="-8.97405167">
        <ele>6.0</ele>
        <time>2019-05-16T13:06:10.924Z</time>
      </trkpt>
      <trkpt lat="38.97600833" lon="-8.97405167">
        <ele>6.0</ele>
        <time>2019-05-16T13:06:11.912Z</time>
      </trkpt>
      <trkpt lat="38.97600833" lon="-8.97405167">
        <ele>6.0</ele>
        <time>2019-05-16T13:06:12.908Z</time>
      </trkpt>
      <trkpt lat="38.97600833" lon="-8.97405167">
        <ele>6.0</ele>
        <time>2019-05-16T13:06:13.910Z</time>
      </trkpt>
      <trkpt lat="38.97600833" lon="-8.97405167">
        <ele>6.0</ele>
        <time>2019-05-16T13:06:14.906Z</time>
      </trkpt>
      <trkpt lat="38.97600833" lon="-8.97405167">
        <ele>6.0</ele>
        <time>2019-05-16T13:06:15.911Z</time>
      </trkpt>
      <trkpt lat="38.97600833" lon="-8.97405167">
        <ele>6.0</ele>
        <time>2019-05-16T13:06:16.906Z</time>
      </trkpt>
      <trkpt lat="38.97600833" lon="-8.97405167">
        <ele>6.0</ele>
        <time>2019-05-16T13:06:17.911Z</time>
      </trkpt>
      <trkpt lat="38.97600833" lon="-8.97405167">
        <ele>6.0</ele>
        <time>2019-05-16T13:06:18.913Z</time>
      </trkpt>
      <trkpt lat="38.97600833" lon="-8.97405167">
        <ele>6.0</ele>
        <time>2019-05-16T13:06:19.906Z</time>
      </trkpt>
      <trkpt lat="38.97600833" lon="-8.97405167">
        <ele>6.0</ele>
        <time>2019-05-16T13:06:20.921Z</time>
      </trkpt>
      <trkpt lat="38.97600833" lon="-8.97405167">
        <ele>6.0</ele>
        <time>2019-05-16T13:06:21.911Z</time>
      </trkpt>
      <trkpt lat="38.97600833" lon="-8.97405167">
        <ele>6.0</ele>
        <time>2019-05-16T13:06:22.917Z</time>
      </trkpt>
      <trkpt lat="38.97600833" lon="-8.97405167">
        <ele>6.0</ele>
        <time>2019-05-16T13:06:23.924Z</time>
      </trkpt>
      <trkpt lat="38.97600833" lon="-8.97405167">
        <ele>6.0</ele>
        <time>2019-05-16T13:06:24.934Z</time>
      </trkpt>
      <trkpt lat="38.97600833" lon="-8.97405167">
        <ele>6.0</ele>
        <time>2019-05-16T13:06:25.917Z</time>
      </trkpt>
      <trkpt lat="38.97600833" lon="-8.97405167">
        <ele>6.0</ele>
        <time>2019-05-16T13:06:26.911Z</time>
      </trkpt>
      <trkpt lat="38.97600833" lon="-8.97405167">
        <ele>6.0</ele>
        <time>2019-05-16T13:06:27.920Z</time>
      </trkpt>
      <trkpt lat="38.97600833" lon="-8.97405167">
        <ele>6.0</ele>
        <time>2019-05-16T13:06:28.928Z</time>
      </trkpt>
      <trkpt lat="38.97600833" lon="-8.97405167">
        <ele>6.0</ele>
        <time>2019-05-16T13:06:29.913Z</time>
      </trkpt>
      <trkpt lat="38.97600833" lon="-8.97405167">
        <ele>6.0</ele>
        <time>2019-05-16T13:06:30.914Z</time>
      </trkpt>
      <trkpt lat="38.97600833" lon="-8.97405167">
        <ele>6.0</ele>
        <time>2019-05-16T13:06:31.906Z</time>
      </trkpt>
      <trkpt lat="38.97600833" lon="-8.97405167">
        <ele>6.0</ele>
        <time>2019-05-16T13:06:32.910Z</time>
      </trkpt>
      <trkpt lat="38.97600833" lon="-8.97405167">
        <ele>6.0</ele>
        <time>2019-05-16T13:06:33.908Z</time>
      </trkpt>
      <trkpt lat="38.97600833" lon="-8.97405167">
        <ele>6.0</ele>
        <time>2019-05-16T13:06:34.911Z</time>
      </trkpt>
      <trkpt lat="38.97600833" lon="-8.97405167">
        <ele>6.0</ele>
        <time>2019-05-16T13:06:35.905Z</time>
      </trkpt>
      <trkpt lat="38.97600833" lon="-8.97405167">
        <ele>6.0</ele>
        <time>2019-05-16T13:06:36.913Z</time>
      </trkpt>
      <trkpt lat="38.97600833" lon="-8.97405167">
        <ele>6.0</ele>
        <time>2019-05-16T13:06:37.908Z</time>
      </trkpt>
      <trkpt lat="38.97600833" lon="-8.97405167">
        <ele>6.0</ele>
        <time>2019-05-16T13:06:38.917Z</time>
      </trkpt>
      <trkpt lat="38.97600833" lon="-8.97405167">
        <ele>6.0</ele>
        <time>2019-05-16T13:06:39.906Z</time>
      </trkpt>
      <trkpt lat="38.97600833" lon="-8.97405167">
        <ele>6.0</ele>
        <time>2019-05-16T13:06:40.908Z</time>
      </trkpt>
      <trkpt lat="38.97600833" lon="-8.97405167">
        <ele>6.0</ele>
        <time>2019-05-16T13:06:41.906Z</time>
      </trkpt>
      <trkpt lat="38.97600833" lon="-8.97405167">
        <ele>6.0</ele>
        <time>2019-05-16T13:06:42.913Z</time>
      </trkpt>
      <trkpt lat="38.97600833" lon="-8.97405167">
        <ele>6.0</ele>
        <time>2019-05-16T13:06:43.906Z</time>
      </trkpt>
      <trkpt lat="38.97600833" lon="-8.97405167">
        <ele>6.0</ele>
        <time>2019-05-16T13:06:44.932Z</time>
      </trkpt>
      <trkpt lat="38.97600833" lon="-8.97405167">
        <ele>6.0</ele>
        <time>2019-05-16T13:06:45.930Z</time>
      </trkpt>
      <trkpt lat="38.97600833" lon="-8.97405167">
        <ele>6.0</ele>
        <time>2019-05-16T13:06:46.916Z</time>
      </trkpt>
      <trkpt lat="38.97600833" lon="-8.97405167">
        <ele>6.0</ele>
        <time>2019-05-16T13:06:47.906Z</time>
      </trkpt>
      <trkpt lat="38.97600833" lon="-8.97405167">
        <ele>6.0</ele>
        <time>2019-05-16T13:06:48.918Z</time>
      </trkpt>
      <trkpt lat="38.97600833" lon="-8.97405167">
        <ele>6.0</ele>
        <time>2019-05-16T13:06:49.908Z</time>
      </trkpt>
      <trkpt lat="38.97600833" lon="-8.97405167">
        <ele>6.0</ele>
        <time>2019-05-16T13:06:50.917Z</time>
      </trkpt>
      <trkpt lat="38.97600833" lon="-8.97405167">
        <ele>6.0</ele>
        <time>2019-05-16T13:06:51.911Z</time>
      </trkpt>
      <trkpt lat="38.97600833" lon="-8.97405167">
        <ele>6.0</ele>
        <time>2019-05-16T13:06:52.906Z</time>
      </trkpt>
      <trkpt lat="38.97600833" lon="-8.97405167">
        <ele>6.0</ele>
        <time>2019-05-16T13:06:53.911Z</time>
      </trkpt>
      <trkpt lat="38.97600833" lon="-8.97405167">
        <ele>6.0</ele>
        <time>2019-05-16T13:06:54.913Z</time>
      </trkpt>
      <trkpt lat="38.97600833" lon="-8.97405167">
        <ele>6.0</ele>
        <time>2019-05-16T13:06:55.906Z</time>
      </trkpt>
      <trkpt lat="38.97600833" lon="-8.97405167">
        <ele>6.0</ele>
        <time>2019-05-16T13:06:56.909Z</time>
      </trkpt>
      <trkpt lat="38.97600833" lon="-8.97405167">
        <ele>6.0</ele>
        <time>2019-05-16T13:06:57.906Z</time>
      </trkpt>
      <trkpt lat="38.97600833" lon="-8.97405167">
        <ele>6.0</ele>
        <time>2019-05-16T13:06:58.915Z</time>
      </trkpt>
      <trkpt lat="38.97600833" lon="-8.97405167">
        <ele>6.0</ele>
        <time>2019-05-16T13:06:59.906Z</time>
      </trkpt>
      <trkpt lat="38.97600833" lon="-8.97405167">
        <ele>6.0</ele>
        <time>2019-05-16T13:07:00.910Z</time>
      </trkpt>
      <trkpt lat="38.97600833" lon="-8.97405167">
        <ele>6.0</ele>
        <time>2019-05-16T13:07:01.906Z</time>
      </trkpt>
      <trkpt lat="38.97600833" lon="-8.97405167">
        <ele>6.0</ele>
        <time>2019-05-16T13:07:02.912Z</time>
      </trkpt>
      <trkpt lat="38.97600833" lon="-8.97405167">
        <ele>6.0</ele>
        <time>2019-05-16T13:07:03.908Z</time>
      </trkpt>
      <trkpt lat="38.97600833" lon="-8.97405167">
        <ele>6.0</ele>
        <time>2019-05-16T13:07:04.911Z</time>
      </trkpt>
      <trkpt lat="38.97600833" lon="-8.97405167">
        <ele>6.0</ele>
        <time>2019-05-16T13:07:05.906Z</time>
      </trkpt>
      <trkpt lat="38.97600833" lon="-8.97405167">
        <ele>6.0</ele>
        <time>2019-05-16T13:07:06.914Z</time>
      </trkpt>
      <trkpt lat="38.97600833" lon="-8.97405167">
        <ele>6.0</ele>
        <time>2019-05-16T13:07:07.906Z</time>
      </trkpt>
      <trkpt lat="38.97600833" lon="-8.97405167">
        <ele>6.0</ele>
        <time>2019-05-16T13:07:08.909Z</time>
      </trkpt>
      <trkpt lat="38.97600833" lon="-8.97405167">
        <ele>6.0</ele>
        <time>2019-05-16T13:07:09.931Z</time>
      </trkpt>
      <trkpt lat="38.97600833" lon="-8.97405167">
        <ele>6.0</ele>
        <time>2019-05-16T13:07:10.913Z</time>
      </trkpt>
      <trkpt lat="38.97600833" lon="-8.97405167">
        <ele>6.0</ele>
        <time>2019-05-16T13:07:11.908Z</time>
      </trkpt>
      <trkpt lat="38.97600833" lon="-8.97405167">
        <ele>6.0</ele>
        <time>2019-05-16T13:07:12.908Z</time>
      </trkpt>
      <trkpt lat="38.97600833" lon="-8.97405167">
        <ele>6.0</ele>
        <time>2019-05-16T13:07:13.910Z</time>
      </trkpt>
      <trkpt lat="38.97600833" lon="-8.97405167">
        <ele>6.0</ele>
        <time>2019-05-16T13:07:14.908Z</time>
      </trkpt>
      <trkpt lat="38.97600833" lon="-8.97405167">
        <ele>6.0</ele>
        <time>2019-05-16T13:07:15.911Z</time>
      </trkpt>
      <trkpt lat="38.97600833" lon="-8.97405167">
        <ele>6.0</ele>
        <time>2019-05-16T13:07:16.906Z</time>
      </trkpt>
      <trkpt lat="38.97600833" lon="-8.97405167">
        <ele>6.0</ele>
        <time>2019-05-16T13:07:17.910Z</time>
      </trkpt>
      <trkpt lat="38.97600833" lon="-8.97405167">
        <ele>6.0</ele>
        <time>2019-05-16T13:07:18.930Z</time>
      </trkpt>
      <trkpt lat="38.97600833" lon="-8.97405167">
        <ele>6.0</ele>
        <time>2019-05-16T13:07:19.909Z</time>
      </trkpt>
      <trkpt lat="38.97600833" lon="-8.97405167">
        <ele>6.0</ele>
        <time>2019-05-16T13:07:20.923Z</time>
      </trkpt>
      <trkpt lat="38.97600833" lon="-8.97405167">
        <ele>6.0</ele>
        <time>2019-05-16T13:07:21.908Z</time>
      </trkpt>
      <trkpt lat="38.97600833" lon="-8.97405167">
        <ele>6.0</ele>
        <time>2019-05-16T13:07:22.915Z</time>
      </trkpt>
      <trkpt lat="38.97600833" lon="-8.97405167">
        <ele>6.0</ele>
        <time>2019-05-16T13:07:23.921Z</time>
      </trkpt>
      <trkpt lat="38.97600833" lon="-8.97405167">
        <ele>6.0</ele>
        <time>2019-05-16T13:07:24.914Z</time>
      </trkpt>
      <trkpt lat="38.97600833" lon="-8.97405167">
        <ele>6.0</ele>
        <time>2019-05-16T13:07:25.906Z</time>
      </trkpt>
      <trkpt lat="38.97601" lon="-8.97399333">
        <ele>8.0</ele>
        <time>2019-05-16T13:07:26.923Z</time>
      </trkpt>
      <trkpt lat="38.97601" lon="-8.97399333">
        <ele>8.0</ele>
        <time>2019-05-16T13:07:27.907Z</time>
      </trkpt>
      <trkpt lat="38.97601167" lon="-8.973955">
        <ele>8.0</ele>
        <time>2019-05-16T13:07:28.919Z</time>
      </trkpt>
      <trkpt lat="38.97600833" lon="-8.973935">
        <ele>8.0</ele>
        <time>2019-05-16T13:07:29.970Z</time>
      </trkpt>
      <trkpt lat="38.97600833" lon="-8.973935">
        <ele>8.0</ele>
        <time>2019-05-16T13:07:30.931Z</time>
      </trkpt>
      <trkpt lat="38.97601" lon="-8.97389">
        <ele>8.0</ele>
        <time>2019-05-16T13:07:31.899Z</time>
      </trkpt>
      <trkpt lat="38.97601" lon="-8.97389">
        <ele>8.0</ele>
        <time>2019-05-16T13:07:32.901Z</time>
      </trkpt>
      <trkpt lat="38.97601167" lon="-8.97383667">
        <ele>8.0</ele>
        <time>2019-05-16T13:07:33.910Z</time>
      </trkpt>
      <trkpt lat="38.97601167" lon="-8.97383667">
        <ele>8.0</ele>
        <time>2019-05-16T13:07:34.901Z</time>
      </trkpt>
      <trkpt lat="38.97601167" lon="-8.97377833">
        <ele>7.0</ele>
        <time>2019-05-16T13:07:35.910Z</time>
      </trkpt>
      <trkpt lat="38.97601" lon="-8.97374833">
        <ele>7.0</ele>
        <time>2019-05-16T13:07:36.901Z</time>
      </trkpt>
      <trkpt lat="38.97601" lon="-8.97374833">
        <ele>7.0</ele>
        <time>2019-05-16T13:07:37.910Z</time>
      </trkpt>
      <trkpt lat="38.97601333" lon="-8.97369">
        <ele>7.0</ele>
        <time>2019-05-16T13:07:38.919Z</time>
      </trkpt>
      <trkpt lat="38.97601333" lon="-8.97369">
        <ele>7.0</ele>
        <time>2019-05-16T13:07:39.932Z</time>
      </trkpt>
      <trkpt lat="38.97601833" lon="-8.97363">
        <ele>8.0</ele>
        <time>2019-05-16T13:07:40.904Z</time>
      </trkpt>
      <trkpt lat="38.97602333" lon="-8.9736">
        <ele>8.0</ele>
        <time>2019-05-16T13:07:41.930Z</time>
      </trkpt>
      <trkpt lat="38.97602333" lon="-8.9736">
        <ele>8.0</ele>
        <time>2019-05-16T13:07:42.934Z</time>
      </trkpt>
      <trkpt lat="38.97603167" lon="-8.973535">
        <ele>8.0</ele>
        <time>2019-05-16T13:07:43.904Z</time>
      </trkpt>
      <trkpt lat="38.976035" lon="-8.97350333">
        <ele>8.0</ele>
        <time>2019-05-16T13:07:44.899Z</time>
      </trkpt>
      <trkpt lat="38.976035" lon="-8.97350333">
        <ele>8.0</ele>
        <time>2019-05-16T13:07:45.931Z</time>
      </trkpt>
      <trkpt lat="38.97604167" lon="-8.97343167">
        <ele>8.0</ele>
        <time>2019-05-16T13:07:46.909Z</time>
      </trkpt>
      <trkpt lat="38.97604167" lon="-8.97343167">
        <ele>8.0</ele>
        <time>2019-05-16T13:07:47.898Z</time>
      </trkpt>
      <trkpt lat="38.97604833" lon="-8.97335833">
        <ele>8.0</ele>
        <time>2019-05-16T13:07:48.916Z</time>
      </trkpt>
      <trkpt lat="38.97604833" lon="-8.97335833">
        <ele>8.0</ele>
        <time>2019-05-16T13:07:49.906Z</time>
      </trkpt>
      <trkpt lat="38.97606" lon="-8.973285">
        <ele>8.0</ele>
        <time>2019-05-16T13:07:50.914Z</time>
      </trkpt>
      <trkpt lat="38.97606" lon="-8.973285">
        <ele>8.0</ele>
        <time>2019-05-16T13:07:51.927Z</time>
      </trkpt>
      <trkpt lat="38.97608167" lon="-8.97321667">
        <ele>8.0</ele>
        <time>2019-05-16T13:07:52.907Z</time>
      </trkpt>
      <trkpt lat="38.97608167" lon="-8.97321667">
        <ele>8.0</ele>
        <time>2019-05-16T13:07:53.922Z</time>
      </trkpt>
      <trkpt lat="38.976115" lon="-8.97315167">
        <ele>7.0</ele>
        <time>2019-05-16T13:07:54.930Z</time>
      </trkpt>
      <trkpt lat="38.976115" lon="-8.97315167">
        <ele>7.0</ele>
        <time>2019-05-16T13:07:55.908Z</time>
      </trkpt>
      <trkpt lat="38.976145" lon="-8.973085">
        <ele>7.0</ele>
        <time>2019-05-16T13:07:56.922Z</time>
      </trkpt>
      <trkpt lat="38.976145" lon="-8.973085">
        <ele>7.0</ele>
        <time>2019-05-16T13:07:57.900Z</time>
      </trkpt>
      <trkpt lat="38.97616667" lon="-8.97301167">
        <ele>7.0</ele>
        <time>2019-05-16T13:07:58.909Z</time>
      </trkpt>
      <trkpt lat="38.97616667" lon="-8.97301167">
        <ele>7.0</ele>
        <time>2019-05-16T13:07:59.921Z</time>
      </trkpt>
      <trkpt lat="38.97619167" lon="-8.97293833">
        <ele>7.0</ele>
        <time>2019-05-16T13:08:00.908Z</time>
      </trkpt>
      <trkpt lat="38.97619167" lon="-8.97293833">
        <ele>7.0</ele>
        <time>2019-05-16T13:08:01.935Z</time>
      </trkpt>
      <trkpt lat="38.97621833" lon="-8.972865">
        <ele>7.0</ele>
        <time>2019-05-16T13:08:02.905Z</time>
      </trkpt>
      <trkpt lat="38.97621833" lon="-8.972865">
        <ele>7.0</ele>
        <time>2019-05-16T13:08:03.899Z</time>
      </trkpt>
      <trkpt lat="38.97625167" lon="-8.97279333">
        <ele>7.0</ele>
        <time>2019-05-16T13:08:04.912Z</time>
      </trkpt>
      <trkpt lat="38.97627167" lon="-8.97276">
        <ele>7.0</ele>
        <time>2019-05-16T13:08:05.913Z</time>
      </trkpt>
      <trkpt lat="38.976295" lon="-8.972725">
        <ele>7.0</ele>
        <time>2019-05-16T13:08:06.899Z</time>
      </trkpt>
      <trkpt lat="38.976295" lon="-8.972725">
        <ele>7.0</ele>
        <time>2019-05-16T13:08:07.904Z</time>
      </trkpt>
      <trkpt lat="38.976335" lon="-8.97266">
        <ele>7.0</ele>
        <time>2019-05-16T13:08:08.921Z</time>
      </trkpt>
      <trkpt lat="38.976335" lon="-8.97266">
        <ele>7.0</ele>
        <time>2019-05-16T13:08:09.902Z</time>
      </trkpt>
      <trkpt lat="38.97638167" lon="-8.972605">
        <ele>6.0</ele>
        <time>2019-05-16T13:08:10.920Z</time>
      </trkpt>
      <trkpt lat="38.97638167" lon="-8.972605">
        <ele>6.0</ele>
        <time>2019-05-16T13:08:11.901Z</time>
      </trkpt>
      <trkpt lat="38.97642833" lon="-8.97256167">
        <ele>6.0</ele>
        <time>2019-05-16T13:08:12.911Z</time>
      </trkpt>
      <trkpt lat="38.97642833" lon="-8.97256167">
        <ele>6.0</ele>
        <time>2019-05-16T13:08:13.897Z</time>
      </trkpt>
      <trkpt lat="38.976475" lon="-8.97252333">
        <ele>6.0</ele>
        <time>2019-05-16T13:08:14.936Z</time>
      </trkpt>
      <trkpt lat="38.976475" lon="-8.97252333">
        <ele>6.0</ele>
        <time>2019-05-16T13:08:15.903Z</time>
      </trkpt>
      <trkpt lat="38.97651667" lon="-8.97249">
        <ele>6.0</ele>
        <time>2019-05-16T13:08:16.915Z</time>
      </trkpt>
      <trkpt lat="38.97653667" lon="-8.972475">
        <ele>6.0</ele>
        <time>2019-05-16T13:08:17.930Z</time>
      </trkpt>
      <trkpt lat="38.97655667" lon="-8.97246167">
        <ele>6.0</ele>
        <time>2019-05-16T13:08:18.922Z</time>
      </trkpt>
      <trkpt lat="38.97655667" lon="-8.97246167">
        <ele>6.0</ele>
        <time>2019-05-16T13:08:19.898Z</time>
      </trkpt>
      <trkpt lat="38.97659667" lon="-8.972435">
        <ele>6.0</ele>
        <time>2019-05-16T13:08:20.921Z</time>
      </trkpt>
      <trkpt lat="38.97659667" lon="-8.972435">
        <ele>6.0</ele>
        <time>2019-05-16T13:08:21.932Z</time>
      </trkpt>
      <trkpt lat="38.97663667" lon="-8.97241">
        <ele>6.0</ele>
        <time>2019-05-16T13:08:22.906Z</time>
      </trkpt>
      <trkpt lat="38.97663667" lon="-8.97241">
        <ele>6.0</ele>
        <time>2019-05-16T13:08:23.918Z</time>
      </trkpt>
      <trkpt lat="38.97668167" lon="-8.97238167">
        <ele>5.0</ele>
        <time>2019-05-16T13:08:24.934Z</time>
      </trkpt>
      <trkpt lat="38.97668167" lon="-8.97238167">
        <ele>5.0</ele>
        <time>2019-05-16T13:08:25.898Z</time>
      </trkpt>
      <trkpt lat="38.97672833" lon="-8.97235333">
        <ele>5.0</ele>
        <time>2019-05-16T13:08:26.914Z</time>
      </trkpt>
      <trkpt lat="38.97672833" lon="-8.97235333">
        <ele>5.0</ele>
        <time>2019-05-16T13:08:27.916Z</time>
      </trkpt>
      <trkpt lat="38.97677167" lon="-8.97231667">
        <ele>5.0</ele>
        <time>2019-05-16T13:08:28.925Z</time>
      </trkpt>
      <trkpt lat="38.97677167" lon="-8.97231667">
        <ele>5.0</ele>
        <time>2019-05-16T13:08:29.930Z</time>
      </trkpt>
      <trkpt lat="38.976815" lon="-8.972285">
        <ele>5.0</ele>
        <time>2019-05-16T13:08:30.913Z</time>
      </trkpt>
      <trkpt lat="38.976815" lon="-8.972285">
        <ele>5.0</ele>
        <time>2019-05-16T13:08:31.902Z</time>
      </trkpt>
      <trkpt lat="38.97686167" lon="-8.97225833">
        <ele>5.0</ele>
        <time>2019-05-16T13:08:32.913Z</time>
      </trkpt>
      <trkpt lat="38.97686167" lon="-8.97225833">
        <ele>5.0</ele>
        <time>2019-05-16T13:08:33.912Z</time>
      </trkpt>
      <trkpt lat="38.97690833" lon="-8.97223333">
        <ele>4.0</ele>
        <time>2019-05-16T13:08:34.921Z</time>
      </trkpt>
      <trkpt lat="38.97690833" lon="-8.97223333">
        <ele>4.0</ele>
        <time>2019-05-16T13:08:35.925Z</time>
      </trkpt>
      <trkpt lat="38.97695" lon="-8.97219833">
        <ele>4.0</ele>
        <time>2019-05-16T13:08:36.936Z</time>
      </trkpt>
      <trkpt lat="38.97695" lon="-8.97219833">
        <ele>4.0</ele>
        <time>2019-05-16T13:08:37.919Z</time>
      </trkpt>
      <trkpt lat="38.97699667" lon="-8.97217333">
        <ele>4.0</ele>
        <time>2019-05-16T13:08:38.927Z</time>
      </trkpt>
      <trkpt lat="38.97699667" lon="-8.97217333">
        <ele>4.0</ele>
        <time>2019-05-16T13:08:39.901Z</time>
      </trkpt>
      <trkpt lat="38.97704333" lon="-8.97214">
        <ele>4.0</ele>
        <time>2019-05-16T13:08:40.913Z</time>
      </trkpt>
      <trkpt lat="38.97704333" lon="-8.97214">
        <ele>4.0</ele>
        <time>2019-05-16T13:08:41.925Z</time>
      </trkpt>
      <trkpt lat="38.97708833" lon="-8.97210667">
        <ele>4.0</ele>
        <time>2019-05-16T13:08:42.932Z</time>
      </trkpt>
      <trkpt lat="38.97708833" lon="-8.97210667">
        <ele>4.0</ele>
        <time>2019-05-16T13:08:43.899Z</time>
      </trkpt>
      <trkpt lat="38.97713167" lon="-8.97207667">
        <ele>4.0</ele>
        <time>2019-05-16T13:08:44.910Z</time>
      </trkpt>
      <trkpt lat="38.97713167" lon="-8.97207667">
        <ele>4.0</ele>
        <time>2019-05-16T13:08:45.914Z</time>
      </trkpt>
      <trkpt lat="38.97718" lon="-8.97205833">
        <ele>4.0</ele>
        <time>2019-05-16T13:08:46.929Z</time>
      </trkpt>
      <trkpt lat="38.97718" lon="-8.97205833">
        <ele>4.0</ele>
        <time>2019-05-16T13:08:47.915Z</time>
      </trkpt>
      <trkpt lat="38.97722167" lon="-8.97202833">
        <ele>4.0</ele>
        <time>2019-05-16T13:08:48.923Z</time>
      </trkpt>
      <trkpt lat="38.97722167" lon="-8.97202833">
        <ele>4.0</ele>
        <time>2019-05-16T13:08:49.911Z</time>
      </trkpt>
      <trkpt lat="38.97725833" lon="-8.971995">
        <ele>4.0</ele>
        <time>2019-05-16T13:08:50.911Z</time>
      </trkpt>
      <trkpt lat="38.97727667" lon="-8.97198">
        <ele>4.0</ele>
        <time>2019-05-16T13:08:51.900Z</time>
      </trkpt>
      <trkpt lat="38.97727667" lon="-8.97198">
        <ele>4.0</ele>
        <time>2019-05-16T13:08:52.911Z</time>
      </trkpt>
      <trkpt lat="38.97731667" lon="-8.97195833">
        <ele>4.0</ele>
        <time>2019-05-16T13:08:53.923Z</time>
      </trkpt>
      <trkpt lat="38.97733667" lon="-8.97194333">
        <ele>4.0</ele>
        <time>2019-05-16T13:08:54.927Z</time>
      </trkpt>
      <trkpt lat="38.97733667" lon="-8.97194333">
        <ele>4.0</ele>
        <time>2019-05-16T13:08:55.931Z</time>
      </trkpt>
      <trkpt lat="38.97738" lon="-8.97191333">
        <ele>4.0</ele>
        <time>2019-05-16T13:08:56.904Z</time>
      </trkpt>
      <trkpt lat="38.97738" lon="-8.97191333">
        <ele>4.0</ele>
        <time>2019-05-16T13:08:57.926Z</time>
      </trkpt>
      <trkpt lat="38.97742667" lon="-8.97188333">
        <ele>4.0</ele>
        <time>2019-05-16T13:08:58.934Z</time>
      </trkpt>
      <trkpt lat="38.97742667" lon="-8.97188333">
        <ele>4.0</ele>
        <time>2019-05-16T13:08:59.915Z</time>
      </trkpt>
      <trkpt lat="38.977475" lon="-8.97185">
        <ele>3.0</ele>
        <time>2019-05-16T13:09:00.898Z</time>
      </trkpt>
      <trkpt lat="38.977475" lon="-8.97185">
        <ele>3.0</ele>
        <time>2019-05-16T13:09:01.923Z</time>
      </trkpt>
      <trkpt lat="38.97752667" lon="-8.97182333">
        <ele>3.0</ele>
        <time>2019-05-16T13:09:02.934Z</time>
      </trkpt>
      <trkpt lat="38.97752667" lon="-8.97182333">
        <ele>3.0</ele>
        <time>2019-05-16T13:09:03.916Z</time>
      </trkpt>
      <trkpt lat="38.97757667" lon="-8.971795">
        <ele>3.0</ele>
        <time>2019-05-16T13:09:04.924Z</time>
      </trkpt>
      <trkpt lat="38.97757667" lon="-8.971795">
        <ele>3.0</ele>
        <time>2019-05-16T13:09:05.918Z</time>
      </trkpt>
      <trkpt lat="38.97762667" lon="-8.97176667">
        <ele>3.0</ele>
        <time>2019-05-16T13:09:06.932Z</time>
      </trkpt>
      <trkpt lat="38.97762667" lon="-8.97176667">
        <ele>3.0</ele>
        <time>2019-05-16T13:09:07.922Z</time>
      </trkpt>
      <trkpt lat="38.977675" lon="-8.971735">
        <ele>3.0</ele>
        <time>2019-05-16T13:09:08.902Z</time>
      </trkpt>
      <trkpt lat="38.97769833" lon="-8.97171667">
        <ele>3.0</ele>
        <time>2019-05-16T13:09:09.904Z</time>
      </trkpt>
      <trkpt lat="38.97769833" lon="-8.97171667">
        <ele>3.0</ele>
        <time>2019-05-16T13:09:10.904Z</time>
      </trkpt>
      <trkpt lat="38.977745" lon="-8.97168333">
        <ele>3.0</ele>
        <time>2019-05-16T13:09:11.925Z</time>
      </trkpt>
      <trkpt lat="38.97776667" lon="-8.97166667">
        <ele>3.0</ele>
        <time>2019-05-16T13:09:12.938Z</time>
      </trkpt>
      <trkpt lat="38.97776667" lon="-8.97166667">
        <ele>3.0</ele>
        <time>2019-05-16T13:09:13.926Z</time>
      </trkpt>
      <trkpt lat="38.97781" lon="-8.971635">
        <ele>3.0</ele>
        <time>2019-05-16T13:09:14.898Z</time>
      </trkpt>
      <trkpt lat="38.97781" lon="-8.971635">
        <ele>3.0</ele>
        <time>2019-05-16T13:09:15.903Z</time>
      </trkpt>
      <trkpt lat="38.97785667" lon="-8.9716">
        <ele>3.0</ele>
        <time>2019-05-16T13:09:16.912Z</time>
      </trkpt>
      <trkpt lat="38.97785667" lon="-8.9716">
        <ele>3.0</ele>
        <time>2019-05-16T13:09:17.913Z</time>
      </trkpt>
      <trkpt lat="38.977905" lon="-8.97156">
        <ele>2.0</ele>
        <time>2019-05-16T13:09:18.924Z</time>
      </trkpt>
      <trkpt lat="38.977905" lon="-8.97156">
        <ele>2.0</ele>
        <time>2019-05-16T13:09:19.912Z</time>
      </trkpt>
      <trkpt lat="38.977955" lon="-8.97152333">
        <ele>2.0</ele>
        <time>2019-05-16T13:09:20.926Z</time>
      </trkpt>
      <trkpt lat="38.977955" lon="-8.97152333">
        <ele>2.0</ele>
        <time>2019-05-16T13:09:21.927Z</time>
      </trkpt>
      <trkpt lat="38.97800333" lon="-8.97148667">
        <ele>2.0</ele>
        <time>2019-05-16T13:09:22.903Z</time>
      </trkpt>
      <trkpt lat="38.97800333" lon="-8.97148667">
        <ele>2.0</ele>
        <time>2019-05-16T13:09:23.900Z</time>
      </trkpt>
      <trkpt lat="38.97805" lon="-8.97145">
        <ele>2.0</ele>
        <time>2019-05-16T13:09:24.909Z</time>
      </trkpt>
      <trkpt lat="38.97805" lon="-8.97145">
        <ele>2.0</ele>
        <time>2019-05-16T13:09:25.920Z</time>
      </trkpt>
      <trkpt lat="38.97809667" lon="-8.971415">
        <ele>2.0</ele>
        <time>2019-05-16T13:09:26.931Z</time>
      </trkpt>
      <trkpt lat="38.97809667" lon="-8.971415">
        <ele>2.0</ele>
        <time>2019-05-16T13:09:27.923Z</time>
      </trkpt>
      <trkpt lat="38.978145" lon="-8.97138167">
        <ele>2.0</ele>
        <time>2019-05-16T13:09:28.919Z</time>
      </trkpt>
      <trkpt lat="38.97816667" lon="-8.97136333">
        <ele>2.0</ele>
        <time>2019-05-16T13:09:29.908Z</time>
      </trkpt>
      <trkpt lat="38.97819" lon="-8.97134333">
        <ele>2.0</ele>
        <time>2019-05-16T13:09:30.904Z</time>
      </trkpt>
      <trkpt lat="38.97819" lon="-8.97134333">
        <ele>2.0</ele>
        <time>2019-05-16T13:09:31.902Z</time>
      </trkpt>
      <trkpt lat="38.97824167" lon="-8.97130667">
        <ele>2.0</ele>
        <time>2019-05-16T13:09:32.920Z</time>
      </trkpt>
      <trkpt lat="38.97824167" lon="-8.97130667">
        <ele>2.0</ele>
        <time>2019-05-16T13:09:33.903Z</time>
      </trkpt>
      <trkpt lat="38.97829333" lon="-8.97126333">
        <ele>2.0</ele>
        <time>2019-05-16T13:09:34.913Z</time>
      </trkpt>
      <trkpt lat="38.97829333" lon="-8.97126333">
        <ele>2.0</ele>
        <time>2019-05-16T13:09:35.900Z</time>
      </trkpt>
      <trkpt lat="38.97834833" lon="-8.97122667">
        <ele>2.0</ele>
        <time>2019-05-16T13:09:36.917Z</time>
      </trkpt>
      <trkpt lat="38.97834833" lon="-8.97122667">
        <ele>2.0</ele>
        <time>2019-05-16T13:09:37.921Z</time>
      </trkpt>
      <trkpt lat="38.97840167" lon="-8.97118667">
        <ele>1.0</ele>
        <time>2019-05-16T13:09:38.931Z</time>
      </trkpt>
      <trkpt lat="38.97840167" lon="-8.97118667">
        <ele>1.0</ele>
        <time>2019-05-16T13:09:39.925Z</time>
      </trkpt>
      <trkpt lat="38.97845333" lon="-8.97113">
        <ele>1.0</ele>
        <time>2019-05-16T13:09:40.897Z</time>
      </trkpt>
      <trkpt lat="38.97847833" lon="-8.97109833">
        <ele>1.0</ele>
        <time>2019-05-16T13:09:41.902Z</time>
      </trkpt>
      <trkpt lat="38.978505" lon="-8.97107">
        <ele>1.0</ele>
        <time>2019-05-16T13:09:42.939Z</time>
      </trkpt>
      <trkpt lat="38.978505" lon="-8.97107">
        <ele>1.0</ele>
        <time>2019-05-16T13:09:43.899Z</time>
      </trkpt>
      <trkpt lat="38.978565" lon="-8.97103333">
        <ele>1.0</ele>
        <time>2019-05-16T13:09:44.910Z</time>
      </trkpt>
      <trkpt lat="38.978565" lon="-8.97103333">
        <ele>1.0</ele>
        <time>2019-05-16T13:09:45.912Z</time>
      </trkpt>
      <trkpt lat="38.97862833" lon="-8.97101333">
        <ele>1.0</ele>
        <time>2019-05-16T13:09:46.921Z</time>
      </trkpt>
      <trkpt lat="38.97862833" lon="-8.97101333">
        <ele>1.0</ele>
        <time>2019-05-16T13:09:47.903Z</time>
      </trkpt>
      <trkpt lat="38.97869" lon="-8.97100333">
        <ele>1.0</ele>
        <time>2019-05-16T13:09:48.919Z</time>
      </trkpt>
      <trkpt lat="38.97869" lon="-8.97100333">
        <ele>1.0</ele>
        <time>2019-05-16T13:09:49.904Z</time>
      </trkpt>
      <trkpt lat="38.97874667" lon="-8.970985">
        <ele>1.0</ele>
        <time>2019-05-16T13:09:50.934Z</time>
      </trkpt>
      <trkpt lat="38.97874667" lon="-8.970985">
        <ele>1.0</ele>
        <time>2019-05-16T13:09:51.900Z</time>
      </trkpt>
      <trkpt lat="38.97879833" lon="-8.970955">
        <ele>1.0</ele>
        <time>2019-05-16T13:09:52.911Z</time>
      </trkpt>
      <trkpt lat="38.97879833" lon="-8.970955">
        <ele>1.0</ele>
        <time>2019-05-16T13:09:53.916Z</time>
      </trkpt>
      <trkpt lat="38.97885167" lon="-8.97092667">
        <ele>1.0</ele>
        <time>2019-05-16T13:09:54.926Z</time>
      </trkpt>
      <trkpt lat="38.97885167" lon="-8.97092667">
        <ele>1.0</ele>
        <time>2019-05-16T13:09:55.924Z</time>
      </trkpt>
      <trkpt lat="38.978905" lon="-8.97089333">
        <ele>1.0</ele>
        <time>2019-05-16T13:09:56.910Z</time>
      </trkpt>
      <trkpt lat="38.978905" lon="-8.97089333">
        <ele>1.0</ele>
        <time>2019-05-16T13:09:57.898Z</time>
      </trkpt>
      <trkpt lat="38.97896" lon="-8.970855">
        <ele>1.0</ele>
        <time>2019-05-16T13:09:58.910Z</time>
      </trkpt>
      <trkpt lat="38.97896" lon="-8.970855">
        <ele>1.0</ele>
        <time>2019-05-16T13:09:59.921Z</time>
      </trkpt>
      <trkpt lat="38.97901333" lon="-8.97081167">
        <ele>1.0</ele>
        <time>2019-05-16T13:10:00.930Z</time>
      </trkpt>
      <trkpt lat="38.97901333" lon="-8.97081167">
        <ele>1.0</ele>
        <time>2019-05-16T13:10:01.898Z</time>
      </trkpt>
      <trkpt lat="38.97906833" lon="-8.97077833">
        <ele>1.0</ele>
        <time>2019-05-16T13:10:02.905Z</time>
      </trkpt>
      <trkpt lat="38.97906833" lon="-8.97077833">
        <ele>1.0</ele>
        <time>2019-05-16T13:10:03.930Z</time>
      </trkpt>
      <trkpt lat="38.97912167" lon="-8.97075167">
        <ele>1.0</ele>
        <time>2019-05-16T13:10:04.902Z</time>
      </trkpt>
      <trkpt lat="38.97915" lon="-8.97074167">
        <ele>1.0</ele>
        <time>2019-05-16T13:10:05.929Z</time>
      </trkpt>
      <trkpt lat="38.97917667" lon="-8.97073">
        <ele>1.0</ele>
        <time>2019-05-16T13:10:06.936Z</time>
      </trkpt>
      <trkpt lat="38.97917667" lon="-8.97073">
        <ele>1.0</ele>
        <time>2019-05-16T13:10:07.931Z</time>
      </trkpt>
      <trkpt lat="38.97923333" lon="-8.97071167">
        <ele>2.0</ele>
        <time>2019-05-16T13:10:08.903Z</time>
      </trkpt>
      <trkpt lat="38.97923333" lon="-8.97071167">
        <ele>2.0</ele>
        <time>2019-05-16T13:10:09.909Z</time>
      </trkpt>
      <trkpt lat="38.97929" lon="-8.97069833">
        <ele>2.0</ele>
        <time>2019-05-16T13:10:10.919Z</time>
      </trkpt>
      <trkpt lat="38.97929" lon="-8.97069833">
        <ele>2.0</ele>
        <time>2019-05-16T13:10:11.899Z</time>
      </trkpt>
      <trkpt lat="38.97934333" lon="-8.97068">
        <ele>2.0</ele>
        <time>2019-05-16T13:10:12.906Z</time>
      </trkpt>
      <trkpt lat="38.97934333" lon="-8.97068">
        <ele>2.0</ele>
        <time>2019-05-16T13:10:13.901Z</time>
      </trkpt>
      <trkpt lat="38.97939833" lon="-8.970655">
        <ele>2.0</ele>
        <time>2019-05-16T13:10:14.911Z</time>
      </trkpt>
      <trkpt lat="38.97939833" lon="-8.970655">
        <ele>2.0</ele>
        <time>2019-05-16T13:10:15.924Z</time>
      </trkpt>
      <trkpt lat="38.97945167" lon="-8.97062833">
        <ele>2.0</ele>
        <time>2019-05-16T13:10:16.937Z</time>
      </trkpt>
      <trkpt lat="38.97945167" lon="-8.97062833">
        <ele>2.0</ele>
        <time>2019-05-16T13:10:17.898Z</time>
      </trkpt>
      <trkpt lat="38.979505" lon="-8.97060167">
        <ele>2.0</ele>
        <time>2019-05-16T13:10:18.910Z</time>
      </trkpt>
      <trkpt lat="38.979505" lon="-8.97060167">
        <ele>2.0</ele>
        <time>2019-05-16T13:10:19.898Z</time>
      </trkpt>
      <trkpt lat="38.97955667" lon="-8.97057167">
        <ele>2.0</ele>
        <time>2019-05-16T13:10:20.931Z</time>
      </trkpt>
      <trkpt lat="38.97955667" lon="-8.97057167">
        <ele>2.0</ele>
        <time>2019-05-16T13:10:21.901Z</time>
      </trkpt>
      <trkpt lat="38.97961167" lon="-8.97054">
        <ele>2.0</ele>
        <time>2019-05-16T13:10:22.910Z</time>
      </trkpt>
      <trkpt lat="38.97961167" lon="-8.97054">
        <ele>2.0</ele>
        <time>2019-05-16T13:10:23.910Z</time>
      </trkpt>
      <trkpt lat="38.97967" lon="-8.97050667">
        <ele>2.0</ele>
        <time>2019-05-16T13:10:24.930Z</time>
      </trkpt>
      <trkpt lat="38.97967" lon="-8.97050667">
        <ele>2.0</ele>
        <time>2019-05-16T13:10:25.919Z</time>
      </trkpt>
      <trkpt lat="38.97972667" lon="-8.97047">
        <ele>2.0</ele>
        <time>2019-05-16T13:10:26.930Z</time>
      </trkpt>
      <trkpt lat="38.97972667" lon="-8.97047">
        <ele>2.0</ele>
        <time>2019-05-16T13:10:27.935Z</time>
      </trkpt>
      <trkpt lat="38.97978667" lon="-8.97043833">
        <ele>2.0</ele>
        <time>2019-05-16T13:10:28.917Z</time>
      </trkpt>
      <trkpt lat="38.97978667" lon="-8.97043833">
        <ele>2.0</ele>
        <time>2019-05-16T13:10:29.915Z</time>
      </trkpt>
      <trkpt lat="38.97984833" lon="-8.97039833">
        <ele>2.0</ele>
        <time>2019-05-16T13:10:30.925Z</time>
      </trkpt>
      <trkpt lat="38.97984833" lon="-8.97039833">
        <ele>2.0</ele>
        <time>2019-05-16T13:10:31.912Z</time>
      </trkpt>
      <trkpt lat="38.97991167" lon="-8.970365">
        <ele>2.0</ele>
        <time>2019-05-16T13:10:32.928Z</time>
      </trkpt>
      <trkpt lat="38.97991167" lon="-8.970365">
        <ele>2.0</ele>
        <time>2019-05-16T13:10:33.926Z</time>
      </trkpt>
      <trkpt lat="38.97997667" lon="-8.97033333">
        <ele>2.0</ele>
        <time>2019-05-16T13:10:34.936Z</time>
      </trkpt>
      <trkpt lat="38.97997667" lon="-8.97033333">
        <ele>2.0</ele>
        <time>2019-05-16T13:10:35.917Z</time>
      </trkpt>
      <trkpt lat="38.98004167" lon="-8.97030167">
        <ele>2.0</ele>
        <time>2019-05-16T13:10:36.926Z</time>
      </trkpt>
      <trkpt lat="38.98004167" lon="-8.97030167">
        <ele>2.0</ele>
        <time>2019-05-16T13:10:37.930Z</time>
      </trkpt>
      <trkpt lat="38.98010833" lon="-8.97027167">
        <ele>2.0</ele>
        <time>2019-05-16T13:10:38.913Z</time>
      </trkpt>
      <trkpt lat="38.98010833" lon="-8.97027167">
        <ele>2.0</ele>
        <time>2019-05-16T13:10:39.911Z</time>
      </trkpt>
      <trkpt lat="38.98018" lon="-8.97024333">
        <ele>2.0</ele>
        <time>2019-05-16T13:10:40.924Z</time>
      </trkpt>
      <trkpt lat="38.98021667" lon="-8.97023">
        <ele>2.0</ele>
        <time>2019-05-16T13:10:41.927Z</time>
      </trkpt>
      <trkpt lat="38.98021667" lon="-8.97023">
        <ele>2.0</ele>
        <time>2019-05-16T13:10:42.986Z</time>
      </trkpt>
      <trkpt lat="38.98025167" lon="-8.97022">
        <ele>2.0</ele>
        <time>2019-05-16T13:10:43.911Z</time>
      </trkpt>
      <trkpt lat="38.98032" lon="-8.9702">
        <ele>2.0</ele>
        <time>2019-05-16T13:10:44.922Z</time>
      </trkpt>
      <trkpt lat="38.980355" lon="-8.97019333">
        <ele>2.0</ele>
        <time>2019-05-16T13:10:45.904Z</time>
      </trkpt>
      <trkpt lat="38.980355" lon="-8.97019333">
        <ele>2.0</ele>
        <time>2019-05-16T13:10:46.914Z</time>
      </trkpt>
      <trkpt lat="38.98042333" lon="-8.97018667">
        <ele>3.0</ele>
        <time>2019-05-16T13:10:47.930Z</time>
      </trkpt>
      <trkpt lat="38.980455" lon="-8.970185">
        <ele>3.0</ele>
        <time>2019-05-16T13:10:48.910Z</time>
      </trkpt>
      <trkpt lat="38.980455" lon="-8.970185">
        <ele>3.0</ele>
        <time>2019-05-16T13:10:49.906Z</time>
      </trkpt>
      <trkpt lat="38.980515" lon="-8.97018">
        <ele>3.0</ele>
        <time>2019-05-16T13:10:50.915Z</time>
      </trkpt>
      <trkpt lat="38.980515" lon="-8.97018">
        <ele>3.0</ele>
        <time>2019-05-16T13:10:51.921Z</time>
      </trkpt>
      <trkpt lat="38.98057833" lon="-8.970185">
        <ele>3.0</ele>
        <time>2019-05-16T13:10:52.930Z</time>
      </trkpt>
      <trkpt lat="38.98057833" lon="-8.970185">
        <ele>3.0</ele>
        <time>2019-05-16T13:10:53.921Z</time>
      </trkpt>
      <trkpt lat="38.980645" lon="-8.970195">
        <ele>3.0</ele>
        <time>2019-05-16T13:10:54.933Z</time>
      </trkpt>
      <trkpt lat="38.980645" lon="-8.970195">
        <ele>3.0</ele>
        <time>2019-05-16T13:10:55.921Z</time>
      </trkpt>
      <trkpt lat="38.98071333" lon="-8.97020333">
        <ele>3.0</ele>
        <time>2019-05-16T13:10:56.930Z</time>
      </trkpt>
      <trkpt lat="38.98071333" lon="-8.97020333">
        <ele>3.0</ele>
        <time>2019-05-16T13:10:57.921Z</time>
      </trkpt>
      <trkpt lat="38.98078333" lon="-8.970215">
        <ele>3.0</ele>
        <time>2019-05-16T13:10:58.933Z</time>
      </trkpt>
      <trkpt lat="38.98078333" lon="-8.970215">
        <ele>3.0</ele>
        <time>2019-05-16T13:10:59.926Z</time>
      </trkpt>
      <trkpt lat="38.980855" lon="-8.97022333">
        <ele>3.0</ele>
        <time>2019-05-16T13:11:00.935Z</time>
      </trkpt>
      <trkpt lat="38.980855" lon="-8.97022333">
        <ele>3.0</ele>
        <time>2019-05-16T13:11:01.899Z</time>
      </trkpt>
      <trkpt lat="38.98092833" lon="-8.97022833">
        <ele>3.0</ele>
        <time>2019-05-16T13:11:02.906Z</time>
      </trkpt>
      <trkpt lat="38.98092833" lon="-8.97022833">
        <ele>3.0</ele>
        <time>2019-05-16T13:11:03.898Z</time>
      </trkpt>
      <trkpt lat="38.981005" lon="-8.97021833">
        <ele>3.0</ele>
        <time>2019-05-16T13:11:04.926Z</time>
      </trkpt>
      <trkpt lat="38.981005" lon="-8.97021833">
        <ele>3.0</ele>
        <time>2019-05-16T13:11:05.913Z</time>
      </trkpt>
      <trkpt lat="38.98108" lon="-8.97019833">
        <ele>3.0</ele>
        <time>2019-05-16T13:11:06.898Z</time>
      </trkpt>
      <trkpt lat="38.98108" lon="-8.97019833">
        <ele>3.0</ele>
        <time>2019-05-16T13:11:07.929Z</time>
      </trkpt>
      <trkpt lat="38.98115833" lon="-8.970175">
        <ele>3.0</ele>
        <time>2019-05-16T13:11:08.915Z</time>
      </trkpt>
      <trkpt lat="38.98115833" lon="-8.970175">
        <ele>3.0</ele>
        <time>2019-05-16T13:11:09.903Z</time>
      </trkpt>
      <trkpt lat="38.981235" lon="-8.97014667">
        <ele>3.0</ele>
        <time>2019-05-16T13:11:10.914Z</time>
      </trkpt>
      <trkpt lat="38.981235" lon="-8.97014667">
        <ele>3.0</ele>
        <time>2019-05-16T13:11:11.916Z</time>
      </trkpt>
      <trkpt lat="38.981315" lon="-8.97012333">
        <ele>3.0</ele>
        <time>2019-05-16T13:11:12.926Z</time>
      </trkpt>
      <trkpt lat="38.981315" lon="-8.97012333">
        <ele>3.0</ele>
        <time>2019-05-16T13:11:13.899Z</time>
      </trkpt>
      <trkpt lat="38.981395" lon="-8.97009833">
        <ele>3.0</ele>
        <time>2019-05-16T13:11:14.919Z</time>
      </trkpt>
      <trkpt lat="38.981395" lon="-8.97009833">
        <ele>3.0</ele>
        <time>2019-05-16T13:11:15.916Z</time>
      </trkpt>
      <trkpt lat="38.98147833" lon="-8.970085">
        <ele>3.0</ele>
        <time>2019-05-16T13:11:16.925Z</time>
      </trkpt>
      <trkpt lat="38.98152" lon="-8.97008167">
        <ele>3.0</ele>
        <time>2019-05-16T13:11:17.908Z</time>
      </trkpt>
      <trkpt lat="38.98156167" lon="-8.97008333">
        <ele>3.0</ele>
        <time>2019-05-16T13:11:18.904Z</time>
      </trkpt>
      <trkpt lat="38.98156167" lon="-8.97008333">
        <ele>3.0</ele>
        <time>2019-05-16T13:11:19.929Z</time>
      </trkpt>
      <trkpt lat="38.98164167" lon="-8.97010333">
        <ele>3.0</ele>
        <time>2019-05-16T13:11:20.911Z</time>
      </trkpt>
      <trkpt lat="38.98167833" lon="-8.97011">
        <ele>3.0</ele>
        <time>2019-05-16T13:11:21.936Z</time>
      </trkpt>
      <trkpt lat="38.98167833" lon="-8.97011">
        <ele>3.0</ele>
        <time>2019-05-16T13:11:22.928Z</time>
      </trkpt>
      <trkpt lat="38.98174833" lon="-8.97010833">
        <ele>3.0</ele>
        <time>2019-05-16T13:11:23.909Z</time>
      </trkpt>
      <trkpt lat="38.98178" lon="-8.97010667">
        <ele>3.0</ele>
        <time>2019-05-16T13:11:24.897Z</time>
      </trkpt>
      <trkpt lat="38.98178" lon="-8.97010667">
        <ele>3.0</ele>
        <time>2019-05-16T13:11:25.925Z</time>
      </trkpt>
      <trkpt lat="38.98184" lon="-8.97008667">
        <ele>3.0</ele>
        <time>2019-05-16T13:11:26.934Z</time>
      </trkpt>
      <trkpt lat="38.98184" lon="-8.97008667">
        <ele>3.0</ele>
        <time>2019-05-16T13:11:27.930Z</time>
      </trkpt>
      <trkpt lat="38.98189167" lon="-8.97005">
        <ele>3.0</ele>
        <time>2019-05-16T13:11:28.918Z</time>
      </trkpt>
      <trkpt lat="38.98189167" lon="-8.97005">
        <ele>3.0</ele>
        <time>2019-05-16T13:11:29.908Z</time>
      </trkpt>
      <trkpt lat="38.98194833" lon="-8.970015">
        <ele>3.0</ele>
        <time>2019-05-16T13:11:30.917Z</time>
      </trkpt>
      <trkpt lat="38.98194833" lon="-8.970015">
        <ele>3.0</ele>
        <time>2019-05-16T13:11:31.927Z</time>
      </trkpt>
      <trkpt lat="38.982" lon="-8.96997">
        <ele>3.0</ele>
        <time>2019-05-16T13:11:32.908Z</time>
      </trkpt>
      <trkpt lat="38.982" lon="-8.96997">
        <ele>3.0</ele>
        <time>2019-05-16T13:11:33.911Z</time>
      </trkpt>
      <trkpt lat="38.982055" lon="-8.969925">
        <ele>3.0</ele>
        <time>2019-05-16T13:11:34.920Z</time>
      </trkpt>
      <trkpt lat="38.982085" lon="-8.96990667">
        <ele>3.0</ele>
        <time>2019-05-16T13:11:35.902Z</time>
      </trkpt>
      <trkpt lat="38.98211333" lon="-8.96988667">
        <ele>3.0</ele>
        <time>2019-05-16T13:11:36.937Z</time>
      </trkpt>
      <trkpt lat="38.98211333" lon="-8.96988667">
        <ele>3.0</ele>
        <time>2019-05-16T13:11:37.899Z</time>
      </trkpt>
      <trkpt lat="38.982175" lon="-8.969845">
        <ele>3.0</ele>
        <time>2019-05-16T13:11:38.907Z</time>
      </trkpt>
      <trkpt lat="38.982175" lon="-8.969845">
        <ele>3.0</ele>
        <time>2019-05-16T13:11:39.911Z</time>
      </trkpt>
      <trkpt lat="38.982235" lon="-8.96980167">
        <ele>3.0</ele>
        <time>2019-05-16T13:11:40.899Z</time>
      </trkpt>
      <trkpt lat="38.982235" lon="-8.96980167">
        <ele>3.0</ele>
        <time>2019-05-16T13:11:41.922Z</time>
      </trkpt>
      <trkpt lat="38.98229333" lon="-8.96975833">
        <ele>3.0</ele>
        <time>2019-05-16T13:11:42.930Z</time>
      </trkpt>
      <trkpt lat="38.98229333" lon="-8.96975833">
        <ele>3.0</ele>
        <time>2019-05-16T13:11:43.911Z</time>
      </trkpt>
      <trkpt lat="38.98235333" lon="-8.96971833">
        <ele>3.0</ele>
        <time>2019-05-16T13:11:44.926Z</time>
      </trkpt>
      <trkpt lat="38.98235333" lon="-8.96971833">
        <ele>3.0</ele>
        <time>2019-05-16T13:11:45.910Z</time>
      </trkpt>
      <trkpt lat="38.98241333" lon="-8.96967667">
        <ele>3.0</ele>
        <time>2019-05-16T13:11:46.933Z</time>
      </trkpt>
      <trkpt lat="38.98241333" lon="-8.96967667">
        <ele>3.0</ele>
        <time>2019-05-16T13:11:47.920Z</time>
      </trkpt>
      <trkpt lat="38.98247" lon="-8.969635">
        <ele>3.0</ele>
        <time>2019-05-16T13:11:48.916Z</time>
      </trkpt>
      <trkpt lat="38.98247" lon="-8.969635">
        <ele>3.0</ele>
        <time>2019-05-16T13:11:49.917Z</time>
      </trkpt>
      <trkpt lat="38.98252667" lon="-8.96959333">
        <ele>3.0</ele>
        <time>2019-05-16T13:11:50.910Z</time>
      </trkpt>
      <trkpt lat="38.98252667" lon="-8.96959333">
        <ele>3.0</ele>
        <time>2019-05-16T13:11:51.933Z</time>
      </trkpt>
      <trkpt lat="38.98258333" lon="-8.96954833">
        <ele>3.0</ele>
        <time>2019-05-16T13:11:52.901Z</time>
      </trkpt>
      <trkpt lat="38.98258333" lon="-8.96954833">
        <ele>3.0</ele>
        <time>2019-05-16T13:11:53.930Z</time>
      </trkpt>
      <trkpt lat="38.982645" lon="-8.969505">
        <ele>2.0</ele>
        <time>2019-05-16T13:11:54.900Z</time>
      </trkpt>
      <trkpt lat="38.982645" lon="-8.969505">
        <ele>2.0</ele>
        <time>2019-05-16T13:11:55.911Z</time>
      </trkpt>
      <trkpt lat="38.98270667" lon="-8.969465">
        <ele>2.0</ele>
        <time>2019-05-16T13:11:56.919Z</time>
      </trkpt>
      <trkpt lat="38.98270667" lon="-8.969465">
        <ele>2.0</ele>
        <time>2019-05-16T13:11:57.912Z</time>
      </trkpt>
      <trkpt lat="38.98276833" lon="-8.96942333">
        <ele>3.0</ele>
        <time>2019-05-16T13:11:58.933Z</time>
      </trkpt>
      <trkpt lat="38.98276833" lon="-8.96942333">
        <ele>3.0</ele>
        <time>2019-05-16T13:11:59.919Z</time>
      </trkpt>
      <trkpt lat="38.98282833" lon="-8.96937833">
        <ele>2.0</ele>
        <time>2019-05-16T13:12:00.898Z</time>
      </trkpt>
      <trkpt lat="38.98282833" lon="-8.96937833">
        <ele>2.0</ele>
        <time>2019-05-16T13:12:01.917Z</time>
      </trkpt>
      <trkpt lat="38.98288833" lon="-8.96934">
        <ele>3.0</ele>
        <time>2019-05-16T13:12:02.927Z</time>
      </trkpt>
      <trkpt lat="38.98288833" lon="-8.96934">
        <ele>3.0</ele>
        <time>2019-05-16T13:12:03.922Z</time>
      </trkpt>
      <trkpt lat="38.98295" lon="-8.96930167">
        <ele>3.0</ele>
        <time>2019-05-16T13:12:04.929Z</time>
      </trkpt>
      <trkpt lat="38.98295" lon="-8.96930167">
        <ele>3.0</ele>
        <time>2019-05-16T13:12:05.931Z</time>
      </trkpt>
      <trkpt lat="38.98300333" lon="-8.96925">
        <ele>3.0</ele>
        <time>2019-05-16T13:12:06.907Z</time>
      </trkpt>
      <trkpt lat="38.98300333" lon="-8.96925">
        <ele>3.0</ele>
        <time>2019-05-16T13:12:07.903Z</time>
      </trkpt>
      <trkpt lat="38.98306833" lon="-8.96921333">
        <ele>3.0</ele>
        <time>2019-05-16T13:12:08.911Z</time>
      </trkpt>
      <trkpt lat="38.98306833" lon="-8.96921333">
        <ele>3.0</ele>
        <time>2019-05-16T13:12:09.899Z</time>
      </trkpt>
      <trkpt lat="38.98313167" lon="-8.96917167">
        <ele>3.0</ele>
        <time>2019-05-16T13:12:10.905Z</time>
      </trkpt>
      <trkpt lat="38.98313167" lon="-8.96917167">
        <ele>3.0</ele>
        <time>2019-05-16T13:12:11.902Z</time>
      </trkpt>
      <trkpt lat="38.983195" lon="-8.96913333">
        <ele>3.0</ele>
        <time>2019-05-16T13:12:12.914Z</time>
      </trkpt>
      <trkpt lat="38.983195" lon="-8.96913333">
        <ele>3.0</ele>
        <time>2019-05-16T13:12:13.901Z</time>
      </trkpt>
      <trkpt lat="38.98325333" lon="-8.969085">
        <ele>4.0</ele>
        <time>2019-05-16T13:12:14.922Z</time>
      </trkpt>
      <trkpt lat="38.98325333" lon="-8.969085">
        <ele>4.0</ele>
        <time>2019-05-16T13:12:15.902Z</time>
      </trkpt>
      <trkpt lat="38.98331333" lon="-8.96903667">
        <ele>4.0</ele>
        <time>2019-05-16T13:12:16.908Z</time>
      </trkpt>
      <trkpt lat="38.98331333" lon="-8.96903667">
        <ele>4.0</ele>
        <time>2019-05-16T13:12:17.899Z</time>
      </trkpt>
      <trkpt lat="38.98337667" lon="-8.96899667">
        <ele>4.0</ele>
        <time>2019-05-16T13:12:18.907Z</time>
      </trkpt>
      <trkpt lat="38.98337667" lon="-8.96899667">
        <ele>4.0</ele>
        <time>2019-05-16T13:12:19.901Z</time>
      </trkpt>
      <trkpt lat="38.98343833" lon="-8.96895167">
        <ele>5.0</ele>
        <time>2019-05-16T13:12:20.928Z</time>
      </trkpt>
      <trkpt lat="38.98346833" lon="-8.96892833">
        <ele>5.0</ele>
        <time>2019-05-16T13:12:21.930Z</time>
      </trkpt>
      <trkpt lat="38.98346833" lon="-8.96892833">
        <ele>5.0</ele>
        <time>2019-05-16T13:12:22.922Z</time>
      </trkpt>
      <trkpt lat="38.98353" lon="-8.96888667">
        <ele>5.0</ele>
        <time>2019-05-16T13:12:23.934Z</time>
      </trkpt>
      <trkpt lat="38.98356167" lon="-8.968865">
        <ele>5.0</ele>
        <time>2019-05-16T13:12:24.907Z</time>
      </trkpt>
      <trkpt lat="38.98356167" lon="-8.968865">
        <ele>5.0</ele>
        <time>2019-05-16T13:12:25.898Z</time>
      </trkpt>
      <trkpt lat="38.98362333" lon="-8.96881833">
        <ele>5.0</ele>
        <time>2019-05-16T13:12:26.909Z</time>
      </trkpt>
      <trkpt lat="38.98362333" lon="-8.96881833">
        <ele>5.0</ele>
        <time>2019-05-16T13:12:27.899Z</time>
      </trkpt>
      <trkpt lat="38.983685" lon="-8.96877">
        <ele>5.0</ele>
        <time>2019-05-16T13:12:28.909Z</time>
      </trkpt>
      <trkpt lat="38.983685" lon="-8.96877">
        <ele>5.0</ele>
        <time>2019-05-16T13:12:29.924Z</time>
      </trkpt>
      <trkpt lat="38.98374833" lon="-8.96872333">
        <ele>5.0</ele>
        <time>2019-05-16T13:12:30.932Z</time>
      </trkpt>
      <trkpt lat="38.98374833" lon="-8.96872333">
        <ele>5.0</ele>
        <time>2019-05-16T13:12:31.910Z</time>
      </trkpt>
      <trkpt lat="38.98381" lon="-8.968685">
        <ele>5.0</ele>
        <time>2019-05-16T13:12:32.922Z</time>
      </trkpt>
      <trkpt lat="38.98384167" lon="-8.96866167">
        <ele>5.0</ele>
        <time>2019-05-16T13:12:33.921Z</time>
      </trkpt>
      <trkpt lat="38.98384167" lon="-8.96866167">
        <ele>5.0</ele>
        <time>2019-05-16T13:12:34.916Z</time>
      </trkpt>
      <trkpt lat="38.98390333" lon="-8.96861333">
        <ele>5.0</ele>
        <time>2019-05-16T13:12:35.931Z</time>
      </trkpt>
      <trkpt lat="38.98393333" lon="-8.96859">
        <ele>5.0</ele>
        <time>2019-05-16T13:12:36.903Z</time>
      </trkpt>
      <trkpt lat="38.98393333" lon="-8.96859">
        <ele>5.0</ele>
        <time>2019-05-16T13:12:37.899Z</time>
      </trkpt>
      <trkpt lat="38.98399833" lon="-8.96854167">
        <ele>5.0</ele>
        <time>2019-05-16T13:12:38.913Z</time>
      </trkpt>
      <trkpt lat="38.98399833" lon="-8.96854167">
        <ele>5.0</ele>
        <time>2019-05-16T13:12:39.901Z</time>
      </trkpt>
      <trkpt lat="38.984065" lon="-8.96849667">
        <ele>5.0</ele>
        <time>2019-05-16T13:12:40.919Z</time>
      </trkpt>
      <trkpt lat="38.984065" lon="-8.96849667">
        <ele>5.0</ele>
        <time>2019-05-16T13:12:41.902Z</time>
      </trkpt>
      <trkpt lat="38.98413167" lon="-8.96845167">
        <ele>5.0</ele>
        <time>2019-05-16T13:12:42.921Z</time>
      </trkpt>
      <trkpt lat="38.98413167" lon="-8.96845167">
        <ele>5.0</ele>
        <time>2019-05-16T13:12:43.898Z</time>
      </trkpt>
      <trkpt lat="38.98413167" lon="-8.96845167">
        <ele>5.0</ele>
        <time>2019-05-16T13:12:45.096Z</time>
      </trkpt>
      <trkpt lat="38.98419667" lon="-8.96840333">
        <ele>5.0</ele>
        <time>2019-05-16T13:12:45.924Z</time>
      </trkpt>
      <trkpt lat="38.98426167" lon="-8.96835667">
        <ele>5.0</ele>
        <time>2019-05-16T13:12:46.897Z</time>
      </trkpt>
      <trkpt lat="38.98426167" lon="-8.96835667">
        <ele>5.0</ele>
        <time>2019-05-16T13:12:47.901Z</time>
      </trkpt>
      <trkpt lat="38.98432667" lon="-8.968315">
        <ele>5.0</ele>
        <time>2019-05-16T13:12:48.909Z</time>
      </trkpt>
      <trkpt lat="38.98432667" lon="-8.968315">
        <ele>5.0</ele>
        <time>2019-05-16T13:12:49.921Z</time>
      </trkpt>
      <trkpt lat="38.98439167" lon="-8.96826667">
        <ele>6.0</ele>
        <time>2019-05-16T13:12:50.931Z</time>
      </trkpt>
      <trkpt lat="38.98439167" lon="-8.96826667">
        <ele>6.0</ele>
        <time>2019-05-16T13:12:51.912Z</time>
      </trkpt>
      <trkpt lat="38.98445667" lon="-8.96821833">
        <ele>6.0</ele>
        <time>2019-05-16T13:12:52.920Z</time>
      </trkpt>
      <trkpt lat="38.98449" lon="-8.968195">
        <ele>6.0</ele>
        <time>2019-05-16T13:12:53.933Z</time>
      </trkpt>
      <trkpt lat="38.984525" lon="-8.96817167">
        <ele>6.0</ele>
        <time>2019-05-16T13:12:54.911Z</time>
      </trkpt>
      <trkpt lat="38.984525" lon="-8.96817167">
        <ele>6.0</ele>
        <time>2019-05-16T13:12:55.909Z</time>
      </trkpt>
      <trkpt lat="38.98459167" lon="-8.96812333">
        <ele>6.0</ele>
        <time>2019-05-16T13:12:56.920Z</time>
      </trkpt>
      <trkpt lat="38.98459167" lon="-8.96812333">
        <ele>6.0</ele>
        <time>2019-05-16T13:12:57.901Z</time>
      </trkpt>
      <trkpt lat="38.98465833" lon="-8.96807167">
        <ele>5.0</ele>
        <time>2019-05-16T13:12:58.914Z</time>
      </trkpt>
      <trkpt lat="38.98465833" lon="-8.96807167">
        <ele>5.0</ele>
        <time>2019-05-16T13:12:59.901Z</time>
      </trkpt>
      <trkpt lat="38.98472833" lon="-8.96802333">
        <ele>5.0</ele>
        <time>2019-05-16T13:13:00.915Z</time>
      </trkpt>
      <trkpt lat="38.98472833" lon="-8.96802333">
        <ele>5.0</ele>
        <time>2019-05-16T13:13:01.909Z</time>
      </trkpt>
      <trkpt lat="38.98479667" lon="-8.96797667">
        <ele>5.0</ele>
        <time>2019-05-16T13:13:02.922Z</time>
      </trkpt>
      <trkpt lat="38.98479667" lon="-8.96797667">
        <ele>5.0</ele>
        <time>2019-05-16T13:13:03.916Z</time>
      </trkpt>
      <trkpt lat="38.98486333" lon="-8.96792833">
        <ele>5.0</ele>
        <time>2019-05-16T13:13:04.922Z</time>
      </trkpt>
      <trkpt lat="38.98489667" lon="-8.967905">
        <ele>5.0</ele>
        <time>2019-05-16T13:13:05.905Z</time>
      </trkpt>
      <trkpt lat="38.98493167" lon="-8.96788167">
        <ele>5.0</ele>
        <time>2019-05-16T13:13:06.912Z</time>
      </trkpt>
      <trkpt lat="38.98493167" lon="-8.96788167">
        <ele>5.0</ele>
        <time>2019-05-16T13:13:07.911Z</time>
      </trkpt>
      <trkpt lat="38.98499667" lon="-8.967835">
        <ele>5.0</ele>
        <time>2019-05-16T13:13:08.923Z</time>
      </trkpt>
      <trkpt lat="38.98499667" lon="-8.967835">
        <ele>5.0</ele>
        <time>2019-05-16T13:13:09.930Z</time>
      </trkpt>
      <trkpt lat="38.98506333" lon="-8.96778833">
        <ele>5.0</ele>
        <time>2019-05-16T13:13:10.905Z</time>
      </trkpt>
      <trkpt lat="38.98509667" lon="-8.96776333">
        <ele>5.0</ele>
        <time>2019-05-16T13:13:11.935Z</time>
      </trkpt>
      <trkpt lat="38.98513" lon="-8.96774">
        <ele>5.0</ele>
        <time>2019-05-16T13:13:12.897Z</time>
      </trkpt>
      <trkpt lat="38.98513" lon="-8.96774">
        <ele>5.0</ele>
        <time>2019-05-16T13:13:13.932Z</time>
      </trkpt>
      <trkpt lat="38.985195" lon="-8.96769333">
        <ele>5.0</ele>
        <time>2019-05-16T13:13:14.901Z</time>
      </trkpt>
      <trkpt lat="38.985195" lon="-8.96769333">
        <ele>5.0</ele>
        <time>2019-05-16T13:13:15.933Z</time>
      </trkpt>
      <trkpt lat="38.98526167" lon="-8.96764333">
        <ele>4.0</ele>
        <time>2019-05-16T13:13:16.903Z</time>
      </trkpt>
      <trkpt lat="38.98526167" lon="-8.96764333">
        <ele>4.0</ele>
        <time>2019-05-16T13:13:17.920Z</time>
      </trkpt>
      <trkpt lat="38.98532667" lon="-8.96759667">
        <ele>4.0</ele>
        <time>2019-05-16T13:13:18.926Z</time>
      </trkpt>
      <trkpt lat="38.98532667" lon="-8.96759667">
        <ele>4.0</ele>
        <time>2019-05-16T13:13:19.900Z</time>
      </trkpt>
      <trkpt lat="38.98538833" lon="-8.96755333">
        <ele>4.0</ele>
        <time>2019-05-16T13:13:20.900Z</time>
      </trkpt>
      <trkpt lat="38.98538833" lon="-8.96755333">
        <ele>4.0</ele>
        <time>2019-05-16T13:13:21.936Z</time>
      </trkpt>
      <trkpt lat="38.98545" lon="-8.96750667">
        <ele>4.0</ele>
        <time>2019-05-16T13:13:22.908Z</time>
      </trkpt>
      <trkpt lat="38.98545" lon="-8.96750667">
        <ele>4.0</ele>
        <time>2019-05-16T13:13:23.931Z</time>
      </trkpt>
      <trkpt lat="38.985515" lon="-8.96746167">
        <ele>4.0</ele>
        <time>2019-05-16T13:13:24.904Z</time>
      </trkpt>
      <trkpt lat="38.98555" lon="-8.96743833">
        <ele>4.0</ele>
        <time>2019-05-16T13:13:25.899Z</time>
      </trkpt>
      <trkpt lat="38.98555" lon="-8.96743833">
        <ele>4.0</ele>
        <time>2019-05-16T13:13:26.907Z</time>
      </trkpt>
      <trkpt lat="38.98561667" lon="-8.96738667">
        <ele>4.0</ele>
        <time>2019-05-16T13:13:27.920Z</time>
      </trkpt>
      <trkpt lat="38.98561667" lon="-8.96738667">
        <ele>4.0</ele>
        <time>2019-05-16T13:13:28.901Z</time>
      </trkpt>
      <trkpt lat="38.98568333" lon="-8.96734">
        <ele>4.0</ele>
        <time>2019-05-16T13:13:29.918Z</time>
      </trkpt>
      <trkpt lat="38.98571833" lon="-8.96731667">
        <ele>4.0</ele>
        <time>2019-05-16T13:13:30.915Z</time>
      </trkpt>
      <trkpt lat="38.98571833" lon="-8.96731667">
        <ele>4.0</ele>
        <time>2019-05-16T13:13:31.901Z</time>
      </trkpt>
      <trkpt lat="38.98578333" lon="-8.96726833">
        <ele>4.0</ele>
        <time>2019-05-16T13:13:32.909Z</time>
      </trkpt>
      <trkpt lat="38.98578333" lon="-8.96726833">
        <ele>4.0</ele>
        <time>2019-05-16T13:13:33.906Z</time>
      </trkpt>
      <trkpt lat="38.98585" lon="-8.96721833">
        <ele>4.0</ele>
        <time>2019-05-16T13:13:34.921Z</time>
      </trkpt>
      <trkpt lat="38.98585" lon="-8.96721833">
        <ele>4.0</ele>
        <time>2019-05-16T13:13:35.911Z</time>
      </trkpt>
      <trkpt lat="38.98591833" lon="-8.96717333">
        <ele>4.0</ele>
        <time>2019-05-16T13:13:36.922Z</time>
      </trkpt>
      <trkpt lat="38.98591833" lon="-8.96717333">
        <ele>4.0</ele>
        <time>2019-05-16T13:13:37.929Z</time>
      </trkpt>
      <trkpt lat="38.98598667" lon="-8.96712667">
        <ele>3.0</ele>
        <time>2019-05-16T13:13:38.905Z</time>
      </trkpt>
      <trkpt lat="38.98598667" lon="-8.96712667">
        <ele>3.0</ele>
        <time>2019-05-16T13:13:39.901Z</time>
      </trkpt>
      <trkpt lat="38.98605667" lon="-8.967085">
        <ele>3.0</ele>
        <time>2019-05-16T13:13:40.946Z</time>
      </trkpt>
      <trkpt lat="38.98605667" lon="-8.967085">
        <ele>3.0</ele>
        <time>2019-05-16T13:13:41.931Z</time>
      </trkpt>
      <trkpt lat="38.98612333" lon="-8.96704167">
        <ele>3.0</ele>
        <time>2019-05-16T13:13:42.900Z</time>
      </trkpt>
      <trkpt lat="38.98612333" lon="-8.96704167">
        <ele>3.0</ele>
        <time>2019-05-16T13:13:43.901Z</time>
      </trkpt>
      <trkpt lat="38.98618167" lon="-8.96699167">
        <ele>3.0</ele>
        <time>2019-05-16T13:13:44.934Z</time>
      </trkpt>
      <trkpt lat="38.98621333" lon="-8.96696833">
        <ele>3.0</ele>
        <time>2019-05-16T13:13:45.918Z</time>
      </trkpt>
      <trkpt lat="38.98621333" lon="-8.96696833">
        <ele>3.0</ele>
        <time>2019-05-16T13:13:46.901Z</time>
      </trkpt>
      <trkpt lat="38.98627667" lon="-8.96691667">
        <ele>3.0</ele>
        <time>2019-05-16T13:13:47.908Z</time>
      </trkpt>
      <trkpt lat="38.98630833" lon="-8.96689167">
        <ele>3.0</ele>
        <time>2019-05-16T13:13:48.930Z</time>
      </trkpt>
      <trkpt lat="38.98630833" lon="-8.96689167">
        <ele>3.0</ele>
        <time>2019-05-16T13:13:49.926Z</time>
      </trkpt>
      <trkpt lat="38.98637" lon="-8.96684833">
        <ele>3.0</ele>
        <time>2019-05-16T13:13:50.937Z</time>
      </trkpt>
      <trkpt lat="38.98637" lon="-8.96684833">
        <ele>3.0</ele>
        <time>2019-05-16T13:13:51.913Z</time>
      </trkpt>
      <trkpt lat="38.98643167" lon="-8.96680833">
        <ele>4.0</ele>
        <time>2019-05-16T13:13:52.929Z</time>
      </trkpt>
      <trkpt lat="38.98643167" lon="-8.96680833">
        <ele>4.0</ele>
        <time>2019-05-16T13:13:53.913Z</time>
      </trkpt>
      <trkpt lat="38.98649333" lon="-8.96677">
        <ele>4.0</ele>
        <time>2019-05-16T13:13:54.931Z</time>
      </trkpt>
      <trkpt lat="38.98649333" lon="-8.96677">
        <ele>4.0</ele>
        <time>2019-05-16T13:13:55.899Z</time>
      </trkpt>
      <trkpt lat="38.98655333" lon="-8.96672667">
        <ele>4.0</ele>
        <time>2019-05-16T13:13:56.910Z</time>
      </trkpt>
      <trkpt lat="38.98658167" lon="-8.966705">
        <ele>4.0</ele>
        <time>2019-05-16T13:13:57.905Z</time>
      </trkpt>
      <trkpt lat="38.98658167" lon="-8.966705">
        <ele>4.0</ele>
        <time>2019-05-16T13:13:58.931Z</time>
      </trkpt>
      <trkpt lat="38.98664167" lon="-8.96665833">
        <ele>4.0</ele>
        <time>2019-05-16T13:13:59.899Z</time>
      </trkpt>
      <trkpt lat="38.98667167" lon="-8.96663667">
        <ele>4.0</ele>
        <time>2019-05-16T13:14:00.915Z</time>
      </trkpt>
      <trkpt lat="38.98667167" lon="-8.96663667">
        <ele>4.0</ele>
        <time>2019-05-16T13:14:01.900Z</time>
      </trkpt>
      <trkpt lat="38.98673333" lon="-8.96659167">
        <ele>4.0</ele>
        <time>2019-05-16T13:14:02.907Z</time>
      </trkpt>
      <trkpt lat="38.98673333" lon="-8.96659167">
        <ele>4.0</ele>
        <time>2019-05-16T13:14:03.920Z</time>
      </trkpt>
      <trkpt lat="38.98679167" lon="-8.96654333">
        <ele>4.0</ele>
        <time>2019-05-16T13:14:04.930Z</time>
      </trkpt>
      <trkpt lat="38.98679167" lon="-8.96654333">
        <ele>4.0</ele>
        <time>2019-05-16T13:14:05.921Z</time>
      </trkpt>
      <trkpt lat="38.986855" lon="-8.96649667">
        <ele>4.0</ele>
        <time>2019-05-16T13:14:06.930Z</time>
      </trkpt>
      <trkpt lat="38.986855" lon="-8.96649667">
        <ele>4.0</ele>
        <time>2019-05-16T13:14:07.902Z</time>
      </trkpt>
      <trkpt lat="38.98692167" lon="-8.96646167">
        <ele>4.0</ele>
        <time>2019-05-16T13:14:08.918Z</time>
      </trkpt>
      <trkpt lat="38.98692167" lon="-8.96646167">
        <ele>4.0</ele>
        <time>2019-05-16T13:14:09.900Z</time>
      </trkpt>
      <trkpt lat="38.98698667" lon="-8.96642167">
        <ele>4.0</ele>
        <time>2019-05-16T13:14:10.908Z</time>
      </trkpt>
      <trkpt lat="38.98698667" lon="-8.96642167">
        <ele>4.0</ele>
        <time>2019-05-16T13:14:11.907Z</time>
      </trkpt>
      <trkpt lat="38.98705167" lon="-8.96637833">
        <ele>4.0</ele>
        <time>2019-05-16T13:14:12.979Z</time>
      </trkpt>
      <trkpt lat="38.98705167" lon="-8.96637833">
        <ele>4.0</ele>
        <time>2019-05-16T13:14:13.916Z</time>
      </trkpt>
      <trkpt lat="38.98711833" lon="-8.966335">
        <ele>4.0</ele>
        <time>2019-05-16T13:14:14.926Z</time>
      </trkpt>
      <trkpt lat="38.98715" lon="-8.96631167">
        <ele>4.0</ele>
        <time>2019-05-16T13:14:15.920Z</time>
      </trkpt>
      <trkpt lat="38.98715" lon="-8.96631167">
        <ele>4.0</ele>
        <time>2019-05-16T13:14:16.901Z</time>
      </trkpt>
      <trkpt lat="38.987215" lon="-8.96626333">
        <ele>4.0</ele>
        <time>2019-05-16T13:14:17.913Z</time>
      </trkpt>
      <trkpt lat="38.987245" lon="-8.96623833">
        <ele>4.0</ele>
        <time>2019-05-16T13:14:18.938Z</time>
      </trkpt>
      <trkpt lat="38.987245" lon="-8.96623833">
        <ele>4.0</ele>
        <time>2019-05-16T13:14:19.901Z</time>
      </trkpt>
      <trkpt lat="38.98730333" lon="-8.96619167">
        <ele>3.0</ele>
        <time>2019-05-16T13:14:20.932Z</time>
      </trkpt>
      <trkpt lat="38.98730333" lon="-8.96619167">
        <ele>3.0</ele>
        <time>2019-05-16T13:14:21.928Z</time>
      </trkpt>
      <trkpt lat="38.98736333" lon="-8.96615">
        <ele>3.0</ele>
        <time>2019-05-16T13:14:22.904Z</time>
      </trkpt>
      <trkpt lat="38.98739333" lon="-8.96612833">
        <ele>3.0</ele>
        <time>2019-05-16T13:14:23.918Z</time>
      </trkpt>
      <trkpt lat="38.98739333" lon="-8.96612833">
        <ele>3.0</ele>
        <time>2019-05-16T13:14:24.922Z</time>
      </trkpt>
      <trkpt lat="38.987455" lon="-8.96609167">
        <ele>3.0</ele>
        <time>2019-05-16T13:14:25.928Z</time>
      </trkpt>
      <trkpt lat="38.987455" lon="-8.96609167">
        <ele>3.0</ele>
        <time>2019-05-16T13:14:26.919Z</time>
      </trkpt>
      <trkpt lat="38.98751" lon="-8.96606">
        <ele>3.0</ele>
        <time>2019-05-16T13:14:27.927Z</time>
      </trkpt>
      <trkpt lat="38.98751" lon="-8.96606">
        <ele>3.0</ele>
        <time>2019-05-16T13:14:28.926Z</time>
      </trkpt>
      <trkpt lat="38.98756" lon="-8.96601667">
        <ele>4.0</ele>
        <time>2019-05-16T13:14:29.937Z</time>
      </trkpt>
      <trkpt lat="38.987585" lon="-8.96599333">
        <ele>3.0</ele>
        <time>2019-05-16T13:14:30.905Z</time>
      </trkpt>
      <trkpt lat="38.987585" lon="-8.96599333">
        <ele>3.0</ele>
        <time>2019-05-16T13:14:31.924Z</time>
      </trkpt>
      <trkpt lat="38.98764167" lon="-8.96595">
        <ele>3.0</ele>
        <time>2019-05-16T13:14:32.936Z</time>
      </trkpt>
      <trkpt lat="38.98764167" lon="-8.96595">
        <ele>3.0</ele>
        <time>2019-05-16T13:14:33.931Z</time>
      </trkpt>
      <trkpt lat="38.98770167" lon="-8.96590833">
        <ele>3.0</ele>
        <time>2019-05-16T13:14:34.909Z</time>
      </trkpt>
      <trkpt lat="38.98770167" lon="-8.96590833">
        <ele>3.0</ele>
        <time>2019-05-16T13:14:35.899Z</time>
      </trkpt>
      <trkpt lat="38.987765" lon="-8.96586667">
        <ele>3.0</ele>
        <time>2019-05-16T13:14:36.914Z</time>
      </trkpt>
      <trkpt lat="38.987765" lon="-8.96586667">
        <ele>3.0</ele>
        <time>2019-05-16T13:14:37.913Z</time>
      </trkpt>
      <trkpt lat="38.98782667" lon="-8.96582667">
        <ele>3.0</ele>
        <time>2019-05-16T13:14:38.926Z</time>
      </trkpt>
      <trkpt lat="38.98782667" lon="-8.96582667">
        <ele>3.0</ele>
        <time>2019-05-16T13:14:39.914Z</time>
      </trkpt>
      <trkpt lat="38.98788167" lon="-8.96578833">
        <ele>3.0</ele>
        <time>2019-05-16T13:14:40.925Z</time>
      </trkpt>
      <trkpt lat="38.98788167" lon="-8.96578833">
        <ele>3.0</ele>
        <time>2019-05-16T13:14:41.931Z</time>
      </trkpt>
      <trkpt lat="38.98793667" lon="-8.96574333">
        <ele>3.0</ele>
        <time>2019-05-16T13:14:42.904Z</time>
      </trkpt>
      <trkpt lat="38.98793667" lon="-8.96574333">
        <ele>3.0</ele>
        <time>2019-05-16T13:14:43.913Z</time>
      </trkpt>
      <trkpt lat="38.987995" lon="-8.96569833">
        <ele>3.0</ele>
        <time>2019-05-16T13:14:44.933Z</time>
      </trkpt>
      <trkpt lat="38.988025" lon="-8.96567667">
        <ele>4.0</ele>
        <time>2019-05-16T13:14:45.920Z</time>
      </trkpt>
      <trkpt lat="38.988025" lon="-8.96567667">
        <ele>4.0</ele>
        <time>2019-05-16T13:14:46.926Z</time>
      </trkpt>
      <trkpt lat="38.988085" lon="-8.96564">
        <ele>4.0</ele>
        <time>2019-05-16T13:14:47.900Z</time>
      </trkpt>
      <trkpt lat="38.988115" lon="-8.96562">
        <ele>4.0</ele>
        <time>2019-05-16T13:14:48.908Z</time>
      </trkpt>
      <trkpt lat="38.988115" lon="-8.96562">
        <ele>4.0</ele>
        <time>2019-05-16T13:14:49.913Z</time>
      </trkpt>
      <trkpt lat="38.988175" lon="-8.96558333">
        <ele>5.0</ele>
        <time>2019-05-16T13:14:50.923Z</time>
      </trkpt>
      <trkpt lat="38.988175" lon="-8.96558333">
        <ele>5.0</ele>
        <time>2019-05-16T13:14:51.908Z</time>
      </trkpt>
      <trkpt lat="38.98823333" lon="-8.96554167">
        <ele>5.0</ele>
        <time>2019-05-16T13:14:52.921Z</time>
      </trkpt>
      <trkpt lat="38.98826333" lon="-8.96552">
        <ele>5.0</ele>
        <time>2019-05-16T13:14:53.912Z</time>
      </trkpt>
      <trkpt lat="38.988295" lon="-8.96549667">
        <ele>5.0</ele>
        <time>2019-05-16T13:14:54.902Z</time>
      </trkpt>
      <trkpt lat="38.988295" lon="-8.96549667">
        <ele>5.0</ele>
        <time>2019-05-16T13:14:55.901Z</time>
      </trkpt>
      <trkpt lat="38.98835833" lon="-8.96545167">
        <ele>5.0</ele>
        <time>2019-05-16T13:14:56.911Z</time>
      </trkpt>
      <trkpt lat="38.98835833" lon="-8.96545167">
        <ele>5.0</ele>
        <time>2019-05-16T13:14:57.931Z</time>
      </trkpt>
      <trkpt lat="38.98842" lon="-8.96540333">
        <ele>5.0</ele>
        <time>2019-05-16T13:14:58.903Z</time>
      </trkpt>
      <trkpt lat="38.98842" lon="-8.96540333">
        <ele>5.0</ele>
        <time>2019-05-16T13:14:59.912Z</time>
      </trkpt>
      <trkpt lat="38.988485" lon="-8.96535833">
        <ele>5.0</ele>
        <time>2019-05-16T13:15:00.923Z</time>
      </trkpt>
      <trkpt lat="38.988485" lon="-8.96535833">
        <ele>5.0</ele>
        <time>2019-05-16T13:15:01.906Z</time>
      </trkpt>
      <trkpt lat="38.98855" lon="-8.96532">
        <ele>6.0</ele>
        <time>2019-05-16T13:15:02.918Z</time>
      </trkpt>
      <trkpt lat="38.98855" lon="-8.96532">
        <ele>6.0</ele>
        <time>2019-05-16T13:15:03.931Z</time>
      </trkpt>
      <trkpt lat="38.98861333" lon="-8.96528167">
        <ele>6.0</ele>
        <time>2019-05-16T13:15:04.913Z</time>
      </trkpt>
      <trkpt lat="38.988645" lon="-8.96526667">
        <ele>7.0</ele>
        <time>2019-05-16T13:15:05.926Z</time>
      </trkpt>
      <trkpt lat="38.98867667" lon="-8.96525833">
        <ele>7.0</ele>
        <time>2019-05-16T13:15:06.926Z</time>
      </trkpt>
      <trkpt lat="38.98867667" lon="-8.96525833">
        <ele>7.0</ele>
        <time>2019-05-16T13:15:07.903Z</time>
      </trkpt>
      <trkpt lat="38.98873833" lon="-8.965225">
        <ele>8.0</ele>
        <time>2019-05-16T13:15:08.914Z</time>
      </trkpt>
      <trkpt lat="38.98873833" lon="-8.965225">
        <ele>8.0</ele>
        <time>2019-05-16T13:15:09.903Z</time>
      </trkpt>
      <trkpt lat="38.9888" lon="-8.96518833">
        <ele>8.0</ele>
        <time>2019-05-16T13:15:10.918Z</time>
      </trkpt>
      <trkpt lat="38.9888" lon="-8.96518833">
        <ele>8.0</ele>
        <time>2019-05-16T13:15:11.909Z</time>
      </trkpt>
      <trkpt lat="38.98886833" lon="-8.96515">
        <ele>8.0</ele>
        <time>2019-05-16T13:15:12.927Z</time>
      </trkpt>
      <trkpt lat="38.98886833" lon="-8.96515">
        <ele>8.0</ele>
        <time>2019-05-16T13:15:13.911Z</time>
      </trkpt>
      <trkpt lat="38.98893" lon="-8.96510833">
        <ele>8.0</ele>
        <time>2019-05-16T13:15:14.919Z</time>
      </trkpt>
      <trkpt lat="38.98893" lon="-8.96510833">
        <ele>8.0</ele>
        <time>2019-05-16T13:15:15.904Z</time>
      </trkpt>
      <trkpt lat="38.98898833" lon="-8.96509167">
        <ele>9.0</ele>
        <time>2019-05-16T13:15:16.916Z</time>
      </trkpt>
      <trkpt lat="38.98898833" lon="-8.96509167">
        <ele>9.0</ele>
        <time>2019-05-16T13:15:17.901Z</time>
      </trkpt>
      <trkpt lat="38.98905" lon="-8.96505333">
        <ele>10.0</ele>
        <time>2019-05-16T13:15:18.916Z</time>
      </trkpt>
      <trkpt lat="38.98905" lon="-8.96505333">
        <ele>10.0</ele>
        <time>2019-05-16T13:15:19.932Z</time>
      </trkpt>
      <trkpt lat="38.98911333" lon="-8.96500333">
        <ele>10.0</ele>
        <time>2019-05-16T13:15:20.934Z</time>
      </trkpt>
      <trkpt lat="38.98911333" lon="-8.96500333">
        <ele>10.0</ele>
        <time>2019-05-16T13:15:21.899Z</time>
      </trkpt>
      <trkpt lat="38.98918" lon="-8.96495667">
        <ele>9.0</ele>
        <time>2019-05-16T13:15:22.906Z</time>
      </trkpt>
      <trkpt lat="38.98918" lon="-8.96495667">
        <ele>9.0</ele>
        <time>2019-05-16T13:15:23.917Z</time>
      </trkpt>
      <trkpt lat="38.989245" lon="-8.96491">
        <ele>9.0</ele>
        <time>2019-05-16T13:15:24.905Z</time>
      </trkpt>
      <trkpt lat="38.989245" lon="-8.96491">
        <ele>9.0</ele>
        <time>2019-05-16T13:15:25.928Z</time>
      </trkpt>
      <trkpt lat="38.98929333" lon="-8.96486333">
        <ele>9.0</ele>
        <time>2019-05-16T13:15:26.905Z</time>
      </trkpt>
      <trkpt lat="38.98929333" lon="-8.96486333">
        <ele>9.0</ele>
        <time>2019-05-16T13:15:27.917Z</time>
      </trkpt>
      <trkpt lat="38.98933667" lon="-8.96482667">
        <ele>9.0</ele>
        <time>2019-05-16T13:15:28.918Z</time>
      </trkpt>
      <trkpt lat="38.98933667" lon="-8.96482667">
        <ele>9.0</ele>
        <time>2019-05-16T13:15:29.922Z</time>
      </trkpt>
      <trkpt lat="38.98937833" lon="-8.96478333">
        <ele>8.0</ele>
        <time>2019-05-16T13:15:30.931Z</time>
      </trkpt>
      <trkpt lat="38.98937833" lon="-8.96478333">
        <ele>8.0</ele>
        <time>2019-05-16T13:15:31.925Z</time>
      </trkpt>
      <trkpt lat="38.98942833" lon="-8.96473833">
        <ele>8.0</ele>
        <time>2019-05-16T13:15:32.900Z</time>
      </trkpt>
      <trkpt lat="38.989455" lon="-8.96471833">
        <ele>7.0</ele>
        <time>2019-05-16T13:15:33.940Z</time>
      </trkpt>
      <trkpt lat="38.989455" lon="-8.96471833">
        <ele>7.0</ele>
        <time>2019-05-16T13:15:34.929Z</time>
      </trkpt>
      <trkpt lat="38.98951667" lon="-8.96467333">
        <ele>7.0</ele>
        <time>2019-05-16T13:15:35.897Z</time>
      </trkpt>
      <trkpt lat="38.98954667" lon="-8.96464667">
        <ele>7.0</ele>
        <time>2019-05-16T13:15:36.915Z</time>
      </trkpt>
      <trkpt lat="38.98954667" lon="-8.96464667">
        <ele>7.0</ele>
        <time>2019-05-16T13:15:37.933Z</time>
      </trkpt>
      <trkpt lat="38.98960833" lon="-8.96459833">
        <ele>7.0</ele>
        <time>2019-05-16T13:15:38.900Z</time>
      </trkpt>
      <trkpt lat="38.98960833" lon="-8.96459833">
        <ele>7.0</ele>
        <time>2019-05-16T13:15:39.911Z</time>
      </trkpt>
      <trkpt lat="38.98967333" lon="-8.96455">
        <ele>7.0</ele>
        <time>2019-05-16T13:15:40.922Z</time>
      </trkpt>
      <trkpt lat="38.98967333" lon="-8.96455">
        <ele>7.0</ele>
        <time>2019-05-16T13:15:41.899Z</time>
      </trkpt>
      <trkpt lat="38.98974167" lon="-8.96450833">
        <ele>7.0</ele>
        <time>2019-05-16T13:15:42.917Z</time>
      </trkpt>
      <trkpt lat="38.98974167" lon="-8.96450833">
        <ele>7.0</ele>
        <time>2019-05-16T13:15:43.906Z</time>
      </trkpt>
      <trkpt lat="38.98979333" lon="-8.96446167">
        <ele>8.0</ele>
        <time>2019-05-16T13:15:44.914Z</time>
      </trkpt>
      <trkpt lat="38.98979333" lon="-8.96446167">
        <ele>8.0</ele>
        <time>2019-05-16T13:15:45.932Z</time>
      </trkpt>
      <trkpt lat="38.98981333" lon="-8.96441">
        <ele>8.0</ele>
        <time>2019-05-16T13:15:46.904Z</time>
      </trkpt>
      <trkpt lat="38.98981167" lon="-8.964385">
        <ele>8.0</ele>
        <time>2019-05-16T13:15:47.914Z</time>
      </trkpt>
      <trkpt lat="38.989805" lon="-8.96436">
        <ele>8.0</ele>
        <time>2019-05-16T13:15:48.907Z</time>
      </trkpt>
      <trkpt lat="38.989805" lon="-8.96436">
        <ele>8.0</ele>
        <time>2019-05-16T13:15:49.917Z</time>
      </trkpt>
      <trkpt lat="38.98977833" lon="-8.96431667">
        <ele>8.0</ele>
        <time>2019-05-16T13:15:50.929Z</time>
      </trkpt>
      <trkpt lat="38.98977833" lon="-8.96431667">
        <ele>8.0</ele>
        <time>2019-05-16T13:15:51.908Z</time>
      </trkpt>
      <trkpt lat="38.98974333" lon="-8.964275">
        <ele>8.0</ele>
        <time>2019-05-16T13:15:52.926Z</time>
      </trkpt>
      <trkpt lat="38.98974333" lon="-8.964275">
        <ele>8.0</ele>
        <time>2019-05-16T13:15:53.916Z</time>
      </trkpt>
      <trkpt lat="38.98967833" lon="-8.964245">
        <ele>8.0</ele>
        <time>2019-05-16T13:15:54.927Z</time>
      </trkpt>
      <trkpt lat="38.98967833" lon="-8.964245">
        <ele>8.0</ele>
        <time>2019-05-16T13:15:55.932Z</time>
      </trkpt>
      <trkpt lat="38.98959333" lon="-8.96425">
        <ele>8.0</ele>
        <time>2019-05-16T13:15:56.899Z</time>
      </trkpt>
      <trkpt lat="38.98959333" lon="-8.96425">
        <ele>8.0</ele>
        <time>2019-05-16T13:15:57.901Z</time>
      </trkpt>
      <trkpt lat="38.98950833" lon="-8.96430333">
        <ele>8.0</ele>
        <time>2019-05-16T13:15:58.915Z</time>
      </trkpt>
      <trkpt lat="38.98947" lon="-8.96433333">
        <ele>7.0</ele>
        <time>2019-05-16T13:15:59.904Z</time>
      </trkpt>
      <trkpt lat="38.98943" lon="-8.96436333">
        <ele>7.0</ele>
        <time>2019-05-16T13:16:00.938Z</time>
      </trkpt>
      <trkpt lat="38.98943" lon="-8.96436333">
        <ele>7.0</ele>
        <time>2019-05-16T13:16:01.927Z</time>
      </trkpt>
      <trkpt lat="38.98935" lon="-8.964415">
        <ele>7.0</ele>
        <time>2019-05-16T13:16:02.935Z</time>
      </trkpt>
      <trkpt lat="38.98935" lon="-8.964415">
        <ele>7.0</ele>
        <time>2019-05-16T13:16:03.927Z</time>
      </trkpt>
      <trkpt lat="38.989275" lon="-8.96446833">
        <ele>6.0</ele>
        <time>2019-05-16T13:16:04.902Z</time>
      </trkpt>
      <trkpt lat="38.98924167" lon="-8.9645">
        <ele>6.0</ele>
        <time>2019-05-16T13:16:05.907Z</time>
      </trkpt>
      <trkpt lat="38.98921" lon="-8.964535">
        <ele>6.0</ele>
        <time>2019-05-16T13:16:06.932Z</time>
      </trkpt>
      <trkpt lat="38.98921" lon="-8.964535">
        <ele>6.0</ele>
        <time>2019-05-16T13:16:07.909Z</time>
      </trkpt>
      <trkpt lat="38.98917167" lon="-8.96461333">
        <ele>6.0</ele>
        <time>2019-05-16T13:16:08.921Z</time>
      </trkpt>
      <trkpt lat="38.98917167" lon="-8.96461333">
        <ele>6.0</ele>
        <time>2019-05-16T13:16:09.905Z</time>
      </trkpt>
      <trkpt lat="38.98914833" lon="-8.96468667">
        <ele>6.0</ele>
        <time>2019-05-16T13:16:10.902Z</time>
      </trkpt>
      <trkpt lat="38.98914833" lon="-8.96468667">
        <ele>6.0</ele>
        <time>2019-05-16T13:16:11.922Z</time>
      </trkpt>
      <trkpt lat="38.98912667" lon="-8.96473833">
        <ele>6.0</ele>
        <time>2019-05-16T13:16:12.930Z</time>
      </trkpt>
      <trkpt lat="38.98912667" lon="-8.96473833">
        <ele>6.0</ele>
        <time>2019-05-16T13:16:13.907Z</time>
      </trkpt>
      <trkpt lat="38.98912167" lon="-8.96474833">
        <ele>6.0</ele>
        <time>2019-05-16T13:16:14.916Z</time>
      </trkpt>
      <trkpt lat="38.98912167" lon="-8.96474833">
        <ele>6.0</ele>
        <time>2019-05-16T13:16:15.921Z</time>
      </trkpt>
      <trkpt lat="38.989115" lon="-8.96474833">
        <ele>6.0</ele>
        <time>2019-05-16T13:16:16.931Z</time>
      </trkpt>
      <trkpt lat="38.989115" lon="-8.96474833">
        <ele>6.0</ele>
        <time>2019-05-16T13:16:17.932Z</time>
      </trkpt>
      <trkpt lat="38.98912667" lon="-8.96475167">
        <ele>6.0</ele>
        <time>2019-05-16T13:16:18.909Z</time>
      </trkpt>
      <trkpt lat="38.98912667" lon="-8.96475167">
        <ele>6.0</ele>
        <time>2019-05-16T13:16:19.915Z</time>
      </trkpt>
      <trkpt lat="38.98912667" lon="-8.96475667">
        <ele>6.0</ele>
        <time>2019-05-16T13:16:20.927Z</time>
      </trkpt>
      <trkpt lat="38.98912667" lon="-8.96475667">
        <ele>6.0</ele>
        <time>2019-05-16T13:16:21.921Z</time>
      </trkpt>
      <trkpt lat="38.98913" lon="-8.96476333">
        <ele>6.0</ele>
        <time>2019-05-16T13:16:22.927Z</time>
      </trkpt>
      <trkpt lat="38.98913" lon="-8.96476333">
        <ele>6.0</ele>
        <time>2019-05-16T13:16:23.898Z</time>
      </trkpt>
      <trkpt lat="38.98913" lon="-8.96476333">
        <ele>6.0</ele>
        <time>2019-05-16T13:16:24.925Z</time>
      </trkpt>
      <trkpt lat="38.98913" lon="-8.96476333">
        <ele>6.0</ele>
        <time>2019-05-16T13:16:25.909Z</time>
      </trkpt>
      <trkpt lat="38.98913" lon="-8.96476333">
        <ele>6.0</ele>
        <time>2019-05-16T13:16:26.909Z</time>
      </trkpt>
      <trkpt lat="38.98913" lon="-8.96476333">
        <ele>6.0</ele>
        <time>2019-05-16T13:16:27.907Z</time>
      </trkpt>
      <trkpt lat="38.98913" lon="-8.96476333">
        <ele>6.0</ele>
        <time>2019-05-16T13:16:28.916Z</time>
      </trkpt>
      <trkpt lat="38.98913" lon="-8.96476333">
        <ele>6.0</ele>
        <time>2019-05-16T13:16:29.907Z</time>
      </trkpt>
      <trkpt lat="38.98913" lon="-8.96476333">
        <ele>6.0</ele>
        <time>2019-05-16T13:16:30.913Z</time>
      </trkpt>
      <trkpt lat="38.98913" lon="-8.96476333">
        <ele>6.0</ele>
        <time>2019-05-16T13:16:31.907Z</time>
      </trkpt>
      <trkpt lat="38.98913" lon="-8.96476333">
        <ele>6.0</ele>
        <time>2019-05-16T13:16:32.911Z</time>
      </trkpt>
      <trkpt lat="38.98913" lon="-8.96476333">
        <ele>6.0</ele>
        <time>2019-05-16T13:16:33.902Z</time>
      </trkpt>
      <trkpt lat="38.98913" lon="-8.96476333">
        <ele>6.0</ele>
        <time>2019-05-16T13:16:34.912Z</time>
      </trkpt>
      <trkpt lat="38.98913" lon="-8.96476333">
        <ele>6.0</ele>
        <time>2019-05-16T13:16:35.907Z</time>
      </trkpt>
      <trkpt lat="38.98913" lon="-8.96476333">
        <ele>6.0</ele>
        <time>2019-05-16T13:16:36.911Z</time>
      </trkpt>
      <trkpt lat="38.98913" lon="-8.96476333">
        <ele>6.0</ele>
        <time>2019-05-16T13:16:37.907Z</time>
      </trkpt>
      <trkpt lat="38.98913" lon="-8.96476333">
        <ele>6.0</ele>
        <time>2019-05-16T13:16:38.924Z</time>
      </trkpt>
      <trkpt lat="38.98913" lon="-8.96476333">
        <ele>6.0</ele>
        <time>2019-05-16T13:16:39.910Z</time>
      </trkpt>
      <trkpt lat="38.98913" lon="-8.96476333">
        <ele>6.0</ele>
        <time>2019-05-16T13:16:40.913Z</time>
      </trkpt>
      <trkpt lat="38.98913" lon="-8.96476333">
        <ele>6.0</ele>
        <time>2019-05-16T13:16:41.907Z</time>
      </trkpt>
      <trkpt lat="38.98913" lon="-8.96476333">
        <ele>6.0</ele>
        <time>2019-05-16T13:16:42.914Z</time>
      </trkpt>
      <trkpt lat="38.98913" lon="-8.96476333">
        <ele>6.0</ele>
        <time>2019-05-16T13:16:43.931Z</time>
      </trkpt>
      <trkpt lat="38.98913" lon="-8.96476333">
        <ele>6.0</ele>
        <time>2019-05-16T13:16:44.912Z</time>
      </trkpt>
      <trkpt lat="38.98913" lon="-8.96476333">
        <ele>6.0</ele>
        <time>2019-05-16T13:16:45.907Z</time>
      </trkpt>
      <trkpt lat="38.98913" lon="-8.96476333">
        <ele>6.0</ele>
        <time>2019-05-16T13:16:46.911Z</time>
      </trkpt>
      <trkpt lat="38.98913" lon="-8.96476333">
        <ele>6.0</ele>
        <time>2019-05-16T13:16:47.912Z</time>
      </trkpt>
      <trkpt lat="38.98913" lon="-8.96476333">
        <ele>6.0</ele>
        <time>2019-05-16T13:16:48.927Z</time>
      </trkpt>
      <trkpt lat="38.98913" lon="-8.96476333">
        <ele>6.0</ele>
        <time>2019-05-16T13:16:49.913Z</time>
      </trkpt>
      <trkpt lat="38.98913" lon="-8.96476333">
        <ele>6.0</ele>
        <time>2019-05-16T13:16:50.913Z</time>
      </trkpt>
      <trkpt lat="38.98913" lon="-8.96476333">
        <ele>6.0</ele>
        <time>2019-05-16T13:16:51.907Z</time>
      </trkpt>
      <trkpt lat="38.98913" lon="-8.96476333">
        <ele>6.0</ele>
        <time>2019-05-16T13:16:52.909Z</time>
      </trkpt>
      <trkpt lat="38.98913" lon="-8.96476333">
        <ele>6.0</ele>
        <time>2019-05-16T13:16:53.908Z</time>
      </trkpt>
      <trkpt lat="38.98913" lon="-8.96476333">
        <ele>6.0</ele>
        <time>2019-05-16T13:16:54.918Z</time>
      </trkpt>
      <trkpt lat="38.98913" lon="-8.96476333">
        <ele>6.0</ele>
        <time>2019-05-16T13:16:55.907Z</time>
      </trkpt>
      <trkpt lat="38.98913" lon="-8.96476333">
        <ele>6.0</ele>
        <time>2019-05-16T13:16:56.912Z</time>
      </trkpt>
      <trkpt lat="38.98913" lon="-8.96476333">
        <ele>6.0</ele>
        <time>2019-05-16T13:16:57.907Z</time>
      </trkpt>
      <trkpt lat="38.98913" lon="-8.96476333">
        <ele>6.0</ele>
        <time>2019-05-16T13:16:58.912Z</time>
      </trkpt>
      <trkpt lat="38.98913" lon="-8.96476333">
        <ele>6.0</ele>
        <time>2019-05-16T13:16:59.913Z</time>
      </trkpt>
      <trkpt lat="38.98913" lon="-8.96476333">
        <ele>6.0</ele>
        <time>2019-05-16T13:17:00.909Z</time>
      </trkpt>
      <trkpt lat="38.98913" lon="-8.96476333">
        <ele>6.0</ele>
        <time>2019-05-16T13:17:01.911Z</time>
      </trkpt>
      <trkpt lat="38.98913" lon="-8.96476333">
        <ele>6.0</ele>
        <time>2019-05-16T13:17:02.907Z</time>
      </trkpt>
      <trkpt lat="38.98913" lon="-8.96476333">
        <ele>6.0</ele>
        <time>2019-05-16T13:17:03.911Z</time>
      </trkpt>
      <trkpt lat="38.98913" lon="-8.96476333">
        <ele>6.0</ele>
        <time>2019-05-16T13:17:04.907Z</time>
      </trkpt>
      <trkpt lat="38.98913" lon="-8.96476333">
        <ele>6.0</ele>
        <time>2019-05-16T13:17:05.911Z</time>
      </trkpt>
      <trkpt lat="38.98914667" lon="-8.96488">
        <ele>6.0</ele>
        <time>2019-05-16T13:17:06.913Z</time>
      </trkpt>
      <trkpt lat="38.98914667" lon="-8.96488">
        <ele>6.0</ele>
        <time>2019-05-16T13:17:07.907Z</time>
      </trkpt>
      <trkpt lat="38.98912833" lon="-8.96492333">
        <ele>6.0</ele>
        <time>2019-05-16T13:17:08.923Z</time>
      </trkpt>
      <trkpt lat="38.98912833" lon="-8.96492333">
        <ele>6.0</ele>
        <time>2019-05-16T13:17:09.909Z</time>
      </trkpt>
      <trkpt lat="38.989115" lon="-8.964945">
        <ele>6.0</ele>
        <time>2019-05-16T13:17:10.912Z</time>
      </trkpt>
      <trkpt lat="38.989115" lon="-8.964945">
        <ele>6.0</ele>
        <time>2019-05-16T13:17:11.907Z</time>
      </trkpt>
      <trkpt lat="38.98910667" lon="-8.96496167">
        <ele>6.0</ele>
        <time>2019-05-16T13:17:12.913Z</time>
      </trkpt>
      <trkpt lat="38.98910667" lon="-8.96496167">
        <ele>6.0</ele>
        <time>2019-05-16T13:17:13.908Z</time>
      </trkpt>
      <trkpt lat="38.98910667" lon="-8.96496833">
        <ele>6.0</ele>
        <time>2019-05-16T13:17:14.912Z</time>
      </trkpt>
      <trkpt lat="38.98910667" lon="-8.96496833">
        <ele>6.0</ele>
        <time>2019-05-16T13:17:15.907Z</time>
      </trkpt>
      <trkpt lat="38.989105" lon="-8.96497167">
        <ele>6.0</ele>
        <time>2019-05-16T13:17:16.911Z</time>
      </trkpt>
      <trkpt lat="38.989105" lon="-8.96497167">
        <ele>6.0</ele>
        <time>2019-05-16T13:17:17.906Z</time>
      </trkpt>
      <trkpt lat="38.98908667" lon="-8.96497">
        <ele>6.0</ele>
        <time>2019-05-16T13:17:18.922Z</time>
      </trkpt>
      <trkpt lat="38.98908667" lon="-8.96497">
        <ele>6.0</ele>
        <time>2019-05-16T13:17:19.909Z</time>
      </trkpt>
      <trkpt lat="38.98908" lon="-8.964975">
        <ele>6.0</ele>
        <time>2019-05-16T13:17:20.912Z</time>
      </trkpt>
      <trkpt lat="38.98907833" lon="-8.96497">
        <ele>6.0</ele>
        <time>2019-05-16T13:17:21.905Z</time>
      </trkpt>
      <trkpt lat="38.98907833" lon="-8.96497">
        <ele>6.0</ele>
        <time>2019-05-16T13:17:22.911Z</time>
      </trkpt>
      <trkpt lat="38.98907833" lon="-8.96497">
        <ele>6.0</ele>
        <time>2019-05-16T13:17:23.926Z</time>
      </trkpt>
      <trkpt lat="38.98907833" lon="-8.96497">
        <ele>6.0</ele>
        <time>2019-05-16T13:17:24.920Z</time>
      </trkpt>
      <trkpt lat="38.98907833" lon="-8.96497">
        <ele>6.0</ele>
        <time>2019-05-16T13:17:25.907Z</time>
      </trkpt>
      <trkpt lat="38.98907833" lon="-8.96497">
        <ele>6.0</ele>
        <time>2019-05-16T13:17:26.912Z</time>
      </trkpt>
      <trkpt lat="38.98907833" lon="-8.96497">
        <ele>6.0</ele>
        <time>2019-05-16T13:17:27.908Z</time>
      </trkpt>
      <trkpt lat="38.98907833" lon="-8.96497">
        <ele>6.0</ele>
        <time>2019-05-16T13:17:28.924Z</time>
      </trkpt>
      <trkpt lat="38.98907833" lon="-8.96497">
        <ele>6.0</ele>
        <time>2019-05-16T13:17:29.925Z</time>
      </trkpt>
      <trkpt lat="38.98907833" lon="-8.96497">
        <ele>6.0</ele>
        <time>2019-05-16T13:17:30.915Z</time>
      </trkpt>
      <trkpt lat="38.98907833" lon="-8.96497">
        <ele>6.0</ele>
        <time>2019-05-16T13:17:31.907Z</time>
      </trkpt>
      <trkpt lat="38.98907833" lon="-8.96497">
        <ele>6.0</ele>
        <time>2019-05-16T13:17:32.912Z</time>
      </trkpt>
      <trkpt lat="38.98907833" lon="-8.96497">
        <ele>6.0</ele>
        <time>2019-05-16T13:17:33.907Z</time>
      </trkpt>
      <trkpt lat="38.98907833" lon="-8.96497">
        <ele>6.0</ele>
        <time>2019-05-16T13:17:34.912Z</time>
      </trkpt>
      <trkpt lat="38.98907833" lon="-8.96497">
        <ele>6.0</ele>
        <time>2019-05-16T13:17:35.907Z</time>
      </trkpt>
      <trkpt lat="38.98907833" lon="-8.96497">
        <ele>6.0</ele>
        <time>2019-05-16T13:17:36.917Z</time>
      </trkpt>
      <trkpt lat="38.98907833" lon="-8.96497">
        <ele>6.0</ele>
        <time>2019-05-16T13:17:37.907Z</time>
      </trkpt>
      <trkpt lat="38.98907833" lon="-8.96497">
        <ele>6.0</ele>
        <time>2019-05-16T13:17:38.923Z</time>
      </trkpt>
      <trkpt lat="38.98907833" lon="-8.96497">
        <ele>6.0</ele>
        <time>2019-05-16T13:17:39.909Z</time>
      </trkpt>
      <trkpt lat="38.98907833" lon="-8.96497">
        <ele>6.0</ele>
        <time>2019-05-16T13:17:40.906Z</time>
      </trkpt>
      <trkpt lat="38.98907833" lon="-8.96497">
        <ele>6.0</ele>
        <time>2019-05-16T13:17:41.912Z</time>
      </trkpt>
      <trkpt lat="38.98907833" lon="-8.96497">
        <ele>6.0</ele>
        <time>2019-05-16T13:17:42.909Z</time>
      </trkpt>
      <trkpt lat="38.98907833" lon="-8.96497">
        <ele>6.0</ele>
        <time>2019-05-16T13:17:43.912Z</time>
      </trkpt>
      <trkpt lat="38.98907833" lon="-8.96497">
        <ele>6.0</ele>
        <time>2019-05-16T13:17:44.912Z</time>
      </trkpt>
      <trkpt lat="38.98907833" lon="-8.96497">
        <ele>6.0</ele>
        <time>2019-05-16T13:17:45.907Z</time>
      </trkpt>
      <trkpt lat="38.98897667" lon="-8.964985">
        <ele>7.0</ele>
        <time>2019-05-16T13:17:46.910Z</time>
      </trkpt>
      <trkpt lat="38.98897333" lon="-8.96498833">
        <ele>7.0</ele>
        <time>2019-05-16T13:17:47.912Z</time>
      </trkpt>
      <trkpt lat="38.98897167" lon="-8.96499">
        <ele>7.0</ele>
        <time>2019-05-16T13:17:48.930Z</time>
      </trkpt>
      <trkpt lat="38.98897167" lon="-8.96499">
        <ele>7.0</ele>
        <time>2019-05-16T13:17:49.913Z</time>
      </trkpt>
      <trkpt lat="38.98897167" lon="-8.96499">
        <ele>7.0</ele>
        <time>2019-05-16T13:17:50.911Z</time>
      </trkpt>
      <trkpt lat="38.98897167" lon="-8.96499">
        <ele>7.0</ele>
        <time>2019-05-16T13:17:51.907Z</time>
      </trkpt>
      <trkpt lat="38.98897167" lon="-8.96499">
        <ele>7.0</ele>
        <time>2019-05-16T13:17:52.912Z</time>
      </trkpt>
      <trkpt lat="38.98897167" lon="-8.96499">
        <ele>7.0</ele>
        <time>2019-05-16T13:17:53.913Z</time>
      </trkpt>
      <trkpt lat="38.98897167" lon="-8.96499">
        <ele>7.0</ele>
        <time>2019-05-16T13:17:54.915Z</time>
      </trkpt>
      <trkpt lat="38.98897167" lon="-8.96499">
        <ele>7.0</ele>
        <time>2019-05-16T13:17:55.907Z</time>
      </trkpt>
      <trkpt lat="38.98897167" lon="-8.96499">
        <ele>7.0</ele>
        <time>2019-05-16T13:17:56.911Z</time>
      </trkpt>
      <trkpt lat="38.98897167" lon="-8.96499">
        <ele>7.0</ele>
        <time>2019-05-16T13:17:57.907Z</time>
      </trkpt>
      <trkpt lat="38.98893167" lon="-8.96502167">
        <ele>8.0</ele>
        <time>2019-05-16T13:17:58.923Z</time>
      </trkpt>
      <trkpt lat="38.98893" lon="-8.96502833">
        <ele>8.0</ele>
        <time>2019-05-16T13:17:59.913Z</time>
      </trkpt>
      <trkpt lat="38.98893" lon="-8.96502833">
        <ele>8.0</ele>
        <time>2019-05-16T13:18:00.909Z</time>
      </trkpt>
      <trkpt lat="38.98891333" lon="-8.965055">
        <ele>8.0</ele>
        <time>2019-05-16T13:18:01.911Z</time>
      </trkpt>
      <trkpt lat="38.98891333" lon="-8.965055">
        <ele>8.0</ele>
        <time>2019-05-16T13:18:02.906Z</time>
      </trkpt>
      <trkpt lat="38.98887167" lon="-8.96506">
        <ele>8.0</ele>
        <time>2019-05-16T13:18:03.911Z</time>
      </trkpt>
      <trkpt lat="38.98887167" lon="-8.96506">
        <ele>8.0</ele>
        <time>2019-05-16T13:18:04.906Z</time>
      </trkpt>
      <trkpt lat="38.98882167" lon="-8.965045">
        <ele>8.0</ele>
        <time>2019-05-16T13:18:05.911Z</time>
      </trkpt>
      <trkpt lat="38.98881667" lon="-8.96504833">
        <ele>8.0</ele>
        <time>2019-05-16T13:18:06.913Z</time>
      </trkpt>
      <trkpt lat="38.98881667" lon="-8.96504833">
        <ele>8.0</ele>
        <time>2019-05-16T13:18:07.907Z</time>
      </trkpt>
      <trkpt lat="38.98883333" lon="-8.96505833">
        <ele>8.0</ele>
        <time>2019-05-16T13:18:08.923Z</time>
      </trkpt>
      <trkpt lat="38.98884333" lon="-8.96506833">
        <ele>8.0</ele>
        <time>2019-05-16T13:18:09.911Z</time>
      </trkpt>
      <trkpt lat="38.98885" lon="-8.96507167">
        <ele>8.0</ele>
        <time>2019-05-16T13:18:10.912Z</time>
      </trkpt>
      <trkpt lat="38.98885" lon="-8.96507167">
        <ele>8.0</ele>
        <time>2019-05-16T13:18:11.907Z</time>
      </trkpt>
      <trkpt lat="38.98885833" lon="-8.96508">
        <ele>8.0</ele>
        <time>2019-05-16T13:18:12.910Z</time>
      </trkpt>
      <trkpt lat="38.98885833" lon="-8.96508">
        <ele>8.0</ele>
        <time>2019-05-16T13:18:13.907Z</time>
      </trkpt>
      <trkpt lat="38.98885833" lon="-8.965085">
        <ele>8.0</ele>
        <time>2019-05-16T13:18:14.919Z</time>
      </trkpt>
      <trkpt lat="38.98885" lon="-8.96509667">
        <ele>8.0</ele>
        <time>2019-05-16T13:18:15.911Z</time>
      </trkpt>
      <trkpt lat="38.98885" lon="-8.96509667">
        <ele>8.0</ele>
        <time>2019-05-16T13:18:16.906Z</time>
      </trkpt>
      <trkpt lat="38.98884" lon="-8.96510667">
        <ele>8.0</ele>
        <time>2019-05-16T13:18:17.911Z</time>
      </trkpt>
      <trkpt lat="38.98883333" lon="-8.96510833">
        <ele>8.0</ele>
        <time>2019-05-16T13:18:18.923Z</time>
      </trkpt>
      <trkpt lat="38.98882833" lon="-8.96510667">
        <ele>8.0</ele>
        <time>2019-05-16T13:18:19.912Z</time>
      </trkpt>
      <trkpt lat="38.98882833" lon="-8.96510667">
        <ele>8.0</ele>
        <time>2019-05-16T13:18:20.912Z</time>
      </trkpt>
      <trkpt lat="38.98884167" lon="-8.96510167">
        <ele>8.0</ele>
        <time>2019-05-16T13:18:21.905Z</time>
      </trkpt>
      <trkpt lat="38.98884167" lon="-8.96510167">
        <ele>8.0</ele>
        <time>2019-05-16T13:18:22.911Z</time>
      </trkpt>
      <trkpt lat="38.98884833" lon="-8.965095">
        <ele>8.0</ele>
        <time>2019-05-16T13:18:23.917Z</time>
      </trkpt>
      <trkpt lat="38.98884833" lon="-8.965095">
        <ele>8.0</ele>
        <time>2019-05-16T13:18:24.923Z</time>
      </trkpt>
      <trkpt lat="38.98886667" lon="-8.96510167">
        <ele>9.0</ele>
        <time>2019-05-16T13:18:25.911Z</time>
      </trkpt>
      <trkpt lat="38.98886667" lon="-8.96510167">
        <ele>9.0</ele>
        <time>2019-05-16T13:18:26.907Z</time>
      </trkpt>
      <trkpt lat="38.98887833" lon="-8.96509">
        <ele>9.0</ele>
        <time>2019-05-16T13:18:27.912Z</time>
      </trkpt>
      <trkpt lat="38.98887833" lon="-8.96509">
        <ele>9.0</ele>
        <time>2019-05-16T13:18:28.918Z</time>
      </trkpt>
      <trkpt lat="38.98887833" lon="-8.96507333">
        <ele>9.0</ele>
        <time>2019-05-16T13:18:29.912Z</time>
      </trkpt>
      <trkpt lat="38.98887833" lon="-8.96507333">
        <ele>9.0</ele>
        <time>2019-05-16T13:18:30.914Z</time>
      </trkpt>
      <trkpt lat="38.98887833" lon="-8.96507333">
        <ele>9.0</ele>
        <time>2019-05-16T13:18:31.912Z</time>
      </trkpt>
      <trkpt lat="38.98887833" lon="-8.96507333">
        <ele>9.0</ele>
        <time>2019-05-16T13:18:32.907Z</time>
      </trkpt>
      <trkpt lat="38.98887833" lon="-8.96507333">
        <ele>9.0</ele>
        <time>2019-05-16T13:18:33.933Z</time>
      </trkpt>
      <trkpt lat="38.98887833" lon="-8.96507333">
        <ele>9.0</ele>
        <time>2019-05-16T13:18:34.929Z</time>
      </trkpt>
      <trkpt lat="38.98889333" lon="-8.96507667">
        <ele>9.0</ele>
        <time>2019-05-16T13:18:35.916Z</time>
      </trkpt>
      <trkpt lat="38.98888833" lon="-8.965065">
        <ele>10.0</ele>
        <time>2019-05-16T13:18:36.913Z</time>
      </trkpt>
      <trkpt lat="38.98888833" lon="-8.965065">
        <ele>10.0</ele>
        <time>2019-05-16T13:18:37.907Z</time>
      </trkpt>
      <trkpt lat="38.98889833" lon="-8.96504333">
        <ele>10.0</ele>
        <time>2019-05-16T13:18:38.898Z</time>
      </trkpt>
      <trkpt lat="38.98889833" lon="-8.96504333">
        <ele>10.0</ele>
        <time>2019-05-16T13:18:39.919Z</time>
      </trkpt>
      <trkpt lat="38.98891167" lon="-8.96503333">
        <ele>10.0</ele>
        <time>2019-05-16T13:18:40.912Z</time>
      </trkpt>
      <trkpt lat="38.98891167" lon="-8.96503333">
        <ele>10.0</ele>
        <time>2019-05-16T13:18:41.907Z</time>
      </trkpt>
      <trkpt lat="38.98892167" lon="-8.96503333">
        <ele>10.0</ele>
        <time>2019-05-16T13:18:42.914Z</time>
      </trkpt>
      <trkpt lat="38.98892167" lon="-8.96503167">
        <ele>10.0</ele>
        <time>2019-05-16T13:18:43.912Z</time>
      </trkpt>
      <trkpt lat="38.98892167" lon="-8.96503167">
        <ele>10.0</ele>
        <time>2019-05-16T13:18:44.905Z</time>
      </trkpt>
      <trkpt lat="38.98891833" lon="-8.96502667">
        <ele>10.0</ele>
        <time>2019-05-16T13:18:45.912Z</time>
      </trkpt>
      <trkpt lat="38.98891833" lon="-8.96502667">
        <ele>10.0</ele>
        <time>2019-05-16T13:18:46.907Z</time>
      </trkpt>
      <trkpt lat="38.98891833" lon="-8.96502667">
        <ele>10.0</ele>
        <time>2019-05-16T13:18:47.911Z</time>
      </trkpt>
      <trkpt lat="38.98891833" lon="-8.96502667">
        <ele>10.0</ele>
        <time>2019-05-16T13:18:48.931Z</time>
      </trkpt>
      <trkpt lat="38.98891833" lon="-8.96502667">
        <ele>10.0</ele>
        <time>2019-05-16T13:18:49.912Z</time>
      </trkpt>
      <trkpt lat="38.98891833" lon="-8.96502667">
        <ele>10.0</ele>
        <time>2019-05-16T13:18:50.912Z</time>
      </trkpt>
      <trkpt lat="38.98891833" lon="-8.96502667">
        <ele>10.0</ele>
        <time>2019-05-16T13:18:51.906Z</time>
      </trkpt>
      <trkpt lat="38.988985" lon="-8.96502">
        <ele>10.0</ele>
        <time>2019-05-16T13:18:52.912Z</time>
      </trkpt>
      <trkpt lat="38.988985" lon="-8.96502">
        <ele>10.0</ele>
        <time>2019-05-16T13:18:53.907Z</time>
      </trkpt>
      <trkpt lat="38.988995" lon="-8.96501167">
        <ele>10.0</ele>
        <time>2019-05-16T13:18:54.934Z</time>
      </trkpt>
      <trkpt lat="38.98899833" lon="-8.96501167">
        <ele>10.0</ele>
        <time>2019-05-16T13:18:55.918Z</time>
      </trkpt>
      <trkpt lat="38.98899833" lon="-8.96501167">
        <ele>10.0</ele>
        <time>2019-05-16T13:18:56.907Z</time>
      </trkpt>
      <trkpt lat="38.98901167" lon="-8.965005">
        <ele>10.0</ele>
        <time>2019-05-16T13:18:57.911Z</time>
      </trkpt>
      <trkpt lat="38.98901167" lon="-8.965005">
        <ele>10.0</ele>
        <time>2019-05-16T13:18:58.916Z</time>
      </trkpt>
      <trkpt lat="38.98901167" lon="-8.965005">
        <ele>10.0</ele>
        <time>2019-05-16T13:18:59.911Z</time>
      </trkpt>
      <trkpt lat="38.98901167" lon="-8.965005">
        <ele>10.0</ele>
        <time>2019-05-16T13:19:00.914Z</time>
      </trkpt>
      <trkpt lat="38.98901167" lon="-8.965005">
        <ele>10.0</ele>
        <time>2019-05-16T13:19:01.907Z</time>
      </trkpt>
      <trkpt lat="38.98901167" lon="-8.965005">
        <ele>10.0</ele>
        <time>2019-05-16T13:19:02.909Z</time>
      </trkpt>
      <trkpt lat="38.98901167" lon="-8.965005">
        <ele>10.0</ele>
        <time>2019-05-16T13:19:03.909Z</time>
      </trkpt>
      <trkpt lat="38.98901167" lon="-8.965005">
        <ele>10.0</ele>
        <time>2019-05-16T13:19:04.911Z</time>
      </trkpt>
      <trkpt lat="38.98901167" lon="-8.965005">
        <ele>10.0</ele>
        <time>2019-05-16T13:19:05.907Z</time>
      </trkpt>
      <trkpt lat="38.98909833" lon="-8.96494333">
        <ele>10.0</ele>
        <time>2019-05-16T13:19:06.914Z</time>
      </trkpt>
      <trkpt lat="38.98909833" lon="-8.96494333">
        <ele>10.0</ele>
        <time>2019-05-16T13:19:07.907Z</time>
      </trkpt>
      <trkpt lat="38.989095" lon="-8.96494">
        <ele>10.0</ele>
        <time>2019-05-16T13:19:08.911Z</time>
      </trkpt>
      <trkpt lat="38.989095" lon="-8.96494">
        <ele>10.0</ele>
        <time>2019-05-16T13:19:09.907Z</time>
      </trkpt>
      <trkpt lat="38.989095" lon="-8.96494">
        <ele>10.0</ele>
        <time>2019-05-16T13:19:10.911Z</time>
      </trkpt>
      <trkpt lat="38.989095" lon="-8.96494">
        <ele>10.0</ele>
        <time>2019-05-16T13:19:11.907Z</time>
      </trkpt>
      <trkpt lat="38.989095" lon="-8.96494">
        <ele>10.0</ele>
        <time>2019-05-16T13:19:12.915Z</time>
      </trkpt>
      <trkpt lat="38.989095" lon="-8.96494">
        <ele>10.0</ele>
        <time>2019-05-16T13:19:13.906Z</time>
      </trkpt>
      <trkpt lat="38.989095" lon="-8.96494">
        <ele>10.0</ele>
        <time>2019-05-16T13:19:14.933Z</time>
      </trkpt>
      <trkpt lat="38.989095" lon="-8.96494">
        <ele>10.0</ele>
        <time>2019-05-16T13:19:15.933Z</time>
      </trkpt>
      <trkpt lat="38.98910333" lon="-8.96491667">
        <ele>8.0</ele>
        <time>2019-05-16T13:19:16.918Z</time>
      </trkpt>
      <trkpt lat="38.98911167" lon="-8.96490833">
        <ele>8.0</ele>
        <time>2019-05-16T13:19:17.911Z</time>
      </trkpt>
      <trkpt lat="38.989105" lon="-8.964905">
        <ele>8.0</ele>
        <time>2019-05-16T13:19:18.922Z</time>
      </trkpt>
      <trkpt lat="38.989105" lon="-8.964905">
        <ele>8.0</ele>
        <time>2019-05-16T13:19:19.907Z</time>
      </trkpt>
      <trkpt lat="38.98911667" lon="-8.96488833">
        <ele>8.0</ele>
        <time>2019-05-16T13:19:20.931Z</time>
      </trkpt>
      <trkpt lat="38.98912" lon="-8.96487833">
        <ele>8.0</ele>
        <time>2019-05-16T13:19:21.909Z</time>
      </trkpt>
      <trkpt lat="38.98912" lon="-8.96487833">
        <ele>8.0</ele>
        <time>2019-05-16T13:19:22.915Z</time>
      </trkpt>
      <trkpt lat="38.98918167" lon="-8.96482333">
        <ele>8.0</ele>
        <time>2019-05-16T13:19:23.921Z</time>
      </trkpt>
      <trkpt lat="38.98918167" lon="-8.96482333">
        <ele>8.0</ele>
        <time>2019-05-16T13:19:24.908Z</time>
      </trkpt>
      <trkpt lat="38.98919333" lon="-8.96479167">
        <ele>8.0</ele>
        <time>2019-05-16T13:19:25.909Z</time>
      </trkpt>
      <trkpt lat="38.98919333" lon="-8.96479167">
        <ele>8.0</ele>
        <time>2019-05-16T13:19:26.907Z</time>
      </trkpt>
      <trkpt lat="38.98920167" lon="-8.96474167">
        <ele>9.0</ele>
        <time>2019-05-16T13:19:27.912Z</time>
      </trkpt>
      <trkpt lat="38.98920167" lon="-8.96474167">
        <ele>9.0</ele>
        <time>2019-05-16T13:19:28.930Z</time>
      </trkpt>
      <trkpt lat="38.98917333" lon="-8.96472833">
        <ele>10.0</ele>
        <time>2019-05-16T13:19:29.916Z</time>
      </trkpt>
      <trkpt lat="38.989155" lon="-8.964725">
        <ele>11.0</ele>
        <time>2019-05-16T13:19:30.954Z</time>
      </trkpt>
      <trkpt lat="38.989155" lon="-8.964725">
        <ele>11.0</ele>
        <time>2019-05-16T13:19:31.899Z</time>
      </trkpt>
      <trkpt lat="38.98914167" lon="-8.96472333">
        <ele>11.0</ele>
        <time>2019-05-16T13:19:32.913Z</time>
      </trkpt>
      <trkpt lat="38.98914167" lon="-8.96472333">
        <ele>11.0</ele>
        <time>2019-05-16T13:19:33.925Z</time>
      </trkpt>
      <trkpt lat="38.98913833" lon="-8.964725">
        <ele>11.0</ele>
        <time>2019-05-16T13:19:34.897Z</time>
      </trkpt>
      <trkpt lat="38.98913833" lon="-8.964725">
        <ele>11.0</ele>
        <time>2019-05-16T13:19:35.921Z</time>
      </trkpt>
      <trkpt lat="38.98913833" lon="-8.964725">
        <ele>11.0</ele>
        <time>2019-05-16T13:19:36.927Z</time>
      </trkpt>
      <trkpt lat="38.98913833" lon="-8.964725">
        <ele>11.0</ele>
        <time>2019-05-16T13:19:37.899Z</time>
      </trkpt>
      <trkpt lat="38.98913833" lon="-8.964725">
        <ele>11.0</ele>
        <time>2019-05-16T13:19:38.905Z</time>
      </trkpt>
      <trkpt lat="38.98913833" lon="-8.964725">
        <ele>11.0</ele>
        <time>2019-05-16T13:19:39.911Z</time>
      </trkpt>
      <trkpt lat="38.98913833" lon="-8.964725">
        <ele>11.0</ele>
        <time>2019-05-16T13:19:40.925Z</time>
      </trkpt>
      <trkpt lat="38.98913833" lon="-8.964725">
        <ele>11.0</ele>
        <time>2019-05-16T13:19:41.910Z</time>
      </trkpt>
      <trkpt lat="38.98913833" lon="-8.964725">
        <ele>11.0</ele>
        <time>2019-05-16T13:19:42.913Z</time>
      </trkpt>
      <trkpt lat="38.98913833" lon="-8.964725">
        <ele>11.0</ele>
        <time>2019-05-16T13:19:43.907Z</time>
      </trkpt>
      <trkpt lat="38.98913833" lon="-8.964725">
        <ele>11.0</ele>
        <time>2019-05-16T13:19:44.913Z</time>
      </trkpt>
      <trkpt lat="38.98913833" lon="-8.964725">
        <ele>11.0</ele>
        <time>2019-05-16T13:19:45.909Z</time>
      </trkpt>
      <trkpt lat="38.98913833" lon="-8.964725">
        <ele>11.0</ele>
        <time>2019-05-16T13:19:46.912Z</time>
      </trkpt>
      <trkpt lat="38.98913833" lon="-8.964725">
        <ele>11.0</ele>
        <time>2019-05-16T13:19:47.907Z</time>
      </trkpt>
      <trkpt lat="38.98913833" lon="-8.964725">
        <ele>11.0</ele>
        <time>2019-05-16T13:19:48.911Z</time>
      </trkpt>
      <trkpt lat="38.98913833" lon="-8.964725">
        <ele>11.0</ele>
        <time>2019-05-16T13:19:49.907Z</time>
      </trkpt>
      <trkpt lat="38.98913833" lon="-8.964725">
        <ele>11.0</ele>
        <time>2019-05-16T13:19:50.911Z</time>
      </trkpt>
      <trkpt lat="38.98913833" lon="-8.964725">
        <ele>11.0</ele>
        <time>2019-05-16T13:19:51.907Z</time>
      </trkpt>
      <trkpt lat="38.98909833" lon="-8.96470333">
        <ele>9.0</ele>
        <time>2019-05-16T13:19:52.912Z</time>
      </trkpt>
      <trkpt lat="38.98909833" lon="-8.96470333">
        <ele>9.0</ele>
        <time>2019-05-16T13:19:53.907Z</time>
      </trkpt>
      <trkpt lat="38.98908833" lon="-8.96468333">
        <ele>9.0</ele>
        <time>2019-05-16T13:19:54.934Z</time>
      </trkpt>
      <trkpt lat="38.98908833" lon="-8.96468333">
        <ele>9.0</ele>
        <time>2019-05-16T13:19:55.920Z</time>
      </trkpt>
      <trkpt lat="38.98908167" lon="-8.96467167">
        <ele>9.0</ele>
        <time>2019-05-16T13:19:56.916Z</time>
      </trkpt>
      <trkpt lat="38.98908167" lon="-8.96467167">
        <ele>9.0</ele>
        <time>2019-05-16T13:19:57.907Z</time>
      </trkpt>
      <trkpt lat="38.98907167" lon="-8.96467167">
        <ele>9.0</ele>
        <time>2019-05-16T13:19:58.976Z</time>
      </trkpt>
      <trkpt lat="38.98907167" lon="-8.96467167">
        <ele>9.0</ele>
        <time>2019-05-16T13:19:59.901Z</time>
      </trkpt>
      <trkpt lat="38.98907333" lon="-8.96467167">
        <ele>9.0</ele>
        <time>2019-05-16T13:20:00.915Z</time>
      </trkpt>
      <trkpt lat="38.98907333" lon="-8.96467167">
        <ele>9.0</ele>
        <time>2019-05-16T13:20:01.912Z</time>
      </trkpt>
      <trkpt lat="38.989075" lon="-8.96467167">
        <ele>9.0</ele>
        <time>2019-05-16T13:20:02.920Z</time>
      </trkpt>
      <trkpt lat="38.989075" lon="-8.96467167">
        <ele>9.0</ele>
        <time>2019-05-16T13:20:03.924Z</time>
      </trkpt>
      <trkpt lat="38.989075" lon="-8.96467167">
        <ele>9.0</ele>
        <time>2019-05-16T13:20:04.930Z</time>
      </trkpt>
      <trkpt lat="38.989075" lon="-8.96467167">
        <ele>9.0</ele>
        <time>2019-05-16T13:20:05.899Z</time>
      </trkpt>
      <trkpt lat="38.989075" lon="-8.96467167">
        <ele>9.0</ele>
        <time>2019-05-16T13:20:06.907Z</time>
      </trkpt>
      <trkpt lat="38.989075" lon="-8.96467167">
        <ele>9.0</ele>
        <time>2019-05-16T13:20:07.913Z</time>
      </trkpt>
      <trkpt lat="38.989075" lon="-8.96467167">
        <ele>9.0</ele>
        <time>2019-05-16T13:20:08.920Z</time>
      </trkpt>
      <trkpt lat="38.989075" lon="-8.96467167">
        <ele>9.0</ele>
        <time>2019-05-16T13:20:09.918Z</time>
      </trkpt>
      <trkpt lat="38.989075" lon="-8.96467167">
        <ele>9.0</ele>
        <time>2019-05-16T13:20:10.912Z</time>
      </trkpt>
      <trkpt lat="38.989075" lon="-8.96467167">
        <ele>9.0</ele>
        <time>2019-05-16T13:20:11.907Z</time>
      </trkpt>
      <trkpt lat="38.989075" lon="-8.96467167">
        <ele>9.0</ele>
        <time>2019-05-16T13:20:12.912Z</time>
      </trkpt>
      <trkpt lat="38.989075" lon="-8.96467167">
        <ele>9.0</ele>
        <time>2019-05-16T13:20:13.909Z</time>
      </trkpt>
      <trkpt lat="38.989075" lon="-8.96467167">
        <ele>9.0</ele>
        <time>2019-05-16T13:20:14.911Z</time>
      </trkpt>
      <trkpt lat="38.989075" lon="-8.96467167">
        <ele>9.0</ele>
        <time>2019-05-16T13:20:15.908Z</time>
      </trkpt>
      <trkpt lat="38.989075" lon="-8.96467167">
        <ele>9.0</ele>
        <time>2019-05-16T13:20:16.913Z</time>
      </trkpt>
      <trkpt lat="38.989075" lon="-8.96467167">
        <ele>9.0</ele>
        <time>2019-05-16T13:20:17.907Z</time>
      </trkpt>
      <trkpt lat="38.989075" lon="-8.96467167">
        <ele>9.0</ele>
        <time>2019-05-16T13:20:18.916Z</time>
      </trkpt>
      <trkpt lat="38.989075" lon="-8.96467167">
        <ele>9.0</ele>
        <time>2019-05-16T13:20:19.912Z</time>
      </trkpt>
      <trkpt lat="38.989075" lon="-8.96467167">
        <ele>9.0</ele>
        <time>2019-05-16T13:20:20.924Z</time>
      </trkpt>
      <trkpt lat="38.989075" lon="-8.96467167">
        <ele>9.0</ele>
        <time>2019-05-16T13:20:21.901Z</time>
      </trkpt>
      <trkpt lat="38.989075" lon="-8.96467167">
        <ele>9.0</ele>
        <time>2019-05-16T13:20:22.907Z</time>
      </trkpt>
      <trkpt lat="38.989075" lon="-8.96467167">
        <ele>9.0</ele>
        <time>2019-05-16T13:20:23.915Z</time>
      </trkpt>
      <trkpt lat="38.989075" lon="-8.96467167">
        <ele>9.0</ele>
        <time>2019-05-16T13:20:24.927Z</time>
      </trkpt>
      <trkpt lat="38.989075" lon="-8.96467167">
        <ele>9.0</ele>
        <time>2019-05-16T13:20:25.920Z</time>
      </trkpt>
      <trkpt lat="38.989075" lon="-8.96467167">
        <ele>9.0</ele>
        <time>2019-05-16T13:20:26.912Z</time>
      </trkpt>
      <trkpt lat="38.989075" lon="-8.96467167">
        <ele>9.0</ele>
        <time>2019-05-16T13:20:27.907Z</time>
      </trkpt>
      <trkpt lat="38.989075" lon="-8.96467167">
        <ele>9.0</ele>
        <time>2019-05-16T13:20:28.929Z</time>
      </trkpt>
      <trkpt lat="38.989075" lon="-8.96467167">
        <ele>9.0</ele>
        <time>2019-05-16T13:20:29.915Z</time>
      </trkpt>
      <trkpt lat="38.989075" lon="-8.96467167">
        <ele>9.0</ele>
        <time>2019-05-16T13:20:30.914Z</time>
      </trkpt>
      <trkpt lat="38.989075" lon="-8.96467167">
        <ele>9.0</ele>
        <time>2019-05-16T13:20:31.907Z</time>
      </trkpt>
      <trkpt lat="38.989075" lon="-8.96467167">
        <ele>9.0</ele>
        <time>2019-05-16T13:20:32.914Z</time>
      </trkpt>
      <trkpt lat="38.989075" lon="-8.96467167">
        <ele>9.0</ele>
        <time>2019-05-16T13:20:33.910Z</time>
      </trkpt>
      <trkpt lat="38.989075" lon="-8.96467167">
        <ele>9.0</ele>
        <time>2019-05-16T13:20:34.912Z</time>
      </trkpt>
      <trkpt lat="38.989075" lon="-8.96467167">
        <ele>9.0</ele>
        <time>2019-05-16T13:20:35.908Z</time>
      </trkpt>
      <trkpt lat="38.989075" lon="-8.96467167">
        <ele>9.0</ele>
        <time>2019-05-16T13:20:36.914Z</time>
      </trkpt>
      <trkpt lat="38.989075" lon="-8.96467167">
        <ele>9.0</ele>
        <time>2019-05-16T13:20:37.913Z</time>
      </trkpt>
      <trkpt lat="38.989075" lon="-8.96467167">
        <ele>9.0</ele>
        <time>2019-05-16T13:20:38.932Z</time>
      </trkpt>
      <trkpt lat="38.989075" lon="-8.96467167">
        <ele>9.0</ele>
        <time>2019-05-16T13:20:39.926Z</time>
      </trkpt>
      <trkpt lat="38.989075" lon="-8.96467167">
        <ele>9.0</ele>
        <time>2019-05-16T13:20:40.912Z</time>
      </trkpt>
      <trkpt lat="38.989075" lon="-8.96467167">
        <ele>9.0</ele>
        <time>2019-05-16T13:20:41.908Z</time>
      </trkpt>
      <trkpt lat="38.989075" lon="-8.96467167">
        <ele>9.0</ele>
        <time>2019-05-16T13:20:42.914Z</time>
      </trkpt>
      <trkpt lat="38.989075" lon="-8.96467167">
        <ele>9.0</ele>
        <time>2019-05-16T13:20:43.911Z</time>
      </trkpt>
      <trkpt lat="38.989075" lon="-8.96467167">
        <ele>9.0</ele>
        <time>2019-05-16T13:20:44.912Z</time>
      </trkpt>
      <trkpt lat="38.989075" lon="-8.96467167">
        <ele>9.0</ele>
        <time>2019-05-16T13:20:45.907Z</time>
      </trkpt>
      <trkpt lat="38.989075" lon="-8.96467167">
        <ele>9.0</ele>
        <time>2019-05-16T13:20:46.932Z</time>
      </trkpt>
      <trkpt lat="38.989075" lon="-8.96467167">
        <ele>9.0</ele>
        <time>2019-05-16T13:20:47.918Z</time>
      </trkpt>
      <trkpt lat="38.989075" lon="-8.96467167">
        <ele>9.0</ele>
        <time>2019-05-16T13:20:48.926Z</time>
      </trkpt>
      <trkpt lat="38.989075" lon="-8.96467167">
        <ele>9.0</ele>
        <time>2019-05-16T13:20:49.914Z</time>
      </trkpt>
      <trkpt lat="38.989075" lon="-8.96467167">
        <ele>9.0</ele>
        <time>2019-05-16T13:20:50.907Z</time>
      </trkpt>
      <trkpt lat="38.989075" lon="-8.96467167">
        <ele>9.0</ele>
        <time>2019-05-16T13:20:51.911Z</time>
      </trkpt>
      <trkpt lat="38.989075" lon="-8.96467167">
        <ele>9.0</ele>
        <time>2019-05-16T13:20:52.908Z</time>
      </trkpt>
      <trkpt lat="38.989075" lon="-8.96467167">
        <ele>9.0</ele>
        <time>2019-05-16T13:20:53.912Z</time>
      </trkpt>
      <trkpt lat="38.989075" lon="-8.96467167">
        <ele>9.0</ele>
        <time>2019-05-16T13:20:54.914Z</time>
      </trkpt>
      <trkpt lat="38.989075" lon="-8.96467167">
        <ele>9.0</ele>
        <time>2019-05-16T13:20:55.907Z</time>
      </trkpt>
      <trkpt lat="38.989075" lon="-8.96467167">
        <ele>9.0</ele>
        <time>2019-05-16T13:20:56.902Z</time>
      </trkpt>
      <trkpt lat="38.989075" lon="-8.96467167">
        <ele>9.0</ele>
        <time>2019-05-16T13:20:57.930Z</time>
      </trkpt>
      <trkpt lat="38.989075" lon="-8.96467167">
        <ele>9.0</ele>
        <time>2019-05-16T13:20:58.927Z</time>
      </trkpt>
      <trkpt lat="38.989075" lon="-8.96467167">
        <ele>9.0</ele>
        <time>2019-05-16T13:20:59.912Z</time>
      </trkpt>
      <trkpt lat="38.989075" lon="-8.96467167">
        <ele>9.0</ele>
        <time>2019-05-16T13:21:00.915Z</time>
      </trkpt>
      <trkpt lat="38.989075" lon="-8.96467167">
        <ele>9.0</ele>
        <time>2019-05-16T13:21:01.907Z</time>
      </trkpt>
      <trkpt lat="38.989075" lon="-8.96467167">
        <ele>9.0</ele>
        <time>2019-05-16T13:21:02.911Z</time>
      </trkpt>
      <trkpt lat="38.989075" lon="-8.96467167">
        <ele>9.0</ele>
        <time>2019-05-16T13:21:03.909Z</time>
      </trkpt>
      <trkpt lat="38.989075" lon="-8.96467167">
        <ele>9.0</ele>
        <time>2019-05-16T13:21:04.912Z</time>
      </trkpt>
      <trkpt lat="38.989075" lon="-8.96467167">
        <ele>9.0</ele>
        <time>2019-05-16T13:21:05.907Z</time>
      </trkpt>
      <trkpt lat="38.989075" lon="-8.96467167">
        <ele>9.0</ele>
        <time>2019-05-16T13:21:06.915Z</time>
      </trkpt>
      <trkpt lat="38.989075" lon="-8.96467167">
        <ele>9.0</ele>
        <time>2019-05-16T13:21:07.907Z</time>
      </trkpt>
      <trkpt lat="38.989075" lon="-8.96467167">
        <ele>9.0</ele>
        <time>2019-05-16T13:21:08.912Z</time>
      </trkpt>
      <trkpt lat="38.989075" lon="-8.96467167">
        <ele>9.0</ele>
        <time>2019-05-16T13:21:09.907Z</time>
      </trkpt>
      <trkpt lat="38.989075" lon="-8.96467167">
        <ele>9.0</ele>
        <time>2019-05-16T13:21:10.911Z</time>
      </trkpt>
      <trkpt lat="38.989075" lon="-8.96467167">
        <ele>9.0</ele>
        <time>2019-05-16T13:21:11.907Z</time>
      </trkpt>
      <trkpt lat="38.989075" lon="-8.96467167">
        <ele>9.0</ele>
        <time>2019-05-16T13:21:12.914Z</time>
      </trkpt>
      <trkpt lat="38.989075" lon="-8.96467167">
        <ele>9.0</ele>
        <time>2019-05-16T13:21:13.913Z</time>
      </trkpt>
      <trkpt lat="38.989075" lon="-8.96467167">
        <ele>9.0</ele>
        <time>2019-05-16T13:21:14.907Z</time>
      </trkpt>
      <trkpt lat="38.989075" lon="-8.96467167">
        <ele>9.0</ele>
        <time>2019-05-16T13:21:15.912Z</time>
      </trkpt>
      <trkpt lat="38.989075" lon="-8.96467167">
        <ele>9.0</ele>
        <time>2019-05-16T13:21:16.933Z</time>
      </trkpt>
      <trkpt lat="38.989075" lon="-8.96467167">
        <ele>9.0</ele>
        <time>2019-05-16T13:21:17.918Z</time>
      </trkpt>
      <trkpt lat="38.989075" lon="-8.96467167">
        <ele>9.0</ele>
        <time>2019-05-16T13:21:18.924Z</time>
      </trkpt>
      <trkpt lat="38.989075" lon="-8.96467167">
        <ele>9.0</ele>
        <time>2019-05-16T13:21:19.909Z</time>
      </trkpt>
      <trkpt lat="38.989075" lon="-8.96467167">
        <ele>9.0</ele>
        <time>2019-05-16T13:21:20.920Z</time>
      </trkpt>
      <trkpt lat="38.989075" lon="-8.96467167">
        <ele>9.0</ele>
        <time>2019-05-16T13:21:21.928Z</time>
      </trkpt>
      <trkpt lat="38.989075" lon="-8.96467167">
        <ele>9.0</ele>
        <time>2019-05-16T13:21:22.903Z</time>
      </trkpt>
      <trkpt lat="38.989075" lon="-8.96467167">
        <ele>9.0</ele>
        <time>2019-05-16T13:21:23.909Z</time>
      </trkpt>
      <trkpt lat="38.989075" lon="-8.96467167">
        <ele>9.0</ele>
        <time>2019-05-16T13:21:24.914Z</time>
      </trkpt>
      <trkpt lat="38.989075" lon="-8.96467167">
        <ele>9.0</ele>
        <time>2019-05-16T13:21:25.908Z</time>
      </trkpt>
      <trkpt lat="38.989075" lon="-8.96467167">
        <ele>9.0</ele>
        <time>2019-05-16T13:21:26.914Z</time>
      </trkpt>
      <trkpt lat="38.989075" lon="-8.96467167">
        <ele>9.0</ele>
        <time>2019-05-16T13:21:27.907Z</time>
      </trkpt>
      <trkpt lat="38.989075" lon="-8.96467167">
        <ele>9.0</ele>
        <time>2019-05-16T13:21:28.925Z</time>
      </trkpt>
      <trkpt lat="38.989075" lon="-8.96467167">
        <ele>9.0</ele>
        <time>2019-05-16T13:21:29.911Z</time>
      </trkpt>
      <trkpt lat="38.989075" lon="-8.96467167">
        <ele>9.0</ele>
        <time>2019-05-16T13:21:30.914Z</time>
      </trkpt>
      <trkpt lat="38.989075" lon="-8.96467167">
        <ele>9.0</ele>
        <time>2019-05-16T13:21:31.914Z</time>
      </trkpt>
      <trkpt lat="38.989075" lon="-8.96467167">
        <ele>9.0</ele>
        <time>2019-05-16T13:21:32.907Z</time>
      </trkpt>
      <trkpt lat="38.989075" lon="-8.96467167">
        <ele>9.0</ele>
        <time>2019-05-16T13:21:33.912Z</time>
      </trkpt>
      <trkpt lat="38.989075" lon="-8.96467167">
        <ele>9.0</ele>
        <time>2019-05-16T13:21:34.908Z</time>
      </trkpt>
      <trkpt lat="38.989075" lon="-8.96467167">
        <ele>9.0</ele>
        <time>2019-05-16T13:21:35.914Z</time>
      </trkpt>
      <trkpt lat="38.989075" lon="-8.96467167">
        <ele>9.0</ele>
        <time>2019-05-16T13:21:36.914Z</time>
      </trkpt>
      <trkpt lat="38.989075" lon="-8.96467167">
        <ele>9.0</ele>
        <time>2019-05-16T13:21:37.912Z</time>
      </trkpt>
      <trkpt lat="38.989075" lon="-8.96467167">
        <ele>9.0</ele>
        <time>2019-05-16T13:21:38.933Z</time>
      </trkpt>
      <trkpt lat="38.989075" lon="-8.96467167">
        <ele>9.0</ele>
        <time>2019-05-16T13:21:39.919Z</time>
      </trkpt>
      <trkpt lat="38.989075" lon="-8.96467167">
        <ele>9.0</ele>
        <time>2019-05-16T13:21:40.913Z</time>
      </trkpt>
      <trkpt lat="38.989075" lon="-8.96467167">
        <ele>9.0</ele>
        <time>2019-05-16T13:21:41.907Z</time>
      </trkpt>
      <trkpt lat="38.989075" lon="-8.96467167">
        <ele>9.0</ele>
        <time>2019-05-16T13:21:42.914Z</time>
      </trkpt>
      <trkpt lat="38.989075" lon="-8.96467167">
        <ele>9.0</ele>
        <time>2019-05-16T13:21:43.908Z</time>
      </trkpt>
      <trkpt lat="38.989075" lon="-8.96467167">
        <ele>9.0</ele>
        <time>2019-05-16T13:21:44.914Z</time>
      </trkpt>
      <trkpt lat="38.989075" lon="-8.96467167">
        <ele>9.0</ele>
        <time>2019-05-16T13:21:45.907Z</time>
      </trkpt>
      <trkpt lat="38.989075" lon="-8.96467167">
        <ele>9.0</ele>
        <time>2019-05-16T13:21:46.912Z</time>
      </trkpt>
      <trkpt lat="38.989075" lon="-8.96467167">
        <ele>9.0</ele>
        <time>2019-05-16T13:21:47.908Z</time>
      </trkpt>
      <trkpt lat="38.989075" lon="-8.96467167">
        <ele>9.0</ele>
        <time>2019-05-16T13:21:48.919Z</time>
      </trkpt>
      <trkpt lat="38.989075" lon="-8.96467167">
        <ele>9.0</ele>
        <time>2019-05-16T13:21:49.912Z</time>
      </trkpt>
      <trkpt lat="38.989075" lon="-8.96467167">
        <ele>9.0</ele>
        <time>2019-05-16T13:21:50.904Z</time>
      </trkpt>
      <trkpt lat="38.989075" lon="-8.96467167">
        <ele>9.0</ele>
        <time>2019-05-16T13:21:51.912Z</time>
      </trkpt>
      <trkpt lat="38.989075" lon="-8.96467167">
        <ele>9.0</ele>
        <time>2019-05-16T13:21:52.908Z</time>
      </trkpt>
      <trkpt lat="38.989075" lon="-8.96467167">
        <ele>9.0</ele>
        <time>2019-05-16T13:21:53.912Z</time>
      </trkpt>
      <trkpt lat="38.989075" lon="-8.96467167">
        <ele>9.0</ele>
        <time>2019-05-16T13:21:54.914Z</time>
      </trkpt>
      <trkpt lat="38.989075" lon="-8.96467167">
        <ele>9.0</ele>
        <time>2019-05-16T13:21:55.929Z</time>
      </trkpt>
      <trkpt lat="38.989075" lon="-8.96467167">
        <ele>9.0</ele>
        <time>2019-05-16T13:21:56.917Z</time>
      </trkpt>
      <trkpt lat="38.989075" lon="-8.96467167">
        <ele>9.0</ele>
        <time>2019-05-16T13:21:57.914Z</time>
      </trkpt>
      <trkpt lat="38.989075" lon="-8.96467167">
        <ele>9.0</ele>
        <time>2019-05-16T13:21:58.927Z</time>
      </trkpt>
      <trkpt lat="38.989075" lon="-8.96467167">
        <ele>9.0</ele>
        <time>2019-05-16T13:21:59.912Z</time>
      </trkpt>
      <trkpt lat="38.989075" lon="-8.96467167">
        <ele>9.0</ele>
        <time>2019-05-16T13:22:00.914Z</time>
      </trkpt>
      <trkpt lat="38.989075" lon="-8.96467167">
        <ele>9.0</ele>
        <time>2019-05-16T13:22:01.907Z</time>
      </trkpt>
      <trkpt lat="38.989075" lon="-8.96467167">
        <ele>9.0</ele>
        <time>2019-05-16T13:22:02.912Z</time>
      </trkpt>
      <trkpt lat="38.989075" lon="-8.96467167">
        <ele>9.0</ele>
        <time>2019-05-16T13:22:03.910Z</time>
      </trkpt>
      <trkpt lat="38.989075" lon="-8.96467167">
        <ele>9.0</ele>
        <time>2019-05-16T13:22:04.912Z</time>
      </trkpt>
      <trkpt lat="38.989075" lon="-8.96467167">
        <ele>9.0</ele>
        <time>2019-05-16T13:22:05.911Z</time>
      </trkpt>
      <trkpt lat="38.989075" lon="-8.96467167">
        <ele>9.0</ele>
        <time>2019-05-16T13:22:06.909Z</time>
      </trkpt>
      <trkpt lat="38.989075" lon="-8.96467167">
        <ele>9.0</ele>
        <time>2019-05-16T13:22:07.907Z</time>
      </trkpt>
      <trkpt lat="38.989075" lon="-8.96467167">
        <ele>9.0</ele>
        <time>2019-05-16T13:22:08.919Z</time>
      </trkpt>
      <trkpt lat="38.989075" lon="-8.96467167">
        <ele>9.0</ele>
        <time>2019-05-16T13:22:09.907Z</time>
      </trkpt>
      <trkpt lat="38.989075" lon="-8.96467167">
        <ele>9.0</ele>
        <time>2019-05-16T13:22:10.912Z</time>
      </trkpt>
      <trkpt lat="38.989075" lon="-8.96467167">
        <ele>9.0</ele>
        <time>2019-05-16T13:22:11.907Z</time>
      </trkpt>
      <trkpt lat="38.989075" lon="-8.96467167">
        <ele>9.0</ele>
        <time>2019-05-16T13:22:12.914Z</time>
      </trkpt>
      <trkpt lat="38.989075" lon="-8.96467167">
        <ele>9.0</ele>
        <time>2019-05-16T13:22:13.912Z</time>
      </trkpt>
      <trkpt lat="38.989075" lon="-8.96467167">
        <ele>9.0</ele>
        <time>2019-05-16T13:22:14.907Z</time>
      </trkpt>
      <trkpt lat="38.989075" lon="-8.96467167">
        <ele>9.0</ele>
        <time>2019-05-16T13:22:15.912Z</time>
      </trkpt>
      <trkpt lat="38.989075" lon="-8.96467167">
        <ele>9.0</ele>
        <time>2019-05-16T13:22:16.903Z</time>
      </trkpt>
      <trkpt lat="38.989075" lon="-8.96467167">
        <ele>9.0</ele>
        <time>2019-05-16T13:22:17.936Z</time>
      </trkpt>
      <trkpt lat="38.989075" lon="-8.96467167">
        <ele>9.0</ele>
        <time>2019-05-16T13:22:18.915Z</time>
      </trkpt>
      <trkpt lat="38.989075" lon="-8.96467167">
        <ele>9.0</ele>
        <time>2019-05-16T13:22:19.907Z</time>
      </trkpt>
      <trkpt lat="38.989075" lon="-8.96467167">
        <ele>9.0</ele>
        <time>2019-05-16T13:22:20.902Z</time>
      </trkpt>
      <trkpt lat="38.989075" lon="-8.96467167">
        <ele>9.0</ele>
        <time>2019-05-16T13:22:21.905Z</time>
      </trkpt>
      <trkpt lat="38.989075" lon="-8.96467167">
        <ele>9.0</ele>
        <time>2019-05-16T13:22:22.911Z</time>
      </trkpt>
      <trkpt lat="38.989075" lon="-8.96467167">
        <ele>9.0</ele>
        <time>2019-05-16T13:22:23.917Z</time>
      </trkpt>
      <trkpt lat="38.989075" lon="-8.96467167">
        <ele>9.0</ele>
        <time>2019-05-16T13:22:24.923Z</time>
      </trkpt>
      <trkpt lat="38.989075" lon="-8.96467167">
        <ele>9.0</ele>
        <time>2019-05-16T13:22:25.908Z</time>
      </trkpt>
      <trkpt lat="38.989075" lon="-8.96467167">
        <ele>9.0</ele>
        <time>2019-05-16T13:22:26.907Z</time>
      </trkpt>
      <trkpt lat="38.989075" lon="-8.96467167">
        <ele>9.0</ele>
        <time>2019-05-16T13:22:27.930Z</time>
      </trkpt>
      <trkpt lat="38.989075" lon="-8.96467167">
        <ele>9.0</ele>
        <time>2019-05-16T13:22:28.909Z</time>
      </trkpt>
      <trkpt lat="38.989075" lon="-8.96467167">
        <ele>9.0</ele>
        <time>2019-05-16T13:22:29.920Z</time>
      </trkpt>
      <trkpt lat="38.989075" lon="-8.96467167">
        <ele>9.0</ele>
        <time>2019-05-16T13:22:30.916Z</time>
      </trkpt>
      <trkpt lat="38.989075" lon="-8.96467167">
        <ele>9.0</ele>
        <time>2019-05-16T13:22:31.908Z</time>
      </trkpt>
      <trkpt lat="38.989075" lon="-8.96467167">
        <ele>9.0</ele>
        <time>2019-05-16T13:22:32.914Z</time>
      </trkpt>
      <trkpt lat="38.989075" lon="-8.96467167">
        <ele>9.0</ele>
        <time>2019-05-16T13:22:33.908Z</time>
      </trkpt>
      <trkpt lat="38.989075" lon="-8.96467167">
        <ele>9.0</ele>
        <time>2019-05-16T13:22:34.920Z</time>
      </trkpt>
      <trkpt lat="38.989075" lon="-8.96467167">
        <ele>9.0</ele>
        <time>2019-05-16T13:22:35.908Z</time>
      </trkpt>
      <trkpt lat="38.989075" lon="-8.96467167">
        <ele>9.0</ele>
        <time>2019-05-16T13:22:36.917Z</time>
      </trkpt>
      <trkpt lat="38.989075" lon="-8.96467167">
        <ele>9.0</ele>
        <time>2019-05-16T13:22:37.907Z</time>
      </trkpt>
      <trkpt lat="38.989075" lon="-8.96467167">
        <ele>9.0</ele>
        <time>2019-05-16T13:22:38.922Z</time>
      </trkpt>
      <trkpt lat="38.989075" lon="-8.96467167">
        <ele>9.0</ele>
        <time>2019-05-16T13:22:39.909Z</time>
      </trkpt>
      <trkpt lat="38.989075" lon="-8.96467167">
        <ele>9.0</ele>
        <time>2019-05-16T13:22:40.913Z</time>
      </trkpt>
      <trkpt lat="38.989075" lon="-8.96467167">
        <ele>9.0</ele>
        <time>2019-05-16T13:22:41.907Z</time>
      </trkpt>
      <trkpt lat="38.989075" lon="-8.96467167">
        <ele>9.0</ele>
        <time>2019-05-16T13:22:42.915Z</time>
      </trkpt>
      <trkpt lat="38.989075" lon="-8.96467167">
        <ele>9.0</ele>
        <time>2019-05-16T13:22:43.907Z</time>
      </trkpt>
      <trkpt lat="38.989075" lon="-8.96467167">
        <ele>9.0</ele>
        <time>2019-05-16T13:22:44.914Z</time>
      </trkpt>
      <trkpt lat="38.989075" lon="-8.96467167">
        <ele>9.0</ele>
        <time>2019-05-16T13:22:45.907Z</time>
      </trkpt>
      <trkpt lat="38.989075" lon="-8.96467167">
        <ele>9.0</ele>
        <time>2019-05-16T13:22:46.912Z</time>
      </trkpt>
      <trkpt lat="38.989075" lon="-8.96467167">
        <ele>9.0</ele>
        <time>2019-05-16T13:22:47.908Z</time>
      </trkpt>
      <trkpt lat="38.989075" lon="-8.96467167">
        <ele>9.0</ele>
        <time>2019-05-16T13:22:48.923Z</time>
      </trkpt>
      <trkpt lat="38.989075" lon="-8.96467167">
        <ele>9.0</ele>
        <time>2019-05-16T13:22:49.916Z</time>
      </trkpt>
      <trkpt lat="38.989075" lon="-8.96467167">
        <ele>9.0</ele>
        <time>2019-05-16T13:22:50.912Z</time>
      </trkpt>
      <trkpt lat="38.989075" lon="-8.96467167">
        <ele>9.0</ele>
        <time>2019-05-16T13:22:51.907Z</time>
      </trkpt>
      <trkpt lat="38.989075" lon="-8.96467167">
        <ele>9.0</ele>
        <time>2019-05-16T13:22:52.912Z</time>
      </trkpt>
      <trkpt lat="38.989075" lon="-8.96467167">
        <ele>9.0</ele>
        <time>2019-05-16T13:22:53.914Z</time>
      </trkpt>
      <trkpt lat="38.989075" lon="-8.96467167">
        <ele>9.0</ele>
        <time>2019-05-16T13:22:54.915Z</time>
      </trkpt>
      <trkpt lat="38.989075" lon="-8.96467167">
        <ele>9.0</ele>
        <time>2019-05-16T13:22:55.907Z</time>
      </trkpt>
      <trkpt lat="38.989075" lon="-8.96467167">
        <ele>9.0</ele>
        <time>2019-05-16T13:22:56.912Z</time>
      </trkpt>
      <trkpt lat="38.989075" lon="-8.96467167">
        <ele>9.0</ele>
        <time>2019-05-16T13:22:57.907Z</time>
      </trkpt>
      <trkpt lat="38.989075" lon="-8.96467167">
        <ele>9.0</ele>
        <time>2019-05-16T13:22:58.912Z</time>
      </trkpt>
      <trkpt lat="38.989075" lon="-8.96467167">
        <ele>9.0</ele>
        <time>2019-05-16T13:22:59.912Z</time>
      </trkpt>
      <trkpt lat="38.989075" lon="-8.96467167">
        <ele>9.0</ele>
        <time>2019-05-16T13:23:00.908Z</time>
      </trkpt>
      <trkpt lat="38.989075" lon="-8.96467167">
        <ele>9.0</ele>
        <time>2019-05-16T13:23:01.913Z</time>
      </trkpt>
      <trkpt lat="38.989075" lon="-8.96467167">
        <ele>9.0</ele>
        <time>2019-05-16T13:23:02.907Z</time>
      </trkpt>
      <trkpt lat="38.989075" lon="-8.96467167">
        <ele>9.0</ele>
        <time>2019-05-16T13:23:03.912Z</time>
      </trkpt>
      <trkpt lat="38.989075" lon="-8.96467167">
        <ele>9.0</ele>
        <time>2019-05-16T13:23:04.911Z</time>
      </trkpt>
      <trkpt lat="38.989075" lon="-8.96467167">
        <ele>9.0</ele>
        <time>2019-05-16T13:23:05.912Z</time>
      </trkpt>
      <trkpt lat="38.989075" lon="-8.96467167">
        <ele>9.0</ele>
        <time>2019-05-16T13:23:06.914Z</time>
      </trkpt>
      <trkpt lat="38.989075" lon="-8.96467167">
        <ele>9.0</ele>
        <time>2019-05-16T13:23:07.907Z</time>
      </trkpt>
      <trkpt lat="38.989075" lon="-8.96467167">
        <ele>9.0</ele>
        <time>2019-05-16T13:23:08.922Z</time>
      </trkpt>
      <trkpt lat="38.989075" lon="-8.96467167">
        <ele>9.0</ele>
        <time>2019-05-16T13:23:09.913Z</time>
      </trkpt>
      <trkpt lat="38.989075" lon="-8.96467167">
        <ele>9.0</ele>
        <time>2019-05-16T13:23:10.907Z</time>
      </trkpt>
      <trkpt lat="38.989075" lon="-8.96467167">
        <ele>9.0</ele>
        <time>2019-05-16T13:23:11.912Z</time>
      </trkpt>
      <trkpt lat="38.989075" lon="-8.96467167">
        <ele>9.0</ele>
        <time>2019-05-16T13:23:12.914Z</time>
      </trkpt>
      <trkpt lat="38.989075" lon="-8.96467167">
        <ele>9.0</ele>
        <time>2019-05-16T13:23:13.908Z</time>
      </trkpt>
      <trkpt lat="38.989075" lon="-8.96467167">
        <ele>9.0</ele>
        <time>2019-05-16T13:23:14.909Z</time>
      </trkpt>
      <trkpt lat="38.989075" lon="-8.96467167">
        <ele>9.0</ele>
        <time>2019-05-16T13:23:15.907Z</time>
      </trkpt>
      <trkpt lat="38.989075" lon="-8.96467167">
        <ele>9.0</ele>
        <time>2019-05-16T13:23:16.912Z</time>
      </trkpt>
      <trkpt lat="38.989075" lon="-8.96467167">
        <ele>9.0</ele>
        <time>2019-05-16T13:23:17.907Z</time>
      </trkpt>
      <trkpt lat="38.989075" lon="-8.96467167">
        <ele>9.0</ele>
        <time>2019-05-16T13:23:18.922Z</time>
      </trkpt>
      <trkpt lat="38.989075" lon="-8.96467167">
        <ele>9.0</ele>
        <time>2019-05-16T13:23:19.909Z</time>
      </trkpt>
      <trkpt lat="38.989075" lon="-8.96467167">
        <ele>9.0</ele>
        <time>2019-05-16T13:23:20.903Z</time>
      </trkpt>
      <trkpt lat="38.989075" lon="-8.96467167">
        <ele>9.0</ele>
        <time>2019-05-16T13:23:21.922Z</time>
      </trkpt>
      <trkpt lat="38.989075" lon="-8.96467167">
        <ele>9.0</ele>
        <time>2019-05-16T13:23:22.928Z</time>
      </trkpt>
      <trkpt lat="38.989075" lon="-8.96467167">
        <ele>9.0</ele>
        <time>2019-05-16T13:23:23.898Z</time>
      </trkpt>
      <trkpt lat="38.989075" lon="-8.96467167">
        <ele>9.0</ele>
        <time>2019-05-16T13:23:24.918Z</time>
      </trkpt>
      <trkpt lat="38.989075" lon="-8.96467167">
        <ele>9.0</ele>
        <time>2019-05-16T13:23:25.907Z</time>
      </trkpt>
      <trkpt lat="38.989075" lon="-8.96467167">
        <ele>9.0</ele>
        <time>2019-05-16T13:23:26.912Z</time>
      </trkpt>
      <trkpt lat="38.989075" lon="-8.96467167">
        <ele>9.0</ele>
        <time>2019-05-16T13:23:27.912Z</time>
      </trkpt>
      <trkpt lat="38.989075" lon="-8.96467167">
        <ele>9.0</ele>
        <time>2019-05-16T13:23:28.923Z</time>
      </trkpt>
      <trkpt lat="38.989075" lon="-8.96467167">
        <ele>9.0</ele>
        <time>2019-05-16T13:23:29.912Z</time>
      </trkpt>
      <trkpt lat="38.989075" lon="-8.96467167">
        <ele>9.0</ele>
        <time>2019-05-16T13:23:30.914Z</time>
      </trkpt>
      <trkpt lat="38.989075" lon="-8.96467167">
        <ele>9.0</ele>
        <time>2019-05-16T13:23:31.908Z</time>
      </trkpt>
      <trkpt lat="38.989075" lon="-8.96467167">
        <ele>9.0</ele>
        <time>2019-05-16T13:23:32.910Z</time>
      </trkpt>
      <trkpt lat="38.989075" lon="-8.96467167">
        <ele>9.0</ele>
        <time>2019-05-16T13:23:33.907Z</time>
      </trkpt>
      <trkpt lat="38.989075" lon="-8.96467167">
        <ele>9.0</ele>
        <time>2019-05-16T13:23:34.913Z</time>
      </trkpt>
      <trkpt lat="38.989075" lon="-8.96467167">
        <ele>9.0</ele>
        <time>2019-05-16T13:23:35.907Z</time>
      </trkpt>
      <trkpt lat="38.989075" lon="-8.96467167">
        <ele>9.0</ele>
        <time>2019-05-16T13:23:36.915Z</time>
      </trkpt>
      <trkpt lat="38.989075" lon="-8.96467167">
        <ele>9.0</ele>
        <time>2019-05-16T13:23:37.909Z</time>
      </trkpt>
      <trkpt lat="38.989075" lon="-8.96467167">
        <ele>9.0</ele>
        <time>2019-05-16T13:23:38.914Z</time>
      </trkpt>
      <trkpt lat="38.989075" lon="-8.96467167">
        <ele>9.0</ele>
        <time>2019-05-16T13:23:39.907Z</time>
      </trkpt>
      <trkpt lat="38.989075" lon="-8.96467167">
        <ele>9.0</ele>
        <time>2019-05-16T13:23:40.913Z</time>
      </trkpt>
      <trkpt lat="38.989075" lon="-8.96467167">
        <ele>9.0</ele>
        <time>2019-05-16T13:23:41.907Z</time>
      </trkpt>
      <trkpt lat="38.989075" lon="-8.96467167">
        <ele>9.0</ele>
        <time>2019-05-16T13:23:42.913Z</time>
      </trkpt>
      <trkpt lat="38.989075" lon="-8.96467167">
        <ele>9.0</ele>
        <time>2019-05-16T13:23:43.907Z</time>
      </trkpt>
      <trkpt lat="38.989075" lon="-8.96467167">
        <ele>9.0</ele>
        <time>2019-05-16T13:23:44.913Z</time>
      </trkpt>
      <trkpt lat="38.989075" lon="-8.96467167">
        <ele>9.0</ele>
        <time>2019-05-16T13:23:45.910Z</time>
      </trkpt>
      <trkpt lat="38.989075" lon="-8.96467167">
        <ele>9.0</ele>
        <time>2019-05-16T13:23:46.928Z</time>
      </trkpt>
      <trkpt lat="38.989075" lon="-8.96467167">
        <ele>9.0</ele>
        <time>2019-05-16T13:23:47.913Z</time>
      </trkpt>
      <trkpt lat="38.989075" lon="-8.96467167">
        <ele>9.0</ele>
        <time>2019-05-16T13:23:48.918Z</time>
      </trkpt>
      <trkpt lat="38.989075" lon="-8.96467167">
        <ele>9.0</ele>
        <time>2019-05-16T13:23:49.907Z</time>
      </trkpt>
      <trkpt lat="38.989075" lon="-8.96467167">
        <ele>9.0</ele>
        <time>2019-05-16T13:23:50.920Z</time>
      </trkpt>
      <trkpt lat="38.989075" lon="-8.96467167">
        <ele>9.0</ele>
        <time>2019-05-16T13:23:51.910Z</time>
      </trkpt>
      <trkpt lat="38.989075" lon="-8.96467167">
        <ele>9.0</ele>
        <time>2019-05-16T13:23:52.912Z</time>
      </trkpt>
      <trkpt lat="38.989075" lon="-8.96467167">
        <ele>9.0</ele>
        <time>2019-05-16T13:23:53.907Z</time>
      </trkpt>
      <trkpt lat="38.989075" lon="-8.96467167">
        <ele>9.0</ele>
        <time>2019-05-16T13:23:54.915Z</time>
      </trkpt>
      <trkpt lat="38.989075" lon="-8.96467167">
        <ele>9.0</ele>
        <time>2019-05-16T13:23:55.907Z</time>
      </trkpt>
      <trkpt lat="38.989075" lon="-8.96467167">
        <ele>9.0</ele>
        <time>2019-05-16T13:23:56.912Z</time>
      </trkpt>
      <trkpt lat="38.989075" lon="-8.96467167">
        <ele>9.0</ele>
        <time>2019-05-16T13:23:57.906Z</time>
      </trkpt>
      <trkpt lat="38.989075" lon="-8.96467167">
        <ele>9.0</ele>
        <time>2019-05-16T13:23:58.909Z</time>
      </trkpt>
      <trkpt lat="38.989075" lon="-8.96467167">
        <ele>9.0</ele>
        <time>2019-05-16T13:23:59.910Z</time>
      </trkpt>
      <trkpt lat="38.989075" lon="-8.96467167">
        <ele>9.0</ele>
        <time>2019-05-16T13:24:00.915Z</time>
      </trkpt>
      <trkpt lat="38.989075" lon="-8.96467167">
        <ele>9.0</ele>
        <time>2019-05-16T13:24:01.907Z</time>
      </trkpt>
      <trkpt lat="38.989075" lon="-8.96467167">
        <ele>9.0</ele>
        <time>2019-05-16T13:24:02.912Z</time>
      </trkpt>
      <trkpt lat="38.989075" lon="-8.96467167">
        <ele>9.0</ele>
        <time>2019-05-16T13:24:03.907Z</time>
      </trkpt>
      <trkpt lat="38.989075" lon="-8.96467167">
        <ele>9.0</ele>
        <time>2019-05-16T13:24:04.909Z</time>
      </trkpt>
      <trkpt lat="38.989075" lon="-8.96467167">
        <ele>9.0</ele>
        <time>2019-05-16T13:24:05.912Z</time>
      </trkpt>
      <trkpt lat="38.989075" lon="-8.96467167">
        <ele>9.0</ele>
        <time>2019-05-16T13:24:06.914Z</time>
      </trkpt>
      <trkpt lat="38.989075" lon="-8.96467167">
        <ele>9.0</ele>
        <time>2019-05-16T13:24:07.908Z</time>
      </trkpt>
      <trkpt lat="38.989075" lon="-8.96467167">
        <ele>9.0</ele>
        <time>2019-05-16T13:24:08.916Z</time>
      </trkpt>
      <trkpt lat="38.989075" lon="-8.96467167">
        <ele>9.0</ele>
        <time>2019-05-16T13:24:09.909Z</time>
      </trkpt>
      <trkpt lat="38.989075" lon="-8.96467167">
        <ele>9.0</ele>
        <time>2019-05-16T13:24:10.907Z</time>
      </trkpt>
      <trkpt lat="38.989075" lon="-8.96467167">
        <ele>9.0</ele>
        <time>2019-05-16T13:24:11.912Z</time>
      </trkpt>
      <trkpt lat="38.989075" lon="-8.96467167">
        <ele>9.0</ele>
        <time>2019-05-16T13:24:12.915Z</time>
      </trkpt>
      <trkpt lat="38.989075" lon="-8.96467167">
        <ele>9.0</ele>
        <time>2019-05-16T13:24:13.908Z</time>
      </trkpt>
      <trkpt lat="38.989075" lon="-8.96467167">
        <ele>9.0</ele>
        <time>2019-05-16T13:24:14.913Z</time>
      </trkpt>
      <trkpt lat="38.989075" lon="-8.96467167">
        <ele>9.0</ele>
        <time>2019-05-16T13:24:15.907Z</time>
      </trkpt>
      <trkpt lat="38.98906833" lon="-8.96457">
        <ele>18.0</ele>
        <time>2019-05-16T13:24:16.912Z</time>
      </trkpt>
      <trkpt lat="38.98906833" lon="-8.96457">
        <ele>18.0</ele>
        <time>2019-05-16T13:24:17.910Z</time>
      </trkpt>
      <trkpt lat="38.98909167" lon="-8.964565">
        <ele>17.0</ele>
        <time>2019-05-16T13:24:18.957Z</time>
      </trkpt>
      <trkpt lat="38.98909167" lon="-8.964565">
        <ele>17.0</ele>
        <time>2019-05-16T13:24:19.900Z</time>
      </trkpt>
      <trkpt lat="38.98911333" lon="-8.96455667">
        <ele>16.0</ele>
        <time>2019-05-16T13:24:20.925Z</time>
      </trkpt>
      <trkpt lat="38.98911333" lon="-8.96455667">
        <ele>16.0</ele>
        <time>2019-05-16T13:24:21.924Z</time>
      </trkpt>
      <trkpt lat="38.98912833" lon="-8.96455333">
        <ele>16.0</ele>
        <time>2019-05-16T13:24:22.936Z</time>
      </trkpt>
      <trkpt lat="38.98912833" lon="-8.96455333">
        <ele>16.0</ele>
        <time>2019-05-16T13:24:23.921Z</time>
      </trkpt>
      <trkpt lat="38.989135" lon="-8.96455333">
        <ele>14.0</ele>
        <time>2019-05-16T13:24:24.924Z</time>
      </trkpt>
      <trkpt lat="38.989135" lon="-8.96455333">
        <ele>14.0</ele>
        <time>2019-05-16T13:24:25.930Z</time>
      </trkpt>
      <trkpt lat="38.989135" lon="-8.96455833">
        <ele>14.0</ele>
        <time>2019-05-16T13:24:26.914Z</time>
      </trkpt>
      <trkpt lat="38.989135" lon="-8.96455833">
        <ele>14.0</ele>
        <time>2019-05-16T13:24:27.920Z</time>
      </trkpt>
      <trkpt lat="38.989135" lon="-8.96455833">
        <ele>14.0</ele>
        <time>2019-05-16T13:24:28.925Z</time>
      </trkpt>
      <trkpt lat="38.989135" lon="-8.96455833">
        <ele>14.0</ele>
        <time>2019-05-16T13:24:29.931Z</time>
      </trkpt>
      <trkpt lat="38.989135" lon="-8.96455833">
        <ele>14.0</ele>
        <time>2019-05-16T13:24:30.902Z</time>
      </trkpt>
      <trkpt lat="38.989135" lon="-8.96455833">
        <ele>14.0</ele>
        <time>2019-05-16T13:24:31.921Z</time>
      </trkpt>
      <trkpt lat="38.989135" lon="-8.96455833">
        <ele>14.0</ele>
        <time>2019-05-16T13:24:32.913Z</time>
      </trkpt>
      <trkpt lat="38.989135" lon="-8.96455833">
        <ele>14.0</ele>
        <time>2019-05-16T13:24:33.908Z</time>
      </trkpt>
      <trkpt lat="38.989135" lon="-8.96455833">
        <ele>14.0</ele>
        <time>2019-05-16T13:24:34.912Z</time>
      </trkpt>
      <trkpt lat="38.989135" lon="-8.96455833">
        <ele>14.0</ele>
        <time>2019-05-16T13:24:35.907Z</time>
      </trkpt>
      <trkpt lat="38.989135" lon="-8.96455833">
        <ele>14.0</ele>
        <time>2019-05-16T13:24:36.912Z</time>
      </trkpt>
      <trkpt lat="38.989135" lon="-8.96455833">
        <ele>14.0</ele>
        <time>2019-05-16T13:24:37.907Z</time>
      </trkpt>
      <trkpt lat="38.989135" lon="-8.96455833">
        <ele>14.0</ele>
        <time>2019-05-16T13:24:38.933Z</time>
      </trkpt>
      <trkpt lat="38.989135" lon="-8.96455833">
        <ele>14.0</ele>
        <time>2019-05-16T13:24:39.917Z</time>
      </trkpt>
      <trkpt lat="38.989135" lon="-8.96455833">
        <ele>14.0</ele>
        <time>2019-05-16T13:24:40.912Z</time>
      </trkpt>
      <trkpt lat="38.989135" lon="-8.96455833">
        <ele>14.0</ele>
        <time>2019-05-16T13:24:41.907Z</time>
      </trkpt>
      <trkpt lat="38.989165" lon="-8.96455667">
        <ele>10.0</ele>
        <time>2019-05-16T13:24:42.931Z</time>
      </trkpt>
      <trkpt lat="38.989165" lon="-8.96455667">
        <ele>10.0</ele>
        <time>2019-05-16T13:24:43.914Z</time>
      </trkpt>
      <trkpt lat="38.98918" lon="-8.964535">
        <ele>10.0</ele>
        <time>2019-05-16T13:24:44.912Z</time>
      </trkpt>
      <trkpt lat="38.98918" lon="-8.964535">
        <ele>10.0</ele>
        <time>2019-05-16T13:24:45.907Z</time>
      </trkpt>
      <trkpt lat="38.98920333" lon="-8.96450833">
        <ele>9.0</ele>
        <time>2019-05-16T13:24:46.912Z</time>
      </trkpt>
      <trkpt lat="38.98920333" lon="-8.96450833">
        <ele>9.0</ele>
        <time>2019-05-16T13:24:47.907Z</time>
      </trkpt>
      <trkpt lat="38.98923167" lon="-8.96448">
        <ele>9.0</ele>
        <time>2019-05-16T13:24:48.912Z</time>
      </trkpt>
      <trkpt lat="38.98923167" lon="-8.96448">
        <ele>9.0</ele>
        <time>2019-05-16T13:24:49.932Z</time>
      </trkpt>
      <trkpt lat="38.989265" lon="-8.96445167">
        <ele>9.0</ele>
        <time>2019-05-16T13:24:50.904Z</time>
      </trkpt>
      <trkpt lat="38.989265" lon="-8.96445167">
        <ele>9.0</ele>
        <time>2019-05-16T13:24:51.910Z</time>
      </trkpt>
      <trkpt lat="38.98929667" lon="-8.96442">
        <ele>8.0</ele>
        <time>2019-05-16T13:24:52.913Z</time>
      </trkpt>
      <trkpt lat="38.98929667" lon="-8.96442">
        <ele>8.0</ele>
        <time>2019-05-16T13:24:53.931Z</time>
      </trkpt>
      <trkpt lat="38.989325" lon="-8.96439667">
        <ele>8.0</ele>
        <time>2019-05-16T13:24:54.925Z</time>
      </trkpt>
      <trkpt lat="38.989325" lon="-8.96439667">
        <ele>8.0</ele>
        <time>2019-05-16T13:24:55.936Z</time>
      </trkpt>
      <trkpt lat="38.98935833" lon="-8.96437333">
        <ele>8.0</ele>
        <time>2019-05-16T13:24:56.937Z</time>
      </trkpt>
      <trkpt lat="38.98935833" lon="-8.96437333">
        <ele>8.0</ele>
        <time>2019-05-16T13:24:57.908Z</time>
      </trkpt>
      <trkpt lat="38.989395" lon="-8.96434">
        <ele>8.0</ele>
        <time>2019-05-16T13:24:58.917Z</time>
      </trkpt>
      <trkpt lat="38.989415" lon="-8.96432333">
        <ele>8.0</ele>
        <time>2019-05-16T13:24:59.912Z</time>
      </trkpt>
      <trkpt lat="38.989435" lon="-8.96430833">
        <ele>7.0</ele>
        <time>2019-05-16T13:25:00.918Z</time>
      </trkpt>
      <trkpt lat="38.989435" lon="-8.96430833">
        <ele>7.0</ele>
        <time>2019-05-16T13:25:01.929Z</time>
      </trkpt>
      <trkpt lat="38.98947833" lon="-8.96427333">
        <ele>7.0</ele>
        <time>2019-05-16T13:25:02.903Z</time>
      </trkpt>
      <trkpt lat="38.98947833" lon="-8.96427333">
        <ele>7.0</ele>
        <time>2019-05-16T13:25:03.909Z</time>
      </trkpt>
      <trkpt lat="38.98952667" lon="-8.96424">
        <ele>7.0</ele>
        <time>2019-05-16T13:25:04.921Z</time>
      </trkpt>
      <trkpt lat="38.98955" lon="-8.964225">
        <ele>7.0</ele>
        <time>2019-05-16T13:25:05.912Z</time>
      </trkpt>
      <trkpt lat="38.98957167" lon="-8.96420833">
        <ele>7.0</ele>
        <time>2019-05-16T13:25:06.931Z</time>
      </trkpt>
      <trkpt lat="38.98957167" lon="-8.96420833">
        <ele>7.0</ele>
        <time>2019-05-16T13:25:07.900Z</time>
      </trkpt>
      <trkpt lat="38.98961833" lon="-8.96417333">
        <ele>7.0</ele>
        <time>2019-05-16T13:25:08.925Z</time>
      </trkpt>
      <trkpt lat="38.98964333" lon="-8.964165">
        <ele>7.0</ele>
        <time>2019-05-16T13:25:09.905Z</time>
      </trkpt>
      <trkpt lat="38.98964333" lon="-8.964165">
        <ele>7.0</ele>
        <time>2019-05-16T13:25:10.911Z</time>
      </trkpt>
      <trkpt lat="38.98968667" lon="-8.964165">
        <ele>7.0</ele>
        <time>2019-05-16T13:25:11.920Z</time>
      </trkpt>
      <trkpt lat="38.98970667" lon="-8.96418">
        <ele>7.0</ele>
        <time>2019-05-16T13:25:12.937Z</time>
      </trkpt>
      <trkpt lat="38.98970667" lon="-8.96418">
        <ele>7.0</ele>
        <time>2019-05-16T13:25:13.921Z</time>
      </trkpt>
      <trkpt lat="38.98974333" lon="-8.96422333">
        <ele>7.0</ele>
        <time>2019-05-16T13:25:14.922Z</time>
      </trkpt>
      <trkpt lat="38.98974333" lon="-8.96422333">
        <ele>7.0</ele>
        <time>2019-05-16T13:25:15.920Z</time>
      </trkpt>
      <trkpt lat="38.98976833" lon="-8.96428833">
        <ele>7.0</ele>
        <time>2019-05-16T13:25:16.930Z</time>
      </trkpt>
      <trkpt lat="38.98976833" lon="-8.96428833">
        <ele>7.0</ele>
        <time>2019-05-16T13:25:17.905Z</time>
      </trkpt>
      <trkpt lat="38.9898" lon="-8.96434667">
        <ele>8.0</ele>
        <time>2019-05-16T13:25:18.992Z</time>
      </trkpt>
      <trkpt lat="38.9898" lon="-8.96434667">
        <ele>8.0</ele>
        <time>2019-05-16T13:25:19.911Z</time>
      </trkpt>
      <trkpt lat="38.98984167" lon="-8.96438833">
        <ele>8.0</ele>
        <time>2019-05-16T13:25:20.902Z</time>
      </trkpt>
      <trkpt lat="38.989865" lon="-8.96439167">
        <ele>8.0</ele>
        <time>2019-05-16T13:25:21.899Z</time>
      </trkpt>
      <trkpt lat="38.989865" lon="-8.96439167">
        <ele>8.0</ele>
        <time>2019-05-16T13:25:22.921Z</time>
      </trkpt>
      <trkpt lat="38.989915" lon="-8.964365">
        <ele>8.0</ele>
        <time>2019-05-16T13:25:23.928Z</time>
      </trkpt>
      <trkpt lat="38.98994" lon="-8.96434667">
        <ele>8.0</ele>
        <time>2019-05-16T13:25:24.897Z</time>
      </trkpt>
      <trkpt lat="38.98994" lon="-8.96434667">
        <ele>8.0</ele>
        <time>2019-05-16T13:25:25.927Z</time>
      </trkpt>
      <trkpt lat="38.98999333" lon="-8.96430167">
        <ele>7.0</ele>
        <time>2019-05-16T13:25:26.936Z</time>
      </trkpt>
      <trkpt lat="38.98999333" lon="-8.96430167">
        <ele>7.0</ele>
        <time>2019-05-16T13:25:27.925Z</time>
      </trkpt>
      <trkpt lat="38.99005" lon="-8.96426">
        <ele>7.0</ele>
        <time>2019-05-16T13:25:28.916Z</time>
      </trkpt>
      <trkpt lat="38.99005" lon="-8.96426">
        <ele>7.0</ele>
        <time>2019-05-16T13:25:29.914Z</time>
      </trkpt>
      <trkpt lat="38.99010833" lon="-8.96421667">
        <ele>7.0</ele>
        <time>2019-05-16T13:25:30.923Z</time>
      </trkpt>
      <trkpt lat="38.99010833" lon="-8.96421667">
        <ele>7.0</ele>
        <time>2019-05-16T13:25:31.904Z</time>
      </trkpt>
      <trkpt lat="38.99017" lon="-8.96417167">
        <ele>7.0</ele>
        <time>2019-05-16T13:25:32.911Z</time>
      </trkpt>
      <trkpt lat="38.99017" lon="-8.96417167">
        <ele>7.0</ele>
        <time>2019-05-16T13:25:33.903Z</time>
      </trkpt>
      <trkpt lat="38.99022833" lon="-8.964125">
        <ele>7.0</ele>
        <time>2019-05-16T13:25:34.910Z</time>
      </trkpt>
      <trkpt lat="38.99026" lon="-8.96410333">
        <ele>7.0</ele>
        <time>2019-05-16T13:25:35.935Z</time>
      </trkpt>
      <trkpt lat="38.99029" lon="-8.96407833">
        <ele>6.0</ele>
        <time>2019-05-16T13:25:36.907Z</time>
      </trkpt>
      <trkpt lat="38.99029" lon="-8.96407833">
        <ele>6.0</ele>
        <time>2019-05-16T13:25:37.900Z</time>
      </trkpt>
      <trkpt lat="38.99035333" lon="-8.964035">
        <ele>6.0</ele>
        <time>2019-05-16T13:25:38.926Z</time>
      </trkpt>
      <trkpt lat="38.99035333" lon="-8.964035">
        <ele>6.0</ele>
        <time>2019-05-16T13:25:39.921Z</time>
      </trkpt>
      <trkpt lat="38.99041333" lon="-8.96398833">
        <ele>6.0</ele>
        <time>2019-05-16T13:25:40.931Z</time>
      </trkpt>
      <trkpt lat="38.99041333" lon="-8.96398833">
        <ele>6.0</ele>
        <time>2019-05-16T13:25:41.911Z</time>
      </trkpt>
      <trkpt lat="38.99047333" lon="-8.96394333">
        <ele>6.0</ele>
        <time>2019-05-16T13:25:42.921Z</time>
      </trkpt>
      <trkpt lat="38.99047333" lon="-8.96394333">
        <ele>6.0</ele>
        <time>2019-05-16T13:25:43.927Z</time>
      </trkpt>
      <trkpt lat="38.990535" lon="-8.963895">
        <ele>6.0</ele>
        <time>2019-05-16T13:25:44.936Z</time>
      </trkpt>
      <trkpt lat="38.99056667" lon="-8.96387">
        <ele>5.0</ele>
        <time>2019-05-16T13:25:45.912Z</time>
      </trkpt>
      <trkpt lat="38.99056667" lon="-8.96387">
        <ele>5.0</ele>
        <time>2019-05-16T13:25:46.910Z</time>
      </trkpt>
      <trkpt lat="38.99062833" lon="-8.96381667">
        <ele>5.0</ele>
        <time>2019-05-16T13:25:47.919Z</time>
      </trkpt>
      <trkpt lat="38.99066" lon="-8.96379">
        <ele>5.0</ele>
        <time>2019-05-16T13:25:48.923Z</time>
      </trkpt>
      <trkpt lat="38.99066" lon="-8.96379">
        <ele>5.0</ele>
        <time>2019-05-16T13:25:49.902Z</time>
      </trkpt>
      <trkpt lat="38.99072333" lon="-8.96374">
        <ele>5.0</ele>
        <time>2019-05-16T13:25:50.910Z</time>
      </trkpt>
      <trkpt lat="38.990755" lon="-8.963715">
        <ele>5.0</ele>
        <time>2019-05-16T13:25:51.898Z</time>
      </trkpt>
      <trkpt lat="38.990755" lon="-8.963715">
        <ele>5.0</ele>
        <time>2019-05-16T13:25:52.931Z</time>
      </trkpt>
      <trkpt lat="38.99081667" lon="-8.96366833">
        <ele>5.0</ele>
        <time>2019-05-16T13:25:53.900Z</time>
      </trkpt>
      <trkpt lat="38.99081667" lon="-8.96366833">
        <ele>5.0</ele>
        <time>2019-05-16T13:25:54.910Z</time>
      </trkpt>
      <trkpt lat="38.99087333" lon="-8.96361333">
        <ele>4.0</ele>
        <time>2019-05-16T13:25:55.901Z</time>
      </trkpt>
      <trkpt lat="38.99087333" lon="-8.96361333">
        <ele>4.0</ele>
        <time>2019-05-16T13:25:56.911Z</time>
      </trkpt>
      <trkpt lat="38.99093" lon="-8.96356333">
        <ele>4.0</ele>
        <time>2019-05-16T13:25:57.927Z</time>
      </trkpt>
      <trkpt lat="38.99093" lon="-8.96356333">
        <ele>4.0</ele>
        <time>2019-05-16T13:25:58.936Z</time>
      </trkpt>
      <trkpt lat="38.990985" lon="-8.96351667">
        <ele>4.0</ele>
        <time>2019-05-16T13:25:59.905Z</time>
      </trkpt>
      <trkpt lat="38.99101167" lon="-8.96349167">
        <ele>4.0</ele>
        <time>2019-05-16T13:26:00.913Z</time>
      </trkpt>
      <trkpt lat="38.99101167" lon="-8.96349167">
        <ele>4.0</ele>
        <time>2019-05-16T13:26:01.912Z</time>
      </trkpt>
      <trkpt lat="38.99106667" lon="-8.96344667">
        <ele>4.0</ele>
        <time>2019-05-16T13:26:02.936Z</time>
      </trkpt>
      <trkpt lat="38.99106667" lon="-8.96344667">
        <ele>4.0</ele>
        <time>2019-05-16T13:26:03.930Z</time>
      </trkpt>
      <trkpt lat="38.991125" lon="-8.96340667">
        <ele>4.0</ele>
        <time>2019-05-16T13:26:04.911Z</time>
      </trkpt>
      <trkpt lat="38.991125" lon="-8.96340667">
        <ele>4.0</ele>
        <time>2019-05-16T13:26:05.930Z</time>
      </trkpt>
      <trkpt lat="38.99118167" lon="-8.96336">
        <ele>4.0</ele>
        <time>2019-05-16T13:26:06.899Z</time>
      </trkpt>
      <trkpt lat="38.99118167" lon="-8.96336">
        <ele>4.0</ele>
        <time>2019-05-16T13:26:07.918Z</time>
      </trkpt>
      <trkpt lat="38.99123833" lon="-8.96331333">
        <ele>4.0</ele>
        <time>2019-05-16T13:26:08.906Z</time>
      </trkpt>
      <trkpt lat="38.99123833" lon="-8.96331333">
        <ele>4.0</ele>
        <time>2019-05-16T13:26:09.921Z</time>
      </trkpt>
      <trkpt lat="38.99129667" lon="-8.96326">
        <ele>4.0</ele>
        <time>2019-05-16T13:26:10.928Z</time>
      </trkpt>
      <trkpt lat="38.99129667" lon="-8.96326">
        <ele>4.0</ele>
        <time>2019-05-16T13:26:11.921Z</time>
      </trkpt>
      <trkpt lat="38.99135667" lon="-8.96321">
        <ele>4.0</ele>
        <time>2019-05-16T13:26:12.933Z</time>
      </trkpt>
      <trkpt lat="38.99135667" lon="-8.96321">
        <ele>4.0</ele>
        <time>2019-05-16T13:26:13.923Z</time>
      </trkpt>
      <trkpt lat="38.99141833" lon="-8.96316167">
        <ele>4.0</ele>
        <time>2019-05-16T13:26:14.900Z</time>
      </trkpt>
      <trkpt lat="38.99141833" lon="-8.96316167">
        <ele>4.0</ele>
        <time>2019-05-16T13:26:15.902Z</time>
      </trkpt>
      <trkpt lat="38.99148167" lon="-8.96311">
        <ele>4.0</ele>
        <time>2019-05-16T13:26:16.920Z</time>
      </trkpt>
      <trkpt lat="38.99148167" lon="-8.96311">
        <ele>4.0</ele>
        <time>2019-05-16T13:26:17.905Z</time>
      </trkpt>
      <trkpt lat="38.99154333" lon="-8.96306333">
        <ele>4.0</ele>
        <time>2019-05-16T13:26:18.933Z</time>
      </trkpt>
      <trkpt lat="38.99154333" lon="-8.96306333">
        <ele>4.0</ele>
        <time>2019-05-16T13:26:19.931Z</time>
      </trkpt>
      <trkpt lat="38.99160667" lon="-8.96302">
        <ele>4.0</ele>
        <time>2019-05-16T13:26:20.927Z</time>
      </trkpt>
      <trkpt lat="38.99160667" lon="-8.96302">
        <ele>4.0</ele>
        <time>2019-05-16T13:26:21.926Z</time>
      </trkpt>
      <trkpt lat="38.99166833" lon="-8.96298167">
        <ele>4.0</ele>
        <time>2019-05-16T13:26:22.934Z</time>
      </trkpt>
      <trkpt lat="38.99166833" lon="-8.96298167">
        <ele>4.0</ele>
        <time>2019-05-16T13:26:23.902Z</time>
      </trkpt>
      <trkpt lat="38.99173" lon="-8.962935">
        <ele>4.0</ele>
        <time>2019-05-16T13:26:24.913Z</time>
      </trkpt>
      <trkpt lat="38.99173" lon="-8.962935">
        <ele>4.0</ele>
        <time>2019-05-16T13:26:25.905Z</time>
      </trkpt>
      <trkpt lat="38.99179" lon="-8.96288833">
        <ele>4.0</ele>
        <time>2019-05-16T13:26:26.919Z</time>
      </trkpt>
      <trkpt lat="38.99179" lon="-8.96288833">
        <ele>4.0</ele>
        <time>2019-05-16T13:26:27.911Z</time>
      </trkpt>
      <trkpt lat="38.99185" lon="-8.96284667">
        <ele>4.0</ele>
        <time>2019-05-16T13:26:28.923Z</time>
      </trkpt>
      <trkpt lat="38.99185" lon="-8.96284667">
        <ele>4.0</ele>
        <time>2019-05-16T13:26:29.932Z</time>
      </trkpt>
      <trkpt lat="38.99190833" lon="-8.96280667">
        <ele>4.0</ele>
        <time>2019-05-16T13:26:30.908Z</time>
      </trkpt>
      <trkpt lat="38.99190833" lon="-8.96280667">
        <ele>4.0</ele>
        <time>2019-05-16T13:26:31.900Z</time>
      </trkpt>
      <trkpt lat="38.99196667" lon="-8.962765">
        <ele>4.0</ele>
        <time>2019-05-16T13:26:32.910Z</time>
      </trkpt>
      <trkpt lat="38.99196667" lon="-8.962765">
        <ele>4.0</ele>
        <time>2019-05-16T13:26:33.928Z</time>
      </trkpt>
      <trkpt lat="38.99202667" lon="-8.96272333">
        <ele>4.0</ele>
        <time>2019-05-16T13:26:34.908Z</time>
      </trkpt>
      <trkpt lat="38.99202667" lon="-8.96272333">
        <ele>4.0</ele>
        <time>2019-05-16T13:26:35.932Z</time>
      </trkpt>
      <trkpt lat="38.99208667" lon="-8.96267667">
        <ele>4.0</ele>
        <time>2019-05-16T13:26:36.907Z</time>
      </trkpt>
      <trkpt lat="38.99208667" lon="-8.96267667">
        <ele>4.0</ele>
        <time>2019-05-16T13:26:37.910Z</time>
      </trkpt>
      <trkpt lat="38.99214833" lon="-8.96263333">
        <ele>4.0</ele>
        <time>2019-05-16T13:26:38.924Z</time>
      </trkpt>
      <trkpt lat="38.99214833" lon="-8.96263333">
        <ele>4.0</ele>
        <time>2019-05-16T13:26:39.906Z</time>
      </trkpt>
      <trkpt lat="38.99221" lon="-8.96259167">
        <ele>4.0</ele>
        <time>2019-05-16T13:26:40.904Z</time>
      </trkpt>
      <trkpt lat="38.99221" lon="-8.96259167">
        <ele>4.0</ele>
        <time>2019-05-16T13:26:41.911Z</time>
      </trkpt>
      <trkpt lat="38.99227167" lon="-8.96254833">
        <ele>4.0</ele>
        <time>2019-05-16T13:26:42.919Z</time>
      </trkpt>
      <trkpt lat="38.99227167" lon="-8.96254833">
        <ele>4.0</ele>
        <time>2019-05-16T13:26:43.899Z</time>
      </trkpt>
      <trkpt lat="38.99233167" lon="-8.96250667">
        <ele>3.0</ele>
        <time>2019-05-16T13:26:44.907Z</time>
      </trkpt>
      <trkpt lat="38.99233167" lon="-8.96250667">
        <ele>3.0</ele>
        <time>2019-05-16T13:26:45.903Z</time>
      </trkpt>
      <trkpt lat="38.99239" lon="-8.962465">
        <ele>3.0</ele>
        <time>2019-05-16T13:26:46.917Z</time>
      </trkpt>
      <trkpt lat="38.99239" lon="-8.962465">
        <ele>3.0</ele>
        <time>2019-05-16T13:26:47.925Z</time>
      </trkpt>
      <trkpt lat="38.99245" lon="-8.96242167">
        <ele>3.0</ele>
        <time>2019-05-16T13:26:48.901Z</time>
      </trkpt>
      <trkpt lat="38.99245" lon="-8.96242167">
        <ele>3.0</ele>
        <time>2019-05-16T13:26:49.902Z</time>
      </trkpt>
      <trkpt lat="38.99251" lon="-8.96237833">
        <ele>3.0</ele>
        <time>2019-05-16T13:26:50.914Z</time>
      </trkpt>
      <trkpt lat="38.99251" lon="-8.96237833">
        <ele>3.0</ele>
        <time>2019-05-16T13:26:51.901Z</time>
      </trkpt>
      <trkpt lat="38.99257" lon="-8.96233667">
        <ele>3.0</ele>
        <time>2019-05-16T13:26:52.915Z</time>
      </trkpt>
      <trkpt lat="38.99257" lon="-8.96233667">
        <ele>3.0</ele>
        <time>2019-05-16T13:26:53.901Z</time>
      </trkpt>
      <trkpt lat="38.99262833" lon="-8.96229667">
        <ele>3.0</ele>
        <time>2019-05-16T13:26:54.912Z</time>
      </trkpt>
      <trkpt lat="38.99262833" lon="-8.96229667">
        <ele>3.0</ele>
        <time>2019-05-16T13:26:55.902Z</time>
      </trkpt>
      <trkpt lat="38.99268833" lon="-8.96225833">
        <ele>3.0</ele>
        <time>2019-05-16T13:26:56.919Z</time>
      </trkpt>
      <trkpt lat="38.99268833" lon="-8.96225833">
        <ele>3.0</ele>
        <time>2019-05-16T13:26:57.931Z</time>
      </trkpt>
      <trkpt lat="38.992745" lon="-8.96221667">
        <ele>3.0</ele>
        <time>2019-05-16T13:26:58.908Z</time>
      </trkpt>
      <trkpt lat="38.992745" lon="-8.96221667">
        <ele>3.0</ele>
        <time>2019-05-16T13:26:59.911Z</time>
      </trkpt>
      <trkpt lat="38.99280333" lon="-8.96217833">
        <ele>3.0</ele>
        <time>2019-05-16T13:27:00.924Z</time>
      </trkpt>
      <trkpt lat="38.99280333" lon="-8.96217833">
        <ele>3.0</ele>
        <time>2019-05-16T13:27:01.908Z</time>
      </trkpt>
      <trkpt lat="38.99286333" lon="-8.96213667">
        <ele>3.0</ele>
        <time>2019-05-16T13:27:02.919Z</time>
      </trkpt>
      <trkpt lat="38.99286333" lon="-8.96213667">
        <ele>3.0</ele>
        <time>2019-05-16T13:27:03.929Z</time>
      </trkpt>
      <trkpt lat="38.992925" lon="-8.96209667">
        <ele>3.0</ele>
        <time>2019-05-16T13:27:04.907Z</time>
      </trkpt>
      <trkpt lat="38.992955" lon="-8.962075">
        <ele>3.0</ele>
        <time>2019-05-16T13:27:05.910Z</time>
      </trkpt>
      <trkpt lat="38.992985" lon="-8.96205167">
        <ele>3.0</ele>
        <time>2019-05-16T13:27:06.937Z</time>
      </trkpt>
      <trkpt lat="38.992985" lon="-8.96205167">
        <ele>3.0</ele>
        <time>2019-05-16T13:27:07.911Z</time>
      </trkpt>
      <trkpt lat="38.993045" lon="-8.96200667">
        <ele>3.0</ele>
        <time>2019-05-16T13:27:08.924Z</time>
      </trkpt>
      <trkpt lat="38.99307667" lon="-8.96198667">
        <ele>3.0</ele>
        <time>2019-05-16T13:27:09.910Z</time>
      </trkpt>
      <trkpt lat="38.99307667" lon="-8.96198667">
        <ele>3.0</ele>
        <time>2019-05-16T13:27:10.929Z</time>
      </trkpt>
      <trkpt lat="38.99314" lon="-8.96194333">
        <ele>3.0</ele>
        <time>2019-05-16T13:27:11.909Z</time>
      </trkpt>
      <trkpt lat="38.99314" lon="-8.96194333">
        <ele>3.0</ele>
        <time>2019-05-16T13:27:12.935Z</time>
      </trkpt>
      <trkpt lat="38.99320333" lon="-8.96189833">
        <ele>3.0</ele>
        <time>2019-05-16T13:27:13.905Z</time>
      </trkpt>
      <trkpt lat="38.99320333" lon="-8.96189833">
        <ele>3.0</ele>
        <time>2019-05-16T13:27:14.933Z</time>
      </trkpt>
      <trkpt lat="38.99326667" lon="-8.96185167">
        <ele>3.0</ele>
        <time>2019-05-16T13:27:15.905Z</time>
      </trkpt>
      <trkpt lat="38.99326667" lon="-8.96185167">
        <ele>3.0</ele>
        <time>2019-05-16T13:27:16.922Z</time>
      </trkpt>
      <trkpt lat="38.99333167" lon="-8.96180833">
        <ele>3.0</ele>
        <time>2019-05-16T13:27:17.933Z</time>
      </trkpt>
      <trkpt lat="38.993365" lon="-8.96178833">
        <ele>3.0</ele>
        <time>2019-05-16T13:27:18.910Z</time>
      </trkpt>
      <trkpt lat="38.993365" lon="-8.96178833">
        <ele>3.0</ele>
        <time>2019-05-16T13:27:19.918Z</time>
      </trkpt>
      <trkpt lat="38.99343" lon="-8.961745">
        <ele>2.0</ele>
        <time>2019-05-16T13:27:20.910Z</time>
      </trkpt>
      <trkpt lat="38.99343" lon="-8.961745">
        <ele>2.0</ele>
        <time>2019-05-16T13:27:21.919Z</time>
      </trkpt>
      <trkpt lat="38.99349667" lon="-8.96170167">
        <ele>2.0</ele>
        <time>2019-05-16T13:27:22.932Z</time>
      </trkpt>
      <trkpt lat="38.99349667" lon="-8.96170167">
        <ele>2.0</ele>
        <time>2019-05-16T13:27:23.927Z</time>
      </trkpt>
      <trkpt lat="38.99356167" lon="-8.96165667">
        <ele>2.0</ele>
        <time>2019-05-16T13:27:24.934Z</time>
      </trkpt>
      <trkpt lat="38.99356167" lon="-8.96165667">
        <ele>2.0</ele>
        <time>2019-05-16T13:27:25.932Z</time>
      </trkpt>
      <trkpt lat="38.99362667" lon="-8.96161333">
        <ele>2.0</ele>
        <time>2019-05-16T13:27:26.904Z</time>
      </trkpt>
      <trkpt lat="38.99365833" lon="-8.96159">
        <ele>2.0</ele>
        <time>2019-05-16T13:27:27.930Z</time>
      </trkpt>
      <trkpt lat="38.99365833" lon="-8.96159">
        <ele>2.0</ele>
        <time>2019-05-16T13:27:28.927Z</time>
      </trkpt>
      <trkpt lat="38.99372333" lon="-8.96154833">
        <ele>2.0</ele>
        <time>2019-05-16T13:27:29.909Z</time>
      </trkpt>
      <trkpt lat="38.99375333" lon="-8.96152667">
        <ele>2.0</ele>
        <time>2019-05-16T13:27:30.930Z</time>
      </trkpt>
      <trkpt lat="38.99375333" lon="-8.96152667">
        <ele>2.0</ele>
        <time>2019-05-16T13:27:31.923Z</time>
      </trkpt>
      <trkpt lat="38.99380833" lon="-8.96148833">
        <ele>2.0</ele>
        <time>2019-05-16T13:27:32.910Z</time>
      </trkpt>
      <trkpt lat="38.99380833" lon="-8.96148833">
        <ele>2.0</ele>
        <time>2019-05-16T13:27:33.907Z</time>
      </trkpt>
      <trkpt lat="38.99385833" lon="-8.96144833">
        <ele>2.0</ele>
        <time>2019-05-16T13:27:34.933Z</time>
      </trkpt>
      <trkpt lat="38.99385833" lon="-8.96144833">
        <ele>2.0</ele>
        <time>2019-05-16T13:27:35.917Z</time>
      </trkpt>
      <trkpt lat="38.99391167" lon="-8.961415">
        <ele>2.0</ele>
        <time>2019-05-16T13:27:36.918Z</time>
      </trkpt>
      <trkpt lat="38.99391167" lon="-8.961415">
        <ele>2.0</ele>
        <time>2019-05-16T13:27:37.928Z</time>
      </trkpt>
      <trkpt lat="38.99396333" lon="-8.96137833">
        <ele>2.0</ele>
        <time>2019-05-16T13:27:38.922Z</time>
      </trkpt>
      <trkpt lat="38.99396333" lon="-8.96137833">
        <ele>2.0</ele>
        <time>2019-05-16T13:27:39.905Z</time>
      </trkpt>
      <trkpt lat="38.99401333" lon="-8.96134167">
        <ele>2.0</ele>
        <time>2019-05-16T13:27:40.916Z</time>
      </trkpt>
      <trkpt lat="38.99401333" lon="-8.96134167">
        <ele>2.0</ele>
        <time>2019-05-16T13:27:41.930Z</time>
      </trkpt>
      <trkpt lat="38.99406167" lon="-8.961305">
        <ele>2.0</ele>
        <time>2019-05-16T13:27:42.905Z</time>
      </trkpt>
      <trkpt lat="38.99406167" lon="-8.961305">
        <ele>2.0</ele>
        <time>2019-05-16T13:27:43.916Z</time>
      </trkpt>
      <trkpt lat="38.99411" lon="-8.96127167">
        <ele>2.0</ele>
        <time>2019-05-16T13:27:44.929Z</time>
      </trkpt>
      <trkpt lat="38.99411" lon="-8.96127167">
        <ele>2.0</ele>
        <time>2019-05-16T13:27:45.900Z</time>
      </trkpt>
      <trkpt lat="38.99416167" lon="-8.96123333">
        <ele>2.0</ele>
        <time>2019-05-16T13:27:46.934Z</time>
      </trkpt>
      <trkpt lat="38.99416167" lon="-8.96123333">
        <ele>2.0</ele>
        <time>2019-05-16T13:27:47.932Z</time>
      </trkpt>
      <trkpt lat="38.99421167" lon="-8.96119833">
        <ele>1.0</ele>
        <time>2019-05-16T13:27:48.922Z</time>
      </trkpt>
      <trkpt lat="38.99421167" lon="-8.96119833">
        <ele>1.0</ele>
        <time>2019-05-16T13:27:49.907Z</time>
      </trkpt>
      <trkpt lat="38.994265" lon="-8.96116167">
        <ele>1.0</ele>
        <time>2019-05-16T13:27:50.925Z</time>
      </trkpt>
      <trkpt lat="38.994265" lon="-8.96116167">
        <ele>1.0</ele>
        <time>2019-05-16T13:27:51.907Z</time>
      </trkpt>
      <trkpt lat="38.99431833" lon="-8.96112667">
        <ele>1.0</ele>
        <time>2019-05-16T13:27:52.930Z</time>
      </trkpt>
      <trkpt lat="38.99431833" lon="-8.96112667">
        <ele>1.0</ele>
        <time>2019-05-16T13:27:53.902Z</time>
      </trkpt>
      <trkpt lat="38.99436833" lon="-8.96108833">
        <ele>1.0</ele>
        <time>2019-05-16T13:27:54.911Z</time>
      </trkpt>
      <trkpt lat="38.99436833" lon="-8.96108833">
        <ele>1.0</ele>
        <time>2019-05-16T13:27:55.921Z</time>
      </trkpt>
      <trkpt lat="38.99441833" lon="-8.96105">
        <ele>1.0</ele>
        <time>2019-05-16T13:27:56.937Z</time>
      </trkpt>
      <trkpt lat="38.99441833" lon="-8.96105">
        <ele>1.0</ele>
        <time>2019-05-16T13:27:57.930Z</time>
      </trkpt>
      <trkpt lat="38.99447" lon="-8.96101333">
        <ele>1.0</ele>
        <time>2019-05-16T13:27:58.918Z</time>
      </trkpt>
      <trkpt lat="38.99447" lon="-8.96101333">
        <ele>1.0</ele>
        <time>2019-05-16T13:27:59.921Z</time>
      </trkpt>
      <trkpt lat="38.994525" lon="-8.960975">
        <ele>1.0</ele>
        <time>2019-05-16T13:28:00.933Z</time>
      </trkpt>
      <trkpt lat="38.994525" lon="-8.960975">
        <ele>1.0</ele>
        <time>2019-05-16T13:28:01.900Z</time>
      </trkpt>
      <trkpt lat="38.99458" lon="-8.960935">
        <ele>1.0</ele>
        <time>2019-05-16T13:28:02.908Z</time>
      </trkpt>
      <trkpt lat="38.99458" lon="-8.960935">
        <ele>1.0</ele>
        <time>2019-05-16T13:28:03.902Z</time>
      </trkpt>
      <trkpt lat="38.99463333" lon="-8.96089333">
        <ele>1.0</ele>
        <time>2019-05-16T13:28:04.913Z</time>
      </trkpt>
      <trkpt lat="38.99466167" lon="-8.960875">
        <ele>1.0</ele>
        <time>2019-05-16T13:28:05.917Z</time>
      </trkpt>
      <trkpt lat="38.99469" lon="-8.96085667">
        <ele>1.0</ele>
        <time>2019-05-16T13:28:06.921Z</time>
      </trkpt>
      <trkpt lat="38.99469" lon="-8.96085667">
        <ele>1.0</ele>
        <time>2019-05-16T13:28:07.910Z</time>
      </trkpt>
      <trkpt lat="38.994745" lon="-8.96082167">
        <ele>1.0</ele>
        <time>2019-05-16T13:28:08.919Z</time>
      </trkpt>
      <trkpt lat="38.994745" lon="-8.96082167">
        <ele>1.0</ele>
        <time>2019-05-16T13:28:09.907Z</time>
      </trkpt>
      <trkpt lat="38.9948" lon="-8.96078333">
        <ele>1.0</ele>
        <time>2019-05-16T13:28:10.915Z</time>
      </trkpt>
      <trkpt lat="38.9948" lon="-8.96078333">
        <ele>1.0</ele>
        <time>2019-05-16T13:28:11.902Z</time>
      </trkpt>
      <trkpt lat="38.99485667" lon="-8.96074">
        <ele>1.0</ele>
        <time>2019-05-16T13:28:12.909Z</time>
      </trkpt>
      <trkpt lat="38.99485667" lon="-8.96074">
        <ele>1.0</ele>
        <time>2019-05-16T13:28:13.912Z</time>
      </trkpt>
      <trkpt lat="38.994915" lon="-8.96069667">
        <ele>0.0</ele>
        <time>2019-05-16T13:28:14.924Z</time>
      </trkpt>
      <trkpt lat="38.994915" lon="-8.96069667">
        <ele>0.0</ele>
        <time>2019-05-16T13:28:15.930Z</time>
      </trkpt>
      <trkpt lat="38.99497333" lon="-8.96065667">
        <ele>0.0</ele>
        <time>2019-05-16T13:28:16.904Z</time>
      </trkpt>
      <trkpt lat="38.99497333" lon="-8.96065667">
        <ele>0.0</ele>
        <time>2019-05-16T13:28:17.927Z</time>
      </trkpt>
      <trkpt lat="38.99503167" lon="-8.96061667">
        <ele>0.0</ele>
        <time>2019-05-16T13:28:18.928Z</time>
      </trkpt>
      <trkpt lat="38.99503167" lon="-8.96061667">
        <ele>0.0</ele>
        <time>2019-05-16T13:28:19.932Z</time>
      </trkpt>
      <trkpt lat="38.99509167" lon="-8.96057333">
        <ele>0.0</ele>
        <time>2019-05-16T13:28:20.939Z</time>
      </trkpt>
      <trkpt lat="38.99509167" lon="-8.96057333">
        <ele>0.0</ele>
        <time>2019-05-16T13:28:21.903Z</time>
      </trkpt>
      <trkpt lat="38.99515167" lon="-8.96053167">
        <ele>0.0</ele>
        <time>2019-05-16T13:28:22.911Z</time>
      </trkpt>
      <trkpt lat="38.99515167" lon="-8.96053167">
        <ele>0.0</ele>
        <time>2019-05-16T13:28:23.919Z</time>
      </trkpt>
      <trkpt lat="38.99521167" lon="-8.96048833">
        <ele>0.0</ele>
        <time>2019-05-16T13:28:24.928Z</time>
      </trkpt>
      <trkpt lat="38.99521167" lon="-8.96048833">
        <ele>0.0</ele>
        <time>2019-05-16T13:28:25.905Z</time>
      </trkpt>
      <trkpt lat="38.99527" lon="-8.96044833">
        <ele>0.0</ele>
        <time>2019-05-16T13:28:26.919Z</time>
      </trkpt>
      <trkpt lat="38.99527" lon="-8.96044833">
        <ele>0.0</ele>
        <time>2019-05-16T13:28:27.905Z</time>
      </trkpt>
      <trkpt lat="38.99532833" lon="-8.96040667">
        <ele>0.0</ele>
        <time>2019-05-16T13:28:28.919Z</time>
      </trkpt>
      <trkpt lat="38.99532833" lon="-8.96040667">
        <ele>0.0</ele>
        <time>2019-05-16T13:28:29.931Z</time>
      </trkpt>
      <trkpt lat="38.99539" lon="-8.96036833">
        <ele>0.0</ele>
        <time>2019-05-16T13:28:30.906Z</time>
      </trkpt>
      <trkpt lat="38.99539" lon="-8.96036833">
        <ele>0.0</ele>
        <time>2019-05-16T13:28:31.911Z</time>
      </trkpt>
      <trkpt lat="38.99545" lon="-8.96032667">
        <ele>0.0</ele>
        <time>2019-05-16T13:28:32.921Z</time>
      </trkpt>
      <trkpt lat="38.99545" lon="-8.96032667">
        <ele>0.0</ele>
        <time>2019-05-16T13:28:33.915Z</time>
      </trkpt>
      <trkpt lat="38.99551" lon="-8.96028333">
        <ele>0.0</ele>
        <time>2019-05-16T13:28:34.926Z</time>
      </trkpt>
      <trkpt lat="38.99554" lon="-8.96026333">
        <ele>0.0</ele>
        <time>2019-05-16T13:28:35.906Z</time>
      </trkpt>
      <trkpt lat="38.99554" lon="-8.96026333">
        <ele>0.0</ele>
        <time>2019-05-16T13:28:36.928Z</time>
      </trkpt>
      <trkpt lat="38.9956" lon="-8.96022167">
        <ele>-1.0</ele>
        <time>2019-05-16T13:28:37.936Z</time>
      </trkpt>
      <trkpt lat="38.9956" lon="-8.96022167">
        <ele>-1.0</ele>
        <time>2019-05-16T13:28:38.923Z</time>
      </trkpt>
      <trkpt lat="38.99565667" lon="-8.960185">
        <ele>-1.0</ele>
        <time>2019-05-16T13:28:39.937Z</time>
      </trkpt>
      <trkpt lat="38.99565667" lon="-8.960185">
        <ele>-1.0</ele>
        <time>2019-05-16T13:28:40.931Z</time>
      </trkpt>
      <trkpt lat="38.99571333" lon="-8.960145">
        <ele>-1.0</ele>
        <time>2019-05-16T13:28:41.898Z</time>
      </trkpt>
      <trkpt lat="38.99574" lon="-8.960125">
        <ele>-1.0</ele>
        <time>2019-05-16T13:28:42.919Z</time>
      </trkpt>
      <trkpt lat="38.99574" lon="-8.960125">
        <ele>-1.0</ele>
        <time>2019-05-16T13:28:43.926Z</time>
      </trkpt>
      <trkpt lat="38.995795" lon="-8.96008833">
        <ele>-1.0</ele>
        <time>2019-05-16T13:28:44.906Z</time>
      </trkpt>
      <trkpt lat="38.995795" lon="-8.96008833">
        <ele>-1.0</ele>
        <time>2019-05-16T13:28:45.911Z</time>
      </trkpt>
      <trkpt lat="38.99585" lon="-8.96005">
        <ele>-1.0</ele>
        <time>2019-05-16T13:28:46.919Z</time>
      </trkpt>
      <trkpt lat="38.99585" lon="-8.96005">
        <ele>-1.0</ele>
        <time>2019-05-16T13:28:47.900Z</time>
      </trkpt>
      <trkpt lat="38.995905" lon="-8.96001167">
        <ele>-1.0</ele>
        <time>2019-05-16T13:28:48.909Z</time>
      </trkpt>
      <trkpt lat="38.995905" lon="-8.96001167">
        <ele>-1.0</ele>
        <time>2019-05-16T13:28:49.917Z</time>
      </trkpt>
      <trkpt lat="38.99595833" lon="-8.95997167">
        <ele>-1.0</ele>
        <time>2019-05-16T13:28:50.930Z</time>
      </trkpt>
      <trkpt lat="38.995985" lon="-8.95995333">
        <ele>-1.0</ele>
        <time>2019-05-16T13:28:51.929Z</time>
      </trkpt>
      <trkpt lat="38.995985" lon="-8.95995333">
        <ele>-1.0</ele>
        <time>2019-05-16T13:28:52.931Z</time>
      </trkpt>
      <trkpt lat="38.99604" lon="-8.959915">
        <ele>-1.0</ele>
        <time>2019-05-16T13:28:53.900Z</time>
      </trkpt>
      <trkpt lat="38.99606833" lon="-8.95989667">
        <ele>-1.0</ele>
        <time>2019-05-16T13:28:54.909Z</time>
      </trkpt>
      <trkpt lat="38.99606833" lon="-8.95989667">
        <ele>-1.0</ele>
        <time>2019-05-16T13:28:55.902Z</time>
      </trkpt>
      <trkpt lat="38.99612833" lon="-8.95986333">
        <ele>-1.0</ele>
        <time>2019-05-16T13:28:56.909Z</time>
      </trkpt>
      <trkpt lat="38.99612833" lon="-8.95986333">
        <ele>-1.0</ele>
        <time>2019-05-16T13:28:57.900Z</time>
      </trkpt>
      <trkpt lat="38.99618667" lon="-8.959825">
        <ele>-1.0</ele>
        <time>2019-05-16T13:28:58.929Z</time>
      </trkpt>
      <trkpt lat="38.99618667" lon="-8.959825">
        <ele>-1.0</ele>
        <time>2019-05-16T13:28:59.930Z</time>
      </trkpt>
      <trkpt lat="38.996245" lon="-8.95978667">
        <ele>-1.0</ele>
        <time>2019-05-16T13:29:00.901Z</time>
      </trkpt>
      <trkpt lat="38.996245" lon="-8.95978667">
        <ele>-1.0</ele>
        <time>2019-05-16T13:29:01.919Z</time>
      </trkpt>
      <trkpt lat="38.99630167" lon="-8.95974667">
        <ele>-1.0</ele>
        <time>2019-05-16T13:29:02.905Z</time>
      </trkpt>
      <trkpt lat="38.99630167" lon="-8.95974667">
        <ele>-1.0</ele>
        <time>2019-05-16T13:29:03.900Z</time>
      </trkpt>
      <trkpt lat="38.99636167" lon="-8.95970833">
        <ele>-1.0</ele>
        <time>2019-05-16T13:29:04.914Z</time>
      </trkpt>
      <trkpt lat="38.99636167" lon="-8.95970833">
        <ele>-1.0</ele>
        <time>2019-05-16T13:29:05.922Z</time>
      </trkpt>
      <trkpt lat="38.99641833" lon="-8.95966667">
        <ele>-1.0</ele>
        <time>2019-05-16T13:29:06.929Z</time>
      </trkpt>
      <trkpt lat="38.99641833" lon="-8.95966667">
        <ele>-1.0</ele>
        <time>2019-05-16T13:29:07.904Z</time>
      </trkpt>
      <trkpt lat="38.996475" lon="-8.95962833">
        <ele>-1.0</ele>
        <time>2019-05-16T13:29:08.925Z</time>
      </trkpt>
      <trkpt lat="38.996475" lon="-8.95962833">
        <ele>-1.0</ele>
        <time>2019-05-16T13:29:09.899Z</time>
      </trkpt>
      <trkpt lat="38.99653333" lon="-8.95959">
        <ele>-1.0</ele>
        <time>2019-05-16T13:29:10.922Z</time>
      </trkpt>
      <trkpt lat="38.99653333" lon="-8.95959">
        <ele>-1.0</ele>
        <time>2019-05-16T13:29:11.923Z</time>
      </trkpt>
      <trkpt lat="38.99659" lon="-8.95954833">
        <ele>-1.0</ele>
        <time>2019-05-16T13:29:12.933Z</time>
      </trkpt>
      <trkpt lat="38.99659" lon="-8.95954833">
        <ele>-1.0</ele>
        <time>2019-05-16T13:29:13.900Z</time>
      </trkpt>
      <trkpt lat="38.99664833" lon="-8.95951">
        <ele>-1.0</ele>
        <time>2019-05-16T13:29:14.909Z</time>
      </trkpt>
      <trkpt lat="38.99664833" lon="-8.95951">
        <ele>-1.0</ele>
        <time>2019-05-16T13:29:15.901Z</time>
      </trkpt>
      <trkpt lat="38.996705" lon="-8.95947333">
        <ele>-1.0</ele>
        <time>2019-05-16T13:29:16.915Z</time>
      </trkpt>
      <trkpt lat="38.996705" lon="-8.95947333">
        <ele>-1.0</ele>
        <time>2019-05-16T13:29:17.922Z</time>
      </trkpt>
      <trkpt lat="38.99676" lon="-8.95943167">
        <ele>-1.0</ele>
        <time>2019-05-16T13:29:18.912Z</time>
      </trkpt>
      <trkpt lat="38.99676" lon="-8.95943167">
        <ele>-1.0</ele>
        <time>2019-05-16T13:29:19.921Z</time>
      </trkpt>
      <trkpt lat="38.996815" lon="-8.95939333">
        <ele>-1.0</ele>
        <time>2019-05-16T13:29:20.910Z</time>
      </trkpt>
      <trkpt lat="38.996815" lon="-8.95939333">
        <ele>-1.0</ele>
        <time>2019-05-16T13:29:21.898Z</time>
      </trkpt>
      <trkpt lat="38.99687167" lon="-8.95935333">
        <ele>-1.0</ele>
        <time>2019-05-16T13:29:22.930Z</time>
      </trkpt>
      <trkpt lat="38.99687167" lon="-8.95935333">
        <ele>-1.0</ele>
        <time>2019-05-16T13:29:23.932Z</time>
      </trkpt>
      <trkpt lat="38.99692833" lon="-8.95931167">
        <ele>-1.0</ele>
        <time>2019-05-16T13:29:24.913Z</time>
      </trkpt>
      <trkpt lat="38.99692833" lon="-8.95931167">
        <ele>-1.0</ele>
        <time>2019-05-16T13:29:25.920Z</time>
      </trkpt>
      <trkpt lat="38.99698833" lon="-8.959275">
        <ele>-1.0</ele>
        <time>2019-05-16T13:29:26.914Z</time>
      </trkpt>
      <trkpt lat="38.99698833" lon="-8.959275">
        <ele>-1.0</ele>
        <time>2019-05-16T13:29:27.917Z</time>
      </trkpt>
      <trkpt lat="38.99704667" lon="-8.95923667">
        <ele>-1.0</ele>
        <time>2019-05-16T13:29:28.932Z</time>
      </trkpt>
      <trkpt lat="38.99704667" lon="-8.95923667">
        <ele>-1.0</ele>
        <time>2019-05-16T13:29:29.913Z</time>
      </trkpt>
      <trkpt lat="38.997105" lon="-8.95919833">
        <ele>-1.0</ele>
        <time>2019-05-16T13:29:30.920Z</time>
      </trkpt>
      <trkpt lat="38.997105" lon="-8.95919833">
        <ele>-1.0</ele>
        <time>2019-05-16T13:29:31.905Z</time>
      </trkpt>
      <trkpt lat="38.99716333" lon="-8.959155">
        <ele>-1.0</ele>
        <time>2019-05-16T13:29:32.916Z</time>
      </trkpt>
      <trkpt lat="38.99716333" lon="-8.959155">
        <ele>-1.0</ele>
        <time>2019-05-16T13:29:33.901Z</time>
      </trkpt>
      <trkpt lat="38.99722167" lon="-8.95911167">
        <ele>-1.0</ele>
        <time>2019-05-16T13:29:34.931Z</time>
      </trkpt>
      <trkpt lat="38.99722167" lon="-8.95911167">
        <ele>-1.0</ele>
        <time>2019-05-16T13:29:35.914Z</time>
      </trkpt>
      <trkpt lat="38.99727667" lon="-8.95907333">
        <ele>-1.0</ele>
        <time>2019-05-16T13:29:36.930Z</time>
      </trkpt>
      <trkpt lat="38.99727667" lon="-8.95907333">
        <ele>-1.0</ele>
        <time>2019-05-16T13:29:37.917Z</time>
      </trkpt>
      <trkpt lat="38.99733" lon="-8.95903833">
        <ele>-1.0</ele>
        <time>2019-05-16T13:29:38.930Z</time>
      </trkpt>
      <trkpt lat="38.99733" lon="-8.95903833">
        <ele>-1.0</ele>
        <time>2019-05-16T13:29:39.903Z</time>
      </trkpt>
      <trkpt lat="38.99738333" lon="-8.959">
        <ele>-1.0</ele>
        <time>2019-05-16T13:29:40.915Z</time>
      </trkpt>
      <trkpt lat="38.99738333" lon="-8.959">
        <ele>-1.0</ele>
        <time>2019-05-16T13:29:41.919Z</time>
      </trkpt>
      <trkpt lat="38.997435" lon="-8.95896">
        <ele>-1.0</ele>
        <time>2019-05-16T13:29:42.927Z</time>
      </trkpt>
      <trkpt lat="38.997435" lon="-8.95896">
        <ele>-1.0</ele>
        <time>2019-05-16T13:29:43.921Z</time>
      </trkpt>
      <trkpt lat="38.99748833" lon="-8.95892333">
        <ele>-1.0</ele>
        <time>2019-05-16T13:29:44.930Z</time>
      </trkpt>
      <trkpt lat="38.99748833" lon="-8.95892333">
        <ele>-1.0</ele>
        <time>2019-05-16T13:29:45.922Z</time>
      </trkpt>
      <trkpt lat="38.99754167" lon="-8.95888667">
        <ele>-1.0</ele>
        <time>2019-05-16T13:29:46.935Z</time>
      </trkpt>
      <trkpt lat="38.99754167" lon="-8.95888667">
        <ele>-1.0</ele>
        <time>2019-05-16T13:29:47.903Z</time>
      </trkpt>
      <trkpt lat="38.99759667" lon="-8.95885167">
        <ele>-1.0</ele>
        <time>2019-05-16T13:29:48.915Z</time>
      </trkpt>
      <trkpt lat="38.99759667" lon="-8.95885167">
        <ele>-1.0</ele>
        <time>2019-05-16T13:29:49.934Z</time>
      </trkpt>
      <trkpt lat="38.99765167" lon="-8.958815">
        <ele>-1.0</ele>
        <time>2019-05-16T13:29:50.906Z</time>
      </trkpt>
      <trkpt lat="38.99765167" lon="-8.958815">
        <ele>-1.0</ele>
        <time>2019-05-16T13:29:51.916Z</time>
      </trkpt>
      <trkpt lat="38.99770333" lon="-8.95877">
        <ele>-1.0</ele>
        <time>2019-05-16T13:29:52.923Z</time>
      </trkpt>
      <trkpt lat="38.99773" lon="-8.95874833">
        <ele>-1.0</ele>
        <time>2019-05-16T13:29:53.919Z</time>
      </trkpt>
      <trkpt lat="38.99775667" lon="-8.95873">
        <ele>-1.0</ele>
        <time>2019-05-16T13:29:54.935Z</time>
      </trkpt>
      <trkpt lat="38.99775667" lon="-8.95873">
        <ele>-1.0</ele>
        <time>2019-05-16T13:29:55.933Z</time>
      </trkpt>
      <trkpt lat="38.99781167" lon="-8.95868833">
        <ele>-1.0</ele>
        <time>2019-05-16T13:29:56.899Z</time>
      </trkpt>
      <trkpt lat="38.99781167" lon="-8.95868833">
        <ele>-1.0</ele>
        <time>2019-05-16T13:29:57.923Z</time>
      </trkpt>
      <trkpt lat="38.99786833" lon="-8.958645">
        <ele>-1.0</ele>
        <time>2019-05-16T13:29:58.935Z</time>
      </trkpt>
      <trkpt lat="38.99786833" lon="-8.958645">
        <ele>-1.0</ele>
        <time>2019-05-16T13:29:59.906Z</time>
      </trkpt>
      <trkpt lat="38.997925" lon="-8.9586">
        <ele>-1.0</ele>
        <time>2019-05-16T13:30:00.914Z</time>
      </trkpt>
      <trkpt lat="38.997925" lon="-8.9586">
        <ele>-1.0</ele>
        <time>2019-05-16T13:30:01.906Z</time>
      </trkpt>
      <trkpt lat="38.99798" lon="-8.95855333">
        <ele>-2.0</ele>
        <time>2019-05-16T13:30:02.928Z</time>
      </trkpt>
      <trkpt lat="38.99798" lon="-8.95855333">
        <ele>-2.0</ele>
        <time>2019-05-16T13:30:03.905Z</time>
      </trkpt>
      <trkpt lat="38.99803" lon="-8.95851">
        <ele>-1.0</ele>
        <time>2019-05-16T13:30:04.912Z</time>
      </trkpt>
      <trkpt lat="38.99805167" lon="-8.958485">
        <ele>-1.0</ele>
        <time>2019-05-16T13:30:05.898Z</time>
      </trkpt>
      <trkpt lat="38.99807667" lon="-8.95846167">
        <ele>-1.0</ele>
        <time>2019-05-16T13:30:06.916Z</time>
      </trkpt>
      <trkpt lat="38.99807667" lon="-8.95846167">
        <ele>-1.0</ele>
        <time>2019-05-16T13:30:07.908Z</time>
      </trkpt>
      <trkpt lat="38.99812" lon="-8.95841333">
        <ele>-1.0</ele>
        <time>2019-05-16T13:30:08.921Z</time>
      </trkpt>
      <trkpt lat="38.99812" lon="-8.95841333">
        <ele>-1.0</ele>
        <time>2019-05-16T13:30:09.921Z</time>
      </trkpt>
      <trkpt lat="38.998165" lon="-8.95836667">
        <ele>-1.0</ele>
        <time>2019-05-16T13:30:10.932Z</time>
      </trkpt>
      <trkpt lat="38.99818667" lon="-8.95834667">
        <ele>-1.0</ele>
        <time>2019-05-16T13:30:11.906Z</time>
      </trkpt>
      <trkpt lat="38.99821" lon="-8.95832833">
        <ele>-1.0</ele>
        <time>2019-05-16T13:30:12.939Z</time>
      </trkpt>
      <trkpt lat="38.99821" lon="-8.95832833">
        <ele>-1.0</ele>
        <time>2019-05-16T13:30:13.911Z</time>
      </trkpt>
      <trkpt lat="38.99825167" lon="-8.958285">
        <ele>-1.0</ele>
        <time>2019-05-16T13:30:14.924Z</time>
      </trkpt>
      <trkpt lat="38.99825167" lon="-8.958285">
        <ele>-1.0</ele>
        <time>2019-05-16T13:30:15.915Z</time>
      </trkpt>
      <trkpt lat="38.99829667" lon="-8.95823333">
        <ele>-1.0</ele>
        <time>2019-05-16T13:30:16.923Z</time>
      </trkpt>
      <trkpt lat="38.99831833" lon="-8.958205">
        <ele>-1.0</ele>
        <time>2019-05-16T13:30:17.910Z</time>
      </trkpt>
      <trkpt lat="38.99834333" lon="-8.95817667">
        <ele>-1.0</ele>
        <time>2019-05-16T13:30:18.931Z</time>
      </trkpt>
      <trkpt lat="38.99834333" lon="-8.95817667">
        <ele>-1.0</ele>
        <time>2019-05-16T13:30:19.921Z</time>
      </trkpt>
      <trkpt lat="38.998395" lon="-8.95812167">
        <ele>-1.0</ele>
        <time>2019-05-16T13:30:20.913Z</time>
      </trkpt>
      <trkpt lat="38.998395" lon="-8.95812167">
        <ele>-1.0</ele>
        <time>2019-05-16T13:30:21.901Z</time>
      </trkpt>
      <trkpt lat="38.99844833" lon="-8.95806333">
        <ele>-1.0</ele>
        <time>2019-05-16T13:30:22.913Z</time>
      </trkpt>
      <trkpt lat="38.99844833" lon="-8.95806333">
        <ele>-1.0</ele>
        <time>2019-05-16T13:30:23.916Z</time>
      </trkpt>
      <trkpt lat="38.9985" lon="-8.95799667">
        <ele>-1.0</ele>
        <time>2019-05-16T13:30:24.930Z</time>
      </trkpt>
      <trkpt lat="38.9985" lon="-8.95799667">
        <ele>-1.0</ele>
        <time>2019-05-16T13:30:25.920Z</time>
      </trkpt>
      <trkpt lat="38.99855" lon="-8.95793167">
        <ele>-2.0</ele>
        <time>2019-05-16T13:30:26.928Z</time>
      </trkpt>
      <trkpt lat="38.99855" lon="-8.95793167">
        <ele>-2.0</ele>
        <time>2019-05-16T13:30:27.906Z</time>
      </trkpt>
      <trkpt lat="38.9986" lon="-8.957865">
        <ele>-1.0</ele>
        <time>2019-05-16T13:30:28.900Z</time>
      </trkpt>
      <trkpt lat="38.9986" lon="-8.957865">
        <ele>-1.0</ele>
        <time>2019-05-16T13:30:29.927Z</time>
      </trkpt>
      <trkpt lat="38.99864833" lon="-8.95779833">
        <ele>-1.0</ele>
        <time>2019-05-16T13:30:30.937Z</time>
      </trkpt>
      <trkpt lat="38.99864833" lon="-8.95779833">
        <ele>-1.0</ele>
        <time>2019-05-16T13:30:31.932Z</time>
      </trkpt>
      <trkpt lat="38.998695" lon="-8.95773167">
        <ele>-2.0</ele>
        <time>2019-05-16T13:30:32.904Z</time>
      </trkpt>
      <trkpt lat="38.998695" lon="-8.95773167">
        <ele>-2.0</ele>
        <time>2019-05-16T13:30:33.929Z</time>
      </trkpt>
      <trkpt lat="38.99874333" lon="-8.957665">
        <ele>-1.0</ele>
        <time>2019-05-16T13:30:34.906Z</time>
      </trkpt>
      <trkpt lat="38.99874333" lon="-8.957665">
        <ele>-1.0</ele>
        <time>2019-05-16T13:30:35.905Z</time>
      </trkpt>
      <trkpt lat="38.99879167" lon="-8.95760167">
        <ele>-2.0</ele>
        <time>2019-05-16T13:30:36.924Z</time>
      </trkpt>
      <trkpt lat="38.99879167" lon="-8.95760167">
        <ele>-2.0</ele>
        <time>2019-05-16T13:30:37.921Z</time>
      </trkpt>
      <trkpt lat="38.99884" lon="-8.957535">
        <ele>-2.0</ele>
        <time>2019-05-16T13:30:38.906Z</time>
      </trkpt>
      <trkpt lat="38.99884" lon="-8.957535">
        <ele>-2.0</ele>
        <time>2019-05-16T13:30:39.931Z</time>
      </trkpt>
      <trkpt lat="38.99889" lon="-8.95746833">
        <ele>-2.0</ele>
        <time>2019-05-16T13:30:40.908Z</time>
      </trkpt>
      <trkpt lat="38.99889" lon="-8.95746833">
        <ele>-2.0</ele>
        <time>2019-05-16T13:30:41.911Z</time>
      </trkpt>
      <trkpt lat="38.99894" lon="-8.9574">
        <ele>-2.0</ele>
        <time>2019-05-16T13:30:42.921Z</time>
      </trkpt>
      <trkpt lat="38.99894" lon="-8.9574">
        <ele>-2.0</ele>
        <time>2019-05-16T13:30:43.920Z</time>
      </trkpt>
      <trkpt lat="38.99899" lon="-8.957335">
        <ele>-2.0</ele>
        <time>2019-05-16T13:30:44.930Z</time>
      </trkpt>
      <trkpt lat="38.99899" lon="-8.957335">
        <ele>-2.0</ele>
        <time>2019-05-16T13:30:45.931Z</time>
      </trkpt>
      <trkpt lat="38.99904" lon="-8.95726333">
        <ele>-2.0</ele>
        <time>2019-05-16T13:30:46.902Z</time>
      </trkpt>
      <trkpt lat="38.99904" lon="-8.95726333">
        <ele>-2.0</ele>
        <time>2019-05-16T13:30:47.917Z</time>
      </trkpt>
      <trkpt lat="38.99909" lon="-8.957195">
        <ele>-2.0</ele>
        <time>2019-05-16T13:30:48.926Z</time>
      </trkpt>
      <trkpt lat="38.99909" lon="-8.957195">
        <ele>-2.0</ele>
        <time>2019-05-16T13:30:49.921Z</time>
      </trkpt>
      <trkpt lat="38.99914167" lon="-8.95712833">
        <ele>-2.0</ele>
        <time>2019-05-16T13:30:50.930Z</time>
      </trkpt>
      <trkpt lat="38.99914167" lon="-8.95712833">
        <ele>-2.0</ele>
        <time>2019-05-16T13:30:51.918Z</time>
      </trkpt>
      <trkpt lat="38.99919167" lon="-8.95706167">
        <ele>-2.0</ele>
        <time>2019-05-16T13:30:52.936Z</time>
      </trkpt>
      <trkpt lat="38.99919167" lon="-8.95706167">
        <ele>-2.0</ele>
        <time>2019-05-16T13:30:53.934Z</time>
      </trkpt>
      <trkpt lat="38.999245" lon="-8.95699333">
        <ele>-2.0</ele>
        <time>2019-05-16T13:30:54.907Z</time>
      </trkpt>
      <trkpt lat="38.999245" lon="-8.95699333">
        <ele>-2.0</ele>
        <time>2019-05-16T13:30:55.900Z</time>
      </trkpt>
      <trkpt lat="38.9993" lon="-8.956925">
        <ele>-2.0</ele>
        <time>2019-05-16T13:30:56.910Z</time>
      </trkpt>
      <trkpt lat="38.9993" lon="-8.956925">
        <ele>-2.0</ele>
        <time>2019-05-16T13:30:57.933Z</time>
      </trkpt>
      <trkpt lat="38.99935167" lon="-8.95685333">
        <ele>-2.0</ele>
        <time>2019-05-16T13:30:58.926Z</time>
      </trkpt>
      <trkpt lat="38.99935167" lon="-8.95685333">
        <ele>-2.0</ele>
        <time>2019-05-16T13:30:59.932Z</time>
      </trkpt>
      <trkpt lat="38.999405" lon="-8.95678167">
        <ele>-2.0</ele>
        <time>2019-05-16T13:31:00.903Z</time>
      </trkpt>
      <trkpt lat="38.999405" lon="-8.95678167">
        <ele>-2.0</ele>
        <time>2019-05-16T13:31:01.902Z</time>
      </trkpt>
      <trkpt lat="38.99945667" lon="-8.95671">
        <ele>-2.0</ele>
        <time>2019-05-16T13:31:02.908Z</time>
      </trkpt>
      <trkpt lat="38.99945667" lon="-8.95671">
        <ele>-2.0</ele>
        <time>2019-05-16T13:31:03.901Z</time>
      </trkpt>
      <trkpt lat="38.99950833" lon="-8.95663833">
        <ele>-2.0</ele>
        <time>2019-05-16T13:31:04.909Z</time>
      </trkpt>
      <trkpt lat="38.99950833" lon="-8.95663833">
        <ele>-2.0</ele>
        <time>2019-05-16T13:31:05.900Z</time>
      </trkpt>
      <trkpt lat="38.99955833" lon="-8.95657">
        <ele>-2.0</ele>
        <time>2019-05-16T13:31:06.914Z</time>
      </trkpt>
      <trkpt lat="38.99955833" lon="-8.95657">
        <ele>-2.0</ele>
        <time>2019-05-16T13:31:07.912Z</time>
      </trkpt>
      <trkpt lat="38.99960833" lon="-8.95649833">
        <ele>-2.0</ele>
        <time>2019-05-16T13:31:08.939Z</time>
      </trkpt>
      <trkpt lat="38.99960833" lon="-8.95649833">
        <ele>-2.0</ele>
        <time>2019-05-16T13:31:09.926Z</time>
      </trkpt>
      <trkpt lat="38.99965667" lon="-8.95642667">
        <ele>-2.0</ele>
        <time>2019-05-16T13:31:10.897Z</time>
      </trkpt>
      <trkpt lat="38.99965667" lon="-8.95642667">
        <ele>-2.0</ele>
        <time>2019-05-16T13:31:11.908Z</time>
      </trkpt>
      <trkpt lat="38.999705" lon="-8.95635833">
        <ele>-2.0</ele>
        <time>2019-05-16T13:31:12.929Z</time>
      </trkpt>
      <trkpt lat="38.999705" lon="-8.95635833">
        <ele>-2.0</ele>
        <time>2019-05-16T13:31:13.928Z</time>
      </trkpt>
      <trkpt lat="38.99975" lon="-8.95629167">
        <ele>-2.0</ele>
        <time>2019-05-16T13:31:14.900Z</time>
      </trkpt>
      <trkpt lat="38.99975" lon="-8.95629167">
        <ele>-2.0</ele>
        <time>2019-05-16T13:31:15.932Z</time>
      </trkpt>
      <trkpt lat="38.99979333" lon="-8.95623">
        <ele>-2.0</ele>
        <time>2019-05-16T13:31:16.902Z</time>
      </trkpt>
      <trkpt lat="38.99979333" lon="-8.95623">
        <ele>-2.0</ele>
        <time>2019-05-16T13:31:17.900Z</time>
      </trkpt>
      <trkpt lat="38.99984167" lon="-8.956165">
        <ele>-2.0</ele>
        <time>2019-05-16T13:31:18.909Z</time>
      </trkpt>
      <trkpt lat="38.99984167" lon="-8.956165">
        <ele>-2.0</ele>
        <time>2019-05-16T13:31:19.931Z</time>
      </trkpt>
      <trkpt lat="38.99989833" lon="-8.95609167">
        <ele>-2.0</ele>
        <time>2019-05-16T13:31:20.920Z</time>
      </trkpt>
      <trkpt lat="38.99989833" lon="-8.95609167">
        <ele>-2.0</ele>
        <time>2019-05-16T13:31:21.911Z</time>
      </trkpt>
      <trkpt lat="38.99995833" lon="-8.95602">
        <ele>-2.0</ele>
        <time>2019-05-16T13:31:22.897Z</time>
      </trkpt>
      <trkpt lat="38.99995833" lon="-8.95602">
        <ele>-2.0</ele>
        <time>2019-05-16T13:31:23.913Z</time>
      </trkpt>
      <trkpt lat="39.000015" lon="-8.955945">
        <ele>-2.0</ele>
        <time>2019-05-16T13:31:24.924Z</time>
      </trkpt>
      <trkpt lat="39.000015" lon="-8.955945">
        <ele>-2.0</ele>
        <time>2019-05-16T13:31:25.902Z</time>
      </trkpt>
      <trkpt lat="39.00007333" lon="-8.955875">
        <ele>-2.0</ele>
        <time>2019-05-16T13:31:26.923Z</time>
      </trkpt>
      <trkpt lat="39.00007333" lon="-8.955875">
        <ele>-2.0</ele>
        <time>2019-05-16T13:31:27.917Z</time>
      </trkpt>
      <trkpt lat="39.00013" lon="-8.955805">
        <ele>-2.0</ele>
        <time>2019-05-16T13:31:28.932Z</time>
      </trkpt>
      <trkpt lat="39.00013" lon="-8.955805">
        <ele>-2.0</ele>
        <time>2019-05-16T13:31:29.903Z</time>
      </trkpt>
      <trkpt lat="39.00018167" lon="-8.955735">
        <ele>-2.0</ele>
        <time>2019-05-16T13:31:30.916Z</time>
      </trkpt>
      <trkpt lat="39.00018167" lon="-8.955735">
        <ele>-2.0</ele>
        <time>2019-05-16T13:31:31.911Z</time>
      </trkpt>
      <trkpt lat="39.00023333" lon="-8.955665">
        <ele>-2.0</ele>
        <time>2019-05-16T13:31:32.919Z</time>
      </trkpt>
      <trkpt lat="39.00023333" lon="-8.955665">
        <ele>-2.0</ele>
        <time>2019-05-16T13:31:33.915Z</time>
      </trkpt>
      <trkpt lat="39.00028333" lon="-8.95559333">
        <ele>-2.0</ele>
        <time>2019-05-16T13:31:34.925Z</time>
      </trkpt>
      <trkpt lat="39.00028333" lon="-8.95559333">
        <ele>-2.0</ele>
        <time>2019-05-16T13:31:35.911Z</time>
      </trkpt>
      <trkpt lat="39.00033667" lon="-8.95552">
        <ele>-2.0</ele>
        <time>2019-05-16T13:31:36.924Z</time>
      </trkpt>
      <trkpt lat="39.00033667" lon="-8.95552">
        <ele>-2.0</ele>
        <time>2019-05-16T13:31:37.902Z</time>
      </trkpt>
      <trkpt lat="39.000385" lon="-8.95544333">
        <ele>-2.0</ele>
        <time>2019-05-16T13:31:38.912Z</time>
      </trkpt>
      <trkpt lat="39.000385" lon="-8.95544333">
        <ele>-2.0</ele>
        <time>2019-05-16T13:31:39.911Z</time>
      </trkpt>
      <trkpt lat="39.00043" lon="-8.95536">
        <ele>-2.0</ele>
        <time>2019-05-16T13:31:40.930Z</time>
      </trkpt>
      <trkpt lat="39.00043" lon="-8.95536">
        <ele>-2.0</ele>
        <time>2019-05-16T13:31:41.897Z</time>
      </trkpt>
      <trkpt lat="39.00047667" lon="-8.95527333">
        <ele>-2.0</ele>
        <time>2019-05-16T13:31:42.907Z</time>
      </trkpt>
      <trkpt lat="39.00047667" lon="-8.95527333">
        <ele>-2.0</ele>
        <time>2019-05-16T13:31:43.906Z</time>
      </trkpt>
      <trkpt lat="39.00051833" lon="-8.95518667">
        <ele>-2.0</ele>
        <time>2019-05-16T13:31:44.914Z</time>
      </trkpt>
      <trkpt lat="39.00051833" lon="-8.95518667">
        <ele>-2.0</ele>
        <time>2019-05-16T13:31:45.919Z</time>
      </trkpt>
      <trkpt lat="39.00055167" lon="-8.95509">
        <ele>-2.0</ele>
        <time>2019-05-16T13:31:46.929Z</time>
      </trkpt>
      <trkpt lat="39.00055167" lon="-8.95509">
        <ele>-2.0</ele>
        <time>2019-05-16T13:31:47.917Z</time>
      </trkpt>
      <trkpt lat="39.000595" lon="-8.95499667">
        <ele>-1.0</ele>
        <time>2019-05-16T13:31:48.936Z</time>
      </trkpt>
      <trkpt lat="39.000595" lon="-8.95499667">
        <ele>-1.0</ele>
        <time>2019-05-16T13:31:49.905Z</time>
      </trkpt>
      <trkpt lat="39.00064167" lon="-8.95490667">
        <ele>-1.0</ele>
        <time>2019-05-16T13:31:50.920Z</time>
      </trkpt>
      <trkpt lat="39.00064167" lon="-8.95490667">
        <ele>-1.0</ele>
        <time>2019-05-16T13:31:51.901Z</time>
      </trkpt>
      <trkpt lat="39.00068667" lon="-8.95481667">
        <ele>-1.0</ele>
        <time>2019-05-16T13:31:52.911Z</time>
      </trkpt>
      <trkpt lat="39.00068667" lon="-8.95481667">
        <ele>-1.0</ele>
        <time>2019-05-16T13:31:53.914Z</time>
      </trkpt>
      <trkpt lat="39.00072167" lon="-8.95472167">
        <ele>-1.0</ele>
        <time>2019-05-16T13:31:54.922Z</time>
      </trkpt>
      <trkpt lat="39.00072167" lon="-8.95472167">
        <ele>-1.0</ele>
        <time>2019-05-16T13:31:55.928Z</time>
      </trkpt>
      <trkpt lat="39.00075" lon="-8.95462333">
        <ele>-1.0</ele>
        <time>2019-05-16T13:31:56.937Z</time>
      </trkpt>
      <trkpt lat="39.00075" lon="-8.95462333">
        <ele>-1.0</ele>
        <time>2019-05-16T13:31:57.902Z</time>
      </trkpt>
      <trkpt lat="39.00074667" lon="-8.95451833">
        <ele>-1.0</ele>
        <time>2019-05-16T13:31:58.924Z</time>
      </trkpt>
      <trkpt lat="39.00074667" lon="-8.95451833">
        <ele>-1.0</ele>
        <time>2019-05-16T13:31:59.930Z</time>
      </trkpt>
      <trkpt lat="39.00071833" lon="-8.95441167">
        <ele>-1.0</ele>
        <time>2019-05-16T13:32:00.904Z</time>
      </trkpt>
      <trkpt lat="39.00071833" lon="-8.95441167">
        <ele>-1.0</ele>
        <time>2019-05-16T13:32:01.908Z</time>
      </trkpt>
      <trkpt lat="39.0007" lon="-8.95430167">
        <ele>0.0</ele>
        <time>2019-05-16T13:32:02.921Z</time>
      </trkpt>
      <trkpt lat="39.0007" lon="-8.95430167">
        <ele>0.0</ele>
        <time>2019-05-16T13:32:03.932Z</time>
      </trkpt>
      <trkpt lat="39.00072" lon="-8.95419">
        <ele>0.0</ele>
        <time>2019-05-16T13:32:04.906Z</time>
      </trkpt>
      <trkpt lat="39.00072" lon="-8.95419">
        <ele>0.0</ele>
        <time>2019-05-16T13:32:05.921Z</time>
      </trkpt>
      <trkpt lat="39.000765" lon="-8.95409833">
        <ele>0.0</ele>
        <time>2019-05-16T13:32:06.931Z</time>
      </trkpt>
      <trkpt lat="39.000765" lon="-8.95409833">
        <ele>0.0</ele>
        <time>2019-05-16T13:32:07.919Z</time>
      </trkpt>
      <trkpt lat="39.00082833" lon="-8.95403667">
        <ele>0.0</ele>
        <time>2019-05-16T13:32:08.933Z</time>
      </trkpt>
      <trkpt lat="39.00082833" lon="-8.95403667">
        <ele>0.0</ele>
        <time>2019-05-16T13:32:09.910Z</time>
      </trkpt>
      <trkpt lat="39.00089167" lon="-8.954">
        <ele>0.0</ele>
        <time>2019-05-16T13:32:10.901Z</time>
      </trkpt>
      <trkpt lat="39.00089167" lon="-8.954">
        <ele>0.0</ele>
        <time>2019-05-16T13:32:11.931Z</time>
      </trkpt>
      <trkpt lat="39.00094833" lon="-8.95396667">
        <ele>0.0</ele>
        <time>2019-05-16T13:32:12.908Z</time>
      </trkpt>
      <trkpt lat="39.00094833" lon="-8.95396667">
        <ele>0.0</ele>
        <time>2019-05-16T13:32:13.932Z</time>
      </trkpt>
      <trkpt lat="39.001" lon="-8.953925">
        <ele>0.0</ele>
        <time>2019-05-16T13:32:14.907Z</time>
      </trkpt>
      <trkpt lat="39.001" lon="-8.953925">
        <ele>0.0</ele>
        <time>2019-05-16T13:32:15.932Z</time>
      </trkpt>
      <trkpt lat="39.00104167" lon="-8.95385833">
        <ele>1.0</ele>
        <time>2019-05-16T13:32:16.905Z</time>
      </trkpt>
      <trkpt lat="39.00104167" lon="-8.95385833">
        <ele>1.0</ele>
        <time>2019-05-16T13:32:17.929Z</time>
      </trkpt>
      <trkpt lat="39.00107167" lon="-8.95377167">
        <ele>1.0</ele>
        <time>2019-05-16T13:32:18.898Z</time>
      </trkpt>
      <trkpt lat="39.00107167" lon="-8.95377167">
        <ele>1.0</ele>
        <time>2019-05-16T13:32:19.897Z</time>
      </trkpt>
      <trkpt lat="39.00109833" lon="-8.95367833">
        <ele>1.0</ele>
        <time>2019-05-16T13:32:20.931Z</time>
      </trkpt>
      <trkpt lat="39.00111" lon="-8.95362833">
        <ele>1.0</ele>
        <time>2019-05-16T13:32:21.922Z</time>
      </trkpt>
      <trkpt lat="39.00111" lon="-8.95362833">
        <ele>1.0</ele>
        <time>2019-05-16T13:32:22.916Z</time>
      </trkpt>
      <trkpt lat="39.00113333" lon="-8.95352333">
        <ele>1.0</ele>
        <time>2019-05-16T13:32:23.935Z</time>
      </trkpt>
      <trkpt lat="39.00114333" lon="-8.95347167">
        <ele>1.0</ele>
        <time>2019-05-16T13:32:24.907Z</time>
      </trkpt>
      <trkpt lat="39.00114333" lon="-8.95347167">
        <ele>1.0</ele>
        <time>2019-05-16T13:32:25.915Z</time>
      </trkpt>
      <trkpt lat="39.00116833" lon="-8.95336333">
        <ele>1.0</ele>
        <time>2019-05-16T13:32:26.924Z</time>
      </trkpt>
      <trkpt lat="39.00116833" lon="-8.95336333">
        <ele>1.0</ele>
        <time>2019-05-16T13:32:27.918Z</time>
      </trkpt>
      <trkpt lat="39.00119" lon="-8.953255">
        <ele>1.0</ele>
        <time>2019-05-16T13:32:28.933Z</time>
      </trkpt>
      <trkpt lat="39.00119" lon="-8.953255">
        <ele>1.0</ele>
        <time>2019-05-16T13:32:29.921Z</time>
      </trkpt>
      <trkpt lat="39.00121667" lon="-8.95315">
        <ele>1.0</ele>
        <time>2019-05-16T13:32:30.936Z</time>
      </trkpt>
      <trkpt lat="39.00121667" lon="-8.95315">
        <ele>1.0</ele>
        <time>2019-05-16T13:32:31.918Z</time>
      </trkpt>
      <trkpt lat="39.00124167" lon="-8.95304333">
        <ele>1.0</ele>
        <time>2019-05-16T13:32:32.926Z</time>
      </trkpt>
      <trkpt lat="39.00124167" lon="-8.95304333">
        <ele>1.0</ele>
        <time>2019-05-16T13:32:33.929Z</time>
      </trkpt>
      <trkpt lat="39.00126667" lon="-8.95293333">
        <ele>1.0</ele>
        <time>2019-05-16T13:32:34.907Z</time>
      </trkpt>
      <trkpt lat="39.00126667" lon="-8.95293333">
        <ele>1.0</ele>
        <time>2019-05-16T13:32:35.933Z</time>
      </trkpt>
      <trkpt lat="39.00129333" lon="-8.95282333">
        <ele>1.0</ele>
        <time>2019-05-16T13:32:36.902Z</time>
      </trkpt>
      <trkpt lat="39.00129333" lon="-8.95282333">
        <ele>1.0</ele>
        <time>2019-05-16T13:32:37.930Z</time>
      </trkpt>
      <trkpt lat="39.00132167" lon="-8.95271667">
        <ele>1.0</ele>
        <time>2019-05-16T13:32:38.925Z</time>
      </trkpt>
      <trkpt lat="39.00132167" lon="-8.95271667">
        <ele>1.0</ele>
        <time>2019-05-16T13:32:39.905Z</time>
      </trkpt>
      <trkpt lat="39.00134833" lon="-8.95261">
        <ele>1.0</ele>
        <time>2019-05-16T13:32:40.915Z</time>
      </trkpt>
      <trkpt lat="39.00134833" lon="-8.95261">
        <ele>1.0</ele>
        <time>2019-05-16T13:32:41.900Z</time>
      </trkpt>
      <trkpt lat="39.00137667" lon="-8.95250333">
        <ele>1.0</ele>
        <time>2019-05-16T13:32:42.910Z</time>
      </trkpt>
      <trkpt lat="39.00137667" lon="-8.95250333">
        <ele>1.0</ele>
        <time>2019-05-16T13:32:43.905Z</time>
      </trkpt>
      <trkpt lat="39.001405" lon="-8.95239667">
        <ele>1.0</ele>
        <time>2019-05-16T13:32:44.914Z</time>
      </trkpt>
      <trkpt lat="39.001405" lon="-8.95239667">
        <ele>1.0</ele>
        <time>2019-05-16T13:32:45.914Z</time>
      </trkpt>
      <trkpt lat="39.00143833" lon="-8.95228667">
        <ele>0.0</ele>
        <time>2019-05-16T13:32:46.926Z</time>
      </trkpt>
      <trkpt lat="39.00143833" lon="-8.95228667">
        <ele>0.0</ele>
        <time>2019-05-16T13:32:47.897Z</time>
      </trkpt>
      <trkpt lat="39.00147" lon="-8.95217">
        <ele>0.0</ele>
        <time>2019-05-16T13:32:48.906Z</time>
      </trkpt>
      <trkpt lat="39.00147" lon="-8.95217">
        <ele>0.0</ele>
        <time>2019-05-16T13:32:49.928Z</time>
      </trkpt>
      <trkpt lat="39.00150833" lon="-8.95205833">
        <ele>0.0</ele>
        <time>2019-05-16T13:32:50.900Z</time>
      </trkpt>
      <trkpt lat="39.00150833" lon="-8.95205833">
        <ele>0.0</ele>
        <time>2019-05-16T13:32:51.902Z</time>
      </trkpt>
      <trkpt lat="39.00154833" lon="-8.95194667">
        <ele>0.0</ele>
        <time>2019-05-16T13:32:52.919Z</time>
      </trkpt>
      <trkpt lat="39.00154833" lon="-8.95194667">
        <ele>0.0</ele>
        <time>2019-05-16T13:32:53.917Z</time>
      </trkpt>
      <trkpt lat="39.00159" lon="-8.95183667">
        <ele>0.0</ele>
        <time>2019-05-16T13:32:54.927Z</time>
      </trkpt>
      <trkpt lat="39.00159" lon="-8.95183667">
        <ele>0.0</ele>
        <time>2019-05-16T13:32:55.913Z</time>
      </trkpt>
      <trkpt lat="39.00163167" lon="-8.95172833">
        <ele>0.0</ele>
        <time>2019-05-16T13:32:56.921Z</time>
      </trkpt>
      <trkpt lat="39.00163167" lon="-8.95172833">
        <ele>0.0</ele>
        <time>2019-05-16T13:32:57.930Z</time>
      </trkpt>
      <trkpt lat="39.00167667" lon="-8.95161833">
        <ele>0.0</ele>
        <time>2019-05-16T13:32:58.906Z</time>
      </trkpt>
      <trkpt lat="39.00167667" lon="-8.95161833">
        <ele>0.0</ele>
        <time>2019-05-16T13:32:59.924Z</time>
      </trkpt>
      <trkpt lat="39.001725" lon="-8.95150833">
        <ele>0.0</ele>
        <time>2019-05-16T13:33:00.934Z</time>
      </trkpt>
      <trkpt lat="39.001725" lon="-8.95150833">
        <ele>0.0</ele>
        <time>2019-05-16T13:33:01.906Z</time>
      </trkpt>
      <trkpt lat="39.001775" lon="-8.95140167">
        <ele>0.0</ele>
        <time>2019-05-16T13:33:02.948Z</time>
      </trkpt>
      <trkpt lat="39.001775" lon="-8.95140167">
        <ele>0.0</ele>
        <time>2019-05-16T13:33:03.924Z</time>
      </trkpt>
      <trkpt lat="39.00182667" lon="-8.95129667">
        <ele>0.0</ele>
        <time>2019-05-16T13:33:04.932Z</time>
      </trkpt>
      <trkpt lat="39.00185333" lon="-8.951245">
        <ele>0.0</ele>
        <time>2019-05-16T13:33:05.930Z</time>
      </trkpt>
      <trkpt lat="39.00188" lon="-8.95119167">
        <ele>0.0</ele>
        <time>2019-05-16T13:33:06.925Z</time>
      </trkpt>
      <trkpt lat="39.00188" lon="-8.95119167">
        <ele>0.0</ele>
        <time>2019-05-16T13:33:07.903Z</time>
      </trkpt>
      <trkpt lat="39.00194" lon="-8.95109167">
        <ele>0.0</ele>
        <time>2019-05-16T13:33:08.912Z</time>
      </trkpt>
      <trkpt lat="39.00197" lon="-8.95104167">
        <ele>0.0</ele>
        <time>2019-05-16T13:33:09.902Z</time>
      </trkpt>
      <trkpt lat="39.00197" lon="-8.95104167">
        <ele>0.0</ele>
        <time>2019-05-16T13:33:10.931Z</time>
      </trkpt>
      <trkpt lat="39.00202833" lon="-8.95094">
        <ele>-1.0</ele>
        <time>2019-05-16T13:33:11.903Z</time>
      </trkpt>
      <trkpt lat="39.00206" lon="-8.95089">
        <ele>-1.0</ele>
        <time>2019-05-16T13:33:12.907Z</time>
      </trkpt>
      <trkpt lat="39.00206" lon="-8.95089">
        <ele>-1.0</ele>
        <time>2019-05-16T13:33:13.901Z</time>
      </trkpt>
      <trkpt lat="39.00212167" lon="-8.950795">
        <ele>-1.0</ele>
        <time>2019-05-16T13:33:14.915Z</time>
      </trkpt>
      <trkpt lat="39.00212167" lon="-8.950795">
        <ele>-1.0</ele>
        <time>2019-05-16T13:33:15.909Z</time>
      </trkpt>
      <trkpt lat="39.00218" lon="-8.95070167">
        <ele>-1.0</ele>
        <time>2019-05-16T13:33:16.919Z</time>
      </trkpt>
      <trkpt lat="39.00218" lon="-8.95070167">
        <ele>-1.0</ele>
        <time>2019-05-16T13:33:17.915Z</time>
      </trkpt>
      <trkpt lat="39.00224167" lon="-8.95061167">
        <ele>-1.0</ele>
        <time>2019-05-16T13:33:18.931Z</time>
      </trkpt>
      <trkpt lat="39.00224167" lon="-8.95061167">
        <ele>-1.0</ele>
        <time>2019-05-16T13:33:19.921Z</time>
      </trkpt>
      <trkpt lat="39.00230167" lon="-8.95052">
        <ele>-1.0</ele>
        <time>2019-05-16T13:33:20.908Z</time>
      </trkpt>
      <trkpt lat="39.00230167" lon="-8.95052">
        <ele>-1.0</ele>
        <time>2019-05-16T13:33:21.923Z</time>
      </trkpt>
      <trkpt lat="39.002365" lon="-8.95043333">
        <ele>-1.0</ele>
        <time>2019-05-16T13:33:22.932Z</time>
      </trkpt>
      <trkpt lat="39.00239833" lon="-8.95038833">
        <ele>-1.0</ele>
        <time>2019-05-16T13:33:23.922Z</time>
      </trkpt>
      <trkpt lat="39.00243" lon="-8.95034333">
        <ele>-1.0</ele>
        <time>2019-05-16T13:33:24.938Z</time>
      </trkpt>
      <trkpt lat="39.00243" lon="-8.95034333">
        <ele>-1.0</ele>
        <time>2019-05-16T13:33:25.913Z</time>
      </trkpt>
      <trkpt lat="39.002495" lon="-8.950255">
        <ele>-2.0</ele>
        <time>2019-05-16T13:33:26.925Z</time>
      </trkpt>
      <trkpt lat="39.002495" lon="-8.950255">
        <ele>-2.0</ele>
        <time>2019-05-16T13:33:27.928Z</time>
      </trkpt>
      <trkpt lat="39.00256" lon="-8.95016167">
        <ele>-2.0</ele>
        <time>2019-05-16T13:33:28.937Z</time>
      </trkpt>
      <trkpt lat="39.00259333" lon="-8.95011833">
        <ele>-2.0</ele>
        <time>2019-05-16T13:33:29.900Z</time>
      </trkpt>
      <trkpt lat="39.00262667" lon="-8.95007333">
        <ele>-2.0</ele>
        <time>2019-05-16T13:33:30.904Z</time>
      </trkpt>
      <trkpt lat="39.00266" lon="-8.95002833">
        <ele>-2.0</ele>
        <time>2019-05-16T13:33:31.936Z</time>
      </trkpt>
      <trkpt lat="39.00266" lon="-8.95002833">
        <ele>-2.0</ele>
        <time>2019-05-16T13:33:32.931Z</time>
      </trkpt>
      <trkpt lat="39.002725" lon="-8.94993833">
        <ele>-2.0</ele>
        <time>2019-05-16T13:33:33.907Z</time>
      </trkpt>
      <trkpt lat="39.002725" lon="-8.94993833">
        <ele>-2.0</ele>
        <time>2019-05-16T13:33:34.921Z</time>
      </trkpt>
      <trkpt lat="39.00278833" lon="-8.94985667">
        <ele>-2.0</ele>
        <time>2019-05-16T13:33:35.900Z</time>
      </trkpt>
      <trkpt lat="39.00281833" lon="-8.949815">
        <ele>-2.0</ele>
        <time>2019-05-16T13:33:36.921Z</time>
      </trkpt>
      <trkpt lat="39.00281833" lon="-8.949815">
        <ele>-2.0</ele>
        <time>2019-05-16T13:33:37.907Z</time>
      </trkpt>
      <trkpt lat="39.00287333" lon="-8.94973">
        <ele>-2.0</ele>
        <time>2019-05-16T13:33:38.917Z</time>
      </trkpt>
      <trkpt lat="39.00287333" lon="-8.94973">
        <ele>-2.0</ele>
        <time>2019-05-16T13:33:39.907Z</time>
      </trkpt>
      <trkpt lat="39.00293333" lon="-8.94965">
        <ele>-2.0</ele>
        <time>2019-05-16T13:33:40.920Z</time>
      </trkpt>
      <trkpt lat="39.00293333" lon="-8.94965">
        <ele>-2.0</ele>
        <time>2019-05-16T13:33:41.905Z</time>
      </trkpt>
      <trkpt lat="39.002995" lon="-8.94957">
        <ele>-2.0</ele>
        <time>2019-05-16T13:33:42.920Z</time>
      </trkpt>
      <trkpt lat="39.002995" lon="-8.94957">
        <ele>-2.0</ele>
        <time>2019-05-16T13:33:43.919Z</time>
      </trkpt>
      <trkpt lat="39.00305" lon="-8.94948833">
        <ele>-2.0</ele>
        <time>2019-05-16T13:33:44.926Z</time>
      </trkpt>
      <trkpt lat="39.00305" lon="-8.94948833">
        <ele>-2.0</ele>
        <time>2019-05-16T13:33:45.911Z</time>
      </trkpt>
      <trkpt lat="39.003105" lon="-8.94940667">
        <ele>-2.0</ele>
        <time>2019-05-16T13:33:46.923Z</time>
      </trkpt>
      <trkpt lat="39.003105" lon="-8.94940667">
        <ele>-2.0</ele>
        <time>2019-05-16T13:33:47.919Z</time>
      </trkpt>
      <trkpt lat="39.00316" lon="-8.94932833">
        <ele>-2.0</ele>
        <time>2019-05-16T13:33:48.931Z</time>
      </trkpt>
      <trkpt lat="39.00316" lon="-8.94932833">
        <ele>-2.0</ele>
        <time>2019-05-16T13:33:49.926Z</time>
      </trkpt>
      <trkpt lat="39.00321" lon="-8.94925333">
        <ele>-3.0</ele>
        <time>2019-05-16T13:33:50.897Z</time>
      </trkpt>
      <trkpt lat="39.00321" lon="-8.94925333">
        <ele>-3.0</ele>
        <time>2019-05-16T13:33:51.919Z</time>
      </trkpt>
      <trkpt lat="39.00325333" lon="-8.94918667">
        <ele>-3.0</ele>
        <time>2019-05-16T13:33:52.928Z</time>
      </trkpt>
      <trkpt lat="39.00327167" lon="-8.94915833">
        <ele>-3.0</ele>
        <time>2019-05-16T13:33:53.916Z</time>
      </trkpt>
      <trkpt lat="39.00329" lon="-8.94913333">
        <ele>-3.0</ele>
        <time>2019-05-16T13:33:54.910Z</time>
      </trkpt>
      <trkpt lat="39.00329" lon="-8.94913333">
        <ele>-3.0</ele>
        <time>2019-05-16T13:33:55.921Z</time>
      </trkpt>
      <trkpt lat="39.00332833" lon="-8.94908">
        <ele>-3.0</ele>
        <time>2019-05-16T13:33:56.900Z</time>
      </trkpt>
      <trkpt lat="39.00332833" lon="-8.94908">
        <ele>-3.0</ele>
        <time>2019-05-16T13:33:57.932Z</time>
      </trkpt>
      <trkpt lat="39.00336833" lon="-8.94902667">
        <ele>-3.0</ele>
        <time>2019-05-16T13:33:58.921Z</time>
      </trkpt>
      <trkpt lat="39.00336833" lon="-8.94902667">
        <ele>-3.0</ele>
        <time>2019-05-16T13:33:59.915Z</time>
      </trkpt>
      <trkpt lat="39.00340833" lon="-8.94896167">
        <ele>-3.0</ele>
        <time>2019-05-16T13:34:00.923Z</time>
      </trkpt>
      <trkpt lat="39.00340833" lon="-8.94896167">
        <ele>-3.0</ele>
        <time>2019-05-16T13:34:01.928Z</time>
      </trkpt>
      <trkpt lat="39.00344833" lon="-8.94889833">
        <ele>-3.0</ele>
        <time>2019-05-16T13:34:02.899Z</time>
      </trkpt>
      <trkpt lat="39.00344833" lon="-8.94889833">
        <ele>-3.0</ele>
        <time>2019-05-16T13:34:03.909Z</time>
      </trkpt>
      <trkpt lat="39.00349167" lon="-8.94885167">
        <ele>-3.0</ele>
        <time>2019-05-16T13:34:04.918Z</time>
      </trkpt>
      <trkpt lat="39.00349167" lon="-8.94885167">
        <ele>-3.0</ele>
        <time>2019-05-16T13:34:05.928Z</time>
      </trkpt>
      <trkpt lat="39.00354" lon="-8.948845">
        <ele>-3.0</ele>
        <time>2019-05-16T13:34:06.898Z</time>
      </trkpt>
      <trkpt lat="39.00354" lon="-8.948845">
        <ele>-3.0</ele>
        <time>2019-05-16T13:34:07.934Z</time>
      </trkpt>
      <trkpt lat="39.00358667" lon="-8.94887">
        <ele>-4.0</ele>
        <time>2019-05-16T13:34:08.937Z</time>
      </trkpt>
      <trkpt lat="39.00358667" lon="-8.94887">
        <ele>-4.0</ele>
        <time>2019-05-16T13:34:09.934Z</time>
      </trkpt>
      <trkpt lat="39.00363" lon="-8.948925">
        <ele>-4.0</ele>
        <time>2019-05-16T13:34:10.920Z</time>
      </trkpt>
      <trkpt lat="39.00363" lon="-8.948925">
        <ele>-4.0</ele>
        <time>2019-05-16T13:34:11.906Z</time>
      </trkpt>
      <trkpt lat="39.00367833" lon="-8.948985">
        <ele>-4.0</ele>
        <time>2019-05-16T13:34:12.913Z</time>
      </trkpt>
      <trkpt lat="39.00367833" lon="-8.948985">
        <ele>-4.0</ele>
        <time>2019-05-16T13:34:13.926Z</time>
      </trkpt>
      <trkpt lat="39.00372333" lon="-8.94904667">
        <ele>-4.0</ele>
        <time>2019-05-16T13:34:14.937Z</time>
      </trkpt>
      <trkpt lat="39.00372333" lon="-8.94904667">
        <ele>-4.0</ele>
        <time>2019-05-16T13:34:15.904Z</time>
      </trkpt>
      <trkpt lat="39.003775" lon="-8.949115">
        <ele>-3.0</ele>
        <time>2019-05-16T13:34:16.912Z</time>
      </trkpt>
      <trkpt lat="39.003775" lon="-8.949115">
        <ele>-3.0</ele>
        <time>2019-05-16T13:34:17.915Z</time>
      </trkpt>
      <trkpt lat="39.00382833" lon="-8.94916833">
        <ele>-3.0</ele>
        <time>2019-05-16T13:34:18.924Z</time>
      </trkpt>
      <trkpt lat="39.00382833" lon="-8.94916833">
        <ele>-3.0</ele>
        <time>2019-05-16T13:34:19.907Z</time>
      </trkpt>
      <trkpt lat="39.003875" lon="-8.94922333">
        <ele>-3.0</ele>
        <time>2019-05-16T13:34:20.932Z</time>
      </trkpt>
      <trkpt lat="39.003875" lon="-8.94922333">
        <ele>-3.0</ele>
        <time>2019-05-16T13:34:21.907Z</time>
      </trkpt>
      <trkpt lat="39.00392167" lon="-8.949275">
        <ele>-3.0</ele>
        <time>2019-05-16T13:34:22.918Z</time>
      </trkpt>
      <trkpt lat="39.00392167" lon="-8.949275">
        <ele>-3.0</ele>
        <time>2019-05-16T13:34:23.928Z</time>
      </trkpt>
      <trkpt lat="39.00397" lon="-8.94933">
        <ele>-2.0</ele>
        <time>2019-05-16T13:34:24.936Z</time>
      </trkpt>
      <trkpt lat="39.00397" lon="-8.94933">
        <ele>-2.0</ele>
        <time>2019-05-16T13:34:25.904Z</time>
      </trkpt>
      <trkpt lat="39.00402167" lon="-8.94938333">
        <ele>-2.0</ele>
        <time>2019-05-16T13:34:26.914Z</time>
      </trkpt>
      <trkpt lat="39.00402167" lon="-8.94938333">
        <ele>-2.0</ele>
        <time>2019-05-16T13:34:27.929Z</time>
      </trkpt>
      <trkpt lat="39.00407167" lon="-8.94944167">
        <ele>-2.0</ele>
        <time>2019-05-16T13:34:28.922Z</time>
      </trkpt>
      <trkpt lat="39.00407167" lon="-8.94944167">
        <ele>-2.0</ele>
        <time>2019-05-16T13:34:29.907Z</time>
      </trkpt>
      <trkpt lat="39.004125" lon="-8.9495">
        <ele>-2.0</ele>
        <time>2019-05-16T13:34:30.917Z</time>
      </trkpt>
      <trkpt lat="39.004125" lon="-8.9495">
        <ele>-2.0</ele>
        <time>2019-05-16T13:34:31.918Z</time>
      </trkpt>
      <trkpt lat="39.00417167" lon="-8.94955833">
        <ele>-2.0</ele>
        <time>2019-05-16T13:34:32.928Z</time>
      </trkpt>
      <trkpt lat="39.00417167" lon="-8.94955833">
        <ele>-2.0</ele>
        <time>2019-05-16T13:34:33.903Z</time>
      </trkpt>
      <trkpt lat="39.00421833" lon="-8.94961167">
        <ele>-2.0</ele>
        <time>2019-05-16T13:34:34.911Z</time>
      </trkpt>
      <trkpt lat="39.00421833" lon="-8.94961167">
        <ele>-2.0</ele>
        <time>2019-05-16T13:34:35.904Z</time>
      </trkpt>
      <trkpt lat="39.00426333" lon="-8.94966833">
        <ele>-2.0</ele>
        <time>2019-05-16T13:34:36.913Z</time>
      </trkpt>
      <trkpt lat="39.00426333" lon="-8.94966833">
        <ele>-2.0</ele>
        <time>2019-05-16T13:34:37.918Z</time>
      </trkpt>
      <trkpt lat="39.00431333" lon="-8.94973">
        <ele>-2.0</ele>
        <time>2019-05-16T13:34:38.929Z</time>
      </trkpt>
      <trkpt lat="39.00431333" lon="-8.94973">
        <ele>-2.0</ele>
        <time>2019-05-16T13:34:39.918Z</time>
      </trkpt>
      <trkpt lat="39.00437" lon="-8.94978833">
        <ele>-2.0</ele>
        <time>2019-05-16T13:34:40.933Z</time>
      </trkpt>
      <trkpt lat="39.00437" lon="-8.94978833">
        <ele>-2.0</ele>
        <time>2019-05-16T13:34:41.931Z</time>
      </trkpt>
      <trkpt lat="39.00442167" lon="-8.94984833">
        <ele>-2.0</ele>
        <time>2019-05-16T13:34:42.900Z</time>
      </trkpt>
      <trkpt lat="39.00442167" lon="-8.94984833">
        <ele>-2.0</ele>
        <time>2019-05-16T13:34:43.900Z</time>
      </trkpt>
      <trkpt lat="39.00447667" lon="-8.94990667">
        <ele>-2.0</ele>
        <time>2019-05-16T13:34:44.907Z</time>
      </trkpt>
      <trkpt lat="39.00447667" lon="-8.94990667">
        <ele>-2.0</ele>
        <time>2019-05-16T13:34:45.908Z</time>
      </trkpt>
      <trkpt lat="39.00452833" lon="-8.94997167">
        <ele>-2.0</ele>
        <time>2019-05-16T13:34:46.917Z</time>
      </trkpt>
      <trkpt lat="39.00452833" lon="-8.94997167">
        <ele>-2.0</ele>
        <time>2019-05-16T13:34:47.913Z</time>
      </trkpt>
      <trkpt lat="39.00457833" lon="-8.95003667">
        <ele>-3.0</ele>
        <time>2019-05-16T13:34:48.927Z</time>
      </trkpt>
      <trkpt lat="39.00457833" lon="-8.95003667">
        <ele>-3.0</ele>
        <time>2019-05-16T13:34:49.919Z</time>
      </trkpt>
      <trkpt lat="39.00463667" lon="-8.95008667">
        <ele>-3.0</ele>
        <time>2019-05-16T13:34:50.926Z</time>
      </trkpt>
      <trkpt lat="39.00463667" lon="-8.95008667">
        <ele>-3.0</ele>
        <time>2019-05-16T13:34:51.930Z</time>
      </trkpt>
      <trkpt lat="39.00468833" lon="-8.95014833">
        <ele>-3.0</ele>
        <time>2019-05-16T13:34:52.897Z</time>
      </trkpt>
      <trkpt lat="39.00468833" lon="-8.95014833">
        <ele>-3.0</ele>
        <time>2019-05-16T13:34:53.935Z</time>
      </trkpt>
      <trkpt lat="39.00474333" lon="-8.950205">
        <ele>-2.0</ele>
        <time>2019-05-16T13:34:54.906Z</time>
      </trkpt>
      <trkpt lat="39.00474333" lon="-8.950205">
        <ele>-2.0</ele>
        <time>2019-05-16T13:34:55.908Z</time>
      </trkpt>
      <trkpt lat="39.00479333" lon="-8.95027333">
        <ele>-1.0</ele>
        <time>2019-05-16T13:34:56.920Z</time>
      </trkpt>
      <trkpt lat="39.00479333" lon="-8.95027333">
        <ele>-1.0</ele>
        <time>2019-05-16T13:34:57.933Z</time>
      </trkpt>
      <trkpt lat="39.00484" lon="-8.95033167">
        <ele>-2.0</ele>
        <time>2019-05-16T13:34:58.899Z</time>
      </trkpt>
      <trkpt lat="39.00486333" lon="-8.95036333">
        <ele>-2.0</ele>
        <time>2019-05-16T13:34:59.935Z</time>
      </trkpt>
      <trkpt lat="39.00488667" lon="-8.95038833">
        <ele>-1.0</ele>
        <time>2019-05-16T13:35:00.922Z</time>
      </trkpt>
      <trkpt lat="39.00488667" lon="-8.95038833">
        <ele>-1.0</ele>
        <time>2019-05-16T13:35:01.935Z</time>
      </trkpt>
      <trkpt lat="39.00493167" lon="-8.95045">
        <ele>-1.0</ele>
        <time>2019-05-16T13:35:02.905Z</time>
      </trkpt>
      <trkpt lat="39.00493167" lon="-8.95045">
        <ele>-1.0</ele>
        <time>2019-05-16T13:35:03.911Z</time>
      </trkpt>
      <trkpt lat="39.00498167" lon="-8.95050667">
        <ele>-2.0</ele>
        <time>2019-05-16T13:35:04.921Z</time>
      </trkpt>
      <trkpt lat="39.005005" lon="-8.950535">
        <ele>-2.0</ele>
        <time>2019-05-16T13:35:05.905Z</time>
      </trkpt>
      <trkpt lat="39.00503" lon="-8.95056833">
        <ele>-2.0</ele>
        <time>2019-05-16T13:35:06.898Z</time>
      </trkpt>
      <trkpt lat="39.00503" lon="-8.95056833">
        <ele>-2.0</ele>
        <time>2019-05-16T13:35:07.902Z</time>
      </trkpt>
      <trkpt lat="39.00507833" lon="-8.950635">
        <ele>-2.0</ele>
        <time>2019-05-16T13:35:08.913Z</time>
      </trkpt>
      <trkpt lat="39.00507833" lon="-8.950635">
        <ele>-2.0</ele>
        <time>2019-05-16T13:35:09.916Z</time>
      </trkpt>
      <trkpt lat="39.00512667" lon="-8.950695">
        <ele>-2.0</ele>
        <time>2019-05-16T13:35:10.926Z</time>
      </trkpt>
      <trkpt lat="39.00512667" lon="-8.950695">
        <ele>-2.0</ele>
        <time>2019-05-16T13:35:11.923Z</time>
      </trkpt>
      <trkpt lat="39.00517333" lon="-8.95075667">
        <ele>-2.0</ele>
        <time>2019-05-16T13:35:12.910Z</time>
      </trkpt>
      <trkpt lat="39.00517333" lon="-8.95075667">
        <ele>-2.0</ele>
        <time>2019-05-16T13:35:13.911Z</time>
      </trkpt>
      <trkpt lat="39.005225" lon="-8.95081333">
        <ele>-1.0</ele>
        <time>2019-05-16T13:35:14.935Z</time>
      </trkpt>
      <trkpt lat="39.005225" lon="-8.95081333">
        <ele>-1.0</ele>
        <time>2019-05-16T13:35:15.925Z</time>
      </trkpt>
      <trkpt lat="39.005275" lon="-8.95087">
        <ele>-1.0</ele>
        <time>2019-05-16T13:35:16.937Z</time>
      </trkpt>
      <trkpt lat="39.005275" lon="-8.95087">
        <ele>-1.0</ele>
        <time>2019-05-16T13:35:17.905Z</time>
      </trkpt>
      <trkpt lat="39.00532167" lon="-8.95093167">
        <ele>0.0</ele>
        <time>2019-05-16T13:35:18.919Z</time>
      </trkpt>
      <trkpt lat="39.00532167" lon="-8.95093167">
        <ele>0.0</ele>
        <time>2019-05-16T13:35:19.926Z</time>
      </trkpt>
      <trkpt lat="39.00536833" lon="-8.95099333">
        <ele>0.0</ele>
        <time>2019-05-16T13:35:20.914Z</time>
      </trkpt>
      <trkpt lat="39.00536833" lon="-8.95099333">
        <ele>0.0</ele>
        <time>2019-05-16T13:35:21.900Z</time>
      </trkpt>
      <trkpt lat="39.00539333" lon="-8.95101833">
        <ele>0.0</ele>
        <time>2019-05-16T13:35:22.931Z</time>
      </trkpt>
      <trkpt lat="39.00544" lon="-8.95107333">
        <ele>0.0</ele>
        <time>2019-05-16T13:35:23.901Z</time>
      </trkpt>
      <trkpt lat="39.00546167" lon="-8.95110167">
        <ele>0.0</ele>
        <time>2019-05-16T13:35:24.914Z</time>
      </trkpt>
      <trkpt lat="39.00546167" lon="-8.95110167">
        <ele>0.0</ele>
        <time>2019-05-16T13:35:25.917Z</time>
      </trkpt>
      <trkpt lat="39.00550333" lon="-8.95115667">
        <ele>-1.0</ele>
        <time>2019-05-16T13:35:26.935Z</time>
      </trkpt>
      <trkpt lat="39.00552833" lon="-8.95118167">
        <ele>-1.0</ele>
        <time>2019-05-16T13:35:27.899Z</time>
      </trkpt>
      <trkpt lat="39.00552833" lon="-8.95118167">
        <ele>-1.0</ele>
        <time>2019-05-16T13:35:28.907Z</time>
      </trkpt>
      <trkpt lat="39.005575" lon="-8.95124">
        <ele>-1.0</ele>
        <time>2019-05-16T13:35:29.936Z</time>
      </trkpt>
      <trkpt lat="39.00559667" lon="-8.95127167">
        <ele>0.0</ele>
        <time>2019-05-16T13:35:30.938Z</time>
      </trkpt>
      <trkpt lat="39.00559667" lon="-8.95127167">
        <ele>0.0</ele>
        <time>2019-05-16T13:35:31.932Z</time>
      </trkpt>
      <trkpt lat="39.00563833" lon="-8.95135">
        <ele>1.0</ele>
        <time>2019-05-16T13:35:32.902Z</time>
      </trkpt>
      <trkpt lat="39.00563833" lon="-8.95135">
        <ele>1.0</ele>
        <time>2019-05-16T13:35:33.903Z</time>
      </trkpt>
      <trkpt lat="39.005685" lon="-8.951405">
        <ele>1.0</ele>
        <time>2019-05-16T13:35:34.928Z</time>
      </trkpt>
      <trkpt lat="39.005685" lon="-8.951405">
        <ele>1.0</ele>
        <time>2019-05-16T13:35:35.911Z</time>
      </trkpt>
      <trkpt lat="39.00572333" lon="-8.95146">
        <ele>1.0</ele>
        <time>2019-05-16T13:35:36.931Z</time>
      </trkpt>
      <trkpt lat="39.00572333" lon="-8.95146">
        <ele>1.0</ele>
        <time>2019-05-16T13:35:37.897Z</time>
      </trkpt>
      <trkpt lat="39.00576833" lon="-8.95151">
        <ele>2.0</ele>
        <time>2019-05-16T13:35:38.916Z</time>
      </trkpt>
      <trkpt lat="39.00576833" lon="-8.95151">
        <ele>2.0</ele>
        <time>2019-05-16T13:35:39.930Z</time>
      </trkpt>
      <trkpt lat="39.00581167" lon="-8.951565">
        <ele>1.0</ele>
        <time>2019-05-16T13:35:40.911Z</time>
      </trkpt>
      <trkpt lat="39.00581167" lon="-8.951565">
        <ele>1.0</ele>
        <time>2019-05-16T13:35:41.921Z</time>
      </trkpt>
      <trkpt lat="39.005855" lon="-8.95162167">
        <ele>1.0</ele>
        <time>2019-05-16T13:35:42.940Z</time>
      </trkpt>
      <trkpt lat="39.005855" lon="-8.95162167">
        <ele>1.0</ele>
        <time>2019-05-16T13:35:43.901Z</time>
      </trkpt>
      <trkpt lat="39.0059" lon="-8.95168">
        <ele>2.0</ele>
        <time>2019-05-16T13:35:44.909Z</time>
      </trkpt>
      <trkpt lat="39.0059" lon="-8.95168">
        <ele>2.0</ele>
        <time>2019-05-16T13:35:45.918Z</time>
      </trkpt>
      <trkpt lat="39.00594833" lon="-8.95173667">
        <ele>2.0</ele>
        <time>2019-05-16T13:35:46.931Z</time>
      </trkpt>
      <trkpt lat="39.00594833" lon="-8.95173667">
        <ele>2.0</ele>
        <time>2019-05-16T13:35:47.921Z</time>
      </trkpt>
      <trkpt lat="39.00599667" lon="-8.95179167">
        <ele>3.0</ele>
        <time>2019-05-16T13:35:48.905Z</time>
      </trkpt>
      <trkpt lat="39.00599667" lon="-8.95179167">
        <ele>3.0</ele>
        <time>2019-05-16T13:35:49.901Z</time>
      </trkpt>
      <trkpt lat="39.006045" lon="-8.951855">
        <ele>3.0</ele>
        <time>2019-05-16T13:35:50.914Z</time>
      </trkpt>
      <trkpt lat="39.006045" lon="-8.951855">
        <ele>3.0</ele>
        <time>2019-05-16T13:35:51.904Z</time>
      </trkpt>
      <trkpt lat="39.00609333" lon="-8.95192667">
        <ele>4.0</ele>
        <time>2019-05-16T13:35:52.920Z</time>
      </trkpt>
      <trkpt lat="39.00609333" lon="-8.95192667">
        <ele>4.0</ele>
        <time>2019-05-16T13:35:53.921Z</time>
      </trkpt>
      <trkpt lat="39.00614167" lon="-8.95198833">
        <ele>4.0</ele>
        <time>2019-05-16T13:35:54.907Z</time>
      </trkpt>
      <trkpt lat="39.00614167" lon="-8.95198833">
        <ele>4.0</ele>
        <time>2019-05-16T13:35:55.921Z</time>
      </trkpt>
      <trkpt lat="39.00619167" lon="-8.95204667">
        <ele>5.0</ele>
        <time>2019-05-16T13:35:56.907Z</time>
      </trkpt>
      <trkpt lat="39.00619167" lon="-8.95204667">
        <ele>5.0</ele>
        <time>2019-05-16T13:35:57.909Z</time>
      </trkpt>
      <trkpt lat="39.00624167" lon="-8.95210667">
        <ele>5.0</ele>
        <time>2019-05-16T13:35:58.923Z</time>
      </trkpt>
      <trkpt lat="39.00624167" lon="-8.95210667">
        <ele>5.0</ele>
        <time>2019-05-16T13:35:59.901Z</time>
      </trkpt>
      <trkpt lat="39.00629833" lon="-8.95216333">
        <ele>6.0</ele>
        <time>2019-05-16T13:36:00.914Z</time>
      </trkpt>
      <trkpt lat="39.00629833" lon="-8.95216333">
        <ele>6.0</ele>
        <time>2019-05-16T13:36:01.933Z</time>
      </trkpt>
      <trkpt lat="39.00635667" lon="-8.95222833">
        <ele>5.0</ele>
        <time>2019-05-16T13:36:02.917Z</time>
      </trkpt>
      <trkpt lat="39.00635667" lon="-8.95222833">
        <ele>5.0</ele>
        <time>2019-05-16T13:36:03.920Z</time>
      </trkpt>
      <trkpt lat="39.00641" lon="-8.95229333">
        <ele>5.0</ele>
        <time>2019-05-16T13:36:04.934Z</time>
      </trkpt>
      <trkpt lat="39.00641" lon="-8.95229333">
        <ele>5.0</ele>
        <time>2019-05-16T13:36:05.928Z</time>
      </trkpt>
      <trkpt lat="39.00646333" lon="-8.952355">
        <ele>5.0</ele>
        <time>2019-05-16T13:36:06.900Z</time>
      </trkpt>
      <trkpt lat="39.00646333" lon="-8.952355">
        <ele>5.0</ele>
        <time>2019-05-16T13:36:07.911Z</time>
      </trkpt>
      <trkpt lat="39.00651" lon="-8.95241833">
        <ele>5.0</ele>
        <time>2019-05-16T13:36:08.897Z</time>
      </trkpt>
      <trkpt lat="39.00651" lon="-8.95241833">
        <ele>5.0</ele>
        <time>2019-05-16T13:36:09.907Z</time>
      </trkpt>
      <trkpt lat="39.00656167" lon="-8.952475">
        <ele>4.0</ele>
        <time>2019-05-16T13:36:10.917Z</time>
      </trkpt>
      <trkpt lat="39.00656167" lon="-8.952475">
        <ele>4.0</ele>
        <time>2019-05-16T13:36:11.922Z</time>
      </trkpt>
      <trkpt lat="39.00661167" lon="-8.95253">
        <ele>5.0</ele>
        <time>2019-05-16T13:36:12.910Z</time>
      </trkpt>
      <trkpt lat="39.00661167" lon="-8.95253">
        <ele>5.0</ele>
        <time>2019-05-16T13:36:13.911Z</time>
      </trkpt>
      <trkpt lat="39.00664333" lon="-8.95259833">
        <ele>5.0</ele>
        <time>2019-05-16T13:36:14.929Z</time>
      </trkpt>
      <trkpt lat="39.00664333" lon="-8.95259833">
        <ele>5.0</ele>
        <time>2019-05-16T13:36:15.918Z</time>
      </trkpt>
      <trkpt lat="39.00664667" lon="-8.95266333">
        <ele>5.0</ele>
        <time>2019-05-16T13:36:16.928Z</time>
      </trkpt>
      <trkpt lat="39.00664667" lon="-8.95266333">
        <ele>5.0</ele>
        <time>2019-05-16T13:36:17.930Z</time>
      </trkpt>
      <trkpt lat="39.00666167" lon="-8.952705">
        <ele>5.0</ele>
        <time>2019-05-16T13:36:18.920Z</time>
      </trkpt>
      <trkpt lat="39.00666167" lon="-8.952705">
        <ele>5.0</ele>
        <time>2019-05-16T13:36:19.917Z</time>
      </trkpt>
      <trkpt lat="39.006645" lon="-8.95272333">
        <ele>6.0</ele>
        <time>2019-05-16T13:36:20.914Z</time>
      </trkpt>
      <trkpt lat="39.00663167" lon="-8.95272667">
        <ele>6.0</ele>
        <time>2019-05-16T13:36:21.919Z</time>
      </trkpt>
      <trkpt lat="39.00663167" lon="-8.95272667">
        <ele>6.0</ele>
        <time>2019-05-16T13:36:22.909Z</time>
      </trkpt>
      <trkpt lat="39.00659333" lon="-8.95274667">
        <ele>5.0</ele>
        <time>2019-05-16T13:36:23.920Z</time>
      </trkpt>
      <trkpt lat="39.006575" lon="-8.95275667">
        <ele>5.0</ele>
        <time>2019-05-16T13:36:24.921Z</time>
      </trkpt>
      <trkpt lat="39.006575" lon="-8.95275667">
        <ele>5.0</ele>
        <time>2019-05-16T13:36:25.930Z</time>
      </trkpt>
      <trkpt lat="39.006535" lon="-8.95278167">
        <ele>4.0</ele>
        <time>2019-05-16T13:36:26.908Z</time>
      </trkpt>
      <trkpt lat="39.006535" lon="-8.95278167">
        <ele>4.0</ele>
        <time>2019-05-16T13:36:27.926Z</time>
      </trkpt>
      <trkpt lat="39.00649167" lon="-8.952815">
        <ele>4.0</ele>
        <time>2019-05-16T13:36:28.935Z</time>
      </trkpt>
      <trkpt lat="39.00649167" lon="-8.952815">
        <ele>4.0</ele>
        <time>2019-05-16T13:36:29.903Z</time>
      </trkpt>
      <trkpt lat="39.00644833" lon="-8.95285">
        <ele>5.0</ele>
        <time>2019-05-16T13:36:30.910Z</time>
      </trkpt>
      <trkpt lat="39.00644833" lon="-8.95285">
        <ele>5.0</ele>
        <time>2019-05-16T13:36:31.908Z</time>
      </trkpt>
      <trkpt lat="39.00640333" lon="-8.95288">
        <ele>5.0</ele>
        <time>2019-05-16T13:36:32.918Z</time>
      </trkpt>
      <trkpt lat="39.00640333" lon="-8.95288">
        <ele>5.0</ele>
        <time>2019-05-16T13:36:33.919Z</time>
      </trkpt>
      <trkpt lat="39.00635333" lon="-8.952915">
        <ele>5.0</ele>
        <time>2019-05-16T13:36:34.930Z</time>
      </trkpt>
      <trkpt lat="39.00635333" lon="-8.952915">
        <ele>5.0</ele>
        <time>2019-05-16T13:36:35.903Z</time>
      </trkpt>
      <trkpt lat="39.0063" lon="-8.95295333">
        <ele>5.0</ele>
        <time>2019-05-16T13:36:36.924Z</time>
      </trkpt>
      <trkpt lat="39.0063" lon="-8.95295333">
        <ele>5.0</ele>
        <time>2019-05-16T13:36:37.912Z</time>
      </trkpt>
      <trkpt lat="39.00625" lon="-8.952985">
        <ele>5.0</ele>
        <time>2019-05-16T13:36:38.923Z</time>
      </trkpt>
      <trkpt lat="39.00625" lon="-8.952985">
        <ele>5.0</ele>
        <time>2019-05-16T13:36:39.924Z</time>
      </trkpt>
      <trkpt lat="39.0062" lon="-8.95302">
        <ele>6.0</ele>
        <time>2019-05-16T13:36:40.935Z</time>
      </trkpt>
      <trkpt lat="39.0062" lon="-8.95302">
        <ele>6.0</ele>
        <time>2019-05-16T13:36:41.901Z</time>
      </trkpt>
      <trkpt lat="39.00615167" lon="-8.95305167">
        <ele>6.0</ele>
        <time>2019-05-16T13:36:42.917Z</time>
      </trkpt>
      <trkpt lat="39.00615167" lon="-8.95305167">
        <ele>6.0</ele>
        <time>2019-05-16T13:36:43.904Z</time>
      </trkpt>
      <trkpt lat="39.00610667" lon="-8.95308167">
        <ele>5.0</ele>
        <time>2019-05-16T13:36:44.913Z</time>
      </trkpt>
      <trkpt lat="39.00610667" lon="-8.95308167">
        <ele>5.0</ele>
        <time>2019-05-16T13:36:45.901Z</time>
      </trkpt>
      <trkpt lat="39.00605833" lon="-8.95311833">
        <ele>5.0</ele>
        <time>2019-05-16T13:36:46.916Z</time>
      </trkpt>
      <trkpt lat="39.00605833" lon="-8.95311833">
        <ele>5.0</ele>
        <time>2019-05-16T13:36:47.904Z</time>
      </trkpt>
      <trkpt lat="39.00601" lon="-8.95315">
        <ele>5.0</ele>
        <time>2019-05-16T13:36:48.911Z</time>
      </trkpt>
      <trkpt lat="39.00601" lon="-8.95315">
        <ele>5.0</ele>
        <time>2019-05-16T13:36:49.934Z</time>
      </trkpt>
      <trkpt lat="39.005995" lon="-8.95316667">
        <ele>5.0</ele>
        <time>2019-05-16T13:36:50.905Z</time>
      </trkpt>
      <trkpt lat="39.00599833" lon="-8.95316167">
        <ele>5.0</ele>
        <time>2019-05-16T13:36:51.911Z</time>
      </trkpt>
      <trkpt lat="39.00599833" lon="-8.95316167">
        <ele>5.0</ele>
        <time>2019-05-16T13:36:52.904Z</time>
      </trkpt>
      <trkpt lat="39.00599833" lon="-8.95315833">
        <ele>5.0</ele>
        <time>2019-05-16T13:36:53.917Z</time>
      </trkpt>
      <trkpt lat="39.00599833" lon="-8.95315833">
        <ele>5.0</ele>
        <time>2019-05-16T13:36:54.908Z</time>
      </trkpt>
      <trkpt lat="39.00599833" lon="-8.95315833">
        <ele>5.0</ele>
        <time>2019-05-16T13:36:55.914Z</time>
      </trkpt>
      <trkpt lat="39.00599833" lon="-8.95315833">
        <ele>5.0</ele>
        <time>2019-05-16T13:36:56.920Z</time>
      </trkpt>
      <trkpt lat="39.00599833" lon="-8.95315833">
        <ele>5.0</ele>
        <time>2019-05-16T13:36:57.927Z</time>
      </trkpt>
      <trkpt lat="39.00599833" lon="-8.95315833">
        <ele>5.0</ele>
        <time>2019-05-16T13:36:58.933Z</time>
      </trkpt>
      <trkpt lat="39.00599833" lon="-8.95315833">
        <ele>5.0</ele>
        <time>2019-05-16T13:36:59.910Z</time>
      </trkpt>
      <trkpt lat="39.00599833" lon="-8.95315833">
        <ele>5.0</ele>
        <time>2019-05-16T13:37:00.916Z</time>
      </trkpt>
      <trkpt lat="39.00599833" lon="-8.95315833">
        <ele>5.0</ele>
        <time>2019-05-16T13:37:01.910Z</time>
      </trkpt>
      <trkpt lat="39.00598333" lon="-8.95319">
        <ele>7.0</ele>
        <time>2019-05-16T13:37:02.914Z</time>
      </trkpt>
      <trkpt lat="39.00598333" lon="-8.95319">
        <ele>7.0</ele>
        <time>2019-05-16T13:37:03.910Z</time>
      </trkpt>
      <trkpt lat="39.005975" lon="-8.9532">
        <ele>7.0</ele>
        <time>2019-05-16T13:37:04.914Z</time>
      </trkpt>
      <trkpt lat="39.005975" lon="-8.9532">
        <ele>7.0</ele>
        <time>2019-05-16T13:37:05.910Z</time>
      </trkpt>
      <trkpt lat="39.00596667" lon="-8.953205">
        <ele>7.0</ele>
        <time>2019-05-16T13:37:06.916Z</time>
      </trkpt>
      <trkpt lat="39.00596667" lon="-8.953205">
        <ele>7.0</ele>
        <time>2019-05-16T13:37:07.909Z</time>
      </trkpt>
      <trkpt lat="39.00596" lon="-8.95321333">
        <ele>7.0</ele>
        <time>2019-05-16T13:37:08.917Z</time>
      </trkpt>
      <trkpt lat="39.00596" lon="-8.95321333">
        <ele>7.0</ele>
        <time>2019-05-16T13:37:09.910Z</time>
      </trkpt>
      <trkpt lat="39.00595167" lon="-8.95322">
        <ele>8.0</ele>
        <time>2019-05-16T13:37:10.915Z</time>
      </trkpt>
      <trkpt lat="39.00595167" lon="-8.95322">
        <ele>8.0</ele>
        <time>2019-05-16T13:37:11.910Z</time>
      </trkpt>
      <trkpt lat="39.00594333" lon="-8.95322667">
        <ele>8.0</ele>
        <time>2019-05-16T13:37:12.916Z</time>
      </trkpt>
      <trkpt lat="39.00594333" lon="-8.95322667">
        <ele>8.0</ele>
        <time>2019-05-16T13:37:13.910Z</time>
      </trkpt>
      <trkpt lat="39.005935" lon="-8.95323167">
        <ele>8.0</ele>
        <time>2019-05-16T13:37:14.910Z</time>
      </trkpt>
      <trkpt lat="39.00593" lon="-8.953235">
        <ele>8.0</ele>
        <time>2019-05-16T13:37:15.914Z</time>
      </trkpt>
      <trkpt lat="39.00593" lon="-8.953235">
        <ele>8.0</ele>
        <time>2019-05-16T13:37:16.909Z</time>
      </trkpt>
      <trkpt lat="39.00592167" lon="-8.95324167">
        <ele>8.0</ele>
        <time>2019-05-16T13:37:17.920Z</time>
      </trkpt>
      <trkpt lat="39.00591667" lon="-8.95324333">
        <ele>8.0</ele>
        <time>2019-05-16T13:37:18.925Z</time>
      </trkpt>
      <trkpt lat="39.00591667" lon="-8.95324333">
        <ele>8.0</ele>
        <time>2019-05-16T13:37:19.912Z</time>
      </trkpt>
      <trkpt lat="39.00591167" lon="-8.95324667">
        <ele>9.0</ele>
        <time>2019-05-16T13:37:20.901Z</time>
      </trkpt>
      <trkpt lat="39.00591167" lon="-8.95324833">
        <ele>9.0</ele>
        <time>2019-05-16T13:37:21.919Z</time>
      </trkpt>
      <trkpt lat="39.00591167" lon="-8.95324833">
        <ele>9.0</ele>
        <time>2019-05-16T13:37:22.926Z</time>
      </trkpt>
      <trkpt lat="39.00590667" lon="-8.953255">
        <ele>10.0</ele>
        <time>2019-05-16T13:37:23.932Z</time>
      </trkpt>
      <trkpt lat="39.00590667" lon="-8.953255">
        <ele>10.0</ele>
        <time>2019-05-16T13:37:24.906Z</time>
      </trkpt>
      <trkpt lat="39.00591" lon="-8.95325833">
        <ele>10.0</ele>
        <time>2019-05-16T13:37:25.914Z</time>
      </trkpt>
      <trkpt lat="39.00591" lon="-8.95325833">
        <ele>10.0</ele>
        <time>2019-05-16T13:37:26.909Z</time>
      </trkpt>
      <trkpt lat="39.00591" lon="-8.95325667">
        <ele>10.0</ele>
        <time>2019-05-16T13:37:27.913Z</time>
      </trkpt>
      <trkpt lat="39.00591" lon="-8.95325667">
        <ele>10.0</ele>
        <time>2019-05-16T13:37:28.925Z</time>
      </trkpt>
      <trkpt lat="39.00591" lon="-8.95325667">
        <ele>10.0</ele>
        <time>2019-05-16T13:37:29.914Z</time>
      </trkpt>
      <trkpt lat="39.00591" lon="-8.95325667">
        <ele>10.0</ele>
        <time>2019-05-16T13:37:30.915Z</time>
      </trkpt>
      <trkpt lat="39.00591" lon="-8.95325667">
        <ele>10.0</ele>
        <time>2019-05-16T13:37:31.909Z</time>
      </trkpt>
      <trkpt lat="39.00591333" lon="-8.95327">
        <ele>10.0</ele>
        <time>2019-05-16T13:37:32.913Z</time>
      </trkpt>
      <trkpt lat="39.00591333" lon="-8.95327">
        <ele>10.0</ele>
        <time>2019-05-16T13:37:33.911Z</time>
      </trkpt>
      <trkpt lat="39.005915" lon="-8.95327667">
        <ele>10.0</ele>
        <time>2019-05-16T13:37:34.917Z</time>
      </trkpt>
      <trkpt lat="39.005915" lon="-8.95327667">
        <ele>10.0</ele>
        <time>2019-05-16T13:37:35.913Z</time>
      </trkpt>
      <trkpt lat="39.005915" lon="-8.95327667">
        <ele>10.0</ele>
        <time>2019-05-16T13:37:36.916Z</time>
      </trkpt>
      <trkpt lat="39.005915" lon="-8.95327667">
        <ele>10.0</ele>
        <time>2019-05-16T13:37:37.908Z</time>
      </trkpt>
      <trkpt lat="39.005915" lon="-8.95327667">
        <ele>10.0</ele>
        <time>2019-05-16T13:37:38.914Z</time>
      </trkpt>
      <trkpt lat="39.005915" lon="-8.95327667">
        <ele>10.0</ele>
        <time>2019-05-16T13:37:39.928Z</time>
      </trkpt>
      <trkpt lat="39.005915" lon="-8.95327667">
        <ele>10.0</ele>
        <time>2019-05-16T13:37:40.916Z</time>
      </trkpt>
      <trkpt lat="39.005915" lon="-8.95327667">
        <ele>10.0</ele>
        <time>2019-05-16T13:37:41.913Z</time>
      </trkpt>
      <trkpt lat="39.005915" lon="-8.95327667">
        <ele>10.0</ele>
        <time>2019-05-16T13:37:42.916Z</time>
      </trkpt>
      <trkpt lat="39.005915" lon="-8.95327667">
        <ele>10.0</ele>
        <time>2019-05-16T13:37:43.914Z</time>
      </trkpt>
      <trkpt lat="39.005915" lon="-8.95327667">
        <ele>10.0</ele>
        <time>2019-05-16T13:37:44.908Z</time>
      </trkpt>
      <trkpt lat="39.005915" lon="-8.95327667">
        <ele>10.0</ele>
        <time>2019-05-16T13:37:45.912Z</time>
      </trkpt>
      <trkpt lat="39.005915" lon="-8.95327667">
        <ele>10.0</ele>
        <time>2019-05-16T13:37:46.908Z</time>
      </trkpt>
      <trkpt lat="39.005915" lon="-8.95327667">
        <ele>10.0</ele>
        <time>2019-05-16T13:37:47.914Z</time>
      </trkpt>
      <trkpt lat="39.005915" lon="-8.95327667">
        <ele>10.0</ele>
        <time>2019-05-16T13:37:48.924Z</time>
      </trkpt>
      <trkpt lat="39.005915" lon="-8.95327667">
        <ele>10.0</ele>
        <time>2019-05-16T13:37:49.922Z</time>
      </trkpt>
      <trkpt lat="39.005915" lon="-8.95327667">
        <ele>10.0</ele>
        <time>2019-05-16T13:37:50.912Z</time>
      </trkpt>
      <trkpt lat="39.005915" lon="-8.95327667">
        <ele>10.0</ele>
        <time>2019-05-16T13:37:51.908Z</time>
      </trkpt>
      <trkpt lat="39.005915" lon="-8.95327667">
        <ele>10.0</ele>
        <time>2019-05-16T13:37:52.914Z</time>
      </trkpt>
      <trkpt lat="39.005915" lon="-8.95327667">
        <ele>10.0</ele>
        <time>2019-05-16T13:37:53.910Z</time>
      </trkpt>
      <trkpt lat="39.005915" lon="-8.95327667">
        <ele>10.0</ele>
        <time>2019-05-16T13:37:54.915Z</time>
      </trkpt>
      <trkpt lat="39.005915" lon="-8.95327667">
        <ele>10.0</ele>
        <time>2019-05-16T13:37:55.911Z</time>
      </trkpt>
      <trkpt lat="39.005915" lon="-8.95327667">
        <ele>10.0</ele>
        <time>2019-05-16T13:37:56.915Z</time>
      </trkpt>
      <trkpt lat="39.005915" lon="-8.95327667">
        <ele>10.0</ele>
        <time>2019-05-16T13:37:57.910Z</time>
      </trkpt>
      <trkpt lat="39.005915" lon="-8.95327667">
        <ele>10.0</ele>
        <time>2019-05-16T13:37:58.914Z</time>
      </trkpt>
      <trkpt lat="39.005915" lon="-8.95327667">
        <ele>10.0</ele>
        <time>2019-05-16T13:37:59.911Z</time>
      </trkpt>
      <trkpt lat="39.005915" lon="-8.95327667">
        <ele>10.0</ele>
        <time>2019-05-16T13:38:00.916Z</time>
      </trkpt>
      <trkpt lat="39.005915" lon="-8.95327667">
        <ele>10.0</ele>
        <time>2019-05-16T13:38:01.909Z</time>
      </trkpt>
      <trkpt lat="39.005915" lon="-8.95327667">
        <ele>10.0</ele>
        <time>2019-05-16T13:38:02.914Z</time>
      </trkpt>
      <trkpt lat="39.005915" lon="-8.95327667">
        <ele>10.0</ele>
        <time>2019-05-16T13:38:03.909Z</time>
      </trkpt>
      <trkpt lat="39.005915" lon="-8.95327667">
        <ele>10.0</ele>
        <time>2019-05-16T13:38:04.912Z</time>
      </trkpt>
      <trkpt lat="39.005915" lon="-8.95327667">
        <ele>10.0</ele>
        <time>2019-05-16T13:38:05.908Z</time>
      </trkpt>
      <trkpt lat="39.005915" lon="-8.95327667">
        <ele>10.0</ele>
        <time>2019-05-16T13:38:06.915Z</time>
      </trkpt>
      <trkpt lat="39.005915" lon="-8.95327667">
        <ele>10.0</ele>
        <time>2019-05-16T13:38:07.914Z</time>
      </trkpt>
      <trkpt lat="39.005915" lon="-8.95327667">
        <ele>10.0</ele>
        <time>2019-05-16T13:38:08.923Z</time>
      </trkpt>
      <trkpt lat="39.005915" lon="-8.95327667">
        <ele>10.0</ele>
        <time>2019-05-16T13:38:09.913Z</time>
      </trkpt>
      <trkpt lat="39.005915" lon="-8.95327667">
        <ele>10.0</ele>
        <time>2019-05-16T13:38:10.908Z</time>
      </trkpt>
      <trkpt lat="39.005915" lon="-8.95327667">
        <ele>10.0</ele>
        <time>2019-05-16T13:38:11.912Z</time>
      </trkpt>
      <trkpt lat="39.005915" lon="-8.95327667">
        <ele>10.0</ele>
        <time>2019-05-16T13:38:12.915Z</time>
      </trkpt>
      <trkpt lat="39.005915" lon="-8.95327667">
        <ele>10.0</ele>
        <time>2019-05-16T13:38:13.908Z</time>
      </trkpt>
      <trkpt lat="39.005915" lon="-8.95327667">
        <ele>10.0</ele>
        <time>2019-05-16T13:38:14.912Z</time>
      </trkpt>
      <trkpt lat="39.005915" lon="-8.95327667">
        <ele>10.0</ele>
        <time>2019-05-16T13:38:15.908Z</time>
      </trkpt>
      <trkpt lat="39.005915" lon="-8.95327667">
        <ele>10.0</ele>
        <time>2019-05-16T13:38:16.913Z</time>
      </trkpt>
      <trkpt lat="39.005915" lon="-8.95327667">
        <ele>10.0</ele>
        <time>2019-05-16T13:38:17.908Z</time>
      </trkpt>
      <trkpt lat="39.005915" lon="-8.95327667">
        <ele>10.0</ele>
        <time>2019-05-16T13:38:18.915Z</time>
      </trkpt>
      <trkpt lat="39.005915" lon="-8.95327667">
        <ele>10.0</ele>
        <time>2019-05-16T13:38:19.908Z</time>
      </trkpt>
      <trkpt lat="39.005915" lon="-8.95327667">
        <ele>10.0</ele>
        <time>2019-05-16T13:38:20.923Z</time>
      </trkpt>
      <trkpt lat="39.005915" lon="-8.95327667">
        <ele>10.0</ele>
        <time>2019-05-16T13:38:21.901Z</time>
      </trkpt>
      <trkpt lat="39.005915" lon="-8.95327667">
        <ele>10.0</ele>
        <time>2019-05-16T13:38:22.907Z</time>
      </trkpt>
      <trkpt lat="39.005915" lon="-8.95327667">
        <ele>10.0</ele>
        <time>2019-05-16T13:38:23.913Z</time>
      </trkpt>
      <trkpt lat="39.005915" lon="-8.95327667">
        <ele>10.0</ele>
        <time>2019-05-16T13:38:24.921Z</time>
      </trkpt>
      <trkpt lat="39.005915" lon="-8.95327667">
        <ele>10.0</ele>
        <time>2019-05-16T13:38:25.908Z</time>
      </trkpt>
      <trkpt lat="39.005915" lon="-8.95327667">
        <ele>10.0</ele>
        <time>2019-05-16T13:38:26.913Z</time>
      </trkpt>
      <trkpt lat="39.005915" lon="-8.95327667">
        <ele>10.0</ele>
        <time>2019-05-16T13:38:27.909Z</time>
      </trkpt>
      <trkpt lat="39.005915" lon="-8.95327667">
        <ele>10.0</ele>
        <time>2019-05-16T13:38:28.915Z</time>
      </trkpt>
      <trkpt lat="39.005915" lon="-8.95327667">
        <ele>10.0</ele>
        <time>2019-05-16T13:38:29.909Z</time>
      </trkpt>
      <trkpt lat="39.005915" lon="-8.95327667">
        <ele>10.0</ele>
        <time>2019-05-16T13:38:30.916Z</time>
      </trkpt>
      <trkpt lat="39.005915" lon="-8.95327667">
        <ele>10.0</ele>
        <time>2019-05-16T13:38:31.909Z</time>
      </trkpt>
      <trkpt lat="39.005915" lon="-8.95327667">
        <ele>10.0</ele>
        <time>2019-05-16T13:38:32.913Z</time>
      </trkpt>
      <trkpt lat="39.005915" lon="-8.95327667">
        <ele>10.0</ele>
        <time>2019-05-16T13:38:33.908Z</time>
      </trkpt>
      <trkpt lat="39.005915" lon="-8.95327667">
        <ele>10.0</ele>
        <time>2019-05-16T13:38:34.914Z</time>
      </trkpt>
      <trkpt lat="39.005915" lon="-8.95327667">
        <ele>10.0</ele>
        <time>2019-05-16T13:38:35.910Z</time>
      </trkpt>
      <trkpt lat="39.005915" lon="-8.95327667">
        <ele>10.0</ele>
        <time>2019-05-16T13:38:36.929Z</time>
      </trkpt>
      <trkpt lat="39.005915" lon="-8.95327667">
        <ele>10.0</ele>
        <time>2019-05-16T13:38:37.915Z</time>
      </trkpt>
      <trkpt lat="39.00591833" lon="-8.953325">
        <ele>13.0</ele>
        <time>2019-05-16T13:38:38.923Z</time>
      </trkpt>
      <trkpt lat="39.00591833" lon="-8.953325">
        <ele>13.0</ele>
        <time>2019-05-16T13:38:39.909Z</time>
      </trkpt>
      <trkpt lat="39.00593333" lon="-8.95335">
        <ele>13.0</ele>
        <time>2019-05-16T13:38:40.914Z</time>
      </trkpt>
      <trkpt lat="39.00593333" lon="-8.95335">
        <ele>13.0</ele>
        <time>2019-05-16T13:38:41.909Z</time>
      </trkpt>
      <trkpt lat="39.00594667" lon="-8.953375">
        <ele>14.0</ele>
        <time>2019-05-16T13:38:42.978Z</time>
      </trkpt>
      <trkpt lat="39.00594667" lon="-8.953375">
        <ele>14.0</ele>
        <time>2019-05-16T13:38:43.931Z</time>
      </trkpt>
      <trkpt lat="39.005965" lon="-8.9534">
        <ele>14.0</ele>
        <time>2019-05-16T13:38:44.902Z</time>
      </trkpt>
      <trkpt lat="39.00597167" lon="-8.953415">
        <ele>14.0</ele>
        <time>2019-05-16T13:38:45.911Z</time>
      </trkpt>
      <trkpt lat="39.00597167" lon="-8.953415">
        <ele>14.0</ele>
        <time>2019-05-16T13:38:46.901Z</time>
      </trkpt>
      <trkpt lat="39.00598667" lon="-8.95344333">
        <ele>14.0</ele>
        <time>2019-05-16T13:38:47.910Z</time>
      </trkpt>
      <trkpt lat="39.00599333" lon="-8.95346167">
        <ele>14.0</ele>
        <time>2019-05-16T13:38:48.916Z</time>
      </trkpt>
      <trkpt lat="39.00599333" lon="-8.95346167">
        <ele>14.0</ele>
        <time>2019-05-16T13:38:49.901Z</time>
      </trkpt>
      <trkpt lat="39.00600833" lon="-8.95349167">
        <ele>14.0</ele>
        <time>2019-05-16T13:38:50.911Z</time>
      </trkpt>
      <trkpt lat="39.00600833" lon="-8.95349167">
        <ele>14.0</ele>
        <time>2019-05-16T13:38:51.928Z</time>
      </trkpt>
      <trkpt lat="39.00602" lon="-8.95352333">
        <ele>14.0</ele>
        <time>2019-05-16T13:38:52.938Z</time>
      </trkpt>
      <trkpt lat="39.00602" lon="-8.95352333">
        <ele>14.0</ele>
        <time>2019-05-16T13:38:53.902Z</time>
      </trkpt>
      <trkpt lat="39.00603333" lon="-8.95355667">
        <ele>14.0</ele>
        <time>2019-05-16T13:38:54.910Z</time>
      </trkpt>
      <trkpt lat="39.00603333" lon="-8.95355667">
        <ele>14.0</ele>
        <time>2019-05-16T13:38:55.927Z</time>
      </trkpt>
      <trkpt lat="39.006045" lon="-8.95358667">
        <ele>14.0</ele>
        <time>2019-05-16T13:38:56.909Z</time>
      </trkpt>
      <trkpt lat="39.006045" lon="-8.95358667">
        <ele>14.0</ele>
        <time>2019-05-16T13:38:57.901Z</time>
      </trkpt>
      <trkpt lat="39.00604833" lon="-8.9536">
        <ele>14.0</ele>
        <time>2019-05-16T13:38:58.922Z</time>
      </trkpt>
      <trkpt lat="39.00604833" lon="-8.9536">
        <ele>14.0</ele>
        <time>2019-05-16T13:38:59.931Z</time>
      </trkpt>
      <trkpt lat="39.006045" lon="-8.95360167">
        <ele>14.0</ele>
        <time>2019-05-16T13:39:00.901Z</time>
      </trkpt>
      <trkpt lat="39.006045" lon="-8.95360167">
        <ele>14.0</ele>
        <time>2019-05-16T13:39:01.901Z</time>
      </trkpt>
      <trkpt lat="39.006045" lon="-8.95360167">
        <ele>14.0</ele>
        <time>2019-05-16T13:39:02.908Z</time>
      </trkpt>
      <trkpt lat="39.006045" lon="-8.95360167">
        <ele>14.0</ele>
        <time>2019-05-16T13:39:03.915Z</time>
      </trkpt>
      <trkpt lat="39.006045" lon="-8.95360167">
        <ele>14.0</ele>
        <time>2019-05-16T13:39:04.922Z</time>
      </trkpt>
      <trkpt lat="39.006045" lon="-8.95360167">
        <ele>14.0</ele>
        <time>2019-05-16T13:39:05.908Z</time>
      </trkpt>
      <trkpt lat="39.006045" lon="-8.95360167">
        <ele>14.0</ele>
        <time>2019-05-16T13:39:06.915Z</time>
      </trkpt>
      <trkpt lat="39.006045" lon="-8.95360167">
        <ele>14.0</ele>
        <time>2019-05-16T13:39:07.915Z</time>
      </trkpt>
      <trkpt lat="39.006045" lon="-8.95360167">
        <ele>14.0</ele>
        <time>2019-05-16T13:39:08.923Z</time>
      </trkpt>
      <trkpt lat="39.006045" lon="-8.95360167">
        <ele>14.0</ele>
        <time>2019-05-16T13:39:09.913Z</time>
      </trkpt>
      <trkpt lat="39.006045" lon="-8.95360167">
        <ele>14.0</ele>
        <time>2019-05-16T13:39:10.909Z</time>
      </trkpt>
      <trkpt lat="39.006045" lon="-8.95360167">
        <ele>14.0</ele>
        <time>2019-05-16T13:39:11.913Z</time>
      </trkpt>
      <trkpt lat="39.006045" lon="-8.95360167">
        <ele>14.0</ele>
        <time>2019-05-16T13:39:12.915Z</time>
      </trkpt>
      <trkpt lat="39.006045" lon="-8.95360167">
        <ele>14.0</ele>
        <time>2019-05-16T13:39:13.912Z</time>
      </trkpt>
      <trkpt lat="39.006045" lon="-8.95360167">
        <ele>14.0</ele>
        <time>2019-05-16T13:39:14.913Z</time>
      </trkpt>
      <trkpt lat="39.006045" lon="-8.95360167">
        <ele>14.0</ele>
        <time>2019-05-16T13:39:15.907Z</time>
      </trkpt>
      <trkpt lat="39.006045" lon="-8.95360167">
        <ele>14.0</ele>
        <time>2019-05-16T13:39:16.915Z</time>
      </trkpt>
      <trkpt lat="39.006045" lon="-8.95360167">
        <ele>14.0</ele>
        <time>2019-05-16T13:39:17.909Z</time>
      </trkpt>
      <trkpt lat="39.006045" lon="-8.95360167">
        <ele>14.0</ele>
        <time>2019-05-16T13:39:18.917Z</time>
      </trkpt>
      <trkpt lat="39.006045" lon="-8.95360167">
        <ele>14.0</ele>
        <time>2019-05-16T13:39:19.909Z</time>
      </trkpt>
      <trkpt lat="39.006045" lon="-8.95360167">
        <ele>14.0</ele>
        <time>2019-05-16T13:39:20.917Z</time>
      </trkpt>
      <trkpt lat="39.006045" lon="-8.95360167">
        <ele>14.0</ele>
        <time>2019-05-16T13:39:21.921Z</time>
      </trkpt>
      <trkpt lat="39.006045" lon="-8.95360167">
        <ele>14.0</ele>
        <time>2019-05-16T13:39:22.927Z</time>
      </trkpt>
      <trkpt lat="39.006045" lon="-8.95360167">
        <ele>14.0</ele>
        <time>2019-05-16T13:39:23.934Z</time>
      </trkpt>
      <trkpt lat="39.006045" lon="-8.95360167">
        <ele>14.0</ele>
        <time>2019-05-16T13:39:24.921Z</time>
      </trkpt>
      <trkpt lat="39.006045" lon="-8.95360167">
        <ele>14.0</ele>
        <time>2019-05-16T13:39:25.910Z</time>
      </trkpt>
      <trkpt lat="39.006045" lon="-8.95360167">
        <ele>14.0</ele>
        <time>2019-05-16T13:39:26.914Z</time>
      </trkpt>
      <trkpt lat="39.006045" lon="-8.95360167">
        <ele>14.0</ele>
        <time>2019-05-16T13:39:27.909Z</time>
      </trkpt>
      <trkpt lat="39.006045" lon="-8.95360167">
        <ele>14.0</ele>
        <time>2019-05-16T13:39:28.914Z</time>
      </trkpt>
      <trkpt lat="39.006045" lon="-8.95360167">
        <ele>14.0</ele>
        <time>2019-05-16T13:39:29.901Z</time>
      </trkpt>
      <trkpt lat="39.006045" lon="-8.95360167">
        <ele>14.0</ele>
        <time>2019-05-16T13:39:30.926Z</time>
      </trkpt>
      <trkpt lat="39.006045" lon="-8.95360167">
        <ele>14.0</ele>
        <time>2019-05-16T13:39:31.912Z</time>
      </trkpt>
      <trkpt lat="39.006045" lon="-8.95360167">
        <ele>14.0</ele>
        <time>2019-05-16T13:39:32.914Z</time>
      </trkpt>
      <trkpt lat="39.006045" lon="-8.95360167">
        <ele>14.0</ele>
        <time>2019-05-16T13:39:33.910Z</time>
      </trkpt>
      <trkpt lat="39.006045" lon="-8.95360167">
        <ele>14.0</ele>
        <time>2019-05-16T13:39:34.914Z</time>
      </trkpt>
      <trkpt lat="39.006045" lon="-8.95360167">
        <ele>14.0</ele>
        <time>2019-05-16T13:39:35.914Z</time>
      </trkpt>
      <trkpt lat="39.006045" lon="-8.95360167">
        <ele>14.0</ele>
        <time>2019-05-16T13:39:36.916Z</time>
      </trkpt>
      <trkpt lat="39.006045" lon="-8.95360167">
        <ele>14.0</ele>
        <time>2019-05-16T13:39:37.914Z</time>
      </trkpt>
      <trkpt lat="39.006045" lon="-8.95360167">
        <ele>14.0</ele>
        <time>2019-05-16T13:39:38.923Z</time>
      </trkpt>
      <trkpt lat="39.006045" lon="-8.95360167">
        <ele>14.0</ele>
        <time>2019-05-16T13:39:39.913Z</time>
      </trkpt>
      <trkpt lat="39.006045" lon="-8.95360167">
        <ele>14.0</ele>
        <time>2019-05-16T13:39:40.920Z</time>
      </trkpt>
      <trkpt lat="39.006045" lon="-8.95360167">
        <ele>14.0</ele>
        <time>2019-05-16T13:39:41.914Z</time>
      </trkpt>
      <trkpt lat="39.006045" lon="-8.95360167">
        <ele>14.0</ele>
        <time>2019-05-16T13:39:42.916Z</time>
      </trkpt>
      <trkpt lat="39.006045" lon="-8.95360167">
        <ele>14.0</ele>
        <time>2019-05-16T13:39:43.911Z</time>
      </trkpt>
      <trkpt lat="39.006045" lon="-8.95360167">
        <ele>14.0</ele>
        <time>2019-05-16T13:39:44.914Z</time>
      </trkpt>
      <trkpt lat="39.006045" lon="-8.95360167">
        <ele>14.0</ele>
        <time>2019-05-16T13:39:45.909Z</time>
      </trkpt>
      <trkpt lat="39.006005" lon="-8.95362333">
        <ele>12.0</ele>
        <time>2019-05-16T13:39:46.914Z</time>
      </trkpt>
      <trkpt lat="39.006005" lon="-8.95362333">
        <ele>12.0</ele>
        <time>2019-05-16T13:39:47.905Z</time>
      </trkpt>
      <trkpt lat="39.00598667" lon="-8.95363667">
        <ele>11.0</ele>
        <time>2019-05-16T13:39:48.916Z</time>
      </trkpt>
      <trkpt lat="39.00598667" lon="-8.95363667">
        <ele>11.0</ele>
        <time>2019-05-16T13:39:49.909Z</time>
      </trkpt>
      <trkpt lat="39.00597" lon="-8.95364833">
        <ele>10.0</ele>
        <time>2019-05-16T13:39:50.998Z</time>
      </trkpt>
      <trkpt lat="39.00597" lon="-8.95364833">
        <ele>10.0</ele>
        <time>2019-05-16T13:39:51.906Z</time>
      </trkpt>
      <trkpt lat="39.005955" lon="-8.95365833">
        <ele>9.0</ele>
        <time>2019-05-16T13:39:52.918Z</time>
      </trkpt>
      <trkpt lat="39.005955" lon="-8.95365833">
        <ele>9.0</ele>
        <time>2019-05-16T13:39:53.934Z</time>
      </trkpt>
      <trkpt lat="39.00593833" lon="-8.95366667">
        <ele>8.0</ele>
        <time>2019-05-16T13:39:54.901Z</time>
      </trkpt>
      <trkpt lat="39.00593833" lon="-8.95366667">
        <ele>8.0</ele>
        <time>2019-05-16T13:39:55.930Z</time>
      </trkpt>
      <trkpt lat="39.00592167" lon="-8.95367667">
        <ele>7.0</ele>
        <time>2019-05-16T13:39:56.929Z</time>
      </trkpt>
      <trkpt lat="39.00592167" lon="-8.95367667">
        <ele>7.0</ele>
        <time>2019-05-16T13:39:57.919Z</time>
      </trkpt>
      <trkpt lat="39.005905" lon="-8.953685">
        <ele>5.0</ele>
        <time>2019-05-16T13:39:58.930Z</time>
      </trkpt>
      <trkpt lat="39.005905" lon="-8.953685">
        <ele>5.0</ele>
        <time>2019-05-16T13:39:59.931Z</time>
      </trkpt>
      <trkpt lat="39.00589167" lon="-8.95369">
        <ele>4.0</ele>
        <time>2019-05-16T13:40:00.909Z</time>
      </trkpt>
      <trkpt lat="39.00589167" lon="-8.95369">
        <ele>4.0</ele>
        <time>2019-05-16T13:40:01.923Z</time>
      </trkpt>
      <trkpt lat="39.005885" lon="-8.95368833">
        <ele>5.0</ele>
        <time>2019-05-16T13:40:02.936Z</time>
      </trkpt>
      <trkpt lat="39.005885" lon="-8.95368833">
        <ele>5.0</ele>
        <time>2019-05-16T13:40:03.921Z</time>
      </trkpt>
      <trkpt lat="39.00588" lon="-8.95368667">
        <ele>4.0</ele>
        <time>2019-05-16T13:40:04.928Z</time>
      </trkpt>
      <trkpt lat="39.00588" lon="-8.95368667">
        <ele>4.0</ele>
        <time>2019-05-16T13:40:05.935Z</time>
      </trkpt>
      <trkpt lat="39.00588" lon="-8.95368667">
        <ele>4.0</ele>
        <time>2019-05-16T13:40:06.901Z</time>
      </trkpt>
      <trkpt lat="39.00588" lon="-8.95368667">
        <ele>4.0</ele>
        <time>2019-05-16T13:40:07.908Z</time>
      </trkpt>
      <trkpt lat="39.00588" lon="-8.95368667">
        <ele>4.0</ele>
        <time>2019-05-16T13:40:08.927Z</time>
      </trkpt>
      <trkpt lat="39.00588" lon="-8.95368667">
        <ele>4.0</ele>
        <time>2019-05-16T13:40:09.914Z</time>
      </trkpt>
      <trkpt lat="39.00588" lon="-8.95368667">
        <ele>4.0</ele>
        <time>2019-05-16T13:40:10.929Z</time>
      </trkpt>
      <trkpt lat="39.00588" lon="-8.95368667">
        <ele>4.0</ele>
        <time>2019-05-16T13:40:11.915Z</time>
      </trkpt>
      <trkpt lat="39.00588" lon="-8.95368667">
        <ele>4.0</ele>
        <time>2019-05-16T13:40:12.915Z</time>
      </trkpt>
      <trkpt lat="39.00588" lon="-8.95368667">
        <ele>4.0</ele>
        <time>2019-05-16T13:40:13.908Z</time>
      </trkpt>
      <trkpt lat="39.00588" lon="-8.95368667">
        <ele>4.0</ele>
        <time>2019-05-16T13:40:14.913Z</time>
      </trkpt>
      <trkpt lat="39.00588" lon="-8.95368667">
        <ele>4.0</ele>
        <time>2019-05-16T13:40:15.909Z</time>
      </trkpt>
      <trkpt lat="39.00588" lon="-8.95368667">
        <ele>4.0</ele>
        <time>2019-05-16T13:40:16.913Z</time>
      </trkpt>
      <trkpt lat="39.00588" lon="-8.95368667">
        <ele>4.0</ele>
        <time>2019-05-16T13:40:17.909Z</time>
      </trkpt>
      <trkpt lat="39.00588" lon="-8.95368667">
        <ele>4.0</ele>
        <time>2019-05-16T13:40:18.916Z</time>
      </trkpt>
      <trkpt lat="39.00588" lon="-8.95368667">
        <ele>4.0</ele>
        <time>2019-05-16T13:40:19.909Z</time>
      </trkpt>
      <trkpt lat="39.00588" lon="-8.953695">
        <ele>4.0</ele>
        <time>2019-05-16T13:40:20.912Z</time>
      </trkpt>
      <trkpt lat="39.00587833" lon="-8.9537">
        <ele>4.0</ele>
        <time>2019-05-16T13:40:21.898Z</time>
      </trkpt>
      <trkpt lat="39.005875" lon="-8.95370667">
        <ele>4.0</ele>
        <time>2019-05-16T13:40:22.905Z</time>
      </trkpt>
      <trkpt lat="39.005875" lon="-8.95370667">
        <ele>4.0</ele>
        <time>2019-05-16T13:40:23.911Z</time>
      </trkpt>
      <trkpt lat="39.005875" lon="-8.95372167">
        <ele>4.0</ele>
        <time>2019-05-16T13:40:24.919Z</time>
      </trkpt>
      <trkpt lat="39.005875" lon="-8.95372167">
        <ele>4.0</ele>
        <time>2019-05-16T13:40:25.909Z</time>
      </trkpt>
      <trkpt lat="39.00588" lon="-8.95374333">
        <ele>4.0</ele>
        <time>2019-05-16T13:40:26.915Z</time>
      </trkpt>
      <trkpt lat="39.00588" lon="-8.95374333">
        <ele>4.0</ele>
        <time>2019-05-16T13:40:27.921Z</time>
      </trkpt>
      <trkpt lat="39.00588167" lon="-8.95375">
        <ele>4.0</ele>
        <time>2019-05-16T13:40:28.963Z</time>
      </trkpt>
      <trkpt lat="39.00588167" lon="-8.95375">
        <ele>4.0</ele>
        <time>2019-05-16T13:40:29.914Z</time>
      </trkpt>
      <trkpt lat="39.00588333" lon="-8.95375">
        <ele>4.0</ele>
        <time>2019-05-16T13:40:30.924Z</time>
      </trkpt>
      <trkpt lat="39.00588333" lon="-8.95375">
        <ele>4.0</ele>
        <time>2019-05-16T13:40:31.921Z</time>
      </trkpt>
      <trkpt lat="39.00588333" lon="-8.95375">
        <ele>4.0</ele>
        <time>2019-05-16T13:40:32.927Z</time>
      </trkpt>
      <trkpt lat="39.00588333" lon="-8.95375">
        <ele>4.0</ele>
        <time>2019-05-16T13:40:33.933Z</time>
      </trkpt>
      <trkpt lat="39.00588333" lon="-8.95375">
        <ele>4.0</ele>
        <time>2019-05-16T13:40:34.903Z</time>
      </trkpt>
      <trkpt lat="39.00588333" lon="-8.95375">
        <ele>4.0</ele>
        <time>2019-05-16T13:40:35.909Z</time>
      </trkpt>
      <trkpt lat="39.00588333" lon="-8.95375">
        <ele>4.0</ele>
        <time>2019-05-16T13:40:36.916Z</time>
      </trkpt>
      <trkpt lat="39.00588333" lon="-8.95375">
        <ele>4.0</ele>
        <time>2019-05-16T13:40:37.909Z</time>
      </trkpt>
      <trkpt lat="39.00587333" lon="-8.95375667">
        <ele>4.0</ele>
        <time>2019-05-16T13:40:38.912Z</time>
      </trkpt>
      <trkpt lat="39.00587333" lon="-8.95375667">
        <ele>4.0</ele>
        <time>2019-05-16T13:40:39.925Z</time>
      </trkpt>
      <trkpt lat="39.00584667" lon="-8.95375333">
        <ele>4.0</ele>
        <time>2019-05-16T13:40:40.914Z</time>
      </trkpt>
      <trkpt lat="39.00584667" lon="-8.95375333">
        <ele>4.0</ele>
        <time>2019-05-16T13:40:41.909Z</time>
      </trkpt>
      <trkpt lat="39.005825" lon="-8.95375833">
        <ele>4.0</ele>
        <time>2019-05-16T13:40:42.976Z</time>
      </trkpt>
      <trkpt lat="39.005825" lon="-8.95375833">
        <ele>4.0</ele>
        <time>2019-05-16T13:40:43.919Z</time>
      </trkpt>
      <trkpt lat="39.0058" lon="-8.95377333">
        <ele>4.0</ele>
        <time>2019-05-16T13:40:44.927Z</time>
      </trkpt>
      <trkpt lat="39.0058" lon="-8.95377333">
        <ele>4.0</ele>
        <time>2019-05-16T13:40:45.930Z</time>
      </trkpt>
      <trkpt lat="39.00577667" lon="-8.95379333">
        <ele>3.0</ele>
        <time>2019-05-16T13:40:46.907Z</time>
      </trkpt>
      <trkpt lat="39.005765" lon="-8.95380167">
        <ele>3.0</ele>
        <time>2019-05-16T13:40:47.917Z</time>
      </trkpt>
      <trkpt lat="39.005755" lon="-8.95380833">
        <ele>3.0</ele>
        <time>2019-05-16T13:40:48.927Z</time>
      </trkpt>
      <trkpt lat="39.005755" lon="-8.95380833">
        <ele>3.0</ele>
        <time>2019-05-16T13:40:49.932Z</time>
      </trkpt>
      <trkpt lat="39.00573167" lon="-8.95382333">
        <ele>2.0</ele>
        <time>2019-05-16T13:40:50.904Z</time>
      </trkpt>
      <trkpt lat="39.00573167" lon="-8.95382333">
        <ele>2.0</ele>
        <time>2019-05-16T13:40:51.910Z</time>
      </trkpt>
      <trkpt lat="39.005725" lon="-8.95385333">
        <ele>2.0</ele>
        <time>2019-05-16T13:40:52.926Z</time>
      </trkpt>
      <trkpt lat="39.005725" lon="-8.95385333">
        <ele>2.0</ele>
        <time>2019-05-16T13:40:53.908Z</time>
      </trkpt>
      <trkpt lat="39.00574167" lon="-8.95388">
        <ele>2.0</ele>
        <time>2019-05-16T13:40:54.920Z</time>
      </trkpt>
      <trkpt lat="39.00574167" lon="-8.95388">
        <ele>2.0</ele>
        <time>2019-05-16T13:40:55.909Z</time>
      </trkpt>
      <trkpt lat="39.00575833" lon="-8.95388333">
        <ele>2.0</ele>
        <time>2019-05-16T13:40:56.916Z</time>
      </trkpt>
      <trkpt lat="39.00575833" lon="-8.95388333">
        <ele>2.0</ele>
        <time>2019-05-16T13:40:57.911Z</time>
      </trkpt>
      <trkpt lat="39.00577333" lon="-8.95387">
        <ele>2.0</ele>
        <time>2019-05-16T13:40:58.922Z</time>
      </trkpt>
      <trkpt lat="39.00578167" lon="-8.95386333">
        <ele>2.0</ele>
        <time>2019-05-16T13:40:59.916Z</time>
      </trkpt>
      <trkpt lat="39.00579333" lon="-8.95385333">
        <ele>2.0</ele>
        <time>2019-05-16T13:41:00.916Z</time>
      </trkpt>
      <trkpt lat="39.00579333" lon="-8.95385333">
        <ele>2.0</ele>
        <time>2019-05-16T13:41:01.921Z</time>
      </trkpt>
      <trkpt lat="39.00581667" lon="-8.95383333">
        <ele>2.0</ele>
        <time>2019-05-16T13:41:02.901Z</time>
      </trkpt>
      <trkpt lat="39.00583167" lon="-8.953825">
        <ele>2.0</ele>
        <time>2019-05-16T13:41:03.908Z</time>
      </trkpt>
      <trkpt lat="39.00583167" lon="-8.953825">
        <ele>2.0</ele>
        <time>2019-05-16T13:41:04.905Z</time>
      </trkpt>
      <trkpt lat="39.005835" lon="-8.95384333">
        <ele>2.0</ele>
        <time>2019-05-16T13:41:05.917Z</time>
      </trkpt>
      <trkpt lat="39.00582167" lon="-8.95385167">
        <ele>2.0</ele>
        <time>2019-05-16T13:41:06.933Z</time>
      </trkpt>
      <trkpt lat="39.00582167" lon="-8.95385167">
        <ele>2.0</ele>
        <time>2019-05-16T13:41:07.923Z</time>
      </trkpt>
      <trkpt lat="39.00579667" lon="-8.953865">
        <ele>2.0</ele>
        <time>2019-05-16T13:41:08.930Z</time>
      </trkpt>
      <trkpt lat="39.00579667" lon="-8.953865">
        <ele>2.0</ele>
        <time>2019-05-16T13:41:09.934Z</time>
      </trkpt>
      <trkpt lat="39.005775" lon="-8.95387833">
        <ele>2.0</ele>
        <time>2019-05-16T13:41:10.903Z</time>
      </trkpt>
      <trkpt lat="39.005775" lon="-8.95387833">
        <ele>2.0</ele>
        <time>2019-05-16T13:41:11.900Z</time>
      </trkpt>
      <trkpt lat="39.00575667" lon="-8.95389167">
        <ele>2.0</ele>
        <time>2019-05-16T13:41:12.907Z</time>
      </trkpt>
      <trkpt lat="39.00575667" lon="-8.95389167">
        <ele>2.0</ele>
        <time>2019-05-16T13:41:13.913Z</time>
      </trkpt>
      <trkpt lat="39.00575667" lon="-8.9539">
        <ele>2.0</ele>
        <time>2019-05-16T13:41:14.933Z</time>
      </trkpt>
      <trkpt lat="39.00575667" lon="-8.9539">
        <ele>2.0</ele>
        <time>2019-05-16T13:41:15.915Z</time>
      </trkpt>
      <trkpt lat="39.00578" lon="-8.95392333">
        <ele>2.0</ele>
        <time>2019-05-16T13:41:16.926Z</time>
      </trkpt>
      <trkpt lat="39.00578" lon="-8.95392333">
        <ele>2.0</ele>
        <time>2019-05-16T13:41:17.922Z</time>
      </trkpt>
      <trkpt lat="39.00578833" lon="-8.953945">
        <ele>3.0</ele>
        <time>2019-05-16T13:41:18.921Z</time>
      </trkpt>
      <trkpt lat="39.00578833" lon="-8.953945">
        <ele>3.0</ele>
        <time>2019-05-16T13:41:19.922Z</time>
      </trkpt>
      <trkpt lat="39.00579333" lon="-8.95396833">
        <ele>3.0</ele>
        <time>2019-05-16T13:41:20.910Z</time>
      </trkpt>
      <trkpt lat="39.00579333" lon="-8.95396833">
        <ele>3.0</ele>
        <time>2019-05-16T13:41:21.932Z</time>
      </trkpt>
      <trkpt lat="39.005795" lon="-8.954">
        <ele>3.0</ele>
        <time>2019-05-16T13:41:22.905Z</time>
      </trkpt>
      <trkpt lat="39.00579" lon="-8.95401667">
        <ele>3.0</ele>
        <time>2019-05-16T13:41:23.918Z</time>
      </trkpt>
      <trkpt lat="39.00578333" lon="-8.95403167">
        <ele>3.0</ele>
        <time>2019-05-16T13:41:24.932Z</time>
      </trkpt>
      <trkpt lat="39.00578333" lon="-8.95403167">
        <ele>3.0</ele>
        <time>2019-05-16T13:41:25.901Z</time>
      </trkpt>
      <trkpt lat="39.00575667" lon="-8.95405667">
        <ele>3.0</ele>
        <time>2019-05-16T13:41:26.917Z</time>
      </trkpt>
      <trkpt lat="39.00574333" lon="-8.954065">
        <ele>3.0</ele>
        <time>2019-05-16T13:41:27.915Z</time>
      </trkpt>
      <trkpt lat="39.00574333" lon="-8.954065">
        <ele>3.0</ele>
        <time>2019-05-16T13:41:28.922Z</time>
      </trkpt>
      <trkpt lat="39.00571667" lon="-8.95408333">
        <ele>3.0</ele>
        <time>2019-05-16T13:41:29.898Z</time>
      </trkpt>
      <trkpt lat="39.00570333" lon="-8.95408833">
        <ele>3.0</ele>
        <time>2019-05-16T13:41:30.927Z</time>
      </trkpt>
      <trkpt lat="39.00570333" lon="-8.95408833">
        <ele>3.0</ele>
        <time>2019-05-16T13:41:31.912Z</time>
      </trkpt>
      <trkpt lat="39.00569167" lon="-8.95409667">
        <ele>3.0</ele>
        <time>2019-05-16T13:41:32.921Z</time>
      </trkpt>
      <trkpt lat="39.00569167" lon="-8.95409667">
        <ele>3.0</ele>
        <time>2019-05-16T13:41:33.928Z</time>
      </trkpt>
      <trkpt lat="39.00568167" lon="-8.9541">
        <ele>4.0</ele>
        <time>2019-05-16T13:41:34.931Z</time>
      </trkpt>
      <trkpt lat="39.00568167" lon="-8.9541">
        <ele>4.0</ele>
        <time>2019-05-16T13:41:35.932Z</time>
      </trkpt>
      <trkpt lat="39.00567333" lon="-8.954105">
        <ele>4.0</ele>
        <time>2019-05-16T13:41:36.911Z</time>
      </trkpt>
      <trkpt lat="39.00567333" lon="-8.954105">
        <ele>4.0</ele>
        <time>2019-05-16T13:41:37.915Z</time>
      </trkpt>
      <trkpt lat="39.00566667" lon="-8.95410833">
        <ele>4.0</ele>
        <time>2019-05-16T13:41:38.922Z</time>
      </trkpt>
      <trkpt lat="39.00566667" lon="-8.95410833">
        <ele>4.0</ele>
        <time>2019-05-16T13:41:39.902Z</time>
      </trkpt>
      <trkpt lat="39.00566833" lon="-8.9541">
        <ele>4.0</ele>
        <time>2019-05-16T13:41:40.909Z</time>
      </trkpt>
      <trkpt lat="39.00566833" lon="-8.9541">
        <ele>4.0</ele>
        <time>2019-05-16T13:41:41.915Z</time>
      </trkpt>
      <trkpt lat="39.00566833" lon="-8.9541">
        <ele>4.0</ele>
        <time>2019-05-16T13:41:42.921Z</time>
      </trkpt>
      <trkpt lat="39.00566833" lon="-8.9541">
        <ele>4.0</ele>
        <time>2019-05-16T13:41:43.902Z</time>
      </trkpt>
      <trkpt lat="39.00566833" lon="-8.9541">
        <ele>4.0</ele>
        <time>2019-05-16T13:41:44.926Z</time>
      </trkpt>
      <trkpt lat="39.00566833" lon="-8.9541">
        <ele>4.0</ele>
        <time>2019-05-16T13:41:45.926Z</time>
      </trkpt>
      <trkpt lat="39.00566833" lon="-8.9541">
        <ele>4.0</ele>
        <time>2019-05-16T13:41:46.911Z</time>
      </trkpt>
      <trkpt lat="39.00566833" lon="-8.9541">
        <ele>4.0</ele>
        <time>2019-05-16T13:41:47.934Z</time>
      </trkpt>
      <trkpt lat="39.00566833" lon="-8.9541">
        <ele>4.0</ele>
        <time>2019-05-16T13:41:48.929Z</time>
      </trkpt>
      <trkpt lat="39.00566833" lon="-8.9541">
        <ele>4.0</ele>
        <time>2019-05-16T13:41:49.914Z</time>
      </trkpt>
      <trkpt lat="39.00566833" lon="-8.9541">
        <ele>4.0</ele>
        <time>2019-05-16T13:41:50.914Z</time>
      </trkpt>
      <trkpt lat="39.00566833" lon="-8.9541">
        <ele>4.0</ele>
        <time>2019-05-16T13:41:51.909Z</time>
      </trkpt>
      <trkpt lat="39.00566833" lon="-8.9541">
        <ele>4.0</ele>
        <time>2019-05-16T13:41:52.911Z</time>
      </trkpt>
      <trkpt lat="39.00566833" lon="-8.9541">
        <ele>4.0</ele>
        <time>2019-05-16T13:41:53.930Z</time>
      </trkpt>
      <trkpt lat="39.00566833" lon="-8.9541">
        <ele>4.0</ele>
        <time>2019-05-16T13:41:54.923Z</time>
      </trkpt>
      <trkpt lat="39.00566833" lon="-8.9541">
        <ele>4.0</ele>
        <time>2019-05-16T13:41:55.909Z</time>
      </trkpt>
      <trkpt lat="39.00566833" lon="-8.9541">
        <ele>4.0</ele>
        <time>2019-05-16T13:41:56.915Z</time>
      </trkpt>
      <trkpt lat="39.00566833" lon="-8.9541">
        <ele>4.0</ele>
        <time>2019-05-16T13:41:57.909Z</time>
      </trkpt>
      <trkpt lat="39.00566833" lon="-8.9541">
        <ele>4.0</ele>
        <time>2019-05-16T13:41:58.914Z</time>
      </trkpt>
      <trkpt lat="39.00566833" lon="-8.9541">
        <ele>4.0</ele>
        <time>2019-05-16T13:41:59.909Z</time>
      </trkpt>
      <trkpt lat="39.00566833" lon="-8.9541">
        <ele>4.0</ele>
        <time>2019-05-16T13:42:00.917Z</time>
      </trkpt>
      <trkpt lat="39.00563" lon="-8.95398333">
        <ele>6.0</ele>
        <time>2019-05-16T13:42:01.910Z</time>
      </trkpt>
      <trkpt lat="39.00564" lon="-8.95398167">
        <ele>6.0</ele>
        <time>2019-05-16T13:42:02.917Z</time>
      </trkpt>
      <trkpt lat="39.00564" lon="-8.95398167">
        <ele>6.0</ele>
        <time>2019-05-16T13:42:03.923Z</time>
      </trkpt>
      <trkpt lat="39.00566167" lon="-8.95398333">
        <ele>6.0</ele>
        <time>2019-05-16T13:42:04.908Z</time>
      </trkpt>
      <trkpt lat="39.00566167" lon="-8.95398333">
        <ele>6.0</ele>
        <time>2019-05-16T13:42:05.926Z</time>
      </trkpt>
      <trkpt lat="39.00568667" lon="-8.95398">
        <ele>6.0</ele>
        <time>2019-05-16T13:42:06.935Z</time>
      </trkpt>
      <trkpt lat="39.00569833" lon="-8.953975">
        <ele>6.0</ele>
        <time>2019-05-16T13:42:07.911Z</time>
      </trkpt>
      <trkpt lat="39.00569833" lon="-8.953975">
        <ele>6.0</ele>
        <time>2019-05-16T13:42:08.915Z</time>
      </trkpt>
      <trkpt lat="39.005725" lon="-8.95395">
        <ele>5.0</ele>
        <time>2019-05-16T13:42:09.925Z</time>
      </trkpt>
      <trkpt lat="39.005725" lon="-8.95395">
        <ele>5.0</ele>
        <time>2019-05-16T13:42:10.906Z</time>
      </trkpt>
      <trkpt lat="39.005755" lon="-8.95392333">
        <ele>5.0</ele>
        <time>2019-05-16T13:42:11.911Z</time>
      </trkpt>
      <trkpt lat="39.005755" lon="-8.95392333">
        <ele>5.0</ele>
        <time>2019-05-16T13:42:12.931Z</time>
      </trkpt>
      <trkpt lat="39.00578167" lon="-8.95391333">
        <ele>5.0</ele>
        <time>2019-05-16T13:42:13.903Z</time>
      </trkpt>
      <trkpt lat="39.00578167" lon="-8.95391333">
        <ele>5.0</ele>
        <time>2019-05-16T13:42:14.926Z</time>
      </trkpt>
      <trkpt lat="39.005805" lon="-8.953905">
        <ele>6.0</ele>
        <time>2019-05-16T13:42:15.920Z</time>
      </trkpt>
      <trkpt lat="39.005805" lon="-8.953905">
        <ele>6.0</ele>
        <time>2019-05-16T13:42:16.898Z</time>
      </trkpt>
      <trkpt lat="39.00582833" lon="-8.953905">
        <ele>6.0</ele>
        <time>2019-05-16T13:42:17.930Z</time>
      </trkpt>
      <trkpt lat="39.00582833" lon="-8.953905">
        <ele>6.0</ele>
        <time>2019-05-16T13:42:18.897Z</time>
      </trkpt>
      <trkpt lat="39.00585167" lon="-8.95389667">
        <ele>6.0</ele>
        <time>2019-05-16T13:42:19.919Z</time>
      </trkpt>
      <trkpt lat="39.00585167" lon="-8.95389667">
        <ele>6.0</ele>
        <time>2019-05-16T13:42:20.901Z</time>
      </trkpt>
      <trkpt lat="39.00587667" lon="-8.95388833">
        <ele>6.0</ele>
        <time>2019-05-16T13:42:21.910Z</time>
      </trkpt>
      <trkpt lat="39.00587667" lon="-8.95388833">
        <ele>6.0</ele>
        <time>2019-05-16T13:42:22.897Z</time>
      </trkpt>
      <trkpt lat="39.00590333" lon="-8.95387333">
        <ele>6.0</ele>
        <time>2019-05-16T13:42:23.923Z</time>
      </trkpt>
      <trkpt lat="39.00591667" lon="-8.953865">
        <ele>6.0</ele>
        <time>2019-05-16T13:42:24.938Z</time>
      </trkpt>
      <trkpt lat="39.00591667" lon="-8.953865">
        <ele>6.0</ele>
        <time>2019-05-16T13:42:25.916Z</time>
      </trkpt>
      <trkpt lat="39.00594" lon="-8.95384333">
        <ele>6.0</ele>
        <time>2019-05-16T13:42:26.897Z</time>
      </trkpt>
      <trkpt lat="39.00594" lon="-8.95384333">
        <ele>6.0</ele>
        <time>2019-05-16T13:42:27.906Z</time>
      </trkpt>
      <trkpt lat="39.00595" lon="-8.95381833">
        <ele>6.0</ele>
        <time>2019-05-16T13:42:28.931Z</time>
      </trkpt>
      <trkpt lat="39.00595" lon="-8.95381833">
        <ele>6.0</ele>
        <time>2019-05-16T13:42:29.909Z</time>
      </trkpt>
      <trkpt lat="39.00597333" lon="-8.95383333">
        <ele>6.0</ele>
        <time>2019-05-16T13:42:30.943Z</time>
      </trkpt>
      <trkpt lat="39.00598" lon="-8.95384333">
        <ele>6.0</ele>
        <time>2019-05-16T13:42:31.931Z</time>
      </trkpt>
      <trkpt lat="39.00598" lon="-8.95384333">
        <ele>6.0</ele>
        <time>2019-05-16T13:42:32.908Z</time>
      </trkpt>
      <trkpt lat="39.00600167" lon="-8.95383667">
        <ele>6.0</ele>
        <time>2019-05-16T13:42:33.923Z</time>
      </trkpt>
      <trkpt lat="39.00600167" lon="-8.95383667">
        <ele>6.0</ele>
        <time>2019-05-16T13:42:34.908Z</time>
      </trkpt>
      <trkpt lat="39.00602333" lon="-8.95381667">
        <ele>6.0</ele>
        <time>2019-05-16T13:42:35.930Z</time>
      </trkpt>
      <trkpt lat="39.00603333" lon="-8.95380333">
        <ele>6.0</ele>
        <time>2019-05-16T13:42:36.903Z</time>
      </trkpt>
      <trkpt lat="39.00603333" lon="-8.95380333">
        <ele>6.0</ele>
        <time>2019-05-16T13:42:37.914Z</time>
      </trkpt>
      <trkpt lat="39.00605667" lon="-8.95378">
        <ele>6.0</ele>
        <time>2019-05-16T13:42:38.936Z</time>
      </trkpt>
      <trkpt lat="39.00605667" lon="-8.95378">
        <ele>6.0</ele>
        <time>2019-05-16T13:42:39.919Z</time>
      </trkpt>
      <trkpt lat="39.00606333" lon="-8.95377333">
        <ele>6.0</ele>
        <time>2019-05-16T13:42:40.911Z</time>
      </trkpt>
      <trkpt lat="39.00606333" lon="-8.95377333">
        <ele>6.0</ele>
        <time>2019-05-16T13:42:41.931Z</time>
      </trkpt>
      <trkpt lat="39.006065" lon="-8.95377167">
        <ele>5.0</ele>
        <time>2019-05-16T13:42:42.912Z</time>
      </trkpt>
      <trkpt lat="39.006065" lon="-8.95377167">
        <ele>5.0</ele>
        <time>2019-05-16T13:42:43.907Z</time>
      </trkpt>
      <trkpt lat="39.006065" lon="-8.95377167">
        <ele>5.0</ele>
        <time>2019-05-16T13:42:44.913Z</time>
      </trkpt>
      <trkpt lat="39.006065" lon="-8.95377167">
        <ele>5.0</ele>
        <time>2019-05-16T13:42:45.921Z</time>
      </trkpt>
      <trkpt lat="39.006065" lon="-8.95377167">
        <ele>5.0</ele>
        <time>2019-05-16T13:42:46.915Z</time>
      </trkpt>
      <trkpt lat="39.00607833" lon="-8.95374667">
        <ele>4.0</ele>
        <time>2019-05-16T13:42:47.920Z</time>
      </trkpt>
      <trkpt lat="39.00609167" lon="-8.95373833">
        <ele>4.0</ele>
        <time>2019-05-16T13:42:48.918Z</time>
      </trkpt>
      <trkpt lat="39.00609167" lon="-8.95373833">
        <ele>4.0</ele>
        <time>2019-05-16T13:42:49.927Z</time>
      </trkpt>
      <trkpt lat="39.00611667" lon="-8.95371667">
        <ele>4.0</ele>
        <time>2019-05-16T13:42:50.921Z</time>
      </trkpt>
      <trkpt lat="39.00611667" lon="-8.95371667">
        <ele>4.0</ele>
        <time>2019-05-16T13:42:51.914Z</time>
      </trkpt>
      <trkpt lat="39.006145" lon="-8.95368833">
        <ele>4.0</ele>
        <time>2019-05-16T13:42:52.931Z</time>
      </trkpt>
      <trkpt lat="39.006145" lon="-8.95368833">
        <ele>4.0</ele>
        <time>2019-05-16T13:42:53.921Z</time>
      </trkpt>
      <trkpt lat="39.00617333" lon="-8.953665">
        <ele>4.0</ele>
        <time>2019-05-16T13:42:54.901Z</time>
      </trkpt>
      <trkpt lat="39.00617333" lon="-8.953665">
        <ele>4.0</ele>
        <time>2019-05-16T13:42:55.932Z</time>
      </trkpt>
      <trkpt lat="39.00621833" lon="-8.95363833">
        <ele>4.0</ele>
        <time>2019-05-16T13:42:56.923Z</time>
      </trkpt>
      <trkpt lat="39.00621833" lon="-8.95363833">
        <ele>4.0</ele>
        <time>2019-05-16T13:42:57.931Z</time>
      </trkpt>
      <trkpt lat="39.00626" lon="-8.95361667">
        <ele>5.0</ele>
        <time>2019-05-16T13:42:58.911Z</time>
      </trkpt>
      <trkpt lat="39.00626" lon="-8.95361667">
        <ele>5.0</ele>
        <time>2019-05-16T13:42:59.906Z</time>
      </trkpt>
      <trkpt lat="39.006305" lon="-8.95357833">
        <ele>5.0</ele>
        <time>2019-05-16T13:43:00.928Z</time>
      </trkpt>
      <trkpt lat="39.006305" lon="-8.95357833">
        <ele>5.0</ele>
        <time>2019-05-16T13:43:01.923Z</time>
      </trkpt>
      <trkpt lat="39.006345" lon="-8.95355333">
        <ele>5.0</ele>
        <time>2019-05-16T13:43:02.911Z</time>
      </trkpt>
      <trkpt lat="39.006345" lon="-8.95355333">
        <ele>5.0</ele>
        <time>2019-05-16T13:43:03.933Z</time>
      </trkpt>
      <trkpt lat="39.00637667" lon="-8.95352833">
        <ele>6.0</ele>
        <time>2019-05-16T13:43:04.921Z</time>
      </trkpt>
      <trkpt lat="39.00637667" lon="-8.95352833">
        <ele>6.0</ele>
        <time>2019-05-16T13:43:05.899Z</time>
      </trkpt>
      <trkpt lat="39.006405" lon="-8.95350167">
        <ele>6.0</ele>
        <time>2019-05-16T13:43:06.923Z</time>
      </trkpt>
      <trkpt lat="39.006405" lon="-8.95350167">
        <ele>6.0</ele>
        <time>2019-05-16T13:43:07.913Z</time>
      </trkpt>
      <trkpt lat="39.006435" lon="-8.95348333">
        <ele>7.0</ele>
        <time>2019-05-16T13:43:08.938Z</time>
      </trkpt>
      <trkpt lat="39.006435" lon="-8.95348333">
        <ele>7.0</ele>
        <time>2019-05-16T13:43:09.931Z</time>
      </trkpt>
      <trkpt lat="39.00647333" lon="-8.953465">
        <ele>7.0</ele>
        <time>2019-05-16T13:43:10.908Z</time>
      </trkpt>
      <trkpt lat="39.00647333" lon="-8.953465">
        <ele>7.0</ele>
        <time>2019-05-16T13:43:11.915Z</time>
      </trkpt>
      <trkpt lat="39.006515" lon="-8.95344667">
        <ele>8.0</ele>
        <time>2019-05-16T13:43:12.908Z</time>
      </trkpt>
      <trkpt lat="39.006515" lon="-8.95344667">
        <ele>8.0</ele>
        <time>2019-05-16T13:43:13.925Z</time>
      </trkpt>
      <trkpt lat="39.00655667" lon="-8.953405">
        <ele>9.0</ele>
        <time>2019-05-16T13:43:14.905Z</time>
      </trkpt>
      <trkpt lat="39.00655667" lon="-8.953405">
        <ele>9.0</ele>
        <time>2019-05-16T13:43:15.923Z</time>
      </trkpt>
      <trkpt lat="39.006605" lon="-8.95337333">
        <ele>9.0</ele>
        <time>2019-05-16T13:43:16.911Z</time>
      </trkpt>
      <trkpt lat="39.006605" lon="-8.95337333">
        <ele>9.0</ele>
        <time>2019-05-16T13:43:17.933Z</time>
      </trkpt>
      <trkpt lat="39.00664667" lon="-8.95334167">
        <ele>10.0</ele>
        <time>2019-05-16T13:43:18.913Z</time>
      </trkpt>
      <trkpt lat="39.00666667" lon="-8.95332667">
        <ele>10.0</ele>
        <time>2019-05-16T13:43:19.910Z</time>
      </trkpt>
      <trkpt lat="39.00668833" lon="-8.953315">
        <ele>10.0</ele>
        <time>2019-05-16T13:43:20.906Z</time>
      </trkpt>
      <trkpt lat="39.00668833" lon="-8.953315">
        <ele>10.0</ele>
        <time>2019-05-16T13:43:21.933Z</time>
      </trkpt>
      <trkpt lat="39.00672333" lon="-8.95329">
        <ele>11.0</ele>
        <time>2019-05-16T13:43:22.897Z</time>
      </trkpt>
      <trkpt lat="39.00672333" lon="-8.95329">
        <ele>11.0</ele>
        <time>2019-05-16T13:43:23.923Z</time>
      </trkpt>
      <trkpt lat="39.00675667" lon="-8.953275">
        <ele>12.0</ele>
        <time>2019-05-16T13:43:24.909Z</time>
      </trkpt>
      <trkpt lat="39.00675667" lon="-8.953275">
        <ele>12.0</ele>
        <time>2019-05-16T13:43:25.913Z</time>
      </trkpt>
      <trkpt lat="39.006795" lon="-8.95325833">
        <ele>13.0</ele>
        <time>2019-05-16T13:43:26.930Z</time>
      </trkpt>
      <trkpt lat="39.00681667" lon="-8.95324833">
        <ele>13.0</ele>
        <time>2019-05-16T13:43:27.928Z</time>
      </trkpt>
      <trkpt lat="39.00681667" lon="-8.95324833">
        <ele>13.0</ele>
        <time>2019-05-16T13:43:28.921Z</time>
      </trkpt>
      <trkpt lat="39.00685833" lon="-8.95322833">
        <ele>13.0</ele>
        <time>2019-05-16T13:43:29.911Z</time>
      </trkpt>
      <trkpt lat="39.00685833" lon="-8.95322833">
        <ele>13.0</ele>
        <time>2019-05-16T13:43:30.934Z</time>
      </trkpt>
      <trkpt lat="39.00689333" lon="-8.953205">
        <ele>14.0</ele>
        <time>2019-05-16T13:43:31.912Z</time>
      </trkpt>
      <trkpt lat="39.00690667" lon="-8.95319">
        <ele>14.0</ele>
        <time>2019-05-16T13:43:32.933Z</time>
      </trkpt>
      <trkpt lat="39.00690667" lon="-8.95319">
        <ele>14.0</ele>
        <time>2019-05-16T13:43:33.912Z</time>
      </trkpt>
      <trkpt lat="39.006935" lon="-8.95315667">
        <ele>13.0</ele>
        <time>2019-05-16T13:43:34.933Z</time>
      </trkpt>
      <trkpt lat="39.006935" lon="-8.95315667">
        <ele>13.0</ele>
        <time>2019-05-16T13:43:35.934Z</time>
      </trkpt>
      <trkpt lat="39.00697" lon="-8.95314167">
        <ele>13.0</ele>
        <time>2019-05-16T13:43:36.906Z</time>
      </trkpt>
      <trkpt lat="39.00697" lon="-8.95314167">
        <ele>13.0</ele>
        <time>2019-05-16T13:43:37.929Z</time>
      </trkpt>
      <trkpt lat="39.007005" lon="-8.953155">
        <ele>13.0</ele>
        <time>2019-05-16T13:43:38.915Z</time>
      </trkpt>
      <trkpt lat="39.007005" lon="-8.953155">
        <ele>13.0</ele>
        <time>2019-05-16T13:43:39.923Z</time>
      </trkpt>
      <trkpt lat="39.00704" lon="-8.95318333">
        <ele>13.0</ele>
        <time>2019-05-16T13:43:40.909Z</time>
      </trkpt>
      <trkpt lat="39.00704" lon="-8.95318333">
        <ele>13.0</ele>
        <time>2019-05-16T13:43:41.933Z</time>
      </trkpt>
      <trkpt lat="39.00706833" lon="-8.95321667">
        <ele>13.0</ele>
        <time>2019-05-16T13:43:42.918Z</time>
      </trkpt>
      <trkpt lat="39.00706833" lon="-8.95321667">
        <ele>13.0</ele>
        <time>2019-05-16T13:43:43.908Z</time>
      </trkpt>
      <trkpt lat="39.00709167" lon="-8.95324667">
        <ele>13.0</ele>
        <time>2019-05-16T13:43:44.909Z</time>
      </trkpt>
      <trkpt lat="39.00709167" lon="-8.95324667">
        <ele>13.0</ele>
        <time>2019-05-16T13:43:45.897Z</time>
      </trkpt>
      <trkpt lat="39.007115" lon="-8.95328">
        <ele>13.0</ele>
        <time>2019-05-16T13:43:46.936Z</time>
      </trkpt>
      <trkpt lat="39.007115" lon="-8.95328">
        <ele>13.0</ele>
        <time>2019-05-16T13:43:47.926Z</time>
      </trkpt>
      <trkpt lat="39.00713833" lon="-8.953305">
        <ele>13.0</ele>
        <time>2019-05-16T13:43:48.902Z</time>
      </trkpt>
      <trkpt lat="39.00713833" lon="-8.953305">
        <ele>13.0</ele>
        <time>2019-05-16T13:43:49.932Z</time>
      </trkpt>
      <trkpt lat="39.00716333" lon="-8.95333333">
        <ele>13.0</ele>
        <time>2019-05-16T13:43:50.912Z</time>
      </trkpt>
      <trkpt lat="39.00716333" lon="-8.95333333">
        <ele>13.0</ele>
        <time>2019-05-16T13:43:51.902Z</time>
      </trkpt>
      <trkpt lat="39.00719" lon="-8.95337167">
        <ele>12.0</ele>
        <time>2019-05-16T13:43:52.923Z</time>
      </trkpt>
      <trkpt lat="39.00719" lon="-8.95337167">
        <ele>12.0</ele>
        <time>2019-05-16T13:43:53.934Z</time>
      </trkpt>
      <trkpt lat="39.00721167" lon="-8.953405">
        <ele>12.0</ele>
        <time>2019-05-16T13:43:54.920Z</time>
      </trkpt>
      <trkpt lat="39.00722333" lon="-8.95342833">
        <ele>11.0</ele>
        <time>2019-05-16T13:43:55.901Z</time>
      </trkpt>
      <trkpt lat="39.00723667" lon="-8.95345333">
        <ele>11.0</ele>
        <time>2019-05-16T13:43:56.931Z</time>
      </trkpt>
      <trkpt lat="39.00723667" lon="-8.95345333">
        <ele>11.0</ele>
        <time>2019-05-16T13:43:57.913Z</time>
      </trkpt>
      <trkpt lat="39.00727167" lon="-8.953515">
        <ele>10.0</ele>
        <time>2019-05-16T13:43:58.898Z</time>
      </trkpt>
      <trkpt lat="39.00727167" lon="-8.953515">
        <ele>10.0</ele>
        <time>2019-05-16T13:43:59.929Z</time>
      </trkpt>
      <trkpt lat="39.0073" lon="-8.95357333">
        <ele>10.0</ele>
        <time>2019-05-16T13:44:00.911Z</time>
      </trkpt>
      <trkpt lat="39.0073" lon="-8.95357333">
        <ele>10.0</ele>
        <time>2019-05-16T13:44:01.907Z</time>
      </trkpt>
      <trkpt lat="39.00733167" lon="-8.95362167">
        <ele>10.0</ele>
        <time>2019-05-16T13:44:02.902Z</time>
      </trkpt>
      <trkpt lat="39.00733167" lon="-8.95362167">
        <ele>10.0</ele>
        <time>2019-05-16T13:44:03.916Z</time>
      </trkpt>
      <trkpt lat="39.00736333" lon="-8.95367833">
        <ele>10.0</ele>
        <time>2019-05-16T13:44:04.901Z</time>
      </trkpt>
      <trkpt lat="39.00736333" lon="-8.95367833">
        <ele>10.0</ele>
        <time>2019-05-16T13:44:05.913Z</time>
      </trkpt>
      <trkpt lat="39.00739333" lon="-8.95372667">
        <ele>9.0</ele>
        <time>2019-05-16T13:44:06.926Z</time>
      </trkpt>
      <trkpt lat="39.00739333" lon="-8.95372667">
        <ele>9.0</ele>
        <time>2019-05-16T13:44:07.915Z</time>
      </trkpt>
      <trkpt lat="39.00744167" lon="-8.953745">
        <ele>9.0</ele>
        <time>2019-05-16T13:44:08.936Z</time>
      </trkpt>
      <trkpt lat="39.00744167" lon="-8.953745">
        <ele>9.0</ele>
        <time>2019-05-16T13:44:09.932Z</time>
      </trkpt>
      <trkpt lat="39.007485" lon="-8.95377">
        <ele>9.0</ele>
        <time>2019-05-16T13:44:10.931Z</time>
      </trkpt>
      <trkpt lat="39.007485" lon="-8.95377">
        <ele>9.0</ele>
        <time>2019-05-16T13:44:11.898Z</time>
      </trkpt>
      <trkpt lat="39.00752167" lon="-8.95381333">
        <ele>8.0</ele>
        <time>2019-05-16T13:44:12.922Z</time>
      </trkpt>
      <trkpt lat="39.00753333" lon="-8.95383167">
        <ele>8.0</ele>
        <time>2019-05-16T13:44:13.930Z</time>
      </trkpt>
      <trkpt lat="39.00755" lon="-8.95384833">
        <ele>8.0</ele>
        <time>2019-05-16T13:44:14.931Z</time>
      </trkpt>
      <trkpt lat="39.00755" lon="-8.95384833">
        <ele>8.0</ele>
        <time>2019-05-16T13:44:15.913Z</time>
      </trkpt>
      <trkpt lat="39.007575" lon="-8.953885">
        <ele>7.0</ele>
        <time>2019-05-16T13:44:16.937Z</time>
      </trkpt>
      <trkpt lat="39.00758667" lon="-8.95390667">
        <ele>7.0</ele>
        <time>2019-05-16T13:44:17.908Z</time>
      </trkpt>
      <trkpt lat="39.00758667" lon="-8.95390667">
        <ele>7.0</ele>
        <time>2019-05-16T13:44:18.909Z</time>
      </trkpt>
      <trkpt lat="39.00761" lon="-8.95395333">
        <ele>6.0</ele>
        <time>2019-05-16T13:44:19.931Z</time>
      </trkpt>
      <trkpt lat="39.00761" lon="-8.95395333">
        <ele>6.0</ele>
        <time>2019-05-16T13:44:20.921Z</time>
      </trkpt>
      <trkpt lat="39.00763667" lon="-8.95400333">
        <ele>6.0</ele>
        <time>2019-05-16T13:44:21.900Z</time>
      </trkpt>
      <trkpt lat="39.00765" lon="-8.95403">
        <ele>6.0</ele>
        <time>2019-05-16T13:44:22.911Z</time>
      </trkpt>
      <trkpt lat="39.00765" lon="-8.95403">
        <ele>6.0</ele>
        <time>2019-05-16T13:44:23.933Z</time>
      </trkpt>
      <trkpt lat="39.00768" lon="-8.95407667">
        <ele>5.0</ele>
        <time>2019-05-16T13:44:24.910Z</time>
      </trkpt>
      <trkpt lat="39.00768" lon="-8.95407667">
        <ele>5.0</ele>
        <time>2019-05-16T13:44:25.923Z</time>
      </trkpt>
      <trkpt lat="39.0077" lon="-8.954105">
        <ele>5.0</ele>
        <time>2019-05-16T13:44:26.901Z</time>
      </trkpt>
      <trkpt lat="39.0077" lon="-8.954105">
        <ele>5.0</ele>
        <time>2019-05-16T13:44:27.897Z</time>
      </trkpt>
      <trkpt lat="39.007705" lon="-8.954105">
        <ele>4.0</ele>
        <time>2019-05-16T13:44:28.925Z</time>
      </trkpt>
      <trkpt lat="39.007705" lon="-8.954105">
        <ele>4.0</ele>
        <time>2019-05-16T13:44:29.913Z</time>
      </trkpt>
      <trkpt lat="39.007705" lon="-8.954105">
        <ele>4.0</ele>
        <time>2019-05-16T13:44:30.930Z</time>
      </trkpt>
      <trkpt lat="39.007705" lon="-8.954105">
        <ele>4.0</ele>
        <time>2019-05-16T13:44:31.901Z</time>
      </trkpt>
      <trkpt lat="39.007705" lon="-8.954105">
        <ele>4.0</ele>
        <time>2019-05-16T13:44:32.911Z</time>
      </trkpt>
      <trkpt lat="39.007705" lon="-8.954105">
        <ele>4.0</ele>
        <time>2019-05-16T13:44:33.918Z</time>
      </trkpt>
      <trkpt lat="39.007705" lon="-8.954105">
        <ele>4.0</ele>
        <time>2019-05-16T13:44:34.924Z</time>
      </trkpt>
      <trkpt lat="39.007705" lon="-8.954105">
        <ele>4.0</ele>
        <time>2019-05-16T13:44:35.935Z</time>
      </trkpt>
      <trkpt lat="39.007705" lon="-8.954105">
        <ele>4.0</ele>
        <time>2019-05-16T13:44:36.922Z</time>
      </trkpt>
      <trkpt lat="39.007705" lon="-8.954105">
        <ele>4.0</ele>
        <time>2019-05-16T13:44:37.917Z</time>
      </trkpt>
      <trkpt lat="39.007705" lon="-8.954105">
        <ele>4.0</ele>
        <time>2019-05-16T13:44:38.921Z</time>
      </trkpt>
      <trkpt lat="39.007705" lon="-8.954105">
        <ele>4.0</ele>
        <time>2019-05-16T13:44:39.903Z</time>
      </trkpt>
      <trkpt lat="39.007705" lon="-8.954105">
        <ele>4.0</ele>
        <time>2019-05-16T13:44:40.927Z</time>
      </trkpt>
      <trkpt lat="39.007705" lon="-8.954105">
        <ele>4.0</ele>
        <time>2019-05-16T13:44:41.918Z</time>
      </trkpt>
      <trkpt lat="39.007705" lon="-8.954105">
        <ele>4.0</ele>
        <time>2019-05-16T13:44:42.919Z</time>
      </trkpt>
      <trkpt lat="39.007705" lon="-8.954105">
        <ele>4.0</ele>
        <time>2019-05-16T13:44:43.915Z</time>
      </trkpt>
      <trkpt lat="39.007705" lon="-8.954105">
        <ele>4.0</ele>
        <time>2019-05-16T13:44:44.922Z</time>
      </trkpt>
      <trkpt lat="39.007705" lon="-8.954105">
        <ele>4.0</ele>
        <time>2019-05-16T13:44:45.915Z</time>
      </trkpt>
      <trkpt lat="39.007705" lon="-8.954105">
        <ele>4.0</ele>
        <time>2019-05-16T13:44:46.919Z</time>
      </trkpt>
      <trkpt lat="39.007705" lon="-8.954105">
        <ele>4.0</ele>
        <time>2019-05-16T13:44:47.919Z</time>
      </trkpt>
      <trkpt lat="39.007705" lon="-8.954105">
        <ele>4.0</ele>
        <time>2019-05-16T13:44:48.920Z</time>
      </trkpt>
      <trkpt lat="39.007705" lon="-8.954105">
        <ele>4.0</ele>
        <time>2019-05-16T13:44:49.917Z</time>
      </trkpt>
      <trkpt lat="39.007705" lon="-8.954105">
        <ele>4.0</ele>
        <time>2019-05-16T13:44:50.936Z</time>
      </trkpt>
      <trkpt lat="39.007705" lon="-8.954105">
        <ele>4.0</ele>
        <time>2019-05-16T13:44:51.922Z</time>
      </trkpt>
      <trkpt lat="39.007705" lon="-8.954105">
        <ele>4.0</ele>
        <time>2019-05-16T13:44:52.917Z</time>
      </trkpt>
      <trkpt lat="39.007705" lon="-8.954105">
        <ele>4.0</ele>
        <time>2019-05-16T13:44:53.920Z</time>
      </trkpt>
      <trkpt lat="39.007705" lon="-8.954105">
        <ele>4.0</ele>
        <time>2019-05-16T13:44:54.915Z</time>
      </trkpt>
      <trkpt lat="39.007705" lon="-8.954105">
        <ele>4.0</ele>
        <time>2019-05-16T13:44:55.900Z</time>
      </trkpt>
      <trkpt lat="39.007705" lon="-8.954105">
        <ele>4.0</ele>
        <time>2019-05-16T13:44:56.928Z</time>
      </trkpt>
      <trkpt lat="39.007705" lon="-8.954105">
        <ele>4.0</ele>
        <time>2019-05-16T13:44:57.915Z</time>
      </trkpt>
      <trkpt lat="39.007705" lon="-8.954105">
        <ele>4.0</ele>
        <time>2019-05-16T13:44:58.920Z</time>
      </trkpt>
      <trkpt lat="39.007705" lon="-8.954105">
        <ele>4.0</ele>
        <time>2019-05-16T13:44:59.915Z</time>
      </trkpt>
      <trkpt lat="39.007705" lon="-8.954105">
        <ele>4.0</ele>
        <time>2019-05-16T13:45:00.900Z</time>
      </trkpt>
      <trkpt lat="39.007705" lon="-8.954105">
        <ele>4.0</ele>
        <time>2019-05-16T13:45:01.932Z</time>
      </trkpt>
      <trkpt lat="39.007705" lon="-8.954105">
        <ele>4.0</ele>
        <time>2019-05-16T13:45:02.920Z</time>
      </trkpt>
      <trkpt lat="39.007705" lon="-8.954105">
        <ele>4.0</ele>
        <time>2019-05-16T13:45:03.921Z</time>
      </trkpt>
      <trkpt lat="39.007705" lon="-8.954105">
        <ele>4.0</ele>
        <time>2019-05-16T13:45:04.918Z</time>
      </trkpt>
      <trkpt lat="39.007705" lon="-8.954105">
        <ele>4.0</ele>
        <time>2019-05-16T13:45:05.920Z</time>
      </trkpt>
      <trkpt lat="39.007705" lon="-8.954105">
        <ele>4.0</ele>
        <time>2019-05-16T13:45:06.918Z</time>
      </trkpt>
      <trkpt lat="39.007705" lon="-8.954105">
        <ele>4.0</ele>
        <time>2019-05-16T13:45:07.918Z</time>
      </trkpt>
      <trkpt lat="39.007705" lon="-8.954105">
        <ele>4.0</ele>
        <time>2019-05-16T13:45:08.926Z</time>
      </trkpt>
      <trkpt lat="39.007705" lon="-8.954105">
        <ele>4.0</ele>
        <time>2019-05-16T13:45:09.921Z</time>
      </trkpt>
      <trkpt lat="39.007705" lon="-8.954105">
        <ele>4.0</ele>
        <time>2019-05-16T13:45:10.916Z</time>
      </trkpt>
      <trkpt lat="39.007705" lon="-8.954105">
        <ele>4.0</ele>
        <time>2019-05-16T13:45:11.920Z</time>
      </trkpt>
      <trkpt lat="39.007705" lon="-8.954105">
        <ele>4.0</ele>
        <time>2019-05-16T13:45:12.919Z</time>
      </trkpt>
      <trkpt lat="39.007705" lon="-8.954105">
        <ele>4.0</ele>
        <time>2019-05-16T13:45:13.920Z</time>
      </trkpt>
      <trkpt lat="39.007705" lon="-8.954105">
        <ele>4.0</ele>
        <time>2019-05-16T13:45:14.917Z</time>
      </trkpt>
      <trkpt lat="39.007705" lon="-8.954105">
        <ele>4.0</ele>
        <time>2019-05-16T13:45:15.917Z</time>
      </trkpt>
      <trkpt lat="39.007705" lon="-8.954105">
        <ele>4.0</ele>
        <time>2019-05-16T13:45:16.920Z</time>
      </trkpt>
      <trkpt lat="39.007705" lon="-8.954105">
        <ele>4.0</ele>
        <time>2019-05-16T13:45:17.920Z</time>
      </trkpt>
      <trkpt lat="39.007705" lon="-8.954105">
        <ele>4.0</ele>
        <time>2019-05-16T13:45:18.921Z</time>
      </trkpt>
      <trkpt lat="39.007705" lon="-8.954105">
        <ele>4.0</ele>
        <time>2019-05-16T13:45:19.915Z</time>
      </trkpt>
      <trkpt lat="39.007705" lon="-8.954105">
        <ele>4.0</ele>
        <time>2019-05-16T13:45:20.922Z</time>
      </trkpt>
      <trkpt lat="39.007705" lon="-8.954105">
        <ele>4.0</ele>
        <time>2019-05-16T13:45:21.916Z</time>
      </trkpt>
      <trkpt lat="39.007705" lon="-8.954105">
        <ele>4.0</ele>
        <time>2019-05-16T13:45:22.922Z</time>
      </trkpt>
      <trkpt lat="39.007705" lon="-8.954105">
        <ele>4.0</ele>
        <time>2019-05-16T13:45:23.928Z</time>
      </trkpt>
      <trkpt lat="39.007705" lon="-8.954105">
        <ele>4.0</ele>
        <time>2019-05-16T13:45:24.914Z</time>
      </trkpt>
      <trkpt lat="39.007705" lon="-8.954105">
        <ele>4.0</ele>
        <time>2019-05-16T13:45:25.900Z</time>
      </trkpt>
      <trkpt lat="39.007705" lon="-8.954105">
        <ele>4.0</ele>
        <time>2019-05-16T13:45:26.928Z</time>
      </trkpt>
      <trkpt lat="39.007705" lon="-8.954105">
        <ele>4.0</ele>
        <time>2019-05-16T13:45:27.930Z</time>
      </trkpt>
      <trkpt lat="39.007705" lon="-8.954105">
        <ele>4.0</ele>
        <time>2019-05-16T13:45:28.921Z</time>
      </trkpt>
      <trkpt lat="39.007705" lon="-8.954105">
        <ele>4.0</ele>
        <time>2019-05-16T13:45:29.921Z</time>
      </trkpt>
      <trkpt lat="39.007705" lon="-8.954105">
        <ele>4.0</ele>
        <time>2019-05-16T13:45:30.915Z</time>
      </trkpt>
      <trkpt lat="39.007705" lon="-8.954105">
        <ele>4.0</ele>
        <time>2019-05-16T13:45:31.920Z</time>
      </trkpt>
      <trkpt lat="39.007705" lon="-8.954105">
        <ele>4.0</ele>
        <time>2019-05-16T13:45:32.920Z</time>
      </trkpt>
      <trkpt lat="39.007705" lon="-8.954105">
        <ele>4.0</ele>
        <time>2019-05-16T13:45:33.915Z</time>
      </trkpt>
      <trkpt lat="39.007705" lon="-8.954105">
        <ele>4.0</ele>
        <time>2019-05-16T13:45:34.920Z</time>
      </trkpt>
      <trkpt lat="39.007705" lon="-8.954105">
        <ele>4.0</ele>
        <time>2019-05-16T13:45:35.921Z</time>
      </trkpt>
      <trkpt lat="39.007705" lon="-8.954105">
        <ele>4.0</ele>
        <time>2019-05-16T13:45:36.915Z</time>
      </trkpt>
      <trkpt lat="39.007705" lon="-8.954105">
        <ele>4.0</ele>
        <time>2019-05-16T13:45:37.921Z</time>
      </trkpt>
      <trkpt lat="39.007705" lon="-8.954105">
        <ele>4.0</ele>
        <time>2019-05-16T13:45:38.917Z</time>
      </trkpt>
      <trkpt lat="39.007705" lon="-8.954105">
        <ele>4.0</ele>
        <time>2019-05-16T13:45:39.920Z</time>
      </trkpt>
      <trkpt lat="39.007705" lon="-8.954105">
        <ele>4.0</ele>
        <time>2019-05-16T13:45:40.915Z</time>
      </trkpt>
      <trkpt lat="39.007705" lon="-8.954105">
        <ele>4.0</ele>
        <time>2019-05-16T13:45:41.920Z</time>
      </trkpt>
      <trkpt lat="39.007705" lon="-8.954105">
        <ele>4.0</ele>
        <time>2019-05-16T13:45:42.915Z</time>
      </trkpt>
      <trkpt lat="39.007705" lon="-8.954105">
        <ele>4.0</ele>
        <time>2019-05-16T13:45:43.920Z</time>
      </trkpt>
      <trkpt lat="39.007705" lon="-8.954105">
        <ele>4.0</ele>
        <time>2019-05-16T13:45:44.923Z</time>
      </trkpt>
      <trkpt lat="39.007705" lon="-8.954105">
        <ele>4.0</ele>
        <time>2019-05-16T13:45:45.915Z</time>
      </trkpt>
      <trkpt lat="39.007705" lon="-8.954105">
        <ele>4.0</ele>
        <time>2019-05-16T13:45:46.920Z</time>
      </trkpt>
      <trkpt lat="39.007705" lon="-8.954105">
        <ele>4.0</ele>
        <time>2019-05-16T13:45:47.912Z</time>
      </trkpt>
      <trkpt lat="39.007705" lon="-8.954105">
        <ele>4.0</ele>
        <time>2019-05-16T13:45:48.919Z</time>
      </trkpt>
      <trkpt lat="39.007705" lon="-8.954105">
        <ele>4.0</ele>
        <time>2019-05-16T13:45:49.921Z</time>
      </trkpt>
      <trkpt lat="39.007705" lon="-8.954105">
        <ele>4.0</ele>
        <time>2019-05-16T13:45:50.923Z</time>
      </trkpt>
      <trkpt lat="39.007705" lon="-8.954105">
        <ele>4.0</ele>
        <time>2019-05-16T13:45:51.918Z</time>
      </trkpt>
      <trkpt lat="39.007705" lon="-8.954105">
        <ele>4.0</ele>
        <time>2019-05-16T13:45:52.915Z</time>
      </trkpt>
      <trkpt lat="39.007705" lon="-8.954105">
        <ele>4.0</ele>
        <time>2019-05-16T13:45:53.934Z</time>
      </trkpt>
      <trkpt lat="39.007705" lon="-8.954105">
        <ele>4.0</ele>
        <time>2019-05-16T13:45:54.919Z</time>
      </trkpt>
      <trkpt lat="39.007705" lon="-8.954105">
        <ele>4.0</ele>
        <time>2019-05-16T13:45:55.921Z</time>
      </trkpt>
      <trkpt lat="39.007705" lon="-8.954105">
        <ele>4.0</ele>
        <time>2019-05-16T13:45:56.922Z</time>
      </trkpt>
      <trkpt lat="39.007705" lon="-8.954105">
        <ele>4.0</ele>
        <time>2019-05-16T13:45:57.915Z</time>
      </trkpt>
      <trkpt lat="39.007705" lon="-8.954105">
        <ele>4.0</ele>
        <time>2019-05-16T13:45:58.921Z</time>
      </trkpt>
      <trkpt lat="39.007705" lon="-8.954105">
        <ele>4.0</ele>
        <time>2019-05-16T13:45:59.915Z</time>
      </trkpt>
      <trkpt lat="39.007705" lon="-8.954105">
        <ele>4.0</ele>
        <time>2019-05-16T13:46:00.921Z</time>
      </trkpt>
      <trkpt lat="39.007705" lon="-8.954105">
        <ele>4.0</ele>
        <time>2019-05-16T13:46:01.934Z</time>
      </trkpt>
      <trkpt lat="39.007705" lon="-8.954105">
        <ele>4.0</ele>
        <time>2019-05-16T13:46:02.922Z</time>
      </trkpt>
      <trkpt lat="39.007705" lon="-8.954105">
        <ele>4.0</ele>
        <time>2019-05-16T13:46:03.922Z</time>
      </trkpt>
      <trkpt lat="39.007705" lon="-8.954105">
        <ele>4.0</ele>
        <time>2019-05-16T13:46:04.921Z</time>
      </trkpt>
      <trkpt lat="39.007705" lon="-8.954105">
        <ele>4.0</ele>
        <time>2019-05-16T13:46:05.917Z</time>
      </trkpt>
      <trkpt lat="39.007705" lon="-8.954105">
        <ele>4.0</ele>
        <time>2019-05-16T13:46:06.915Z</time>
      </trkpt>
      <trkpt lat="39.007705" lon="-8.954105">
        <ele>4.0</ele>
        <time>2019-05-16T13:46:07.919Z</time>
      </trkpt>
      <trkpt lat="39.007705" lon="-8.954105">
        <ele>4.0</ele>
        <time>2019-05-16T13:46:08.922Z</time>
      </trkpt>
      <trkpt lat="39.007705" lon="-8.954105">
        <ele>4.0</ele>
        <time>2019-05-16T13:46:09.915Z</time>
      </trkpt>
      <trkpt lat="39.007705" lon="-8.954105">
        <ele>4.0</ele>
        <time>2019-05-16T13:46:10.919Z</time>
      </trkpt>
      <trkpt lat="39.007705" lon="-8.954105">
        <ele>4.0</ele>
        <time>2019-05-16T13:46:11.917Z</time>
      </trkpt>
      <trkpt lat="39.007705" lon="-8.954105">
        <ele>4.0</ele>
        <time>2019-05-16T13:46:12.915Z</time>
      </trkpt>
      <trkpt lat="39.00772667" lon="-8.95414667">
        <ele>3.0</ele>
        <time>2019-05-16T13:46:13.907Z</time>
      </trkpt>
      <trkpt lat="39.00772833" lon="-8.95415833">
        <ele>2.0</ele>
        <time>2019-05-16T13:46:14.928Z</time>
      </trkpt>
      <trkpt lat="39.00772833" lon="-8.95415833">
        <ele>2.0</ele>
        <time>2019-05-16T13:46:15.918Z</time>
      </trkpt>
      <trkpt lat="39.007735" lon="-8.95419">
        <ele>2.0</ele>
        <time>2019-05-16T13:46:16.920Z</time>
      </trkpt>
      <trkpt lat="39.007745" lon="-8.95420667">
        <ele>2.0</ele>
        <time>2019-05-16T13:46:17.920Z</time>
      </trkpt>
      <trkpt lat="39.007745" lon="-8.95420667">
        <ele>2.0</ele>
        <time>2019-05-16T13:46:18.921Z</time>
      </trkpt>
      <trkpt lat="39.00776833" lon="-8.95423667">
        <ele>2.0</ele>
        <time>2019-05-16T13:46:19.945Z</time>
      </trkpt>
      <trkpt lat="39.00778" lon="-8.95424667">
        <ele>2.0</ele>
        <time>2019-05-16T13:46:20.927Z</time>
      </trkpt>
      <trkpt lat="39.00778" lon="-8.95424667">
        <ele>2.0</ele>
        <time>2019-05-16T13:46:21.921Z</time>
      </trkpt>
      <trkpt lat="39.00780333" lon="-8.95427833">
        <ele>2.0</ele>
        <time>2019-05-16T13:46:22.907Z</time>
      </trkpt>
      <trkpt lat="39.00780333" lon="-8.95427833">
        <ele>2.0</ele>
        <time>2019-05-16T13:46:23.936Z</time>
      </trkpt>
      <trkpt lat="39.00782833" lon="-8.95433167">
        <ele>2.0</ele>
        <time>2019-05-16T13:46:24.925Z</time>
      </trkpt>
      <trkpt lat="39.00782833" lon="-8.95433167">
        <ele>2.0</ele>
        <time>2019-05-16T13:46:25.904Z</time>
      </trkpt>
      <trkpt lat="39.007855" lon="-8.95438667">
        <ele>1.0</ele>
        <time>2019-05-16T13:46:26.918Z</time>
      </trkpt>
      <trkpt lat="39.007855" lon="-8.95438667">
        <ele>1.0</ele>
        <time>2019-05-16T13:46:27.933Z</time>
      </trkpt>
      <trkpt lat="39.00788333" lon="-8.95442833">
        <ele>1.0</ele>
        <time>2019-05-16T13:46:28.919Z</time>
      </trkpt>
      <trkpt lat="39.00788333" lon="-8.95442833">
        <ele>1.0</ele>
        <time>2019-05-16T13:46:29.914Z</time>
      </trkpt>
      <trkpt lat="39.00791" lon="-8.95447167">
        <ele>1.0</ele>
        <time>2019-05-16T13:46:30.906Z</time>
      </trkpt>
      <trkpt lat="39.00791" lon="-8.95447167">
        <ele>1.0</ele>
        <time>2019-05-16T13:46:31.937Z</time>
      </trkpt>
      <trkpt lat="39.00793333" lon="-8.954515">
        <ele>1.0</ele>
        <time>2019-05-16T13:46:32.916Z</time>
      </trkpt>
      <trkpt lat="39.00793333" lon="-8.954515">
        <ele>1.0</ele>
        <time>2019-05-16T13:46:33.933Z</time>
      </trkpt>
      <trkpt lat="39.00795" lon="-8.95455667">
        <ele>0.0</ele>
        <time>2019-05-16T13:46:34.917Z</time>
      </trkpt>
      <trkpt lat="39.00795" lon="-8.95455667">
        <ele>0.0</ele>
        <time>2019-05-16T13:46:35.914Z</time>
      </trkpt>
      <trkpt lat="39.00796833" lon="-8.95459833">
        <ele>0.0</ele>
        <time>2019-05-16T13:46:36.909Z</time>
      </trkpt>
      <trkpt lat="39.00796833" lon="-8.95459833">
        <ele>0.0</ele>
        <time>2019-05-16T13:46:37.912Z</time>
      </trkpt>
      <trkpt lat="39.00799333" lon="-8.95464333">
        <ele>0.0</ele>
        <time>2019-05-16T13:46:38.931Z</time>
      </trkpt>
      <trkpt lat="39.00799333" lon="-8.95464333">
        <ele>0.0</ele>
        <time>2019-05-16T13:46:39.913Z</time>
      </trkpt>
      <trkpt lat="39.008025" lon="-8.95469333">
        <ele>0.0</ele>
        <time>2019-05-16T13:46:40.901Z</time>
      </trkpt>
      <trkpt lat="39.008025" lon="-8.95469333">
        <ele>0.0</ele>
        <time>2019-05-16T13:46:41.911Z</time>
      </trkpt>
      <trkpt lat="39.00805833" lon="-8.95474667">
        <ele>0.0</ele>
        <time>2019-05-16T13:46:42.928Z</time>
      </trkpt>
      <trkpt lat="39.00805833" lon="-8.95474667">
        <ele>0.0</ele>
        <time>2019-05-16T13:46:43.907Z</time>
      </trkpt>
      <trkpt lat="39.00809333" lon="-8.95480333">
        <ele>0.0</ele>
        <time>2019-05-16T13:46:44.924Z</time>
      </trkpt>
      <trkpt lat="39.00809333" lon="-8.95480333">
        <ele>0.0</ele>
        <time>2019-05-16T13:46:45.911Z</time>
      </trkpt>
      <trkpt lat="39.008125" lon="-8.95486333">
        <ele>0.0</ele>
        <time>2019-05-16T13:46:46.939Z</time>
      </trkpt>
      <trkpt lat="39.008125" lon="-8.95486333">
        <ele>0.0</ele>
        <time>2019-05-16T13:46:47.910Z</time>
      </trkpt>
      <trkpt lat="39.00816" lon="-8.95492333">
        <ele>-1.0</ele>
        <time>2019-05-16T13:46:48.928Z</time>
      </trkpt>
      <trkpt lat="39.00816" lon="-8.95492333">
        <ele>-1.0</ele>
        <time>2019-05-16T13:46:49.898Z</time>
      </trkpt>
      <trkpt lat="39.008195" lon="-8.95498333">
        <ele>-1.0</ele>
        <time>2019-05-16T13:46:50.924Z</time>
      </trkpt>
      <trkpt lat="39.008195" lon="-8.95498333">
        <ele>-1.0</ele>
        <time>2019-05-16T13:46:51.932Z</time>
      </trkpt>
      <trkpt lat="39.00823167" lon="-8.95504667">
        <ele>0.0</ele>
        <time>2019-05-16T13:46:52.913Z</time>
      </trkpt>
      <trkpt lat="39.00823167" lon="-8.95504667">
        <ele>0.0</ele>
        <time>2019-05-16T13:46:53.911Z</time>
      </trkpt>
      <trkpt lat="39.008265" lon="-8.95511333">
        <ele>0.0</ele>
        <time>2019-05-16T13:46:54.911Z</time>
      </trkpt>
      <trkpt lat="39.008265" lon="-8.95511333">
        <ele>0.0</ele>
        <time>2019-05-16T13:46:55.910Z</time>
      </trkpt>
      <trkpt lat="39.0083" lon="-8.95517833">
        <ele>0.0</ele>
        <time>2019-05-16T13:46:56.931Z</time>
      </trkpt>
      <trkpt lat="39.0083" lon="-8.95517833">
        <ele>0.0</ele>
        <time>2019-05-16T13:46:57.936Z</time>
      </trkpt>
      <trkpt lat="39.00833167" lon="-8.95524167">
        <ele>0.0</ele>
        <time>2019-05-16T13:46:58.926Z</time>
      </trkpt>
      <trkpt lat="39.00833167" lon="-8.95524167">
        <ele>0.0</ele>
        <time>2019-05-16T13:46:59.912Z</time>
      </trkpt>
      <trkpt lat="39.00836667" lon="-8.95530667">
        <ele>-1.0</ele>
        <time>2019-05-16T13:47:00.934Z</time>
      </trkpt>
      <trkpt lat="39.00836667" lon="-8.95530667">
        <ele>-1.0</ele>
        <time>2019-05-16T13:47:01.908Z</time>
      </trkpt>
      <trkpt lat="39.00840333" lon="-8.95537">
        <ele>-1.0</ele>
        <time>2019-05-16T13:47:02.928Z</time>
      </trkpt>
      <trkpt lat="39.00840333" lon="-8.95537">
        <ele>-1.0</ele>
        <time>2019-05-16T13:47:03.907Z</time>
      </trkpt>
      <trkpt lat="39.00844" lon="-8.95543667">
        <ele>-1.0</ele>
        <time>2019-05-16T13:47:04.938Z</time>
      </trkpt>
      <trkpt lat="39.00844" lon="-8.95543667">
        <ele>-1.0</ele>
        <time>2019-05-16T13:47:05.917Z</time>
      </trkpt>
      <trkpt lat="39.00848167" lon="-8.95550167">
        <ele>-1.0</ele>
        <time>2019-05-16T13:47:06.931Z</time>
      </trkpt>
      <trkpt lat="39.00848167" lon="-8.95550167">
        <ele>-1.0</ele>
        <time>2019-05-16T13:47:07.908Z</time>
      </trkpt>
      <trkpt lat="39.00852" lon="-8.95556833">
        <ele>-1.0</ele>
        <time>2019-05-16T13:47:08.931Z</time>
      </trkpt>
      <trkpt lat="39.00852" lon="-8.95556833">
        <ele>-1.0</ele>
        <time>2019-05-16T13:47:09.923Z</time>
      </trkpt>
      <trkpt lat="39.00855833" lon="-8.95563667">
        <ele>-2.0</ele>
        <time>2019-05-16T13:47:10.911Z</time>
      </trkpt>
      <trkpt lat="39.00855833" lon="-8.95563667">
        <ele>-2.0</ele>
        <time>2019-05-16T13:47:11.923Z</time>
      </trkpt>
      <trkpt lat="39.00859833" lon="-8.955705">
        <ele>-2.0</ele>
        <time>2019-05-16T13:47:12.907Z</time>
      </trkpt>
      <trkpt lat="39.00859833" lon="-8.955705">
        <ele>-2.0</ele>
        <time>2019-05-16T13:47:13.907Z</time>
      </trkpt>
      <trkpt lat="39.008635" lon="-8.95577167">
        <ele>-2.0</ele>
        <time>2019-05-16T13:47:14.931Z</time>
      </trkpt>
      <trkpt lat="39.008635" lon="-8.95577167">
        <ele>-2.0</ele>
        <time>2019-05-16T13:47:15.915Z</time>
      </trkpt>
      <trkpt lat="39.00867167" lon="-8.95584167">
        <ele>-2.0</ele>
        <time>2019-05-16T13:47:16.939Z</time>
      </trkpt>
      <trkpt lat="39.00867167" lon="-8.95584167">
        <ele>-2.0</ele>
        <time>2019-05-16T13:47:17.921Z</time>
      </trkpt>
      <trkpt lat="39.00871" lon="-8.95591">
        <ele>-2.0</ele>
        <time>2019-05-16T13:47:18.924Z</time>
      </trkpt>
      <trkpt lat="39.00871" lon="-8.95591">
        <ele>-2.0</ele>
        <time>2019-05-16T13:47:19.933Z</time>
      </trkpt>
      <trkpt lat="39.00874667" lon="-8.95597667">
        <ele>-2.0</ele>
        <time>2019-05-16T13:47:20.917Z</time>
      </trkpt>
      <trkpt lat="39.00874667" lon="-8.95597667">
        <ele>-2.0</ele>
        <time>2019-05-16T13:47:21.915Z</time>
      </trkpt>
      <trkpt lat="39.00878" lon="-8.95604333">
        <ele>-2.0</ele>
        <time>2019-05-16T13:47:22.900Z</time>
      </trkpt>
      <trkpt lat="39.00878" lon="-8.95604333">
        <ele>-2.0</ele>
        <time>2019-05-16T13:47:23.905Z</time>
      </trkpt>
      <trkpt lat="39.00881667" lon="-8.956105">
        <ele>-2.0</ele>
        <time>2019-05-16T13:47:24.928Z</time>
      </trkpt>
      <trkpt lat="39.00881667" lon="-8.956105">
        <ele>-2.0</ele>
        <time>2019-05-16T13:47:25.914Z</time>
      </trkpt>
      <trkpt lat="39.00885667" lon="-8.95616833">
        <ele>-3.0</ele>
        <time>2019-05-16T13:47:26.897Z</time>
      </trkpt>
      <trkpt lat="39.00887667" lon="-8.9562">
        <ele>-3.0</ele>
        <time>2019-05-16T13:47:27.908Z</time>
      </trkpt>
      <trkpt lat="39.00887667" lon="-8.9562">
        <ele>-3.0</ele>
        <time>2019-05-16T13:47:28.897Z</time>
      </trkpt>
      <trkpt lat="39.00891333" lon="-8.95626333">
        <ele>-3.0</ele>
        <time>2019-05-16T13:47:29.910Z</time>
      </trkpt>
      <trkpt lat="39.00891333" lon="-8.95626333">
        <ele>-3.0</ele>
        <time>2019-05-16T13:47:30.914Z</time>
      </trkpt>
      <trkpt lat="39.00895" lon="-8.95632833">
        <ele>-3.0</ele>
        <time>2019-05-16T13:47:31.901Z</time>
      </trkpt>
      <trkpt lat="39.00896833" lon="-8.95636">
        <ele>-3.0</ele>
        <time>2019-05-16T13:47:32.940Z</time>
      </trkpt>
      <trkpt lat="39.00896833" lon="-8.95636">
        <ele>-3.0</ele>
        <time>2019-05-16T13:47:33.911Z</time>
      </trkpt>
      <trkpt lat="39.00900167" lon="-8.95642667">
        <ele>-3.0</ele>
        <time>2019-05-16T13:47:34.901Z</time>
      </trkpt>
      <trkpt lat="39.00900167" lon="-8.95642667">
        <ele>-3.0</ele>
        <time>2019-05-16T13:47:35.909Z</time>
      </trkpt>
      <trkpt lat="39.00903833" lon="-8.956495">
        <ele>-3.0</ele>
        <time>2019-05-16T13:47:36.897Z</time>
      </trkpt>
      <trkpt lat="39.00903833" lon="-8.956495">
        <ele>-3.0</ele>
        <time>2019-05-16T13:47:37.907Z</time>
      </trkpt>
      <trkpt lat="39.009075" lon="-8.95655667">
        <ele>-3.0</ele>
        <time>2019-05-16T13:47:38.936Z</time>
      </trkpt>
      <trkpt lat="39.009075" lon="-8.95655667">
        <ele>-3.0</ele>
        <time>2019-05-16T13:47:39.917Z</time>
      </trkpt>
      <trkpt lat="39.00910833" lon="-8.95662167">
        <ele>-3.0</ele>
        <time>2019-05-16T13:47:40.934Z</time>
      </trkpt>
      <trkpt lat="39.00910833" lon="-8.95662167">
        <ele>-3.0</ele>
        <time>2019-05-16T13:47:41.917Z</time>
      </trkpt>
      <trkpt lat="39.00913833" lon="-8.95669333">
        <ele>-2.0</ele>
        <time>2019-05-16T13:47:42.937Z</time>
      </trkpt>
      <trkpt lat="39.00913833" lon="-8.95669333">
        <ele>-2.0</ele>
        <time>2019-05-16T13:47:43.929Z</time>
      </trkpt>
      <trkpt lat="39.00917" lon="-8.95676667">
        <ele>-2.0</ele>
        <time>2019-05-16T13:47:44.908Z</time>
      </trkpt>
      <trkpt lat="39.00917" lon="-8.95676667">
        <ele>-2.0</ele>
        <time>2019-05-16T13:47:45.932Z</time>
      </trkpt>
      <trkpt lat="39.00920667" lon="-8.95683167">
        <ele>-2.0</ele>
        <time>2019-05-16T13:47:46.914Z</time>
      </trkpt>
      <trkpt lat="39.00920667" lon="-8.95683167">
        <ele>-2.0</ele>
        <time>2019-05-16T13:47:47.914Z</time>
      </trkpt>
      <trkpt lat="39.00924667" lon="-8.95689333">
        <ele>-2.0</ele>
        <time>2019-05-16T13:47:48.899Z</time>
      </trkpt>
      <trkpt lat="39.00924667" lon="-8.95689333">
        <ele>-2.0</ele>
        <time>2019-05-16T13:47:49.917Z</time>
      </trkpt>
      <trkpt lat="39.009285" lon="-8.95695333">
        <ele>-2.0</ele>
        <time>2019-05-16T13:47:50.932Z</time>
      </trkpt>
      <trkpt lat="39.009285" lon="-8.95695333">
        <ele>-2.0</ele>
        <time>2019-05-16T13:47:51.899Z</time>
      </trkpt>
      <trkpt lat="39.00932333" lon="-8.95701333">
        <ele>-1.0</ele>
        <time>2019-05-16T13:47:52.922Z</time>
      </trkpt>
      <trkpt lat="39.00932333" lon="-8.95701333">
        <ele>-1.0</ele>
        <time>2019-05-16T13:47:53.936Z</time>
      </trkpt>
      <trkpt lat="39.00936167" lon="-8.95707167">
        <ele>-1.0</ele>
        <time>2019-05-16T13:47:54.922Z</time>
      </trkpt>
      <trkpt lat="39.00936167" lon="-8.95707167">
        <ele>-1.0</ele>
        <time>2019-05-16T13:47:55.930Z</time>
      </trkpt>
      <trkpt lat="39.00940333" lon="-8.95712667">
        <ele>-1.0</ele>
        <time>2019-05-16T13:47:56.917Z</time>
      </trkpt>
      <trkpt lat="39.00940333" lon="-8.95712667">
        <ele>-1.0</ele>
        <time>2019-05-16T13:47:57.903Z</time>
      </trkpt>
      <trkpt lat="39.009445" lon="-8.957185">
        <ele>-2.0</ele>
        <time>2019-05-16T13:47:58.923Z</time>
      </trkpt>
      <trkpt lat="39.009445" lon="-8.957185">
        <ele>-2.0</ele>
        <time>2019-05-16T13:47:59.924Z</time>
      </trkpt>
      <trkpt lat="39.00949" lon="-8.95724">
        <ele>-2.0</ele>
        <time>2019-05-16T13:48:00.902Z</time>
      </trkpt>
      <trkpt lat="39.00951" lon="-8.95726833">
        <ele>-2.0</ele>
        <time>2019-05-16T13:48:01.931Z</time>
      </trkpt>
      <trkpt lat="39.00951" lon="-8.95726833">
        <ele>-2.0</ele>
        <time>2019-05-16T13:48:02.912Z</time>
      </trkpt>
      <trkpt lat="39.00955" lon="-8.95732667">
        <ele>-2.0</ele>
        <time>2019-05-16T13:48:03.937Z</time>
      </trkpt>
      <trkpt lat="39.00955" lon="-8.95732667">
        <ele>-2.0</ele>
        <time>2019-05-16T13:48:04.898Z</time>
      </trkpt>
      <trkpt lat="39.00959167" lon="-8.95738667">
        <ele>-2.0</ele>
        <time>2019-05-16T13:48:05.923Z</time>
      </trkpt>
      <trkpt lat="39.00959167" lon="-8.95738667">
        <ele>-2.0</ele>
        <time>2019-05-16T13:48:06.909Z</time>
      </trkpt>
      <trkpt lat="39.00963333" lon="-8.95744333">
        <ele>-2.0</ele>
        <time>2019-05-16T13:48:07.930Z</time>
      </trkpt>
      <trkpt lat="39.009655" lon="-8.95747">
        <ele>-2.0</ele>
        <time>2019-05-16T13:48:08.901Z</time>
      </trkpt>
      <trkpt lat="39.009655" lon="-8.95747">
        <ele>-2.0</ele>
        <time>2019-05-16T13:48:09.932Z</time>
      </trkpt>
      <trkpt lat="39.00969833" lon="-8.95753">
        <ele>-2.0</ele>
        <time>2019-05-16T13:48:10.927Z</time>
      </trkpt>
      <trkpt lat="39.00969833" lon="-8.95753">
        <ele>-2.0</ele>
        <time>2019-05-16T13:48:11.903Z</time>
      </trkpt>
      <trkpt lat="39.00973833" lon="-8.95759">
        <ele>-2.0</ele>
        <time>2019-05-16T13:48:12.916Z</time>
      </trkpt>
      <trkpt lat="39.00973833" lon="-8.95759">
        <ele>-2.0</ele>
        <time>2019-05-16T13:48:13.935Z</time>
      </trkpt>
      <trkpt lat="39.00977833" lon="-8.957655">
        <ele>-2.0</ele>
        <time>2019-05-16T13:48:14.916Z</time>
      </trkpt>
      <trkpt lat="39.00977833" lon="-8.957655">
        <ele>-2.0</ele>
        <time>2019-05-16T13:48:15.928Z</time>
      </trkpt>
      <trkpt lat="39.00982333" lon="-8.95771167">
        <ele>-4.0</ele>
        <time>2019-05-16T13:48:16.909Z</time>
      </trkpt>
      <trkpt lat="39.00982333" lon="-8.95771167">
        <ele>-4.0</ele>
        <time>2019-05-16T13:48:17.903Z</time>
      </trkpt>
      <trkpt lat="39.00986667" lon="-8.95776667">
        <ele>-6.0</ele>
        <time>2019-05-16T13:48:18.928Z</time>
      </trkpt>
      <trkpt lat="39.00986667" lon="-8.95776667">
        <ele>-6.0</ele>
        <time>2019-05-16T13:48:19.899Z</time>
      </trkpt>
      <trkpt lat="39.009905" lon="-8.957825">
        <ele>-6.0</ele>
        <time>2019-05-16T13:48:20.898Z</time>
      </trkpt>
      <trkpt lat="39.009905" lon="-8.957825">
        <ele>-6.0</ele>
        <time>2019-05-16T13:48:21.928Z</time>
      </trkpt>
      <trkpt lat="39.00994333" lon="-8.95788667">
        <ele>-5.0</ele>
        <time>2019-05-16T13:48:22.907Z</time>
      </trkpt>
      <trkpt lat="39.00994333" lon="-8.95788667">
        <ele>-5.0</ele>
        <time>2019-05-16T13:48:23.923Z</time>
      </trkpt>
      <trkpt lat="39.00998167" lon="-8.95794833">
        <ele>-5.0</ele>
        <time>2019-05-16T13:48:24.906Z</time>
      </trkpt>
      <trkpt lat="39.00998167" lon="-8.95794833">
        <ele>-5.0</ele>
        <time>2019-05-16T13:48:25.923Z</time>
      </trkpt>
      <trkpt lat="39.01001833" lon="-8.95801">
        <ele>-5.0</ele>
        <time>2019-05-16T13:48:26.911Z</time>
      </trkpt>
      <trkpt lat="39.01001833" lon="-8.95801">
        <ele>-5.0</ele>
        <time>2019-05-16T13:48:27.918Z</time>
      </trkpt>
      <trkpt lat="39.01005833" lon="-8.95806167">
        <ele>-5.0</ele>
        <time>2019-05-16T13:48:28.906Z</time>
      </trkpt>
      <trkpt lat="39.01008" lon="-8.958085">
        <ele>-5.0</ele>
        <time>2019-05-16T13:48:29.918Z</time>
      </trkpt>
      <trkpt lat="39.01008" lon="-8.958085">
        <ele>-5.0</ele>
        <time>2019-05-16T13:48:30.899Z</time>
      </trkpt>
      <trkpt lat="39.01012167" lon="-8.95814333">
        <ele>-5.0</ele>
        <time>2019-05-16T13:48:31.922Z</time>
      </trkpt>
      <trkpt lat="39.01014" lon="-8.95817167">
        <ele>-5.0</ele>
        <time>2019-05-16T13:48:32.930Z</time>
      </trkpt>
      <trkpt lat="39.01014" lon="-8.95817167">
        <ele>-5.0</ele>
        <time>2019-05-16T13:48:33.907Z</time>
      </trkpt>
      <trkpt lat="39.01017833" lon="-8.95823">
        <ele>-5.0</ele>
        <time>2019-05-16T13:48:34.924Z</time>
      </trkpt>
      <trkpt lat="39.01017833" lon="-8.95823">
        <ele>-5.0</ele>
        <time>2019-05-16T13:48:35.907Z</time>
      </trkpt>
      <trkpt lat="39.01021333" lon="-8.958285">
        <ele>-5.0</ele>
        <time>2019-05-16T13:48:36.901Z</time>
      </trkpt>
      <trkpt lat="39.01021333" lon="-8.958285">
        <ele>-5.0</ele>
        <time>2019-05-16T13:48:37.899Z</time>
      </trkpt>
      <trkpt lat="39.010245" lon="-8.95834167">
        <ele>-5.0</ele>
        <time>2019-05-16T13:48:38.923Z</time>
      </trkpt>
      <trkpt lat="39.010245" lon="-8.95834167">
        <ele>-5.0</ele>
        <time>2019-05-16T13:48:39.898Z</time>
      </trkpt>
      <trkpt lat="39.01027833" lon="-8.95840333">
        <ele>-5.0</ele>
        <time>2019-05-16T13:48:40.930Z</time>
      </trkpt>
      <trkpt lat="39.01027833" lon="-8.95840333">
        <ele>-5.0</ele>
        <time>2019-05-16T13:48:41.907Z</time>
      </trkpt>
      <trkpt lat="39.01031333" lon="-8.95846333">
        <ele>-5.0</ele>
        <time>2019-05-16T13:48:42.903Z</time>
      </trkpt>
      <trkpt lat="39.01031333" lon="-8.95846333">
        <ele>-5.0</ele>
        <time>2019-05-16T13:48:43.933Z</time>
      </trkpt>
      <trkpt lat="39.01034667" lon="-8.958525">
        <ele>-5.0</ele>
        <time>2019-05-16T13:48:44.921Z</time>
      </trkpt>
      <trkpt lat="39.01034667" lon="-8.958525">
        <ele>-5.0</ele>
        <time>2019-05-16T13:48:45.908Z</time>
      </trkpt>
      <trkpt lat="39.01037667" lon="-8.95859">
        <ele>-5.0</ele>
        <time>2019-05-16T13:48:46.927Z</time>
      </trkpt>
      <trkpt lat="39.01037667" lon="-8.95859">
        <ele>-5.0</ele>
        <time>2019-05-16T13:48:47.933Z</time>
      </trkpt>
      <trkpt lat="39.01040833" lon="-8.95865167">
        <ele>-5.0</ele>
        <time>2019-05-16T13:48:48.910Z</time>
      </trkpt>
      <trkpt lat="39.01040833" lon="-8.95865167">
        <ele>-5.0</ele>
        <time>2019-05-16T13:48:49.913Z</time>
      </trkpt>
      <trkpt lat="39.01043833" lon="-8.95871667">
        <ele>-5.0</ele>
        <time>2019-05-16T13:48:50.902Z</time>
      </trkpt>
      <trkpt lat="39.01043833" lon="-8.95871667">
        <ele>-5.0</ele>
        <time>2019-05-16T13:48:51.924Z</time>
      </trkpt>
      <trkpt lat="39.01046833" lon="-8.95877667">
        <ele>-5.0</ele>
        <time>2019-05-16T13:48:52.899Z</time>
      </trkpt>
      <trkpt lat="39.01046833" lon="-8.95877667">
        <ele>-5.0</ele>
        <time>2019-05-16T13:48:53.933Z</time>
      </trkpt>
      <trkpt lat="39.01050333" lon="-8.95883333">
        <ele>-5.0</ele>
        <time>2019-05-16T13:48:54.916Z</time>
      </trkpt>
      <trkpt lat="39.01050333" lon="-8.95883333">
        <ele>-5.0</ele>
        <time>2019-05-16T13:48:55.905Z</time>
      </trkpt>
      <trkpt lat="39.010535" lon="-8.95889667">
        <ele>-5.0</ele>
        <time>2019-05-16T13:48:56.924Z</time>
      </trkpt>
      <trkpt lat="39.010535" lon="-8.95889667">
        <ele>-5.0</ele>
        <time>2019-05-16T13:48:57.912Z</time>
      </trkpt>
      <trkpt lat="39.01056333" lon="-8.95896333">
        <ele>-5.0</ele>
        <time>2019-05-16T13:48:58.926Z</time>
      </trkpt>
      <trkpt lat="39.01056333" lon="-8.95896333">
        <ele>-5.0</ele>
        <time>2019-05-16T13:48:59.905Z</time>
      </trkpt>
      <trkpt lat="39.01059333" lon="-8.95903167">
        <ele>-4.0</ele>
        <time>2019-05-16T13:49:00.928Z</time>
      </trkpt>
      <trkpt lat="39.01059333" lon="-8.95903167">
        <ele>-4.0</ele>
        <time>2019-05-16T13:49:01.908Z</time>
      </trkpt>
      <trkpt lat="39.01061833" lon="-8.959105">
        <ele>-4.0</ele>
        <time>2019-05-16T13:49:02.933Z</time>
      </trkpt>
      <trkpt lat="39.01061833" lon="-8.959105">
        <ele>-4.0</ele>
        <time>2019-05-16T13:49:03.913Z</time>
      </trkpt>
      <trkpt lat="39.01064833" lon="-8.959175">
        <ele>-4.0</ele>
        <time>2019-05-16T13:49:04.911Z</time>
      </trkpt>
      <trkpt lat="39.01064833" lon="-8.959175">
        <ele>-4.0</ele>
        <time>2019-05-16T13:49:05.933Z</time>
      </trkpt>
      <trkpt lat="39.01067333" lon="-8.95924833">
        <ele>-4.0</ele>
        <time>2019-05-16T13:49:06.911Z</time>
      </trkpt>
      <trkpt lat="39.01067333" lon="-8.95924833">
        <ele>-4.0</ele>
        <time>2019-05-16T13:49:07.923Z</time>
      </trkpt>
      <trkpt lat="39.010695" lon="-8.95932167">
        <ele>-4.0</ele>
        <time>2019-05-16T13:49:08.912Z</time>
      </trkpt>
      <trkpt lat="39.010695" lon="-8.95932167">
        <ele>-4.0</ele>
        <time>2019-05-16T13:49:09.923Z</time>
      </trkpt>
      <trkpt lat="39.01071833" lon="-8.959395">
        <ele>-3.0</ele>
        <time>2019-05-16T13:49:10.909Z</time>
      </trkpt>
      <trkpt lat="39.01071833" lon="-8.959395">
        <ele>-3.0</ele>
        <time>2019-05-16T13:49:11.900Z</time>
      </trkpt>
      <trkpt lat="39.01073833" lon="-8.95946667">
        <ele>-3.0</ele>
        <time>2019-05-16T13:49:12.920Z</time>
      </trkpt>
      <trkpt lat="39.01073833" lon="-8.95946667">
        <ele>-3.0</ele>
        <time>2019-05-16T13:49:13.913Z</time>
      </trkpt>
      <trkpt lat="39.01076" lon="-8.95953667">
        <ele>-3.0</ele>
        <time>2019-05-16T13:49:14.936Z</time>
      </trkpt>
      <trkpt lat="39.01077333" lon="-8.95957167">
        <ele>-3.0</ele>
        <time>2019-05-16T13:49:15.905Z</time>
      </trkpt>
      <trkpt lat="39.01077333" lon="-8.95957167">
        <ele>-3.0</ele>
        <time>2019-05-16T13:49:16.933Z</time>
      </trkpt>
      <trkpt lat="39.01079667" lon="-8.95964333">
        <ele>-3.0</ele>
        <time>2019-05-16T13:49:17.915Z</time>
      </trkpt>
      <trkpt lat="39.01079667" lon="-8.95964333">
        <ele>-3.0</ele>
        <time>2019-05-16T13:49:18.926Z</time>
      </trkpt>
      <trkpt lat="39.01081667" lon="-8.95971667">
        <ele>-3.0</ele>
        <time>2019-05-16T13:49:19.928Z</time>
      </trkpt>
      <trkpt lat="39.01081667" lon="-8.95971667">
        <ele>-3.0</ele>
        <time>2019-05-16T13:49:20.921Z</time>
      </trkpt>
      <trkpt lat="39.01083833" lon="-8.95978833">
        <ele>-3.0</ele>
        <time>2019-05-16T13:49:21.912Z</time>
      </trkpt>
      <trkpt lat="39.01083833" lon="-8.95978833">
        <ele>-3.0</ele>
        <time>2019-05-16T13:49:22.934Z</time>
      </trkpt>
      <trkpt lat="39.01086333" lon="-8.95986167">
        <ele>-4.0</ele>
        <time>2019-05-16T13:49:23.932Z</time>
      </trkpt>
      <trkpt lat="39.010875" lon="-8.95989833">
        <ele>-4.0</ele>
        <time>2019-05-16T13:49:24.921Z</time>
      </trkpt>
      <trkpt lat="39.010875" lon="-8.95989833">
        <ele>-4.0</ele>
        <time>2019-05-16T13:49:25.927Z</time>
      </trkpt>
      <trkpt lat="39.010895" lon="-8.95997333">
        <ele>-4.0</ele>
        <time>2019-05-16T13:49:26.909Z</time>
      </trkpt>
      <trkpt lat="39.010895" lon="-8.95997333">
        <ele>-4.0</ele>
        <time>2019-05-16T13:49:27.907Z</time>
      </trkpt>
      <trkpt lat="39.01092" lon="-8.96004333">
        <ele>-4.0</ele>
        <time>2019-05-16T13:49:28.922Z</time>
      </trkpt>
      <trkpt lat="39.01092" lon="-8.96004333">
        <ele>-4.0</ele>
        <time>2019-05-16T13:49:29.933Z</time>
      </trkpt>
      <trkpt lat="39.010945" lon="-8.960115">
        <ele>-4.0</ele>
        <time>2019-05-16T13:49:30.911Z</time>
      </trkpt>
      <trkpt lat="39.010945" lon="-8.960115">
        <ele>-4.0</ele>
        <time>2019-05-16T13:49:31.930Z</time>
      </trkpt>
      <trkpt lat="39.01097167" lon="-8.96018833">
        <ele>-4.0</ele>
        <time>2019-05-16T13:49:32.910Z</time>
      </trkpt>
      <trkpt lat="39.01097167" lon="-8.96018833">
        <ele>-4.0</ele>
        <time>2019-05-16T13:49:33.907Z</time>
      </trkpt>
      <trkpt lat="39.01099333" lon="-8.96025833">
        <ele>-4.0</ele>
        <time>2019-05-16T13:49:34.941Z</time>
      </trkpt>
      <trkpt lat="39.01099333" lon="-8.96025833">
        <ele>-4.0</ele>
        <time>2019-05-16T13:49:35.920Z</time>
      </trkpt>
      <trkpt lat="39.011015" lon="-8.96033">
        <ele>-3.0</ele>
        <time>2019-05-16T13:49:36.909Z</time>
      </trkpt>
      <trkpt lat="39.01102833" lon="-8.96036667">
        <ele>-3.0</ele>
        <time>2019-05-16T13:49:37.911Z</time>
      </trkpt>
      <trkpt lat="39.01104" lon="-8.96040167">
        <ele>-3.0</ele>
        <time>2019-05-16T13:49:38.919Z</time>
      </trkpt>
      <trkpt lat="39.01104" lon="-8.96040167">
        <ele>-3.0</ele>
        <time>2019-05-16T13:49:39.936Z</time>
      </trkpt>
      <trkpt lat="39.01106333" lon="-8.96047333">
        <ele>-3.0</ele>
        <time>2019-05-16T13:49:40.938Z</time>
      </trkpt>
      <trkpt lat="39.01106333" lon="-8.96047333">
        <ele>-3.0</ele>
        <time>2019-05-16T13:49:41.910Z</time>
      </trkpt>
      <trkpt lat="39.01108667" lon="-8.960545">
        <ele>-2.0</ele>
        <time>2019-05-16T13:49:42.933Z</time>
      </trkpt>
      <trkpt lat="39.01108667" lon="-8.960545">
        <ele>-2.0</ele>
        <time>2019-05-16T13:49:43.913Z</time>
      </trkpt>
      <trkpt lat="39.01111167" lon="-8.960615">
        <ele>-2.0</ele>
        <time>2019-05-16T13:49:44.931Z</time>
      </trkpt>
      <trkpt lat="39.01111167" lon="-8.960615">
        <ele>-2.0</ele>
        <time>2019-05-16T13:49:45.923Z</time>
      </trkpt>
      <trkpt lat="39.01113167" lon="-8.96068833">
        <ele>-2.0</ele>
        <time>2019-05-16T13:49:46.902Z</time>
      </trkpt>
      <trkpt lat="39.01113167" lon="-8.96068833">
        <ele>-2.0</ele>
        <time>2019-05-16T13:49:47.930Z</time>
      </trkpt>
      <trkpt lat="39.011155" lon="-8.96076167">
        <ele>-2.0</ele>
        <time>2019-05-16T13:49:48.906Z</time>
      </trkpt>
      <trkpt lat="39.01116667" lon="-8.96080167">
        <ele>-2.0</ele>
        <time>2019-05-16T13:49:49.906Z</time>
      </trkpt>
      <trkpt lat="39.01116667" lon="-8.96080167">
        <ele>-2.0</ele>
        <time>2019-05-16T13:49:50.918Z</time>
      </trkpt>
      <trkpt lat="39.01118833" lon="-8.96087833">
        <ele>-3.0</ele>
        <time>2019-05-16T13:49:51.908Z</time>
      </trkpt>
      <trkpt lat="39.01118833" lon="-8.96087833">
        <ele>-3.0</ele>
        <time>2019-05-16T13:49:52.898Z</time>
      </trkpt>
      <trkpt lat="39.01120833" lon="-8.96095">
        <ele>-3.0</ele>
        <time>2019-05-16T13:49:53.912Z</time>
      </trkpt>
      <trkpt lat="39.01120833" lon="-8.96095">
        <ele>-3.0</ele>
        <time>2019-05-16T13:49:54.933Z</time>
      </trkpt>
      <trkpt lat="39.01122833" lon="-8.96101833">
        <ele>-3.0</ele>
        <time>2019-05-16T13:49:55.924Z</time>
      </trkpt>
      <trkpt lat="39.01122833" lon="-8.96101833">
        <ele>-3.0</ele>
        <time>2019-05-16T13:49:56.909Z</time>
      </trkpt>
      <trkpt lat="39.01124167" lon="-8.96108667">
        <ele>-3.0</ele>
        <time>2019-05-16T13:49:57.908Z</time>
      </trkpt>
      <trkpt lat="39.01124167" lon="-8.96108667">
        <ele>-3.0</ele>
        <time>2019-05-16T13:49:58.900Z</time>
      </trkpt>
      <trkpt lat="39.01125833" lon="-8.96115333">
        <ele>-2.0</ele>
        <time>2019-05-16T13:49:59.915Z</time>
      </trkpt>
      <trkpt lat="39.01125833" lon="-8.96115333">
        <ele>-2.0</ele>
        <time>2019-05-16T13:50:00.910Z</time>
      </trkpt>
      <trkpt lat="39.01127833" lon="-8.96121667">
        <ele>-2.0</ele>
        <time>2019-05-16T13:50:01.936Z</time>
      </trkpt>
      <trkpt lat="39.01129" lon="-8.961245">
        <ele>-2.0</ele>
        <time>2019-05-16T13:50:02.932Z</time>
      </trkpt>
      <trkpt lat="39.01129" lon="-8.961245">
        <ele>-2.0</ele>
        <time>2019-05-16T13:50:03.909Z</time>
      </trkpt>
      <trkpt lat="39.01131667" lon="-8.96129167">
        <ele>-2.0</ele>
        <time>2019-05-16T13:50:04.929Z</time>
      </trkpt>
      <trkpt lat="39.01131667" lon="-8.96129167">
        <ele>-2.0</ele>
        <time>2019-05-16T13:50:05.922Z</time>
      </trkpt>
      <trkpt lat="39.01135333" lon="-8.96131667">
        <ele>-2.0</ele>
        <time>2019-05-16T13:50:06.911Z</time>
      </trkpt>
      <trkpt lat="39.01135333" lon="-8.96131667">
        <ele>-2.0</ele>
        <time>2019-05-16T13:50:07.913Z</time>
      </trkpt>
      <trkpt lat="39.01138833" lon="-8.96130333">
        <ele>-1.0</ele>
        <time>2019-05-16T13:50:08.935Z</time>
      </trkpt>
      <trkpt lat="39.01138833" lon="-8.96130333">
        <ele>-1.0</ele>
        <time>2019-05-16T13:50:09.897Z</time>
      </trkpt>
      <trkpt lat="39.01142833" lon="-8.96128">
        <ele>-1.0</ele>
        <time>2019-05-16T13:50:10.931Z</time>
      </trkpt>
      <trkpt lat="39.01142833" lon="-8.96128">
        <ele>-1.0</ele>
        <time>2019-05-16T13:50:11.923Z</time>
      </trkpt>
      <trkpt lat="39.01147333" lon="-8.96125667">
        <ele>0.0</ele>
        <time>2019-05-16T13:50:12.910Z</time>
      </trkpt>
      <trkpt lat="39.01147333" lon="-8.96125667">
        <ele>0.0</ele>
        <time>2019-05-16T13:50:13.926Z</time>
      </trkpt>
      <trkpt lat="39.01151667" lon="-8.96123167">
        <ele>1.0</ele>
        <time>2019-05-16T13:50:14.904Z</time>
      </trkpt>
      <trkpt lat="39.01151667" lon="-8.96123167">
        <ele>1.0</ele>
        <time>2019-05-16T13:50:15.922Z</time>
      </trkpt>
      <trkpt lat="39.01155833" lon="-8.96120667">
        <ele>1.0</ele>
        <time>2019-05-16T13:50:16.901Z</time>
      </trkpt>
      <trkpt lat="39.01155833" lon="-8.96120667">
        <ele>1.0</ele>
        <time>2019-05-16T13:50:17.935Z</time>
      </trkpt>
      <trkpt lat="39.01160333" lon="-8.96118333">
        <ele>2.0</ele>
        <time>2019-05-16T13:50:18.923Z</time>
      </trkpt>
      <trkpt lat="39.01160333" lon="-8.96118333">
        <ele>2.0</ele>
        <time>2019-05-16T13:50:19.911Z</time>
      </trkpt>
      <trkpt lat="39.01164" lon="-8.961165">
        <ele>2.0</ele>
        <time>2019-05-16T13:50:20.941Z</time>
      </trkpt>
      <trkpt lat="39.01164" lon="-8.961165">
        <ele>2.0</ele>
        <time>2019-05-16T13:50:21.920Z</time>
      </trkpt>
      <trkpt lat="39.011675" lon="-8.96115">
        <ele>2.0</ele>
        <time>2019-05-16T13:50:22.910Z</time>
      </trkpt>
      <trkpt lat="39.011675" lon="-8.96115">
        <ele>2.0</ele>
        <time>2019-05-16T13:50:23.923Z</time>
      </trkpt>
      <trkpt lat="39.01171667" lon="-8.96112833">
        <ele>2.0</ele>
        <time>2019-05-16T13:50:24.908Z</time>
      </trkpt>
      <trkpt lat="39.01171667" lon="-8.96112833">
        <ele>2.0</ele>
        <time>2019-05-16T13:50:25.924Z</time>
      </trkpt>
      <trkpt lat="39.01175833" lon="-8.961105">
        <ele>2.0</ele>
        <time>2019-05-16T13:50:26.908Z</time>
      </trkpt>
      <trkpt lat="39.01175833" lon="-8.961105">
        <ele>2.0</ele>
        <time>2019-05-16T13:50:27.935Z</time>
      </trkpt>
      <trkpt lat="39.01180667" lon="-8.96108333">
        <ele>2.0</ele>
        <time>2019-05-16T13:50:28.911Z</time>
      </trkpt>
      <trkpt lat="39.01180667" lon="-8.96108333">
        <ele>2.0</ele>
        <time>2019-05-16T13:50:29.922Z</time>
      </trkpt>
      <trkpt lat="39.01185333" lon="-8.96108167">
        <ele>2.0</ele>
        <time>2019-05-16T13:50:30.898Z</time>
      </trkpt>
      <trkpt lat="39.01185333" lon="-8.96108167">
        <ele>2.0</ele>
        <time>2019-05-16T13:50:31.923Z</time>
      </trkpt>
      <trkpt lat="39.011895" lon="-8.96108167">
        <ele>1.0</ele>
        <time>2019-05-16T13:50:32.910Z</time>
      </trkpt>
      <trkpt lat="39.011895" lon="-8.96108167">
        <ele>1.0</ele>
        <time>2019-05-16T13:50:33.909Z</time>
      </trkpt>
      <trkpt lat="39.01193333" lon="-8.96107167">
        <ele>1.0</ele>
        <time>2019-05-16T13:50:34.932Z</time>
      </trkpt>
      <trkpt lat="39.01193333" lon="-8.96107167">
        <ele>1.0</ele>
        <time>2019-05-16T13:50:35.909Z</time>
      </trkpt>
      <trkpt lat="39.01197167" lon="-8.96106167">
        <ele>1.0</ele>
        <time>2019-05-16T13:50:36.923Z</time>
      </trkpt>
      <trkpt lat="39.01197167" lon="-8.96106167">
        <ele>1.0</ele>
        <time>2019-05-16T13:50:37.935Z</time>
      </trkpt>
      <trkpt lat="39.01200333" lon="-8.96105333">
        <ele>1.0</ele>
        <time>2019-05-16T13:50:38.921Z</time>
      </trkpt>
      <trkpt lat="39.01200333" lon="-8.96105333">
        <ele>1.0</ele>
        <time>2019-05-16T13:50:39.935Z</time>
      </trkpt>
      <trkpt lat="39.01201" lon="-8.961055">
        <ele>1.0</ele>
        <time>2019-05-16T13:50:40.912Z</time>
      </trkpt>
      <trkpt lat="39.01201" lon="-8.961055">
        <ele>1.0</ele>
        <time>2019-05-16T13:50:41.907Z</time>
      </trkpt>
      <trkpt lat="39.01202667" lon="-8.96105667">
        <ele>1.0</ele>
        <time>2019-05-16T13:50:42.931Z</time>
      </trkpt>
      <trkpt lat="39.01202667" lon="-8.96105667">
        <ele>1.0</ele>
        <time>2019-05-16T13:50:43.898Z</time>
      </trkpt>
      <trkpt lat="39.01206667" lon="-8.96105833">
        <ele>1.0</ele>
        <time>2019-05-16T13:50:44.930Z</time>
      </trkpt>
      <trkpt lat="39.01206667" lon="-8.96105833">
        <ele>1.0</ele>
        <time>2019-05-16T13:50:45.925Z</time>
      </trkpt>
      <trkpt lat="39.01211667" lon="-8.96106">
        <ele>1.0</ele>
        <time>2019-05-16T13:50:46.904Z</time>
      </trkpt>
      <trkpt lat="39.01211667" lon="-8.96106">
        <ele>1.0</ele>
        <time>2019-05-16T13:50:47.908Z</time>
      </trkpt>
      <trkpt lat="39.01217" lon="-8.96106167">
        <ele>1.0</ele>
        <time>2019-05-16T13:50:48.933Z</time>
      </trkpt>
      <trkpt lat="39.01217" lon="-8.96106167">
        <ele>1.0</ele>
        <time>2019-05-16T13:50:49.917Z</time>
      </trkpt>
      <trkpt lat="39.012225" lon="-8.96106667">
        <ele>1.0</ele>
        <time>2019-05-16T13:50:50.912Z</time>
      </trkpt>
      <trkpt lat="39.012225" lon="-8.96106667">
        <ele>1.0</ele>
        <time>2019-05-16T13:50:51.933Z</time>
      </trkpt>
      <trkpt lat="39.01228333" lon="-8.96107167">
        <ele>1.0</ele>
        <time>2019-05-16T13:50:52.910Z</time>
      </trkpt>
      <trkpt lat="39.01228333" lon="-8.96107167">
        <ele>1.0</ele>
        <time>2019-05-16T13:50:53.913Z</time>
      </trkpt>
      <trkpt lat="39.01235167" lon="-8.96107">
        <ele>1.0</ele>
        <time>2019-05-16T13:50:54.938Z</time>
      </trkpt>
      <trkpt lat="39.01238667" lon="-8.96106667">
        <ele>1.0</ele>
        <time>2019-05-16T13:50:55.901Z</time>
      </trkpt>
      <trkpt lat="39.01238667" lon="-8.96106667">
        <ele>1.0</ele>
        <time>2019-05-16T13:50:56.919Z</time>
      </trkpt>
      <trkpt lat="39.01245667" lon="-8.961055">
        <ele>1.0</ele>
        <time>2019-05-16T13:50:57.911Z</time>
      </trkpt>
      <trkpt lat="39.01245667" lon="-8.961055">
        <ele>1.0</ele>
        <time>2019-05-16T13:50:58.929Z</time>
      </trkpt>
      <trkpt lat="39.01252667" lon="-8.96103167">
        <ele>1.0</ele>
        <time>2019-05-16T13:50:59.911Z</time>
      </trkpt>
      <trkpt lat="39.01252667" lon="-8.96103167">
        <ele>1.0</ele>
        <time>2019-05-16T13:51:00.907Z</time>
      </trkpt>
      <trkpt lat="39.01259667" lon="-8.96099833">
        <ele>1.0</ele>
        <time>2019-05-16T13:51:01.936Z</time>
      </trkpt>
      <trkpt lat="39.01263" lon="-8.96097667">
        <ele>1.0</ele>
        <time>2019-05-16T13:51:02.934Z</time>
      </trkpt>
      <trkpt lat="39.01263" lon="-8.96097667">
        <ele>1.0</ele>
        <time>2019-05-16T13:51:03.912Z</time>
      </trkpt>
      <trkpt lat="39.01269667" lon="-8.960925">
        <ele>1.0</ele>
        <time>2019-05-16T13:51:04.932Z</time>
      </trkpt>
      <trkpt lat="39.01269667" lon="-8.960925">
        <ele>1.0</ele>
        <time>2019-05-16T13:51:05.913Z</time>
      </trkpt>
      <trkpt lat="39.01276167" lon="-8.96086667">
        <ele>1.0</ele>
        <time>2019-05-16T13:51:06.936Z</time>
      </trkpt>
      <trkpt lat="39.01276167" lon="-8.96086667">
        <ele>1.0</ele>
        <time>2019-05-16T13:51:07.933Z</time>
      </trkpt>
      <trkpt lat="39.01282167" lon="-8.96079833">
        <ele>1.0</ele>
        <time>2019-05-16T13:51:08.909Z</time>
      </trkpt>
      <trkpt lat="39.01282167" lon="-8.96079833">
        <ele>1.0</ele>
        <time>2019-05-16T13:51:09.926Z</time>
      </trkpt>
      <trkpt lat="39.01287333" lon="-8.96072333">
        <ele>1.0</ele>
        <time>2019-05-16T13:51:10.931Z</time>
      </trkpt>
      <trkpt lat="39.01287333" lon="-8.96072333">
        <ele>1.0</ele>
        <time>2019-05-16T13:51:11.907Z</time>
      </trkpt>
      <trkpt lat="39.01291667" lon="-8.96064667">
        <ele>1.0</ele>
        <time>2019-05-16T13:51:12.934Z</time>
      </trkpt>
      <trkpt lat="39.01291667" lon="-8.96064667">
        <ele>1.0</ele>
        <time>2019-05-16T13:51:13.905Z</time>
      </trkpt>
      <trkpt lat="39.01295667" lon="-8.960565">
        <ele>1.0</ele>
        <time>2019-05-16T13:51:14.937Z</time>
      </trkpt>
      <trkpt lat="39.01295667" lon="-8.960565">
        <ele>1.0</ele>
        <time>2019-05-16T13:51:15.907Z</time>
      </trkpt>
      <trkpt lat="39.01299333" lon="-8.960475">
        <ele>1.0</ele>
        <time>2019-05-16T13:51:16.931Z</time>
      </trkpt>
      <trkpt lat="39.01299333" lon="-8.960475">
        <ele>1.0</ele>
        <time>2019-05-16T13:51:17.910Z</time>
      </trkpt>
      <trkpt lat="39.01302333" lon="-8.96037167">
        <ele>1.0</ele>
        <time>2019-05-16T13:51:18.938Z</time>
      </trkpt>
      <trkpt lat="39.01302333" lon="-8.96037167">
        <ele>1.0</ele>
        <time>2019-05-16T13:51:19.923Z</time>
      </trkpt>
      <trkpt lat="39.01304333" lon="-8.96027167">
        <ele>1.0</ele>
        <time>2019-05-16T13:51:20.924Z</time>
      </trkpt>
      <trkpt lat="39.01304333" lon="-8.96027167">
        <ele>1.0</ele>
        <time>2019-05-16T13:51:21.916Z</time>
      </trkpt>
      <trkpt lat="39.013055" lon="-8.960175">
        <ele>1.0</ele>
        <time>2019-05-16T13:51:22.937Z</time>
      </trkpt>
      <trkpt lat="39.013055" lon="-8.960175">
        <ele>1.0</ele>
        <time>2019-05-16T13:51:23.910Z</time>
      </trkpt>
      <trkpt lat="39.01305333" lon="-8.96011167">
        <ele>2.0</ele>
        <time>2019-05-16T13:51:24.937Z</time>
      </trkpt>
      <trkpt lat="39.01305333" lon="-8.96011167">
        <ele>2.0</ele>
        <time>2019-05-16T13:51:25.919Z</time>
      </trkpt>
      <trkpt lat="39.013055" lon="-8.96008833">
        <ele>3.0</ele>
        <time>2019-05-16T13:51:26.911Z</time>
      </trkpt>
      <trkpt lat="39.013055" lon="-8.96008833">
        <ele>3.0</ele>
        <time>2019-05-16T13:51:27.930Z</time>
      </trkpt>
      <trkpt lat="39.01305667" lon="-8.96005667">
        <ele>4.0</ele>
        <time>2019-05-16T13:51:28.913Z</time>
      </trkpt>
      <trkpt lat="39.01305667" lon="-8.96005667">
        <ele>4.0</ele>
        <time>2019-05-16T13:51:29.927Z</time>
      </trkpt>
      <trkpt lat="39.01306333" lon="-8.96000833">
        <ele>4.0</ele>
        <time>2019-05-16T13:51:30.919Z</time>
      </trkpt>
      <trkpt lat="39.01306333" lon="-8.96000833">
        <ele>4.0</ele>
        <time>2019-05-16T13:51:31.912Z</time>
      </trkpt>
      <trkpt lat="39.01306" lon="-8.95995">
        <ele>5.0</ele>
        <time>2019-05-16T13:51:32.899Z</time>
      </trkpt>
      <trkpt lat="39.01306" lon="-8.95995">
        <ele>5.0</ele>
        <time>2019-05-16T13:51:33.897Z</time>
      </trkpt>
      <trkpt lat="39.01306167" lon="-8.959885">
        <ele>5.0</ele>
        <time>2019-05-16T13:51:34.919Z</time>
      </trkpt>
      <trkpt lat="39.01306167" lon="-8.959885">
        <ele>5.0</ele>
        <time>2019-05-16T13:51:35.927Z</time>
      </trkpt>
      <trkpt lat="39.01307833" lon="-8.95981667">
        <ele>5.0</ele>
        <time>2019-05-16T13:51:36.902Z</time>
      </trkpt>
      <trkpt lat="39.01307833" lon="-8.95981667">
        <ele>5.0</ele>
        <time>2019-05-16T13:51:37.934Z</time>
      </trkpt>
      <trkpt lat="39.0131" lon="-8.95975167">
        <ele>6.0</ele>
        <time>2019-05-16T13:51:38.919Z</time>
      </trkpt>
      <trkpt lat="39.0131" lon="-8.95975167">
        <ele>6.0</ele>
        <time>2019-05-16T13:51:39.897Z</time>
      </trkpt>
      <trkpt lat="39.01312167" lon="-8.95968333">
        <ele>6.0</ele>
        <time>2019-05-16T13:51:40.921Z</time>
      </trkpt>
      <trkpt lat="39.01312167" lon="-8.95968333">
        <ele>6.0</ele>
        <time>2019-05-16T13:51:41.926Z</time>
      </trkpt>
      <trkpt lat="39.01315333" lon="-8.95961667">
        <ele>6.0</ele>
        <time>2019-05-16T13:51:42.914Z</time>
      </trkpt>
      <trkpt lat="39.01315333" lon="-8.95961667">
        <ele>6.0</ele>
        <time>2019-05-16T13:51:43.911Z</time>
      </trkpt>
      <trkpt lat="39.01318833" lon="-8.95955167">
        <ele>7.0</ele>
        <time>2019-05-16T13:51:44.932Z</time>
      </trkpt>
      <trkpt lat="39.01318833" lon="-8.95955167">
        <ele>7.0</ele>
        <time>2019-05-16T13:51:45.900Z</time>
      </trkpt>
      <trkpt lat="39.01322" lon="-8.95949">
        <ele>7.0</ele>
        <time>2019-05-16T13:51:46.927Z</time>
      </trkpt>
      <trkpt lat="39.01322" lon="-8.95949">
        <ele>7.0</ele>
        <time>2019-05-16T13:51:47.929Z</time>
      </trkpt>
      <trkpt lat="39.01325333" lon="-8.95943167">
        <ele>7.0</ele>
        <time>2019-05-16T13:51:48.921Z</time>
      </trkpt>
      <trkpt lat="39.01327167" lon="-8.95940333">
        <ele>7.0</ele>
        <time>2019-05-16T13:51:49.927Z</time>
      </trkpt>
      <trkpt lat="39.01329" lon="-8.95937667">
        <ele>7.0</ele>
        <time>2019-05-16T13:51:50.916Z</time>
      </trkpt>
      <trkpt lat="39.01329" lon="-8.95937667">
        <ele>7.0</ele>
        <time>2019-05-16T13:51:51.933Z</time>
      </trkpt>
      <trkpt lat="39.01333" lon="-8.95931833">
        <ele>8.0</ele>
        <time>2019-05-16T13:51:52.921Z</time>
      </trkpt>
      <trkpt lat="39.01333" lon="-8.95931833">
        <ele>8.0</ele>
        <time>2019-05-16T13:51:53.907Z</time>
      </trkpt>
      <trkpt lat="39.01337" lon="-8.95926167">
        <ele>8.0</ele>
        <time>2019-05-16T13:51:54.898Z</time>
      </trkpt>
      <trkpt lat="39.01337" lon="-8.95926167">
        <ele>8.0</ele>
        <time>2019-05-16T13:51:55.936Z</time>
      </trkpt>
      <trkpt lat="39.013405" lon="-8.959205">
        <ele>8.0</ele>
        <time>2019-05-16T13:51:56.920Z</time>
      </trkpt>
      <trkpt lat="39.013405" lon="-8.959205">
        <ele>8.0</ele>
        <time>2019-05-16T13:51:57.903Z</time>
      </trkpt>
      <trkpt lat="39.01343333" lon="-8.95914667">
        <ele>9.0</ele>
        <time>2019-05-16T13:51:58.918Z</time>
      </trkpt>
      <trkpt lat="39.01343333" lon="-8.95914667">
        <ele>9.0</ele>
        <time>2019-05-16T13:51:59.934Z</time>
      </trkpt>
      <trkpt lat="39.01347167" lon="-8.95909333">
        <ele>10.0</ele>
        <time>2019-05-16T13:52:00.925Z</time>
      </trkpt>
      <trkpt lat="39.01347167" lon="-8.95909333">
        <ele>10.0</ele>
        <time>2019-05-16T13:52:01.920Z</time>
      </trkpt>
      <trkpt lat="39.01350833" lon="-8.95904333">
        <ele>10.0</ele>
        <time>2019-05-16T13:52:02.911Z</time>
      </trkpt>
      <trkpt lat="39.01350833" lon="-8.95904333">
        <ele>10.0</ele>
        <time>2019-05-16T13:52:03.933Z</time>
      </trkpt>
      <trkpt lat="39.01355" lon="-8.95899333">
        <ele>10.0</ele>
        <time>2019-05-16T13:52:04.919Z</time>
      </trkpt>
      <trkpt lat="39.01355" lon="-8.95899333">
        <ele>10.0</ele>
        <time>2019-05-16T13:52:05.923Z</time>
      </trkpt>
      <trkpt lat="39.0136" lon="-8.958955">
        <ele>10.0</ele>
        <time>2019-05-16T13:52:06.905Z</time>
      </trkpt>
      <trkpt lat="39.0136" lon="-8.958955">
        <ele>10.0</ele>
        <time>2019-05-16T13:52:07.910Z</time>
      </trkpt>
      <trkpt lat="39.01365" lon="-8.958905">
        <ele>10.0</ele>
        <time>2019-05-16T13:52:08.899Z</time>
      </trkpt>
      <trkpt lat="39.01365" lon="-8.958905">
        <ele>10.0</ele>
        <time>2019-05-16T13:52:09.923Z</time>
      </trkpt>
      <trkpt lat="39.01369333" lon="-8.95884833">
        <ele>11.0</ele>
        <time>2019-05-16T13:52:10.902Z</time>
      </trkpt>
      <trkpt lat="39.01369333" lon="-8.95884833">
        <ele>11.0</ele>
        <time>2019-05-16T13:52:11.916Z</time>
      </trkpt>
      <trkpt lat="39.01373833" lon="-8.95879">
        <ele>11.0</ele>
        <time>2019-05-16T13:52:12.897Z</time>
      </trkpt>
      <trkpt lat="39.01373833" lon="-8.95879">
        <ele>11.0</ele>
        <time>2019-05-16T13:52:13.923Z</time>
      </trkpt>
      <trkpt lat="39.013785" lon="-8.95873">
        <ele>11.0</ele>
        <time>2019-05-16T13:52:14.917Z</time>
      </trkpt>
      <trkpt lat="39.013785" lon="-8.95873">
        <ele>11.0</ele>
        <time>2019-05-16T13:52:15.908Z</time>
      </trkpt>
      <trkpt lat="39.01383333" lon="-8.95867167">
        <ele>12.0</ele>
        <time>2019-05-16T13:52:16.926Z</time>
      </trkpt>
      <trkpt lat="39.01383333" lon="-8.95867167">
        <ele>12.0</ele>
        <time>2019-05-16T13:52:17.909Z</time>
      </trkpt>
      <trkpt lat="39.01388167" lon="-8.958615">
        <ele>12.0</ele>
        <time>2019-05-16T13:52:18.898Z</time>
      </trkpt>
      <trkpt lat="39.013905" lon="-8.95858667">
        <ele>12.0</ele>
        <time>2019-05-16T13:52:19.938Z</time>
      </trkpt>
      <trkpt lat="39.013905" lon="-8.95858667">
        <ele>12.0</ele>
        <time>2019-05-16T13:52:20.923Z</time>
      </trkpt>
      <trkpt lat="39.01395333" lon="-8.95853167">
        <ele>12.0</ele>
        <time>2019-05-16T13:52:21.901Z</time>
      </trkpt>
      <trkpt lat="39.01397833" lon="-8.958505">
        <ele>13.0</ele>
        <time>2019-05-16T13:52:22.901Z</time>
      </trkpt>
      <trkpt lat="39.01397833" lon="-8.958505">
        <ele>13.0</ele>
        <time>2019-05-16T13:52:23.922Z</time>
      </trkpt>
      <trkpt lat="39.014025" lon="-8.958445">
        <ele>13.0</ele>
        <time>2019-05-16T13:52:24.917Z</time>
      </trkpt>
      <trkpt lat="39.014025" lon="-8.958445">
        <ele>13.0</ele>
        <time>2019-05-16T13:52:25.908Z</time>
      </trkpt>
      <trkpt lat="39.01407333" lon="-8.95838667">
        <ele>13.0</ele>
        <time>2019-05-16T13:52:26.909Z</time>
      </trkpt>
      <trkpt lat="39.01407333" lon="-8.95838667">
        <ele>13.0</ele>
        <time>2019-05-16T13:52:27.933Z</time>
      </trkpt>
      <trkpt lat="39.014125" lon="-8.95832667">
        <ele>13.0</ele>
        <time>2019-05-16T13:52:28.915Z</time>
      </trkpt>
      <trkpt lat="39.014125" lon="-8.95832667">
        <ele>13.0</ele>
        <time>2019-05-16T13:52:29.919Z</time>
      </trkpt>
      <trkpt lat="39.01417667" lon="-8.95826">
        <ele>13.0</ele>
        <time>2019-05-16T13:52:30.907Z</time>
      </trkpt>
      <trkpt lat="39.01417667" lon="-8.95826">
        <ele>13.0</ele>
        <time>2019-05-16T13:52:31.903Z</time>
      </trkpt>
      <trkpt lat="39.01422833" lon="-8.95819833">
        <ele>12.0</ele>
        <time>2019-05-16T13:52:32.928Z</time>
      </trkpt>
      <trkpt lat="39.01422833" lon="-8.95819833">
        <ele>12.0</ele>
        <time>2019-05-16T13:52:33.903Z</time>
      </trkpt>
      <trkpt lat="39.01427833" lon="-8.95814">
        <ele>12.0</ele>
        <time>2019-05-16T13:52:34.931Z</time>
      </trkpt>
      <trkpt lat="39.01427833" lon="-8.95814">
        <ele>12.0</ele>
        <time>2019-05-16T13:52:35.915Z</time>
      </trkpt>
      <trkpt lat="39.01432667" lon="-8.95807833">
        <ele>12.0</ele>
        <time>2019-05-16T13:52:36.933Z</time>
      </trkpt>
      <trkpt lat="39.01435167" lon="-8.95804667">
        <ele>12.0</ele>
        <time>2019-05-16T13:52:37.911Z</time>
      </trkpt>
      <trkpt lat="39.014375" lon="-8.958015">
        <ele>12.0</ele>
        <time>2019-05-16T13:52:38.915Z</time>
      </trkpt>
      <trkpt lat="39.014375" lon="-8.958015">
        <ele>12.0</ele>
        <time>2019-05-16T13:52:39.909Z</time>
      </trkpt>
      <trkpt lat="39.01442333" lon="-8.957955">
        <ele>11.0</ele>
        <time>2019-05-16T13:52:40.931Z</time>
      </trkpt>
      <trkpt lat="39.01442333" lon="-8.957955">
        <ele>11.0</ele>
        <time>2019-05-16T13:52:41.923Z</time>
      </trkpt>
      <trkpt lat="39.01447333" lon="-8.95789833">
        <ele>11.0</ele>
        <time>2019-05-16T13:52:42.983Z</time>
      </trkpt>
      <trkpt lat="39.01447333" lon="-8.95789833">
        <ele>11.0</ele>
        <time>2019-05-16T13:52:43.913Z</time>
      </trkpt>
      <trkpt lat="39.01452167" lon="-8.95784">
        <ele>11.0</ele>
        <time>2019-05-16T13:52:44.913Z</time>
      </trkpt>
      <trkpt lat="39.01452167" lon="-8.95784">
        <ele>11.0</ele>
        <time>2019-05-16T13:52:45.933Z</time>
      </trkpt>
      <trkpt lat="39.01457" lon="-8.95778167">
        <ele>11.0</ele>
        <time>2019-05-16T13:52:46.909Z</time>
      </trkpt>
      <trkpt lat="39.01459333" lon="-8.95775167">
        <ele>11.0</ele>
        <time>2019-05-16T13:52:47.929Z</time>
      </trkpt>
      <trkpt lat="39.01459333" lon="-8.95775167">
        <ele>11.0</ele>
        <time>2019-05-16T13:52:48.899Z</time>
      </trkpt>
      <trkpt lat="39.01464333" lon="-8.95768667">
        <ele>11.0</ele>
        <time>2019-05-16T13:52:49.926Z</time>
      </trkpt>
      <trkpt lat="39.01467" lon="-8.95765667">
        <ele>11.0</ele>
        <time>2019-05-16T13:52:50.921Z</time>
      </trkpt>
      <trkpt lat="39.01467" lon="-8.95765667">
        <ele>11.0</ele>
        <time>2019-05-16T13:52:51.897Z</time>
      </trkpt>
      <trkpt lat="39.01472333" lon="-8.957595">
        <ele>10.0</ele>
        <time>2019-05-16T13:52:52.931Z</time>
      </trkpt>
      <trkpt lat="39.01472333" lon="-8.957595">
        <ele>10.0</ele>
        <time>2019-05-16T13:52:53.923Z</time>
      </trkpt>
      <trkpt lat="39.01477667" lon="-8.95753">
        <ele>10.0</ele>
        <time>2019-05-16T13:52:54.901Z</time>
      </trkpt>
      <trkpt lat="39.01477667" lon="-8.95753">
        <ele>10.0</ele>
        <time>2019-05-16T13:52:55.924Z</time>
      </trkpt>
      <trkpt lat="39.01483167" lon="-8.95746333">
        <ele>10.0</ele>
        <time>2019-05-16T13:52:56.901Z</time>
      </trkpt>
      <trkpt lat="39.01483167" lon="-8.95746333">
        <ele>10.0</ele>
        <time>2019-05-16T13:52:57.909Z</time>
      </trkpt>
      <trkpt lat="39.014885" lon="-8.95739667">
        <ele>9.0</ele>
        <time>2019-05-16T13:52:58.931Z</time>
      </trkpt>
      <trkpt lat="39.014885" lon="-8.95739667">
        <ele>9.0</ele>
        <time>2019-05-16T13:52:59.899Z</time>
      </trkpt>
      <trkpt lat="39.01494" lon="-8.95733">
        <ele>9.0</ele>
        <time>2019-05-16T13:53:00.921Z</time>
      </trkpt>
      <trkpt lat="39.01494" lon="-8.95733">
        <ele>9.0</ele>
        <time>2019-05-16T13:53:01.904Z</time>
      </trkpt>
      <trkpt lat="39.01499333" lon="-8.95726333">
        <ele>9.0</ele>
        <time>2019-05-16T13:53:02.924Z</time>
      </trkpt>
      <trkpt lat="39.01499333" lon="-8.95726333">
        <ele>9.0</ele>
        <time>2019-05-16T13:53:03.907Z</time>
      </trkpt>
      <trkpt lat="39.01505" lon="-8.95719333">
        <ele>8.0</ele>
        <time>2019-05-16T13:53:04.903Z</time>
      </trkpt>
      <trkpt lat="39.01505" lon="-8.95719333">
        <ele>8.0</ele>
        <time>2019-05-16T13:53:05.923Z</time>
      </trkpt>
      <trkpt lat="39.01510833" lon="-8.95712667">
        <ele>8.0</ele>
        <time>2019-05-16T13:53:06.909Z</time>
      </trkpt>
      <trkpt lat="39.01510833" lon="-8.95712667">
        <ele>8.0</ele>
        <time>2019-05-16T13:53:07.911Z</time>
      </trkpt>
      <trkpt lat="39.01516167" lon="-8.95706833">
        <ele>8.0</ele>
        <time>2019-05-16T13:53:08.931Z</time>
      </trkpt>
      <trkpt lat="39.01516167" lon="-8.95706833">
        <ele>8.0</ele>
        <time>2019-05-16T13:53:09.925Z</time>
      </trkpt>
      <trkpt lat="39.015215" lon="-8.95699833">
        <ele>8.0</ele>
        <time>2019-05-16T13:53:10.899Z</time>
      </trkpt>
      <trkpt lat="39.01524" lon="-8.95696333">
        <ele>8.0</ele>
        <time>2019-05-16T13:53:11.922Z</time>
      </trkpt>
      <trkpt lat="39.01524" lon="-8.95696333">
        <ele>8.0</ele>
        <time>2019-05-16T13:53:12.899Z</time>
      </trkpt>
      <trkpt lat="39.01529" lon="-8.956895">
        <ele>7.0</ele>
        <time>2019-05-16T13:53:13.919Z</time>
      </trkpt>
      <trkpt lat="39.01531667" lon="-8.95686">
        <ele>7.0</ele>
        <time>2019-05-16T13:53:14.913Z</time>
      </trkpt>
      <trkpt lat="39.01531667" lon="-8.95686">
        <ele>7.0</ele>
        <time>2019-05-16T13:53:15.901Z</time>
      </trkpt>
      <trkpt lat="39.01537" lon="-8.95678833">
        <ele>7.0</ele>
        <time>2019-05-16T13:53:16.938Z</time>
      </trkpt>
      <trkpt lat="39.01537" lon="-8.95678833">
        <ele>7.0</ele>
        <time>2019-05-16T13:53:17.933Z</time>
      </trkpt>
      <trkpt lat="39.015425" lon="-8.95671667">
        <ele>7.0</ele>
        <time>2019-05-16T13:53:18.909Z</time>
      </trkpt>
      <trkpt lat="39.015425" lon="-8.95671667">
        <ele>7.0</ele>
        <time>2019-05-16T13:53:19.932Z</time>
      </trkpt>
      <trkpt lat="39.01547833" lon="-8.95664833">
        <ele>7.0</ele>
        <time>2019-05-16T13:53:20.931Z</time>
      </trkpt>
      <trkpt lat="39.01547833" lon="-8.95664833">
        <ele>7.0</ele>
        <time>2019-05-16T13:53:21.897Z</time>
      </trkpt>
      <trkpt lat="39.015535" lon="-8.95658167">
        <ele>7.0</ele>
        <time>2019-05-16T13:53:22.932Z</time>
      </trkpt>
      <trkpt lat="39.015535" lon="-8.95658167">
        <ele>7.0</ele>
        <time>2019-05-16T13:53:23.923Z</time>
      </trkpt>
      <trkpt lat="39.01558833" lon="-8.95651">
        <ele>7.0</ele>
        <time>2019-05-16T13:53:24.937Z</time>
      </trkpt>
      <trkpt lat="39.01558833" lon="-8.95651">
        <ele>7.0</ele>
        <time>2019-05-16T13:53:25.914Z</time>
      </trkpt>
      <trkpt lat="39.01563833" lon="-8.95643333">
        <ele>8.0</ele>
        <time>2019-05-16T13:53:26.931Z</time>
      </trkpt>
      <trkpt lat="39.01563833" lon="-8.95643333">
        <ele>8.0</ele>
        <time>2019-05-16T13:53:27.907Z</time>
      </trkpt>
      <trkpt lat="39.01567667" lon="-8.956355">
        <ele>8.0</ele>
        <time>2019-05-16T13:53:28.901Z</time>
      </trkpt>
      <trkpt lat="39.01567667" lon="-8.956355">
        <ele>8.0</ele>
        <time>2019-05-16T13:53:29.930Z</time>
      </trkpt>
      <trkpt lat="39.01573" lon="-8.95628">
        <ele>8.0</ele>
        <time>2019-05-16T13:53:30.906Z</time>
      </trkpt>
      <trkpt lat="39.01573" lon="-8.95628">
        <ele>8.0</ele>
        <time>2019-05-16T13:53:31.922Z</time>
      </trkpt>
      <trkpt lat="39.015795" lon="-8.95622">
        <ele>7.0</ele>
        <time>2019-05-16T13:53:32.900Z</time>
      </trkpt>
      <trkpt lat="39.015795" lon="-8.95622">
        <ele>7.0</ele>
        <time>2019-05-16T13:53:33.912Z</time>
      </trkpt>
      <trkpt lat="39.015855" lon="-8.956155">
        <ele>8.0</ele>
        <time>2019-05-16T13:53:34.897Z</time>
      </trkpt>
      <trkpt lat="39.015855" lon="-8.956155">
        <ele>8.0</ele>
        <time>2019-05-16T13:53:35.935Z</time>
      </trkpt>
      <trkpt lat="39.01591333" lon="-8.95608333">
        <ele>8.0</ele>
        <time>2019-05-16T13:53:36.930Z</time>
      </trkpt>
      <trkpt lat="39.01591333" lon="-8.95608333">
        <ele>8.0</ele>
        <time>2019-05-16T13:53:37.906Z</time>
      </trkpt>
      <trkpt lat="39.015975" lon="-8.95601167">
        <ele>8.0</ele>
        <time>2019-05-16T13:53:38.922Z</time>
      </trkpt>
      <trkpt lat="39.015975" lon="-8.95601167">
        <ele>8.0</ele>
        <time>2019-05-16T13:53:39.934Z</time>
      </trkpt>
      <trkpt lat="39.01604" lon="-8.95594167">
        <ele>8.0</ele>
        <time>2019-05-16T13:53:40.921Z</time>
      </trkpt>
      <trkpt lat="39.01604" lon="-8.95594167">
        <ele>8.0</ele>
        <time>2019-05-16T13:53:41.897Z</time>
      </trkpt>
      <trkpt lat="39.01610667" lon="-8.955865">
        <ele>7.0</ele>
        <time>2019-05-16T13:53:42.921Z</time>
      </trkpt>
      <trkpt lat="39.01610667" lon="-8.955865">
        <ele>7.0</ele>
        <time>2019-05-16T13:53:43.929Z</time>
      </trkpt>
      <trkpt lat="39.01617167" lon="-8.95579167">
        <ele>7.0</ele>
        <time>2019-05-16T13:53:44.907Z</time>
      </trkpt>
      <trkpt lat="39.01617167" lon="-8.95579167">
        <ele>7.0</ele>
        <time>2019-05-16T13:53:45.899Z</time>
      </trkpt>
      <trkpt lat="39.01623833" lon="-8.95571333">
        <ele>7.0</ele>
        <time>2019-05-16T13:53:46.923Z</time>
      </trkpt>
      <trkpt lat="39.01623833" lon="-8.95571333">
        <ele>7.0</ele>
        <time>2019-05-16T13:53:47.907Z</time>
      </trkpt>
      <trkpt lat="39.01630833" lon="-8.95563667">
        <ele>6.0</ele>
        <time>2019-05-16T13:53:48.936Z</time>
      </trkpt>
      <trkpt lat="39.01630833" lon="-8.95563667">
        <ele>6.0</ele>
        <time>2019-05-16T13:53:49.923Z</time>
      </trkpt>
      <trkpt lat="39.01637667" lon="-8.95556">
        <ele>6.0</ele>
        <time>2019-05-16T13:53:50.905Z</time>
      </trkpt>
      <trkpt lat="39.01637667" lon="-8.95556">
        <ele>6.0</ele>
        <time>2019-05-16T13:53:51.907Z</time>
      </trkpt>
      <trkpt lat="39.016445" lon="-8.95548167">
        <ele>6.0</ele>
        <time>2019-05-16T13:53:52.898Z</time>
      </trkpt>
      <trkpt lat="39.016445" lon="-8.95548167">
        <ele>6.0</ele>
        <time>2019-05-16T13:53:53.913Z</time>
      </trkpt>
      <trkpt lat="39.01651333" lon="-8.95540333">
        <ele>6.0</ele>
        <time>2019-05-16T13:53:54.930Z</time>
      </trkpt>
      <trkpt lat="39.01651333" lon="-8.95540333">
        <ele>6.0</ele>
        <time>2019-05-16T13:53:55.928Z</time>
      </trkpt>
      <trkpt lat="39.01658333" lon="-8.95532833">
        <ele>6.0</ele>
        <time>2019-05-16T13:53:56.915Z</time>
      </trkpt>
      <trkpt lat="39.01658333" lon="-8.95532833">
        <ele>6.0</ele>
        <time>2019-05-16T13:53:57.933Z</time>
      </trkpt>
      <trkpt lat="39.01665" lon="-8.95525333">
        <ele>6.0</ele>
        <time>2019-05-16T13:53:58.911Z</time>
      </trkpt>
      <trkpt lat="39.01665" lon="-8.95525333">
        <ele>6.0</ele>
        <time>2019-05-16T13:53:59.931Z</time>
      </trkpt>
      <trkpt lat="39.01671667" lon="-8.95518167">
        <ele>6.0</ele>
        <time>2019-05-16T13:54:00.904Z</time>
      </trkpt>
      <trkpt lat="39.01675" lon="-8.955145">
        <ele>6.0</ele>
        <time>2019-05-16T13:54:01.938Z</time>
      </trkpt>
      <trkpt lat="39.01675" lon="-8.955145">
        <ele>6.0</ele>
        <time>2019-05-16T13:54:02.900Z</time>
      </trkpt>
      <trkpt lat="39.01681667" lon="-8.95507">
        <ele>5.0</ele>
        <time>2019-05-16T13:54:03.928Z</time>
      </trkpt>
      <trkpt lat="39.01681667" lon="-8.95507">
        <ele>5.0</ele>
        <time>2019-05-16T13:54:04.899Z</time>
      </trkpt>
      <trkpt lat="39.01688333" lon="-8.954995">
        <ele>5.0</ele>
        <time>2019-05-16T13:54:05.923Z</time>
      </trkpt>
      <trkpt lat="39.01691667" lon="-8.95495833">
        <ele>5.0</ele>
        <time>2019-05-16T13:54:06.934Z</time>
      </trkpt>
      <trkpt lat="39.01691667" lon="-8.95495833">
        <ele>5.0</ele>
        <time>2019-05-16T13:54:07.917Z</time>
      </trkpt>
      <trkpt lat="39.01697833" lon="-8.95488833">
        <ele>5.0</ele>
        <time>2019-05-16T13:54:08.903Z</time>
      </trkpt>
      <trkpt lat="39.01697833" lon="-8.95488833">
        <ele>5.0</ele>
        <time>2019-05-16T13:54:09.923Z</time>
      </trkpt>
      <trkpt lat="39.01703167" lon="-8.95483333">
        <ele>5.0</ele>
        <time>2019-05-16T13:54:10.911Z</time>
      </trkpt>
      <trkpt lat="39.01703167" lon="-8.95483333">
        <ele>5.0</ele>
        <time>2019-05-16T13:54:11.899Z</time>
      </trkpt>
      <trkpt lat="39.01709167" lon="-8.95478333">
        <ele>5.0</ele>
        <time>2019-05-16T13:54:12.922Z</time>
      </trkpt>
      <trkpt lat="39.01711" lon="-8.95474">
        <ele>5.0</ele>
        <time>2019-05-16T13:54:13.902Z</time>
      </trkpt>
      <trkpt lat="39.01711" lon="-8.95474">
        <ele>5.0</ele>
        <time>2019-05-16T13:54:14.912Z</time>
      </trkpt>
      <trkpt lat="39.01717" lon="-8.95466">
        <ele>5.0</ele>
        <time>2019-05-16T13:54:15.902Z</time>
      </trkpt>
      <trkpt lat="39.01717" lon="-8.95466">
        <ele>5.0</ele>
        <time>2019-05-16T13:54:16.918Z</time>
      </trkpt>
      <trkpt lat="39.01724" lon="-8.95458333">
        <ele>5.0</ele>
        <time>2019-05-16T13:54:17.941Z</time>
      </trkpt>
      <trkpt lat="39.01724" lon="-8.95458333">
        <ele>5.0</ele>
        <time>2019-05-16T13:54:18.910Z</time>
      </trkpt>
      <trkpt lat="39.01732" lon="-8.95450667">
        <ele>6.0</ele>
        <time>2019-05-16T13:54:19.930Z</time>
      </trkpt>
      <trkpt lat="39.017355" lon="-8.95447">
        <ele>6.0</ele>
        <time>2019-05-16T13:54:20.917Z</time>
      </trkpt>
      <trkpt lat="39.017355" lon="-8.95447">
        <ele>6.0</ele>
        <time>2019-05-16T13:54:21.933Z</time>
      </trkpt>
      <trkpt lat="39.017425" lon="-8.95439667">
        <ele>6.0</ele>
        <time>2019-05-16T13:54:22.906Z</time>
      </trkpt>
      <trkpt lat="39.01746" lon="-8.954355">
        <ele>6.0</ele>
        <time>2019-05-16T13:54:23.922Z</time>
      </trkpt>
      <trkpt lat="39.01746" lon="-8.954355">
        <ele>6.0</ele>
        <time>2019-05-16T13:54:24.910Z</time>
      </trkpt>
      <trkpt lat="39.01753" lon="-8.95427667">
        <ele>6.0</ele>
        <time>2019-05-16T13:54:25.929Z</time>
      </trkpt>
      <trkpt lat="39.01753" lon="-8.95427667">
        <ele>6.0</ele>
        <time>2019-05-16T13:54:26.902Z</time>
      </trkpt>
      <trkpt lat="39.01760167" lon="-8.95419833">
        <ele>6.0</ele>
        <time>2019-05-16T13:54:27.924Z</time>
      </trkpt>
      <trkpt lat="39.017635" lon="-8.95416">
        <ele>6.0</ele>
        <time>2019-05-16T13:54:28.921Z</time>
      </trkpt>
      <trkpt lat="39.017635" lon="-8.95416">
        <ele>6.0</ele>
        <time>2019-05-16T13:54:29.900Z</time>
      </trkpt>
      <trkpt lat="39.01770333" lon="-8.954085">
        <ele>5.0</ele>
        <time>2019-05-16T13:54:30.929Z</time>
      </trkpt>
      <trkpt lat="39.01770333" lon="-8.954085">
        <ele>5.0</ele>
        <time>2019-05-16T13:54:31.930Z</time>
      </trkpt>
      <trkpt lat="39.01777" lon="-8.95401333">
        <ele>5.0</ele>
        <time>2019-05-16T13:54:32.934Z</time>
      </trkpt>
      <trkpt lat="39.01777" lon="-8.95401333">
        <ele>5.0</ele>
        <time>2019-05-16T13:54:33.913Z</time>
      </trkpt>
      <trkpt lat="39.01783833" lon="-8.95394">
        <ele>5.0</ele>
        <time>2019-05-16T13:54:34.938Z</time>
      </trkpt>
      <trkpt lat="39.01787" lon="-8.9539">
        <ele>5.0</ele>
        <time>2019-05-16T13:54:35.922Z</time>
      </trkpt>
      <trkpt lat="39.01790333" lon="-8.95386167">
        <ele>5.0</ele>
        <time>2019-05-16T13:54:36.918Z</time>
      </trkpt>
      <trkpt lat="39.01790333" lon="-8.95386167">
        <ele>5.0</ele>
        <time>2019-05-16T13:54:37.904Z</time>
      </trkpt>
      <trkpt lat="39.01797" lon="-8.95378333">
        <ele>5.0</ele>
        <time>2019-05-16T13:54:38.920Z</time>
      </trkpt>
      <trkpt lat="39.01797" lon="-8.95378333">
        <ele>5.0</ele>
        <time>2019-05-16T13:54:39.923Z</time>
      </trkpt>
      <trkpt lat="39.01803833" lon="-8.95370667">
        <ele>5.0</ele>
        <time>2019-05-16T13:54:40.907Z</time>
      </trkpt>
      <trkpt lat="39.01803833" lon="-8.95370667">
        <ele>5.0</ele>
        <time>2019-05-16T13:54:41.933Z</time>
      </trkpt>
      <trkpt lat="39.018105" lon="-8.95362333">
        <ele>4.0</ele>
        <time>2019-05-16T13:54:42.923Z</time>
      </trkpt>
      <trkpt lat="39.018105" lon="-8.95362333">
        <ele>4.0</ele>
        <time>2019-05-16T13:54:43.904Z</time>
      </trkpt>
      <trkpt lat="39.01817167" lon="-8.95354">
        <ele>4.0</ele>
        <time>2019-05-16T13:54:44.920Z</time>
      </trkpt>
      <trkpt lat="39.01820667" lon="-8.95349667">
        <ele>4.0</ele>
        <time>2019-05-16T13:54:45.915Z</time>
      </trkpt>
      <trkpt lat="39.01820667" lon="-8.95349667">
        <ele>4.0</ele>
        <time>2019-05-16T13:54:46.926Z</time>
      </trkpt>
      <trkpt lat="39.01827333" lon="-8.95340833">
        <ele>3.0</ele>
        <time>2019-05-16T13:54:47.900Z</time>
      </trkpt>
      <trkpt lat="39.01830667" lon="-8.953365">
        <ele>3.0</ele>
        <time>2019-05-16T13:54:48.932Z</time>
      </trkpt>
      <trkpt lat="39.01830667" lon="-8.953365">
        <ele>3.0</ele>
        <time>2019-05-16T13:54:49.913Z</time>
      </trkpt>
      <trkpt lat="39.018375" lon="-8.953275">
        <ele>3.0</ele>
        <time>2019-05-16T13:54:50.937Z</time>
      </trkpt>
      <trkpt lat="39.018375" lon="-8.953275">
        <ele>3.0</ele>
        <time>2019-05-16T13:54:51.916Z</time>
      </trkpt>
      <trkpt lat="39.018445" lon="-8.95318667">
        <ele>3.0</ele>
        <time>2019-05-16T13:54:52.904Z</time>
      </trkpt>
      <trkpt lat="39.018445" lon="-8.95318667">
        <ele>3.0</ele>
        <time>2019-05-16T13:54:53.930Z</time>
      </trkpt>
      <trkpt lat="39.018515" lon="-8.953095">
        <ele>3.0</ele>
        <time>2019-05-16T13:54:54.911Z</time>
      </trkpt>
      <trkpt lat="39.01855" lon="-8.95304833">
        <ele>3.0</ele>
        <time>2019-05-16T13:54:55.924Z</time>
      </trkpt>
      <trkpt lat="39.01858333" lon="-8.95300167">
        <ele>3.0</ele>
        <time>2019-05-16T13:54:56.921Z</time>
      </trkpt>
      <trkpt lat="39.01858333" lon="-8.95300167">
        <ele>3.0</ele>
        <time>2019-05-16T13:54:57.920Z</time>
      </trkpt>
      <trkpt lat="39.01865167" lon="-8.95291">
        <ele>3.0</ele>
        <time>2019-05-16T13:54:58.938Z</time>
      </trkpt>
      <trkpt lat="39.01865167" lon="-8.95291">
        <ele>3.0</ele>
        <time>2019-05-16T13:54:59.904Z</time>
      </trkpt>
      <trkpt lat="39.01872167" lon="-8.95281833">
        <ele>3.0</ele>
        <time>2019-05-16T13:55:00.961Z</time>
      </trkpt>
      <trkpt lat="39.018755" lon="-8.95277333">
        <ele>2.0</ele>
        <time>2019-05-16T13:55:01.933Z</time>
      </trkpt>
      <trkpt lat="39.018755" lon="-8.95277333">
        <ele>2.0</ele>
        <time>2019-05-16T13:55:02.935Z</time>
      </trkpt>
      <trkpt lat="39.01882333" lon="-8.95268167">
        <ele>2.0</ele>
        <time>2019-05-16T13:55:03.914Z</time>
      </trkpt>
      <trkpt lat="39.01885667" lon="-8.952635">
        <ele>2.0</ele>
        <time>2019-05-16T13:55:04.926Z</time>
      </trkpt>
      <trkpt lat="39.01885667" lon="-8.952635">
        <ele>2.0</ele>
        <time>2019-05-16T13:55:05.908Z</time>
      </trkpt>
      <trkpt lat="39.018925" lon="-8.952545">
        <ele>2.0</ele>
        <time>2019-05-16T13:55:06.933Z</time>
      </trkpt>
      <trkpt lat="39.018925" lon="-8.952545">
        <ele>2.0</ele>
        <time>2019-05-16T13:55:07.931Z</time>
      </trkpt>
      <trkpt lat="39.01899333" lon="-8.95246">
        <ele>1.0</ele>
        <time>2019-05-16T13:55:08.906Z</time>
      </trkpt>
      <trkpt lat="39.01899333" lon="-8.95246">
        <ele>1.0</ele>
        <time>2019-05-16T13:55:09.928Z</time>
      </trkpt>
      <trkpt lat="39.019055" lon="-8.952375">
        <ele>1.0</ele>
        <time>2019-05-16T13:55:10.911Z</time>
      </trkpt>
      <trkpt lat="39.019055" lon="-8.952375">
        <ele>1.0</ele>
        <time>2019-05-16T13:55:11.937Z</time>
      </trkpt>
      <trkpt lat="39.019115" lon="-8.9523">
        <ele>1.0</ele>
        <time>2019-05-16T13:55:12.921Z</time>
      </trkpt>
      <trkpt lat="39.019115" lon="-8.9523">
        <ele>1.0</ele>
        <time>2019-05-16T13:55:13.901Z</time>
      </trkpt>
      <trkpt lat="39.01917" lon="-8.95223167">
        <ele>1.0</ele>
        <time>2019-05-16T13:55:14.932Z</time>
      </trkpt>
      <trkpt lat="39.01917" lon="-8.95223167">
        <ele>1.0</ele>
        <time>2019-05-16T13:55:15.924Z</time>
      </trkpt>
      <trkpt lat="39.01922" lon="-8.952165">
        <ele>0.0</ele>
        <time>2019-05-16T13:55:16.925Z</time>
      </trkpt>
      <trkpt lat="39.01922" lon="-8.952165">
        <ele>0.0</ele>
        <time>2019-05-16T13:55:17.904Z</time>
      </trkpt>
      <trkpt lat="39.01927167" lon="-8.9521">
        <ele>0.0</ele>
        <time>2019-05-16T13:55:18.926Z</time>
      </trkpt>
      <trkpt lat="39.01927167" lon="-8.9521">
        <ele>0.0</ele>
        <time>2019-05-16T13:55:19.917Z</time>
      </trkpt>
      <trkpt lat="39.01932167" lon="-8.95203">
        <ele>0.0</ele>
        <time>2019-05-16T13:55:20.902Z</time>
      </trkpt>
      <trkpt lat="39.01932167" lon="-8.95203">
        <ele>0.0</ele>
        <time>2019-05-16T13:55:21.927Z</time>
      </trkpt>
      <trkpt lat="39.01937167" lon="-8.95196833">
        <ele>0.0</ele>
        <time>2019-05-16T13:55:22.921Z</time>
      </trkpt>
      <trkpt lat="39.01937167" lon="-8.95196833">
        <ele>0.0</ele>
        <time>2019-05-16T13:55:23.917Z</time>
      </trkpt>
      <trkpt lat="39.01942167" lon="-8.95190833">
        <ele>0.0</ele>
        <time>2019-05-16T13:55:24.898Z</time>
      </trkpt>
      <trkpt lat="39.01942167" lon="-8.95190833">
        <ele>0.0</ele>
        <time>2019-05-16T13:55:25.902Z</time>
      </trkpt>
      <trkpt lat="39.01947167" lon="-8.95184667">
        <ele>0.0</ele>
        <time>2019-05-16T13:55:26.937Z</time>
      </trkpt>
      <trkpt lat="39.01947167" lon="-8.95184667">
        <ele>0.0</ele>
        <time>2019-05-16T13:55:27.923Z</time>
      </trkpt>
      <trkpt lat="39.019525" lon="-8.951785">
        <ele>0.0</ele>
        <time>2019-05-16T13:55:28.907Z</time>
      </trkpt>
      <trkpt lat="39.019525" lon="-8.951785">
        <ele>0.0</ele>
        <time>2019-05-16T13:55:29.914Z</time>
      </trkpt>
      <trkpt lat="39.01958333" lon="-8.95172833">
        <ele>1.0</ele>
        <time>2019-05-16T13:55:30.897Z</time>
      </trkpt>
      <trkpt lat="39.01958333" lon="-8.95172833">
        <ele>1.0</ele>
        <time>2019-05-16T13:55:31.933Z</time>
      </trkpt>
      <trkpt lat="39.01964833" lon="-8.951675">
        <ele>0.0</ele>
        <time>2019-05-16T13:55:32.912Z</time>
      </trkpt>
      <trkpt lat="39.01964833" lon="-8.951675">
        <ele>0.0</ele>
        <time>2019-05-16T13:55:33.926Z</time>
      </trkpt>
      <trkpt lat="39.01970833" lon="-8.95162333">
        <ele>1.0</ele>
        <time>2019-05-16T13:55:34.904Z</time>
      </trkpt>
      <trkpt lat="39.01970833" lon="-8.95162333">
        <ele>1.0</ele>
        <time>2019-05-16T13:55:35.933Z</time>
      </trkpt>
      <trkpt lat="39.01977833" lon="-8.95157667">
        <ele>1.0</ele>
        <time>2019-05-16T13:55:36.918Z</time>
      </trkpt>
      <trkpt lat="39.01977833" lon="-8.95157667">
        <ele>1.0</ele>
        <time>2019-05-16T13:55:37.899Z</time>
      </trkpt>
      <trkpt lat="39.019845" lon="-8.95153">
        <ele>2.0</ele>
        <time>2019-05-16T13:55:38.938Z</time>
      </trkpt>
      <trkpt lat="39.019845" lon="-8.95153">
        <ele>2.0</ele>
        <time>2019-05-16T13:55:39.914Z</time>
      </trkpt>
      <trkpt lat="39.01990833" lon="-8.95148167">
        <ele>2.0</ele>
        <time>2019-05-16T13:55:40.934Z</time>
      </trkpt>
      <trkpt lat="39.01990833" lon="-8.95148167">
        <ele>2.0</ele>
        <time>2019-05-16T13:55:41.932Z</time>
      </trkpt>
      <trkpt lat="39.01997" lon="-8.95143333">
        <ele>3.0</ele>
        <time>2019-05-16T13:55:42.911Z</time>
      </trkpt>
      <trkpt lat="39.01997" lon="-8.95143333">
        <ele>3.0</ele>
        <time>2019-05-16T13:55:43.913Z</time>
      </trkpt>
      <trkpt lat="39.020025" lon="-8.95138333">
        <ele>3.0</ele>
        <time>2019-05-16T13:55:44.897Z</time>
      </trkpt>
      <trkpt lat="39.020025" lon="-8.95138333">
        <ele>3.0</ele>
        <time>2019-05-16T13:55:45.904Z</time>
      </trkpt>
      <trkpt lat="39.020075" lon="-8.95132333">
        <ele>4.0</ele>
        <time>2019-05-16T13:55:46.931Z</time>
      </trkpt>
      <trkpt lat="39.020075" lon="-8.95132333">
        <ele>4.0</ele>
        <time>2019-05-16T13:55:47.913Z</time>
      </trkpt>
      <trkpt lat="39.020125" lon="-8.95125667">
        <ele>4.0</ele>
        <time>2019-05-16T13:55:48.940Z</time>
      </trkpt>
      <trkpt lat="39.02015167" lon="-8.951225">
        <ele>4.0</ele>
        <time>2019-05-16T13:55:49.929Z</time>
      </trkpt>
      <trkpt lat="39.02018" lon="-8.951195">
        <ele>4.0</ele>
        <time>2019-05-16T13:55:50.901Z</time>
      </trkpt>
      <trkpt lat="39.02018" lon="-8.951195">
        <ele>4.0</ele>
        <time>2019-05-16T13:55:51.933Z</time>
      </trkpt>
      <trkpt lat="39.02023833" lon="-8.951135">
        <ele>4.0</ele>
        <time>2019-05-16T13:55:52.929Z</time>
      </trkpt>
      <trkpt lat="39.02023833" lon="-8.951135">
        <ele>4.0</ele>
        <time>2019-05-16T13:55:53.904Z</time>
      </trkpt>
      <trkpt lat="39.02029" lon="-8.95107">
        <ele>4.0</ele>
        <time>2019-05-16T13:55:54.933Z</time>
      </trkpt>
      <trkpt lat="39.02029" lon="-8.95107">
        <ele>4.0</ele>
        <time>2019-05-16T13:55:55.931Z</time>
      </trkpt>
      <trkpt lat="39.020345" lon="-8.951005">
        <ele>4.0</ele>
        <time>2019-05-16T13:55:56.914Z</time>
      </trkpt>
      <trkpt lat="39.020345" lon="-8.951005">
        <ele>4.0</ele>
        <time>2019-05-16T13:55:57.933Z</time>
      </trkpt>
      <trkpt lat="39.0204" lon="-8.95094">
        <ele>4.0</ele>
        <time>2019-05-16T13:55:58.914Z</time>
      </trkpt>
      <trkpt lat="39.0204" lon="-8.95094">
        <ele>4.0</ele>
        <time>2019-05-16T13:55:59.898Z</time>
      </trkpt>
      <trkpt lat="39.02045833" lon="-8.95087333">
        <ele>4.0</ele>
        <time>2019-05-16T13:56:00.931Z</time>
      </trkpt>
      <trkpt lat="39.02045833" lon="-8.95087333">
        <ele>4.0</ele>
        <time>2019-05-16T13:56:01.930Z</time>
      </trkpt>
      <trkpt lat="39.02051333" lon="-8.95080667">
        <ele>3.0</ele>
        <time>2019-05-16T13:56:02.909Z</time>
      </trkpt>
      <trkpt lat="39.02051333" lon="-8.95080667">
        <ele>3.0</ele>
        <time>2019-05-16T13:56:03.923Z</time>
      </trkpt>
      <trkpt lat="39.02056667" lon="-8.95074167">
        <ele>3.0</ele>
        <time>2019-05-16T13:56:04.903Z</time>
      </trkpt>
      <trkpt lat="39.02056667" lon="-8.95074167">
        <ele>3.0</ele>
        <time>2019-05-16T13:56:05.913Z</time>
      </trkpt>
      <trkpt lat="39.02062" lon="-8.950675">
        <ele>3.0</ele>
        <time>2019-05-16T13:56:06.934Z</time>
      </trkpt>
      <trkpt lat="39.02062" lon="-8.950675">
        <ele>3.0</ele>
        <time>2019-05-16T13:56:07.909Z</time>
      </trkpt>
      <trkpt lat="39.020675" lon="-8.95060833">
        <ele>2.0</ele>
        <time>2019-05-16T13:56:08.932Z</time>
      </trkpt>
      <trkpt lat="39.020675" lon="-8.95060833">
        <ele>2.0</ele>
        <time>2019-05-16T13:56:09.923Z</time>
      </trkpt>
      <trkpt lat="39.02073" lon="-8.95054167">
        <ele>2.0</ele>
        <time>2019-05-16T13:56:10.905Z</time>
      </trkpt>
      <trkpt lat="39.02073" lon="-8.95054167">
        <ele>2.0</ele>
        <time>2019-05-16T13:56:11.915Z</time>
      </trkpt>
      <trkpt lat="39.020785" lon="-8.95047667">
        <ele>2.0</ele>
        <time>2019-05-16T13:56:12.939Z</time>
      </trkpt>
      <trkpt lat="39.020785" lon="-8.95047667">
        <ele>2.0</ele>
        <time>2019-05-16T13:56:13.911Z</time>
      </trkpt>
      <trkpt lat="39.02084" lon="-8.95041">
        <ele>2.0</ele>
        <time>2019-05-16T13:56:14.905Z</time>
      </trkpt>
      <trkpt lat="39.02084" lon="-8.95041">
        <ele>2.0</ele>
        <time>2019-05-16T13:56:15.918Z</time>
      </trkpt>
      <trkpt lat="39.02089667" lon="-8.95034333">
        <ele>1.0</ele>
        <time>2019-05-16T13:56:16.941Z</time>
      </trkpt>
      <trkpt lat="39.02089667" lon="-8.95034333">
        <ele>1.0</ele>
        <time>2019-05-16T13:56:17.897Z</time>
      </trkpt>
      <trkpt lat="39.02095333" lon="-8.95027833">
        <ele>1.0</ele>
        <time>2019-05-16T13:56:18.925Z</time>
      </trkpt>
      <trkpt lat="39.02095333" lon="-8.95027833">
        <ele>1.0</ele>
        <time>2019-05-16T13:56:19.922Z</time>
      </trkpt>
      <trkpt lat="39.02100667" lon="-8.950215">
        <ele>1.0</ele>
        <time>2019-05-16T13:56:20.937Z</time>
      </trkpt>
      <trkpt lat="39.02100667" lon="-8.950215">
        <ele>1.0</ele>
        <time>2019-05-16T13:56:21.911Z</time>
      </trkpt>
      <trkpt lat="39.02106" lon="-8.95015167">
        <ele>1.0</ele>
        <time>2019-05-16T13:56:22.926Z</time>
      </trkpt>
      <trkpt lat="39.02106" lon="-8.95015167">
        <ele>1.0</ele>
        <time>2019-05-16T13:56:23.902Z</time>
      </trkpt>
      <trkpt lat="39.02111167" lon="-8.95009167">
        <ele>1.0</ele>
        <time>2019-05-16T13:56:24.927Z</time>
      </trkpt>
      <trkpt lat="39.02111167" lon="-8.95009167">
        <ele>1.0</ele>
        <time>2019-05-16T13:56:25.924Z</time>
      </trkpt>
      <trkpt lat="39.021165" lon="-8.95002667">
        <ele>0.0</ele>
        <time>2019-05-16T13:56:26.898Z</time>
      </trkpt>
      <trkpt lat="39.021165" lon="-8.95002667">
        <ele>0.0</ele>
        <time>2019-05-16T13:56:27.914Z</time>
      </trkpt>
      <trkpt lat="39.02121833" lon="-8.94996167">
        <ele>0.0</ele>
        <time>2019-05-16T13:56:28.932Z</time>
      </trkpt>
      <trkpt lat="39.02121833" lon="-8.94996167">
        <ele>0.0</ele>
        <time>2019-05-16T13:56:29.897Z</time>
      </trkpt>
      <trkpt lat="39.02127" lon="-8.94989833">
        <ele>0.0</ele>
        <time>2019-05-16T13:56:30.920Z</time>
      </trkpt>
      <trkpt lat="39.02127" lon="-8.94989833">
        <ele>0.0</ele>
        <time>2019-05-16T13:56:31.905Z</time>
      </trkpt>
      <trkpt lat="39.02132333" lon="-8.949835">
        <ele>0.0</ele>
        <time>2019-05-16T13:56:32.935Z</time>
      </trkpt>
      <trkpt lat="39.02132333" lon="-8.949835">
        <ele>0.0</ele>
        <time>2019-05-16T13:56:33.919Z</time>
      </trkpt>
      <trkpt lat="39.02137667" lon="-8.94977">
        <ele>0.0</ele>
        <time>2019-05-16T13:56:34.932Z</time>
      </trkpt>
      <trkpt lat="39.02137667" lon="-8.94977">
        <ele>0.0</ele>
        <time>2019-05-16T13:56:35.911Z</time>
      </trkpt>
      <trkpt lat="39.02143167" lon="-8.949705">
        <ele>0.0</ele>
        <time>2019-05-16T13:56:36.903Z</time>
      </trkpt>
      <trkpt lat="39.02143167" lon="-8.949705">
        <ele>0.0</ele>
        <time>2019-05-16T13:56:37.933Z</time>
      </trkpt>
      <trkpt lat="39.02148667" lon="-8.94964">
        <ele>0.0</ele>
        <time>2019-05-16T13:56:38.909Z</time>
      </trkpt>
      <trkpt lat="39.021515" lon="-8.949605">
        <ele>0.0</ele>
        <time>2019-05-16T13:56:39.921Z</time>
      </trkpt>
      <trkpt lat="39.021515" lon="-8.949605">
        <ele>0.0</ele>
        <time>2019-05-16T13:56:40.911Z</time>
      </trkpt>
      <trkpt lat="39.02157333" lon="-8.94953667">
        <ele>-1.0</ele>
        <time>2019-05-16T13:56:41.931Z</time>
      </trkpt>
      <trkpt lat="39.02157333" lon="-8.94953667">
        <ele>-1.0</ele>
        <time>2019-05-16T13:56:42.898Z</time>
      </trkpt>
      <trkpt lat="39.02163" lon="-8.94947">
        <ele>-1.0</ele>
        <time>2019-05-16T13:56:43.927Z</time>
      </trkpt>
      <trkpt lat="39.02165833" lon="-8.94943667">
        <ele>-1.0</ele>
        <time>2019-05-16T13:56:44.898Z</time>
      </trkpt>
      <trkpt lat="39.02165833" lon="-8.94943667">
        <ele>-1.0</ele>
        <time>2019-05-16T13:56:45.923Z</time>
      </trkpt>
      <trkpt lat="39.021715" lon="-8.94936833">
        <ele>-1.0</ele>
        <time>2019-05-16T13:56:46.902Z</time>
      </trkpt>
      <trkpt lat="39.021745" lon="-8.94933333">
        <ele>-1.0</ele>
        <time>2019-05-16T13:56:47.910Z</time>
      </trkpt>
      <trkpt lat="39.021745" lon="-8.94933333">
        <ele>-1.0</ele>
        <time>2019-05-16T13:56:48.913Z</time>
      </trkpt>
      <trkpt lat="39.02180333" lon="-8.94926167">
        <ele>-1.0</ele>
        <time>2019-05-16T13:56:49.902Z</time>
      </trkpt>
      <trkpt lat="39.02183167" lon="-8.94922667">
        <ele>-1.0</ele>
        <time>2019-05-16T13:56:50.933Z</time>
      </trkpt>
      <trkpt lat="39.02183167" lon="-8.94922667">
        <ele>-1.0</ele>
        <time>2019-05-16T13:56:51.904Z</time>
      </trkpt>
      <trkpt lat="39.02188667" lon="-8.94916167">
        <ele>-1.0</ele>
        <time>2019-05-16T13:56:52.901Z</time>
      </trkpt>
      <trkpt lat="39.02188667" lon="-8.94916167">
        <ele>-1.0</ele>
        <time>2019-05-16T13:56:53.933Z</time>
      </trkpt>
      <trkpt lat="39.02194" lon="-8.94909833">
        <ele>-1.0</ele>
        <time>2019-05-16T13:56:54.921Z</time>
      </trkpt>
      <trkpt lat="39.02194" lon="-8.94909833">
        <ele>-1.0</ele>
        <time>2019-05-16T13:56:55.917Z</time>
      </trkpt>
      <trkpt lat="39.02199667" lon="-8.94903167">
        <ele>-1.0</ele>
        <time>2019-05-16T13:56:56.900Z</time>
      </trkpt>
      <trkpt lat="39.02199667" lon="-8.94903167">
        <ele>-1.0</ele>
        <time>2019-05-16T13:56:57.915Z</time>
      </trkpt>
      <trkpt lat="39.022055" lon="-8.94896167">
        <ele>-1.0</ele>
        <time>2019-05-16T13:56:58.898Z</time>
      </trkpt>
      <trkpt lat="39.022055" lon="-8.94896167">
        <ele>-1.0</ele>
        <time>2019-05-16T13:56:59.922Z</time>
      </trkpt>
      <trkpt lat="39.022115" lon="-8.94889167">
        <ele>-1.0</ele>
        <time>2019-05-16T13:57:00.910Z</time>
      </trkpt>
      <trkpt lat="39.022115" lon="-8.94889167">
        <ele>-1.0</ele>
        <time>2019-05-16T13:57:01.922Z</time>
      </trkpt>
      <trkpt lat="39.02217333" lon="-8.94882">
        <ele>-1.0</ele>
        <time>2019-05-16T13:57:02.903Z</time>
      </trkpt>
      <trkpt lat="39.02217333" lon="-8.94882">
        <ele>-1.0</ele>
        <time>2019-05-16T13:57:03.900Z</time>
      </trkpt>
      <trkpt lat="39.02223333" lon="-8.94875">
        <ele>-2.0</ele>
        <time>2019-05-16T13:57:04.926Z</time>
      </trkpt>
      <trkpt lat="39.02223333" lon="-8.94875">
        <ele>-2.0</ele>
        <time>2019-05-16T13:57:05.898Z</time>
      </trkpt>
      <trkpt lat="39.02229333" lon="-8.94868167">
        <ele>-2.0</ele>
        <time>2019-05-16T13:57:06.940Z</time>
      </trkpt>
      <trkpt lat="39.02229333" lon="-8.94868167">
        <ele>-2.0</ele>
        <time>2019-05-16T13:57:07.924Z</time>
      </trkpt>
      <trkpt lat="39.02235333" lon="-8.94861">
        <ele>-2.0</ele>
        <time>2019-05-16T13:57:08.904Z</time>
      </trkpt>
      <trkpt lat="39.02235333" lon="-8.94861">
        <ele>-2.0</ele>
        <time>2019-05-16T13:57:09.900Z</time>
      </trkpt>
      <trkpt lat="39.02241333" lon="-8.94854">
        <ele>-2.0</ele>
        <time>2019-05-16T13:57:10.943Z</time>
      </trkpt>
      <trkpt lat="39.02241333" lon="-8.94854">
        <ele>-2.0</ele>
        <time>2019-05-16T13:57:11.921Z</time>
      </trkpt>
      <trkpt lat="39.02247333" lon="-8.94846667">
        <ele>-2.0</ele>
        <time>2019-05-16T13:57:12.898Z</time>
      </trkpt>
      <trkpt lat="39.02247333" lon="-8.94846667">
        <ele>-2.0</ele>
        <time>2019-05-16T13:57:13.928Z</time>
      </trkpt>
      <trkpt lat="39.02253333" lon="-8.948395">
        <ele>-2.0</ele>
        <time>2019-05-16T13:57:14.909Z</time>
      </trkpt>
      <trkpt lat="39.02253333" lon="-8.948395">
        <ele>-2.0</ele>
        <time>2019-05-16T13:57:15.933Z</time>
      </trkpt>
      <trkpt lat="39.02259167" lon="-8.94832833">
        <ele>-2.0</ele>
        <time>2019-05-16T13:57:16.915Z</time>
      </trkpt>
      <trkpt lat="39.02259167" lon="-8.94832833">
        <ele>-2.0</ele>
        <time>2019-05-16T13:57:17.899Z</time>
      </trkpt>
      <trkpt lat="39.02264833" lon="-8.94825667">
        <ele>-2.0</ele>
        <time>2019-05-16T13:57:18.936Z</time>
      </trkpt>
      <trkpt lat="39.02264833" lon="-8.94825667">
        <ele>-2.0</ele>
        <time>2019-05-16T13:57:19.915Z</time>
      </trkpt>
      <trkpt lat="39.02270667" lon="-8.948185">
        <ele>-2.0</ele>
        <time>2019-05-16T13:57:20.908Z</time>
      </trkpt>
      <trkpt lat="39.02270667" lon="-8.948185">
        <ele>-2.0</ele>
        <time>2019-05-16T13:57:21.912Z</time>
      </trkpt>
      <trkpt lat="39.02276833" lon="-8.94811333">
        <ele>-2.0</ele>
        <time>2019-05-16T13:57:22.897Z</time>
      </trkpt>
      <trkpt lat="39.02276833" lon="-8.94811333">
        <ele>-2.0</ele>
        <time>2019-05-16T13:57:23.930Z</time>
      </trkpt>
      <trkpt lat="39.02282667" lon="-8.94804167">
        <ele>-2.0</ele>
        <time>2019-05-16T13:57:24.906Z</time>
      </trkpt>
      <trkpt lat="39.02282667" lon="-8.94804167">
        <ele>-2.0</ele>
        <time>2019-05-16T13:57:25.923Z</time>
      </trkpt>
      <trkpt lat="39.02288667" lon="-8.94797167">
        <ele>-2.0</ele>
        <time>2019-05-16T13:57:26.934Z</time>
      </trkpt>
      <trkpt lat="39.02288667" lon="-8.94797167">
        <ele>-2.0</ele>
        <time>2019-05-16T13:57:27.903Z</time>
      </trkpt>
      <trkpt lat="39.02294667" lon="-8.94789833">
        <ele>-2.0</ele>
        <time>2019-05-16T13:57:28.937Z</time>
      </trkpt>
      <trkpt lat="39.02294667" lon="-8.94789833">
        <ele>-2.0</ele>
        <time>2019-05-16T13:57:29.911Z</time>
      </trkpt>
      <trkpt lat="39.02300667" lon="-8.94782333">
        <ele>-2.0</ele>
        <time>2019-05-16T13:57:30.911Z</time>
      </trkpt>
      <trkpt lat="39.02300667" lon="-8.94782333">
        <ele>-2.0</ele>
        <time>2019-05-16T13:57:31.897Z</time>
      </trkpt>
      <trkpt lat="39.02306667" lon="-8.94775333">
        <ele>-2.0</ele>
        <time>2019-05-16T13:57:32.931Z</time>
      </trkpt>
      <trkpt lat="39.02306667" lon="-8.94775333">
        <ele>-2.0</ele>
        <time>2019-05-16T13:57:33.916Z</time>
      </trkpt>
      <trkpt lat="39.02313" lon="-8.94768167">
        <ele>-2.0</ele>
        <time>2019-05-16T13:57:34.912Z</time>
      </trkpt>
      <trkpt lat="39.02313" lon="-8.94768167">
        <ele>-2.0</ele>
        <time>2019-05-16T13:57:35.933Z</time>
      </trkpt>
      <trkpt lat="39.02318833" lon="-8.94761167">
        <ele>-2.0</ele>
        <time>2019-05-16T13:57:36.910Z</time>
      </trkpt>
      <trkpt lat="39.02318833" lon="-8.94761167">
        <ele>-2.0</ele>
        <time>2019-05-16T13:57:37.913Z</time>
      </trkpt>
      <trkpt lat="39.023245" lon="-8.947545">
        <ele>-2.0</ele>
        <time>2019-05-16T13:57:38.935Z</time>
      </trkpt>
      <trkpt lat="39.023245" lon="-8.947545">
        <ele>-2.0</ele>
        <time>2019-05-16T13:57:39.934Z</time>
      </trkpt>
      <trkpt lat="39.02329833" lon="-8.94748167">
        <ele>-2.0</ele>
        <time>2019-05-16T13:57:40.906Z</time>
      </trkpt>
      <trkpt lat="39.02329833" lon="-8.94748167">
        <ele>-2.0</ele>
        <time>2019-05-16T13:57:41.913Z</time>
      </trkpt>
      <trkpt lat="39.02334833" lon="-8.94742167">
        <ele>-2.0</ele>
        <time>2019-05-16T13:57:42.898Z</time>
      </trkpt>
      <trkpt lat="39.02334833" lon="-8.94742167">
        <ele>-2.0</ele>
        <time>2019-05-16T13:57:43.911Z</time>
      </trkpt>
      <trkpt lat="39.0234" lon="-8.94736167">
        <ele>-2.0</ele>
        <time>2019-05-16T13:57:44.939Z</time>
      </trkpt>
      <trkpt lat="39.0234" lon="-8.94736167">
        <ele>-2.0</ele>
        <time>2019-05-16T13:57:45.913Z</time>
      </trkpt>
      <trkpt lat="39.02345167" lon="-8.9473">
        <ele>-2.0</ele>
        <time>2019-05-16T13:57:46.932Z</time>
      </trkpt>
      <trkpt lat="39.02345167" lon="-8.9473">
        <ele>-2.0</ele>
        <time>2019-05-16T13:57:47.913Z</time>
      </trkpt>
      <trkpt lat="39.02350333" lon="-8.94723667">
        <ele>-2.0</ele>
        <time>2019-05-16T13:57:48.934Z</time>
      </trkpt>
      <trkpt lat="39.02350333" lon="-8.94723667">
        <ele>-2.0</ele>
        <time>2019-05-16T13:57:49.913Z</time>
      </trkpt>
      <trkpt lat="39.02355667" lon="-8.94717167">
        <ele>-3.0</ele>
        <time>2019-05-16T13:57:50.900Z</time>
      </trkpt>
      <trkpt lat="39.02355667" lon="-8.94717167">
        <ele>-3.0</ele>
        <time>2019-05-16T13:57:51.936Z</time>
      </trkpt>
      <trkpt lat="39.02361" lon="-8.94710667">
        <ele>-3.0</ele>
        <time>2019-05-16T13:57:52.918Z</time>
      </trkpt>
      <trkpt lat="39.02361" lon="-8.94710667">
        <ele>-3.0</ele>
        <time>2019-05-16T13:57:53.932Z</time>
      </trkpt>
      <trkpt lat="39.02366333" lon="-8.947045">
        <ele>-3.0</ele>
        <time>2019-05-16T13:57:54.936Z</time>
      </trkpt>
      <trkpt lat="39.02369" lon="-8.94701333">
        <ele>-3.0</ele>
        <time>2019-05-16T13:57:55.914Z</time>
      </trkpt>
      <trkpt lat="39.023715" lon="-8.94698167">
        <ele>-3.0</ele>
        <time>2019-05-16T13:57:56.907Z</time>
      </trkpt>
      <trkpt lat="39.023715" lon="-8.94698167">
        <ele>-3.0</ele>
        <time>2019-05-16T13:57:57.933Z</time>
      </trkpt>
      <trkpt lat="39.02376833" lon="-8.94691833">
        <ele>-3.0</ele>
        <time>2019-05-16T13:57:58.907Z</time>
      </trkpt>
      <trkpt lat="39.02376833" lon="-8.94691833">
        <ele>-3.0</ele>
        <time>2019-05-16T13:57:59.904Z</time>
      </trkpt>
      <trkpt lat="39.02382" lon="-8.946855">
        <ele>-3.0</ele>
        <time>2019-05-16T13:58:00.932Z</time>
      </trkpt>
      <trkpt lat="39.02382" lon="-8.946855">
        <ele>-3.0</ele>
        <time>2019-05-16T13:58:01.933Z</time>
      </trkpt>
      <trkpt lat="39.02387333" lon="-8.94679">
        <ele>-3.0</ele>
        <time>2019-05-16T13:58:02.925Z</time>
      </trkpt>
      <trkpt lat="39.02387333" lon="-8.94679">
        <ele>-3.0</ele>
        <time>2019-05-16T13:58:03.916Z</time>
      </trkpt>
      <trkpt lat="39.02392667" lon="-8.94672667">
        <ele>-3.0</ele>
        <time>2019-05-16T13:58:04.913Z</time>
      </trkpt>
      <trkpt lat="39.02392667" lon="-8.94672667">
        <ele>-3.0</ele>
        <time>2019-05-16T13:58:05.912Z</time>
      </trkpt>
      <trkpt lat="39.02398" lon="-8.94666333">
        <ele>-3.0</ele>
        <time>2019-05-16T13:58:06.928Z</time>
      </trkpt>
      <trkpt lat="39.02398" lon="-8.94666333">
        <ele>-3.0</ele>
        <time>2019-05-16T13:58:07.914Z</time>
      </trkpt>
      <trkpt lat="39.02403333" lon="-8.9466">
        <ele>-3.0</ele>
        <time>2019-05-16T13:58:08.936Z</time>
      </trkpt>
      <trkpt lat="39.02403333" lon="-8.9466">
        <ele>-3.0</ele>
        <time>2019-05-16T13:58:09.908Z</time>
      </trkpt>
      <trkpt lat="39.02408667" lon="-8.94653833">
        <ele>-3.0</ele>
        <time>2019-05-16T13:58:10.929Z</time>
      </trkpt>
      <trkpt lat="39.02408667" lon="-8.94653833">
        <ele>-3.0</ele>
        <time>2019-05-16T13:58:11.917Z</time>
      </trkpt>
      <trkpt lat="39.02413833" lon="-8.94647667">
        <ele>-3.0</ele>
        <time>2019-05-16T13:58:12.938Z</time>
      </trkpt>
      <trkpt lat="39.02413833" lon="-8.94647667">
        <ele>-3.0</ele>
        <time>2019-05-16T13:58:13.897Z</time>
      </trkpt>
      <trkpt lat="39.02419" lon="-8.946415">
        <ele>-4.0</ele>
        <time>2019-05-16T13:58:14.919Z</time>
      </trkpt>
      <trkpt lat="39.02419" lon="-8.946415">
        <ele>-4.0</ele>
        <time>2019-05-16T13:58:15.910Z</time>
      </trkpt>
      <trkpt lat="39.02424167" lon="-8.94635667">
        <ele>-4.0</ele>
        <time>2019-05-16T13:58:16.932Z</time>
      </trkpt>
      <trkpt lat="39.02424167" lon="-8.94635667">
        <ele>-4.0</ele>
        <time>2019-05-16T13:58:17.908Z</time>
      </trkpt>
      <trkpt lat="39.024295" lon="-8.94629667">
        <ele>-4.0</ele>
        <time>2019-05-16T13:58:18.929Z</time>
      </trkpt>
      <trkpt lat="39.024295" lon="-8.94629667">
        <ele>-4.0</ele>
        <time>2019-05-16T13:58:19.898Z</time>
      </trkpt>
      <trkpt lat="39.02434833" lon="-8.94624333">
        <ele>-4.0</ele>
        <time>2019-05-16T13:58:20.902Z</time>
      </trkpt>
      <trkpt lat="39.02434833" lon="-8.94624333">
        <ele>-4.0</ele>
        <time>2019-05-16T13:58:21.915Z</time>
      </trkpt>
      <trkpt lat="39.02439833" lon="-8.94618833">
        <ele>-4.0</ele>
        <time>2019-05-16T13:58:22.899Z</time>
      </trkpt>
      <trkpt lat="39.02442167" lon="-8.94615833">
        <ele>-3.0</ele>
        <time>2019-05-16T13:58:23.941Z</time>
      </trkpt>
      <trkpt lat="39.02442167" lon="-8.94615833">
        <ele>-3.0</ele>
        <time>2019-05-16T13:58:24.918Z</time>
      </trkpt>
      <trkpt lat="39.02447667" lon="-8.94609833">
        <ele>-3.0</ele>
        <time>2019-05-16T13:58:25.902Z</time>
      </trkpt>
      <trkpt lat="39.024505" lon="-8.94606833">
        <ele>-3.0</ele>
        <time>2019-05-16T13:58:26.911Z</time>
      </trkpt>
      <trkpt lat="39.024505" lon="-8.94606833">
        <ele>-3.0</ele>
        <time>2019-05-16T13:58:27.905Z</time>
      </trkpt>
      <trkpt lat="39.02456" lon="-8.94600667">
        <ele>-3.0</ele>
        <time>2019-05-16T13:58:28.936Z</time>
      </trkpt>
      <trkpt lat="39.02456" lon="-8.94600667">
        <ele>-3.0</ele>
        <time>2019-05-16T13:58:29.917Z</time>
      </trkpt>
      <trkpt lat="39.02461667" lon="-8.94594833">
        <ele>-3.0</ele>
        <time>2019-05-16T13:58:30.918Z</time>
      </trkpt>
      <trkpt lat="39.02461667" lon="-8.94594833">
        <ele>-3.0</ele>
        <time>2019-05-16T13:58:31.911Z</time>
      </trkpt>
      <trkpt lat="39.02467333" lon="-8.94589167">
        <ele>-3.0</ele>
        <time>2019-05-16T13:58:32.937Z</time>
      </trkpt>
      <trkpt lat="39.02467333" lon="-8.94589167">
        <ele>-3.0</ele>
        <time>2019-05-16T13:58:33.933Z</time>
      </trkpt>
      <trkpt lat="39.02473" lon="-8.94582667">
        <ele>-3.0</ele>
        <time>2019-05-16T13:58:34.916Z</time>
      </trkpt>
      <trkpt lat="39.02473" lon="-8.94582667">
        <ele>-3.0</ele>
        <time>2019-05-16T13:58:35.914Z</time>
      </trkpt>
      <trkpt lat="39.02478667" lon="-8.94576167">
        <ele>-3.0</ele>
        <time>2019-05-16T13:58:36.933Z</time>
      </trkpt>
      <trkpt lat="39.02481667" lon="-8.94573167">
        <ele>-2.0</ele>
        <time>2019-05-16T13:58:37.933Z</time>
      </trkpt>
      <trkpt lat="39.02484333" lon="-8.94570167">
        <ele>-2.0</ele>
        <time>2019-05-16T13:58:38.940Z</time>
      </trkpt>
      <trkpt lat="39.02484333" lon="-8.94570167">
        <ele>-2.0</ele>
        <time>2019-05-16T13:58:39.915Z</time>
      </trkpt>
      <trkpt lat="39.02489333" lon="-8.94564667">
        <ele>-1.0</ele>
        <time>2019-05-16T13:58:40.926Z</time>
      </trkpt>
      <trkpt lat="39.02489333" lon="-8.94564667">
        <ele>-1.0</ele>
        <time>2019-05-16T13:58:41.910Z</time>
      </trkpt>
      <trkpt lat="39.02494167" lon="-8.94559">
        <ele>-1.0</ele>
        <time>2019-05-16T13:58:42.941Z</time>
      </trkpt>
      <trkpt lat="39.02494167" lon="-8.94559">
        <ele>-1.0</ele>
        <time>2019-05-16T13:58:43.932Z</time>
      </trkpt>
      <trkpt lat="39.02499333" lon="-8.94553167">
        <ele>0.0</ele>
        <time>2019-05-16T13:58:44.916Z</time>
      </trkpt>
      <trkpt lat="39.02499333" lon="-8.94553167">
        <ele>0.0</ele>
        <time>2019-05-16T13:58:45.923Z</time>
      </trkpt>
      <trkpt lat="39.02504667" lon="-8.94547">
        <ele>0.0</ele>
        <time>2019-05-16T13:58:46.908Z</time>
      </trkpt>
      <trkpt lat="39.02504667" lon="-8.94547">
        <ele>0.0</ele>
        <time>2019-05-16T13:58:47.914Z</time>
      </trkpt>
      <trkpt lat="39.02510167" lon="-8.9454">
        <ele>0.0</ele>
        <time>2019-05-16T13:58:48.899Z</time>
      </trkpt>
      <trkpt lat="39.02510167" lon="-8.9454">
        <ele>0.0</ele>
        <time>2019-05-16T13:58:49.922Z</time>
      </trkpt>
      <trkpt lat="39.02516167" lon="-8.94534">
        <ele>1.0</ele>
        <time>2019-05-16T13:58:50.917Z</time>
      </trkpt>
      <trkpt lat="39.02516167" lon="-8.94534">
        <ele>1.0</ele>
        <time>2019-05-16T13:58:51.898Z</time>
      </trkpt>
      <trkpt lat="39.02522" lon="-8.94527333">
        <ele>1.0</ele>
        <time>2019-05-16T13:58:52.929Z</time>
      </trkpt>
      <trkpt lat="39.02522" lon="-8.94527333">
        <ele>1.0</ele>
        <time>2019-05-16T13:58:53.922Z</time>
      </trkpt>
      <trkpt lat="39.025275" lon="-8.94520667">
        <ele>2.0</ele>
        <time>2019-05-16T13:58:54.917Z</time>
      </trkpt>
      <trkpt lat="39.025275" lon="-8.94520667">
        <ele>2.0</ele>
        <time>2019-05-16T13:58:55.898Z</time>
      </trkpt>
      <trkpt lat="39.02533667" lon="-8.94513667">
        <ele>2.0</ele>
        <time>2019-05-16T13:58:56.924Z</time>
      </trkpt>
      <trkpt lat="39.02533667" lon="-8.94513667">
        <ele>2.0</ele>
        <time>2019-05-16T13:58:57.936Z</time>
      </trkpt>
      <trkpt lat="39.02539667" lon="-8.94506667">
        <ele>2.0</ele>
        <time>2019-05-16T13:58:58.933Z</time>
      </trkpt>
      <trkpt lat="39.02539667" lon="-8.94506667">
        <ele>2.0</ele>
        <time>2019-05-16T13:58:59.913Z</time>
      </trkpt>
      <trkpt lat="39.02545667" lon="-8.94499667">
        <ele>1.0</ele>
        <time>2019-05-16T13:59:00.940Z</time>
      </trkpt>
      <trkpt lat="39.02548667" lon="-8.94496">
        <ele>1.0</ele>
        <time>2019-05-16T13:59:01.927Z</time>
      </trkpt>
      <trkpt lat="39.025515" lon="-8.94492333">
        <ele>1.0</ele>
        <time>2019-05-16T13:59:02.931Z</time>
      </trkpt>
      <trkpt lat="39.025515" lon="-8.94492333">
        <ele>1.0</ele>
        <time>2019-05-16T13:59:03.911Z</time>
      </trkpt>
      <trkpt lat="39.025575" lon="-8.94485167">
        <ele>1.0</ele>
        <time>2019-05-16T13:59:04.937Z</time>
      </trkpt>
      <trkpt lat="39.02560333" lon="-8.94481667">
        <ele>1.0</ele>
        <time>2019-05-16T13:59:05.908Z</time>
      </trkpt>
      <trkpt lat="39.02560333" lon="-8.94481667">
        <ele>1.0</ele>
        <time>2019-05-16T13:59:06.898Z</time>
      </trkpt>
      <trkpt lat="39.02566167" lon="-8.94475">
        <ele>1.0</ele>
        <time>2019-05-16T13:59:07.940Z</time>
      </trkpt>
      <trkpt lat="39.02569" lon="-8.94471833">
        <ele>1.0</ele>
        <time>2019-05-16T13:59:08.911Z</time>
      </trkpt>
      <trkpt lat="39.02569" lon="-8.94471833">
        <ele>1.0</ele>
        <time>2019-05-16T13:59:09.917Z</time>
      </trkpt>
      <trkpt lat="39.02574667" lon="-8.944655">
        <ele>1.0</ele>
        <time>2019-05-16T13:59:10.901Z</time>
      </trkpt>
      <trkpt lat="39.02574667" lon="-8.944655">
        <ele>1.0</ele>
        <time>2019-05-16T13:59:11.924Z</time>
      </trkpt>
      <trkpt lat="39.0258" lon="-8.94459167">
        <ele>1.0</ele>
        <time>2019-05-16T13:59:12.906Z</time>
      </trkpt>
      <trkpt lat="39.0258" lon="-8.94459167">
        <ele>1.0</ele>
        <time>2019-05-16T13:59:13.913Z</time>
      </trkpt>
      <trkpt lat="39.025855" lon="-8.94453167">
        <ele>1.0</ele>
        <time>2019-05-16T13:59:14.902Z</time>
      </trkpt>
      <trkpt lat="39.025855" lon="-8.94453167">
        <ele>1.0</ele>
        <time>2019-05-16T13:59:15.932Z</time>
      </trkpt>
      <trkpt lat="39.02590833" lon="-8.94446667">
        <ele>1.0</ele>
        <time>2019-05-16T13:59:16.911Z</time>
      </trkpt>
      <trkpt lat="39.02590833" lon="-8.94446667">
        <ele>1.0</ele>
        <time>2019-05-16T13:59:17.899Z</time>
      </trkpt>
      <trkpt lat="39.02596833" lon="-8.94440333">
        <ele>1.0</ele>
        <time>2019-05-16T13:59:18.914Z</time>
      </trkpt>
      <trkpt lat="39.02596833" lon="-8.94440333">
        <ele>1.0</ele>
        <time>2019-05-16T13:59:19.909Z</time>
      </trkpt>
      <trkpt lat="39.02602667" lon="-8.94433667">
        <ele>1.0</ele>
        <time>2019-05-16T13:59:20.901Z</time>
      </trkpt>
      <trkpt lat="39.026055" lon="-8.944305">
        <ele>1.0</ele>
        <time>2019-05-16T13:59:21.898Z</time>
      </trkpt>
      <trkpt lat="39.026055" lon="-8.944305">
        <ele>1.0</ele>
        <time>2019-05-16T13:59:22.914Z</time>
      </trkpt>
      <trkpt lat="39.02611167" lon="-8.94424167">
        <ele>1.0</ele>
        <time>2019-05-16T13:59:23.938Z</time>
      </trkpt>
      <trkpt lat="39.02611167" lon="-8.94424167">
        <ele>1.0</ele>
        <time>2019-05-16T13:59:24.931Z</time>
      </trkpt>
      <trkpt lat="39.02617167" lon="-8.94418833">
        <ele>1.0</ele>
        <time>2019-05-16T13:59:25.914Z</time>
      </trkpt>
      <trkpt lat="39.02620167" lon="-8.944165">
        <ele>1.0</ele>
        <time>2019-05-16T13:59:26.936Z</time>
      </trkpt>
      <trkpt lat="39.02620167" lon="-8.944165">
        <ele>1.0</ele>
        <time>2019-05-16T13:59:27.913Z</time>
      </trkpt>
      <trkpt lat="39.02626667" lon="-8.94412833">
        <ele>2.0</ele>
        <time>2019-05-16T13:59:28.940Z</time>
      </trkpt>
      <trkpt lat="39.02626667" lon="-8.94412833">
        <ele>2.0</ele>
        <time>2019-05-16T13:59:29.911Z</time>
      </trkpt>
      <trkpt lat="39.02632833" lon="-8.9441">
        <ele>2.0</ele>
        <time>2019-05-16T13:59:30.904Z</time>
      </trkpt>
      <trkpt lat="39.02632833" lon="-8.9441">
        <ele>2.0</ele>
        <time>2019-05-16T13:59:31.936Z</time>
      </trkpt>
      <trkpt lat="39.02639167" lon="-8.94407667">
        <ele>2.0</ele>
        <time>2019-05-16T13:59:32.921Z</time>
      </trkpt>
      <trkpt lat="39.02639167" lon="-8.94407667">
        <ele>2.0</ele>
        <time>2019-05-16T13:59:33.937Z</time>
      </trkpt>
      <trkpt lat="39.02645167" lon="-8.94406167">
        <ele>2.0</ele>
        <time>2019-05-16T13:59:34.912Z</time>
      </trkpt>
      <trkpt lat="39.02645167" lon="-8.94406167">
        <ele>2.0</ele>
        <time>2019-05-16T13:59:35.920Z</time>
      </trkpt>
      <trkpt lat="39.02650667" lon="-8.94405167">
        <ele>2.0</ele>
        <time>2019-05-16T13:59:36.937Z</time>
      </trkpt>
      <trkpt lat="39.02650667" lon="-8.94405167">
        <ele>2.0</ele>
        <time>2019-05-16T13:59:37.924Z</time>
      </trkpt>
      <trkpt lat="39.02656167" lon="-8.94402">
        <ele>2.0</ele>
        <time>2019-05-16T13:59:38.904Z</time>
      </trkpt>
      <trkpt lat="39.02656167" lon="-8.94402">
        <ele>2.0</ele>
        <time>2019-05-16T13:59:39.925Z</time>
      </trkpt>
      <trkpt lat="39.02662" lon="-8.94398167">
        <ele>2.0</ele>
        <time>2019-05-16T13:59:40.913Z</time>
      </trkpt>
      <trkpt lat="39.02664833" lon="-8.94396">
        <ele>2.0</ele>
        <time>2019-05-16T13:59:41.910Z</time>
      </trkpt>
      <trkpt lat="39.02664833" lon="-8.94396">
        <ele>2.0</ele>
        <time>2019-05-16T13:59:42.911Z</time>
      </trkpt>
      <trkpt lat="39.02670833" lon="-8.94391333">
        <ele>2.0</ele>
        <time>2019-05-16T13:59:43.931Z</time>
      </trkpt>
      <trkpt lat="39.02670833" lon="-8.94391333">
        <ele>2.0</ele>
        <time>2019-05-16T13:59:44.926Z</time>
      </trkpt>
      <trkpt lat="39.02676833" lon="-8.94385833">
        <ele>2.0</ele>
        <time>2019-05-16T13:59:45.908Z</time>
      </trkpt>
      <trkpt lat="39.02679833" lon="-8.94382667">
        <ele>2.0</ele>
        <time>2019-05-16T13:59:46.920Z</time>
      </trkpt>
      <trkpt lat="39.02679833" lon="-8.94382667">
        <ele>2.0</ele>
        <time>2019-05-16T13:59:47.909Z</time>
      </trkpt>
      <trkpt lat="39.02686" lon="-8.94376667">
        <ele>2.0</ele>
        <time>2019-05-16T13:59:48.929Z</time>
      </trkpt>
      <trkpt lat="39.02686" lon="-8.94376667">
        <ele>2.0</ele>
        <time>2019-05-16T13:59:49.920Z</time>
      </trkpt>
      <trkpt lat="39.02692167" lon="-8.94370667">
        <ele>1.0</ele>
        <time>2019-05-16T13:59:50.934Z</time>
      </trkpt>
      <trkpt lat="39.02692167" lon="-8.94370667">
        <ele>1.0</ele>
        <time>2019-05-16T13:59:51.933Z</time>
      </trkpt>
      <trkpt lat="39.02698333" lon="-8.94364833">
        <ele>1.0</ele>
        <time>2019-05-16T13:59:52.920Z</time>
      </trkpt>
      <trkpt lat="39.02698333" lon="-8.94364833">
        <ele>1.0</ele>
        <time>2019-05-16T13:59:53.932Z</time>
      </trkpt>
      <trkpt lat="39.02704833" lon="-8.94359">
        <ele>1.0</ele>
        <time>2019-05-16T13:59:54.926Z</time>
      </trkpt>
      <trkpt lat="39.02704833" lon="-8.94359">
        <ele>1.0</ele>
        <time>2019-05-16T13:59:55.932Z</time>
      </trkpt>
      <trkpt lat="39.02711333" lon="-8.94353">
        <ele>1.0</ele>
        <time>2019-05-16T13:59:56.909Z</time>
      </trkpt>
      <trkpt lat="39.02711333" lon="-8.94353">
        <ele>1.0</ele>
        <time>2019-05-16T13:59:57.915Z</time>
      </trkpt>
      <trkpt lat="39.02718" lon="-8.94347">
        <ele>1.0</ele>
        <time>2019-05-16T13:59:58.932Z</time>
      </trkpt>
      <trkpt lat="39.02718" lon="-8.94347">
        <ele>1.0</ele>
        <time>2019-05-16T13:59:59.922Z</time>
      </trkpt>
      <trkpt lat="39.02724167" lon="-8.94341333">
        <ele>1.0</ele>
        <time>2019-05-16T14:00:00.897Z</time>
      </trkpt>
      <trkpt lat="39.02724167" lon="-8.94341333">
        <ele>1.0</ele>
        <time>2019-05-16T14:00:01.925Z</time>
      </trkpt>
      <trkpt lat="39.02730167" lon="-8.94335667">
        <ele>1.0</ele>
        <time>2019-05-16T14:00:02.919Z</time>
      </trkpt>
      <trkpt lat="39.02730167" lon="-8.94335667">
        <ele>1.0</ele>
        <time>2019-05-16T14:00:03.897Z</time>
      </trkpt>
      <trkpt lat="39.02736667" lon="-8.943295">
        <ele>1.0</ele>
        <time>2019-05-16T14:00:04.916Z</time>
      </trkpt>
      <trkpt lat="39.02736667" lon="-8.943295">
        <ele>1.0</ele>
        <time>2019-05-16T14:00:05.899Z</time>
      </trkpt>
      <trkpt lat="39.02742667" lon="-8.94323667">
        <ele>2.0</ele>
        <time>2019-05-16T14:00:06.926Z</time>
      </trkpt>
      <trkpt lat="39.02746" lon="-8.943205">
        <ele>2.0</ele>
        <time>2019-05-16T14:00:07.911Z</time>
      </trkpt>
      <trkpt lat="39.02749167" lon="-8.94317333">
        <ele>2.0</ele>
        <time>2019-05-16T14:00:08.904Z</time>
      </trkpt>
      <trkpt lat="39.02749167" lon="-8.94317333">
        <ele>2.0</ele>
        <time>2019-05-16T14:00:09.932Z</time>
      </trkpt>
      <trkpt lat="39.02755833" lon="-8.94311">
        <ele>2.0</ele>
        <time>2019-05-16T14:00:10.898Z</time>
      </trkpt>
      <trkpt lat="39.02755833" lon="-8.94311">
        <ele>2.0</ele>
        <time>2019-05-16T14:00:11.908Z</time>
      </trkpt>
      <trkpt lat="39.02762667" lon="-8.94304667">
        <ele>2.0</ele>
        <time>2019-05-16T14:00:12.933Z</time>
      </trkpt>
      <trkpt lat="39.02762667" lon="-8.94304667">
        <ele>2.0</ele>
        <time>2019-05-16T14:00:13.909Z</time>
      </trkpt>
      <trkpt lat="39.02769333" lon="-8.94298167">
        <ele>2.0</ele>
        <time>2019-05-16T14:00:14.921Z</time>
      </trkpt>
      <trkpt lat="39.02769333" lon="-8.94298167">
        <ele>2.0</ele>
        <time>2019-05-16T14:00:15.936Z</time>
      </trkpt>
      <trkpt lat="39.02776" lon="-8.94292">
        <ele>2.0</ele>
        <time>2019-05-16T14:00:16.919Z</time>
      </trkpt>
      <trkpt lat="39.02779333" lon="-8.94288833">
        <ele>2.0</ele>
        <time>2019-05-16T14:00:17.911Z</time>
      </trkpt>
      <trkpt lat="39.02779333" lon="-8.94288833">
        <ele>2.0</ele>
        <time>2019-05-16T14:00:18.913Z</time>
      </trkpt>
      <trkpt lat="39.02786" lon="-8.94282167">
        <ele>2.0</ele>
        <time>2019-05-16T14:00:19.901Z</time>
      </trkpt>
      <trkpt lat="39.027895" lon="-8.94278833">
        <ele>2.0</ele>
        <time>2019-05-16T14:00:20.975Z</time>
      </trkpt>
      <trkpt lat="39.027895" lon="-8.94278833">
        <ele>2.0</ele>
        <time>2019-05-16T14:00:21.904Z</time>
      </trkpt>
      <trkpt lat="39.02796333" lon="-8.94272333">
        <ele>2.0</ele>
        <time>2019-05-16T14:00:22.923Z</time>
      </trkpt>
      <trkpt lat="39.02796333" lon="-8.94272333">
        <ele>2.0</ele>
        <time>2019-05-16T14:00:23.900Z</time>
      </trkpt>
      <trkpt lat="39.02802833" lon="-8.94266167">
        <ele>2.0</ele>
        <time>2019-05-16T14:00:24.939Z</time>
      </trkpt>
      <trkpt lat="39.02802833" lon="-8.94266167">
        <ele>2.0</ele>
        <time>2019-05-16T14:00:25.911Z</time>
      </trkpt>
      <trkpt lat="39.028085" lon="-8.94260667">
        <ele>2.0</ele>
        <time>2019-05-16T14:00:26.908Z</time>
      </trkpt>
      <trkpt lat="39.02811" lon="-8.94258">
        <ele>2.0</ele>
        <time>2019-05-16T14:00:27.923Z</time>
      </trkpt>
      <trkpt lat="39.02811" lon="-8.94258">
        <ele>2.0</ele>
        <time>2019-05-16T14:00:28.915Z</time>
      </trkpt>
      <trkpt lat="39.02816" lon="-8.94253">
        <ele>2.0</ele>
        <time>2019-05-16T14:00:29.932Z</time>
      </trkpt>
      <trkpt lat="39.02816" lon="-8.94253">
        <ele>2.0</ele>
        <time>2019-05-16T14:00:30.905Z</time>
      </trkpt>
      <trkpt lat="39.02821333" lon="-8.94248">
        <ele>2.0</ele>
        <time>2019-05-16T14:00:31.918Z</time>
      </trkpt>
      <trkpt lat="39.02824333" lon="-8.94245333">
        <ele>2.0</ele>
        <time>2019-05-16T14:00:32.934Z</time>
      </trkpt>
      <trkpt lat="39.02824333" lon="-8.94245333">
        <ele>2.0</ele>
        <time>2019-05-16T14:00:33.930Z</time>
      </trkpt>
      <trkpt lat="39.028305" lon="-8.94239833">
        <ele>2.0</ele>
        <time>2019-05-16T14:00:34.912Z</time>
      </trkpt>
      <trkpt lat="39.028305" lon="-8.94239833">
        <ele>2.0</ele>
        <time>2019-05-16T14:00:35.930Z</time>
      </trkpt>
      <trkpt lat="39.028365" lon="-8.94234167">
        <ele>2.0</ele>
        <time>2019-05-16T14:00:36.911Z</time>
      </trkpt>
      <trkpt lat="39.028365" lon="-8.94234167">
        <ele>2.0</ele>
        <time>2019-05-16T14:00:37.933Z</time>
      </trkpt>
      <trkpt lat="39.02842667" lon="-8.942285">
        <ele>2.0</ele>
        <time>2019-05-16T14:00:38.908Z</time>
      </trkpt>
      <trkpt lat="39.02842667" lon="-8.942285">
        <ele>2.0</ele>
        <time>2019-05-16T14:00:39.901Z</time>
      </trkpt>
      <trkpt lat="39.02848833" lon="-8.94222333">
        <ele>2.0</ele>
        <time>2019-05-16T14:00:40.917Z</time>
      </trkpt>
      <trkpt lat="39.02852" lon="-8.94219333">
        <ele>1.0</ele>
        <time>2019-05-16T14:00:41.940Z</time>
      </trkpt>
      <trkpt lat="39.02852" lon="-8.94219333">
        <ele>1.0</ele>
        <time>2019-05-16T14:00:42.899Z</time>
      </trkpt>
      <trkpt lat="39.02858333" lon="-8.942135">
        <ele>1.0</ele>
        <time>2019-05-16T14:00:43.920Z</time>
      </trkpt>
      <trkpt lat="39.02861833" lon="-8.94210333">
        <ele>1.0</ele>
        <time>2019-05-16T14:00:44.917Z</time>
      </trkpt>
      <trkpt lat="39.02861833" lon="-8.94210333">
        <ele>1.0</ele>
        <time>2019-05-16T14:00:45.914Z</time>
      </trkpt>
      <trkpt lat="39.02868833" lon="-8.942035">
        <ele>1.0</ele>
        <time>2019-05-16T14:00:46.900Z</time>
      </trkpt>
      <trkpt lat="39.02868833" lon="-8.942035">
        <ele>1.0</ele>
        <time>2019-05-16T14:00:47.932Z</time>
      </trkpt>
      <trkpt lat="39.02876" lon="-8.94196667">
        <ele>1.0</ele>
        <time>2019-05-16T14:00:48.906Z</time>
      </trkpt>
      <trkpt lat="39.02879667" lon="-8.94193">
        <ele>1.0</ele>
        <time>2019-05-16T14:00:49.935Z</time>
      </trkpt>
      <trkpt lat="39.02879667" lon="-8.94193">
        <ele>1.0</ele>
        <time>2019-05-16T14:00:50.925Z</time>
      </trkpt>
      <trkpt lat="39.02887167" lon="-8.94185833">
        <ele>1.0</ele>
        <time>2019-05-16T14:00:51.901Z</time>
      </trkpt>
      <trkpt lat="39.02887167" lon="-8.94185833">
        <ele>1.0</ele>
        <time>2019-05-16T14:00:52.900Z</time>
      </trkpt>
      <trkpt lat="39.02894667" lon="-8.94179">
        <ele>1.0</ele>
        <time>2019-05-16T14:00:53.924Z</time>
      </trkpt>
      <trkpt lat="39.02894667" lon="-8.94179">
        <ele>1.0</ele>
        <time>2019-05-16T14:00:54.909Z</time>
      </trkpt>
      <trkpt lat="39.02902" lon="-8.94171667">
        <ele>1.0</ele>
        <time>2019-05-16T14:00:55.910Z</time>
      </trkpt>
      <trkpt lat="39.02905833" lon="-8.94168">
        <ele>1.0</ele>
        <time>2019-05-16T14:00:56.903Z</time>
      </trkpt>
      <trkpt lat="39.02905833" lon="-8.94168">
        <ele>1.0</ele>
        <time>2019-05-16T14:00:57.925Z</time>
      </trkpt>
      <trkpt lat="39.02913333" lon="-8.94161167">
        <ele>1.0</ele>
        <time>2019-05-16T14:00:58.909Z</time>
      </trkpt>
      <trkpt lat="39.02913333" lon="-8.94161167">
        <ele>1.0</ele>
        <time>2019-05-16T14:00:59.909Z</time>
      </trkpt>
      <trkpt lat="39.02920667" lon="-8.94154167">
        <ele>1.0</ele>
        <time>2019-05-16T14:01:00.913Z</time>
      </trkpt>
      <trkpt lat="39.02920667" lon="-8.94154167">
        <ele>1.0</ele>
        <time>2019-05-16T14:01:01.932Z</time>
      </trkpt>
      <trkpt lat="39.02927833" lon="-8.94147667">
        <ele>1.0</ele>
        <time>2019-05-16T14:01:02.924Z</time>
      </trkpt>
      <trkpt lat="39.02927833" lon="-8.94147667">
        <ele>1.0</ele>
        <time>2019-05-16T14:01:03.905Z</time>
      </trkpt>
      <trkpt lat="39.02935" lon="-8.94141667">
        <ele>2.0</ele>
        <time>2019-05-16T14:01:04.918Z</time>
      </trkpt>
      <trkpt lat="39.02935" lon="-8.94141667">
        <ele>2.0</ele>
        <time>2019-05-16T14:01:05.931Z</time>
      </trkpt>
      <trkpt lat="39.02941833" lon="-8.94135">
        <ele>2.0</ele>
        <time>2019-05-16T14:01:06.921Z</time>
      </trkpt>
      <trkpt lat="39.02945167" lon="-8.94131833">
        <ele>2.0</ele>
        <time>2019-05-16T14:01:07.922Z</time>
      </trkpt>
      <trkpt lat="39.029485" lon="-8.94128833">
        <ele>2.0</ele>
        <time>2019-05-16T14:01:08.931Z</time>
      </trkpt>
      <trkpt lat="39.029485" lon="-8.94128833">
        <ele>2.0</ele>
        <time>2019-05-16T14:01:09.913Z</time>
      </trkpt>
      <trkpt lat="39.02955333" lon="-8.94122333">
        <ele>3.0</ele>
        <time>2019-05-16T14:01:10.939Z</time>
      </trkpt>
      <trkpt lat="39.02955333" lon="-8.94122333">
        <ele>3.0</ele>
        <time>2019-05-16T14:01:11.901Z</time>
      </trkpt>
      <trkpt lat="39.02962" lon="-8.94115833">
        <ele>3.0</ele>
        <time>2019-05-16T14:01:12.919Z</time>
      </trkpt>
      <trkpt lat="39.02962" lon="-8.94115833">
        <ele>3.0</ele>
        <time>2019-05-16T14:01:13.922Z</time>
      </trkpt>
      <trkpt lat="39.02968833" lon="-8.94109167">
        <ele>2.0</ele>
        <time>2019-05-16T14:01:14.897Z</time>
      </trkpt>
      <trkpt lat="39.02968833" lon="-8.94109167">
        <ele>2.0</ele>
        <time>2019-05-16T14:01:15.912Z</time>
      </trkpt>
      <trkpt lat="39.029755" lon="-8.94102833">
        <ele>2.0</ele>
        <time>2019-05-16T14:01:16.942Z</time>
      </trkpt>
      <trkpt lat="39.029755" lon="-8.94102833">
        <ele>2.0</ele>
        <time>2019-05-16T14:01:17.899Z</time>
      </trkpt>
      <trkpt lat="39.02982167" lon="-8.94096667">
        <ele>3.0</ele>
        <time>2019-05-16T14:01:18.923Z</time>
      </trkpt>
      <trkpt lat="39.02982167" lon="-8.94096667">
        <ele>3.0</ele>
        <time>2019-05-16T14:01:19.914Z</time>
      </trkpt>
      <trkpt lat="39.02989" lon="-8.94090333">
        <ele>2.0</ele>
        <time>2019-05-16T14:01:20.919Z</time>
      </trkpt>
      <trkpt lat="39.02989" lon="-8.94090333">
        <ele>2.0</ele>
        <time>2019-05-16T14:01:21.927Z</time>
      </trkpt>
      <trkpt lat="39.02995667" lon="-8.94084167">
        <ele>3.0</ele>
        <time>2019-05-16T14:01:22.910Z</time>
      </trkpt>
      <trkpt lat="39.02995667" lon="-8.94084167">
        <ele>3.0</ele>
        <time>2019-05-16T14:01:23.910Z</time>
      </trkpt>
      <trkpt lat="39.030025" lon="-8.94078167">
        <ele>3.0</ele>
        <time>2019-05-16T14:01:24.941Z</time>
      </trkpt>
      <trkpt lat="39.030025" lon="-8.94078167">
        <ele>3.0</ele>
        <time>2019-05-16T14:01:25.902Z</time>
      </trkpt>
      <trkpt lat="39.03009" lon="-8.94071833">
        <ele>3.0</ele>
        <time>2019-05-16T14:01:26.920Z</time>
      </trkpt>
      <trkpt lat="39.03009" lon="-8.94071833">
        <ele>3.0</ele>
        <time>2019-05-16T14:01:27.926Z</time>
      </trkpt>
      <trkpt lat="39.03015667" lon="-8.94065667">
        <ele>3.0</ele>
        <time>2019-05-16T14:01:28.905Z</time>
      </trkpt>
      <trkpt lat="39.03015667" lon="-8.94065667">
        <ele>3.0</ele>
        <time>2019-05-16T14:01:29.909Z</time>
      </trkpt>
      <trkpt lat="39.03021833" lon="-8.9406">
        <ele>3.0</ele>
        <time>2019-05-16T14:01:30.918Z</time>
      </trkpt>
      <trkpt lat="39.03024833" lon="-8.94057333">
        <ele>3.0</ele>
        <time>2019-05-16T14:01:31.941Z</time>
      </trkpt>
      <trkpt lat="39.03027833" lon="-8.94054667">
        <ele>3.0</ele>
        <time>2019-05-16T14:01:32.910Z</time>
      </trkpt>
      <trkpt lat="39.03027833" lon="-8.94054667">
        <ele>3.0</ele>
        <time>2019-05-16T14:01:33.909Z</time>
      </trkpt>
      <trkpt lat="39.030335" lon="-8.94049167">
        <ele>3.0</ele>
        <time>2019-05-16T14:01:34.926Z</time>
      </trkpt>
      <trkpt lat="39.030335" lon="-8.94049167">
        <ele>3.0</ele>
        <time>2019-05-16T14:01:35.897Z</time>
      </trkpt>
      <trkpt lat="39.03039333" lon="-8.94043167">
        <ele>3.0</ele>
        <time>2019-05-16T14:01:36.925Z</time>
      </trkpt>
      <trkpt lat="39.03039333" lon="-8.94043167">
        <ele>3.0</ele>
        <time>2019-05-16T14:01:37.931Z</time>
      </trkpt>
      <trkpt lat="39.03044833" lon="-8.94038167">
        <ele>3.0</ele>
        <time>2019-05-16T14:01:38.902Z</time>
      </trkpt>
      <trkpt lat="39.03044833" lon="-8.94038167">
        <ele>3.0</ele>
        <time>2019-05-16T14:01:39.934Z</time>
      </trkpt>
      <trkpt lat="39.03050167" lon="-8.94033167">
        <ele>3.0</ele>
        <time>2019-05-16T14:01:40.911Z</time>
      </trkpt>
      <trkpt lat="39.03050167" lon="-8.94033167">
        <ele>3.0</ele>
        <time>2019-05-16T14:01:41.934Z</time>
      </trkpt>
      <trkpt lat="39.030555" lon="-8.94028167">
        <ele>3.0</ele>
        <time>2019-05-16T14:01:42.921Z</time>
      </trkpt>
      <trkpt lat="39.03057667" lon="-8.940255">
        <ele>3.0</ele>
        <time>2019-05-16T14:01:43.931Z</time>
      </trkpt>
      <trkpt lat="39.03059833" lon="-8.94023">
        <ele>3.0</ele>
        <time>2019-05-16T14:01:44.915Z</time>
      </trkpt>
      <trkpt lat="39.03059833" lon="-8.94023">
        <ele>3.0</ele>
        <time>2019-05-16T14:01:45.902Z</time>
      </trkpt>
      <trkpt lat="39.03064833" lon="-8.94019167">
        <ele>4.0</ele>
        <time>2019-05-16T14:01:46.901Z</time>
      </trkpt>
      <trkpt lat="39.03064833" lon="-8.94019167">
        <ele>4.0</ele>
        <time>2019-05-16T14:01:47.930Z</time>
      </trkpt>
      <trkpt lat="39.03069" lon="-8.94015667">
        <ele>4.0</ele>
        <time>2019-05-16T14:01:48.907Z</time>
      </trkpt>
      <trkpt lat="39.030715" lon="-8.94013167">
        <ele>4.0</ele>
        <time>2019-05-16T14:01:49.901Z</time>
      </trkpt>
      <trkpt lat="39.030745" lon="-8.940105">
        <ele>4.0</ele>
        <time>2019-05-16T14:01:50.919Z</time>
      </trkpt>
      <trkpt lat="39.030745" lon="-8.940105">
        <ele>4.0</ele>
        <time>2019-05-16T14:01:51.909Z</time>
      </trkpt>
      <trkpt lat="39.03080167" lon="-8.94005167">
        <ele>4.0</ele>
        <time>2019-05-16T14:01:52.935Z</time>
      </trkpt>
      <trkpt lat="39.03080167" lon="-8.94005167">
        <ele>4.0</ele>
        <time>2019-05-16T14:01:53.917Z</time>
      </trkpt>
      <trkpt lat="39.03085667" lon="-8.93999833">
        <ele>4.0</ele>
        <time>2019-05-16T14:01:54.911Z</time>
      </trkpt>
      <trkpt lat="39.03085667" lon="-8.93999833">
        <ele>4.0</ele>
        <time>2019-05-16T14:01:55.913Z</time>
      </trkpt>
      <trkpt lat="39.030915" lon="-8.93993667">
        <ele>3.0</ele>
        <time>2019-05-16T14:01:56.940Z</time>
      </trkpt>
      <trkpt lat="39.030915" lon="-8.93993667">
        <ele>3.0</ele>
        <time>2019-05-16T14:01:57.920Z</time>
      </trkpt>
      <trkpt lat="39.03097667" lon="-8.93987833">
        <ele>3.0</ele>
        <time>2019-05-16T14:01:58.924Z</time>
      </trkpt>
      <trkpt lat="39.03097667" lon="-8.93987833">
        <ele>3.0</ele>
        <time>2019-05-16T14:01:59.919Z</time>
      </trkpt>
      <trkpt lat="39.03103667" lon="-8.93981667">
        <ele>4.0</ele>
        <time>2019-05-16T14:02:00.909Z</time>
      </trkpt>
      <trkpt lat="39.03103667" lon="-8.93981667">
        <ele>4.0</ele>
        <time>2019-05-16T14:02:01.931Z</time>
      </trkpt>
      <trkpt lat="39.03110167" lon="-8.93975333">
        <ele>4.0</ele>
        <time>2019-05-16T14:02:02.914Z</time>
      </trkpt>
      <trkpt lat="39.03110167" lon="-8.93975333">
        <ele>4.0</ele>
        <time>2019-05-16T14:02:03.930Z</time>
      </trkpt>
      <trkpt lat="39.03117" lon="-8.93968833">
        <ele>4.0</ele>
        <time>2019-05-16T14:02:04.916Z</time>
      </trkpt>
      <trkpt lat="39.03117" lon="-8.93968833">
        <ele>4.0</ele>
        <time>2019-05-16T14:02:05.936Z</time>
      </trkpt>
      <trkpt lat="39.03123833" lon="-8.93962167">
        <ele>4.0</ele>
        <time>2019-05-16T14:02:06.925Z</time>
      </trkpt>
      <trkpt lat="39.03123833" lon="-8.93962167">
        <ele>4.0</ele>
        <time>2019-05-16T14:02:07.928Z</time>
      </trkpt>
      <trkpt lat="39.031315" lon="-8.93954833">
        <ele>4.0</ele>
        <time>2019-05-16T14:02:08.913Z</time>
      </trkpt>
      <trkpt lat="39.031315" lon="-8.93954833">
        <ele>4.0</ele>
        <time>2019-05-16T14:02:09.930Z</time>
      </trkpt>
      <trkpt lat="39.03139" lon="-8.93947833">
        <ele>4.0</ele>
        <time>2019-05-16T14:02:10.910Z</time>
      </trkpt>
      <trkpt lat="39.03139" lon="-8.93947833">
        <ele>4.0</ele>
        <time>2019-05-16T14:02:11.906Z</time>
      </trkpt>
      <trkpt lat="39.031465" lon="-8.93940667">
        <ele>3.0</ele>
        <time>2019-05-16T14:02:12.927Z</time>
      </trkpt>
      <trkpt lat="39.031465" lon="-8.93940667">
        <ele>3.0</ele>
        <time>2019-05-16T14:02:13.909Z</time>
      </trkpt>
      <trkpt lat="39.03154" lon="-8.93933833">
        <ele>3.0</ele>
        <time>2019-05-16T14:02:14.931Z</time>
      </trkpt>
      <trkpt lat="39.03154" lon="-8.93933833">
        <ele>3.0</ele>
        <time>2019-05-16T14:02:15.923Z</time>
      </trkpt>
      <trkpt lat="39.03161333" lon="-8.93926833">
        <ele>3.0</ele>
        <time>2019-05-16T14:02:16.901Z</time>
      </trkpt>
      <trkpt lat="39.03161333" lon="-8.93926833">
        <ele>3.0</ele>
        <time>2019-05-16T14:02:17.934Z</time>
      </trkpt>
      <trkpt lat="39.03168667" lon="-8.9392">
        <ele>3.0</ele>
        <time>2019-05-16T14:02:18.931Z</time>
      </trkpt>
      <trkpt lat="39.03168667" lon="-8.9392">
        <ele>3.0</ele>
        <time>2019-05-16T14:02:19.910Z</time>
      </trkpt>
      <trkpt lat="39.031755" lon="-8.93913333">
        <ele>3.0</ele>
        <time>2019-05-16T14:02:20.917Z</time>
      </trkpt>
      <trkpt lat="39.031755" lon="-8.93913333">
        <ele>3.0</ele>
        <time>2019-05-16T14:02:21.922Z</time>
      </trkpt>
      <trkpt lat="39.03182333" lon="-8.93907167">
        <ele>3.0</ele>
        <time>2019-05-16T14:02:22.903Z</time>
      </trkpt>
      <trkpt lat="39.03182333" lon="-8.93907167">
        <ele>3.0</ele>
        <time>2019-05-16T14:02:23.913Z</time>
      </trkpt>
      <trkpt lat="39.03189" lon="-8.93901">
        <ele>3.0</ele>
        <time>2019-05-16T14:02:24.938Z</time>
      </trkpt>
      <trkpt lat="39.03189" lon="-8.93901">
        <ele>3.0</ele>
        <time>2019-05-16T14:02:25.919Z</time>
      </trkpt>
      <trkpt lat="39.03195333" lon="-8.93894667">
        <ele>3.0</ele>
        <time>2019-05-16T14:02:26.901Z</time>
      </trkpt>
      <trkpt lat="39.03195333" lon="-8.93894667">
        <ele>3.0</ele>
        <time>2019-05-16T14:02:27.923Z</time>
      </trkpt>
      <trkpt lat="39.03202" lon="-8.93888667">
        <ele>3.0</ele>
        <time>2019-05-16T14:02:28.903Z</time>
      </trkpt>
      <trkpt lat="39.03202" lon="-8.93888667">
        <ele>3.0</ele>
        <time>2019-05-16T14:02:29.914Z</time>
      </trkpt>
      <trkpt lat="39.03208833" lon="-8.93882667">
        <ele>3.0</ele>
        <time>2019-05-16T14:02:30.907Z</time>
      </trkpt>
      <trkpt lat="39.03208833" lon="-8.93882667">
        <ele>3.0</ele>
        <time>2019-05-16T14:02:31.922Z</time>
      </trkpt>
      <trkpt lat="39.032155" lon="-8.93876333">
        <ele>3.0</ele>
        <time>2019-05-16T14:02:32.912Z</time>
      </trkpt>
      <trkpt lat="39.032155" lon="-8.93876333">
        <ele>3.0</ele>
        <time>2019-05-16T14:02:33.929Z</time>
      </trkpt>
      <trkpt lat="39.03222333" lon="-8.9387">
        <ele>2.0</ele>
        <time>2019-05-16T14:02:34.910Z</time>
      </trkpt>
      <trkpt lat="39.03222333" lon="-8.9387">
        <ele>2.0</ele>
        <time>2019-05-16T14:02:35.910Z</time>
      </trkpt>
      <trkpt lat="39.03229" lon="-8.938635">
        <ele>2.0</ele>
        <time>2019-05-16T14:02:36.932Z</time>
      </trkpt>
      <trkpt lat="39.03232167" lon="-8.938605">
        <ele>2.0</ele>
        <time>2019-05-16T14:02:37.914Z</time>
      </trkpt>
      <trkpt lat="39.03235167" lon="-8.938575">
        <ele>2.0</ele>
        <time>2019-05-16T14:02:38.919Z</time>
      </trkpt>
      <trkpt lat="39.03235167" lon="-8.938575">
        <ele>2.0</ele>
        <time>2019-05-16T14:02:39.923Z</time>
      </trkpt>
      <trkpt lat="39.03241333" lon="-8.93851833">
        <ele>2.0</ele>
        <time>2019-05-16T14:02:40.898Z</time>
      </trkpt>
      <trkpt lat="39.03241333" lon="-8.93851833">
        <ele>2.0</ele>
        <time>2019-05-16T14:02:41.930Z</time>
      </trkpt>
      <trkpt lat="39.03247333" lon="-8.93846167">
        <ele>2.0</ele>
        <time>2019-05-16T14:02:42.911Z</time>
      </trkpt>
      <trkpt lat="39.03247333" lon="-8.93846167">
        <ele>2.0</ele>
        <time>2019-05-16T14:02:43.928Z</time>
      </trkpt>
      <trkpt lat="39.03253167" lon="-8.93840333">
        <ele>2.0</ele>
        <time>2019-05-16T14:02:44.914Z</time>
      </trkpt>
      <trkpt lat="39.03253167" lon="-8.93840333">
        <ele>2.0</ele>
        <time>2019-05-16T14:02:45.910Z</time>
      </trkpt>
      <trkpt lat="39.03259333" lon="-8.93834333">
        <ele>2.0</ele>
        <time>2019-05-16T14:02:46.927Z</time>
      </trkpt>
      <trkpt lat="39.03259333" lon="-8.93834333">
        <ele>2.0</ele>
        <time>2019-05-16T14:02:47.922Z</time>
      </trkpt>
      <trkpt lat="39.03265667" lon="-8.93828167">
        <ele>2.0</ele>
        <time>2019-05-16T14:02:48.903Z</time>
      </trkpt>
      <trkpt lat="39.03265667" lon="-8.93828167">
        <ele>2.0</ele>
        <time>2019-05-16T14:02:49.921Z</time>
      </trkpt>
      <trkpt lat="39.03271833" lon="-8.93822167">
        <ele>2.0</ele>
        <time>2019-05-16T14:02:50.903Z</time>
      </trkpt>
      <trkpt lat="39.03271833" lon="-8.93822167">
        <ele>2.0</ele>
        <time>2019-05-16T14:02:51.923Z</time>
      </trkpt>
      <trkpt lat="39.03278167" lon="-8.93816333">
        <ele>2.0</ele>
        <time>2019-05-16T14:02:52.937Z</time>
      </trkpt>
      <trkpt lat="39.03278167" lon="-8.93816333">
        <ele>2.0</ele>
        <time>2019-05-16T14:02:53.928Z</time>
      </trkpt>
      <trkpt lat="39.032845" lon="-8.938105">
        <ele>2.0</ele>
        <time>2019-05-16T14:02:54.910Z</time>
      </trkpt>
      <trkpt lat="39.032845" lon="-8.938105">
        <ele>2.0</ele>
        <time>2019-05-16T14:02:55.914Z</time>
      </trkpt>
      <trkpt lat="39.032905" lon="-8.938045">
        <ele>2.0</ele>
        <time>2019-05-16T14:02:56.901Z</time>
      </trkpt>
      <trkpt lat="39.032905" lon="-8.938045">
        <ele>2.0</ele>
        <time>2019-05-16T14:02:57.923Z</time>
      </trkpt>
      <trkpt lat="39.032965" lon="-8.93798667">
        <ele>2.0</ele>
        <time>2019-05-16T14:02:58.898Z</time>
      </trkpt>
      <trkpt lat="39.032965" lon="-8.93798667">
        <ele>2.0</ele>
        <time>2019-05-16T14:02:59.923Z</time>
      </trkpt>
      <trkpt lat="39.033025" lon="-8.93792833">
        <ele>1.0</ele>
        <time>2019-05-16T14:03:00.899Z</time>
      </trkpt>
      <trkpt lat="39.033025" lon="-8.93792833">
        <ele>1.0</ele>
        <time>2019-05-16T14:03:01.917Z</time>
      </trkpt>
      <trkpt lat="39.03308" lon="-8.93787833">
        <ele>2.0</ele>
        <time>2019-05-16T14:03:02.913Z</time>
      </trkpt>
      <trkpt lat="39.03308" lon="-8.93787833">
        <ele>2.0</ele>
        <time>2019-05-16T14:03:03.921Z</time>
      </trkpt>
      <trkpt lat="39.03313333" lon="-8.93783">
        <ele>3.0</ele>
        <time>2019-05-16T14:03:04.939Z</time>
      </trkpt>
      <trkpt lat="39.03313333" lon="-8.93783">
        <ele>3.0</ele>
        <time>2019-05-16T14:03:05.911Z</time>
      </trkpt>
      <trkpt lat="39.03318667" lon="-8.937775">
        <ele>2.0</ele>
        <time>2019-05-16T14:03:06.931Z</time>
      </trkpt>
      <trkpt lat="39.03318667" lon="-8.937775">
        <ele>2.0</ele>
        <time>2019-05-16T14:03:07.923Z</time>
      </trkpt>
      <trkpt lat="39.03324333" lon="-8.93772167">
        <ele>2.0</ele>
        <time>2019-05-16T14:03:08.918Z</time>
      </trkpt>
      <trkpt lat="39.03324333" lon="-8.93772167">
        <ele>2.0</ele>
        <time>2019-05-16T14:03:09.922Z</time>
      </trkpt>
      <trkpt lat="39.0333" lon="-8.93767167">
        <ele>2.0</ele>
        <time>2019-05-16T14:03:10.900Z</time>
      </trkpt>
      <trkpt lat="39.03333" lon="-8.937645">
        <ele>2.0</ele>
        <time>2019-05-16T14:03:11.931Z</time>
      </trkpt>
      <trkpt lat="39.03333" lon="-8.937645">
        <ele>2.0</ele>
        <time>2019-05-16T14:03:12.913Z</time>
      </trkpt>
      <trkpt lat="39.03339" lon="-8.93758667">
        <ele>2.0</ele>
        <time>2019-05-16T14:03:13.918Z</time>
      </trkpt>
      <trkpt lat="39.03339" lon="-8.93758667">
        <ele>2.0</ele>
        <time>2019-05-16T14:03:14.913Z</time>
      </trkpt>
      <trkpt lat="39.03345333" lon="-8.93752667">
        <ele>2.0</ele>
        <time>2019-05-16T14:03:15.929Z</time>
      </trkpt>
      <trkpt lat="39.03345333" lon="-8.93752667">
        <ele>2.0</ele>
        <time>2019-05-16T14:03:16.908Z</time>
      </trkpt>
      <trkpt lat="39.03352167" lon="-8.93746167">
        <ele>2.0</ele>
        <time>2019-05-16T14:03:17.932Z</time>
      </trkpt>
      <trkpt lat="39.03352167" lon="-8.93746167">
        <ele>2.0</ele>
        <time>2019-05-16T14:03:18.909Z</time>
      </trkpt>
      <trkpt lat="39.03359167" lon="-8.9374">
        <ele>2.0</ele>
        <time>2019-05-16T14:03:19.897Z</time>
      </trkpt>
      <trkpt lat="39.03362667" lon="-8.93736667">
        <ele>2.0</ele>
        <time>2019-05-16T14:03:20.921Z</time>
      </trkpt>
      <trkpt lat="39.03362667" lon="-8.93736667">
        <ele>2.0</ele>
        <time>2019-05-16T14:03:21.910Z</time>
      </trkpt>
      <trkpt lat="39.033695" lon="-8.9373">
        <ele>2.0</ele>
        <time>2019-05-16T14:03:22.939Z</time>
      </trkpt>
      <trkpt lat="39.033695" lon="-8.9373">
        <ele>2.0</ele>
        <time>2019-05-16T14:03:23.919Z</time>
      </trkpt>
      <trkpt lat="39.033765" lon="-8.93723333">
        <ele>1.0</ele>
        <time>2019-05-16T14:03:24.911Z</time>
      </trkpt>
      <trkpt lat="39.03379833" lon="-8.9372">
        <ele>1.0</ele>
        <time>2019-05-16T14:03:25.902Z</time>
      </trkpt>
      <trkpt lat="39.03383167" lon="-8.93716667">
        <ele>1.0</ele>
        <time>2019-05-16T14:03:26.898Z</time>
      </trkpt>
      <trkpt lat="39.03383167" lon="-8.93716667">
        <ele>1.0</ele>
        <time>2019-05-16T14:03:27.909Z</time>
      </trkpt>
      <trkpt lat="39.03390167" lon="-8.93710167">
        <ele>1.0</ele>
        <time>2019-05-16T14:03:28.926Z</time>
      </trkpt>
      <trkpt lat="39.03390167" lon="-8.93710167">
        <ele>1.0</ele>
        <time>2019-05-16T14:03:29.930Z</time>
      </trkpt>
      <trkpt lat="39.03396833" lon="-8.93703667">
        <ele>1.0</ele>
        <time>2019-05-16T14:03:30.910Z</time>
      </trkpt>
      <trkpt lat="39.03396833" lon="-8.93703667">
        <ele>1.0</ele>
        <time>2019-05-16T14:03:31.923Z</time>
      </trkpt>
      <trkpt lat="39.03403667" lon="-8.93697333">
        <ele>1.0</ele>
        <time>2019-05-16T14:03:32.912Z</time>
      </trkpt>
      <trkpt lat="39.03403667" lon="-8.93697333">
        <ele>1.0</ele>
        <time>2019-05-16T14:03:33.913Z</time>
      </trkpt>
      <trkpt lat="39.03410167" lon="-8.93690833">
        <ele>1.0</ele>
        <time>2019-05-16T14:03:34.933Z</time>
      </trkpt>
      <trkpt lat="39.03410167" lon="-8.93690833">
        <ele>1.0</ele>
        <time>2019-05-16T14:03:35.918Z</time>
      </trkpt>
      <trkpt lat="39.03417" lon="-8.936845">
        <ele>1.0</ele>
        <time>2019-05-16T14:03:36.904Z</time>
      </trkpt>
      <trkpt lat="39.03417" lon="-8.936845">
        <ele>1.0</ele>
        <time>2019-05-16T14:03:37.936Z</time>
      </trkpt>
      <trkpt lat="39.03423833" lon="-8.93678">
        <ele>1.0</ele>
        <time>2019-05-16T14:03:38.914Z</time>
      </trkpt>
      <trkpt lat="39.03423833" lon="-8.93678">
        <ele>1.0</ele>
        <time>2019-05-16T14:03:39.902Z</time>
      </trkpt>
      <trkpt lat="39.03430667" lon="-8.93671833">
        <ele>1.0</ele>
        <time>2019-05-16T14:03:40.927Z</time>
      </trkpt>
      <trkpt lat="39.03430667" lon="-8.93671833">
        <ele>1.0</ele>
        <time>2019-05-16T14:03:41.919Z</time>
      </trkpt>
      <trkpt lat="39.03437167" lon="-8.93665667">
        <ele>1.0</ele>
        <time>2019-05-16T14:03:42.905Z</time>
      </trkpt>
      <trkpt lat="39.03437167" lon="-8.93665667">
        <ele>1.0</ele>
        <time>2019-05-16T14:03:43.911Z</time>
      </trkpt>
      <trkpt lat="39.03443833" lon="-8.93659333">
        <ele>1.0</ele>
        <time>2019-05-16T14:03:44.935Z</time>
      </trkpt>
      <trkpt lat="39.03443833" lon="-8.93659333">
        <ele>1.0</ele>
        <time>2019-05-16T14:03:45.914Z</time>
      </trkpt>
      <trkpt lat="39.034505" lon="-8.93652833">
        <ele>1.0</ele>
        <time>2019-05-16T14:03:46.927Z</time>
      </trkpt>
      <trkpt lat="39.034505" lon="-8.93652833">
        <ele>1.0</ele>
        <time>2019-05-16T14:03:47.900Z</time>
      </trkpt>
      <trkpt lat="39.03457167" lon="-8.93647833">
        <ele>1.0</ele>
        <time>2019-05-16T14:03:48.927Z</time>
      </trkpt>
      <trkpt lat="39.03457167" lon="-8.93647833">
        <ele>1.0</ele>
        <time>2019-05-16T14:03:49.923Z</time>
      </trkpt>
      <trkpt lat="39.03464" lon="-8.93645833">
        <ele>1.0</ele>
        <time>2019-05-16T14:03:50.936Z</time>
      </trkpt>
      <trkpt lat="39.03464" lon="-8.93645833">
        <ele>1.0</ele>
        <time>2019-05-16T14:03:51.913Z</time>
      </trkpt>
      <trkpt lat="39.034705" lon="-8.93648">
        <ele>2.0</ele>
        <time>2019-05-16T14:03:52.938Z</time>
      </trkpt>
      <trkpt lat="39.034705" lon="-8.93648">
        <ele>2.0</ele>
        <time>2019-05-16T14:03:53.923Z</time>
      </trkpt>
      <trkpt lat="39.03475833" lon="-8.93653">
        <ele>2.0</ele>
        <time>2019-05-16T14:03:54.911Z</time>
      </trkpt>
      <trkpt lat="39.03475833" lon="-8.93653">
        <ele>2.0</ele>
        <time>2019-05-16T14:03:55.936Z</time>
      </trkpt>
      <trkpt lat="39.03480833" lon="-8.93659333">
        <ele>2.0</ele>
        <time>2019-05-16T14:03:56.926Z</time>
      </trkpt>
      <trkpt lat="39.03480833" lon="-8.93659333">
        <ele>2.0</ele>
        <time>2019-05-16T14:03:57.900Z</time>
      </trkpt>
      <trkpt lat="39.034855" lon="-8.93667333">
        <ele>3.0</ele>
        <time>2019-05-16T14:03:58.928Z</time>
      </trkpt>
      <trkpt lat="39.034855" lon="-8.93667333">
        <ele>3.0</ele>
        <time>2019-05-16T14:03:59.911Z</time>
      </trkpt>
      <trkpt lat="39.03490333" lon="-8.93674833">
        <ele>4.0</ele>
        <time>2019-05-16T14:04:00.941Z</time>
      </trkpt>
      <trkpt lat="39.03490333" lon="-8.93674833">
        <ele>4.0</ele>
        <time>2019-05-16T14:04:01.901Z</time>
      </trkpt>
      <trkpt lat="39.034945" lon="-8.93678">
        <ele>5.0</ele>
        <time>2019-05-16T14:04:02.906Z</time>
      </trkpt>
      <trkpt lat="39.034945" lon="-8.93678">
        <ele>5.0</ele>
        <time>2019-05-16T14:04:03.927Z</time>
      </trkpt>
      <trkpt lat="39.03497167" lon="-8.936785">
        <ele>5.0</ele>
        <time>2019-05-16T14:04:04.917Z</time>
      </trkpt>
      <trkpt lat="39.03497167" lon="-8.936785">
        <ele>5.0</ele>
        <time>2019-05-16T14:04:05.908Z</time>
      </trkpt>
      <trkpt lat="39.03497667" lon="-8.93678667">
        <ele>6.0</ele>
        <time>2019-05-16T14:04:06.897Z</time>
      </trkpt>
      <trkpt lat="39.03497667" lon="-8.93678667">
        <ele>6.0</ele>
        <time>2019-05-16T14:04:07.931Z</time>
      </trkpt>
      <trkpt lat="39.03497667" lon="-8.936785">
        <ele>6.0</ele>
        <time>2019-05-16T14:04:08.908Z</time>
      </trkpt>
      <trkpt lat="39.03497667" lon="-8.936785">
        <ele>6.0</ele>
        <time>2019-05-16T14:04:09.910Z</time>
      </trkpt>
      <trkpt lat="39.03497667" lon="-8.936785">
        <ele>6.0</ele>
        <time>2019-05-16T14:04:10.916Z</time>
      </trkpt>
      <trkpt lat="39.03497667" lon="-8.936785">
        <ele>6.0</ele>
        <time>2019-05-16T14:04:11.922Z</time>
      </trkpt>
      <trkpt lat="39.03497667" lon="-8.936785">
        <ele>6.0</ele>
        <time>2019-05-16T14:04:12.928Z</time>
      </trkpt>
      <trkpt lat="39.03497667" lon="-8.936785">
        <ele>6.0</ele>
        <time>2019-05-16T14:04:13.935Z</time>
      </trkpt>
      <trkpt lat="39.03497667" lon="-8.936785">
        <ele>6.0</ele>
        <time>2019-05-16T14:04:14.923Z</time>
      </trkpt>
      <trkpt lat="39.03497667" lon="-8.936785">
        <ele>6.0</ele>
        <time>2019-05-16T14:04:15.920Z</time>
      </trkpt>
      <trkpt lat="39.03497667" lon="-8.936785">
        <ele>6.0</ele>
        <time>2019-05-16T14:04:16.922Z</time>
      </trkpt>
      <trkpt lat="39.03497667" lon="-8.936785">
        <ele>6.0</ele>
        <time>2019-05-16T14:04:17.919Z</time>
      </trkpt>
      <trkpt lat="39.03497667" lon="-8.936785">
        <ele>6.0</ele>
        <time>2019-05-16T14:04:18.922Z</time>
      </trkpt>
      <trkpt lat="39.03497667" lon="-8.936785">
        <ele>6.0</ele>
        <time>2019-05-16T14:04:19.917Z</time>
      </trkpt>
      <trkpt lat="39.03497667" lon="-8.936785">
        <ele>6.0</ele>
        <time>2019-05-16T14:04:20.915Z</time>
      </trkpt>
      <trkpt lat="39.03497667" lon="-8.936785">
        <ele>6.0</ele>
        <time>2019-05-16T14:04:21.901Z</time>
      </trkpt>
      <trkpt lat="39.03497667" lon="-8.936785">
        <ele>6.0</ele>
        <time>2019-05-16T14:04:22.907Z</time>
      </trkpt>
      <trkpt lat="39.03497667" lon="-8.936785">
        <ele>6.0</ele>
        <time>2019-05-16T14:04:23.933Z</time>
      </trkpt>
      <trkpt lat="39.03497667" lon="-8.936785">
        <ele>6.0</ele>
        <time>2019-05-16T14:04:24.919Z</time>
      </trkpt>
      <trkpt lat="39.03497667" lon="-8.936785">
        <ele>6.0</ele>
        <time>2019-05-16T14:04:25.897Z</time>
      </trkpt>
      <trkpt lat="39.03497667" lon="-8.936785">
        <ele>6.0</ele>
        <time>2019-05-16T14:04:26.924Z</time>
      </trkpt>
      <trkpt lat="39.03497667" lon="-8.936785">
        <ele>6.0</ele>
        <time>2019-05-16T14:04:27.902Z</time>
      </trkpt>
      <trkpt lat="39.03497667" lon="-8.936785">
        <ele>6.0</ele>
        <time>2019-05-16T14:04:28.928Z</time>
      </trkpt>
      <trkpt lat="39.03497667" lon="-8.936785">
        <ele>6.0</ele>
        <time>2019-05-16T14:04:29.921Z</time>
      </trkpt>
      <trkpt lat="39.03497667" lon="-8.936785">
        <ele>6.0</ele>
        <time>2019-05-16T14:04:30.918Z</time>
      </trkpt>
      <trkpt lat="39.03497667" lon="-8.936785">
        <ele>6.0</ele>
        <time>2019-05-16T14:04:31.922Z</time>
      </trkpt>
      <trkpt lat="39.03497667" lon="-8.936785">
        <ele>6.0</ele>
        <time>2019-05-16T14:04:32.922Z</time>
      </trkpt>
      <trkpt lat="39.03497667" lon="-8.936785">
        <ele>6.0</ele>
        <time>2019-05-16T14:04:33.922Z</time>
      </trkpt>
      <trkpt lat="39.03497667" lon="-8.936785">
        <ele>6.0</ele>
        <time>2019-05-16T14:04:34.917Z</time>
      </trkpt>
      <trkpt lat="39.03497667" lon="-8.936785">
        <ele>6.0</ele>
        <time>2019-05-16T14:04:35.928Z</time>
      </trkpt>
      <trkpt lat="39.03497667" lon="-8.936785">
        <ele>6.0</ele>
        <time>2019-05-16T14:04:36.922Z</time>
      </trkpt>
      <trkpt lat="39.03497667" lon="-8.936785">
        <ele>6.0</ele>
        <time>2019-05-16T14:04:37.917Z</time>
      </trkpt>
      <trkpt lat="39.03497667" lon="-8.936785">
        <ele>6.0</ele>
        <time>2019-05-16T14:04:38.924Z</time>
      </trkpt>
      <trkpt lat="39.03497667" lon="-8.936785">
        <ele>6.0</ele>
        <time>2019-05-16T14:04:39.921Z</time>
      </trkpt>
      <trkpt lat="39.03497667" lon="-8.936785">
        <ele>6.0</ele>
        <time>2019-05-16T14:04:40.917Z</time>
      </trkpt>
      <trkpt lat="39.03497667" lon="-8.936785">
        <ele>6.0</ele>
        <time>2019-05-16T14:04:41.922Z</time>
      </trkpt>
      <trkpt lat="39.03497667" lon="-8.936785">
        <ele>6.0</ele>
        <time>2019-05-16T14:04:42.917Z</time>
      </trkpt>
      <trkpt lat="39.03499833" lon="-8.93680167">
        <ele>7.0</ele>
        <time>2019-05-16T14:04:43.922Z</time>
      </trkpt>
      <trkpt lat="39.03500167" lon="-8.93680333">
        <ele>7.0</ele>
        <time>2019-05-16T14:04:44.923Z</time>
      </trkpt>
      <trkpt lat="39.03500167" lon="-8.93680333">
        <ele>7.0</ele>
        <time>2019-05-16T14:04:45.917Z</time>
      </trkpt>
      <trkpt lat="39.03500833" lon="-8.93680667">
        <ele>7.0</ele>
        <time>2019-05-16T14:04:46.922Z</time>
      </trkpt>
      <trkpt lat="39.03500833" lon="-8.93680667">
        <ele>7.0</ele>
        <time>2019-05-16T14:04:47.917Z</time>
      </trkpt>
      <trkpt lat="39.03500833" lon="-8.936805">
        <ele>7.0</ele>
        <time>2019-05-16T14:04:48.922Z</time>
      </trkpt>
      <trkpt lat="39.03500833" lon="-8.936805">
        <ele>7.0</ele>
        <time>2019-05-16T14:04:49.922Z</time>
      </trkpt>
      <trkpt lat="39.03500833" lon="-8.936805">
        <ele>7.0</ele>
        <time>2019-05-16T14:04:50.919Z</time>
      </trkpt>
      <trkpt lat="39.03500833" lon="-8.936805">
        <ele>7.0</ele>
        <time>2019-05-16T14:04:51.919Z</time>
      </trkpt>
      <trkpt lat="39.03500833" lon="-8.936805">
        <ele>7.0</ele>
        <time>2019-05-16T14:04:52.922Z</time>
      </trkpt>
      <trkpt lat="39.03500833" lon="-8.936805">
        <ele>7.0</ele>
        <time>2019-05-16T14:04:53.917Z</time>
      </trkpt>
      <trkpt lat="39.03500833" lon="-8.936805">
        <ele>7.0</ele>
        <time>2019-05-16T14:04:54.922Z</time>
      </trkpt>
      <trkpt lat="39.03500833" lon="-8.936805">
        <ele>7.0</ele>
        <time>2019-05-16T14:04:55.919Z</time>
      </trkpt>
      <trkpt lat="39.03500833" lon="-8.936805">
        <ele>7.0</ele>
        <time>2019-05-16T14:04:56.923Z</time>
      </trkpt>
      <trkpt lat="39.03500833" lon="-8.936805">
        <ele>7.0</ele>
        <time>2019-05-16T14:04:57.917Z</time>
      </trkpt>
      <trkpt lat="39.03500833" lon="-8.936805">
        <ele>7.0</ele>
        <time>2019-05-16T14:04:58.922Z</time>
      </trkpt>
      <trkpt lat="39.03500833" lon="-8.936805">
        <ele>7.0</ele>
        <time>2019-05-16T14:04:59.917Z</time>
      </trkpt>
      <trkpt lat="39.03500833" lon="-8.936805">
        <ele>7.0</ele>
        <time>2019-05-16T14:05:00.902Z</time>
      </trkpt>
      <trkpt lat="39.03500833" lon="-8.936805">
        <ele>7.0</ele>
        <time>2019-05-16T14:05:01.931Z</time>
      </trkpt>
      <trkpt lat="39.03500833" lon="-8.936805">
        <ele>7.0</ele>
        <time>2019-05-16T14:05:02.919Z</time>
      </trkpt>
      <trkpt lat="39.03500833" lon="-8.936805">
        <ele>7.0</ele>
        <time>2019-05-16T14:05:03.897Z</time>
      </trkpt>
      <trkpt lat="39.03500833" lon="-8.936805">
        <ele>7.0</ele>
        <time>2019-05-16T14:05:04.923Z</time>
      </trkpt>
      <trkpt lat="39.03500833" lon="-8.936805">
        <ele>7.0</ele>
        <time>2019-05-16T14:05:05.922Z</time>
      </trkpt>
      <trkpt lat="39.03500833" lon="-8.936805">
        <ele>7.0</ele>
        <time>2019-05-16T14:05:06.917Z</time>
      </trkpt>
      <trkpt lat="39.03500833" lon="-8.936805">
        <ele>7.0</ele>
        <time>2019-05-16T14:05:07.922Z</time>
      </trkpt>
      <trkpt lat="39.03500833" lon="-8.936805">
        <ele>7.0</ele>
        <time>2019-05-16T14:05:08.924Z</time>
      </trkpt>
      <trkpt lat="39.03500833" lon="-8.936805">
        <ele>7.0</ele>
        <time>2019-05-16T14:05:09.918Z</time>
      </trkpt>
      <trkpt lat="39.035055" lon="-8.93681833">
        <ele>5.0</ele>
        <time>2019-05-16T14:05:10.921Z</time>
      </trkpt>
      <trkpt lat="39.035055" lon="-8.93681833">
        <ele>5.0</ele>
        <time>2019-05-16T14:05:11.917Z</time>
      </trkpt>
      <trkpt lat="39.03509333" lon="-8.93682667">
        <ele>6.0</ele>
        <time>2019-05-16T14:05:12.922Z</time>
      </trkpt>
      <trkpt lat="39.03511833" lon="-8.93682167">
        <ele>6.0</ele>
        <time>2019-05-16T14:05:13.922Z</time>
      </trkpt>
      <trkpt lat="39.03511833" lon="-8.93682167">
        <ele>6.0</ele>
        <time>2019-05-16T14:05:14.919Z</time>
      </trkpt>
      <trkpt lat="39.03516" lon="-8.93683167">
        <ele>6.0</ele>
        <time>2019-05-16T14:05:15.901Z</time>
      </trkpt>
      <trkpt lat="39.03516" lon="-8.93683167">
        <ele>6.0</ele>
        <time>2019-05-16T14:05:16.903Z</time>
      </trkpt>
      <trkpt lat="39.03518333" lon="-8.936855">
        <ele>5.0</ele>
        <time>2019-05-16T14:05:17.921Z</time>
      </trkpt>
      <trkpt lat="39.03518333" lon="-8.936855">
        <ele>5.0</ele>
        <time>2019-05-16T14:05:18.934Z</time>
      </trkpt>
      <trkpt lat="39.03520667" lon="-8.936875">
        <ele>5.0</ele>
        <time>2019-05-16T14:05:19.910Z</time>
      </trkpt>
      <trkpt lat="39.03520667" lon="-8.936875">
        <ele>5.0</ele>
        <time>2019-05-16T14:05:20.921Z</time>
      </trkpt>
      <trkpt lat="39.03523333" lon="-8.93687833">
        <ele>4.0</ele>
        <time>2019-05-16T14:05:21.935Z</time>
      </trkpt>
      <trkpt lat="39.03523333" lon="-8.93687833">
        <ele>4.0</ele>
        <time>2019-05-16T14:05:22.922Z</time>
      </trkpt>
      <trkpt lat="39.03524167" lon="-8.93686">
        <ele>4.0</ele>
        <time>2019-05-16T14:05:23.900Z</time>
      </trkpt>
      <trkpt lat="39.03524167" lon="-8.93686">
        <ele>4.0</ele>
        <time>2019-05-16T14:05:24.923Z</time>
      </trkpt>
      <trkpt lat="39.03524" lon="-8.93686333">
        <ele>4.0</ele>
        <time>2019-05-16T14:05:25.902Z</time>
      </trkpt>
      <trkpt lat="39.03524" lon="-8.93686333">
        <ele>4.0</ele>
        <time>2019-05-16T14:05:26.923Z</time>
      </trkpt>
      <trkpt lat="39.03524" lon="-8.93686333">
        <ele>4.0</ele>
        <time>2019-05-16T14:05:27.929Z</time>
      </trkpt>
      <trkpt lat="39.03524" lon="-8.93686333">
        <ele>4.0</ele>
        <time>2019-05-16T14:05:28.936Z</time>
      </trkpt>
      <trkpt lat="39.03524" lon="-8.93686333">
        <ele>4.0</ele>
        <time>2019-05-16T14:05:29.903Z</time>
      </trkpt>
      <trkpt lat="39.03526167" lon="-8.93682667">
        <ele>4.0</ele>
        <time>2019-05-16T14:05:30.911Z</time>
      </trkpt>
      <trkpt lat="39.03526167" lon="-8.93682667">
        <ele>4.0</ele>
        <time>2019-05-16T14:05:31.918Z</time>
      </trkpt>
      <trkpt lat="39.03528167" lon="-8.93679333">
        <ele>5.0</ele>
        <time>2019-05-16T14:05:32.924Z</time>
      </trkpt>
      <trkpt lat="39.03528167" lon="-8.93679333">
        <ele>5.0</ele>
        <time>2019-05-16T14:05:33.917Z</time>
      </trkpt>
      <trkpt lat="39.035305" lon="-8.93675167">
        <ele>5.0</ele>
        <time>2019-05-16T14:05:34.927Z</time>
      </trkpt>
      <trkpt lat="39.035305" lon="-8.93675167">
        <ele>5.0</ele>
        <time>2019-05-16T14:05:35.918Z</time>
      </trkpt>
      <trkpt lat="39.03534167" lon="-8.93670667">
        <ele>5.0</ele>
        <time>2019-05-16T14:05:36.900Z</time>
      </trkpt>
      <trkpt lat="39.03534167" lon="-8.93670667">
        <ele>5.0</ele>
        <time>2019-05-16T14:05:37.932Z</time>
      </trkpt>
      <trkpt lat="39.035385" lon="-8.93666167">
        <ele>5.0</ele>
        <time>2019-05-16T14:05:38.921Z</time>
      </trkpt>
      <trkpt lat="39.035385" lon="-8.93666167">
        <ele>5.0</ele>
        <time>2019-05-16T14:05:39.934Z</time>
      </trkpt>
      <trkpt lat="39.035425" lon="-8.93661667">
        <ele>5.0</ele>
        <time>2019-05-16T14:05:40.914Z</time>
      </trkpt>
      <trkpt lat="39.035425" lon="-8.93661667">
        <ele>5.0</ele>
        <time>2019-05-16T14:05:41.904Z</time>
      </trkpt>
      <trkpt lat="39.03545833" lon="-8.93657167">
        <ele>5.0</ele>
        <time>2019-05-16T14:05:42.930Z</time>
      </trkpt>
      <trkpt lat="39.03545833" lon="-8.93657167">
        <ele>5.0</ele>
        <time>2019-05-16T14:05:43.922Z</time>
      </trkpt>
      <trkpt lat="39.035495" lon="-8.93652333">
        <ele>5.0</ele>
        <time>2019-05-16T14:05:44.911Z</time>
      </trkpt>
      <trkpt lat="39.035495" lon="-8.93652333">
        <ele>5.0</ele>
        <time>2019-05-16T14:05:45.927Z</time>
      </trkpt>
      <trkpt lat="39.03554" lon="-8.93647167">
        <ele>6.0</ele>
        <time>2019-05-16T14:05:46.912Z</time>
      </trkpt>
      <trkpt lat="39.03554" lon="-8.93647167">
        <ele>6.0</ele>
        <time>2019-05-16T14:05:47.911Z</time>
      </trkpt>
      <trkpt lat="39.03559167" lon="-8.93641333">
        <ele>6.0</ele>
        <time>2019-05-16T14:05:48.935Z</time>
      </trkpt>
      <trkpt lat="39.03559167" lon="-8.93641333">
        <ele>6.0</ele>
        <time>2019-05-16T14:05:49.933Z</time>
      </trkpt>
      <trkpt lat="39.03565333" lon="-8.936345">
        <ele>6.0</ele>
        <time>2019-05-16T14:05:50.910Z</time>
      </trkpt>
      <trkpt lat="39.03565333" lon="-8.936345">
        <ele>6.0</ele>
        <time>2019-05-16T14:05:51.932Z</time>
      </trkpt>
      <trkpt lat="39.03570667" lon="-8.93625833">
        <ele>7.0</ele>
        <time>2019-05-16T14:05:52.918Z</time>
      </trkpt>
      <trkpt lat="39.03570667" lon="-8.93625833">
        <ele>7.0</ele>
        <time>2019-05-16T14:05:53.899Z</time>
      </trkpt>
      <trkpt lat="39.03575667" lon="-8.93618667">
        <ele>7.0</ele>
        <time>2019-05-16T14:05:54.935Z</time>
      </trkpt>
      <trkpt lat="39.03575667" lon="-8.93618667">
        <ele>7.0</ele>
        <time>2019-05-16T14:05:55.933Z</time>
      </trkpt>
      <trkpt lat="39.035795" lon="-8.93613333">
        <ele>8.0</ele>
        <time>2019-05-16T14:05:56.925Z</time>
      </trkpt>
      <trkpt lat="39.035795" lon="-8.93613333">
        <ele>8.0</ele>
        <time>2019-05-16T14:05:57.920Z</time>
      </trkpt>
      <trkpt lat="39.03583" lon="-8.936075">
        <ele>8.0</ele>
        <time>2019-05-16T14:05:58.905Z</time>
      </trkpt>
      <trkpt lat="39.03583" lon="-8.936075">
        <ele>8.0</ele>
        <time>2019-05-16T14:05:59.922Z</time>
      </trkpt>
      <trkpt lat="39.03586667" lon="-8.93601667">
        <ele>9.0</ele>
        <time>2019-05-16T14:06:00.909Z</time>
      </trkpt>
      <trkpt lat="39.03586667" lon="-8.93601667">
        <ele>9.0</ele>
        <time>2019-05-16T14:06:01.933Z</time>
      </trkpt>
      <trkpt lat="39.0359" lon="-8.93595333">
        <ele>9.0</ele>
        <time>2019-05-16T14:06:02.915Z</time>
      </trkpt>
      <trkpt lat="39.0359" lon="-8.93595333">
        <ele>9.0</ele>
        <time>2019-05-16T14:06:03.922Z</time>
      </trkpt>
      <trkpt lat="39.03591667" lon="-8.93589833">
        <ele>9.0</ele>
        <time>2019-05-16T14:06:04.908Z</time>
      </trkpt>
      <trkpt lat="39.03591667" lon="-8.93589833">
        <ele>9.0</ele>
        <time>2019-05-16T14:06:05.916Z</time>
      </trkpt>
      <trkpt lat="39.03593333" lon="-8.935845">
        <ele>8.0</ele>
        <time>2019-05-16T14:06:06.935Z</time>
      </trkpt>
      <trkpt lat="39.03593333" lon="-8.935845">
        <ele>8.0</ele>
        <time>2019-05-16T14:06:07.903Z</time>
      </trkpt>
      <trkpt lat="39.03595333" lon="-8.93578167">
        <ele>8.0</ele>
        <time>2019-05-16T14:06:08.933Z</time>
      </trkpt>
      <trkpt lat="39.03595333" lon="-8.93578167">
        <ele>8.0</ele>
        <time>2019-05-16T14:06:09.912Z</time>
      </trkpt>
      <trkpt lat="39.03597833" lon="-8.93571">
        <ele>8.0</ele>
        <time>2019-05-16T14:06:10.926Z</time>
      </trkpt>
      <trkpt lat="39.03597833" lon="-8.93571">
        <ele>8.0</ele>
        <time>2019-05-16T14:06:11.928Z</time>
      </trkpt>
      <trkpt lat="39.03599833" lon="-8.93562833">
        <ele>7.0</ele>
        <time>2019-05-16T14:06:12.911Z</time>
      </trkpt>
      <trkpt lat="39.03599833" lon="-8.93562833">
        <ele>7.0</ele>
        <time>2019-05-16T14:06:13.934Z</time>
      </trkpt>
      <trkpt lat="39.03604167" lon="-8.93557333">
        <ele>7.0</ele>
        <time>2019-05-16T14:06:14.908Z</time>
      </trkpt>
      <trkpt lat="39.03604167" lon="-8.93557333">
        <ele>7.0</ele>
        <time>2019-05-16T14:06:15.934Z</time>
      </trkpt>
      <trkpt lat="39.03611167" lon="-8.93554333">
        <ele>6.0</ele>
        <time>2019-05-16T14:06:16.911Z</time>
      </trkpt>
      <trkpt lat="39.03611167" lon="-8.93554333">
        <ele>6.0</ele>
        <time>2019-05-16T14:06:17.932Z</time>
      </trkpt>
      <trkpt lat="39.03618667" lon="-8.93552333">
        <ele>5.0</ele>
        <time>2019-05-16T14:06:18.912Z</time>
      </trkpt>
      <trkpt lat="39.03618667" lon="-8.93552333">
        <ele>5.0</ele>
        <time>2019-05-16T14:06:19.929Z</time>
      </trkpt>
      <trkpt lat="39.03626" lon="-8.93550667">
        <ele>5.0</ele>
        <time>2019-05-16T14:06:20.921Z</time>
      </trkpt>
      <trkpt lat="39.03626" lon="-8.93550667">
        <ele>5.0</ele>
        <time>2019-05-16T14:06:21.897Z</time>
      </trkpt>
      <trkpt lat="39.03632667" lon="-8.935495">
        <ele>4.0</ele>
        <time>2019-05-16T14:06:22.911Z</time>
      </trkpt>
      <trkpt lat="39.03632667" lon="-8.935495">
        <ele>4.0</ele>
        <time>2019-05-16T14:06:23.915Z</time>
      </trkpt>
      <trkpt lat="39.03638667" lon="-8.93546833">
        <ele>3.0</ele>
        <time>2019-05-16T14:06:24.899Z</time>
      </trkpt>
      <trkpt lat="39.03638667" lon="-8.93546833">
        <ele>3.0</ele>
        <time>2019-05-16T14:06:25.900Z</time>
      </trkpt>
      <trkpt lat="39.03645333" lon="-8.93543">
        <ele>3.0</ele>
        <time>2019-05-16T14:06:26.931Z</time>
      </trkpt>
      <trkpt lat="39.03645333" lon="-8.93543">
        <ele>3.0</ele>
        <time>2019-05-16T14:06:27.933Z</time>
      </trkpt>
      <trkpt lat="39.03652667" lon="-8.93538333">
        <ele>2.0</ele>
        <time>2019-05-16T14:06:28.928Z</time>
      </trkpt>
      <trkpt lat="39.03652667" lon="-8.93538333">
        <ele>2.0</ele>
        <time>2019-05-16T14:06:29.910Z</time>
      </trkpt>
      <trkpt lat="39.03658167" lon="-8.935325">
        <ele>2.0</ele>
        <time>2019-05-16T14:06:30.931Z</time>
      </trkpt>
      <trkpt lat="39.03658167" lon="-8.935325">
        <ele>2.0</ele>
        <time>2019-05-16T14:06:31.915Z</time>
      </trkpt>
      <trkpt lat="39.03662667" lon="-8.93528167">
        <ele>2.0</ele>
        <time>2019-05-16T14:06:32.937Z</time>
      </trkpt>
      <trkpt lat="39.03662667" lon="-8.93528167">
        <ele>2.0</ele>
        <time>2019-05-16T14:06:33.913Z</time>
      </trkpt>
      <trkpt lat="39.03665667" lon="-8.93523833">
        <ele>3.0</ele>
        <time>2019-05-16T14:06:34.936Z</time>
      </trkpt>
      <trkpt lat="39.03665667" lon="-8.93523833">
        <ele>3.0</ele>
        <time>2019-05-16T14:06:35.915Z</time>
      </trkpt>
      <trkpt lat="39.03670667" lon="-8.93519">
        <ele>3.0</ele>
        <time>2019-05-16T14:06:36.929Z</time>
      </trkpt>
      <trkpt lat="39.03670667" lon="-8.93519">
        <ele>3.0</ele>
        <time>2019-05-16T14:06:37.899Z</time>
      </trkpt>
      <trkpt lat="39.03676333" lon="-8.93513667">
        <ele>4.0</ele>
        <time>2019-05-16T14:06:38.934Z</time>
      </trkpt>
      <trkpt lat="39.03676333" lon="-8.93513667">
        <ele>4.0</ele>
        <time>2019-05-16T14:06:39.915Z</time>
      </trkpt>
      <trkpt lat="39.03681833" lon="-8.93508">
        <ele>4.0</ele>
        <time>2019-05-16T14:06:40.934Z</time>
      </trkpt>
      <trkpt lat="39.03681833" lon="-8.93508">
        <ele>4.0</ele>
        <time>2019-05-16T14:06:41.920Z</time>
      </trkpt>
      <trkpt lat="39.03686" lon="-8.935035">
        <ele>4.0</ele>
        <time>2019-05-16T14:06:42.897Z</time>
      </trkpt>
      <trkpt lat="39.03686" lon="-8.935035">
        <ele>4.0</ele>
        <time>2019-05-16T14:06:43.918Z</time>
      </trkpt>
      <trkpt lat="39.03689833" lon="-8.93499167">
        <ele>4.0</ele>
        <time>2019-05-16T14:06:44.939Z</time>
      </trkpt>
      <trkpt lat="39.03689833" lon="-8.93499167">
        <ele>4.0</ele>
        <time>2019-05-16T14:06:45.928Z</time>
      </trkpt>
      <trkpt lat="39.03693333" lon="-8.93494667">
        <ele>5.0</ele>
        <time>2019-05-16T14:06:46.906Z</time>
      </trkpt>
      <trkpt lat="39.03693333" lon="-8.93494667">
        <ele>5.0</ele>
        <time>2019-05-16T14:06:47.923Z</time>
      </trkpt>
      <trkpt lat="39.03697167" lon="-8.9349">
        <ele>5.0</ele>
        <time>2019-05-16T14:06:48.898Z</time>
      </trkpt>
      <trkpt lat="39.03697167" lon="-8.9349">
        <ele>5.0</ele>
        <time>2019-05-16T14:06:49.934Z</time>
      </trkpt>
      <trkpt lat="39.03699667" lon="-8.93485167">
        <ele>6.0</ele>
        <time>2019-05-16T14:06:50.916Z</time>
      </trkpt>
      <trkpt lat="39.03699667" lon="-8.93485167">
        <ele>6.0</ele>
        <time>2019-05-16T14:06:51.934Z</time>
      </trkpt>
      <trkpt lat="39.03702" lon="-8.93480167">
        <ele>6.0</ele>
        <time>2019-05-16T14:06:52.920Z</time>
      </trkpt>
      <trkpt lat="39.03702" lon="-8.93480167">
        <ele>6.0</ele>
        <time>2019-05-16T14:06:53.933Z</time>
      </trkpt>
      <trkpt lat="39.03704333" lon="-8.93474833">
        <ele>6.0</ele>
        <time>2019-05-16T14:06:54.911Z</time>
      </trkpt>
      <trkpt lat="39.03704333" lon="-8.93474833">
        <ele>6.0</ele>
        <time>2019-05-16T14:06:55.917Z</time>
      </trkpt>
      <trkpt lat="39.037065" lon="-8.93469167">
        <ele>6.0</ele>
        <time>2019-05-16T14:06:56.902Z</time>
      </trkpt>
      <trkpt lat="39.037065" lon="-8.93469167">
        <ele>6.0</ele>
        <time>2019-05-16T14:06:57.934Z</time>
      </trkpt>
      <trkpt lat="39.03707833" lon="-8.93463167">
        <ele>6.0</ele>
        <time>2019-05-16T14:06:58.912Z</time>
      </trkpt>
      <trkpt lat="39.03707833" lon="-8.93463167">
        <ele>6.0</ele>
        <time>2019-05-16T14:06:59.922Z</time>
      </trkpt>
      <trkpt lat="39.03708833" lon="-8.93457">
        <ele>7.0</ele>
        <time>2019-05-16T14:07:00.900Z</time>
      </trkpt>
      <trkpt lat="39.03708833" lon="-8.93457">
        <ele>7.0</ele>
        <time>2019-05-16T14:07:01.926Z</time>
      </trkpt>
      <trkpt lat="39.03710167" lon="-8.93451">
        <ele>7.0</ele>
        <time>2019-05-16T14:07:02.933Z</time>
      </trkpt>
      <trkpt lat="39.03710167" lon="-8.93451">
        <ele>7.0</ele>
        <time>2019-05-16T14:07:03.912Z</time>
      </trkpt>
      <trkpt lat="39.03712" lon="-8.93445167">
        <ele>7.0</ele>
        <time>2019-05-16T14:07:04.928Z</time>
      </trkpt>
      <trkpt lat="39.03712" lon="-8.93445167">
        <ele>7.0</ele>
        <time>2019-05-16T14:07:05.936Z</time>
      </trkpt>
      <trkpt lat="39.037135" lon="-8.93439">
        <ele>7.0</ele>
        <time>2019-05-16T14:07:06.907Z</time>
      </trkpt>
      <trkpt lat="39.037135" lon="-8.93439">
        <ele>7.0</ele>
        <time>2019-05-16T14:07:07.906Z</time>
      </trkpt>
      <trkpt lat="39.03715167" lon="-8.93433333">
        <ele>7.0</ele>
        <time>2019-05-16T14:07:08.941Z</time>
      </trkpt>
      <trkpt lat="39.03715167" lon="-8.93433333">
        <ele>7.0</ele>
        <time>2019-05-16T14:07:09.934Z</time>
      </trkpt>
      <trkpt lat="39.03716333" lon="-8.93426833">
        <ele>8.0</ele>
        <time>2019-05-16T14:07:10.911Z</time>
      </trkpt>
      <trkpt lat="39.03716333" lon="-8.93426833">
        <ele>8.0</ele>
        <time>2019-05-16T14:07:11.933Z</time>
      </trkpt>
      <trkpt lat="39.03717" lon="-8.93420667">
        <ele>8.0</ele>
        <time>2019-05-16T14:07:12.913Z</time>
      </trkpt>
      <trkpt lat="39.03717" lon="-8.93420667">
        <ele>8.0</ele>
        <time>2019-05-16T14:07:13.929Z</time>
      </trkpt>
      <trkpt lat="39.03718333" lon="-8.93414167">
        <ele>8.0</ele>
        <time>2019-05-16T14:07:14.909Z</time>
      </trkpt>
      <trkpt lat="39.03718333" lon="-8.93414167">
        <ele>8.0</ele>
        <time>2019-05-16T14:07:15.905Z</time>
      </trkpt>
      <trkpt lat="39.03720333" lon="-8.93408333">
        <ele>8.0</ele>
        <time>2019-05-16T14:07:16.936Z</time>
      </trkpt>
      <trkpt lat="39.03720333" lon="-8.93408333">
        <ele>8.0</ele>
        <time>2019-05-16T14:07:17.909Z</time>
      </trkpt>
      <trkpt lat="39.03723" lon="-8.93402833">
        <ele>9.0</ele>
        <time>2019-05-16T14:07:18.930Z</time>
      </trkpt>
      <trkpt lat="39.03723" lon="-8.93402833">
        <ele>9.0</ele>
        <time>2019-05-16T14:07:19.898Z</time>
      </trkpt>
      <trkpt lat="39.03724167" lon="-8.93396667">
        <ele>10.0</ele>
        <time>2019-05-16T14:07:20.900Z</time>
      </trkpt>
      <trkpt lat="39.03724167" lon="-8.93396667">
        <ele>10.0</ele>
        <time>2019-05-16T14:07:21.899Z</time>
      </trkpt>
      <trkpt lat="39.03725" lon="-8.93390667">
        <ele>11.0</ele>
        <time>2019-05-16T14:07:22.929Z</time>
      </trkpt>
      <trkpt lat="39.03725" lon="-8.93390667">
        <ele>11.0</ele>
        <time>2019-05-16T14:07:23.913Z</time>
      </trkpt>
      <trkpt lat="39.03725833" lon="-8.93384333">
        <ele>11.0</ele>
        <time>2019-05-16T14:07:24.908Z</time>
      </trkpt>
      <trkpt lat="39.03725833" lon="-8.93384333">
        <ele>11.0</ele>
        <time>2019-05-16T14:07:25.928Z</time>
      </trkpt>
      <trkpt lat="39.03726167" lon="-8.93377333">
        <ele>11.0</ele>
        <time>2019-05-16T14:07:26.912Z</time>
      </trkpt>
      <trkpt lat="39.03726167" lon="-8.93377333">
        <ele>11.0</ele>
        <time>2019-05-16T14:07:27.913Z</time>
      </trkpt>
      <trkpt lat="39.03727" lon="-8.93370667">
        <ele>12.0</ele>
        <time>2019-05-16T14:07:28.936Z</time>
      </trkpt>
      <trkpt lat="39.03727" lon="-8.93370667">
        <ele>12.0</ele>
        <time>2019-05-16T14:07:29.910Z</time>
      </trkpt>
      <trkpt lat="39.03728167" lon="-8.93364333">
        <ele>12.0</ele>
        <time>2019-05-16T14:07:30.900Z</time>
      </trkpt>
      <trkpt lat="39.03728167" lon="-8.93364333">
        <ele>12.0</ele>
        <time>2019-05-16T14:07:31.913Z</time>
      </trkpt>
      <trkpt lat="39.03729333" lon="-8.93357667">
        <ele>12.0</ele>
        <time>2019-05-16T14:07:32.913Z</time>
      </trkpt>
      <trkpt lat="39.03729333" lon="-8.93357667">
        <ele>12.0</ele>
        <time>2019-05-16T14:07:33.928Z</time>
      </trkpt>
      <trkpt lat="39.03730333" lon="-8.93351">
        <ele>13.0</ele>
        <time>2019-05-16T14:07:34.931Z</time>
      </trkpt>
      <trkpt lat="39.03730333" lon="-8.93351">
        <ele>13.0</ele>
        <time>2019-05-16T14:07:35.911Z</time>
      </trkpt>
      <trkpt lat="39.037315" lon="-8.93344333">
        <ele>13.0</ele>
        <time>2019-05-16T14:07:36.931Z</time>
      </trkpt>
      <trkpt lat="39.037315" lon="-8.93344333">
        <ele>13.0</ele>
        <time>2019-05-16T14:07:37.910Z</time>
      </trkpt>
      <trkpt lat="39.03732667" lon="-8.933385">
        <ele>13.0</ele>
        <time>2019-05-16T14:07:38.899Z</time>
      </trkpt>
      <trkpt lat="39.03732667" lon="-8.933385">
        <ele>13.0</ele>
        <time>2019-05-16T14:07:39.923Z</time>
      </trkpt>
      <trkpt lat="39.03733667" lon="-8.93333167">
        <ele>13.0</ele>
        <time>2019-05-16T14:07:40.902Z</time>
      </trkpt>
      <trkpt lat="39.03733667" lon="-8.93333167">
        <ele>13.0</ele>
        <time>2019-05-16T14:07:41.923Z</time>
      </trkpt>
      <trkpt lat="39.03735167" lon="-8.93327833">
        <ele>14.0</ele>
        <time>2019-05-16T14:07:42.941Z</time>
      </trkpt>
      <trkpt lat="39.03735167" lon="-8.93327833">
        <ele>14.0</ele>
        <time>2019-05-16T14:07:43.920Z</time>
      </trkpt>
      <trkpt lat="39.037365" lon="-8.933225">
        <ele>14.0</ele>
        <time>2019-05-16T14:07:44.913Z</time>
      </trkpt>
      <trkpt lat="39.037365" lon="-8.933225">
        <ele>14.0</ele>
        <time>2019-05-16T14:07:45.910Z</time>
      </trkpt>
      <trkpt lat="39.037385" lon="-8.93316667">
        <ele>15.0</ele>
        <time>2019-05-16T14:07:46.934Z</time>
      </trkpt>
      <trkpt lat="39.03739667" lon="-8.93313833">
        <ele>15.0</ele>
        <time>2019-05-16T14:07:47.921Z</time>
      </trkpt>
      <trkpt lat="39.03739667" lon="-8.93313833">
        <ele>15.0</ele>
        <time>2019-05-16T14:07:48.914Z</time>
      </trkpt>
      <trkpt lat="39.03742167" lon="-8.93308667">
        <ele>15.0</ele>
        <time>2019-05-16T14:07:49.900Z</time>
      </trkpt>
      <trkpt lat="39.03743333" lon="-8.93306167">
        <ele>15.0</ele>
        <time>2019-05-16T14:07:50.938Z</time>
      </trkpt>
      <trkpt lat="39.03743333" lon="-8.93306167">
        <ele>15.0</ele>
        <time>2019-05-16T14:07:51.913Z</time>
      </trkpt>
      <trkpt lat="39.03746167" lon="-8.93301333">
        <ele>16.0</ele>
        <time>2019-05-16T14:07:52.936Z</time>
      </trkpt>
      <trkpt lat="39.03746167" lon="-8.93301333">
        <ele>16.0</ele>
        <time>2019-05-16T14:07:53.929Z</time>
      </trkpt>
      <trkpt lat="39.03749333" lon="-8.93297">
        <ele>16.0</ele>
        <time>2019-05-16T14:07:54.908Z</time>
      </trkpt>
      <trkpt lat="39.03749333" lon="-8.93297">
        <ele>16.0</ele>
        <time>2019-05-16T14:07:55.897Z</time>
      </trkpt>
      <trkpt lat="39.03753" lon="-8.93292833">
        <ele>16.0</ele>
        <time>2019-05-16T14:07:56.917Z</time>
      </trkpt>
      <trkpt lat="39.03753" lon="-8.93292833">
        <ele>16.0</ele>
        <time>2019-05-16T14:07:57.917Z</time>
      </trkpt>
      <trkpt lat="39.03756333" lon="-8.93288833">
        <ele>16.0</ele>
        <time>2019-05-16T14:07:58.939Z</time>
      </trkpt>
      <trkpt lat="39.03756333" lon="-8.93288833">
        <ele>16.0</ele>
        <time>2019-05-16T14:07:59.921Z</time>
      </trkpt>
      <trkpt lat="39.03760333" lon="-8.93285167">
        <ele>16.0</ele>
        <time>2019-05-16T14:08:00.924Z</time>
      </trkpt>
      <trkpt lat="39.03760333" lon="-8.93285167">
        <ele>16.0</ele>
        <time>2019-05-16T14:08:01.934Z</time>
      </trkpt>
      <trkpt lat="39.03764333" lon="-8.93281667">
        <ele>15.0</ele>
        <time>2019-05-16T14:08:02.918Z</time>
      </trkpt>
      <trkpt lat="39.03764333" lon="-8.93281667">
        <ele>15.0</ele>
        <time>2019-05-16T14:08:03.928Z</time>
      </trkpt>
      <trkpt lat="39.03768333" lon="-8.93277667">
        <ele>15.0</ele>
        <time>2019-05-16T14:08:04.907Z</time>
      </trkpt>
      <trkpt lat="39.03768333" lon="-8.93277667">
        <ele>15.0</ele>
        <time>2019-05-16T14:08:05.934Z</time>
      </trkpt>
      <trkpt lat="39.03770833" lon="-8.93273333">
        <ele>16.0</ele>
        <time>2019-05-16T14:08:06.910Z</time>
      </trkpt>
      <trkpt lat="39.03770833" lon="-8.93273333">
        <ele>16.0</ele>
        <time>2019-05-16T14:08:07.923Z</time>
      </trkpt>
      <trkpt lat="39.03773" lon="-8.93269667">
        <ele>16.0</ele>
        <time>2019-05-16T14:08:08.910Z</time>
      </trkpt>
      <trkpt lat="39.03773" lon="-8.93269667">
        <ele>16.0</ele>
        <time>2019-05-16T14:08:09.913Z</time>
      </trkpt>
      <trkpt lat="39.037765" lon="-8.93266333">
        <ele>16.0</ele>
        <time>2019-05-16T14:08:10.931Z</time>
      </trkpt>
      <trkpt lat="39.037765" lon="-8.93266333">
        <ele>16.0</ele>
        <time>2019-05-16T14:08:11.914Z</time>
      </trkpt>
      <trkpt lat="39.03781833" lon="-8.93263">
        <ele>16.0</ele>
        <time>2019-05-16T14:08:12.941Z</time>
      </trkpt>
      <trkpt lat="39.03781833" lon="-8.93263">
        <ele>16.0</ele>
        <time>2019-05-16T14:08:13.928Z</time>
      </trkpt>
      <trkpt lat="39.03786167" lon="-8.93259167">
        <ele>16.0</ele>
        <time>2019-05-16T14:08:14.910Z</time>
      </trkpt>
      <trkpt lat="39.03786167" lon="-8.93259167">
        <ele>16.0</ele>
        <time>2019-05-16T14:08:15.927Z</time>
      </trkpt>
      <trkpt lat="39.03790167" lon="-8.93255">
        <ele>16.0</ele>
        <time>2019-05-16T14:08:16.912Z</time>
      </trkpt>
      <trkpt lat="39.03790167" lon="-8.93255">
        <ele>16.0</ele>
        <time>2019-05-16T14:08:17.932Z</time>
      </trkpt>
      <trkpt lat="39.03794667" lon="-8.93250833">
        <ele>16.0</ele>
        <time>2019-05-16T14:08:18.907Z</time>
      </trkpt>
      <trkpt lat="39.03794667" lon="-8.93250833">
        <ele>16.0</ele>
        <time>2019-05-16T14:08:19.897Z</time>
      </trkpt>
      <trkpt lat="39.03798833" lon="-8.93247">
        <ele>17.0</ele>
        <time>2019-05-16T14:08:20.930Z</time>
      </trkpt>
      <trkpt lat="39.03798833" lon="-8.93247">
        <ele>17.0</ele>
        <time>2019-05-16T14:08:21.901Z</time>
      </trkpt>
      <trkpt lat="39.03802833" lon="-8.93243">
        <ele>17.0</ele>
        <time>2019-05-16T14:08:22.928Z</time>
      </trkpt>
      <trkpt lat="39.03802833" lon="-8.93243">
        <ele>17.0</ele>
        <time>2019-05-16T14:08:23.929Z</time>
      </trkpt>
      <trkpt lat="39.038075" lon="-8.93239167">
        <ele>17.0</ele>
        <time>2019-05-16T14:08:24.908Z</time>
      </trkpt>
      <trkpt lat="39.038075" lon="-8.93239167">
        <ele>17.0</ele>
        <time>2019-05-16T14:08:25.913Z</time>
      </trkpt>
      <trkpt lat="39.03812333" lon="-8.93234667">
        <ele>17.0</ele>
        <time>2019-05-16T14:08:26.906Z</time>
      </trkpt>
      <trkpt lat="39.03812333" lon="-8.93234667">
        <ele>17.0</ele>
        <time>2019-05-16T14:08:27.921Z</time>
      </trkpt>
      <trkpt lat="39.03817167" lon="-8.93230667">
        <ele>18.0</ele>
        <time>2019-05-16T14:08:28.901Z</time>
      </trkpt>
      <trkpt lat="39.03817167" lon="-8.93230667">
        <ele>18.0</ele>
        <time>2019-05-16T14:08:29.928Z</time>
      </trkpt>
      <trkpt lat="39.03821833" lon="-8.93226">
        <ele>18.0</ele>
        <time>2019-05-16T14:08:30.913Z</time>
      </trkpt>
      <trkpt lat="39.03821833" lon="-8.93226">
        <ele>18.0</ele>
        <time>2019-05-16T14:08:31.902Z</time>
      </trkpt>
      <trkpt lat="39.03826" lon="-8.93221">
        <ele>19.0</ele>
        <time>2019-05-16T14:08:32.897Z</time>
      </trkpt>
      <trkpt lat="39.03826" lon="-8.93221">
        <ele>19.0</ele>
        <time>2019-05-16T14:08:33.916Z</time>
      </trkpt>
      <trkpt lat="39.038285" lon="-8.93215333">
        <ele>20.0</ele>
        <time>2019-05-16T14:08:34.941Z</time>
      </trkpt>
      <trkpt lat="39.038285" lon="-8.93215333">
        <ele>20.0</ele>
        <time>2019-05-16T14:08:35.910Z</time>
      </trkpt>
      <trkpt lat="39.03830167" lon="-8.93209333">
        <ele>20.0</ele>
        <time>2019-05-16T14:08:36.911Z</time>
      </trkpt>
      <trkpt lat="39.03830167" lon="-8.93209333">
        <ele>20.0</ele>
        <time>2019-05-16T14:08:37.925Z</time>
      </trkpt>
      <trkpt lat="39.03830333" lon="-8.93203">
        <ele>20.0</ele>
        <time>2019-05-16T14:08:38.917Z</time>
      </trkpt>
      <trkpt lat="39.03830333" lon="-8.93203">
        <ele>20.0</ele>
        <time>2019-05-16T14:08:39.900Z</time>
      </trkpt>
      <trkpt lat="39.038295" lon="-8.93196">
        <ele>20.0</ele>
        <time>2019-05-16T14:08:40.928Z</time>
      </trkpt>
      <trkpt lat="39.038295" lon="-8.93196">
        <ele>20.0</ele>
        <time>2019-05-16T14:08:41.920Z</time>
      </trkpt>
      <trkpt lat="39.03829167" lon="-8.93188667">
        <ele>20.0</ele>
        <time>2019-05-16T14:08:42.911Z</time>
      </trkpt>
      <trkpt lat="39.03829167" lon="-8.93188667">
        <ele>20.0</ele>
        <time>2019-05-16T14:08:43.927Z</time>
      </trkpt>
      <trkpt lat="39.03829167" lon="-8.93184167">
        <ele>19.0</ele>
        <time>2019-05-16T14:08:44.909Z</time>
      </trkpt>
      <trkpt lat="39.03829167" lon="-8.93184167">
        <ele>19.0</ele>
        <time>2019-05-16T14:08:45.914Z</time>
      </trkpt>
      <trkpt lat="39.038295" lon="-8.93183333">
        <ele>19.0</ele>
        <time>2019-05-16T14:08:46.930Z</time>
      </trkpt>
      <trkpt lat="39.038295" lon="-8.93183333">
        <ele>19.0</ele>
        <time>2019-05-16T14:08:47.924Z</time>
      </trkpt>
      <trkpt lat="39.03829833" lon="-8.93183167">
        <ele>19.0</ele>
        <time>2019-05-16T14:08:48.910Z</time>
      </trkpt>
      <trkpt lat="39.03829833" lon="-8.93183167">
        <ele>19.0</ele>
        <time>2019-05-16T14:08:49.922Z</time>
      </trkpt>
      <trkpt lat="39.03829833" lon="-8.93183167">
        <ele>19.0</ele>
        <time>2019-05-16T14:08:50.928Z</time>
      </trkpt>
      <trkpt lat="39.03829833" lon="-8.93183167">
        <ele>19.0</ele>
        <time>2019-05-16T14:08:51.934Z</time>
      </trkpt>
      <trkpt lat="39.03829833" lon="-8.93183167">
        <ele>19.0</ele>
        <time>2019-05-16T14:08:52.926Z</time>
      </trkpt>
      <trkpt lat="39.03829833" lon="-8.93183167">
        <ele>19.0</ele>
        <time>2019-05-16T14:08:53.917Z</time>
      </trkpt>
      <trkpt lat="39.03829833" lon="-8.93183167">
        <ele>19.0</ele>
        <time>2019-05-16T14:08:54.919Z</time>
      </trkpt>
      <trkpt lat="39.03829833" lon="-8.93183167">
        <ele>19.0</ele>
        <time>2019-05-16T14:08:55.927Z</time>
      </trkpt>
      <trkpt lat="39.03829833" lon="-8.93183167">
        <ele>19.0</ele>
        <time>2019-05-16T14:08:56.925Z</time>
      </trkpt>
      <trkpt lat="39.03829833" lon="-8.93183167">
        <ele>19.0</ele>
        <time>2019-05-16T14:08:57.917Z</time>
      </trkpt>
      <trkpt lat="39.03829833" lon="-8.93183167">
        <ele>19.0</ele>
        <time>2019-05-16T14:08:58.923Z</time>
      </trkpt>
      <trkpt lat="39.03829833" lon="-8.93183167">
        <ele>19.0</ele>
        <time>2019-05-16T14:08:59.921Z</time>
      </trkpt>
      <trkpt lat="39.03829833" lon="-8.93183167">
        <ele>19.0</ele>
        <time>2019-05-16T14:09:00.922Z</time>
      </trkpt>
      <trkpt lat="39.03829833" lon="-8.93183167">
        <ele>19.0</ele>
        <time>2019-05-16T14:09:01.935Z</time>
      </trkpt>
      <trkpt lat="39.03829833" lon="-8.93183167">
        <ele>19.0</ele>
        <time>2019-05-16T14:09:02.919Z</time>
      </trkpt>
      <trkpt lat="39.03829833" lon="-8.93183167">
        <ele>19.0</ele>
        <time>2019-05-16T14:09:03.922Z</time>
      </trkpt>
      <trkpt lat="39.03829833" lon="-8.93183167">
        <ele>19.0</ele>
        <time>2019-05-16T14:09:04.923Z</time>
      </trkpt>
      <trkpt lat="39.03829833" lon="-8.93183167">
        <ele>19.0</ele>
        <time>2019-05-16T14:09:05.923Z</time>
      </trkpt>
      <trkpt lat="39.03829833" lon="-8.93183167">
        <ele>19.0</ele>
        <time>2019-05-16T14:09:06.920Z</time>
      </trkpt>
      <trkpt lat="39.03829833" lon="-8.93183167">
        <ele>19.0</ele>
        <time>2019-05-16T14:09:07.923Z</time>
      </trkpt>
      <trkpt lat="39.03829833" lon="-8.93183167">
        <ele>19.0</ele>
        <time>2019-05-16T14:09:08.925Z</time>
      </trkpt>
      <trkpt lat="39.03829833" lon="-8.93183167">
        <ele>19.0</ele>
        <time>2019-05-16T14:09:09.929Z</time>
      </trkpt>
      <trkpt lat="39.03829833" lon="-8.93183167">
        <ele>19.0</ele>
        <time>2019-05-16T14:09:10.934Z</time>
      </trkpt>
      <trkpt lat="39.03829833" lon="-8.93183167">
        <ele>19.0</ele>
        <time>2019-05-16T14:09:11.920Z</time>
      </trkpt>
      <trkpt lat="39.03829833" lon="-8.93183167">
        <ele>19.0</ele>
        <time>2019-05-16T14:09:12.924Z</time>
      </trkpt>
      <trkpt lat="39.03829833" lon="-8.93183167">
        <ele>19.0</ele>
        <time>2019-05-16T14:09:13.917Z</time>
      </trkpt>
      <trkpt lat="39.03829833" lon="-8.93183167">
        <ele>19.0</ele>
        <time>2019-05-16T14:09:14.927Z</time>
      </trkpt>
      <trkpt lat="39.03829833" lon="-8.93183167">
        <ele>19.0</ele>
        <time>2019-05-16T14:09:15.918Z</time>
      </trkpt>
      <trkpt lat="39.03829833" lon="-8.93183167">
        <ele>19.0</ele>
        <time>2019-05-16T14:09:16.923Z</time>
      </trkpt>
      <trkpt lat="39.03829833" lon="-8.93183167">
        <ele>19.0</ele>
        <time>2019-05-16T14:09:17.919Z</time>
      </trkpt>
      <trkpt lat="39.03829833" lon="-8.93183167">
        <ele>19.0</ele>
        <time>2019-05-16T14:09:18.922Z</time>
      </trkpt>
      <trkpt lat="39.03829833" lon="-8.93183167">
        <ele>19.0</ele>
        <time>2019-05-16T14:09:19.925Z</time>
      </trkpt>
      <trkpt lat="39.03829833" lon="-8.93183167">
        <ele>19.0</ele>
        <time>2019-05-16T14:09:20.899Z</time>
      </trkpt>
      <trkpt lat="39.03829833" lon="-8.93183167">
        <ele>19.0</ele>
        <time>2019-05-16T14:09:21.935Z</time>
      </trkpt>
      <trkpt lat="39.03829833" lon="-8.93183167">
        <ele>19.0</ele>
        <time>2019-05-16T14:09:22.901Z</time>
      </trkpt>
      <trkpt lat="39.03829833" lon="-8.93183167">
        <ele>19.0</ele>
        <time>2019-05-16T14:09:23.910Z</time>
      </trkpt>
      <trkpt lat="39.03829833" lon="-8.93183167">
        <ele>19.0</ele>
        <time>2019-05-16T14:09:24.901Z</time>
      </trkpt>
      <trkpt lat="39.03829833" lon="-8.93183167">
        <ele>19.0</ele>
        <time>2019-05-16T14:09:25.922Z</time>
      </trkpt>
      <trkpt lat="39.03829833" lon="-8.93183167">
        <ele>19.0</ele>
        <time>2019-05-16T14:09:26.920Z</time>
      </trkpt>
      <trkpt lat="39.03829833" lon="-8.93183167">
        <ele>19.0</ele>
        <time>2019-05-16T14:09:27.922Z</time>
      </trkpt>
      <trkpt lat="39.03829833" lon="-8.93183167">
        <ele>19.0</ele>
        <time>2019-05-16T14:09:28.917Z</time>
      </trkpt>
      <trkpt lat="39.03829833" lon="-8.93183167">
        <ele>19.0</ele>
        <time>2019-05-16T14:09:29.931Z</time>
      </trkpt>
      <trkpt lat="39.03829833" lon="-8.93183167">
        <ele>19.0</ele>
        <time>2019-05-16T14:09:30.920Z</time>
      </trkpt>
      <trkpt lat="39.03829833" lon="-8.93183167">
        <ele>19.0</ele>
        <time>2019-05-16T14:09:31.922Z</time>
      </trkpt>
      <trkpt lat="39.03829833" lon="-8.93183167">
        <ele>19.0</ele>
        <time>2019-05-16T14:09:32.925Z</time>
      </trkpt>
      <trkpt lat="39.03829833" lon="-8.93183167">
        <ele>19.0</ele>
        <time>2019-05-16T14:09:33.922Z</time>
      </trkpt>
      <trkpt lat="39.03829833" lon="-8.93183167">
        <ele>19.0</ele>
        <time>2019-05-16T14:09:34.921Z</time>
      </trkpt>
      <trkpt lat="39.03829833" lon="-8.93183167">
        <ele>19.0</ele>
        <time>2019-05-16T14:09:35.923Z</time>
      </trkpt>
      <trkpt lat="39.03829833" lon="-8.93183167">
        <ele>19.0</ele>
        <time>2019-05-16T14:09:36.917Z</time>
      </trkpt>
      <trkpt lat="39.03829833" lon="-8.93183167">
        <ele>19.0</ele>
        <time>2019-05-16T14:09:37.922Z</time>
      </trkpt>
      <trkpt lat="39.03829833" lon="-8.93183167">
        <ele>19.0</ele>
        <time>2019-05-16T14:09:38.924Z</time>
      </trkpt>
      <trkpt lat="39.03829833" lon="-8.93183167">
        <ele>19.0</ele>
        <time>2019-05-16T14:09:39.931Z</time>
      </trkpt>
      <trkpt lat="39.03829833" lon="-8.93183167">
        <ele>19.0</ele>
        <time>2019-05-16T14:09:40.923Z</time>
      </trkpt>
      <trkpt lat="39.03829833" lon="-8.93183167">
        <ele>19.0</ele>
        <time>2019-05-16T14:09:41.923Z</time>
      </trkpt>
      <trkpt lat="39.03829833" lon="-8.93183167">
        <ele>19.0</ele>
        <time>2019-05-16T14:09:42.917Z</time>
      </trkpt>
      <trkpt lat="39.03833833" lon="-8.93181">
        <ele>19.0</ele>
        <time>2019-05-16T14:09:43.922Z</time>
      </trkpt>
      <trkpt lat="39.03833833" lon="-8.93181">
        <ele>19.0</ele>
        <time>2019-05-16T14:09:44.920Z</time>
      </trkpt>
      <trkpt lat="39.03833333" lon="-8.93176833">
        <ele>19.0</ele>
        <time>2019-05-16T14:09:45.922Z</time>
      </trkpt>
      <trkpt lat="39.03833333" lon="-8.93176833">
        <ele>19.0</ele>
        <time>2019-05-16T14:09:46.918Z</time>
      </trkpt>
      <trkpt lat="39.03833833" lon="-8.931715">
        <ele>19.0</ele>
        <time>2019-05-16T14:09:47.921Z</time>
      </trkpt>
      <trkpt lat="39.03835167" lon="-8.93168667">
        <ele>19.0</ele>
        <time>2019-05-16T14:09:48.923Z</time>
      </trkpt>
      <trkpt lat="39.03835167" lon="-8.93168667">
        <ele>19.0</ele>
        <time>2019-05-16T14:09:49.929Z</time>
      </trkpt>
      <trkpt lat="39.03838667" lon="-8.93165">
        <ele>19.0</ele>
        <time>2019-05-16T14:09:50.931Z</time>
      </trkpt>
      <trkpt lat="39.03838667" lon="-8.93165">
        <ele>19.0</ele>
        <time>2019-05-16T14:09:51.934Z</time>
      </trkpt>
      <trkpt lat="39.03842" lon="-8.93163">
        <ele>19.0</ele>
        <time>2019-05-16T14:09:52.920Z</time>
      </trkpt>
      <trkpt lat="39.03843667" lon="-8.93162333">
        <ele>19.0</ele>
        <time>2019-05-16T14:09:53.931Z</time>
      </trkpt>
      <trkpt lat="39.03843667" lon="-8.93162333">
        <ele>19.0</ele>
        <time>2019-05-16T14:09:54.922Z</time>
      </trkpt>
      <trkpt lat="39.03846833" lon="-8.93160833">
        <ele>19.0</ele>
        <time>2019-05-16T14:09:55.900Z</time>
      </trkpt>
      <trkpt lat="39.03848667" lon="-8.931605">
        <ele>20.0</ele>
        <time>2019-05-16T14:09:56.901Z</time>
      </trkpt>
      <trkpt lat="39.03848667" lon="-8.931605">
        <ele>20.0</ele>
        <time>2019-05-16T14:09:57.922Z</time>
      </trkpt>
      <trkpt lat="39.03851833" lon="-8.93158333">
        <ele>20.0</ele>
        <time>2019-05-16T14:09:58.911Z</time>
      </trkpt>
      <trkpt lat="39.03851833" lon="-8.93158333">
        <ele>20.0</ele>
        <time>2019-05-16T14:09:59.921Z</time>
      </trkpt>
      <trkpt lat="39.03854333" lon="-8.93157">
        <ele>20.0</ele>
        <time>2019-05-16T14:10:00.908Z</time>
      </trkpt>
      <trkpt lat="39.03854333" lon="-8.93157">
        <ele>20.0</ele>
        <time>2019-05-16T14:10:01.909Z</time>
      </trkpt>
      <trkpt lat="39.03855833" lon="-8.93157167">
        <ele>20.0</ele>
        <time>2019-05-16T14:10:02.936Z</time>
      </trkpt>
      <trkpt lat="39.03855833" lon="-8.93157167">
        <ele>20.0</ele>
        <time>2019-05-16T14:10:03.934Z</time>
      </trkpt>
      <trkpt lat="39.03856333" lon="-8.93156833">
        <ele>20.0</ele>
        <time>2019-05-16T14:10:04.911Z</time>
      </trkpt>
      <trkpt lat="39.03856333" lon="-8.93156833">
        <ele>20.0</ele>
        <time>2019-05-16T14:10:05.901Z</time>
      </trkpt>
      <trkpt lat="39.03858667" lon="-8.93156">
        <ele>20.0</ele>
        <time>2019-05-16T14:10:06.912Z</time>
      </trkpt>
      <trkpt lat="39.03858667" lon="-8.93156">
        <ele>20.0</ele>
        <time>2019-05-16T14:10:07.918Z</time>
      </trkpt>
      <trkpt lat="39.038635" lon="-8.93154167">
        <ele>20.0</ele>
        <time>2019-05-16T14:10:08.923Z</time>
      </trkpt>
      <trkpt lat="39.038635" lon="-8.93154167">
        <ele>20.0</ele>
        <time>2019-05-16T14:10:09.929Z</time>
      </trkpt>
      <trkpt lat="39.03870667" lon="-8.93152167">
        <ele>20.0</ele>
        <time>2019-05-16T14:10:10.937Z</time>
      </trkpt>
      <trkpt lat="39.03870667" lon="-8.93152167">
        <ele>20.0</ele>
        <time>2019-05-16T14:10:11.928Z</time>
      </trkpt>
      <trkpt lat="39.03877833" lon="-8.93149">
        <ele>20.0</ele>
        <time>2019-05-16T14:10:12.907Z</time>
      </trkpt>
      <trkpt lat="39.03877833" lon="-8.93149">
        <ele>20.0</ele>
        <time>2019-05-16T14:10:13.923Z</time>
      </trkpt>
      <trkpt lat="39.03884833" lon="-8.93145333">
        <ele>19.0</ele>
        <time>2019-05-16T14:10:14.906Z</time>
      </trkpt>
      <trkpt lat="39.03884833" lon="-8.93145333">
        <ele>19.0</ele>
        <time>2019-05-16T14:10:15.912Z</time>
      </trkpt>
      <trkpt lat="39.03891667" lon="-8.93142">
        <ele>19.0</ele>
        <time>2019-05-16T14:10:16.935Z</time>
      </trkpt>
      <trkpt lat="39.03891667" lon="-8.93142">
        <ele>19.0</ele>
        <time>2019-05-16T14:10:17.902Z</time>
      </trkpt>
      <trkpt lat="39.038985" lon="-8.93138333">
        <ele>19.0</ele>
        <time>2019-05-16T14:10:18.921Z</time>
      </trkpt>
      <trkpt lat="39.038985" lon="-8.93138333">
        <ele>19.0</ele>
        <time>2019-05-16T14:10:19.923Z</time>
      </trkpt>
      <trkpt lat="39.03904833" lon="-8.931345">
        <ele>19.0</ele>
        <time>2019-05-16T14:10:20.909Z</time>
      </trkpt>
      <trkpt lat="39.03904833" lon="-8.931345">
        <ele>19.0</ele>
        <time>2019-05-16T14:10:21.930Z</time>
      </trkpt>
      <trkpt lat="39.03911333" lon="-8.93130667">
        <ele>19.0</ele>
        <time>2019-05-16T14:10:22.908Z</time>
      </trkpt>
      <trkpt lat="39.03911333" lon="-8.93130667">
        <ele>19.0</ele>
        <time>2019-05-16T14:10:23.923Z</time>
      </trkpt>
      <trkpt lat="39.03918" lon="-8.93126333">
        <ele>19.0</ele>
        <time>2019-05-16T14:10:24.902Z</time>
      </trkpt>
      <trkpt lat="39.03918" lon="-8.93126333">
        <ele>19.0</ele>
        <time>2019-05-16T14:10:25.922Z</time>
      </trkpt>
      <trkpt lat="39.039245" lon="-8.93122167">
        <ele>19.0</ele>
        <time>2019-05-16T14:10:26.899Z</time>
      </trkpt>
      <trkpt lat="39.039245" lon="-8.93122167">
        <ele>19.0</ele>
        <time>2019-05-16T14:10:27.913Z</time>
      </trkpt>
      <trkpt lat="39.03930833" lon="-8.93117833">
        <ele>18.0</ele>
        <time>2019-05-16T14:10:28.897Z</time>
      </trkpt>
      <trkpt lat="39.03930833" lon="-8.93117833">
        <ele>18.0</ele>
        <time>2019-05-16T14:10:29.931Z</time>
      </trkpt>
      <trkpt lat="39.03937" lon="-8.931135">
        <ele>18.0</ele>
        <time>2019-05-16T14:10:30.911Z</time>
      </trkpt>
      <trkpt lat="39.03937" lon="-8.931135">
        <ele>18.0</ele>
        <time>2019-05-16T14:10:31.925Z</time>
      </trkpt>
      <trkpt lat="39.03943167" lon="-8.93109">
        <ele>18.0</ele>
        <time>2019-05-16T14:10:32.908Z</time>
      </trkpt>
      <trkpt lat="39.03943167" lon="-8.93109">
        <ele>18.0</ele>
        <time>2019-05-16T14:10:33.923Z</time>
      </trkpt>
      <trkpt lat="39.03949333" lon="-8.93104333">
        <ele>18.0</ele>
        <time>2019-05-16T14:10:34.917Z</time>
      </trkpt>
      <trkpt lat="39.03949333" lon="-8.93104333">
        <ele>18.0</ele>
        <time>2019-05-16T14:10:35.898Z</time>
      </trkpt>
      <trkpt lat="39.03955167" lon="-8.931">
        <ele>18.0</ele>
        <time>2019-05-16T14:10:36.922Z</time>
      </trkpt>
      <trkpt lat="39.03955167" lon="-8.931">
        <ele>18.0</ele>
        <time>2019-05-16T14:10:37.925Z</time>
      </trkpt>
      <trkpt lat="39.039605" lon="-8.930955">
        <ele>18.0</ele>
        <time>2019-05-16T14:10:38.910Z</time>
      </trkpt>
      <trkpt lat="39.039605" lon="-8.930955">
        <ele>18.0</ele>
        <time>2019-05-16T14:10:39.922Z</time>
      </trkpt>
      <trkpt lat="39.039655" lon="-8.93090833">
        <ele>17.0</ele>
        <time>2019-05-16T14:10:40.900Z</time>
      </trkpt>
      <trkpt lat="39.039655" lon="-8.93090833">
        <ele>17.0</ele>
        <time>2019-05-16T14:10:41.933Z</time>
      </trkpt>
      <trkpt lat="39.039705" lon="-8.93086167">
        <ele>17.0</ele>
        <time>2019-05-16T14:10:42.920Z</time>
      </trkpt>
      <trkpt lat="39.039705" lon="-8.93086167">
        <ele>17.0</ele>
        <time>2019-05-16T14:10:43.923Z</time>
      </trkpt>
      <trkpt lat="39.03975333" lon="-8.93081333">
        <ele>17.0</ele>
        <time>2019-05-16T14:10:44.904Z</time>
      </trkpt>
      <trkpt lat="39.03975333" lon="-8.93081333">
        <ele>17.0</ele>
        <time>2019-05-16T14:10:45.906Z</time>
      </trkpt>
      <trkpt lat="39.03980333" lon="-8.93076">
        <ele>16.0</ele>
        <time>2019-05-16T14:10:46.933Z</time>
      </trkpt>
      <trkpt lat="39.03980333" lon="-8.93076">
        <ele>16.0</ele>
        <time>2019-05-16T14:10:47.914Z</time>
      </trkpt>
      <trkpt lat="39.03985833" lon="-8.93070667">
        <ele>15.0</ele>
        <time>2019-05-16T14:10:48.920Z</time>
      </trkpt>
      <trkpt lat="39.03985833" lon="-8.93070667">
        <ele>15.0</ele>
        <time>2019-05-16T14:10:49.913Z</time>
      </trkpt>
      <trkpt lat="39.03990833" lon="-8.93065">
        <ele>15.0</ele>
        <time>2019-05-16T14:10:50.930Z</time>
      </trkpt>
      <trkpt lat="39.03990833" lon="-8.93065">
        <ele>15.0</ele>
        <time>2019-05-16T14:10:51.903Z</time>
      </trkpt>
      <trkpt lat="39.039955" lon="-8.930595">
        <ele>15.0</ele>
        <time>2019-05-16T14:10:52.925Z</time>
      </trkpt>
      <trkpt lat="39.03997833" lon="-8.93056833">
        <ele>15.0</ele>
        <time>2019-05-16T14:10:53.903Z</time>
      </trkpt>
      <trkpt lat="39.03997833" lon="-8.93056833">
        <ele>15.0</ele>
        <time>2019-05-16T14:10:54.923Z</time>
      </trkpt>
      <trkpt lat="39.04002833" lon="-8.93051">
        <ele>15.0</ele>
        <time>2019-05-16T14:10:55.911Z</time>
      </trkpt>
      <trkpt lat="39.04005333" lon="-8.93048">
        <ele>15.0</ele>
        <time>2019-05-16T14:10:56.942Z</time>
      </trkpt>
      <trkpt lat="39.04005333" lon="-8.93048">
        <ele>15.0</ele>
        <time>2019-05-16T14:10:57.930Z</time>
      </trkpt>
      <trkpt lat="39.04010167" lon="-8.93042167">
        <ele>15.0</ele>
        <time>2019-05-16T14:10:58.901Z</time>
      </trkpt>
      <trkpt lat="39.04010167" lon="-8.93042167">
        <ele>15.0</ele>
        <time>2019-05-16T14:10:59.933Z</time>
      </trkpt>
      <trkpt lat="39.04015" lon="-8.93036333">
        <ele>15.0</ele>
        <time>2019-05-16T14:11:00.925Z</time>
      </trkpt>
      <trkpt lat="39.04017333" lon="-8.930335">
        <ele>15.0</ele>
        <time>2019-05-16T14:11:01.903Z</time>
      </trkpt>
      <trkpt lat="39.04019333" lon="-8.930305">
        <ele>15.0</ele>
        <time>2019-05-16T14:11:02.951Z</time>
      </trkpt>
      <trkpt lat="39.04019333" lon="-8.930305">
        <ele>15.0</ele>
        <time>2019-05-16T14:11:03.927Z</time>
      </trkpt>
      <trkpt lat="39.04022667" lon="-8.93025167">
        <ele>15.0</ele>
        <time>2019-05-16T14:11:04.911Z</time>
      </trkpt>
      <trkpt lat="39.04022667" lon="-8.93025167">
        <ele>15.0</ele>
        <time>2019-05-16T14:11:05.928Z</time>
      </trkpt>
      <trkpt lat="39.04025667" lon="-8.93019667">
        <ele>15.0</ele>
        <time>2019-05-16T14:11:06.904Z</time>
      </trkpt>
      <trkpt lat="39.04025667" lon="-8.93019667">
        <ele>15.0</ele>
        <time>2019-05-16T14:11:07.930Z</time>
      </trkpt>
      <trkpt lat="39.04029167" lon="-8.93015">
        <ele>15.0</ele>
        <time>2019-05-16T14:11:08.912Z</time>
      </trkpt>
      <trkpt lat="39.04029167" lon="-8.93015">
        <ele>15.0</ele>
        <time>2019-05-16T14:11:09.931Z</time>
      </trkpt>
      <trkpt lat="39.04032167" lon="-8.930105">
        <ele>15.0</ele>
        <time>2019-05-16T14:11:10.921Z</time>
      </trkpt>
      <trkpt lat="39.04033667" lon="-8.93008333">
        <ele>15.0</ele>
        <time>2019-05-16T14:11:11.921Z</time>
      </trkpt>
      <trkpt lat="39.04033667" lon="-8.93008333">
        <ele>15.0</ele>
        <time>2019-05-16T14:11:12.933Z</time>
      </trkpt>
      <trkpt lat="39.04036167" lon="-8.93004333">
        <ele>15.0</ele>
        <time>2019-05-16T14:11:13.915Z</time>
      </trkpt>
      <trkpt lat="39.04037333" lon="-8.93002333">
        <ele>15.0</ele>
        <time>2019-05-16T14:11:14.911Z</time>
      </trkpt>
      <trkpt lat="39.04037333" lon="-8.93002333">
        <ele>15.0</ele>
        <time>2019-05-16T14:11:15.923Z</time>
      </trkpt>
      <trkpt lat="39.040395" lon="-8.92999333">
        <ele>15.0</ele>
        <time>2019-05-16T14:11:16.906Z</time>
      </trkpt>
      <trkpt lat="39.040395" lon="-8.92999333">
        <ele>15.0</ele>
        <time>2019-05-16T14:11:17.920Z</time>
      </trkpt>
      <trkpt lat="39.04041667" lon="-8.92996667">
        <ele>15.0</ele>
        <time>2019-05-16T14:11:18.911Z</time>
      </trkpt>
      <trkpt lat="39.04041667" lon="-8.92996667">
        <ele>15.0</ele>
        <time>2019-05-16T14:11:19.932Z</time>
      </trkpt>
      <trkpt lat="39.04043667" lon="-8.92993833">
        <ele>15.0</ele>
        <time>2019-05-16T14:11:20.912Z</time>
      </trkpt>
      <trkpt lat="39.04043667" lon="-8.92993833">
        <ele>15.0</ele>
        <time>2019-05-16T14:11:21.897Z</time>
      </trkpt>
      <trkpt lat="39.04045833" lon="-8.92991167">
        <ele>15.0</ele>
        <time>2019-05-16T14:11:22.918Z</time>
      </trkpt>
      <trkpt lat="39.04045833" lon="-8.92991167">
        <ele>15.0</ele>
        <time>2019-05-16T14:11:23.911Z</time>
      </trkpt>
      <trkpt lat="39.04048167" lon="-8.92987167">
        <ele>15.0</ele>
        <time>2019-05-16T14:11:24.930Z</time>
      </trkpt>
      <trkpt lat="39.04048167" lon="-8.92987167">
        <ele>15.0</ele>
        <time>2019-05-16T14:11:25.911Z</time>
      </trkpt>
      <trkpt lat="39.04051" lon="-8.92981833">
        <ele>15.0</ele>
        <time>2019-05-16T14:11:26.930Z</time>
      </trkpt>
      <trkpt lat="39.04051" lon="-8.92981833">
        <ele>15.0</ele>
        <time>2019-05-16T14:11:27.933Z</time>
      </trkpt>
      <trkpt lat="39.04055" lon="-8.92976167">
        <ele>15.0</ele>
        <time>2019-05-16T14:11:28.920Z</time>
      </trkpt>
      <trkpt lat="39.04055" lon="-8.92976167">
        <ele>15.0</ele>
        <time>2019-05-16T14:11:29.909Z</time>
      </trkpt>
      <trkpt lat="39.04059167" lon="-8.9297">
        <ele>15.0</ele>
        <time>2019-05-16T14:11:30.934Z</time>
      </trkpt>
      <trkpt lat="39.040615" lon="-8.92966833">
        <ele>15.0</ele>
        <time>2019-05-16T14:11:31.898Z</time>
      </trkpt>
      <trkpt lat="39.04063667" lon="-8.92963333">
        <ele>15.0</ele>
        <time>2019-05-16T14:11:32.931Z</time>
      </trkpt>
      <trkpt lat="39.04063667" lon="-8.92963333">
        <ele>15.0</ele>
        <time>2019-05-16T14:11:33.899Z</time>
      </trkpt>
      <trkpt lat="39.04068167" lon="-8.92956">
        <ele>15.0</ele>
        <time>2019-05-16T14:11:34.923Z</time>
      </trkpt>
      <trkpt lat="39.04068167" lon="-8.92956">
        <ele>15.0</ele>
        <time>2019-05-16T14:11:35.923Z</time>
      </trkpt>
      <trkpt lat="39.04072833" lon="-8.929485">
        <ele>15.0</ele>
        <time>2019-05-16T14:11:36.907Z</time>
      </trkpt>
      <trkpt lat="39.04075167" lon="-8.92944667">
        <ele>15.0</ele>
        <time>2019-05-16T14:11:37.920Z</time>
      </trkpt>
      <trkpt lat="39.04077667" lon="-8.92940667">
        <ele>15.0</ele>
        <time>2019-05-16T14:11:38.935Z</time>
      </trkpt>
      <trkpt lat="39.04077667" lon="-8.92940667">
        <ele>15.0</ele>
        <time>2019-05-16T14:11:39.903Z</time>
      </trkpt>
      <trkpt lat="39.04082333" lon="-8.92932667">
        <ele>14.0</ele>
        <time>2019-05-16T14:11:40.921Z</time>
      </trkpt>
      <trkpt lat="39.04084667" lon="-8.929285">
        <ele>14.0</ele>
        <time>2019-05-16T14:11:41.913Z</time>
      </trkpt>
      <trkpt lat="39.04084667" lon="-8.929285">
        <ele>14.0</ele>
        <time>2019-05-16T14:11:42.925Z</time>
      </trkpt>
      <trkpt lat="39.04089833" lon="-8.9292">
        <ele>14.0</ele>
        <time>2019-05-16T14:11:43.910Z</time>
      </trkpt>
      <trkpt lat="39.04092333" lon="-8.92915667">
        <ele>14.0</ele>
        <time>2019-05-16T14:11:44.911Z</time>
      </trkpt>
      <trkpt lat="39.04092333" lon="-8.92915667">
        <ele>14.0</ele>
        <time>2019-05-16T14:11:45.903Z</time>
      </trkpt>
      <trkpt lat="39.040975" lon="-8.92906">
        <ele>13.0</ele>
        <time>2019-05-16T14:11:46.935Z</time>
      </trkpt>
      <trkpt lat="39.040975" lon="-8.92906">
        <ele>13.0</ele>
        <time>2019-05-16T14:11:47.906Z</time>
      </trkpt>
      <trkpt lat="39.04103167" lon="-8.928965">
        <ele>13.0</ele>
        <time>2019-05-16T14:11:48.932Z</time>
      </trkpt>
      <trkpt lat="39.04103167" lon="-8.928965">
        <ele>13.0</ele>
        <time>2019-05-16T14:11:49.913Z</time>
      </trkpt>
      <trkpt lat="39.041085" lon="-8.92886333">
        <ele>13.0</ele>
        <time>2019-05-16T14:11:50.935Z</time>
      </trkpt>
      <trkpt lat="39.041085" lon="-8.92886333">
        <ele>13.0</ele>
        <time>2019-05-16T14:11:51.911Z</time>
      </trkpt>
      <trkpt lat="39.041145" lon="-8.92876">
        <ele>12.0</ele>
        <time>2019-05-16T14:11:52.929Z</time>
      </trkpt>
      <trkpt lat="39.041145" lon="-8.92876">
        <ele>12.0</ele>
        <time>2019-05-16T14:11:53.903Z</time>
      </trkpt>
      <trkpt lat="39.04120667" lon="-8.92865667">
        <ele>12.0</ele>
        <time>2019-05-16T14:11:54.904Z</time>
      </trkpt>
      <trkpt lat="39.04120667" lon="-8.92865667">
        <ele>12.0</ele>
        <time>2019-05-16T14:11:55.914Z</time>
      </trkpt>
      <trkpt lat="39.04127" lon="-8.92855167">
        <ele>11.0</ele>
        <time>2019-05-16T14:11:56.914Z</time>
      </trkpt>
      <trkpt lat="39.04127" lon="-8.92855167">
        <ele>11.0</ele>
        <time>2019-05-16T14:11:57.928Z</time>
      </trkpt>
      <trkpt lat="39.04133667" lon="-8.92844667">
        <ele>11.0</ele>
        <time>2019-05-16T14:11:58.906Z</time>
      </trkpt>
      <trkpt lat="39.04133667" lon="-8.92844667">
        <ele>11.0</ele>
        <time>2019-05-16T14:11:59.928Z</time>
      </trkpt>
      <trkpt lat="39.04140167" lon="-8.928335">
        <ele>11.0</ele>
        <time>2019-05-16T14:12:00.911Z</time>
      </trkpt>
      <trkpt lat="39.04140167" lon="-8.928335">
        <ele>11.0</ele>
        <time>2019-05-16T14:12:01.933Z</time>
      </trkpt>
      <trkpt lat="39.04147" lon="-8.92821667">
        <ele>10.0</ele>
        <time>2019-05-16T14:12:02.918Z</time>
      </trkpt>
      <trkpt lat="39.04147" lon="-8.92821667">
        <ele>10.0</ele>
        <time>2019-05-16T14:12:03.906Z</time>
      </trkpt>
      <trkpt lat="39.04154167" lon="-8.92809333">
        <ele>10.0</ele>
        <time>2019-05-16T14:12:04.905Z</time>
      </trkpt>
      <trkpt lat="39.04154167" lon="-8.92809333">
        <ele>10.0</ele>
        <time>2019-05-16T14:12:05.902Z</time>
      </trkpt>
      <trkpt lat="39.04161667" lon="-8.92797">
        <ele>10.0</ele>
        <time>2019-05-16T14:12:06.917Z</time>
      </trkpt>
      <trkpt lat="39.041655" lon="-8.92790167">
        <ele>9.0</ele>
        <time>2019-05-16T14:12:07.911Z</time>
      </trkpt>
      <trkpt lat="39.04169333" lon="-8.92783667">
        <ele>9.0</ele>
        <time>2019-05-16T14:12:08.940Z</time>
      </trkpt>
      <trkpt lat="39.04169333" lon="-8.92783667">
        <ele>9.0</ele>
        <time>2019-05-16T14:12:09.914Z</time>
      </trkpt>
      <trkpt lat="39.04177167" lon="-8.92770167">
        <ele>8.0</ele>
        <time>2019-05-16T14:12:10.898Z</time>
      </trkpt>
      <trkpt lat="39.04177167" lon="-8.92770167">
        <ele>8.0</ele>
        <time>2019-05-16T14:12:11.922Z</time>
      </trkpt>
      <trkpt lat="39.04185167" lon="-8.92756667">
        <ele>8.0</ele>
        <time>2019-05-16T14:12:12.927Z</time>
      </trkpt>
      <trkpt lat="39.04185167" lon="-8.92756667">
        <ele>8.0</ele>
        <time>2019-05-16T14:12:13.916Z</time>
      </trkpt>
      <trkpt lat="39.04193" lon="-8.92743167">
        <ele>7.0</ele>
        <time>2019-05-16T14:12:14.904Z</time>
      </trkpt>
      <trkpt lat="39.04193" lon="-8.92743167">
        <ele>7.0</ele>
        <time>2019-05-16T14:12:15.928Z</time>
      </trkpt>
      <trkpt lat="39.04200667" lon="-8.92729667">
        <ele>7.0</ele>
        <time>2019-05-16T14:12:16.914Z</time>
      </trkpt>
      <trkpt lat="39.04200667" lon="-8.92729667">
        <ele>7.0</ele>
        <time>2019-05-16T14:12:17.910Z</time>
      </trkpt>
      <trkpt lat="39.04208" lon="-8.92716">
        <ele>7.0</ele>
        <time>2019-05-16T14:12:18.905Z</time>
      </trkpt>
      <trkpt lat="39.04208" lon="-8.92716">
        <ele>7.0</ele>
        <time>2019-05-16T14:12:19.932Z</time>
      </trkpt>
      <trkpt lat="39.04214833" lon="-8.927025">
        <ele>6.0</ele>
        <time>2019-05-16T14:12:20.971Z</time>
      </trkpt>
      <trkpt lat="39.04214833" lon="-8.927025">
        <ele>6.0</ele>
        <time>2019-05-16T14:12:21.897Z</time>
      </trkpt>
      <trkpt lat="39.04221667" lon="-8.926895">
        <ele>6.0</ele>
        <time>2019-05-16T14:12:22.914Z</time>
      </trkpt>
      <trkpt lat="39.04221667" lon="-8.926895">
        <ele>6.0</ele>
        <time>2019-05-16T14:12:23.930Z</time>
      </trkpt>
      <trkpt lat="39.04228" lon="-8.92676">
        <ele>6.0</ele>
        <time>2019-05-16T14:12:24.909Z</time>
      </trkpt>
      <trkpt lat="39.04228" lon="-8.92676">
        <ele>6.0</ele>
        <time>2019-05-16T14:12:25.903Z</time>
      </trkpt>
      <trkpt lat="39.04234" lon="-8.926625">
        <ele>5.0</ele>
        <time>2019-05-16T14:12:26.934Z</time>
      </trkpt>
      <trkpt lat="39.04234" lon="-8.926625">
        <ele>5.0</ele>
        <time>2019-05-16T14:12:27.933Z</time>
      </trkpt>
      <trkpt lat="39.042395" lon="-8.92649667">
        <ele>5.0</ele>
        <time>2019-05-16T14:12:28.918Z</time>
      </trkpt>
      <trkpt lat="39.042395" lon="-8.92649667">
        <ele>5.0</ele>
        <time>2019-05-16T14:12:29.933Z</time>
      </trkpt>
      <trkpt lat="39.04245" lon="-8.92636667">
        <ele>5.0</ele>
        <time>2019-05-16T14:12:30.922Z</time>
      </trkpt>
      <trkpt lat="39.04247833" lon="-8.92630167">
        <ele>5.0</ele>
        <time>2019-05-16T14:12:31.912Z</time>
      </trkpt>
      <trkpt lat="39.04250667" lon="-8.92623333">
        <ele>5.0</ele>
        <time>2019-05-16T14:12:32.898Z</time>
      </trkpt>
      <trkpt lat="39.04250667" lon="-8.92623333">
        <ele>5.0</ele>
        <time>2019-05-16T14:12:33.915Z</time>
      </trkpt>
      <trkpt lat="39.042565" lon="-8.9261">
        <ele>5.0</ele>
        <time>2019-05-16T14:12:34.900Z</time>
      </trkpt>
      <trkpt lat="39.042565" lon="-8.9261">
        <ele>5.0</ele>
        <time>2019-05-16T14:12:35.902Z</time>
      </trkpt>
      <trkpt lat="39.04262" lon="-8.92596833">
        <ele>5.0</ele>
        <time>2019-05-16T14:12:36.897Z</time>
      </trkpt>
      <trkpt lat="39.04262" lon="-8.92596833">
        <ele>5.0</ele>
        <time>2019-05-16T14:12:37.932Z</time>
      </trkpt>
      <trkpt lat="39.04267333" lon="-8.92584333">
        <ele>6.0</ele>
        <time>2019-05-16T14:12:38.911Z</time>
      </trkpt>
      <trkpt lat="39.04267333" lon="-8.92584333">
        <ele>6.0</ele>
        <time>2019-05-16T14:12:39.922Z</time>
      </trkpt>
      <trkpt lat="39.04272833" lon="-8.92571167">
        <ele>6.0</ele>
        <time>2019-05-16T14:12:40.913Z</time>
      </trkpt>
      <trkpt lat="39.04272833" lon="-8.92571167">
        <ele>6.0</ele>
        <time>2019-05-16T14:12:41.911Z</time>
      </trkpt>
      <trkpt lat="39.04278167" lon="-8.92559">
        <ele>7.0</ele>
        <time>2019-05-16T14:12:42.934Z</time>
      </trkpt>
      <trkpt lat="39.04278167" lon="-8.92559">
        <ele>7.0</ele>
        <time>2019-05-16T14:12:43.915Z</time>
      </trkpt>
      <trkpt lat="39.04283833" lon="-8.92546333">
        <ele>6.0</ele>
        <time>2019-05-16T14:12:44.933Z</time>
      </trkpt>
      <trkpt lat="39.04283833" lon="-8.92546333">
        <ele>6.0</ele>
        <time>2019-05-16T14:12:45.915Z</time>
      </trkpt>
      <trkpt lat="39.042885" lon="-8.925345">
        <ele>6.0</ele>
        <time>2019-05-16T14:12:46.901Z</time>
      </trkpt>
      <trkpt lat="39.04290833" lon="-8.92528667">
        <ele>6.0</ele>
        <time>2019-05-16T14:12:47.904Z</time>
      </trkpt>
      <trkpt lat="39.04290833" lon="-8.92528667">
        <ele>6.0</ele>
        <time>2019-05-16T14:12:48.927Z</time>
      </trkpt>
      <trkpt lat="39.04295667" lon="-8.92517333">
        <ele>6.0</ele>
        <time>2019-05-16T14:12:49.899Z</time>
      </trkpt>
      <trkpt lat="39.04298" lon="-8.925115">
        <ele>6.0</ele>
        <time>2019-05-16T14:12:50.901Z</time>
      </trkpt>
      <trkpt lat="39.04298" lon="-8.925115">
        <ele>6.0</ele>
        <time>2019-05-16T14:12:51.923Z</time>
      </trkpt>
      <trkpt lat="39.04302833" lon="-8.925">
        <ele>6.0</ele>
        <time>2019-05-16T14:12:52.905Z</time>
      </trkpt>
      <trkpt lat="39.04302833" lon="-8.925">
        <ele>6.0</ele>
        <time>2019-05-16T14:12:53.909Z</time>
      </trkpt>
      <trkpt lat="39.04307333" lon="-8.92488833">
        <ele>6.0</ele>
        <time>2019-05-16T14:12:54.941Z</time>
      </trkpt>
      <trkpt lat="39.04307333" lon="-8.92488833">
        <ele>6.0</ele>
        <time>2019-05-16T14:12:55.933Z</time>
      </trkpt>
      <trkpt lat="39.04311667" lon="-8.92477833">
        <ele>6.0</ele>
        <time>2019-05-16T14:12:56.914Z</time>
      </trkpt>
      <trkpt lat="39.04311667" lon="-8.92477833">
        <ele>6.0</ele>
        <time>2019-05-16T14:12:57.917Z</time>
      </trkpt>
      <trkpt lat="39.04315833" lon="-8.92467167">
        <ele>7.0</ele>
        <time>2019-05-16T14:12:58.899Z</time>
      </trkpt>
      <trkpt lat="39.04315833" lon="-8.92467167">
        <ele>7.0</ele>
        <time>2019-05-16T14:12:59.919Z</time>
      </trkpt>
      <trkpt lat="39.0432" lon="-8.924565">
        <ele>7.0</ele>
        <time>2019-05-16T14:13:00.936Z</time>
      </trkpt>
      <trkpt lat="39.04321833" lon="-8.92451667">
        <ele>7.0</ele>
        <time>2019-05-16T14:13:01.931Z</time>
      </trkpt>
      <trkpt lat="39.04323833" lon="-8.92446667">
        <ele>8.0</ele>
        <time>2019-05-16T14:13:02.931Z</time>
      </trkpt>
      <trkpt lat="39.04323833" lon="-8.92446667">
        <ele>8.0</ele>
        <time>2019-05-16T14:13:03.933Z</time>
      </trkpt>
      <trkpt lat="39.043275" lon="-8.92437167">
        <ele>9.0</ele>
        <time>2019-05-16T14:13:04.927Z</time>
      </trkpt>
      <trkpt lat="39.043275" lon="-8.92437167">
        <ele>9.0</ele>
        <time>2019-05-16T14:13:05.923Z</time>
      </trkpt>
      <trkpt lat="39.04330833" lon="-8.924285">
        <ele>10.0</ele>
        <time>2019-05-16T14:13:06.907Z</time>
      </trkpt>
      <trkpt lat="39.04330833" lon="-8.924285">
        <ele>10.0</ele>
        <time>2019-05-16T14:13:07.913Z</time>
      </trkpt>
      <trkpt lat="39.043345" lon="-8.9242">
        <ele>11.0</ele>
        <time>2019-05-16T14:13:08.934Z</time>
      </trkpt>
      <trkpt lat="39.043345" lon="-8.9242">
        <ele>11.0</ele>
        <time>2019-05-16T14:13:09.914Z</time>
      </trkpt>
      <trkpt lat="39.04337833" lon="-8.92410833">
        <ele>12.0</ele>
        <time>2019-05-16T14:13:10.939Z</time>
      </trkpt>
      <trkpt lat="39.04337833" lon="-8.92410833">
        <ele>12.0</ele>
        <time>2019-05-16T14:13:11.932Z</time>
      </trkpt>
      <trkpt lat="39.04341833" lon="-8.92400333">
        <ele>13.0</ele>
        <time>2019-05-16T14:13:12.914Z</time>
      </trkpt>
      <trkpt lat="39.04344167" lon="-8.92395">
        <ele>13.0</ele>
        <time>2019-05-16T14:13:13.934Z</time>
      </trkpt>
      <trkpt lat="39.043465" lon="-8.92389667">
        <ele>13.0</ele>
        <time>2019-05-16T14:13:14.935Z</time>
      </trkpt>
      <trkpt lat="39.043465" lon="-8.92389667">
        <ele>13.0</ele>
        <time>2019-05-16T14:13:15.910Z</time>
      </trkpt>
      <trkpt lat="39.04351" lon="-8.92380167">
        <ele>13.0</ele>
        <time>2019-05-16T14:13:16.930Z</time>
      </trkpt>
      <trkpt lat="39.04351" lon="-8.92380167">
        <ele>13.0</ele>
        <time>2019-05-16T14:13:17.903Z</time>
      </trkpt>
      <trkpt lat="39.04356" lon="-8.92371167">
        <ele>13.0</ele>
        <time>2019-05-16T14:13:18.911Z</time>
      </trkpt>
      <trkpt lat="39.043585" lon="-8.92367">
        <ele>13.0</ele>
        <time>2019-05-16T14:13:19.927Z</time>
      </trkpt>
      <trkpt lat="39.04361" lon="-8.92362667">
        <ele>13.0</ele>
        <time>2019-05-16T14:13:20.960Z</time>
      </trkpt>
      <trkpt lat="39.04361" lon="-8.92362667">
        <ele>13.0</ele>
        <time>2019-05-16T14:13:21.924Z</time>
      </trkpt>
      <trkpt lat="39.043665" lon="-8.92354167">
        <ele>12.0</ele>
        <time>2019-05-16T14:13:22.905Z</time>
      </trkpt>
      <trkpt lat="39.043665" lon="-8.92354167">
        <ele>12.0</ele>
        <time>2019-05-16T14:13:23.913Z</time>
      </trkpt>
      <trkpt lat="39.04372" lon="-8.923455">
        <ele>12.0</ele>
        <time>2019-05-16T14:13:24.936Z</time>
      </trkpt>
      <trkpt lat="39.04375" lon="-8.92341">
        <ele>12.0</ele>
        <time>2019-05-16T14:13:25.937Z</time>
      </trkpt>
      <trkpt lat="39.04378" lon="-8.92336833">
        <ele>12.0</ele>
        <time>2019-05-16T14:13:26.924Z</time>
      </trkpt>
      <trkpt lat="39.04378" lon="-8.92336833">
        <ele>12.0</ele>
        <time>2019-05-16T14:13:27.920Z</time>
      </trkpt>
      <trkpt lat="39.04384167" lon="-8.92328">
        <ele>11.0</ele>
        <time>2019-05-16T14:13:28.911Z</time>
      </trkpt>
      <trkpt lat="39.04384167" lon="-8.92328">
        <ele>11.0</ele>
        <time>2019-05-16T14:13:29.898Z</time>
      </trkpt>
      <trkpt lat="39.04390333" lon="-8.92319">
        <ele>11.0</ele>
        <time>2019-05-16T14:13:30.921Z</time>
      </trkpt>
      <trkpt lat="39.04390333" lon="-8.92319">
        <ele>11.0</ele>
        <time>2019-05-16T14:13:31.913Z</time>
      </trkpt>
      <trkpt lat="39.043965" lon="-8.92309667">
        <ele>11.0</ele>
        <time>2019-05-16T14:13:32.902Z</time>
      </trkpt>
      <trkpt lat="39.043965" lon="-8.92309667">
        <ele>11.0</ele>
        <time>2019-05-16T14:13:33.915Z</time>
      </trkpt>
      <trkpt lat="39.04402333" lon="-8.92300667">
        <ele>10.0</ele>
        <time>2019-05-16T14:13:34.902Z</time>
      </trkpt>
      <trkpt lat="39.04402333" lon="-8.92300667">
        <ele>10.0</ele>
        <time>2019-05-16T14:13:35.933Z</time>
      </trkpt>
      <trkpt lat="39.04408833" lon="-8.92291333">
        <ele>10.0</ele>
        <time>2019-05-16T14:13:36.923Z</time>
      </trkpt>
      <trkpt lat="39.04408833" lon="-8.92291333">
        <ele>10.0</ele>
        <time>2019-05-16T14:13:37.933Z</time>
      </trkpt>
      <trkpt lat="39.044155" lon="-8.92282">
        <ele>10.0</ele>
        <time>2019-05-16T14:13:38.925Z</time>
      </trkpt>
      <trkpt lat="39.044155" lon="-8.92282">
        <ele>10.0</ele>
        <time>2019-05-16T14:13:39.904Z</time>
      </trkpt>
      <trkpt lat="39.04422" lon="-8.92272667">
        <ele>9.0</ele>
        <time>2019-05-16T14:13:40.925Z</time>
      </trkpt>
      <trkpt lat="39.04422" lon="-8.92272667">
        <ele>9.0</ele>
        <time>2019-05-16T14:13:41.926Z</time>
      </trkpt>
      <trkpt lat="39.044285" lon="-8.922635">
        <ele>9.0</ele>
        <time>2019-05-16T14:13:42.911Z</time>
      </trkpt>
      <trkpt lat="39.044285" lon="-8.922635">
        <ele>9.0</ele>
        <time>2019-05-16T14:13:43.937Z</time>
      </trkpt>
      <trkpt lat="39.04435" lon="-8.92254333">
        <ele>8.0</ele>
        <time>2019-05-16T14:13:44.921Z</time>
      </trkpt>
      <trkpt lat="39.04435" lon="-8.92254333">
        <ele>8.0</ele>
        <time>2019-05-16T14:13:45.907Z</time>
      </trkpt>
      <trkpt lat="39.04440833" lon="-8.92245667">
        <ele>8.0</ele>
        <time>2019-05-16T14:13:46.912Z</time>
      </trkpt>
      <trkpt lat="39.04444" lon="-8.92241333">
        <ele>8.0</ele>
        <time>2019-05-16T14:13:47.911Z</time>
      </trkpt>
      <trkpt lat="39.04444" lon="-8.92241333">
        <ele>8.0</ele>
        <time>2019-05-16T14:13:48.899Z</time>
      </trkpt>
      <trkpt lat="39.04449833" lon="-8.92232833">
        <ele>7.0</ele>
        <time>2019-05-16T14:13:49.945Z</time>
      </trkpt>
      <trkpt lat="39.04453" lon="-8.92228667">
        <ele>7.0</ele>
        <time>2019-05-16T14:13:50.908Z</time>
      </trkpt>
      <trkpt lat="39.04453" lon="-8.92228667">
        <ele>7.0</ele>
        <time>2019-05-16T14:13:51.901Z</time>
      </trkpt>
      <trkpt lat="39.04459" lon="-8.92220167">
        <ele>7.0</ele>
        <time>2019-05-16T14:13:52.935Z</time>
      </trkpt>
      <trkpt lat="39.04459" lon="-8.92220167">
        <ele>7.0</ele>
        <time>2019-05-16T14:13:53.913Z</time>
      </trkpt>
      <trkpt lat="39.04465" lon="-8.92211667">
        <ele>7.0</ele>
        <time>2019-05-16T14:13:54.934Z</time>
      </trkpt>
      <trkpt lat="39.04465" lon="-8.92211667">
        <ele>7.0</ele>
        <time>2019-05-16T14:13:55.934Z</time>
      </trkpt>
      <trkpt lat="39.04471" lon="-8.922035">
        <ele>7.0</ele>
        <time>2019-05-16T14:13:56.916Z</time>
      </trkpt>
      <trkpt lat="39.04471" lon="-8.922035">
        <ele>7.0</ele>
        <time>2019-05-16T14:13:57.914Z</time>
      </trkpt>
      <trkpt lat="39.044765" lon="-8.921955">
        <ele>7.0</ele>
        <time>2019-05-16T14:13:58.897Z</time>
      </trkpt>
      <trkpt lat="39.044765" lon="-8.921955">
        <ele>7.0</ele>
        <time>2019-05-16T14:13:59.923Z</time>
      </trkpt>
      <trkpt lat="39.04481833" lon="-8.92187167">
        <ele>6.0</ele>
        <time>2019-05-16T14:14:00.906Z</time>
      </trkpt>
      <trkpt lat="39.04481833" lon="-8.92187167">
        <ele>6.0</ele>
        <time>2019-05-16T14:14:01.930Z</time>
      </trkpt>
      <trkpt lat="39.044875" lon="-8.921795">
        <ele>6.0</ele>
        <time>2019-05-16T14:14:02.912Z</time>
      </trkpt>
      <trkpt lat="39.044875" lon="-8.921795">
        <ele>6.0</ele>
        <time>2019-05-16T14:14:03.933Z</time>
      </trkpt>
      <trkpt lat="39.04493" lon="-8.92171667">
        <ele>6.0</ele>
        <time>2019-05-16T14:14:04.906Z</time>
      </trkpt>
      <trkpt lat="39.04493" lon="-8.92171667">
        <ele>6.0</ele>
        <time>2019-05-16T14:14:05.925Z</time>
      </trkpt>
      <trkpt lat="39.04498333" lon="-8.92163833">
        <ele>6.0</ele>
        <time>2019-05-16T14:14:06.919Z</time>
      </trkpt>
      <trkpt lat="39.04498333" lon="-8.92163833">
        <ele>6.0</ele>
        <time>2019-05-16T14:14:07.912Z</time>
      </trkpt>
      <trkpt lat="39.04504" lon="-8.92155833">
        <ele>6.0</ele>
        <time>2019-05-16T14:14:08.904Z</time>
      </trkpt>
      <trkpt lat="39.04504" lon="-8.92155833">
        <ele>6.0</ele>
        <time>2019-05-16T14:14:09.936Z</time>
      </trkpt>
      <trkpt lat="39.04509333" lon="-8.92147833">
        <ele>5.0</ele>
        <time>2019-05-16T14:14:10.910Z</time>
      </trkpt>
      <trkpt lat="39.04509333" lon="-8.92147833">
        <ele>5.0</ele>
        <time>2019-05-16T14:14:11.900Z</time>
      </trkpt>
      <trkpt lat="39.04514" lon="-8.9214">
        <ele>5.0</ele>
        <time>2019-05-16T14:14:12.931Z</time>
      </trkpt>
      <trkpt lat="39.04514" lon="-8.9214">
        <ele>5.0</ele>
        <time>2019-05-16T14:14:13.922Z</time>
      </trkpt>
      <trkpt lat="39.045185" lon="-8.921325">
        <ele>5.0</ele>
        <time>2019-05-16T14:14:14.911Z</time>
      </trkpt>
      <trkpt lat="39.045185" lon="-8.921325">
        <ele>5.0</ele>
        <time>2019-05-16T14:14:15.934Z</time>
      </trkpt>
      <trkpt lat="39.04523" lon="-8.92125667">
        <ele>5.0</ele>
        <time>2019-05-16T14:14:16.918Z</time>
      </trkpt>
      <trkpt lat="39.04525333" lon="-8.92122333">
        <ele>5.0</ele>
        <time>2019-05-16T14:14:17.916Z</time>
      </trkpt>
      <trkpt lat="39.04525333" lon="-8.92122333">
        <ele>5.0</ele>
        <time>2019-05-16T14:14:18.910Z</time>
      </trkpt>
      <trkpt lat="39.04529333" lon="-8.92115667">
        <ele>5.0</ele>
        <time>2019-05-16T14:14:19.928Z</time>
      </trkpt>
      <trkpt lat="39.045315" lon="-8.921125">
        <ele>5.0</ele>
        <time>2019-05-16T14:14:20.905Z</time>
      </trkpt>
      <trkpt lat="39.045315" lon="-8.921125">
        <ele>5.0</ele>
        <time>2019-05-16T14:14:21.906Z</time>
      </trkpt>
      <trkpt lat="39.04536667" lon="-8.921065">
        <ele>5.0</ele>
        <time>2019-05-16T14:14:22.935Z</time>
      </trkpt>
      <trkpt lat="39.04539333" lon="-8.921035">
        <ele>5.0</ele>
        <time>2019-05-16T14:14:23.924Z</time>
      </trkpt>
      <trkpt lat="39.04539333" lon="-8.921035">
        <ele>5.0</ele>
        <time>2019-05-16T14:14:24.931Z</time>
      </trkpt>
      <trkpt lat="39.045445" lon="-8.92097167">
        <ele>5.0</ele>
        <time>2019-05-16T14:14:25.926Z</time>
      </trkpt>
      <trkpt lat="39.04546833" lon="-8.92093833">
        <ele>5.0</ele>
        <time>2019-05-16T14:14:26.908Z</time>
      </trkpt>
      <trkpt lat="39.04546833" lon="-8.92093833">
        <ele>5.0</ele>
        <time>2019-05-16T14:14:27.925Z</time>
      </trkpt>
      <trkpt lat="39.04551833" lon="-8.92086667">
        <ele>5.0</ele>
        <time>2019-05-16T14:14:28.904Z</time>
      </trkpt>
      <trkpt lat="39.04551833" lon="-8.92086667">
        <ele>5.0</ele>
        <time>2019-05-16T14:14:29.918Z</time>
      </trkpt>
      <trkpt lat="39.04557" lon="-8.92079833">
        <ele>5.0</ele>
        <time>2019-05-16T14:14:30.897Z</time>
      </trkpt>
      <trkpt lat="39.04557" lon="-8.92079833">
        <ele>5.0</ele>
        <time>2019-05-16T14:14:31.923Z</time>
      </trkpt>
      <trkpt lat="39.04562" lon="-8.920725">
        <ele>5.0</ele>
        <time>2019-05-16T14:14:32.914Z</time>
      </trkpt>
      <trkpt lat="39.04562" lon="-8.920725">
        <ele>5.0</ele>
        <time>2019-05-16T14:14:33.913Z</time>
      </trkpt>
      <trkpt lat="39.04567167" lon="-8.92065167">
        <ele>5.0</ele>
        <time>2019-05-16T14:14:34.925Z</time>
      </trkpt>
      <trkpt lat="39.04567167" lon="-8.92065167">
        <ele>5.0</ele>
        <time>2019-05-16T14:14:35.930Z</time>
      </trkpt>
      <trkpt lat="39.04572333" lon="-8.92057833">
        <ele>5.0</ele>
        <time>2019-05-16T14:14:36.907Z</time>
      </trkpt>
      <trkpt lat="39.04572333" lon="-8.92057833">
        <ele>5.0</ele>
        <time>2019-05-16T14:14:37.908Z</time>
      </trkpt>
      <trkpt lat="39.04577333" lon="-8.92051167">
        <ele>5.0</ele>
        <time>2019-05-16T14:14:38.941Z</time>
      </trkpt>
      <trkpt lat="39.04577333" lon="-8.92051167">
        <ele>5.0</ele>
        <time>2019-05-16T14:14:39.923Z</time>
      </trkpt>
      <trkpt lat="39.04582333" lon="-8.92044333">
        <ele>5.0</ele>
        <time>2019-05-16T14:14:40.903Z</time>
      </trkpt>
      <trkpt lat="39.04582333" lon="-8.92044333">
        <ele>5.0</ele>
        <time>2019-05-16T14:14:41.926Z</time>
      </trkpt>
      <trkpt lat="39.045875" lon="-8.92037333">
        <ele>5.0</ele>
        <time>2019-05-16T14:14:42.922Z</time>
      </trkpt>
      <trkpt lat="39.045875" lon="-8.92037333">
        <ele>5.0</ele>
        <time>2019-05-16T14:14:43.934Z</time>
      </trkpt>
      <trkpt lat="39.04592667" lon="-8.92030167">
        <ele>5.0</ele>
        <time>2019-05-16T14:14:44.915Z</time>
      </trkpt>
      <trkpt lat="39.04592667" lon="-8.92030167">
        <ele>5.0</ele>
        <time>2019-05-16T14:14:45.933Z</time>
      </trkpt>
      <trkpt lat="39.04597833" lon="-8.92022667">
        <ele>5.0</ele>
        <time>2019-05-16T14:14:46.911Z</time>
      </trkpt>
      <trkpt lat="39.04597833" lon="-8.92022667">
        <ele>5.0</ele>
        <time>2019-05-16T14:14:47.907Z</time>
      </trkpt>
      <trkpt lat="39.04602833" lon="-8.92014833">
        <ele>5.0</ele>
        <time>2019-05-16T14:14:48.925Z</time>
      </trkpt>
      <trkpt lat="39.04602833" lon="-8.92014833">
        <ele>5.0</ele>
        <time>2019-05-16T14:14:49.912Z</time>
      </trkpt>
      <trkpt lat="39.04608333" lon="-8.92007167">
        <ele>5.0</ele>
        <time>2019-05-16T14:14:50.927Z</time>
      </trkpt>
      <trkpt lat="39.04611" lon="-8.92003333">
        <ele>5.0</ele>
        <time>2019-05-16T14:14:51.924Z</time>
      </trkpt>
      <trkpt lat="39.04611" lon="-8.92003333">
        <ele>5.0</ele>
        <time>2019-05-16T14:14:52.906Z</time>
      </trkpt>
      <trkpt lat="39.04616333" lon="-8.919955">
        <ele>5.0</ele>
        <time>2019-05-16T14:14:53.935Z</time>
      </trkpt>
      <trkpt lat="39.04616333" lon="-8.919955">
        <ele>5.0</ele>
        <time>2019-05-16T14:14:54.902Z</time>
      </trkpt>
      <trkpt lat="39.04622167" lon="-8.91987833">
        <ele>5.0</ele>
        <time>2019-05-16T14:14:55.926Z</time>
      </trkpt>
      <trkpt lat="39.04625" lon="-8.91983833">
        <ele>5.0</ele>
        <time>2019-05-16T14:14:56.906Z</time>
      </trkpt>
      <trkpt lat="39.04625" lon="-8.91983833">
        <ele>5.0</ele>
        <time>2019-05-16T14:14:57.923Z</time>
      </trkpt>
      <trkpt lat="39.04630667" lon="-8.91975333">
        <ele>4.0</ele>
        <time>2019-05-16T14:14:58.909Z</time>
      </trkpt>
      <trkpt lat="39.04630667" lon="-8.91975333">
        <ele>4.0</ele>
        <time>2019-05-16T14:14:59.916Z</time>
      </trkpt>
      <trkpt lat="39.04636333" lon="-8.91967">
        <ele>4.0</ele>
        <time>2019-05-16T14:15:00.899Z</time>
      </trkpt>
      <trkpt lat="39.04639" lon="-8.91963">
        <ele>4.0</ele>
        <time>2019-05-16T14:15:01.909Z</time>
      </trkpt>
      <trkpt lat="39.04641833" lon="-8.91959333">
        <ele>4.0</ele>
        <time>2019-05-16T14:15:02.915Z</time>
      </trkpt>
      <trkpt lat="39.04641833" lon="-8.91959333">
        <ele>4.0</ele>
        <time>2019-05-16T14:15:03.913Z</time>
      </trkpt>
      <trkpt lat="39.04647" lon="-8.91951667">
        <ele>4.0</ele>
        <time>2019-05-16T14:15:04.900Z</time>
      </trkpt>
      <trkpt lat="39.04647" lon="-8.91951667">
        <ele>4.0</ele>
        <time>2019-05-16T14:15:05.919Z</time>
      </trkpt>
      <trkpt lat="39.046525" lon="-8.91944167">
        <ele>4.0</ele>
        <time>2019-05-16T14:15:06.906Z</time>
      </trkpt>
      <trkpt lat="39.04655333" lon="-8.91940167">
        <ele>4.0</ele>
        <time>2019-05-16T14:15:07.910Z</time>
      </trkpt>
      <trkpt lat="39.04658" lon="-8.91936167">
        <ele>4.0</ele>
        <time>2019-05-16T14:15:08.936Z</time>
      </trkpt>
      <trkpt lat="39.04658" lon="-8.91936167">
        <ele>4.0</ele>
        <time>2019-05-16T14:15:09.903Z</time>
      </trkpt>
      <trkpt lat="39.04663833" lon="-8.91928167">
        <ele>4.0</ele>
        <time>2019-05-16T14:15:10.927Z</time>
      </trkpt>
      <trkpt lat="39.04663833" lon="-8.91928167">
        <ele>4.0</ele>
        <time>2019-05-16T14:15:11.926Z</time>
      </trkpt>
      <trkpt lat="39.04669667" lon="-8.919195">
        <ele>4.0</ele>
        <time>2019-05-16T14:15:12.903Z</time>
      </trkpt>
      <trkpt lat="39.046725" lon="-8.91915">
        <ele>4.0</ele>
        <time>2019-05-16T14:15:13.938Z</time>
      </trkpt>
      <trkpt lat="39.04675667" lon="-8.91910667">
        <ele>4.0</ele>
        <time>2019-05-16T14:15:14.941Z</time>
      </trkpt>
      <trkpt lat="39.04675667" lon="-8.91910667">
        <ele>4.0</ele>
        <time>2019-05-16T14:15:15.903Z</time>
      </trkpt>
      <trkpt lat="39.046815" lon="-8.91901833">
        <ele>4.0</ele>
        <time>2019-05-16T14:15:16.920Z</time>
      </trkpt>
      <trkpt lat="39.046815" lon="-8.91901833">
        <ele>4.0</ele>
        <time>2019-05-16T14:15:17.927Z</time>
      </trkpt>
      <trkpt lat="39.04687333" lon="-8.91893">
        <ele>3.0</ele>
        <time>2019-05-16T14:15:18.904Z</time>
      </trkpt>
      <trkpt lat="39.04687333" lon="-8.91893">
        <ele>3.0</ele>
        <time>2019-05-16T14:15:19.923Z</time>
      </trkpt>
      <trkpt lat="39.04693333" lon="-8.918845">
        <ele>3.0</ele>
        <time>2019-05-16T14:15:20.906Z</time>
      </trkpt>
      <trkpt lat="39.04693333" lon="-8.918845">
        <ele>3.0</ele>
        <time>2019-05-16T14:15:21.897Z</time>
      </trkpt>
      <trkpt lat="39.04699333" lon="-8.918765">
        <ele>3.0</ele>
        <time>2019-05-16T14:15:22.925Z</time>
      </trkpt>
      <trkpt lat="39.04699333" lon="-8.918765">
        <ele>3.0</ele>
        <time>2019-05-16T14:15:23.912Z</time>
      </trkpt>
      <trkpt lat="39.04705167" lon="-8.91868833">
        <ele>3.0</ele>
        <time>2019-05-16T14:15:24.938Z</time>
      </trkpt>
      <trkpt lat="39.04705167" lon="-8.91868833">
        <ele>3.0</ele>
        <time>2019-05-16T14:15:25.924Z</time>
      </trkpt>
      <trkpt lat="39.04710833" lon="-8.91860833">
        <ele>3.0</ele>
        <time>2019-05-16T14:15:26.906Z</time>
      </trkpt>
      <trkpt lat="39.04710833" lon="-8.91860833">
        <ele>3.0</ele>
        <time>2019-05-16T14:15:27.934Z</time>
      </trkpt>
      <trkpt lat="39.04716667" lon="-8.91852667">
        <ele>3.0</ele>
        <time>2019-05-16T14:15:28.930Z</time>
      </trkpt>
      <trkpt lat="39.04716667" lon="-8.91852667">
        <ele>3.0</ele>
        <time>2019-05-16T14:15:29.910Z</time>
      </trkpt>
      <trkpt lat="39.04722667" lon="-8.91844">
        <ele>2.0</ele>
        <time>2019-05-16T14:15:30.934Z</time>
      </trkpt>
      <trkpt lat="39.04725667" lon="-8.91839667">
        <ele>3.0</ele>
        <time>2019-05-16T14:15:31.927Z</time>
      </trkpt>
      <trkpt lat="39.04728833" lon="-8.91835167">
        <ele>2.0</ele>
        <time>2019-05-16T14:15:32.904Z</time>
      </trkpt>
      <trkpt lat="39.04728833" lon="-8.91835167">
        <ele>2.0</ele>
        <time>2019-05-16T14:15:33.904Z</time>
      </trkpt>
      <trkpt lat="39.04735167" lon="-8.91826">
        <ele>2.0</ele>
        <time>2019-05-16T14:15:34.925Z</time>
      </trkpt>
      <trkpt lat="39.04735167" lon="-8.91826">
        <ele>2.0</ele>
        <time>2019-05-16T14:15:35.911Z</time>
      </trkpt>
      <trkpt lat="39.04741667" lon="-8.91816333">
        <ele>2.0</ele>
        <time>2019-05-16T14:15:36.903Z</time>
      </trkpt>
      <trkpt lat="39.04741667" lon="-8.91816333">
        <ele>2.0</ele>
        <time>2019-05-16T14:15:37.928Z</time>
      </trkpt>
      <trkpt lat="39.04748167" lon="-8.91806833">
        <ele>2.0</ele>
        <time>2019-05-16T14:15:38.921Z</time>
      </trkpt>
      <trkpt lat="39.04748167" lon="-8.91806833">
        <ele>2.0</ele>
        <time>2019-05-16T14:15:39.910Z</time>
      </trkpt>
      <trkpt lat="39.047545" lon="-8.91797833">
        <ele>2.0</ele>
        <time>2019-05-16T14:15:40.934Z</time>
      </trkpt>
      <trkpt lat="39.047545" lon="-8.91797833">
        <ele>2.0</ele>
        <time>2019-05-16T14:15:41.922Z</time>
      </trkpt>
      <trkpt lat="39.04761" lon="-8.91788333">
        <ele>2.0</ele>
        <time>2019-05-16T14:15:42.907Z</time>
      </trkpt>
      <trkpt lat="39.04761" lon="-8.91788333">
        <ele>2.0</ele>
        <time>2019-05-16T14:15:43.920Z</time>
      </trkpt>
      <trkpt lat="39.04767667" lon="-8.91778667">
        <ele>2.0</ele>
        <time>2019-05-16T14:15:44.900Z</time>
      </trkpt>
      <trkpt lat="39.04767667" lon="-8.91778667">
        <ele>2.0</ele>
        <time>2019-05-16T14:15:45.927Z</time>
      </trkpt>
      <trkpt lat="39.04774333" lon="-8.91769167">
        <ele>2.0</ele>
        <time>2019-05-16T14:15:46.940Z</time>
      </trkpt>
      <trkpt lat="39.04774333" lon="-8.91769167">
        <ele>2.0</ele>
        <time>2019-05-16T14:15:47.931Z</time>
      </trkpt>
      <trkpt lat="39.04780833" lon="-8.91759833">
        <ele>2.0</ele>
        <time>2019-05-16T14:15:48.932Z</time>
      </trkpt>
      <trkpt lat="39.04780833" lon="-8.91759833">
        <ele>2.0</ele>
        <time>2019-05-16T14:15:49.913Z</time>
      </trkpt>
      <trkpt lat="39.04787167" lon="-8.91750833">
        <ele>2.0</ele>
        <time>2019-05-16T14:15:50.935Z</time>
      </trkpt>
      <trkpt lat="39.04787167" lon="-8.91750833">
        <ele>2.0</ele>
        <time>2019-05-16T14:15:51.913Z</time>
      </trkpt>
      <trkpt lat="39.04793333" lon="-8.917415">
        <ele>1.0</ele>
        <time>2019-05-16T14:15:52.900Z</time>
      </trkpt>
      <trkpt lat="39.04793333" lon="-8.917415">
        <ele>1.0</ele>
        <time>2019-05-16T14:15:53.929Z</time>
      </trkpt>
      <trkpt lat="39.047995" lon="-8.91732167">
        <ele>1.0</ele>
        <time>2019-05-16T14:15:54.917Z</time>
      </trkpt>
      <trkpt lat="39.047995" lon="-8.91732167">
        <ele>1.0</ele>
        <time>2019-05-16T14:15:55.916Z</time>
      </trkpt>
      <trkpt lat="39.04805833" lon="-8.91722833">
        <ele>1.0</ele>
        <time>2019-05-16T14:15:56.931Z</time>
      </trkpt>
      <trkpt lat="39.04805833" lon="-8.91722833">
        <ele>1.0</ele>
        <time>2019-05-16T14:15:57.931Z</time>
      </trkpt>
      <trkpt lat="39.04812167" lon="-8.91713333">
        <ele>1.0</ele>
        <time>2019-05-16T14:15:58.910Z</time>
      </trkpt>
      <trkpt lat="39.04812167" lon="-8.91713333">
        <ele>1.0</ele>
        <time>2019-05-16T14:15:59.910Z</time>
      </trkpt>
      <trkpt lat="39.04818667" lon="-8.91703667">
        <ele>1.0</ele>
        <time>2019-05-16T14:16:00.930Z</time>
      </trkpt>
      <trkpt lat="39.04821833" lon="-8.91698667">
        <ele>1.0</ele>
        <time>2019-05-16T14:16:01.907Z</time>
      </trkpt>
      <trkpt lat="39.04825" lon="-8.91693667">
        <ele>1.0</ele>
        <time>2019-05-16T14:16:02.900Z</time>
      </trkpt>
      <trkpt lat="39.04825" lon="-8.91693667">
        <ele>1.0</ele>
        <time>2019-05-16T14:16:03.934Z</time>
      </trkpt>
      <trkpt lat="39.04831167" lon="-8.916835">
        <ele>1.0</ele>
        <time>2019-05-16T14:16:04.913Z</time>
      </trkpt>
      <trkpt lat="39.04831167" lon="-8.916835">
        <ele>1.0</ele>
        <time>2019-05-16T14:16:05.935Z</time>
      </trkpt>
      <trkpt lat="39.04837" lon="-8.91673">
        <ele>1.0</ele>
        <time>2019-05-16T14:16:06.911Z</time>
      </trkpt>
      <trkpt lat="39.0484" lon="-8.91667667">
        <ele>1.0</ele>
        <time>2019-05-16T14:16:07.923Z</time>
      </trkpt>
      <trkpt lat="39.04842833" lon="-8.91662167">
        <ele>1.0</ele>
        <time>2019-05-16T14:16:08.898Z</time>
      </trkpt>
      <trkpt lat="39.04842833" lon="-8.91662167">
        <ele>1.0</ele>
        <time>2019-05-16T14:16:09.922Z</time>
      </trkpt>
      <trkpt lat="39.04848" lon="-8.916505">
        <ele>1.0</ele>
        <time>2019-05-16T14:16:10.919Z</time>
      </trkpt>
      <trkpt lat="39.04848" lon="-8.916505">
        <ele>1.0</ele>
        <time>2019-05-16T14:16:11.910Z</time>
      </trkpt>
      <trkpt lat="39.04852833" lon="-8.91638333">
        <ele>1.0</ele>
        <time>2019-05-16T14:16:12.936Z</time>
      </trkpt>
      <trkpt lat="39.04852833" lon="-8.91638333">
        <ele>1.0</ele>
        <time>2019-05-16T14:16:13.912Z</time>
      </trkpt>
      <trkpt lat="39.048575" lon="-8.91625833">
        <ele>0.0</ele>
        <time>2019-05-16T14:16:14.936Z</time>
      </trkpt>
      <trkpt lat="39.048575" lon="-8.91625833">
        <ele>0.0</ele>
        <time>2019-05-16T14:16:15.910Z</time>
      </trkpt>
      <trkpt lat="39.04861833" lon="-8.91613167">
        <ele>0.0</ele>
        <time>2019-05-16T14:16:16.933Z</time>
      </trkpt>
      <trkpt lat="39.04861833" lon="-8.91613167">
        <ele>0.0</ele>
        <time>2019-05-16T14:16:17.935Z</time>
      </trkpt>
      <trkpt lat="39.04866" lon="-8.91600667">
        <ele>0.0</ele>
        <time>2019-05-16T14:16:18.911Z</time>
      </trkpt>
      <trkpt lat="39.04868" lon="-8.91594333">
        <ele>0.0</ele>
        <time>2019-05-16T14:16:19.931Z</time>
      </trkpt>
      <trkpt lat="39.04868" lon="-8.91594333">
        <ele>0.0</ele>
        <time>2019-05-16T14:16:20.935Z</time>
      </trkpt>
      <trkpt lat="39.04872" lon="-8.91582167">
        <ele>0.0</ele>
        <time>2019-05-16T14:16:21.905Z</time>
      </trkpt>
      <trkpt lat="39.04874" lon="-8.915765">
        <ele>0.0</ele>
        <time>2019-05-16T14:16:22.913Z</time>
      </trkpt>
      <trkpt lat="39.04874" lon="-8.915765">
        <ele>0.0</ele>
        <time>2019-05-16T14:16:23.932Z</time>
      </trkpt>
      <trkpt lat="39.04877667" lon="-8.91565">
        <ele>0.0</ele>
        <time>2019-05-16T14:16:24.911Z</time>
      </trkpt>
      <trkpt lat="39.04879333" lon="-8.91559">
        <ele>0.0</ele>
        <time>2019-05-16T14:16:25.936Z</time>
      </trkpt>
      <trkpt lat="39.04881167" lon="-8.91553">
        <ele>0.0</ele>
        <time>2019-05-16T14:16:26.929Z</time>
      </trkpt>
      <trkpt lat="39.04882833" lon="-8.91547">
        <ele>-1.0</ele>
        <time>2019-05-16T14:16:27.903Z</time>
      </trkpt>
      <trkpt lat="39.04882833" lon="-8.91547">
        <ele>-1.0</ele>
        <time>2019-05-16T14:16:28.926Z</time>
      </trkpt>
      <trkpt lat="39.04886167" lon="-8.91535167">
        <ele>-1.0</ele>
        <time>2019-05-16T14:16:29.904Z</time>
      </trkpt>
      <trkpt lat="39.04886167" lon="-8.91535167">
        <ele>-1.0</ele>
        <time>2019-05-16T14:16:30.912Z</time>
      </trkpt>
      <trkpt lat="39.04889667" lon="-8.91523167">
        <ele>-1.0</ele>
        <time>2019-05-16T14:16:31.926Z</time>
      </trkpt>
      <trkpt lat="39.04891667" lon="-8.91517">
        <ele>-1.0</ele>
        <time>2019-05-16T14:16:32.909Z</time>
      </trkpt>
      <trkpt lat="39.04891667" lon="-8.91517">
        <ele>-1.0</ele>
        <time>2019-05-16T14:16:33.903Z</time>
      </trkpt>
      <trkpt lat="39.04895667" lon="-8.91505167">
        <ele>-1.0</ele>
        <time>2019-05-16T14:16:34.924Z</time>
      </trkpt>
      <trkpt lat="39.04895667" lon="-8.91505167">
        <ele>-1.0</ele>
        <time>2019-05-16T14:16:35.912Z</time>
      </trkpt>
      <trkpt lat="39.04899167" lon="-8.91493">
        <ele>-1.0</ele>
        <time>2019-05-16T14:16:36.931Z</time>
      </trkpt>
      <trkpt lat="39.04899167" lon="-8.91493">
        <ele>-1.0</ele>
        <time>2019-05-16T14:16:37.902Z</time>
      </trkpt>
      <trkpt lat="39.04902667" lon="-8.91480833">
        <ele>-1.0</ele>
        <time>2019-05-16T14:16:38.922Z</time>
      </trkpt>
      <trkpt lat="39.04902667" lon="-8.91480833">
        <ele>-1.0</ele>
        <time>2019-05-16T14:16:39.923Z</time>
      </trkpt>
      <trkpt lat="39.04906333" lon="-8.91468667">
        <ele>-1.0</ele>
        <time>2019-05-16T14:16:40.901Z</time>
      </trkpt>
      <trkpt lat="39.04906333" lon="-8.91468667">
        <ele>-1.0</ele>
        <time>2019-05-16T14:16:41.913Z</time>
      </trkpt>
      <trkpt lat="39.04910167" lon="-8.91456">
        <ele>-1.0</ele>
        <time>2019-05-16T14:16:42.901Z</time>
      </trkpt>
      <trkpt lat="39.04910167" lon="-8.91456">
        <ele>-1.0</ele>
        <time>2019-05-16T14:16:43.923Z</time>
      </trkpt>
      <trkpt lat="39.04913833" lon="-8.914435">
        <ele>-1.0</ele>
        <time>2019-05-16T14:16:44.902Z</time>
      </trkpt>
      <trkpt lat="39.04913833" lon="-8.914435">
        <ele>-1.0</ele>
        <time>2019-05-16T14:16:45.936Z</time>
      </trkpt>
      <trkpt lat="39.04917333" lon="-8.91431333">
        <ele>-1.0</ele>
        <time>2019-05-16T14:16:46.901Z</time>
      </trkpt>
      <trkpt lat="39.04917333" lon="-8.91431333">
        <ele>-1.0</ele>
        <time>2019-05-16T14:16:47.922Z</time>
      </trkpt>
      <trkpt lat="39.049215" lon="-8.91419333">
        <ele>-1.0</ele>
        <time>2019-05-16T14:16:48.903Z</time>
      </trkpt>
      <trkpt lat="39.049235" lon="-8.91413667">
        <ele>0.0</ele>
        <time>2019-05-16T14:16:49.908Z</time>
      </trkpt>
      <trkpt lat="39.049255" lon="-8.91407833">
        <ele>-1.0</ele>
        <time>2019-05-16T14:16:50.913Z</time>
      </trkpt>
      <trkpt lat="39.049255" lon="-8.91407833">
        <ele>-1.0</ele>
        <time>2019-05-16T14:16:51.934Z</time>
      </trkpt>
      <trkpt lat="39.04929" lon="-8.913965">
        <ele>-1.0</ele>
        <time>2019-05-16T14:16:52.914Z</time>
      </trkpt>
      <trkpt lat="39.04929" lon="-8.913965">
        <ele>-1.0</ele>
        <time>2019-05-16T14:16:53.934Z</time>
      </trkpt>
      <trkpt lat="39.049325" lon="-8.91386">
        <ele>-1.0</ele>
        <time>2019-05-16T14:16:54.917Z</time>
      </trkpt>
      <trkpt lat="39.049325" lon="-8.91386">
        <ele>-1.0</ele>
        <time>2019-05-16T14:16:55.902Z</time>
      </trkpt>
      <trkpt lat="39.049355" lon="-8.91375667">
        <ele>-1.0</ele>
        <time>2019-05-16T14:16:56.933Z</time>
      </trkpt>
      <trkpt lat="39.049355" lon="-8.91375667">
        <ele>-1.0</ele>
        <time>2019-05-16T14:16:57.913Z</time>
      </trkpt>
      <trkpt lat="39.04939" lon="-8.91366">
        <ele>-1.0</ele>
        <time>2019-05-16T14:16:58.934Z</time>
      </trkpt>
      <trkpt lat="39.04939" lon="-8.91366">
        <ele>-1.0</ele>
        <time>2019-05-16T14:16:59.913Z</time>
      </trkpt>
      <trkpt lat="39.04942667" lon="-8.91356333">
        <ele>-1.0</ele>
        <time>2019-05-16T14:17:00.920Z</time>
      </trkpt>
      <trkpt lat="39.04942667" lon="-8.91356333">
        <ele>-1.0</ele>
        <time>2019-05-16T14:17:01.897Z</time>
      </trkpt>
      <trkpt lat="39.04946" lon="-8.913465">
        <ele>-1.0</ele>
        <time>2019-05-16T14:17:02.913Z</time>
      </trkpt>
      <trkpt lat="39.04946" lon="-8.913465">
        <ele>-1.0</ele>
        <time>2019-05-16T14:17:03.932Z</time>
      </trkpt>
      <trkpt lat="39.049495" lon="-8.91336167">
        <ele>-1.0</ele>
        <time>2019-05-16T14:17:04.909Z</time>
      </trkpt>
      <trkpt lat="39.049495" lon="-8.91336167">
        <ele>-1.0</ele>
        <time>2019-05-16T14:17:05.897Z</time>
      </trkpt>
      <trkpt lat="39.04952833" lon="-8.91326667">
        <ele>-1.0</ele>
        <time>2019-05-16T14:17:06.921Z</time>
      </trkpt>
      <trkpt lat="39.04952833" lon="-8.91326667">
        <ele>-1.0</ele>
        <time>2019-05-16T14:17:07.923Z</time>
      </trkpt>
      <trkpt lat="39.04956667" lon="-8.91316833">
        <ele>-1.0</ele>
        <time>2019-05-16T14:17:08.915Z</time>
      </trkpt>
      <trkpt lat="39.04956667" lon="-8.91316833">
        <ele>-1.0</ele>
        <time>2019-05-16T14:17:09.933Z</time>
      </trkpt>
      <trkpt lat="39.04960667" lon="-8.913065">
        <ele>-2.0</ele>
        <time>2019-05-16T14:17:10.910Z</time>
      </trkpt>
      <trkpt lat="39.04960667" lon="-8.913065">
        <ele>-2.0</ele>
        <time>2019-05-16T14:17:11.898Z</time>
      </trkpt>
      <trkpt lat="39.04964333" lon="-8.912975">
        <ele>-1.0</ele>
        <time>2019-05-16T14:17:12.923Z</time>
      </trkpt>
      <trkpt lat="39.04964333" lon="-8.912975">
        <ele>-1.0</ele>
        <time>2019-05-16T14:17:13.911Z</time>
      </trkpt>
      <trkpt lat="39.04968333" lon="-8.91287667">
        <ele>1.0</ele>
        <time>2019-05-16T14:17:14.929Z</time>
      </trkpt>
      <trkpt lat="39.04968333" lon="-8.91287667">
        <ele>1.0</ele>
        <time>2019-05-16T14:17:15.899Z</time>
      </trkpt>
      <trkpt lat="39.04972167" lon="-8.912775">
        <ele>1.0</ele>
        <time>2019-05-16T14:17:16.921Z</time>
      </trkpt>
      <trkpt lat="39.04972167" lon="-8.912775">
        <ele>1.0</ele>
        <time>2019-05-16T14:17:17.910Z</time>
      </trkpt>
      <trkpt lat="39.049755" lon="-8.91266667">
        <ele>1.0</ele>
        <time>2019-05-16T14:17:18.938Z</time>
      </trkpt>
      <trkpt lat="39.049755" lon="-8.91266667">
        <ele>1.0</ele>
        <time>2019-05-16T14:17:19.927Z</time>
      </trkpt>
      <trkpt lat="39.04979167" lon="-8.91256333">
        <ele>2.0</ele>
        <time>2019-05-16T14:17:20.904Z</time>
      </trkpt>
      <trkpt lat="39.04979167" lon="-8.91256333">
        <ele>2.0</ele>
        <time>2019-05-16T14:17:21.931Z</time>
      </trkpt>
      <trkpt lat="39.04982833" lon="-8.91246333">
        <ele>2.0</ele>
        <time>2019-05-16T14:17:22.916Z</time>
      </trkpt>
      <trkpt lat="39.04982833" lon="-8.91246333">
        <ele>2.0</ele>
        <time>2019-05-16T14:17:23.931Z</time>
      </trkpt>
      <trkpt lat="39.049865" lon="-8.91236167">
        <ele>2.0</ele>
        <time>2019-05-16T14:17:24.911Z</time>
      </trkpt>
      <trkpt lat="39.049865" lon="-8.91236167">
        <ele>2.0</ele>
        <time>2019-05-16T14:17:25.903Z</time>
      </trkpt>
      <trkpt lat="39.04990833" lon="-8.91226667">
        <ele>2.0</ele>
        <time>2019-05-16T14:17:26.921Z</time>
      </trkpt>
      <trkpt lat="39.04990833" lon="-8.91226667">
        <ele>2.0</ele>
        <time>2019-05-16T14:17:27.926Z</time>
      </trkpt>
      <trkpt lat="39.04994833" lon="-8.91216833">
        <ele>2.0</ele>
        <time>2019-05-16T14:17:28.912Z</time>
      </trkpt>
      <trkpt lat="39.04994833" lon="-8.91216833">
        <ele>2.0</ele>
        <time>2019-05-16T14:17:29.897Z</time>
      </trkpt>
      <trkpt lat="39.04998333" lon="-8.91206333">
        <ele>2.0</ele>
        <time>2019-05-16T14:17:30.922Z</time>
      </trkpt>
      <trkpt lat="39.05000167" lon="-8.91201333">
        <ele>3.0</ele>
        <time>2019-05-16T14:17:31.908Z</time>
      </trkpt>
      <trkpt lat="39.05002167" lon="-8.91196167">
        <ele>3.0</ele>
        <time>2019-05-16T14:17:32.902Z</time>
      </trkpt>
      <trkpt lat="39.05002167" lon="-8.91196167">
        <ele>3.0</ele>
        <time>2019-05-16T14:17:33.910Z</time>
      </trkpt>
      <trkpt lat="39.05005667" lon="-8.91185833">
        <ele>3.0</ele>
        <time>2019-05-16T14:17:34.941Z</time>
      </trkpt>
      <trkpt lat="39.05005667" lon="-8.91185833">
        <ele>3.0</ele>
        <time>2019-05-16T14:17:35.898Z</time>
      </trkpt>
      <trkpt lat="39.05009167" lon="-8.91175">
        <ele>3.0</ele>
        <time>2019-05-16T14:17:36.927Z</time>
      </trkpt>
      <trkpt lat="39.05009167" lon="-8.91175">
        <ele>3.0</ele>
        <time>2019-05-16T14:17:37.900Z</time>
      </trkpt>
      <trkpt lat="39.05012833" lon="-8.911645">
        <ele>4.0</ele>
        <time>2019-05-16T14:17:38.924Z</time>
      </trkpt>
      <trkpt lat="39.05012833" lon="-8.911645">
        <ele>4.0</ele>
        <time>2019-05-16T14:17:39.897Z</time>
      </trkpt>
      <trkpt lat="39.050165" lon="-8.91154">
        <ele>4.0</ele>
        <time>2019-05-16T14:17:40.926Z</time>
      </trkpt>
      <trkpt lat="39.050165" lon="-8.91154">
        <ele>4.0</ele>
        <time>2019-05-16T14:17:41.919Z</time>
      </trkpt>
      <trkpt lat="39.050205" lon="-8.91143667">
        <ele>4.0</ele>
        <time>2019-05-16T14:17:42.913Z</time>
      </trkpt>
      <trkpt lat="39.050205" lon="-8.91143667">
        <ele>4.0</ele>
        <time>2019-05-16T14:17:43.933Z</time>
      </trkpt>
      <trkpt lat="39.05024167" lon="-8.91133333">
        <ele>4.0</ele>
        <time>2019-05-16T14:17:44.914Z</time>
      </trkpt>
      <trkpt lat="39.05024167" lon="-8.91133333">
        <ele>4.0</ele>
        <time>2019-05-16T14:17:45.903Z</time>
      </trkpt>
      <trkpt lat="39.05027667" lon="-8.91122833">
        <ele>4.0</ele>
        <time>2019-05-16T14:17:46.937Z</time>
      </trkpt>
      <trkpt lat="39.05027667" lon="-8.91122833">
        <ele>4.0</ele>
        <time>2019-05-16T14:17:47.933Z</time>
      </trkpt>
      <trkpt lat="39.050315" lon="-8.911125">
        <ele>4.0</ele>
        <time>2019-05-16T14:17:48.915Z</time>
      </trkpt>
      <trkpt lat="39.050315" lon="-8.911125">
        <ele>4.0</ele>
        <time>2019-05-16T14:17:49.934Z</time>
      </trkpt>
      <trkpt lat="39.05035333" lon="-8.91102167">
        <ele>4.0</ele>
        <time>2019-05-16T14:17:50.919Z</time>
      </trkpt>
      <trkpt lat="39.05035333" lon="-8.91102167">
        <ele>4.0</ele>
        <time>2019-05-16T14:17:51.928Z</time>
      </trkpt>
      <trkpt lat="39.05039" lon="-8.91092167">
        <ele>4.0</ele>
        <time>2019-05-16T14:17:52.931Z</time>
      </trkpt>
      <trkpt lat="39.05039" lon="-8.91092167">
        <ele>4.0</ele>
        <time>2019-05-16T14:17:53.913Z</time>
      </trkpt>
      <trkpt lat="39.05043" lon="-8.91082333">
        <ele>4.0</ele>
        <time>2019-05-16T14:17:54.901Z</time>
      </trkpt>
      <trkpt lat="39.05043" lon="-8.91082333">
        <ele>4.0</ele>
        <time>2019-05-16T14:17:55.910Z</time>
      </trkpt>
      <trkpt lat="39.05046833" lon="-8.91072167">
        <ele>4.0</ele>
        <time>2019-05-16T14:17:56.926Z</time>
      </trkpt>
      <trkpt lat="39.05046833" lon="-8.91072167">
        <ele>4.0</ele>
        <time>2019-05-16T14:17:57.903Z</time>
      </trkpt>
      <trkpt lat="39.05051" lon="-8.910615">
        <ele>4.0</ele>
        <time>2019-05-16T14:17:58.912Z</time>
      </trkpt>
      <trkpt lat="39.05051" lon="-8.910615">
        <ele>4.0</ele>
        <time>2019-05-16T14:17:59.903Z</time>
      </trkpt>
      <trkpt lat="39.05054833" lon="-8.91050667">
        <ele>4.0</ele>
        <time>2019-05-16T14:18:00.925Z</time>
      </trkpt>
      <trkpt lat="39.05054833" lon="-8.91050667">
        <ele>4.0</ele>
        <time>2019-05-16T14:18:01.904Z</time>
      </trkpt>
      <trkpt lat="39.05059" lon="-8.91040167">
        <ele>4.0</ele>
        <time>2019-05-16T14:18:02.930Z</time>
      </trkpt>
      <trkpt lat="39.05059" lon="-8.91040167">
        <ele>4.0</ele>
        <time>2019-05-16T14:18:03.932Z</time>
      </trkpt>
      <trkpt lat="39.05063167" lon="-8.91029667">
        <ele>4.0</ele>
        <time>2019-05-16T14:18:04.914Z</time>
      </trkpt>
      <trkpt lat="39.05063167" lon="-8.91029667">
        <ele>4.0</ele>
        <time>2019-05-16T14:18:05.914Z</time>
      </trkpt>
      <trkpt lat="39.05067167" lon="-8.91019">
        <ele>3.0</ele>
        <time>2019-05-16T14:18:06.898Z</time>
      </trkpt>
      <trkpt lat="39.05067167" lon="-8.91019">
        <ele>3.0</ele>
        <time>2019-05-16T14:18:07.919Z</time>
      </trkpt>
      <trkpt lat="39.05070833" lon="-8.910085">
        <ele>3.0</ele>
        <time>2019-05-16T14:18:08.897Z</time>
      </trkpt>
      <trkpt lat="39.05070833" lon="-8.910085">
        <ele>3.0</ele>
        <time>2019-05-16T14:18:09.908Z</time>
      </trkpt>
      <trkpt lat="39.05074833" lon="-8.90998333">
        <ele>3.0</ele>
        <time>2019-05-16T14:18:10.923Z</time>
      </trkpt>
      <trkpt lat="39.05074833" lon="-8.90998333">
        <ele>3.0</ele>
        <time>2019-05-16T14:18:11.933Z</time>
      </trkpt>
      <trkpt lat="39.050785" lon="-8.90987833">
        <ele>3.0</ele>
        <time>2019-05-16T14:18:12.908Z</time>
      </trkpt>
      <trkpt lat="39.050805" lon="-8.90982667">
        <ele>3.0</ele>
        <time>2019-05-16T14:18:13.936Z</time>
      </trkpt>
      <trkpt lat="39.050805" lon="-8.90982667">
        <ele>3.0</ele>
        <time>2019-05-16T14:18:14.906Z</time>
      </trkpt>
      <trkpt lat="39.050845" lon="-8.909725">
        <ele>3.0</ele>
        <time>2019-05-16T14:18:15.931Z</time>
      </trkpt>
      <trkpt lat="39.050845" lon="-8.909725">
        <ele>3.0</ele>
        <time>2019-05-16T14:18:16.930Z</time>
      </trkpt>
      <trkpt lat="39.05088333" lon="-8.90962333">
        <ele>4.0</ele>
        <time>2019-05-16T14:18:17.908Z</time>
      </trkpt>
      <trkpt lat="39.05088333" lon="-8.90962333">
        <ele>4.0</ele>
        <time>2019-05-16T14:18:18.903Z</time>
      </trkpt>
      <trkpt lat="39.05092167" lon="-8.90952">
        <ele>4.0</ele>
        <time>2019-05-16T14:18:19.929Z</time>
      </trkpt>
      <trkpt lat="39.05094333" lon="-8.90947">
        <ele>4.0</ele>
        <time>2019-05-16T14:18:20.931Z</time>
      </trkpt>
      <trkpt lat="39.05094333" lon="-8.90947">
        <ele>4.0</ele>
        <time>2019-05-16T14:18:21.909Z</time>
      </trkpt>
      <trkpt lat="39.05097833" lon="-8.909365">
        <ele>4.0</ele>
        <time>2019-05-16T14:18:22.934Z</time>
      </trkpt>
      <trkpt lat="39.05097833" lon="-8.909365">
        <ele>4.0</ele>
        <time>2019-05-16T14:18:23.933Z</time>
      </trkpt>
      <trkpt lat="39.05101333" lon="-8.90926167">
        <ele>5.0</ele>
        <time>2019-05-16T14:18:24.919Z</time>
      </trkpt>
      <trkpt lat="39.05101333" lon="-8.90926167">
        <ele>5.0</ele>
        <time>2019-05-16T14:18:25.901Z</time>
      </trkpt>
      <trkpt lat="39.05105333" lon="-8.90916167">
        <ele>5.0</ele>
        <time>2019-05-16T14:18:26.928Z</time>
      </trkpt>
      <trkpt lat="39.05105333" lon="-8.90916167">
        <ele>5.0</ele>
        <time>2019-05-16T14:18:27.909Z</time>
      </trkpt>
      <trkpt lat="39.05108833" lon="-8.90906333">
        <ele>5.0</ele>
        <time>2019-05-16T14:18:28.897Z</time>
      </trkpt>
      <trkpt lat="39.05108833" lon="-8.90906333">
        <ele>5.0</ele>
        <time>2019-05-16T14:18:29.911Z</time>
      </trkpt>
      <trkpt lat="39.05113167" lon="-8.90896167">
        <ele>5.0</ele>
        <time>2019-05-16T14:18:30.932Z</time>
      </trkpt>
      <trkpt lat="39.05113167" lon="-8.90896167">
        <ele>5.0</ele>
        <time>2019-05-16T14:18:31.926Z</time>
      </trkpt>
      <trkpt lat="39.051175" lon="-8.90885833">
        <ele>5.0</ele>
        <time>2019-05-16T14:18:32.911Z</time>
      </trkpt>
      <trkpt lat="39.051175" lon="-8.90885833">
        <ele>5.0</ele>
        <time>2019-05-16T14:18:33.903Z</time>
      </trkpt>
      <trkpt lat="39.05121667" lon="-8.90875167">
        <ele>6.0</ele>
        <time>2019-05-16T14:18:34.930Z</time>
      </trkpt>
      <trkpt lat="39.05121667" lon="-8.90875167">
        <ele>6.0</ele>
        <time>2019-05-16T14:18:35.922Z</time>
      </trkpt>
      <trkpt lat="39.05126" lon="-8.90864667">
        <ele>6.0</ele>
        <time>2019-05-16T14:18:36.939Z</time>
      </trkpt>
      <trkpt lat="39.05126" lon="-8.90864667">
        <ele>6.0</ele>
        <time>2019-05-16T14:18:37.920Z</time>
      </trkpt>
      <trkpt lat="39.05129667" lon="-8.90854">
        <ele>6.0</ele>
        <time>2019-05-16T14:18:38.910Z</time>
      </trkpt>
      <trkpt lat="39.05129667" lon="-8.90854">
        <ele>6.0</ele>
        <time>2019-05-16T14:18:39.908Z</time>
      </trkpt>
      <trkpt lat="39.05133833" lon="-8.90844">
        <ele>5.0</ele>
        <time>2019-05-16T14:18:40.898Z</time>
      </trkpt>
      <trkpt lat="39.05133833" lon="-8.90844">
        <ele>5.0</ele>
        <time>2019-05-16T14:18:41.915Z</time>
      </trkpt>
      <trkpt lat="39.051375" lon="-8.90834167">
        <ele>5.0</ele>
        <time>2019-05-16T14:18:42.909Z</time>
      </trkpt>
      <trkpt lat="39.051375" lon="-8.90834167">
        <ele>5.0</ele>
        <time>2019-05-16T14:18:43.916Z</time>
      </trkpt>
      <trkpt lat="39.05141333" lon="-8.908245">
        <ele>5.0</ele>
        <time>2019-05-16T14:18:44.900Z</time>
      </trkpt>
      <trkpt lat="39.05141333" lon="-8.908245">
        <ele>5.0</ele>
        <time>2019-05-16T14:18:45.924Z</time>
      </trkpt>
      <trkpt lat="39.05145167" lon="-8.908145">
        <ele>5.0</ele>
        <time>2019-05-16T14:18:46.910Z</time>
      </trkpt>
      <trkpt lat="39.05147333" lon="-8.908095">
        <ele>5.0</ele>
        <time>2019-05-16T14:18:47.901Z</time>
      </trkpt>
      <trkpt lat="39.05147333" lon="-8.908095">
        <ele>5.0</ele>
        <time>2019-05-16T14:18:48.923Z</time>
      </trkpt>
      <trkpt lat="39.05150833" lon="-8.90799667">
        <ele>5.0</ele>
        <time>2019-05-16T14:18:49.911Z</time>
      </trkpt>
      <trkpt lat="39.05152833" lon="-8.90795">
        <ele>5.0</ele>
        <time>2019-05-16T14:18:50.919Z</time>
      </trkpt>
      <trkpt lat="39.05152833" lon="-8.90795">
        <ele>5.0</ele>
        <time>2019-05-16T14:18:51.905Z</time>
      </trkpt>
      <trkpt lat="39.05156667" lon="-8.90785833">
        <ele>5.0</ele>
        <time>2019-05-16T14:18:52.930Z</time>
      </trkpt>
      <trkpt lat="39.05156667" lon="-8.90785833">
        <ele>5.0</ele>
        <time>2019-05-16T14:18:53.903Z</time>
      </trkpt>
      <trkpt lat="39.0516" lon="-8.90776333">
        <ele>5.0</ele>
        <time>2019-05-16T14:18:54.923Z</time>
      </trkpt>
      <trkpt lat="39.0516" lon="-8.90776333">
        <ele>5.0</ele>
        <time>2019-05-16T14:18:55.925Z</time>
      </trkpt>
      <trkpt lat="39.05163167" lon="-8.90767667">
        <ele>5.0</ele>
        <time>2019-05-16T14:18:56.907Z</time>
      </trkpt>
      <trkpt lat="39.05163167" lon="-8.90767667">
        <ele>5.0</ele>
        <time>2019-05-16T14:18:57.926Z</time>
      </trkpt>
      <trkpt lat="39.05167167" lon="-8.907595">
        <ele>5.0</ele>
        <time>2019-05-16T14:18:58.909Z</time>
      </trkpt>
      <trkpt lat="39.05167167" lon="-8.907595">
        <ele>5.0</ele>
        <time>2019-05-16T14:18:59.933Z</time>
      </trkpt>
      <trkpt lat="39.05171" lon="-8.90750833">
        <ele>5.0</ele>
        <time>2019-05-16T14:19:00.908Z</time>
      </trkpt>
      <trkpt lat="39.05173" lon="-8.907465">
        <ele>5.0</ele>
        <time>2019-05-16T14:19:01.935Z</time>
      </trkpt>
      <trkpt lat="39.05173" lon="-8.907465">
        <ele>5.0</ele>
        <time>2019-05-16T14:19:02.904Z</time>
      </trkpt>
      <trkpt lat="39.05176667" lon="-8.907385">
        <ele>5.0</ele>
        <time>2019-05-16T14:19:03.905Z</time>
      </trkpt>
      <trkpt lat="39.05176667" lon="-8.907385">
        <ele>5.0</ele>
        <time>2019-05-16T14:19:04.905Z</time>
      </trkpt>
      <trkpt lat="39.05181333" lon="-8.90730667">
        <ele>5.0</ele>
        <time>2019-05-16T14:19:05.919Z</time>
      </trkpt>
      <trkpt lat="39.05181333" lon="-8.90730667">
        <ele>5.0</ele>
        <time>2019-05-16T14:19:06.936Z</time>
      </trkpt>
      <trkpt lat="39.05185667" lon="-8.90722333">
        <ele>6.0</ele>
        <time>2019-05-16T14:19:07.921Z</time>
      </trkpt>
      <trkpt lat="39.05187667" lon="-8.90718167">
        <ele>6.0</ele>
        <time>2019-05-16T14:19:08.930Z</time>
      </trkpt>
      <trkpt lat="39.05187667" lon="-8.90718167">
        <ele>6.0</ele>
        <time>2019-05-16T14:19:09.911Z</time>
      </trkpt>
      <trkpt lat="39.05191333" lon="-8.90709833">
        <ele>6.0</ele>
        <time>2019-05-16T14:19:10.933Z</time>
      </trkpt>
      <trkpt lat="39.05191333" lon="-8.90709833">
        <ele>6.0</ele>
        <time>2019-05-16T14:19:11.913Z</time>
      </trkpt>
      <trkpt lat="39.051955" lon="-8.90701333">
        <ele>6.0</ele>
        <time>2019-05-16T14:19:12.939Z</time>
      </trkpt>
      <trkpt lat="39.051955" lon="-8.90701333">
        <ele>6.0</ele>
        <time>2019-05-16T14:19:13.910Z</time>
      </trkpt>
      <trkpt lat="39.05199" lon="-8.90693167">
        <ele>6.0</ele>
        <time>2019-05-16T14:19:14.899Z</time>
      </trkpt>
      <trkpt lat="39.05199" lon="-8.90693167">
        <ele>6.0</ele>
        <time>2019-05-16T14:19:15.913Z</time>
      </trkpt>
      <trkpt lat="39.05202" lon="-8.90684667">
        <ele>5.0</ele>
        <time>2019-05-16T14:19:16.927Z</time>
      </trkpt>
      <trkpt lat="39.05204167" lon="-8.906805">
        <ele>5.0</ele>
        <time>2019-05-16T14:19:17.914Z</time>
      </trkpt>
      <trkpt lat="39.05204167" lon="-8.906805">
        <ele>5.0</ele>
        <time>2019-05-16T14:19:18.918Z</time>
      </trkpt>
      <trkpt lat="39.05208333" lon="-8.90672167">
        <ele>5.0</ele>
        <time>2019-05-16T14:19:19.900Z</time>
      </trkpt>
      <trkpt lat="39.05210667" lon="-8.90668">
        <ele>5.0</ele>
        <time>2019-05-16T14:19:20.901Z</time>
      </trkpt>
      <trkpt lat="39.05210667" lon="-8.90668">
        <ele>5.0</ele>
        <time>2019-05-16T14:19:21.909Z</time>
      </trkpt>
      <trkpt lat="39.05216333" lon="-8.90659333">
        <ele>6.0</ele>
        <time>2019-05-16T14:19:22.929Z</time>
      </trkpt>
      <trkpt lat="39.05216333" lon="-8.90659333">
        <ele>6.0</ele>
        <time>2019-05-16T14:19:23.905Z</time>
      </trkpt>
      <trkpt lat="39.05220667" lon="-8.90650167">
        <ele>6.0</ele>
        <time>2019-05-16T14:19:24.926Z</time>
      </trkpt>
      <trkpt lat="39.05220667" lon="-8.90650167">
        <ele>6.0</ele>
        <time>2019-05-16T14:19:25.919Z</time>
      </trkpt>
      <trkpt lat="39.05224833" lon="-8.90640833">
        <ele>6.0</ele>
        <time>2019-05-16T14:19:26.935Z</time>
      </trkpt>
      <trkpt lat="39.05224833" lon="-8.90640833">
        <ele>6.0</ele>
        <time>2019-05-16T14:19:27.911Z</time>
      </trkpt>
      <trkpt lat="39.05229" lon="-8.906315">
        <ele>7.0</ele>
        <time>2019-05-16T14:19:28.924Z</time>
      </trkpt>
      <trkpt lat="39.05229" lon="-8.906315">
        <ele>7.0</ele>
        <time>2019-05-16T14:19:29.923Z</time>
      </trkpt>
      <trkpt lat="39.05233667" lon="-8.90622333">
        <ele>6.0</ele>
        <time>2019-05-16T14:19:30.920Z</time>
      </trkpt>
      <trkpt lat="39.05233667" lon="-8.90622333">
        <ele>6.0</ele>
        <time>2019-05-16T14:19:31.914Z</time>
      </trkpt>
      <trkpt lat="39.052385" lon="-8.906135">
        <ele>6.0</ele>
        <time>2019-05-16T14:19:32.932Z</time>
      </trkpt>
      <trkpt lat="39.052385" lon="-8.906135">
        <ele>6.0</ele>
        <time>2019-05-16T14:19:33.903Z</time>
      </trkpt>
      <trkpt lat="39.05244" lon="-8.90605">
        <ele>6.0</ele>
        <time>2019-05-16T14:19:34.934Z</time>
      </trkpt>
      <trkpt lat="39.05244" lon="-8.90605">
        <ele>6.0</ele>
        <time>2019-05-16T14:19:35.913Z</time>
      </trkpt>
      <trkpt lat="39.052485" lon="-8.90596167">
        <ele>6.0</ele>
        <time>2019-05-16T14:19:36.936Z</time>
      </trkpt>
      <trkpt lat="39.052485" lon="-8.90596167">
        <ele>6.0</ele>
        <time>2019-05-16T14:19:37.928Z</time>
      </trkpt>
      <trkpt lat="39.05252667" lon="-8.90588">
        <ele>5.0</ele>
        <time>2019-05-16T14:19:38.912Z</time>
      </trkpt>
      <trkpt lat="39.05252667" lon="-8.90588">
        <ele>5.0</ele>
        <time>2019-05-16T14:19:39.913Z</time>
      </trkpt>
      <trkpt lat="39.052565" lon="-8.905805">
        <ele>5.0</ele>
        <time>2019-05-16T14:19:40.926Z</time>
      </trkpt>
      <trkpt lat="39.05259" lon="-8.90576167">
        <ele>5.0</ele>
        <time>2019-05-16T14:19:41.909Z</time>
      </trkpt>
      <trkpt lat="39.05259" lon="-8.90576167">
        <ele>5.0</ele>
        <time>2019-05-16T14:19:42.912Z</time>
      </trkpt>
      <trkpt lat="39.05263333" lon="-8.905675">
        <ele>5.0</ele>
        <time>2019-05-16T14:19:43.925Z</time>
      </trkpt>
      <trkpt lat="39.052655" lon="-8.905635">
        <ele>5.0</ele>
        <time>2019-05-16T14:19:44.941Z</time>
      </trkpt>
      <trkpt lat="39.052655" lon="-8.905635">
        <ele>5.0</ele>
        <time>2019-05-16T14:19:45.923Z</time>
      </trkpt>
      <trkpt lat="39.05270167" lon="-8.90554833">
        <ele>4.0</ele>
        <time>2019-05-16T14:19:46.941Z</time>
      </trkpt>
      <trkpt lat="39.052725" lon="-8.90550167">
        <ele>4.0</ele>
        <time>2019-05-16T14:19:47.939Z</time>
      </trkpt>
      <trkpt lat="39.052725" lon="-8.90550167">
        <ele>4.0</ele>
        <time>2019-05-16T14:19:48.913Z</time>
      </trkpt>
      <trkpt lat="39.05278167" lon="-8.90541333">
        <ele>4.0</ele>
        <time>2019-05-16T14:19:49.920Z</time>
      </trkpt>
      <trkpt lat="39.05280667" lon="-8.90536333">
        <ele>4.0</ele>
        <time>2019-05-16T14:19:50.908Z</time>
      </trkpt>
      <trkpt lat="39.05280667" lon="-8.90536333">
        <ele>4.0</ele>
        <time>2019-05-16T14:19:51.914Z</time>
      </trkpt>
      <trkpt lat="39.05286167" lon="-8.90526833">
        <ele>4.0</ele>
        <time>2019-05-16T14:19:52.953Z</time>
      </trkpt>
      <trkpt lat="39.05286167" lon="-8.90526833">
        <ele>4.0</ele>
        <time>2019-05-16T14:19:53.909Z</time>
      </trkpt>
      <trkpt lat="39.05292" lon="-8.90517">
        <ele>4.0</ele>
        <time>2019-05-16T14:19:54.931Z</time>
      </trkpt>
      <trkpt lat="39.05292" lon="-8.90517">
        <ele>4.0</ele>
        <time>2019-05-16T14:19:55.901Z</time>
      </trkpt>
      <trkpt lat="39.05297333" lon="-8.905065">
        <ele>4.0</ele>
        <time>2019-05-16T14:19:56.933Z</time>
      </trkpt>
      <trkpt lat="39.05297333" lon="-8.905065">
        <ele>4.0</ele>
        <time>2019-05-16T14:19:57.914Z</time>
      </trkpt>
      <trkpt lat="39.05302" lon="-8.904965">
        <ele>4.0</ele>
        <time>2019-05-16T14:19:58.899Z</time>
      </trkpt>
      <trkpt lat="39.05302" lon="-8.904965">
        <ele>4.0</ele>
        <time>2019-05-16T14:19:59.922Z</time>
      </trkpt>
      <trkpt lat="39.05307167" lon="-8.90486833">
        <ele>3.0</ele>
        <time>2019-05-16T14:20:00.900Z</time>
      </trkpt>
      <trkpt lat="39.0531" lon="-8.90482333">
        <ele>3.0</ele>
        <time>2019-05-16T14:20:01.908Z</time>
      </trkpt>
      <trkpt lat="39.05312667" lon="-8.90477667">
        <ele>3.0</ele>
        <time>2019-05-16T14:20:02.914Z</time>
      </trkpt>
      <trkpt lat="39.05312667" lon="-8.90477667">
        <ele>3.0</ele>
        <time>2019-05-16T14:20:03.905Z</time>
      </trkpt>
      <trkpt lat="39.05317167" lon="-8.904685">
        <ele>3.0</ele>
        <time>2019-05-16T14:20:04.921Z</time>
      </trkpt>
      <trkpt lat="39.05317167" lon="-8.904685">
        <ele>3.0</ele>
        <time>2019-05-16T14:20:05.933Z</time>
      </trkpt>
      <trkpt lat="39.05321833" lon="-8.904595">
        <ele>3.0</ele>
        <time>2019-05-16T14:20:06.917Z</time>
      </trkpt>
      <trkpt lat="39.05321833" lon="-8.904595">
        <ele>3.0</ele>
        <time>2019-05-16T14:20:07.935Z</time>
      </trkpt>
      <trkpt lat="39.05327" lon="-8.904505">
        <ele>3.0</ele>
        <time>2019-05-16T14:20:08.911Z</time>
      </trkpt>
      <trkpt lat="39.05327" lon="-8.904505">
        <ele>3.0</ele>
        <time>2019-05-16T14:20:09.928Z</time>
      </trkpt>
      <trkpt lat="39.05332167" lon="-8.90441333">
        <ele>3.0</ele>
        <time>2019-05-16T14:20:10.904Z</time>
      </trkpt>
      <trkpt lat="39.05332167" lon="-8.90441333">
        <ele>3.0</ele>
        <time>2019-05-16T14:20:11.931Z</time>
      </trkpt>
      <trkpt lat="39.05337333" lon="-8.904315">
        <ele>3.0</ele>
        <time>2019-05-16T14:20:12.915Z</time>
      </trkpt>
      <trkpt lat="39.05337333" lon="-8.904315">
        <ele>3.0</ele>
        <time>2019-05-16T14:20:13.911Z</time>
      </trkpt>
      <trkpt lat="39.053425" lon="-8.90421833">
        <ele>3.0</ele>
        <time>2019-05-16T14:20:14.934Z</time>
      </trkpt>
      <trkpt lat="39.053425" lon="-8.90421833">
        <ele>3.0</ele>
        <time>2019-05-16T14:20:15.913Z</time>
      </trkpt>
      <trkpt lat="39.05348167" lon="-8.90411667">
        <ele>2.0</ele>
        <time>2019-05-16T14:20:16.932Z</time>
      </trkpt>
      <trkpt lat="39.05350833" lon="-8.90406833">
        <ele>2.0</ele>
        <time>2019-05-16T14:20:17.959Z</time>
      </trkpt>
      <trkpt lat="39.05350833" lon="-8.90406833">
        <ele>2.0</ele>
        <time>2019-05-16T14:20:18.932Z</time>
      </trkpt>
      <trkpt lat="39.05355833" lon="-8.90397">
        <ele>2.0</ele>
        <time>2019-05-16T14:20:19.935Z</time>
      </trkpt>
      <trkpt lat="39.05358167" lon="-8.90392">
        <ele>2.0</ele>
        <time>2019-05-16T14:20:20.931Z</time>
      </trkpt>
      <trkpt lat="39.05358167" lon="-8.90392">
        <ele>2.0</ele>
        <time>2019-05-16T14:20:21.909Z</time>
      </trkpt>
      <trkpt lat="39.05363167" lon="-8.90382333">
        <ele>2.0</ele>
        <time>2019-05-16T14:20:22.916Z</time>
      </trkpt>
      <trkpt lat="39.05363167" lon="-8.90382333">
        <ele>2.0</ele>
        <time>2019-05-16T14:20:23.920Z</time>
      </trkpt>
      <trkpt lat="39.05368167" lon="-8.90372667">
        <ele>2.0</ele>
        <time>2019-05-16T14:20:24.906Z</time>
      </trkpt>
      <trkpt lat="39.05368167" lon="-8.90372667">
        <ele>2.0</ele>
        <time>2019-05-16T14:20:25.921Z</time>
      </trkpt>
      <trkpt lat="39.05372833" lon="-8.903625">
        <ele>2.0</ele>
        <time>2019-05-16T14:20:26.940Z</time>
      </trkpt>
      <trkpt lat="39.05372833" lon="-8.903625">
        <ele>2.0</ele>
        <time>2019-05-16T14:20:27.899Z</time>
      </trkpt>
      <trkpt lat="39.053785" lon="-8.90353">
        <ele>2.0</ele>
        <time>2019-05-16T14:20:28.934Z</time>
      </trkpt>
      <trkpt lat="39.053785" lon="-8.90353">
        <ele>2.0</ele>
        <time>2019-05-16T14:20:29.911Z</time>
      </trkpt>
      <trkpt lat="39.05384167" lon="-8.90342667">
        <ele>2.0</ele>
        <time>2019-05-16T14:20:30.933Z</time>
      </trkpt>
      <trkpt lat="39.05387333" lon="-8.903375">
        <ele>2.0</ele>
        <time>2019-05-16T14:20:31.908Z</time>
      </trkpt>
      <trkpt lat="39.053905" lon="-8.90332">
        <ele>2.0</ele>
        <time>2019-05-16T14:20:32.917Z</time>
      </trkpt>
      <trkpt lat="39.053905" lon="-8.90332">
        <ele>2.0</ele>
        <time>2019-05-16T14:20:33.927Z</time>
      </trkpt>
      <trkpt lat="39.05396" lon="-8.90320333">
        <ele>3.0</ele>
        <time>2019-05-16T14:20:34.916Z</time>
      </trkpt>
      <trkpt lat="39.05396" lon="-8.90320333">
        <ele>3.0</ele>
        <time>2019-05-16T14:20:35.934Z</time>
      </trkpt>
      <trkpt lat="39.05401333" lon="-8.90308833">
        <ele>3.0</ele>
        <time>2019-05-16T14:20:36.922Z</time>
      </trkpt>
      <trkpt lat="39.05401333" lon="-8.90308833">
        <ele>3.0</ele>
        <time>2019-05-16T14:20:37.905Z</time>
      </trkpt>
      <trkpt lat="39.05406167" lon="-8.90297667">
        <ele>3.0</ele>
        <time>2019-05-16T14:20:38.931Z</time>
      </trkpt>
      <trkpt lat="39.05406167" lon="-8.90297667">
        <ele>3.0</ele>
        <time>2019-05-16T14:20:39.911Z</time>
      </trkpt>
      <trkpt lat="39.05410833" lon="-8.90287333">
        <ele>3.0</ele>
        <time>2019-05-16T14:20:40.901Z</time>
      </trkpt>
      <trkpt lat="39.05410833" lon="-8.90287333">
        <ele>3.0</ele>
        <time>2019-05-16T14:20:41.922Z</time>
      </trkpt>
      <trkpt lat="39.05415167" lon="-8.90278667">
        <ele>3.0</ele>
        <time>2019-05-16T14:20:42.907Z</time>
      </trkpt>
      <trkpt lat="39.05415167" lon="-8.90278667">
        <ele>3.0</ele>
        <time>2019-05-16T14:20:43.913Z</time>
      </trkpt>
      <trkpt lat="39.05417167" lon="-8.90273333">
        <ele>3.0</ele>
        <time>2019-05-16T14:20:44.935Z</time>
      </trkpt>
      <trkpt lat="39.05417167" lon="-8.90273333">
        <ele>3.0</ele>
        <time>2019-05-16T14:20:45.921Z</time>
      </trkpt>
      <trkpt lat="39.054175" lon="-8.90272667">
        <ele>3.0</ele>
        <time>2019-05-16T14:20:46.906Z</time>
      </trkpt>
      <trkpt lat="39.054175" lon="-8.90272667">
        <ele>3.0</ele>
        <time>2019-05-16T14:20:47.917Z</time>
      </trkpt>
      <trkpt lat="39.054175" lon="-8.90272833">
        <ele>3.0</ele>
        <time>2019-05-16T14:20:48.898Z</time>
      </trkpt>
      <trkpt lat="39.054175" lon="-8.90272833">
        <ele>3.0</ele>
        <time>2019-05-16T14:20:49.915Z</time>
      </trkpt>
      <trkpt lat="39.054175" lon="-8.90272833">
        <ele>3.0</ele>
        <time>2019-05-16T14:20:50.921Z</time>
      </trkpt>
      <trkpt lat="39.054175" lon="-8.90272833">
        <ele>3.0</ele>
        <time>2019-05-16T14:20:51.927Z</time>
      </trkpt>
      <trkpt lat="39.054175" lon="-8.90272833">
        <ele>3.0</ele>
        <time>2019-05-16T14:20:52.932Z</time>
      </trkpt>
      <trkpt lat="39.054175" lon="-8.90272833">
        <ele>3.0</ele>
        <time>2019-05-16T14:20:53.919Z</time>
      </trkpt>
      <trkpt lat="39.054175" lon="-8.90272833">
        <ele>3.0</ele>
        <time>2019-05-16T14:20:54.924Z</time>
      </trkpt>
      <trkpt lat="39.054175" lon="-8.90272833">
        <ele>3.0</ele>
        <time>2019-05-16T14:20:55.918Z</time>
      </trkpt>
      <trkpt lat="39.054175" lon="-8.90272833">
        <ele>3.0</ele>
        <time>2019-05-16T14:20:56.921Z</time>
      </trkpt>
      <trkpt lat="39.054175" lon="-8.90272833">
        <ele>3.0</ele>
        <time>2019-05-16T14:20:57.919Z</time>
      </trkpt>
      <trkpt lat="39.054175" lon="-8.90272833">
        <ele>3.0</ele>
        <time>2019-05-16T14:20:58.924Z</time>
      </trkpt>
      <trkpt lat="39.054175" lon="-8.90272833">
        <ele>3.0</ele>
        <time>2019-05-16T14:20:59.919Z</time>
      </trkpt>
      <trkpt lat="39.054175" lon="-8.90272833">
        <ele>3.0</ele>
        <time>2019-05-16T14:21:00.924Z</time>
      </trkpt>
      <trkpt lat="39.054175" lon="-8.90272833">
        <ele>3.0</ele>
        <time>2019-05-16T14:21:01.921Z</time>
      </trkpt>
      <trkpt lat="39.054175" lon="-8.90272833">
        <ele>3.0</ele>
        <time>2019-05-16T14:21:02.927Z</time>
      </trkpt>
      <trkpt lat="39.054175" lon="-8.90272833">
        <ele>3.0</ele>
        <time>2019-05-16T14:21:03.919Z</time>
      </trkpt>
      <trkpt lat="39.05420333" lon="-8.90272">
        <ele>3.0</ele>
        <time>2019-05-16T14:21:04.924Z</time>
      </trkpt>
      <trkpt lat="39.05420333" lon="-8.90272">
        <ele>3.0</ele>
        <time>2019-05-16T14:21:05.919Z</time>
      </trkpt>
      <trkpt lat="39.05422833" lon="-8.90267667">
        <ele>3.0</ele>
        <time>2019-05-16T14:21:06.921Z</time>
      </trkpt>
      <trkpt lat="39.05422833" lon="-8.90267667">
        <ele>3.0</ele>
        <time>2019-05-16T14:21:07.919Z</time>
      </trkpt>
      <trkpt lat="39.05426167" lon="-8.90260833">
        <ele>3.0</ele>
        <time>2019-05-16T14:21:08.926Z</time>
      </trkpt>
      <trkpt lat="39.05426167" lon="-8.90260833">
        <ele>3.0</ele>
        <time>2019-05-16T14:21:09.919Z</time>
      </trkpt>
      <trkpt lat="39.05429167" lon="-8.90251333">
        <ele>3.0</ele>
        <time>2019-05-16T14:21:10.925Z</time>
      </trkpt>
      <trkpt lat="39.05429167" lon="-8.90251333">
        <ele>3.0</ele>
        <time>2019-05-16T14:21:11.919Z</time>
      </trkpt>
      <trkpt lat="39.05430667" lon="-8.90241333">
        <ele>3.0</ele>
        <time>2019-05-16T14:21:12.937Z</time>
      </trkpt>
      <trkpt lat="39.05430667" lon="-8.90241333">
        <ele>3.0</ele>
        <time>2019-05-16T14:21:13.928Z</time>
      </trkpt>
      <trkpt lat="39.05430667" lon="-8.90230833">
        <ele>3.0</ele>
        <time>2019-05-16T14:21:14.930Z</time>
      </trkpt>
      <trkpt lat="39.05430667" lon="-8.90230833">
        <ele>3.0</ele>
        <time>2019-05-16T14:21:15.928Z</time>
      </trkpt>
      <trkpt lat="39.05431167" lon="-8.90219167">
        <ele>3.0</ele>
        <time>2019-05-16T14:21:16.932Z</time>
      </trkpt>
      <trkpt lat="39.05431167" lon="-8.90219167">
        <ele>3.0</ele>
        <time>2019-05-16T14:21:17.914Z</time>
      </trkpt>
      <trkpt lat="39.05434333" lon="-8.90207833">
        <ele>3.0</ele>
        <time>2019-05-16T14:21:18.931Z</time>
      </trkpt>
      <trkpt lat="39.05434333" lon="-8.90207833">
        <ele>3.0</ele>
        <time>2019-05-16T14:21:19.926Z</time>
      </trkpt>
      <trkpt lat="39.0544" lon="-8.90198167">
        <ele>3.0</ele>
        <time>2019-05-16T14:21:20.931Z</time>
      </trkpt>
      <trkpt lat="39.0544" lon="-8.90198167">
        <ele>3.0</ele>
        <time>2019-05-16T14:21:21.909Z</time>
      </trkpt>
      <trkpt lat="39.054455" lon="-8.90190333">
        <ele>3.0</ele>
        <time>2019-05-16T14:21:22.937Z</time>
      </trkpt>
      <trkpt lat="39.054455" lon="-8.90190333">
        <ele>3.0</ele>
        <time>2019-05-16T14:21:23.918Z</time>
      </trkpt>
      <trkpt lat="39.05451333" lon="-8.90183167">
        <ele>3.0</ele>
        <time>2019-05-16T14:21:24.904Z</time>
      </trkpt>
      <trkpt lat="39.05451333" lon="-8.90183167">
        <ele>3.0</ele>
        <time>2019-05-16T14:21:25.930Z</time>
      </trkpt>
      <trkpt lat="39.05458" lon="-8.90177833">
        <ele>2.0</ele>
        <time>2019-05-16T14:21:26.910Z</time>
      </trkpt>
      <trkpt lat="39.05458" lon="-8.90177833">
        <ele>2.0</ele>
        <time>2019-05-16T14:21:27.931Z</time>
      </trkpt>
      <trkpt lat="39.05465" lon="-8.90173167">
        <ele>2.0</ele>
        <time>2019-05-16T14:21:28.917Z</time>
      </trkpt>
      <trkpt lat="39.05465" lon="-8.90173167">
        <ele>2.0</ele>
        <time>2019-05-16T14:21:29.903Z</time>
      </trkpt>
      <trkpt lat="39.054715" lon="-8.90166833">
        <ele>2.0</ele>
        <time>2019-05-16T14:21:30.922Z</time>
      </trkpt>
      <trkpt lat="39.054715" lon="-8.90166833">
        <ele>2.0</ele>
        <time>2019-05-16T14:21:31.902Z</time>
      </trkpt>
      <trkpt lat="39.054775" lon="-8.90160167">
        <ele>2.0</ele>
        <time>2019-05-16T14:21:32.929Z</time>
      </trkpt>
      <trkpt lat="39.054775" lon="-8.90160167">
        <ele>2.0</ele>
        <time>2019-05-16T14:21:33.934Z</time>
      </trkpt>
      <trkpt lat="39.054835" lon="-8.901525">
        <ele>2.0</ele>
        <time>2019-05-16T14:21:34.916Z</time>
      </trkpt>
      <trkpt lat="39.054835" lon="-8.901525">
        <ele>2.0</ele>
        <time>2019-05-16T14:21:35.936Z</time>
      </trkpt>
      <trkpt lat="39.05489167" lon="-8.90144167">
        <ele>2.0</ele>
        <time>2019-05-16T14:21:36.921Z</time>
      </trkpt>
      <trkpt lat="39.05489167" lon="-8.90144167">
        <ele>2.0</ele>
        <time>2019-05-16T14:21:37.898Z</time>
      </trkpt>
      <trkpt lat="39.05494333" lon="-8.90135333">
        <ele>2.0</ele>
        <time>2019-05-16T14:21:38.919Z</time>
      </trkpt>
      <trkpt lat="39.05494333" lon="-8.90135333">
        <ele>2.0</ele>
        <time>2019-05-16T14:21:39.901Z</time>
      </trkpt>
      <trkpt lat="39.05499167" lon="-8.90126">
        <ele>2.0</ele>
        <time>2019-05-16T14:21:40.921Z</time>
      </trkpt>
      <trkpt lat="39.05499167" lon="-8.90126">
        <ele>2.0</ele>
        <time>2019-05-16T14:21:41.929Z</time>
      </trkpt>
      <trkpt lat="39.05504333" lon="-8.90117">
        <ele>2.0</ele>
        <time>2019-05-16T14:21:42.916Z</time>
      </trkpt>
      <trkpt lat="39.05504333" lon="-8.90117">
        <ele>2.0</ele>
        <time>2019-05-16T14:21:43.900Z</time>
      </trkpt>
      <trkpt lat="39.05509333" lon="-8.90107833">
        <ele>2.0</ele>
        <time>2019-05-16T14:21:44.919Z</time>
      </trkpt>
      <trkpt lat="39.05509333" lon="-8.90107833">
        <ele>2.0</ele>
        <time>2019-05-16T14:21:45.933Z</time>
      </trkpt>
      <trkpt lat="39.05514" lon="-8.90098167">
        <ele>2.0</ele>
        <time>2019-05-16T14:21:46.913Z</time>
      </trkpt>
      <trkpt lat="39.05514" lon="-8.90098167">
        <ele>2.0</ele>
        <time>2019-05-16T14:21:47.905Z</time>
      </trkpt>
      <trkpt lat="39.05518833" lon="-8.900885">
        <ele>2.0</ele>
        <time>2019-05-16T14:21:48.935Z</time>
      </trkpt>
      <trkpt lat="39.05518833" lon="-8.900885">
        <ele>2.0</ele>
        <time>2019-05-16T14:21:49.914Z</time>
      </trkpt>
      <trkpt lat="39.05523833" lon="-8.9008">
        <ele>1.0</ele>
        <time>2019-05-16T14:21:50.928Z</time>
      </trkpt>
      <trkpt lat="39.05523833" lon="-8.9008">
        <ele>1.0</ele>
        <time>2019-05-16T14:21:51.914Z</time>
      </trkpt>
      <trkpt lat="39.05528167" lon="-8.90071">
        <ele>1.0</ele>
        <time>2019-05-16T14:21:52.932Z</time>
      </trkpt>
      <trkpt lat="39.05528167" lon="-8.90071">
        <ele>1.0</ele>
        <time>2019-05-16T14:21:53.923Z</time>
      </trkpt>
      <trkpt lat="39.05532667" lon="-8.90062167">
        <ele>1.0</ele>
        <time>2019-05-16T14:21:54.905Z</time>
      </trkpt>
      <trkpt lat="39.05532667" lon="-8.90062167">
        <ele>1.0</ele>
        <time>2019-05-16T14:21:55.923Z</time>
      </trkpt>
      <trkpt lat="39.055375" lon="-8.90053">
        <ele>1.0</ele>
        <time>2019-05-16T14:21:56.897Z</time>
      </trkpt>
      <trkpt lat="39.055375" lon="-8.90053">
        <ele>1.0</ele>
        <time>2019-05-16T14:21:57.913Z</time>
      </trkpt>
      <trkpt lat="39.055425" lon="-8.900435">
        <ele>1.0</ele>
        <time>2019-05-16T14:21:58.899Z</time>
      </trkpt>
      <trkpt lat="39.055425" lon="-8.900435">
        <ele>1.0</ele>
        <time>2019-05-16T14:21:59.932Z</time>
      </trkpt>
      <trkpt lat="39.05547333" lon="-8.90034">
        <ele>1.0</ele>
        <time>2019-05-16T14:22:00.911Z</time>
      </trkpt>
      <trkpt lat="39.05549667" lon="-8.900295">
        <ele>1.0</ele>
        <time>2019-05-16T14:22:01.914Z</time>
      </trkpt>
      <trkpt lat="39.05549667" lon="-8.900295">
        <ele>1.0</ele>
        <time>2019-05-16T14:22:02.933Z</time>
      </trkpt>
      <trkpt lat="39.05553833" lon="-8.90020667">
        <ele>1.0</ele>
        <time>2019-05-16T14:22:03.923Z</time>
      </trkpt>
      <trkpt lat="39.05556" lon="-8.90016167">
        <ele>1.0</ele>
        <time>2019-05-16T14:22:04.924Z</time>
      </trkpt>
      <trkpt lat="39.05556" lon="-8.90016167">
        <ele>1.0</ele>
        <time>2019-05-16T14:22:05.900Z</time>
      </trkpt>
      <trkpt lat="39.05560333" lon="-8.90007167">
        <ele>1.0</ele>
        <time>2019-05-16T14:22:06.925Z</time>
      </trkpt>
      <trkpt lat="39.05560333" lon="-8.90007167">
        <ele>1.0</ele>
        <time>2019-05-16T14:22:07.899Z</time>
      </trkpt>
      <trkpt lat="39.055645" lon="-8.89997833">
        <ele>1.0</ele>
        <time>2019-05-16T14:22:08.921Z</time>
      </trkpt>
      <trkpt lat="39.055645" lon="-8.89997833">
        <ele>1.0</ele>
        <time>2019-05-16T14:22:09.913Z</time>
      </trkpt>
      <trkpt lat="39.05568833" lon="-8.89988">
        <ele>1.0</ele>
        <time>2019-05-16T14:22:10.901Z</time>
      </trkpt>
      <trkpt lat="39.05568833" lon="-8.89988">
        <ele>1.0</ele>
        <time>2019-05-16T14:22:11.919Z</time>
      </trkpt>
      <trkpt lat="39.05572833" lon="-8.89978333">
        <ele>1.0</ele>
        <time>2019-05-16T14:22:12.911Z</time>
      </trkpt>
      <trkpt lat="39.05572833" lon="-8.89978333">
        <ele>1.0</ele>
        <time>2019-05-16T14:22:13.913Z</time>
      </trkpt>
      <trkpt lat="39.05576833" lon="-8.89969">
        <ele>1.0</ele>
        <time>2019-05-16T14:22:14.897Z</time>
      </trkpt>
      <trkpt lat="39.05576833" lon="-8.89969">
        <ele>1.0</ele>
        <time>2019-05-16T14:22:15.920Z</time>
      </trkpt>
      <trkpt lat="39.05580667" lon="-8.89959667">
        <ele>1.0</ele>
        <time>2019-05-16T14:22:16.900Z</time>
      </trkpt>
      <trkpt lat="39.05580667" lon="-8.89959667">
        <ele>1.0</ele>
        <time>2019-05-16T14:22:17.933Z</time>
      </trkpt>
      <trkpt lat="39.05584667" lon="-8.8995">
        <ele>1.0</ele>
        <time>2019-05-16T14:22:18.905Z</time>
      </trkpt>
      <trkpt lat="39.05584667" lon="-8.8995">
        <ele>1.0</ele>
        <time>2019-05-16T14:22:19.922Z</time>
      </trkpt>
      <trkpt lat="39.05588333" lon="-8.8994">
        <ele>1.0</ele>
        <time>2019-05-16T14:22:20.899Z</time>
      </trkpt>
      <trkpt lat="39.05588333" lon="-8.8994">
        <ele>1.0</ele>
        <time>2019-05-16T14:22:21.908Z</time>
      </trkpt>
      <trkpt lat="39.05592" lon="-8.89929833">
        <ele>1.0</ele>
        <time>2019-05-16T14:22:22.898Z</time>
      </trkpt>
      <trkpt lat="39.05592" lon="-8.89929833">
        <ele>1.0</ele>
        <time>2019-05-16T14:22:23.930Z</time>
      </trkpt>
      <trkpt lat="39.05595833" lon="-8.899195">
        <ele>1.0</ele>
        <time>2019-05-16T14:22:24.910Z</time>
      </trkpt>
      <trkpt lat="39.05595833" lon="-8.899195">
        <ele>1.0</ele>
        <time>2019-05-16T14:22:25.913Z</time>
      </trkpt>
      <trkpt lat="39.05599333" lon="-8.89909">
        <ele>1.0</ele>
        <time>2019-05-16T14:22:26.910Z</time>
      </trkpt>
      <trkpt lat="39.05599333" lon="-8.89909">
        <ele>1.0</ele>
        <time>2019-05-16T14:22:27.926Z</time>
      </trkpt>
      <trkpt lat="39.05602667" lon="-8.89898333">
        <ele>1.0</ele>
        <time>2019-05-16T14:22:28.904Z</time>
      </trkpt>
      <trkpt lat="39.056045" lon="-8.89893">
        <ele>1.0</ele>
        <time>2019-05-16T14:22:29.941Z</time>
      </trkpt>
      <trkpt lat="39.056045" lon="-8.89893">
        <ele>1.0</ele>
        <time>2019-05-16T14:22:30.933Z</time>
      </trkpt>
      <trkpt lat="39.05607833" lon="-8.89882167">
        <ele>1.0</ele>
        <time>2019-05-16T14:22:31.931Z</time>
      </trkpt>
      <trkpt lat="39.05609667" lon="-8.89876667">
        <ele>1.0</ele>
        <time>2019-05-16T14:22:32.905Z</time>
      </trkpt>
      <trkpt lat="39.05609667" lon="-8.89876667">
        <ele>1.0</ele>
        <time>2019-05-16T14:22:33.913Z</time>
      </trkpt>
      <trkpt lat="39.05613333" lon="-8.89865833">
        <ele>1.0</ele>
        <time>2019-05-16T14:22:34.901Z</time>
      </trkpt>
      <trkpt lat="39.05613333" lon="-8.89865833">
        <ele>1.0</ele>
        <time>2019-05-16T14:22:35.908Z</time>
      </trkpt>
      <trkpt lat="39.05617" lon="-8.89854833">
        <ele>1.0</ele>
        <time>2019-05-16T14:22:36.912Z</time>
      </trkpt>
      <trkpt lat="39.05617" lon="-8.89854833">
        <ele>1.0</ele>
        <time>2019-05-16T14:22:37.915Z</time>
      </trkpt>
      <trkpt lat="39.05620833" lon="-8.89843667">
        <ele>1.0</ele>
        <time>2019-05-16T14:22:38.935Z</time>
      </trkpt>
      <trkpt lat="39.05620833" lon="-8.89843667">
        <ele>1.0</ele>
        <time>2019-05-16T14:22:39.921Z</time>
      </trkpt>
      <trkpt lat="39.05624667" lon="-8.898325">
        <ele>1.0</ele>
        <time>2019-05-16T14:22:40.905Z</time>
      </trkpt>
      <trkpt lat="39.05624667" lon="-8.898325">
        <ele>1.0</ele>
        <time>2019-05-16T14:22:41.933Z</time>
      </trkpt>
      <trkpt lat="39.056285" lon="-8.89821">
        <ele>1.0</ele>
        <time>2019-05-16T14:22:42.912Z</time>
      </trkpt>
      <trkpt lat="39.056285" lon="-8.89821">
        <ele>1.0</ele>
        <time>2019-05-16T14:22:43.907Z</time>
      </trkpt>
      <trkpt lat="39.05632" lon="-8.898095">
        <ele>1.0</ele>
        <time>2019-05-16T14:22:44.929Z</time>
      </trkpt>
      <trkpt lat="39.05632" lon="-8.898095">
        <ele>1.0</ele>
        <time>2019-05-16T14:22:45.922Z</time>
      </trkpt>
      <trkpt lat="39.05635667" lon="-8.89798333">
        <ele>1.0</ele>
        <time>2019-05-16T14:22:46.940Z</time>
      </trkpt>
      <trkpt lat="39.05635667" lon="-8.89798333">
        <ele>1.0</ele>
        <time>2019-05-16T14:22:47.936Z</time>
      </trkpt>
      <trkpt lat="39.05639167" lon="-8.89787167">
        <ele>1.0</ele>
        <time>2019-05-16T14:22:48.911Z</time>
      </trkpt>
      <trkpt lat="39.05641" lon="-8.89781833">
        <ele>1.0</ele>
        <time>2019-05-16T14:22:49.915Z</time>
      </trkpt>
      <trkpt lat="39.05642833" lon="-8.89776333">
        <ele>2.0</ele>
        <time>2019-05-16T14:22:50.913Z</time>
      </trkpt>
      <trkpt lat="39.05642833" lon="-8.89776333">
        <ele>2.0</ele>
        <time>2019-05-16T14:22:51.926Z</time>
      </trkpt>
      <trkpt lat="39.05646833" lon="-8.897655">
        <ele>2.0</ele>
        <time>2019-05-16T14:22:52.905Z</time>
      </trkpt>
      <trkpt lat="39.05646833" lon="-8.897655">
        <ele>2.0</ele>
        <time>2019-05-16T14:22:53.923Z</time>
      </trkpt>
      <trkpt lat="39.05650667" lon="-8.897545">
        <ele>2.0</ele>
        <time>2019-05-16T14:22:54.902Z</time>
      </trkpt>
      <trkpt lat="39.05650667" lon="-8.897545">
        <ele>2.0</ele>
        <time>2019-05-16T14:22:55.903Z</time>
      </trkpt>
      <trkpt lat="39.056545" lon="-8.89743167">
        <ele>2.0</ele>
        <time>2019-05-16T14:22:56.900Z</time>
      </trkpt>
      <trkpt lat="39.056545" lon="-8.89743167">
        <ele>2.0</ele>
        <time>2019-05-16T14:22:57.921Z</time>
      </trkpt>
      <trkpt lat="39.05658167" lon="-8.89731667">
        <ele>2.0</ele>
        <time>2019-05-16T14:22:58.909Z</time>
      </trkpt>
      <trkpt lat="39.05658167" lon="-8.89731667">
        <ele>2.0</ele>
        <time>2019-05-16T14:22:59.900Z</time>
      </trkpt>
      <trkpt lat="39.05662" lon="-8.8972">
        <ele>1.0</ele>
        <time>2019-05-16T14:23:00.917Z</time>
      </trkpt>
      <trkpt lat="39.05662" lon="-8.8972">
        <ele>1.0</ele>
        <time>2019-05-16T14:23:01.935Z</time>
      </trkpt>
      <trkpt lat="39.05665833" lon="-8.897085">
        <ele>1.0</ele>
        <time>2019-05-16T14:23:02.916Z</time>
      </trkpt>
      <trkpt lat="39.05665833" lon="-8.897085">
        <ele>1.0</ele>
        <time>2019-05-16T14:23:03.923Z</time>
      </trkpt>
      <trkpt lat="39.05669833" lon="-8.89697167">
        <ele>1.0</ele>
        <time>2019-05-16T14:23:04.916Z</time>
      </trkpt>
      <trkpt lat="39.05669833" lon="-8.89697167">
        <ele>1.0</ele>
        <time>2019-05-16T14:23:05.905Z</time>
      </trkpt>
      <trkpt lat="39.05673833" lon="-8.89685667">
        <ele>2.0</ele>
        <time>2019-05-16T14:23:06.940Z</time>
      </trkpt>
      <trkpt lat="39.05673833" lon="-8.89685667">
        <ele>2.0</ele>
        <time>2019-05-16T14:23:07.903Z</time>
      </trkpt>
      <trkpt lat="39.05677667" lon="-8.89673667">
        <ele>2.0</ele>
        <time>2019-05-16T14:23:08.897Z</time>
      </trkpt>
      <trkpt lat="39.05677667" lon="-8.89673667">
        <ele>2.0</ele>
        <time>2019-05-16T14:23:09.910Z</time>
      </trkpt>
      <trkpt lat="39.056815" lon="-8.896615">
        <ele>1.0</ele>
        <time>2019-05-16T14:23:10.931Z</time>
      </trkpt>
      <trkpt lat="39.056815" lon="-8.896615">
        <ele>1.0</ele>
        <time>2019-05-16T14:23:11.899Z</time>
      </trkpt>
      <trkpt lat="39.05685167" lon="-8.8965">
        <ele>1.0</ele>
        <time>2019-05-16T14:23:12.929Z</time>
      </trkpt>
      <trkpt lat="39.05685167" lon="-8.8965">
        <ele>1.0</ele>
        <time>2019-05-16T14:23:13.903Z</time>
      </trkpt>
      <trkpt lat="39.05688833" lon="-8.89639">
        <ele>1.0</ele>
        <time>2019-05-16T14:23:14.897Z</time>
      </trkpt>
      <trkpt lat="39.05688833" lon="-8.89639">
        <ele>1.0</ele>
        <time>2019-05-16T14:23:15.915Z</time>
      </trkpt>
      <trkpt lat="39.05692167" lon="-8.89628333">
        <ele>1.0</ele>
        <time>2019-05-16T14:23:16.935Z</time>
      </trkpt>
      <trkpt lat="39.05692167" lon="-8.89628333">
        <ele>1.0</ele>
        <time>2019-05-16T14:23:17.914Z</time>
      </trkpt>
      <trkpt lat="39.05695833" lon="-8.89617667">
        <ele>1.0</ele>
        <time>2019-05-16T14:23:18.909Z</time>
      </trkpt>
      <trkpt lat="39.05695833" lon="-8.89617667">
        <ele>1.0</ele>
        <time>2019-05-16T14:23:19.910Z</time>
      </trkpt>
      <trkpt lat="39.05699333" lon="-8.89607">
        <ele>1.0</ele>
        <time>2019-05-16T14:23:20.931Z</time>
      </trkpt>
      <trkpt lat="39.05699333" lon="-8.89607">
        <ele>1.0</ele>
        <time>2019-05-16T14:23:21.916Z</time>
      </trkpt>
      <trkpt lat="39.05703" lon="-8.89596333">
        <ele>1.0</ele>
        <time>2019-05-16T14:23:22.936Z</time>
      </trkpt>
      <trkpt lat="39.05703" lon="-8.89596333">
        <ele>1.0</ele>
        <time>2019-05-16T14:23:23.915Z</time>
      </trkpt>
      <trkpt lat="39.057065" lon="-8.895855">
        <ele>1.0</ele>
        <time>2019-05-16T14:23:24.905Z</time>
      </trkpt>
      <trkpt lat="39.057065" lon="-8.895855">
        <ele>1.0</ele>
        <time>2019-05-16T14:23:25.930Z</time>
      </trkpt>
      <trkpt lat="39.05710167" lon="-8.89574833">
        <ele>0.0</ele>
        <time>2019-05-16T14:23:26.905Z</time>
      </trkpt>
      <trkpt lat="39.05710167" lon="-8.89574833">
        <ele>0.0</ele>
        <time>2019-05-16T14:23:27.901Z</time>
      </trkpt>
      <trkpt lat="39.057135" lon="-8.89564167">
        <ele>0.0</ele>
        <time>2019-05-16T14:23:28.905Z</time>
      </trkpt>
      <trkpt lat="39.057135" lon="-8.89564167">
        <ele>0.0</ele>
        <time>2019-05-16T14:23:29.904Z</time>
      </trkpt>
      <trkpt lat="39.05717" lon="-8.89553667">
        <ele>0.0</ele>
        <time>2019-05-16T14:23:30.929Z</time>
      </trkpt>
      <trkpt lat="39.05717" lon="-8.89553667">
        <ele>0.0</ele>
        <time>2019-05-16T14:23:31.904Z</time>
      </trkpt>
      <trkpt lat="39.057205" lon="-8.89543">
        <ele>0.0</ele>
        <time>2019-05-16T14:23:32.927Z</time>
      </trkpt>
      <trkpt lat="39.057205" lon="-8.89543">
        <ele>0.0</ele>
        <time>2019-05-16T14:23:33.928Z</time>
      </trkpt>
      <trkpt lat="39.05724" lon="-8.895325">
        <ele>0.0</ele>
        <time>2019-05-16T14:23:34.908Z</time>
      </trkpt>
      <trkpt lat="39.05724" lon="-8.895325">
        <ele>0.0</ele>
        <time>2019-05-16T14:23:35.936Z</time>
      </trkpt>
      <trkpt lat="39.05727667" lon="-8.89521667">
        <ele>0.0</ele>
        <time>2019-05-16T14:23:36.917Z</time>
      </trkpt>
      <trkpt lat="39.057295" lon="-8.89516167">
        <ele>0.0</ele>
        <time>2019-05-16T14:23:37.901Z</time>
      </trkpt>
      <trkpt lat="39.05731167" lon="-8.89510667">
        <ele>0.0</ele>
        <time>2019-05-16T14:23:38.932Z</time>
      </trkpt>
      <trkpt lat="39.05731167" lon="-8.89510667">
        <ele>0.0</ele>
        <time>2019-05-16T14:23:39.923Z</time>
      </trkpt>
      <trkpt lat="39.05734833" lon="-8.89500333">
        <ele>0.0</ele>
        <time>2019-05-16T14:23:40.907Z</time>
      </trkpt>
      <trkpt lat="39.05734833" lon="-8.89500333">
        <ele>0.0</ele>
        <time>2019-05-16T14:23:41.912Z</time>
      </trkpt>
      <trkpt lat="39.05738167" lon="-8.89490333">
        <ele>0.0</ele>
        <time>2019-05-16T14:23:42.933Z</time>
      </trkpt>
      <trkpt lat="39.05738167" lon="-8.89490333">
        <ele>0.0</ele>
        <time>2019-05-16T14:23:43.911Z</time>
      </trkpt>
      <trkpt lat="39.05741" lon="-8.89481333">
        <ele>0.0</ele>
        <time>2019-05-16T14:23:44.931Z</time>
      </trkpt>
      <trkpt lat="39.05741" lon="-8.89481333">
        <ele>0.0</ele>
        <time>2019-05-16T14:23:45.901Z</time>
      </trkpt>
      <trkpt lat="39.057435" lon="-8.89474">
        <ele>0.0</ele>
        <time>2019-05-16T14:23:46.901Z</time>
      </trkpt>
      <trkpt lat="39.057435" lon="-8.89474">
        <ele>0.0</ele>
        <time>2019-05-16T14:23:47.924Z</time>
      </trkpt>
      <trkpt lat="39.05745833" lon="-8.89467667">
        <ele>0.0</ele>
        <time>2019-05-16T14:23:48.910Z</time>
      </trkpt>
      <trkpt lat="39.05745833" lon="-8.89467667">
        <ele>0.0</ele>
        <time>2019-05-16T14:23:49.913Z</time>
      </trkpt>
      <trkpt lat="39.05748" lon="-8.89461333">
        <ele>0.0</ele>
        <time>2019-05-16T14:23:50.899Z</time>
      </trkpt>
      <trkpt lat="39.05748" lon="-8.89461333">
        <ele>0.0</ele>
        <time>2019-05-16T14:23:51.911Z</time>
      </trkpt>
      <trkpt lat="39.05750333" lon="-8.89455">
        <ele>0.0</ele>
        <time>2019-05-16T14:23:52.897Z</time>
      </trkpt>
      <trkpt lat="39.05750333" lon="-8.89455">
        <ele>0.0</ele>
        <time>2019-05-16T14:23:53.919Z</time>
      </trkpt>
      <trkpt lat="39.05753" lon="-8.89448667">
        <ele>0.0</ele>
        <time>2019-05-16T14:23:54.914Z</time>
      </trkpt>
      <trkpt lat="39.05753" lon="-8.89448667">
        <ele>0.0</ele>
        <time>2019-05-16T14:23:55.935Z</time>
      </trkpt>
      <trkpt lat="39.05755167" lon="-8.89442167">
        <ele>0.0</ele>
        <time>2019-05-16T14:23:56.915Z</time>
      </trkpt>
      <trkpt lat="39.05755167" lon="-8.89442167">
        <ele>0.0</ele>
        <time>2019-05-16T14:23:57.923Z</time>
      </trkpt>
      <trkpt lat="39.05756667" lon="-8.89435333">
        <ele>0.0</ele>
        <time>2019-05-16T14:23:58.901Z</time>
      </trkpt>
      <trkpt lat="39.05756667" lon="-8.89435333">
        <ele>0.0</ele>
        <time>2019-05-16T14:23:59.933Z</time>
      </trkpt>
      <trkpt lat="39.05758" lon="-8.89429167">
        <ele>0.0</ele>
        <time>2019-05-16T14:24:00.911Z</time>
      </trkpt>
      <trkpt lat="39.05758" lon="-8.89429167">
        <ele>0.0</ele>
        <time>2019-05-16T14:24:01.903Z</time>
      </trkpt>
      <trkpt lat="39.057585" lon="-8.89422833">
        <ele>-1.0</ele>
        <time>2019-05-16T14:24:02.936Z</time>
      </trkpt>
      <trkpt lat="39.057585" lon="-8.89422833">
        <ele>-1.0</ele>
        <time>2019-05-16T14:24:03.927Z</time>
      </trkpt>
      <trkpt lat="39.05758" lon="-8.894165">
        <ele>-1.0</ele>
        <time>2019-05-16T14:24:04.940Z</time>
      </trkpt>
      <trkpt lat="39.05758" lon="-8.894165">
        <ele>-1.0</ele>
        <time>2019-05-16T14:24:05.915Z</time>
      </trkpt>
      <trkpt lat="39.057565" lon="-8.89410667">
        <ele>-1.0</ele>
        <time>2019-05-16T14:24:06.897Z</time>
      </trkpt>
      <trkpt lat="39.057565" lon="-8.89410667">
        <ele>-1.0</ele>
        <time>2019-05-16T14:24:07.903Z</time>
      </trkpt>
      <trkpt lat="39.05756" lon="-8.89403667">
        <ele>-1.0</ele>
        <time>2019-05-16T14:24:08.922Z</time>
      </trkpt>
      <trkpt lat="39.05756" lon="-8.89403667">
        <ele>-1.0</ele>
        <time>2019-05-16T14:24:09.926Z</time>
      </trkpt>
      <trkpt lat="39.057575" lon="-8.89396667">
        <ele>-1.0</ele>
        <time>2019-05-16T14:24:10.911Z</time>
      </trkpt>
      <trkpt lat="39.057575" lon="-8.89396667">
        <ele>-1.0</ele>
        <time>2019-05-16T14:24:11.913Z</time>
      </trkpt>
      <trkpt lat="39.05760333" lon="-8.89389833">
        <ele>-1.0</ele>
        <time>2019-05-16T14:24:12.941Z</time>
      </trkpt>
      <trkpt lat="39.05760333" lon="-8.89389833">
        <ele>-1.0</ele>
        <time>2019-05-16T14:24:13.913Z</time>
      </trkpt>
      <trkpt lat="39.05764833" lon="-8.89383333">
        <ele>-1.0</ele>
        <time>2019-05-16T14:24:14.936Z</time>
      </trkpt>
      <trkpt lat="39.05764833" lon="-8.89383333">
        <ele>-1.0</ele>
        <time>2019-05-16T14:24:15.898Z</time>
      </trkpt>
      <trkpt lat="39.05770333" lon="-8.89377667">
        <ele>-1.0</ele>
        <time>2019-05-16T14:24:16.913Z</time>
      </trkpt>
      <trkpt lat="39.05770333" lon="-8.89377667">
        <ele>-1.0</ele>
        <time>2019-05-16T14:24:17.903Z</time>
      </trkpt>
      <trkpt lat="39.05776" lon="-8.893705">
        <ele>-1.0</ele>
        <time>2019-05-16T14:24:18.933Z</time>
      </trkpt>
      <trkpt lat="39.05776" lon="-8.893705">
        <ele>-1.0</ele>
        <time>2019-05-16T14:24:19.901Z</time>
      </trkpt>
      <trkpt lat="39.05780833" lon="-8.89359833">
        <ele>-1.0</ele>
        <time>2019-05-16T14:24:20.969Z</time>
      </trkpt>
      <trkpt lat="39.05780833" lon="-8.89359833">
        <ele>-1.0</ele>
        <time>2019-05-16T14:24:21.907Z</time>
      </trkpt>
      <trkpt lat="39.05784333" lon="-8.89349">
        <ele>-1.0</ele>
        <time>2019-05-16T14:24:22.898Z</time>
      </trkpt>
      <trkpt lat="39.05786" lon="-8.89343833">
        <ele>-1.0</ele>
        <time>2019-05-16T14:24:23.907Z</time>
      </trkpt>
      <trkpt lat="39.05786" lon="-8.89343833">
        <ele>-1.0</ele>
        <time>2019-05-16T14:24:24.933Z</time>
      </trkpt>
      <trkpt lat="39.057895" lon="-8.89333833">
        <ele>-1.0</ele>
        <time>2019-05-16T14:24:25.913Z</time>
      </trkpt>
      <trkpt lat="39.05791167" lon="-8.89329">
        <ele>-1.0</ele>
        <time>2019-05-16T14:24:26.937Z</time>
      </trkpt>
      <trkpt lat="39.05791167" lon="-8.89329">
        <ele>-1.0</ele>
        <time>2019-05-16T14:24:27.925Z</time>
      </trkpt>
      <trkpt lat="39.057945" lon="-8.89319167">
        <ele>-1.0</ele>
        <time>2019-05-16T14:24:28.929Z</time>
      </trkpt>
      <trkpt lat="39.057945" lon="-8.89319167">
        <ele>-1.0</ele>
        <time>2019-05-16T14:24:29.933Z</time>
      </trkpt>
      <trkpt lat="39.05797667" lon="-8.89309167">
        <ele>-1.0</ele>
        <time>2019-05-16T14:24:30.915Z</time>
      </trkpt>
      <trkpt lat="39.05797667" lon="-8.89309167">
        <ele>-1.0</ele>
        <time>2019-05-16T14:24:31.903Z</time>
      </trkpt>
      <trkpt lat="39.05801167" lon="-8.892985">
        <ele>-2.0</ele>
        <time>2019-05-16T14:24:32.906Z</time>
      </trkpt>
      <trkpt lat="39.05801167" lon="-8.892985">
        <ele>-2.0</ele>
        <time>2019-05-16T14:24:33.933Z</time>
      </trkpt>
      <trkpt lat="39.05804667" lon="-8.89287833">
        <ele>-2.0</ele>
        <time>2019-05-16T14:24:34.926Z</time>
      </trkpt>
      <trkpt lat="39.05804667" lon="-8.89287833">
        <ele>-2.0</ele>
        <time>2019-05-16T14:24:35.932Z</time>
      </trkpt>
      <trkpt lat="39.05808167" lon="-8.89276833">
        <ele>-2.0</ele>
        <time>2019-05-16T14:24:36.909Z</time>
      </trkpt>
      <trkpt lat="39.05808167" lon="-8.89276833">
        <ele>-2.0</ele>
        <time>2019-05-16T14:24:37.903Z</time>
      </trkpt>
      <trkpt lat="39.05812" lon="-8.89266167">
        <ele>-2.0</ele>
        <time>2019-05-16T14:24:38.919Z</time>
      </trkpt>
      <trkpt lat="39.05812" lon="-8.89266167">
        <ele>-2.0</ele>
        <time>2019-05-16T14:24:39.903Z</time>
      </trkpt>
      <trkpt lat="39.05815833" lon="-8.89255667">
        <ele>-2.0</ele>
        <time>2019-05-16T14:24:40.928Z</time>
      </trkpt>
      <trkpt lat="39.05815833" lon="-8.89255667">
        <ele>-2.0</ele>
        <time>2019-05-16T14:24:41.933Z</time>
      </trkpt>
      <trkpt lat="39.05819333" lon="-8.89245167">
        <ele>-2.0</ele>
        <time>2019-05-16T14:24:42.912Z</time>
      </trkpt>
      <trkpt lat="39.05819333" lon="-8.89245167">
        <ele>-2.0</ele>
        <time>2019-05-16T14:24:43.900Z</time>
      </trkpt>
      <trkpt lat="39.05823" lon="-8.89234667">
        <ele>-2.0</ele>
        <time>2019-05-16T14:24:44.934Z</time>
      </trkpt>
      <trkpt lat="39.05823" lon="-8.89234667">
        <ele>-2.0</ele>
        <time>2019-05-16T14:24:45.903Z</time>
      </trkpt>
      <trkpt lat="39.05826333" lon="-8.89223833">
        <ele>-2.0</ele>
        <time>2019-05-16T14:24:46.923Z</time>
      </trkpt>
      <trkpt lat="39.05826333" lon="-8.89223833">
        <ele>-2.0</ele>
        <time>2019-05-16T14:24:47.919Z</time>
      </trkpt>
      <trkpt lat="39.058305" lon="-8.89213833">
        <ele>-1.0</ele>
        <time>2019-05-16T14:24:48.902Z</time>
      </trkpt>
      <trkpt lat="39.058305" lon="-8.89213833">
        <ele>-1.0</ele>
        <time>2019-05-16T14:24:49.925Z</time>
      </trkpt>
      <trkpt lat="39.05834167" lon="-8.89203167">
        <ele>-1.0</ele>
        <time>2019-05-16T14:24:50.915Z</time>
      </trkpt>
      <trkpt lat="39.05834167" lon="-8.89203167">
        <ele>-1.0</ele>
        <time>2019-05-16T14:24:51.933Z</time>
      </trkpt>
      <trkpt lat="39.05837833" lon="-8.89192333">
        <ele>-1.0</ele>
        <time>2019-05-16T14:24:52.914Z</time>
      </trkpt>
      <trkpt lat="39.05837833" lon="-8.89192333">
        <ele>-1.0</ele>
        <time>2019-05-16T14:24:53.931Z</time>
      </trkpt>
      <trkpt lat="39.058415" lon="-8.891815">
        <ele>0.0</ele>
        <time>2019-05-16T14:24:54.911Z</time>
      </trkpt>
      <trkpt lat="39.058415" lon="-8.891815">
        <ele>0.0</ele>
        <time>2019-05-16T14:24:55.910Z</time>
      </trkpt>
      <trkpt lat="39.05845333" lon="-8.89171">
        <ele>0.0</ele>
        <time>2019-05-16T14:24:56.931Z</time>
      </trkpt>
      <trkpt lat="39.05845333" lon="-8.89171">
        <ele>0.0</ele>
        <time>2019-05-16T14:24:57.914Z</time>
      </trkpt>
      <trkpt lat="39.05848667" lon="-8.89160833">
        <ele>0.0</ele>
        <time>2019-05-16T14:24:58.934Z</time>
      </trkpt>
      <trkpt lat="39.05848667" lon="-8.89160833">
        <ele>0.0</ele>
        <time>2019-05-16T14:24:59.917Z</time>
      </trkpt>
      <trkpt lat="39.05852" lon="-8.891515">
        <ele>-1.0</ele>
        <time>2019-05-16T14:25:00.909Z</time>
      </trkpt>
      <trkpt lat="39.05852" lon="-8.891515">
        <ele>-1.0</ele>
        <time>2019-05-16T14:25:01.932Z</time>
      </trkpt>
      <trkpt lat="39.05855167" lon="-8.89141333">
        <ele>-1.0</ele>
        <time>2019-05-16T14:25:02.916Z</time>
      </trkpt>
      <trkpt lat="39.05855167" lon="-8.89141333">
        <ele>-1.0</ele>
        <time>2019-05-16T14:25:03.913Z</time>
      </trkpt>
      <trkpt lat="39.05858667" lon="-8.89129667">
        <ele>-1.0</ele>
        <time>2019-05-16T14:25:04.927Z</time>
      </trkpt>
      <trkpt lat="39.05858667" lon="-8.89129667">
        <ele>-1.0</ele>
        <time>2019-05-16T14:25:05.919Z</time>
      </trkpt>
      <trkpt lat="39.05862833" lon="-8.89117833">
        <ele>-1.0</ele>
        <time>2019-05-16T14:25:06.907Z</time>
      </trkpt>
      <trkpt lat="39.05862833" lon="-8.89117833">
        <ele>-1.0</ele>
        <time>2019-05-16T14:25:07.903Z</time>
      </trkpt>
      <trkpt lat="39.058665" lon="-8.89105833">
        <ele>-1.0</ele>
        <time>2019-05-16T14:25:08.917Z</time>
      </trkpt>
      <trkpt lat="39.058665" lon="-8.89105833">
        <ele>-1.0</ele>
        <time>2019-05-16T14:25:09.923Z</time>
      </trkpt>
      <trkpt lat="39.05870333" lon="-8.89095167">
        <ele>-1.0</ele>
        <time>2019-05-16T14:25:10.908Z</time>
      </trkpt>
      <trkpt lat="39.05870333" lon="-8.89095167">
        <ele>-1.0</ele>
        <time>2019-05-16T14:25:11.904Z</time>
      </trkpt>
      <trkpt lat="39.05874" lon="-8.89084833">
        <ele>0.0</ele>
        <time>2019-05-16T14:25:12.923Z</time>
      </trkpt>
      <trkpt lat="39.05874" lon="-8.89084833">
        <ele>0.0</ele>
        <time>2019-05-16T14:25:13.933Z</time>
      </trkpt>
      <trkpt lat="39.05877333" lon="-8.89075">
        <ele>0.0</ele>
        <time>2019-05-16T14:25:14.918Z</time>
      </trkpt>
      <trkpt lat="39.05877333" lon="-8.89075">
        <ele>0.0</ele>
        <time>2019-05-16T14:25:15.908Z</time>
      </trkpt>
      <trkpt lat="39.05877" lon="-8.89065833">
        <ele>0.0</ele>
        <time>2019-05-16T14:25:16.901Z</time>
      </trkpt>
      <trkpt lat="39.05877" lon="-8.89065833">
        <ele>0.0</ele>
        <time>2019-05-16T14:25:17.920Z</time>
      </trkpt>
      <trkpt lat="39.05875" lon="-8.890575">
        <ele>0.0</ele>
        <time>2019-05-16T14:25:18.901Z</time>
      </trkpt>
      <trkpt lat="39.05875" lon="-8.890575">
        <ele>0.0</ele>
        <time>2019-05-16T14:25:19.898Z</time>
      </trkpt>
      <trkpt lat="39.05874667" lon="-8.89048833">
        <ele>0.0</ele>
        <time>2019-05-16T14:25:20.904Z</time>
      </trkpt>
      <trkpt lat="39.05874667" lon="-8.89048833">
        <ele>0.0</ele>
        <time>2019-05-16T14:25:21.913Z</time>
      </trkpt>
      <trkpt lat="39.05876333" lon="-8.89041333">
        <ele>-1.0</ele>
        <time>2019-05-16T14:25:22.904Z</time>
      </trkpt>
      <trkpt lat="39.05876333" lon="-8.89041333">
        <ele>-1.0</ele>
        <time>2019-05-16T14:25:23.936Z</time>
      </trkpt>
      <trkpt lat="39.05878167" lon="-8.89035">
        <ele>-1.0</ele>
        <time>2019-05-16T14:25:24.911Z</time>
      </trkpt>
      <trkpt lat="39.05878167" lon="-8.89035">
        <ele>-1.0</ele>
        <time>2019-05-16T14:25:25.935Z</time>
      </trkpt>
      <trkpt lat="39.05878833" lon="-8.89031333">
        <ele>0.0</ele>
        <time>2019-05-16T14:25:26.912Z</time>
      </trkpt>
      <trkpt lat="39.05878833" lon="-8.89031333">
        <ele>0.0</ele>
        <time>2019-05-16T14:25:27.934Z</time>
      </trkpt>
      <trkpt lat="39.05879333" lon="-8.89030667">
        <ele>0.0</ele>
        <time>2019-05-16T14:25:28.910Z</time>
      </trkpt>
      <trkpt lat="39.05879333" lon="-8.89030667">
        <ele>0.0</ele>
        <time>2019-05-16T14:25:29.898Z</time>
      </trkpt>
      <trkpt lat="39.05879667" lon="-8.89030333">
        <ele>0.0</ele>
        <time>2019-05-16T14:25:30.913Z</time>
      </trkpt>
      <trkpt lat="39.05879667" lon="-8.89030333">
        <ele>0.0</ele>
        <time>2019-05-16T14:25:31.921Z</time>
      </trkpt>
      <trkpt lat="39.05879667" lon="-8.89030333">
        <ele>0.0</ele>
        <time>2019-05-16T14:25:32.927Z</time>
      </trkpt>
      <trkpt lat="39.05879667" lon="-8.89030333">
        <ele>0.0</ele>
        <time>2019-05-16T14:25:33.933Z</time>
      </trkpt>
      <trkpt lat="39.05879667" lon="-8.89030333">
        <ele>0.0</ele>
        <time>2019-05-16T14:25:34.924Z</time>
      </trkpt>
      <trkpt lat="39.05879667" lon="-8.89030333">
        <ele>0.0</ele>
        <time>2019-05-16T14:25:35.919Z</time>
      </trkpt>
      <trkpt lat="39.05879667" lon="-8.89030333">
        <ele>0.0</ele>
        <time>2019-05-16T14:25:36.923Z</time>
      </trkpt>
      <trkpt lat="39.05879667" lon="-8.89030333">
        <ele>0.0</ele>
        <time>2019-05-16T14:25:37.919Z</time>
      </trkpt>
      <trkpt lat="39.05879667" lon="-8.89030333">
        <ele>0.0</ele>
        <time>2019-05-16T14:25:38.926Z</time>
      </trkpt>
      <trkpt lat="39.05879667" lon="-8.89030333">
        <ele>0.0</ele>
        <time>2019-05-16T14:25:39.919Z</time>
      </trkpt>
      <trkpt lat="39.05879667" lon="-8.89030333">
        <ele>0.0</ele>
        <time>2019-05-16T14:25:40.904Z</time>
      </trkpt>
      <trkpt lat="39.05879667" lon="-8.89030333">
        <ele>0.0</ele>
        <time>2019-05-16T14:25:41.930Z</time>
      </trkpt>
      <trkpt lat="39.05879667" lon="-8.89030333">
        <ele>0.0</ele>
        <time>2019-05-16T14:25:42.921Z</time>
      </trkpt>
      <trkpt lat="39.05879667" lon="-8.89030333">
        <ele>0.0</ele>
        <time>2019-05-16T14:25:43.921Z</time>
      </trkpt>
      <trkpt lat="39.05879667" lon="-8.89030333">
        <ele>0.0</ele>
        <time>2019-05-16T14:25:44.926Z</time>
      </trkpt>
      <trkpt lat="39.05879667" lon="-8.89030333">
        <ele>0.0</ele>
        <time>2019-05-16T14:25:45.919Z</time>
      </trkpt>
      <trkpt lat="39.05879667" lon="-8.89030333">
        <ele>0.0</ele>
        <time>2019-05-16T14:25:46.924Z</time>
      </trkpt>
      <trkpt lat="39.05879667" lon="-8.89030333">
        <ele>0.0</ele>
        <time>2019-05-16T14:25:47.916Z</time>
      </trkpt>
      <trkpt lat="39.05879667" lon="-8.89030333">
        <ele>0.0</ele>
        <time>2019-05-16T14:25:48.923Z</time>
      </trkpt>
      <trkpt lat="39.05879667" lon="-8.89030333">
        <ele>0.0</ele>
        <time>2019-05-16T14:25:49.919Z</time>
      </trkpt>
      <trkpt lat="39.05879667" lon="-8.89030333">
        <ele>0.0</ele>
        <time>2019-05-16T14:25:50.928Z</time>
      </trkpt>
      <trkpt lat="39.05879667" lon="-8.89030333">
        <ele>0.0</ele>
        <time>2019-05-16T14:25:51.918Z</time>
      </trkpt>
      <trkpt lat="39.05879667" lon="-8.89030333">
        <ele>0.0</ele>
        <time>2019-05-16T14:25:52.924Z</time>
      </trkpt>
      <trkpt lat="39.05879667" lon="-8.89030333">
        <ele>0.0</ele>
        <time>2019-05-16T14:25:53.914Z</time>
      </trkpt>
      <trkpt lat="39.05879667" lon="-8.89030333">
        <ele>0.0</ele>
        <time>2019-05-16T14:25:54.898Z</time>
      </trkpt>
      <trkpt lat="39.05879667" lon="-8.89030333">
        <ele>0.0</ele>
        <time>2019-05-16T14:25:55.924Z</time>
      </trkpt>
      <trkpt lat="39.05879667" lon="-8.89030333">
        <ele>0.0</ele>
        <time>2019-05-16T14:25:56.927Z</time>
      </trkpt>
      <trkpt lat="39.05879667" lon="-8.89030333">
        <ele>0.0</ele>
        <time>2019-05-16T14:25:57.921Z</time>
      </trkpt>
      <trkpt lat="39.05879667" lon="-8.89030333">
        <ele>0.0</ele>
        <time>2019-05-16T14:25:58.925Z</time>
      </trkpt>
      <trkpt lat="39.05879667" lon="-8.89030333">
        <ele>0.0</ele>
        <time>2019-05-16T14:25:59.919Z</time>
      </trkpt>
      <trkpt lat="39.05879667" lon="-8.89030333">
        <ele>0.0</ele>
        <time>2019-05-16T14:26:00.924Z</time>
      </trkpt>
      <trkpt lat="39.05879667" lon="-8.89030333">
        <ele>0.0</ele>
        <time>2019-05-16T14:26:01.897Z</time>
      </trkpt>
      <trkpt lat="39.05879667" lon="-8.89030333">
        <ele>0.0</ele>
        <time>2019-05-16T14:26:02.932Z</time>
      </trkpt>
      <trkpt lat="39.05879667" lon="-8.89030333">
        <ele>0.0</ele>
        <time>2019-05-16T14:26:03.917Z</time>
      </trkpt>
      <trkpt lat="39.05879667" lon="-8.89030333">
        <ele>0.0</ele>
        <time>2019-05-16T14:26:04.924Z</time>
      </trkpt>
      <trkpt lat="39.05879667" lon="-8.89030333">
        <ele>0.0</ele>
        <time>2019-05-16T14:26:05.921Z</time>
      </trkpt>
      <trkpt lat="39.05879667" lon="-8.89030333">
        <ele>0.0</ele>
        <time>2019-05-16T14:26:06.924Z</time>
      </trkpt>
      <trkpt lat="39.05879667" lon="-8.89030333">
        <ele>0.0</ele>
        <time>2019-05-16T14:26:07.920Z</time>
      </trkpt>
      <trkpt lat="39.05879667" lon="-8.89030333">
        <ele>0.0</ele>
        <time>2019-05-16T14:26:08.928Z</time>
      </trkpt>
      <trkpt lat="39.05879667" lon="-8.89030333">
        <ele>0.0</ele>
        <time>2019-05-16T14:26:09.919Z</time>
      </trkpt>
      <trkpt lat="39.05879667" lon="-8.89030333">
        <ele>0.0</ele>
        <time>2019-05-16T14:26:10.904Z</time>
      </trkpt>
      <trkpt lat="39.05879667" lon="-8.89030333">
        <ele>0.0</ele>
        <time>2019-05-16T14:26:11.930Z</time>
      </trkpt>
      <trkpt lat="39.05879667" lon="-8.89030333">
        <ele>0.0</ele>
        <time>2019-05-16T14:26:12.924Z</time>
      </trkpt>
      <trkpt lat="39.05879667" lon="-8.89030333">
        <ele>0.0</ele>
        <time>2019-05-16T14:26:13.930Z</time>
      </trkpt>
      <trkpt lat="39.05879667" lon="-8.89030333">
        <ele>0.0</ele>
        <time>2019-05-16T14:26:14.926Z</time>
      </trkpt>
      <trkpt lat="39.05879667" lon="-8.89030333">
        <ele>0.0</ele>
        <time>2019-05-16T14:26:15.919Z</time>
      </trkpt>
      <trkpt lat="39.05879667" lon="-8.89030333">
        <ele>0.0</ele>
        <time>2019-05-16T14:26:16.925Z</time>
      </trkpt>
      <trkpt lat="39.05879667" lon="-8.89030333">
        <ele>0.0</ele>
        <time>2019-05-16T14:26:17.919Z</time>
      </trkpt>
      <trkpt lat="39.05879667" lon="-8.89030333">
        <ele>0.0</ele>
        <time>2019-05-16T14:26:18.926Z</time>
      </trkpt>
      <trkpt lat="39.05879667" lon="-8.89030333">
        <ele>0.0</ele>
        <time>2019-05-16T14:26:19.917Z</time>
      </trkpt>
      <trkpt lat="39.05879667" lon="-8.89030333">
        <ele>0.0</ele>
        <time>2019-05-16T14:26:20.917Z</time>
      </trkpt>
      <trkpt lat="39.05879667" lon="-8.89030333">
        <ele>0.0</ele>
        <time>2019-05-16T14:26:21.902Z</time>
      </trkpt>
      <trkpt lat="39.05879667" lon="-8.89030333">
        <ele>0.0</ele>
        <time>2019-05-16T14:26:22.918Z</time>
      </trkpt>
      <trkpt lat="39.05879667" lon="-8.89030333">
        <ele>0.0</ele>
        <time>2019-05-16T14:26:23.928Z</time>
      </trkpt>
      <trkpt lat="39.05879667" lon="-8.89030333">
        <ele>0.0</ele>
        <time>2019-05-16T14:26:24.929Z</time>
      </trkpt>
      <trkpt lat="39.05879667" lon="-8.89030333">
        <ele>0.0</ele>
        <time>2019-05-16T14:26:25.926Z</time>
      </trkpt>
      <trkpt lat="39.05879667" lon="-8.89030333">
        <ele>0.0</ele>
        <time>2019-05-16T14:26:26.933Z</time>
      </trkpt>
      <trkpt lat="39.05879667" lon="-8.89030333">
        <ele>0.0</ele>
        <time>2019-05-16T14:26:27.933Z</time>
      </trkpt>
      <trkpt lat="39.05879667" lon="-8.89030333">
        <ele>0.0</ele>
        <time>2019-05-16T14:26:28.925Z</time>
      </trkpt>
      <trkpt lat="39.05879667" lon="-8.89030333">
        <ele>0.0</ele>
        <time>2019-05-16T14:26:29.923Z</time>
      </trkpt>
      <trkpt lat="39.05879667" lon="-8.89030333">
        <ele>0.0</ele>
        <time>2019-05-16T14:26:30.924Z</time>
      </trkpt>
      <trkpt lat="39.05879667" lon="-8.89030333">
        <ele>0.0</ele>
        <time>2019-05-16T14:26:31.921Z</time>
      </trkpt>
      <trkpt lat="39.05879667" lon="-8.89030333">
        <ele>0.0</ele>
        <time>2019-05-16T14:26:32.929Z</time>
      </trkpt>
      <trkpt lat="39.05879667" lon="-8.89030333">
        <ele>0.0</ele>
        <time>2019-05-16T14:26:33.921Z</time>
      </trkpt>
      <trkpt lat="39.05879667" lon="-8.89030333">
        <ele>0.0</ele>
        <time>2019-05-16T14:26:34.927Z</time>
      </trkpt>
      <trkpt lat="39.05879667" lon="-8.89030333">
        <ele>0.0</ele>
        <time>2019-05-16T14:26:35.923Z</time>
      </trkpt>
      <trkpt lat="39.05879667" lon="-8.89030333">
        <ele>0.0</ele>
        <time>2019-05-16T14:26:36.926Z</time>
      </trkpt>
      <trkpt lat="39.05879667" lon="-8.89030333">
        <ele>0.0</ele>
        <time>2019-05-16T14:26:37.921Z</time>
      </trkpt>
      <trkpt lat="39.05879667" lon="-8.89030333">
        <ele>0.0</ele>
        <time>2019-05-16T14:26:38.930Z</time>
      </trkpt>
      <trkpt lat="39.05879667" lon="-8.89030333">
        <ele>0.0</ele>
        <time>2019-05-16T14:26:39.922Z</time>
      </trkpt>
      <trkpt lat="39.05879667" lon="-8.89030333">
        <ele>0.0</ele>
        <time>2019-05-16T14:26:40.924Z</time>
      </trkpt>
      <trkpt lat="39.05879667" lon="-8.89030333">
        <ele>0.0</ele>
        <time>2019-05-16T14:26:41.922Z</time>
      </trkpt>
      <trkpt lat="39.05879667" lon="-8.89030333">
        <ele>0.0</ele>
        <time>2019-05-16T14:26:42.925Z</time>
      </trkpt>
      <trkpt lat="39.05879667" lon="-8.89030333">
        <ele>0.0</ele>
        <time>2019-05-16T14:26:43.921Z</time>
      </trkpt>
      <trkpt lat="39.05879667" lon="-8.89030333">
        <ele>0.0</ele>
        <time>2019-05-16T14:26:44.929Z</time>
      </trkpt>
      <trkpt lat="39.05879667" lon="-8.89030333">
        <ele>0.0</ele>
        <time>2019-05-16T14:26:45.920Z</time>
      </trkpt>
      <trkpt lat="39.05879667" lon="-8.89030333">
        <ele>0.0</ele>
        <time>2019-05-16T14:26:46.924Z</time>
      </trkpt>
      <trkpt lat="39.05879667" lon="-8.89030333">
        <ele>0.0</ele>
        <time>2019-05-16T14:26:47.920Z</time>
      </trkpt>
      <trkpt lat="39.05879667" lon="-8.89030333">
        <ele>0.0</ele>
        <time>2019-05-16T14:26:48.925Z</time>
      </trkpt>
      <trkpt lat="39.05879667" lon="-8.89030333">
        <ele>0.0</ele>
        <time>2019-05-16T14:26:49.921Z</time>
      </trkpt>
      <trkpt lat="39.05879667" lon="-8.89030333">
        <ele>0.0</ele>
        <time>2019-05-16T14:26:50.927Z</time>
      </trkpt>
      <trkpt lat="39.05879667" lon="-8.89030333">
        <ele>0.0</ele>
        <time>2019-05-16T14:26:51.918Z</time>
      </trkpt>
      <trkpt lat="39.05879667" lon="-8.89030333">
        <ele>0.0</ele>
        <time>2019-05-16T14:26:52.926Z</time>
      </trkpt>
      <trkpt lat="39.05879667" lon="-8.89030333">
        <ele>0.0</ele>
        <time>2019-05-16T14:26:53.922Z</time>
      </trkpt>
      <trkpt lat="39.05879667" lon="-8.89030333">
        <ele>0.0</ele>
        <time>2019-05-16T14:26:54.925Z</time>
      </trkpt>
      <trkpt lat="39.05879667" lon="-8.89030333">
        <ele>0.0</ele>
        <time>2019-05-16T14:26:55.923Z</time>
      </trkpt>
      <trkpt lat="39.05879667" lon="-8.89030333">
        <ele>0.0</ele>
        <time>2019-05-16T14:26:56.928Z</time>
      </trkpt>
      <trkpt lat="39.05879667" lon="-8.89030333">
        <ele>0.0</ele>
        <time>2019-05-16T14:26:57.919Z</time>
      </trkpt>
      <trkpt lat="39.05879667" lon="-8.89030333">
        <ele>0.0</ele>
        <time>2019-05-16T14:26:58.925Z</time>
      </trkpt>
      <trkpt lat="39.05879667" lon="-8.89030333">
        <ele>0.0</ele>
        <time>2019-05-16T14:26:59.924Z</time>
      </trkpt>
      <trkpt lat="39.05879667" lon="-8.89030333">
        <ele>0.0</ele>
        <time>2019-05-16T14:27:00.919Z</time>
      </trkpt>
      <trkpt lat="39.05879667" lon="-8.89030333">
        <ele>0.0</ele>
        <time>2019-05-16T14:27:01.936Z</time>
      </trkpt>
      <trkpt lat="39.05879667" lon="-8.89030333">
        <ele>0.0</ele>
        <time>2019-05-16T14:27:02.928Z</time>
      </trkpt>
      <trkpt lat="39.05879667" lon="-8.89030333">
        <ele>0.0</ele>
        <time>2019-05-16T14:27:03.921Z</time>
      </trkpt>
      <trkpt lat="39.05879667" lon="-8.89030333">
        <ele>0.0</ele>
        <time>2019-05-16T14:27:04.926Z</time>
      </trkpt>
      <trkpt lat="39.05879667" lon="-8.89030333">
        <ele>0.0</ele>
        <time>2019-05-16T14:27:05.927Z</time>
      </trkpt>
      <trkpt lat="39.05879667" lon="-8.89030333">
        <ele>0.0</ele>
        <time>2019-05-16T14:27:06.921Z</time>
      </trkpt>
      <trkpt lat="39.05879667" lon="-8.89030333">
        <ele>0.0</ele>
        <time>2019-05-16T14:27:07.926Z</time>
      </trkpt>
      <trkpt lat="39.05879667" lon="-8.89030333">
        <ele>0.0</ele>
        <time>2019-05-16T14:27:08.928Z</time>
      </trkpt>
      <trkpt lat="39.05879667" lon="-8.89030333">
        <ele>0.0</ele>
        <time>2019-05-16T14:27:09.924Z</time>
      </trkpt>
      <trkpt lat="39.05879667" lon="-8.89030333">
        <ele>0.0</ele>
        <time>2019-05-16T14:27:10.926Z</time>
      </trkpt>
      <trkpt lat="39.05879667" lon="-8.89030333">
        <ele>0.0</ele>
        <time>2019-05-16T14:27:11.920Z</time>
      </trkpt>
      <trkpt lat="39.05879667" lon="-8.89030333">
        <ele>0.0</ele>
        <time>2019-05-16T14:27:12.925Z</time>
      </trkpt>
      <trkpt lat="39.05879667" lon="-8.89030333">
        <ele>0.0</ele>
        <time>2019-05-16T14:27:13.922Z</time>
      </trkpt>
      <trkpt lat="39.05879667" lon="-8.89030333">
        <ele>0.0</ele>
        <time>2019-05-16T14:27:14.928Z</time>
      </trkpt>
      <trkpt lat="39.05879667" lon="-8.89030333">
        <ele>0.0</ele>
        <time>2019-05-16T14:27:15.920Z</time>
      </trkpt>
      <trkpt lat="39.05879667" lon="-8.89030333">
        <ele>0.0</ele>
        <time>2019-05-16T14:27:16.925Z</time>
      </trkpt>
      <trkpt lat="39.05879667" lon="-8.89030333">
        <ele>0.0</ele>
        <time>2019-05-16T14:27:17.920Z</time>
      </trkpt>
      <trkpt lat="39.05879667" lon="-8.89030333">
        <ele>0.0</ele>
        <time>2019-05-16T14:27:18.925Z</time>
      </trkpt>
      <trkpt lat="39.05879667" lon="-8.89030333">
        <ele>0.0</ele>
        <time>2019-05-16T14:27:19.920Z</time>
      </trkpt>
      <trkpt lat="39.05879667" lon="-8.89030333">
        <ele>0.0</ele>
        <time>2019-05-16T14:27:20.927Z</time>
      </trkpt>
      <trkpt lat="39.05879667" lon="-8.89030333">
        <ele>0.0</ele>
        <time>2019-05-16T14:27:21.930Z</time>
      </trkpt>
      <trkpt lat="39.05879667" lon="-8.89030333">
        <ele>0.0</ele>
        <time>2019-05-16T14:27:22.897Z</time>
      </trkpt>
      <trkpt lat="39.05879667" lon="-8.89030333">
        <ele>0.0</ele>
        <time>2019-05-16T14:27:23.903Z</time>
      </trkpt>
      <trkpt lat="39.05879667" lon="-8.89030333">
        <ele>0.0</ele>
        <time>2019-05-16T14:27:24.930Z</time>
      </trkpt>
      <trkpt lat="39.05879667" lon="-8.89030333">
        <ele>0.0</ele>
        <time>2019-05-16T14:27:25.920Z</time>
      </trkpt>
      <trkpt lat="39.05879667" lon="-8.89030333">
        <ele>0.0</ele>
        <time>2019-05-16T14:27:26.902Z</time>
      </trkpt>
      <trkpt lat="39.05879667" lon="-8.89030333">
        <ele>0.0</ele>
        <time>2019-05-16T14:27:27.901Z</time>
      </trkpt>
      <trkpt lat="39.05879667" lon="-8.89030333">
        <ele>0.0</ele>
        <time>2019-05-16T14:27:28.929Z</time>
      </trkpt>
      <trkpt lat="39.05879667" lon="-8.89030333">
        <ele>0.0</ele>
        <time>2019-05-16T14:27:29.925Z</time>
      </trkpt>
      <trkpt lat="39.05879667" lon="-8.89030333">
        <ele>0.0</ele>
        <time>2019-05-16T14:27:30.925Z</time>
      </trkpt>
      <trkpt lat="39.05879667" lon="-8.89030333">
        <ele>0.0</ele>
        <time>2019-05-16T14:27:31.921Z</time>
      </trkpt>
      <trkpt lat="39.05879667" lon="-8.89030333">
        <ele>0.0</ele>
        <time>2019-05-16T14:27:32.929Z</time>
      </trkpt>
      <trkpt lat="39.05879667" lon="-8.89030333">
        <ele>0.0</ele>
        <time>2019-05-16T14:27:33.920Z</time>
      </trkpt>
      <trkpt lat="39.05879667" lon="-8.89030333">
        <ele>0.0</ele>
        <time>2019-05-16T14:27:34.925Z</time>
      </trkpt>
      <trkpt lat="39.05879667" lon="-8.89030333">
        <ele>0.0</ele>
        <time>2019-05-16T14:27:35.921Z</time>
      </trkpt>
      <trkpt lat="39.05879667" lon="-8.89030333">
        <ele>0.0</ele>
        <time>2019-05-16T14:27:36.926Z</time>
      </trkpt>
      <trkpt lat="39.05879667" lon="-8.89030333">
        <ele>0.0</ele>
        <time>2019-05-16T14:27:37.920Z</time>
      </trkpt>
      <trkpt lat="39.05879667" lon="-8.89030333">
        <ele>0.0</ele>
        <time>2019-05-16T14:27:38.928Z</time>
      </trkpt>
      <trkpt lat="39.05879667" lon="-8.89030333">
        <ele>0.0</ele>
        <time>2019-05-16T14:27:39.920Z</time>
      </trkpt>
      <trkpt lat="39.05879667" lon="-8.89030333">
        <ele>0.0</ele>
        <time>2019-05-16T14:27:40.925Z</time>
      </trkpt>
      <trkpt lat="39.05879667" lon="-8.89030333">
        <ele>0.0</ele>
        <time>2019-05-16T14:27:41.922Z</time>
      </trkpt>
      <trkpt lat="39.05879667" lon="-8.89030333">
        <ele>0.0</ele>
        <time>2019-05-16T14:27:42.925Z</time>
      </trkpt>
      <trkpt lat="39.05879667" lon="-8.89030333">
        <ele>0.0</ele>
        <time>2019-05-16T14:27:43.920Z</time>
      </trkpt>
      <trkpt lat="39.05879667" lon="-8.89030333">
        <ele>0.0</ele>
        <time>2019-05-16T14:27:44.923Z</time>
      </trkpt>
      <trkpt lat="39.05879667" lon="-8.89030333">
        <ele>0.0</ele>
        <time>2019-05-16T14:27:45.923Z</time>
      </trkpt>
      <trkpt lat="39.05879667" lon="-8.89030333">
        <ele>0.0</ele>
        <time>2019-05-16T14:27:46.925Z</time>
      </trkpt>
      <trkpt lat="39.05879667" lon="-8.89030333">
        <ele>0.0</ele>
        <time>2019-05-16T14:27:47.920Z</time>
      </trkpt>
      <trkpt lat="39.05879667" lon="-8.89030333">
        <ele>0.0</ele>
        <time>2019-05-16T14:27:48.925Z</time>
      </trkpt>
      <trkpt lat="39.05879667" lon="-8.89030333">
        <ele>0.0</ele>
        <time>2019-05-16T14:27:49.935Z</time>
      </trkpt>
      <trkpt lat="39.05879667" lon="-8.89030333">
        <ele>0.0</ele>
        <time>2019-05-16T14:27:50.900Z</time>
      </trkpt>
      <trkpt lat="39.05879667" lon="-8.89030333">
        <ele>0.0</ele>
        <time>2019-05-16T14:27:51.926Z</time>
      </trkpt>
      <trkpt lat="39.05888667" lon="-8.89029333">
        <ele>6.0</ele>
        <time>2019-05-16T14:27:52.925Z</time>
      </trkpt>
      <trkpt lat="39.05888667" lon="-8.89029333">
        <ele>6.0</ele>
        <time>2019-05-16T14:27:53.920Z</time>
      </trkpt>
      <trkpt lat="39.05889333" lon="-8.89029167">
        <ele>6.0</ele>
        <time>2019-05-16T14:27:54.917Z</time>
      </trkpt>
      <trkpt lat="39.05889333" lon="-8.89029167">
        <ele>6.0</ele>
        <time>2019-05-16T14:27:55.918Z</time>
      </trkpt>
      <trkpt lat="39.05889333" lon="-8.89029167">
        <ele>6.0</ele>
        <time>2019-05-16T14:27:56.927Z</time>
      </trkpt>
      <trkpt lat="39.05889333" lon="-8.89029167">
        <ele>6.0</ele>
        <time>2019-05-16T14:27:57.920Z</time>
      </trkpt>
      <trkpt lat="39.05889333" lon="-8.89029167">
        <ele>6.0</ele>
        <time>2019-05-16T14:27:58.925Z</time>
      </trkpt>
      <trkpt lat="39.05889333" lon="-8.89029167">
        <ele>6.0</ele>
        <time>2019-05-16T14:27:59.920Z</time>
      </trkpt>
      <trkpt lat="39.05889333" lon="-8.89029167">
        <ele>6.0</ele>
        <time>2019-05-16T14:28:00.925Z</time>
      </trkpt>
      <trkpt lat="39.05889333" lon="-8.89029167">
        <ele>6.0</ele>
        <time>2019-05-16T14:28:01.932Z</time>
      </trkpt>
      <trkpt lat="39.05889333" lon="-8.89029167">
        <ele>6.0</ele>
        <time>2019-05-16T14:28:02.928Z</time>
      </trkpt>
      <trkpt lat="39.05889333" lon="-8.89029167">
        <ele>6.0</ele>
        <time>2019-05-16T14:28:03.920Z</time>
      </trkpt>
      <trkpt lat="39.05889333" lon="-8.89029167">
        <ele>6.0</ele>
        <time>2019-05-16T14:28:04.927Z</time>
      </trkpt>
      <trkpt lat="39.05889333" lon="-8.89029167">
        <ele>6.0</ele>
        <time>2019-05-16T14:28:05.925Z</time>
      </trkpt>
      <trkpt lat="39.05889333" lon="-8.89029167">
        <ele>6.0</ele>
        <time>2019-05-16T14:28:06.920Z</time>
      </trkpt>
      <trkpt lat="39.05889333" lon="-8.89029167">
        <ele>6.0</ele>
        <time>2019-05-16T14:28:07.925Z</time>
      </trkpt>
      <trkpt lat="39.05889333" lon="-8.89029167">
        <ele>6.0</ele>
        <time>2019-05-16T14:28:08.922Z</time>
      </trkpt>
      <trkpt lat="39.05889333" lon="-8.89029167">
        <ele>6.0</ele>
        <time>2019-05-16T14:28:09.925Z</time>
      </trkpt>
      <trkpt lat="39.05889333" lon="-8.89029167">
        <ele>6.0</ele>
        <time>2019-05-16T14:28:10.917Z</time>
      </trkpt>
      <trkpt lat="39.05889333" lon="-8.89029167">
        <ele>6.0</ele>
        <time>2019-05-16T14:28:11.925Z</time>
      </trkpt>
      <trkpt lat="39.05889333" lon="-8.89029167">
        <ele>6.0</ele>
        <time>2019-05-16T14:28:12.920Z</time>
      </trkpt>
      <trkpt lat="39.058885" lon="-8.89027667">
        <ele>7.0</ele>
        <time>2019-05-16T14:28:13.925Z</time>
      </trkpt>
      <trkpt lat="39.058885" lon="-8.89027667">
        <ele>7.0</ele>
        <time>2019-05-16T14:28:14.930Z</time>
      </trkpt>
      <trkpt lat="39.05888333" lon="-8.89027833">
        <ele>7.0</ele>
        <time>2019-05-16T14:28:15.927Z</time>
      </trkpt>
      <trkpt lat="39.05888333" lon="-8.89027833">
        <ele>7.0</ele>
        <time>2019-05-16T14:28:16.920Z</time>
      </trkpt>
      <trkpt lat="39.05887833" lon="-8.89027667">
        <ele>7.0</ele>
        <time>2019-05-16T14:28:17.925Z</time>
      </trkpt>
      <trkpt lat="39.05887833" lon="-8.89027667">
        <ele>7.0</ele>
        <time>2019-05-16T14:28:18.920Z</time>
      </trkpt>
      <trkpt lat="39.05887833" lon="-8.89027667">
        <ele>7.0</ele>
        <time>2019-05-16T14:28:19.925Z</time>
      </trkpt>
      <trkpt lat="39.05887833" lon="-8.89027667">
        <ele>7.0</ele>
        <time>2019-05-16T14:28:20.902Z</time>
      </trkpt>
      <trkpt lat="39.05887833" lon="-8.89027667">
        <ele>7.0</ele>
        <time>2019-05-16T14:28:21.920Z</time>
      </trkpt>
      <trkpt lat="39.05887833" lon="-8.89027667">
        <ele>7.0</ele>
        <time>2019-05-16T14:28:22.928Z</time>
      </trkpt>
      <trkpt lat="39.05887833" lon="-8.89027667">
        <ele>7.0</ele>
        <time>2019-05-16T14:28:23.916Z</time>
      </trkpt>
      <trkpt lat="39.05887833" lon="-8.89027667">
        <ele>7.0</ele>
        <time>2019-05-16T14:28:24.932Z</time>
      </trkpt>
      <trkpt lat="39.05887833" lon="-8.89027667">
        <ele>7.0</ele>
        <time>2019-05-16T14:28:25.925Z</time>
      </trkpt>
      <trkpt lat="39.05887833" lon="-8.89027667">
        <ele>7.0</ele>
        <time>2019-05-16T14:28:26.897Z</time>
      </trkpt>
      <trkpt lat="39.05887833" lon="-8.89027667">
        <ele>7.0</ele>
        <time>2019-05-16T14:28:27.924Z</time>
      </trkpt>
      <trkpt lat="39.05887833" lon="-8.89027667">
        <ele>7.0</ele>
        <time>2019-05-16T14:28:28.921Z</time>
      </trkpt>
      <trkpt lat="39.05887833" lon="-8.89027667">
        <ele>7.0</ele>
        <time>2019-05-16T14:28:29.931Z</time>
      </trkpt>
      <trkpt lat="39.05887833" lon="-8.89027667">
        <ele>7.0</ele>
        <time>2019-05-16T14:28:30.920Z</time>
      </trkpt>
      <trkpt lat="39.05887833" lon="-8.89027667">
        <ele>7.0</ele>
        <time>2019-05-16T14:28:31.925Z</time>
      </trkpt>
      <trkpt lat="39.05887833" lon="-8.89027667">
        <ele>7.0</ele>
        <time>2019-05-16T14:28:32.902Z</time>
      </trkpt>
      <trkpt lat="39.05887833" lon="-8.89027667">
        <ele>7.0</ele>
        <time>2019-05-16T14:28:33.930Z</time>
      </trkpt>
      <trkpt lat="39.05887833" lon="-8.89027667">
        <ele>7.0</ele>
        <time>2019-05-16T14:28:34.923Z</time>
      </trkpt>
      <trkpt lat="39.05887833" lon="-8.89027667">
        <ele>7.0</ele>
        <time>2019-05-16T14:28:35.927Z</time>
      </trkpt>
      <trkpt lat="39.05887833" lon="-8.89027667">
        <ele>7.0</ele>
        <time>2019-05-16T14:28:36.921Z</time>
      </trkpt>
      <trkpt lat="39.05887833" lon="-8.89027667">
        <ele>7.0</ele>
        <time>2019-05-16T14:28:37.926Z</time>
      </trkpt>
      <trkpt lat="39.05887833" lon="-8.89027667">
        <ele>7.0</ele>
        <time>2019-05-16T14:28:38.927Z</time>
      </trkpt>
      <trkpt lat="39.05887833" lon="-8.89027667">
        <ele>7.0</ele>
        <time>2019-05-16T14:28:39.921Z</time>
      </trkpt>
      <trkpt lat="39.05887833" lon="-8.89027667">
        <ele>7.0</ele>
        <time>2019-05-16T14:28:40.925Z</time>
      </trkpt>
      <trkpt lat="39.05887833" lon="-8.89027667">
        <ele>7.0</ele>
        <time>2019-05-16T14:28:41.920Z</time>
      </trkpt>
      <trkpt lat="39.05887833" lon="-8.89027667">
        <ele>7.0</ele>
        <time>2019-05-16T14:28:42.925Z</time>
      </trkpt>
      <trkpt lat="39.05887833" lon="-8.89027667">
        <ele>7.0</ele>
        <time>2019-05-16T14:28:43.920Z</time>
      </trkpt>
      <trkpt lat="39.05887833" lon="-8.89027667">
        <ele>7.0</ele>
        <time>2019-05-16T14:28:44.929Z</time>
      </trkpt>
      <trkpt lat="39.05887833" lon="-8.89027667">
        <ele>7.0</ele>
        <time>2019-05-16T14:28:45.920Z</time>
      </trkpt>
      <trkpt lat="39.05887833" lon="-8.89027667">
        <ele>7.0</ele>
        <time>2019-05-16T14:28:46.902Z</time>
      </trkpt>
      <trkpt lat="39.05887833" lon="-8.89027667">
        <ele>7.0</ele>
        <time>2019-05-16T14:28:47.929Z</time>
      </trkpt>
      <trkpt lat="39.05887833" lon="-8.89027667">
        <ele>7.0</ele>
        <time>2019-05-16T14:28:48.925Z</time>
      </trkpt>
      <trkpt lat="39.05887833" lon="-8.89027667">
        <ele>7.0</ele>
        <time>2019-05-16T14:28:49.921Z</time>
      </trkpt>
      <trkpt lat="39.05887833" lon="-8.89027667">
        <ele>7.0</ele>
        <time>2019-05-16T14:28:50.927Z</time>
      </trkpt>
      <trkpt lat="39.05887833" lon="-8.89027667">
        <ele>7.0</ele>
        <time>2019-05-16T14:28:51.924Z</time>
      </trkpt>
      <trkpt lat="39.05887833" lon="-8.89027667">
        <ele>7.0</ele>
        <time>2019-05-16T14:28:52.920Z</time>
      </trkpt>
      <trkpt lat="39.05887833" lon="-8.89027667">
        <ele>7.0</ele>
        <time>2019-05-16T14:28:53.925Z</time>
      </trkpt>
      <trkpt lat="39.05887833" lon="-8.89027667">
        <ele>7.0</ele>
        <time>2019-05-16T14:28:54.920Z</time>
      </trkpt>
      <trkpt lat="39.05887833" lon="-8.89027667">
        <ele>7.0</ele>
        <time>2019-05-16T14:28:55.924Z</time>
      </trkpt>
      <trkpt lat="39.05887833" lon="-8.89027667">
        <ele>7.0</ele>
        <time>2019-05-16T14:28:56.928Z</time>
      </trkpt>
      <trkpt lat="39.05887833" lon="-8.89027667">
        <ele>7.0</ele>
        <time>2019-05-16T14:28:57.920Z</time>
      </trkpt>
      <trkpt lat="39.05887833" lon="-8.89027667">
        <ele>7.0</ele>
        <time>2019-05-16T14:28:58.925Z</time>
      </trkpt>
      <trkpt lat="39.05887833" lon="-8.89027667">
        <ele>7.0</ele>
        <time>2019-05-16T14:28:59.921Z</time>
      </trkpt>
      <trkpt lat="39.05887833" lon="-8.89027667">
        <ele>7.0</ele>
        <time>2019-05-16T14:29:00.925Z</time>
      </trkpt>
      <trkpt lat="39.05887833" lon="-8.89027667">
        <ele>7.0</ele>
        <time>2019-05-16T14:29:01.922Z</time>
      </trkpt>
      <trkpt lat="39.05887833" lon="-8.89027667">
        <ele>7.0</ele>
        <time>2019-05-16T14:29:02.902Z</time>
      </trkpt>
      <trkpt lat="39.05887833" lon="-8.89027667">
        <ele>7.0</ele>
        <time>2019-05-16T14:29:03.929Z</time>
      </trkpt>
      <trkpt lat="39.05887833" lon="-8.89027667">
        <ele>7.0</ele>
        <time>2019-05-16T14:29:04.920Z</time>
      </trkpt>
      <trkpt lat="39.05887833" lon="-8.89027667">
        <ele>7.0</ele>
        <time>2019-05-16T14:29:05.926Z</time>
      </trkpt>
      <trkpt lat="39.05887833" lon="-8.89027667">
        <ele>7.0</ele>
        <time>2019-05-16T14:29:06.921Z</time>
      </trkpt>
      <trkpt lat="39.05887833" lon="-8.89027667">
        <ele>7.0</ele>
        <time>2019-05-16T14:29:07.926Z</time>
      </trkpt>
      <trkpt lat="39.05887833" lon="-8.89027667">
        <ele>7.0</ele>
        <time>2019-05-16T14:29:08.927Z</time>
      </trkpt>
      <trkpt lat="39.05887833" lon="-8.89027667">
        <ele>7.0</ele>
        <time>2019-05-16T14:29:09.921Z</time>
      </trkpt>
      <trkpt lat="39.05887833" lon="-8.89027667">
        <ele>7.0</ele>
        <time>2019-05-16T14:29:10.925Z</time>
      </trkpt>
      <trkpt lat="39.05887833" lon="-8.89027667">
        <ele>7.0</ele>
        <time>2019-05-16T14:29:11.931Z</time>
      </trkpt>
      <trkpt lat="39.05887833" lon="-8.89027667">
        <ele>7.0</ele>
        <time>2019-05-16T14:29:12.921Z</time>
      </trkpt>
      <trkpt lat="39.05887833" lon="-8.89027667">
        <ele>7.0</ele>
        <time>2019-05-16T14:29:13.925Z</time>
      </trkpt>
      <trkpt lat="39.05887833" lon="-8.89027667">
        <ele>7.0</ele>
        <time>2019-05-16T14:29:14.927Z</time>
      </trkpt>
      <trkpt lat="39.05887833" lon="-8.89027667">
        <ele>7.0</ele>
        <time>2019-05-16T14:29:15.922Z</time>
      </trkpt>
      <trkpt lat="39.05887833" lon="-8.89027667">
        <ele>7.0</ele>
        <time>2019-05-16T14:29:16.925Z</time>
      </trkpt>
      <trkpt lat="39.05887833" lon="-8.89027667">
        <ele>7.0</ele>
        <time>2019-05-16T14:29:17.925Z</time>
      </trkpt>
      <trkpt lat="39.05887833" lon="-8.89027667">
        <ele>7.0</ele>
        <time>2019-05-16T14:29:18.920Z</time>
      </trkpt>
      <trkpt lat="39.05887833" lon="-8.89027667">
        <ele>7.0</ele>
        <time>2019-05-16T14:29:19.925Z</time>
      </trkpt>
      <trkpt lat="39.05887833" lon="-8.89027667">
        <ele>7.0</ele>
        <time>2019-05-16T14:29:20.927Z</time>
      </trkpt>
      <trkpt lat="39.05887833" lon="-8.89027667">
        <ele>7.0</ele>
        <time>2019-05-16T14:29:21.921Z</time>
      </trkpt>
      <trkpt lat="39.05887833" lon="-8.89027667">
        <ele>7.0</ele>
        <time>2019-05-16T14:29:22.927Z</time>
      </trkpt>
      <trkpt lat="39.05887833" lon="-8.89027667">
        <ele>7.0</ele>
        <time>2019-05-16T14:29:23.933Z</time>
      </trkpt>
      <trkpt lat="39.05887833" lon="-8.89027667">
        <ele>7.0</ele>
        <time>2019-05-16T14:29:24.920Z</time>
      </trkpt>
      <trkpt lat="39.05887833" lon="-8.89027667">
        <ele>7.0</ele>
        <time>2019-05-16T14:29:25.925Z</time>
      </trkpt>
      <trkpt lat="39.05887833" lon="-8.89027667">
        <ele>7.0</ele>
        <time>2019-05-16T14:29:26.927Z</time>
      </trkpt>
      <trkpt lat="39.05887833" lon="-8.89027667">
        <ele>7.0</ele>
        <time>2019-05-16T14:29:27.920Z</time>
      </trkpt>
      <trkpt lat="39.05887833" lon="-8.89027667">
        <ele>7.0</ele>
        <time>2019-05-16T14:29:28.924Z</time>
      </trkpt>
      <trkpt lat="39.05887833" lon="-8.89027667">
        <ele>7.0</ele>
        <time>2019-05-16T14:29:29.920Z</time>
      </trkpt>
      <trkpt lat="39.05887833" lon="-8.89027667">
        <ele>7.0</ele>
        <time>2019-05-16T14:29:30.925Z</time>
      </trkpt>
      <trkpt lat="39.05887833" lon="-8.89027667">
        <ele>7.0</ele>
        <time>2019-05-16T14:29:31.918Z</time>
      </trkpt>
      <trkpt lat="39.05887833" lon="-8.89027667">
        <ele>7.0</ele>
        <time>2019-05-16T14:29:32.927Z</time>
      </trkpt>
      <trkpt lat="39.05887833" lon="-8.89027667">
        <ele>7.0</ele>
        <time>2019-05-16T14:29:33.921Z</time>
      </trkpt>
      <trkpt lat="39.05887833" lon="-8.89027667">
        <ele>7.0</ele>
        <time>2019-05-16T14:29:34.925Z</time>
      </trkpt>
      <trkpt lat="39.05887833" lon="-8.89027667">
        <ele>7.0</ele>
        <time>2019-05-16T14:29:35.927Z</time>
      </trkpt>
      <trkpt lat="39.05887833" lon="-8.89027667">
        <ele>7.0</ele>
        <time>2019-05-16T14:29:36.925Z</time>
      </trkpt>
      <trkpt lat="39.05887833" lon="-8.89027667">
        <ele>7.0</ele>
        <time>2019-05-16T14:29:37.930Z</time>
      </trkpt>
      <trkpt lat="39.05887833" lon="-8.89027667">
        <ele>7.0</ele>
        <time>2019-05-16T14:29:38.923Z</time>
      </trkpt>
      <trkpt lat="39.05887833" lon="-8.89027667">
        <ele>7.0</ele>
        <time>2019-05-16T14:29:39.924Z</time>
      </trkpt>
      <trkpt lat="39.05887833" lon="-8.89027667">
        <ele>7.0</ele>
        <time>2019-05-16T14:29:40.926Z</time>
      </trkpt>
      <trkpt lat="39.05887833" lon="-8.89027667">
        <ele>7.0</ele>
        <time>2019-05-16T14:29:41.920Z</time>
      </trkpt>
      <trkpt lat="39.05887833" lon="-8.89027667">
        <ele>7.0</ele>
        <time>2019-05-16T14:29:42.926Z</time>
      </trkpt>
      <trkpt lat="39.05887833" lon="-8.89027667">
        <ele>7.0</ele>
        <time>2019-05-16T14:29:43.920Z</time>
      </trkpt>
      <trkpt lat="39.05887833" lon="-8.89027667">
        <ele>7.0</ele>
        <time>2019-05-16T14:29:44.927Z</time>
      </trkpt>
      <trkpt lat="39.05887833" lon="-8.89027667">
        <ele>7.0</ele>
        <time>2019-05-16T14:29:45.920Z</time>
      </trkpt>
      <trkpt lat="39.05887833" lon="-8.89027667">
        <ele>7.0</ele>
        <time>2019-05-16T14:29:46.926Z</time>
      </trkpt>
      <trkpt lat="39.05887833" lon="-8.89027667">
        <ele>7.0</ele>
        <time>2019-05-16T14:29:47.925Z</time>
      </trkpt>
      <trkpt lat="39.05887833" lon="-8.89027667">
        <ele>7.0</ele>
        <time>2019-05-16T14:29:48.920Z</time>
      </trkpt>
      <trkpt lat="39.05887833" lon="-8.89027667">
        <ele>7.0</ele>
        <time>2019-05-16T14:29:49.925Z</time>
      </trkpt>
      <trkpt lat="39.05887833" lon="-8.89027667">
        <ele>7.0</ele>
        <time>2019-05-16T14:29:50.928Z</time>
      </trkpt>
      <trkpt lat="39.05887833" lon="-8.89027667">
        <ele>7.0</ele>
        <time>2019-05-16T14:29:51.920Z</time>
      </trkpt>
      <trkpt lat="39.05887833" lon="-8.89027667">
        <ele>7.0</ele>
        <time>2019-05-16T14:29:52.925Z</time>
      </trkpt>
      <trkpt lat="39.05887833" lon="-8.89027667">
        <ele>7.0</ele>
        <time>2019-05-16T14:29:53.920Z</time>
      </trkpt>
      <trkpt lat="39.05887833" lon="-8.89027667">
        <ele>7.0</ele>
        <time>2019-05-16T14:29:54.925Z</time>
      </trkpt>
      <trkpt lat="39.05887833" lon="-8.89027667">
        <ele>7.0</ele>
        <time>2019-05-16T14:29:55.916Z</time>
      </trkpt>
      <trkpt lat="39.05887833" lon="-8.89027667">
        <ele>7.0</ele>
        <time>2019-05-16T14:29:56.903Z</time>
      </trkpt>
      <trkpt lat="39.05887833" lon="-8.89027667">
        <ele>7.0</ele>
        <time>2019-05-16T14:29:57.929Z</time>
      </trkpt>
      <trkpt lat="39.05887833" lon="-8.89027667">
        <ele>7.0</ele>
        <time>2019-05-16T14:29:58.925Z</time>
      </trkpt>
      <trkpt lat="39.05887833" lon="-8.89027667">
        <ele>7.0</ele>
        <time>2019-05-16T14:29:59.920Z</time>
      </trkpt>
      <trkpt lat="39.05887833" lon="-8.89027667">
        <ele>7.0</ele>
        <time>2019-05-16T14:30:00.926Z</time>
      </trkpt>
      <trkpt lat="39.05887833" lon="-8.89027667">
        <ele>7.0</ele>
        <time>2019-05-16T14:30:01.930Z</time>
      </trkpt>
      <trkpt lat="39.05887833" lon="-8.89027667">
        <ele>7.0</ele>
        <time>2019-05-16T14:30:02.900Z</time>
      </trkpt>
      <trkpt lat="39.05887833" lon="-8.89027667">
        <ele>7.0</ele>
        <time>2019-05-16T14:30:03.926Z</time>
      </trkpt>
      <trkpt lat="39.05887833" lon="-8.89027667">
        <ele>7.0</ele>
        <time>2019-05-16T14:30:04.925Z</time>
      </trkpt>
      <trkpt lat="39.05887833" lon="-8.89027667">
        <ele>7.0</ele>
        <time>2019-05-16T14:30:05.929Z</time>
      </trkpt>
      <trkpt lat="39.05887833" lon="-8.89027667">
        <ele>7.0</ele>
        <time>2019-05-16T14:30:06.927Z</time>
      </trkpt>
      <trkpt lat="39.05887833" lon="-8.89027667">
        <ele>7.0</ele>
        <time>2019-05-16T14:30:07.926Z</time>
      </trkpt>
      <trkpt lat="39.05887833" lon="-8.89027667">
        <ele>7.0</ele>
        <time>2019-05-16T14:30:08.923Z</time>
      </trkpt>
      <trkpt lat="39.05887833" lon="-8.89027667">
        <ele>7.0</ele>
        <time>2019-05-16T14:30:09.925Z</time>
      </trkpt>
      <trkpt lat="39.05887833" lon="-8.89027667">
        <ele>7.0</ele>
        <time>2019-05-16T14:30:10.917Z</time>
      </trkpt>
      <trkpt lat="39.05887833" lon="-8.89027667">
        <ele>7.0</ele>
        <time>2019-05-16T14:30:11.926Z</time>
      </trkpt>
      <trkpt lat="39.05887833" lon="-8.89027667">
        <ele>7.0</ele>
        <time>2019-05-16T14:30:12.921Z</time>
      </trkpt>
      <trkpt lat="39.05887833" lon="-8.89027667">
        <ele>7.0</ele>
        <time>2019-05-16T14:30:13.925Z</time>
      </trkpt>
      <trkpt lat="39.05887833" lon="-8.89027667">
        <ele>7.0</ele>
        <time>2019-05-16T14:30:14.927Z</time>
      </trkpt>
      <trkpt lat="39.05887833" lon="-8.89027667">
        <ele>7.0</ele>
        <time>2019-05-16T14:30:15.927Z</time>
      </trkpt>
      <trkpt lat="39.05887833" lon="-8.89027667">
        <ele>7.0</ele>
        <time>2019-05-16T14:30:16.922Z</time>
      </trkpt>
      <trkpt lat="39.05887833" lon="-8.89027667">
        <ele>7.0</ele>
        <time>2019-05-16T14:30:17.925Z</time>
      </trkpt>
      <trkpt lat="39.05887833" lon="-8.89027667">
        <ele>7.0</ele>
        <time>2019-05-16T14:30:18.920Z</time>
      </trkpt>
      <trkpt lat="39.05887833" lon="-8.89027667">
        <ele>7.0</ele>
        <time>2019-05-16T14:30:19.925Z</time>
      </trkpt>
      <trkpt lat="39.05887833" lon="-8.89027667">
        <ele>7.0</ele>
        <time>2019-05-16T14:30:20.919Z</time>
      </trkpt>
      <trkpt lat="39.05887833" lon="-8.89027667">
        <ele>7.0</ele>
        <time>2019-05-16T14:30:21.932Z</time>
      </trkpt>
      <trkpt lat="39.05887833" lon="-8.89027667">
        <ele>7.0</ele>
        <time>2019-05-16T14:30:22.898Z</time>
      </trkpt>
      <trkpt lat="39.05887833" lon="-8.89027667">
        <ele>7.0</ele>
        <time>2019-05-16T14:30:23.905Z</time>
      </trkpt>
      <trkpt lat="39.05887833" lon="-8.89027667">
        <ele>7.0</ele>
        <time>2019-05-16T14:30:24.932Z</time>
      </trkpt>
      <trkpt lat="39.05887833" lon="-8.89027667">
        <ele>7.0</ele>
        <time>2019-05-16T14:30:25.921Z</time>
      </trkpt>
      <trkpt lat="39.05887833" lon="-8.89027667">
        <ele>7.0</ele>
        <time>2019-05-16T14:30:26.908Z</time>
      </trkpt>
      <trkpt lat="39.05887833" lon="-8.89027667">
        <ele>7.0</ele>
        <time>2019-05-16T14:30:27.908Z</time>
      </trkpt>
      <trkpt lat="39.05887833" lon="-8.89027667">
        <ele>7.0</ele>
        <time>2019-05-16T14:30:28.906Z</time>
      </trkpt>
      <trkpt lat="39.05887833" lon="-8.89027667">
        <ele>7.0</ele>
        <time>2019-05-16T14:30:29.902Z</time>
      </trkpt>
      <trkpt lat="39.05887833" lon="-8.89027667">
        <ele>7.0</ele>
        <time>2019-05-16T14:30:30.929Z</time>
      </trkpt>
      <trkpt lat="39.05887833" lon="-8.89027667">
        <ele>7.0</ele>
        <time>2019-05-16T14:30:31.925Z</time>
      </trkpt>
      <trkpt lat="39.05887833" lon="-8.89027667">
        <ele>7.0</ele>
        <time>2019-05-16T14:30:32.927Z</time>
      </trkpt>
      <trkpt lat="39.05887833" lon="-8.89027667">
        <ele>7.0</ele>
        <time>2019-05-16T14:30:33.904Z</time>
      </trkpt>
      <trkpt lat="39.05887833" lon="-8.89027667">
        <ele>7.0</ele>
        <time>2019-05-16T14:30:34.930Z</time>
      </trkpt>
      <trkpt lat="39.05887833" lon="-8.89027667">
        <ele>7.0</ele>
        <time>2019-05-16T14:30:35.925Z</time>
      </trkpt>
      <trkpt lat="39.05887833" lon="-8.89027667">
        <ele>7.0</ele>
        <time>2019-05-16T14:30:36.925Z</time>
      </trkpt>
      <trkpt lat="39.05887833" lon="-8.89027667">
        <ele>7.0</ele>
        <time>2019-05-16T14:30:37.921Z</time>
      </trkpt>
      <trkpt lat="39.05887833" lon="-8.89027667">
        <ele>7.0</ele>
        <time>2019-05-16T14:30:38.927Z</time>
      </trkpt>
      <trkpt lat="39.05887833" lon="-8.89027667">
        <ele>7.0</ele>
        <time>2019-05-16T14:30:39.921Z</time>
      </trkpt>
      <trkpt lat="39.05887833" lon="-8.89027667">
        <ele>7.0</ele>
        <time>2019-05-16T14:30:40.925Z</time>
      </trkpt>
      <trkpt lat="39.05887833" lon="-8.89027667">
        <ele>7.0</ele>
        <time>2019-05-16T14:30:41.920Z</time>
      </trkpt>
      <trkpt lat="39.05887833" lon="-8.89027667">
        <ele>7.0</ele>
        <time>2019-05-16T14:30:42.925Z</time>
      </trkpt>
      <trkpt lat="39.05887833" lon="-8.89027667">
        <ele>7.0</ele>
        <time>2019-05-16T14:30:43.922Z</time>
      </trkpt>
      <trkpt lat="39.05887833" lon="-8.89027667">
        <ele>7.0</ele>
        <time>2019-05-16T14:30:44.922Z</time>
      </trkpt>
      <trkpt lat="39.05887833" lon="-8.89027667">
        <ele>7.0</ele>
        <time>2019-05-16T14:30:45.926Z</time>
      </trkpt>
      <trkpt lat="39.05887833" lon="-8.89027667">
        <ele>7.0</ele>
        <time>2019-05-16T14:30:46.922Z</time>
      </trkpt>
      <trkpt lat="39.05887833" lon="-8.89027667">
        <ele>7.0</ele>
        <time>2019-05-16T14:30:47.924Z</time>
      </trkpt>
      <trkpt lat="39.05887833" lon="-8.89027667">
        <ele>7.0</ele>
        <time>2019-05-16T14:30:48.918Z</time>
      </trkpt>
      <trkpt lat="39.05887833" lon="-8.89027667">
        <ele>7.0</ele>
        <time>2019-05-16T14:30:49.924Z</time>
      </trkpt>
      <trkpt lat="39.05887833" lon="-8.89027667">
        <ele>7.0</ele>
        <time>2019-05-16T14:30:50.927Z</time>
      </trkpt>
      <trkpt lat="39.05887833" lon="-8.89027667">
        <ele>7.0</ele>
        <time>2019-05-16T14:30:51.916Z</time>
      </trkpt>
      <trkpt lat="39.05887833" lon="-8.89027667">
        <ele>7.0</ele>
        <time>2019-05-16T14:30:52.924Z</time>
      </trkpt>
      <trkpt lat="39.05887833" lon="-8.89027667">
        <ele>7.0</ele>
        <time>2019-05-16T14:30:53.916Z</time>
      </trkpt>
      <trkpt lat="39.05887833" lon="-8.89027667">
        <ele>7.0</ele>
        <time>2019-05-16T14:30:54.901Z</time>
      </trkpt>
      <trkpt lat="39.05887833" lon="-8.89027667">
        <ele>7.0</ele>
        <time>2019-05-16T14:30:55.927Z</time>
      </trkpt>
      <trkpt lat="39.05887833" lon="-8.89027667">
        <ele>7.0</ele>
        <time>2019-05-16T14:30:56.928Z</time>
      </trkpt>
      <trkpt lat="39.05887833" lon="-8.89027667">
        <ele>7.0</ele>
        <time>2019-05-16T14:30:57.922Z</time>
      </trkpt>
      <trkpt lat="39.05887833" lon="-8.89027667">
        <ele>7.0</ele>
        <time>2019-05-16T14:30:58.925Z</time>
      </trkpt>
      <trkpt lat="39.05887833" lon="-8.89027667">
        <ele>7.0</ele>
        <time>2019-05-16T14:30:59.921Z</time>
      </trkpt>
      <trkpt lat="39.05887833" lon="-8.89027667">
        <ele>7.0</ele>
        <time>2019-05-16T14:31:00.924Z</time>
      </trkpt>
      <trkpt lat="39.05887833" lon="-8.89027667">
        <ele>7.0</ele>
        <time>2019-05-16T14:31:01.931Z</time>
      </trkpt>
      <trkpt lat="39.05887833" lon="-8.89027667">
        <ele>7.0</ele>
        <time>2019-05-16T14:31:02.928Z</time>
      </trkpt>
      <trkpt lat="39.05887833" lon="-8.89027667">
        <ele>7.0</ele>
        <time>2019-05-16T14:31:03.920Z</time>
      </trkpt>
      <trkpt lat="39.05887833" lon="-8.89027667">
        <ele>7.0</ele>
        <time>2019-05-16T14:31:04.925Z</time>
      </trkpt>
      <trkpt lat="39.05887833" lon="-8.89027667">
        <ele>7.0</ele>
        <time>2019-05-16T14:31:05.932Z</time>
      </trkpt>
      <trkpt lat="39.05887833" lon="-8.89027667">
        <ele>7.0</ele>
        <time>2019-05-16T14:31:06.921Z</time>
      </trkpt>
      <trkpt lat="39.05887833" lon="-8.89027667">
        <ele>7.0</ele>
        <time>2019-05-16T14:31:07.917Z</time>
      </trkpt>
      <trkpt lat="39.05887833" lon="-8.89027667">
        <ele>7.0</ele>
        <time>2019-05-16T14:31:08.926Z</time>
      </trkpt>
      <trkpt lat="39.05887833" lon="-8.89027667">
        <ele>7.0</ele>
        <time>2019-05-16T14:31:09.921Z</time>
      </trkpt>
      <trkpt lat="39.05887833" lon="-8.89027667">
        <ele>7.0</ele>
        <time>2019-05-16T14:31:10.925Z</time>
      </trkpt>
      <trkpt lat="39.05887833" lon="-8.89027667">
        <ele>7.0</ele>
        <time>2019-05-16T14:31:11.919Z</time>
      </trkpt>
      <trkpt lat="39.05887833" lon="-8.89027667">
        <ele>7.0</ele>
        <time>2019-05-16T14:31:12.924Z</time>
      </trkpt>
      <trkpt lat="39.05887833" lon="-8.89027667">
        <ele>7.0</ele>
        <time>2019-05-16T14:31:13.924Z</time>
      </trkpt>
      <trkpt lat="39.05887833" lon="-8.89027667">
        <ele>7.0</ele>
        <time>2019-05-16T14:31:14.922Z</time>
      </trkpt>
      <trkpt lat="39.05887833" lon="-8.89027667">
        <ele>7.0</ele>
        <time>2019-05-16T14:31:15.899Z</time>
      </trkpt>
      <trkpt lat="39.05887833" lon="-8.89027667">
        <ele>7.0</ele>
        <time>2019-05-16T14:31:16.924Z</time>
      </trkpt>
      <trkpt lat="39.05887833" lon="-8.89027667">
        <ele>7.0</ele>
        <time>2019-05-16T14:31:17.922Z</time>
      </trkpt>
      <trkpt lat="39.05887833" lon="-8.89027667">
        <ele>7.0</ele>
        <time>2019-05-16T14:31:18.920Z</time>
      </trkpt>
      <trkpt lat="39.05887833" lon="-8.89027667">
        <ele>7.0</ele>
        <time>2019-05-16T14:31:19.931Z</time>
      </trkpt>
      <trkpt lat="39.05887833" lon="-8.89027667">
        <ele>7.0</ele>
        <time>2019-05-16T14:31:20.912Z</time>
      </trkpt>
      <trkpt lat="39.05887833" lon="-8.89027667">
        <ele>7.0</ele>
        <time>2019-05-16T14:31:21.915Z</time>
      </trkpt>
      <trkpt lat="39.05887833" lon="-8.89027667">
        <ele>7.0</ele>
        <time>2019-05-16T14:31:22.922Z</time>
      </trkpt>
      <trkpt lat="39.05887833" lon="-8.89027667">
        <ele>7.0</ele>
        <time>2019-05-16T14:31:23.928Z</time>
      </trkpt>
      <trkpt lat="39.05887833" lon="-8.89027667">
        <ele>7.0</ele>
        <time>2019-05-16T14:31:24.930Z</time>
      </trkpt>
      <trkpt lat="39.05887833" lon="-8.89027667">
        <ele>7.0</ele>
        <time>2019-05-16T14:31:25.920Z</time>
      </trkpt>
      <trkpt lat="39.05887833" lon="-8.89027667">
        <ele>7.0</ele>
        <time>2019-05-16T14:31:26.906Z</time>
      </trkpt>
      <trkpt lat="39.05887833" lon="-8.89027667">
        <ele>7.0</ele>
        <time>2019-05-16T14:31:27.931Z</time>
      </trkpt>
      <trkpt lat="39.05887833" lon="-8.89027667">
        <ele>7.0</ele>
        <time>2019-05-16T14:31:28.920Z</time>
      </trkpt>
      <trkpt lat="39.05887833" lon="-8.89027667">
        <ele>7.0</ele>
        <time>2019-05-16T14:31:29.924Z</time>
      </trkpt>
      <trkpt lat="39.05887833" lon="-8.89027667">
        <ele>7.0</ele>
        <time>2019-05-16T14:31:30.925Z</time>
      </trkpt>
      <trkpt lat="39.05887833" lon="-8.89027667">
        <ele>7.0</ele>
        <time>2019-05-16T14:31:31.919Z</time>
      </trkpt>
      <trkpt lat="39.05887833" lon="-8.89027667">
        <ele>7.0</ele>
        <time>2019-05-16T14:31:32.927Z</time>
      </trkpt>
      <trkpt lat="39.05887833" lon="-8.89027667">
        <ele>7.0</ele>
        <time>2019-05-16T14:31:33.920Z</time>
      </trkpt>
      <trkpt lat="39.05887833" lon="-8.89027667">
        <ele>7.0</ele>
        <time>2019-05-16T14:31:34.925Z</time>
      </trkpt>
      <trkpt lat="39.05887833" lon="-8.89027667">
        <ele>7.0</ele>
        <time>2019-05-16T14:31:35.920Z</time>
      </trkpt>
      <trkpt lat="39.05887833" lon="-8.89027667">
        <ele>7.0</ele>
        <time>2019-05-16T14:31:36.916Z</time>
      </trkpt>
      <trkpt lat="39.05887833" lon="-8.89027667">
        <ele>7.0</ele>
        <time>2019-05-16T14:31:37.925Z</time>
      </trkpt>
      <trkpt lat="39.05887833" lon="-8.89027667">
        <ele>7.0</ele>
        <time>2019-05-16T14:31:38.928Z</time>
      </trkpt>
      <trkpt lat="39.05887833" lon="-8.89027667">
        <ele>7.0</ele>
        <time>2019-05-16T14:31:39.920Z</time>
      </trkpt>
      <trkpt lat="39.05887833" lon="-8.89027667">
        <ele>7.0</ele>
        <time>2019-05-16T14:31:40.925Z</time>
      </trkpt>
      <trkpt lat="39.05887833" lon="-8.89027667">
        <ele>7.0</ele>
        <time>2019-05-16T14:31:41.922Z</time>
      </trkpt>
      <trkpt lat="39.05887833" lon="-8.89027667">
        <ele>7.0</ele>
        <time>2019-05-16T14:31:42.925Z</time>
      </trkpt>
      <trkpt lat="39.05887833" lon="-8.89027667">
        <ele>7.0</ele>
        <time>2019-05-16T14:31:43.926Z</time>
      </trkpt>
      <trkpt lat="39.05887833" lon="-8.89027667">
        <ele>7.0</ele>
        <time>2019-05-16T14:31:44.927Z</time>
      </trkpt>
      <trkpt lat="39.05887833" lon="-8.89027667">
        <ele>7.0</ele>
        <time>2019-05-16T14:31:45.922Z</time>
      </trkpt>
      <trkpt lat="39.05887833" lon="-8.89027667">
        <ele>7.0</ele>
        <time>2019-05-16T14:31:46.917Z</time>
      </trkpt>
      <trkpt lat="39.05887833" lon="-8.89027667">
        <ele>7.0</ele>
        <time>2019-05-16T14:31:47.925Z</time>
      </trkpt>
      <trkpt lat="39.05887833" lon="-8.89027667">
        <ele>7.0</ele>
        <time>2019-05-16T14:31:48.922Z</time>
      </trkpt>
      <trkpt lat="39.05887833" lon="-8.89027667">
        <ele>7.0</ele>
        <time>2019-05-16T14:31:49.926Z</time>
      </trkpt>
      <trkpt lat="39.05887833" lon="-8.89027667">
        <ele>7.0</ele>
        <time>2019-05-16T14:31:50.926Z</time>
      </trkpt>
      <trkpt lat="39.05887833" lon="-8.89027667">
        <ele>7.0</ele>
        <time>2019-05-16T14:31:51.919Z</time>
      </trkpt>
      <trkpt lat="39.05887833" lon="-8.89027667">
        <ele>7.0</ele>
        <time>2019-05-16T14:31:52.925Z</time>
      </trkpt>
      <trkpt lat="39.05887833" lon="-8.89027667">
        <ele>7.0</ele>
        <time>2019-05-16T14:31:53.925Z</time>
      </trkpt>
      <trkpt lat="39.05887833" lon="-8.89027667">
        <ele>7.0</ele>
        <time>2019-05-16T14:31:54.921Z</time>
      </trkpt>
      <trkpt lat="39.05887833" lon="-8.89027667">
        <ele>7.0</ele>
        <time>2019-05-16T14:31:55.925Z</time>
      </trkpt>
      <trkpt lat="39.05887833" lon="-8.89027667">
        <ele>7.0</ele>
        <time>2019-05-16T14:31:56.926Z</time>
      </trkpt>
      <trkpt lat="39.05887833" lon="-8.89027667">
        <ele>7.0</ele>
        <time>2019-05-16T14:31:57.925Z</time>
      </trkpt>
      <trkpt lat="39.05887833" lon="-8.89027667">
        <ele>7.0</ele>
        <time>2019-05-16T14:31:58.920Z</time>
      </trkpt>
      <trkpt lat="39.05887833" lon="-8.89027667">
        <ele>7.0</ele>
        <time>2019-05-16T14:31:59.925Z</time>
      </trkpt>
      <trkpt lat="39.05887833" lon="-8.89027667">
        <ele>7.0</ele>
        <time>2019-05-16T14:32:00.920Z</time>
      </trkpt>
      <trkpt lat="39.05887833" lon="-8.89027667">
        <ele>7.0</ele>
        <time>2019-05-16T14:32:01.932Z</time>
      </trkpt>
      <trkpt lat="39.05887833" lon="-8.89027667">
        <ele>7.0</ele>
        <time>2019-05-16T14:32:02.923Z</time>
      </trkpt>
      <trkpt lat="39.05887833" lon="-8.89027667">
        <ele>7.0</ele>
        <time>2019-05-16T14:32:03.925Z</time>
      </trkpt>
      <trkpt lat="39.05887833" lon="-8.89027667">
        <ele>7.0</ele>
        <time>2019-05-16T14:32:04.920Z</time>
      </trkpt>
      <trkpt lat="39.05887833" lon="-8.89027667">
        <ele>7.0</ele>
        <time>2019-05-16T14:32:05.925Z</time>
      </trkpt>
      <trkpt lat="39.05887833" lon="-8.89027667">
        <ele>7.0</ele>
        <time>2019-05-16T14:32:06.922Z</time>
      </trkpt>
      <trkpt lat="39.05887833" lon="-8.89027667">
        <ele>7.0</ele>
        <time>2019-05-16T14:32:07.925Z</time>
      </trkpt>
      <trkpt lat="39.05887833" lon="-8.89027667">
        <ele>7.0</ele>
        <time>2019-05-16T14:32:08.927Z</time>
      </trkpt>
      <trkpt lat="39.05887833" lon="-8.89027667">
        <ele>7.0</ele>
        <time>2019-05-16T14:32:09.921Z</time>
      </trkpt>
      <trkpt lat="39.05887833" lon="-8.89027667">
        <ele>7.0</ele>
        <time>2019-05-16T14:32:10.925Z</time>
      </trkpt>
      <trkpt lat="39.05887833" lon="-8.89027667">
        <ele>7.0</ele>
        <time>2019-05-16T14:32:11.922Z</time>
      </trkpt>
      <trkpt lat="39.05887833" lon="-8.89027667">
        <ele>7.0</ele>
        <time>2019-05-16T14:32:12.920Z</time>
      </trkpt>
      <trkpt lat="39.05887833" lon="-8.89027667">
        <ele>7.0</ele>
        <time>2019-05-16T14:32:13.924Z</time>
      </trkpt>
      <trkpt lat="39.05887833" lon="-8.89027667">
        <ele>7.0</ele>
        <time>2019-05-16T14:32:14.927Z</time>
      </trkpt>
      <trkpt lat="39.05887833" lon="-8.89027667">
        <ele>7.0</ele>
        <time>2019-05-16T14:32:15.923Z</time>
      </trkpt>
      <trkpt lat="39.05887833" lon="-8.89027667">
        <ele>7.0</ele>
        <time>2019-05-16T14:32:16.925Z</time>
      </trkpt>
      <trkpt lat="39.05887833" lon="-8.89027667">
        <ele>7.0</ele>
        <time>2019-05-16T14:32:17.920Z</time>
      </trkpt>
      <trkpt lat="39.05887833" lon="-8.89027667">
        <ele>7.0</ele>
        <time>2019-05-16T14:32:18.924Z</time>
      </trkpt>
      <trkpt lat="39.05887833" lon="-8.89027667">
        <ele>7.0</ele>
        <time>2019-05-16T14:32:19.921Z</time>
      </trkpt>
      <trkpt lat="39.05887833" lon="-8.89027667">
        <ele>7.0</ele>
        <time>2019-05-16T14:32:20.923Z</time>
      </trkpt>
      <trkpt lat="39.05887833" lon="-8.89027667">
        <ele>7.0</ele>
        <time>2019-05-16T14:32:21.908Z</time>
      </trkpt>
      <trkpt lat="39.05887833" lon="-8.89027667">
        <ele>7.0</ele>
        <time>2019-05-16T14:32:22.914Z</time>
      </trkpt>
      <trkpt lat="39.05887833" lon="-8.89027667">
        <ele>7.0</ele>
        <time>2019-05-16T14:32:23.900Z</time>
      </trkpt>
      <trkpt lat="39.05887833" lon="-8.89027667">
        <ele>7.0</ele>
        <time>2019-05-16T14:32:24.926Z</time>
      </trkpt>
      <trkpt lat="39.05887833" lon="-8.89027667">
        <ele>7.0</ele>
        <time>2019-05-16T14:32:25.898Z</time>
      </trkpt>
      <trkpt lat="39.05887833" lon="-8.89027667">
        <ele>7.0</ele>
        <time>2019-05-16T14:32:26.927Z</time>
      </trkpt>
      <trkpt lat="39.05887833" lon="-8.89027667">
        <ele>7.0</ele>
        <time>2019-05-16T14:32:27.920Z</time>
      </trkpt>
      <trkpt lat="39.05887833" lon="-8.89027667">
        <ele>7.0</ele>
        <time>2019-05-16T14:32:28.925Z</time>
      </trkpt>
      <trkpt lat="39.05887833" lon="-8.89027667">
        <ele>7.0</ele>
        <time>2019-05-16T14:32:29.921Z</time>
      </trkpt>
      <trkpt lat="39.05887833" lon="-8.89027667">
        <ele>7.0</ele>
        <time>2019-05-16T14:32:30.925Z</time>
      </trkpt>
      <trkpt lat="39.05887833" lon="-8.89027667">
        <ele>7.0</ele>
        <time>2019-05-16T14:32:31.920Z</time>
      </trkpt>
      <trkpt lat="39.05887833" lon="-8.89027667">
        <ele>7.0</ele>
        <time>2019-05-16T14:32:32.927Z</time>
      </trkpt>
      <trkpt lat="39.05887833" lon="-8.89027667">
        <ele>7.0</ele>
        <time>2019-05-16T14:32:33.920Z</time>
      </trkpt>
      <trkpt lat="39.05887833" lon="-8.89027667">
        <ele>7.0</ele>
        <time>2019-05-16T14:32:34.925Z</time>
      </trkpt>
      <trkpt lat="39.05887833" lon="-8.89027667">
        <ele>7.0</ele>
        <time>2019-05-16T14:32:35.924Z</time>
      </trkpt>
      <trkpt lat="39.05887833" lon="-8.89027667">
        <ele>7.0</ele>
        <time>2019-05-16T14:32:36.932Z</time>
      </trkpt>
      <trkpt lat="39.05887833" lon="-8.89027667">
        <ele>7.0</ele>
        <time>2019-05-16T14:32:37.919Z</time>
      </trkpt>
      <trkpt lat="39.05887833" lon="-8.89027667">
        <ele>7.0</ele>
        <time>2019-05-16T14:32:38.927Z</time>
      </trkpt>
      <trkpt lat="39.05887833" lon="-8.89027667">
        <ele>7.0</ele>
        <time>2019-05-16T14:32:39.920Z</time>
      </trkpt>
      <trkpt lat="39.05887833" lon="-8.89027667">
        <ele>7.0</ele>
        <time>2019-05-16T14:32:40.936Z</time>
      </trkpt>
      <trkpt lat="39.05887833" lon="-8.89027667">
        <ele>7.0</ele>
        <time>2019-05-16T14:32:41.922Z</time>
      </trkpt>
      <trkpt lat="39.05887833" lon="-8.89027667">
        <ele>7.0</ele>
        <time>2019-05-16T14:32:42.925Z</time>
      </trkpt>
      <trkpt lat="39.05887833" lon="-8.89027667">
        <ele>7.0</ele>
        <time>2019-05-16T14:32:43.918Z</time>
      </trkpt>
      <trkpt lat="39.05887833" lon="-8.89027667">
        <ele>7.0</ele>
        <time>2019-05-16T14:32:44.927Z</time>
      </trkpt>
      <trkpt lat="39.05887833" lon="-8.89027667">
        <ele>7.0</ele>
        <time>2019-05-16T14:32:45.920Z</time>
      </trkpt>
      <trkpt lat="39.05887833" lon="-8.89027667">
        <ele>7.0</ele>
        <time>2019-05-16T14:32:46.925Z</time>
      </trkpt>
      <trkpt lat="39.05887833" lon="-8.89027667">
        <ele>7.0</ele>
        <time>2019-05-16T14:32:47.897Z</time>
      </trkpt>
      <trkpt lat="39.05887833" lon="-8.89027667">
        <ele>7.0</ele>
        <time>2019-05-16T14:32:48.926Z</time>
      </trkpt>
      <trkpt lat="39.05887833" lon="-8.89027667">
        <ele>7.0</ele>
        <time>2019-05-16T14:32:49.921Z</time>
      </trkpt>
      <trkpt lat="39.05887833" lon="-8.89027667">
        <ele>7.0</ele>
        <time>2019-05-16T14:32:50.927Z</time>
      </trkpt>
      <trkpt lat="39.05887833" lon="-8.89027667">
        <ele>7.0</ele>
        <time>2019-05-16T14:32:51.925Z</time>
      </trkpt>
      <trkpt lat="39.05887833" lon="-8.89027667">
        <ele>7.0</ele>
        <time>2019-05-16T14:32:52.924Z</time>
      </trkpt>
      <trkpt lat="39.05887833" lon="-8.89027667">
        <ele>7.0</ele>
        <time>2019-05-16T14:32:53.920Z</time>
      </trkpt>
      <trkpt lat="39.05887833" lon="-8.89027667">
        <ele>7.0</ele>
        <time>2019-05-16T14:32:54.925Z</time>
      </trkpt>
      <trkpt lat="39.05887833" lon="-8.89027667">
        <ele>7.0</ele>
        <time>2019-05-16T14:32:55.920Z</time>
      </trkpt>
      <trkpt lat="39.05887833" lon="-8.89027667">
        <ele>7.0</ele>
        <time>2019-05-16T14:32:56.928Z</time>
      </trkpt>
      <trkpt lat="39.05887833" lon="-8.89027667">
        <ele>7.0</ele>
        <time>2019-05-16T14:32:57.922Z</time>
      </trkpt>
      <trkpt lat="39.05887833" lon="-8.89027667">
        <ele>7.0</ele>
        <time>2019-05-16T14:32:58.924Z</time>
      </trkpt>
      <trkpt lat="39.05887833" lon="-8.89027667">
        <ele>7.0</ele>
        <time>2019-05-16T14:32:59.921Z</time>
      </trkpt>
      <trkpt lat="39.05887833" lon="-8.89027667">
        <ele>7.0</ele>
        <time>2019-05-16T14:33:00.925Z</time>
      </trkpt>
      <trkpt lat="39.05887833" lon="-8.89027667">
        <ele>7.0</ele>
        <time>2019-05-16T14:33:01.932Z</time>
      </trkpt>
      <trkpt lat="39.05887833" lon="-8.89027667">
        <ele>7.0</ele>
        <time>2019-05-16T14:33:02.927Z</time>
      </trkpt>
      <trkpt lat="39.05887833" lon="-8.89027667">
        <ele>7.0</ele>
        <time>2019-05-16T14:33:03.926Z</time>
      </trkpt>
      <trkpt lat="39.05887833" lon="-8.89027667">
        <ele>7.0</ele>
        <time>2019-05-16T14:33:04.920Z</time>
      </trkpt>
      <trkpt lat="39.05887833" lon="-8.89027667">
        <ele>7.0</ele>
        <time>2019-05-16T14:33:05.924Z</time>
      </trkpt>
      <trkpt lat="39.05887833" lon="-8.89027667">
        <ele>7.0</ele>
        <time>2019-05-16T14:33:06.920Z</time>
      </trkpt>
      <trkpt lat="39.05887833" lon="-8.89027667">
        <ele>7.0</ele>
        <time>2019-05-16T14:33:07.925Z</time>
      </trkpt>
      <trkpt lat="39.05887833" lon="-8.89027667">
        <ele>7.0</ele>
        <time>2019-05-16T14:33:08.927Z</time>
      </trkpt>
      <trkpt lat="39.05887833" lon="-8.89027667">
        <ele>7.0</ele>
        <time>2019-05-16T14:33:09.921Z</time>
      </trkpt>
      <trkpt lat="39.05887833" lon="-8.89027667">
        <ele>7.0</ele>
        <time>2019-05-16T14:33:10.924Z</time>
      </trkpt>
      <trkpt lat="39.05887833" lon="-8.89027667">
        <ele>7.0</ele>
        <time>2019-05-16T14:33:11.920Z</time>
      </trkpt>
      <trkpt lat="39.05887833" lon="-8.89027667">
        <ele>7.0</ele>
        <time>2019-05-16T14:33:12.925Z</time>
      </trkpt>
      <trkpt lat="39.05887833" lon="-8.89027667">
        <ele>7.0</ele>
        <time>2019-05-16T14:33:13.925Z</time>
      </trkpt>
      <trkpt lat="39.05887833" lon="-8.89027667">
        <ele>7.0</ele>
        <time>2019-05-16T14:33:14.922Z</time>
      </trkpt>
      <trkpt lat="39.05887833" lon="-8.89027667">
        <ele>7.0</ele>
        <time>2019-05-16T14:33:15.922Z</time>
      </trkpt>
      <trkpt lat="39.05887833" lon="-8.89027667">
        <ele>7.0</ele>
        <time>2019-05-16T14:33:16.925Z</time>
      </trkpt>
      <trkpt lat="39.05887833" lon="-8.89027667">
        <ele>7.0</ele>
        <time>2019-05-16T14:33:17.925Z</time>
      </trkpt>
      <trkpt lat="39.05887833" lon="-8.89027667">
        <ele>7.0</ele>
        <time>2019-05-16T14:33:18.925Z</time>
      </trkpt>
      <trkpt lat="39.05887833" lon="-8.89027667">
        <ele>7.0</ele>
        <time>2019-05-16T14:33:19.921Z</time>
      </trkpt>
      <trkpt lat="39.05887833" lon="-8.89027667">
        <ele>7.0</ele>
        <time>2019-05-16T14:33:20.923Z</time>
      </trkpt>
      <trkpt lat="39.05887833" lon="-8.89027667">
        <ele>7.0</ele>
        <time>2019-05-16T14:33:21.920Z</time>
      </trkpt>
      <trkpt lat="39.05887833" lon="-8.89027667">
        <ele>7.0</ele>
        <time>2019-05-16T14:33:22.926Z</time>
      </trkpt>
      <trkpt lat="39.05885" lon="-8.89028333">
        <ele>6.0</ele>
        <time>2019-05-16T14:33:23.902Z</time>
      </trkpt>
      <trkpt lat="39.05885" lon="-8.89028333">
        <ele>6.0</ele>
        <time>2019-05-16T14:33:24.928Z</time>
      </trkpt>
      <trkpt lat="39.058845" lon="-8.890255">
        <ele>6.0</ele>
        <time>2019-05-16T14:33:25.934Z</time>
      </trkpt>
      <trkpt lat="39.058845" lon="-8.890255">
        <ele>6.0</ele>
        <time>2019-05-16T14:33:26.922Z</time>
      </trkpt>
      <trkpt lat="39.058855" lon="-8.89021167">
        <ele>5.0</ele>
        <time>2019-05-16T14:33:27.920Z</time>
      </trkpt>
      <trkpt lat="39.05886667" lon="-8.8902">
        <ele>5.0</ele>
        <time>2019-05-16T14:33:28.925Z</time>
      </trkpt>
      <trkpt lat="39.05886667" lon="-8.8902">
        <ele>5.0</ele>
        <time>2019-05-16T14:33:29.921Z</time>
      </trkpt>
      <trkpt lat="39.05887" lon="-8.89019167">
        <ele>5.0</ele>
        <time>2019-05-16T14:33:30.925Z</time>
      </trkpt>
      <trkpt lat="39.05887" lon="-8.89019167">
        <ele>5.0</ele>
        <time>2019-05-16T14:33:31.920Z</time>
      </trkpt>
      <trkpt lat="39.05885667" lon="-8.89019167">
        <ele>6.0</ele>
        <time>2019-05-16T14:33:32.943Z</time>
      </trkpt>
      <trkpt lat="39.05885667" lon="-8.89019167">
        <ele>6.0</ele>
        <time>2019-05-16T14:33:33.913Z</time>
      </trkpt>
      <trkpt lat="39.05885667" lon="-8.89019167">
        <ele>6.0</ele>
        <time>2019-05-16T14:33:34.936Z</time>
      </trkpt>
      <trkpt lat="39.05885667" lon="-8.89019167">
        <ele>6.0</ele>
        <time>2019-05-16T14:33:35.924Z</time>
      </trkpt>
      <trkpt lat="39.05885667" lon="-8.89019167">
        <ele>6.0</ele>
        <time>2019-05-16T14:33:36.897Z</time>
      </trkpt>
      <trkpt lat="39.05885667" lon="-8.89019167">
        <ele>6.0</ele>
        <time>2019-05-16T14:33:37.903Z</time>
      </trkpt>
      <trkpt lat="39.05885667" lon="-8.89019167">
        <ele>6.0</ele>
        <time>2019-05-16T14:33:38.933Z</time>
      </trkpt>
      <trkpt lat="39.05885667" lon="-8.89019167">
        <ele>6.0</ele>
        <time>2019-05-16T14:33:39.921Z</time>
      </trkpt>
      <trkpt lat="39.05885667" lon="-8.89019167">
        <ele>6.0</ele>
        <time>2019-05-16T14:33:40.925Z</time>
      </trkpt>
      <trkpt lat="39.05885667" lon="-8.89019167">
        <ele>6.0</ele>
        <time>2019-05-16T14:33:41.920Z</time>
      </trkpt>
      <trkpt lat="39.05885667" lon="-8.89019167">
        <ele>6.0</ele>
        <time>2019-05-16T14:33:42.925Z</time>
      </trkpt>
      <trkpt lat="39.05885667" lon="-8.89019167">
        <ele>6.0</ele>
        <time>2019-05-16T14:33:43.920Z</time>
      </trkpt>
      <trkpt lat="39.05886167" lon="-8.89017833">
        <ele>6.0</ele>
        <time>2019-05-16T14:33:44.927Z</time>
      </trkpt>
      <trkpt lat="39.05886167" lon="-8.89017833">
        <ele>6.0</ele>
        <time>2019-05-16T14:33:45.920Z</time>
      </trkpt>
      <trkpt lat="39.05889167" lon="-8.89017667">
        <ele>6.0</ele>
        <time>2019-05-16T14:33:46.926Z</time>
      </trkpt>
      <trkpt lat="39.05889167" lon="-8.89017667">
        <ele>6.0</ele>
        <time>2019-05-16T14:33:47.927Z</time>
      </trkpt>
      <trkpt lat="39.05892" lon="-8.89015833">
        <ele>6.0</ele>
        <time>2019-05-16T14:33:48.925Z</time>
      </trkpt>
      <trkpt lat="39.05892" lon="-8.89015833">
        <ele>6.0</ele>
        <time>2019-05-16T14:33:49.921Z</time>
      </trkpt>
      <trkpt lat="39.05894667" lon="-8.89011833">
        <ele>5.0</ele>
        <time>2019-05-16T14:33:50.911Z</time>
      </trkpt>
      <trkpt lat="39.05894667" lon="-8.89011833">
        <ele>5.0</ele>
        <time>2019-05-16T14:33:51.903Z</time>
      </trkpt>
      <trkpt lat="39.05897" lon="-8.89005667">
        <ele>5.0</ele>
        <time>2019-05-16T14:33:52.930Z</time>
      </trkpt>
      <trkpt lat="39.05897" lon="-8.89005667">
        <ele>5.0</ele>
        <time>2019-05-16T14:33:53.923Z</time>
      </trkpt>
      <trkpt lat="39.058995" lon="-8.88998667">
        <ele>5.0</ele>
        <time>2019-05-16T14:33:54.908Z</time>
      </trkpt>
      <trkpt lat="39.058995" lon="-8.88998667">
        <ele>5.0</ele>
        <time>2019-05-16T14:33:55.933Z</time>
      </trkpt>
      <trkpt lat="39.059025" lon="-8.88991167">
        <ele>5.0</ele>
        <time>2019-05-16T14:33:56.931Z</time>
      </trkpt>
      <trkpt lat="39.059025" lon="-8.88991167">
        <ele>5.0</ele>
        <time>2019-05-16T14:33:57.928Z</time>
      </trkpt>
      <trkpt lat="39.05905167" lon="-8.88983">
        <ele>5.0</ele>
        <time>2019-05-16T14:33:58.938Z</time>
      </trkpt>
      <trkpt lat="39.05905167" lon="-8.88983">
        <ele>5.0</ele>
        <time>2019-05-16T14:33:59.904Z</time>
      </trkpt>
      <trkpt lat="39.05908333" lon="-8.88974167">
        <ele>4.0</ele>
        <time>2019-05-16T14:34:00.923Z</time>
      </trkpt>
      <trkpt lat="39.05908333" lon="-8.88974167">
        <ele>4.0</ele>
        <time>2019-05-16T14:34:01.914Z</time>
      </trkpt>
      <trkpt lat="39.059115" lon="-8.88965">
        <ele>4.0</ele>
        <time>2019-05-16T14:34:02.936Z</time>
      </trkpt>
      <trkpt lat="39.059115" lon="-8.88965">
        <ele>4.0</ele>
        <time>2019-05-16T14:34:03.902Z</time>
      </trkpt>
      <trkpt lat="39.05914667" lon="-8.88955667">
        <ele>4.0</ele>
        <time>2019-05-16T14:34:04.928Z</time>
      </trkpt>
      <trkpt lat="39.05914667" lon="-8.88955667">
        <ele>4.0</ele>
        <time>2019-05-16T14:34:05.933Z</time>
      </trkpt>
      <trkpt lat="39.05918" lon="-8.88945833">
        <ele>4.0</ele>
        <time>2019-05-16T14:34:06.907Z</time>
      </trkpt>
      <trkpt lat="39.05918" lon="-8.88945833">
        <ele>4.0</ele>
        <time>2019-05-16T14:34:07.926Z</time>
      </trkpt>
      <trkpt lat="39.059215" lon="-8.88935667">
        <ele>4.0</ele>
        <time>2019-05-16T14:34:08.911Z</time>
      </trkpt>
      <trkpt lat="39.059215" lon="-8.88935667">
        <ele>4.0</ele>
        <time>2019-05-16T14:34:09.903Z</time>
      </trkpt>
      <trkpt lat="39.05925" lon="-8.889255">
        <ele>3.0</ele>
        <time>2019-05-16T14:34:10.933Z</time>
      </trkpt>
      <trkpt lat="39.05925" lon="-8.889255">
        <ele>3.0</ele>
        <time>2019-05-16T14:34:11.914Z</time>
      </trkpt>
      <trkpt lat="39.05928333" lon="-8.88915">
        <ele>4.0</ele>
        <time>2019-05-16T14:34:12.901Z</time>
      </trkpt>
      <trkpt lat="39.05928333" lon="-8.88915">
        <ele>4.0</ele>
        <time>2019-05-16T14:34:13.917Z</time>
      </trkpt>
      <trkpt lat="39.05932333" lon="-8.88903667">
        <ele>4.0</ele>
        <time>2019-05-16T14:34:14.937Z</time>
      </trkpt>
      <trkpt lat="39.05932333" lon="-8.88903667">
        <ele>4.0</ele>
        <time>2019-05-16T14:34:15.915Z</time>
      </trkpt>
      <trkpt lat="39.059365" lon="-8.88892333">
        <ele>3.0</ele>
        <time>2019-05-16T14:34:16.899Z</time>
      </trkpt>
      <trkpt lat="39.059365" lon="-8.88892333">
        <ele>3.0</ele>
        <time>2019-05-16T14:34:17.923Z</time>
      </trkpt>
      <trkpt lat="39.05940667" lon="-8.88880667">
        <ele>3.0</ele>
        <time>2019-05-16T14:34:18.911Z</time>
      </trkpt>
      <trkpt lat="39.05940667" lon="-8.88880667">
        <ele>3.0</ele>
        <time>2019-05-16T14:34:19.928Z</time>
      </trkpt>
      <trkpt lat="39.059445" lon="-8.888695">
        <ele>3.0</ele>
        <time>2019-05-16T14:34:20.921Z</time>
      </trkpt>
      <trkpt lat="39.059445" lon="-8.888695">
        <ele>3.0</ele>
        <time>2019-05-16T14:34:21.929Z</time>
      </trkpt>
      <trkpt lat="39.05948" lon="-8.88858333">
        <ele>3.0</ele>
        <time>2019-05-16T14:34:22.921Z</time>
      </trkpt>
      <trkpt lat="39.05948" lon="-8.88858333">
        <ele>3.0</ele>
        <time>2019-05-16T14:34:23.908Z</time>
      </trkpt>
      <trkpt lat="39.05951667" lon="-8.88847667">
        <ele>3.0</ele>
        <time>2019-05-16T14:34:24.918Z</time>
      </trkpt>
      <trkpt lat="39.05951667" lon="-8.88847667">
        <ele>3.0</ele>
        <time>2019-05-16T14:34:25.901Z</time>
      </trkpt>
      <trkpt lat="39.05954833" lon="-8.88837167">
        <ele>2.0</ele>
        <time>2019-05-16T14:34:26.921Z</time>
      </trkpt>
      <trkpt lat="39.05954833" lon="-8.88837167">
        <ele>2.0</ele>
        <time>2019-05-16T14:34:27.936Z</time>
      </trkpt>
      <trkpt lat="39.05958167" lon="-8.88826333">
        <ele>2.0</ele>
        <time>2019-05-16T14:34:28.918Z</time>
      </trkpt>
      <trkpt lat="39.05958167" lon="-8.88826333">
        <ele>2.0</ele>
        <time>2019-05-16T14:34:29.903Z</time>
      </trkpt>
      <trkpt lat="39.05961667" lon="-8.88815667">
        <ele>2.0</ele>
        <time>2019-05-16T14:34:30.934Z</time>
      </trkpt>
      <trkpt lat="39.05961667" lon="-8.88815667">
        <ele>2.0</ele>
        <time>2019-05-16T14:34:31.914Z</time>
      </trkpt>
      <trkpt lat="39.05965667" lon="-8.888045">
        <ele>3.0</ele>
        <time>2019-05-16T14:34:32.897Z</time>
      </trkpt>
      <trkpt lat="39.05965667" lon="-8.888045">
        <ele>3.0</ele>
        <time>2019-05-16T14:34:33.915Z</time>
      </trkpt>
      <trkpt lat="39.059695" lon="-8.88793">
        <ele>2.0</ele>
        <time>2019-05-16T14:34:34.899Z</time>
      </trkpt>
      <trkpt lat="39.059695" lon="-8.88793">
        <ele>2.0</ele>
        <time>2019-05-16T14:34:35.926Z</time>
      </trkpt>
      <trkpt lat="39.05973" lon="-8.887815">
        <ele>3.0</ele>
        <time>2019-05-16T14:34:36.899Z</time>
      </trkpt>
      <trkpt lat="39.05973" lon="-8.887815">
        <ele>3.0</ele>
        <time>2019-05-16T14:34:37.925Z</time>
      </trkpt>
      <trkpt lat="39.05976833" lon="-8.88771167">
        <ele>3.0</ele>
        <time>2019-05-16T14:34:38.909Z</time>
      </trkpt>
      <trkpt lat="39.05976833" lon="-8.88771167">
        <ele>3.0</ele>
        <time>2019-05-16T14:34:39.923Z</time>
      </trkpt>
      <trkpt lat="39.05980333" lon="-8.88761167">
        <ele>3.0</ele>
        <time>2019-05-16T14:34:40.924Z</time>
      </trkpt>
      <trkpt lat="39.05980333" lon="-8.88761167">
        <ele>3.0</ele>
        <time>2019-05-16T14:34:41.933Z</time>
      </trkpt>
      <trkpt lat="39.05984" lon="-8.88751333">
        <ele>3.0</ele>
        <time>2019-05-16T14:34:42.923Z</time>
      </trkpt>
      <trkpt lat="39.05984" lon="-8.88751333">
        <ele>3.0</ele>
        <time>2019-05-16T14:34:43.905Z</time>
      </trkpt>
      <trkpt lat="39.05987167" lon="-8.88741833">
        <ele>3.0</ele>
        <time>2019-05-16T14:34:44.922Z</time>
      </trkpt>
      <trkpt lat="39.05987167" lon="-8.88741833">
        <ele>3.0</ele>
        <time>2019-05-16T14:34:45.918Z</time>
      </trkpt>
      <trkpt lat="39.05990167" lon="-8.88732">
        <ele>2.0</ele>
        <time>2019-05-16T14:34:46.911Z</time>
      </trkpt>
      <trkpt lat="39.05990167" lon="-8.88732">
        <ele>2.0</ele>
        <time>2019-05-16T14:34:47.933Z</time>
      </trkpt>
      <trkpt lat="39.05993333" lon="-8.88722833">
        <ele>2.0</ele>
        <time>2019-05-16T14:34:48.916Z</time>
      </trkpt>
      <trkpt lat="39.05995" lon="-8.88718333">
        <ele>2.0</ele>
        <time>2019-05-16T14:34:49.930Z</time>
      </trkpt>
      <trkpt lat="39.05996833" lon="-8.88713833">
        <ele>2.0</ele>
        <time>2019-05-16T14:34:50.911Z</time>
      </trkpt>
      <trkpt lat="39.05996833" lon="-8.88713833">
        <ele>2.0</ele>
        <time>2019-05-16T14:34:51.913Z</time>
      </trkpt>
      <trkpt lat="39.06" lon="-8.88705">
        <ele>3.0</ele>
        <time>2019-05-16T14:34:52.929Z</time>
      </trkpt>
      <trkpt lat="39.06" lon="-8.88705">
        <ele>3.0</ele>
        <time>2019-05-16T14:34:53.923Z</time>
      </trkpt>
      <trkpt lat="39.06002667" lon="-8.88696167">
        <ele>2.0</ele>
        <time>2019-05-16T14:34:54.901Z</time>
      </trkpt>
      <trkpt lat="39.06002667" lon="-8.88696167">
        <ele>2.0</ele>
        <time>2019-05-16T14:34:55.915Z</time>
      </trkpt>
      <trkpt lat="39.060055" lon="-8.88687">
        <ele>2.0</ele>
        <time>2019-05-16T14:34:56.905Z</time>
      </trkpt>
      <trkpt lat="39.060055" lon="-8.88687">
        <ele>2.0</ele>
        <time>2019-05-16T14:34:57.936Z</time>
      </trkpt>
      <trkpt lat="39.06008667" lon="-8.88678">
        <ele>2.0</ele>
        <time>2019-05-16T14:34:58.918Z</time>
      </trkpt>
      <trkpt lat="39.06008667" lon="-8.88678">
        <ele>2.0</ele>
        <time>2019-05-16T14:34:59.915Z</time>
      </trkpt>
      <trkpt lat="39.060115" lon="-8.88669333">
        <ele>2.0</ele>
        <time>2019-05-16T14:35:00.907Z</time>
      </trkpt>
      <trkpt lat="39.060115" lon="-8.88669333">
        <ele>2.0</ele>
        <time>2019-05-16T14:35:01.923Z</time>
      </trkpt>
      <trkpt lat="39.06014333" lon="-8.88660667">
        <ele>2.0</ele>
        <time>2019-05-16T14:35:02.905Z</time>
      </trkpt>
      <trkpt lat="39.06014333" lon="-8.88660667">
        <ele>2.0</ele>
        <time>2019-05-16T14:35:03.914Z</time>
      </trkpt>
      <trkpt lat="39.06017333" lon="-8.88652">
        <ele>3.0</ele>
        <time>2019-05-16T14:35:04.938Z</time>
      </trkpt>
      <trkpt lat="39.06017333" lon="-8.88652">
        <ele>3.0</ele>
        <time>2019-05-16T14:35:05.919Z</time>
      </trkpt>
      <trkpt lat="39.06020833" lon="-8.88643167">
        <ele>3.0</ele>
        <time>2019-05-16T14:35:06.911Z</time>
      </trkpt>
      <trkpt lat="39.06020833" lon="-8.88643167">
        <ele>3.0</ele>
        <time>2019-05-16T14:35:07.935Z</time>
      </trkpt>
      <trkpt lat="39.06024167" lon="-8.88634333">
        <ele>3.0</ele>
        <time>2019-05-16T14:35:08.918Z</time>
      </trkpt>
      <trkpt lat="39.06024167" lon="-8.88634333">
        <ele>3.0</ele>
        <time>2019-05-16T14:35:09.912Z</time>
      </trkpt>
      <trkpt lat="39.060275" lon="-8.886255">
        <ele>2.0</ele>
        <time>2019-05-16T14:35:10.933Z</time>
      </trkpt>
      <trkpt lat="39.060275" lon="-8.886255">
        <ele>2.0</ele>
        <time>2019-05-16T14:35:11.901Z</time>
      </trkpt>
      <trkpt lat="39.06031167" lon="-8.88616833">
        <ele>2.0</ele>
        <time>2019-05-16T14:35:12.922Z</time>
      </trkpt>
      <trkpt lat="39.06031167" lon="-8.88616833">
        <ele>2.0</ele>
        <time>2019-05-16T14:35:13.903Z</time>
      </trkpt>
      <trkpt lat="39.06034667" lon="-8.88608333">
        <ele>2.0</ele>
        <time>2019-05-16T14:35:14.927Z</time>
      </trkpt>
      <trkpt lat="39.06034667" lon="-8.88608333">
        <ele>2.0</ele>
        <time>2019-05-16T14:35:15.916Z</time>
      </trkpt>
      <trkpt lat="39.060385" lon="-8.88599667">
        <ele>2.0</ele>
        <time>2019-05-16T14:35:16.901Z</time>
      </trkpt>
      <trkpt lat="39.060385" lon="-8.88599667">
        <ele>2.0</ele>
        <time>2019-05-16T14:35:17.905Z</time>
      </trkpt>
      <trkpt lat="39.06042333" lon="-8.88591">
        <ele>2.0</ele>
        <time>2019-05-16T14:35:18.921Z</time>
      </trkpt>
      <trkpt lat="39.06042333" lon="-8.88591">
        <ele>2.0</ele>
        <time>2019-05-16T14:35:19.916Z</time>
      </trkpt>
      <trkpt lat="39.06046667" lon="-8.88582333">
        <ele>2.0</ele>
        <time>2019-05-16T14:35:20.898Z</time>
      </trkpt>
      <trkpt lat="39.06046667" lon="-8.88582333">
        <ele>2.0</ele>
        <time>2019-05-16T14:35:21.897Z</time>
      </trkpt>
      <trkpt lat="39.06051" lon="-8.885735">
        <ele>2.0</ele>
        <time>2019-05-16T14:35:22.926Z</time>
      </trkpt>
      <trkpt lat="39.06051" lon="-8.885735">
        <ele>2.0</ele>
        <time>2019-05-16T14:35:23.921Z</time>
      </trkpt>
      <trkpt lat="39.06054667" lon="-8.88564833">
        <ele>2.0</ele>
        <time>2019-05-16T14:35:24.930Z</time>
      </trkpt>
      <trkpt lat="39.06054667" lon="-8.88564833">
        <ele>2.0</ele>
        <time>2019-05-16T14:35:25.901Z</time>
      </trkpt>
      <trkpt lat="39.06058833" lon="-8.88556167">
        <ele>3.0</ele>
        <time>2019-05-16T14:35:26.924Z</time>
      </trkpt>
      <trkpt lat="39.06058833" lon="-8.88556167">
        <ele>3.0</ele>
        <time>2019-05-16T14:35:27.911Z</time>
      </trkpt>
      <trkpt lat="39.06063" lon="-8.88547833">
        <ele>3.0</ele>
        <time>2019-05-16T14:35:28.934Z</time>
      </trkpt>
      <trkpt lat="39.06063" lon="-8.88547833">
        <ele>3.0</ele>
        <time>2019-05-16T14:35:29.916Z</time>
      </trkpt>
      <trkpt lat="39.06067167" lon="-8.88539167">
        <ele>2.0</ele>
        <time>2019-05-16T14:35:30.921Z</time>
      </trkpt>
      <trkpt lat="39.06067167" lon="-8.88539167">
        <ele>2.0</ele>
        <time>2019-05-16T14:35:31.903Z</time>
      </trkpt>
      <trkpt lat="39.06071833" lon="-8.88530833">
        <ele>2.0</ele>
        <time>2019-05-16T14:35:32.900Z</time>
      </trkpt>
      <trkpt lat="39.06071833" lon="-8.88530833">
        <ele>2.0</ele>
        <time>2019-05-16T14:35:33.932Z</time>
      </trkpt>
      <trkpt lat="39.060765" lon="-8.88522167">
        <ele>2.0</ele>
        <time>2019-05-16T14:35:34.909Z</time>
      </trkpt>
      <trkpt lat="39.060765" lon="-8.88522167">
        <ele>2.0</ele>
        <time>2019-05-16T14:35:35.933Z</time>
      </trkpt>
      <trkpt lat="39.06081167" lon="-8.88513833">
        <ele>2.0</ele>
        <time>2019-05-16T14:35:36.916Z</time>
      </trkpt>
      <trkpt lat="39.06081167" lon="-8.88513833">
        <ele>2.0</ele>
        <time>2019-05-16T14:35:37.902Z</time>
      </trkpt>
      <trkpt lat="39.06085333" lon="-8.885055">
        <ele>2.0</ele>
        <time>2019-05-16T14:35:38.925Z</time>
      </trkpt>
      <trkpt lat="39.06085333" lon="-8.885055">
        <ele>2.0</ele>
        <time>2019-05-16T14:35:39.917Z</time>
      </trkpt>
      <trkpt lat="39.06089833" lon="-8.88497167">
        <ele>2.0</ele>
        <time>2019-05-16T14:35:40.901Z</time>
      </trkpt>
      <trkpt lat="39.06089833" lon="-8.88497167">
        <ele>2.0</ele>
        <time>2019-05-16T14:35:41.904Z</time>
      </trkpt>
      <trkpt lat="39.060945" lon="-8.88489">
        <ele>2.0</ele>
        <time>2019-05-16T14:35:42.924Z</time>
      </trkpt>
      <trkpt lat="39.060945" lon="-8.88489">
        <ele>2.0</ele>
        <time>2019-05-16T14:35:43.930Z</time>
      </trkpt>
      <trkpt lat="39.06099667" lon="-8.88480667">
        <ele>2.0</ele>
        <time>2019-05-16T14:35:44.902Z</time>
      </trkpt>
      <trkpt lat="39.06099667" lon="-8.88480667">
        <ele>2.0</ele>
        <time>2019-05-16T14:35:45.918Z</time>
      </trkpt>
      <trkpt lat="39.06104833" lon="-8.88471833">
        <ele>1.0</ele>
        <time>2019-05-16T14:35:46.937Z</time>
      </trkpt>
      <trkpt lat="39.06104833" lon="-8.88471833">
        <ele>1.0</ele>
        <time>2019-05-16T14:35:47.909Z</time>
      </trkpt>
      <trkpt lat="39.06110167" lon="-8.88462833">
        <ele>1.0</ele>
        <time>2019-05-16T14:35:48.923Z</time>
      </trkpt>
      <trkpt lat="39.06110167" lon="-8.88462833">
        <ele>1.0</ele>
        <time>2019-05-16T14:35:49.933Z</time>
      </trkpt>
      <trkpt lat="39.06115333" lon="-8.88453833">
        <ele>1.0</ele>
        <time>2019-05-16T14:35:50.910Z</time>
      </trkpt>
      <trkpt lat="39.06115333" lon="-8.88453833">
        <ele>1.0</ele>
        <time>2019-05-16T14:35:51.921Z</time>
      </trkpt>
      <trkpt lat="39.06120667" lon="-8.884445">
        <ele>1.0</ele>
        <time>2019-05-16T14:35:52.905Z</time>
      </trkpt>
      <trkpt lat="39.06120667" lon="-8.884445">
        <ele>1.0</ele>
        <time>2019-05-16T14:35:53.924Z</time>
      </trkpt>
      <trkpt lat="39.06126167" lon="-8.884355">
        <ele>1.0</ele>
        <time>2019-05-16T14:35:54.927Z</time>
      </trkpt>
      <trkpt lat="39.06126167" lon="-8.884355">
        <ele>1.0</ele>
        <time>2019-05-16T14:35:55.913Z</time>
      </trkpt>
      <trkpt lat="39.06131333" lon="-8.884265">
        <ele>1.0</ele>
        <time>2019-05-16T14:35:56.935Z</time>
      </trkpt>
      <trkpt lat="39.06131333" lon="-8.884265">
        <ele>1.0</ele>
        <time>2019-05-16T14:35:57.912Z</time>
      </trkpt>
      <trkpt lat="39.061365" lon="-8.88417667">
        <ele>1.0</ele>
        <time>2019-05-16T14:35:58.928Z</time>
      </trkpt>
      <trkpt lat="39.06139167" lon="-8.88413333">
        <ele>1.0</ele>
        <time>2019-05-16T14:35:59.911Z</time>
      </trkpt>
      <trkpt lat="39.06139167" lon="-8.88413333">
        <ele>1.0</ele>
        <time>2019-05-16T14:36:00.903Z</time>
      </trkpt>
      <trkpt lat="39.06144333" lon="-8.88404667">
        <ele>1.0</ele>
        <time>2019-05-16T14:36:01.930Z</time>
      </trkpt>
      <trkpt lat="39.06147" lon="-8.884005">
        <ele>1.0</ele>
        <time>2019-05-16T14:36:02.902Z</time>
      </trkpt>
      <trkpt lat="39.06147" lon="-8.884005">
        <ele>1.0</ele>
        <time>2019-05-16T14:36:03.934Z</time>
      </trkpt>
      <trkpt lat="39.06152333" lon="-8.883915">
        <ele>1.0</ele>
        <time>2019-05-16T14:36:04.912Z</time>
      </trkpt>
      <trkpt lat="39.06152333" lon="-8.883915">
        <ele>1.0</ele>
        <time>2019-05-16T14:36:05.915Z</time>
      </trkpt>
      <trkpt lat="39.06157667" lon="-8.883825">
        <ele>1.0</ele>
        <time>2019-05-16T14:36:06.936Z</time>
      </trkpt>
      <trkpt lat="39.06157667" lon="-8.883825">
        <ele>1.0</ele>
        <time>2019-05-16T14:36:07.906Z</time>
      </trkpt>
      <trkpt lat="39.06163" lon="-8.88373667">
        <ele>0.0</ele>
        <time>2019-05-16T14:36:08.942Z</time>
      </trkpt>
      <trkpt lat="39.06163" lon="-8.88373667">
        <ele>0.0</ele>
        <time>2019-05-16T14:36:09.922Z</time>
      </trkpt>
      <trkpt lat="39.06168333" lon="-8.88364667">
        <ele>0.0</ele>
        <time>2019-05-16T14:36:10.901Z</time>
      </trkpt>
      <trkpt lat="39.06168333" lon="-8.88364667">
        <ele>0.0</ele>
        <time>2019-05-16T14:36:11.933Z</time>
      </trkpt>
      <trkpt lat="39.061735" lon="-8.88355833">
        <ele>0.0</ele>
        <time>2019-05-16T14:36:12.910Z</time>
      </trkpt>
      <trkpt lat="39.061735" lon="-8.88355833">
        <ele>0.0</ele>
        <time>2019-05-16T14:36:13.903Z</time>
      </trkpt>
      <trkpt lat="39.06178667" lon="-8.88346833">
        <ele>0.0</ele>
        <time>2019-05-16T14:36:14.898Z</time>
      </trkpt>
      <trkpt lat="39.06178667" lon="-8.88346833">
        <ele>0.0</ele>
        <time>2019-05-16T14:36:15.928Z</time>
      </trkpt>
      <trkpt lat="39.06183833" lon="-8.88338">
        <ele>0.0</ele>
        <time>2019-05-16T14:36:16.908Z</time>
      </trkpt>
      <trkpt lat="39.06183833" lon="-8.88338">
        <ele>0.0</ele>
        <time>2019-05-16T14:36:17.928Z</time>
      </trkpt>
      <trkpt lat="39.06188667" lon="-8.88329">
        <ele>0.0</ele>
        <time>2019-05-16T14:36:18.906Z</time>
      </trkpt>
      <trkpt lat="39.06188667" lon="-8.88329">
        <ele>0.0</ele>
        <time>2019-05-16T14:36:19.909Z</time>
      </trkpt>
      <trkpt lat="39.061935" lon="-8.88320667">
        <ele>0.0</ele>
        <time>2019-05-16T14:36:20.917Z</time>
      </trkpt>
      <trkpt lat="39.061935" lon="-8.88320667">
        <ele>0.0</ele>
        <time>2019-05-16T14:36:21.917Z</time>
      </trkpt>
      <trkpt lat="39.06198667" lon="-8.88312">
        <ele>0.0</ele>
        <time>2019-05-16T14:36:22.906Z</time>
      </trkpt>
      <trkpt lat="39.06198667" lon="-8.88312">
        <ele>0.0</ele>
        <time>2019-05-16T14:36:23.923Z</time>
      </trkpt>
      <trkpt lat="39.06203833" lon="-8.88303">
        <ele>0.0</ele>
        <time>2019-05-16T14:36:24.908Z</time>
      </trkpt>
      <trkpt lat="39.062065" lon="-8.88298333">
        <ele>0.0</ele>
        <time>2019-05-16T14:36:25.921Z</time>
      </trkpt>
      <trkpt lat="39.06209167" lon="-8.88293667">
        <ele>0.0</ele>
        <time>2019-05-16T14:36:26.898Z</time>
      </trkpt>
      <trkpt lat="39.06209167" lon="-8.88293667">
        <ele>0.0</ele>
        <time>2019-05-16T14:36:27.923Z</time>
      </trkpt>
      <trkpt lat="39.06214667" lon="-8.882845">
        <ele>0.0</ele>
        <time>2019-05-16T14:36:28.900Z</time>
      </trkpt>
      <trkpt lat="39.06214667" lon="-8.882845">
        <ele>0.0</ele>
        <time>2019-05-16T14:36:29.901Z</time>
      </trkpt>
      <trkpt lat="39.06220333" lon="-8.88275333">
        <ele>0.0</ele>
        <time>2019-05-16T14:36:30.901Z</time>
      </trkpt>
      <trkpt lat="39.06220333" lon="-8.88275333">
        <ele>0.0</ele>
        <time>2019-05-16T14:36:31.922Z</time>
      </trkpt>
      <trkpt lat="39.06225667" lon="-8.88266">
        <ele>0.0</ele>
        <time>2019-05-16T14:36:32.913Z</time>
      </trkpt>
      <trkpt lat="39.06225667" lon="-8.88266">
        <ele>0.0</ele>
        <time>2019-05-16T14:36:33.934Z</time>
      </trkpt>
      <trkpt lat="39.06231333" lon="-8.88256833">
        <ele>0.0</ele>
        <time>2019-05-16T14:36:34.916Z</time>
      </trkpt>
      <trkpt lat="39.06231333" lon="-8.88256833">
        <ele>0.0</ele>
        <time>2019-05-16T14:36:35.922Z</time>
      </trkpt>
      <trkpt lat="39.06236833" lon="-8.88247833">
        <ele>0.0</ele>
        <time>2019-05-16T14:36:36.910Z</time>
      </trkpt>
      <trkpt lat="39.06236833" lon="-8.88247833">
        <ele>0.0</ele>
        <time>2019-05-16T14:36:37.936Z</time>
      </trkpt>
      <trkpt lat="39.06242667" lon="-8.88238833">
        <ele>0.0</ele>
        <time>2019-05-16T14:36:38.927Z</time>
      </trkpt>
      <trkpt lat="39.06242667" lon="-8.88238833">
        <ele>0.0</ele>
        <time>2019-05-16T14:36:39.914Z</time>
      </trkpt>
      <trkpt lat="39.06248" lon="-8.882295">
        <ele>0.0</ele>
        <time>2019-05-16T14:36:40.931Z</time>
      </trkpt>
      <trkpt lat="39.06248" lon="-8.882295">
        <ele>0.0</ele>
        <time>2019-05-16T14:36:41.920Z</time>
      </trkpt>
      <trkpt lat="39.06253" lon="-8.88220667">
        <ele>0.0</ele>
        <time>2019-05-16T14:36:42.902Z</time>
      </trkpt>
      <trkpt lat="39.06253" lon="-8.88220667">
        <ele>0.0</ele>
        <time>2019-05-16T14:36:43.934Z</time>
      </trkpt>
      <trkpt lat="39.06258" lon="-8.88212">
        <ele>0.0</ele>
        <time>2019-05-16T14:36:44.913Z</time>
      </trkpt>
      <trkpt lat="39.06258" lon="-8.88212">
        <ele>0.0</ele>
        <time>2019-05-16T14:36:45.924Z</time>
      </trkpt>
      <trkpt lat="39.06263" lon="-8.88203">
        <ele>0.0</ele>
        <time>2019-05-16T14:36:46.945Z</time>
      </trkpt>
      <trkpt lat="39.06263" lon="-8.88203">
        <ele>0.0</ele>
        <time>2019-05-16T14:36:47.913Z</time>
      </trkpt>
      <trkpt lat="39.062685" lon="-8.88194167">
        <ele>0.0</ele>
        <time>2019-05-16T14:36:48.927Z</time>
      </trkpt>
      <trkpt lat="39.062685" lon="-8.88194167">
        <ele>0.0</ele>
        <time>2019-05-16T14:36:49.903Z</time>
      </trkpt>
      <trkpt lat="39.06273667" lon="-8.88185167">
        <ele>0.0</ele>
        <time>2019-05-16T14:36:50.932Z</time>
      </trkpt>
      <trkpt lat="39.06273667" lon="-8.88185167">
        <ele>0.0</ele>
        <time>2019-05-16T14:36:51.915Z</time>
      </trkpt>
      <trkpt lat="39.06279" lon="-8.881765">
        <ele>0.0</ele>
        <time>2019-05-16T14:36:52.903Z</time>
      </trkpt>
      <trkpt lat="39.06279" lon="-8.881765">
        <ele>0.0</ele>
        <time>2019-05-16T14:36:53.934Z</time>
      </trkpt>
      <trkpt lat="39.06284" lon="-8.88167333">
        <ele>0.0</ele>
        <time>2019-05-16T14:36:54.917Z</time>
      </trkpt>
      <trkpt lat="39.06284" lon="-8.88167333">
        <ele>0.0</ele>
        <time>2019-05-16T14:36:55.929Z</time>
      </trkpt>
      <trkpt lat="39.06289333" lon="-8.88158833">
        <ele>0.0</ele>
        <time>2019-05-16T14:36:56.915Z</time>
      </trkpt>
      <trkpt lat="39.06289333" lon="-8.88158833">
        <ele>0.0</ele>
        <time>2019-05-16T14:36:57.922Z</time>
      </trkpt>
      <trkpt lat="39.06294333" lon="-8.881505">
        <ele>0.0</ele>
        <time>2019-05-16T14:36:58.907Z</time>
      </trkpt>
      <trkpt lat="39.06294333" lon="-8.881505">
        <ele>0.0</ele>
        <time>2019-05-16T14:36:59.898Z</time>
      </trkpt>
      <trkpt lat="39.06299333" lon="-8.88142">
        <ele>0.0</ele>
        <time>2019-05-16T14:37:00.913Z</time>
      </trkpt>
      <trkpt lat="39.06299333" lon="-8.88142">
        <ele>0.0</ele>
        <time>2019-05-16T14:37:01.934Z</time>
      </trkpt>
      <trkpt lat="39.06304167" lon="-8.88133667">
        <ele>0.0</ele>
        <time>2019-05-16T14:37:02.917Z</time>
      </trkpt>
      <trkpt lat="39.06304167" lon="-8.88133667">
        <ele>0.0</ele>
        <time>2019-05-16T14:37:03.900Z</time>
      </trkpt>
      <trkpt lat="39.06309167" lon="-8.88125167">
        <ele>0.0</ele>
        <time>2019-05-16T14:37:04.925Z</time>
      </trkpt>
      <trkpt lat="39.06309167" lon="-8.88125167">
        <ele>0.0</ele>
        <time>2019-05-16T14:37:05.933Z</time>
      </trkpt>
      <trkpt lat="39.063145" lon="-8.881165">
        <ele>0.0</ele>
        <time>2019-05-16T14:37:06.917Z</time>
      </trkpt>
      <trkpt lat="39.063145" lon="-8.881165">
        <ele>0.0</ele>
        <time>2019-05-16T14:37:07.928Z</time>
      </trkpt>
      <trkpt lat="39.06319833" lon="-8.881075">
        <ele>-1.0</ele>
        <time>2019-05-16T14:37:08.916Z</time>
      </trkpt>
      <trkpt lat="39.06319833" lon="-8.881075">
        <ele>-1.0</ele>
        <time>2019-05-16T14:37:09.933Z</time>
      </trkpt>
      <trkpt lat="39.06325" lon="-8.88098667">
        <ele>-1.0</ele>
        <time>2019-05-16T14:37:10.910Z</time>
      </trkpt>
      <trkpt lat="39.06325" lon="-8.88098667">
        <ele>-1.0</ele>
        <time>2019-05-16T14:37:11.904Z</time>
      </trkpt>
      <trkpt lat="39.06330333" lon="-8.88089833">
        <ele>-1.0</ele>
        <time>2019-05-16T14:37:12.904Z</time>
      </trkpt>
      <trkpt lat="39.06330333" lon="-8.88089833">
        <ele>-1.0</ele>
        <time>2019-05-16T14:37:13.936Z</time>
      </trkpt>
      <trkpt lat="39.06335833" lon="-8.88081">
        <ele>-1.0</ele>
        <time>2019-05-16T14:37:14.932Z</time>
      </trkpt>
      <trkpt lat="39.06335833" lon="-8.88081">
        <ele>-1.0</ele>
        <time>2019-05-16T14:37:15.921Z</time>
      </trkpt>
      <trkpt lat="39.06341" lon="-8.88071833">
        <ele>-1.0</ele>
        <time>2019-05-16T14:37:16.901Z</time>
      </trkpt>
      <trkpt lat="39.06341" lon="-8.88071833">
        <ele>-1.0</ele>
        <time>2019-05-16T14:37:17.903Z</time>
      </trkpt>
      <trkpt lat="39.063465" lon="-8.88063">
        <ele>-1.0</ele>
        <time>2019-05-16T14:37:18.922Z</time>
      </trkpt>
      <trkpt lat="39.063465" lon="-8.88063">
        <ele>-1.0</ele>
        <time>2019-05-16T14:37:19.929Z</time>
      </trkpt>
      <trkpt lat="39.06351833" lon="-8.88053833">
        <ele>-1.0</ele>
        <time>2019-05-16T14:37:20.909Z</time>
      </trkpt>
      <trkpt lat="39.06351833" lon="-8.88053833">
        <ele>-1.0</ele>
        <time>2019-05-16T14:37:21.935Z</time>
      </trkpt>
      <trkpt lat="39.06357333" lon="-8.88045">
        <ele>-1.0</ele>
        <time>2019-05-16T14:37:22.917Z</time>
      </trkpt>
      <trkpt lat="39.06357333" lon="-8.88045">
        <ele>-1.0</ele>
        <time>2019-05-16T14:37:23.923Z</time>
      </trkpt>
      <trkpt lat="39.063625" lon="-8.88036">
        <ele>-1.0</ele>
        <time>2019-05-16T14:37:24.909Z</time>
      </trkpt>
      <trkpt lat="39.063625" lon="-8.88036">
        <ele>-1.0</ele>
        <time>2019-05-16T14:37:25.902Z</time>
      </trkpt>
      <trkpt lat="39.06367833" lon="-8.88027333">
        <ele>-1.0</ele>
        <time>2019-05-16T14:37:26.930Z</time>
      </trkpt>
      <trkpt lat="39.06367833" lon="-8.88027333">
        <ele>-1.0</ele>
        <time>2019-05-16T14:37:27.932Z</time>
      </trkpt>
      <trkpt lat="39.06373" lon="-8.880195">
        <ele>-1.0</ele>
        <time>2019-05-16T14:37:28.910Z</time>
      </trkpt>
      <trkpt lat="39.06373" lon="-8.880195">
        <ele>-1.0</ele>
        <time>2019-05-16T14:37:29.916Z</time>
      </trkpt>
      <trkpt lat="39.06377667" lon="-8.88011333">
        <ele>-2.0</ele>
        <time>2019-05-16T14:37:30.903Z</time>
      </trkpt>
      <trkpt lat="39.06377667" lon="-8.88011333">
        <ele>-2.0</ele>
        <time>2019-05-16T14:37:31.913Z</time>
      </trkpt>
      <trkpt lat="39.063825" lon="-8.88003333">
        <ele>-2.0</ele>
        <time>2019-05-16T14:37:32.935Z</time>
      </trkpt>
      <trkpt lat="39.063825" lon="-8.88003333">
        <ele>-2.0</ele>
        <time>2019-05-16T14:37:33.933Z</time>
      </trkpt>
      <trkpt lat="39.06387167" lon="-8.879955">
        <ele>-2.0</ele>
        <time>2019-05-16T14:37:34.939Z</time>
      </trkpt>
      <trkpt lat="39.06387167" lon="-8.879955">
        <ele>-2.0</ele>
        <time>2019-05-16T14:37:35.933Z</time>
      </trkpt>
      <trkpt lat="39.06391833" lon="-8.87987333">
        <ele>-2.0</ele>
        <time>2019-05-16T14:37:36.914Z</time>
      </trkpt>
      <trkpt lat="39.06391833" lon="-8.87987333">
        <ele>-2.0</ele>
        <time>2019-05-16T14:37:37.930Z</time>
      </trkpt>
      <trkpt lat="39.063965" lon="-8.87979333">
        <ele>-2.0</ele>
        <time>2019-05-16T14:37:38.918Z</time>
      </trkpt>
      <trkpt lat="39.063965" lon="-8.87979333">
        <ele>-2.0</ele>
        <time>2019-05-16T14:37:39.904Z</time>
      </trkpt>
      <trkpt lat="39.06401" lon="-8.87971667">
        <ele>-2.0</ele>
        <time>2019-05-16T14:37:40.913Z</time>
      </trkpt>
      <trkpt lat="39.06401" lon="-8.87971667">
        <ele>-2.0</ele>
        <time>2019-05-16T14:37:41.913Z</time>
      </trkpt>
      <trkpt lat="39.06405333" lon="-8.879645">
        <ele>-2.0</ele>
        <time>2019-05-16T14:37:42.932Z</time>
      </trkpt>
      <trkpt lat="39.06405333" lon="-8.879645">
        <ele>-2.0</ele>
        <time>2019-05-16T14:37:43.914Z</time>
      </trkpt>
      <trkpt lat="39.06409167" lon="-8.87958">
        <ele>-2.0</ele>
        <time>2019-05-16T14:37:44.899Z</time>
      </trkpt>
      <trkpt lat="39.06409167" lon="-8.87958">
        <ele>-2.0</ele>
        <time>2019-05-16T14:37:45.913Z</time>
      </trkpt>
      <trkpt lat="39.06413333" lon="-8.87952167">
        <ele>-2.0</ele>
        <time>2019-05-16T14:37:46.897Z</time>
      </trkpt>
      <trkpt lat="39.06413333" lon="-8.87952167">
        <ele>-2.0</ele>
        <time>2019-05-16T14:37:47.931Z</time>
      </trkpt>
      <trkpt lat="39.06417" lon="-8.87946">
        <ele>-2.0</ele>
        <time>2019-05-16T14:37:48.909Z</time>
      </trkpt>
      <trkpt lat="39.06417" lon="-8.87946">
        <ele>-2.0</ele>
        <time>2019-05-16T14:37:49.933Z</time>
      </trkpt>
      <trkpt lat="39.0642" lon="-8.87939667">
        <ele>-2.0</ele>
        <time>2019-05-16T14:37:50.927Z</time>
      </trkpt>
      <trkpt lat="39.0642" lon="-8.87939667">
        <ele>-2.0</ele>
        <time>2019-05-16T14:37:51.904Z</time>
      </trkpt>
      <trkpt lat="39.06423" lon="-8.87932833">
        <ele>-2.0</ele>
        <time>2019-05-16T14:37:52.922Z</time>
      </trkpt>
      <trkpt lat="39.06423" lon="-8.87932833">
        <ele>-2.0</ele>
        <time>2019-05-16T14:37:53.916Z</time>
      </trkpt>
      <trkpt lat="39.06426167" lon="-8.87926">
        <ele>-2.0</ele>
        <time>2019-05-16T14:37:54.901Z</time>
      </trkpt>
      <trkpt lat="39.06426167" lon="-8.87926">
        <ele>-2.0</ele>
        <time>2019-05-16T14:37:55.924Z</time>
      </trkpt>
      <trkpt lat="39.06429833" lon="-8.87919667">
        <ele>-2.0</ele>
        <time>2019-05-16T14:37:56.926Z</time>
      </trkpt>
      <trkpt lat="39.06429833" lon="-8.87919667">
        <ele>-2.0</ele>
        <time>2019-05-16T14:37:57.903Z</time>
      </trkpt>
      <trkpt lat="39.064345" lon="-8.87912833">
        <ele>-2.0</ele>
        <time>2019-05-16T14:37:58.933Z</time>
      </trkpt>
      <trkpt lat="39.064345" lon="-8.87912833">
        <ele>-2.0</ele>
        <time>2019-05-16T14:37:59.921Z</time>
      </trkpt>
      <trkpt lat="39.06439333" lon="-8.87906167">
        <ele>-2.0</ele>
        <time>2019-05-16T14:38:00.908Z</time>
      </trkpt>
      <trkpt lat="39.06439333" lon="-8.87906167">
        <ele>-2.0</ele>
        <time>2019-05-16T14:38:01.930Z</time>
      </trkpt>
      <trkpt lat="39.06444" lon="-8.87899667">
        <ele>-2.0</ele>
        <time>2019-05-16T14:38:02.915Z</time>
      </trkpt>
      <trkpt lat="39.06444" lon="-8.87899667">
        <ele>-2.0</ele>
        <time>2019-05-16T14:38:03.900Z</time>
      </trkpt>
      <trkpt lat="39.06448167" lon="-8.87892167">
        <ele>-3.0</ele>
        <time>2019-05-16T14:38:04.923Z</time>
      </trkpt>
      <trkpt lat="39.06448167" lon="-8.87892167">
        <ele>-3.0</ele>
        <time>2019-05-16T14:38:05.923Z</time>
      </trkpt>
      <trkpt lat="39.06453" lon="-8.87884667">
        <ele>-3.0</ele>
        <time>2019-05-16T14:38:06.928Z</time>
      </trkpt>
      <trkpt lat="39.06453" lon="-8.87884667">
        <ele>-3.0</ele>
        <time>2019-05-16T14:38:07.917Z</time>
      </trkpt>
      <trkpt lat="39.06457833" lon="-8.87876667">
        <ele>-3.0</ele>
        <time>2019-05-16T14:38:08.908Z</time>
      </trkpt>
      <trkpt lat="39.06457833" lon="-8.87876667">
        <ele>-3.0</ele>
        <time>2019-05-16T14:38:09.912Z</time>
      </trkpt>
      <trkpt lat="39.06462667" lon="-8.87868333">
        <ele>-3.0</ele>
        <time>2019-05-16T14:38:10.937Z</time>
      </trkpt>
      <trkpt lat="39.06462667" lon="-8.87868333">
        <ele>-3.0</ele>
        <time>2019-05-16T14:38:11.915Z</time>
      </trkpt>
      <trkpt lat="39.06467833" lon="-8.87859833">
        <ele>-3.0</ele>
        <time>2019-05-16T14:38:12.934Z</time>
      </trkpt>
      <trkpt lat="39.06467833" lon="-8.87859833">
        <ele>-3.0</ele>
        <time>2019-05-16T14:38:13.936Z</time>
      </trkpt>
      <trkpt lat="39.06473" lon="-8.87851333">
        <ele>-3.0</ele>
        <time>2019-05-16T14:38:14.921Z</time>
      </trkpt>
      <trkpt lat="39.06473" lon="-8.87851333">
        <ele>-3.0</ele>
        <time>2019-05-16T14:38:15.916Z</time>
      </trkpt>
      <trkpt lat="39.06477833" lon="-8.87842667">
        <ele>-3.0</ele>
        <time>2019-05-16T14:38:16.938Z</time>
      </trkpt>
      <trkpt lat="39.06477833" lon="-8.87842667">
        <ele>-3.0</ele>
        <time>2019-05-16T14:38:17.932Z</time>
      </trkpt>
      <trkpt lat="39.06482167" lon="-8.87833667">
        <ele>-3.0</ele>
        <time>2019-05-16T14:38:18.914Z</time>
      </trkpt>
      <trkpt lat="39.06482167" lon="-8.87833667">
        <ele>-3.0</ele>
        <time>2019-05-16T14:38:19.934Z</time>
      </trkpt>
      <trkpt lat="39.06486333" lon="-8.87824667">
        <ele>-3.0</ele>
        <time>2019-05-16T14:38:20.938Z</time>
      </trkpt>
      <trkpt lat="39.06486333" lon="-8.87824667">
        <ele>-3.0</ele>
        <time>2019-05-16T14:38:21.903Z</time>
      </trkpt>
      <trkpt lat="39.06490667" lon="-8.87816">
        <ele>-3.0</ele>
        <time>2019-05-16T14:38:22.926Z</time>
      </trkpt>
      <trkpt lat="39.06490667" lon="-8.87816">
        <ele>-3.0</ele>
        <time>2019-05-16T14:38:23.899Z</time>
      </trkpt>
      <trkpt lat="39.064955" lon="-8.87807333">
        <ele>-3.0</ele>
        <time>2019-05-16T14:38:24.929Z</time>
      </trkpt>
      <trkpt lat="39.064955" lon="-8.87807333">
        <ele>-3.0</ele>
        <time>2019-05-16T14:38:25.914Z</time>
      </trkpt>
      <trkpt lat="39.065005" lon="-8.87798667">
        <ele>-4.0</ele>
        <time>2019-05-16T14:38:26.941Z</time>
      </trkpt>
      <trkpt lat="39.065005" lon="-8.87798667">
        <ele>-4.0</ele>
        <time>2019-05-16T14:38:27.915Z</time>
      </trkpt>
      <trkpt lat="39.065055" lon="-8.87789667">
        <ele>-4.0</ele>
        <time>2019-05-16T14:38:28.901Z</time>
      </trkpt>
      <trkpt lat="39.065055" lon="-8.87789667">
        <ele>-4.0</ele>
        <time>2019-05-16T14:38:29.933Z</time>
      </trkpt>
      <trkpt lat="39.065105" lon="-8.87780667">
        <ele>-4.0</ele>
        <time>2019-05-16T14:38:30.934Z</time>
      </trkpt>
      <trkpt lat="39.065105" lon="-8.87780667">
        <ele>-4.0</ele>
        <time>2019-05-16T14:38:31.920Z</time>
      </trkpt>
      <trkpt lat="39.06515667" lon="-8.87772333">
        <ele>-4.0</ele>
        <time>2019-05-16T14:38:32.898Z</time>
      </trkpt>
      <trkpt lat="39.06515667" lon="-8.87772333">
        <ele>-4.0</ele>
        <time>2019-05-16T14:38:33.924Z</time>
      </trkpt>
      <trkpt lat="39.06520833" lon="-8.877635">
        <ele>-4.0</ele>
        <time>2019-05-16T14:38:34.912Z</time>
      </trkpt>
      <trkpt lat="39.06520833" lon="-8.877635">
        <ele>-4.0</ele>
        <time>2019-05-16T14:38:35.913Z</time>
      </trkpt>
      <trkpt lat="39.06526" lon="-8.87754833">
        <ele>-5.0</ele>
        <time>2019-05-16T14:38:36.936Z</time>
      </trkpt>
      <trkpt lat="39.06526" lon="-8.87754833">
        <ele>-5.0</ele>
        <time>2019-05-16T14:38:37.918Z</time>
      </trkpt>
      <trkpt lat="39.065305" lon="-8.877465">
        <ele>-5.0</ele>
        <time>2019-05-16T14:38:38.911Z</time>
      </trkpt>
      <trkpt lat="39.065305" lon="-8.877465">
        <ele>-5.0</ele>
        <time>2019-05-16T14:38:39.929Z</time>
      </trkpt>
      <trkpt lat="39.06534667" lon="-8.87738167">
        <ele>-5.0</ele>
        <time>2019-05-16T14:38:40.903Z</time>
      </trkpt>
      <trkpt lat="39.06534667" lon="-8.87738167">
        <ele>-5.0</ele>
        <time>2019-05-16T14:38:41.920Z</time>
      </trkpt>
      <trkpt lat="39.06538833" lon="-8.87729833">
        <ele>-5.0</ele>
        <time>2019-05-16T14:38:42.911Z</time>
      </trkpt>
      <trkpt lat="39.06538833" lon="-8.87729833">
        <ele>-5.0</ele>
        <time>2019-05-16T14:38:43.914Z</time>
      </trkpt>
      <trkpt lat="39.06542667" lon="-8.87721167">
        <ele>-5.0</ele>
        <time>2019-05-16T14:38:44.930Z</time>
      </trkpt>
      <trkpt lat="39.06542667" lon="-8.87721167">
        <ele>-5.0</ele>
        <time>2019-05-16T14:38:45.917Z</time>
      </trkpt>
      <trkpt lat="39.06546667" lon="-8.87712333">
        <ele>-5.0</ele>
        <time>2019-05-16T14:38:46.941Z</time>
      </trkpt>
      <trkpt lat="39.06546667" lon="-8.87712333">
        <ele>-5.0</ele>
        <time>2019-05-16T14:38:47.909Z</time>
      </trkpt>
      <trkpt lat="39.06549833" lon="-8.87703333">
        <ele>-4.0</ele>
        <time>2019-05-16T14:38:48.929Z</time>
      </trkpt>
      <trkpt lat="39.06549833" lon="-8.87703333">
        <ele>-4.0</ele>
        <time>2019-05-16T14:38:49.914Z</time>
      </trkpt>
      <trkpt lat="39.06553667" lon="-8.87694667">
        <ele>-4.0</ele>
        <time>2019-05-16T14:38:50.901Z</time>
      </trkpt>
      <trkpt lat="39.06553667" lon="-8.87694667">
        <ele>-4.0</ele>
        <time>2019-05-16T14:38:51.923Z</time>
      </trkpt>
      <trkpt lat="39.06557333" lon="-8.87685333">
        <ele>-4.0</ele>
        <time>2019-05-16T14:38:52.901Z</time>
      </trkpt>
      <trkpt lat="39.06557333" lon="-8.87685333">
        <ele>-4.0</ele>
        <time>2019-05-16T14:38:53.932Z</time>
      </trkpt>
      <trkpt lat="39.06560667" lon="-8.87675667">
        <ele>-4.0</ele>
        <time>2019-05-16T14:38:54.911Z</time>
      </trkpt>
      <trkpt lat="39.06562333" lon="-8.87670667">
        <ele>-4.0</ele>
        <time>2019-05-16T14:38:55.930Z</time>
      </trkpt>
      <trkpt lat="39.06564167" lon="-8.87665833">
        <ele>-4.0</ele>
        <time>2019-05-16T14:38:56.941Z</time>
      </trkpt>
      <trkpt lat="39.06564167" lon="-8.87665833">
        <ele>-4.0</ele>
        <time>2019-05-16T14:38:57.927Z</time>
      </trkpt>
      <trkpt lat="39.06567333" lon="-8.87656167">
        <ele>-4.0</ele>
        <time>2019-05-16T14:38:58.914Z</time>
      </trkpt>
      <trkpt lat="39.06567333" lon="-8.87656167">
        <ele>-4.0</ele>
        <time>2019-05-16T14:38:59.922Z</time>
      </trkpt>
      <trkpt lat="39.06570333" lon="-8.87646167">
        <ele>-4.0</ele>
        <time>2019-05-16T14:39:00.901Z</time>
      </trkpt>
      <trkpt lat="39.06570333" lon="-8.87646167">
        <ele>-4.0</ele>
        <time>2019-05-16T14:39:01.924Z</time>
      </trkpt>
      <trkpt lat="39.06572667" lon="-8.87636333">
        <ele>-4.0</ele>
        <time>2019-05-16T14:39:02.899Z</time>
      </trkpt>
      <trkpt lat="39.06572667" lon="-8.87636333">
        <ele>-4.0</ele>
        <time>2019-05-16T14:39:03.917Z</time>
      </trkpt>
      <trkpt lat="39.06575167" lon="-8.87626667">
        <ele>-3.0</ele>
        <time>2019-05-16T14:39:04.901Z</time>
      </trkpt>
      <trkpt lat="39.06575167" lon="-8.87626667">
        <ele>-3.0</ele>
        <time>2019-05-16T14:39:05.913Z</time>
      </trkpt>
      <trkpt lat="39.06577833" lon="-8.87617">
        <ele>-3.0</ele>
        <time>2019-05-16T14:39:06.935Z</time>
      </trkpt>
      <trkpt lat="39.06577833" lon="-8.87617">
        <ele>-3.0</ele>
        <time>2019-05-16T14:39:07.897Z</time>
      </trkpt>
      <trkpt lat="39.06580667" lon="-8.876075">
        <ele>-2.0</ele>
        <time>2019-05-16T14:39:08.915Z</time>
      </trkpt>
      <trkpt lat="39.06580667" lon="-8.876075">
        <ele>-2.0</ele>
        <time>2019-05-16T14:39:09.933Z</time>
      </trkpt>
      <trkpt lat="39.065835" lon="-8.87599">
        <ele>-2.0</ele>
        <time>2019-05-16T14:39:10.913Z</time>
      </trkpt>
      <trkpt lat="39.065835" lon="-8.87599">
        <ele>-2.0</ele>
        <time>2019-05-16T14:39:11.902Z</time>
      </trkpt>
      <trkpt lat="39.06586" lon="-8.875915">
        <ele>-1.0</ele>
        <time>2019-05-16T14:39:12.898Z</time>
      </trkpt>
      <trkpt lat="39.06586" lon="-8.875915">
        <ele>-1.0</ele>
        <time>2019-05-16T14:39:13.935Z</time>
      </trkpt>
      <trkpt lat="39.06589333" lon="-8.87583833">
        <ele>-1.0</ele>
        <time>2019-05-16T14:39:14.917Z</time>
      </trkpt>
      <trkpt lat="39.06589333" lon="-8.87583833">
        <ele>-1.0</ele>
        <time>2019-05-16T14:39:15.912Z</time>
      </trkpt>
      <trkpt lat="39.065915" lon="-8.87574333">
        <ele>-1.0</ele>
        <time>2019-05-16T14:39:16.927Z</time>
      </trkpt>
      <trkpt lat="39.065915" lon="-8.87574333">
        <ele>-1.0</ele>
        <time>2019-05-16T14:39:17.919Z</time>
      </trkpt>
      <trkpt lat="39.06593333" lon="-8.87564167">
        <ele>0.0</ele>
        <time>2019-05-16T14:39:18.900Z</time>
      </trkpt>
      <trkpt lat="39.06594667" lon="-8.87559333">
        <ele>0.0</ele>
        <time>2019-05-16T14:39:19.920Z</time>
      </trkpt>
      <trkpt lat="39.06594667" lon="-8.87559333">
        <ele>0.0</ele>
        <time>2019-05-16T14:39:20.933Z</time>
      </trkpt>
      <trkpt lat="39.06596667" lon="-8.87550833">
        <ele>0.0</ele>
        <time>2019-05-16T14:39:21.904Z</time>
      </trkpt>
      <trkpt lat="39.06596667" lon="-8.87550833">
        <ele>0.0</ele>
        <time>2019-05-16T14:39:22.930Z</time>
      </trkpt>
      <trkpt lat="39.06597167" lon="-8.87541667">
        <ele>0.0</ele>
        <time>2019-05-16T14:39:23.906Z</time>
      </trkpt>
      <trkpt lat="39.06597167" lon="-8.87541667">
        <ele>0.0</ele>
        <time>2019-05-16T14:39:24.924Z</time>
      </trkpt>
      <trkpt lat="39.06596833" lon="-8.87531167">
        <ele>-1.0</ele>
        <time>2019-05-16T14:39:25.913Z</time>
      </trkpt>
      <trkpt lat="39.06597167" lon="-8.875255">
        <ele>-1.0</ele>
        <time>2019-05-16T14:39:26.915Z</time>
      </trkpt>
      <trkpt lat="39.06597167" lon="-8.875255">
        <ele>-1.0</ele>
        <time>2019-05-16T14:39:27.913Z</time>
      </trkpt>
      <trkpt lat="39.06600667" lon="-8.87515">
        <ele>-1.0</ele>
        <time>2019-05-16T14:39:28.901Z</time>
      </trkpt>
      <trkpt lat="39.06600667" lon="-8.87515">
        <ele>-1.0</ele>
        <time>2019-05-16T14:39:29.920Z</time>
      </trkpt>
      <trkpt lat="39.06608" lon="-8.87508667">
        <ele>-1.0</ele>
        <time>2019-05-16T14:39:30.900Z</time>
      </trkpt>
      <trkpt lat="39.06611833" lon="-8.87508167">
        <ele>-1.0</ele>
        <time>2019-05-16T14:39:31.923Z</time>
      </trkpt>
      <trkpt lat="39.06615833" lon="-8.875085">
        <ele>-1.0</ele>
        <time>2019-05-16T14:39:32.931Z</time>
      </trkpt>
      <trkpt lat="39.06615833" lon="-8.875085">
        <ele>-1.0</ele>
        <time>2019-05-16T14:39:33.916Z</time>
      </trkpt>
      <trkpt lat="39.066235" lon="-8.87511833">
        <ele>-1.0</ele>
        <time>2019-05-16T14:39:34.929Z</time>
      </trkpt>
      <trkpt lat="39.066235" lon="-8.87511833">
        <ele>-1.0</ele>
        <time>2019-05-16T14:39:35.932Z</time>
      </trkpt>
      <trkpt lat="39.0663" lon="-8.875185">
        <ele>-1.0</ele>
        <time>2019-05-16T14:39:36.909Z</time>
      </trkpt>
      <trkpt lat="39.0663" lon="-8.875185">
        <ele>-1.0</ele>
        <time>2019-05-16T14:39:37.929Z</time>
      </trkpt>
      <trkpt lat="39.06635833" lon="-8.87525833">
        <ele>-1.0</ele>
        <time>2019-05-16T14:39:38.913Z</time>
      </trkpt>
      <trkpt lat="39.06635833" lon="-8.87525833">
        <ele>-1.0</ele>
        <time>2019-05-16T14:39:39.914Z</time>
      </trkpt>
      <trkpt lat="39.06642167" lon="-8.87533">
        <ele>-1.0</ele>
        <time>2019-05-16T14:39:40.931Z</time>
      </trkpt>
      <trkpt lat="39.06642167" lon="-8.87533">
        <ele>-1.0</ele>
        <time>2019-05-16T14:39:41.920Z</time>
      </trkpt>
      <trkpt lat="39.06649167" lon="-8.875395">
        <ele>-2.0</ele>
        <time>2019-05-16T14:39:42.924Z</time>
      </trkpt>
      <trkpt lat="39.06649167" lon="-8.875395">
        <ele>-2.0</ele>
        <time>2019-05-16T14:39:43.903Z</time>
      </trkpt>
      <trkpt lat="39.06657" lon="-8.87543833">
        <ele>-2.0</ele>
        <time>2019-05-16T14:39:44.938Z</time>
      </trkpt>
      <trkpt lat="39.06657" lon="-8.87543833">
        <ele>-2.0</ele>
        <time>2019-05-16T14:39:45.913Z</time>
      </trkpt>
      <trkpt lat="39.06665" lon="-8.87545667">
        <ele>-2.0</ele>
        <time>2019-05-16T14:39:46.935Z</time>
      </trkpt>
      <trkpt lat="39.06665" lon="-8.87545667">
        <ele>-2.0</ele>
        <time>2019-05-16T14:39:47.923Z</time>
      </trkpt>
      <trkpt lat="39.06672167" lon="-8.87543333">
        <ele>-2.0</ele>
        <time>2019-05-16T14:39:48.902Z</time>
      </trkpt>
      <trkpt lat="39.06672167" lon="-8.87543333">
        <ele>-2.0</ele>
        <time>2019-05-16T14:39:49.904Z</time>
      </trkpt>
      <trkpt lat="39.06677833" lon="-8.87537833">
        <ele>-2.0</ele>
        <time>2019-05-16T14:39:50.898Z</time>
      </trkpt>
      <trkpt lat="39.06680833" lon="-8.87535667">
        <ele>-2.0</ele>
        <time>2019-05-16T14:39:51.901Z</time>
      </trkpt>
      <trkpt lat="39.06680833" lon="-8.87535667">
        <ele>-2.0</ele>
        <time>2019-05-16T14:39:52.929Z</time>
      </trkpt>
      <trkpt lat="39.06687167" lon="-8.875325">
        <ele>-1.0</ele>
        <time>2019-05-16T14:39:53.917Z</time>
      </trkpt>
      <trkpt lat="39.06687167" lon="-8.875325">
        <ele>-1.0</ele>
        <time>2019-05-16T14:39:54.930Z</time>
      </trkpt>
      <trkpt lat="39.06693333" lon="-8.87529333">
        <ele>-2.0</ele>
        <time>2019-05-16T14:39:55.925Z</time>
      </trkpt>
      <trkpt lat="39.06696167" lon="-8.87527">
        <ele>-2.0</ele>
        <time>2019-05-16T14:39:56.919Z</time>
      </trkpt>
      <trkpt lat="39.06696167" lon="-8.87527">
        <ele>-2.0</ele>
        <time>2019-05-16T14:39:57.903Z</time>
      </trkpt>
      <trkpt lat="39.06701" lon="-8.87520667">
        <ele>-2.0</ele>
        <time>2019-05-16T14:39:58.922Z</time>
      </trkpt>
      <trkpt lat="39.06701" lon="-8.87520667">
        <ele>-2.0</ele>
        <time>2019-05-16T14:39:59.899Z</time>
      </trkpt>
      <trkpt lat="39.06704833" lon="-8.87513">
        <ele>-2.0</ele>
        <time>2019-05-16T14:40:00.915Z</time>
      </trkpt>
      <trkpt lat="39.06704833" lon="-8.87513">
        <ele>-2.0</ele>
        <time>2019-05-16T14:40:01.912Z</time>
      </trkpt>
      <trkpt lat="39.067085" lon="-8.87505833">
        <ele>-1.0</ele>
        <time>2019-05-16T14:40:02.939Z</time>
      </trkpt>
      <trkpt lat="39.067085" lon="-8.87505833">
        <ele>-1.0</ele>
        <time>2019-05-16T14:40:03.923Z</time>
      </trkpt>
      <trkpt lat="39.06712167" lon="-8.87499167">
        <ele>-1.0</ele>
        <time>2019-05-16T14:40:04.930Z</time>
      </trkpt>
      <trkpt lat="39.06712167" lon="-8.87499167">
        <ele>-1.0</ele>
        <time>2019-05-16T14:40:05.923Z</time>
      </trkpt>
      <trkpt lat="39.06715667" lon="-8.87492">
        <ele>-1.0</ele>
        <time>2019-05-16T14:40:06.903Z</time>
      </trkpt>
      <trkpt lat="39.06717333" lon="-8.87488">
        <ele>-1.0</ele>
        <time>2019-05-16T14:40:07.905Z</time>
      </trkpt>
      <trkpt lat="39.06718833" lon="-8.87483667">
        <ele>-1.0</ele>
        <time>2019-05-16T14:40:08.903Z</time>
      </trkpt>
      <trkpt lat="39.06718833" lon="-8.87483667">
        <ele>-1.0</ele>
        <time>2019-05-16T14:40:09.898Z</time>
      </trkpt>
      <trkpt lat="39.06720833" lon="-8.87475333">
        <ele>-1.0</ele>
        <time>2019-05-16T14:40:10.928Z</time>
      </trkpt>
      <trkpt lat="39.06720833" lon="-8.87475333">
        <ele>-1.0</ele>
        <time>2019-05-16T14:40:11.903Z</time>
      </trkpt>
      <trkpt lat="39.06722833" lon="-8.87467833">
        <ele>-1.0</ele>
        <time>2019-05-16T14:40:12.929Z</time>
      </trkpt>
      <trkpt lat="39.06724167" lon="-8.874645">
        <ele>-1.0</ele>
        <time>2019-05-16T14:40:13.930Z</time>
      </trkpt>
      <trkpt lat="39.06724167" lon="-8.874645">
        <ele>-1.0</ele>
        <time>2019-05-16T14:40:14.910Z</time>
      </trkpt>
      <trkpt lat="39.06725833" lon="-8.87458167">
        <ele>-1.0</ele>
        <time>2019-05-16T14:40:15.920Z</time>
      </trkpt>
      <trkpt lat="39.06725833" lon="-8.87458167">
        <ele>-1.0</ele>
        <time>2019-05-16T14:40:16.912Z</time>
      </trkpt>
      <trkpt lat="39.06727" lon="-8.87451833">
        <ele>-1.0</ele>
        <time>2019-05-16T14:40:17.936Z</time>
      </trkpt>
      <trkpt lat="39.06727" lon="-8.87451833">
        <ele>-1.0</ele>
        <time>2019-05-16T14:40:18.913Z</time>
      </trkpt>
      <trkpt lat="39.067285" lon="-8.87446333">
        <ele>-1.0</ele>
        <time>2019-05-16T14:40:19.938Z</time>
      </trkpt>
      <trkpt lat="39.067295" lon="-8.87443667">
        <ele>-1.0</ele>
        <time>2019-05-16T14:40:20.929Z</time>
      </trkpt>
      <trkpt lat="39.067295" lon="-8.87443667">
        <ele>-1.0</ele>
        <time>2019-05-16T14:40:22.271Z</time>
      </trkpt>
      <trkpt lat="39.06730667" lon="-8.874385">
        <ele>-1.0</ele>
        <time>2019-05-16T14:40:22.981Z</time>
      </trkpt>
      <trkpt lat="39.06730667" lon="-8.874385">
        <ele>-1.0</ele>
        <time>2019-05-16T14:40:23.916Z</time>
      </trkpt>
      <trkpt lat="39.06731667" lon="-8.874345">
        <ele>-1.0</ele>
        <time>2019-05-16T14:40:24.935Z</time>
      </trkpt>
      <trkpt lat="39.06731167" lon="-8.87434">
        <ele>-1.0</ele>
        <time>2019-05-16T14:40:25.919Z</time>
      </trkpt>
      <trkpt lat="39.06731167" lon="-8.87434">
        <ele>-1.0</ele>
        <time>2019-05-16T14:40:26.905Z</time>
      </trkpt>
      <trkpt lat="39.06731167" lon="-8.87434">
        <ele>-1.0</ele>
        <time>2019-05-16T14:40:27.919Z</time>
      </trkpt>
      <trkpt lat="39.06731333" lon="-8.87434333">
        <ele>-1.0</ele>
        <time>2019-05-16T14:40:28.915Z</time>
      </trkpt>
      <trkpt lat="39.06731333" lon="-8.87434333">
        <ele>-1.0</ele>
        <time>2019-05-16T14:40:29.925Z</time>
      </trkpt>
      <trkpt lat="39.06731333" lon="-8.87434333">
        <ele>-1.0</ele>
        <time>2019-05-16T14:40:30.931Z</time>
      </trkpt>
      <trkpt lat="39.06731333" lon="-8.87434333">
        <ele>-1.0</ele>
        <time>2019-05-16T14:40:31.906Z</time>
      </trkpt>
      <trkpt lat="39.06731333" lon="-8.87434333">
        <ele>-1.0</ele>
        <time>2019-05-16T14:40:32.925Z</time>
      </trkpt>
      <trkpt lat="39.06731333" lon="-8.87434333">
        <ele>-1.0</ele>
        <time>2019-05-16T14:40:33.921Z</time>
      </trkpt>
      <trkpt lat="39.06731333" lon="-8.87429833">
        <ele>0.0</ele>
        <time>2019-05-16T14:40:34.926Z</time>
      </trkpt>
      <trkpt lat="39.06731333" lon="-8.87429833">
        <ele>0.0</ele>
        <time>2019-05-16T14:40:35.921Z</time>
      </trkpt>
      <trkpt lat="39.06731" lon="-8.87427833">
        <ele>0.0</ele>
        <time>2019-05-16T14:40:36.901Z</time>
      </trkpt>
      <trkpt lat="39.06731" lon="-8.87427833">
        <ele>0.0</ele>
        <time>2019-05-16T14:40:37.927Z</time>
      </trkpt>
      <trkpt lat="39.06730833" lon="-8.87426833">
        <ele>1.0</ele>
        <time>2019-05-16T14:40:38.927Z</time>
      </trkpt>
      <trkpt lat="39.06730833" lon="-8.87426833">
        <ele>1.0</ele>
        <time>2019-05-16T14:40:39.921Z</time>
      </trkpt>
      <trkpt lat="39.06731167" lon="-8.87426833">
        <ele>1.0</ele>
        <time>2019-05-16T14:40:40.926Z</time>
      </trkpt>
      <trkpt lat="39.06731167" lon="-8.87426833">
        <ele>1.0</ele>
        <time>2019-05-16T14:40:41.926Z</time>
      </trkpt>
      <trkpt lat="39.06731167" lon="-8.87426833">
        <ele>1.0</ele>
        <time>2019-05-16T14:40:42.921Z</time>
      </trkpt>
      <trkpt lat="39.06731167" lon="-8.87426833">
        <ele>1.0</ele>
        <time>2019-05-16T14:40:43.924Z</time>
      </trkpt>
      <trkpt lat="39.06731167" lon="-8.87426833">
        <ele>1.0</ele>
        <time>2019-05-16T14:40:44.927Z</time>
      </trkpt>
      <trkpt lat="39.06731167" lon="-8.87426833">
        <ele>1.0</ele>
        <time>2019-05-16T14:40:45.917Z</time>
      </trkpt>
      <trkpt lat="39.06731167" lon="-8.87426833">
        <ele>1.0</ele>
        <time>2019-05-16T14:40:46.926Z</time>
      </trkpt>
      <trkpt lat="39.06731167" lon="-8.87426833">
        <ele>1.0</ele>
        <time>2019-05-16T14:40:47.921Z</time>
      </trkpt>
      <trkpt lat="39.06731167" lon="-8.87426833">
        <ele>1.0</ele>
        <time>2019-05-16T14:40:48.926Z</time>
      </trkpt>
      <trkpt lat="39.06731167" lon="-8.87426833">
        <ele>1.0</ele>
        <time>2019-05-16T14:40:49.921Z</time>
      </trkpt>
      <trkpt lat="39.06734167" lon="-8.87420333">
        <ele>1.0</ele>
        <time>2019-05-16T14:40:50.907Z</time>
      </trkpt>
      <trkpt lat="39.06734167" lon="-8.87420333">
        <ele>1.0</ele>
        <time>2019-05-16T14:40:51.933Z</time>
      </trkpt>
      <trkpt lat="39.06735667" lon="-8.87414">
        <ele>1.0</ele>
        <time>2019-05-16T14:40:52.926Z</time>
      </trkpt>
      <trkpt lat="39.06735667" lon="-8.87414">
        <ele>1.0</ele>
        <time>2019-05-16T14:40:53.927Z</time>
      </trkpt>
      <trkpt lat="39.06737667" lon="-8.87407667">
        <ele>1.0</ele>
        <time>2019-05-16T14:40:54.930Z</time>
      </trkpt>
      <trkpt lat="39.06737667" lon="-8.87407667">
        <ele>1.0</ele>
        <time>2019-05-16T14:40:55.923Z</time>
      </trkpt>
      <trkpt lat="39.067375" lon="-8.87400833">
        <ele>2.0</ele>
        <time>2019-05-16T14:40:56.902Z</time>
      </trkpt>
      <trkpt lat="39.067375" lon="-8.87400833">
        <ele>2.0</ele>
        <time>2019-05-16T14:40:57.903Z</time>
      </trkpt>
      <trkpt lat="39.06739167" lon="-8.87393667">
        <ele>2.0</ele>
        <time>2019-05-16T14:40:58.937Z</time>
      </trkpt>
      <trkpt lat="39.06739167" lon="-8.87393667">
        <ele>2.0</ele>
        <time>2019-05-16T14:40:59.934Z</time>
      </trkpt>
      <trkpt lat="39.067435" lon="-8.87387333">
        <ele>4.0</ele>
        <time>2019-05-16T14:41:00.928Z</time>
      </trkpt>
      <trkpt lat="39.067435" lon="-8.87387333">
        <ele>4.0</ele>
        <time>2019-05-16T14:41:01.898Z</time>
      </trkpt>
      <trkpt lat="39.06745333" lon="-8.87380667">
        <ele>5.0</ele>
        <time>2019-05-16T14:41:02.911Z</time>
      </trkpt>
      <trkpt lat="39.06745333" lon="-8.87380667">
        <ele>5.0</ele>
        <time>2019-05-16T14:41:03.924Z</time>
      </trkpt>
      <trkpt lat="39.067465" lon="-8.87373667">
        <ele>5.0</ele>
        <time>2019-05-16T14:41:04.901Z</time>
      </trkpt>
      <trkpt lat="39.067465" lon="-8.87373667">
        <ele>5.0</ele>
        <time>2019-05-16T14:41:05.897Z</time>
      </trkpt>
      <trkpt lat="39.06749167" lon="-8.873675">
        <ele>6.0</ele>
        <time>2019-05-16T14:41:06.912Z</time>
      </trkpt>
      <trkpt lat="39.06749167" lon="-8.873675">
        <ele>6.0</ele>
        <time>2019-05-16T14:41:07.903Z</time>
      </trkpt>
      <trkpt lat="39.06751" lon="-8.8736">
        <ele>7.0</ele>
        <time>2019-05-16T14:41:08.931Z</time>
      </trkpt>
      <trkpt lat="39.06751" lon="-8.8736">
        <ele>7.0</ele>
        <time>2019-05-16T14:41:09.897Z</time>
      </trkpt>
      <trkpt lat="39.06753167" lon="-8.87352833">
        <ele>7.0</ele>
        <time>2019-05-16T14:41:10.921Z</time>
      </trkpt>
      <trkpt lat="39.06753167" lon="-8.87352833">
        <ele>7.0</ele>
        <time>2019-05-16T14:41:11.915Z</time>
      </trkpt>
      <trkpt lat="39.06754833" lon="-8.87345167">
        <ele>8.0</ele>
        <time>2019-05-16T14:41:12.900Z</time>
      </trkpt>
      <trkpt lat="39.06754833" lon="-8.87345167">
        <ele>8.0</ele>
        <time>2019-05-16T14:41:13.930Z</time>
      </trkpt>
      <trkpt lat="39.067565" lon="-8.87336667">
        <ele>9.0</ele>
        <time>2019-05-16T14:41:14.901Z</time>
      </trkpt>
      <trkpt lat="39.067565" lon="-8.87336667">
        <ele>9.0</ele>
        <time>2019-05-16T14:41:15.918Z</time>
      </trkpt>
      <trkpt lat="39.06758667" lon="-8.87328">
        <ele>9.0</ele>
        <time>2019-05-16T14:41:16.901Z</time>
      </trkpt>
      <trkpt lat="39.06758667" lon="-8.87328">
        <ele>9.0</ele>
        <time>2019-05-16T14:41:17.915Z</time>
      </trkpt>
      <trkpt lat="39.06761" lon="-8.87318667">
        <ele>9.0</ele>
        <time>2019-05-16T14:41:18.931Z</time>
      </trkpt>
      <trkpt lat="39.06761" lon="-8.87318667">
        <ele>9.0</ele>
        <time>2019-05-16T14:41:19.897Z</time>
      </trkpt>
      <trkpt lat="39.06763167" lon="-8.87309167">
        <ele>9.0</ele>
        <time>2019-05-16T14:41:20.911Z</time>
      </trkpt>
      <trkpt lat="39.06763167" lon="-8.87309167">
        <ele>9.0</ele>
        <time>2019-05-16T14:41:21.900Z</time>
      </trkpt>
      <trkpt lat="39.06765667" lon="-8.87298667">
        <ele>10.0</ele>
        <time>2019-05-16T14:41:22.923Z</time>
      </trkpt>
      <trkpt lat="39.06765667" lon="-8.87298667">
        <ele>10.0</ele>
        <time>2019-05-16T14:41:23.910Z</time>
      </trkpt>
      <trkpt lat="39.06768167" lon="-8.87289">
        <ele>10.0</ele>
        <time>2019-05-16T14:41:24.935Z</time>
      </trkpt>
      <trkpt lat="39.06768167" lon="-8.87289">
        <ele>10.0</ele>
        <time>2019-05-16T14:41:25.913Z</time>
      </trkpt>
      <trkpt lat="39.06770167" lon="-8.87279">
        <ele>10.0</ele>
        <time>2019-05-16T14:41:26.939Z</time>
      </trkpt>
      <trkpt lat="39.06770167" lon="-8.87279">
        <ele>10.0</ele>
        <time>2019-05-16T14:41:27.913Z</time>
      </trkpt>
      <trkpt lat="39.067715" lon="-8.87269167">
        <ele>10.0</ele>
        <time>2019-05-16T14:41:28.898Z</time>
      </trkpt>
      <trkpt lat="39.067715" lon="-8.87269167">
        <ele>10.0</ele>
        <time>2019-05-16T14:41:29.915Z</time>
      </trkpt>
      <trkpt lat="39.06773333" lon="-8.87259833">
        <ele>10.0</ele>
        <time>2019-05-16T14:41:30.936Z</time>
      </trkpt>
      <trkpt lat="39.06773333" lon="-8.87259833">
        <ele>10.0</ele>
        <time>2019-05-16T14:41:31.933Z</time>
      </trkpt>
      <trkpt lat="39.067745" lon="-8.87250833">
        <ele>10.0</ele>
        <time>2019-05-16T14:41:32.906Z</time>
      </trkpt>
      <trkpt lat="39.067745" lon="-8.87250833">
        <ele>10.0</ele>
        <time>2019-05-16T14:41:33.904Z</time>
      </trkpt>
      <trkpt lat="39.06775333" lon="-8.87242167">
        <ele>10.0</ele>
        <time>2019-05-16T14:41:34.929Z</time>
      </trkpt>
      <trkpt lat="39.06775333" lon="-8.87242167">
        <ele>10.0</ele>
        <time>2019-05-16T14:41:35.914Z</time>
      </trkpt>
      <trkpt lat="39.06776667" lon="-8.87233667">
        <ele>9.0</ele>
        <time>2019-05-16T14:41:36.933Z</time>
      </trkpt>
      <trkpt lat="39.06776667" lon="-8.87233667">
        <ele>9.0</ele>
        <time>2019-05-16T14:41:37.916Z</time>
      </trkpt>
      <trkpt lat="39.067785" lon="-8.87225167">
        <ele>9.0</ele>
        <time>2019-05-16T14:41:38.936Z</time>
      </trkpt>
      <trkpt lat="39.067785" lon="-8.87225167">
        <ele>9.0</ele>
        <time>2019-05-16T14:41:39.933Z</time>
      </trkpt>
      <trkpt lat="39.06781" lon="-8.87216167">
        <ele>9.0</ele>
        <time>2019-05-16T14:41:40.931Z</time>
      </trkpt>
      <trkpt lat="39.06781" lon="-8.87216167">
        <ele>9.0</ele>
        <time>2019-05-16T14:41:41.906Z</time>
      </trkpt>
      <trkpt lat="39.06783667" lon="-8.872065">
        <ele>9.0</ele>
        <time>2019-05-16T14:41:42.933Z</time>
      </trkpt>
      <trkpt lat="39.06783667" lon="-8.872065">
        <ele>9.0</ele>
        <time>2019-05-16T14:41:43.929Z</time>
      </trkpt>
      <trkpt lat="39.06785667" lon="-8.87196333">
        <ele>9.0</ele>
        <time>2019-05-16T14:41:44.907Z</time>
      </trkpt>
      <trkpt lat="39.06785667" lon="-8.87196333">
        <ele>9.0</ele>
        <time>2019-05-16T14:41:45.930Z</time>
      </trkpt>
      <trkpt lat="39.06788" lon="-8.87186667">
        <ele>9.0</ele>
        <time>2019-05-16T14:41:46.926Z</time>
      </trkpt>
      <trkpt lat="39.06788" lon="-8.87186667">
        <ele>9.0</ele>
        <time>2019-05-16T14:41:47.918Z</time>
      </trkpt>
      <trkpt lat="39.06791667" lon="-8.87176667">
        <ele>9.0</ele>
        <time>2019-05-16T14:41:48.901Z</time>
      </trkpt>
      <trkpt lat="39.06791667" lon="-8.87176667">
        <ele>9.0</ele>
        <time>2019-05-16T14:41:49.897Z</time>
      </trkpt>
      <trkpt lat="39.06795167" lon="-8.87166667">
        <ele>9.0</ele>
        <time>2019-05-16T14:41:50.918Z</time>
      </trkpt>
      <trkpt lat="39.06795167" lon="-8.87166667">
        <ele>9.0</ele>
        <time>2019-05-16T14:41:51.897Z</time>
      </trkpt>
      <trkpt lat="39.06799167" lon="-8.87156333">
        <ele>9.0</ele>
        <time>2019-05-16T14:41:52.913Z</time>
      </trkpt>
      <trkpt lat="39.06801" lon="-8.87151333">
        <ele>9.0</ele>
        <time>2019-05-16T14:41:53.928Z</time>
      </trkpt>
      <trkpt lat="39.06801" lon="-8.87151333">
        <ele>9.0</ele>
        <time>2019-05-16T14:41:54.913Z</time>
      </trkpt>
      <trkpt lat="39.06804333" lon="-8.87142333">
        <ele>9.0</ele>
        <time>2019-05-16T14:41:55.999Z</time>
      </trkpt>
      <trkpt lat="39.06805833" lon="-8.87138167">
        <ele>9.0</ele>
        <time>2019-05-16T14:41:56.912Z</time>
      </trkpt>
      <trkpt lat="39.06805833" lon="-8.87138167">
        <ele>9.0</ele>
        <time>2019-05-16T14:41:57.923Z</time>
      </trkpt>
      <trkpt lat="39.06807667" lon="-8.87130333">
        <ele>9.0</ele>
        <time>2019-05-16T14:41:58.906Z</time>
      </trkpt>
      <trkpt lat="39.06807667" lon="-8.87130333">
        <ele>9.0</ele>
        <time>2019-05-16T14:41:59.921Z</time>
      </trkpt>
      <trkpt lat="39.068085" lon="-8.87123167">
        <ele>9.0</ele>
        <time>2019-05-16T14:42:00.924Z</time>
      </trkpt>
      <trkpt lat="39.068085" lon="-8.87123167">
        <ele>9.0</ele>
        <time>2019-05-16T14:42:01.906Z</time>
      </trkpt>
      <trkpt lat="39.06808833" lon="-8.87117333">
        <ele>9.0</ele>
        <time>2019-05-16T14:42:02.901Z</time>
      </trkpt>
      <trkpt lat="39.06808833" lon="-8.87117333">
        <ele>9.0</ele>
        <time>2019-05-16T14:42:03.931Z</time>
      </trkpt>
      <trkpt lat="39.06810333" lon="-8.87110667">
        <ele>9.0</ele>
        <time>2019-05-16T14:42:04.949Z</time>
      </trkpt>
      <trkpt lat="39.06810333" lon="-8.87110667">
        <ele>9.0</ele>
        <time>2019-05-16T14:42:05.918Z</time>
      </trkpt>
      <trkpt lat="39.06811333" lon="-8.87104333">
        <ele>9.0</ele>
        <time>2019-05-16T14:42:06.938Z</time>
      </trkpt>
      <trkpt lat="39.06811333" lon="-8.87104333">
        <ele>9.0</ele>
        <time>2019-05-16T14:42:07.913Z</time>
      </trkpt>
      <trkpt lat="39.06812" lon="-8.87097333">
        <ele>9.0</ele>
        <time>2019-05-16T14:42:08.900Z</time>
      </trkpt>
      <trkpt lat="39.06812" lon="-8.87097333">
        <ele>9.0</ele>
        <time>2019-05-16T14:42:09.910Z</time>
      </trkpt>
      <trkpt lat="39.06812167" lon="-8.87089667">
        <ele>9.0</ele>
        <time>2019-05-16T14:42:10.931Z</time>
      </trkpt>
      <trkpt lat="39.06812167" lon="-8.87089667">
        <ele>9.0</ele>
        <time>2019-05-16T14:42:11.933Z</time>
      </trkpt>
      <trkpt lat="39.06812667" lon="-8.87081167">
        <ele>9.0</ele>
        <time>2019-05-16T14:42:12.927Z</time>
      </trkpt>
      <trkpt lat="39.06812667" lon="-8.87081167">
        <ele>9.0</ele>
        <time>2019-05-16T14:42:13.922Z</time>
      </trkpt>
      <trkpt lat="39.06814167" lon="-8.870735">
        <ele>9.0</ele>
        <time>2019-05-16T14:42:14.903Z</time>
      </trkpt>
      <trkpt lat="39.06814167" lon="-8.870735">
        <ele>9.0</ele>
        <time>2019-05-16T14:42:15.900Z</time>
      </trkpt>
      <trkpt lat="39.06816667" lon="-8.87065333">
        <ele>9.0</ele>
        <time>2019-05-16T14:42:16.917Z</time>
      </trkpt>
      <trkpt lat="39.06816667" lon="-8.87065333">
        <ele>9.0</ele>
        <time>2019-05-16T14:42:17.928Z</time>
      </trkpt>
      <trkpt lat="39.06819833" lon="-8.87057">
        <ele>9.0</ele>
        <time>2019-05-16T14:42:18.906Z</time>
      </trkpt>
      <trkpt lat="39.06819833" lon="-8.87057">
        <ele>9.0</ele>
        <time>2019-05-16T14:42:19.923Z</time>
      </trkpt>
      <trkpt lat="39.06823167" lon="-8.87047833">
        <ele>8.0</ele>
        <time>2019-05-16T14:42:20.900Z</time>
      </trkpt>
      <trkpt lat="39.06824667" lon="-8.87043167">
        <ele>8.0</ele>
        <time>2019-05-16T14:42:21.901Z</time>
      </trkpt>
      <trkpt lat="39.06824667" lon="-8.87043167">
        <ele>8.0</ele>
        <time>2019-05-16T14:42:22.916Z</time>
      </trkpt>
      <trkpt lat="39.06828333" lon="-8.87034667">
        <ele>8.0</ele>
        <time>2019-05-16T14:42:23.930Z</time>
      </trkpt>
      <trkpt lat="39.06828333" lon="-8.87034667">
        <ele>8.0</ele>
        <time>2019-05-16T14:42:24.929Z</time>
      </trkpt>
      <trkpt lat="39.06831667" lon="-8.870265">
        <ele>8.0</ele>
        <time>2019-05-16T14:42:25.914Z</time>
      </trkpt>
      <trkpt lat="39.06833333" lon="-8.87022167">
        <ele>8.0</ele>
        <time>2019-05-16T14:42:26.929Z</time>
      </trkpt>
      <trkpt lat="39.06833333" lon="-8.87022167">
        <ele>8.0</ele>
        <time>2019-05-16T14:42:27.898Z</time>
      </trkpt>
      <trkpt lat="39.068365" lon="-8.87012">
        <ele>7.0</ele>
        <time>2019-05-16T14:42:28.914Z</time>
      </trkpt>
      <trkpt lat="39.068365" lon="-8.87012">
        <ele>7.0</ele>
        <time>2019-05-16T14:42:29.913Z</time>
      </trkpt>
      <trkpt lat="39.06839" lon="-8.87001333">
        <ele>7.0</ele>
        <time>2019-05-16T14:42:30.934Z</time>
      </trkpt>
      <trkpt lat="39.06839" lon="-8.87001333">
        <ele>7.0</ele>
        <time>2019-05-16T14:42:31.917Z</time>
      </trkpt>
      <trkpt lat="39.06842167" lon="-8.869925">
        <ele>7.0</ele>
        <time>2019-05-16T14:42:32.898Z</time>
      </trkpt>
      <trkpt lat="39.06842167" lon="-8.869925">
        <ele>7.0</ele>
        <time>2019-05-16T14:42:33.923Z</time>
      </trkpt>
      <trkpt lat="39.06845667" lon="-8.86983">
        <ele>8.0</ele>
        <time>2019-05-16T14:42:34.904Z</time>
      </trkpt>
      <trkpt lat="39.06845667" lon="-8.86983">
        <ele>8.0</ele>
        <time>2019-05-16T14:42:35.934Z</time>
      </trkpt>
      <trkpt lat="39.068485" lon="-8.86974">
        <ele>7.0</ele>
        <time>2019-05-16T14:42:36.902Z</time>
      </trkpt>
      <trkpt lat="39.068485" lon="-8.86974">
        <ele>7.0</ele>
        <time>2019-05-16T14:42:37.923Z</time>
      </trkpt>
      <trkpt lat="39.06851667" lon="-8.86964333">
        <ele>8.0</ele>
        <time>2019-05-16T14:42:38.901Z</time>
      </trkpt>
      <trkpt lat="39.06851667" lon="-8.86964333">
        <ele>8.0</ele>
        <time>2019-05-16T14:42:39.926Z</time>
      </trkpt>
      <trkpt lat="39.06854" lon="-8.869555">
        <ele>8.0</ele>
        <time>2019-05-16T14:42:40.913Z</time>
      </trkpt>
      <trkpt lat="39.06854" lon="-8.869555">
        <ele>8.0</ele>
        <time>2019-05-16T14:42:41.936Z</time>
      </trkpt>
      <trkpt lat="39.06856333" lon="-8.86946">
        <ele>8.0</ele>
        <time>2019-05-16T14:42:42.917Z</time>
      </trkpt>
      <trkpt lat="39.06856333" lon="-8.86946">
        <ele>8.0</ele>
        <time>2019-05-16T14:42:43.933Z</time>
      </trkpt>
      <trkpt lat="39.06858833" lon="-8.86936833">
        <ele>8.0</ele>
        <time>2019-05-16T14:42:44.909Z</time>
      </trkpt>
      <trkpt lat="39.06858833" lon="-8.86936833">
        <ele>8.0</ele>
        <time>2019-05-16T14:42:45.899Z</time>
      </trkpt>
      <trkpt lat="39.06861833" lon="-8.86929167">
        <ele>8.0</ele>
        <time>2019-05-16T14:42:46.928Z</time>
      </trkpt>
      <trkpt lat="39.06861833" lon="-8.86929167">
        <ele>8.0</ele>
        <time>2019-05-16T14:42:47.933Z</time>
      </trkpt>
      <trkpt lat="39.06864667" lon="-8.86920167">
        <ele>8.0</ele>
        <time>2019-05-16T14:42:48.897Z</time>
      </trkpt>
      <trkpt lat="39.06865833" lon="-8.86914333">
        <ele>8.0</ele>
        <time>2019-05-16T14:42:49.911Z</time>
      </trkpt>
      <trkpt lat="39.068675" lon="-8.86908667">
        <ele>8.0</ele>
        <time>2019-05-16T14:42:50.926Z</time>
      </trkpt>
      <trkpt lat="39.068675" lon="-8.86908667">
        <ele>8.0</ele>
        <time>2019-05-16T14:42:51.898Z</time>
      </trkpt>
      <trkpt lat="39.06870833" lon="-8.86898">
        <ele>8.0</ele>
        <time>2019-05-16T14:42:52.915Z</time>
      </trkpt>
      <trkpt lat="39.06870833" lon="-8.86898">
        <ele>8.0</ele>
        <time>2019-05-16T14:42:53.913Z</time>
      </trkpt>
      <trkpt lat="39.068735" lon="-8.868885">
        <ele>7.0</ele>
        <time>2019-05-16T14:42:54.932Z</time>
      </trkpt>
      <trkpt lat="39.068735" lon="-8.868885">
        <ele>7.0</ele>
        <time>2019-05-16T14:42:55.927Z</time>
      </trkpt>
      <trkpt lat="39.06876" lon="-8.8688">
        <ele>7.0</ele>
        <time>2019-05-16T14:42:56.909Z</time>
      </trkpt>
      <trkpt lat="39.06876" lon="-8.8688">
        <ele>7.0</ele>
        <time>2019-05-16T14:42:57.936Z</time>
      </trkpt>
      <trkpt lat="39.06878833" lon="-8.86872333">
        <ele>7.0</ele>
        <time>2019-05-16T14:42:58.912Z</time>
      </trkpt>
      <trkpt lat="39.06878833" lon="-8.86872333">
        <ele>7.0</ele>
        <time>2019-05-16T14:42:59.918Z</time>
      </trkpt>
      <trkpt lat="39.06881333" lon="-8.86866167">
        <ele>8.0</ele>
        <time>2019-05-16T14:43:00.899Z</time>
      </trkpt>
      <trkpt lat="39.068825" lon="-8.86863333">
        <ele>7.0</ele>
        <time>2019-05-16T14:43:01.919Z</time>
      </trkpt>
      <trkpt lat="39.068825" lon="-8.86863333">
        <ele>7.0</ele>
        <time>2019-05-16T14:43:02.927Z</time>
      </trkpt>
      <trkpt lat="39.06885167" lon="-8.86856667">
        <ele>8.0</ele>
        <time>2019-05-16T14:43:03.911Z</time>
      </trkpt>
      <trkpt lat="39.06885167" lon="-8.86856667">
        <ele>8.0</ele>
        <time>2019-05-16T14:43:04.935Z</time>
      </trkpt>
      <trkpt lat="39.06888167" lon="-8.86849333">
        <ele>8.0</ele>
        <time>2019-05-16T14:43:05.916Z</time>
      </trkpt>
      <trkpt lat="39.06889333" lon="-8.86846">
        <ele>8.0</ele>
        <time>2019-05-16T14:43:06.908Z</time>
      </trkpt>
      <trkpt lat="39.06889333" lon="-8.86846">
        <ele>8.0</ele>
        <time>2019-05-16T14:43:07.913Z</time>
      </trkpt>
      <trkpt lat="39.06891833" lon="-8.86838167">
        <ele>7.0</ele>
        <time>2019-05-16T14:43:08.931Z</time>
      </trkpt>
      <trkpt lat="39.06891833" lon="-8.86838167">
        <ele>7.0</ele>
        <time>2019-05-16T14:43:09.933Z</time>
      </trkpt>
      <trkpt lat="39.06893333" lon="-8.86832">
        <ele>8.0</ele>
        <time>2019-05-16T14:43:10.923Z</time>
      </trkpt>
      <trkpt lat="39.06893333" lon="-8.86832">
        <ele>8.0</ele>
        <time>2019-05-16T14:43:11.929Z</time>
      </trkpt>
      <trkpt lat="39.068955" lon="-8.86826">
        <ele>8.0</ele>
        <time>2019-05-16T14:43:12.911Z</time>
      </trkpt>
      <trkpt lat="39.068955" lon="-8.86826">
        <ele>8.0</ele>
        <time>2019-05-16T14:43:13.923Z</time>
      </trkpt>
      <trkpt lat="39.06898333" lon="-8.86818833">
        <ele>7.0</ele>
        <time>2019-05-16T14:43:14.938Z</time>
      </trkpt>
      <trkpt lat="39.06898333" lon="-8.86818833">
        <ele>7.0</ele>
        <time>2019-05-16T14:43:15.913Z</time>
      </trkpt>
      <trkpt lat="39.069015" lon="-8.86811667">
        <ele>7.0</ele>
        <time>2019-05-16T14:43:16.939Z</time>
      </trkpt>
      <trkpt lat="39.069015" lon="-8.86811667">
        <ele>7.0</ele>
        <time>2019-05-16T14:43:17.921Z</time>
      </trkpt>
      <trkpt lat="39.069055" lon="-8.86804833">
        <ele>8.0</ele>
        <time>2019-05-16T14:43:18.910Z</time>
      </trkpt>
      <trkpt lat="39.069055" lon="-8.86804833">
        <ele>8.0</ele>
        <time>2019-05-16T14:43:19.916Z</time>
      </trkpt>
      <trkpt lat="39.069085" lon="-8.867965">
        <ele>8.0</ele>
        <time>2019-05-16T14:43:21.041Z</time>
      </trkpt>
      <trkpt lat="39.069085" lon="-8.867965">
        <ele>8.0</ele>
        <time>2019-05-16T14:43:21.913Z</time>
      </trkpt>
      <trkpt lat="39.06912833" lon="-8.86788167">
        <ele>8.0</ele>
        <time>2019-05-16T14:43:22.897Z</time>
      </trkpt>
      <trkpt lat="39.06912833" lon="-8.86788167">
        <ele>8.0</ele>
        <time>2019-05-16T14:43:23.903Z</time>
      </trkpt>
      <trkpt lat="39.06917167" lon="-8.86778833">
        <ele>8.0</ele>
        <time>2019-05-16T14:43:24.898Z</time>
      </trkpt>
      <trkpt lat="39.06917167" lon="-8.86778833">
        <ele>8.0</ele>
        <time>2019-05-16T14:43:25.925Z</time>
      </trkpt>
      <trkpt lat="39.06921" lon="-8.86768167">
        <ele>7.0</ele>
        <time>2019-05-16T14:43:26.910Z</time>
      </trkpt>
      <trkpt lat="39.06921" lon="-8.86768167">
        <ele>7.0</ele>
        <time>2019-05-16T14:43:27.902Z</time>
      </trkpt>
      <trkpt lat="39.06925333" lon="-8.86758167">
        <ele>7.0</ele>
        <time>2019-05-16T14:43:28.925Z</time>
      </trkpt>
      <trkpt lat="39.06925333" lon="-8.86758167">
        <ele>7.0</ele>
        <time>2019-05-16T14:43:29.914Z</time>
      </trkpt>
      <trkpt lat="39.0693" lon="-8.86748333">
        <ele>6.0</ele>
        <time>2019-05-16T14:43:30.901Z</time>
      </trkpt>
      <trkpt lat="39.0693" lon="-8.86748333">
        <ele>6.0</ele>
        <time>2019-05-16T14:43:31.925Z</time>
      </trkpt>
      <trkpt lat="39.06931833" lon="-8.86741333">
        <ele>6.0</ele>
        <time>2019-05-16T14:43:32.912Z</time>
      </trkpt>
      <trkpt lat="39.06931833" lon="-8.86741333">
        <ele>6.0</ele>
        <time>2019-05-16T14:43:33.933Z</time>
      </trkpt>
      <trkpt lat="39.069285" lon="-8.86735833">
        <ele>6.0</ele>
        <time>2019-05-16T14:43:34.915Z</time>
      </trkpt>
      <trkpt lat="39.069285" lon="-8.86735833">
        <ele>6.0</ele>
        <time>2019-05-16T14:43:35.917Z</time>
      </trkpt>
      <trkpt lat="39.06922833" lon="-8.86731833">
        <ele>6.0</ele>
        <time>2019-05-16T14:43:36.898Z</time>
      </trkpt>
      <trkpt lat="39.06922833" lon="-8.86731833">
        <ele>6.0</ele>
        <time>2019-05-16T14:43:37.900Z</time>
      </trkpt>
      <trkpt lat="39.06917" lon="-8.86727667">
        <ele>5.0</ele>
        <time>2019-05-16T14:43:38.920Z</time>
      </trkpt>
      <trkpt lat="39.06917" lon="-8.86727667">
        <ele>5.0</ele>
        <time>2019-05-16T14:43:39.912Z</time>
      </trkpt>
      <trkpt lat="39.06910667" lon="-8.86723333">
        <ele>5.0</ele>
        <time>2019-05-16T14:43:40.929Z</time>
      </trkpt>
      <trkpt lat="39.06910667" lon="-8.86723333">
        <ele>5.0</ele>
        <time>2019-05-16T14:43:41.919Z</time>
      </trkpt>
      <trkpt lat="39.06903667" lon="-8.867185">
        <ele>6.0</ele>
        <time>2019-05-16T14:43:42.916Z</time>
      </trkpt>
      <trkpt lat="39.069005" lon="-8.86716167">
        <ele>6.0</ele>
        <time>2019-05-16T14:43:43.916Z</time>
      </trkpt>
      <trkpt lat="39.068975" lon="-8.867135">
        <ele>6.0</ele>
        <time>2019-05-16T14:43:44.900Z</time>
      </trkpt>
      <trkpt lat="39.068975" lon="-8.867135">
        <ele>6.0</ele>
        <time>2019-05-16T14:43:45.934Z</time>
      </trkpt>
      <trkpt lat="39.06890833" lon="-8.86708667">
        <ele>6.0</ele>
        <time>2019-05-16T14:43:46.913Z</time>
      </trkpt>
      <trkpt lat="39.06890833" lon="-8.86708667">
        <ele>6.0</ele>
        <time>2019-05-16T14:43:47.900Z</time>
      </trkpt>
      <trkpt lat="39.06883167" lon="-8.867045">
        <ele>9.0</ele>
        <time>2019-05-16T14:43:48.919Z</time>
      </trkpt>
      <trkpt lat="39.06883167" lon="-8.867045">
        <ele>9.0</ele>
        <time>2019-05-16T14:43:49.921Z</time>
      </trkpt>
      <trkpt lat="39.06876667" lon="-8.867035">
        <ele>12.0</ele>
        <time>2019-05-16T14:43:50.916Z</time>
      </trkpt>
      <trkpt lat="39.06876667" lon="-8.867035">
        <ele>12.0</ele>
        <time>2019-05-16T14:43:51.918Z</time>
      </trkpt>
      <trkpt lat="39.06872667" lon="-8.86704667">
        <ele>13.0</ele>
        <time>2019-05-16T14:43:52.899Z</time>
      </trkpt>
      <trkpt lat="39.06872667" lon="-8.86704667">
        <ele>13.0</ele>
        <time>2019-05-16T14:43:53.921Z</time>
      </trkpt>
      <trkpt lat="39.06870167" lon="-8.86707667">
        <ele>13.0</ele>
        <time>2019-05-16T14:43:54.905Z</time>
      </trkpt>
      <trkpt lat="39.06870167" lon="-8.86707667">
        <ele>13.0</ele>
        <time>2019-05-16T14:43:55.924Z</time>
      </trkpt>
      <trkpt lat="39.06867" lon="-8.86712333">
        <ele>13.0</ele>
        <time>2019-05-16T14:43:56.898Z</time>
      </trkpt>
      <trkpt lat="39.06867" lon="-8.86712333">
        <ele>13.0</ele>
        <time>2019-05-16T14:43:57.918Z</time>
      </trkpt>
      <trkpt lat="39.068645" lon="-8.86715667">
        <ele>12.0</ele>
        <time>2019-05-16T14:43:58.897Z</time>
      </trkpt>
      <trkpt lat="39.068645" lon="-8.86715667">
        <ele>12.0</ele>
        <time>2019-05-16T14:43:59.919Z</time>
      </trkpt>
      <trkpt lat="39.06861833" lon="-8.86715667">
        <ele>12.0</ele>
        <time>2019-05-16T14:44:00.911Z</time>
      </trkpt>
      <trkpt lat="39.06860333" lon="-8.867155">
        <ele>12.0</ele>
        <time>2019-05-16T14:44:01.905Z</time>
      </trkpt>
      <trkpt lat="39.06860333" lon="-8.867155">
        <ele>12.0</ele>
        <time>2019-05-16T14:44:02.929Z</time>
      </trkpt>
      <trkpt lat="39.06858333" lon="-8.86713667">
        <ele>13.0</ele>
        <time>2019-05-16T14:44:03.911Z</time>
      </trkpt>
      <trkpt lat="39.06856833" lon="-8.86713">
        <ele>14.0</ele>
        <time>2019-05-16T14:44:04.901Z</time>
      </trkpt>
      <trkpt lat="39.06856833" lon="-8.86713">
        <ele>14.0</ele>
        <time>2019-05-16T14:44:05.927Z</time>
      </trkpt>
      <trkpt lat="39.06854333" lon="-8.867115">
        <ele>15.0</ele>
        <time>2019-05-16T14:44:06.901Z</time>
      </trkpt>
      <trkpt lat="39.06854333" lon="-8.867115">
        <ele>15.0</ele>
        <time>2019-05-16T14:44:07.923Z</time>
      </trkpt>
      <trkpt lat="39.06852667" lon="-8.867095">
        <ele>15.0</ele>
        <time>2019-05-16T14:44:08.915Z</time>
      </trkpt>
      <trkpt lat="39.06852667" lon="-8.867095">
        <ele>15.0</ele>
        <time>2019-05-16T14:44:09.932Z</time>
      </trkpt>
      <trkpt lat="39.068515" lon="-8.86706833">
        <ele>15.0</ele>
        <time>2019-05-16T14:44:10.915Z</time>
      </trkpt>
      <trkpt lat="39.068515" lon="-8.86706833">
        <ele>15.0</ele>
        <time>2019-05-16T14:44:11.914Z</time>
      </trkpt>
      <trkpt lat="39.06851833" lon="-8.86703">
        <ele>15.0</ele>
        <time>2019-05-16T14:44:12.929Z</time>
      </trkpt>
      <trkpt lat="39.06851833" lon="-8.86703">
        <ele>15.0</ele>
        <time>2019-05-16T14:44:13.916Z</time>
      </trkpt>
      <trkpt lat="39.06853333" lon="-8.866995">
        <ele>15.0</ele>
        <time>2019-05-16T14:44:14.899Z</time>
      </trkpt>
      <trkpt lat="39.06853333" lon="-8.866995">
        <ele>15.0</ele>
        <time>2019-05-16T14:44:15.915Z</time>
      </trkpt>
      <trkpt lat="39.06855333" lon="-8.86695">
        <ele>14.0</ele>
        <time>2019-05-16T14:44:16.901Z</time>
      </trkpt>
      <trkpt lat="39.06855333" lon="-8.86695">
        <ele>14.0</ele>
        <time>2019-05-16T14:44:17.923Z</time>
      </trkpt>
      <trkpt lat="39.06856667" lon="-8.8669">
        <ele>14.0</ele>
        <time>2019-05-16T14:44:18.898Z</time>
      </trkpt>
      <trkpt lat="39.06856667" lon="-8.8669">
        <ele>14.0</ele>
        <time>2019-05-16T14:44:19.903Z</time>
      </trkpt>
      <trkpt lat="39.06858333" lon="-8.86685333">
        <ele>14.0</ele>
        <time>2019-05-16T14:44:20.900Z</time>
      </trkpt>
      <trkpt lat="39.06858333" lon="-8.86685333">
        <ele>14.0</ele>
        <time>2019-05-16T14:44:21.913Z</time>
      </trkpt>
      <trkpt lat="39.06860667" lon="-8.86680667">
        <ele>13.0</ele>
        <time>2019-05-16T14:44:22.906Z</time>
      </trkpt>
      <trkpt lat="39.06860667" lon="-8.86680667">
        <ele>13.0</ele>
        <time>2019-05-16T14:44:23.931Z</time>
      </trkpt>
      <trkpt lat="39.06863833" lon="-8.86675">
        <ele>13.0</ele>
        <time>2019-05-16T14:44:24.910Z</time>
      </trkpt>
      <trkpt lat="39.06863833" lon="-8.86675">
        <ele>13.0</ele>
        <time>2019-05-16T14:44:25.913Z</time>
      </trkpt>
      <trkpt lat="39.06866167" lon="-8.86669">
        <ele>13.0</ele>
        <time>2019-05-16T14:44:26.911Z</time>
      </trkpt>
      <trkpt lat="39.06866167" lon="-8.86669">
        <ele>13.0</ele>
        <time>2019-05-16T14:44:27.930Z</time>
      </trkpt>
      <trkpt lat="39.06867667" lon="-8.86663167">
        <ele>12.0</ele>
        <time>2019-05-16T14:44:28.897Z</time>
      </trkpt>
      <trkpt lat="39.06867667" lon="-8.86663167">
        <ele>12.0</ele>
        <time>2019-05-16T14:44:29.914Z</time>
      </trkpt>
      <trkpt lat="39.06868833" lon="-8.86659833">
        <ele>12.0</ele>
        <time>2019-05-16T14:44:30.935Z</time>
      </trkpt>
      <trkpt lat="39.06868833" lon="-8.86659833">
        <ele>12.0</ele>
        <time>2019-05-16T14:44:31.914Z</time>
      </trkpt>
      <trkpt lat="39.06869" lon="-8.8666">
        <ele>12.0</ele>
        <time>2019-05-16T14:44:32.901Z</time>
      </trkpt>
      <trkpt lat="39.06869" lon="-8.8666">
        <ele>12.0</ele>
        <time>2019-05-16T14:44:33.933Z</time>
      </trkpt>
      <trkpt lat="39.06869" lon="-8.8666">
        <ele>12.0</ele>
        <time>2019-05-16T14:44:34.908Z</time>
      </trkpt>
      <trkpt lat="39.06869" lon="-8.8666">
        <ele>12.0</ele>
        <time>2019-05-16T14:44:35.923Z</time>
      </trkpt>
      <trkpt lat="39.06869" lon="-8.8666">
        <ele>12.0</ele>
        <time>2019-05-16T14:44:36.929Z</time>
      </trkpt>
      <trkpt lat="39.06869" lon="-8.8666">
        <ele>12.0</ele>
        <time>2019-05-16T14:44:37.935Z</time>
      </trkpt>
      <trkpt lat="39.06869" lon="-8.86656667">
        <ele>12.0</ele>
        <time>2019-05-16T14:44:38.901Z</time>
      </trkpt>
      <trkpt lat="39.06869333" lon="-8.866555">
        <ele>12.0</ele>
        <time>2019-05-16T14:44:39.927Z</time>
      </trkpt>
      <trkpt lat="39.06869333" lon="-8.866555">
        <ele>12.0</ele>
        <time>2019-05-16T14:44:40.922Z</time>
      </trkpt>
      <trkpt lat="39.06870167" lon="-8.86653">
        <ele>12.0</ele>
        <time>2019-05-16T14:44:41.926Z</time>
      </trkpt>
      <trkpt lat="39.06870167" lon="-8.86653">
        <ele>12.0</ele>
        <time>2019-05-16T14:44:42.922Z</time>
      </trkpt>
      <trkpt lat="39.06870333" lon="-8.86651167">
        <ele>12.0</ele>
        <time>2019-05-16T14:44:43.926Z</time>
      </trkpt>
      <trkpt lat="39.0687" lon="-8.866505">
        <ele>12.0</ele>
        <time>2019-05-16T14:44:44.929Z</time>
      </trkpt>
      <trkpt lat="39.0687" lon="-8.866505">
        <ele>12.0</ele>
        <time>2019-05-16T14:44:45.922Z</time>
      </trkpt>
      <trkpt lat="39.06872833" lon="-8.86650167">
        <ele>13.0</ele>
        <time>2019-05-16T14:44:46.911Z</time>
      </trkpt>
      <trkpt lat="39.06872833" lon="-8.86650167">
        <ele>13.0</ele>
        <time>2019-05-16T14:44:47.923Z</time>
      </trkpt>
      <trkpt lat="39.06874" lon="-8.86648667">
        <ele>13.0</ele>
        <time>2019-05-16T14:44:48.911Z</time>
      </trkpt>
      <trkpt lat="39.068745" lon="-8.86648333">
        <ele>13.0</ele>
        <time>2019-05-16T14:44:49.914Z</time>
      </trkpt>
      <trkpt lat="39.068745" lon="-8.86648333">
        <ele>13.0</ele>
        <time>2019-05-16T14:44:50.928Z</time>
      </trkpt>
      <trkpt lat="39.06874667" lon="-8.86647167">
        <ele>13.0</ele>
        <time>2019-05-16T14:44:51.901Z</time>
      </trkpt>
      <trkpt lat="39.068745" lon="-8.86647333">
        <ele>13.0</ele>
        <time>2019-05-16T14:44:52.907Z</time>
      </trkpt>
      <trkpt lat="39.068745" lon="-8.86647333">
        <ele>13.0</ele>
        <time>2019-05-16T14:44:53.903Z</time>
      </trkpt>
      <trkpt lat="39.06875" lon="-8.86647667">
        <ele>13.0</ele>
        <time>2019-05-16T14:44:54.931Z</time>
      </trkpt>
      <trkpt lat="39.06875" lon="-8.86647667">
        <ele>13.0</ele>
        <time>2019-05-16T14:44:55.907Z</time>
      </trkpt>
      <trkpt lat="39.06875" lon="-8.86647667">
        <ele>13.0</ele>
        <time>2019-05-16T14:44:56.913Z</time>
      </trkpt>
      <trkpt lat="39.06875" lon="-8.86647667">
        <ele>13.0</ele>
        <time>2019-05-16T14:44:57.919Z</time>
      </trkpt>
      <trkpt lat="39.06875" lon="-8.86647667">
        <ele>13.0</ele>
        <time>2019-05-16T14:44:58.925Z</time>
      </trkpt>
      <trkpt lat="39.06875" lon="-8.86647667">
        <ele>13.0</ele>
        <time>2019-05-16T14:44:59.897Z</time>
      </trkpt>
      <trkpt lat="39.06875" lon="-8.86647667">
        <ele>13.0</ele>
        <time>2019-05-16T14:45:00.927Z</time>
      </trkpt>
      <trkpt lat="39.06875" lon="-8.86647667">
        <ele>13.0</ele>
        <time>2019-05-16T14:45:01.931Z</time>
      </trkpt>
      <trkpt lat="39.06875" lon="-8.86647667">
        <ele>13.0</ele>
        <time>2019-05-16T14:45:02.932Z</time>
      </trkpt>
      <trkpt lat="39.06875" lon="-8.86647667">
        <ele>13.0</ele>
        <time>2019-05-16T14:45:03.925Z</time>
      </trkpt>
      <trkpt lat="39.06875" lon="-8.86647667">
        <ele>13.0</ele>
        <time>2019-05-16T14:45:04.927Z</time>
      </trkpt>
      <trkpt lat="39.06875" lon="-8.86647667">
        <ele>13.0</ele>
        <time>2019-05-16T14:45:05.922Z</time>
      </trkpt>
      <trkpt lat="39.06875" lon="-8.86647667">
        <ele>13.0</ele>
        <time>2019-05-16T14:45:06.925Z</time>
      </trkpt>
      <trkpt lat="39.06875" lon="-8.86647667">
        <ele>13.0</ele>
        <time>2019-05-16T14:45:07.922Z</time>
      </trkpt>
      <trkpt lat="39.06875" lon="-8.86647667">
        <ele>13.0</ele>
        <time>2019-05-16T14:45:08.928Z</time>
      </trkpt>
      <trkpt lat="39.06875" lon="-8.86647667">
        <ele>13.0</ele>
        <time>2019-05-16T14:45:09.926Z</time>
      </trkpt>
      <trkpt lat="39.06875" lon="-8.86647667">
        <ele>13.0</ele>
        <time>2019-05-16T14:45:10.928Z</time>
      </trkpt>
      <trkpt lat="39.06875" lon="-8.86647667">
        <ele>13.0</ele>
        <time>2019-05-16T14:45:11.926Z</time>
      </trkpt>
      <trkpt lat="39.06875" lon="-8.86647667">
        <ele>13.0</ele>
        <time>2019-05-16T14:45:12.922Z</time>
      </trkpt>
      <trkpt lat="39.06875" lon="-8.86647667">
        <ele>13.0</ele>
        <time>2019-05-16T14:45:13.923Z</time>
      </trkpt>
      <trkpt lat="39.06875" lon="-8.86647667">
        <ele>13.0</ele>
        <time>2019-05-16T14:45:14.930Z</time>
      </trkpt>
      <trkpt lat="39.06875" lon="-8.86647667">
        <ele>13.0</ele>
        <time>2019-05-16T14:45:15.929Z</time>
      </trkpt>
      <trkpt lat="39.06875" lon="-8.86647667">
        <ele>13.0</ele>
        <time>2019-05-16T14:45:16.927Z</time>
      </trkpt>
      <trkpt lat="39.06875" lon="-8.86647667">
        <ele>13.0</ele>
        <time>2019-05-16T14:45:17.922Z</time>
      </trkpt>
      <trkpt lat="39.06872333" lon="-8.86647833">
        <ele>10.0</ele>
        <time>2019-05-16T14:45:18.927Z</time>
      </trkpt>
      <trkpt lat="39.06871" lon="-8.86647833">
        <ele>10.0</ele>
        <time>2019-05-16T14:45:19.900Z</time>
      </trkpt>
      <trkpt lat="39.06871" lon="-8.86647833">
        <ele>10.0</ele>
        <time>2019-05-16T14:45:20.915Z</time>
      </trkpt>
      <trkpt lat="39.06867667" lon="-8.86647667">
        <ele>11.0</ele>
        <time>2019-05-16T14:45:21.922Z</time>
      </trkpt>
      <trkpt lat="39.06867667" lon="-8.86647667">
        <ele>11.0</ele>
        <time>2019-05-16T14:45:22.928Z</time>
      </trkpt>
      <trkpt lat="39.068655" lon="-8.86649">
        <ele>11.0</ele>
        <time>2019-05-16T14:45:23.939Z</time>
      </trkpt>
      <trkpt lat="39.068655" lon="-8.86649">
        <ele>11.0</ele>
        <time>2019-05-16T14:45:24.925Z</time>
      </trkpt>
      <trkpt lat="39.06864167" lon="-8.86648667">
        <ele>10.0</ele>
        <time>2019-05-16T14:45:25.906Z</time>
      </trkpt>
      <trkpt lat="39.06863667" lon="-8.86648833">
        <ele>10.0</ele>
        <time>2019-05-16T14:45:26.907Z</time>
      </trkpt>
      <trkpt lat="39.06863667" lon="-8.86648833">
        <ele>10.0</ele>
        <time>2019-05-16T14:45:27.923Z</time>
      </trkpt>
      <trkpt lat="39.06863" lon="-8.86649833">
        <ele>10.0</ele>
        <time>2019-05-16T14:45:28.912Z</time>
      </trkpt>
      <trkpt lat="39.06863" lon="-8.86649833">
        <ele>10.0</ele>
        <time>2019-05-16T14:45:29.916Z</time>
      </trkpt>
      <trkpt lat="39.06863167" lon="-8.86649667">
        <ele>10.0</ele>
        <time>2019-05-16T14:45:30.933Z</time>
      </trkpt>
      <trkpt lat="39.06863167" lon="-8.86649667">
        <ele>10.0</ele>
        <time>2019-05-16T14:45:31.908Z</time>
      </trkpt>
      <trkpt lat="39.06862833" lon="-8.86649833">
        <ele>10.0</ele>
        <time>2019-05-16T14:45:32.915Z</time>
      </trkpt>
      <trkpt lat="39.06862833" lon="-8.86649833">
        <ele>10.0</ele>
        <time>2019-05-16T14:45:33.921Z</time>
      </trkpt>
      <trkpt lat="39.06863" lon="-8.86649167">
        <ele>10.0</ele>
        <time>2019-05-16T14:45:34.927Z</time>
      </trkpt>
      <trkpt lat="39.06863" lon="-8.86649167">
        <ele>10.0</ele>
        <time>2019-05-16T14:45:35.931Z</time>
      </trkpt>
      <trkpt lat="39.06863333" lon="-8.86649">
        <ele>10.0</ele>
        <time>2019-05-16T14:45:36.927Z</time>
      </trkpt>
      <trkpt lat="39.06863333" lon="-8.86649">
        <ele>10.0</ele>
        <time>2019-05-16T14:45:37.922Z</time>
      </trkpt>
      <trkpt lat="39.06863333" lon="-8.86649">
        <ele>10.0</ele>
        <time>2019-05-16T14:45:38.931Z</time>
      </trkpt>
      <trkpt lat="39.06863333" lon="-8.86649">
        <ele>10.0</ele>
        <time>2019-05-16T14:45:39.927Z</time>
      </trkpt>
      <trkpt lat="39.06863333" lon="-8.86649">
        <ele>10.0</ele>
        <time>2019-05-16T14:45:40.926Z</time>
      </trkpt>
      <trkpt lat="39.06863333" lon="-8.86649">
        <ele>10.0</ele>
        <time>2019-05-16T14:45:41.926Z</time>
      </trkpt>
      <trkpt lat="39.06863333" lon="-8.86649">
        <ele>10.0</ele>
        <time>2019-05-16T14:45:42.922Z</time>
      </trkpt>
      <trkpt lat="39.06863333" lon="-8.86649">
        <ele>10.0</ele>
        <time>2019-05-16T14:45:43.934Z</time>
      </trkpt>
      <trkpt lat="39.06863333" lon="-8.86649">
        <ele>10.0</ele>
        <time>2019-05-16T14:45:44.929Z</time>
      </trkpt>
      <trkpt lat="39.06863333" lon="-8.86649">
        <ele>10.0</ele>
        <time>2019-05-16T14:45:45.923Z</time>
      </trkpt>
      <trkpt lat="39.06863167" lon="-8.86646">
        <ele>10.0</ele>
        <time>2019-05-16T14:45:46.927Z</time>
      </trkpt>
      <trkpt lat="39.06863167" lon="-8.86646">
        <ele>10.0</ele>
        <time>2019-05-16T14:45:47.922Z</time>
      </trkpt>
      <trkpt lat="39.06863167" lon="-8.86646333">
        <ele>9.0</ele>
        <time>2019-05-16T14:45:48.926Z</time>
      </trkpt>
      <trkpt lat="39.06863167" lon="-8.86646333">
        <ele>9.0</ele>
        <time>2019-05-16T14:45:49.924Z</time>
      </trkpt>
      <trkpt lat="39.06863167" lon="-8.86646333">
        <ele>9.0</ele>
        <time>2019-05-16T14:45:50.929Z</time>
      </trkpt>
      <trkpt lat="39.06863167" lon="-8.86646333">
        <ele>9.0</ele>
        <time>2019-05-16T14:45:51.921Z</time>
      </trkpt>
      <trkpt lat="39.06863167" lon="-8.86646333">
        <ele>9.0</ele>
        <time>2019-05-16T14:45:52.926Z</time>
      </trkpt>
      <trkpt lat="39.06863167" lon="-8.86646333">
        <ele>9.0</ele>
        <time>2019-05-16T14:45:53.922Z</time>
      </trkpt>
      <trkpt lat="39.06863167" lon="-8.86646333">
        <ele>9.0</ele>
        <time>2019-05-16T14:45:54.927Z</time>
      </trkpt>
      <trkpt lat="39.06863167" lon="-8.86646333">
        <ele>9.0</ele>
        <time>2019-05-16T14:45:55.922Z</time>
      </trkpt>
      <trkpt lat="39.06863167" lon="-8.86646333">
        <ele>9.0</ele>
        <time>2019-05-16T14:45:56.929Z</time>
      </trkpt>
      <trkpt lat="39.06863167" lon="-8.86646333">
        <ele>9.0</ele>
        <time>2019-05-16T14:45:57.922Z</time>
      </trkpt>
      <trkpt lat="39.06863167" lon="-8.86646333">
        <ele>9.0</ele>
        <time>2019-05-16T14:45:58.926Z</time>
      </trkpt>
      <trkpt lat="39.06863167" lon="-8.86646333">
        <ele>9.0</ele>
        <time>2019-05-16T14:45:59.931Z</time>
      </trkpt>
      <trkpt lat="39.06863167" lon="-8.86646333">
        <ele>9.0</ele>
        <time>2019-05-16T14:46:00.926Z</time>
      </trkpt>
      <trkpt lat="39.06863167" lon="-8.86646333">
        <ele>9.0</ele>
        <time>2019-05-16T14:46:01.931Z</time>
      </trkpt>
      <trkpt lat="39.06863167" lon="-8.86646333">
        <ele>9.0</ele>
        <time>2019-05-16T14:46:02.930Z</time>
      </trkpt>
      <trkpt lat="39.06863167" lon="-8.86646333">
        <ele>9.0</ele>
        <time>2019-05-16T14:46:03.928Z</time>
      </trkpt>
      <trkpt lat="39.06863667" lon="-8.86644667">
        <ele>8.0</ele>
        <time>2019-05-16T14:46:04.927Z</time>
      </trkpt>
      <trkpt lat="39.06864167" lon="-8.86644333">
        <ele>8.0</ele>
        <time>2019-05-16T14:46:05.928Z</time>
      </trkpt>
      <trkpt lat="39.06864167" lon="-8.86644333">
        <ele>8.0</ele>
        <time>2019-05-16T14:46:06.922Z</time>
      </trkpt>
      <trkpt lat="39.06865167" lon="-8.86645167">
        <ele>7.0</ele>
        <time>2019-05-16T14:46:07.927Z</time>
      </trkpt>
      <trkpt lat="39.06864833" lon="-8.86645">
        <ele>7.0</ele>
        <time>2019-05-16T14:46:08.928Z</time>
      </trkpt>
      <trkpt lat="39.06864833" lon="-8.86645">
        <ele>7.0</ele>
        <time>2019-05-16T14:46:09.924Z</time>
      </trkpt>
      <trkpt lat="39.06865333" lon="-8.86645">
        <ele>7.0</ele>
        <time>2019-05-16T14:46:10.907Z</time>
      </trkpt>
      <trkpt lat="39.06865333" lon="-8.86645">
        <ele>7.0</ele>
        <time>2019-05-16T14:46:11.932Z</time>
      </trkpt>
      <trkpt lat="39.06865333" lon="-8.86645">
        <ele>7.0</ele>
        <time>2019-05-16T14:46:12.927Z</time>
      </trkpt>
      <trkpt lat="39.06865333" lon="-8.86645">
        <ele>7.0</ele>
        <time>2019-05-16T14:46:13.922Z</time>
      </trkpt>
      <trkpt lat="39.06865333" lon="-8.86645">
        <ele>7.0</ele>
        <time>2019-05-16T14:46:14.901Z</time>
      </trkpt>
      <trkpt lat="39.06865333" lon="-8.86645">
        <ele>7.0</ele>
        <time>2019-05-16T14:46:15.927Z</time>
      </trkpt>
      <trkpt lat="39.06865333" lon="-8.86645">
        <ele>7.0</ele>
        <time>2019-05-16T14:46:16.927Z</time>
      </trkpt>
      <trkpt lat="39.06865333" lon="-8.86645">
        <ele>7.0</ele>
        <time>2019-05-16T14:46:17.922Z</time>
      </trkpt>
      <trkpt lat="39.06863167" lon="-8.866375">
        <ele>6.0</ele>
        <time>2019-05-16T14:46:18.927Z</time>
      </trkpt>
      <trkpt lat="39.06863167" lon="-8.866375">
        <ele>6.0</ele>
        <time>2019-05-16T14:46:19.931Z</time>
      </trkpt>
      <trkpt lat="39.06863167" lon="-8.86636333">
        <ele>6.0</ele>
        <time>2019-05-16T14:46:20.921Z</time>
      </trkpt>
      <trkpt lat="39.06863167" lon="-8.86636333">
        <ele>6.0</ele>
        <time>2019-05-16T14:46:21.934Z</time>
      </trkpt>
      <trkpt lat="39.06861667" lon="-8.86636">
        <ele>6.0</ele>
        <time>2019-05-16T14:46:22.925Z</time>
      </trkpt>
      <trkpt lat="39.06860167" lon="-8.86634667">
        <ele>6.0</ele>
        <time>2019-05-16T14:46:23.941Z</time>
      </trkpt>
      <trkpt lat="39.06860167" lon="-8.86634667">
        <ele>6.0</ele>
        <time>2019-05-16T14:46:24.914Z</time>
      </trkpt>
      <trkpt lat="39.06859" lon="-8.86633333">
        <ele>5.0</ele>
        <time>2019-05-16T14:46:25.931Z</time>
      </trkpt>
      <trkpt lat="39.068575" lon="-8.86633167">
        <ele>5.0</ele>
        <time>2019-05-16T14:46:26.903Z</time>
      </trkpt>
      <trkpt lat="39.068575" lon="-8.86633167">
        <ele>5.0</ele>
        <time>2019-05-16T14:46:27.906Z</time>
      </trkpt>
      <trkpt lat="39.06856333" lon="-8.86631833">
        <ele>5.0</ele>
        <time>2019-05-16T14:46:28.927Z</time>
      </trkpt>
      <trkpt lat="39.06856333" lon="-8.86631833">
        <ele>5.0</ele>
        <time>2019-05-16T14:46:29.931Z</time>
      </trkpt>
      <trkpt lat="39.06854833" lon="-8.866305">
        <ele>5.0</ele>
        <time>2019-05-16T14:46:30.911Z</time>
      </trkpt>
      <trkpt lat="39.06854833" lon="-8.866305">
        <ele>5.0</ele>
        <time>2019-05-16T14:46:31.930Z</time>
      </trkpt>
      <trkpt lat="39.06853833" lon="-8.86629">
        <ele>4.0</ele>
        <time>2019-05-16T14:46:32.910Z</time>
      </trkpt>
      <trkpt lat="39.06853833" lon="-8.86629">
        <ele>4.0</ele>
        <time>2019-05-16T14:46:33.901Z</time>
      </trkpt>
      <trkpt lat="39.06853833" lon="-8.86627333">
        <ele>4.0</ele>
        <time>2019-05-16T14:46:34.898Z</time>
      </trkpt>
      <trkpt lat="39.06853833" lon="-8.86627333">
        <ele>4.0</ele>
        <time>2019-05-16T14:46:35.899Z</time>
      </trkpt>
      <trkpt lat="39.06853333" lon="-8.866255">
        <ele>4.0</ele>
        <time>2019-05-16T14:46:36.918Z</time>
      </trkpt>
      <trkpt lat="39.06853167" lon="-8.86625">
        <ele>4.0</ele>
        <time>2019-05-16T14:46:37.916Z</time>
      </trkpt>
      <trkpt lat="39.06852833" lon="-8.86624167">
        <ele>4.0</ele>
        <time>2019-05-16T14:46:38.913Z</time>
      </trkpt>
      <trkpt lat="39.06852833" lon="-8.86624167">
        <ele>4.0</ele>
        <time>2019-05-16T14:46:39.922Z</time>
      </trkpt>
      <trkpt lat="39.06851833" lon="-8.86623333">
        <ele>4.0</ele>
        <time>2019-05-16T14:46:40.927Z</time>
      </trkpt>
      <trkpt lat="39.06851833" lon="-8.86623333">
        <ele>4.0</ele>
        <time>2019-05-16T14:46:41.934Z</time>
      </trkpt>
      <trkpt lat="39.06852" lon="-8.86621333">
        <ele>3.0</ele>
        <time>2019-05-16T14:46:42.899Z</time>
      </trkpt>
      <trkpt lat="39.06852" lon="-8.86621333">
        <ele>3.0</ele>
        <time>2019-05-16T14:46:43.932Z</time>
      </trkpt>
      <trkpt lat="39.06852167" lon="-8.86620333">
        <ele>3.0</ele>
        <time>2019-05-16T14:46:44.925Z</time>
      </trkpt>
      <trkpt lat="39.06852167" lon="-8.86620333">
        <ele>3.0</ele>
        <time>2019-05-16T14:46:45.903Z</time>
      </trkpt>
      <trkpt lat="39.06852167" lon="-8.86620333">
        <ele>3.0</ele>
        <time>2019-05-16T14:46:46.922Z</time>
      </trkpt>
      <trkpt lat="39.06852167" lon="-8.86620333">
        <ele>3.0</ele>
        <time>2019-05-16T14:46:47.905Z</time>
      </trkpt>
      <trkpt lat="39.06852167" lon="-8.86620333">
        <ele>3.0</ele>
        <time>2019-05-16T14:46:48.912Z</time>
      </trkpt>
      <trkpt lat="39.06852167" lon="-8.86620333">
        <ele>3.0</ele>
        <time>2019-05-16T14:46:49.918Z</time>
      </trkpt>
      <trkpt lat="39.06852167" lon="-8.86620333">
        <ele>3.0</ele>
        <time>2019-05-16T14:46:50.927Z</time>
      </trkpt>
      <trkpt lat="39.06852167" lon="-8.86620333">
        <ele>3.0</ele>
        <time>2019-05-16T14:46:51.912Z</time>
      </trkpt>
      <trkpt lat="39.06852167" lon="-8.86620333">
        <ele>3.0</ele>
        <time>2019-05-16T14:46:52.897Z</time>
      </trkpt>
      <trkpt lat="39.06848" lon="-8.86614333">
        <ele>4.0</ele>
        <time>2019-05-16T14:46:53.926Z</time>
      </trkpt>
      <trkpt lat="39.06848" lon="-8.86614333">
        <ele>4.0</ele>
        <time>2019-05-16T14:46:54.921Z</time>
      </trkpt>
      <trkpt lat="39.06847167" lon="-8.86613167">
        <ele>4.0</ele>
        <time>2019-05-16T14:46:55.898Z</time>
      </trkpt>
      <trkpt lat="39.068465" lon="-8.86612833">
        <ele>4.0</ele>
        <time>2019-05-16T14:46:56.926Z</time>
      </trkpt>
      <trkpt lat="39.068465" lon="-8.86612833">
        <ele>4.0</ele>
        <time>2019-05-16T14:46:57.914Z</time>
      </trkpt>
      <trkpt lat="39.06843833" lon="-8.86614167">
        <ele>3.0</ele>
        <time>2019-05-16T14:46:58.930Z</time>
      </trkpt>
      <trkpt lat="39.06843833" lon="-8.86614167">
        <ele>3.0</ele>
        <time>2019-05-16T14:46:59.902Z</time>
      </trkpt>
      <trkpt lat="39.06841667" lon="-8.86615833">
        <ele>3.0</ele>
        <time>2019-05-16T14:47:00.925Z</time>
      </trkpt>
      <trkpt lat="39.06841667" lon="-8.86615833">
        <ele>3.0</ele>
        <time>2019-05-16T14:47:01.914Z</time>
      </trkpt>
      <trkpt lat="39.06840667" lon="-8.866155">
        <ele>3.0</ele>
        <time>2019-05-16T14:47:02.900Z</time>
      </trkpt>
      <trkpt lat="39.06840667" lon="-8.866155">
        <ele>3.0</ele>
        <time>2019-05-16T14:47:03.923Z</time>
      </trkpt>
      <trkpt lat="39.06840333" lon="-8.866135">
        <ele>3.0</ele>
        <time>2019-05-16T14:47:04.929Z</time>
      </trkpt>
      <trkpt lat="39.06840333" lon="-8.866135">
        <ele>3.0</ele>
        <time>2019-05-16T14:47:05.935Z</time>
      </trkpt>
      <trkpt lat="39.06841167" lon="-8.86611667">
        <ele>2.0</ele>
        <time>2019-05-16T14:47:06.900Z</time>
      </trkpt>
      <trkpt lat="39.06841167" lon="-8.86611667">
        <ele>2.0</ele>
        <time>2019-05-16T14:47:07.926Z</time>
      </trkpt>
      <trkpt lat="39.06841333" lon="-8.86610333">
        <ele>2.0</ele>
        <time>2019-05-16T14:47:08.929Z</time>
      </trkpt>
      <trkpt lat="39.06841333" lon="-8.86610333">
        <ele>2.0</ele>
        <time>2019-05-16T14:47:09.925Z</time>
      </trkpt>
      <trkpt lat="39.06842" lon="-8.86609333">
        <ele>2.0</ele>
        <time>2019-05-16T14:47:10.926Z</time>
      </trkpt>
      <trkpt lat="39.06842" lon="-8.86609333">
        <ele>2.0</ele>
        <time>2019-05-16T14:47:11.922Z</time>
      </trkpt>
      <trkpt lat="39.068415" lon="-8.86607333">
        <ele>2.0</ele>
        <time>2019-05-16T14:47:12.927Z</time>
      </trkpt>
      <trkpt lat="39.068415" lon="-8.86607333">
        <ele>2.0</ele>
        <time>2019-05-16T14:47:13.922Z</time>
      </trkpt>
      <trkpt lat="39.06841" lon="-8.86607333">
        <ele>2.0</ele>
        <time>2019-05-16T14:47:14.916Z</time>
      </trkpt>
      <trkpt lat="39.06841" lon="-8.86607333">
        <ele>2.0</ele>
        <time>2019-05-16T14:47:15.932Z</time>
      </trkpt>
      <trkpt lat="39.068405" lon="-8.866075">
        <ele>2.0</ele>
        <time>2019-05-16T14:47:16.915Z</time>
      </trkpt>
      <trkpt lat="39.068405" lon="-8.866075">
        <ele>2.0</ele>
        <time>2019-05-16T14:47:17.904Z</time>
      </trkpt>
      <trkpt lat="39.068405" lon="-8.866075">
        <ele>2.0</ele>
        <time>2019-05-16T14:47:18.911Z</time>
      </trkpt>
      <trkpt lat="39.068405" lon="-8.866075">
        <ele>2.0</ele>
        <time>2019-05-16T14:47:19.918Z</time>
      </trkpt>
      <trkpt lat="39.068405" lon="-8.866075">
        <ele>2.0</ele>
        <time>2019-05-16T14:47:20.923Z</time>
      </trkpt>
      <trkpt lat="39.068405" lon="-8.866075">
        <ele>2.0</ele>
        <time>2019-05-16T14:47:21.925Z</time>
      </trkpt>
      <trkpt lat="39.068405" lon="-8.866075">
        <ele>2.0</ele>
        <time>2019-05-16T14:47:22.931Z</time>
      </trkpt>
      <trkpt lat="39.068405" lon="-8.866075">
        <ele>2.0</ele>
        <time>2019-05-16T14:47:23.903Z</time>
      </trkpt>
      <trkpt lat="39.068405" lon="-8.866075">
        <ele>2.0</ele>
        <time>2019-05-16T14:47:24.934Z</time>
      </trkpt>
      <trkpt lat="39.06834333" lon="-8.86612">
        <ele>2.0</ele>
        <time>2019-05-16T14:47:25.926Z</time>
      </trkpt>
      <trkpt lat="39.06833833" lon="-8.86611833">
        <ele>2.0</ele>
        <time>2019-05-16T14:47:26.902Z</time>
      </trkpt>
      <trkpt lat="39.06833833" lon="-8.86611833">
        <ele>2.0</ele>
        <time>2019-05-16T14:47:27.901Z</time>
      </trkpt>
      <trkpt lat="39.06834" lon="-8.86611667">
        <ele>2.0</ele>
        <time>2019-05-16T14:47:28.922Z</time>
      </trkpt>
      <trkpt lat="39.06834" lon="-8.86611667">
        <ele>2.0</ele>
        <time>2019-05-16T14:47:29.897Z</time>
      </trkpt>
      <trkpt lat="39.06834" lon="-8.86611667">
        <ele>2.0</ele>
        <time>2019-05-16T14:47:30.903Z</time>
      </trkpt>
      <trkpt lat="39.06835167" lon="-8.86612">
        <ele>2.0</ele>
        <time>2019-05-16T14:47:31.910Z</time>
      </trkpt>
      <trkpt lat="39.068365" lon="-8.86610833">
        <ele>1.0</ele>
        <time>2019-05-16T14:47:32.920Z</time>
      </trkpt>
      <trkpt lat="39.06836833" lon="-8.86610667">
        <ele>1.0</ele>
        <time>2019-05-16T14:47:33.905Z</time>
      </trkpt>
      <trkpt lat="39.06836833" lon="-8.86610667">
        <ele>1.0</ele>
        <time>2019-05-16T14:47:34.933Z</time>
      </trkpt>
      <trkpt lat="39.06837" lon="-8.86610167">
        <ele>1.0</ele>
        <time>2019-05-16T14:47:35.916Z</time>
      </trkpt>
      <trkpt lat="39.06837" lon="-8.86610167">
        <ele>1.0</ele>
        <time>2019-05-16T14:47:36.935Z</time>
      </trkpt>
      <trkpt lat="39.06837" lon="-8.8661">
        <ele>1.0</ele>
        <time>2019-05-16T14:47:37.900Z</time>
      </trkpt>
      <trkpt lat="39.06838167" lon="-8.86608667">
        <ele>1.0</ele>
        <time>2019-05-16T14:47:38.906Z</time>
      </trkpt>
      <trkpt lat="39.06838167" lon="-8.86608667">
        <ele>1.0</ele>
        <time>2019-05-16T14:47:39.914Z</time>
      </trkpt>
      <trkpt lat="39.06838667" lon="-8.86607333">
        <ele>1.0</ele>
        <time>2019-05-16T14:47:40.900Z</time>
      </trkpt>
      <trkpt lat="39.06838667" lon="-8.86607333">
        <ele>1.0</ele>
        <time>2019-05-16T14:47:41.926Z</time>
      </trkpt>
      <trkpt lat="39.06839" lon="-8.86606">
        <ele>1.0</ele>
        <time>2019-05-16T14:47:42.899Z</time>
      </trkpt>
      <trkpt lat="39.06839" lon="-8.86606">
        <ele>1.0</ele>
        <time>2019-05-16T14:47:43.926Z</time>
      </trkpt>
      <trkpt lat="39.06838833" lon="-8.86605667">
        <ele>1.0</ele>
        <time>2019-05-16T14:47:44.929Z</time>
      </trkpt>
      <trkpt lat="39.06838833" lon="-8.86605667">
        <ele>1.0</ele>
        <time>2019-05-16T14:47:45.922Z</time>
      </trkpt>
      <trkpt lat="39.06838833" lon="-8.86605667">
        <ele>1.0</ele>
        <time>2019-05-16T14:47:46.928Z</time>
      </trkpt>
      <trkpt lat="39.06838833" lon="-8.86605667">
        <ele>1.0</ele>
        <time>2019-05-16T14:47:47.922Z</time>
      </trkpt>
      <trkpt lat="39.06838833" lon="-8.86605667">
        <ele>1.0</ele>
        <time>2019-05-16T14:47:48.927Z</time>
      </trkpt>
      <trkpt lat="39.06838833" lon="-8.86605667">
        <ele>1.0</ele>
        <time>2019-05-16T14:47:49.923Z</time>
      </trkpt>
      <trkpt lat="39.06838833" lon="-8.86605667">
        <ele>1.0</ele>
        <time>2019-05-16T14:47:50.930Z</time>
      </trkpt>
      <trkpt lat="39.06838833" lon="-8.86605667">
        <ele>1.0</ele>
        <time>2019-05-16T14:47:51.922Z</time>
      </trkpt>
      <trkpt lat="39.06836" lon="-8.86608167">
        <ele>1.0</ele>
        <time>2019-05-16T14:47:52.927Z</time>
      </trkpt>
      <trkpt lat="39.06836" lon="-8.86608167">
        <ele>1.0</ele>
        <time>2019-05-16T14:47:53.922Z</time>
      </trkpt>
      <trkpt lat="39.06837167" lon="-8.86606333">
        <ele>1.0</ele>
        <time>2019-05-16T14:47:54.927Z</time>
      </trkpt>
      <trkpt lat="39.06837167" lon="-8.86606333">
        <ele>1.0</ele>
        <time>2019-05-16T14:47:55.921Z</time>
      </trkpt>
      <trkpt lat="39.06838" lon="-8.86605667">
        <ele>1.0</ele>
        <time>2019-05-16T14:47:56.932Z</time>
      </trkpt>
      <trkpt lat="39.06838" lon="-8.86605667">
        <ele>1.0</ele>
        <time>2019-05-16T14:47:57.916Z</time>
      </trkpt>
      <trkpt lat="39.06838" lon="-8.86605667">
        <ele>1.0</ele>
        <time>2019-05-16T14:47:58.901Z</time>
      </trkpt>
      <trkpt lat="39.06838" lon="-8.86605667">
        <ele>1.0</ele>
        <time>2019-05-16T14:47:59.915Z</time>
      </trkpt>
      <trkpt lat="39.06838" lon="-8.86605667">
        <ele>1.0</ele>
        <time>2019-05-16T14:48:00.921Z</time>
      </trkpt>
      <trkpt lat="39.06838" lon="-8.86605667">
        <ele>1.0</ele>
        <time>2019-05-16T14:48:01.927Z</time>
      </trkpt>
      <trkpt lat="39.06838" lon="-8.86605667">
        <ele>1.0</ele>
        <time>2019-05-16T14:48:02.935Z</time>
      </trkpt>
      <trkpt lat="39.06838" lon="-8.86605667">
        <ele>1.0</ele>
        <time>2019-05-16T14:48:03.922Z</time>
      </trkpt>
      <trkpt lat="39.06837667" lon="-8.86602833">
        <ele>0.0</ele>
        <time>2019-05-16T14:48:04.928Z</time>
      </trkpt>
      <trkpt lat="39.06837667" lon="-8.86602833">
        <ele>0.0</ele>
        <time>2019-05-16T14:48:05.931Z</time>
      </trkpt>
      <trkpt lat="39.068375" lon="-8.86603667">
        <ele>0.0</ele>
        <time>2019-05-16T14:48:06.926Z</time>
      </trkpt>
      <trkpt lat="39.068375" lon="-8.86603667">
        <ele>0.0</ele>
        <time>2019-05-16T14:48:07.922Z</time>
      </trkpt>
      <trkpt lat="39.06835833" lon="-8.86606167">
        <ele>0.0</ele>
        <time>2019-05-16T14:48:08.929Z</time>
      </trkpt>
      <trkpt lat="39.06835833" lon="-8.86606167">
        <ele>0.0</ele>
        <time>2019-05-16T14:48:09.931Z</time>
      </trkpt>
      <trkpt lat="39.06834" lon="-8.86607167">
        <ele>0.0</ele>
        <time>2019-05-16T14:48:10.920Z</time>
      </trkpt>
      <trkpt lat="39.06834" lon="-8.86607167">
        <ele>0.0</ele>
        <time>2019-05-16T14:48:11.912Z</time>
      </trkpt>
      <trkpt lat="39.06832833" lon="-8.86608833">
        <ele>0.0</ele>
        <time>2019-05-16T14:48:12.909Z</time>
      </trkpt>
      <trkpt lat="39.06831667" lon="-8.866095">
        <ele>0.0</ele>
        <time>2019-05-16T14:48:13.930Z</time>
      </trkpt>
      <trkpt lat="39.06831667" lon="-8.8661">
        <ele>0.0</ele>
        <time>2019-05-16T14:48:14.901Z</time>
      </trkpt>
      <trkpt lat="39.06831667" lon="-8.8661">
        <ele>0.0</ele>
        <time>2019-05-16T14:48:15.936Z</time>
      </trkpt>
      <trkpt lat="39.06830333" lon="-8.866115">
        <ele>1.0</ele>
        <time>2019-05-16T14:48:16.915Z</time>
      </trkpt>
      <trkpt lat="39.068295" lon="-8.866125">
        <ele>1.0</ele>
        <time>2019-05-16T14:48:17.910Z</time>
      </trkpt>
      <trkpt lat="39.068295" lon="-8.866125">
        <ele>1.0</ele>
        <time>2019-05-16T14:48:18.929Z</time>
      </trkpt>
      <trkpt lat="39.06828333" lon="-8.86613667">
        <ele>1.0</ele>
        <time>2019-05-16T14:48:19.903Z</time>
      </trkpt>
      <trkpt lat="39.06828333" lon="-8.86613667">
        <ele>1.0</ele>
        <time>2019-05-16T14:48:20.913Z</time>
      </trkpt>
      <trkpt lat="39.06827" lon="-8.86614667">
        <ele>2.0</ele>
        <time>2019-05-16T14:48:21.904Z</time>
      </trkpt>
      <trkpt lat="39.06827" lon="-8.86614667">
        <ele>2.0</ele>
        <time>2019-05-16T14:48:22.903Z</time>
      </trkpt>
      <trkpt lat="39.06827333" lon="-8.86614833">
        <ele>2.0</ele>
        <time>2019-05-16T14:48:23.923Z</time>
      </trkpt>
      <trkpt lat="39.06827333" lon="-8.86614833">
        <ele>2.0</ele>
        <time>2019-05-16T14:48:24.928Z</time>
      </trkpt>
      <trkpt lat="39.068295" lon="-8.86613667">
        <ele>3.0</ele>
        <time>2019-05-16T14:48:25.915Z</time>
      </trkpt>
      <trkpt lat="39.06830167" lon="-8.86613">
        <ele>4.0</ele>
        <time>2019-05-16T14:48:26.902Z</time>
      </trkpt>
      <trkpt lat="39.06830167" lon="-8.86613">
        <ele>4.0</ele>
        <time>2019-05-16T14:48:27.920Z</time>
      </trkpt>
      <trkpt lat="39.06831333" lon="-8.86611167">
        <ele>4.0</ele>
        <time>2019-05-16T14:48:28.905Z</time>
      </trkpt>
      <trkpt lat="39.06831333" lon="-8.86611167">
        <ele>4.0</ele>
        <time>2019-05-16T14:48:29.914Z</time>
      </trkpt>
      <trkpt lat="39.06830167" lon="-8.86609833">
        <ele>4.0</ele>
        <time>2019-05-16T14:48:30.904Z</time>
      </trkpt>
      <trkpt lat="39.06829167" lon="-8.866095">
        <ele>4.0</ele>
        <time>2019-05-16T14:48:31.936Z</time>
      </trkpt>
      <trkpt lat="39.068285" lon="-8.86609">
        <ele>5.0</ele>
        <time>2019-05-16T14:48:32.917Z</time>
      </trkpt>
      <trkpt lat="39.068285" lon="-8.86609">
        <ele>5.0</ele>
        <time>2019-05-16T14:48:33.929Z</time>
      </trkpt>
      <trkpt lat="39.06828833" lon="-8.86606833">
        <ele>5.0</ele>
        <time>2019-05-16T14:48:34.913Z</time>
      </trkpt>
      <trkpt lat="39.06828833" lon="-8.86606833">
        <ele>5.0</ele>
        <time>2019-05-16T14:48:35.903Z</time>
      </trkpt>
      <trkpt lat="39.06829167" lon="-8.86605">
        <ele>5.0</ele>
        <time>2019-05-16T14:48:36.937Z</time>
      </trkpt>
      <trkpt lat="39.06829167" lon="-8.86605">
        <ele>5.0</ele>
        <time>2019-05-16T14:48:37.925Z</time>
      </trkpt>
      <trkpt lat="39.06829333" lon="-8.86605167">
        <ele>6.0</ele>
        <time>2019-05-16T14:48:38.904Z</time>
      </trkpt>
      <trkpt lat="39.06829333" lon="-8.86605167">
        <ele>6.0</ele>
        <time>2019-05-16T14:48:39.919Z</time>
      </trkpt>
      <trkpt lat="39.068295" lon="-8.86605333">
        <ele>6.0</ele>
        <time>2019-05-16T14:48:40.913Z</time>
      </trkpt>
      <trkpt lat="39.068295" lon="-8.86605333">
        <ele>6.0</ele>
        <time>2019-05-16T14:48:41.934Z</time>
      </trkpt>
      <trkpt lat="39.068295" lon="-8.86605333">
        <ele>6.0</ele>
        <time>2019-05-16T14:48:42.900Z</time>
      </trkpt>
      <trkpt lat="39.068295" lon="-8.86605333">
        <ele>6.0</ele>
        <time>2019-05-16T14:48:43.920Z</time>
      </trkpt>
      <trkpt lat="39.068295" lon="-8.86605333">
        <ele>6.0</ele>
        <time>2019-05-16T14:48:44.926Z</time>
      </trkpt>
      <trkpt lat="39.068295" lon="-8.86605333">
        <ele>6.0</ele>
        <time>2019-05-16T14:48:45.932Z</time>
      </trkpt>
      <trkpt lat="39.068295" lon="-8.86605333">
        <ele>6.0</ele>
        <time>2019-05-16T14:48:46.898Z</time>
      </trkpt>
      <trkpt lat="39.068295" lon="-8.86605333">
        <ele>6.0</ele>
        <time>2019-05-16T14:48:47.931Z</time>
      </trkpt>
      <trkpt lat="39.068295" lon="-8.86605333">
        <ele>6.0</ele>
        <time>2019-05-16T14:48:48.931Z</time>
      </trkpt>
      <trkpt lat="39.068295" lon="-8.86605333">
        <ele>6.0</ele>
        <time>2019-05-16T14:48:49.931Z</time>
      </trkpt>
      <trkpt lat="39.068295" lon="-8.86605333">
        <ele>6.0</ele>
        <time>2019-05-16T14:48:50.929Z</time>
      </trkpt>
      <trkpt lat="39.068295" lon="-8.86605333">
        <ele>6.0</ele>
        <time>2019-05-16T14:48:51.922Z</time>
      </trkpt>
      <trkpt lat="39.068295" lon="-8.86605333">
        <ele>6.0</ele>
        <time>2019-05-16T14:48:52.927Z</time>
      </trkpt>
      <trkpt lat="39.068295" lon="-8.86605333">
        <ele>6.0</ele>
        <time>2019-05-16T14:48:53.923Z</time>
      </trkpt>
      <trkpt lat="39.068295" lon="-8.86605333">
        <ele>6.0</ele>
        <time>2019-05-16T14:48:54.927Z</time>
      </trkpt>
      <trkpt lat="39.068295" lon="-8.86605333">
        <ele>6.0</ele>
        <time>2019-05-16T14:48:55.923Z</time>
      </trkpt>
      <trkpt lat="39.068295" lon="-8.86605333">
        <ele>6.0</ele>
        <time>2019-05-16T14:48:56.930Z</time>
      </trkpt>
      <trkpt lat="39.068295" lon="-8.86605333">
        <ele>6.0</ele>
        <time>2019-05-16T14:48:57.922Z</time>
      </trkpt>
      <trkpt lat="39.068295" lon="-8.86605333">
        <ele>6.0</ele>
        <time>2019-05-16T14:48:58.927Z</time>
      </trkpt>
      <trkpt lat="39.068295" lon="-8.86605333">
        <ele>6.0</ele>
        <time>2019-05-16T14:48:59.929Z</time>
      </trkpt>
      <trkpt lat="39.068295" lon="-8.86605333">
        <ele>6.0</ele>
        <time>2019-05-16T14:49:00.897Z</time>
      </trkpt>
      <trkpt lat="39.068295" lon="-8.86605333">
        <ele>6.0</ele>
        <time>2019-05-16T14:49:01.931Z</time>
      </trkpt>
      <trkpt lat="39.068295" lon="-8.86605333">
        <ele>6.0</ele>
        <time>2019-05-16T14:49:02.930Z</time>
      </trkpt>
      <trkpt lat="39.068295" lon="-8.86605333">
        <ele>6.0</ele>
        <time>2019-05-16T14:49:03.922Z</time>
      </trkpt>
      <trkpt lat="39.068295" lon="-8.86605333">
        <ele>6.0</ele>
        <time>2019-05-16T14:49:04.927Z</time>
      </trkpt>
      <trkpt lat="39.068295" lon="-8.86605333">
        <ele>6.0</ele>
        <time>2019-05-16T14:49:05.922Z</time>
      </trkpt>
      <trkpt lat="39.068295" lon="-8.86605333">
        <ele>6.0</ele>
        <time>2019-05-16T14:49:06.932Z</time>
      </trkpt>
      <trkpt lat="39.068295" lon="-8.86605333">
        <ele>6.0</ele>
        <time>2019-05-16T14:49:07.922Z</time>
      </trkpt>
      <trkpt lat="39.06828833" lon="-8.86611333">
        <ele>6.0</ele>
        <time>2019-05-16T14:49:08.930Z</time>
      </trkpt>
      <trkpt lat="39.06828833" lon="-8.86611333">
        <ele>6.0</ele>
        <time>2019-05-16T14:49:09.931Z</time>
      </trkpt>
      <trkpt lat="39.068285" lon="-8.86612167">
        <ele>5.0</ele>
        <time>2019-05-16T14:49:10.933Z</time>
      </trkpt>
      <trkpt lat="39.068285" lon="-8.86612167">
        <ele>5.0</ele>
        <time>2019-05-16T14:49:11.914Z</time>
      </trkpt>
      <trkpt lat="39.06828333" lon="-8.86612333">
        <ele>5.0</ele>
        <time>2019-05-16T14:49:12.936Z</time>
      </trkpt>
      <trkpt lat="39.06828333" lon="-8.86612333">
        <ele>5.0</ele>
        <time>2019-05-16T14:49:13.933Z</time>
      </trkpt>
      <trkpt lat="39.06828333" lon="-8.86612333">
        <ele>5.0</ele>
        <time>2019-05-16T14:49:14.921Z</time>
      </trkpt>
      <trkpt lat="39.06828333" lon="-8.86612333">
        <ele>5.0</ele>
        <time>2019-05-16T14:49:15.913Z</time>
      </trkpt>
      <trkpt lat="39.06828333" lon="-8.86612333">
        <ele>5.0</ele>
        <time>2019-05-16T14:49:16.920Z</time>
      </trkpt>
      <trkpt lat="39.06828333" lon="-8.86612333">
        <ele>5.0</ele>
        <time>2019-05-16T14:49:17.926Z</time>
      </trkpt>
      <trkpt lat="39.06828333" lon="-8.86612333">
        <ele>5.0</ele>
        <time>2019-05-16T14:49:18.932Z</time>
      </trkpt>
      <trkpt lat="39.06828333" lon="-8.86612333">
        <ele>5.0</ele>
        <time>2019-05-16T14:49:19.897Z</time>
      </trkpt>
      <trkpt lat="39.06828333" lon="-8.86612333">
        <ele>5.0</ele>
        <time>2019-05-16T14:49:20.923Z</time>
      </trkpt>
      <trkpt lat="39.06828333" lon="-8.86612333">
        <ele>5.0</ele>
        <time>2019-05-16T14:49:21.913Z</time>
      </trkpt>
      <trkpt lat="39.06828333" lon="-8.86612333">
        <ele>5.0</ele>
        <time>2019-05-16T14:49:22.919Z</time>
      </trkpt>
      <trkpt lat="39.06828333" lon="-8.86612333">
        <ele>5.0</ele>
        <time>2019-05-16T14:49:23.899Z</time>
      </trkpt>
      <trkpt lat="39.06828333" lon="-8.86612333">
        <ele>5.0</ele>
        <time>2019-05-16T14:49:24.925Z</time>
      </trkpt>
      <trkpt lat="39.06828833" lon="-8.86611167">
        <ele>6.0</ele>
        <time>2019-05-16T14:49:25.925Z</time>
      </trkpt>
      <trkpt lat="39.068295" lon="-8.8661">
        <ele>6.0</ele>
        <time>2019-05-16T14:49:26.930Z</time>
      </trkpt>
      <trkpt lat="39.068295" lon="-8.8661">
        <ele>6.0</ele>
        <time>2019-05-16T14:49:27.922Z</time>
      </trkpt>
      <trkpt lat="39.06830833" lon="-8.86607">
        <ele>6.0</ele>
        <time>2019-05-16T14:49:28.927Z</time>
      </trkpt>
      <trkpt lat="39.06830833" lon="-8.86607">
        <ele>6.0</ele>
        <time>2019-05-16T14:49:29.931Z</time>
      </trkpt>
      <trkpt lat="39.06832833" lon="-8.86604333">
        <ele>6.0</ele>
        <time>2019-05-16T14:49:30.921Z</time>
      </trkpt>
      <trkpt lat="39.06834167" lon="-8.86602833">
        <ele>5.0</ele>
        <time>2019-05-16T14:49:31.931Z</time>
      </trkpt>
      <trkpt lat="39.068355" lon="-8.86601">
        <ele>5.0</ele>
        <time>2019-05-16T14:49:32.933Z</time>
      </trkpt>
      <trkpt lat="39.068355" lon="-8.86601">
        <ele>5.0</ele>
        <time>2019-05-16T14:49:33.933Z</time>
      </trkpt>
      <trkpt lat="39.068375" lon="-8.86597333">
        <ele>5.0</ele>
        <time>2019-05-16T14:49:34.918Z</time>
      </trkpt>
      <trkpt lat="39.068375" lon="-8.86597333">
        <ele>5.0</ele>
        <time>2019-05-16T14:49:35.899Z</time>
      </trkpt>
      <trkpt lat="39.06839" lon="-8.865945">
        <ele>5.0</ele>
        <time>2019-05-16T14:49:36.918Z</time>
      </trkpt>
      <trkpt lat="39.06839833" lon="-8.86592667">
        <ele>5.0</ele>
        <time>2019-05-16T14:49:37.928Z</time>
      </trkpt>
      <trkpt lat="39.06839833" lon="-8.86592667">
        <ele>5.0</ele>
        <time>2019-05-16T14:49:38.905Z</time>
      </trkpt>
      <trkpt lat="39.06842" lon="-8.86588667">
        <ele>5.0</ele>
        <time>2019-05-16T14:49:39.925Z</time>
      </trkpt>
      <trkpt lat="39.06842833" lon="-8.86586667">
        <ele>5.0</ele>
        <time>2019-05-16T14:49:40.933Z</time>
      </trkpt>
      <trkpt lat="39.06842833" lon="-8.86586667">
        <ele>5.0</ele>
        <time>2019-05-16T14:49:41.914Z</time>
      </trkpt>
      <trkpt lat="39.06845" lon="-8.86582167">
        <ele>5.0</ele>
        <time>2019-05-16T14:49:42.938Z</time>
      </trkpt>
      <trkpt lat="39.06845" lon="-8.86582167">
        <ele>5.0</ele>
        <time>2019-05-16T14:49:43.922Z</time>
      </trkpt>
      <trkpt lat="39.06846833" lon="-8.86576333">
        <ele>5.0</ele>
        <time>2019-05-16T14:49:44.906Z</time>
      </trkpt>
      <trkpt lat="39.06847333" lon="-8.86572833">
        <ele>5.0</ele>
        <time>2019-05-16T14:49:45.899Z</time>
      </trkpt>
      <trkpt lat="39.06847333" lon="-8.86572833">
        <ele>5.0</ele>
        <time>2019-05-16T14:49:46.914Z</time>
      </trkpt>
      <trkpt lat="39.06847" lon="-8.86564333">
        <ele>4.0</ele>
        <time>2019-05-16T14:49:47.935Z</time>
      </trkpt>
      <trkpt lat="39.06847" lon="-8.86564333">
        <ele>4.0</ele>
        <time>2019-05-16T14:49:48.903Z</time>
      </trkpt>
      <trkpt lat="39.06843667" lon="-8.86556333">
        <ele>4.0</ele>
        <time>2019-05-16T14:49:49.948Z</time>
      </trkpt>
      <trkpt lat="39.06841333" lon="-8.86552833">
        <ele>4.0</ele>
        <time>2019-05-16T14:49:50.909Z</time>
      </trkpt>
      <trkpt lat="39.06841333" lon="-8.86552833">
        <ele>4.0</ele>
        <time>2019-05-16T14:49:51.914Z</time>
      </trkpt>
      <trkpt lat="39.06835667" lon="-8.86546333">
        <ele>4.0</ele>
        <time>2019-05-16T14:49:52.940Z</time>
      </trkpt>
      <trkpt lat="39.06835667" lon="-8.86546333">
        <ele>4.0</ele>
        <time>2019-05-16T14:49:53.923Z</time>
      </trkpt>
      <trkpt lat="39.06830333" lon="-8.86540333">
        <ele>3.0</ele>
        <time>2019-05-16T14:49:54.911Z</time>
      </trkpt>
      <trkpt lat="39.06830333" lon="-8.86540333">
        <ele>3.0</ele>
        <time>2019-05-16T14:49:55.917Z</time>
      </trkpt>
      <trkpt lat="39.06825167" lon="-8.86535167">
        <ele>3.0</ele>
        <time>2019-05-16T14:49:56.900Z</time>
      </trkpt>
      <trkpt lat="39.06825167" lon="-8.86535167">
        <ele>3.0</ele>
        <time>2019-05-16T14:49:57.913Z</time>
      </trkpt>
      <trkpt lat="39.06820167" lon="-8.865305">
        <ele>3.0</ele>
        <time>2019-05-16T14:49:58.932Z</time>
      </trkpt>
      <trkpt lat="39.06820167" lon="-8.865305">
        <ele>3.0</ele>
        <time>2019-05-16T14:49:59.898Z</time>
      </trkpt>
      <trkpt lat="39.06814667" lon="-8.86525833">
        <ele>2.0</ele>
        <time>2019-05-16T14:50:00.932Z</time>
      </trkpt>
      <trkpt lat="39.06812" lon="-8.86523167">
        <ele>2.0</ele>
        <time>2019-05-16T14:50:01.930Z</time>
      </trkpt>
      <trkpt lat="39.06809" lon="-8.86520667">
        <ele>2.0</ele>
        <time>2019-05-16T14:50:02.932Z</time>
      </trkpt>
      <trkpt lat="39.06809" lon="-8.86520667">
        <ele>2.0</ele>
        <time>2019-05-16T14:50:03.930Z</time>
      </trkpt>
      <trkpt lat="39.06802833" lon="-8.86515167">
        <ele>2.0</ele>
        <time>2019-05-16T14:50:04.904Z</time>
      </trkpt>
      <trkpt lat="39.06802833" lon="-8.86515167">
        <ele>2.0</ele>
        <time>2019-05-16T14:50:05.930Z</time>
      </trkpt>
      <trkpt lat="39.06796833" lon="-8.86509167">
        <ele>2.0</ele>
        <time>2019-05-16T14:50:06.921Z</time>
      </trkpt>
      <trkpt lat="39.06796833" lon="-8.86509167">
        <ele>2.0</ele>
        <time>2019-05-16T14:50:07.903Z</time>
      </trkpt>
      <trkpt lat="39.067905" lon="-8.86502333">
        <ele>2.0</ele>
        <time>2019-05-16T14:50:08.920Z</time>
      </trkpt>
      <trkpt lat="39.067905" lon="-8.86502333">
        <ele>2.0</ele>
        <time>2019-05-16T14:50:09.918Z</time>
      </trkpt>
      <trkpt lat="39.067845" lon="-8.86495">
        <ele>2.0</ele>
        <time>2019-05-16T14:50:10.935Z</time>
      </trkpt>
      <trkpt lat="39.067845" lon="-8.86495">
        <ele>2.0</ele>
        <time>2019-05-16T14:50:11.914Z</time>
      </trkpt>
      <trkpt lat="39.06778167" lon="-8.864875">
        <ele>2.0</ele>
        <time>2019-05-16T14:50:12.940Z</time>
      </trkpt>
      <trkpt lat="39.06778167" lon="-8.864875">
        <ele>2.0</ele>
        <time>2019-05-16T14:50:13.904Z</time>
      </trkpt>
      <trkpt lat="39.06771167" lon="-8.8648">
        <ele>3.0</ele>
        <time>2019-05-16T14:50:14.930Z</time>
      </trkpt>
      <trkpt lat="39.06771167" lon="-8.8648">
        <ele>3.0</ele>
        <time>2019-05-16T14:50:15.922Z</time>
      </trkpt>
      <trkpt lat="39.06764" lon="-8.86472667">
        <ele>3.0</ele>
        <time>2019-05-16T14:50:16.909Z</time>
      </trkpt>
      <trkpt lat="39.06764" lon="-8.86472667">
        <ele>3.0</ele>
        <time>2019-05-16T14:50:17.927Z</time>
      </trkpt>
      <trkpt lat="39.06757333" lon="-8.86465167">
        <ele>3.0</ele>
        <time>2019-05-16T14:50:18.926Z</time>
      </trkpt>
      <trkpt lat="39.06753833" lon="-8.864615">
        <ele>3.0</ele>
        <time>2019-05-16T14:50:19.897Z</time>
      </trkpt>
      <trkpt lat="39.06753833" lon="-8.864615">
        <ele>3.0</ele>
        <time>2019-05-16T14:50:20.900Z</time>
      </trkpt>
      <trkpt lat="39.06747" lon="-8.86454333">
        <ele>3.0</ele>
        <time>2019-05-16T14:50:21.909Z</time>
      </trkpt>
      <trkpt lat="39.06747" lon="-8.86454333">
        <ele>3.0</ele>
        <time>2019-05-16T14:50:22.916Z</time>
      </trkpt>
      <trkpt lat="39.0674" lon="-8.864475">
        <ele>3.0</ele>
        <time>2019-05-16T14:50:23.903Z</time>
      </trkpt>
      <trkpt lat="39.0674" lon="-8.864475">
        <ele>3.0</ele>
        <time>2019-05-16T14:50:24.930Z</time>
      </trkpt>
      <trkpt lat="39.06733833" lon="-8.86439667">
        <ele>3.0</ele>
        <time>2019-05-16T14:50:25.905Z</time>
      </trkpt>
      <trkpt lat="39.067305" lon="-8.86436">
        <ele>3.0</ele>
        <time>2019-05-16T14:50:26.900Z</time>
      </trkpt>
      <trkpt lat="39.067305" lon="-8.86436">
        <ele>3.0</ele>
        <time>2019-05-16T14:50:27.913Z</time>
      </trkpt>
      <trkpt lat="39.067235" lon="-8.86428667">
        <ele>3.0</ele>
        <time>2019-05-16T14:50:28.931Z</time>
      </trkpt>
      <trkpt lat="39.067235" lon="-8.86428667">
        <ele>3.0</ele>
        <time>2019-05-16T14:50:29.927Z</time>
      </trkpt>
      <trkpt lat="39.067165" lon="-8.864215">
        <ele>3.0</ele>
        <time>2019-05-16T14:50:30.902Z</time>
      </trkpt>
      <trkpt lat="39.06713" lon="-8.86417667">
        <ele>3.0</ele>
        <time>2019-05-16T14:50:31.934Z</time>
      </trkpt>
      <trkpt lat="39.06713" lon="-8.86417667">
        <ele>3.0</ele>
        <time>2019-05-16T14:50:32.912Z</time>
      </trkpt>
      <trkpt lat="39.06706333" lon="-8.86409833">
        <ele>3.0</ele>
        <time>2019-05-16T14:50:33.918Z</time>
      </trkpt>
      <trkpt lat="39.06706333" lon="-8.86409833">
        <ele>3.0</ele>
        <time>2019-05-16T14:50:34.903Z</time>
      </trkpt>
      <trkpt lat="39.06699333" lon="-8.86402333">
        <ele>3.0</ele>
        <time>2019-05-16T14:50:35.938Z</time>
      </trkpt>
      <trkpt lat="39.06699333" lon="-8.86402333">
        <ele>3.0</ele>
        <time>2019-05-16T14:50:36.917Z</time>
      </trkpt>
      <trkpt lat="39.06693" lon="-8.86394833">
        <ele>3.0</ele>
        <time>2019-05-16T14:50:37.900Z</time>
      </trkpt>
      <trkpt lat="39.06689833" lon="-8.86391">
        <ele>3.0</ele>
        <time>2019-05-16T14:50:38.929Z</time>
      </trkpt>
      <trkpt lat="39.06689833" lon="-8.86391">
        <ele>3.0</ele>
        <time>2019-05-16T14:50:39.917Z</time>
      </trkpt>
      <trkpt lat="39.066835" lon="-8.86383">
        <ele>3.0</ele>
        <time>2019-05-16T14:50:40.902Z</time>
      </trkpt>
      <trkpt lat="39.066835" lon="-8.86383">
        <ele>3.0</ele>
        <time>2019-05-16T14:50:41.923Z</time>
      </trkpt>
      <trkpt lat="39.06677333" lon="-8.86374667">
        <ele>3.0</ele>
        <time>2019-05-16T14:50:42.905Z</time>
      </trkpt>
      <trkpt lat="39.06674" lon="-8.863705">
        <ele>3.0</ele>
        <time>2019-05-16T14:50:43.906Z</time>
      </trkpt>
      <trkpt lat="39.06670667" lon="-8.86366333">
        <ele>3.0</ele>
        <time>2019-05-16T14:50:44.925Z</time>
      </trkpt>
      <trkpt lat="39.06670667" lon="-8.86366333">
        <ele>3.0</ele>
        <time>2019-05-16T14:50:45.905Z</time>
      </trkpt>
      <trkpt lat="39.06663833" lon="-8.86358667">
        <ele>2.0</ele>
        <time>2019-05-16T14:50:46.939Z</time>
      </trkpt>
      <trkpt lat="39.06663833" lon="-8.86358667">
        <ele>2.0</ele>
        <time>2019-05-16T14:50:47.914Z</time>
      </trkpt>
      <trkpt lat="39.06657" lon="-8.86351167">
        <ele>3.0</ele>
        <time>2019-05-16T14:50:48.900Z</time>
      </trkpt>
      <trkpt lat="39.06657" lon="-8.86351167">
        <ele>3.0</ele>
        <time>2019-05-16T14:50:49.912Z</time>
      </trkpt>
      <trkpt lat="39.066505" lon="-8.86343667">
        <ele>3.0</ele>
        <time>2019-05-16T14:50:50.910Z</time>
      </trkpt>
      <trkpt lat="39.066505" lon="-8.86343667">
        <ele>3.0</ele>
        <time>2019-05-16T14:50:51.936Z</time>
      </trkpt>
      <trkpt lat="39.06643667" lon="-8.86336833">
        <ele>3.0</ele>
        <time>2019-05-16T14:50:52.915Z</time>
      </trkpt>
      <trkpt lat="39.06643667" lon="-8.86336833">
        <ele>3.0</ele>
        <time>2019-05-16T14:50:53.905Z</time>
      </trkpt>
      <trkpt lat="39.06638333" lon="-8.863305">
        <ele>3.0</ele>
        <time>2019-05-16T14:50:54.928Z</time>
      </trkpt>
      <trkpt lat="39.06638333" lon="-8.863305">
        <ele>3.0</ele>
        <time>2019-05-16T14:50:55.904Z</time>
      </trkpt>
      <trkpt lat="39.06634167" lon="-8.863255">
        <ele>3.0</ele>
        <time>2019-05-16T14:50:56.921Z</time>
      </trkpt>
      <trkpt lat="39.06634167" lon="-8.863255">
        <ele>3.0</ele>
        <time>2019-05-16T14:50:57.933Z</time>
      </trkpt>
      <trkpt lat="39.06630667" lon="-8.86321167">
        <ele>3.0</ele>
        <time>2019-05-16T14:50:58.922Z</time>
      </trkpt>
      <trkpt lat="39.06630667" lon="-8.86321167">
        <ele>3.0</ele>
        <time>2019-05-16T14:50:59.900Z</time>
      </trkpt>
      <trkpt lat="39.06626833" lon="-8.86317">
        <ele>4.0</ele>
        <time>2019-05-16T14:51:00.916Z</time>
      </trkpt>
      <trkpt lat="39.06624833" lon="-8.86314833">
        <ele>4.0</ele>
        <time>2019-05-16T14:51:01.917Z</time>
      </trkpt>
      <trkpt lat="39.06623" lon="-8.86312833">
        <ele>4.0</ele>
        <time>2019-05-16T14:51:02.929Z</time>
      </trkpt>
      <trkpt lat="39.06623" lon="-8.86312833">
        <ele>4.0</ele>
        <time>2019-05-16T14:51:03.914Z</time>
      </trkpt>
      <trkpt lat="39.066205" lon="-8.86308">
        <ele>3.0</ele>
        <time>2019-05-16T14:51:04.907Z</time>
      </trkpt>
      <trkpt lat="39.066205" lon="-8.86308">
        <ele>3.0</ele>
        <time>2019-05-16T14:51:05.906Z</time>
      </trkpt>
      <trkpt lat="39.066195" lon="-8.863035">
        <ele>3.0</ele>
        <time>2019-05-16T14:51:06.936Z</time>
      </trkpt>
      <trkpt lat="39.066195" lon="-8.863035">
        <ele>3.0</ele>
        <time>2019-05-16T14:51:07.914Z</time>
      </trkpt>
      <trkpt lat="39.06619833" lon="-8.86299333">
        <ele>3.0</ele>
        <time>2019-05-16T14:51:08.901Z</time>
      </trkpt>
      <trkpt lat="39.06619833" lon="-8.86299333">
        <ele>3.0</ele>
        <time>2019-05-16T14:51:09.924Z</time>
      </trkpt>
      <trkpt lat="39.06621333" lon="-8.862955">
        <ele>3.0</ele>
        <time>2019-05-16T14:51:10.914Z</time>
      </trkpt>
      <trkpt lat="39.06621333" lon="-8.862955">
        <ele>3.0</ele>
        <time>2019-05-16T14:51:11.914Z</time>
      </trkpt>
      <trkpt lat="39.06622" lon="-8.862945">
        <ele>3.0</ele>
        <time>2019-05-16T14:51:12.935Z</time>
      </trkpt>
      <trkpt lat="39.06622" lon="-8.862945">
        <ele>3.0</ele>
        <time>2019-05-16T14:51:13.917Z</time>
      </trkpt>
      <trkpt lat="39.06622167" lon="-8.86294833">
        <ele>4.0</ele>
        <time>2019-05-16T14:51:14.936Z</time>
      </trkpt>
      <trkpt lat="39.06622167" lon="-8.86294833">
        <ele>4.0</ele>
        <time>2019-05-16T14:51:15.900Z</time>
      </trkpt>
      <trkpt lat="39.06622167" lon="-8.86294833">
        <ele>4.0</ele>
        <time>2019-05-16T14:51:16.906Z</time>
      </trkpt>
      <trkpt lat="39.06622167" lon="-8.86294833">
        <ele>4.0</ele>
        <time>2019-05-16T14:51:17.914Z</time>
      </trkpt>
      <trkpt lat="39.06622167" lon="-8.86294833">
        <ele>4.0</ele>
        <time>2019-05-16T14:51:18.927Z</time>
      </trkpt>
      <trkpt lat="39.06622167" lon="-8.86294833">
        <ele>4.0</ele>
        <time>2019-05-16T14:51:19.925Z</time>
      </trkpt>
      <trkpt lat="39.06622167" lon="-8.86294833">
        <ele>4.0</ele>
        <time>2019-05-16T14:51:20.915Z</time>
      </trkpt>
      <trkpt lat="39.06622167" lon="-8.86294833">
        <ele>4.0</ele>
        <time>2019-05-16T14:51:21.900Z</time>
      </trkpt>
      <trkpt lat="39.06622167" lon="-8.86294833">
        <ele>4.0</ele>
        <time>2019-05-16T14:51:22.906Z</time>
      </trkpt>
      <trkpt lat="39.06622167" lon="-8.86294833">
        <ele>4.0</ele>
        <time>2019-05-16T14:51:23.922Z</time>
      </trkpt>
      <trkpt lat="39.06622167" lon="-8.86294833">
        <ele>4.0</ele>
        <time>2019-05-16T14:51:24.927Z</time>
      </trkpt>
      <trkpt lat="39.06622167" lon="-8.86294833">
        <ele>4.0</ele>
        <time>2019-05-16T14:51:25.923Z</time>
      </trkpt>
      <trkpt lat="39.06622167" lon="-8.86294833">
        <ele>4.0</ele>
        <time>2019-05-16T14:51:26.908Z</time>
      </trkpt>
      <trkpt lat="39.06622167" lon="-8.86294833">
        <ele>4.0</ele>
        <time>2019-05-16T14:51:27.934Z</time>
      </trkpt>
      <trkpt lat="39.06622167" lon="-8.86294833">
        <ele>4.0</ele>
        <time>2019-05-16T14:51:28.928Z</time>
      </trkpt>
      <trkpt lat="39.06622167" lon="-8.86294833">
        <ele>4.0</ele>
        <time>2019-05-16T14:51:29.931Z</time>
      </trkpt>
      <trkpt lat="39.06622167" lon="-8.86294833">
        <ele>4.0</ele>
        <time>2019-05-16T14:51:30.927Z</time>
      </trkpt>
      <trkpt lat="39.06622167" lon="-8.86294833">
        <ele>4.0</ele>
        <time>2019-05-16T14:51:31.923Z</time>
      </trkpt>
      <trkpt lat="39.06622167" lon="-8.86294833">
        <ele>4.0</ele>
        <time>2019-05-16T14:51:32.930Z</time>
      </trkpt>
      <trkpt lat="39.06622167" lon="-8.86294833">
        <ele>4.0</ele>
        <time>2019-05-16T14:51:33.925Z</time>
      </trkpt>
      <trkpt lat="39.06622167" lon="-8.86294833">
        <ele>4.0</ele>
        <time>2019-05-16T14:51:34.927Z</time>
      </trkpt>
      <trkpt lat="39.06622167" lon="-8.86294833">
        <ele>4.0</ele>
        <time>2019-05-16T14:51:35.922Z</time>
      </trkpt>
      <trkpt lat="39.06622167" lon="-8.86294833">
        <ele>4.0</ele>
        <time>2019-05-16T14:51:36.926Z</time>
      </trkpt>
      <trkpt lat="39.06622167" lon="-8.86294833">
        <ele>4.0</ele>
        <time>2019-05-16T14:51:37.922Z</time>
      </trkpt>
      <trkpt lat="39.06622167" lon="-8.86294833">
        <ele>4.0</ele>
        <time>2019-05-16T14:51:38.931Z</time>
      </trkpt>
      <trkpt lat="39.06622167" lon="-8.86294833">
        <ele>4.0</ele>
        <time>2019-05-16T14:51:39.931Z</time>
      </trkpt>
      <trkpt lat="39.06625667" lon="-8.86296833">
        <ele>5.0</ele>
        <time>2019-05-16T14:51:40.927Z</time>
      </trkpt>
      <trkpt lat="39.06625667" lon="-8.86296833">
        <ele>5.0</ele>
        <time>2019-05-16T14:51:41.922Z</time>
      </trkpt>
      <trkpt lat="39.06626167" lon="-8.86296">
        <ele>5.0</ele>
        <time>2019-05-16T14:51:42.929Z</time>
      </trkpt>
      <trkpt lat="39.06626167" lon="-8.86296">
        <ele>5.0</ele>
        <time>2019-05-16T14:51:43.923Z</time>
      </trkpt>
      <trkpt lat="39.06626833" lon="-8.86294833">
        <ele>4.0</ele>
        <time>2019-05-16T14:51:44.929Z</time>
      </trkpt>
      <trkpt lat="39.06626833" lon="-8.86294833">
        <ele>4.0</ele>
        <time>2019-05-16T14:51:45.923Z</time>
      </trkpt>
      <trkpt lat="39.06627167" lon="-8.86294167">
        <ele>5.0</ele>
        <time>2019-05-16T14:51:46.928Z</time>
      </trkpt>
      <trkpt lat="39.06627167" lon="-8.86294167">
        <ele>5.0</ele>
        <time>2019-05-16T14:51:47.922Z</time>
      </trkpt>
      <trkpt lat="39.06627333" lon="-8.86294">
        <ele>5.0</ele>
        <time>2019-05-16T14:51:48.927Z</time>
      </trkpt>
      <trkpt lat="39.06627333" lon="-8.86294">
        <ele>5.0</ele>
        <time>2019-05-16T14:51:49.930Z</time>
      </trkpt>
      <trkpt lat="39.06627333" lon="-8.86294">
        <ele>5.0</ele>
        <time>2019-05-16T14:51:50.901Z</time>
      </trkpt>
      <trkpt lat="39.06627333" lon="-8.86294">
        <ele>5.0</ele>
        <time>2019-05-16T14:51:51.927Z</time>
      </trkpt>
      <trkpt lat="39.06627333" lon="-8.86294">
        <ele>5.0</ele>
        <time>2019-05-16T14:51:52.927Z</time>
      </trkpt>
      <trkpt lat="39.06627333" lon="-8.86294">
        <ele>5.0</ele>
        <time>2019-05-16T14:51:53.922Z</time>
      </trkpt>
      <trkpt lat="39.06627333" lon="-8.86294">
        <ele>5.0</ele>
        <time>2019-05-16T14:51:54.927Z</time>
      </trkpt>
      <trkpt lat="39.06627333" lon="-8.86294">
        <ele>5.0</ele>
        <time>2019-05-16T14:51:55.920Z</time>
      </trkpt>
      <trkpt lat="39.06627333" lon="-8.86294">
        <ele>5.0</ele>
        <time>2019-05-16T14:51:56.929Z</time>
      </trkpt>
      <trkpt lat="39.06627333" lon="-8.86294">
        <ele>5.0</ele>
        <time>2019-05-16T14:51:57.922Z</time>
      </trkpt>
      <trkpt lat="39.06627333" lon="-8.86294">
        <ele>5.0</ele>
        <time>2019-05-16T14:51:58.927Z</time>
      </trkpt>
      <trkpt lat="39.06627333" lon="-8.86294">
        <ele>5.0</ele>
        <time>2019-05-16T14:51:59.927Z</time>
      </trkpt>
      <trkpt lat="39.06627333" lon="-8.86294">
        <ele>5.0</ele>
        <time>2019-05-16T14:52:00.926Z</time>
      </trkpt>
      <trkpt lat="39.06627333" lon="-8.86294">
        <ele>5.0</ele>
        <time>2019-05-16T14:52:01.900Z</time>
      </trkpt>
      <trkpt lat="39.06627333" lon="-8.86294">
        <ele>5.0</ele>
        <time>2019-05-16T14:52:02.928Z</time>
      </trkpt>
      <trkpt lat="39.06627333" lon="-8.86294">
        <ele>5.0</ele>
        <time>2019-05-16T14:52:03.927Z</time>
      </trkpt>
      <trkpt lat="39.06627333" lon="-8.86294">
        <ele>5.0</ele>
        <time>2019-05-16T14:52:04.927Z</time>
      </trkpt>
      <trkpt lat="39.06627333" lon="-8.86294">
        <ele>5.0</ele>
        <time>2019-05-16T14:52:05.919Z</time>
      </trkpt>
      <trkpt lat="39.06627333" lon="-8.86294">
        <ele>5.0</ele>
        <time>2019-05-16T14:52:06.907Z</time>
      </trkpt>
      <trkpt lat="39.06627333" lon="-8.86294">
        <ele>5.0</ele>
        <time>2019-05-16T14:52:07.901Z</time>
      </trkpt>
      <trkpt lat="39.06627333" lon="-8.86294">
        <ele>5.0</ele>
        <time>2019-05-16T14:52:08.927Z</time>
      </trkpt>
      <trkpt lat="39.06627333" lon="-8.86294">
        <ele>5.0</ele>
        <time>2019-05-16T14:52:09.930Z</time>
      </trkpt>
      <trkpt lat="39.06627333" lon="-8.86294">
        <ele>5.0</ele>
        <time>2019-05-16T14:52:10.927Z</time>
      </trkpt>
      <trkpt lat="39.06627333" lon="-8.86294">
        <ele>5.0</ele>
        <time>2019-05-16T14:52:11.927Z</time>
      </trkpt>
      <trkpt lat="39.06627333" lon="-8.86294">
        <ele>5.0</ele>
        <time>2019-05-16T14:52:12.923Z</time>
      </trkpt>
      <trkpt lat="39.06627333" lon="-8.86294">
        <ele>5.0</ele>
        <time>2019-05-16T14:52:13.927Z</time>
      </trkpt>
      <trkpt lat="39.06627333" lon="-8.86294">
        <ele>5.0</ele>
        <time>2019-05-16T14:52:14.934Z</time>
      </trkpt>
      <trkpt lat="39.06627333" lon="-8.86294">
        <ele>5.0</ele>
        <time>2019-05-16T14:52:15.923Z</time>
      </trkpt>
      <trkpt lat="39.06627333" lon="-8.86294">
        <ele>5.0</ele>
        <time>2019-05-16T14:52:16.927Z</time>
      </trkpt>
      <trkpt lat="39.06627333" lon="-8.86294">
        <ele>5.0</ele>
        <time>2019-05-16T14:52:17.923Z</time>
      </trkpt>
      <trkpt lat="39.06627333" lon="-8.86294">
        <ele>5.0</ele>
        <time>2019-05-16T14:52:18.927Z</time>
      </trkpt>
      <trkpt lat="39.06627333" lon="-8.86294">
        <ele>5.0</ele>
        <time>2019-05-16T14:52:19.927Z</time>
      </trkpt>
      <trkpt lat="39.06627333" lon="-8.86294">
        <ele>5.0</ele>
        <time>2019-05-16T14:52:20.925Z</time>
      </trkpt>
      <trkpt lat="39.06627333" lon="-8.86294">
        <ele>5.0</ele>
        <time>2019-05-16T14:52:21.918Z</time>
      </trkpt>
      <trkpt lat="39.06627333" lon="-8.86294">
        <ele>5.0</ele>
        <time>2019-05-16T14:52:22.924Z</time>
      </trkpt>
      <trkpt lat="39.06627333" lon="-8.86294">
        <ele>5.0</ele>
        <time>2019-05-16T14:52:23.923Z</time>
      </trkpt>
      <trkpt lat="39.06627333" lon="-8.86294">
        <ele>5.0</ele>
        <time>2019-05-16T14:52:24.927Z</time>
      </trkpt>
      <trkpt lat="39.06627333" lon="-8.86294">
        <ele>5.0</ele>
        <time>2019-05-16T14:52:25.923Z</time>
      </trkpt>
      <trkpt lat="39.06627333" lon="-8.86294">
        <ele>5.0</ele>
        <time>2019-05-16T14:52:26.909Z</time>
      </trkpt>
      <trkpt lat="39.06627333" lon="-8.86294">
        <ele>5.0</ele>
        <time>2019-05-16T14:52:27.897Z</time>
      </trkpt>
      <trkpt lat="39.06627333" lon="-8.86294">
        <ele>5.0</ele>
        <time>2019-05-16T14:52:28.928Z</time>
      </trkpt>
      <trkpt lat="39.06627333" lon="-8.86294">
        <ele>5.0</ele>
        <time>2019-05-16T14:52:29.927Z</time>
      </trkpt>
      <trkpt lat="39.06627333" lon="-8.86294">
        <ele>5.0</ele>
        <time>2019-05-16T14:52:30.922Z</time>
      </trkpt>
      <trkpt lat="39.06627333" lon="-8.86294">
        <ele>5.0</ele>
        <time>2019-05-16T14:52:31.927Z</time>
      </trkpt>
      <trkpt lat="39.06627333" lon="-8.86294">
        <ele>5.0</ele>
        <time>2019-05-16T14:52:32.930Z</time>
      </trkpt>
      <trkpt lat="39.06627333" lon="-8.86294">
        <ele>5.0</ele>
        <time>2019-05-16T14:52:33.923Z</time>
      </trkpt>
      <trkpt lat="39.06627333" lon="-8.86294">
        <ele>5.0</ele>
        <time>2019-05-16T14:52:34.927Z</time>
      </trkpt>
      <trkpt lat="39.06627333" lon="-8.86294">
        <ele>5.0</ele>
        <time>2019-05-16T14:52:35.923Z</time>
      </trkpt>
      <trkpt lat="39.06627333" lon="-8.86294">
        <ele>5.0</ele>
        <time>2019-05-16T14:52:36.927Z</time>
      </trkpt>
      <trkpt lat="39.06627333" lon="-8.86294">
        <ele>5.0</ele>
        <time>2019-05-16T14:52:37.922Z</time>
      </trkpt>
      <trkpt lat="39.06627333" lon="-8.86294">
        <ele>5.0</ele>
        <time>2019-05-16T14:52:38.930Z</time>
      </trkpt>
      <trkpt lat="39.06627333" lon="-8.86294">
        <ele>5.0</ele>
        <time>2019-05-16T14:52:39.931Z</time>
      </trkpt>
      <trkpt lat="39.06627333" lon="-8.86294">
        <ele>5.0</ele>
        <time>2019-05-16T14:52:40.927Z</time>
      </trkpt>
      <trkpt lat="39.06627333" lon="-8.86294">
        <ele>5.0</ele>
        <time>2019-05-16T14:52:41.922Z</time>
      </trkpt>
      <trkpt lat="39.06627333" lon="-8.86294">
        <ele>5.0</ele>
        <time>2019-05-16T14:52:42.927Z</time>
      </trkpt>
      <trkpt lat="39.06627333" lon="-8.86294">
        <ele>5.0</ele>
        <time>2019-05-16T14:52:43.922Z</time>
      </trkpt>
      <trkpt lat="39.06627333" lon="-8.86294">
        <ele>5.0</ele>
        <time>2019-05-16T14:52:44.929Z</time>
      </trkpt>
      <trkpt lat="39.06627333" lon="-8.86294">
        <ele>5.0</ele>
        <time>2019-05-16T14:52:45.922Z</time>
      </trkpt>
      <trkpt lat="39.06627333" lon="-8.86294">
        <ele>5.0</ele>
        <time>2019-05-16T14:52:46.927Z</time>
      </trkpt>
      <trkpt lat="39.06627333" lon="-8.86294">
        <ele>5.0</ele>
        <time>2019-05-16T14:52:47.923Z</time>
      </trkpt>
      <trkpt lat="39.06627333" lon="-8.86294">
        <ele>5.0</ele>
        <time>2019-05-16T14:52:48.924Z</time>
      </trkpt>
      <trkpt lat="39.06627333" lon="-8.86294">
        <ele>5.0</ele>
        <time>2019-05-16T14:52:49.927Z</time>
      </trkpt>
      <trkpt lat="39.06627333" lon="-8.86294">
        <ele>5.0</ele>
        <time>2019-05-16T14:52:50.930Z</time>
      </trkpt>
      <trkpt lat="39.06627333" lon="-8.86294">
        <ele>5.0</ele>
        <time>2019-05-16T14:52:51.922Z</time>
      </trkpt>
      <trkpt lat="39.06627333" lon="-8.86294">
        <ele>5.0</ele>
        <time>2019-05-16T14:52:52.929Z</time>
      </trkpt>
      <trkpt lat="39.06627333" lon="-8.86294">
        <ele>5.0</ele>
        <time>2019-05-16T14:52:53.923Z</time>
      </trkpt>
      <trkpt lat="39.06627333" lon="-8.86294">
        <ele>5.0</ele>
        <time>2019-05-16T14:52:54.927Z</time>
      </trkpt>
      <trkpt lat="39.06627333" lon="-8.86294">
        <ele>5.0</ele>
        <time>2019-05-16T14:52:55.922Z</time>
      </trkpt>
      <trkpt lat="39.06627333" lon="-8.86294">
        <ele>5.0</ele>
        <time>2019-05-16T14:52:56.930Z</time>
      </trkpt>
      <trkpt lat="39.06627333" lon="-8.86294">
        <ele>5.0</ele>
        <time>2019-05-16T14:52:57.922Z</time>
      </trkpt>
      <trkpt lat="39.06627333" lon="-8.86294">
        <ele>5.0</ele>
        <time>2019-05-16T14:52:58.927Z</time>
      </trkpt>
      <trkpt lat="39.06627333" lon="-8.86294">
        <ele>5.0</ele>
        <time>2019-05-16T14:52:59.929Z</time>
      </trkpt>
      <trkpt lat="39.06627333" lon="-8.86294">
        <ele>5.0</ele>
        <time>2019-05-16T14:53:00.928Z</time>
      </trkpt>
      <trkpt lat="39.06627333" lon="-8.86294">
        <ele>5.0</ele>
        <time>2019-05-16T14:53:01.934Z</time>
      </trkpt>
      <trkpt lat="39.06627333" lon="-8.86294">
        <ele>5.0</ele>
        <time>2019-05-16T14:53:02.929Z</time>
      </trkpt>
      <trkpt lat="39.06627333" lon="-8.86294">
        <ele>5.0</ele>
        <time>2019-05-16T14:53:03.929Z</time>
      </trkpt>
      <trkpt lat="39.06627333" lon="-8.86294">
        <ele>5.0</ele>
        <time>2019-05-16T14:53:04.928Z</time>
      </trkpt>
      <trkpt lat="39.06627333" lon="-8.86294">
        <ele>5.0</ele>
        <time>2019-05-16T14:53:05.904Z</time>
      </trkpt>
      <trkpt lat="39.06627333" lon="-8.86294">
        <ele>5.0</ele>
        <time>2019-05-16T14:53:06.931Z</time>
      </trkpt>
      <trkpt lat="39.06627333" lon="-8.86294">
        <ele>5.0</ele>
        <time>2019-05-16T14:53:07.917Z</time>
      </trkpt>
      <trkpt lat="39.06627333" lon="-8.86294">
        <ele>5.0</ele>
        <time>2019-05-16T14:53:08.903Z</time>
      </trkpt>
      <trkpt lat="39.06627333" lon="-8.86294">
        <ele>5.0</ele>
        <time>2019-05-16T14:53:09.928Z</time>
      </trkpt>
      <trkpt lat="39.06627333" lon="-8.86294">
        <ele>5.0</ele>
        <time>2019-05-16T14:53:10.928Z</time>
      </trkpt>
      <trkpt lat="39.06627333" lon="-8.86294">
        <ele>5.0</ele>
        <time>2019-05-16T14:53:11.922Z</time>
      </trkpt>
      <trkpt lat="39.06627333" lon="-8.86294">
        <ele>5.0</ele>
        <time>2019-05-16T14:53:12.927Z</time>
      </trkpt>
      <trkpt lat="39.06627333" lon="-8.86294">
        <ele>5.0</ele>
        <time>2019-05-16T14:53:13.922Z</time>
      </trkpt>
      <trkpt lat="39.06627333" lon="-8.86294">
        <ele>5.0</ele>
        <time>2019-05-16T14:53:14.930Z</time>
      </trkpt>
      <trkpt lat="39.06627333" lon="-8.86294">
        <ele>5.0</ele>
        <time>2019-05-16T14:53:15.922Z</time>
      </trkpt>
      <trkpt lat="39.06627333" lon="-8.86294">
        <ele>5.0</ele>
        <time>2019-05-16T14:53:16.928Z</time>
      </trkpt>
      <trkpt lat="39.06627333" lon="-8.86294">
        <ele>5.0</ele>
        <time>2019-05-16T14:53:17.924Z</time>
      </trkpt>
      <trkpt lat="39.06627333" lon="-8.86294">
        <ele>5.0</ele>
        <time>2019-05-16T14:53:18.927Z</time>
      </trkpt>
      <trkpt lat="39.06627333" lon="-8.86294">
        <ele>5.0</ele>
        <time>2019-05-16T14:53:19.929Z</time>
      </trkpt>
      <trkpt lat="39.06627333" lon="-8.86294">
        <ele>5.0</ele>
        <time>2019-05-16T14:53:20.923Z</time>
      </trkpt>
      <trkpt lat="39.06627333" lon="-8.86294">
        <ele>5.0</ele>
        <time>2019-05-16T14:53:21.904Z</time>
      </trkpt>
      <trkpt lat="39.06627333" lon="-8.86294">
        <ele>5.0</ele>
        <time>2019-05-16T14:53:22.911Z</time>
      </trkpt>
      <trkpt lat="39.06627333" lon="-8.86294">
        <ele>5.0</ele>
        <time>2019-05-16T14:53:23.902Z</time>
      </trkpt>
      <trkpt lat="39.06627333" lon="-8.86294">
        <ele>5.0</ele>
        <time>2019-05-16T14:53:24.929Z</time>
      </trkpt>
      <trkpt lat="39.06627333" lon="-8.86294">
        <ele>5.0</ele>
        <time>2019-05-16T14:53:25.928Z</time>
      </trkpt>
      <trkpt lat="39.06627333" lon="-8.86294">
        <ele>5.0</ele>
        <time>2019-05-16T14:53:26.930Z</time>
      </trkpt>
      <trkpt lat="39.06627333" lon="-8.86294">
        <ele>5.0</ele>
        <time>2019-05-16T14:53:27.922Z</time>
      </trkpt>
      <trkpt lat="39.06627333" lon="-8.86294">
        <ele>5.0</ele>
        <time>2019-05-16T14:53:28.928Z</time>
      </trkpt>
      <trkpt lat="39.06627333" lon="-8.86294">
        <ele>5.0</ele>
        <time>2019-05-16T14:53:29.926Z</time>
      </trkpt>
      <trkpt lat="39.06627333" lon="-8.86294">
        <ele>5.0</ele>
        <time>2019-05-16T14:53:30.927Z</time>
      </trkpt>
      <trkpt lat="39.06627333" lon="-8.86294">
        <ele>5.0</ele>
        <time>2019-05-16T14:53:31.920Z</time>
      </trkpt>
      <trkpt lat="39.06627333" lon="-8.86294">
        <ele>5.0</ele>
        <time>2019-05-16T14:53:32.906Z</time>
      </trkpt>
      <trkpt lat="39.06627333" lon="-8.86294">
        <ele>5.0</ele>
        <time>2019-05-16T14:53:33.931Z</time>
      </trkpt>
      <trkpt lat="39.06627333" lon="-8.86294">
        <ele>5.0</ele>
        <time>2019-05-16T14:53:34.927Z</time>
      </trkpt>
      <trkpt lat="39.06627333" lon="-8.86294">
        <ele>5.0</ele>
        <time>2019-05-16T14:53:35.927Z</time>
      </trkpt>
      <trkpt lat="39.06627333" lon="-8.86294">
        <ele>5.0</ele>
        <time>2019-05-16T14:53:36.922Z</time>
      </trkpt>
      <trkpt lat="39.06627333" lon="-8.86294">
        <ele>5.0</ele>
        <time>2019-05-16T14:53:37.927Z</time>
      </trkpt>
      <trkpt lat="39.06627333" lon="-8.86294">
        <ele>5.0</ele>
        <time>2019-05-16T14:53:38.930Z</time>
      </trkpt>
      <trkpt lat="39.06627333" lon="-8.86294">
        <ele>5.0</ele>
        <time>2019-05-16T14:53:39.931Z</time>
      </trkpt>
      <trkpt lat="39.06627333" lon="-8.86294">
        <ele>5.0</ele>
        <time>2019-05-16T14:53:40.928Z</time>
      </trkpt>
      <trkpt lat="39.06627333" lon="-8.86294">
        <ele>5.0</ele>
        <time>2019-05-16T14:53:41.922Z</time>
      </trkpt>
      <trkpt lat="39.06627333" lon="-8.86294">
        <ele>5.0</ele>
        <time>2019-05-16T14:53:42.927Z</time>
      </trkpt>
      <trkpt lat="39.06627333" lon="-8.86294">
        <ele>5.0</ele>
        <time>2019-05-16T14:53:43.927Z</time>
      </trkpt>
      <trkpt lat="39.06627333" lon="-8.86294">
        <ele>5.0</ele>
        <time>2019-05-16T14:53:44.927Z</time>
      </trkpt>
      <trkpt lat="39.06627333" lon="-8.86294">
        <ele>5.0</ele>
        <time>2019-05-16T14:53:45.927Z</time>
      </trkpt>
      <trkpt lat="39.06627333" lon="-8.86294">
        <ele>5.0</ele>
        <time>2019-05-16T14:53:46.928Z</time>
      </trkpt>
      <trkpt lat="39.06627333" lon="-8.86294">
        <ele>5.0</ele>
        <time>2019-05-16T14:53:47.922Z</time>
      </trkpt>
      <trkpt lat="39.06627333" lon="-8.86294">
        <ele>5.0</ele>
        <time>2019-05-16T14:53:48.903Z</time>
      </trkpt>
      <trkpt lat="39.06627333" lon="-8.86294">
        <ele>5.0</ele>
        <time>2019-05-16T14:53:49.929Z</time>
      </trkpt>
      <trkpt lat="39.06627333" lon="-8.86294">
        <ele>5.0</ele>
        <time>2019-05-16T14:53:50.902Z</time>
      </trkpt>
      <trkpt lat="39.06627333" lon="-8.86294">
        <ele>5.0</ele>
        <time>2019-05-16T14:53:51.928Z</time>
      </trkpt>
      <trkpt lat="39.06627333" lon="-8.86294">
        <ele>5.0</ele>
        <time>2019-05-16T14:53:52.927Z</time>
      </trkpt>
      <trkpt lat="39.06627333" lon="-8.86294">
        <ele>5.0</ele>
        <time>2019-05-16T14:53:53.922Z</time>
      </trkpt>
      <trkpt lat="39.06627333" lon="-8.86294">
        <ele>5.0</ele>
        <time>2019-05-16T14:53:54.927Z</time>
      </trkpt>
      <trkpt lat="39.06627333" lon="-8.86294">
        <ele>5.0</ele>
        <time>2019-05-16T14:53:55.923Z</time>
      </trkpt>
      <trkpt lat="39.06627333" lon="-8.86294">
        <ele>5.0</ele>
        <time>2019-05-16T14:53:56.930Z</time>
      </trkpt>
      <trkpt lat="39.06627333" lon="-8.86294">
        <ele>5.0</ele>
        <time>2019-05-16T14:53:57.926Z</time>
      </trkpt>
      <trkpt lat="39.06627333" lon="-8.86294">
        <ele>5.0</ele>
        <time>2019-05-16T14:53:58.928Z</time>
      </trkpt>
      <trkpt lat="39.06627333" lon="-8.86294">
        <ele>5.0</ele>
        <time>2019-05-16T14:53:59.931Z</time>
      </trkpt>
      <trkpt lat="39.06627333" lon="-8.86294">
        <ele>5.0</ele>
        <time>2019-05-16T14:54:00.927Z</time>
      </trkpt>
      <trkpt lat="39.06627333" lon="-8.86294">
        <ele>5.0</ele>
        <time>2019-05-16T14:54:01.931Z</time>
      </trkpt>
      <trkpt lat="39.06627333" lon="-8.86294">
        <ele>5.0</ele>
        <time>2019-05-16T14:54:02.930Z</time>
      </trkpt>
      <trkpt lat="39.06627333" lon="-8.86294">
        <ele>5.0</ele>
        <time>2019-05-16T14:54:03.920Z</time>
      </trkpt>
      <trkpt lat="39.06627333" lon="-8.86294">
        <ele>5.0</ele>
        <time>2019-05-16T14:54:04.925Z</time>
      </trkpt>
      <trkpt lat="39.06627333" lon="-8.86294">
        <ele>5.0</ele>
        <time>2019-05-16T14:54:05.922Z</time>
      </trkpt>
      <trkpt lat="39.06627333" lon="-8.86294">
        <ele>5.0</ele>
        <time>2019-05-16T14:54:06.907Z</time>
      </trkpt>
      <trkpt lat="39.06627333" lon="-8.86294">
        <ele>5.0</ele>
        <time>2019-05-16T14:54:07.933Z</time>
      </trkpt>
      <trkpt lat="39.06627333" lon="-8.86294">
        <ele>5.0</ele>
        <time>2019-05-16T14:54:08.930Z</time>
      </trkpt>
      <trkpt lat="39.06627333" lon="-8.86294">
        <ele>5.0</ele>
        <time>2019-05-16T14:54:09.931Z</time>
      </trkpt>
      <trkpt lat="39.06627333" lon="-8.86294">
        <ele>5.0</ele>
        <time>2019-05-16T14:54:10.924Z</time>
      </trkpt>
      <trkpt lat="39.06627333" lon="-8.86294">
        <ele>5.0</ele>
        <time>2019-05-16T14:54:11.927Z</time>
      </trkpt>
      <trkpt lat="39.06627333" lon="-8.86294">
        <ele>5.0</ele>
        <time>2019-05-16T14:54:12.923Z</time>
      </trkpt>
      <trkpt lat="39.06627333" lon="-8.86294">
        <ele>5.0</ele>
        <time>2019-05-16T14:54:13.924Z</time>
      </trkpt>
      <trkpt lat="39.06627333" lon="-8.86294">
        <ele>5.0</ele>
        <time>2019-05-16T14:54:14.929Z</time>
      </trkpt>
      <trkpt lat="39.06627333" lon="-8.86294">
        <ele>5.0</ele>
        <time>2019-05-16T14:54:15.923Z</time>
      </trkpt>
      <trkpt lat="39.06627333" lon="-8.86294">
        <ele>5.0</ele>
        <time>2019-05-16T14:54:16.927Z</time>
      </trkpt>
      <trkpt lat="39.06627333" lon="-8.86294">
        <ele>5.0</ele>
        <time>2019-05-16T14:54:17.919Z</time>
      </trkpt>
      <trkpt lat="39.06627333" lon="-8.86294">
        <ele>5.0</ele>
        <time>2019-05-16T14:54:18.903Z</time>
      </trkpt>
      <trkpt lat="39.06627333" lon="-8.86294">
        <ele>5.0</ele>
        <time>2019-05-16T14:54:19.929Z</time>
      </trkpt>
      <trkpt lat="39.06627333" lon="-8.86294">
        <ele>5.0</ele>
        <time>2019-05-16T14:54:20.912Z</time>
      </trkpt>
      <trkpt lat="39.06627333" lon="-8.86294">
        <ele>5.0</ele>
        <time>2019-05-16T14:54:21.897Z</time>
      </trkpt>
      <trkpt lat="39.06627333" lon="-8.86294">
        <ele>5.0</ele>
        <time>2019-05-16T14:54:22.903Z</time>
      </trkpt>
      <trkpt lat="39.06627333" lon="-8.86294">
        <ele>5.0</ele>
        <time>2019-05-16T14:54:23.912Z</time>
      </trkpt>
      <trkpt lat="39.06627333" lon="-8.86294">
        <ele>5.0</ele>
        <time>2019-05-16T14:54:24.898Z</time>
      </trkpt>
      <trkpt lat="39.06627333" lon="-8.86294">
        <ele>5.0</ele>
        <time>2019-05-16T14:54:25.924Z</time>
      </trkpt>
      <trkpt lat="39.06627333" lon="-8.86294">
        <ele>5.0</ele>
        <time>2019-05-16T14:54:26.931Z</time>
      </trkpt>
      <trkpt lat="39.06627333" lon="-8.86294">
        <ele>5.0</ele>
        <time>2019-05-16T14:54:27.931Z</time>
      </trkpt>
      <trkpt lat="39.06627333" lon="-8.86294">
        <ele>5.0</ele>
        <time>2019-05-16T14:54:28.924Z</time>
      </trkpt>
      <trkpt lat="39.06627333" lon="-8.86294">
        <ele>5.0</ele>
        <time>2019-05-16T14:54:29.930Z</time>
      </trkpt>
      <trkpt lat="39.06627333" lon="-8.86294">
        <ele>5.0</ele>
        <time>2019-05-16T14:54:30.936Z</time>
      </trkpt>
      <trkpt lat="39.06627333" lon="-8.86294">
        <ele>5.0</ele>
        <time>2019-05-16T14:54:31.927Z</time>
      </trkpt>
      <trkpt lat="39.06627333" lon="-8.86294">
        <ele>5.0</ele>
        <time>2019-05-16T14:54:32.926Z</time>
      </trkpt>
      <trkpt lat="39.06627333" lon="-8.86294">
        <ele>5.0</ele>
        <time>2019-05-16T14:54:33.927Z</time>
      </trkpt>
      <trkpt lat="39.06627333" lon="-8.86294">
        <ele>5.0</ele>
        <time>2019-05-16T14:54:34.928Z</time>
      </trkpt>
      <trkpt lat="39.06627333" lon="-8.86294">
        <ele>5.0</ele>
        <time>2019-05-16T14:54:35.921Z</time>
      </trkpt>
      <trkpt lat="39.06627333" lon="-8.86294">
        <ele>5.0</ele>
        <time>2019-05-16T14:54:36.927Z</time>
      </trkpt>
      <trkpt lat="39.06627333" lon="-8.86294">
        <ele>5.0</ele>
        <time>2019-05-16T14:54:37.922Z</time>
      </trkpt>
      <trkpt lat="39.06627333" lon="-8.86294">
        <ele>5.0</ele>
        <time>2019-05-16T14:54:38.908Z</time>
      </trkpt>
      <trkpt lat="39.06627333" lon="-8.86294">
        <ele>5.0</ele>
        <time>2019-05-16T14:54:39.901Z</time>
      </trkpt>
      <trkpt lat="39.06627333" lon="-8.86294">
        <ele>5.0</ele>
        <time>2019-05-16T14:54:40.928Z</time>
      </trkpt>
      <trkpt lat="39.06627333" lon="-8.86294">
        <ele>5.0</ele>
        <time>2019-05-16T14:54:41.922Z</time>
      </trkpt>
      <trkpt lat="39.06627333" lon="-8.86294">
        <ele>5.0</ele>
        <time>2019-05-16T14:54:42.927Z</time>
      </trkpt>
      <trkpt lat="39.06627333" lon="-8.86294">
        <ele>5.0</ele>
        <time>2019-05-16T14:54:43.922Z</time>
      </trkpt>
      <trkpt lat="39.06627333" lon="-8.86294">
        <ele>5.0</ele>
        <time>2019-05-16T14:54:44.930Z</time>
      </trkpt>
      <trkpt lat="39.06627333" lon="-8.86294">
        <ele>5.0</ele>
        <time>2019-05-16T14:54:45.923Z</time>
      </trkpt>
      <trkpt lat="39.06627333" lon="-8.86294">
        <ele>5.0</ele>
        <time>2019-05-16T14:54:46.908Z</time>
      </trkpt>
      <trkpt lat="39.06627333" lon="-8.86294">
        <ele>5.0</ele>
        <time>2019-05-16T14:54:47.934Z</time>
      </trkpt>
      <trkpt lat="39.06627333" lon="-8.86294">
        <ele>5.0</ele>
        <time>2019-05-16T14:54:48.922Z</time>
      </trkpt>
      <trkpt lat="39.06627333" lon="-8.86294">
        <ele>5.0</ele>
        <time>2019-05-16T14:54:49.927Z</time>
      </trkpt>
      <trkpt lat="39.06627333" lon="-8.86294">
        <ele>5.0</ele>
        <time>2019-05-16T14:54:50.932Z</time>
      </trkpt>
      <trkpt lat="39.06627333" lon="-8.86294">
        <ele>5.0</ele>
        <time>2019-05-16T14:54:51.922Z</time>
      </trkpt>
      <trkpt lat="39.06627333" lon="-8.86294">
        <ele>5.0</ele>
        <time>2019-05-16T14:54:52.929Z</time>
      </trkpt>
      <trkpt lat="39.06627333" lon="-8.86294">
        <ele>5.0</ele>
        <time>2019-05-16T14:54:53.922Z</time>
      </trkpt>
      <trkpt lat="39.06627333" lon="-8.86294">
        <ele>5.0</ele>
        <time>2019-05-16T14:54:54.927Z</time>
      </trkpt>
      <trkpt lat="39.06627333" lon="-8.86294">
        <ele>5.0</ele>
        <time>2019-05-16T14:54:55.922Z</time>
      </trkpt>
      <trkpt lat="39.06627333" lon="-8.86294">
        <ele>5.0</ele>
        <time>2019-05-16T14:54:56.930Z</time>
      </trkpt>
      <trkpt lat="39.06627333" lon="-8.86294">
        <ele>5.0</ele>
        <time>2019-05-16T14:54:57.919Z</time>
      </trkpt>
      <trkpt lat="39.06627333" lon="-8.86294">
        <ele>5.0</ele>
        <time>2019-05-16T14:54:58.904Z</time>
      </trkpt>
      <trkpt lat="39.06627333" lon="-8.86294">
        <ele>5.0</ele>
        <time>2019-05-16T14:54:59.929Z</time>
      </trkpt>
      <trkpt lat="39.06627333" lon="-8.86294">
        <ele>5.0</ele>
        <time>2019-05-16T14:55:00.922Z</time>
      </trkpt>
      <trkpt lat="39.06627333" lon="-8.86294">
        <ele>5.0</ele>
        <time>2019-05-16T14:55:01.933Z</time>
      </trkpt>
      <trkpt lat="39.06627333" lon="-8.86294">
        <ele>5.0</ele>
        <time>2019-05-16T14:55:02.930Z</time>
      </trkpt>
      <trkpt lat="39.06627333" lon="-8.86294">
        <ele>5.0</ele>
        <time>2019-05-16T14:55:03.925Z</time>
      </trkpt>
      <trkpt lat="39.06627333" lon="-8.86294">
        <ele>5.0</ele>
        <time>2019-05-16T14:55:04.927Z</time>
      </trkpt>
      <trkpt lat="39.06627333" lon="-8.86294">
        <ele>5.0</ele>
        <time>2019-05-16T14:55:05.922Z</time>
      </trkpt>
      <trkpt lat="39.06627333" lon="-8.86294">
        <ele>5.0</ele>
        <time>2019-05-16T14:55:06.901Z</time>
      </trkpt>
      <trkpt lat="39.06627333" lon="-8.86294">
        <ele>5.0</ele>
        <time>2019-05-16T14:55:07.926Z</time>
      </trkpt>
      <trkpt lat="39.06627333" lon="-8.86294">
        <ele>5.0</ele>
        <time>2019-05-16T14:55:08.927Z</time>
      </trkpt>
      <trkpt lat="39.06627333" lon="-8.86294">
        <ele>5.0</ele>
        <time>2019-05-16T14:55:09.931Z</time>
      </trkpt>
      <trkpt lat="39.06627333" lon="-8.86294">
        <ele>5.0</ele>
        <time>2019-05-16T14:55:10.923Z</time>
      </trkpt>
      <trkpt lat="39.06627333" lon="-8.86294">
        <ele>5.0</ele>
        <time>2019-05-16T14:55:11.927Z</time>
      </trkpt>
      <trkpt lat="39.06627333" lon="-8.86294">
        <ele>5.0</ele>
        <time>2019-05-16T14:55:12.928Z</time>
      </trkpt>
      <trkpt lat="39.06627333" lon="-8.86294">
        <ele>5.0</ele>
        <time>2019-05-16T14:55:13.911Z</time>
      </trkpt>
      <trkpt lat="39.06627333" lon="-8.86294">
        <ele>5.0</ele>
        <time>2019-05-16T14:55:14.935Z</time>
      </trkpt>
      <trkpt lat="39.06627333" lon="-8.86294">
        <ele>5.0</ele>
        <time>2019-05-16T14:55:15.923Z</time>
      </trkpt>
      <trkpt lat="39.06627333" lon="-8.86294">
        <ele>5.0</ele>
        <time>2019-05-16T14:55:16.927Z</time>
      </trkpt>
      <trkpt lat="39.06627333" lon="-8.86294">
        <ele>5.0</ele>
        <time>2019-05-16T14:55:17.927Z</time>
      </trkpt>
      <trkpt lat="39.06627333" lon="-8.86294">
        <ele>5.0</ele>
        <time>2019-05-16T14:55:18.931Z</time>
      </trkpt>
      <trkpt lat="39.06627333" lon="-8.86294">
        <ele>5.0</ele>
        <time>2019-05-16T14:55:19.927Z</time>
      </trkpt>
      <trkpt lat="39.06627333" lon="-8.86294">
        <ele>5.0</ele>
        <time>2019-05-16T14:55:20.923Z</time>
      </trkpt>
      <trkpt lat="39.06627333" lon="-8.86294">
        <ele>5.0</ele>
        <time>2019-05-16T14:55:21.913Z</time>
      </trkpt>
      <trkpt lat="39.06627333" lon="-8.86294">
        <ele>5.0</ele>
        <time>2019-05-16T14:55:22.920Z</time>
      </trkpt>
      <trkpt lat="39.06627333" lon="-8.86294">
        <ele>5.0</ele>
        <time>2019-05-16T14:55:23.925Z</time>
      </trkpt>
      <trkpt lat="39.06627333" lon="-8.86294">
        <ele>5.0</ele>
        <time>2019-05-16T14:55:24.927Z</time>
      </trkpt>
      <trkpt lat="39.06627333" lon="-8.86294">
        <ele>5.0</ele>
        <time>2019-05-16T14:55:25.922Z</time>
      </trkpt>
      <trkpt lat="39.06627333" lon="-8.86294">
        <ele>5.0</ele>
        <time>2019-05-16T14:55:26.902Z</time>
      </trkpt>
      <trkpt lat="39.06627333" lon="-8.86294">
        <ele>5.0</ele>
        <time>2019-05-16T14:55:27.928Z</time>
      </trkpt>
      <trkpt lat="39.06627333" lon="-8.86294">
        <ele>5.0</ele>
        <time>2019-05-16T14:55:28.901Z</time>
      </trkpt>
      <trkpt lat="39.06627333" lon="-8.86294">
        <ele>5.0</ele>
        <time>2019-05-16T14:55:29.899Z</time>
      </trkpt>
      <trkpt lat="39.06627333" lon="-8.86294">
        <ele>5.0</ele>
        <time>2019-05-16T14:55:30.925Z</time>
      </trkpt>
      <trkpt lat="39.06627333" lon="-8.86294">
        <ele>5.0</ele>
        <time>2019-05-16T14:55:31.927Z</time>
      </trkpt>
      <trkpt lat="39.06627333" lon="-8.86294">
        <ele>5.0</ele>
        <time>2019-05-16T14:55:32.930Z</time>
      </trkpt>
      <trkpt lat="39.06627333" lon="-8.86294">
        <ele>5.0</ele>
        <time>2019-05-16T14:55:33.919Z</time>
      </trkpt>
      <trkpt lat="39.06627333" lon="-8.86294">
        <ele>5.0</ele>
        <time>2019-05-16T14:55:34.925Z</time>
      </trkpt>
      <trkpt lat="39.06627333" lon="-8.86294">
        <ele>5.0</ele>
        <time>2019-05-16T14:55:35.925Z</time>
      </trkpt>
      <trkpt lat="39.06627333" lon="-8.86294">
        <ele>5.0</ele>
        <time>2019-05-16T14:55:36.932Z</time>
      </trkpt>
      <trkpt lat="39.06627333" lon="-8.86294">
        <ele>5.0</ele>
        <time>2019-05-16T14:55:37.923Z</time>
      </trkpt>
      <trkpt lat="39.06627333" lon="-8.86294">
        <ele>5.0</ele>
        <time>2019-05-16T14:55:38.910Z</time>
      </trkpt>
      <trkpt lat="39.06627333" lon="-8.86294">
        <ele>5.0</ele>
        <time>2019-05-16T14:55:39.931Z</time>
      </trkpt>
      <trkpt lat="39.06627333" lon="-8.86294">
        <ele>5.0</ele>
        <time>2019-05-16T14:55:40.928Z</time>
      </trkpt>
      <trkpt lat="39.06627333" lon="-8.86294">
        <ele>5.0</ele>
        <time>2019-05-16T14:55:41.923Z</time>
      </trkpt>
      <trkpt lat="39.06627333" lon="-8.86294">
        <ele>5.0</ele>
        <time>2019-05-16T14:55:42.928Z</time>
      </trkpt>
      <trkpt lat="39.06627333" lon="-8.86294">
        <ele>5.0</ele>
        <time>2019-05-16T14:55:43.922Z</time>
      </trkpt>
      <trkpt lat="39.06627333" lon="-8.86294">
        <ele>5.0</ele>
        <time>2019-05-16T14:55:44.930Z</time>
      </trkpt>
      <trkpt lat="39.06627333" lon="-8.86294">
        <ele>5.0</ele>
        <time>2019-05-16T14:55:45.923Z</time>
      </trkpt>
      <trkpt lat="39.06627333" lon="-8.86294">
        <ele>5.0</ele>
        <time>2019-05-16T14:55:46.928Z</time>
      </trkpt>
      <trkpt lat="39.06627333" lon="-8.86294">
        <ele>5.0</ele>
        <time>2019-05-16T14:55:47.928Z</time>
      </trkpt>
      <trkpt lat="39.06627333" lon="-8.86294">
        <ele>5.0</ele>
        <time>2019-05-16T14:55:48.929Z</time>
      </trkpt>
      <trkpt lat="39.06627333" lon="-8.86294">
        <ele>5.0</ele>
        <time>2019-05-16T14:55:49.931Z</time>
      </trkpt>
      <trkpt lat="39.06627333" lon="-8.86294">
        <ele>5.0</ele>
        <time>2019-05-16T14:55:50.929Z</time>
      </trkpt>
      <trkpt lat="39.06627333" lon="-8.86294">
        <ele>5.0</ele>
        <time>2019-05-16T14:55:51.922Z</time>
      </trkpt>
      <trkpt lat="39.06627333" lon="-8.86294">
        <ele>5.0</ele>
        <time>2019-05-16T14:55:52.925Z</time>
      </trkpt>
      <trkpt lat="39.06627333" lon="-8.86294">
        <ele>5.0</ele>
        <time>2019-05-16T14:55:53.922Z</time>
      </trkpt>
      <trkpt lat="39.06627333" lon="-8.86294">
        <ele>5.0</ele>
        <time>2019-05-16T14:55:54.927Z</time>
      </trkpt>
      <trkpt lat="39.06627333" lon="-8.86294">
        <ele>5.0</ele>
        <time>2019-05-16T14:55:55.922Z</time>
      </trkpt>
      <trkpt lat="39.06627333" lon="-8.86294">
        <ele>5.0</ele>
        <time>2019-05-16T14:55:56.930Z</time>
      </trkpt>
      <trkpt lat="39.06627333" lon="-8.86294">
        <ele>5.0</ele>
        <time>2019-05-16T14:55:57.922Z</time>
      </trkpt>
      <trkpt lat="39.06627333" lon="-8.86294">
        <ele>5.0</ele>
        <time>2019-05-16T14:55:58.928Z</time>
      </trkpt>
      <trkpt lat="39.06627333" lon="-8.86294">
        <ele>5.0</ele>
        <time>2019-05-16T14:55:59.903Z</time>
      </trkpt>
      <trkpt lat="39.06627333" lon="-8.86294">
        <ele>5.0</ele>
        <time>2019-05-16T14:56:00.929Z</time>
      </trkpt>
      <trkpt lat="39.06627333" lon="-8.86294">
        <ele>5.0</ele>
        <time>2019-05-16T14:56:01.930Z</time>
      </trkpt>
      <trkpt lat="39.06627333" lon="-8.86294">
        <ele>5.0</ele>
        <time>2019-05-16T14:56:02.927Z</time>
      </trkpt>
      <trkpt lat="39.06627333" lon="-8.86294">
        <ele>5.0</ele>
        <time>2019-05-16T14:56:03.925Z</time>
      </trkpt>
      <trkpt lat="39.06627333" lon="-8.86294">
        <ele>5.0</ele>
        <time>2019-05-16T14:56:04.927Z</time>
      </trkpt>
      <trkpt lat="39.06627333" lon="-8.86294">
        <ele>5.0</ele>
        <time>2019-05-16T14:56:05.923Z</time>
      </trkpt>
      <trkpt lat="39.06627333" lon="-8.86294">
        <ele>5.0</ele>
        <time>2019-05-16T14:56:06.901Z</time>
      </trkpt>
      <trkpt lat="39.06627333" lon="-8.86294">
        <ele>5.0</ele>
        <time>2019-05-16T14:56:07.926Z</time>
      </trkpt>
      <trkpt lat="39.06627333" lon="-8.86294">
        <ele>5.0</ele>
        <time>2019-05-16T14:56:08.930Z</time>
      </trkpt>
      <trkpt lat="39.06627333" lon="-8.86294">
        <ele>5.0</ele>
        <time>2019-05-16T14:56:09.921Z</time>
      </trkpt>
      <trkpt lat="39.06627333" lon="-8.86294">
        <ele>5.0</ele>
        <time>2019-05-16T14:56:10.908Z</time>
      </trkpt>
      <trkpt lat="39.06627333" lon="-8.86294">
        <ele>5.0</ele>
        <time>2019-05-16T14:56:11.934Z</time>
      </trkpt>
      <trkpt lat="39.06627333" lon="-8.86294">
        <ele>5.0</ele>
        <time>2019-05-16T14:56:12.925Z</time>
      </trkpt>
      <trkpt lat="39.06627333" lon="-8.86294">
        <ele>5.0</ele>
        <time>2019-05-16T14:56:13.922Z</time>
      </trkpt>
      <trkpt lat="39.06627333" lon="-8.86294">
        <ele>5.0</ele>
        <time>2019-05-16T14:56:14.931Z</time>
      </trkpt>
      <trkpt lat="39.06627333" lon="-8.86294">
        <ele>5.0</ele>
        <time>2019-05-16T14:56:15.926Z</time>
      </trkpt>
      <trkpt lat="39.06627333" lon="-8.86294">
        <ele>5.0</ele>
        <time>2019-05-16T14:56:16.927Z</time>
      </trkpt>
      <trkpt lat="39.06627333" lon="-8.86294">
        <ele>5.0</ele>
        <time>2019-05-16T14:56:17.927Z</time>
      </trkpt>
      <trkpt lat="39.06627333" lon="-8.86294">
        <ele>5.0</ele>
        <time>2019-05-16T14:56:18.923Z</time>
      </trkpt>
      <trkpt lat="39.06627333" lon="-8.86294">
        <ele>5.0</ele>
        <time>2019-05-16T14:56:19.927Z</time>
      </trkpt>
      <trkpt lat="39.06627333" lon="-8.86294">
        <ele>5.0</ele>
        <time>2019-05-16T14:56:20.932Z</time>
      </trkpt>
      <trkpt lat="39.06627333" lon="-8.86294">
        <ele>5.0</ele>
        <time>2019-05-16T14:56:21.933Z</time>
      </trkpt>
      <trkpt lat="39.06627333" lon="-8.86294">
        <ele>5.0</ele>
        <time>2019-05-16T14:56:22.899Z</time>
      </trkpt>
      <trkpt lat="39.06627333" lon="-8.86294">
        <ele>5.0</ele>
        <time>2019-05-16T14:56:23.922Z</time>
      </trkpt>
      <trkpt lat="39.06627333" lon="-8.86294">
        <ele>5.0</ele>
        <time>2019-05-16T14:56:24.927Z</time>
      </trkpt>
      <trkpt lat="39.06627333" lon="-8.86294">
        <ele>5.0</ele>
        <time>2019-05-16T14:56:25.923Z</time>
      </trkpt>
      <trkpt lat="39.06627333" lon="-8.86294">
        <ele>5.0</ele>
        <time>2019-05-16T14:56:26.929Z</time>
      </trkpt>
      <trkpt lat="39.06627333" lon="-8.86294">
        <ele>5.0</ele>
        <time>2019-05-16T14:56:27.922Z</time>
      </trkpt>
      <trkpt lat="39.06627333" lon="-8.86294">
        <ele>5.0</ele>
        <time>2019-05-16T14:56:28.928Z</time>
      </trkpt>
      <trkpt lat="39.06627333" lon="-8.86294">
        <ele>5.0</ele>
        <time>2019-05-16T14:56:29.901Z</time>
      </trkpt>
      <trkpt lat="39.06627333" lon="-8.86294">
        <ele>5.0</ele>
        <time>2019-05-16T14:56:30.930Z</time>
      </trkpt>
      <trkpt lat="39.06627333" lon="-8.86294">
        <ele>5.0</ele>
        <time>2019-05-16T14:56:31.923Z</time>
      </trkpt>
      <trkpt lat="39.06627333" lon="-8.86294">
        <ele>5.0</ele>
        <time>2019-05-16T14:56:32.929Z</time>
      </trkpt>
      <trkpt lat="39.06627333" lon="-8.86294">
        <ele>5.0</ele>
        <time>2019-05-16T14:56:33.923Z</time>
      </trkpt>
      <trkpt lat="39.06627333" lon="-8.86294">
        <ele>5.0</ele>
        <time>2019-05-16T14:56:34.928Z</time>
      </trkpt>
      <trkpt lat="39.06627333" lon="-8.86294">
        <ele>5.0</ele>
        <time>2019-05-16T14:56:35.922Z</time>
      </trkpt>
      <trkpt lat="39.06627333" lon="-8.86294">
        <ele>5.0</ele>
        <time>2019-05-16T14:56:36.927Z</time>
      </trkpt>
      <trkpt lat="39.06627333" lon="-8.86294">
        <ele>5.0</ele>
        <time>2019-05-16T14:56:37.927Z</time>
      </trkpt>
      <trkpt lat="39.06627333" lon="-8.86294">
        <ele>5.0</ele>
        <time>2019-05-16T14:56:38.925Z</time>
      </trkpt>
      <trkpt lat="39.06627333" lon="-8.86294">
        <ele>5.0</ele>
        <time>2019-05-16T14:56:39.931Z</time>
      </trkpt>
      <trkpt lat="39.06627333" lon="-8.86294">
        <ele>5.0</ele>
        <time>2019-05-16T14:56:40.923Z</time>
      </trkpt>
      <trkpt lat="39.06627333" lon="-8.86294">
        <ele>5.0</ele>
        <time>2019-05-16T14:56:41.928Z</time>
      </trkpt>
      <trkpt lat="39.06627333" lon="-8.86294">
        <ele>5.0</ele>
        <time>2019-05-16T14:56:42.922Z</time>
      </trkpt>
      <trkpt lat="39.06627333" lon="-8.86294">
        <ele>5.0</ele>
        <time>2019-05-16T14:56:43.926Z</time>
      </trkpt>
      <trkpt lat="39.06627333" lon="-8.86294">
        <ele>5.0</ele>
        <time>2019-05-16T14:56:44.930Z</time>
      </trkpt>
      <trkpt lat="39.06627333" lon="-8.86294">
        <ele>5.0</ele>
        <time>2019-05-16T14:56:45.922Z</time>
      </trkpt>
      <trkpt lat="39.06627333" lon="-8.86294">
        <ele>5.0</ele>
        <time>2019-05-16T14:56:46.928Z</time>
      </trkpt>
      <trkpt lat="39.06627333" lon="-8.86294">
        <ele>5.0</ele>
        <time>2019-05-16T14:56:47.919Z</time>
      </trkpt>
      <trkpt lat="39.06627333" lon="-8.86294">
        <ele>5.0</ele>
        <time>2019-05-16T14:56:48.904Z</time>
      </trkpt>
      <trkpt lat="39.06627333" lon="-8.86294">
        <ele>5.0</ele>
        <time>2019-05-16T14:56:49.901Z</time>
      </trkpt>
      <trkpt lat="39.06627333" lon="-8.86294">
        <ele>5.0</ele>
        <time>2019-05-16T14:56:50.930Z</time>
      </trkpt>
      <trkpt lat="39.06627333" lon="-8.86294">
        <ele>5.0</ele>
        <time>2019-05-16T14:56:51.922Z</time>
      </trkpt>
      <trkpt lat="39.06627333" lon="-8.86294">
        <ele>5.0</ele>
        <time>2019-05-16T14:56:52.927Z</time>
      </trkpt>
      <trkpt lat="39.06627333" lon="-8.86294">
        <ele>5.0</ele>
        <time>2019-05-16T14:56:53.923Z</time>
      </trkpt>
      <trkpt lat="39.06627333" lon="-8.86294">
        <ele>5.0</ele>
        <time>2019-05-16T14:56:54.927Z</time>
      </trkpt>
      <trkpt lat="39.06627333" lon="-8.86294">
        <ele>5.0</ele>
        <time>2019-05-16T14:56:55.923Z</time>
      </trkpt>
      <trkpt lat="39.06627333" lon="-8.86294">
        <ele>5.0</ele>
        <time>2019-05-16T14:56:56.900Z</time>
      </trkpt>
      <trkpt lat="39.06627333" lon="-8.86294">
        <ele>5.0</ele>
        <time>2019-05-16T14:56:57.926Z</time>
      </trkpt>
      <trkpt lat="39.06627333" lon="-8.86294">
        <ele>5.0</ele>
        <time>2019-05-16T14:56:58.905Z</time>
      </trkpt>
      <trkpt lat="39.06627333" lon="-8.86294">
        <ele>5.0</ele>
        <time>2019-05-16T14:56:59.900Z</time>
      </trkpt>
      <trkpt lat="39.06627333" lon="-8.86294">
        <ele>5.0</ele>
        <time>2019-05-16T14:57:00.928Z</time>
      </trkpt>
      <trkpt lat="39.06627333" lon="-8.86294">
        <ele>5.0</ele>
        <time>2019-05-16T14:57:01.931Z</time>
      </trkpt>
      <trkpt lat="39.06627333" lon="-8.86294">
        <ele>5.0</ele>
        <time>2019-05-16T14:57:02.930Z</time>
      </trkpt>
      <trkpt lat="39.06627333" lon="-8.86294">
        <ele>5.0</ele>
        <time>2019-05-16T14:57:03.922Z</time>
      </trkpt>
      <trkpt lat="39.06627333" lon="-8.86294">
        <ele>5.0</ele>
        <time>2019-05-16T14:57:04.927Z</time>
      </trkpt>
      <trkpt lat="39.06627333" lon="-8.86294">
        <ele>5.0</ele>
        <time>2019-05-16T14:57:05.924Z</time>
      </trkpt>
      <trkpt lat="39.06627333" lon="-8.86294">
        <ele>5.0</ele>
        <time>2019-05-16T14:57:06.936Z</time>
      </trkpt>
      <trkpt lat="39.06627333" lon="-8.86294">
        <ele>5.0</ele>
        <time>2019-05-16T14:57:07.922Z</time>
      </trkpt>
      <trkpt lat="39.06627333" lon="-8.86294">
        <ele>5.0</ele>
        <time>2019-05-16T14:57:08.929Z</time>
      </trkpt>
      <trkpt lat="39.06627333" lon="-8.86294">
        <ele>5.0</ele>
        <time>2019-05-16T14:57:09.901Z</time>
      </trkpt>
      <trkpt lat="39.06627333" lon="-8.86294">
        <ele>5.0</ele>
        <time>2019-05-16T14:57:10.901Z</time>
      </trkpt>
      <trkpt lat="39.06627333" lon="-8.86294">
        <ele>5.0</ele>
        <time>2019-05-16T14:57:11.927Z</time>
      </trkpt>
      <trkpt lat="39.06627333" lon="-8.86294">
        <ele>5.0</ele>
        <time>2019-05-16T14:57:12.927Z</time>
      </trkpt>
      <trkpt lat="39.06627333" lon="-8.86294">
        <ele>5.0</ele>
        <time>2019-05-16T14:57:13.923Z</time>
      </trkpt>
      <trkpt lat="39.06627333" lon="-8.86294">
        <ele>5.0</ele>
        <time>2019-05-16T14:57:14.930Z</time>
      </trkpt>
      <trkpt lat="39.06627333" lon="-8.86294">
        <ele>5.0</ele>
        <time>2019-05-16T14:57:15.923Z</time>
      </trkpt>
      <trkpt lat="39.06627333" lon="-8.86294">
        <ele>5.0</ele>
        <time>2019-05-16T14:57:16.928Z</time>
      </trkpt>
      <trkpt lat="39.06627333" lon="-8.86294">
        <ele>5.0</ele>
        <time>2019-05-16T14:57:17.922Z</time>
      </trkpt>
      <trkpt lat="39.06627333" lon="-8.86294">
        <ele>5.0</ele>
        <time>2019-05-16T14:57:18.927Z</time>
      </trkpt>
      <trkpt lat="39.06627333" lon="-8.86294">
        <ele>5.0</ele>
        <time>2019-05-16T14:57:19.901Z</time>
      </trkpt>
      <trkpt lat="39.06627333" lon="-8.86294">
        <ele>5.0</ele>
        <time>2019-05-16T14:57:20.903Z</time>
      </trkpt>
      <trkpt lat="39.06627333" lon="-8.86294">
        <ele>5.0</ele>
        <time>2019-05-16T14:57:21.905Z</time>
      </trkpt>
      <trkpt lat="39.06627333" lon="-8.86294">
        <ele>5.0</ele>
        <time>2019-05-16T14:57:22.916Z</time>
      </trkpt>
      <trkpt lat="39.06627333" lon="-8.86294">
        <ele>5.0</ele>
        <time>2019-05-16T14:57:23.923Z</time>
      </trkpt>
      <trkpt lat="39.06627333" lon="-8.86294">
        <ele>5.0</ele>
        <time>2019-05-16T14:57:24.927Z</time>
      </trkpt>
      <trkpt lat="39.06627333" lon="-8.86294">
        <ele>5.0</ele>
        <time>2019-05-16T14:57:25.922Z</time>
      </trkpt>
      <trkpt lat="39.06627333" lon="-8.86294">
        <ele>5.0</ele>
        <time>2019-05-16T14:57:26.930Z</time>
      </trkpt>
      <trkpt lat="39.06627333" lon="-8.86294">
        <ele>5.0</ele>
        <time>2019-05-16T14:57:27.923Z</time>
      </trkpt>
      <trkpt lat="39.06627333" lon="-8.86294">
        <ele>5.0</ele>
        <time>2019-05-16T14:57:28.928Z</time>
      </trkpt>
      <trkpt lat="39.06627333" lon="-8.86294">
        <ele>5.0</ele>
        <time>2019-05-16T14:57:29.931Z</time>
      </trkpt>
      <trkpt lat="39.06627333" lon="-8.86294">
        <ele>5.0</ele>
        <time>2019-05-16T14:57:30.927Z</time>
      </trkpt>
      <trkpt lat="39.06627333" lon="-8.86294">
        <ele>5.0</ele>
        <time>2019-05-16T14:57:31.922Z</time>
      </trkpt>
      <trkpt lat="39.06627333" lon="-8.86294">
        <ele>5.0</ele>
        <time>2019-05-16T14:57:32.930Z</time>
      </trkpt>
      <trkpt lat="39.06627333" lon="-8.86294">
        <ele>5.0</ele>
        <time>2019-05-16T14:57:33.923Z</time>
      </trkpt>
      <trkpt lat="39.06627333" lon="-8.86294">
        <ele>5.0</ele>
        <time>2019-05-16T14:57:34.925Z</time>
      </trkpt>
      <trkpt lat="39.06627333" lon="-8.86294">
        <ele>5.0</ele>
        <time>2019-05-16T14:57:35.923Z</time>
      </trkpt>
      <trkpt lat="39.06627333" lon="-8.86294">
        <ele>5.0</ele>
        <time>2019-05-16T14:57:36.927Z</time>
      </trkpt>
      <trkpt lat="39.06627333" lon="-8.86294">
        <ele>5.0</ele>
        <time>2019-05-16T14:57:37.923Z</time>
      </trkpt>
      <trkpt lat="39.06627333" lon="-8.86294">
        <ele>5.0</ele>
        <time>2019-05-16T14:57:38.927Z</time>
      </trkpt>
      <trkpt lat="39.06627333" lon="-8.86294">
        <ele>5.0</ele>
        <time>2019-05-16T14:57:39.932Z</time>
      </trkpt>
      <trkpt lat="39.06627333" lon="-8.86294">
        <ele>5.0</ele>
        <time>2019-05-16T14:57:40.928Z</time>
      </trkpt>
      <trkpt lat="39.06627333" lon="-8.86294">
        <ele>5.0</ele>
        <time>2019-05-16T14:57:41.929Z</time>
      </trkpt>
      <trkpt lat="39.06627333" lon="-8.86294">
        <ele>5.0</ele>
        <time>2019-05-16T14:57:42.922Z</time>
      </trkpt>
      <trkpt lat="39.06627333" lon="-8.86294">
        <ele>5.0</ele>
        <time>2019-05-16T14:57:43.927Z</time>
      </trkpt>
      <trkpt lat="39.06627333" lon="-8.86294">
        <ele>5.0</ele>
        <time>2019-05-16T14:57:44.930Z</time>
      </trkpt>
      <trkpt lat="39.06627333" lon="-8.86294">
        <ele>5.0</ele>
        <time>2019-05-16T14:57:45.923Z</time>
      </trkpt>
      <trkpt lat="39.06627333" lon="-8.86294">
        <ele>5.0</ele>
        <time>2019-05-16T14:57:46.929Z</time>
      </trkpt>
      <trkpt lat="39.06627333" lon="-8.86294">
        <ele>5.0</ele>
        <time>2019-05-16T14:57:47.923Z</time>
      </trkpt>
      <trkpt lat="39.06625" lon="-8.862945">
        <ele>-2.0</ele>
        <time>2019-05-16T14:57:48.927Z</time>
      </trkpt>
      <trkpt lat="39.06625" lon="-8.862945">
        <ele>-2.0</ele>
        <time>2019-05-16T14:57:49.928Z</time>
      </trkpt>
      <trkpt lat="39.06624333" lon="-8.86297">
        <ele>-2.0</ele>
        <time>2019-05-16T14:57:50.930Z</time>
      </trkpt>
      <trkpt lat="39.06624333" lon="-8.86297">
        <ele>-2.0</ele>
        <time>2019-05-16T14:57:51.923Z</time>
      </trkpt>
      <trkpt lat="39.06623333" lon="-8.862985">
        <ele>-2.0</ele>
        <time>2019-05-16T14:57:52.927Z</time>
      </trkpt>
      <trkpt lat="39.06623333" lon="-8.862985">
        <ele>-2.0</ele>
        <time>2019-05-16T14:57:53.923Z</time>
      </trkpt>
      <trkpt lat="39.06622" lon="-8.862985">
        <ele>-2.0</ele>
        <time>2019-05-16T14:57:54.931Z</time>
      </trkpt>
      <trkpt lat="39.06622" lon="-8.862985">
        <ele>-2.0</ele>
        <time>2019-05-16T14:57:55.928Z</time>
      </trkpt>
      <trkpt lat="39.06620833" lon="-8.862995">
        <ele>-2.0</ele>
        <time>2019-05-16T14:57:56.909Z</time>
      </trkpt>
      <trkpt lat="39.06620833" lon="-8.862995">
        <ele>-2.0</ele>
        <time>2019-05-16T14:57:57.905Z</time>
      </trkpt>
      <trkpt lat="39.0662" lon="-8.86300667">
        <ele>-2.0</ele>
        <time>2019-05-16T14:57:58.902Z</time>
      </trkpt>
      <trkpt lat="39.0662" lon="-8.86300667">
        <ele>-2.0</ele>
        <time>2019-05-16T14:57:59.906Z</time>
      </trkpt>
      <trkpt lat="39.06619" lon="-8.86301833">
        <ele>-1.0</ele>
        <time>2019-05-16T14:58:00.897Z</time>
      </trkpt>
      <trkpt lat="39.06619" lon="-8.86301833">
        <ele>-1.0</ele>
        <time>2019-05-16T14:58:01.906Z</time>
      </trkpt>
      <trkpt lat="39.06618" lon="-8.86304">
        <ele>-1.0</ele>
        <time>2019-05-16T14:58:02.904Z</time>
      </trkpt>
      <trkpt lat="39.06618" lon="-8.86304">
        <ele>-1.0</ele>
        <time>2019-05-16T14:58:03.904Z</time>
      </trkpt>
      <trkpt lat="39.066155" lon="-8.86305167">
        <ele>-1.0</ele>
        <time>2019-05-16T14:58:04.905Z</time>
      </trkpt>
      <trkpt lat="39.066155" lon="-8.86305167">
        <ele>-1.0</ele>
        <time>2019-05-16T14:58:05.924Z</time>
      </trkpt>
      <trkpt lat="39.06613667" lon="-8.86304667">
        <ele>0.0</ele>
        <time>2019-05-16T14:58:06.921Z</time>
      </trkpt>
      <trkpt lat="39.06613667" lon="-8.86304667">
        <ele>0.0</ele>
        <time>2019-05-16T14:58:07.898Z</time>
      </trkpt>
      <trkpt lat="39.06614" lon="-8.86305">
        <ele>0.0</ele>
        <time>2019-05-16T14:58:08.918Z</time>
      </trkpt>
      <trkpt lat="39.06614" lon="-8.86305">
        <ele>0.0</ele>
        <time>2019-05-16T14:58:09.900Z</time>
      </trkpt>
      <trkpt lat="39.06613833" lon="-8.86305167">
        <ele>0.0</ele>
        <time>2019-05-16T14:58:10.915Z</time>
      </trkpt>
      <trkpt lat="39.06613833" lon="-8.86305167">
        <ele>0.0</ele>
        <time>2019-05-16T14:58:11.906Z</time>
      </trkpt>
      <trkpt lat="39.06613" lon="-8.86303333">
        <ele>0.0</ele>
        <time>2019-05-16T14:58:12.915Z</time>
      </trkpt>
      <trkpt lat="39.06612333" lon="-8.863025">
        <ele>0.0</ele>
        <time>2019-05-16T14:58:13.932Z</time>
      </trkpt>
      <trkpt lat="39.066115" lon="-8.86301667">
        <ele>0.0</ele>
        <time>2019-05-16T14:58:14.930Z</time>
      </trkpt>
      <trkpt lat="39.066115" lon="-8.86301667">
        <ele>0.0</ele>
        <time>2019-05-16T14:58:15.922Z</time>
      </trkpt>
      <trkpt lat="39.0661" lon="-8.86299833">
        <ele>1.0</ele>
        <time>2019-05-16T14:58:16.930Z</time>
      </trkpt>
      <trkpt lat="39.0661" lon="-8.86299833">
        <ele>1.0</ele>
        <time>2019-05-16T14:58:17.925Z</time>
      </trkpt>
      <trkpt lat="39.06608" lon="-8.86297667">
        <ele>1.0</ele>
        <time>2019-05-16T14:58:18.905Z</time>
      </trkpt>
      <trkpt lat="39.06608" lon="-8.86297667">
        <ele>1.0</ele>
        <time>2019-05-16T14:58:19.931Z</time>
      </trkpt>
      <trkpt lat="39.06605667" lon="-8.86295667">
        <ele>1.0</ele>
        <time>2019-05-16T14:58:20.914Z</time>
      </trkpt>
      <trkpt lat="39.06605667" lon="-8.86295667">
        <ele>1.0</ele>
        <time>2019-05-16T14:58:21.933Z</time>
      </trkpt>
      <trkpt lat="39.06602833" lon="-8.86292">
        <ele>1.0</ele>
        <time>2019-05-16T14:58:22.912Z</time>
      </trkpt>
      <trkpt lat="39.06602833" lon="-8.86292">
        <ele>1.0</ele>
        <time>2019-05-16T14:58:23.933Z</time>
      </trkpt>
      <trkpt lat="39.06599667" lon="-8.86288167">
        <ele>1.0</ele>
        <time>2019-05-16T14:58:24.921Z</time>
      </trkpt>
      <trkpt lat="39.06599667" lon="-8.86288167">
        <ele>1.0</ele>
        <time>2019-05-16T14:58:25.903Z</time>
      </trkpt>
      <trkpt lat="39.06595833" lon="-8.86284333">
        <ele>1.0</ele>
        <time>2019-05-16T14:58:26.904Z</time>
      </trkpt>
      <trkpt lat="39.06595833" lon="-8.86284333">
        <ele>1.0</ele>
        <time>2019-05-16T14:58:27.920Z</time>
      </trkpt>
      <trkpt lat="39.06591667" lon="-8.8628">
        <ele>2.0</ele>
        <time>2019-05-16T14:58:28.897Z</time>
      </trkpt>
      <trkpt lat="39.06591667" lon="-8.8628">
        <ele>2.0</ele>
        <time>2019-05-16T14:58:29.919Z</time>
      </trkpt>
      <trkpt lat="39.06586833" lon="-8.86275333">
        <ele>2.0</ele>
        <time>2019-05-16T14:58:30.934Z</time>
      </trkpt>
      <trkpt lat="39.06586833" lon="-8.86275333">
        <ele>2.0</ele>
        <time>2019-05-16T14:58:31.914Z</time>
      </trkpt>
      <trkpt lat="39.06582167" lon="-8.862705">
        <ele>2.0</ele>
        <time>2019-05-16T14:58:32.932Z</time>
      </trkpt>
      <trkpt lat="39.06582167" lon="-8.862705">
        <ele>2.0</ele>
        <time>2019-05-16T14:58:33.915Z</time>
      </trkpt>
      <trkpt lat="39.065775" lon="-8.86264833">
        <ele>2.0</ele>
        <time>2019-05-16T14:58:34.938Z</time>
      </trkpt>
      <trkpt lat="39.065775" lon="-8.86264833">
        <ele>2.0</ele>
        <time>2019-05-16T14:58:35.915Z</time>
      </trkpt>
      <trkpt lat="39.06572667" lon="-8.86259167">
        <ele>2.0</ele>
        <time>2019-05-16T14:58:36.898Z</time>
      </trkpt>
      <trkpt lat="39.06572667" lon="-8.86259167">
        <ele>2.0</ele>
        <time>2019-05-16T14:58:37.901Z</time>
      </trkpt>
      <trkpt lat="39.06567833" lon="-8.86253333">
        <ele>2.0</ele>
        <time>2019-05-16T14:58:38.924Z</time>
      </trkpt>
      <trkpt lat="39.06567833" lon="-8.86253333">
        <ele>2.0</ele>
        <time>2019-05-16T14:58:39.910Z</time>
      </trkpt>
      <trkpt lat="39.06562833" lon="-8.86247833">
        <ele>2.0</ele>
        <time>2019-05-16T14:58:40.936Z</time>
      </trkpt>
      <trkpt lat="39.06560333" lon="-8.86244667">
        <ele>2.0</ele>
        <time>2019-05-16T14:58:41.921Z</time>
      </trkpt>
      <trkpt lat="39.06560333" lon="-8.86244667">
        <ele>2.0</ele>
        <time>2019-05-16T14:58:42.918Z</time>
      </trkpt>
      <trkpt lat="39.06555333" lon="-8.862385">
        <ele>2.0</ele>
        <time>2019-05-16T14:58:43.903Z</time>
      </trkpt>
      <trkpt lat="39.06553" lon="-8.86235333">
        <ele>2.0</ele>
        <time>2019-05-16T14:58:44.909Z</time>
      </trkpt>
      <trkpt lat="39.06553" lon="-8.86235333">
        <ele>2.0</ele>
        <time>2019-05-16T14:58:45.931Z</time>
      </trkpt>
      <trkpt lat="39.06548333" lon="-8.86228833">
        <ele>2.0</ele>
        <time>2019-05-16T14:58:46.919Z</time>
      </trkpt>
      <trkpt lat="39.06548333" lon="-8.86228833">
        <ele>2.0</ele>
        <time>2019-05-16T14:58:47.930Z</time>
      </trkpt>
      <trkpt lat="39.06543" lon="-8.86222333">
        <ele>2.0</ele>
        <time>2019-05-16T14:58:48.904Z</time>
      </trkpt>
      <trkpt lat="39.06543" lon="-8.86222333">
        <ele>2.0</ele>
        <time>2019-05-16T14:58:49.925Z</time>
      </trkpt>
      <trkpt lat="39.06537" lon="-8.862155">
        <ele>2.0</ele>
        <time>2019-05-16T14:58:50.906Z</time>
      </trkpt>
      <trkpt lat="39.06537" lon="-8.862155">
        <ele>2.0</ele>
        <time>2019-05-16T14:58:51.923Z</time>
      </trkpt>
      <trkpt lat="39.065315" lon="-8.86208167">
        <ele>1.0</ele>
        <time>2019-05-16T14:58:52.903Z</time>
      </trkpt>
      <trkpt lat="39.065315" lon="-8.86208167">
        <ele>1.0</ele>
        <time>2019-05-16T14:58:53.933Z</time>
      </trkpt>
      <trkpt lat="39.06525833" lon="-8.86201">
        <ele>2.0</ele>
        <time>2019-05-16T14:58:54.927Z</time>
      </trkpt>
      <trkpt lat="39.06525833" lon="-8.86201">
        <ele>2.0</ele>
        <time>2019-05-16T14:58:55.914Z</time>
      </trkpt>
      <trkpt lat="39.06519833" lon="-8.86194167">
        <ele>2.0</ele>
        <time>2019-05-16T14:58:56.932Z</time>
      </trkpt>
      <trkpt lat="39.06519833" lon="-8.86194167">
        <ele>2.0</ele>
        <time>2019-05-16T14:58:57.915Z</time>
      </trkpt>
      <trkpt lat="39.065135" lon="-8.86187667">
        <ele>2.0</ele>
        <time>2019-05-16T14:58:58.899Z</time>
      </trkpt>
      <trkpt lat="39.065135" lon="-8.86187667">
        <ele>2.0</ele>
        <time>2019-05-16T14:58:59.904Z</time>
      </trkpt>
      <trkpt lat="39.06507167" lon="-8.86181333">
        <ele>2.0</ele>
        <time>2019-05-16T14:59:00.931Z</time>
      </trkpt>
      <trkpt lat="39.06504167" lon="-8.86177833">
        <ele>2.0</ele>
        <time>2019-05-16T14:59:01.929Z</time>
      </trkpt>
      <trkpt lat="39.06501167" lon="-8.86174333">
        <ele>2.0</ele>
        <time>2019-05-16T14:59:02.925Z</time>
      </trkpt>
      <trkpt lat="39.06501167" lon="-8.86174333">
        <ele>2.0</ele>
        <time>2019-05-16T14:59:03.903Z</time>
      </trkpt>
      <trkpt lat="39.06495667" lon="-8.861675">
        <ele>3.0</ele>
        <time>2019-05-16T14:59:04.920Z</time>
      </trkpt>
      <trkpt lat="39.06495667" lon="-8.861675">
        <ele>3.0</ele>
        <time>2019-05-16T14:59:05.914Z</time>
      </trkpt>
      <trkpt lat="39.06489667" lon="-8.861615">
        <ele>3.0</ele>
        <time>2019-05-16T14:59:06.937Z</time>
      </trkpt>
      <trkpt lat="39.06489667" lon="-8.861615">
        <ele>3.0</ele>
        <time>2019-05-16T14:59:07.932Z</time>
      </trkpt>
      <trkpt lat="39.06484167" lon="-8.86154333">
        <ele>3.0</ele>
        <time>2019-05-16T14:59:08.935Z</time>
      </trkpt>
      <trkpt lat="39.06484167" lon="-8.86154333">
        <ele>3.0</ele>
        <time>2019-05-16T14:59:09.933Z</time>
      </trkpt>
      <trkpt lat="39.064785" lon="-8.86146833">
        <ele>3.0</ele>
        <time>2019-05-16T14:59:10.913Z</time>
      </trkpt>
      <trkpt lat="39.064785" lon="-8.86146833">
        <ele>3.0</ele>
        <time>2019-05-16T14:59:11.903Z</time>
      </trkpt>
      <trkpt lat="39.06472667" lon="-8.86139833">
        <ele>3.0</ele>
        <time>2019-05-16T14:59:12.931Z</time>
      </trkpt>
      <trkpt lat="39.064695" lon="-8.86136667">
        <ele>3.0</ele>
        <time>2019-05-16T14:59:13.926Z</time>
      </trkpt>
      <trkpt lat="39.064695" lon="-8.86136667">
        <ele>3.0</ele>
        <time>2019-05-16T14:59:14.918Z</time>
      </trkpt>
      <trkpt lat="39.06463333" lon="-8.86129667">
        <ele>3.0</ele>
        <time>2019-05-16T14:59:15.899Z</time>
      </trkpt>
      <trkpt lat="39.06460167" lon="-8.86126333">
        <ele>3.0</ele>
        <time>2019-05-16T14:59:16.907Z</time>
      </trkpt>
      <trkpt lat="39.06460167" lon="-8.86126333">
        <ele>3.0</ele>
        <time>2019-05-16T14:59:17.921Z</time>
      </trkpt>
      <trkpt lat="39.06454167" lon="-8.86119">
        <ele>2.0</ele>
        <time>2019-05-16T14:59:18.901Z</time>
      </trkpt>
      <trkpt lat="39.06454167" lon="-8.86119">
        <ele>2.0</ele>
        <time>2019-05-16T14:59:19.931Z</time>
      </trkpt>
      <trkpt lat="39.06448" lon="-8.86111833">
        <ele>2.0</ele>
        <time>2019-05-16T14:59:20.932Z</time>
      </trkpt>
      <trkpt lat="39.06448" lon="-8.86111833">
        <ele>2.0</ele>
        <time>2019-05-16T14:59:21.920Z</time>
      </trkpt>
      <trkpt lat="39.064425" lon="-8.861045">
        <ele>2.0</ele>
        <time>2019-05-16T14:59:22.937Z</time>
      </trkpt>
      <trkpt lat="39.064425" lon="-8.861045">
        <ele>2.0</ele>
        <time>2019-05-16T14:59:23.916Z</time>
      </trkpt>
      <trkpt lat="39.064365" lon="-8.86097">
        <ele>2.0</ele>
        <time>2019-05-16T14:59:24.932Z</time>
      </trkpt>
      <trkpt lat="39.064365" lon="-8.86097">
        <ele>2.0</ele>
        <time>2019-05-16T14:59:25.932Z</time>
      </trkpt>
      <trkpt lat="39.06430333" lon="-8.86089833">
        <ele>2.0</ele>
        <time>2019-05-16T14:59:26.921Z</time>
      </trkpt>
      <trkpt lat="39.06430333" lon="-8.86089833">
        <ele>2.0</ele>
        <time>2019-05-16T14:59:27.901Z</time>
      </trkpt>
      <trkpt lat="39.06424" lon="-8.86082667">
        <ele>3.0</ele>
        <time>2019-05-16T14:59:28.915Z</time>
      </trkpt>
      <trkpt lat="39.06424" lon="-8.86082667">
        <ele>3.0</ele>
        <time>2019-05-16T14:59:29.933Z</time>
      </trkpt>
      <trkpt lat="39.064175" lon="-8.860755">
        <ele>3.0</ele>
        <time>2019-05-16T14:59:30.915Z</time>
      </trkpt>
      <trkpt lat="39.064175" lon="-8.860755">
        <ele>3.0</ele>
        <time>2019-05-16T14:59:31.910Z</time>
      </trkpt>
      <trkpt lat="39.06411333" lon="-8.86068333">
        <ele>3.0</ele>
        <time>2019-05-16T14:59:32.929Z</time>
      </trkpt>
      <trkpt lat="39.06411333" lon="-8.86068333">
        <ele>3.0</ele>
        <time>2019-05-16T14:59:33.924Z</time>
      </trkpt>
      <trkpt lat="39.06405167" lon="-8.86061167">
        <ele>3.0</ele>
        <time>2019-05-16T14:59:34.904Z</time>
      </trkpt>
      <trkpt lat="39.06405167" lon="-8.86061167">
        <ele>3.0</ele>
        <time>2019-05-16T14:59:35.936Z</time>
      </trkpt>
      <trkpt lat="39.06398833" lon="-8.86054">
        <ele>3.0</ele>
        <time>2019-05-16T14:59:36.917Z</time>
      </trkpt>
      <trkpt lat="39.06395667" lon="-8.860505">
        <ele>3.0</ele>
        <time>2019-05-16T14:59:37.914Z</time>
      </trkpt>
      <trkpt lat="39.06392667" lon="-8.86046667">
        <ele>3.0</ele>
        <time>2019-05-16T14:59:38.937Z</time>
      </trkpt>
      <trkpt lat="39.06392667" lon="-8.86046667">
        <ele>3.0</ele>
        <time>2019-05-16T14:59:39.930Z</time>
      </trkpt>
      <trkpt lat="39.063865" lon="-8.86039">
        <ele>3.0</ele>
        <time>2019-05-16T14:59:40.910Z</time>
      </trkpt>
      <trkpt lat="39.063865" lon="-8.86039">
        <ele>3.0</ele>
        <time>2019-05-16T14:59:41.901Z</time>
      </trkpt>
      <trkpt lat="39.06380333" lon="-8.86031667">
        <ele>3.0</ele>
        <time>2019-05-16T14:59:42.929Z</time>
      </trkpt>
      <trkpt lat="39.06376833" lon="-8.86028333">
        <ele>3.0</ele>
        <time>2019-05-16T14:59:43.935Z</time>
      </trkpt>
      <trkpt lat="39.063735" lon="-8.86025">
        <ele>4.0</ele>
        <time>2019-05-16T14:59:44.930Z</time>
      </trkpt>
      <trkpt lat="39.063735" lon="-8.86025">
        <ele>4.0</ele>
        <time>2019-05-16T14:59:45.936Z</time>
      </trkpt>
      <trkpt lat="39.06367167" lon="-8.86018">
        <ele>4.0</ele>
        <time>2019-05-16T14:59:46.912Z</time>
      </trkpt>
      <trkpt lat="39.06364" lon="-8.860145">
        <ele>4.0</ele>
        <time>2019-05-16T14:59:47.913Z</time>
      </trkpt>
      <trkpt lat="39.06364" lon="-8.860145">
        <ele>4.0</ele>
        <time>2019-05-16T14:59:48.903Z</time>
      </trkpt>
      <trkpt lat="39.06357833" lon="-8.86008">
        <ele>4.0</ele>
        <time>2019-05-16T14:59:49.901Z</time>
      </trkpt>
      <trkpt lat="39.06354667" lon="-8.86004667">
        <ele>4.0</ele>
        <time>2019-05-16T14:59:50.910Z</time>
      </trkpt>
      <trkpt lat="39.06354667" lon="-8.86004667">
        <ele>4.0</ele>
        <time>2019-05-16T14:59:51.901Z</time>
      </trkpt>
      <trkpt lat="39.063485" lon="-8.85997667">
        <ele>4.0</ele>
        <time>2019-05-16T14:59:52.921Z</time>
      </trkpt>
      <trkpt lat="39.063485" lon="-8.85997667">
        <ele>4.0</ele>
        <time>2019-05-16T14:59:53.902Z</time>
      </trkpt>
      <trkpt lat="39.06342333" lon="-8.859905">
        <ele>4.0</ele>
        <time>2019-05-16T14:59:54.914Z</time>
      </trkpt>
      <trkpt lat="39.06339333" lon="-8.85986667">
        <ele>4.0</ele>
        <time>2019-05-16T14:59:55.936Z</time>
      </trkpt>
      <trkpt lat="39.063365" lon="-8.85983">
        <ele>4.0</ele>
        <time>2019-05-16T14:59:56.909Z</time>
      </trkpt>
      <trkpt lat="39.063365" lon="-8.85983">
        <ele>4.0</ele>
        <time>2019-05-16T14:59:57.934Z</time>
      </trkpt>
      <trkpt lat="39.06330667" lon="-8.859755">
        <ele>4.0</ele>
        <time>2019-05-16T14:59:58.919Z</time>
      </trkpt>
      <trkpt lat="39.063275" lon="-8.85972">
        <ele>4.0</ele>
        <time>2019-05-16T14:59:59.930Z</time>
      </trkpt>
      <trkpt lat="39.063275" lon="-8.85972">
        <ele>4.0</ele>
        <time>2019-05-16T15:00:00.921Z</time>
      </trkpt>
      <trkpt lat="39.06321167" lon="-8.85964667">
        <ele>4.0</ele>
        <time>2019-05-16T15:00:01.911Z</time>
      </trkpt>
      <trkpt lat="39.06317667" lon="-8.85961167">
        <ele>4.0</ele>
        <time>2019-05-16T15:00:02.902Z</time>
      </trkpt>
      <trkpt lat="39.06317667" lon="-8.85961167">
        <ele>4.0</ele>
        <time>2019-05-16T15:00:03.930Z</time>
      </trkpt>
      <trkpt lat="39.06310833" lon="-8.85953833">
        <ele>4.0</ele>
        <time>2019-05-16T15:00:04.912Z</time>
      </trkpt>
      <trkpt lat="39.06310833" lon="-8.85953833">
        <ele>4.0</ele>
        <time>2019-05-16T15:00:05.929Z</time>
      </trkpt>
      <trkpt lat="39.063045" lon="-8.85945833">
        <ele>4.0</ele>
        <time>2019-05-16T15:00:06.914Z</time>
      </trkpt>
      <trkpt lat="39.06301" lon="-8.85942167">
        <ele>4.0</ele>
        <time>2019-05-16T15:00:07.917Z</time>
      </trkpt>
      <trkpt lat="39.062975" lon="-8.859385">
        <ele>4.0</ele>
        <time>2019-05-16T15:00:08.898Z</time>
      </trkpt>
      <trkpt lat="39.062975" lon="-8.859385">
        <ele>4.0</ele>
        <time>2019-05-16T15:00:09.922Z</time>
      </trkpt>
      <trkpt lat="39.06290667" lon="-8.85930833">
        <ele>5.0</ele>
        <time>2019-05-16T15:00:10.901Z</time>
      </trkpt>
      <trkpt lat="39.06290667" lon="-8.85930833">
        <ele>5.0</ele>
        <time>2019-05-16T15:00:11.924Z</time>
      </trkpt>
      <trkpt lat="39.06283833" lon="-8.85923167">
        <ele>5.0</ele>
        <time>2019-05-16T15:00:12.912Z</time>
      </trkpt>
      <trkpt lat="39.06283833" lon="-8.85923167">
        <ele>5.0</ele>
        <time>2019-05-16T15:00:13.908Z</time>
      </trkpt>
      <trkpt lat="39.06277167" lon="-8.859155">
        <ele>5.0</ele>
        <time>2019-05-16T15:00:14.932Z</time>
      </trkpt>
      <trkpt lat="39.06277167" lon="-8.859155">
        <ele>5.0</ele>
        <time>2019-05-16T15:00:15.901Z</time>
      </trkpt>
      <trkpt lat="39.06270833" lon="-8.85908">
        <ele>5.0</ele>
        <time>2019-05-16T15:00:16.920Z</time>
      </trkpt>
      <trkpt lat="39.062675" lon="-8.85904333">
        <ele>4.0</ele>
        <time>2019-05-16T15:00:17.909Z</time>
      </trkpt>
      <trkpt lat="39.062675" lon="-8.85904333">
        <ele>4.0</ele>
        <time>2019-05-16T15:00:18.897Z</time>
      </trkpt>
      <trkpt lat="39.06260667" lon="-8.85897333">
        <ele>4.0</ele>
        <time>2019-05-16T15:00:19.931Z</time>
      </trkpt>
      <trkpt lat="39.06260667" lon="-8.85897333">
        <ele>4.0</ele>
        <time>2019-05-16T15:00:20.929Z</time>
      </trkpt>
      <trkpt lat="39.06254667" lon="-8.858895">
        <ele>4.0</ele>
        <time>2019-05-16T15:00:21.927Z</time>
      </trkpt>
      <trkpt lat="39.06251667" lon="-8.85885833">
        <ele>4.0</ele>
        <time>2019-05-16T15:00:22.907Z</time>
      </trkpt>
      <trkpt lat="39.06251667" lon="-8.85885833">
        <ele>4.0</ele>
        <time>2019-05-16T15:00:23.903Z</time>
      </trkpt>
      <trkpt lat="39.06245333" lon="-8.85878833">
        <ele>4.0</ele>
        <time>2019-05-16T15:00:24.930Z</time>
      </trkpt>
      <trkpt lat="39.06245333" lon="-8.85878833">
        <ele>4.0</ele>
        <time>2019-05-16T15:00:25.908Z</time>
      </trkpt>
      <trkpt lat="39.06239167" lon="-8.85871333">
        <ele>4.0</ele>
        <time>2019-05-16T15:00:26.938Z</time>
      </trkpt>
      <trkpt lat="39.06239167" lon="-8.85871333">
        <ele>4.0</ele>
        <time>2019-05-16T15:00:27.918Z</time>
      </trkpt>
      <trkpt lat="39.06232833" lon="-8.85864333">
        <ele>4.0</ele>
        <time>2019-05-16T15:00:28.905Z</time>
      </trkpt>
      <trkpt lat="39.062295" lon="-8.85861">
        <ele>4.0</ele>
        <time>2019-05-16T15:00:29.918Z</time>
      </trkpt>
      <trkpt lat="39.062295" lon="-8.85861">
        <ele>4.0</ele>
        <time>2019-05-16T15:00:30.935Z</time>
      </trkpt>
      <trkpt lat="39.062235" lon="-8.858535">
        <ele>4.0</ele>
        <time>2019-05-16T15:00:31.913Z</time>
      </trkpt>
      <trkpt lat="39.062205" lon="-8.85849833">
        <ele>4.0</ele>
        <time>2019-05-16T15:00:32.899Z</time>
      </trkpt>
      <trkpt lat="39.062205" lon="-8.85849833">
        <ele>4.0</ele>
        <time>2019-05-16T15:00:33.914Z</time>
      </trkpt>
      <trkpt lat="39.06214167" lon="-8.858425">
        <ele>4.0</ele>
        <time>2019-05-16T15:00:34.937Z</time>
      </trkpt>
      <trkpt lat="39.06214167" lon="-8.858425">
        <ele>4.0</ele>
        <time>2019-05-16T15:00:35.929Z</time>
      </trkpt>
      <trkpt lat="39.06207833" lon="-8.85835167">
        <ele>4.0</ele>
        <time>2019-05-16T15:00:36.934Z</time>
      </trkpt>
      <trkpt lat="39.06207833" lon="-8.85835167">
        <ele>4.0</ele>
        <time>2019-05-16T15:00:37.923Z</time>
      </trkpt>
      <trkpt lat="39.062015" lon="-8.858275">
        <ele>4.0</ele>
        <time>2019-05-16T15:00:38.911Z</time>
      </trkpt>
      <trkpt lat="39.062015" lon="-8.858275">
        <ele>4.0</ele>
        <time>2019-05-16T15:00:39.899Z</time>
      </trkpt>
      <trkpt lat="39.061955" lon="-8.85819667">
        <ele>4.0</ele>
        <time>2019-05-16T15:00:40.920Z</time>
      </trkpt>
      <trkpt lat="39.061955" lon="-8.85819667">
        <ele>4.0</ele>
        <time>2019-05-16T15:00:41.903Z</time>
      </trkpt>
      <trkpt lat="39.06188833" lon="-8.85812167">
        <ele>4.0</ele>
        <time>2019-05-16T15:00:42.936Z</time>
      </trkpt>
      <trkpt lat="39.06188833" lon="-8.85812167">
        <ele>4.0</ele>
        <time>2019-05-16T15:00:43.929Z</time>
      </trkpt>
      <trkpt lat="39.06182333" lon="-8.85804667">
        <ele>4.0</ele>
        <time>2019-05-16T15:00:44.909Z</time>
      </trkpt>
      <trkpt lat="39.06182333" lon="-8.85804667">
        <ele>4.0</ele>
        <time>2019-05-16T15:00:45.898Z</time>
      </trkpt>
      <trkpt lat="39.06175333" lon="-8.857975">
        <ele>4.0</ele>
        <time>2019-05-16T15:00:46.931Z</time>
      </trkpt>
      <trkpt lat="39.06175333" lon="-8.857975">
        <ele>4.0</ele>
        <time>2019-05-16T15:00:47.915Z</time>
      </trkpt>
      <trkpt lat="39.06169" lon="-8.8579">
        <ele>4.0</ele>
        <time>2019-05-16T15:00:48.898Z</time>
      </trkpt>
      <trkpt lat="39.06169" lon="-8.8579">
        <ele>4.0</ele>
        <time>2019-05-16T15:00:49.932Z</time>
      </trkpt>
      <trkpt lat="39.061625" lon="-8.85782333">
        <ele>4.0</ele>
        <time>2019-05-16T15:00:50.912Z</time>
      </trkpt>
      <trkpt lat="39.061625" lon="-8.85782333">
        <ele>4.0</ele>
        <time>2019-05-16T15:00:51.915Z</time>
      </trkpt>
      <trkpt lat="39.061555" lon="-8.85775">
        <ele>4.0</ele>
        <time>2019-05-16T15:00:52.897Z</time>
      </trkpt>
      <trkpt lat="39.061555" lon="-8.85775">
        <ele>4.0</ele>
        <time>2019-05-16T15:00:53.919Z</time>
      </trkpt>
      <trkpt lat="39.06148333" lon="-8.85767333">
        <ele>4.0</ele>
        <time>2019-05-16T15:00:54.902Z</time>
      </trkpt>
      <trkpt lat="39.06148333" lon="-8.85767333">
        <ele>4.0</ele>
        <time>2019-05-16T15:00:55.918Z</time>
      </trkpt>
      <trkpt lat="39.06141167" lon="-8.857595">
        <ele>4.0</ele>
        <time>2019-05-16T15:00:56.899Z</time>
      </trkpt>
      <trkpt lat="39.06141167" lon="-8.857595">
        <ele>4.0</ele>
        <time>2019-05-16T15:00:57.927Z</time>
      </trkpt>
      <trkpt lat="39.06134333" lon="-8.85751333">
        <ele>4.0</ele>
        <time>2019-05-16T15:00:58.914Z</time>
      </trkpt>
      <trkpt lat="39.06134333" lon="-8.85751333">
        <ele>4.0</ele>
        <time>2019-05-16T15:00:59.902Z</time>
      </trkpt>
      <trkpt lat="39.06127333" lon="-8.85743">
        <ele>4.0</ele>
        <time>2019-05-16T15:01:00.920Z</time>
      </trkpt>
      <trkpt lat="39.06123833" lon="-8.85739">
        <ele>4.0</ele>
        <time>2019-05-16T15:01:01.930Z</time>
      </trkpt>
      <trkpt lat="39.06120167" lon="-8.85735">
        <ele>4.0</ele>
        <time>2019-05-16T15:01:02.915Z</time>
      </trkpt>
      <trkpt lat="39.06120167" lon="-8.85735">
        <ele>4.0</ele>
        <time>2019-05-16T15:01:03.920Z</time>
      </trkpt>
      <trkpt lat="39.06113" lon="-8.857265">
        <ele>4.0</ele>
        <time>2019-05-16T15:01:04.901Z</time>
      </trkpt>
      <trkpt lat="39.06113" lon="-8.857265">
        <ele>4.0</ele>
        <time>2019-05-16T15:01:05.915Z</time>
      </trkpt>
      <trkpt lat="39.06106" lon="-8.85717833">
        <ele>4.0</ele>
        <time>2019-05-16T15:01:06.931Z</time>
      </trkpt>
      <trkpt lat="39.06106" lon="-8.85717833">
        <ele>4.0</ele>
        <time>2019-05-16T15:01:07.931Z</time>
      </trkpt>
      <trkpt lat="39.06098833" lon="-8.85709667">
        <ele>4.0</ele>
        <time>2019-05-16T15:01:08.916Z</time>
      </trkpt>
      <trkpt lat="39.06098833" lon="-8.85709667">
        <ele>4.0</ele>
        <time>2019-05-16T15:01:09.918Z</time>
      </trkpt>
      <trkpt lat="39.06092" lon="-8.85701167">
        <ele>4.0</ele>
        <time>2019-05-16T15:01:10.910Z</time>
      </trkpt>
      <trkpt lat="39.06092" lon="-8.85701167">
        <ele>4.0</ele>
        <time>2019-05-16T15:01:11.915Z</time>
      </trkpt>
      <trkpt lat="39.06084833" lon="-8.85692833">
        <ele>4.0</ele>
        <time>2019-05-16T15:01:12.937Z</time>
      </trkpt>
      <trkpt lat="39.06084833" lon="-8.85692833">
        <ele>4.0</ele>
        <time>2019-05-16T15:01:13.914Z</time>
      </trkpt>
      <trkpt lat="39.06077667" lon="-8.85684667">
        <ele>4.0</ele>
        <time>2019-05-16T15:01:14.901Z</time>
      </trkpt>
      <trkpt lat="39.06077667" lon="-8.85684667">
        <ele>4.0</ele>
        <time>2019-05-16T15:01:15.921Z</time>
      </trkpt>
      <trkpt lat="39.06070167" lon="-8.85676333">
        <ele>4.0</ele>
        <time>2019-05-16T15:01:16.906Z</time>
      </trkpt>
      <trkpt lat="39.06070167" lon="-8.85676333">
        <ele>4.0</ele>
        <time>2019-05-16T15:01:17.935Z</time>
      </trkpt>
      <trkpt lat="39.06062667" lon="-8.85667833">
        <ele>4.0</ele>
        <time>2019-05-16T15:01:18.921Z</time>
      </trkpt>
      <trkpt lat="39.06062667" lon="-8.85667833">
        <ele>4.0</ele>
        <time>2019-05-16T15:01:19.929Z</time>
      </trkpt>
      <trkpt lat="39.06055167" lon="-8.856595">
        <ele>4.0</ele>
        <time>2019-05-16T15:01:20.959Z</time>
      </trkpt>
      <trkpt lat="39.06055167" lon="-8.856595">
        <ele>4.0</ele>
        <time>2019-05-16T15:01:21.903Z</time>
      </trkpt>
      <trkpt lat="39.06048" lon="-8.85650833">
        <ele>4.0</ele>
        <time>2019-05-16T15:01:22.921Z</time>
      </trkpt>
      <trkpt lat="39.06048" lon="-8.85650833">
        <ele>4.0</ele>
        <time>2019-05-16T15:01:23.930Z</time>
      </trkpt>
      <trkpt lat="39.06040833" lon="-8.85642333">
        <ele>3.0</ele>
        <time>2019-05-16T15:01:24.907Z</time>
      </trkpt>
      <trkpt lat="39.06040833" lon="-8.85642333">
        <ele>3.0</ele>
        <time>2019-05-16T15:01:25.933Z</time>
      </trkpt>
      <trkpt lat="39.060335" lon="-8.85633667">
        <ele>3.0</ele>
        <time>2019-05-16T15:01:26.905Z</time>
      </trkpt>
      <trkpt lat="39.060335" lon="-8.85633667">
        <ele>3.0</ele>
        <time>2019-05-16T15:01:27.905Z</time>
      </trkpt>
      <trkpt lat="39.06026167" lon="-8.85625">
        <ele>3.0</ele>
        <time>2019-05-16T15:01:28.935Z</time>
      </trkpt>
      <trkpt lat="39.06026167" lon="-8.85625">
        <ele>3.0</ele>
        <time>2019-05-16T15:01:29.917Z</time>
      </trkpt>
      <trkpt lat="39.06019" lon="-8.85616333">
        <ele>3.0</ele>
        <time>2019-05-16T15:01:30.901Z</time>
      </trkpt>
      <trkpt lat="39.06019" lon="-8.85616333">
        <ele>3.0</ele>
        <time>2019-05-16T15:01:31.927Z</time>
      </trkpt>
      <trkpt lat="39.06011833" lon="-8.85607833">
        <ele>3.0</ele>
        <time>2019-05-16T15:01:32.905Z</time>
      </trkpt>
      <trkpt lat="39.06011833" lon="-8.85607833">
        <ele>3.0</ele>
        <time>2019-05-16T15:01:33.917Z</time>
      </trkpt>
      <trkpt lat="39.06005167" lon="-8.85599167">
        <ele>3.0</ele>
        <time>2019-05-16T15:01:34.936Z</time>
      </trkpt>
      <trkpt lat="39.06005167" lon="-8.85599167">
        <ele>3.0</ele>
        <time>2019-05-16T15:01:35.923Z</time>
      </trkpt>
      <trkpt lat="39.05998333" lon="-8.85590333">
        <ele>3.0</ele>
        <time>2019-05-16T15:01:36.902Z</time>
      </trkpt>
      <trkpt lat="39.05998333" lon="-8.85590333">
        <ele>3.0</ele>
        <time>2019-05-16T15:01:37.933Z</time>
      </trkpt>
      <trkpt lat="39.059915" lon="-8.85582">
        <ele>3.0</ele>
        <time>2019-05-16T15:01:38.910Z</time>
      </trkpt>
      <trkpt lat="39.059915" lon="-8.85582">
        <ele>3.0</ele>
        <time>2019-05-16T15:01:39.931Z</time>
      </trkpt>
      <trkpt lat="39.05984667" lon="-8.85573833">
        <ele>3.0</ele>
        <time>2019-05-16T15:01:40.922Z</time>
      </trkpt>
      <trkpt lat="39.05984667" lon="-8.85573833">
        <ele>3.0</ele>
        <time>2019-05-16T15:01:41.898Z</time>
      </trkpt>
      <trkpt lat="39.05978" lon="-8.85566">
        <ele>3.0</ele>
        <time>2019-05-16T15:01:42.911Z</time>
      </trkpt>
      <trkpt lat="39.05978" lon="-8.85566">
        <ele>3.0</ele>
        <time>2019-05-16T15:01:43.897Z</time>
      </trkpt>
      <trkpt lat="39.05971667" lon="-8.85558167">
        <ele>3.0</ele>
        <time>2019-05-16T15:01:44.915Z</time>
      </trkpt>
      <trkpt lat="39.05971667" lon="-8.85558167">
        <ele>3.0</ele>
        <time>2019-05-16T15:01:45.914Z</time>
      </trkpt>
      <trkpt lat="39.05965667" lon="-8.85550833">
        <ele>3.0</ele>
        <time>2019-05-16T15:01:46.897Z</time>
      </trkpt>
      <trkpt lat="39.05965667" lon="-8.85550833">
        <ele>3.0</ele>
        <time>2019-05-16T15:01:47.930Z</time>
      </trkpt>
      <trkpt lat="39.05959667" lon="-8.855435">
        <ele>3.0</ele>
        <time>2019-05-16T15:01:48.903Z</time>
      </trkpt>
      <trkpt lat="39.05959667" lon="-8.855435">
        <ele>3.0</ele>
        <time>2019-05-16T15:01:49.908Z</time>
      </trkpt>
      <trkpt lat="39.059535" lon="-8.85536333">
        <ele>3.0</ele>
        <time>2019-05-16T15:01:50.937Z</time>
      </trkpt>
      <trkpt lat="39.059535" lon="-8.85536333">
        <ele>3.0</ele>
        <time>2019-05-16T15:01:51.923Z</time>
      </trkpt>
      <trkpt lat="39.05947167" lon="-8.855285">
        <ele>3.0</ele>
        <time>2019-05-16T15:01:52.912Z</time>
      </trkpt>
      <trkpt lat="39.05944" lon="-8.85524667">
        <ele>4.0</ele>
        <time>2019-05-16T15:01:53.901Z</time>
      </trkpt>
      <trkpt lat="39.05944" lon="-8.85524667">
        <ele>4.0</ele>
        <time>2019-05-16T15:01:54.904Z</time>
      </trkpt>
      <trkpt lat="39.059375" lon="-8.855165">
        <ele>4.0</ele>
        <time>2019-05-16T15:01:55.921Z</time>
      </trkpt>
      <trkpt lat="39.05934167" lon="-8.855125">
        <ele>4.0</ele>
        <time>2019-05-16T15:01:56.912Z</time>
      </trkpt>
      <trkpt lat="39.05934167" lon="-8.855125">
        <ele>4.0</ele>
        <time>2019-05-16T15:01:57.903Z</time>
      </trkpt>
      <trkpt lat="39.05927667" lon="-8.855045">
        <ele>5.0</ele>
        <time>2019-05-16T15:01:58.925Z</time>
      </trkpt>
      <trkpt lat="39.05927667" lon="-8.855045">
        <ele>5.0</ele>
        <time>2019-05-16T15:01:59.903Z</time>
      </trkpt>
      <trkpt lat="39.05921" lon="-8.854965">
        <ele>5.0</ele>
        <time>2019-05-16T15:02:00.941Z</time>
      </trkpt>
      <trkpt lat="39.05921" lon="-8.854965">
        <ele>5.0</ele>
        <time>2019-05-16T15:02:01.913Z</time>
      </trkpt>
      <trkpt lat="39.05914333" lon="-8.85488333">
        <ele>5.0</ele>
        <time>2019-05-16T15:02:02.938Z</time>
      </trkpt>
      <trkpt lat="39.05914333" lon="-8.85488333">
        <ele>5.0</ele>
        <time>2019-05-16T15:02:03.913Z</time>
      </trkpt>
      <trkpt lat="39.059075" lon="-8.85480167">
        <ele>5.0</ele>
        <time>2019-05-16T15:02:04.919Z</time>
      </trkpt>
      <trkpt lat="39.059075" lon="-8.85480167">
        <ele>5.0</ele>
        <time>2019-05-16T15:02:05.901Z</time>
      </trkpt>
      <trkpt lat="39.059015" lon="-8.85473">
        <ele>6.0</ele>
        <time>2019-05-16T15:02:06.924Z</time>
      </trkpt>
      <trkpt lat="39.058985" lon="-8.85469667">
        <ele>6.0</ele>
        <time>2019-05-16T15:02:07.909Z</time>
      </trkpt>
      <trkpt lat="39.05895833" lon="-8.85466333">
        <ele>6.0</ele>
        <time>2019-05-16T15:02:08.918Z</time>
      </trkpt>
      <trkpt lat="39.05895833" lon="-8.85466333">
        <ele>6.0</ele>
        <time>2019-05-16T15:02:09.903Z</time>
      </trkpt>
      <trkpt lat="39.05890167" lon="-8.85459833">
        <ele>6.0</ele>
        <time>2019-05-16T15:02:10.936Z</time>
      </trkpt>
      <trkpt lat="39.05890167" lon="-8.85459833">
        <ele>6.0</ele>
        <time>2019-05-16T15:02:11.899Z</time>
      </trkpt>
      <trkpt lat="39.05884667" lon="-8.854535">
        <ele>6.0</ele>
        <time>2019-05-16T15:02:12.901Z</time>
      </trkpt>
      <trkpt lat="39.05882" lon="-8.85450167">
        <ele>6.0</ele>
        <time>2019-05-16T15:02:13.935Z</time>
      </trkpt>
      <trkpt lat="39.05879167" lon="-8.85447">
        <ele>6.0</ele>
        <time>2019-05-16T15:02:14.930Z</time>
      </trkpt>
      <trkpt lat="39.05879167" lon="-8.85447">
        <ele>6.0</ele>
        <time>2019-05-16T15:02:15.930Z</time>
      </trkpt>
      <trkpt lat="39.058735" lon="-8.85440333">
        <ele>6.0</ele>
        <time>2019-05-16T15:02:16.912Z</time>
      </trkpt>
      <trkpt lat="39.058735" lon="-8.85440333">
        <ele>6.0</ele>
        <time>2019-05-16T15:02:17.913Z</time>
      </trkpt>
      <trkpt lat="39.058675" lon="-8.854335">
        <ele>6.0</ele>
        <time>2019-05-16T15:02:18.939Z</time>
      </trkpt>
      <trkpt lat="39.058675" lon="-8.854335">
        <ele>6.0</ele>
        <time>2019-05-16T15:02:19.925Z</time>
      </trkpt>
      <trkpt lat="39.05861333" lon="-8.85426333">
        <ele>5.0</ele>
        <time>2019-05-16T15:02:20.902Z</time>
      </trkpt>
      <trkpt lat="39.05861333" lon="-8.85426333">
        <ele>5.0</ele>
        <time>2019-05-16T15:02:21.932Z</time>
      </trkpt>
      <trkpt lat="39.058555" lon="-8.85419">
        <ele>5.0</ele>
        <time>2019-05-16T15:02:22.914Z</time>
      </trkpt>
      <trkpt lat="39.058555" lon="-8.85419">
        <ele>5.0</ele>
        <time>2019-05-16T15:02:23.903Z</time>
      </trkpt>
      <trkpt lat="39.05850333" lon="-8.85411667">
        <ele>5.0</ele>
        <time>2019-05-16T15:02:24.922Z</time>
      </trkpt>
      <trkpt lat="39.05850333" lon="-8.85411667">
        <ele>5.0</ele>
        <time>2019-05-16T15:02:25.900Z</time>
      </trkpt>
      <trkpt lat="39.05844667" lon="-8.85405167">
        <ele>4.0</ele>
        <time>2019-05-16T15:02:26.916Z</time>
      </trkpt>
      <trkpt lat="39.05844667" lon="-8.85405167">
        <ele>4.0</ele>
        <time>2019-05-16T15:02:27.898Z</time>
      </trkpt>
      <trkpt lat="39.05838333" lon="-8.85398">
        <ele>4.0</ele>
        <time>2019-05-16T15:02:28.931Z</time>
      </trkpt>
      <trkpt lat="39.05838333" lon="-8.85398">
        <ele>4.0</ele>
        <time>2019-05-16T15:02:29.917Z</time>
      </trkpt>
      <trkpt lat="39.05834333" lon="-8.85391333">
        <ele>4.0</ele>
        <time>2019-05-16T15:02:30.932Z</time>
      </trkpt>
      <trkpt lat="39.05834333" lon="-8.85391333">
        <ele>4.0</ele>
        <time>2019-05-16T15:02:31.914Z</time>
      </trkpt>
      <trkpt lat="39.058345" lon="-8.85385833">
        <ele>4.0</ele>
        <time>2019-05-16T15:02:32.899Z</time>
      </trkpt>
      <trkpt lat="39.058345" lon="-8.85385833">
        <ele>4.0</ele>
        <time>2019-05-16T15:02:33.901Z</time>
      </trkpt>
      <trkpt lat="39.05835833" lon="-8.85383">
        <ele>4.0</ele>
        <time>2019-05-16T15:02:34.924Z</time>
      </trkpt>
      <trkpt lat="39.05835833" lon="-8.85383">
        <ele>4.0</ele>
        <time>2019-05-16T15:02:35.899Z</time>
      </trkpt>
      <trkpt lat="39.05836333" lon="-8.85381167">
        <ele>3.0</ele>
        <time>2019-05-16T15:02:36.923Z</time>
      </trkpt>
      <trkpt lat="39.05836333" lon="-8.85381167">
        <ele>3.0</ele>
        <time>2019-05-16T15:02:37.898Z</time>
      </trkpt>
      <trkpt lat="39.05838167" lon="-8.85380167">
        <ele>3.0</ele>
        <time>2019-05-16T15:02:38.921Z</time>
      </trkpt>
      <trkpt lat="39.05838167" lon="-8.85380167">
        <ele>3.0</ele>
        <time>2019-05-16T15:02:39.906Z</time>
      </trkpt>
      <trkpt lat="39.05838333" lon="-8.853805">
        <ele>3.0</ele>
        <time>2019-05-16T15:02:40.913Z</time>
      </trkpt>
      <trkpt lat="39.05838333" lon="-8.853805">
        <ele>3.0</ele>
        <time>2019-05-16T15:02:41.920Z</time>
      </trkpt>
      <trkpt lat="39.05839833" lon="-8.85380333">
        <ele>3.0</ele>
        <time>2019-05-16T15:02:42.928Z</time>
      </trkpt>
      <trkpt lat="39.05839833" lon="-8.85380333">
        <ele>3.0</ele>
        <time>2019-05-16T15:02:43.923Z</time>
      </trkpt>
      <trkpt lat="39.05843" lon="-8.85381167">
        <ele>3.0</ele>
        <time>2019-05-16T15:02:44.930Z</time>
      </trkpt>
      <trkpt lat="39.05843" lon="-8.85381167">
        <ele>3.0</ele>
        <time>2019-05-16T15:02:45.920Z</time>
      </trkpt>
      <trkpt lat="39.058445" lon="-8.85383333">
        <ele>2.0</ele>
        <time>2019-05-16T15:02:46.928Z</time>
      </trkpt>
      <trkpt lat="39.058445" lon="-8.85383333">
        <ele>2.0</ele>
        <time>2019-05-16T15:02:47.919Z</time>
      </trkpt>
      <trkpt lat="39.058445" lon="-8.853835">
        <ele>2.0</ele>
        <time>2019-05-16T15:02:48.914Z</time>
      </trkpt>
      <trkpt lat="39.058445" lon="-8.853835">
        <ele>2.0</ele>
        <time>2019-05-16T15:02:49.917Z</time>
      </trkpt>
      <trkpt lat="39.05844667" lon="-8.853835">
        <ele>2.0</ele>
        <time>2019-05-16T15:02:50.924Z</time>
      </trkpt>
      <trkpt lat="39.05846333" lon="-8.85385167">
        <ele>2.0</ele>
        <time>2019-05-16T15:02:51.930Z</time>
      </trkpt>
      <trkpt lat="39.05846333" lon="-8.85385167">
        <ele>2.0</ele>
        <time>2019-05-16T15:02:52.917Z</time>
      </trkpt>
      <trkpt lat="39.05851" lon="-8.853895">
        <ele>1.0</ele>
        <time>2019-05-16T15:02:53.917Z</time>
      </trkpt>
      <trkpt lat="39.05851" lon="-8.853895">
        <ele>1.0</ele>
        <time>2019-05-16T15:02:54.903Z</time>
      </trkpt>
      <trkpt lat="39.05856" lon="-8.85395333">
        <ele>1.0</ele>
        <time>2019-05-16T15:02:55.924Z</time>
      </trkpt>
      <trkpt lat="39.05858667" lon="-8.85397833">
        <ele>1.0</ele>
        <time>2019-05-16T15:02:56.909Z</time>
      </trkpt>
      <trkpt lat="39.05858667" lon="-8.85397833">
        <ele>1.0</ele>
        <time>2019-05-16T15:02:57.912Z</time>
      </trkpt>
      <trkpt lat="39.05864333" lon="-8.85399333">
        <ele>1.0</ele>
        <time>2019-05-16T15:02:58.930Z</time>
      </trkpt>
      <trkpt lat="39.05864333" lon="-8.85399333">
        <ele>1.0</ele>
        <time>2019-05-16T15:02:59.923Z</time>
      </trkpt>
      <trkpt lat="39.05869333" lon="-8.85397667">
        <ele>1.0</ele>
        <time>2019-05-16T15:03:00.912Z</time>
      </trkpt>
      <trkpt lat="39.05869333" lon="-8.85397667">
        <ele>1.0</ele>
        <time>2019-05-16T15:03:01.902Z</time>
      </trkpt>
      <trkpt lat="39.05872667" lon="-8.85394667">
        <ele>1.0</ele>
        <time>2019-05-16T15:03:02.916Z</time>
      </trkpt>
      <trkpt lat="39.05872667" lon="-8.85394667">
        <ele>1.0</ele>
        <time>2019-05-16T15:03:03.933Z</time>
      </trkpt>
      <trkpt lat="39.058745" lon="-8.85392833">
        <ele>1.0</ele>
        <time>2019-05-16T15:03:04.921Z</time>
      </trkpt>
      <trkpt lat="39.058745" lon="-8.85392833">
        <ele>1.0</ele>
        <time>2019-05-16T15:03:05.902Z</time>
      </trkpt>
      <trkpt lat="39.05874" lon="-8.85393667">
        <ele>1.0</ele>
        <time>2019-05-16T15:03:06.922Z</time>
      </trkpt>
      <trkpt lat="39.05874" lon="-8.85393667">
        <ele>1.0</ele>
        <time>2019-05-16T15:03:07.902Z</time>
      </trkpt>
      <trkpt lat="39.05873333" lon="-8.85394833">
        <ele>0.0</ele>
        <time>2019-05-16T15:03:08.908Z</time>
      </trkpt>
      <trkpt lat="39.05873333" lon="-8.85394833">
        <ele>0.0</ele>
        <time>2019-05-16T15:03:09.914Z</time>
      </trkpt>
      <trkpt lat="39.05872833" lon="-8.85396333">
        <ele>0.0</ele>
        <time>2019-05-16T15:03:10.920Z</time>
      </trkpt>
      <trkpt lat="39.05872833" lon="-8.85396333">
        <ele>0.0</ele>
        <time>2019-05-16T15:03:11.898Z</time>
      </trkpt>
      <trkpt lat="39.05872167" lon="-8.85397167">
        <ele>0.0</ele>
        <time>2019-05-16T15:03:12.928Z</time>
      </trkpt>
      <trkpt lat="39.05872167" lon="-8.85397167">
        <ele>0.0</ele>
        <time>2019-05-16T15:03:13.928Z</time>
      </trkpt>
      <trkpt lat="39.05872167" lon="-8.85397167">
        <ele>0.0</ele>
        <time>2019-05-16T15:03:14.926Z</time>
      </trkpt>
      <trkpt lat="39.05872167" lon="-8.85397333">
        <ele>0.0</ele>
        <time>2019-05-16T15:03:15.928Z</time>
      </trkpt>
      <trkpt lat="39.05872167" lon="-8.85397333">
        <ele>0.0</ele>
        <time>2019-05-16T15:03:16.923Z</time>
      </trkpt>
      <trkpt lat="39.05872167" lon="-8.85397333">
        <ele>0.0</ele>
        <time>2019-05-16T15:03:17.928Z</time>
      </trkpt>
      <trkpt lat="39.05872167" lon="-8.85397333">
        <ele>0.0</ele>
        <time>2019-05-16T15:03:18.923Z</time>
      </trkpt>
      <trkpt lat="39.058745" lon="-8.853935">
        <ele>0.0</ele>
        <time>2019-05-16T15:03:19.931Z</time>
      </trkpt>
      <trkpt lat="39.058745" lon="-8.853935">
        <ele>0.0</ele>
        <time>2019-05-16T15:03:20.902Z</time>
      </trkpt>
      <trkpt lat="39.05876833" lon="-8.853895">
        <ele>0.0</ele>
        <time>2019-05-16T15:03:21.915Z</time>
      </trkpt>
      <trkpt lat="39.05876833" lon="-8.853895">
        <ele>0.0</ele>
        <time>2019-05-16T15:03:22.922Z</time>
      </trkpt>
      <trkpt lat="39.05880333" lon="-8.85383333">
        <ele>0.0</ele>
        <time>2019-05-16T15:03:23.927Z</time>
      </trkpt>
      <trkpt lat="39.05880333" lon="-8.85383333">
        <ele>0.0</ele>
        <time>2019-05-16T15:03:24.923Z</time>
      </trkpt>
      <trkpt lat="39.05884" lon="-8.85375167">
        <ele>0.0</ele>
        <time>2019-05-16T15:03:25.898Z</time>
      </trkpt>
      <trkpt lat="39.05886333" lon="-8.85370333">
        <ele>0.0</ele>
        <time>2019-05-16T15:03:26.916Z</time>
      </trkpt>
      <trkpt lat="39.05886333" lon="-8.85370333">
        <ele>0.0</ele>
        <time>2019-05-16T15:03:27.903Z</time>
      </trkpt>
      <trkpt lat="39.05890667" lon="-8.853615">
        <ele>0.0</ele>
        <time>2019-05-16T15:03:28.901Z</time>
      </trkpt>
      <trkpt lat="39.05890667" lon="-8.853615">
        <ele>0.0</ele>
        <time>2019-05-16T15:03:29.912Z</time>
      </trkpt>
      <trkpt lat="39.05894833" lon="-8.85353">
        <ele>0.0</ele>
        <time>2019-05-16T15:03:30.897Z</time>
      </trkpt>
      <trkpt lat="39.05896833" lon="-8.85349167">
        <ele>0.0</ele>
        <time>2019-05-16T15:03:31.916Z</time>
      </trkpt>
      <trkpt lat="39.058985" lon="-8.85345333">
        <ele>0.0</ele>
        <time>2019-05-16T15:03:32.911Z</time>
      </trkpt>
      <trkpt lat="39.058985" lon="-8.85345333">
        <ele>0.0</ele>
        <time>2019-05-16T15:03:33.913Z</time>
      </trkpt>
      <trkpt lat="39.05902167" lon="-8.85337667">
        <ele>0.0</ele>
        <time>2019-05-16T15:03:34.936Z</time>
      </trkpt>
      <trkpt lat="39.05902167" lon="-8.85337667">
        <ele>0.0</ele>
        <time>2019-05-16T15:03:35.932Z</time>
      </trkpt>
      <trkpt lat="39.05905667" lon="-8.853295">
        <ele>-1.0</ele>
        <time>2019-05-16T15:03:36.921Z</time>
      </trkpt>
      <trkpt lat="39.05905667" lon="-8.853295">
        <ele>-1.0</ele>
        <time>2019-05-16T15:03:37.924Z</time>
      </trkpt>
      <trkpt lat="39.05909167" lon="-8.853215">
        <ele>-1.0</ele>
        <time>2019-05-16T15:03:38.903Z</time>
      </trkpt>
      <trkpt lat="39.05909167" lon="-8.853215">
        <ele>-1.0</ele>
        <time>2019-05-16T15:03:39.933Z</time>
      </trkpt>
      <trkpt lat="39.05912833" lon="-8.85313833">
        <ele>-1.0</ele>
        <time>2019-05-16T15:03:40.920Z</time>
      </trkpt>
      <trkpt lat="39.05912833" lon="-8.85313833">
        <ele>-1.0</ele>
        <time>2019-05-16T15:03:41.913Z</time>
      </trkpt>
      <trkpt lat="39.05916167" lon="-8.85305667">
        <ele>-1.0</ele>
        <time>2019-05-16T15:03:42.937Z</time>
      </trkpt>
      <trkpt lat="39.05916167" lon="-8.85305667">
        <ele>-1.0</ele>
        <time>2019-05-16T15:03:43.917Z</time>
      </trkpt>
      <trkpt lat="39.05919833" lon="-8.85297">
        <ele>0.0</ele>
        <time>2019-05-16T15:03:44.932Z</time>
      </trkpt>
      <trkpt lat="39.05919833" lon="-8.85297">
        <ele>0.0</ele>
        <time>2019-05-16T15:03:45.918Z</time>
      </trkpt>
      <trkpt lat="39.05923167" lon="-8.85288333">
        <ele>0.0</ele>
        <time>2019-05-16T15:03:46.939Z</time>
      </trkpt>
      <trkpt lat="39.05923167" lon="-8.85288333">
        <ele>0.0</ele>
        <time>2019-05-16T15:03:47.917Z</time>
      </trkpt>
      <trkpt lat="39.05926833" lon="-8.85279167">
        <ele>0.0</ele>
        <time>2019-05-16T15:03:48.901Z</time>
      </trkpt>
      <trkpt lat="39.05926833" lon="-8.85279167">
        <ele>0.0</ele>
        <time>2019-05-16T15:03:49.933Z</time>
      </trkpt>
      <trkpt lat="39.05930333" lon="-8.8527">
        <ele>0.0</ele>
        <time>2019-05-16T15:03:50.920Z</time>
      </trkpt>
      <trkpt lat="39.05930333" lon="-8.8527">
        <ele>0.0</ele>
        <time>2019-05-16T15:03:51.929Z</time>
      </trkpt>
      <trkpt lat="39.05934" lon="-8.85261167">
        <ele>0.0</ele>
        <time>2019-05-16T15:03:52.910Z</time>
      </trkpt>
      <trkpt lat="39.05934" lon="-8.85261167">
        <ele>0.0</ele>
        <time>2019-05-16T15:03:53.906Z</time>
      </trkpt>
      <trkpt lat="39.05937833" lon="-8.85251833">
        <ele>0.0</ele>
        <time>2019-05-16T15:03:54.933Z</time>
      </trkpt>
      <trkpt lat="39.05939667" lon="-8.852475">
        <ele>0.0</ele>
        <time>2019-05-16T15:03:55.900Z</time>
      </trkpt>
      <trkpt lat="39.05941667" lon="-8.85243167">
        <ele>0.0</ele>
        <time>2019-05-16T15:03:56.917Z</time>
      </trkpt>
      <trkpt lat="39.05941667" lon="-8.85243167">
        <ele>0.0</ele>
        <time>2019-05-16T15:03:57.916Z</time>
      </trkpt>
      <trkpt lat="39.05945833" lon="-8.85234833">
        <ele>0.0</ele>
        <time>2019-05-16T15:03:58.932Z</time>
      </trkpt>
      <trkpt lat="39.05945833" lon="-8.85234833">
        <ele>0.0</ele>
        <time>2019-05-16T15:03:59.919Z</time>
      </trkpt>
      <trkpt lat="39.0595" lon="-8.85226167">
        <ele>0.0</ele>
        <time>2019-05-16T15:04:00.921Z</time>
      </trkpt>
      <trkpt lat="39.0595" lon="-8.85226167">
        <ele>0.0</ele>
        <time>2019-05-16T15:04:01.924Z</time>
      </trkpt>
      <trkpt lat="39.05954" lon="-8.85217">
        <ele>1.0</ele>
        <time>2019-05-16T15:04:02.900Z</time>
      </trkpt>
      <trkpt lat="39.05954" lon="-8.85217">
        <ele>1.0</ele>
        <time>2019-05-16T15:04:03.915Z</time>
      </trkpt>
      <trkpt lat="39.05958" lon="-8.85208667">
        <ele>1.0</ele>
        <time>2019-05-16T15:04:04.935Z</time>
      </trkpt>
      <trkpt lat="39.05958" lon="-8.85208667">
        <ele>1.0</ele>
        <time>2019-05-16T15:04:05.919Z</time>
      </trkpt>
      <trkpt lat="39.05962667" lon="-8.85200833">
        <ele>0.0</ele>
        <time>2019-05-16T15:04:06.902Z</time>
      </trkpt>
      <trkpt lat="39.05962667" lon="-8.85200833">
        <ele>0.0</ele>
        <time>2019-05-16T15:04:07.903Z</time>
      </trkpt>
      <trkpt lat="39.059675" lon="-8.85193167">
        <ele>0.0</ele>
        <time>2019-05-16T15:04:08.921Z</time>
      </trkpt>
      <trkpt lat="39.059675" lon="-8.85193167">
        <ele>0.0</ele>
        <time>2019-05-16T15:04:09.924Z</time>
      </trkpt>
      <trkpt lat="39.05972167" lon="-8.85185833">
        <ele>-1.0</ele>
        <time>2019-05-16T15:04:10.904Z</time>
      </trkpt>
      <trkpt lat="39.05972167" lon="-8.85185833">
        <ele>-1.0</ele>
        <time>2019-05-16T15:04:11.922Z</time>
      </trkpt>
      <trkpt lat="39.05977" lon="-8.85177667">
        <ele>0.0</ele>
        <time>2019-05-16T15:04:12.927Z</time>
      </trkpt>
      <trkpt lat="39.05977" lon="-8.85177667">
        <ele>0.0</ele>
        <time>2019-05-16T15:04:13.898Z</time>
      </trkpt>
      <trkpt lat="39.05982167" lon="-8.851695">
        <ele>0.0</ele>
        <time>2019-05-16T15:04:14.897Z</time>
      </trkpt>
      <trkpt lat="39.05982167" lon="-8.851695">
        <ele>0.0</ele>
        <time>2019-05-16T15:04:15.900Z</time>
      </trkpt>
      <trkpt lat="39.059875" lon="-8.85161333">
        <ele>0.0</ele>
        <time>2019-05-16T15:04:16.921Z</time>
      </trkpt>
      <trkpt lat="39.059875" lon="-8.85161333">
        <ele>0.0</ele>
        <time>2019-05-16T15:04:17.933Z</time>
      </trkpt>
      <trkpt lat="39.05992667" lon="-8.85153">
        <ele>0.0</ele>
        <time>2019-05-16T15:04:18.903Z</time>
      </trkpt>
      <trkpt lat="39.05992667" lon="-8.85153">
        <ele>0.0</ele>
        <time>2019-05-16T15:04:19.921Z</time>
      </trkpt>
      <trkpt lat="39.05998" lon="-8.85144667">
        <ele>0.0</ele>
        <time>2019-05-16T15:04:20.900Z</time>
      </trkpt>
      <trkpt lat="39.05998" lon="-8.85144667">
        <ele>0.0</ele>
        <time>2019-05-16T15:04:21.907Z</time>
      </trkpt>
      <trkpt lat="39.06003167" lon="-8.85136333">
        <ele>0.0</ele>
        <time>2019-05-16T15:04:22.927Z</time>
      </trkpt>
      <trkpt lat="39.06003167" lon="-8.85136333">
        <ele>0.0</ele>
        <time>2019-05-16T15:04:23.920Z</time>
      </trkpt>
      <trkpt lat="39.06008167" lon="-8.85128333">
        <ele>0.0</ele>
        <time>2019-05-16T15:04:24.924Z</time>
      </trkpt>
      <trkpt lat="39.06008167" lon="-8.85128333">
        <ele>0.0</ele>
        <time>2019-05-16T15:04:25.909Z</time>
      </trkpt>
      <trkpt lat="39.06013167" lon="-8.851205">
        <ele>0.0</ele>
        <time>2019-05-16T15:04:26.899Z</time>
      </trkpt>
      <trkpt lat="39.06013167" lon="-8.851205">
        <ele>0.0</ele>
        <time>2019-05-16T15:04:27.899Z</time>
      </trkpt>
      <trkpt lat="39.06018" lon="-8.85112667">
        <ele>0.0</ele>
        <time>2019-05-16T15:04:28.922Z</time>
      </trkpt>
      <trkpt lat="39.06018" lon="-8.85112667">
        <ele>0.0</ele>
        <time>2019-05-16T15:04:29.903Z</time>
      </trkpt>
      <trkpt lat="39.06023" lon="-8.85105">
        <ele>0.0</ele>
        <time>2019-05-16T15:04:30.911Z</time>
      </trkpt>
      <trkpt lat="39.06023" lon="-8.85105">
        <ele>0.0</ele>
        <time>2019-05-16T15:04:31.917Z</time>
      </trkpt>
      <trkpt lat="39.06028167" lon="-8.85097333">
        <ele>0.0</ele>
        <time>2019-05-16T15:04:32.936Z</time>
      </trkpt>
      <trkpt lat="39.06028167" lon="-8.85097333">
        <ele>0.0</ele>
        <time>2019-05-16T15:04:33.918Z</time>
      </trkpt>
      <trkpt lat="39.06033333" lon="-8.85089333">
        <ele>0.0</ele>
        <time>2019-05-16T15:04:34.919Z</time>
      </trkpt>
      <trkpt lat="39.06033333" lon="-8.85089333">
        <ele>0.0</ele>
        <time>2019-05-16T15:04:35.927Z</time>
      </trkpt>
      <trkpt lat="39.06038333" lon="-8.85081333">
        <ele>0.0</ele>
        <time>2019-05-16T15:04:36.933Z</time>
      </trkpt>
      <trkpt lat="39.06038333" lon="-8.85081333">
        <ele>0.0</ele>
        <time>2019-05-16T15:04:37.904Z</time>
      </trkpt>
      <trkpt lat="39.06043333" lon="-8.850735">
        <ele>-1.0</ele>
        <time>2019-05-16T15:04:38.918Z</time>
      </trkpt>
      <trkpt lat="39.06043333" lon="-8.850735">
        <ele>-1.0</ele>
        <time>2019-05-16T15:04:39.899Z</time>
      </trkpt>
      <trkpt lat="39.06048167" lon="-8.85065667">
        <ele>-1.0</ele>
        <time>2019-05-16T15:04:40.928Z</time>
      </trkpt>
      <trkpt lat="39.06048167" lon="-8.85065667">
        <ele>-1.0</ele>
        <time>2019-05-16T15:04:41.908Z</time>
      </trkpt>
      <trkpt lat="39.06053" lon="-8.85058167">
        <ele>0.0</ele>
        <time>2019-05-16T15:04:42.898Z</time>
      </trkpt>
      <trkpt lat="39.06053" lon="-8.85058167">
        <ele>0.0</ele>
        <time>2019-05-16T15:04:43.934Z</time>
      </trkpt>
      <trkpt lat="39.06057667" lon="-8.85051">
        <ele>-1.0</ele>
        <time>2019-05-16T15:04:44.913Z</time>
      </trkpt>
      <trkpt lat="39.06057667" lon="-8.85051">
        <ele>-1.0</ele>
        <time>2019-05-16T15:04:45.917Z</time>
      </trkpt>
      <trkpt lat="39.06062" lon="-8.85044">
        <ele>-1.0</ele>
        <time>2019-05-16T15:04:46.899Z</time>
      </trkpt>
      <trkpt lat="39.06062" lon="-8.85044">
        <ele>-1.0</ele>
        <time>2019-05-16T15:04:47.935Z</time>
      </trkpt>
      <trkpt lat="39.06066333" lon="-8.85037167">
        <ele>-1.0</ele>
        <time>2019-05-16T15:04:48.907Z</time>
      </trkpt>
      <trkpt lat="39.06066333" lon="-8.85037167">
        <ele>-1.0</ele>
        <time>2019-05-16T15:04:49.929Z</time>
      </trkpt>
      <trkpt lat="39.060705" lon="-8.85030333">
        <ele>-1.0</ele>
        <time>2019-05-16T15:04:50.915Z</time>
      </trkpt>
      <trkpt lat="39.060705" lon="-8.85030333">
        <ele>-1.0</ele>
        <time>2019-05-16T15:04:51.932Z</time>
      </trkpt>
      <trkpt lat="39.06075" lon="-8.85023833">
        <ele>-1.0</ele>
        <time>2019-05-16T15:04:52.913Z</time>
      </trkpt>
      <trkpt lat="39.06075" lon="-8.85023833">
        <ele>-1.0</ele>
        <time>2019-05-16T15:04:53.933Z</time>
      </trkpt>
      <trkpt lat="39.06079" lon="-8.85017167">
        <ele>-1.0</ele>
        <time>2019-05-16T15:04:54.900Z</time>
      </trkpt>
      <trkpt lat="39.06079" lon="-8.85017167">
        <ele>-1.0</ele>
        <time>2019-05-16T15:04:55.919Z</time>
      </trkpt>
      <trkpt lat="39.06083167" lon="-8.85010667">
        <ele>-1.0</ele>
        <time>2019-05-16T15:04:56.907Z</time>
      </trkpt>
      <trkpt lat="39.06083167" lon="-8.85010667">
        <ele>-1.0</ele>
        <time>2019-05-16T15:04:57.923Z</time>
      </trkpt>
      <trkpt lat="39.060875" lon="-8.850045">
        <ele>-1.0</ele>
        <time>2019-05-16T15:04:58.900Z</time>
      </trkpt>
      <trkpt lat="39.060875" lon="-8.850045">
        <ele>-1.0</ele>
        <time>2019-05-16T15:04:59.914Z</time>
      </trkpt>
      <trkpt lat="39.060915" lon="-8.84998667">
        <ele>-1.0</ele>
        <time>2019-05-16T15:05:00.897Z</time>
      </trkpt>
      <trkpt lat="39.060915" lon="-8.84998667">
        <ele>-1.0</ele>
        <time>2019-05-16T15:05:01.923Z</time>
      </trkpt>
      <trkpt lat="39.06095667" lon="-8.84993">
        <ele>-1.0</ele>
        <time>2019-05-16T15:05:02.921Z</time>
      </trkpt>
      <trkpt lat="39.06095667" lon="-8.84993">
        <ele>-1.0</ele>
        <time>2019-05-16T15:05:03.903Z</time>
      </trkpt>
      <trkpt lat="39.06099667" lon="-8.84987333">
        <ele>-1.0</ele>
        <time>2019-05-16T15:05:04.919Z</time>
      </trkpt>
      <trkpt lat="39.06099667" lon="-8.84987333">
        <ele>-1.0</ele>
        <time>2019-05-16T15:05:05.912Z</time>
      </trkpt>
      <trkpt lat="39.061035" lon="-8.84981333">
        <ele>-1.0</ele>
        <time>2019-05-16T15:05:06.900Z</time>
      </trkpt>
      <trkpt lat="39.061035" lon="-8.84981333">
        <ele>-1.0</ele>
        <time>2019-05-16T15:05:07.901Z</time>
      </trkpt>
      <trkpt lat="39.06107833" lon="-8.84975667">
        <ele>-1.0</ele>
        <time>2019-05-16T15:05:08.919Z</time>
      </trkpt>
      <trkpt lat="39.06107833" lon="-8.84975667">
        <ele>-1.0</ele>
        <time>2019-05-16T15:05:09.919Z</time>
      </trkpt>
      <trkpt lat="39.06111833" lon="-8.8497">
        <ele>-1.0</ele>
        <time>2019-05-16T15:05:10.901Z</time>
      </trkpt>
      <trkpt lat="39.06111833" lon="-8.8497">
        <ele>-1.0</ele>
        <time>2019-05-16T15:05:11.922Z</time>
      </trkpt>
      <trkpt lat="39.06115833" lon="-8.84963667">
        <ele>-1.0</ele>
        <time>2019-05-16T15:05:12.899Z</time>
      </trkpt>
      <trkpt lat="39.06115833" lon="-8.84963667">
        <ele>-1.0</ele>
        <time>2019-05-16T15:05:13.923Z</time>
      </trkpt>
      <trkpt lat="39.0612" lon="-8.84957667">
        <ele>-1.0</ele>
        <time>2019-05-16T15:05:14.907Z</time>
      </trkpt>
      <trkpt lat="39.0612" lon="-8.84957667">
        <ele>-1.0</ele>
        <time>2019-05-16T15:05:15.903Z</time>
      </trkpt>
      <trkpt lat="39.061245" lon="-8.84951833">
        <ele>-1.0</ele>
        <time>2019-05-16T15:05:16.920Z</time>
      </trkpt>
      <trkpt lat="39.061245" lon="-8.84951833">
        <ele>-1.0</ele>
        <time>2019-05-16T15:05:17.908Z</time>
      </trkpt>
      <trkpt lat="39.06128833" lon="-8.84946">
        <ele>-1.0</ele>
        <time>2019-05-16T15:05:18.902Z</time>
      </trkpt>
      <trkpt lat="39.06128833" lon="-8.84946">
        <ele>-1.0</ele>
        <time>2019-05-16T15:05:19.897Z</time>
      </trkpt>
      <trkpt lat="39.061335" lon="-8.84939667">
        <ele>-1.0</ele>
        <time>2019-05-16T15:05:20.953Z</time>
      </trkpt>
      <trkpt lat="39.061335" lon="-8.84939667">
        <ele>-1.0</ele>
        <time>2019-05-16T15:05:21.904Z</time>
      </trkpt>
      <trkpt lat="39.06138333" lon="-8.84933167">
        <ele>-1.0</ele>
        <time>2019-05-16T15:05:22.934Z</time>
      </trkpt>
      <trkpt lat="39.06138333" lon="-8.84933167">
        <ele>-1.0</ele>
        <time>2019-05-16T15:05:23.905Z</time>
      </trkpt>
      <trkpt lat="39.061435" lon="-8.84927">
        <ele>-1.0</ele>
        <time>2019-05-16T15:05:24.897Z</time>
      </trkpt>
      <trkpt lat="39.061435" lon="-8.84927">
        <ele>-1.0</ele>
        <time>2019-05-16T15:05:25.932Z</time>
      </trkpt>
      <trkpt lat="39.06148333" lon="-8.84921">
        <ele>-2.0</ele>
        <time>2019-05-16T15:05:26.921Z</time>
      </trkpt>
      <trkpt lat="39.06148333" lon="-8.84921">
        <ele>-2.0</ele>
        <time>2019-05-16T15:05:27.904Z</time>
      </trkpt>
      <trkpt lat="39.06153333" lon="-8.849145">
        <ele>-2.0</ele>
        <time>2019-05-16T15:05:28.900Z</time>
      </trkpt>
      <trkpt lat="39.06153333" lon="-8.849145">
        <ele>-2.0</ele>
        <time>2019-05-16T15:05:29.933Z</time>
      </trkpt>
      <trkpt lat="39.06158167" lon="-8.849075">
        <ele>-2.0</ele>
        <time>2019-05-16T15:05:30.942Z</time>
      </trkpt>
      <trkpt lat="39.06158167" lon="-8.849075">
        <ele>-2.0</ele>
        <time>2019-05-16T15:05:31.899Z</time>
      </trkpt>
      <trkpt lat="39.06163333" lon="-8.84900167">
        <ele>-1.0</ele>
        <time>2019-05-16T15:05:32.933Z</time>
      </trkpt>
      <trkpt lat="39.06163333" lon="-8.84900167">
        <ele>-1.0</ele>
        <time>2019-05-16T15:05:33.916Z</time>
      </trkpt>
      <trkpt lat="39.06168833" lon="-8.84892833">
        <ele>-2.0</ele>
        <time>2019-05-16T15:05:34.932Z</time>
      </trkpt>
      <trkpt lat="39.06168833" lon="-8.84892833">
        <ele>-2.0</ele>
        <time>2019-05-16T15:05:35.911Z</time>
      </trkpt>
      <trkpt lat="39.06173667" lon="-8.84885">
        <ele>-2.0</ele>
        <time>2019-05-16T15:05:36.929Z</time>
      </trkpt>
      <trkpt lat="39.06173667" lon="-8.84885">
        <ele>-2.0</ele>
        <time>2019-05-16T15:05:37.918Z</time>
      </trkpt>
      <trkpt lat="39.06178833" lon="-8.84877">
        <ele>-2.0</ele>
        <time>2019-05-16T15:05:38.933Z</time>
      </trkpt>
      <trkpt lat="39.06178833" lon="-8.84877">
        <ele>-2.0</ele>
        <time>2019-05-16T15:05:39.923Z</time>
      </trkpt>
      <trkpt lat="39.06184667" lon="-8.84870667">
        <ele>-2.0</ele>
        <time>2019-05-16T15:05:40.911Z</time>
      </trkpt>
      <trkpt lat="39.06184667" lon="-8.84870667">
        <ele>-2.0</ele>
        <time>2019-05-16T15:05:41.920Z</time>
      </trkpt>
      <trkpt lat="39.06191" lon="-8.84866833">
        <ele>-2.0</ele>
        <time>2019-05-16T15:05:42.913Z</time>
      </trkpt>
      <trkpt lat="39.06191" lon="-8.84866833">
        <ele>-2.0</ele>
        <time>2019-05-16T15:05:43.930Z</time>
      </trkpt>
      <trkpt lat="39.06197" lon="-8.848635">
        <ele>-2.0</ele>
        <time>2019-05-16T15:05:44.907Z</time>
      </trkpt>
      <trkpt lat="39.06197" lon="-8.848635">
        <ele>-2.0</ele>
        <time>2019-05-16T15:05:45.929Z</time>
      </trkpt>
      <trkpt lat="39.062025" lon="-8.84858">
        <ele>-2.0</ele>
        <time>2019-05-16T15:05:46.911Z</time>
      </trkpt>
      <trkpt lat="39.062025" lon="-8.84858">
        <ele>-2.0</ele>
        <time>2019-05-16T15:05:47.926Z</time>
      </trkpt>
      <trkpt lat="39.06207667" lon="-8.84851667">
        <ele>-2.0</ele>
        <time>2019-05-16T15:05:48.903Z</time>
      </trkpt>
      <trkpt lat="39.06207667" lon="-8.84851667">
        <ele>-2.0</ele>
        <time>2019-05-16T15:05:49.923Z</time>
      </trkpt>
      <trkpt lat="39.06212667" lon="-8.848455">
        <ele>-2.0</ele>
        <time>2019-05-16T15:05:50.940Z</time>
      </trkpt>
      <trkpt lat="39.06212667" lon="-8.848455">
        <ele>-2.0</ele>
        <time>2019-05-16T15:05:51.913Z</time>
      </trkpt>
      <trkpt lat="39.06217167" lon="-8.84839167">
        <ele>-2.0</ele>
        <time>2019-05-16T15:05:52.918Z</time>
      </trkpt>
      <trkpt lat="39.06217167" lon="-8.84839167">
        <ele>-2.0</ele>
        <time>2019-05-16T15:05:53.903Z</time>
      </trkpt>
      <trkpt lat="39.06221667" lon="-8.84833">
        <ele>-2.0</ele>
        <time>2019-05-16T15:05:54.920Z</time>
      </trkpt>
      <trkpt lat="39.06221667" lon="-8.84833">
        <ele>-2.0</ele>
        <time>2019-05-16T15:05:55.926Z</time>
      </trkpt>
      <trkpt lat="39.06226333" lon="-8.848265">
        <ele>-2.0</ele>
        <time>2019-05-16T15:05:56.909Z</time>
      </trkpt>
      <trkpt lat="39.06226333" lon="-8.848265">
        <ele>-2.0</ele>
        <time>2019-05-16T15:05:57.932Z</time>
      </trkpt>
      <trkpt lat="39.06231333" lon="-8.84820167">
        <ele>-2.0</ele>
        <time>2019-05-16T15:05:58.907Z</time>
      </trkpt>
      <trkpt lat="39.06231333" lon="-8.84820167">
        <ele>-2.0</ele>
        <time>2019-05-16T15:05:59.908Z</time>
      </trkpt>
      <trkpt lat="39.062365" lon="-8.84814667">
        <ele>-2.0</ele>
        <time>2019-05-16T15:06:00.899Z</time>
      </trkpt>
      <trkpt lat="39.062365" lon="-8.84814667">
        <ele>-2.0</ele>
        <time>2019-05-16T15:06:01.923Z</time>
      </trkpt>
      <trkpt lat="39.06241167" lon="-8.84808">
        <ele>-2.0</ele>
        <time>2019-05-16T15:06:02.903Z</time>
      </trkpt>
      <trkpt lat="39.06241167" lon="-8.84808">
        <ele>-2.0</ele>
        <time>2019-05-16T15:06:03.922Z</time>
      </trkpt>
      <trkpt lat="39.06246167" lon="-8.84801833">
        <ele>-2.0</ele>
        <time>2019-05-16T15:06:04.914Z</time>
      </trkpt>
      <trkpt lat="39.06246167" lon="-8.84801833">
        <ele>-2.0</ele>
        <time>2019-05-16T15:06:05.923Z</time>
      </trkpt>
      <trkpt lat="39.06251" lon="-8.84795667">
        <ele>-2.0</ele>
        <time>2019-05-16T15:06:06.902Z</time>
      </trkpt>
      <trkpt lat="39.06251" lon="-8.84795667">
        <ele>-2.0</ele>
        <time>2019-05-16T15:06:07.897Z</time>
      </trkpt>
      <trkpt lat="39.06255833" lon="-8.847895">
        <ele>-2.0</ele>
        <time>2019-05-16T15:06:08.903Z</time>
      </trkpt>
      <trkpt lat="39.06255833" lon="-8.847895">
        <ele>-2.0</ele>
        <time>2019-05-16T15:06:09.933Z</time>
      </trkpt>
      <trkpt lat="39.06260667" lon="-8.84783333">
        <ele>-2.0</ele>
        <time>2019-05-16T15:06:10.920Z</time>
      </trkpt>
      <trkpt lat="39.06260667" lon="-8.84783333">
        <ele>-2.0</ele>
        <time>2019-05-16T15:06:11.910Z</time>
      </trkpt>
      <trkpt lat="39.06265167" lon="-8.847775">
        <ele>-2.0</ele>
        <time>2019-05-16T15:06:12.899Z</time>
      </trkpt>
      <trkpt lat="39.06265167" lon="-8.847775">
        <ele>-2.0</ele>
        <time>2019-05-16T15:06:13.931Z</time>
      </trkpt>
      <trkpt lat="39.06269667" lon="-8.84771333">
        <ele>-2.0</ele>
        <time>2019-05-16T15:06:14.941Z</time>
      </trkpt>
      <trkpt lat="39.06269667" lon="-8.84771333">
        <ele>-2.0</ele>
        <time>2019-05-16T15:06:15.918Z</time>
      </trkpt>
      <trkpt lat="39.06273833" lon="-8.847655">
        <ele>-2.0</ele>
        <time>2019-05-16T15:06:16.904Z</time>
      </trkpt>
      <trkpt lat="39.06273833" lon="-8.847655">
        <ele>-2.0</ele>
        <time>2019-05-16T15:06:17.922Z</time>
      </trkpt>
      <trkpt lat="39.06278333" lon="-8.84759667">
        <ele>-2.0</ele>
        <time>2019-05-16T15:06:18.915Z</time>
      </trkpt>
      <trkpt lat="39.06278333" lon="-8.84759667">
        <ele>-2.0</ele>
        <time>2019-05-16T15:06:19.907Z</time>
      </trkpt>
      <trkpt lat="39.06283167" lon="-8.84753667">
        <ele>-3.0</ele>
        <time>2019-05-16T15:06:20.972Z</time>
      </trkpt>
      <trkpt lat="39.06283167" lon="-8.84753667">
        <ele>-3.0</ele>
        <time>2019-05-16T15:06:21.923Z</time>
      </trkpt>
      <trkpt lat="39.06288333" lon="-8.84747667">
        <ele>-3.0</ele>
        <time>2019-05-16T15:06:22.906Z</time>
      </trkpt>
      <trkpt lat="39.06288333" lon="-8.84747667">
        <ele>-3.0</ele>
        <time>2019-05-16T15:06:23.897Z</time>
      </trkpt>
      <trkpt lat="39.06293333" lon="-8.84741667">
        <ele>-3.0</ele>
        <time>2019-05-16T15:06:24.927Z</time>
      </trkpt>
      <trkpt lat="39.06293333" lon="-8.84741667">
        <ele>-3.0</ele>
        <time>2019-05-16T15:06:25.916Z</time>
      </trkpt>
      <trkpt lat="39.06298333" lon="-8.84735333">
        <ele>-3.0</ele>
        <time>2019-05-16T15:06:26.908Z</time>
      </trkpt>
      <trkpt lat="39.06298333" lon="-8.84735333">
        <ele>-3.0</ele>
        <time>2019-05-16T15:06:27.903Z</time>
      </trkpt>
      <trkpt lat="39.06303333" lon="-8.84729167">
        <ele>-3.0</ele>
        <time>2019-05-16T15:06:28.925Z</time>
      </trkpt>
      <trkpt lat="39.06303333" lon="-8.84729167">
        <ele>-3.0</ele>
        <time>2019-05-16T15:06:29.928Z</time>
      </trkpt>
      <trkpt lat="39.06307833" lon="-8.84722833">
        <ele>-2.0</ele>
        <time>2019-05-16T15:06:30.911Z</time>
      </trkpt>
      <trkpt lat="39.06307833" lon="-8.84722833">
        <ele>-2.0</ele>
        <time>2019-05-16T15:06:31.927Z</time>
      </trkpt>
      <trkpt lat="39.063125" lon="-8.84717333">
        <ele>-2.0</ele>
        <time>2019-05-16T15:06:32.902Z</time>
      </trkpt>
      <trkpt lat="39.063125" lon="-8.84717333">
        <ele>-2.0</ele>
        <time>2019-05-16T15:06:33.922Z</time>
      </trkpt>
      <trkpt lat="39.06316833" lon="-8.84712">
        <ele>-2.0</ele>
        <time>2019-05-16T15:06:34.899Z</time>
      </trkpt>
      <trkpt lat="39.06316833" lon="-8.84712">
        <ele>-2.0</ele>
        <time>2019-05-16T15:06:35.904Z</time>
      </trkpt>
      <trkpt lat="39.06321167" lon="-8.84706">
        <ele>-2.0</ele>
        <time>2019-05-16T15:06:36.935Z</time>
      </trkpt>
      <trkpt lat="39.06321167" lon="-8.84706">
        <ele>-2.0</ele>
        <time>2019-05-16T15:06:37.934Z</time>
      </trkpt>
      <trkpt lat="39.063255" lon="-8.84700167">
        <ele>-2.0</ele>
        <time>2019-05-16T15:06:38.922Z</time>
      </trkpt>
      <trkpt lat="39.063255" lon="-8.84700167">
        <ele>-2.0</ele>
        <time>2019-05-16T15:06:39.902Z</time>
      </trkpt>
      <trkpt lat="39.0633" lon="-8.84694333">
        <ele>-2.0</ele>
        <time>2019-05-16T15:06:40.921Z</time>
      </trkpt>
      <trkpt lat="39.0633" lon="-8.84694333">
        <ele>-2.0</ele>
        <time>2019-05-16T15:06:41.916Z</time>
      </trkpt>
      <trkpt lat="39.06334167" lon="-8.84687833">
        <ele>-2.0</ele>
        <time>2019-05-16T15:06:42.921Z</time>
      </trkpt>
      <trkpt lat="39.06334167" lon="-8.84687833">
        <ele>-2.0</ele>
        <time>2019-05-16T15:06:43.903Z</time>
      </trkpt>
      <trkpt lat="39.063385" lon="-8.846815">
        <ele>-2.0</ele>
        <time>2019-05-16T15:06:44.932Z</time>
      </trkpt>
      <trkpt lat="39.063385" lon="-8.846815">
        <ele>-2.0</ele>
        <time>2019-05-16T15:06:45.909Z</time>
      </trkpt>
      <trkpt lat="39.06343" lon="-8.84674833">
        <ele>-2.0</ele>
        <time>2019-05-16T15:06:46.926Z</time>
      </trkpt>
      <trkpt lat="39.06343" lon="-8.84674833">
        <ele>-2.0</ele>
        <time>2019-05-16T15:06:47.918Z</time>
      </trkpt>
      <trkpt lat="39.063475" lon="-8.84668167">
        <ele>-2.0</ele>
        <time>2019-05-16T15:06:48.912Z</time>
      </trkpt>
      <trkpt lat="39.06349833" lon="-8.84665">
        <ele>-2.0</ele>
        <time>2019-05-16T15:06:49.930Z</time>
      </trkpt>
      <trkpt lat="39.06349833" lon="-8.84665">
        <ele>-2.0</ele>
        <time>2019-05-16T15:06:50.914Z</time>
      </trkpt>
      <trkpt lat="39.063545" lon="-8.84657833">
        <ele>-2.0</ele>
        <time>2019-05-16T15:06:51.902Z</time>
      </trkpt>
      <trkpt lat="39.06356667" lon="-8.846545">
        <ele>-2.0</ele>
        <time>2019-05-16T15:06:52.924Z</time>
      </trkpt>
      <trkpt lat="39.06356667" lon="-8.846545">
        <ele>-2.0</ele>
        <time>2019-05-16T15:06:53.918Z</time>
      </trkpt>
      <trkpt lat="39.06360833" lon="-8.84648333">
        <ele>-2.0</ele>
        <time>2019-05-16T15:06:54.907Z</time>
      </trkpt>
      <trkpt lat="39.06363" lon="-8.84645167">
        <ele>-2.0</ele>
        <time>2019-05-16T15:06:55.904Z</time>
      </trkpt>
      <trkpt lat="39.06365333" lon="-8.84642">
        <ele>-2.0</ele>
        <time>2019-05-16T15:06:56.938Z</time>
      </trkpt>
      <trkpt lat="39.06365333" lon="-8.84642">
        <ele>-2.0</ele>
        <time>2019-05-16T15:06:57.927Z</time>
      </trkpt>
      <trkpt lat="39.06369667" lon="-8.84635">
        <ele>-3.0</ele>
        <time>2019-05-16T15:06:58.913Z</time>
      </trkpt>
      <trkpt lat="39.06369667" lon="-8.84635">
        <ele>-3.0</ele>
        <time>2019-05-16T15:06:59.934Z</time>
      </trkpt>
      <trkpt lat="39.06374" lon="-8.84628167">
        <ele>-2.0</ele>
        <time>2019-05-16T15:07:00.913Z</time>
      </trkpt>
      <trkpt lat="39.06374" lon="-8.84628167">
        <ele>-2.0</ele>
        <time>2019-05-16T15:07:01.933Z</time>
      </trkpt>
      <trkpt lat="39.063785" lon="-8.84621333">
        <ele>-2.0</ele>
        <time>2019-05-16T15:07:02.929Z</time>
      </trkpt>
      <trkpt lat="39.063785" lon="-8.84621333">
        <ele>-2.0</ele>
        <time>2019-05-16T15:07:03.921Z</time>
      </trkpt>
      <trkpt lat="39.06382833" lon="-8.84613667">
        <ele>-2.0</ele>
        <time>2019-05-16T15:07:04.901Z</time>
      </trkpt>
      <trkpt lat="39.06382833" lon="-8.84613667">
        <ele>-2.0</ele>
        <time>2019-05-16T15:07:05.923Z</time>
      </trkpt>
      <trkpt lat="39.06387" lon="-8.846065">
        <ele>-1.0</ele>
        <time>2019-05-16T15:07:06.901Z</time>
      </trkpt>
      <trkpt lat="39.06387" lon="-8.846065">
        <ele>-1.0</ele>
        <time>2019-05-16T15:07:07.923Z</time>
      </trkpt>
      <trkpt lat="39.06391333" lon="-8.84599167">
        <ele>-1.0</ele>
        <time>2019-05-16T15:07:08.900Z</time>
      </trkpt>
      <trkpt lat="39.06391333" lon="-8.84599167">
        <ele>-1.0</ele>
        <time>2019-05-16T15:07:09.934Z</time>
      </trkpt>
      <trkpt lat="39.063955" lon="-8.84592">
        <ele>-1.0</ele>
        <time>2019-05-16T15:07:10.905Z</time>
      </trkpt>
      <trkpt lat="39.063955" lon="-8.84592">
        <ele>-1.0</ele>
        <time>2019-05-16T15:07:11.931Z</time>
      </trkpt>
      <trkpt lat="39.063995" lon="-8.84584833">
        <ele>-1.0</ele>
        <time>2019-05-16T15:07:12.921Z</time>
      </trkpt>
      <trkpt lat="39.063995" lon="-8.84584833">
        <ele>-1.0</ele>
        <time>2019-05-16T15:07:13.933Z</time>
      </trkpt>
      <trkpt lat="39.064035" lon="-8.84577667">
        <ele>-1.0</ele>
        <time>2019-05-16T15:07:14.912Z</time>
      </trkpt>
      <trkpt lat="39.064035" lon="-8.84577667">
        <ele>-1.0</ele>
        <time>2019-05-16T15:07:15.901Z</time>
      </trkpt>
      <trkpt lat="39.06407667" lon="-8.84570333">
        <ele>-1.0</ele>
        <time>2019-05-16T15:07:16.900Z</time>
      </trkpt>
      <trkpt lat="39.06407667" lon="-8.84570333">
        <ele>-1.0</ele>
        <time>2019-05-16T15:07:17.897Z</time>
      </trkpt>
      <trkpt lat="39.06412" lon="-8.845625">
        <ele>-1.0</ele>
        <time>2019-05-16T15:07:18.914Z</time>
      </trkpt>
      <trkpt lat="39.06412" lon="-8.845625">
        <ele>-1.0</ele>
        <time>2019-05-16T15:07:19.903Z</time>
      </trkpt>
      <trkpt lat="39.06416667" lon="-8.84554833">
        <ele>-1.0</ele>
        <time>2019-05-16T15:07:20.931Z</time>
      </trkpt>
      <trkpt lat="39.06416667" lon="-8.84554833">
        <ele>-1.0</ele>
        <time>2019-05-16T15:07:21.918Z</time>
      </trkpt>
      <trkpt lat="39.06421167" lon="-8.845465">
        <ele>-1.0</ele>
        <time>2019-05-16T15:07:22.935Z</time>
      </trkpt>
      <trkpt lat="39.06421167" lon="-8.845465">
        <ele>-1.0</ele>
        <time>2019-05-16T15:07:23.902Z</time>
      </trkpt>
      <trkpt lat="39.06425833" lon="-8.84538167">
        <ele>-1.0</ele>
        <time>2019-05-16T15:07:24.903Z</time>
      </trkpt>
      <trkpt lat="39.06425833" lon="-8.84538167">
        <ele>-1.0</ele>
        <time>2019-05-16T15:07:25.918Z</time>
      </trkpt>
      <trkpt lat="39.064305" lon="-8.84529833">
        <ele>-1.0</ele>
        <time>2019-05-16T15:07:26.901Z</time>
      </trkpt>
      <trkpt lat="39.064305" lon="-8.84529833">
        <ele>-1.0</ele>
        <time>2019-05-16T15:07:27.933Z</time>
      </trkpt>
      <trkpt lat="39.06435" lon="-8.84521333">
        <ele>-1.0</ele>
        <time>2019-05-16T15:07:28.911Z</time>
      </trkpt>
      <trkpt lat="39.06435" lon="-8.84521333">
        <ele>-1.0</ele>
        <time>2019-05-16T15:07:29.900Z</time>
      </trkpt>
      <trkpt lat="39.06439333" lon="-8.84513">
        <ele>-1.0</ele>
        <time>2019-05-16T15:07:30.928Z</time>
      </trkpt>
      <trkpt lat="39.06439333" lon="-8.84513">
        <ele>-1.0</ele>
        <time>2019-05-16T15:07:31.923Z</time>
      </trkpt>
      <trkpt lat="39.06443" lon="-8.84504667">
        <ele>-1.0</ele>
        <time>2019-05-16T15:07:32.901Z</time>
      </trkpt>
      <trkpt lat="39.06443" lon="-8.84504667">
        <ele>-1.0</ele>
        <time>2019-05-16T15:07:33.923Z</time>
      </trkpt>
      <trkpt lat="39.06447333" lon="-8.84496333">
        <ele>-1.0</ele>
        <time>2019-05-16T15:07:34.900Z</time>
      </trkpt>
      <trkpt lat="39.06447333" lon="-8.84496333">
        <ele>-1.0</ele>
        <time>2019-05-16T15:07:35.930Z</time>
      </trkpt>
      <trkpt lat="39.06451333" lon="-8.84488">
        <ele>-1.0</ele>
        <time>2019-05-16T15:07:36.902Z</time>
      </trkpt>
      <trkpt lat="39.06451333" lon="-8.84488">
        <ele>-1.0</ele>
        <time>2019-05-16T15:07:37.936Z</time>
      </trkpt>
      <trkpt lat="39.06455" lon="-8.8448">
        <ele>-1.0</ele>
        <time>2019-05-16T15:07:38.920Z</time>
      </trkpt>
      <trkpt lat="39.06455" lon="-8.8448">
        <ele>-1.0</ele>
        <time>2019-05-16T15:07:39.929Z</time>
      </trkpt>
      <trkpt lat="39.06459167" lon="-8.84471667">
        <ele>-1.0</ele>
        <time>2019-05-16T15:07:40.920Z</time>
      </trkpt>
      <trkpt lat="39.06461333" lon="-8.844675">
        <ele>-1.0</ele>
        <time>2019-05-16T15:07:41.924Z</time>
      </trkpt>
      <trkpt lat="39.06461333" lon="-8.844675">
        <ele>-1.0</ele>
        <time>2019-05-16T15:07:42.903Z</time>
      </trkpt>
      <trkpt lat="39.06465167" lon="-8.84459167">
        <ele>-1.0</ele>
        <time>2019-05-16T15:07:43.927Z</time>
      </trkpt>
      <trkpt lat="39.06467167" lon="-8.84455167">
        <ele>-1.0</ele>
        <time>2019-05-16T15:07:44.912Z</time>
      </trkpt>
      <trkpt lat="39.06467167" lon="-8.84455167">
        <ele>-1.0</ele>
        <time>2019-05-16T15:07:45.933Z</time>
      </trkpt>
      <trkpt lat="39.06471167" lon="-8.84447">
        <ele>-1.0</ele>
        <time>2019-05-16T15:07:46.914Z</time>
      </trkpt>
      <trkpt lat="39.06471167" lon="-8.84447">
        <ele>-1.0</ele>
        <time>2019-05-16T15:07:47.904Z</time>
      </trkpt>
      <trkpt lat="39.06475167" lon="-8.84439">
        <ele>-1.0</ele>
        <time>2019-05-16T15:07:48.922Z</time>
      </trkpt>
      <trkpt lat="39.06475167" lon="-8.84439">
        <ele>-1.0</ele>
        <time>2019-05-16T15:07:49.916Z</time>
      </trkpt>
      <trkpt lat="39.06479" lon="-8.84430667">
        <ele>-1.0</ele>
        <time>2019-05-16T15:07:50.935Z</time>
      </trkpt>
      <trkpt lat="39.06479" lon="-8.84430667">
        <ele>-1.0</ele>
        <time>2019-05-16T15:07:51.906Z</time>
      </trkpt>
      <trkpt lat="39.06482833" lon="-8.84422333">
        <ele>-1.0</ele>
        <time>2019-05-16T15:07:52.931Z</time>
      </trkpt>
      <trkpt lat="39.06482833" lon="-8.84422333">
        <ele>-1.0</ele>
        <time>2019-05-16T15:07:53.909Z</time>
      </trkpt>
      <trkpt lat="39.06486667" lon="-8.844145">
        <ele>-1.0</ele>
        <time>2019-05-16T15:07:54.937Z</time>
      </trkpt>
      <trkpt lat="39.06486667" lon="-8.844145">
        <ele>-1.0</ele>
        <time>2019-05-16T15:07:55.921Z</time>
      </trkpt>
      <trkpt lat="39.06490167" lon="-8.84406667">
        <ele>-1.0</ele>
        <time>2019-05-16T15:07:56.904Z</time>
      </trkpt>
      <trkpt lat="39.06490167" lon="-8.84406667">
        <ele>-1.0</ele>
        <time>2019-05-16T15:07:57.933Z</time>
      </trkpt>
      <trkpt lat="39.06493833" lon="-8.84398333">
        <ele>-1.0</ele>
        <time>2019-05-16T15:07:58.911Z</time>
      </trkpt>
      <trkpt lat="39.06493833" lon="-8.84398333">
        <ele>-1.0</ele>
        <time>2019-05-16T15:07:59.929Z</time>
      </trkpt>
      <trkpt lat="39.06497833" lon="-8.84390667">
        <ele>-1.0</ele>
        <time>2019-05-16T15:08:00.911Z</time>
      </trkpt>
      <trkpt lat="39.06499833" lon="-8.84387">
        <ele>-1.0</ele>
        <time>2019-05-16T15:08:01.914Z</time>
      </trkpt>
      <trkpt lat="39.06502" lon="-8.843835">
        <ele>-1.0</ele>
        <time>2019-05-16T15:08:02.931Z</time>
      </trkpt>
      <trkpt lat="39.06502" lon="-8.843835">
        <ele>-1.0</ele>
        <time>2019-05-16T15:08:03.916Z</time>
      </trkpt>
      <trkpt lat="39.065065" lon="-8.84377">
        <ele>-1.0</ele>
        <time>2019-05-16T15:08:04.904Z</time>
      </trkpt>
      <trkpt lat="39.065065" lon="-8.84377">
        <ele>-1.0</ele>
        <time>2019-05-16T15:08:05.918Z</time>
      </trkpt>
      <trkpt lat="39.06511667" lon="-8.84371667">
        <ele>-1.0</ele>
        <time>2019-05-16T15:08:06.939Z</time>
      </trkpt>
      <trkpt lat="39.06511667" lon="-8.84371667">
        <ele>-1.0</ele>
        <time>2019-05-16T15:08:07.907Z</time>
      </trkpt>
      <trkpt lat="39.06516833" lon="-8.84368167">
        <ele>-1.0</ele>
        <time>2019-05-16T15:08:08.929Z</time>
      </trkpt>
      <trkpt lat="39.06516833" lon="-8.84368167">
        <ele>-1.0</ele>
        <time>2019-05-16T15:08:09.902Z</time>
      </trkpt>
      <trkpt lat="39.06521667" lon="-8.84365333">
        <ele>-1.0</ele>
        <time>2019-05-16T15:08:10.919Z</time>
      </trkpt>
      <trkpt lat="39.06521667" lon="-8.84365333">
        <ele>-1.0</ele>
        <time>2019-05-16T15:08:11.923Z</time>
      </trkpt>
      <trkpt lat="39.06525833" lon="-8.84361333">
        <ele>-1.0</ele>
        <time>2019-05-16T15:08:12.926Z</time>
      </trkpt>
      <trkpt lat="39.06525833" lon="-8.84361333">
        <ele>-1.0</ele>
        <time>2019-05-16T15:08:13.913Z</time>
      </trkpt>
      <trkpt lat="39.06529333" lon="-8.84355333">
        <ele>-1.0</ele>
        <time>2019-05-16T15:08:14.937Z</time>
      </trkpt>
      <trkpt lat="39.06529333" lon="-8.84355333">
        <ele>-1.0</ele>
        <time>2019-05-16T15:08:15.920Z</time>
      </trkpt>
      <trkpt lat="39.06532333" lon="-8.84348167">
        <ele>-1.0</ele>
        <time>2019-05-16T15:08:16.909Z</time>
      </trkpt>
      <trkpt lat="39.06532333" lon="-8.84348167">
        <ele>-1.0</ele>
        <time>2019-05-16T15:08:17.916Z</time>
      </trkpt>
      <trkpt lat="39.065355" lon="-8.84339667">
        <ele>-2.0</ele>
        <time>2019-05-16T15:08:18.900Z</time>
      </trkpt>
      <trkpt lat="39.065355" lon="-8.84339667">
        <ele>-2.0</ele>
        <time>2019-05-16T15:08:19.933Z</time>
      </trkpt>
      <trkpt lat="39.06536833" lon="-8.84329333">
        <ele>-2.0</ele>
        <time>2019-05-16T15:08:20.961Z</time>
      </trkpt>
      <trkpt lat="39.06536833" lon="-8.84329333">
        <ele>-2.0</ele>
        <time>2019-05-16T15:08:21.918Z</time>
      </trkpt>
      <trkpt lat="39.06536" lon="-8.8432">
        <ele>-2.0</ele>
        <time>2019-05-16T15:08:22.911Z</time>
      </trkpt>
      <trkpt lat="39.06536" lon="-8.8432">
        <ele>-2.0</ele>
        <time>2019-05-16T15:08:23.897Z</time>
      </trkpt>
      <trkpt lat="39.06535167" lon="-8.843115">
        <ele>-3.0</ele>
        <time>2019-05-16T15:08:24.931Z</time>
      </trkpt>
      <trkpt lat="39.06535167" lon="-8.843115">
        <ele>-3.0</ele>
        <time>2019-05-16T15:08:25.915Z</time>
      </trkpt>
      <trkpt lat="39.06534833" lon="-8.84304">
        <ele>-2.0</ele>
        <time>2019-05-16T15:08:26.903Z</time>
      </trkpt>
      <trkpt lat="39.06534833" lon="-8.84304">
        <ele>-2.0</ele>
        <time>2019-05-16T15:08:27.907Z</time>
      </trkpt>
      <trkpt lat="39.065345" lon="-8.84297167">
        <ele>-3.0</ele>
        <time>2019-05-16T15:08:28.917Z</time>
      </trkpt>
      <trkpt lat="39.065345" lon="-8.84297167">
        <ele>-3.0</ele>
        <time>2019-05-16T15:08:29.912Z</time>
      </trkpt>
      <trkpt lat="39.06533833" lon="-8.84289833">
        <ele>-3.0</ele>
        <time>2019-05-16T15:08:30.936Z</time>
      </trkpt>
      <trkpt lat="39.06533833" lon="-8.84289833">
        <ele>-3.0</ele>
        <time>2019-05-16T15:08:31.933Z</time>
      </trkpt>
      <trkpt lat="39.06533667" lon="-8.84282333">
        <ele>-3.0</ele>
        <time>2019-05-16T15:08:32.916Z</time>
      </trkpt>
      <trkpt lat="39.06533667" lon="-8.84282333">
        <ele>-3.0</ele>
        <time>2019-05-16T15:08:33.920Z</time>
      </trkpt>
      <trkpt lat="39.065335" lon="-8.84274333">
        <ele>-3.0</ele>
        <time>2019-05-16T15:08:34.899Z</time>
      </trkpt>
      <trkpt lat="39.065335" lon="-8.84274333">
        <ele>-3.0</ele>
        <time>2019-05-16T15:08:35.905Z</time>
      </trkpt>
      <trkpt lat="39.065335" lon="-8.84266167">
        <ele>-3.0</ele>
        <time>2019-05-16T15:08:36.931Z</time>
      </trkpt>
      <trkpt lat="39.065335" lon="-8.84266167">
        <ele>-3.0</ele>
        <time>2019-05-16T15:08:37.931Z</time>
      </trkpt>
      <trkpt lat="39.06533667" lon="-8.84257667">
        <ele>-3.0</ele>
        <time>2019-05-16T15:08:38.918Z</time>
      </trkpt>
      <trkpt lat="39.06533667" lon="-8.84257667">
        <ele>-3.0</ele>
        <time>2019-05-16T15:08:39.912Z</time>
      </trkpt>
      <trkpt lat="39.065335" lon="-8.84249">
        <ele>-3.0</ele>
        <time>2019-05-16T15:08:40.941Z</time>
      </trkpt>
      <trkpt lat="39.065335" lon="-8.84249">
        <ele>-3.0</ele>
        <time>2019-05-16T15:08:41.920Z</time>
      </trkpt>
      <trkpt lat="39.06533833" lon="-8.84240333">
        <ele>-3.0</ele>
        <time>2019-05-16T15:08:42.899Z</time>
      </trkpt>
      <trkpt lat="39.06534" lon="-8.84235667">
        <ele>-3.0</ele>
        <time>2019-05-16T15:08:43.913Z</time>
      </trkpt>
      <trkpt lat="39.06534" lon="-8.84235667">
        <ele>-3.0</ele>
        <time>2019-05-16T15:08:44.903Z</time>
      </trkpt>
      <trkpt lat="39.06534167" lon="-8.84226167">
        <ele>-2.0</ele>
        <time>2019-05-16T15:08:45.923Z</time>
      </trkpt>
      <trkpt lat="39.06534167" lon="-8.84226167">
        <ele>-2.0</ele>
        <time>2019-05-16T15:08:46.932Z</time>
      </trkpt>
      <trkpt lat="39.06534167" lon="-8.84216333">
        <ele>-2.0</ele>
        <time>2019-05-16T15:08:47.911Z</time>
      </trkpt>
      <trkpt lat="39.06534167" lon="-8.84216333">
        <ele>-2.0</ele>
        <time>2019-05-16T15:08:48.920Z</time>
      </trkpt>
      <trkpt lat="39.06533833" lon="-8.84206667">
        <ele>-2.0</ele>
        <time>2019-05-16T15:08:49.919Z</time>
      </trkpt>
      <trkpt lat="39.06533667" lon="-8.84201667">
        <ele>-2.0</ele>
        <time>2019-05-16T15:08:50.912Z</time>
      </trkpt>
      <trkpt lat="39.06533667" lon="-8.84201667">
        <ele>-2.0</ele>
        <time>2019-05-16T15:08:51.933Z</time>
      </trkpt>
      <trkpt lat="39.06533167" lon="-8.84192">
        <ele>-2.0</ele>
        <time>2019-05-16T15:08:52.914Z</time>
      </trkpt>
      <trkpt lat="39.06533167" lon="-8.84192">
        <ele>-2.0</ele>
        <time>2019-05-16T15:08:53.933Z</time>
      </trkpt>
      <trkpt lat="39.06532" lon="-8.84182333">
        <ele>-2.0</ele>
        <time>2019-05-16T15:08:54.914Z</time>
      </trkpt>
      <trkpt lat="39.06532" lon="-8.84182333">
        <ele>-2.0</ele>
        <time>2019-05-16T15:08:55.933Z</time>
      </trkpt>
      <trkpt lat="39.06531333" lon="-8.84173">
        <ele>-2.0</ele>
        <time>2019-05-16T15:08:56.912Z</time>
      </trkpt>
      <trkpt lat="39.06531333" lon="-8.84173">
        <ele>-2.0</ele>
        <time>2019-05-16T15:08:57.932Z</time>
      </trkpt>
      <trkpt lat="39.06529833" lon="-8.84164667">
        <ele>-2.0</ele>
        <time>2019-05-16T15:08:58.911Z</time>
      </trkpt>
      <trkpt lat="39.06529833" lon="-8.84164667">
        <ele>-2.0</ele>
        <time>2019-05-16T15:08:59.903Z</time>
      </trkpt>
      <trkpt lat="39.06528167" lon="-8.84156833">
        <ele>-2.0</ele>
        <time>2019-05-16T15:09:00.918Z</time>
      </trkpt>
      <trkpt lat="39.06528167" lon="-8.84156833">
        <ele>-2.0</ele>
        <time>2019-05-16T15:09:01.932Z</time>
      </trkpt>
      <trkpt lat="39.06527167" lon="-8.84148667">
        <ele>-1.0</ele>
        <time>2019-05-16T15:09:02.915Z</time>
      </trkpt>
      <trkpt lat="39.06527167" lon="-8.84148667">
        <ele>-1.0</ele>
        <time>2019-05-16T15:09:03.903Z</time>
      </trkpt>
      <trkpt lat="39.06525833" lon="-8.84140167">
        <ele>-1.0</ele>
        <time>2019-05-16T15:09:04.921Z</time>
      </trkpt>
      <trkpt lat="39.06525833" lon="-8.84140167">
        <ele>-1.0</ele>
        <time>2019-05-16T15:09:05.930Z</time>
      </trkpt>
      <trkpt lat="39.065235" lon="-8.84132">
        <ele>-1.0</ele>
        <time>2019-05-16T15:09:06.911Z</time>
      </trkpt>
      <trkpt lat="39.06522167" lon="-8.84128">
        <ele>-1.0</ele>
        <time>2019-05-16T15:09:07.927Z</time>
      </trkpt>
      <trkpt lat="39.06520667" lon="-8.84124">
        <ele>-1.0</ele>
        <time>2019-05-16T15:09:08.897Z</time>
      </trkpt>
      <trkpt lat="39.06520667" lon="-8.84124">
        <ele>-1.0</ele>
        <time>2019-05-16T15:09:09.899Z</time>
      </trkpt>
      <trkpt lat="39.06518167" lon="-8.84116">
        <ele>-1.0</ele>
        <time>2019-05-16T15:09:10.918Z</time>
      </trkpt>
      <trkpt lat="39.06518167" lon="-8.84116">
        <ele>-1.0</ele>
        <time>2019-05-16T15:09:11.902Z</time>
      </trkpt>
      <trkpt lat="39.06515667" lon="-8.84107833">
        <ele>-1.0</ele>
        <time>2019-05-16T15:09:12.922Z</time>
      </trkpt>
      <trkpt lat="39.06514667" lon="-8.841035">
        <ele>-1.0</ele>
        <time>2019-05-16T15:09:13.911Z</time>
      </trkpt>
      <trkpt lat="39.06513667" lon="-8.84099167">
        <ele>-1.0</ele>
        <time>2019-05-16T15:09:14.915Z</time>
      </trkpt>
      <trkpt lat="39.06513667" lon="-8.84099167">
        <ele>-1.0</ele>
        <time>2019-05-16T15:09:15.897Z</time>
      </trkpt>
      <trkpt lat="39.06511333" lon="-8.840905">
        <ele>-1.0</ele>
        <time>2019-05-16T15:09:16.912Z</time>
      </trkpt>
      <trkpt lat="39.06511333" lon="-8.840905">
        <ele>-1.0</ele>
        <time>2019-05-16T15:09:17.897Z</time>
      </trkpt>
      <trkpt lat="39.065085" lon="-8.84082">
        <ele>-1.0</ele>
        <time>2019-05-16T15:09:18.912Z</time>
      </trkpt>
      <trkpt lat="39.065085" lon="-8.84082">
        <ele>-1.0</ele>
        <time>2019-05-16T15:09:19.908Z</time>
      </trkpt>
      <trkpt lat="39.06505833" lon="-8.84072833">
        <ele>-1.0</ele>
        <time>2019-05-16T15:09:20.933Z</time>
      </trkpt>
      <trkpt lat="39.06505833" lon="-8.84072833">
        <ele>-1.0</ele>
        <time>2019-05-16T15:09:21.903Z</time>
      </trkpt>
      <trkpt lat="39.06503167" lon="-8.84063667">
        <ele>-2.0</ele>
        <time>2019-05-16T15:09:22.897Z</time>
      </trkpt>
      <trkpt lat="39.06503167" lon="-8.84063667">
        <ele>-2.0</ele>
        <time>2019-05-16T15:09:23.899Z</time>
      </trkpt>
      <trkpt lat="39.06499833" lon="-8.84055">
        <ele>-2.0</ele>
        <time>2019-05-16T15:09:24.922Z</time>
      </trkpt>
      <trkpt lat="39.06498333" lon="-8.84050667">
        <ele>-2.0</ele>
        <time>2019-05-16T15:09:25.923Z</time>
      </trkpt>
      <trkpt lat="39.064965" lon="-8.840465">
        <ele>-2.0</ele>
        <time>2019-05-16T15:09:26.908Z</time>
      </trkpt>
      <trkpt lat="39.064965" lon="-8.840465">
        <ele>-2.0</ele>
        <time>2019-05-16T15:09:27.919Z</time>
      </trkpt>
      <trkpt lat="39.064925" lon="-8.84038">
        <ele>-2.0</ele>
        <time>2019-05-16T15:09:28.901Z</time>
      </trkpt>
      <trkpt lat="39.064925" lon="-8.84038">
        <ele>-2.0</ele>
        <time>2019-05-16T15:09:29.903Z</time>
      </trkpt>
      <trkpt lat="39.06488833" lon="-8.84029333">
        <ele>-2.0</ele>
        <time>2019-05-16T15:09:30.921Z</time>
      </trkpt>
      <trkpt lat="39.06488833" lon="-8.84029333">
        <ele>-2.0</ele>
        <time>2019-05-16T15:09:31.898Z</time>
      </trkpt>
      <trkpt lat="39.06484833" lon="-8.840215">
        <ele>-2.0</ele>
        <time>2019-05-16T15:09:32.917Z</time>
      </trkpt>
      <trkpt lat="39.06484833" lon="-8.840215">
        <ele>-2.0</ele>
        <time>2019-05-16T15:09:33.921Z</time>
      </trkpt>
      <trkpt lat="39.06480833" lon="-8.84012833">
        <ele>-2.0</ele>
        <time>2019-05-16T15:09:34.937Z</time>
      </trkpt>
      <trkpt lat="39.06480833" lon="-8.84012833">
        <ele>-2.0</ele>
        <time>2019-05-16T15:09:35.908Z</time>
      </trkpt>
      <trkpt lat="39.06477667" lon="-8.840035">
        <ele>-1.0</ele>
        <time>2019-05-16T15:09:36.931Z</time>
      </trkpt>
      <trkpt lat="39.06475833" lon="-8.83999">
        <ele>-1.0</ele>
        <time>2019-05-16T15:09:37.925Z</time>
      </trkpt>
      <trkpt lat="39.06475833" lon="-8.83999">
        <ele>-1.0</ele>
        <time>2019-05-16T15:09:38.903Z</time>
      </trkpt>
      <trkpt lat="39.06472" lon="-8.83989833">
        <ele>-1.0</ele>
        <time>2019-05-16T15:09:39.929Z</time>
      </trkpt>
      <trkpt lat="39.0647" lon="-8.83985333">
        <ele>-1.0</ele>
        <time>2019-05-16T15:09:40.911Z</time>
      </trkpt>
      <trkpt lat="39.0647" lon="-8.83985333">
        <ele>-1.0</ele>
        <time>2019-05-16T15:09:41.933Z</time>
      </trkpt>
      <trkpt lat="39.06466" lon="-8.83976333">
        <ele>-1.0</ele>
        <time>2019-05-16T15:09:42.920Z</time>
      </trkpt>
      <trkpt lat="39.06464" lon="-8.83971833">
        <ele>-1.0</ele>
        <time>2019-05-16T15:09:43.921Z</time>
      </trkpt>
      <trkpt lat="39.06461833" lon="-8.83967333">
        <ele>-1.0</ele>
        <time>2019-05-16T15:09:44.906Z</time>
      </trkpt>
      <trkpt lat="39.06461833" lon="-8.83967333">
        <ele>-1.0</ele>
        <time>2019-05-16T15:09:45.916Z</time>
      </trkpt>
      <trkpt lat="39.064575" lon="-8.83958333">
        <ele>-1.0</ele>
        <time>2019-05-16T15:09:46.936Z</time>
      </trkpt>
      <trkpt lat="39.064575" lon="-8.83958333">
        <ele>-1.0</ele>
        <time>2019-05-16T15:09:47.908Z</time>
      </trkpt>
      <trkpt lat="39.06453333" lon="-8.83949333">
        <ele>-1.0</ele>
        <time>2019-05-16T15:09:48.905Z</time>
      </trkpt>
      <trkpt lat="39.06453333" lon="-8.83949333">
        <ele>-1.0</ele>
        <time>2019-05-16T15:09:49.900Z</time>
      </trkpt>
      <trkpt lat="39.06449667" lon="-8.83940167">
        <ele>-1.0</ele>
        <time>2019-05-16T15:09:50.909Z</time>
      </trkpt>
      <trkpt lat="39.06449667" lon="-8.83940167">
        <ele>-1.0</ele>
        <time>2019-05-16T15:09:51.919Z</time>
      </trkpt>
      <trkpt lat="39.06445667" lon="-8.83931333">
        <ele>-1.0</ele>
        <time>2019-05-16T15:09:52.899Z</time>
      </trkpt>
      <trkpt lat="39.06445667" lon="-8.83931333">
        <ele>-1.0</ele>
        <time>2019-05-16T15:09:53.903Z</time>
      </trkpt>
      <trkpt lat="39.06441333" lon="-8.839225">
        <ele>-1.0</ele>
        <time>2019-05-16T15:09:54.925Z</time>
      </trkpt>
      <trkpt lat="39.06441333" lon="-8.839225">
        <ele>-1.0</ele>
        <time>2019-05-16T15:09:55.903Z</time>
      </trkpt>
      <trkpt lat="39.06436833" lon="-8.83913333">
        <ele>-2.0</ele>
        <time>2019-05-16T15:09:56.925Z</time>
      </trkpt>
      <trkpt lat="39.06436833" lon="-8.83913333">
        <ele>-2.0</ele>
        <time>2019-05-16T15:09:57.933Z</time>
      </trkpt>
      <trkpt lat="39.06432333" lon="-8.839035">
        <ele>-2.0</ele>
        <time>2019-05-16T15:09:58.916Z</time>
      </trkpt>
      <trkpt lat="39.06432333" lon="-8.839035">
        <ele>-2.0</ele>
        <time>2019-05-16T15:09:59.933Z</time>
      </trkpt>
      <trkpt lat="39.06427667" lon="-8.83893667">
        <ele>-1.0</ele>
        <time>2019-05-16T15:10:00.910Z</time>
      </trkpt>
      <trkpt lat="39.06427667" lon="-8.83893667">
        <ele>-1.0</ele>
        <time>2019-05-16T15:10:01.898Z</time>
      </trkpt>
      <trkpt lat="39.06422833" lon="-8.83884167">
        <ele>-1.0</ele>
        <time>2019-05-16T15:10:02.915Z</time>
      </trkpt>
      <trkpt lat="39.06422833" lon="-8.83884167">
        <ele>-1.0</ele>
        <time>2019-05-16T15:10:03.933Z</time>
      </trkpt>
      <trkpt lat="39.06417667" lon="-8.83875333">
        <ele>-2.0</ele>
        <time>2019-05-16T15:10:04.914Z</time>
      </trkpt>
      <trkpt lat="39.06417667" lon="-8.83875333">
        <ele>-2.0</ele>
        <time>2019-05-16T15:10:05.916Z</time>
      </trkpt>
      <trkpt lat="39.06412333" lon="-8.83866333">
        <ele>-1.0</ele>
        <time>2019-05-16T15:10:06.903Z</time>
      </trkpt>
      <trkpt lat="39.06412333" lon="-8.83866333">
        <ele>-1.0</ele>
        <time>2019-05-16T15:10:07.931Z</time>
      </trkpt>
      <trkpt lat="39.06407" lon="-8.83857667">
        <ele>-1.0</ele>
        <time>2019-05-16T15:10:08.921Z</time>
      </trkpt>
      <trkpt lat="39.06407" lon="-8.83857667">
        <ele>-1.0</ele>
        <time>2019-05-16T15:10:09.917Z</time>
      </trkpt>
      <trkpt lat="39.06401" lon="-8.83849667">
        <ele>-1.0</ele>
        <time>2019-05-16T15:10:10.901Z</time>
      </trkpt>
      <trkpt lat="39.06401" lon="-8.83849667">
        <ele>-1.0</ele>
        <time>2019-05-16T15:10:11.907Z</time>
      </trkpt>
      <trkpt lat="39.06395" lon="-8.838415">
        <ele>-1.0</ele>
        <time>2019-05-16T15:10:12.933Z</time>
      </trkpt>
      <trkpt lat="39.06391833" lon="-8.838375">
        <ele>-1.0</ele>
        <time>2019-05-16T15:10:13.906Z</time>
      </trkpt>
      <trkpt lat="39.06391833" lon="-8.838375">
        <ele>-1.0</ele>
        <time>2019-05-16T15:10:14.920Z</time>
      </trkpt>
      <trkpt lat="39.063855" lon="-8.83829667">
        <ele>-1.0</ele>
        <time>2019-05-16T15:10:15.907Z</time>
      </trkpt>
      <trkpt lat="39.063855" lon="-8.83829667">
        <ele>-1.0</ele>
        <time>2019-05-16T15:10:16.908Z</time>
      </trkpt>
      <trkpt lat="39.06379333" lon="-8.83821833">
        <ele>-1.0</ele>
        <time>2019-05-16T15:10:17.929Z</time>
      </trkpt>
      <trkpt lat="39.06376" lon="-8.83818167">
        <ele>-1.0</ele>
        <time>2019-05-16T15:10:18.922Z</time>
      </trkpt>
      <trkpt lat="39.06376" lon="-8.83818167">
        <ele>-1.0</ele>
        <time>2019-05-16T15:10:19.900Z</time>
      </trkpt>
      <trkpt lat="39.063695" lon="-8.83810833">
        <ele>-1.0</ele>
        <time>2019-05-16T15:10:21.021Z</time>
      </trkpt>
      <trkpt lat="39.063695" lon="-8.83810833">
        <ele>-1.0</ele>
        <time>2019-05-16T15:10:21.930Z</time>
      </trkpt>
      <trkpt lat="39.06362833" lon="-8.83804">
        <ele>-1.0</ele>
        <time>2019-05-16T15:10:22.921Z</time>
      </trkpt>
      <trkpt lat="39.063595" lon="-8.838005">
        <ele>-1.0</ele>
        <time>2019-05-16T15:10:23.906Z</time>
      </trkpt>
      <trkpt lat="39.063595" lon="-8.838005">
        <ele>-1.0</ele>
        <time>2019-05-16T15:10:24.903Z</time>
      </trkpt>
      <trkpt lat="39.06353" lon="-8.83793833">
        <ele>-1.0</ele>
        <time>2019-05-16T15:10:25.922Z</time>
      </trkpt>
      <trkpt lat="39.06349833" lon="-8.83790667">
        <ele>-1.0</ele>
        <time>2019-05-16T15:10:26.912Z</time>
      </trkpt>
      <trkpt lat="39.06349833" lon="-8.83790667">
        <ele>-1.0</ele>
        <time>2019-05-16T15:10:27.923Z</time>
      </trkpt>
      <trkpt lat="39.06343667" lon="-8.83784333">
        <ele>-1.0</ele>
        <time>2019-05-16T15:10:28.902Z</time>
      </trkpt>
      <trkpt lat="39.06343667" lon="-8.83784333">
        <ele>-1.0</ele>
        <time>2019-05-16T15:10:29.923Z</time>
      </trkpt>
      <trkpt lat="39.063375" lon="-8.83778167">
        <ele>-2.0</ele>
        <time>2019-05-16T15:10:30.906Z</time>
      </trkpt>
      <trkpt lat="39.063375" lon="-8.83778167">
        <ele>-2.0</ele>
        <time>2019-05-16T15:10:31.916Z</time>
      </trkpt>
      <trkpt lat="39.06331167" lon="-8.83772333">
        <ele>-2.0</ele>
        <time>2019-05-16T15:10:32.901Z</time>
      </trkpt>
      <trkpt lat="39.06331167" lon="-8.83772333">
        <ele>-2.0</ele>
        <time>2019-05-16T15:10:33.903Z</time>
      </trkpt>
      <trkpt lat="39.06325" lon="-8.83766333">
        <ele>-2.0</ele>
        <time>2019-05-16T15:10:34.925Z</time>
      </trkpt>
      <trkpt lat="39.06325" lon="-8.83766333">
        <ele>-2.0</ele>
        <time>2019-05-16T15:10:35.914Z</time>
      </trkpt>
      <trkpt lat="39.06319" lon="-8.83759667">
        <ele>-2.0</ele>
        <time>2019-05-16T15:10:36.935Z</time>
      </trkpt>
      <trkpt lat="39.06316" lon="-8.837565">
        <ele>-2.0</ele>
        <time>2019-05-16T15:10:37.898Z</time>
      </trkpt>
      <trkpt lat="39.06313" lon="-8.83753167">
        <ele>-2.0</ele>
        <time>2019-05-16T15:10:38.938Z</time>
      </trkpt>
      <trkpt lat="39.06313" lon="-8.83753167">
        <ele>-2.0</ele>
        <time>2019-05-16T15:10:39.918Z</time>
      </trkpt>
      <trkpt lat="39.06307" lon="-8.837465">
        <ele>-2.0</ele>
        <time>2019-05-16T15:10:40.902Z</time>
      </trkpt>
      <trkpt lat="39.06307" lon="-8.837465">
        <ele>-2.0</ele>
        <time>2019-05-16T15:10:41.920Z</time>
      </trkpt>
      <trkpt lat="39.06300833" lon="-8.83739667">
        <ele>-2.0</ele>
        <time>2019-05-16T15:10:42.901Z</time>
      </trkpt>
      <trkpt lat="39.06300833" lon="-8.83739667">
        <ele>-2.0</ele>
        <time>2019-05-16T15:10:43.923Z</time>
      </trkpt>
      <trkpt lat="39.06294667" lon="-8.83733">
        <ele>-2.0</ele>
        <time>2019-05-16T15:10:44.910Z</time>
      </trkpt>
      <trkpt lat="39.06294667" lon="-8.83733">
        <ele>-2.0</ele>
        <time>2019-05-16T15:10:45.926Z</time>
      </trkpt>
      <trkpt lat="39.06288333" lon="-8.83726667">
        <ele>-2.0</ele>
        <time>2019-05-16T15:10:46.900Z</time>
      </trkpt>
      <trkpt lat="39.06288333" lon="-8.83726667">
        <ele>-2.0</ele>
        <time>2019-05-16T15:10:47.913Z</time>
      </trkpt>
      <trkpt lat="39.06281833" lon="-8.83720333">
        <ele>-2.0</ele>
        <time>2019-05-16T15:10:48.899Z</time>
      </trkpt>
      <trkpt lat="39.06281833" lon="-8.83720333">
        <ele>-2.0</ele>
        <time>2019-05-16T15:10:49.934Z</time>
      </trkpt>
      <trkpt lat="39.06275167" lon="-8.83714167">
        <ele>-2.0</ele>
        <time>2019-05-16T15:10:50.911Z</time>
      </trkpt>
      <trkpt lat="39.06275167" lon="-8.83714167">
        <ele>-2.0</ele>
        <time>2019-05-16T15:10:51.905Z</time>
      </trkpt>
      <trkpt lat="39.06268333" lon="-8.83707833">
        <ele>-2.0</ele>
        <time>2019-05-16T15:10:52.934Z</time>
      </trkpt>
      <trkpt lat="39.06264833" lon="-8.83704833">
        <ele>-2.0</ele>
        <time>2019-05-16T15:10:53.914Z</time>
      </trkpt>
      <trkpt lat="39.06264833" lon="-8.83704833">
        <ele>-2.0</ele>
        <time>2019-05-16T15:10:54.936Z</time>
      </trkpt>
      <trkpt lat="39.06258" lon="-8.83699">
        <ele>-2.0</ele>
        <time>2019-05-16T15:10:55.915Z</time>
      </trkpt>
      <trkpt lat="39.06254333" lon="-8.836965">
        <ele>-2.0</ele>
        <time>2019-05-16T15:10:56.901Z</time>
      </trkpt>
      <trkpt lat="39.06254333" lon="-8.836965">
        <ele>-2.0</ele>
        <time>2019-05-16T15:10:57.904Z</time>
      </trkpt>
      <trkpt lat="39.06247333" lon="-8.83691167">
        <ele>-2.0</ele>
        <time>2019-05-16T15:10:58.907Z</time>
      </trkpt>
      <trkpt lat="39.06247333" lon="-8.83691167">
        <ele>-2.0</ele>
        <time>2019-05-16T15:10:59.923Z</time>
      </trkpt>
      <trkpt lat="39.0624" lon="-8.83686333">
        <ele>-2.0</ele>
        <time>2019-05-16T15:11:00.905Z</time>
      </trkpt>
      <trkpt lat="39.06236167" lon="-8.83684">
        <ele>-2.0</ele>
        <time>2019-05-16T15:11:01.925Z</time>
      </trkpt>
      <trkpt lat="39.06232333" lon="-8.83681833">
        <ele>-2.0</ele>
        <time>2019-05-16T15:11:02.929Z</time>
      </trkpt>
      <trkpt lat="39.06232333" lon="-8.83681833">
        <ele>-2.0</ele>
        <time>2019-05-16T15:11:03.919Z</time>
      </trkpt>
      <trkpt lat="39.06224667" lon="-8.83677">
        <ele>-2.0</ele>
        <time>2019-05-16T15:11:04.901Z</time>
      </trkpt>
      <trkpt lat="39.06224667" lon="-8.83677">
        <ele>-2.0</ele>
        <time>2019-05-16T15:11:05.920Z</time>
      </trkpt>
      <trkpt lat="39.06217333" lon="-8.83671333">
        <ele>-2.0</ele>
        <time>2019-05-16T15:11:06.917Z</time>
      </trkpt>
      <trkpt lat="39.06217333" lon="-8.83671333">
        <ele>-2.0</ele>
        <time>2019-05-16T15:11:07.933Z</time>
      </trkpt>
      <trkpt lat="39.062105" lon="-8.83664333">
        <ele>-2.0</ele>
        <time>2019-05-16T15:11:08.907Z</time>
      </trkpt>
      <trkpt lat="39.062105" lon="-8.83664333">
        <ele>-2.0</ele>
        <time>2019-05-16T15:11:09.916Z</time>
      </trkpt>
      <trkpt lat="39.06207167" lon="-8.83654833">
        <ele>-2.0</ele>
        <time>2019-05-16T15:11:10.912Z</time>
      </trkpt>
      <trkpt lat="39.06207167" lon="-8.83654833">
        <ele>-2.0</ele>
        <time>2019-05-16T15:11:11.931Z</time>
      </trkpt>
      <trkpt lat="39.06207333" lon="-8.83644833">
        <ele>-2.0</ele>
        <time>2019-05-16T15:11:12.918Z</time>
      </trkpt>
      <trkpt lat="39.06207333" lon="-8.83644833">
        <ele>-2.0</ele>
        <time>2019-05-16T15:11:13.897Z</time>
      </trkpt>
      <trkpt lat="39.06208" lon="-8.83635167">
        <ele>-2.0</ele>
        <time>2019-05-16T15:11:14.912Z</time>
      </trkpt>
      <trkpt lat="39.06208" lon="-8.83635167">
        <ele>-2.0</ele>
        <time>2019-05-16T15:11:15.929Z</time>
      </trkpt>
      <trkpt lat="39.06209" lon="-8.83626333">
        <ele>-2.0</ele>
        <time>2019-05-16T15:11:16.908Z</time>
      </trkpt>
      <trkpt lat="39.06209" lon="-8.83626333">
        <ele>-2.0</ele>
        <time>2019-05-16T15:11:17.923Z</time>
      </trkpt>
      <trkpt lat="39.0621" lon="-8.83618167">
        <ele>-2.0</ele>
        <time>2019-05-16T15:11:18.901Z</time>
      </trkpt>
      <trkpt lat="39.0621" lon="-8.83618167">
        <ele>-2.0</ele>
        <time>2019-05-16T15:11:19.932Z</time>
      </trkpt>
      <trkpt lat="39.06211" lon="-8.83611">
        <ele>-2.0</ele>
        <time>2019-05-16T15:11:20.915Z</time>
      </trkpt>
      <trkpt lat="39.06211" lon="-8.83611">
        <ele>-2.0</ele>
        <time>2019-05-16T15:11:21.903Z</time>
      </trkpt>
      <trkpt lat="39.06212" lon="-8.83603833">
        <ele>-2.0</ele>
        <time>2019-05-16T15:11:22.929Z</time>
      </trkpt>
      <trkpt lat="39.06212" lon="-8.83603833">
        <ele>-2.0</ele>
        <time>2019-05-16T15:11:23.935Z</time>
      </trkpt>
      <trkpt lat="39.06213667" lon="-8.83597167">
        <ele>-2.0</ele>
        <time>2019-05-16T15:11:24.920Z</time>
      </trkpt>
      <trkpt lat="39.06213667" lon="-8.83597167">
        <ele>-2.0</ele>
        <time>2019-05-16T15:11:25.907Z</time>
      </trkpt>
      <trkpt lat="39.062145" lon="-8.83595333">
        <ele>-2.0</ele>
        <time>2019-05-16T15:11:26.903Z</time>
      </trkpt>
      <trkpt lat="39.062145" lon="-8.83595333">
        <ele>-2.0</ele>
        <time>2019-05-16T15:11:27.899Z</time>
      </trkpt>
      <trkpt lat="39.06215167" lon="-8.83596167">
        <ele>-2.0</ele>
        <time>2019-05-16T15:11:28.929Z</time>
      </trkpt>
      <trkpt lat="39.06215167" lon="-8.83596167">
        <ele>-2.0</ele>
        <time>2019-05-16T15:11:29.916Z</time>
      </trkpt>
      <trkpt lat="39.06214833" lon="-8.83597667">
        <ele>-2.0</ele>
        <time>2019-05-16T15:11:30.923Z</time>
      </trkpt>
      <trkpt lat="39.06214833" lon="-8.83597667">
        <ele>-2.0</ele>
        <time>2019-05-16T15:11:31.929Z</time>
      </trkpt>
      <trkpt lat="39.06214333" lon="-8.83600667">
        <ele>-2.0</ele>
        <time>2019-05-16T15:11:32.935Z</time>
      </trkpt>
      <trkpt lat="39.06214333" lon="-8.83600667">
        <ele>-2.0</ele>
        <time>2019-05-16T15:11:33.902Z</time>
      </trkpt>
      <trkpt lat="39.06213167" lon="-8.83605">
        <ele>-2.0</ele>
        <time>2019-05-16T15:11:34.932Z</time>
      </trkpt>
      <trkpt lat="39.06213167" lon="-8.83605">
        <ele>-2.0</ele>
        <time>2019-05-16T15:11:35.927Z</time>
      </trkpt>
      <trkpt lat="39.06211667" lon="-8.836105">
        <ele>-2.0</ele>
        <time>2019-05-16T15:11:36.929Z</time>
      </trkpt>
      <trkpt lat="39.06211667" lon="-8.836105">
        <ele>-2.0</ele>
        <time>2019-05-16T15:11:37.924Z</time>
      </trkpt>
      <trkpt lat="39.06210167" lon="-8.83618167">
        <ele>-2.0</ele>
        <time>2019-05-16T15:11:38.921Z</time>
      </trkpt>
      <trkpt lat="39.06210167" lon="-8.83618167">
        <ele>-2.0</ele>
        <time>2019-05-16T15:11:39.911Z</time>
      </trkpt>
      <trkpt lat="39.06210167" lon="-8.83627833">
        <ele>-2.0</ele>
        <time>2019-05-16T15:11:40.931Z</time>
      </trkpt>
      <trkpt lat="39.06210167" lon="-8.83627833">
        <ele>-2.0</ele>
        <time>2019-05-16T15:11:41.912Z</time>
      </trkpt>
      <trkpt lat="39.06210333" lon="-8.83636667">
        <ele>-2.0</ele>
        <time>2019-05-16T15:11:42.936Z</time>
      </trkpt>
      <trkpt lat="39.06210333" lon="-8.83636667">
        <ele>-2.0</ele>
        <time>2019-05-16T15:11:43.907Z</time>
      </trkpt>
      <trkpt lat="39.06209833" lon="-8.83645">
        <ele>-2.0</ele>
        <time>2019-05-16T15:11:44.934Z</time>
      </trkpt>
      <trkpt lat="39.06209833" lon="-8.83645">
        <ele>-2.0</ele>
        <time>2019-05-16T15:11:45.908Z</time>
      </trkpt>
      <trkpt lat="39.0621" lon="-8.83652">
        <ele>-2.0</ele>
        <time>2019-05-16T15:11:46.933Z</time>
      </trkpt>
      <trkpt lat="39.0621" lon="-8.83652">
        <ele>-2.0</ele>
        <time>2019-05-16T15:11:47.897Z</time>
      </trkpt>
      <trkpt lat="39.06211167" lon="-8.83659333">
        <ele>-2.0</ele>
        <time>2019-05-16T15:11:48.928Z</time>
      </trkpt>
      <trkpt lat="39.06211167" lon="-8.83659333">
        <ele>-2.0</ele>
        <time>2019-05-16T15:11:49.912Z</time>
      </trkpt>
      <trkpt lat="39.062145" lon="-8.83666667">
        <ele>-2.0</ele>
        <time>2019-05-16T15:11:50.908Z</time>
      </trkpt>
      <trkpt lat="39.062145" lon="-8.83666667">
        <ele>-2.0</ele>
        <time>2019-05-16T15:11:51.897Z</time>
      </trkpt>
      <trkpt lat="39.06219333" lon="-8.836715">
        <ele>-1.0</ele>
        <time>2019-05-16T15:11:52.931Z</time>
      </trkpt>
      <trkpt lat="39.06219333" lon="-8.836715">
        <ele>-1.0</ele>
        <time>2019-05-16T15:11:53.912Z</time>
      </trkpt>
      <trkpt lat="39.06224" lon="-8.83675333">
        <ele>-1.0</ele>
        <time>2019-05-16T15:11:54.932Z</time>
      </trkpt>
      <trkpt lat="39.06224" lon="-8.83675333">
        <ele>-1.0</ele>
        <time>2019-05-16T15:11:55.912Z</time>
      </trkpt>
      <trkpt lat="39.06228667" lon="-8.83678833">
        <ele>-1.0</ele>
        <time>2019-05-16T15:11:56.932Z</time>
      </trkpt>
      <trkpt lat="39.06228667" lon="-8.83678833">
        <ele>-1.0</ele>
        <time>2019-05-16T15:11:57.925Z</time>
      </trkpt>
      <trkpt lat="39.062335" lon="-8.83682167">
        <ele>-1.0</ele>
        <time>2019-05-16T15:11:58.901Z</time>
      </trkpt>
      <trkpt lat="39.062335" lon="-8.83682167">
        <ele>-1.0</ele>
        <time>2019-05-16T15:11:59.923Z</time>
      </trkpt>
      <trkpt lat="39.06238333" lon="-8.83684667">
        <ele>-1.0</ele>
        <time>2019-05-16T15:12:00.909Z</time>
      </trkpt>
      <trkpt lat="39.06238333" lon="-8.83684667">
        <ele>-1.0</ele>
        <time>2019-05-16T15:12:01.905Z</time>
      </trkpt>
      <trkpt lat="39.062425" lon="-8.83687">
        <ele>-1.0</ele>
        <time>2019-05-16T15:12:02.916Z</time>
      </trkpt>
      <trkpt lat="39.062425" lon="-8.83687">
        <ele>-1.0</ele>
        <time>2019-05-16T15:12:03.898Z</time>
      </trkpt>
      <trkpt lat="39.06244333" lon="-8.836895">
        <ele>-1.0</ele>
        <time>2019-05-16T15:12:04.900Z</time>
      </trkpt>
      <trkpt lat="39.06244333" lon="-8.836895">
        <ele>-1.0</ele>
        <time>2019-05-16T15:12:05.933Z</time>
      </trkpt>
      <trkpt lat="39.06244333" lon="-8.83690167">
        <ele>0.0</ele>
        <time>2019-05-16T15:12:06.911Z</time>
      </trkpt>
      <trkpt lat="39.06244333" lon="-8.83690167">
        <ele>0.0</ele>
        <time>2019-05-16T15:12:07.927Z</time>
      </trkpt>
      <trkpt lat="39.06244167" lon="-8.83690333">
        <ele>-1.0</ele>
        <time>2019-05-16T15:12:08.909Z</time>
      </trkpt>
      <trkpt lat="39.06244167" lon="-8.83690333">
        <ele>-1.0</ele>
        <time>2019-05-16T15:12:09.903Z</time>
      </trkpt>
      <trkpt lat="39.06244167" lon="-8.83690333">
        <ele>-1.0</ele>
        <time>2019-05-16T15:12:10.909Z</time>
      </trkpt>
      <trkpt lat="39.06244167" lon="-8.83690333">
        <ele>-1.0</ele>
        <time>2019-05-16T15:12:11.916Z</time>
      </trkpt>
      <trkpt lat="39.06244167" lon="-8.83690333">
        <ele>-1.0</ele>
        <time>2019-05-16T15:12:12.901Z</time>
      </trkpt>
      <trkpt lat="39.06244167" lon="-8.83690333">
        <ele>-1.0</ele>
        <time>2019-05-16T15:12:13.926Z</time>
      </trkpt>
      <trkpt lat="39.06244167" lon="-8.83690333">
        <ele>-1.0</ele>
        <time>2019-05-16T15:12:14.931Z</time>
      </trkpt>
      <trkpt lat="39.06244167" lon="-8.83690333">
        <ele>-1.0</ele>
        <time>2019-05-16T15:12:15.899Z</time>
      </trkpt>
      <trkpt lat="39.06244167" lon="-8.83690333">
        <ele>-1.0</ele>
        <time>2019-05-16T15:12:16.930Z</time>
      </trkpt>
      <trkpt lat="39.06244167" lon="-8.83690333">
        <ele>-1.0</ele>
        <time>2019-05-16T15:12:17.919Z</time>
      </trkpt>
      <trkpt lat="39.06244167" lon="-8.83690333">
        <ele>-1.0</ele>
        <time>2019-05-16T15:12:18.904Z</time>
      </trkpt>
      <trkpt lat="39.06244167" lon="-8.83690333">
        <ele>-1.0</ele>
        <time>2019-05-16T15:12:19.931Z</time>
      </trkpt>
      <trkpt lat="39.06244167" lon="-8.83690333">
        <ele>-1.0</ele>
        <time>2019-05-16T15:12:20.902Z</time>
      </trkpt>
      <trkpt lat="39.06244167" lon="-8.83690333">
        <ele>-1.0</ele>
        <time>2019-05-16T15:12:21.910Z</time>
      </trkpt>
      <trkpt lat="39.06244167" lon="-8.83690333">
        <ele>-1.0</ele>
        <time>2019-05-16T15:12:22.919Z</time>
      </trkpt>
      <trkpt lat="39.06244167" lon="-8.83690333">
        <ele>-1.0</ele>
        <time>2019-05-16T15:12:23.929Z</time>
      </trkpt>
      <trkpt lat="39.06244167" lon="-8.83690333">
        <ele>-1.0</ele>
        <time>2019-05-16T15:12:24.924Z</time>
      </trkpt>
      <trkpt lat="39.06244167" lon="-8.83690333">
        <ele>-1.0</ele>
        <time>2019-05-16T15:12:25.902Z</time>
      </trkpt>
      <trkpt lat="39.06244167" lon="-8.83690333">
        <ele>-1.0</ele>
        <time>2019-05-16T15:12:26.933Z</time>
      </trkpt>
      <trkpt lat="39.06244167" lon="-8.83690333">
        <ele>-1.0</ele>
        <time>2019-05-16T15:12:27.917Z</time>
      </trkpt>
      <trkpt lat="39.06244167" lon="-8.83690333">
        <ele>-1.0</ele>
        <time>2019-05-16T15:12:28.903Z</time>
      </trkpt>
      <trkpt lat="39.06244167" lon="-8.83690333">
        <ele>-1.0</ele>
        <time>2019-05-16T15:12:29.901Z</time>
      </trkpt>
      <trkpt lat="39.06244167" lon="-8.83690333">
        <ele>-1.0</ele>
        <time>2019-05-16T15:12:30.924Z</time>
      </trkpt>
      <trkpt lat="39.06244167" lon="-8.83690333">
        <ele>-1.0</ele>
        <time>2019-05-16T15:12:31.929Z</time>
      </trkpt>
      <trkpt lat="39.06244167" lon="-8.83690333">
        <ele>-1.0</ele>
        <time>2019-05-16T15:12:32.926Z</time>
      </trkpt>
      <trkpt lat="39.06244167" lon="-8.83690333">
        <ele>-1.0</ele>
        <time>2019-05-16T15:12:33.928Z</time>
      </trkpt>
      <trkpt lat="39.06244167" lon="-8.83690333">
        <ele>-1.0</ele>
        <time>2019-05-16T15:12:34.929Z</time>
      </trkpt>
      <trkpt lat="39.06244167" lon="-8.83690333">
        <ele>-1.0</ele>
        <time>2019-05-16T15:12:35.929Z</time>
      </trkpt>
      <trkpt lat="39.06244167" lon="-8.83690333">
        <ele>-1.0</ele>
        <time>2019-05-16T15:12:36.926Z</time>
      </trkpt>
      <trkpt lat="39.06244167" lon="-8.83690333">
        <ele>-1.0</ele>
        <time>2019-05-16T15:12:37.929Z</time>
      </trkpt>
      <trkpt lat="39.06244167" lon="-8.83690333">
        <ele>-1.0</ele>
        <time>2019-05-16T15:12:38.929Z</time>
      </trkpt>
      <trkpt lat="39.06244167" lon="-8.83690333">
        <ele>-1.0</ele>
        <time>2019-05-16T15:12:39.931Z</time>
      </trkpt>
      <trkpt lat="39.06244167" lon="-8.83690333">
        <ele>-1.0</ele>
        <time>2019-05-16T15:12:40.927Z</time>
      </trkpt>
      <trkpt lat="39.06244167" lon="-8.83690333">
        <ele>-1.0</ele>
        <time>2019-05-16T15:12:41.928Z</time>
      </trkpt>
      <trkpt lat="39.06244167" lon="-8.83690333">
        <ele>-1.0</ele>
        <time>2019-05-16T15:12:42.928Z</time>
      </trkpt>
      <trkpt lat="39.06244167" lon="-8.83690333">
        <ele>-1.0</ele>
        <time>2019-05-16T15:12:43.922Z</time>
      </trkpt>
      <trkpt lat="39.06244167" lon="-8.83690333">
        <ele>-1.0</ele>
        <time>2019-05-16T15:12:44.930Z</time>
      </trkpt>
      <trkpt lat="39.06244167" lon="-8.83690333">
        <ele>-1.0</ele>
        <time>2019-05-16T15:12:45.924Z</time>
      </trkpt>
      <trkpt lat="39.06244167" lon="-8.83690333">
        <ele>-1.0</ele>
        <time>2019-05-16T15:12:46.929Z</time>
      </trkpt>
      <trkpt lat="39.06244167" lon="-8.83690333">
        <ele>-1.0</ele>
        <time>2019-05-16T15:12:47.927Z</time>
      </trkpt>
      <trkpt lat="39.06244167" lon="-8.83690333">
        <ele>-1.0</ele>
        <time>2019-05-16T15:12:48.929Z</time>
      </trkpt>
      <trkpt lat="39.06244167" lon="-8.83690333">
        <ele>-1.0</ele>
        <time>2019-05-16T15:12:49.931Z</time>
      </trkpt>
      <trkpt lat="39.06244167" lon="-8.83690333">
        <ele>-1.0</ele>
        <time>2019-05-16T15:12:50.931Z</time>
      </trkpt>
      <trkpt lat="39.06244167" lon="-8.83690333">
        <ele>-1.0</ele>
        <time>2019-05-16T15:12:51.928Z</time>
      </trkpt>
      <trkpt lat="39.06244167" lon="-8.83690333">
        <ele>-1.0</ele>
        <time>2019-05-16T15:12:52.929Z</time>
      </trkpt>
      <trkpt lat="39.06244167" lon="-8.83690333">
        <ele>-1.0</ele>
        <time>2019-05-16T15:12:53.924Z</time>
      </trkpt>
      <trkpt lat="39.06244167" lon="-8.83690333">
        <ele>-1.0</ele>
        <time>2019-05-16T15:12:54.928Z</time>
      </trkpt>
      <trkpt lat="39.06244167" lon="-8.83690333">
        <ele>-1.0</ele>
        <time>2019-05-16T15:12:55.929Z</time>
      </trkpt>
      <trkpt lat="39.06244167" lon="-8.83690333">
        <ele>-1.0</ele>
        <time>2019-05-16T15:12:56.931Z</time>
      </trkpt>
      <trkpt lat="39.06244167" lon="-8.83690333">
        <ele>-1.0</ele>
        <time>2019-05-16T15:12:57.927Z</time>
      </trkpt>
      <trkpt lat="39.06244167" lon="-8.83690333">
        <ele>-1.0</ele>
        <time>2019-05-16T15:12:58.905Z</time>
      </trkpt>
      <trkpt lat="39.06244167" lon="-8.83690333">
        <ele>-1.0</ele>
        <time>2019-05-16T15:12:59.931Z</time>
      </trkpt>
      <trkpt lat="39.06244167" lon="-8.83690333">
        <ele>-1.0</ele>
        <time>2019-05-16T15:13:00.924Z</time>
      </trkpt>
      <trkpt lat="39.06244167" lon="-8.83690333">
        <ele>-1.0</ele>
        <time>2019-05-16T15:13:01.933Z</time>
      </trkpt>
      <trkpt lat="39.06244167" lon="-8.83690333">
        <ele>-1.0</ele>
        <time>2019-05-16T15:13:02.926Z</time>
      </trkpt>
      <trkpt lat="39.06244167" lon="-8.83690333">
        <ele>-1.0</ele>
        <time>2019-05-16T15:13:03.929Z</time>
      </trkpt>
      <trkpt lat="39.06244167" lon="-8.83690333">
        <ele>-1.0</ele>
        <time>2019-05-16T15:13:04.928Z</time>
      </trkpt>
      <trkpt lat="39.06244167" lon="-8.83690333">
        <ele>-1.0</ele>
        <time>2019-05-16T15:13:05.924Z</time>
      </trkpt>
      <trkpt lat="39.06244167" lon="-8.83690333">
        <ele>-1.0</ele>
        <time>2019-05-16T15:13:06.909Z</time>
      </trkpt>
      <trkpt lat="39.06244167" lon="-8.83690333">
        <ele>-1.0</ele>
        <time>2019-05-16T15:13:07.935Z</time>
      </trkpt>
      <trkpt lat="39.06244167" lon="-8.83690333">
        <ele>-1.0</ele>
        <time>2019-05-16T15:13:08.928Z</time>
      </trkpt>
      <trkpt lat="39.06244167" lon="-8.83690333">
        <ele>-1.0</ele>
        <time>2019-05-16T15:13:09.931Z</time>
      </trkpt>
      <trkpt lat="39.06244167" lon="-8.83690333">
        <ele>-1.0</ele>
        <time>2019-05-16T15:13:10.932Z</time>
      </trkpt>
      <trkpt lat="39.06244167" lon="-8.83690333">
        <ele>-1.0</ele>
        <time>2019-05-16T15:13:11.927Z</time>
      </trkpt>
      <trkpt lat="39.06244167" lon="-8.83690333">
        <ele>-1.0</ele>
        <time>2019-05-16T15:13:12.929Z</time>
      </trkpt>
      <trkpt lat="39.06244167" lon="-8.83690333">
        <ele>-1.0</ele>
        <time>2019-05-16T15:13:13.929Z</time>
      </trkpt>
      <trkpt lat="39.06244167" lon="-8.83690333">
        <ele>-1.0</ele>
        <time>2019-05-16T15:13:14.926Z</time>
      </trkpt>
      <trkpt lat="39.06244167" lon="-8.83690333">
        <ele>-1.0</ele>
        <time>2019-05-16T15:13:15.924Z</time>
      </trkpt>
      <trkpt lat="39.06244167" lon="-8.83690333">
        <ele>-1.0</ele>
        <time>2019-05-16T15:13:16.930Z</time>
      </trkpt>
      <trkpt lat="39.06244167" lon="-8.83690333">
        <ele>-1.0</ele>
        <time>2019-05-16T15:13:17.930Z</time>
      </trkpt>
      <trkpt lat="39.06244167" lon="-8.83690333">
        <ele>-1.0</ele>
        <time>2019-05-16T15:13:18.924Z</time>
      </trkpt>
      <trkpt lat="39.06244167" lon="-8.83690333">
        <ele>-1.0</ele>
        <time>2019-05-16T15:13:19.931Z</time>
      </trkpt>
      <trkpt lat="39.06244167" lon="-8.83690333">
        <ele>-1.0</ele>
        <time>2019-05-16T15:13:20.920Z</time>
      </trkpt>
      <trkpt lat="39.06244167" lon="-8.83690333">
        <ele>-1.0</ele>
        <time>2019-05-16T15:13:21.917Z</time>
      </trkpt>
      <trkpt lat="39.06244167" lon="-8.83690333">
        <ele>-1.0</ele>
        <time>2019-05-16T15:13:22.924Z</time>
      </trkpt>
      <trkpt lat="39.06244167" lon="-8.83690333">
        <ele>-1.0</ele>
        <time>2019-05-16T15:13:23.930Z</time>
      </trkpt>
      <trkpt lat="39.06244167" lon="-8.83690333">
        <ele>-1.0</ele>
        <time>2019-05-16T15:13:24.929Z</time>
      </trkpt>
      <trkpt lat="39.06244167" lon="-8.83690333">
        <ele>-1.0</ele>
        <time>2019-05-16T15:13:25.927Z</time>
      </trkpt>
      <trkpt lat="39.06244167" lon="-8.83690333">
        <ele>-1.0</ele>
        <time>2019-05-16T15:13:26.931Z</time>
      </trkpt>
      <trkpt lat="39.06244167" lon="-8.83690333">
        <ele>-1.0</ele>
        <time>2019-05-16T15:13:27.924Z</time>
      </trkpt>
      <trkpt lat="39.06244167" lon="-8.83690333">
        <ele>-1.0</ele>
        <time>2019-05-16T15:13:28.910Z</time>
      </trkpt>
      <trkpt lat="39.06244167" lon="-8.83690333">
        <ele>-1.0</ele>
        <time>2019-05-16T15:13:29.935Z</time>
      </trkpt>
      <trkpt lat="39.06240833" lon="-8.83687833">
        <ele>-3.0</ele>
        <time>2019-05-16T15:13:30.929Z</time>
      </trkpt>
      <trkpt lat="39.06239833" lon="-8.83687167">
        <ele>-3.0</ele>
        <time>2019-05-16T15:13:31.929Z</time>
      </trkpt>
      <trkpt lat="39.06239833" lon="-8.83687167">
        <ele>-3.0</ele>
        <time>2019-05-16T15:13:32.927Z</time>
      </trkpt>
      <trkpt lat="39.06237667" lon="-8.83686">
        <ele>-3.0</ele>
        <time>2019-05-16T15:13:33.929Z</time>
      </trkpt>
      <trkpt lat="39.06236167" lon="-8.83685">
        <ele>-3.0</ele>
        <time>2019-05-16T15:13:34.930Z</time>
      </trkpt>
      <trkpt lat="39.06236167" lon="-8.83685">
        <ele>-3.0</ele>
        <time>2019-05-16T15:13:35.925Z</time>
      </trkpt>
      <trkpt lat="39.06232" lon="-8.836825">
        <ele>-3.0</ele>
        <time>2019-05-16T15:13:36.931Z</time>
      </trkpt>
      <trkpt lat="39.06232" lon="-8.836825">
        <ele>-3.0</ele>
        <time>2019-05-16T15:13:37.909Z</time>
      </trkpt>
      <trkpt lat="39.06226667" lon="-8.83679667">
        <ele>-4.0</ele>
        <time>2019-05-16T15:13:38.937Z</time>
      </trkpt>
      <trkpt lat="39.06224167" lon="-8.83678">
        <ele>-4.0</ele>
        <time>2019-05-16T15:13:39.901Z</time>
      </trkpt>
      <trkpt lat="39.06224167" lon="-8.83678">
        <ele>-4.0</ele>
        <time>2019-05-16T15:13:40.907Z</time>
      </trkpt>
      <trkpt lat="39.062195" lon="-8.836745">
        <ele>-4.0</ele>
        <time>2019-05-16T15:13:41.937Z</time>
      </trkpt>
      <trkpt lat="39.062195" lon="-8.836745">
        <ele>-4.0</ele>
        <time>2019-05-16T15:13:42.906Z</time>
      </trkpt>
      <trkpt lat="39.06215167" lon="-8.83670667">
        <ele>-4.0</ele>
        <time>2019-05-16T15:13:43.936Z</time>
      </trkpt>
      <trkpt lat="39.06215167" lon="-8.83670667">
        <ele>-4.0</ele>
        <time>2019-05-16T15:13:44.907Z</time>
      </trkpt>
      <trkpt lat="39.062115" lon="-8.83666833">
        <ele>-4.0</ele>
        <time>2019-05-16T15:13:45.932Z</time>
      </trkpt>
      <trkpt lat="39.062115" lon="-8.83666833">
        <ele>-4.0</ele>
        <time>2019-05-16T15:13:46.921Z</time>
      </trkpt>
      <trkpt lat="39.06209" lon="-8.83661833">
        <ele>-4.0</ele>
        <time>2019-05-16T15:13:47.897Z</time>
      </trkpt>
      <trkpt lat="39.06208167" lon="-8.836585">
        <ele>-4.0</ele>
        <time>2019-05-16T15:13:48.907Z</time>
      </trkpt>
      <trkpt lat="39.06208167" lon="-8.836585">
        <ele>-4.0</ele>
        <time>2019-05-16T15:13:49.922Z</time>
      </trkpt>
      <trkpt lat="39.06208333" lon="-8.83651">
        <ele>-4.0</ele>
        <time>2019-05-16T15:13:50.901Z</time>
      </trkpt>
      <trkpt lat="39.06208333" lon="-8.83651">
        <ele>-4.0</ele>
        <time>2019-05-16T15:13:51.936Z</time>
      </trkpt>
      <trkpt lat="39.06208667" lon="-8.83642">
        <ele>-4.0</ele>
        <time>2019-05-16T15:13:52.921Z</time>
      </trkpt>
      <trkpt lat="39.06208667" lon="-8.83642">
        <ele>-4.0</ele>
        <time>2019-05-16T15:13:53.904Z</time>
      </trkpt>
      <trkpt lat="39.06209833" lon="-8.83632">
        <ele>-4.0</ele>
        <time>2019-05-16T15:13:54.918Z</time>
      </trkpt>
      <trkpt lat="39.06209833" lon="-8.83632">
        <ele>-4.0</ele>
        <time>2019-05-16T15:13:55.903Z</time>
      </trkpt>
      <trkpt lat="39.06211" lon="-8.83622667">
        <ele>-4.0</ele>
        <time>2019-05-16T15:13:56.935Z</time>
      </trkpt>
      <trkpt lat="39.06211" lon="-8.83622667">
        <ele>-4.0</ele>
        <time>2019-05-16T15:13:57.900Z</time>
      </trkpt>
      <trkpt lat="39.06212167" lon="-8.836135">
        <ele>-4.0</ele>
        <time>2019-05-16T15:13:58.918Z</time>
      </trkpt>
      <trkpt lat="39.06212167" lon="-8.836135">
        <ele>-4.0</ele>
        <time>2019-05-16T15:13:59.934Z</time>
      </trkpt>
      <trkpt lat="39.06213" lon="-8.83604667">
        <ele>-4.0</ele>
        <time>2019-05-16T15:14:00.920Z</time>
      </trkpt>
      <trkpt lat="39.06213" lon="-8.83604667">
        <ele>-4.0</ele>
        <time>2019-05-16T15:14:01.917Z</time>
      </trkpt>
      <trkpt lat="39.06213833" lon="-8.835955">
        <ele>-4.0</ele>
        <time>2019-05-16T15:14:02.939Z</time>
      </trkpt>
      <trkpt lat="39.06213833" lon="-8.835955">
        <ele>-4.0</ele>
        <time>2019-05-16T15:14:03.923Z</time>
      </trkpt>
      <trkpt lat="39.062145" lon="-8.83586">
        <ele>-4.0</ele>
        <time>2019-05-16T15:14:04.903Z</time>
      </trkpt>
      <trkpt lat="39.062145" lon="-8.83586">
        <ele>-4.0</ele>
        <time>2019-05-16T15:14:05.913Z</time>
      </trkpt>
      <trkpt lat="39.06215" lon="-8.83576167">
        <ele>-4.0</ele>
        <time>2019-05-16T15:14:06.897Z</time>
      </trkpt>
      <trkpt lat="39.06215167" lon="-8.83571333">
        <ele>-4.0</ele>
        <time>2019-05-16T15:14:07.919Z</time>
      </trkpt>
      <trkpt lat="39.06215167" lon="-8.83571333">
        <ele>-4.0</ele>
        <time>2019-05-16T15:14:08.918Z</time>
      </trkpt>
      <trkpt lat="39.062155" lon="-8.835615">
        <ele>-4.0</ele>
        <time>2019-05-16T15:14:09.901Z</time>
      </trkpt>
      <trkpt lat="39.062155" lon="-8.835615">
        <ele>-4.0</ele>
        <time>2019-05-16T15:14:10.898Z</time>
      </trkpt>
      <trkpt lat="39.062155" lon="-8.83551833">
        <ele>-4.0</ele>
        <time>2019-05-16T15:14:11.921Z</time>
      </trkpt>
      <trkpt lat="39.06215333" lon="-8.83547167">
        <ele>-4.0</ele>
        <time>2019-05-16T15:14:12.935Z</time>
      </trkpt>
      <trkpt lat="39.06215333" lon="-8.83547167">
        <ele>-4.0</ele>
        <time>2019-05-16T15:14:13.907Z</time>
      </trkpt>
      <trkpt lat="39.06215" lon="-8.835375">
        <ele>-4.0</ele>
        <time>2019-05-16T15:14:14.927Z</time>
      </trkpt>
      <trkpt lat="39.06215" lon="-8.835375">
        <ele>-4.0</ele>
        <time>2019-05-16T15:14:15.930Z</time>
      </trkpt>
      <trkpt lat="39.06214167" lon="-8.83528">
        <ele>-4.0</ele>
        <time>2019-05-16T15:14:16.920Z</time>
      </trkpt>
      <trkpt lat="39.06214167" lon="-8.83528">
        <ele>-4.0</ele>
        <time>2019-05-16T15:14:17.902Z</time>
      </trkpt>
      <trkpt lat="39.06213" lon="-8.83518167">
        <ele>-4.0</ele>
        <time>2019-05-16T15:14:18.933Z</time>
      </trkpt>
      <trkpt lat="39.06212" lon="-8.83513333">
        <ele>-4.0</ele>
        <time>2019-05-16T15:14:19.940Z</time>
      </trkpt>
      <trkpt lat="39.06210833" lon="-8.83508333">
        <ele>-4.0</ele>
        <time>2019-05-16T15:14:20.903Z</time>
      </trkpt>
      <trkpt lat="39.06210833" lon="-8.83508333">
        <ele>-4.0</ele>
        <time>2019-05-16T15:14:21.931Z</time>
      </trkpt>
      <trkpt lat="39.06208" lon="-8.834985">
        <ele>-4.0</ele>
        <time>2019-05-16T15:14:22.912Z</time>
      </trkpt>
      <trkpt lat="39.06208" lon="-8.834985">
        <ele>-4.0</ele>
        <time>2019-05-16T15:14:23.930Z</time>
      </trkpt>
      <trkpt lat="39.06204667" lon="-8.83488667">
        <ele>-4.0</ele>
        <time>2019-05-16T15:14:24.915Z</time>
      </trkpt>
      <trkpt lat="39.06204667" lon="-8.83488667">
        <ele>-4.0</ele>
        <time>2019-05-16T15:14:25.929Z</time>
      </trkpt>
      <trkpt lat="39.06201333" lon="-8.83478667">
        <ele>-4.0</ele>
        <time>2019-05-16T15:14:26.920Z</time>
      </trkpt>
      <trkpt lat="39.06201333" lon="-8.83478667">
        <ele>-4.0</ele>
        <time>2019-05-16T15:14:27.902Z</time>
      </trkpt>
      <trkpt lat="39.06197667" lon="-8.83469">
        <ele>-4.0</ele>
        <time>2019-05-16T15:14:28.914Z</time>
      </trkpt>
      <trkpt lat="39.06197667" lon="-8.83469">
        <ele>-4.0</ele>
        <time>2019-05-16T15:14:29.923Z</time>
      </trkpt>
      <trkpt lat="39.06194" lon="-8.83459333">
        <ele>-4.0</ele>
        <time>2019-05-16T15:14:30.898Z</time>
      </trkpt>
      <trkpt lat="39.06194" lon="-8.83459333">
        <ele>-4.0</ele>
        <time>2019-05-16T15:14:31.931Z</time>
      </trkpt>
      <trkpt lat="39.06190667" lon="-8.83449833">
        <ele>-4.0</ele>
        <time>2019-05-16T15:14:32.913Z</time>
      </trkpt>
      <trkpt lat="39.06190667" lon="-8.83449833">
        <ele>-4.0</ele>
        <time>2019-05-16T15:14:33.903Z</time>
      </trkpt>
      <trkpt lat="39.06186833" lon="-8.834405">
        <ele>-4.0</ele>
        <time>2019-05-16T15:14:34.921Z</time>
      </trkpt>
      <trkpt lat="39.06186833" lon="-8.834405">
        <ele>-4.0</ele>
        <time>2019-05-16T15:14:35.907Z</time>
      </trkpt>
      <trkpt lat="39.06183" lon="-8.83431167">
        <ele>-4.0</ele>
        <time>2019-05-16T15:14:36.935Z</time>
      </trkpt>
      <trkpt lat="39.061815" lon="-8.834265">
        <ele>-5.0</ele>
        <time>2019-05-16T15:14:37.915Z</time>
      </trkpt>
      <trkpt lat="39.061815" lon="-8.834265">
        <ele>-5.0</ele>
        <time>2019-05-16T15:14:38.915Z</time>
      </trkpt>
      <trkpt lat="39.0618" lon="-8.83416833">
        <ele>-4.0</ele>
        <time>2019-05-16T15:14:39.910Z</time>
      </trkpt>
      <trkpt lat="39.0618" lon="-8.83416833">
        <ele>-4.0</ele>
        <time>2019-05-16T15:14:40.916Z</time>
      </trkpt>
      <trkpt lat="39.061795" lon="-8.83407167">
        <ele>-4.0</ele>
        <time>2019-05-16T15:14:41.915Z</time>
      </trkpt>
      <trkpt lat="39.06179333" lon="-8.834025">
        <ele>-4.0</ele>
        <time>2019-05-16T15:14:42.933Z</time>
      </trkpt>
      <trkpt lat="39.06179333" lon="-8.834025">
        <ele>-4.0</ele>
        <time>2019-05-16T15:14:43.921Z</time>
      </trkpt>
      <trkpt lat="39.06178833" lon="-8.83393667">
        <ele>-4.0</ele>
        <time>2019-05-16T15:14:44.931Z</time>
      </trkpt>
      <trkpt lat="39.06178833" lon="-8.83393667">
        <ele>-4.0</ele>
        <time>2019-05-16T15:14:45.901Z</time>
      </trkpt>
      <trkpt lat="39.06179" lon="-8.83385">
        <ele>-5.0</ele>
        <time>2019-05-16T15:14:46.925Z</time>
      </trkpt>
      <trkpt lat="39.06179" lon="-8.83385">
        <ele>-5.0</ele>
        <time>2019-05-16T15:14:47.903Z</time>
      </trkpt>
      <trkpt lat="39.06179" lon="-8.83376167">
        <ele>-5.0</ele>
        <time>2019-05-16T15:14:48.923Z</time>
      </trkpt>
      <trkpt lat="39.061785" lon="-8.83372">
        <ele>-5.0</ele>
        <time>2019-05-16T15:14:49.930Z</time>
      </trkpt>
      <trkpt lat="39.06177667" lon="-8.83367833">
        <ele>-5.0</ele>
        <time>2019-05-16T15:14:50.913Z</time>
      </trkpt>
      <trkpt lat="39.06177667" lon="-8.83367833">
        <ele>-5.0</ele>
        <time>2019-05-16T15:14:51.923Z</time>
      </trkpt>
      <trkpt lat="39.06175667" lon="-8.833595">
        <ele>-5.0</ele>
        <time>2019-05-16T15:14:52.936Z</time>
      </trkpt>
      <trkpt lat="39.06175667" lon="-8.833595">
        <ele>-5.0</ele>
        <time>2019-05-16T15:14:53.901Z</time>
      </trkpt>
      <trkpt lat="39.06173167" lon="-8.83350833">
        <ele>-5.0</ele>
        <time>2019-05-16T15:14:54.917Z</time>
      </trkpt>
      <trkpt lat="39.06173167" lon="-8.83350833">
        <ele>-5.0</ele>
        <time>2019-05-16T15:14:55.915Z</time>
      </trkpt>
      <trkpt lat="39.06169667" lon="-8.83343167">
        <ele>-5.0</ele>
        <time>2019-05-16T15:14:56.901Z</time>
      </trkpt>
      <trkpt lat="39.06169667" lon="-8.83343167">
        <ele>-5.0</ele>
        <time>2019-05-16T15:14:57.924Z</time>
      </trkpt>
      <trkpt lat="39.06165167" lon="-8.83336667">
        <ele>-5.0</ele>
        <time>2019-05-16T15:14:58.913Z</time>
      </trkpt>
      <trkpt lat="39.06165167" lon="-8.83336667">
        <ele>-5.0</ele>
        <time>2019-05-16T15:14:59.922Z</time>
      </trkpt>
      <trkpt lat="39.0616" lon="-8.83330833">
        <ele>-5.0</ele>
        <time>2019-05-16T15:15:00.911Z</time>
      </trkpt>
      <trkpt lat="39.061575" lon="-8.833285">
        <ele>-5.0</ele>
        <time>2019-05-16T15:15:01.909Z</time>
      </trkpt>
      <trkpt lat="39.061575" lon="-8.833285">
        <ele>-5.0</ele>
        <time>2019-05-16T15:15:02.902Z</time>
      </trkpt>
      <trkpt lat="39.06152167" lon="-8.83323833">
        <ele>-5.0</ele>
        <time>2019-05-16T15:15:03.928Z</time>
      </trkpt>
      <trkpt lat="39.06149333" lon="-8.83321833">
        <ele>-5.0</ele>
        <time>2019-05-16T15:15:04.925Z</time>
      </trkpt>
      <trkpt lat="39.06149333" lon="-8.83321833">
        <ele>-5.0</ele>
        <time>2019-05-16T15:15:05.901Z</time>
      </trkpt>
      <trkpt lat="39.06143333" lon="-8.833185">
        <ele>-5.0</ele>
        <time>2019-05-16T15:15:06.921Z</time>
      </trkpt>
      <trkpt lat="39.06140333" lon="-8.83316833">
        <ele>-5.0</ele>
        <time>2019-05-16T15:15:07.901Z</time>
      </trkpt>
      <trkpt lat="39.06137333" lon="-8.83314833">
        <ele>-5.0</ele>
        <time>2019-05-16T15:15:08.900Z</time>
      </trkpt>
      <trkpt lat="39.06137333" lon="-8.83314833">
        <ele>-5.0</ele>
        <time>2019-05-16T15:15:09.931Z</time>
      </trkpt>
      <trkpt lat="39.06131167" lon="-8.83311333">
        <ele>-5.0</ele>
        <time>2019-05-16T15:15:10.906Z</time>
      </trkpt>
      <trkpt lat="39.06131167" lon="-8.83311333">
        <ele>-5.0</ele>
        <time>2019-05-16T15:15:11.931Z</time>
      </trkpt>
      <trkpt lat="39.06125" lon="-8.83307833">
        <ele>-5.0</ele>
        <time>2019-05-16T15:15:12.921Z</time>
      </trkpt>
      <trkpt lat="39.06125" lon="-8.83307833">
        <ele>-5.0</ele>
        <time>2019-05-16T15:15:13.909Z</time>
      </trkpt>
      <trkpt lat="39.06118833" lon="-8.83304">
        <ele>-5.0</ele>
        <time>2019-05-16T15:15:14.904Z</time>
      </trkpt>
      <trkpt lat="39.06118833" lon="-8.83304">
        <ele>-5.0</ele>
        <time>2019-05-16T15:15:15.909Z</time>
      </trkpt>
      <trkpt lat="39.06112333" lon="-8.83300167">
        <ele>-5.0</ele>
        <time>2019-05-16T15:15:16.900Z</time>
      </trkpt>
      <trkpt lat="39.06112333" lon="-8.83300167">
        <ele>-5.0</ele>
        <time>2019-05-16T15:15:17.903Z</time>
      </trkpt>
      <trkpt lat="39.06105833" lon="-8.83295833">
        <ele>-5.0</ele>
        <time>2019-05-16T15:15:18.921Z</time>
      </trkpt>
      <trkpt lat="39.06102667" lon="-8.83293833">
        <ele>-5.0</ele>
        <time>2019-05-16T15:15:19.905Z</time>
      </trkpt>
      <trkpt lat="39.06102667" lon="-8.83293833">
        <ele>-5.0</ele>
        <time>2019-05-16T15:15:20.916Z</time>
      </trkpt>
      <trkpt lat="39.06095833" lon="-8.83289833">
        <ele>-6.0</ele>
        <time>2019-05-16T15:15:21.909Z</time>
      </trkpt>
      <trkpt lat="39.060925" lon="-8.83287667">
        <ele>-6.0</ele>
        <time>2019-05-16T15:15:22.901Z</time>
      </trkpt>
      <trkpt lat="39.060925" lon="-8.83287667">
        <ele>-6.0</ele>
        <time>2019-05-16T15:15:23.932Z</time>
      </trkpt>
      <trkpt lat="39.06085833" lon="-8.832835">
        <ele>-6.0</ele>
        <time>2019-05-16T15:15:24.934Z</time>
      </trkpt>
      <trkpt lat="39.06085833" lon="-8.832835">
        <ele>-6.0</ele>
        <time>2019-05-16T15:15:25.928Z</time>
      </trkpt>
      <trkpt lat="39.06078667" lon="-8.83279667">
        <ele>-6.0</ele>
        <time>2019-05-16T15:15:26.911Z</time>
      </trkpt>
      <trkpt lat="39.06078667" lon="-8.83279667">
        <ele>-6.0</ele>
        <time>2019-05-16T15:15:27.916Z</time>
      </trkpt>
      <trkpt lat="39.06071667" lon="-8.83275833">
        <ele>-6.0</ele>
        <time>2019-05-16T15:15:28.905Z</time>
      </trkpt>
      <trkpt lat="39.06071667" lon="-8.83275833">
        <ele>-6.0</ele>
        <time>2019-05-16T15:15:29.908Z</time>
      </trkpt>
      <trkpt lat="39.06064667" lon="-8.83271833">
        <ele>-6.0</ele>
        <time>2019-05-16T15:15:30.933Z</time>
      </trkpt>
      <trkpt lat="39.06061167" lon="-8.83269667">
        <ele>-6.0</ele>
        <time>2019-05-16T15:15:31.916Z</time>
      </trkpt>
      <trkpt lat="39.06057833" lon="-8.832675">
        <ele>-6.0</ele>
        <time>2019-05-16T15:15:32.919Z</time>
      </trkpt>
      <trkpt lat="39.06057833" lon="-8.832675">
        <ele>-6.0</ele>
        <time>2019-05-16T15:15:33.934Z</time>
      </trkpt>
      <trkpt lat="39.06051" lon="-8.83263333">
        <ele>-6.0</ele>
        <time>2019-05-16T15:15:34.934Z</time>
      </trkpt>
      <trkpt lat="39.06051" lon="-8.83263333">
        <ele>-6.0</ele>
        <time>2019-05-16T15:15:35.911Z</time>
      </trkpt>
      <trkpt lat="39.06044" lon="-8.832595">
        <ele>-6.0</ele>
        <time>2019-05-16T15:15:36.936Z</time>
      </trkpt>
      <trkpt lat="39.06044" lon="-8.832595">
        <ele>-6.0</ele>
        <time>2019-05-16T15:15:37.927Z</time>
      </trkpt>
      <trkpt lat="39.06036833" lon="-8.83255667">
        <ele>-6.0</ele>
        <time>2019-05-16T15:15:38.913Z</time>
      </trkpt>
      <trkpt lat="39.06036833" lon="-8.83255667">
        <ele>-6.0</ele>
        <time>2019-05-16T15:15:39.899Z</time>
      </trkpt>
      <trkpt lat="39.06029833" lon="-8.832515">
        <ele>-6.0</ele>
        <time>2019-05-16T15:15:40.901Z</time>
      </trkpt>
      <trkpt lat="39.06029833" lon="-8.832515">
        <ele>-6.0</ele>
        <time>2019-05-16T15:15:41.919Z</time>
      </trkpt>
      <trkpt lat="39.06022667" lon="-8.83247333">
        <ele>-6.0</ele>
        <time>2019-05-16T15:15:42.899Z</time>
      </trkpt>
      <trkpt lat="39.06022667" lon="-8.83247333">
        <ele>-6.0</ele>
        <time>2019-05-16T15:15:43.897Z</time>
      </trkpt>
      <trkpt lat="39.06015833" lon="-8.83242333">
        <ele>-6.0</ele>
        <time>2019-05-16T15:15:44.934Z</time>
      </trkpt>
      <trkpt lat="39.06015833" lon="-8.83242333">
        <ele>-6.0</ele>
        <time>2019-05-16T15:15:45.920Z</time>
      </trkpt>
      <trkpt lat="39.060095" lon="-8.83236667">
        <ele>-6.0</ele>
        <time>2019-05-16T15:15:46.909Z</time>
      </trkpt>
      <trkpt lat="39.060095" lon="-8.83236667">
        <ele>-6.0</ele>
        <time>2019-05-16T15:15:47.903Z</time>
      </trkpt>
      <trkpt lat="39.06003667" lon="-8.8323">
        <ele>-6.0</ele>
        <time>2019-05-16T15:15:48.918Z</time>
      </trkpt>
      <trkpt lat="39.06003667" lon="-8.8323">
        <ele>-6.0</ele>
        <time>2019-05-16T15:15:49.906Z</time>
      </trkpt>
      <trkpt lat="39.05999167" lon="-8.83221667">
        <ele>-6.0</ele>
        <time>2019-05-16T15:15:50.927Z</time>
      </trkpt>
      <trkpt lat="39.05999167" lon="-8.83221667">
        <ele>-6.0</ele>
        <time>2019-05-16T15:15:51.923Z</time>
      </trkpt>
      <trkpt lat="39.059965" lon="-8.83212">
        <ele>-6.0</ele>
        <time>2019-05-16T15:15:52.931Z</time>
      </trkpt>
      <trkpt lat="39.059965" lon="-8.83212">
        <ele>-6.0</ele>
        <time>2019-05-16T15:15:53.929Z</time>
      </trkpt>
      <trkpt lat="39.05995667" lon="-8.83202167">
        <ele>-6.0</ele>
        <time>2019-05-16T15:15:54.907Z</time>
      </trkpt>
      <trkpt lat="39.05995667" lon="-8.83202167">
        <ele>-6.0</ele>
        <time>2019-05-16T15:15:55.930Z</time>
      </trkpt>
      <trkpt lat="39.05996667" lon="-8.83193">
        <ele>-6.0</ele>
        <time>2019-05-16T15:15:56.906Z</time>
      </trkpt>
      <trkpt lat="39.05996667" lon="-8.83193">
        <ele>-6.0</ele>
        <time>2019-05-16T15:15:57.897Z</time>
      </trkpt>
      <trkpt lat="39.05998" lon="-8.83184167">
        <ele>-6.0</ele>
        <time>2019-05-16T15:15:58.921Z</time>
      </trkpt>
      <trkpt lat="39.05998" lon="-8.83184167">
        <ele>-6.0</ele>
        <time>2019-05-16T15:15:59.903Z</time>
      </trkpt>
      <trkpt lat="39.06000167" lon="-8.83175833">
        <ele>-6.0</ele>
        <time>2019-05-16T15:16:00.919Z</time>
      </trkpt>
      <trkpt lat="39.06001167" lon="-8.831715">
        <ele>-6.0</ele>
        <time>2019-05-16T15:16:01.922Z</time>
      </trkpt>
      <trkpt lat="39.06002333" lon="-8.83167167">
        <ele>-6.0</ele>
        <time>2019-05-16T15:16:02.907Z</time>
      </trkpt>
      <trkpt lat="39.06002333" lon="-8.83167167">
        <ele>-6.0</ele>
        <time>2019-05-16T15:16:03.927Z</time>
      </trkpt>
      <trkpt lat="39.06005" lon="-8.83159">
        <ele>-6.0</ele>
        <time>2019-05-16T15:16:04.903Z</time>
      </trkpt>
      <trkpt lat="39.06005" lon="-8.83159">
        <ele>-6.0</ele>
        <time>2019-05-16T15:16:05.930Z</time>
      </trkpt>
      <trkpt lat="39.06008167" lon="-8.83151">
        <ele>-6.0</ele>
        <time>2019-05-16T15:16:06.913Z</time>
      </trkpt>
      <trkpt lat="39.0601" lon="-8.83147">
        <ele>-6.0</ele>
        <time>2019-05-16T15:16:07.936Z</time>
      </trkpt>
      <trkpt lat="39.0601" lon="-8.83147">
        <ele>-6.0</ele>
        <time>2019-05-16T15:16:08.921Z</time>
      </trkpt>
      <trkpt lat="39.06012833" lon="-8.83138667">
        <ele>-6.0</ele>
        <time>2019-05-16T15:16:09.913Z</time>
      </trkpt>
      <trkpt lat="39.06014167" lon="-8.831345">
        <ele>-6.0</ele>
        <time>2019-05-16T15:16:10.906Z</time>
      </trkpt>
      <trkpt lat="39.06014167" lon="-8.831345">
        <ele>-6.0</ele>
        <time>2019-05-16T15:16:11.926Z</time>
      </trkpt>
      <trkpt lat="39.06018167" lon="-8.83127167">
        <ele>-6.0</ele>
        <time>2019-05-16T15:16:12.928Z</time>
      </trkpt>
      <trkpt lat="39.06018167" lon="-8.83127167">
        <ele>-6.0</ele>
        <time>2019-05-16T15:16:13.933Z</time>
      </trkpt>
      <trkpt lat="39.060225" lon="-8.83119833">
        <ele>-6.0</ele>
        <time>2019-05-16T15:16:14.916Z</time>
      </trkpt>
      <trkpt lat="39.060225" lon="-8.83119833">
        <ele>-6.0</ele>
        <time>2019-05-16T15:16:15.901Z</time>
      </trkpt>
      <trkpt lat="39.060265" lon="-8.831125">
        <ele>-6.0</ele>
        <time>2019-05-16T15:16:16.930Z</time>
      </trkpt>
      <trkpt lat="39.06028667" lon="-8.83108833">
        <ele>-6.0</ele>
        <time>2019-05-16T15:16:17.915Z</time>
      </trkpt>
      <trkpt lat="39.06028667" lon="-8.83108833">
        <ele>-6.0</ele>
        <time>2019-05-16T15:16:18.931Z</time>
      </trkpt>
      <trkpt lat="39.06032667" lon="-8.831015">
        <ele>-6.0</ele>
        <time>2019-05-16T15:16:19.897Z</time>
      </trkpt>
      <trkpt lat="39.06032667" lon="-8.831015">
        <ele>-6.0</ele>
        <time>2019-05-16T15:16:20.917Z</time>
      </trkpt>
      <trkpt lat="39.06036667" lon="-8.83094167">
        <ele>-6.0</ele>
        <time>2019-05-16T15:16:21.924Z</time>
      </trkpt>
      <trkpt lat="39.06038833" lon="-8.830905">
        <ele>-6.0</ele>
        <time>2019-05-16T15:16:22.925Z</time>
      </trkpt>
      <trkpt lat="39.06038833" lon="-8.830905">
        <ele>-6.0</ele>
        <time>2019-05-16T15:16:23.917Z</time>
      </trkpt>
      <trkpt lat="39.06043" lon="-8.83083333">
        <ele>-6.0</ele>
        <time>2019-05-16T15:16:24.947Z</time>
      </trkpt>
      <trkpt lat="39.06043" lon="-8.83083333">
        <ele>-6.0</ele>
        <time>2019-05-16T15:16:25.924Z</time>
      </trkpt>
      <trkpt lat="39.06047" lon="-8.83076">
        <ele>-6.0</ele>
        <time>2019-05-16T15:16:26.905Z</time>
      </trkpt>
      <trkpt lat="39.06047" lon="-8.83076">
        <ele>-6.0</ele>
        <time>2019-05-16T15:16:27.924Z</time>
      </trkpt>
      <trkpt lat="39.06051833" lon="-8.83069167">
        <ele>-6.0</ele>
        <time>2019-05-16T15:16:28.903Z</time>
      </trkpt>
      <trkpt lat="39.06054167" lon="-8.83066">
        <ele>-6.0</ele>
        <time>2019-05-16T15:16:29.900Z</time>
      </trkpt>
      <trkpt lat="39.06054167" lon="-8.83066">
        <ele>-6.0</ele>
        <time>2019-05-16T15:16:30.932Z</time>
      </trkpt>
      <trkpt lat="39.06059167" lon="-8.83059167">
        <ele>-6.0</ele>
        <time>2019-05-16T15:16:31.920Z</time>
      </trkpt>
      <trkpt lat="39.06059167" lon="-8.83059167">
        <ele>-6.0</ele>
        <time>2019-05-16T15:16:32.932Z</time>
      </trkpt>
      <trkpt lat="39.06064167" lon="-8.830525">
        <ele>-6.0</ele>
        <time>2019-05-16T15:16:33.901Z</time>
      </trkpt>
      <trkpt lat="39.06066833" lon="-8.83049167">
        <ele>-6.0</ele>
        <time>2019-05-16T15:16:34.904Z</time>
      </trkpt>
      <trkpt lat="39.06066833" lon="-8.83049167">
        <ele>-6.0</ele>
        <time>2019-05-16T15:16:35.898Z</time>
      </trkpt>
      <trkpt lat="39.06072" lon="-8.83042667">
        <ele>-6.0</ele>
        <time>2019-05-16T15:16:36.911Z</time>
      </trkpt>
      <trkpt lat="39.06072" lon="-8.83042667">
        <ele>-6.0</ele>
        <time>2019-05-16T15:16:37.928Z</time>
      </trkpt>
      <trkpt lat="39.06077" lon="-8.83036">
        <ele>-7.0</ele>
        <time>2019-05-16T15:16:38.906Z</time>
      </trkpt>
      <trkpt lat="39.06077" lon="-8.83036">
        <ele>-7.0</ele>
        <time>2019-05-16T15:16:39.919Z</time>
      </trkpt>
      <trkpt lat="39.06081833" lon="-8.83029667">
        <ele>-7.0</ele>
        <time>2019-05-16T15:16:40.906Z</time>
      </trkpt>
      <trkpt lat="39.06081833" lon="-8.83029667">
        <ele>-7.0</ele>
        <time>2019-05-16T15:16:41.912Z</time>
      </trkpt>
      <trkpt lat="39.06086667" lon="-8.83023333">
        <ele>-7.0</ele>
        <time>2019-05-16T15:16:42.937Z</time>
      </trkpt>
      <trkpt lat="39.06086667" lon="-8.83023333">
        <ele>-7.0</ele>
        <time>2019-05-16T15:16:43.900Z</time>
      </trkpt>
      <trkpt lat="39.06091167" lon="-8.83016667">
        <ele>-7.0</ele>
        <time>2019-05-16T15:16:44.918Z</time>
      </trkpt>
      <trkpt lat="39.06091167" lon="-8.83016667">
        <ele>-7.0</ele>
        <time>2019-05-16T15:16:45.933Z</time>
      </trkpt>
      <trkpt lat="39.06095833" lon="-8.83010333">
        <ele>-7.0</ele>
        <time>2019-05-16T15:16:46.916Z</time>
      </trkpt>
      <trkpt lat="39.06095833" lon="-8.83010333">
        <ele>-7.0</ele>
        <time>2019-05-16T15:16:47.917Z</time>
      </trkpt>
      <trkpt lat="39.06100167" lon="-8.83003333">
        <ele>-7.0</ele>
        <time>2019-05-16T15:16:48.921Z</time>
      </trkpt>
      <trkpt lat="39.06100167" lon="-8.83003333">
        <ele>-7.0</ele>
        <time>2019-05-16T15:16:49.899Z</time>
      </trkpt>
      <trkpt lat="39.06103667" lon="-8.82996167">
        <ele>-7.0</ele>
        <time>2019-05-16T15:16:50.928Z</time>
      </trkpt>
      <trkpt lat="39.06103667" lon="-8.82996167">
        <ele>-7.0</ele>
        <time>2019-05-16T15:16:51.918Z</time>
      </trkpt>
      <trkpt lat="39.06108" lon="-8.829895">
        <ele>-7.0</ele>
        <time>2019-05-16T15:16:52.908Z</time>
      </trkpt>
      <trkpt lat="39.06108" lon="-8.829895">
        <ele>-7.0</ele>
        <time>2019-05-16T15:16:53.919Z</time>
      </trkpt>
      <trkpt lat="39.061125" lon="-8.82982833">
        <ele>-7.0</ele>
        <time>2019-05-16T15:16:54.918Z</time>
      </trkpt>
      <trkpt lat="39.061125" lon="-8.82982833">
        <ele>-7.0</ele>
        <time>2019-05-16T15:16:55.902Z</time>
      </trkpt>
      <trkpt lat="39.06116833" lon="-8.82976333">
        <ele>-7.0</ele>
        <time>2019-05-16T15:16:56.919Z</time>
      </trkpt>
      <trkpt lat="39.06116833" lon="-8.82976333">
        <ele>-7.0</ele>
        <time>2019-05-16T15:16:57.902Z</time>
      </trkpt>
      <trkpt lat="39.061215" lon="-8.82970333">
        <ele>-7.0</ele>
        <time>2019-05-16T15:16:58.912Z</time>
      </trkpt>
      <trkpt lat="39.061215" lon="-8.82970333">
        <ele>-7.0</ele>
        <time>2019-05-16T15:16:59.906Z</time>
      </trkpt>
      <trkpt lat="39.06125667" lon="-8.82964333">
        <ele>-7.0</ele>
        <time>2019-05-16T15:17:00.927Z</time>
      </trkpt>
      <trkpt lat="39.06127667" lon="-8.82961167">
        <ele>-7.0</ele>
        <time>2019-05-16T15:17:01.912Z</time>
      </trkpt>
      <trkpt lat="39.06129667" lon="-8.82958167">
        <ele>-7.0</ele>
        <time>2019-05-16T15:17:02.906Z</time>
      </trkpt>
      <trkpt lat="39.06129667" lon="-8.82958167">
        <ele>-7.0</ele>
        <time>2019-05-16T15:17:03.923Z</time>
      </trkpt>
      <trkpt lat="39.06133" lon="-8.82951333">
        <ele>-7.0</ele>
        <time>2019-05-16T15:17:04.907Z</time>
      </trkpt>
      <trkpt lat="39.06133" lon="-8.82951333">
        <ele>-7.0</ele>
        <time>2019-05-16T15:17:05.903Z</time>
      </trkpt>
      <trkpt lat="39.06135833" lon="-8.82944333">
        <ele>-7.0</ele>
        <time>2019-05-16T15:17:06.925Z</time>
      </trkpt>
      <trkpt lat="39.06135833" lon="-8.82944333">
        <ele>-7.0</ele>
        <time>2019-05-16T15:17:07.916Z</time>
      </trkpt>
      <trkpt lat="39.061375" lon="-8.82936833">
        <ele>-7.0</ele>
        <time>2019-05-16T15:17:08.915Z</time>
      </trkpt>
      <trkpt lat="39.061375" lon="-8.82936833">
        <ele>-7.0</ele>
        <time>2019-05-16T15:17:09.909Z</time>
      </trkpt>
      <trkpt lat="39.061375" lon="-8.82929667">
        <ele>-7.0</ele>
        <time>2019-05-16T15:17:10.907Z</time>
      </trkpt>
      <trkpt lat="39.06137333" lon="-8.82926167">
        <ele>-7.0</ele>
        <time>2019-05-16T15:17:11.899Z</time>
      </trkpt>
      <trkpt lat="39.06137333" lon="-8.82926167">
        <ele>-7.0</ele>
        <time>2019-05-16T15:17:12.923Z</time>
      </trkpt>
      <trkpt lat="39.06135833" lon="-8.82918833">
        <ele>-7.0</ele>
        <time>2019-05-16T15:17:13.899Z</time>
      </trkpt>
      <trkpt lat="39.06135833" lon="-8.82918833">
        <ele>-7.0</ele>
        <time>2019-05-16T15:17:14.899Z</time>
      </trkpt>
      <trkpt lat="39.06132667" lon="-8.829125">
        <ele>-7.0</ele>
        <time>2019-05-16T15:17:15.923Z</time>
      </trkpt>
      <trkpt lat="39.06132667" lon="-8.829125">
        <ele>-7.0</ele>
        <time>2019-05-16T15:17:16.930Z</time>
      </trkpt>
      <trkpt lat="39.06129333" lon="-8.82906167">
        <ele>-7.0</ele>
        <time>2019-05-16T15:17:17.907Z</time>
      </trkpt>
      <trkpt lat="39.06129333" lon="-8.82906167">
        <ele>-7.0</ele>
        <time>2019-05-16T15:17:18.910Z</time>
      </trkpt>
      <trkpt lat="39.06126167" lon="-8.82899667">
        <ele>-7.0</ele>
        <time>2019-05-16T15:17:19.935Z</time>
      </trkpt>
      <trkpt lat="39.06126167" lon="-8.82899667">
        <ele>-7.0</ele>
        <time>2019-05-16T15:17:20.933Z</time>
      </trkpt>
      <trkpt lat="39.061225" lon="-8.82893">
        <ele>-7.0</ele>
        <time>2019-05-16T15:17:21.905Z</time>
      </trkpt>
      <trkpt lat="39.06120333" lon="-8.82889833">
        <ele>-7.0</ele>
        <time>2019-05-16T15:17:22.918Z</time>
      </trkpt>
      <trkpt lat="39.06118" lon="-8.828865">
        <ele>-7.0</ele>
        <time>2019-05-16T15:17:23.923Z</time>
      </trkpt>
      <trkpt lat="39.06118" lon="-8.828865">
        <ele>-7.0</ele>
        <time>2019-05-16T15:17:24.925Z</time>
      </trkpt>
      <trkpt lat="39.061135" lon="-8.82880167">
        <ele>-7.0</ele>
        <time>2019-05-16T15:17:25.901Z</time>
      </trkpt>
      <trkpt lat="39.061135" lon="-8.82880167">
        <ele>-7.0</ele>
        <time>2019-05-16T15:17:26.934Z</time>
      </trkpt>
      <trkpt lat="39.06109333" lon="-8.82873833">
        <ele>-7.0</ele>
        <time>2019-05-16T15:17:27.910Z</time>
      </trkpt>
      <trkpt lat="39.06109333" lon="-8.82873833">
        <ele>-7.0</ele>
        <time>2019-05-16T15:17:28.911Z</time>
      </trkpt>
      <trkpt lat="39.06105167" lon="-8.82867833">
        <ele>-7.0</ele>
        <time>2019-05-16T15:17:29.902Z</time>
      </trkpt>
      <trkpt lat="39.06105167" lon="-8.82867833">
        <ele>-7.0</ele>
        <time>2019-05-16T15:17:30.918Z</time>
      </trkpt>
      <trkpt lat="39.06101167" lon="-8.828615">
        <ele>-7.0</ele>
        <time>2019-05-16T15:17:31.902Z</time>
      </trkpt>
      <trkpt lat="39.06099" lon="-8.82858333">
        <ele>-7.0</ele>
        <time>2019-05-16T15:17:32.919Z</time>
      </trkpt>
      <trkpt lat="39.06099" lon="-8.82858333">
        <ele>-7.0</ele>
        <time>2019-05-16T15:17:33.932Z</time>
      </trkpt>
      <trkpt lat="39.06094333" lon="-8.82852167">
        <ele>-7.0</ele>
        <time>2019-05-16T15:17:34.913Z</time>
      </trkpt>
      <trkpt lat="39.06092167" lon="-8.82849">
        <ele>-7.0</ele>
        <time>2019-05-16T15:17:35.904Z</time>
      </trkpt>
      <trkpt lat="39.06092167" lon="-8.82849">
        <ele>-7.0</ele>
        <time>2019-05-16T15:17:36.902Z</time>
      </trkpt>
      <trkpt lat="39.06087833" lon="-8.82842667">
        <ele>-8.0</ele>
        <time>2019-05-16T15:17:37.901Z</time>
      </trkpt>
      <trkpt lat="39.06086" lon="-8.828395">
        <ele>-8.0</ele>
        <time>2019-05-16T15:17:38.912Z</time>
      </trkpt>
      <trkpt lat="39.06086" lon="-8.828395">
        <ele>-8.0</ele>
        <time>2019-05-16T15:17:39.929Z</time>
      </trkpt>
      <trkpt lat="39.06082" lon="-8.828335">
        <ele>-8.0</ele>
        <time>2019-05-16T15:17:40.931Z</time>
      </trkpt>
      <trkpt lat="39.06082" lon="-8.828335">
        <ele>-8.0</ele>
        <time>2019-05-16T15:17:41.916Z</time>
      </trkpt>
      <trkpt lat="39.06077667" lon="-8.82827667">
        <ele>-8.0</ele>
        <time>2019-05-16T15:17:42.933Z</time>
      </trkpt>
      <trkpt lat="39.06077667" lon="-8.82827667">
        <ele>-8.0</ele>
        <time>2019-05-16T15:17:43.908Z</time>
      </trkpt>
      <trkpt lat="39.06073667" lon="-8.82821333">
        <ele>-8.0</ele>
        <time>2019-05-16T15:17:44.934Z</time>
      </trkpt>
      <trkpt lat="39.06073667" lon="-8.82821333">
        <ele>-8.0</ele>
        <time>2019-05-16T15:17:45.923Z</time>
      </trkpt>
      <trkpt lat="39.060695" lon="-8.82814833">
        <ele>-8.0</ele>
        <time>2019-05-16T15:17:46.898Z</time>
      </trkpt>
      <trkpt lat="39.06067333" lon="-8.82811333">
        <ele>-8.0</ele>
        <time>2019-05-16T15:17:47.936Z</time>
      </trkpt>
      <trkpt lat="39.06067333" lon="-8.82811333">
        <ele>-8.0</ele>
        <time>2019-05-16T15:17:48.912Z</time>
      </trkpt>
      <trkpt lat="39.06062833" lon="-8.82804333">
        <ele>-8.0</ele>
        <time>2019-05-16T15:17:49.901Z</time>
      </trkpt>
      <trkpt lat="39.060605" lon="-8.82800833">
        <ele>-8.0</ele>
        <time>2019-05-16T15:17:50.935Z</time>
      </trkpt>
      <trkpt lat="39.060605" lon="-8.82800833">
        <ele>-8.0</ele>
        <time>2019-05-16T15:17:51.925Z</time>
      </trkpt>
      <trkpt lat="39.06055833" lon="-8.82794167">
        <ele>-8.0</ele>
        <time>2019-05-16T15:17:52.901Z</time>
      </trkpt>
      <trkpt lat="39.06053333" lon="-8.82791167">
        <ele>-8.0</ele>
        <time>2019-05-16T15:17:53.934Z</time>
      </trkpt>
      <trkpt lat="39.06053333" lon="-8.82791167">
        <ele>-8.0</ele>
        <time>2019-05-16T15:17:54.919Z</time>
      </trkpt>
      <trkpt lat="39.06048667" lon="-8.82785167">
        <ele>-8.0</ele>
        <time>2019-05-16T15:17:55.904Z</time>
      </trkpt>
      <trkpt lat="39.06046667" lon="-8.82782167">
        <ele>-8.0</ele>
        <time>2019-05-16T15:17:56.902Z</time>
      </trkpt>
      <trkpt lat="39.06046667" lon="-8.82782167">
        <ele>-8.0</ele>
        <time>2019-05-16T15:17:57.930Z</time>
      </trkpt>
      <trkpt lat="39.060425" lon="-8.82775833">
        <ele>-8.0</ele>
        <time>2019-05-16T15:17:58.916Z</time>
      </trkpt>
      <trkpt lat="39.060425" lon="-8.82775833">
        <ele>-8.0</ele>
        <time>2019-05-16T15:17:59.930Z</time>
      </trkpt>
      <trkpt lat="39.060385" lon="-8.82769333">
        <ele>-8.0</ele>
        <time>2019-05-16T15:18:00.935Z</time>
      </trkpt>
      <trkpt lat="39.060365" lon="-8.827665">
        <ele>-8.0</ele>
        <time>2019-05-16T15:18:01.913Z</time>
      </trkpt>
      <trkpt lat="39.06034667" lon="-8.827635">
        <ele>-8.0</ele>
        <time>2019-05-16T15:18:02.938Z</time>
      </trkpt>
      <trkpt lat="39.06034667" lon="-8.827635">
        <ele>-8.0</ele>
        <time>2019-05-16T15:18:03.905Z</time>
      </trkpt>
      <trkpt lat="39.06031167" lon="-8.82757333">
        <ele>-8.0</ele>
        <time>2019-05-16T15:18:04.901Z</time>
      </trkpt>
      <trkpt lat="39.06031167" lon="-8.82757333">
        <ele>-8.0</ele>
        <time>2019-05-16T15:18:05.933Z</time>
      </trkpt>
      <trkpt lat="39.06027167" lon="-8.82751333">
        <ele>-8.0</ele>
        <time>2019-05-16T15:18:06.912Z</time>
      </trkpt>
      <trkpt lat="39.06027167" lon="-8.82751333">
        <ele>-8.0</ele>
        <time>2019-05-16T15:18:07.927Z</time>
      </trkpt>
      <trkpt lat="39.06023667" lon="-8.82745167">
        <ele>-8.0</ele>
        <time>2019-05-16T15:18:08.904Z</time>
      </trkpt>
      <trkpt lat="39.06023667" lon="-8.82745167">
        <ele>-8.0</ele>
        <time>2019-05-16T15:18:09.925Z</time>
      </trkpt>
      <trkpt lat="39.06020333" lon="-8.827385">
        <ele>-8.0</ele>
        <time>2019-05-16T15:18:10.911Z</time>
      </trkpt>
      <trkpt lat="39.06020333" lon="-8.827385">
        <ele>-8.0</ele>
        <time>2019-05-16T15:18:11.930Z</time>
      </trkpt>
      <trkpt lat="39.06017167" lon="-8.82731333">
        <ele>-8.0</ele>
        <time>2019-05-16T15:18:12.915Z</time>
      </trkpt>
      <trkpt lat="39.06017167" lon="-8.82731333">
        <ele>-8.0</ele>
        <time>2019-05-16T15:18:13.912Z</time>
      </trkpt>
      <trkpt lat="39.06014" lon="-8.82723833">
        <ele>-8.0</ele>
        <time>2019-05-16T15:18:14.908Z</time>
      </trkpt>
      <trkpt lat="39.06014" lon="-8.82723833">
        <ele>-8.0</ele>
        <time>2019-05-16T15:18:15.928Z</time>
      </trkpt>
      <trkpt lat="39.06011" lon="-8.82716167">
        <ele>-8.0</ele>
        <time>2019-05-16T15:18:16.977Z</time>
      </trkpt>
      <trkpt lat="39.06011" lon="-8.82716167">
        <ele>-8.0</ele>
        <time>2019-05-16T15:18:17.916Z</time>
      </trkpt>
      <trkpt lat="39.06008" lon="-8.82708333">
        <ele>-8.0</ele>
        <time>2019-05-16T15:18:18.938Z</time>
      </trkpt>
      <trkpt lat="39.06008" lon="-8.82708333">
        <ele>-8.0</ele>
        <time>2019-05-16T15:18:19.926Z</time>
      </trkpt>
      <trkpt lat="39.060055" lon="-8.82700333">
        <ele>-8.0</ele>
        <time>2019-05-16T15:18:20.916Z</time>
      </trkpt>
      <trkpt lat="39.060055" lon="-8.82700333">
        <ele>-8.0</ele>
        <time>2019-05-16T15:18:21.919Z</time>
      </trkpt>
      <trkpt lat="39.06003167" lon="-8.82692167">
        <ele>-8.0</ele>
        <time>2019-05-16T15:18:22.935Z</time>
      </trkpt>
      <trkpt lat="39.06003167" lon="-8.82692167">
        <ele>-8.0</ele>
        <time>2019-05-16T15:18:23.907Z</time>
      </trkpt>
      <trkpt lat="39.06001" lon="-8.82683833">
        <ele>-8.0</ele>
        <time>2019-05-16T15:18:24.941Z</time>
      </trkpt>
      <trkpt lat="39.06" lon="-8.82679667">
        <ele>-8.0</ele>
        <time>2019-05-16T15:18:25.936Z</time>
      </trkpt>
      <trkpt lat="39.06" lon="-8.82679667">
        <ele>-8.0</ele>
        <time>2019-05-16T15:18:26.933Z</time>
      </trkpt>
      <trkpt lat="39.05998" lon="-8.82670833">
        <ele>-8.0</ele>
        <time>2019-05-16T15:18:27.929Z</time>
      </trkpt>
      <trkpt lat="39.05998" lon="-8.82670833">
        <ele>-8.0</ele>
        <time>2019-05-16T15:18:28.898Z</time>
      </trkpt>
      <trkpt lat="39.05996333" lon="-8.82662">
        <ele>-8.0</ele>
        <time>2019-05-16T15:18:29.925Z</time>
      </trkpt>
      <trkpt lat="39.05996333" lon="-8.82662">
        <ele>-8.0</ele>
        <time>2019-05-16T15:18:30.899Z</time>
      </trkpt>
      <trkpt lat="39.05995" lon="-8.82653">
        <ele>-8.0</ele>
        <time>2019-05-16T15:18:31.920Z</time>
      </trkpt>
      <trkpt lat="39.05995" lon="-8.82653">
        <ele>-8.0</ele>
        <time>2019-05-16T15:18:32.907Z</time>
      </trkpt>
      <trkpt lat="39.05993667" lon="-8.826435">
        <ele>-8.0</ele>
        <time>2019-05-16T15:18:33.925Z</time>
      </trkpt>
      <trkpt lat="39.059935" lon="-8.82638833">
        <ele>-8.0</ele>
        <time>2019-05-16T15:18:34.919Z</time>
      </trkpt>
      <trkpt lat="39.059935" lon="-8.82638833">
        <ele>-8.0</ele>
        <time>2019-05-16T15:18:35.933Z</time>
      </trkpt>
      <trkpt lat="39.05993833" lon="-8.82629167">
        <ele>-8.0</ele>
        <time>2019-05-16T15:18:36.935Z</time>
      </trkpt>
      <trkpt lat="39.05993833" lon="-8.82629167">
        <ele>-8.0</ele>
        <time>2019-05-16T15:18:37.920Z</time>
      </trkpt>
      <trkpt lat="39.05995667" lon="-8.82619833">
        <ele>-7.0</ele>
        <time>2019-05-16T15:18:38.903Z</time>
      </trkpt>
      <trkpt lat="39.05995667" lon="-8.82619833">
        <ele>-7.0</ele>
        <time>2019-05-16T15:18:39.938Z</time>
      </trkpt>
      <trkpt lat="39.059975" lon="-8.82611">
        <ele>-7.0</ele>
        <time>2019-05-16T15:18:40.935Z</time>
      </trkpt>
      <trkpt lat="39.059985" lon="-8.82607">
        <ele>-7.0</ele>
        <time>2019-05-16T15:18:41.910Z</time>
      </trkpt>
      <trkpt lat="39.059985" lon="-8.82607">
        <ele>-7.0</ele>
        <time>2019-05-16T15:18:42.920Z</time>
      </trkpt>
      <trkpt lat="39.06000833" lon="-8.82599167">
        <ele>-7.0</ele>
        <time>2019-05-16T15:18:43.911Z</time>
      </trkpt>
      <trkpt lat="39.06000833" lon="-8.82599167">
        <ele>-7.0</ele>
        <time>2019-05-16T15:18:44.923Z</time>
      </trkpt>
      <trkpt lat="39.060035" lon="-8.82592">
        <ele>-7.0</ele>
        <time>2019-05-16T15:18:45.899Z</time>
      </trkpt>
      <trkpt lat="39.060035" lon="-8.82592">
        <ele>-7.0</ele>
        <time>2019-05-16T15:18:46.922Z</time>
      </trkpt>
      <trkpt lat="39.06004333" lon="-8.825845">
        <ele>-7.0</ele>
        <time>2019-05-16T15:18:47.903Z</time>
      </trkpt>
      <trkpt lat="39.06004333" lon="-8.825845">
        <ele>-7.0</ele>
        <time>2019-05-16T15:18:48.916Z</time>
      </trkpt>
      <trkpt lat="39.060045" lon="-8.825775">
        <ele>-6.0</ele>
        <time>2019-05-16T15:18:49.938Z</time>
      </trkpt>
      <trkpt lat="39.06004833" lon="-8.82574833">
        <ele>-6.0</ele>
        <time>2019-05-16T15:18:50.908Z</time>
      </trkpt>
      <trkpt lat="39.06004833" lon="-8.82574833">
        <ele>-6.0</ele>
        <time>2019-05-16T15:18:51.921Z</time>
      </trkpt>
      <trkpt lat="39.06006667" lon="-8.82571167">
        <ele>-6.0</ele>
        <time>2019-05-16T15:18:52.905Z</time>
      </trkpt>
      <trkpt lat="39.06008167" lon="-8.82569667">
        <ele>-6.0</ele>
        <time>2019-05-16T15:18:53.904Z</time>
      </trkpt>
      <trkpt lat="39.06008167" lon="-8.82569667">
        <ele>-6.0</ele>
        <time>2019-05-16T15:18:54.903Z</time>
      </trkpt>
      <trkpt lat="39.06012167" lon="-8.82569">
        <ele>-6.0</ele>
        <time>2019-05-16T15:18:55.931Z</time>
      </trkpt>
      <trkpt lat="39.06012167" lon="-8.82569">
        <ele>-6.0</ele>
        <time>2019-05-16T15:18:56.903Z</time>
      </trkpt>
      <trkpt lat="39.06016833" lon="-8.82568667">
        <ele>-6.0</ele>
        <time>2019-05-16T15:18:57.904Z</time>
      </trkpt>
      <trkpt lat="39.06019333" lon="-8.82567667">
        <ele>-6.0</ele>
        <time>2019-05-16T15:18:58.902Z</time>
      </trkpt>
      <trkpt lat="39.06022" lon="-8.82566833">
        <ele>-6.0</ele>
        <time>2019-05-16T15:18:59.931Z</time>
      </trkpt>
      <trkpt lat="39.06022" lon="-8.82566833">
        <ele>-6.0</ele>
        <time>2019-05-16T15:19:00.916Z</time>
      </trkpt>
      <trkpt lat="39.06027333" lon="-8.82566333">
        <ele>-5.0</ele>
        <time>2019-05-16T15:19:01.901Z</time>
      </trkpt>
      <trkpt lat="39.0603" lon="-8.82566333">
        <ele>-5.0</ele>
        <time>2019-05-16T15:19:02.901Z</time>
      </trkpt>
      <trkpt lat="39.0603" lon="-8.82566333">
        <ele>-5.0</ele>
        <time>2019-05-16T15:19:03.922Z</time>
      </trkpt>
      <trkpt lat="39.06035167" lon="-8.82565667">
        <ele>-5.0</ele>
        <time>2019-05-16T15:19:04.934Z</time>
      </trkpt>
      <trkpt lat="39.06035167" lon="-8.82565667">
        <ele>-5.0</ele>
        <time>2019-05-16T15:19:05.933Z</time>
      </trkpt>
      <trkpt lat="39.06040833" lon="-8.82564333">
        <ele>-5.0</ele>
        <time>2019-05-16T15:19:06.899Z</time>
      </trkpt>
      <trkpt lat="39.06040833" lon="-8.82564333">
        <ele>-5.0</ele>
        <time>2019-05-16T15:19:07.901Z</time>
      </trkpt>
      <trkpt lat="39.06046333" lon="-8.82563667">
        <ele>-5.0</ele>
        <time>2019-05-16T15:19:08.923Z</time>
      </trkpt>
      <trkpt lat="39.06046333" lon="-8.82563667">
        <ele>-5.0</ele>
        <time>2019-05-16T15:19:09.902Z</time>
      </trkpt>
      <trkpt lat="39.06052" lon="-8.825625">
        <ele>-5.0</ele>
        <time>2019-05-16T15:19:10.920Z</time>
      </trkpt>
      <trkpt lat="39.06052" lon="-8.825625">
        <ele>-5.0</ele>
        <time>2019-05-16T15:19:11.933Z</time>
      </trkpt>
      <trkpt lat="39.06058" lon="-8.82561333">
        <ele>-5.0</ele>
        <time>2019-05-16T15:19:12.921Z</time>
      </trkpt>
      <trkpt lat="39.06058" lon="-8.82561333">
        <ele>-5.0</ele>
        <time>2019-05-16T15:19:13.905Z</time>
      </trkpt>
      <trkpt lat="39.06064" lon="-8.82560167">
        <ele>-5.0</ele>
        <time>2019-05-16T15:19:14.920Z</time>
      </trkpt>
      <trkpt lat="39.06064" lon="-8.82560167">
        <ele>-5.0</ele>
        <time>2019-05-16T15:19:15.932Z</time>
      </trkpt>
      <trkpt lat="39.06070333" lon="-8.82558833">
        <ele>-5.0</ele>
        <time>2019-05-16T15:19:16.923Z</time>
      </trkpt>
      <trkpt lat="39.06070333" lon="-8.82558833">
        <ele>-5.0</ele>
        <time>2019-05-16T15:19:17.924Z</time>
      </trkpt>
      <trkpt lat="39.06077" lon="-8.825575">
        <ele>-5.0</ele>
        <time>2019-05-16T15:19:18.902Z</time>
      </trkpt>
      <trkpt lat="39.06077" lon="-8.825575">
        <ele>-5.0</ele>
        <time>2019-05-16T15:19:19.930Z</time>
      </trkpt>
      <trkpt lat="39.06083667" lon="-8.82556167">
        <ele>-5.0</ele>
        <time>2019-05-16T15:19:20.901Z</time>
      </trkpt>
      <trkpt lat="39.06083667" lon="-8.82556167">
        <ele>-5.0</ele>
        <time>2019-05-16T15:19:21.901Z</time>
      </trkpt>
      <trkpt lat="39.060905" lon="-8.82555167">
        <ele>-5.0</ele>
        <time>2019-05-16T15:19:22.927Z</time>
      </trkpt>
      <trkpt lat="39.060905" lon="-8.82555167">
        <ele>-5.0</ele>
        <time>2019-05-16T15:19:23.913Z</time>
      </trkpt>
      <trkpt lat="39.06097667" lon="-8.82553833">
        <ele>-5.0</ele>
        <time>2019-05-16T15:19:24.939Z</time>
      </trkpt>
      <trkpt lat="39.06097667" lon="-8.82553833">
        <ele>-5.0</ele>
        <time>2019-05-16T15:19:25.919Z</time>
      </trkpt>
      <trkpt lat="39.06105167" lon="-8.82552333">
        <ele>-5.0</ele>
        <time>2019-05-16T15:19:26.900Z</time>
      </trkpt>
      <trkpt lat="39.06105167" lon="-8.82552333">
        <ele>-5.0</ele>
        <time>2019-05-16T15:19:27.909Z</time>
      </trkpt>
      <trkpt lat="39.06112833" lon="-8.82551">
        <ele>-5.0</ele>
        <time>2019-05-16T15:19:28.932Z</time>
      </trkpt>
      <trkpt lat="39.06112833" lon="-8.82551">
        <ele>-5.0</ele>
        <time>2019-05-16T15:19:29.906Z</time>
      </trkpt>
      <trkpt lat="39.06120667" lon="-8.82549333">
        <ele>-5.0</ele>
        <time>2019-05-16T15:19:30.940Z</time>
      </trkpt>
      <trkpt lat="39.06120667" lon="-8.82549333">
        <ele>-5.0</ele>
        <time>2019-05-16T15:19:31.934Z</time>
      </trkpt>
      <trkpt lat="39.06128667" lon="-8.82548">
        <ele>-5.0</ele>
        <time>2019-05-16T15:19:32.919Z</time>
      </trkpt>
      <trkpt lat="39.06128667" lon="-8.82548">
        <ele>-5.0</ele>
        <time>2019-05-16T15:19:33.907Z</time>
      </trkpt>
      <trkpt lat="39.06136667" lon="-8.82546833">
        <ele>-5.0</ele>
        <time>2019-05-16T15:19:34.933Z</time>
      </trkpt>
      <trkpt lat="39.06136667" lon="-8.82546833">
        <ele>-5.0</ele>
        <time>2019-05-16T15:19:35.935Z</time>
      </trkpt>
      <trkpt lat="39.06144667" lon="-8.82545333">
        <ele>-5.0</ele>
        <time>2019-05-16T15:19:36.922Z</time>
      </trkpt>
      <trkpt lat="39.06144667" lon="-8.82545333">
        <ele>-5.0</ele>
        <time>2019-05-16T15:19:37.919Z</time>
      </trkpt>
      <trkpt lat="39.061525" lon="-8.825435">
        <ele>-5.0</ele>
        <time>2019-05-16T15:19:38.902Z</time>
      </trkpt>
      <trkpt lat="39.061525" lon="-8.825435">
        <ele>-5.0</ele>
        <time>2019-05-16T15:19:39.936Z</time>
      </trkpt>
      <trkpt lat="39.06160167" lon="-8.82541667">
        <ele>-5.0</ele>
        <time>2019-05-16T15:19:40.923Z</time>
      </trkpt>
      <trkpt lat="39.06160167" lon="-8.82541667">
        <ele>-5.0</ele>
        <time>2019-05-16T15:19:41.925Z</time>
      </trkpt>
      <trkpt lat="39.06167833" lon="-8.82539167">
        <ele>-5.0</ele>
        <time>2019-05-16T15:19:42.897Z</time>
      </trkpt>
      <trkpt lat="39.06167833" lon="-8.82539167">
        <ele>-5.0</ele>
        <time>2019-05-16T15:19:43.922Z</time>
      </trkpt>
      <trkpt lat="39.06175333" lon="-8.825365">
        <ele>-5.0</ele>
        <time>2019-05-16T15:19:44.903Z</time>
      </trkpt>
      <trkpt lat="39.06175333" lon="-8.825365">
        <ele>-5.0</ele>
        <time>2019-05-16T15:19:45.902Z</time>
      </trkpt>
      <trkpt lat="39.06182833" lon="-8.825335">
        <ele>-5.0</ele>
        <time>2019-05-16T15:19:46.925Z</time>
      </trkpt>
      <trkpt lat="39.06186333" lon="-8.82532167">
        <ele>-5.0</ele>
        <time>2019-05-16T15:19:47.911Z</time>
      </trkpt>
      <trkpt lat="39.06186333" lon="-8.82532167">
        <ele>-5.0</ele>
        <time>2019-05-16T15:19:48.922Z</time>
      </trkpt>
      <trkpt lat="39.061935" lon="-8.82528833">
        <ele>-5.0</ele>
        <time>2019-05-16T15:19:49.907Z</time>
      </trkpt>
      <trkpt lat="39.06197167" lon="-8.82527">
        <ele>-5.0</ele>
        <time>2019-05-16T15:19:50.900Z</time>
      </trkpt>
      <trkpt lat="39.06197167" lon="-8.82527">
        <ele>-5.0</ele>
        <time>2019-05-16T15:19:51.926Z</time>
      </trkpt>
      <trkpt lat="39.06204167" lon="-8.82523333">
        <ele>-5.0</ele>
        <time>2019-05-16T15:19:52.901Z</time>
      </trkpt>
      <trkpt lat="39.06204167" lon="-8.82523333">
        <ele>-5.0</ele>
        <time>2019-05-16T15:19:53.933Z</time>
      </trkpt>
      <trkpt lat="39.06211" lon="-8.825195">
        <ele>-5.0</ele>
        <time>2019-05-16T15:19:54.910Z</time>
      </trkpt>
      <trkpt lat="39.06211" lon="-8.825195">
        <ele>-5.0</ele>
        <time>2019-05-16T15:19:55.904Z</time>
      </trkpt>
      <trkpt lat="39.062175" lon="-8.82515667">
        <ele>-5.0</ele>
        <time>2019-05-16T15:19:56.917Z</time>
      </trkpt>
      <trkpt lat="39.062175" lon="-8.82515667">
        <ele>-5.0</ele>
        <time>2019-05-16T15:19:57.903Z</time>
      </trkpt>
      <trkpt lat="39.06223667" lon="-8.82511333">
        <ele>-5.0</ele>
        <time>2019-05-16T15:19:58.931Z</time>
      </trkpt>
      <trkpt lat="39.06227" lon="-8.82509">
        <ele>-5.0</ele>
        <time>2019-05-16T15:19:59.925Z</time>
      </trkpt>
      <trkpt lat="39.06227" lon="-8.82509">
        <ele>-5.0</ele>
        <time>2019-05-16T15:20:00.898Z</time>
      </trkpt>
      <trkpt lat="39.062335" lon="-8.82504333">
        <ele>-5.0</ele>
        <time>2019-05-16T15:20:01.911Z</time>
      </trkpt>
      <trkpt lat="39.06236833" lon="-8.82501833">
        <ele>-5.0</ele>
        <time>2019-05-16T15:20:02.933Z</time>
      </trkpt>
      <trkpt lat="39.06236833" lon="-8.82501833">
        <ele>-5.0</ele>
        <time>2019-05-16T15:20:03.919Z</time>
      </trkpt>
      <trkpt lat="39.06243667" lon="-8.82497167">
        <ele>-5.0</ele>
        <time>2019-05-16T15:20:04.901Z</time>
      </trkpt>
      <trkpt lat="39.06243667" lon="-8.82497167">
        <ele>-5.0</ele>
        <time>2019-05-16T15:20:05.927Z</time>
      </trkpt>
      <trkpt lat="39.06250333" lon="-8.82492667">
        <ele>-5.0</ele>
        <time>2019-05-16T15:20:06.909Z</time>
      </trkpt>
      <trkpt lat="39.06250333" lon="-8.82492667">
        <ele>-5.0</ele>
        <time>2019-05-16T15:20:07.918Z</time>
      </trkpt>
      <trkpt lat="39.06256833" lon="-8.82488">
        <ele>-5.0</ele>
        <time>2019-05-16T15:20:08.907Z</time>
      </trkpt>
      <trkpt lat="39.06256833" lon="-8.82488">
        <ele>-5.0</ele>
        <time>2019-05-16T15:20:09.931Z</time>
      </trkpt>
      <trkpt lat="39.062635" lon="-8.82483333">
        <ele>-5.0</ele>
        <time>2019-05-16T15:20:10.927Z</time>
      </trkpt>
      <trkpt lat="39.062635" lon="-8.82483333">
        <ele>-5.0</ele>
        <time>2019-05-16T15:20:11.914Z</time>
      </trkpt>
      <trkpt lat="39.0627" lon="-8.82478833">
        <ele>-5.0</ele>
        <time>2019-05-16T15:20:12.897Z</time>
      </trkpt>
      <trkpt lat="39.0627" lon="-8.82478833">
        <ele>-5.0</ele>
        <time>2019-05-16T15:20:13.904Z</time>
      </trkpt>
      <trkpt lat="39.062765" lon="-8.82474167">
        <ele>-5.0</ele>
        <time>2019-05-16T15:20:14.923Z</time>
      </trkpt>
      <trkpt lat="39.062765" lon="-8.82474167">
        <ele>-5.0</ele>
        <time>2019-05-16T15:20:15.935Z</time>
      </trkpt>
      <trkpt lat="39.06283" lon="-8.82469333">
        <ele>-5.0</ele>
        <time>2019-05-16T15:20:16.915Z</time>
      </trkpt>
      <trkpt lat="39.06286167" lon="-8.82466833">
        <ele>-5.0</ele>
        <time>2019-05-16T15:20:17.917Z</time>
      </trkpt>
      <trkpt lat="39.06286167" lon="-8.82466833">
        <ele>-5.0</ele>
        <time>2019-05-16T15:20:18.916Z</time>
      </trkpt>
      <trkpt lat="39.06292667" lon="-8.82462333">
        <ele>-5.0</ele>
        <time>2019-05-16T15:20:19.931Z</time>
      </trkpt>
      <trkpt lat="39.06292667" lon="-8.82462333">
        <ele>-5.0</ele>
        <time>2019-05-16T15:20:20.922Z</time>
      </trkpt>
      <trkpt lat="39.06299" lon="-8.82457667">
        <ele>-5.0</ele>
        <time>2019-05-16T15:20:21.941Z</time>
      </trkpt>
      <trkpt lat="39.06299" lon="-8.82457667">
        <ele>-5.0</ele>
        <time>2019-05-16T15:20:22.929Z</time>
      </trkpt>
      <trkpt lat="39.06305333" lon="-8.824535">
        <ele>-6.0</ele>
        <time>2019-05-16T15:20:23.910Z</time>
      </trkpt>
      <trkpt lat="39.06305333" lon="-8.824535">
        <ele>-6.0</ele>
        <time>2019-05-16T15:20:24.903Z</time>
      </trkpt>
      <trkpt lat="39.063115" lon="-8.82449333">
        <ele>-6.0</ele>
        <time>2019-05-16T15:20:25.933Z</time>
      </trkpt>
      <trkpt lat="39.063145" lon="-8.82447333">
        <ele>-6.0</ele>
        <time>2019-05-16T15:20:26.929Z</time>
      </trkpt>
      <trkpt lat="39.063145" lon="-8.82447333">
        <ele>-6.0</ele>
        <time>2019-05-16T15:20:27.925Z</time>
      </trkpt>
      <trkpt lat="39.06320833" lon="-8.82443167">
        <ele>-6.0</ele>
        <time>2019-05-16T15:20:28.906Z</time>
      </trkpt>
      <trkpt lat="39.06320833" lon="-8.82443167">
        <ele>-6.0</ele>
        <time>2019-05-16T15:20:29.905Z</time>
      </trkpt>
      <trkpt lat="39.06327167" lon="-8.82438667">
        <ele>-6.0</ele>
        <time>2019-05-16T15:20:30.932Z</time>
      </trkpt>
      <trkpt lat="39.06330333" lon="-8.82436167">
        <ele>-6.0</ele>
        <time>2019-05-16T15:20:31.904Z</time>
      </trkpt>
      <trkpt lat="39.06333667" lon="-8.82433667">
        <ele>-6.0</ele>
        <time>2019-05-16T15:20:32.903Z</time>
      </trkpt>
      <trkpt lat="39.06333667" lon="-8.82433667">
        <ele>-6.0</ele>
        <time>2019-05-16T15:20:33.924Z</time>
      </trkpt>
      <trkpt lat="39.06340167" lon="-8.82428833">
        <ele>-6.0</ele>
        <time>2019-05-16T15:20:34.906Z</time>
      </trkpt>
      <trkpt lat="39.06343333" lon="-8.824265">
        <ele>-6.0</ele>
        <time>2019-05-16T15:20:35.905Z</time>
      </trkpt>
      <trkpt lat="39.06343333" lon="-8.824265">
        <ele>-6.0</ele>
        <time>2019-05-16T15:20:36.925Z</time>
      </trkpt>
      <trkpt lat="39.06349667" lon="-8.82421667">
        <ele>-6.0</ele>
        <time>2019-05-16T15:20:37.929Z</time>
      </trkpt>
      <trkpt lat="39.06352833" lon="-8.82419333">
        <ele>-6.0</ele>
        <time>2019-05-16T15:20:38.937Z</time>
      </trkpt>
      <trkpt lat="39.06352833" lon="-8.82419333">
        <ele>-6.0</ele>
        <time>2019-05-16T15:20:39.918Z</time>
      </trkpt>
      <trkpt lat="39.06359333" lon="-8.82414833">
        <ele>-6.0</ele>
        <time>2019-05-16T15:20:40.901Z</time>
      </trkpt>
      <trkpt lat="39.06359333" lon="-8.82414833">
        <ele>-6.0</ele>
        <time>2019-05-16T15:20:41.908Z</time>
      </trkpt>
      <trkpt lat="39.06365833" lon="-8.82410333">
        <ele>-6.0</ele>
        <time>2019-05-16T15:20:42.936Z</time>
      </trkpt>
      <trkpt lat="39.06365833" lon="-8.82410333">
        <ele>-6.0</ele>
        <time>2019-05-16T15:20:43.928Z</time>
      </trkpt>
      <trkpt lat="39.06372333" lon="-8.82405833">
        <ele>-6.0</ele>
        <time>2019-05-16T15:20:44.907Z</time>
      </trkpt>
      <trkpt lat="39.06372333" lon="-8.82405833">
        <ele>-6.0</ele>
        <time>2019-05-16T15:20:45.910Z</time>
      </trkpt>
      <trkpt lat="39.06378833" lon="-8.824015">
        <ele>-6.0</ele>
        <time>2019-05-16T15:20:46.929Z</time>
      </trkpt>
      <trkpt lat="39.06378833" lon="-8.824015">
        <ele>-6.0</ele>
        <time>2019-05-16T15:20:47.913Z</time>
      </trkpt>
      <trkpt lat="39.06385" lon="-8.82397">
        <ele>-6.0</ele>
        <time>2019-05-16T15:20:48.935Z</time>
      </trkpt>
      <trkpt lat="39.06385" lon="-8.82397">
        <ele>-6.0</ele>
        <time>2019-05-16T15:20:49.923Z</time>
      </trkpt>
      <trkpt lat="39.06391333" lon="-8.823925">
        <ele>-6.0</ele>
        <time>2019-05-16T15:20:50.917Z</time>
      </trkpt>
      <trkpt lat="39.06391333" lon="-8.823925">
        <ele>-6.0</ele>
        <time>2019-05-16T15:20:51.934Z</time>
      </trkpt>
      <trkpt lat="39.063975" lon="-8.82388167">
        <ele>-6.0</ele>
        <time>2019-05-16T15:20:52.920Z</time>
      </trkpt>
      <trkpt lat="39.06400667" lon="-8.82386167">
        <ele>-6.0</ele>
        <time>2019-05-16T15:20:53.909Z</time>
      </trkpt>
      <trkpt lat="39.06400667" lon="-8.82386167">
        <ele>-6.0</ele>
        <time>2019-05-16T15:20:54.916Z</time>
      </trkpt>
      <trkpt lat="39.06407167" lon="-8.823815">
        <ele>-6.0</ele>
        <time>2019-05-16T15:20:55.897Z</time>
      </trkpt>
      <trkpt lat="39.06407167" lon="-8.823815">
        <ele>-6.0</ele>
        <time>2019-05-16T15:20:56.921Z</time>
      </trkpt>
      <trkpt lat="39.06414" lon="-8.823765">
        <ele>-6.0</ele>
        <time>2019-05-16T15:20:57.916Z</time>
      </trkpt>
      <trkpt lat="39.06414" lon="-8.823765">
        <ele>-6.0</ele>
        <time>2019-05-16T15:20:58.897Z</time>
      </trkpt>
      <trkpt lat="39.06420833" lon="-8.82371333">
        <ele>-6.0</ele>
        <time>2019-05-16T15:20:59.917Z</time>
      </trkpt>
      <trkpt lat="39.06420833" lon="-8.82371333">
        <ele>-6.0</ele>
        <time>2019-05-16T15:21:00.909Z</time>
      </trkpt>
      <trkpt lat="39.06427833" lon="-8.82365833">
        <ele>-6.0</ele>
        <time>2019-05-16T15:21:01.932Z</time>
      </trkpt>
      <trkpt lat="39.06431333" lon="-8.82363167">
        <ele>-6.0</ele>
        <time>2019-05-16T15:21:02.906Z</time>
      </trkpt>
      <trkpt lat="39.06431333" lon="-8.82363167">
        <ele>-6.0</ele>
        <time>2019-05-16T15:21:03.932Z</time>
      </trkpt>
      <trkpt lat="39.06438833" lon="-8.82357833">
        <ele>-6.0</ele>
        <time>2019-05-16T15:21:04.922Z</time>
      </trkpt>
      <trkpt lat="39.06438833" lon="-8.82357833">
        <ele>-6.0</ele>
        <time>2019-05-16T15:21:05.907Z</time>
      </trkpt>
      <trkpt lat="39.06446167" lon="-8.82352167">
        <ele>-6.0</ele>
        <time>2019-05-16T15:21:06.935Z</time>
      </trkpt>
      <trkpt lat="39.06446167" lon="-8.82352167">
        <ele>-6.0</ele>
        <time>2019-05-16T15:21:07.920Z</time>
      </trkpt>
      <trkpt lat="39.06453167" lon="-8.82346167">
        <ele>-6.0</ele>
        <time>2019-05-16T15:21:08.937Z</time>
      </trkpt>
      <trkpt lat="39.06453167" lon="-8.82346167">
        <ele>-6.0</ele>
        <time>2019-05-16T15:21:09.923Z</time>
      </trkpt>
      <trkpt lat="39.0646" lon="-8.82341">
        <ele>-6.0</ele>
        <time>2019-05-16T15:21:10.936Z</time>
      </trkpt>
      <trkpt lat="39.0646" lon="-8.82341">
        <ele>-6.0</ele>
        <time>2019-05-16T15:21:11.900Z</time>
      </trkpt>
      <trkpt lat="39.064665" lon="-8.82335833">
        <ele>-6.0</ele>
        <time>2019-05-16T15:21:12.904Z</time>
      </trkpt>
      <trkpt lat="39.064695" lon="-8.823335">
        <ele>-6.0</ele>
        <time>2019-05-16T15:21:13.927Z</time>
      </trkpt>
      <trkpt lat="39.064695" lon="-8.823335">
        <ele>-6.0</ele>
        <time>2019-05-16T15:21:14.918Z</time>
      </trkpt>
      <trkpt lat="39.06475167" lon="-8.82328333">
        <ele>-6.0</ele>
        <time>2019-05-16T15:21:15.906Z</time>
      </trkpt>
      <trkpt lat="39.06478167" lon="-8.82325667">
        <ele>-6.0</ele>
        <time>2019-05-16T15:21:16.924Z</time>
      </trkpt>
      <trkpt lat="39.06481167" lon="-8.82323167">
        <ele>-6.0</ele>
        <time>2019-05-16T15:21:17.936Z</time>
      </trkpt>
      <trkpt lat="39.06481167" lon="-8.82323167">
        <ele>-6.0</ele>
        <time>2019-05-16T15:21:18.928Z</time>
      </trkpt>
      <trkpt lat="39.06487333" lon="-8.82317833">
        <ele>-6.0</ele>
        <time>2019-05-16T15:21:19.904Z</time>
      </trkpt>
      <trkpt lat="39.06487333" lon="-8.82317833">
        <ele>-6.0</ele>
        <time>2019-05-16T15:21:20.909Z</time>
      </trkpt>
      <trkpt lat="39.064935" lon="-8.82312667">
        <ele>-6.0</ele>
        <time>2019-05-16T15:21:21.931Z</time>
      </trkpt>
      <trkpt lat="39.064935" lon="-8.82312667">
        <ele>-6.0</ele>
        <time>2019-05-16T15:21:22.930Z</time>
      </trkpt>
      <trkpt lat="39.06499667" lon="-8.82307333">
        <ele>-6.0</ele>
        <time>2019-05-16T15:21:23.918Z</time>
      </trkpt>
      <trkpt lat="39.06499667" lon="-8.82307333">
        <ele>-6.0</ele>
        <time>2019-05-16T15:21:24.898Z</time>
      </trkpt>
      <trkpt lat="39.06506167" lon="-8.82302333">
        <ele>-6.0</ele>
        <time>2019-05-16T15:21:25.923Z</time>
      </trkpt>
      <trkpt lat="39.06509333" lon="-8.82299833">
        <ele>-6.0</ele>
        <time>2019-05-16T15:21:26.933Z</time>
      </trkpt>
      <trkpt lat="39.06509333" lon="-8.82299833">
        <ele>-6.0</ele>
        <time>2019-05-16T15:21:27.906Z</time>
      </trkpt>
      <trkpt lat="39.06515333" lon="-8.82294833">
        <ele>-6.0</ele>
        <time>2019-05-16T15:21:28.936Z</time>
      </trkpt>
      <trkpt lat="39.06515333" lon="-8.82294833">
        <ele>-6.0</ele>
        <time>2019-05-16T15:21:29.925Z</time>
      </trkpt>
      <trkpt lat="39.06521333" lon="-8.82289667">
        <ele>-6.0</ele>
        <time>2019-05-16T15:21:30.908Z</time>
      </trkpt>
      <trkpt lat="39.06521333" lon="-8.82289667">
        <ele>-6.0</ele>
        <time>2019-05-16T15:21:31.903Z</time>
      </trkpt>
      <trkpt lat="39.06527167" lon="-8.82285167">
        <ele>-6.0</ele>
        <time>2019-05-16T15:21:32.923Z</time>
      </trkpt>
      <trkpt lat="39.06527167" lon="-8.82285167">
        <ele>-6.0</ele>
        <time>2019-05-16T15:21:33.904Z</time>
      </trkpt>
      <trkpt lat="39.06532833" lon="-8.82280333">
        <ele>-6.0</ele>
        <time>2019-05-16T15:21:34.923Z</time>
      </trkpt>
      <trkpt lat="39.06532833" lon="-8.82280333">
        <ele>-6.0</ele>
        <time>2019-05-16T15:21:35.902Z</time>
      </trkpt>
      <trkpt lat="39.06538333" lon="-8.82276">
        <ele>-6.0</ele>
        <time>2019-05-16T15:21:36.921Z</time>
      </trkpt>
      <trkpt lat="39.06538333" lon="-8.82276">
        <ele>-6.0</ele>
        <time>2019-05-16T15:21:37.909Z</time>
      </trkpt>
      <trkpt lat="39.06543667" lon="-8.82271833">
        <ele>-6.0</ele>
        <time>2019-05-16T15:21:38.899Z</time>
      </trkpt>
      <trkpt lat="39.06543667" lon="-8.82271833">
        <ele>-6.0</ele>
        <time>2019-05-16T15:21:39.897Z</time>
      </trkpt>
      <trkpt lat="39.06549" lon="-8.82267333">
        <ele>-6.0</ele>
        <time>2019-05-16T15:21:40.914Z</time>
      </trkpt>
      <trkpt lat="39.06549" lon="-8.82267333">
        <ele>-6.0</ele>
        <time>2019-05-16T15:21:41.933Z</time>
      </trkpt>
      <trkpt lat="39.065545" lon="-8.82263">
        <ele>-6.0</ele>
        <time>2019-05-16T15:21:42.911Z</time>
      </trkpt>
      <trkpt lat="39.06557333" lon="-8.82260833">
        <ele>-6.0</ele>
        <time>2019-05-16T15:21:43.899Z</time>
      </trkpt>
      <trkpt lat="39.0656" lon="-8.822585">
        <ele>-6.0</ele>
        <time>2019-05-16T15:21:44.912Z</time>
      </trkpt>
      <trkpt lat="39.0656" lon="-8.822585">
        <ele>-6.0</ele>
        <time>2019-05-16T15:21:45.905Z</time>
      </trkpt>
      <trkpt lat="39.065655" lon="-8.82254">
        <ele>-6.0</ele>
        <time>2019-05-16T15:21:46.961Z</time>
      </trkpt>
      <trkpt lat="39.065655" lon="-8.82254">
        <ele>-6.0</ele>
        <time>2019-05-16T15:21:47.930Z</time>
      </trkpt>
      <trkpt lat="39.06570833" lon="-8.82249833">
        <ele>-6.0</ele>
        <time>2019-05-16T15:21:48.913Z</time>
      </trkpt>
      <trkpt lat="39.06570833" lon="-8.82249833">
        <ele>-6.0</ele>
        <time>2019-05-16T15:21:49.904Z</time>
      </trkpt>
      <trkpt lat="39.06575833" lon="-8.82246">
        <ele>-6.0</ele>
        <time>2019-05-16T15:21:50.918Z</time>
      </trkpt>
      <trkpt lat="39.06575833" lon="-8.82246">
        <ele>-6.0</ele>
        <time>2019-05-16T15:21:51.917Z</time>
      </trkpt>
      <trkpt lat="39.06580833" lon="-8.82241833">
        <ele>-6.0</ele>
        <time>2019-05-16T15:21:52.897Z</time>
      </trkpt>
      <trkpt lat="39.06580833" lon="-8.82241833">
        <ele>-6.0</ele>
        <time>2019-05-16T15:21:53.923Z</time>
      </trkpt>
      <trkpt lat="39.06586333" lon="-8.82237833">
        <ele>-6.0</ele>
        <time>2019-05-16T15:21:54.902Z</time>
      </trkpt>
      <trkpt lat="39.06586333" lon="-8.82237833">
        <ele>-6.0</ele>
        <time>2019-05-16T15:21:55.935Z</time>
      </trkpt>
      <trkpt lat="39.06591333" lon="-8.82233167">
        <ele>-6.0</ele>
        <time>2019-05-16T15:21:56.937Z</time>
      </trkpt>
      <trkpt lat="39.06591333" lon="-8.82233167">
        <ele>-6.0</ele>
        <time>2019-05-16T15:21:57.908Z</time>
      </trkpt>
      <trkpt lat="39.06596833" lon="-8.82228833">
        <ele>-6.0</ele>
        <time>2019-05-16T15:21:58.931Z</time>
      </trkpt>
      <trkpt lat="39.06596833" lon="-8.82228833">
        <ele>-6.0</ele>
        <time>2019-05-16T15:21:59.923Z</time>
      </trkpt>
      <trkpt lat="39.06602333" lon="-8.822245">
        <ele>-6.0</ele>
        <time>2019-05-16T15:22:00.914Z</time>
      </trkpt>
      <trkpt lat="39.06602333" lon="-8.822245">
        <ele>-6.0</ele>
        <time>2019-05-16T15:22:01.918Z</time>
      </trkpt>
      <trkpt lat="39.06608" lon="-8.82219833">
        <ele>-6.0</ele>
        <time>2019-05-16T15:22:02.939Z</time>
      </trkpt>
      <trkpt lat="39.06608" lon="-8.82219833">
        <ele>-6.0</ele>
        <time>2019-05-16T15:22:03.935Z</time>
      </trkpt>
      <trkpt lat="39.06613667" lon="-8.82215333">
        <ele>-6.0</ele>
        <time>2019-05-16T15:22:04.918Z</time>
      </trkpt>
      <trkpt lat="39.06613667" lon="-8.82215333">
        <ele>-6.0</ele>
        <time>2019-05-16T15:22:05.918Z</time>
      </trkpt>
      <trkpt lat="39.06619" lon="-8.82210667">
        <ele>-6.0</ele>
        <time>2019-05-16T15:22:06.908Z</time>
      </trkpt>
      <trkpt lat="39.06619" lon="-8.82210667">
        <ele>-6.0</ele>
        <time>2019-05-16T15:22:07.930Z</time>
      </trkpt>
      <trkpt lat="39.066245" lon="-8.82206167">
        <ele>-6.0</ele>
        <time>2019-05-16T15:22:08.911Z</time>
      </trkpt>
      <trkpt lat="39.066245" lon="-8.82206167">
        <ele>-6.0</ele>
        <time>2019-05-16T15:22:09.907Z</time>
      </trkpt>
      <trkpt lat="39.06629667" lon="-8.82202">
        <ele>-6.0</ele>
        <time>2019-05-16T15:22:10.911Z</time>
      </trkpt>
      <trkpt lat="39.06629667" lon="-8.82202">
        <ele>-6.0</ele>
        <time>2019-05-16T15:22:11.929Z</time>
      </trkpt>
      <trkpt lat="39.06635167" lon="-8.82197333">
        <ele>-6.0</ele>
        <time>2019-05-16T15:22:12.907Z</time>
      </trkpt>
      <trkpt lat="39.06635167" lon="-8.82197333">
        <ele>-6.0</ele>
        <time>2019-05-16T15:22:13.930Z</time>
      </trkpt>
      <trkpt lat="39.06640833" lon="-8.82192833">
        <ele>-6.0</ele>
        <time>2019-05-16T15:22:14.907Z</time>
      </trkpt>
      <trkpt lat="39.06640833" lon="-8.82192833">
        <ele>-6.0</ele>
        <time>2019-05-16T15:22:15.897Z</time>
      </trkpt>
      <trkpt lat="39.06646" lon="-8.82188333">
        <ele>-6.0</ele>
        <time>2019-05-16T15:22:16.916Z</time>
      </trkpt>
      <trkpt lat="39.06646" lon="-8.82188333">
        <ele>-6.0</ele>
        <time>2019-05-16T15:22:17.910Z</time>
      </trkpt>
      <trkpt lat="39.06651167" lon="-8.82184">
        <ele>-6.0</ele>
        <time>2019-05-16T15:22:18.913Z</time>
      </trkpt>
      <trkpt lat="39.06651167" lon="-8.82184">
        <ele>-6.0</ele>
        <time>2019-05-16T15:22:19.903Z</time>
      </trkpt>
      <trkpt lat="39.06656333" lon="-8.82179667">
        <ele>-6.0</ele>
        <time>2019-05-16T15:22:20.911Z</time>
      </trkpt>
      <trkpt lat="39.06658833" lon="-8.82177333">
        <ele>-6.0</ele>
        <time>2019-05-16T15:22:21.930Z</time>
      </trkpt>
      <trkpt lat="39.06658833" lon="-8.82177333">
        <ele>-6.0</ele>
        <time>2019-05-16T15:22:22.918Z</time>
      </trkpt>
      <trkpt lat="39.06664" lon="-8.82172333">
        <ele>-6.0</ele>
        <time>2019-05-16T15:22:23.930Z</time>
      </trkpt>
      <trkpt lat="39.06664" lon="-8.82172333">
        <ele>-6.0</ele>
        <time>2019-05-16T15:22:24.903Z</time>
      </trkpt>
      <trkpt lat="39.06669" lon="-8.82167">
        <ele>-6.0</ele>
        <time>2019-05-16T15:22:25.907Z</time>
      </trkpt>
      <trkpt lat="39.06671333" lon="-8.82164167">
        <ele>-6.0</ele>
        <time>2019-05-16T15:22:26.923Z</time>
      </trkpt>
      <trkpt lat="39.06674" lon="-8.82161333">
        <ele>-6.0</ele>
        <time>2019-05-16T15:22:27.930Z</time>
      </trkpt>
      <trkpt lat="39.06674" lon="-8.82161333">
        <ele>-6.0</ele>
        <time>2019-05-16T15:22:28.918Z</time>
      </trkpt>
      <trkpt lat="39.06679" lon="-8.821555">
        <ele>-6.0</ele>
        <time>2019-05-16T15:22:29.909Z</time>
      </trkpt>
      <trkpt lat="39.06681333" lon="-8.82152667">
        <ele>-6.0</ele>
        <time>2019-05-16T15:22:30.937Z</time>
      </trkpt>
      <trkpt lat="39.06681333" lon="-8.82152667">
        <ele>-6.0</ele>
        <time>2019-05-16T15:22:31.932Z</time>
      </trkpt>
      <trkpt lat="39.066865" lon="-8.82147167">
        <ele>-6.0</ele>
        <time>2019-05-16T15:22:32.918Z</time>
      </trkpt>
      <trkpt lat="39.066865" lon="-8.82147167">
        <ele>-6.0</ele>
        <time>2019-05-16T15:22:33.923Z</time>
      </trkpt>
      <trkpt lat="39.06691667" lon="-8.821415">
        <ele>-6.0</ele>
        <time>2019-05-16T15:22:34.901Z</time>
      </trkpt>
      <trkpt lat="39.06691667" lon="-8.821415">
        <ele>-6.0</ele>
        <time>2019-05-16T15:22:35.920Z</time>
      </trkpt>
      <trkpt lat="39.06696667" lon="-8.821355">
        <ele>-6.0</ele>
        <time>2019-05-16T15:22:36.912Z</time>
      </trkpt>
      <trkpt lat="39.06699333" lon="-8.82132333">
        <ele>-6.0</ele>
        <time>2019-05-16T15:22:37.904Z</time>
      </trkpt>
      <trkpt lat="39.06702" lon="-8.82129333">
        <ele>-6.0</ele>
        <time>2019-05-16T15:22:38.927Z</time>
      </trkpt>
      <trkpt lat="39.06702" lon="-8.82129333">
        <ele>-6.0</ele>
        <time>2019-05-16T15:22:39.930Z</time>
      </trkpt>
      <trkpt lat="39.06707167" lon="-8.82123167">
        <ele>-6.0</ele>
        <time>2019-05-16T15:22:40.908Z</time>
      </trkpt>
      <trkpt lat="39.06707167" lon="-8.82123167">
        <ele>-6.0</ele>
        <time>2019-05-16T15:22:41.898Z</time>
      </trkpt>
      <trkpt lat="39.067125" lon="-8.82117167">
        <ele>-6.0</ele>
        <time>2019-05-16T15:22:42.919Z</time>
      </trkpt>
      <trkpt lat="39.067125" lon="-8.82117167">
        <ele>-6.0</ele>
        <time>2019-05-16T15:22:43.913Z</time>
      </trkpt>
      <trkpt lat="39.06717667" lon="-8.82111">
        <ele>-6.0</ele>
        <time>2019-05-16T15:22:44.919Z</time>
      </trkpt>
      <trkpt lat="39.06717667" lon="-8.82111">
        <ele>-6.0</ele>
        <time>2019-05-16T15:22:45.899Z</time>
      </trkpt>
      <trkpt lat="39.06722833" lon="-8.82104833">
        <ele>-6.0</ele>
        <time>2019-05-16T15:22:46.920Z</time>
      </trkpt>
      <trkpt lat="39.06722833" lon="-8.82104833">
        <ele>-6.0</ele>
        <time>2019-05-16T15:22:47.903Z</time>
      </trkpt>
      <trkpt lat="39.06728167" lon="-8.820985">
        <ele>-6.0</ele>
        <time>2019-05-16T15:22:48.933Z</time>
      </trkpt>
      <trkpt lat="39.06728167" lon="-8.820985">
        <ele>-6.0</ele>
        <time>2019-05-16T15:22:49.906Z</time>
      </trkpt>
      <trkpt lat="39.06733" lon="-8.820925">
        <ele>-6.0</ele>
        <time>2019-05-16T15:22:50.922Z</time>
      </trkpt>
      <trkpt lat="39.06733" lon="-8.820925">
        <ele>-6.0</ele>
        <time>2019-05-16T15:22:51.903Z</time>
      </trkpt>
      <trkpt lat="39.06737667" lon="-8.82086667">
        <ele>-6.0</ele>
        <time>2019-05-16T15:22:52.917Z</time>
      </trkpt>
      <trkpt lat="39.0674" lon="-8.82083833">
        <ele>-7.0</ele>
        <time>2019-05-16T15:22:53.914Z</time>
      </trkpt>
      <trkpt lat="39.0674" lon="-8.82083833">
        <ele>-7.0</ele>
        <time>2019-05-16T15:22:54.931Z</time>
      </trkpt>
      <trkpt lat="39.06744667" lon="-8.82077667">
        <ele>-7.0</ele>
        <time>2019-05-16T15:22:55.922Z</time>
      </trkpt>
      <trkpt lat="39.06747167" lon="-8.820745">
        <ele>-7.0</ele>
        <time>2019-05-16T15:22:56.905Z</time>
      </trkpt>
      <trkpt lat="39.06747167" lon="-8.820745">
        <ele>-7.0</ele>
        <time>2019-05-16T15:22:57.925Z</time>
      </trkpt>
      <trkpt lat="39.06751667" lon="-8.82068">
        <ele>-7.0</ele>
        <time>2019-05-16T15:22:58.905Z</time>
      </trkpt>
      <trkpt lat="39.06751667" lon="-8.82068">
        <ele>-7.0</ele>
        <time>2019-05-16T15:22:59.918Z</time>
      </trkpt>
      <trkpt lat="39.06756333" lon="-8.82062">
        <ele>-7.0</ele>
        <time>2019-05-16T15:23:00.931Z</time>
      </trkpt>
      <trkpt lat="39.06756333" lon="-8.82062">
        <ele>-7.0</ele>
        <time>2019-05-16T15:23:01.914Z</time>
      </trkpt>
      <trkpt lat="39.06760833" lon="-8.82056333">
        <ele>-7.0</ele>
        <time>2019-05-16T15:23:02.937Z</time>
      </trkpt>
      <trkpt lat="39.06760833" lon="-8.82056333">
        <ele>-7.0</ele>
        <time>2019-05-16T15:23:03.933Z</time>
      </trkpt>
      <trkpt lat="39.06765333" lon="-8.820505">
        <ele>-7.0</ele>
        <time>2019-05-16T15:23:04.919Z</time>
      </trkpt>
      <trkpt lat="39.06767667" lon="-8.82047667">
        <ele>-7.0</ele>
        <time>2019-05-16T15:23:05.940Z</time>
      </trkpt>
      <trkpt lat="39.06767667" lon="-8.82047667">
        <ele>-7.0</ele>
        <time>2019-05-16T15:23:06.916Z</time>
      </trkpt>
      <trkpt lat="39.06772333" lon="-8.82041833">
        <ele>-7.0</ele>
        <time>2019-05-16T15:23:07.897Z</time>
      </trkpt>
      <trkpt lat="39.06774333" lon="-8.82039">
        <ele>-7.0</ele>
        <time>2019-05-16T15:23:08.929Z</time>
      </trkpt>
      <trkpt lat="39.06774333" lon="-8.82039">
        <ele>-7.0</ele>
        <time>2019-05-16T15:23:09.923Z</time>
      </trkpt>
      <trkpt lat="39.06778333" lon="-8.820335">
        <ele>-7.0</ele>
        <time>2019-05-16T15:23:10.900Z</time>
      </trkpt>
      <trkpt lat="39.06778333" lon="-8.820335">
        <ele>-7.0</ele>
        <time>2019-05-16T15:23:11.919Z</time>
      </trkpt>
      <trkpt lat="39.06782667" lon="-8.82028333">
        <ele>-7.0</ele>
        <time>2019-05-16T15:23:12.932Z</time>
      </trkpt>
      <trkpt lat="39.06782667" lon="-8.82028333">
        <ele>-7.0</ele>
        <time>2019-05-16T15:23:13.913Z</time>
      </trkpt>
      <trkpt lat="39.06786833" lon="-8.82023">
        <ele>-7.0</ele>
        <time>2019-05-16T15:23:14.933Z</time>
      </trkpt>
      <trkpt lat="39.06786833" lon="-8.82023">
        <ele>-7.0</ele>
        <time>2019-05-16T15:23:15.914Z</time>
      </trkpt>
      <trkpt lat="39.06791167" lon="-8.820175">
        <ele>-7.0</ele>
        <time>2019-05-16T15:23:16.901Z</time>
      </trkpt>
      <trkpt lat="39.06791167" lon="-8.820175">
        <ele>-7.0</ele>
        <time>2019-05-16T15:23:17.909Z</time>
      </trkpt>
      <trkpt lat="39.067955" lon="-8.82011833">
        <ele>-7.0</ele>
        <time>2019-05-16T15:23:18.901Z</time>
      </trkpt>
      <trkpt lat="39.067955" lon="-8.82011833">
        <ele>-7.0</ele>
        <time>2019-05-16T15:23:19.920Z</time>
      </trkpt>
      <trkpt lat="39.067995" lon="-8.82006167">
        <ele>-7.0</ele>
        <time>2019-05-16T15:23:21.101Z</time>
      </trkpt>
      <trkpt lat="39.067995" lon="-8.82006167">
        <ele>-7.0</ele>
        <time>2019-05-16T15:23:21.905Z</time>
      </trkpt>
      <trkpt lat="39.06803833" lon="-8.82000833">
        <ele>-7.0</ele>
        <time>2019-05-16T15:23:22.932Z</time>
      </trkpt>
      <trkpt lat="39.06803833" lon="-8.82000833">
        <ele>-7.0</ele>
        <time>2019-05-16T15:23:23.905Z</time>
      </trkpt>
      <trkpt lat="39.06808333" lon="-8.81995333">
        <ele>-7.0</ele>
        <time>2019-05-16T15:23:24.900Z</time>
      </trkpt>
      <trkpt lat="39.06808333" lon="-8.81995333">
        <ele>-7.0</ele>
        <time>2019-05-16T15:23:25.933Z</time>
      </trkpt>
      <trkpt lat="39.06812667" lon="-8.81989833">
        <ele>-7.0</ele>
        <time>2019-05-16T15:23:26.917Z</time>
      </trkpt>
      <trkpt lat="39.06812667" lon="-8.81989833">
        <ele>-7.0</ele>
        <time>2019-05-16T15:23:27.920Z</time>
      </trkpt>
      <trkpt lat="39.06816667" lon="-8.81984333">
        <ele>-7.0</ele>
        <time>2019-05-16T15:23:28.904Z</time>
      </trkpt>
      <trkpt lat="39.06816667" lon="-8.81984333">
        <ele>-7.0</ele>
        <time>2019-05-16T15:23:29.903Z</time>
      </trkpt>
      <trkpt lat="39.06820667" lon="-8.81979333">
        <ele>-7.0</ele>
        <time>2019-05-16T15:23:30.925Z</time>
      </trkpt>
      <trkpt lat="39.06822667" lon="-8.81976833">
        <ele>-7.0</ele>
        <time>2019-05-16T15:23:31.938Z</time>
      </trkpt>
      <trkpt lat="39.06824667" lon="-8.81974333">
        <ele>-7.0</ele>
        <time>2019-05-16T15:23:32.899Z</time>
      </trkpt>
      <trkpt lat="39.06824667" lon="-8.81974333">
        <ele>-7.0</ele>
        <time>2019-05-16T15:23:33.901Z</time>
      </trkpt>
      <trkpt lat="39.06828333" lon="-8.819695">
        <ele>-7.0</ele>
        <time>2019-05-16T15:23:34.924Z</time>
      </trkpt>
      <trkpt lat="39.06828333" lon="-8.819695">
        <ele>-7.0</ele>
        <time>2019-05-16T15:23:35.907Z</time>
      </trkpt>
      <trkpt lat="39.06832" lon="-8.81964667">
        <ele>-7.0</ele>
        <time>2019-05-16T15:23:36.938Z</time>
      </trkpt>
      <trkpt lat="39.06832" lon="-8.81964667">
        <ele>-7.0</ele>
        <time>2019-05-16T15:23:37.923Z</time>
      </trkpt>
      <trkpt lat="39.06835667" lon="-8.8196">
        <ele>-7.0</ele>
        <time>2019-05-16T15:23:38.902Z</time>
      </trkpt>
      <trkpt lat="39.06835667" lon="-8.8196">
        <ele>-7.0</ele>
        <time>2019-05-16T15:23:39.900Z</time>
      </trkpt>
      <trkpt lat="39.06839167" lon="-8.81955167">
        <ele>-7.0</ele>
        <time>2019-05-16T15:23:40.928Z</time>
      </trkpt>
      <trkpt lat="39.06839167" lon="-8.81955167">
        <ele>-7.0</ele>
        <time>2019-05-16T15:23:41.917Z</time>
      </trkpt>
      <trkpt lat="39.06842167" lon="-8.8195">
        <ele>-7.0</ele>
        <time>2019-05-16T15:23:42.920Z</time>
      </trkpt>
      <trkpt lat="39.06842167" lon="-8.8195">
        <ele>-7.0</ele>
        <time>2019-05-16T15:23:43.901Z</time>
      </trkpt>
      <trkpt lat="39.06845167" lon="-8.81945667">
        <ele>-7.0</ele>
        <time>2019-05-16T15:23:44.935Z</time>
      </trkpt>
      <trkpt lat="39.06845167" lon="-8.81945667">
        <ele>-7.0</ele>
        <time>2019-05-16T15:23:45.928Z</time>
      </trkpt>
      <trkpt lat="39.06846333" lon="-8.81944333">
        <ele>-7.0</ele>
        <time>2019-05-16T15:23:46.908Z</time>
      </trkpt>
      <trkpt lat="39.06846167" lon="-8.81944333">
        <ele>-7.0</ele>
        <time>2019-05-16T15:23:47.902Z</time>
      </trkpt>
      <trkpt lat="39.06846167" lon="-8.81944333">
        <ele>-7.0</ele>
        <time>2019-05-16T15:23:48.919Z</time>
      </trkpt>
      <trkpt lat="39.06846167" lon="-8.81944167">
        <ele>-7.0</ele>
        <time>2019-05-16T15:23:49.906Z</time>
      </trkpt>
      <trkpt lat="39.06846167" lon="-8.81944167">
        <ele>-7.0</ele>
        <time>2019-05-16T15:23:50.928Z</time>
      </trkpt>
      <trkpt lat="39.06846167" lon="-8.81944167">
        <ele>-7.0</ele>
        <time>2019-05-16T15:23:51.934Z</time>
      </trkpt>
      <trkpt lat="39.06846167" lon="-8.81944167">
        <ele>-7.0</ele>
        <time>2019-05-16T15:23:52.900Z</time>
      </trkpt>
      <trkpt lat="39.06846167" lon="-8.81944167">
        <ele>-7.0</ele>
        <time>2019-05-16T15:23:53.907Z</time>
      </trkpt>
      <trkpt lat="39.06846167" lon="-8.81944167">
        <ele>-7.0</ele>
        <time>2019-05-16T15:23:54.930Z</time>
      </trkpt>
      <trkpt lat="39.06846167" lon="-8.81944167">
        <ele>-7.0</ele>
        <time>2019-05-16T15:23:55.922Z</time>
      </trkpt>
      <trkpt lat="39.06846167" lon="-8.81944167">
        <ele>-7.0</ele>
        <time>2019-05-16T15:23:56.908Z</time>
      </trkpt>
      <trkpt lat="39.06846167" lon="-8.81944167">
        <ele>-7.0</ele>
        <time>2019-05-16T15:23:57.897Z</time>
      </trkpt>
      <trkpt lat="39.06846167" lon="-8.81944167">
        <ele>-7.0</ele>
        <time>2019-05-16T15:23:58.930Z</time>
      </trkpt>
      <trkpt lat="39.06846167" lon="-8.81944167">
        <ele>-7.0</ele>
        <time>2019-05-16T15:23:59.901Z</time>
      </trkpt>
      <trkpt lat="39.06846167" lon="-8.81944167">
        <ele>-7.0</ele>
        <time>2019-05-16T15:24:00.931Z</time>
      </trkpt>
      <trkpt lat="39.06846167" lon="-8.81944167">
        <ele>-7.0</ele>
        <time>2019-05-16T15:24:01.935Z</time>
      </trkpt>
      <trkpt lat="39.06846167" lon="-8.81944167">
        <ele>-7.0</ele>
        <time>2019-05-16T15:24:02.930Z</time>
      </trkpt>
      <trkpt lat="39.06846167" lon="-8.81944167">
        <ele>-7.0</ele>
        <time>2019-05-16T15:24:03.925Z</time>
      </trkpt>
      <trkpt lat="39.06846167" lon="-8.81944167">
        <ele>-7.0</ele>
        <time>2019-05-16T15:24:04.904Z</time>
      </trkpt>
      <trkpt lat="39.06846167" lon="-8.81944167">
        <ele>-7.0</ele>
        <time>2019-05-16T15:24:05.931Z</time>
      </trkpt>
      <trkpt lat="39.06846167" lon="-8.81944167">
        <ele>-7.0</ele>
        <time>2019-05-16T15:24:06.931Z</time>
      </trkpt>
      <trkpt lat="39.06846167" lon="-8.81944167">
        <ele>-7.0</ele>
        <time>2019-05-16T15:24:07.925Z</time>
      </trkpt>
      <trkpt lat="39.06846167" lon="-8.81944167">
        <ele>-7.0</ele>
        <time>2019-05-16T15:24:08.932Z</time>
      </trkpt>
      <trkpt lat="39.06846167" lon="-8.81944167">
        <ele>-7.0</ele>
        <time>2019-05-16T15:24:09.926Z</time>
      </trkpt>
      <trkpt lat="39.06846167" lon="-8.81944167">
        <ele>-7.0</ele>
        <time>2019-05-16T15:24:10.930Z</time>
      </trkpt>
      <trkpt lat="39.06846167" lon="-8.81944167">
        <ele>-7.0</ele>
        <time>2019-05-16T15:24:11.930Z</time>
      </trkpt>
      <trkpt lat="39.06846167" lon="-8.81944167">
        <ele>-7.0</ele>
        <time>2019-05-16T15:24:12.925Z</time>
      </trkpt>
      <trkpt lat="39.06846167" lon="-8.81944167">
        <ele>-7.0</ele>
        <time>2019-05-16T15:24:13.930Z</time>
      </trkpt>
      <trkpt lat="39.06846167" lon="-8.81944167">
        <ele>-7.0</ele>
        <time>2019-05-16T15:24:14.933Z</time>
      </trkpt>
      <trkpt lat="39.06846167" lon="-8.81944167">
        <ele>-7.0</ele>
        <time>2019-05-16T15:24:15.925Z</time>
      </trkpt>
      <trkpt lat="39.06846167" lon="-8.81944167">
        <ele>-7.0</ele>
        <time>2019-05-16T15:24:16.930Z</time>
      </trkpt>
      <trkpt lat="39.06846167" lon="-8.81944167">
        <ele>-7.0</ele>
        <time>2019-05-16T15:24:17.929Z</time>
      </trkpt>
      <trkpt lat="39.06846167" lon="-8.81944167">
        <ele>-7.0</ele>
        <time>2019-05-16T15:24:18.926Z</time>
      </trkpt>
      <trkpt lat="39.06846167" lon="-8.81944167">
        <ele>-7.0</ele>
        <time>2019-05-16T15:24:19.901Z</time>
      </trkpt>
      <trkpt lat="39.06846167" lon="-8.81944167">
        <ele>-7.0</ele>
        <time>2019-05-16T15:24:20.905Z</time>
      </trkpt>
      <trkpt lat="39.06846167" lon="-8.81944167">
        <ele>-7.0</ele>
        <time>2019-05-16T15:24:21.924Z</time>
      </trkpt>
      <trkpt lat="39.06846167" lon="-8.81944167">
        <ele>-7.0</ele>
        <time>2019-05-16T15:24:22.930Z</time>
      </trkpt>
      <trkpt lat="39.06846167" lon="-8.81944167">
        <ele>-7.0</ele>
        <time>2019-05-16T15:24:23.941Z</time>
      </trkpt>
      <trkpt lat="39.06846167" lon="-8.81944167">
        <ele>-7.0</ele>
        <time>2019-05-16T15:24:24.906Z</time>
      </trkpt>
      <trkpt lat="39.06846167" lon="-8.81944167">
        <ele>-7.0</ele>
        <time>2019-05-16T15:24:25.932Z</time>
      </trkpt>
      <trkpt lat="39.06846167" lon="-8.81944167">
        <ele>-7.0</ele>
        <time>2019-05-16T15:24:26.933Z</time>
      </trkpt>
      <trkpt lat="39.06846167" lon="-8.81944167">
        <ele>-7.0</ele>
        <time>2019-05-16T15:24:27.898Z</time>
      </trkpt>
      <trkpt lat="39.068465" lon="-8.81943167">
        <ele>-7.0</ele>
        <time>2019-05-16T15:24:28.930Z</time>
      </trkpt>
      <trkpt lat="39.068465" lon="-8.81943167">
        <ele>-7.0</ele>
        <time>2019-05-16T15:24:29.898Z</time>
      </trkpt>
      <trkpt lat="39.068485" lon="-8.81940667">
        <ele>-7.0</ele>
        <time>2019-05-16T15:24:30.930Z</time>
      </trkpt>
      <trkpt lat="39.068485" lon="-8.81940667">
        <ele>-7.0</ele>
        <time>2019-05-16T15:24:31.926Z</time>
      </trkpt>
      <trkpt lat="39.06851" lon="-8.81937167">
        <ele>-7.0</ele>
        <time>2019-05-16T15:24:32.933Z</time>
      </trkpt>
      <trkpt lat="39.06851" lon="-8.81937167">
        <ele>-7.0</ele>
        <time>2019-05-16T15:24:33.926Z</time>
      </trkpt>
      <trkpt lat="39.06853667" lon="-8.81933167">
        <ele>-7.0</ele>
        <time>2019-05-16T15:24:34.931Z</time>
      </trkpt>
      <trkpt lat="39.06853667" lon="-8.81933167">
        <ele>-7.0</ele>
        <time>2019-05-16T15:24:35.925Z</time>
      </trkpt>
      <trkpt lat="39.06856167" lon="-8.81928833">
        <ele>-7.0</ele>
        <time>2019-05-16T15:24:36.899Z</time>
      </trkpt>
      <trkpt lat="39.068575" lon="-8.81926667">
        <ele>-7.0</ele>
        <time>2019-05-16T15:24:37.910Z</time>
      </trkpt>
      <trkpt lat="39.06859" lon="-8.81924333">
        <ele>-7.0</ele>
        <time>2019-05-16T15:24:38.925Z</time>
      </trkpt>
      <trkpt lat="39.06859" lon="-8.81924333">
        <ele>-7.0</ele>
        <time>2019-05-16T15:24:39.909Z</time>
      </trkpt>
      <trkpt lat="39.06862167" lon="-8.819195">
        <ele>-7.0</ele>
        <time>2019-05-16T15:24:40.931Z</time>
      </trkpt>
      <trkpt lat="39.06862167" lon="-8.819195">
        <ele>-7.0</ele>
        <time>2019-05-16T15:24:41.910Z</time>
      </trkpt>
      <trkpt lat="39.068655" lon="-8.819145">
        <ele>-7.0</ele>
        <time>2019-05-16T15:24:42.931Z</time>
      </trkpt>
      <trkpt lat="39.068655" lon="-8.819145">
        <ele>-7.0</ele>
        <time>2019-05-16T15:24:43.920Z</time>
      </trkpt>
      <trkpt lat="39.06868667" lon="-8.81909">
        <ele>-7.0</ele>
        <time>2019-05-16T15:24:44.901Z</time>
      </trkpt>
      <trkpt lat="39.06868667" lon="-8.81909">
        <ele>-7.0</ele>
        <time>2019-05-16T15:24:45.919Z</time>
      </trkpt>
      <trkpt lat="39.06872" lon="-8.81903">
        <ele>-7.0</ele>
        <time>2019-05-16T15:24:46.901Z</time>
      </trkpt>
      <trkpt lat="39.06872" lon="-8.81903">
        <ele>-7.0</ele>
        <time>2019-05-16T15:24:47.930Z</time>
      </trkpt>
      <trkpt lat="39.06875333" lon="-8.81896667">
        <ele>-7.0</ele>
        <time>2019-05-16T15:24:48.909Z</time>
      </trkpt>
      <trkpt lat="39.06875333" lon="-8.81896667">
        <ele>-7.0</ele>
        <time>2019-05-16T15:24:49.902Z</time>
      </trkpt>
      <trkpt lat="39.06878667" lon="-8.81890667">
        <ele>-7.0</ele>
        <time>2019-05-16T15:24:50.917Z</time>
      </trkpt>
      <trkpt lat="39.06878667" lon="-8.81890667">
        <ele>-7.0</ele>
        <time>2019-05-16T15:24:51.903Z</time>
      </trkpt>
      <trkpt lat="39.06882" lon="-8.81884667">
        <ele>-7.0</ele>
        <time>2019-05-16T15:24:52.907Z</time>
      </trkpt>
      <trkpt lat="39.06882" lon="-8.81884667">
        <ele>-7.0</ele>
        <time>2019-05-16T15:24:53.933Z</time>
      </trkpt>
      <trkpt lat="39.06885333" lon="-8.81878667">
        <ele>-7.0</ele>
        <time>2019-05-16T15:24:54.915Z</time>
      </trkpt>
      <trkpt lat="39.06885333" lon="-8.81878667">
        <ele>-7.0</ele>
        <time>2019-05-16T15:24:55.907Z</time>
      </trkpt>
      <trkpt lat="39.06888833" lon="-8.818725">
        <ele>-8.0</ele>
        <time>2019-05-16T15:24:56.931Z</time>
      </trkpt>
      <trkpt lat="39.06888833" lon="-8.818725">
        <ele>-8.0</ele>
        <time>2019-05-16T15:24:57.933Z</time>
      </trkpt>
      <trkpt lat="39.068925" lon="-8.81865833">
        <ele>-8.0</ele>
        <time>2019-05-16T15:24:58.910Z</time>
      </trkpt>
      <trkpt lat="39.068925" lon="-8.81865833">
        <ele>-8.0</ele>
        <time>2019-05-16T15:24:59.909Z</time>
      </trkpt>
      <trkpt lat="39.06896333" lon="-8.81859167">
        <ele>-8.0</ele>
        <time>2019-05-16T15:25:00.898Z</time>
      </trkpt>
      <trkpt lat="39.06896333" lon="-8.81859167">
        <ele>-8.0</ele>
        <time>2019-05-16T15:25:01.919Z</time>
      </trkpt>
      <trkpt lat="39.06900167" lon="-8.81852167">
        <ele>-8.0</ele>
        <time>2019-05-16T15:25:02.900Z</time>
      </trkpt>
      <trkpt lat="39.06900167" lon="-8.81852167">
        <ele>-8.0</ele>
        <time>2019-05-16T15:25:03.930Z</time>
      </trkpt>
      <trkpt lat="39.06904" lon="-8.81845333">
        <ele>-8.0</ele>
        <time>2019-05-16T15:25:04.918Z</time>
      </trkpt>
      <trkpt lat="39.06904" lon="-8.81845333">
        <ele>-8.0</ele>
        <time>2019-05-16T15:25:05.933Z</time>
      </trkpt>
      <trkpt lat="39.06907833" lon="-8.81838333">
        <ele>-8.0</ele>
        <time>2019-05-16T15:25:06.923Z</time>
      </trkpt>
      <trkpt lat="39.06907833" lon="-8.81838333">
        <ele>-8.0</ele>
        <time>2019-05-16T15:25:07.919Z</time>
      </trkpt>
      <trkpt lat="39.069115" lon="-8.81831333">
        <ele>-8.0</ele>
        <time>2019-05-16T15:25:08.901Z</time>
      </trkpt>
      <trkpt lat="39.069115" lon="-8.81831333">
        <ele>-8.0</ele>
        <time>2019-05-16T15:25:09.929Z</time>
      </trkpt>
      <trkpt lat="39.069155" lon="-8.81824333">
        <ele>-8.0</ele>
        <time>2019-05-16T15:25:10.920Z</time>
      </trkpt>
      <trkpt lat="39.069155" lon="-8.81824333">
        <ele>-8.0</ele>
        <time>2019-05-16T15:25:11.937Z</time>
      </trkpt>
      <trkpt lat="39.06919333" lon="-8.818175">
        <ele>-8.0</ele>
        <time>2019-05-16T15:25:12.912Z</time>
      </trkpt>
      <trkpt lat="39.06919333" lon="-8.818175">
        <ele>-8.0</ele>
        <time>2019-05-16T15:25:13.911Z</time>
      </trkpt>
      <trkpt lat="39.06923167" lon="-8.818105">
        <ele>-8.0</ele>
        <time>2019-05-16T15:25:14.939Z</time>
      </trkpt>
      <trkpt lat="39.06923167" lon="-8.818105">
        <ele>-8.0</ele>
        <time>2019-05-16T15:25:15.902Z</time>
      </trkpt>
      <trkpt lat="39.06927167" lon="-8.81803333">
        <ele>-8.0</ele>
        <time>2019-05-16T15:25:16.918Z</time>
      </trkpt>
      <trkpt lat="39.06927167" lon="-8.81803333">
        <ele>-8.0</ele>
        <time>2019-05-16T15:25:17.923Z</time>
      </trkpt>
      <trkpt lat="39.06931" lon="-8.81796333">
        <ele>-8.0</ele>
        <time>2019-05-16T15:25:18.911Z</time>
      </trkpt>
      <trkpt lat="39.06931" lon="-8.81796333">
        <ele>-8.0</ele>
        <time>2019-05-16T15:25:19.914Z</time>
      </trkpt>
      <trkpt lat="39.06934833" lon="-8.81789167">
        <ele>-8.0</ele>
        <time>2019-05-16T15:25:20.912Z</time>
      </trkpt>
      <trkpt lat="39.06934833" lon="-8.81789167">
        <ele>-8.0</ele>
        <time>2019-05-16T15:25:21.932Z</time>
      </trkpt>
      <trkpt lat="39.06938667" lon="-8.81782167">
        <ele>-8.0</ele>
        <time>2019-05-16T15:25:22.912Z</time>
      </trkpt>
      <trkpt lat="39.06938667" lon="-8.81782167">
        <ele>-8.0</ele>
        <time>2019-05-16T15:25:23.933Z</time>
      </trkpt>
      <trkpt lat="39.069425" lon="-8.81774833">
        <ele>-8.0</ele>
        <time>2019-05-16T15:25:24.922Z</time>
      </trkpt>
      <trkpt lat="39.069425" lon="-8.81774833">
        <ele>-8.0</ele>
        <time>2019-05-16T15:25:25.898Z</time>
      </trkpt>
      <trkpt lat="39.06946667" lon="-8.817675">
        <ele>-8.0</ele>
        <time>2019-05-16T15:25:26.921Z</time>
      </trkpt>
      <trkpt lat="39.06946667" lon="-8.817675">
        <ele>-8.0</ele>
        <time>2019-05-16T15:25:27.924Z</time>
      </trkpt>
      <trkpt lat="39.06951" lon="-8.81760333">
        <ele>-8.0</ele>
        <time>2019-05-16T15:25:28.912Z</time>
      </trkpt>
      <trkpt lat="39.06951" lon="-8.81760333">
        <ele>-8.0</ele>
        <time>2019-05-16T15:25:29.900Z</time>
      </trkpt>
      <trkpt lat="39.06955167" lon="-8.81753">
        <ele>-8.0</ele>
        <time>2019-05-16T15:25:30.913Z</time>
      </trkpt>
      <trkpt lat="39.06955167" lon="-8.81753">
        <ele>-8.0</ele>
        <time>2019-05-16T15:25:31.932Z</time>
      </trkpt>
      <trkpt lat="39.069595" lon="-8.817455">
        <ele>-8.0</ele>
        <time>2019-05-16T15:25:32.917Z</time>
      </trkpt>
      <trkpt lat="39.069595" lon="-8.817455">
        <ele>-8.0</ele>
        <time>2019-05-16T15:25:33.903Z</time>
      </trkpt>
      <trkpt lat="39.06963667" lon="-8.81738">
        <ele>-8.0</ele>
        <time>2019-05-16T15:25:34.924Z</time>
      </trkpt>
      <trkpt lat="39.06965833" lon="-8.81734333">
        <ele>-8.0</ele>
        <time>2019-05-16T15:25:35.899Z</time>
      </trkpt>
      <trkpt lat="39.06967833" lon="-8.81730833">
        <ele>-8.0</ele>
        <time>2019-05-16T15:25:36.930Z</time>
      </trkpt>
      <trkpt lat="39.06967833" lon="-8.81730833">
        <ele>-8.0</ele>
        <time>2019-05-16T15:25:37.904Z</time>
      </trkpt>
      <trkpt lat="39.06971667" lon="-8.81723833">
        <ele>-8.0</ele>
        <time>2019-05-16T15:25:38.922Z</time>
      </trkpt>
      <trkpt lat="39.06971667" lon="-8.81723833">
        <ele>-8.0</ele>
        <time>2019-05-16T15:25:39.899Z</time>
      </trkpt>
      <trkpt lat="39.06975667" lon="-8.81717167">
        <ele>-8.0</ele>
        <time>2019-05-16T15:25:40.910Z</time>
      </trkpt>
      <trkpt lat="39.06975667" lon="-8.81717167">
        <ele>-8.0</ele>
        <time>2019-05-16T15:25:41.920Z</time>
      </trkpt>
      <trkpt lat="39.069795" lon="-8.81710167">
        <ele>-8.0</ele>
        <time>2019-05-16T15:25:42.901Z</time>
      </trkpt>
      <trkpt lat="39.06981333" lon="-8.81706667">
        <ele>-8.0</ele>
        <time>2019-05-16T15:25:43.918Z</time>
      </trkpt>
      <trkpt lat="39.06983333" lon="-8.81703167">
        <ele>-8.0</ele>
        <time>2019-05-16T15:25:44.918Z</time>
      </trkpt>
      <trkpt lat="39.06983333" lon="-8.81703167">
        <ele>-8.0</ele>
        <time>2019-05-16T15:25:45.913Z</time>
      </trkpt>
      <trkpt lat="39.06987167" lon="-8.81696167">
        <ele>-8.0</ele>
        <time>2019-05-16T15:25:46.933Z</time>
      </trkpt>
      <trkpt lat="39.06987167" lon="-8.81696167">
        <ele>-8.0</ele>
        <time>2019-05-16T15:25:47.922Z</time>
      </trkpt>
      <trkpt lat="39.06991167" lon="-8.81689167">
        <ele>-8.0</ele>
        <time>2019-05-16T15:25:48.910Z</time>
      </trkpt>
      <trkpt lat="39.06991167" lon="-8.81689167">
        <ele>-8.0</ele>
        <time>2019-05-16T15:25:49.931Z</time>
      </trkpt>
      <trkpt lat="39.06995333" lon="-8.81681667">
        <ele>-8.0</ele>
        <time>2019-05-16T15:25:50.911Z</time>
      </trkpt>
      <trkpt lat="39.06995333" lon="-8.81681667">
        <ele>-8.0</ele>
        <time>2019-05-16T15:25:51.899Z</time>
      </trkpt>
      <trkpt lat="39.06999667" lon="-8.81673833">
        <ele>-8.0</ele>
        <time>2019-05-16T15:25:52.918Z</time>
      </trkpt>
      <trkpt lat="39.06999667" lon="-8.81673833">
        <ele>-8.0</ele>
        <time>2019-05-16T15:25:53.923Z</time>
      </trkpt>
      <trkpt lat="39.07004" lon="-8.816655">
        <ele>-8.0</ele>
        <time>2019-05-16T15:25:54.901Z</time>
      </trkpt>
      <trkpt lat="39.07004" lon="-8.816655">
        <ele>-8.0</ele>
        <time>2019-05-16T15:25:55.931Z</time>
      </trkpt>
      <trkpt lat="39.07008333" lon="-8.816575">
        <ele>-8.0</ele>
        <time>2019-05-16T15:25:56.912Z</time>
      </trkpt>
      <trkpt lat="39.07008333" lon="-8.816575">
        <ele>-8.0</ele>
        <time>2019-05-16T15:25:57.903Z</time>
      </trkpt>
      <trkpt lat="39.07012333" lon="-8.816495">
        <ele>-8.0</ele>
        <time>2019-05-16T15:25:58.919Z</time>
      </trkpt>
      <trkpt lat="39.07012333" lon="-8.816495">
        <ele>-8.0</ele>
        <time>2019-05-16T15:25:59.922Z</time>
      </trkpt>
      <trkpt lat="39.07016167" lon="-8.81641333">
        <ele>-8.0</ele>
        <time>2019-05-16T15:26:00.910Z</time>
      </trkpt>
      <trkpt lat="39.07016167" lon="-8.81641333">
        <ele>-8.0</ele>
        <time>2019-05-16T15:26:01.929Z</time>
      </trkpt>
      <trkpt lat="39.07019833" lon="-8.81633167">
        <ele>-8.0</ele>
        <time>2019-05-16T15:26:02.905Z</time>
      </trkpt>
      <trkpt lat="39.07019833" lon="-8.81633167">
        <ele>-8.0</ele>
        <time>2019-05-16T15:26:03.899Z</time>
      </trkpt>
      <trkpt lat="39.07023667" lon="-8.81625">
        <ele>-8.0</ele>
        <time>2019-05-16T15:26:04.915Z</time>
      </trkpt>
      <trkpt lat="39.07023667" lon="-8.81625">
        <ele>-8.0</ele>
        <time>2019-05-16T15:26:05.933Z</time>
      </trkpt>
      <trkpt lat="39.070275" lon="-8.81616833">
        <ele>-8.0</ele>
        <time>2019-05-16T15:26:06.951Z</time>
      </trkpt>
      <trkpt lat="39.070275" lon="-8.81616833">
        <ele>-8.0</ele>
        <time>2019-05-16T15:26:07.905Z</time>
      </trkpt>
      <trkpt lat="39.07031333" lon="-8.81608833">
        <ele>-8.0</ele>
        <time>2019-05-16T15:26:08.918Z</time>
      </trkpt>
      <trkpt lat="39.07031333" lon="-8.81608833">
        <ele>-8.0</ele>
        <time>2019-05-16T15:26:09.903Z</time>
      </trkpt>
      <trkpt lat="39.07035167" lon="-8.81600667">
        <ele>-8.0</ele>
        <time>2019-05-16T15:26:10.923Z</time>
      </trkpt>
      <trkpt lat="39.07035167" lon="-8.81600667">
        <ele>-8.0</ele>
        <time>2019-05-16T15:26:11.935Z</time>
      </trkpt>
      <trkpt lat="39.07038833" lon="-8.815925">
        <ele>-8.0</ele>
        <time>2019-05-16T15:26:12.910Z</time>
      </trkpt>
      <trkpt lat="39.07038833" lon="-8.815925">
        <ele>-8.0</ele>
        <time>2019-05-16T15:26:13.903Z</time>
      </trkpt>
      <trkpt lat="39.07042667" lon="-8.81584167">
        <ele>-8.0</ele>
        <time>2019-05-16T15:26:14.921Z</time>
      </trkpt>
      <trkpt lat="39.07042667" lon="-8.81584167">
        <ele>-8.0</ele>
        <time>2019-05-16T15:26:15.923Z</time>
      </trkpt>
      <trkpt lat="39.07046333" lon="-8.81575667">
        <ele>-8.0</ele>
        <time>2019-05-16T15:26:16.904Z</time>
      </trkpt>
      <trkpt lat="39.07046333" lon="-8.81575667">
        <ele>-8.0</ele>
        <time>2019-05-16T15:26:17.925Z</time>
      </trkpt>
      <trkpt lat="39.07050167" lon="-8.81567333">
        <ele>-8.0</ele>
        <time>2019-05-16T15:26:18.901Z</time>
      </trkpt>
      <trkpt lat="39.07050167" lon="-8.81567333">
        <ele>-8.0</ele>
        <time>2019-05-16T15:26:19.903Z</time>
      </trkpt>
      <trkpt lat="39.07053667" lon="-8.81559">
        <ele>-8.0</ele>
        <time>2019-05-16T15:26:20.932Z</time>
      </trkpt>
      <trkpt lat="39.07053667" lon="-8.81559">
        <ele>-8.0</ele>
        <time>2019-05-16T15:26:21.933Z</time>
      </trkpt>
      <trkpt lat="39.07057" lon="-8.81551333">
        <ele>-8.0</ele>
        <time>2019-05-16T15:26:22.898Z</time>
      </trkpt>
      <trkpt lat="39.07057" lon="-8.81551333">
        <ele>-8.0</ele>
        <time>2019-05-16T15:26:23.906Z</time>
      </trkpt>
      <trkpt lat="39.07060167" lon="-8.81543667">
        <ele>-8.0</ele>
        <time>2019-05-16T15:26:24.900Z</time>
      </trkpt>
      <trkpt lat="39.07060167" lon="-8.81543667">
        <ele>-8.0</ele>
        <time>2019-05-16T15:26:25.936Z</time>
      </trkpt>
      <trkpt lat="39.070635" lon="-8.81536167">
        <ele>-8.0</ele>
        <time>2019-05-16T15:26:26.911Z</time>
      </trkpt>
      <trkpt lat="39.070635" lon="-8.81536167">
        <ele>-8.0</ele>
        <time>2019-05-16T15:26:27.934Z</time>
      </trkpt>
      <trkpt lat="39.07066667" lon="-8.81528833">
        <ele>-8.0</ele>
        <time>2019-05-16T15:26:28.924Z</time>
      </trkpt>
      <trkpt lat="39.07066667" lon="-8.81528833">
        <ele>-8.0</ele>
        <time>2019-05-16T15:26:29.907Z</time>
      </trkpt>
      <trkpt lat="39.070695" lon="-8.81521667">
        <ele>-8.0</ele>
        <time>2019-05-16T15:26:30.928Z</time>
      </trkpt>
      <trkpt lat="39.070695" lon="-8.81521667">
        <ele>-8.0</ele>
        <time>2019-05-16T15:26:31.899Z</time>
      </trkpt>
      <trkpt lat="39.070725" lon="-8.81514667">
        <ele>-8.0</ele>
        <time>2019-05-16T15:26:32.923Z</time>
      </trkpt>
      <trkpt lat="39.070725" lon="-8.81514667">
        <ele>-8.0</ele>
        <time>2019-05-16T15:26:33.906Z</time>
      </trkpt>
      <trkpt lat="39.07075333" lon="-8.81507833">
        <ele>-8.0</ele>
        <time>2019-05-16T15:26:34.899Z</time>
      </trkpt>
      <trkpt lat="39.07075333" lon="-8.81507833">
        <ele>-8.0</ele>
        <time>2019-05-16T15:26:35.929Z</time>
      </trkpt>
      <trkpt lat="39.07078167" lon="-8.815005">
        <ele>-8.0</ele>
        <time>2019-05-16T15:26:36.919Z</time>
      </trkpt>
      <trkpt lat="39.07078167" lon="-8.815005">
        <ele>-8.0</ele>
        <time>2019-05-16T15:26:37.911Z</time>
      </trkpt>
      <trkpt lat="39.07081" lon="-8.81493167">
        <ele>-8.0</ele>
        <time>2019-05-16T15:26:38.921Z</time>
      </trkpt>
      <trkpt lat="39.07081" lon="-8.81493167">
        <ele>-8.0</ele>
        <time>2019-05-16T15:26:39.923Z</time>
      </trkpt>
      <trkpt lat="39.07083833" lon="-8.81485667">
        <ele>-8.0</ele>
        <time>2019-05-16T15:26:40.911Z</time>
      </trkpt>
      <trkpt lat="39.07083833" lon="-8.81485667">
        <ele>-8.0</ele>
        <time>2019-05-16T15:26:41.928Z</time>
      </trkpt>
      <trkpt lat="39.07087" lon="-8.81478167">
        <ele>-8.0</ele>
        <time>2019-05-16T15:26:42.911Z</time>
      </trkpt>
      <trkpt lat="39.07087" lon="-8.81478167">
        <ele>-8.0</ele>
        <time>2019-05-16T15:26:43.922Z</time>
      </trkpt>
      <trkpt lat="39.0709" lon="-8.814705">
        <ele>-8.0</ele>
        <time>2019-05-16T15:26:44.908Z</time>
      </trkpt>
      <trkpt lat="39.0709" lon="-8.814705">
        <ele>-8.0</ele>
        <time>2019-05-16T15:26:45.936Z</time>
      </trkpt>
      <trkpt lat="39.07093167" lon="-8.81462833">
        <ele>-8.0</ele>
        <time>2019-05-16T15:26:46.916Z</time>
      </trkpt>
      <trkpt lat="39.07093167" lon="-8.81462833">
        <ele>-8.0</ele>
        <time>2019-05-16T15:26:47.903Z</time>
      </trkpt>
      <trkpt lat="39.07096333" lon="-8.81454833">
        <ele>-8.0</ele>
        <time>2019-05-16T15:26:48.929Z</time>
      </trkpt>
      <trkpt lat="39.07096333" lon="-8.81454833">
        <ele>-8.0</ele>
        <time>2019-05-16T15:26:49.918Z</time>
      </trkpt>
      <trkpt lat="39.070995" lon="-8.81447">
        <ele>-8.0</ele>
        <time>2019-05-16T15:26:50.938Z</time>
      </trkpt>
      <trkpt lat="39.070995" lon="-8.81447">
        <ele>-8.0</ele>
        <time>2019-05-16T15:26:51.923Z</time>
      </trkpt>
      <trkpt lat="39.071025" lon="-8.81438833">
        <ele>-8.0</ele>
        <time>2019-05-16T15:26:52.906Z</time>
      </trkpt>
      <trkpt lat="39.071025" lon="-8.81438833">
        <ele>-8.0</ele>
        <time>2019-05-16T15:26:53.928Z</time>
      </trkpt>
      <trkpt lat="39.07105833" lon="-8.814305">
        <ele>-8.0</ele>
        <time>2019-05-16T15:26:54.909Z</time>
      </trkpt>
      <trkpt lat="39.07105833" lon="-8.814305">
        <ele>-8.0</ele>
        <time>2019-05-16T15:26:55.923Z</time>
      </trkpt>
      <trkpt lat="39.07109167" lon="-8.81422167">
        <ele>-8.0</ele>
        <time>2019-05-16T15:26:56.907Z</time>
      </trkpt>
      <trkpt lat="39.07109167" lon="-8.81422167">
        <ele>-8.0</ele>
        <time>2019-05-16T15:26:57.933Z</time>
      </trkpt>
      <trkpt lat="39.071125" lon="-8.81414">
        <ele>-8.0</ele>
        <time>2019-05-16T15:26:58.912Z</time>
      </trkpt>
      <trkpt lat="39.071125" lon="-8.81414">
        <ele>-8.0</ele>
        <time>2019-05-16T15:26:59.900Z</time>
      </trkpt>
      <trkpt lat="39.07116" lon="-8.81405833">
        <ele>-8.0</ele>
        <time>2019-05-16T15:27:00.916Z</time>
      </trkpt>
      <trkpt lat="39.07116" lon="-8.81405833">
        <ele>-8.0</ele>
        <time>2019-05-16T15:27:01.936Z</time>
      </trkpt>
      <trkpt lat="39.071195" lon="-8.81397333">
        <ele>-8.0</ele>
        <time>2019-05-16T15:27:02.912Z</time>
      </trkpt>
      <trkpt lat="39.071195" lon="-8.81397333">
        <ele>-8.0</ele>
        <time>2019-05-16T15:27:03.926Z</time>
      </trkpt>
      <trkpt lat="39.07122667" lon="-8.81388667">
        <ele>-8.0</ele>
        <time>2019-05-16T15:27:04.911Z</time>
      </trkpt>
      <trkpt lat="39.07122667" lon="-8.81388667">
        <ele>-8.0</ele>
        <time>2019-05-16T15:27:05.931Z</time>
      </trkpt>
      <trkpt lat="39.07126" lon="-8.81380333">
        <ele>-8.0</ele>
        <time>2019-05-16T15:27:06.911Z</time>
      </trkpt>
      <trkpt lat="39.07126" lon="-8.81380333">
        <ele>-8.0</ele>
        <time>2019-05-16T15:27:07.918Z</time>
      </trkpt>
      <trkpt lat="39.07129333" lon="-8.81371833">
        <ele>-8.0</ele>
        <time>2019-05-16T15:27:08.935Z</time>
      </trkpt>
      <trkpt lat="39.07129333" lon="-8.81371833">
        <ele>-8.0</ele>
        <time>2019-05-16T15:27:09.918Z</time>
      </trkpt>
      <trkpt lat="39.071325" lon="-8.81363667">
        <ele>-8.0</ele>
        <time>2019-05-16T15:27:10.936Z</time>
      </trkpt>
      <trkpt lat="39.071325" lon="-8.81363667">
        <ele>-8.0</ele>
        <time>2019-05-16T15:27:11.914Z</time>
      </trkpt>
      <trkpt lat="39.07136" lon="-8.81355833">
        <ele>-8.0</ele>
        <time>2019-05-16T15:27:12.904Z</time>
      </trkpt>
      <trkpt lat="39.07136" lon="-8.81355833">
        <ele>-8.0</ele>
        <time>2019-05-16T15:27:13.921Z</time>
      </trkpt>
      <trkpt lat="39.07139" lon="-8.81347667">
        <ele>-8.0</ele>
        <time>2019-05-16T15:27:14.911Z</time>
      </trkpt>
      <trkpt lat="39.07139" lon="-8.81347667">
        <ele>-8.0</ele>
        <time>2019-05-16T15:27:15.898Z</time>
      </trkpt>
      <trkpt lat="39.07142333" lon="-8.81339333">
        <ele>-8.0</ele>
        <time>2019-05-16T15:27:16.916Z</time>
      </trkpt>
      <trkpt lat="39.07142333" lon="-8.81339333">
        <ele>-8.0</ele>
        <time>2019-05-16T15:27:17.900Z</time>
      </trkpt>
      <trkpt lat="39.07145667" lon="-8.81331">
        <ele>-8.0</ele>
        <time>2019-05-16T15:27:18.932Z</time>
      </trkpt>
      <trkpt lat="39.07145667" lon="-8.81331">
        <ele>-8.0</ele>
        <time>2019-05-16T15:27:19.914Z</time>
      </trkpt>
      <trkpt lat="39.07149167" lon="-8.813225">
        <ele>-8.0</ele>
        <time>2019-05-16T15:27:20.925Z</time>
      </trkpt>
      <trkpt lat="39.07149167" lon="-8.813225">
        <ele>-8.0</ele>
        <time>2019-05-16T15:27:21.931Z</time>
      </trkpt>
      <trkpt lat="39.07152333" lon="-8.81314">
        <ele>-8.0</ele>
        <time>2019-05-16T15:27:22.915Z</time>
      </trkpt>
      <trkpt lat="39.07152333" lon="-8.81314">
        <ele>-8.0</ele>
        <time>2019-05-16T15:27:23.904Z</time>
      </trkpt>
      <trkpt lat="39.07155667" lon="-8.813055">
        <ele>-8.0</ele>
        <time>2019-05-16T15:27:24.907Z</time>
      </trkpt>
      <trkpt lat="39.07155667" lon="-8.813055">
        <ele>-8.0</ele>
        <time>2019-05-16T15:27:25.932Z</time>
      </trkpt>
      <trkpt lat="39.07158833" lon="-8.81297">
        <ele>-8.0</ele>
        <time>2019-05-16T15:27:26.916Z</time>
      </trkpt>
      <trkpt lat="39.07158833" lon="-8.81297">
        <ele>-8.0</ele>
        <time>2019-05-16T15:27:27.913Z</time>
      </trkpt>
      <trkpt lat="39.07162167" lon="-8.81289167">
        <ele>-8.0</ele>
        <time>2019-05-16T15:27:28.904Z</time>
      </trkpt>
      <trkpt lat="39.07162167" lon="-8.81289167">
        <ele>-8.0</ele>
        <time>2019-05-16T15:27:29.913Z</time>
      </trkpt>
      <trkpt lat="39.07165333" lon="-8.81281333">
        <ele>-8.0</ele>
        <time>2019-05-16T15:27:30.898Z</time>
      </trkpt>
      <trkpt lat="39.07165333" lon="-8.81281333">
        <ele>-8.0</ele>
        <time>2019-05-16T15:27:31.897Z</time>
      </trkpt>
      <trkpt lat="39.07168167" lon="-8.812735">
        <ele>-8.0</ele>
        <time>2019-05-16T15:27:32.935Z</time>
      </trkpt>
      <trkpt lat="39.07168167" lon="-8.812735">
        <ele>-8.0</ele>
        <time>2019-05-16T15:27:33.930Z</time>
      </trkpt>
      <trkpt lat="39.07171333" lon="-8.81265667">
        <ele>-8.0</ele>
        <time>2019-05-16T15:27:34.910Z</time>
      </trkpt>
      <trkpt lat="39.07171333" lon="-8.81265667">
        <ele>-8.0</ele>
        <time>2019-05-16T15:27:35.910Z</time>
      </trkpt>
      <trkpt lat="39.071745" lon="-8.81258">
        <ele>-8.0</ele>
        <time>2019-05-16T15:27:36.901Z</time>
      </trkpt>
      <trkpt lat="39.07176" lon="-8.81254">
        <ele>-8.0</ele>
        <time>2019-05-16T15:27:37.907Z</time>
      </trkpt>
      <trkpt lat="39.07176" lon="-8.81254">
        <ele>-8.0</ele>
        <time>2019-05-16T15:27:38.900Z</time>
      </trkpt>
      <trkpt lat="39.07179167" lon="-8.81246167">
        <ele>-8.0</ele>
        <time>2019-05-16T15:27:39.924Z</time>
      </trkpt>
      <trkpt lat="39.07180833" lon="-8.81242333">
        <ele>-8.0</ele>
        <time>2019-05-16T15:27:40.915Z</time>
      </trkpt>
      <trkpt lat="39.07180833" lon="-8.81242333">
        <ele>-8.0</ele>
        <time>2019-05-16T15:27:41.919Z</time>
      </trkpt>
      <trkpt lat="39.07184" lon="-8.81234167">
        <ele>-8.0</ele>
        <time>2019-05-16T15:27:42.929Z</time>
      </trkpt>
      <trkpt lat="39.07184" lon="-8.81234167">
        <ele>-8.0</ele>
        <time>2019-05-16T15:27:43.914Z</time>
      </trkpt>
      <trkpt lat="39.07187167" lon="-8.81226167">
        <ele>-8.0</ele>
        <time>2019-05-16T15:27:44.897Z</time>
      </trkpt>
      <trkpt lat="39.07187167" lon="-8.81226167">
        <ele>-8.0</ele>
        <time>2019-05-16T15:27:45.930Z</time>
      </trkpt>
      <trkpt lat="39.07190333" lon="-8.81218">
        <ele>-8.0</ele>
        <time>2019-05-16T15:27:46.911Z</time>
      </trkpt>
      <trkpt lat="39.07190333" lon="-8.81218">
        <ele>-8.0</ele>
        <time>2019-05-16T15:27:47.898Z</time>
      </trkpt>
      <trkpt lat="39.07193833" lon="-8.81209667">
        <ele>-8.0</ele>
        <time>2019-05-16T15:27:48.920Z</time>
      </trkpt>
      <trkpt lat="39.07193833" lon="-8.81209667">
        <ele>-8.0</ele>
        <time>2019-05-16T15:27:49.929Z</time>
      </trkpt>
      <trkpt lat="39.07197167" lon="-8.812015">
        <ele>-8.0</ele>
        <time>2019-05-16T15:27:50.911Z</time>
      </trkpt>
      <trkpt lat="39.07197167" lon="-8.812015">
        <ele>-8.0</ele>
        <time>2019-05-16T15:27:51.904Z</time>
      </trkpt>
      <trkpt lat="39.072005" lon="-8.81193333">
        <ele>-8.0</ele>
        <time>2019-05-16T15:27:52.915Z</time>
      </trkpt>
      <trkpt lat="39.072005" lon="-8.81193333">
        <ele>-8.0</ele>
        <time>2019-05-16T15:27:53.898Z</time>
      </trkpt>
      <trkpt lat="39.07203667" lon="-8.81184833">
        <ele>-8.0</ele>
        <time>2019-05-16T15:27:54.921Z</time>
      </trkpt>
      <trkpt lat="39.07203667" lon="-8.81184833">
        <ele>-8.0</ele>
        <time>2019-05-16T15:27:55.908Z</time>
      </trkpt>
      <trkpt lat="39.07207" lon="-8.811765">
        <ele>-8.0</ele>
        <time>2019-05-16T15:27:56.901Z</time>
      </trkpt>
      <trkpt lat="39.07207" lon="-8.811765">
        <ele>-8.0</ele>
        <time>2019-05-16T15:27:57.936Z</time>
      </trkpt>
      <trkpt lat="39.07210333" lon="-8.81168333">
        <ele>-8.0</ele>
        <time>2019-05-16T15:27:58.909Z</time>
      </trkpt>
      <trkpt lat="39.07210333" lon="-8.81168333">
        <ele>-8.0</ele>
        <time>2019-05-16T15:27:59.902Z</time>
      </trkpt>
      <trkpt lat="39.072135" lon="-8.811605">
        <ele>-8.0</ele>
        <time>2019-05-16T15:28:00.920Z</time>
      </trkpt>
      <trkpt lat="39.07215" lon="-8.81156833">
        <ele>-8.0</ele>
        <time>2019-05-16T15:28:01.912Z</time>
      </trkpt>
      <trkpt lat="39.07215" lon="-8.81156833">
        <ele>-8.0</ele>
        <time>2019-05-16T15:28:02.904Z</time>
      </trkpt>
      <trkpt lat="39.072175" lon="-8.81149667">
        <ele>-8.0</ele>
        <time>2019-05-16T15:28:03.921Z</time>
      </trkpt>
      <trkpt lat="39.072175" lon="-8.81149667">
        <ele>-8.0</ele>
        <time>2019-05-16T15:28:04.900Z</time>
      </trkpt>
      <trkpt lat="39.0722" lon="-8.811425">
        <ele>-8.0</ele>
        <time>2019-05-16T15:28:05.903Z</time>
      </trkpt>
      <trkpt lat="39.0722" lon="-8.811425">
        <ele>-8.0</ele>
        <time>2019-05-16T15:28:06.923Z</time>
      </trkpt>
      <trkpt lat="39.072225" lon="-8.81135167">
        <ele>-8.0</ele>
        <time>2019-05-16T15:28:07.908Z</time>
      </trkpt>
      <trkpt lat="39.072225" lon="-8.81135167">
        <ele>-8.0</ele>
        <time>2019-05-16T15:28:08.909Z</time>
      </trkpt>
      <trkpt lat="39.07224833" lon="-8.81127667">
        <ele>-8.0</ele>
        <time>2019-05-16T15:28:09.931Z</time>
      </trkpt>
      <trkpt lat="39.07224833" lon="-8.81127667">
        <ele>-8.0</ele>
        <time>2019-05-16T15:28:10.899Z</time>
      </trkpt>
      <trkpt lat="39.07227" lon="-8.81119833">
        <ele>-8.0</ele>
        <time>2019-05-16T15:28:11.921Z</time>
      </trkpt>
      <trkpt lat="39.07228167" lon="-8.81115667">
        <ele>-8.0</ele>
        <time>2019-05-16T15:28:12.928Z</time>
      </trkpt>
      <trkpt lat="39.07229" lon="-8.811115">
        <ele>-8.0</ele>
        <time>2019-05-16T15:28:13.931Z</time>
      </trkpt>
      <trkpt lat="39.07229833" lon="-8.811075">
        <ele>-8.0</ele>
        <time>2019-05-16T15:28:14.899Z</time>
      </trkpt>
      <trkpt lat="39.07229833" lon="-8.811075">
        <ele>-8.0</ele>
        <time>2019-05-16T15:28:15.920Z</time>
      </trkpt>
      <trkpt lat="39.07231" lon="-8.81099167">
        <ele>-8.0</ele>
        <time>2019-05-16T15:28:16.910Z</time>
      </trkpt>
      <trkpt lat="39.07231" lon="-8.81099167">
        <ele>-8.0</ele>
        <time>2019-05-16T15:28:17.919Z</time>
      </trkpt>
      <trkpt lat="39.072315" lon="-8.81090833">
        <ele>-8.0</ele>
        <time>2019-05-16T15:28:18.937Z</time>
      </trkpt>
      <trkpt lat="39.072315" lon="-8.81090833">
        <ele>-8.0</ele>
        <time>2019-05-16T15:28:19.917Z</time>
      </trkpt>
      <trkpt lat="39.07231833" lon="-8.81082167">
        <ele>-8.0</ele>
        <time>2019-05-16T15:28:20.907Z</time>
      </trkpt>
      <trkpt lat="39.07231833" lon="-8.81082167">
        <ele>-8.0</ele>
        <time>2019-05-16T15:28:21.898Z</time>
      </trkpt>
      <trkpt lat="39.07231667" lon="-8.81073167">
        <ele>-8.0</ele>
        <time>2019-05-16T15:28:22.916Z</time>
      </trkpt>
      <trkpt lat="39.07231667" lon="-8.81073167">
        <ele>-8.0</ele>
        <time>2019-05-16T15:28:23.904Z</time>
      </trkpt>
      <trkpt lat="39.07231167" lon="-8.81063833">
        <ele>-8.0</ele>
        <time>2019-05-16T15:28:24.929Z</time>
      </trkpt>
      <trkpt lat="39.07231167" lon="-8.81063833">
        <ele>-8.0</ele>
        <time>2019-05-16T15:28:25.901Z</time>
      </trkpt>
      <trkpt lat="39.0723" lon="-8.81054333">
        <ele>-8.0</ele>
        <time>2019-05-16T15:28:26.917Z</time>
      </trkpt>
      <trkpt lat="39.0723" lon="-8.81054333">
        <ele>-8.0</ele>
        <time>2019-05-16T15:28:27.931Z</time>
      </trkpt>
      <trkpt lat="39.07228667" lon="-8.81044667">
        <ele>-8.0</ele>
        <time>2019-05-16T15:28:28.912Z</time>
      </trkpt>
      <trkpt lat="39.07228667" lon="-8.81044667">
        <ele>-8.0</ele>
        <time>2019-05-16T15:28:29.903Z</time>
      </trkpt>
      <trkpt lat="39.07226333" lon="-8.81035167">
        <ele>-8.0</ele>
        <time>2019-05-16T15:28:30.938Z</time>
      </trkpt>
      <trkpt lat="39.07226333" lon="-8.81035167">
        <ele>-8.0</ele>
        <time>2019-05-16T15:28:31.923Z</time>
      </trkpt>
      <trkpt lat="39.07223833" lon="-8.81025833">
        <ele>-8.0</ele>
        <time>2019-05-16T15:28:32.917Z</time>
      </trkpt>
      <trkpt lat="39.07223833" lon="-8.81025833">
        <ele>-8.0</ele>
        <time>2019-05-16T15:28:33.903Z</time>
      </trkpt>
      <trkpt lat="39.07220833" lon="-8.81017">
        <ele>-8.0</ele>
        <time>2019-05-16T15:28:34.921Z</time>
      </trkpt>
      <trkpt lat="39.07220833" lon="-8.81017">
        <ele>-8.0</ele>
        <time>2019-05-16T15:28:35.919Z</time>
      </trkpt>
      <trkpt lat="39.072175" lon="-8.810085">
        <ele>-8.0</ele>
        <time>2019-05-16T15:28:36.900Z</time>
      </trkpt>
      <trkpt lat="39.072175" lon="-8.810085">
        <ele>-8.0</ele>
        <time>2019-05-16T15:28:37.902Z</time>
      </trkpt>
      <trkpt lat="39.072135" lon="-8.81000333">
        <ele>-8.0</ele>
        <time>2019-05-16T15:28:38.918Z</time>
      </trkpt>
      <trkpt lat="39.072135" lon="-8.81000333">
        <ele>-8.0</ele>
        <time>2019-05-16T15:28:39.897Z</time>
      </trkpt>
      <trkpt lat="39.07209" lon="-8.80992667">
        <ele>-8.0</ele>
        <time>2019-05-16T15:28:40.912Z</time>
      </trkpt>
      <trkpt lat="39.07209" lon="-8.80992667">
        <ele>-8.0</ele>
        <time>2019-05-16T15:28:41.933Z</time>
      </trkpt>
      <trkpt lat="39.07204" lon="-8.80985">
        <ele>-8.0</ele>
        <time>2019-05-16T15:28:42.921Z</time>
      </trkpt>
      <trkpt lat="39.07204" lon="-8.80985">
        <ele>-8.0</ele>
        <time>2019-05-16T15:28:43.913Z</time>
      </trkpt>
      <trkpt lat="39.07198333" lon="-8.80977667">
        <ele>-8.0</ele>
        <time>2019-05-16T15:28:44.901Z</time>
      </trkpt>
      <trkpt lat="39.07198333" lon="-8.80977667">
        <ele>-8.0</ele>
        <time>2019-05-16T15:28:45.920Z</time>
      </trkpt>
      <trkpt lat="39.07192167" lon="-8.80970667">
        <ele>-8.0</ele>
        <time>2019-05-16T15:28:46.904Z</time>
      </trkpt>
      <trkpt lat="39.07192167" lon="-8.80970667">
        <ele>-8.0</ele>
        <time>2019-05-16T15:28:47.923Z</time>
      </trkpt>
      <trkpt lat="39.07185833" lon="-8.80964">
        <ele>-8.0</ele>
        <time>2019-05-16T15:28:48.904Z</time>
      </trkpt>
      <trkpt lat="39.07185833" lon="-8.80964">
        <ele>-8.0</ele>
        <time>2019-05-16T15:28:49.924Z</time>
      </trkpt>
      <trkpt lat="39.07179167" lon="-8.809575">
        <ele>-8.0</ele>
        <time>2019-05-16T15:28:50.897Z</time>
      </trkpt>
      <trkpt lat="39.07179167" lon="-8.809575">
        <ele>-8.0</ele>
        <time>2019-05-16T15:28:51.928Z</time>
      </trkpt>
      <trkpt lat="39.07172667" lon="-8.80951">
        <ele>-8.0</ele>
        <time>2019-05-16T15:28:52.916Z</time>
      </trkpt>
      <trkpt lat="39.07172667" lon="-8.80951">
        <ele>-8.0</ele>
        <time>2019-05-16T15:28:53.902Z</time>
      </trkpt>
      <trkpt lat="39.07166" lon="-8.80944333">
        <ele>-8.0</ele>
        <time>2019-05-16T15:28:54.935Z</time>
      </trkpt>
      <trkpt lat="39.07166" lon="-8.80944333">
        <ele>-8.0</ele>
        <time>2019-05-16T15:28:55.909Z</time>
      </trkpt>
      <trkpt lat="39.07159167" lon="-8.80937833">
        <ele>-8.0</ele>
        <time>2019-05-16T15:28:56.898Z</time>
      </trkpt>
      <trkpt lat="39.07159167" lon="-8.80937833">
        <ele>-8.0</ele>
        <time>2019-05-16T15:28:57.916Z</time>
      </trkpt>
      <trkpt lat="39.071525" lon="-8.80930833">
        <ele>-8.0</ele>
        <time>2019-05-16T15:28:58.898Z</time>
      </trkpt>
      <trkpt lat="39.07149333" lon="-8.809275">
        <ele>-8.0</ele>
        <time>2019-05-16T15:28:59.915Z</time>
      </trkpt>
      <trkpt lat="39.07149333" lon="-8.809275">
        <ele>-8.0</ele>
        <time>2019-05-16T15:29:00.922Z</time>
      </trkpt>
      <trkpt lat="39.07142833" lon="-8.80920667">
        <ele>-8.0</ele>
        <time>2019-05-16T15:29:01.912Z</time>
      </trkpt>
      <trkpt lat="39.07139333" lon="-8.80917167">
        <ele>-8.0</ele>
        <time>2019-05-16T15:29:02.905Z</time>
      </trkpt>
      <trkpt lat="39.07139333" lon="-8.80917167">
        <ele>-8.0</ele>
        <time>2019-05-16T15:29:03.929Z</time>
      </trkpt>
      <trkpt lat="39.071325" lon="-8.8091">
        <ele>-8.0</ele>
        <time>2019-05-16T15:29:04.909Z</time>
      </trkpt>
      <trkpt lat="39.071325" lon="-8.8091">
        <ele>-8.0</ele>
        <time>2019-05-16T15:29:05.904Z</time>
      </trkpt>
      <trkpt lat="39.07125167" lon="-8.80902667">
        <ele>-9.0</ele>
        <time>2019-05-16T15:29:06.940Z</time>
      </trkpt>
      <trkpt lat="39.071215" lon="-8.80898833">
        <ele>-9.0</ele>
        <time>2019-05-16T15:29:07.897Z</time>
      </trkpt>
      <trkpt lat="39.07117833" lon="-8.80895">
        <ele>-9.0</ele>
        <time>2019-05-16T15:29:08.911Z</time>
      </trkpt>
      <trkpt lat="39.07117833" lon="-8.80895">
        <ele>-9.0</ele>
        <time>2019-05-16T15:29:09.903Z</time>
      </trkpt>
      <trkpt lat="39.07110167" lon="-8.80887333">
        <ele>-9.0</ele>
        <time>2019-05-16T15:29:10.921Z</time>
      </trkpt>
      <trkpt lat="39.07110167" lon="-8.80887333">
        <ele>-9.0</ele>
        <time>2019-05-16T15:29:11.904Z</time>
      </trkpt>
      <trkpt lat="39.07102667" lon="-8.80878833">
        <ele>-9.0</ele>
        <time>2019-05-16T15:29:12.938Z</time>
      </trkpt>
      <trkpt lat="39.07102667" lon="-8.80878833">
        <ele>-9.0</ele>
        <time>2019-05-16T15:29:13.906Z</time>
      </trkpt>
      <trkpt lat="39.07094667" lon="-8.80870667">
        <ele>-9.0</ele>
        <time>2019-05-16T15:29:14.930Z</time>
      </trkpt>
      <trkpt lat="39.07094667" lon="-8.80870667">
        <ele>-9.0</ele>
        <time>2019-05-16T15:29:15.931Z</time>
      </trkpt>
      <trkpt lat="39.07086333" lon="-8.80862833">
        <ele>-9.0</ele>
        <time>2019-05-16T15:29:16.911Z</time>
      </trkpt>
      <trkpt lat="39.07086333" lon="-8.80862833">
        <ele>-9.0</ele>
        <time>2019-05-16T15:29:17.935Z</time>
      </trkpt>
      <trkpt lat="39.07078333" lon="-8.80854333">
        <ele>-9.0</ele>
        <time>2019-05-16T15:29:18.911Z</time>
      </trkpt>
      <trkpt lat="39.07078333" lon="-8.80854333">
        <ele>-9.0</ele>
        <time>2019-05-16T15:29:19.903Z</time>
      </trkpt>
      <trkpt lat="39.07070333" lon="-8.808455">
        <ele>-9.0</ele>
        <time>2019-05-16T15:29:20.906Z</time>
      </trkpt>
      <trkpt lat="39.07070333" lon="-8.808455">
        <ele>-9.0</ele>
        <time>2019-05-16T15:29:21.899Z</time>
      </trkpt>
      <trkpt lat="39.07062" lon="-8.80837">
        <ele>-9.0</ele>
        <time>2019-05-16T15:29:22.911Z</time>
      </trkpt>
      <trkpt lat="39.07062" lon="-8.80837">
        <ele>-9.0</ele>
        <time>2019-05-16T15:29:23.903Z</time>
      </trkpt>
      <trkpt lat="39.070535" lon="-8.80828833">
        <ele>-9.0</ele>
        <time>2019-05-16T15:29:24.917Z</time>
      </trkpt>
      <trkpt lat="39.070535" lon="-8.80828833">
        <ele>-9.0</ele>
        <time>2019-05-16T15:29:25.914Z</time>
      </trkpt>
      <trkpt lat="39.07045167" lon="-8.808205">
        <ele>-9.0</ele>
        <time>2019-05-16T15:29:26.933Z</time>
      </trkpt>
      <trkpt lat="39.07045167" lon="-8.808205">
        <ele>-9.0</ele>
        <time>2019-05-16T15:29:27.903Z</time>
      </trkpt>
      <trkpt lat="39.07037" lon="-8.808125">
        <ele>-9.0</ele>
        <time>2019-05-16T15:29:28.931Z</time>
      </trkpt>
      <trkpt lat="39.07037" lon="-8.808125">
        <ele>-9.0</ele>
        <time>2019-05-16T15:29:29.917Z</time>
      </trkpt>
      <trkpt lat="39.07029167" lon="-8.80804167">
        <ele>-9.0</ele>
        <time>2019-05-16T15:29:30.910Z</time>
      </trkpt>
      <trkpt lat="39.07029167" lon="-8.80804167">
        <ele>-9.0</ele>
        <time>2019-05-16T15:29:31.933Z</time>
      </trkpt>
      <trkpt lat="39.07021167" lon="-8.80796167">
        <ele>-9.0</ele>
        <time>2019-05-16T15:29:32.908Z</time>
      </trkpt>
      <trkpt lat="39.07021167" lon="-8.80796167">
        <ele>-9.0</ele>
        <time>2019-05-16T15:29:33.926Z</time>
      </trkpt>
      <trkpt lat="39.07013333" lon="-8.80788333">
        <ele>-9.0</ele>
        <time>2019-05-16T15:29:34.908Z</time>
      </trkpt>
      <trkpt lat="39.07013333" lon="-8.80788333">
        <ele>-9.0</ele>
        <time>2019-05-16T15:29:35.902Z</time>
      </trkpt>
      <trkpt lat="39.07005833" lon="-8.80779833">
        <ele>-9.0</ele>
        <time>2019-05-16T15:29:36.923Z</time>
      </trkpt>
      <trkpt lat="39.07005833" lon="-8.80779833">
        <ele>-9.0</ele>
        <time>2019-05-16T15:29:37.914Z</time>
      </trkpt>
      <trkpt lat="39.06997833" lon="-8.80771333">
        <ele>-9.0</ele>
        <time>2019-05-16T15:29:38.909Z</time>
      </trkpt>
      <trkpt lat="39.06997833" lon="-8.80771333">
        <ele>-9.0</ele>
        <time>2019-05-16T15:29:39.898Z</time>
      </trkpt>
      <trkpt lat="39.06989667" lon="-8.80762667">
        <ele>-9.0</ele>
        <time>2019-05-16T15:29:40.914Z</time>
      </trkpt>
      <trkpt lat="39.06989667" lon="-8.80762667">
        <ele>-9.0</ele>
        <time>2019-05-16T15:29:41.897Z</time>
      </trkpt>
      <trkpt lat="39.06981667" lon="-8.80754">
        <ele>-9.0</ele>
        <time>2019-05-16T15:29:42.929Z</time>
      </trkpt>
      <trkpt lat="39.06981667" lon="-8.80754">
        <ele>-9.0</ele>
        <time>2019-05-16T15:29:43.922Z</time>
      </trkpt>
      <trkpt lat="39.06973833" lon="-8.80745">
        <ele>-9.0</ele>
        <time>2019-05-16T15:29:44.910Z</time>
      </trkpt>
      <trkpt lat="39.06973833" lon="-8.80745">
        <ele>-9.0</ele>
        <time>2019-05-16T15:29:45.903Z</time>
      </trkpt>
      <trkpt lat="39.06966" lon="-8.80735667">
        <ele>-9.0</ele>
        <time>2019-05-16T15:29:46.932Z</time>
      </trkpt>
      <trkpt lat="39.06966" lon="-8.80735667">
        <ele>-9.0</ele>
        <time>2019-05-16T15:29:47.907Z</time>
      </trkpt>
      <trkpt lat="39.069585" lon="-8.80726">
        <ele>-9.0</ele>
        <time>2019-05-16T15:29:48.930Z</time>
      </trkpt>
      <trkpt lat="39.069585" lon="-8.80726">
        <ele>-9.0</ele>
        <time>2019-05-16T15:29:49.925Z</time>
      </trkpt>
      <trkpt lat="39.06951333" lon="-8.80716">
        <ele>-9.0</ele>
        <time>2019-05-16T15:29:50.910Z</time>
      </trkpt>
      <trkpt lat="39.06951333" lon="-8.80716">
        <ele>-9.0</ele>
        <time>2019-05-16T15:29:51.900Z</time>
      </trkpt>
      <trkpt lat="39.069445" lon="-8.80705833">
        <ele>-9.0</ele>
        <time>2019-05-16T15:29:52.921Z</time>
      </trkpt>
      <trkpt lat="39.069445" lon="-8.80705833">
        <ele>-9.0</ele>
        <time>2019-05-16T15:29:53.936Z</time>
      </trkpt>
      <trkpt lat="39.06939" lon="-8.80694167">
        <ele>-9.0</ele>
        <time>2019-05-16T15:29:54.912Z</time>
      </trkpt>
      <trkpt lat="39.06939" lon="-8.80694167">
        <ele>-9.0</ele>
        <time>2019-05-16T15:29:55.903Z</time>
      </trkpt>
      <trkpt lat="39.06934667" lon="-8.80680833">
        <ele>-9.0</ele>
        <time>2019-05-16T15:29:56.921Z</time>
      </trkpt>
      <trkpt lat="39.06934667" lon="-8.80680833">
        <ele>-9.0</ele>
        <time>2019-05-16T15:29:57.907Z</time>
      </trkpt>
      <trkpt lat="39.06931" lon="-8.80666833">
        <ele>-9.0</ele>
        <time>2019-05-16T15:29:58.934Z</time>
      </trkpt>
      <trkpt lat="39.06931" lon="-8.80666833">
        <ele>-9.0</ele>
        <time>2019-05-16T15:29:59.904Z</time>
      </trkpt>
      <trkpt lat="39.069265" lon="-8.80653167">
        <ele>-9.0</ele>
        <time>2019-05-16T15:30:00.924Z</time>
      </trkpt>
      <trkpt lat="39.069265" lon="-8.80653167">
        <ele>-9.0</ele>
        <time>2019-05-16T15:30:01.914Z</time>
      </trkpt>
      <trkpt lat="39.06922" lon="-8.80639333">
        <ele>-10.0</ele>
        <time>2019-05-16T15:30:02.923Z</time>
      </trkpt>
      <trkpt lat="39.06922" lon="-8.80639333">
        <ele>-10.0</ele>
        <time>2019-05-16T15:30:03.927Z</time>
      </trkpt>
      <trkpt lat="39.06917333" lon="-8.80625333">
        <ele>-10.0</ele>
        <time>2019-05-16T15:30:04.906Z</time>
      </trkpt>
      <trkpt lat="39.06917333" lon="-8.80625333">
        <ele>-10.0</ele>
        <time>2019-05-16T15:30:05.927Z</time>
      </trkpt>
      <trkpt lat="39.06911333" lon="-8.80612333">
        <ele>-10.0</ele>
        <time>2019-05-16T15:30:06.905Z</time>
      </trkpt>
      <trkpt lat="39.06911333" lon="-8.80612333">
        <ele>-10.0</ele>
        <time>2019-05-16T15:30:07.911Z</time>
      </trkpt>
      <trkpt lat="39.069035" lon="-8.80601667">
        <ele>-9.0</ele>
        <time>2019-05-16T15:30:08.907Z</time>
      </trkpt>
      <trkpt lat="39.069035" lon="-8.80601667">
        <ele>-9.0</ele>
        <time>2019-05-16T15:30:09.901Z</time>
      </trkpt>
      <trkpt lat="39.06894833" lon="-8.80593667">
        <ele>-9.0</ele>
        <time>2019-05-16T15:30:10.929Z</time>
      </trkpt>
      <trkpt lat="39.06894833" lon="-8.80593667">
        <ele>-9.0</ele>
        <time>2019-05-16T15:30:11.933Z</time>
      </trkpt>
      <trkpt lat="39.06886" lon="-8.80587167">
        <ele>-9.0</ele>
        <time>2019-05-16T15:30:12.921Z</time>
      </trkpt>
      <trkpt lat="39.06886" lon="-8.80587167">
        <ele>-9.0</ele>
        <time>2019-05-16T15:30:13.903Z</time>
      </trkpt>
      <trkpt lat="39.06877" lon="-8.80582333">
        <ele>-9.0</ele>
        <time>2019-05-16T15:30:14.921Z</time>
      </trkpt>
      <trkpt lat="39.06877" lon="-8.80582333">
        <ele>-9.0</ele>
        <time>2019-05-16T15:30:15.914Z</time>
      </trkpt>
      <trkpt lat="39.06868833" lon="-8.80578167">
        <ele>-8.0</ele>
        <time>2019-05-16T15:30:16.932Z</time>
      </trkpt>
      <trkpt lat="39.06868833" lon="-8.80578167">
        <ele>-8.0</ele>
        <time>2019-05-16T15:30:17.914Z</time>
      </trkpt>
      <trkpt lat="39.06862" lon="-8.80574833">
        <ele>-8.0</ele>
        <time>2019-05-16T15:30:18.933Z</time>
      </trkpt>
      <trkpt lat="39.06862" lon="-8.80574833">
        <ele>-8.0</ele>
        <time>2019-05-16T15:30:19.926Z</time>
      </trkpt>
      <trkpt lat="39.06854333" lon="-8.80572">
        <ele>-9.0</ele>
        <time>2019-05-16T15:30:20.957Z</time>
      </trkpt>
      <trkpt lat="39.06854333" lon="-8.80572">
        <ele>-9.0</ele>
        <time>2019-05-16T15:30:21.903Z</time>
      </trkpt>
      <trkpt lat="39.06845333" lon="-8.80568">
        <ele>-9.0</ele>
        <time>2019-05-16T15:30:22.925Z</time>
      </trkpt>
      <trkpt lat="39.06845333" lon="-8.80568">
        <ele>-9.0</ele>
        <time>2019-05-16T15:30:23.914Z</time>
      </trkpt>
      <trkpt lat="39.06835333" lon="-8.805645">
        <ele>-10.0</ele>
        <time>2019-05-16T15:30:24.936Z</time>
      </trkpt>
      <trkpt lat="39.06835333" lon="-8.805645">
        <ele>-10.0</ele>
        <time>2019-05-16T15:30:25.920Z</time>
      </trkpt>
      <trkpt lat="39.06825" lon="-8.80560333">
        <ele>-10.0</ele>
        <time>2019-05-16T15:30:26.905Z</time>
      </trkpt>
      <trkpt lat="39.06825" lon="-8.80560333">
        <ele>-10.0</ele>
        <time>2019-05-16T15:30:27.923Z</time>
      </trkpt>
      <trkpt lat="39.06814833" lon="-8.80555333">
        <ele>-10.0</ele>
        <time>2019-05-16T15:30:28.903Z</time>
      </trkpt>
      <trkpt lat="39.06809667" lon="-8.80553">
        <ele>-10.0</ele>
        <time>2019-05-16T15:30:29.911Z</time>
      </trkpt>
      <trkpt lat="39.06809667" lon="-8.80553">
        <ele>-10.0</ele>
        <time>2019-05-16T15:30:30.897Z</time>
      </trkpt>
      <trkpt lat="39.067995" lon="-8.80548">
        <ele>-10.0</ele>
        <time>2019-05-16T15:30:31.920Z</time>
      </trkpt>
      <trkpt lat="39.067945" lon="-8.80545">
        <ele>-10.0</ele>
        <time>2019-05-16T15:30:32.923Z</time>
      </trkpt>
      <trkpt lat="39.067945" lon="-8.80545">
        <ele>-10.0</ele>
        <time>2019-05-16T15:30:33.903Z</time>
      </trkpt>
      <trkpt lat="39.06784667" lon="-8.80539167">
        <ele>-10.0</ele>
        <time>2019-05-16T15:30:34.922Z</time>
      </trkpt>
      <trkpt lat="39.06784667" lon="-8.80539167">
        <ele>-10.0</ele>
        <time>2019-05-16T15:30:35.918Z</time>
      </trkpt>
      <trkpt lat="39.06775" lon="-8.80533667">
        <ele>-10.0</ele>
        <time>2019-05-16T15:30:36.932Z</time>
      </trkpt>
      <trkpt lat="39.06775" lon="-8.80533667">
        <ele>-10.0</ele>
        <time>2019-05-16T15:30:37.923Z</time>
      </trkpt>
      <trkpt lat="39.06766" lon="-8.80527333">
        <ele>-10.0</ele>
        <time>2019-05-16T15:30:38.904Z</time>
      </trkpt>
      <trkpt lat="39.06766" lon="-8.80527333">
        <ele>-10.0</ele>
        <time>2019-05-16T15:30:39.902Z</time>
      </trkpt>
      <trkpt lat="39.06757167" lon="-8.80521667">
        <ele>-10.0</ele>
        <time>2019-05-16T15:30:40.921Z</time>
      </trkpt>
      <trkpt lat="39.06757167" lon="-8.80521667">
        <ele>-10.0</ele>
        <time>2019-05-16T15:30:41.923Z</time>
      </trkpt>
      <trkpt lat="39.06748667" lon="-8.80516">
        <ele>-10.0</ele>
        <time>2019-05-16T15:30:42.916Z</time>
      </trkpt>
      <trkpt lat="39.06748667" lon="-8.80516">
        <ele>-10.0</ele>
        <time>2019-05-16T15:30:43.900Z</time>
      </trkpt>
      <trkpt lat="39.06740333" lon="-8.80510833">
        <ele>-10.0</ele>
        <time>2019-05-16T15:30:44.917Z</time>
      </trkpt>
      <trkpt lat="39.06740333" lon="-8.80510833">
        <ele>-10.0</ele>
        <time>2019-05-16T15:30:45.903Z</time>
      </trkpt>
      <trkpt lat="39.06732" lon="-8.80506333">
        <ele>-10.0</ele>
        <time>2019-05-16T15:30:46.918Z</time>
      </trkpt>
      <trkpt lat="39.06732" lon="-8.80506333">
        <ele>-10.0</ele>
        <time>2019-05-16T15:30:47.917Z</time>
      </trkpt>
      <trkpt lat="39.06723667" lon="-8.80501167">
        <ele>-10.0</ele>
        <time>2019-05-16T15:30:48.936Z</time>
      </trkpt>
      <trkpt lat="39.06723667" lon="-8.80501167">
        <ele>-10.0</ele>
        <time>2019-05-16T15:30:49.919Z</time>
      </trkpt>
      <trkpt lat="39.06715167" lon="-8.804965">
        <ele>-10.0</ele>
        <time>2019-05-16T15:30:50.904Z</time>
      </trkpt>
      <trkpt lat="39.06715167" lon="-8.804965">
        <ele>-10.0</ele>
        <time>2019-05-16T15:30:51.933Z</time>
      </trkpt>
      <trkpt lat="39.06706833" lon="-8.804915">
        <ele>-10.0</ele>
        <time>2019-05-16T15:30:52.921Z</time>
      </trkpt>
      <trkpt lat="39.06706833" lon="-8.804915">
        <ele>-10.0</ele>
        <time>2019-05-16T15:30:53.926Z</time>
      </trkpt>
      <trkpt lat="39.06698833" lon="-8.804865">
        <ele>-10.0</ele>
        <time>2019-05-16T15:30:54.905Z</time>
      </trkpt>
      <trkpt lat="39.06698833" lon="-8.804865">
        <ele>-10.0</ele>
        <time>2019-05-16T15:30:55.904Z</time>
      </trkpt>
      <trkpt lat="39.06690667" lon="-8.80481167">
        <ele>-10.0</ele>
        <time>2019-05-16T15:30:56.897Z</time>
      </trkpt>
      <trkpt lat="39.06690667" lon="-8.80481167">
        <ele>-10.0</ele>
        <time>2019-05-16T15:30:57.929Z</time>
      </trkpt>
      <trkpt lat="39.066825" lon="-8.80475667">
        <ele>-10.0</ele>
        <time>2019-05-16T15:30:58.910Z</time>
      </trkpt>
      <trkpt lat="39.06678333" lon="-8.80473167">
        <ele>-10.0</ele>
        <time>2019-05-16T15:30:59.899Z</time>
      </trkpt>
      <trkpt lat="39.06678333" lon="-8.80473167">
        <ele>-10.0</ele>
        <time>2019-05-16T15:31:00.924Z</time>
      </trkpt>
      <trkpt lat="39.066695" lon="-8.80468167">
        <ele>-10.0</ele>
        <time>2019-05-16T15:31:01.909Z</time>
      </trkpt>
      <trkpt lat="39.06665333" lon="-8.804655">
        <ele>-10.0</ele>
        <time>2019-05-16T15:31:02.915Z</time>
      </trkpt>
      <trkpt lat="39.06665333" lon="-8.804655">
        <ele>-10.0</ele>
        <time>2019-05-16T15:31:03.918Z</time>
      </trkpt>
      <trkpt lat="39.066565" lon="-8.80460667">
        <ele>-10.0</ele>
        <time>2019-05-16T15:31:04.898Z</time>
      </trkpt>
      <trkpt lat="39.066565" lon="-8.80460667">
        <ele>-10.0</ele>
        <time>2019-05-16T15:31:05.913Z</time>
      </trkpt>
      <trkpt lat="39.066475" lon="-8.80456167">
        <ele>-10.0</ele>
        <time>2019-05-16T15:31:06.933Z</time>
      </trkpt>
      <trkpt lat="39.066475" lon="-8.80456167">
        <ele>-10.0</ele>
        <time>2019-05-16T15:31:07.915Z</time>
      </trkpt>
      <trkpt lat="39.066385" lon="-8.80451">
        <ele>-10.0</ele>
        <time>2019-05-16T15:31:08.897Z</time>
      </trkpt>
      <trkpt lat="39.066385" lon="-8.80451">
        <ele>-10.0</ele>
        <time>2019-05-16T15:31:09.901Z</time>
      </trkpt>
      <trkpt lat="39.066295" lon="-8.80445667">
        <ele>-10.0</ele>
        <time>2019-05-16T15:31:10.914Z</time>
      </trkpt>
      <trkpt lat="39.06625" lon="-8.80443">
        <ele>-10.0</ele>
        <time>2019-05-16T15:31:11.898Z</time>
      </trkpt>
      <trkpt lat="39.06625" lon="-8.80443">
        <ele>-10.0</ele>
        <time>2019-05-16T15:31:12.923Z</time>
      </trkpt>
      <trkpt lat="39.06616" lon="-8.80437667">
        <ele>-10.0</ele>
        <time>2019-05-16T15:31:13.934Z</time>
      </trkpt>
      <trkpt lat="39.06611333" lon="-8.80435">
        <ele>-10.0</ele>
        <time>2019-05-16T15:31:14.929Z</time>
      </trkpt>
      <trkpt lat="39.06606833" lon="-8.804325">
        <ele>-10.0</ele>
        <time>2019-05-16T15:31:15.903Z</time>
      </trkpt>
      <trkpt lat="39.06606833" lon="-8.804325">
        <ele>-10.0</ele>
        <time>2019-05-16T15:31:16.917Z</time>
      </trkpt>
      <trkpt lat="39.06598" lon="-8.80427333">
        <ele>-10.0</ele>
        <time>2019-05-16T15:31:17.900Z</time>
      </trkpt>
      <trkpt lat="39.06598" lon="-8.80427333">
        <ele>-10.0</ele>
        <time>2019-05-16T15:31:18.903Z</time>
      </trkpt>
      <trkpt lat="39.06589333" lon="-8.80422167">
        <ele>-10.0</ele>
        <time>2019-05-16T15:31:19.922Z</time>
      </trkpt>
      <trkpt lat="39.06589333" lon="-8.80422167">
        <ele>-10.0</ele>
        <time>2019-05-16T15:31:20.903Z</time>
      </trkpt>
      <trkpt lat="39.06580833" lon="-8.80417167">
        <ele>-10.0</ele>
        <time>2019-05-16T15:31:21.910Z</time>
      </trkpt>
      <trkpt lat="39.06576833" lon="-8.80414667">
        <ele>-10.0</ele>
        <time>2019-05-16T15:31:22.907Z</time>
      </trkpt>
      <trkpt lat="39.06576833" lon="-8.80414667">
        <ele>-10.0</ele>
        <time>2019-05-16T15:31:23.936Z</time>
      </trkpt>
      <trkpt lat="39.06568667" lon="-8.8041">
        <ele>-10.0</ele>
        <time>2019-05-16T15:31:24.919Z</time>
      </trkpt>
      <trkpt lat="39.06568667" lon="-8.8041">
        <ele>-10.0</ele>
        <time>2019-05-16T15:31:25.918Z</time>
      </trkpt>
      <trkpt lat="39.06560167" lon="-8.80405333">
        <ele>-10.0</ele>
        <time>2019-05-16T15:31:26.936Z</time>
      </trkpt>
      <trkpt lat="39.06560167" lon="-8.80405333">
        <ele>-10.0</ele>
        <time>2019-05-16T15:31:27.929Z</time>
      </trkpt>
      <trkpt lat="39.06551833" lon="-8.804">
        <ele>-10.0</ele>
        <time>2019-05-16T15:31:28.907Z</time>
      </trkpt>
      <trkpt lat="39.06551833" lon="-8.804">
        <ele>-10.0</ele>
        <time>2019-05-16T15:31:29.899Z</time>
      </trkpt>
      <trkpt lat="39.06543167" lon="-8.80395">
        <ele>-10.0</ele>
        <time>2019-05-16T15:31:30.923Z</time>
      </trkpt>
      <trkpt lat="39.06543167" lon="-8.80395">
        <ele>-10.0</ele>
        <time>2019-05-16T15:31:31.921Z</time>
      </trkpt>
      <trkpt lat="39.065345" lon="-8.80389833">
        <ele>-10.0</ele>
        <time>2019-05-16T15:31:32.908Z</time>
      </trkpt>
      <trkpt lat="39.065345" lon="-8.80389833">
        <ele>-10.0</ele>
        <time>2019-05-16T15:31:33.908Z</time>
      </trkpt>
      <trkpt lat="39.06525667" lon="-8.80384833">
        <ele>-10.0</ele>
        <time>2019-05-16T15:31:34.934Z</time>
      </trkpt>
      <trkpt lat="39.06525667" lon="-8.80384833">
        <ele>-10.0</ele>
        <time>2019-05-16T15:31:35.936Z</time>
      </trkpt>
      <trkpt lat="39.06516833" lon="-8.80379833">
        <ele>-11.0</ele>
        <time>2019-05-16T15:31:36.940Z</time>
      </trkpt>
      <trkpt lat="39.06516833" lon="-8.80379833">
        <ele>-11.0</ele>
        <time>2019-05-16T15:31:37.917Z</time>
      </trkpt>
      <trkpt lat="39.06508167" lon="-8.80374833">
        <ele>-11.0</ele>
        <time>2019-05-16T15:31:38.932Z</time>
      </trkpt>
      <trkpt lat="39.06508167" lon="-8.80374833">
        <ele>-11.0</ele>
        <time>2019-05-16T15:31:39.919Z</time>
      </trkpt>
      <trkpt lat="39.06499667" lon="-8.8037">
        <ele>-11.0</ele>
        <time>2019-05-16T15:31:40.901Z</time>
      </trkpt>
      <trkpt lat="39.06499667" lon="-8.8037">
        <ele>-11.0</ele>
        <time>2019-05-16T15:31:41.920Z</time>
      </trkpt>
      <trkpt lat="39.06491333" lon="-8.80364833">
        <ele>-11.0</ele>
        <time>2019-05-16T15:31:42.901Z</time>
      </trkpt>
      <trkpt lat="39.06491333" lon="-8.80364833">
        <ele>-11.0</ele>
        <time>2019-05-16T15:31:43.931Z</time>
      </trkpt>
      <trkpt lat="39.06482667" lon="-8.80359667">
        <ele>-11.0</ele>
        <time>2019-05-16T15:31:44.913Z</time>
      </trkpt>
      <trkpt lat="39.06482667" lon="-8.80359667">
        <ele>-11.0</ele>
        <time>2019-05-16T15:31:45.936Z</time>
      </trkpt>
      <trkpt lat="39.06474167" lon="-8.80353833">
        <ele>-11.0</ele>
        <time>2019-05-16T15:31:46.919Z</time>
      </trkpt>
      <trkpt lat="39.06474167" lon="-8.80353833">
        <ele>-11.0</ele>
        <time>2019-05-16T15:31:47.918Z</time>
      </trkpt>
      <trkpt lat="39.06465" lon="-8.803485">
        <ele>-11.0</ele>
        <time>2019-05-16T15:31:48.934Z</time>
      </trkpt>
      <trkpt lat="39.06465" lon="-8.803485">
        <ele>-11.0</ele>
        <time>2019-05-16T15:31:49.922Z</time>
      </trkpt>
      <trkpt lat="39.06455833" lon="-8.80343167">
        <ele>-11.0</ele>
        <time>2019-05-16T15:31:50.904Z</time>
      </trkpt>
      <trkpt lat="39.06455833" lon="-8.80343167">
        <ele>-11.0</ele>
        <time>2019-05-16T15:31:51.929Z</time>
      </trkpt>
      <trkpt lat="39.06446833" lon="-8.80337333">
        <ele>-11.0</ele>
        <time>2019-05-16T15:31:52.921Z</time>
      </trkpt>
      <trkpt lat="39.06446833" lon="-8.80337333">
        <ele>-11.0</ele>
        <time>2019-05-16T15:31:53.904Z</time>
      </trkpt>
      <trkpt lat="39.06437667" lon="-8.803315">
        <ele>-11.0</ele>
        <time>2019-05-16T15:31:54.925Z</time>
      </trkpt>
      <trkpt lat="39.06437667" lon="-8.803315">
        <ele>-11.0</ele>
        <time>2019-05-16T15:31:55.921Z</time>
      </trkpt>
      <trkpt lat="39.06428167" lon="-8.803255">
        <ele>-11.0</ele>
        <time>2019-05-16T15:31:56.902Z</time>
      </trkpt>
      <trkpt lat="39.06428167" lon="-8.803255">
        <ele>-11.0</ele>
        <time>2019-05-16T15:31:57.927Z</time>
      </trkpt>
      <trkpt lat="39.06419167" lon="-8.80319333">
        <ele>-11.0</ele>
        <time>2019-05-16T15:31:58.913Z</time>
      </trkpt>
      <trkpt lat="39.06419167" lon="-8.80319333">
        <ele>-11.0</ele>
        <time>2019-05-16T15:31:59.935Z</time>
      </trkpt>
      <trkpt lat="39.06410167" lon="-8.80312667">
        <ele>-11.0</ele>
        <time>2019-05-16T15:32:00.934Z</time>
      </trkpt>
      <trkpt lat="39.06405833" lon="-8.803095">
        <ele>-11.0</ele>
        <time>2019-05-16T15:32:01.936Z</time>
      </trkpt>
      <trkpt lat="39.06401333" lon="-8.80306167">
        <ele>-11.0</ele>
        <time>2019-05-16T15:32:02.920Z</time>
      </trkpt>
      <trkpt lat="39.06401333" lon="-8.80306167">
        <ele>-11.0</ele>
        <time>2019-05-16T15:32:03.918Z</time>
      </trkpt>
      <trkpt lat="39.063925" lon="-8.80299833">
        <ele>-11.0</ele>
        <time>2019-05-16T15:32:04.915Z</time>
      </trkpt>
      <trkpt lat="39.063925" lon="-8.80299833">
        <ele>-11.0</ele>
        <time>2019-05-16T15:32:05.899Z</time>
      </trkpt>
      <trkpt lat="39.06383667" lon="-8.802935">
        <ele>-11.0</ele>
        <time>2019-05-16T15:32:06.913Z</time>
      </trkpt>
      <trkpt lat="39.06379167" lon="-8.802905">
        <ele>-11.0</ele>
        <time>2019-05-16T15:32:07.937Z</time>
      </trkpt>
      <trkpt lat="39.06379167" lon="-8.802905">
        <ele>-11.0</ele>
        <time>2019-05-16T15:32:08.914Z</time>
      </trkpt>
      <trkpt lat="39.06370667" lon="-8.802835">
        <ele>-11.0</ele>
        <time>2019-05-16T15:32:09.936Z</time>
      </trkpt>
      <trkpt lat="39.06370667" lon="-8.802835">
        <ele>-11.0</ele>
        <time>2019-05-16T15:32:10.933Z</time>
      </trkpt>
      <trkpt lat="39.06361667" lon="-8.80277">
        <ele>-11.0</ele>
        <time>2019-05-16T15:32:11.906Z</time>
      </trkpt>
      <trkpt lat="39.06361667" lon="-8.80277">
        <ele>-11.0</ele>
        <time>2019-05-16T15:32:12.900Z</time>
      </trkpt>
      <trkpt lat="39.06352667" lon="-8.80269833">
        <ele>-11.0</ele>
        <time>2019-05-16T15:32:13.921Z</time>
      </trkpt>
      <trkpt lat="39.06348167" lon="-8.80266167">
        <ele>-11.0</ele>
        <time>2019-05-16T15:32:14.897Z</time>
      </trkpt>
      <trkpt lat="39.06348167" lon="-8.80266167">
        <ele>-11.0</ele>
        <time>2019-05-16T15:32:15.917Z</time>
      </trkpt>
      <trkpt lat="39.063395" lon="-8.80258833">
        <ele>-11.0</ele>
        <time>2019-05-16T15:32:16.901Z</time>
      </trkpt>
      <trkpt lat="39.063395" lon="-8.80258833">
        <ele>-11.0</ele>
        <time>2019-05-16T15:32:17.909Z</time>
      </trkpt>
      <trkpt lat="39.06330667" lon="-8.80251667">
        <ele>-11.0</ele>
        <time>2019-05-16T15:32:18.940Z</time>
      </trkpt>
      <trkpt lat="39.06330667" lon="-8.80251667">
        <ele>-11.0</ele>
        <time>2019-05-16T15:32:19.922Z</time>
      </trkpt>
      <trkpt lat="39.06321667" lon="-8.80244833">
        <ele>-11.0</ele>
        <time>2019-05-16T15:32:20.925Z</time>
      </trkpt>
      <trkpt lat="39.06321667" lon="-8.80244833">
        <ele>-11.0</ele>
        <time>2019-05-16T15:32:21.905Z</time>
      </trkpt>
      <trkpt lat="39.06313167" lon="-8.80237333">
        <ele>-11.0</ele>
        <time>2019-05-16T15:32:22.922Z</time>
      </trkpt>
      <trkpt lat="39.06313167" lon="-8.80237333">
        <ele>-11.0</ele>
        <time>2019-05-16T15:32:23.903Z</time>
      </trkpt>
      <trkpt lat="39.06304333" lon="-8.80230167">
        <ele>-11.0</ele>
        <time>2019-05-16T15:32:24.921Z</time>
      </trkpt>
      <trkpt lat="39.06304333" lon="-8.80230167">
        <ele>-11.0</ele>
        <time>2019-05-16T15:32:25.905Z</time>
      </trkpt>
      <trkpt lat="39.062955" lon="-8.80223">
        <ele>-11.0</ele>
        <time>2019-05-16T15:32:26.921Z</time>
      </trkpt>
      <trkpt lat="39.062955" lon="-8.80223">
        <ele>-11.0</ele>
        <time>2019-05-16T15:32:27.897Z</time>
      </trkpt>
      <trkpt lat="39.06286833" lon="-8.80215833">
        <ele>-11.0</ele>
        <time>2019-05-16T15:32:28.918Z</time>
      </trkpt>
      <trkpt lat="39.06286833" lon="-8.80215833">
        <ele>-11.0</ele>
        <time>2019-05-16T15:32:29.930Z</time>
      </trkpt>
      <trkpt lat="39.06278333" lon="-8.80208667">
        <ele>-11.0</ele>
        <time>2019-05-16T15:32:30.910Z</time>
      </trkpt>
      <trkpt lat="39.06274333" lon="-8.80204833">
        <ele>-11.0</ele>
        <time>2019-05-16T15:32:31.922Z</time>
      </trkpt>
      <trkpt lat="39.06270167" lon="-8.80201">
        <ele>-11.0</ele>
        <time>2019-05-16T15:32:32.932Z</time>
      </trkpt>
      <trkpt lat="39.06270167" lon="-8.80201">
        <ele>-11.0</ele>
        <time>2019-05-16T15:32:33.902Z</time>
      </trkpt>
      <trkpt lat="39.062615" lon="-8.80194">
        <ele>-11.0</ele>
        <time>2019-05-16T15:32:34.927Z</time>
      </trkpt>
      <trkpt lat="39.062615" lon="-8.80194">
        <ele>-11.0</ele>
        <time>2019-05-16T15:32:35.903Z</time>
      </trkpt>
      <trkpt lat="39.06252833" lon="-8.80187">
        <ele>-11.0</ele>
        <time>2019-05-16T15:32:36.930Z</time>
      </trkpt>
      <trkpt lat="39.06252833" lon="-8.80187">
        <ele>-11.0</ele>
        <time>2019-05-16T15:32:37.917Z</time>
      </trkpt>
      <trkpt lat="39.062445" lon="-8.80179333">
        <ele>-11.0</ele>
        <time>2019-05-16T15:32:38.905Z</time>
      </trkpt>
      <trkpt lat="39.062445" lon="-8.80179333">
        <ele>-11.0</ele>
        <time>2019-05-16T15:32:39.933Z</time>
      </trkpt>
      <trkpt lat="39.06236" lon="-8.80172">
        <ele>-11.0</ele>
        <time>2019-05-16T15:32:40.931Z</time>
      </trkpt>
      <trkpt lat="39.06236" lon="-8.80172">
        <ele>-11.0</ele>
        <time>2019-05-16T15:32:41.933Z</time>
      </trkpt>
      <trkpt lat="39.06227833" lon="-8.80164">
        <ele>-11.0</ele>
        <time>2019-05-16T15:32:42.928Z</time>
      </trkpt>
      <trkpt lat="39.06227833" lon="-8.80164">
        <ele>-11.0</ele>
        <time>2019-05-16T15:32:43.923Z</time>
      </trkpt>
      <trkpt lat="39.062195" lon="-8.80156333">
        <ele>-10.0</ele>
        <time>2019-05-16T15:32:44.912Z</time>
      </trkpt>
      <trkpt lat="39.062195" lon="-8.80156333">
        <ele>-10.0</ele>
        <time>2019-05-16T15:32:45.933Z</time>
      </trkpt>
      <trkpt lat="39.06211167" lon="-8.80148667">
        <ele>-10.0</ele>
        <time>2019-05-16T15:32:46.918Z</time>
      </trkpt>
      <trkpt lat="39.06211167" lon="-8.80148667">
        <ele>-10.0</ele>
        <time>2019-05-16T15:32:47.909Z</time>
      </trkpt>
      <trkpt lat="39.06203333" lon="-8.80140833">
        <ele>-10.0</ele>
        <time>2019-05-16T15:32:48.938Z</time>
      </trkpt>
      <trkpt lat="39.06199167" lon="-8.80137167">
        <ele>-10.0</ele>
        <time>2019-05-16T15:32:49.904Z</time>
      </trkpt>
      <trkpt lat="39.06195" lon="-8.80133667">
        <ele>-10.0</ele>
        <time>2019-05-16T15:32:50.897Z</time>
      </trkpt>
      <trkpt lat="39.06195" lon="-8.80133667">
        <ele>-10.0</ele>
        <time>2019-05-16T15:32:51.932Z</time>
      </trkpt>
      <trkpt lat="39.06186833" lon="-8.801265">
        <ele>-10.0</ele>
        <time>2019-05-16T15:32:52.897Z</time>
      </trkpt>
      <trkpt lat="39.06186833" lon="-8.801265">
        <ele>-10.0</ele>
        <time>2019-05-16T15:32:53.933Z</time>
      </trkpt>
      <trkpt lat="39.061785" lon="-8.80119167">
        <ele>-10.0</ele>
        <time>2019-05-16T15:32:54.914Z</time>
      </trkpt>
      <trkpt lat="39.061785" lon="-8.80119167">
        <ele>-10.0</ele>
        <time>2019-05-16T15:32:55.936Z</time>
      </trkpt>
      <trkpt lat="39.06170167" lon="-8.80111667">
        <ele>-10.0</ele>
        <time>2019-05-16T15:32:56.913Z</time>
      </trkpt>
      <trkpt lat="39.06170167" lon="-8.80111667">
        <ele>-10.0</ele>
        <time>2019-05-16T15:32:57.902Z</time>
      </trkpt>
      <trkpt lat="39.06162333" lon="-8.80104">
        <ele>-10.0</ele>
        <time>2019-05-16T15:32:58.913Z</time>
      </trkpt>
      <trkpt lat="39.06162333" lon="-8.80104">
        <ele>-10.0</ele>
        <time>2019-05-16T15:32:59.936Z</time>
      </trkpt>
      <trkpt lat="39.06154167" lon="-8.80097333">
        <ele>-10.0</ele>
        <time>2019-05-16T15:33:00.903Z</time>
      </trkpt>
      <trkpt lat="39.06154167" lon="-8.80097333">
        <ele>-10.0</ele>
        <time>2019-05-16T15:33:01.926Z</time>
      </trkpt>
      <trkpt lat="39.061465" lon="-8.80090167">
        <ele>-10.0</ele>
        <time>2019-05-16T15:33:02.916Z</time>
      </trkpt>
      <trkpt lat="39.061465" lon="-8.80090167">
        <ele>-10.0</ele>
        <time>2019-05-16T15:33:03.923Z</time>
      </trkpt>
      <trkpt lat="39.06138667" lon="-8.80083333">
        <ele>-10.0</ele>
        <time>2019-05-16T15:33:04.909Z</time>
      </trkpt>
      <trkpt lat="39.06138667" lon="-8.80083333">
        <ele>-10.0</ele>
        <time>2019-05-16T15:33:05.923Z</time>
      </trkpt>
      <trkpt lat="39.06131" lon="-8.800765">
        <ele>-10.0</ele>
        <time>2019-05-16T15:33:06.903Z</time>
      </trkpt>
      <trkpt lat="39.06127" lon="-8.80072833">
        <ele>-10.0</ele>
        <time>2019-05-16T15:33:07.898Z</time>
      </trkpt>
      <trkpt lat="39.06123167" lon="-8.80069333">
        <ele>-10.0</ele>
        <time>2019-05-16T15:33:08.921Z</time>
      </trkpt>
      <trkpt lat="39.06123167" lon="-8.80069333">
        <ele>-10.0</ele>
        <time>2019-05-16T15:33:09.910Z</time>
      </trkpt>
      <trkpt lat="39.06115333" lon="-8.80062333">
        <ele>-10.0</ele>
        <time>2019-05-16T15:33:10.923Z</time>
      </trkpt>
      <trkpt lat="39.06115333" lon="-8.80062333">
        <ele>-10.0</ele>
        <time>2019-05-16T15:33:11.900Z</time>
      </trkpt>
      <trkpt lat="39.061075" lon="-8.80055167">
        <ele>-10.0</ele>
        <time>2019-05-16T15:33:12.913Z</time>
      </trkpt>
      <trkpt lat="39.061075" lon="-8.80055167">
        <ele>-10.0</ele>
        <time>2019-05-16T15:33:13.899Z</time>
      </trkpt>
      <trkpt lat="39.060995" lon="-8.80047667">
        <ele>-10.0</ele>
        <time>2019-05-16T15:33:14.920Z</time>
      </trkpt>
      <trkpt lat="39.060995" lon="-8.80047667">
        <ele>-10.0</ele>
        <time>2019-05-16T15:33:15.933Z</time>
      </trkpt>
      <trkpt lat="39.06091333" lon="-8.800405">
        <ele>-10.0</ele>
        <time>2019-05-16T15:33:16.920Z</time>
      </trkpt>
      <trkpt lat="39.06091333" lon="-8.800405">
        <ele>-10.0</ele>
        <time>2019-05-16T15:33:17.903Z</time>
      </trkpt>
      <trkpt lat="39.06083167" lon="-8.80032833">
        <ele>-10.0</ele>
        <time>2019-05-16T15:33:18.921Z</time>
      </trkpt>
      <trkpt lat="39.06079" lon="-8.80029">
        <ele>-10.0</ele>
        <time>2019-05-16T15:33:19.918Z</time>
      </trkpt>
      <trkpt lat="39.06079" lon="-8.80029">
        <ele>-10.0</ele>
        <time>2019-05-16T15:33:20.933Z</time>
      </trkpt>
      <trkpt lat="39.06070833" lon="-8.80021167">
        <ele>-10.0</ele>
        <time>2019-05-16T15:33:21.907Z</time>
      </trkpt>
      <trkpt lat="39.06070833" lon="-8.80021167">
        <ele>-10.0</ele>
        <time>2019-05-16T15:33:22.923Z</time>
      </trkpt>
      <trkpt lat="39.06062833" lon="-8.80013">
        <ele>-10.0</ele>
        <time>2019-05-16T15:33:23.935Z</time>
      </trkpt>
      <trkpt lat="39.06062833" lon="-8.80013">
        <ele>-10.0</ele>
        <time>2019-05-16T15:33:24.904Z</time>
      </trkpt>
      <trkpt lat="39.06055" lon="-8.80004833">
        <ele>-10.0</ele>
        <time>2019-05-16T15:33:25.930Z</time>
      </trkpt>
      <trkpt lat="39.06051167" lon="-8.80000833">
        <ele>-10.0</ele>
        <time>2019-05-16T15:33:26.930Z</time>
      </trkpt>
      <trkpt lat="39.06051167" lon="-8.80000833">
        <ele>-10.0</ele>
        <time>2019-05-16T15:33:27.923Z</time>
      </trkpt>
      <trkpt lat="39.06043667" lon="-8.79992333">
        <ele>-10.0</ele>
        <time>2019-05-16T15:33:28.898Z</time>
      </trkpt>
      <trkpt lat="39.06043667" lon="-8.79992333">
        <ele>-10.0</ele>
        <time>2019-05-16T15:33:29.900Z</time>
      </trkpt>
      <trkpt lat="39.06035833" lon="-8.79984167">
        <ele>-10.0</ele>
        <time>2019-05-16T15:33:30.925Z</time>
      </trkpt>
      <trkpt lat="39.06035833" lon="-8.79984167">
        <ele>-10.0</ele>
        <time>2019-05-16T15:33:31.898Z</time>
      </trkpt>
      <trkpt lat="39.06028" lon="-8.79976">
        <ele>-10.0</ele>
        <time>2019-05-16T15:33:32.916Z</time>
      </trkpt>
      <trkpt lat="39.06028" lon="-8.79976">
        <ele>-10.0</ele>
        <time>2019-05-16T15:33:33.909Z</time>
      </trkpt>
      <trkpt lat="39.0602" lon="-8.799675">
        <ele>-10.0</ele>
        <time>2019-05-16T15:33:34.904Z</time>
      </trkpt>
      <trkpt lat="39.0602" lon="-8.799675">
        <ele>-10.0</ele>
        <time>2019-05-16T15:33:35.919Z</time>
      </trkpt>
      <trkpt lat="39.06012167" lon="-8.79959167">
        <ele>-10.0</ele>
        <time>2019-05-16T15:33:36.902Z</time>
      </trkpt>
      <trkpt lat="39.06012167" lon="-8.79959167">
        <ele>-10.0</ele>
        <time>2019-05-16T15:33:37.920Z</time>
      </trkpt>
      <trkpt lat="39.06004" lon="-8.79951167">
        <ele>-10.0</ele>
        <time>2019-05-16T15:33:38.915Z</time>
      </trkpt>
      <trkpt lat="39.06004" lon="-8.79951167">
        <ele>-10.0</ele>
        <time>2019-05-16T15:33:39.913Z</time>
      </trkpt>
      <trkpt lat="39.05996" lon="-8.79942833">
        <ele>-10.0</ele>
        <time>2019-05-16T15:33:40.937Z</time>
      </trkpt>
      <trkpt lat="39.05996" lon="-8.79942833">
        <ele>-10.0</ele>
        <time>2019-05-16T15:33:41.930Z</time>
      </trkpt>
      <trkpt lat="39.05988" lon="-8.79934167">
        <ele>-10.0</ele>
        <time>2019-05-16T15:33:42.914Z</time>
      </trkpt>
      <trkpt lat="39.05988" lon="-8.79934167">
        <ele>-10.0</ele>
        <time>2019-05-16T15:33:43.898Z</time>
      </trkpt>
      <trkpt lat="39.0598" lon="-8.79925667">
        <ele>-10.0</ele>
        <time>2019-05-16T15:33:44.917Z</time>
      </trkpt>
      <trkpt lat="39.0598" lon="-8.79925667">
        <ele>-10.0</ele>
        <time>2019-05-16T15:33:45.907Z</time>
      </trkpt>
      <trkpt lat="39.05971833" lon="-8.79917333">
        <ele>-10.0</ele>
        <time>2019-05-16T15:33:46.928Z</time>
      </trkpt>
      <trkpt lat="39.05971833" lon="-8.79917333">
        <ele>-10.0</ele>
        <time>2019-05-16T15:33:47.923Z</time>
      </trkpt>
      <trkpt lat="39.05963667" lon="-8.79909">
        <ele>-10.0</ele>
        <time>2019-05-16T15:33:48.912Z</time>
      </trkpt>
      <trkpt lat="39.05963667" lon="-8.79909">
        <ele>-10.0</ele>
        <time>2019-05-16T15:33:49.904Z</time>
      </trkpt>
      <trkpt lat="39.05955167" lon="-8.79900833">
        <ele>-10.0</ele>
        <time>2019-05-16T15:33:50.923Z</time>
      </trkpt>
      <trkpt lat="39.05955167" lon="-8.79900833">
        <ele>-10.0</ele>
        <time>2019-05-16T15:33:51.918Z</time>
      </trkpt>
      <trkpt lat="39.059475" lon="-8.79892">
        <ele>-10.0</ele>
        <time>2019-05-16T15:33:52.932Z</time>
      </trkpt>
      <trkpt lat="39.059475" lon="-8.79892">
        <ele>-10.0</ele>
        <time>2019-05-16T15:33:53.921Z</time>
      </trkpt>
      <trkpt lat="39.05942167" lon="-8.79882">
        <ele>-10.0</ele>
        <time>2019-05-16T15:33:54.897Z</time>
      </trkpt>
      <trkpt lat="39.05942167" lon="-8.79882">
        <ele>-10.0</ele>
        <time>2019-05-16T15:33:55.933Z</time>
      </trkpt>
      <trkpt lat="39.05941667" lon="-8.79872">
        <ele>-10.0</ele>
        <time>2019-05-16T15:33:56.916Z</time>
      </trkpt>
      <trkpt lat="39.05941667" lon="-8.79872">
        <ele>-10.0</ele>
        <time>2019-05-16T15:33:57.924Z</time>
      </trkpt>
      <trkpt lat="39.05944333" lon="-8.79863667">
        <ele>-10.0</ele>
        <time>2019-05-16T15:33:58.901Z</time>
      </trkpt>
      <trkpt lat="39.05946333" lon="-8.79859833">
        <ele>-10.0</ele>
        <time>2019-05-16T15:33:59.897Z</time>
      </trkpt>
      <trkpt lat="39.05946333" lon="-8.79859833">
        <ele>-10.0</ele>
        <time>2019-05-16T15:34:00.937Z</time>
      </trkpt>
      <trkpt lat="39.059515" lon="-8.79853167">
        <ele>-9.0</ele>
        <time>2019-05-16T15:34:01.931Z</time>
      </trkpt>
      <trkpt lat="39.05954" lon="-8.798495">
        <ele>-9.0</ele>
        <time>2019-05-16T15:34:02.931Z</time>
      </trkpt>
      <trkpt lat="39.05954" lon="-8.798495">
        <ele>-9.0</ele>
        <time>2019-05-16T15:34:03.921Z</time>
      </trkpt>
      <trkpt lat="39.05959" lon="-8.79841667">
        <ele>-9.0</ele>
        <time>2019-05-16T15:34:04.906Z</time>
      </trkpt>
      <trkpt lat="39.05959" lon="-8.79841667">
        <ele>-9.0</ele>
        <time>2019-05-16T15:34:05.898Z</time>
      </trkpt>
      <trkpt lat="39.059645" lon="-8.79834">
        <ele>-9.0</ele>
        <time>2019-05-16T15:34:06.921Z</time>
      </trkpt>
      <trkpt lat="39.059645" lon="-8.79834">
        <ele>-9.0</ele>
        <time>2019-05-16T15:34:07.912Z</time>
      </trkpt>
      <trkpt lat="39.0597" lon="-8.798265">
        <ele>-9.0</ele>
        <time>2019-05-16T15:34:08.938Z</time>
      </trkpt>
      <trkpt lat="39.0597" lon="-8.798265">
        <ele>-9.0</ele>
        <time>2019-05-16T15:34:09.921Z</time>
      </trkpt>
      <trkpt lat="39.05975667" lon="-8.79818667">
        <ele>-9.0</ele>
        <time>2019-05-16T15:34:10.927Z</time>
      </trkpt>
      <trkpt lat="39.05975667" lon="-8.79818667">
        <ele>-9.0</ele>
        <time>2019-05-16T15:34:11.912Z</time>
      </trkpt>
      <trkpt lat="39.05981167" lon="-8.798105">
        <ele>-9.0</ele>
        <time>2019-05-16T15:34:12.936Z</time>
      </trkpt>
      <trkpt lat="39.05981167" lon="-8.798105">
        <ele>-9.0</ele>
        <time>2019-05-16T15:34:13.925Z</time>
      </trkpt>
      <trkpt lat="39.059865" lon="-8.79802333">
        <ele>-9.0</ele>
        <time>2019-05-16T15:34:14.904Z</time>
      </trkpt>
      <trkpt lat="39.059865" lon="-8.79802333">
        <ele>-9.0</ele>
        <time>2019-05-16T15:34:15.923Z</time>
      </trkpt>
      <trkpt lat="39.05992333" lon="-8.797945">
        <ele>-9.0</ele>
        <time>2019-05-16T15:34:16.899Z</time>
      </trkpt>
      <trkpt lat="39.05992333" lon="-8.797945">
        <ele>-9.0</ele>
        <time>2019-05-16T15:34:17.901Z</time>
      </trkpt>
      <trkpt lat="39.059985" lon="-8.79787167">
        <ele>-9.0</ele>
        <time>2019-05-16T15:34:18.928Z</time>
      </trkpt>
      <trkpt lat="39.059985" lon="-8.79787167">
        <ele>-9.0</ele>
        <time>2019-05-16T15:34:19.930Z</time>
      </trkpt>
      <trkpt lat="39.06003833" lon="-8.797795">
        <ele>-9.0</ele>
        <time>2019-05-16T15:34:20.921Z</time>
      </trkpt>
      <trkpt lat="39.06003833" lon="-8.797795">
        <ele>-9.0</ele>
        <time>2019-05-16T15:34:21.918Z</time>
      </trkpt>
      <trkpt lat="39.06009333" lon="-8.79772333">
        <ele>-9.0</ele>
        <time>2019-05-16T15:34:22.905Z</time>
      </trkpt>
      <trkpt lat="39.06009333" lon="-8.79772333">
        <ele>-9.0</ele>
        <time>2019-05-16T15:34:23.918Z</time>
      </trkpt>
      <trkpt lat="39.06014667" lon="-8.79765">
        <ele>-9.0</ele>
        <time>2019-05-16T15:34:24.929Z</time>
      </trkpt>
      <trkpt lat="39.06014667" lon="-8.79765">
        <ele>-9.0</ele>
        <time>2019-05-16T15:34:25.932Z</time>
      </trkpt>
      <trkpt lat="39.06020333" lon="-8.79758167">
        <ele>-9.0</ele>
        <time>2019-05-16T15:34:26.905Z</time>
      </trkpt>
      <trkpt lat="39.06020333" lon="-8.79758167">
        <ele>-9.0</ele>
        <time>2019-05-16T15:34:27.914Z</time>
      </trkpt>
      <trkpt lat="39.06026" lon="-8.79751833">
        <ele>-9.0</ele>
        <time>2019-05-16T15:34:28.941Z</time>
      </trkpt>
      <trkpt lat="39.06026" lon="-8.79751833">
        <ele>-9.0</ele>
        <time>2019-05-16T15:34:29.914Z</time>
      </trkpt>
      <trkpt lat="39.06032" lon="-8.79745667">
        <ele>-9.0</ele>
        <time>2019-05-16T15:34:30.904Z</time>
      </trkpt>
      <trkpt lat="39.06035" lon="-8.79742667">
        <ele>-9.0</ele>
        <time>2019-05-16T15:34:31.906Z</time>
      </trkpt>
      <trkpt lat="39.06038" lon="-8.79739667">
        <ele>-9.0</ele>
        <time>2019-05-16T15:34:32.915Z</time>
      </trkpt>
      <trkpt lat="39.06038" lon="-8.79739667">
        <ele>-9.0</ele>
        <time>2019-05-16T15:34:33.898Z</time>
      </trkpt>
      <trkpt lat="39.06044333" lon="-8.79733667">
        <ele>-9.0</ele>
        <time>2019-05-16T15:34:34.928Z</time>
      </trkpt>
      <trkpt lat="39.06047667" lon="-8.79731">
        <ele>-9.0</ele>
        <time>2019-05-16T15:34:35.926Z</time>
      </trkpt>
      <trkpt lat="39.06047667" lon="-8.79731">
        <ele>-9.0</ele>
        <time>2019-05-16T15:34:36.910Z</time>
      </trkpt>
      <trkpt lat="39.06054667" lon="-8.79725667">
        <ele>-9.0</ele>
        <time>2019-05-16T15:34:37.931Z</time>
      </trkpt>
      <trkpt lat="39.06058167" lon="-8.79723">
        <ele>-9.0</ele>
        <time>2019-05-16T15:34:38.927Z</time>
      </trkpt>
      <trkpt lat="39.06058167" lon="-8.79723">
        <ele>-9.0</ele>
        <time>2019-05-16T15:34:39.909Z</time>
      </trkpt>
      <trkpt lat="39.06065667" lon="-8.79717833">
        <ele>-9.0</ele>
        <time>2019-05-16T15:34:40.911Z</time>
      </trkpt>
      <trkpt lat="39.06065667" lon="-8.79717833">
        <ele>-9.0</ele>
        <time>2019-05-16T15:34:41.930Z</time>
      </trkpt>
      <trkpt lat="39.06073167" lon="-8.79713333">
        <ele>-8.0</ele>
        <time>2019-05-16T15:34:42.916Z</time>
      </trkpt>
      <trkpt lat="39.06073167" lon="-8.79713333">
        <ele>-8.0</ele>
        <time>2019-05-16T15:34:43.905Z</time>
      </trkpt>
      <trkpt lat="39.060805" lon="-8.79708667">
        <ele>-8.0</ele>
        <time>2019-05-16T15:34:44.926Z</time>
      </trkpt>
      <trkpt lat="39.060805" lon="-8.79708667">
        <ele>-8.0</ele>
        <time>2019-05-16T15:34:45.905Z</time>
      </trkpt>
      <trkpt lat="39.06088" lon="-8.797045">
        <ele>-8.0</ele>
        <time>2019-05-16T15:34:46.927Z</time>
      </trkpt>
      <trkpt lat="39.06088" lon="-8.797045">
        <ele>-8.0</ele>
        <time>2019-05-16T15:34:47.903Z</time>
      </trkpt>
      <trkpt lat="39.06095333" lon="-8.797005">
        <ele>-8.0</ele>
        <time>2019-05-16T15:34:48.939Z</time>
      </trkpt>
      <trkpt lat="39.06098667" lon="-8.79698333">
        <ele>-8.0</ele>
        <time>2019-05-16T15:34:49.906Z</time>
      </trkpt>
      <trkpt lat="39.06102" lon="-8.79696167">
        <ele>-8.0</ele>
        <time>2019-05-16T15:34:50.907Z</time>
      </trkpt>
      <trkpt lat="39.06102" lon="-8.79696167">
        <ele>-8.0</ele>
        <time>2019-05-16T15:34:51.920Z</time>
      </trkpt>
      <trkpt lat="39.06108667" lon="-8.79692333">
        <ele>-8.0</ele>
        <time>2019-05-16T15:34:52.900Z</time>
      </trkpt>
      <trkpt lat="39.06108667" lon="-8.79692333">
        <ele>-8.0</ele>
        <time>2019-05-16T15:34:53.929Z</time>
      </trkpt>
      <trkpt lat="39.061155" lon="-8.79688833">
        <ele>-8.0</ele>
        <time>2019-05-16T15:34:54.918Z</time>
      </trkpt>
      <trkpt lat="39.061155" lon="-8.79688833">
        <ele>-8.0</ele>
        <time>2019-05-16T15:34:55.918Z</time>
      </trkpt>
      <trkpt lat="39.06122333" lon="-8.79685167">
        <ele>-8.0</ele>
        <time>2019-05-16T15:34:56.934Z</time>
      </trkpt>
      <trkpt lat="39.06122333" lon="-8.79685167">
        <ele>-8.0</ele>
        <time>2019-05-16T15:34:57.914Z</time>
      </trkpt>
      <trkpt lat="39.061295" lon="-8.79681167">
        <ele>-8.0</ele>
        <time>2019-05-16T15:34:58.902Z</time>
      </trkpt>
      <trkpt lat="39.061295" lon="-8.79681167">
        <ele>-8.0</ele>
        <time>2019-05-16T15:34:59.912Z</time>
      </trkpt>
      <trkpt lat="39.06136333" lon="-8.79677167">
        <ele>-8.0</ele>
        <time>2019-05-16T15:35:00.934Z</time>
      </trkpt>
      <trkpt lat="39.06136333" lon="-8.79677167">
        <ele>-8.0</ele>
        <time>2019-05-16T15:35:01.923Z</time>
      </trkpt>
      <trkpt lat="39.06143333" lon="-8.796735">
        <ele>-8.0</ele>
        <time>2019-05-16T15:35:02.925Z</time>
      </trkpt>
      <trkpt lat="39.06143333" lon="-8.796735">
        <ele>-8.0</ele>
        <time>2019-05-16T15:35:03.908Z</time>
      </trkpt>
      <trkpt lat="39.06150333" lon="-8.79669667">
        <ele>-8.0</ele>
        <time>2019-05-16T15:35:04.908Z</time>
      </trkpt>
      <trkpt lat="39.06150333" lon="-8.79669667">
        <ele>-8.0</ele>
        <time>2019-05-16T15:35:05.914Z</time>
      </trkpt>
      <trkpt lat="39.06157333" lon="-8.79665333">
        <ele>-8.0</ele>
        <time>2019-05-16T15:35:06.905Z</time>
      </trkpt>
      <trkpt lat="39.06157333" lon="-8.79665333">
        <ele>-8.0</ele>
        <time>2019-05-16T15:35:07.923Z</time>
      </trkpt>
      <trkpt lat="39.06164667" lon="-8.79661167">
        <ele>-8.0</ele>
        <time>2019-05-16T15:35:08.899Z</time>
      </trkpt>
      <trkpt lat="39.06164667" lon="-8.79661167">
        <ele>-8.0</ele>
        <time>2019-05-16T15:35:09.921Z</time>
      </trkpt>
      <trkpt lat="39.06172167" lon="-8.79657167">
        <ele>-8.0</ele>
        <time>2019-05-16T15:35:10.898Z</time>
      </trkpt>
      <trkpt lat="39.06172167" lon="-8.79657167">
        <ele>-8.0</ele>
        <time>2019-05-16T15:35:11.923Z</time>
      </trkpt>
      <trkpt lat="39.06179667" lon="-8.79653">
        <ele>-8.0</ele>
        <time>2019-05-16T15:35:12.901Z</time>
      </trkpt>
      <trkpt lat="39.06179667" lon="-8.79653">
        <ele>-8.0</ele>
        <time>2019-05-16T15:35:13.932Z</time>
      </trkpt>
      <trkpt lat="39.06187" lon="-8.79649">
        <ele>-8.0</ele>
        <time>2019-05-16T15:35:14.908Z</time>
      </trkpt>
      <trkpt lat="39.06187" lon="-8.79649">
        <ele>-8.0</ele>
        <time>2019-05-16T15:35:15.932Z</time>
      </trkpt>
      <trkpt lat="39.061945" lon="-8.79645">
        <ele>-8.0</ele>
        <time>2019-05-16T15:35:16.914Z</time>
      </trkpt>
      <trkpt lat="39.061945" lon="-8.79645">
        <ele>-8.0</ele>
        <time>2019-05-16T15:35:17.934Z</time>
      </trkpt>
      <trkpt lat="39.06201667" lon="-8.79641167">
        <ele>-7.0</ele>
        <time>2019-05-16T15:35:18.923Z</time>
      </trkpt>
      <trkpt lat="39.06201667" lon="-8.79641167">
        <ele>-7.0</ele>
        <time>2019-05-16T15:35:19.906Z</time>
      </trkpt>
      <trkpt lat="39.06208667" lon="-8.79637167">
        <ele>-8.0</ele>
        <time>2019-05-16T15:35:20.932Z</time>
      </trkpt>
      <trkpt lat="39.06208667" lon="-8.79637167">
        <ele>-8.0</ele>
        <time>2019-05-16T15:35:21.900Z</time>
      </trkpt>
      <trkpt lat="39.062155" lon="-8.79633">
        <ele>-8.0</ele>
        <time>2019-05-16T15:35:22.920Z</time>
      </trkpt>
      <trkpt lat="39.062155" lon="-8.79633">
        <ele>-8.0</ele>
        <time>2019-05-16T15:35:23.912Z</time>
      </trkpt>
      <trkpt lat="39.06222667" lon="-8.79629333">
        <ele>-8.0</ele>
        <time>2019-05-16T15:35:24.938Z</time>
      </trkpt>
      <trkpt lat="39.06222667" lon="-8.79629333">
        <ele>-8.0</ele>
        <time>2019-05-16T15:35:25.905Z</time>
      </trkpt>
      <trkpt lat="39.06229667" lon="-8.79625333">
        <ele>-8.0</ele>
        <time>2019-05-16T15:35:26.924Z</time>
      </trkpt>
      <trkpt lat="39.06229667" lon="-8.79625333">
        <ele>-8.0</ele>
        <time>2019-05-16T15:35:27.914Z</time>
      </trkpt>
      <trkpt lat="39.062365" lon="-8.79621">
        <ele>-8.0</ele>
        <time>2019-05-16T15:35:28.933Z</time>
      </trkpt>
      <trkpt lat="39.062365" lon="-8.79621">
        <ele>-8.0</ele>
        <time>2019-05-16T15:35:29.911Z</time>
      </trkpt>
      <trkpt lat="39.06242833" lon="-8.796165">
        <ele>-8.0</ele>
        <time>2019-05-16T15:35:30.932Z</time>
      </trkpt>
      <trkpt lat="39.06242833" lon="-8.796165">
        <ele>-8.0</ele>
        <time>2019-05-16T15:35:31.935Z</time>
      </trkpt>
      <trkpt lat="39.06249333" lon="-8.79612167">
        <ele>-8.0</ele>
        <time>2019-05-16T15:35:32.914Z</time>
      </trkpt>
      <trkpt lat="39.06249333" lon="-8.79612167">
        <ele>-8.0</ele>
        <time>2019-05-16T15:35:33.908Z</time>
      </trkpt>
      <trkpt lat="39.062555" lon="-8.79607">
        <ele>-8.0</ele>
        <time>2019-05-16T15:35:34.934Z</time>
      </trkpt>
      <trkpt lat="39.062555" lon="-8.79607">
        <ele>-8.0</ele>
        <time>2019-05-16T15:35:35.917Z</time>
      </trkpt>
      <trkpt lat="39.06261" lon="-8.79601833">
        <ele>-8.0</ele>
        <time>2019-05-16T15:35:36.908Z</time>
      </trkpt>
      <trkpt lat="39.06261" lon="-8.79601833">
        <ele>-8.0</ele>
        <time>2019-05-16T15:35:37.929Z</time>
      </trkpt>
      <trkpt lat="39.06265833" lon="-8.79596167">
        <ele>-8.0</ele>
        <time>2019-05-16T15:35:38.947Z</time>
      </trkpt>
      <trkpt lat="39.06265833" lon="-8.79596167">
        <ele>-8.0</ele>
        <time>2019-05-16T15:35:39.916Z</time>
      </trkpt>
      <trkpt lat="39.06270333" lon="-8.79590667">
        <ele>-8.0</ele>
        <time>2019-05-16T15:35:40.911Z</time>
      </trkpt>
      <trkpt lat="39.06270333" lon="-8.79590667">
        <ele>-8.0</ele>
        <time>2019-05-16T15:35:41.899Z</time>
      </trkpt>
      <trkpt lat="39.06275167" lon="-8.79585333">
        <ele>-7.0</ele>
        <time>2019-05-16T15:35:42.909Z</time>
      </trkpt>
      <trkpt lat="39.06275167" lon="-8.79585333">
        <ele>-7.0</ele>
        <time>2019-05-16T15:35:43.933Z</time>
      </trkpt>
      <trkpt lat="39.06280167" lon="-8.7958">
        <ele>-7.0</ele>
        <time>2019-05-16T15:35:44.932Z</time>
      </trkpt>
      <trkpt lat="39.06280167" lon="-8.7958">
        <ele>-7.0</ele>
        <time>2019-05-16T15:35:45.933Z</time>
      </trkpt>
      <trkpt lat="39.06285667" lon="-8.79574833">
        <ele>-7.0</ele>
        <time>2019-05-16T15:35:46.918Z</time>
      </trkpt>
      <trkpt lat="39.06285667" lon="-8.79574833">
        <ele>-7.0</ele>
        <time>2019-05-16T15:35:47.936Z</time>
      </trkpt>
      <trkpt lat="39.06290333" lon="-8.795695">
        <ele>-7.0</ele>
        <time>2019-05-16T15:35:48.919Z</time>
      </trkpt>
      <trkpt lat="39.06290333" lon="-8.795695">
        <ele>-7.0</ele>
        <time>2019-05-16T15:35:49.929Z</time>
      </trkpt>
      <trkpt lat="39.06294833" lon="-8.79564667">
        <ele>-7.0</ele>
        <time>2019-05-16T15:35:50.921Z</time>
      </trkpt>
      <trkpt lat="39.06294833" lon="-8.79564667">
        <ele>-7.0</ele>
        <time>2019-05-16T15:35:51.903Z</time>
      </trkpt>
      <trkpt lat="39.06299167" lon="-8.7956">
        <ele>-7.0</ele>
        <time>2019-05-16T15:35:52.923Z</time>
      </trkpt>
      <trkpt lat="39.06301667" lon="-8.79557667">
        <ele>-7.0</ele>
        <time>2019-05-16T15:35:53.937Z</time>
      </trkpt>
      <trkpt lat="39.06301667" lon="-8.79557667">
        <ele>-7.0</ele>
        <time>2019-05-16T15:35:54.923Z</time>
      </trkpt>
      <trkpt lat="39.06306667" lon="-8.79552333">
        <ele>-7.0</ele>
        <time>2019-05-16T15:35:55.903Z</time>
      </trkpt>
      <trkpt lat="39.06309" lon="-8.79549667">
        <ele>-7.0</ele>
        <time>2019-05-16T15:35:56.901Z</time>
      </trkpt>
      <trkpt lat="39.06309" lon="-8.79549667">
        <ele>-7.0</ele>
        <time>2019-05-16T15:35:57.926Z</time>
      </trkpt>
      <trkpt lat="39.06314" lon="-8.79544667">
        <ele>-7.0</ele>
        <time>2019-05-16T15:35:58.905Z</time>
      </trkpt>
      <trkpt lat="39.06314" lon="-8.79544667">
        <ele>-7.0</ele>
        <time>2019-05-16T15:35:59.933Z</time>
      </trkpt>
      <trkpt lat="39.06319333" lon="-8.79539333">
        <ele>-6.0</ele>
        <time>2019-05-16T15:36:00.921Z</time>
      </trkpt>
      <trkpt lat="39.06319333" lon="-8.79539333">
        <ele>-6.0</ele>
        <time>2019-05-16T15:36:01.898Z</time>
      </trkpt>
      <trkpt lat="39.06324667" lon="-8.79533833">
        <ele>-6.0</ele>
        <time>2019-05-16T15:36:02.925Z</time>
      </trkpt>
      <trkpt lat="39.06324667" lon="-8.79533833">
        <ele>-6.0</ele>
        <time>2019-05-16T15:36:03.918Z</time>
      </trkpt>
      <trkpt lat="39.0633" lon="-8.79527833">
        <ele>-6.0</ele>
        <time>2019-05-16T15:36:04.916Z</time>
      </trkpt>
      <trkpt lat="39.0633" lon="-8.79527833">
        <ele>-6.0</ele>
        <time>2019-05-16T15:36:05.921Z</time>
      </trkpt>
      <trkpt lat="39.063355" lon="-8.79522">
        <ele>-6.0</ele>
        <time>2019-05-16T15:36:06.901Z</time>
      </trkpt>
      <trkpt lat="39.063355" lon="-8.79522">
        <ele>-6.0</ele>
        <time>2019-05-16T15:36:07.904Z</time>
      </trkpt>
      <trkpt lat="39.06340833" lon="-8.795155">
        <ele>-6.0</ele>
        <time>2019-05-16T15:36:08.922Z</time>
      </trkpt>
      <trkpt lat="39.06340833" lon="-8.795155">
        <ele>-6.0</ele>
        <time>2019-05-16T15:36:09.902Z</time>
      </trkpt>
      <trkpt lat="39.06345833" lon="-8.79507833">
        <ele>-6.0</ele>
        <time>2019-05-16T15:36:10.923Z</time>
      </trkpt>
      <trkpt lat="39.06345833" lon="-8.79507833">
        <ele>-6.0</ele>
        <time>2019-05-16T15:36:11.913Z</time>
      </trkpt>
      <trkpt lat="39.06350833" lon="-8.79500333">
        <ele>-6.0</ele>
        <time>2019-05-16T15:36:12.906Z</time>
      </trkpt>
      <trkpt lat="39.06350833" lon="-8.79500333">
        <ele>-6.0</ele>
        <time>2019-05-16T15:36:13.913Z</time>
      </trkpt>
      <trkpt lat="39.063555" lon="-8.79492333">
        <ele>-6.0</ele>
        <time>2019-05-16T15:36:14.941Z</time>
      </trkpt>
      <trkpt lat="39.063555" lon="-8.79492333">
        <ele>-6.0</ele>
        <time>2019-05-16T15:36:15.925Z</time>
      </trkpt>
      <trkpt lat="39.06360167" lon="-8.794835">
        <ele>-6.0</ele>
        <time>2019-05-16T15:36:16.899Z</time>
      </trkpt>
      <trkpt lat="39.06360167" lon="-8.794835">
        <ele>-6.0</ele>
        <time>2019-05-16T15:36:17.923Z</time>
      </trkpt>
      <trkpt lat="39.06364667" lon="-8.794745">
        <ele>-5.0</ele>
        <time>2019-05-16T15:36:18.898Z</time>
      </trkpt>
      <trkpt lat="39.06364667" lon="-8.794745">
        <ele>-5.0</ele>
        <time>2019-05-16T15:36:19.915Z</time>
      </trkpt>
      <trkpt lat="39.06369" lon="-8.79465333">
        <ele>-5.0</ele>
        <time>2019-05-16T15:36:20.917Z</time>
      </trkpt>
      <trkpt lat="39.06369" lon="-8.79465333">
        <ele>-5.0</ele>
        <time>2019-05-16T15:36:21.928Z</time>
      </trkpt>
      <trkpt lat="39.06373167" lon="-8.794555">
        <ele>-5.0</ele>
        <time>2019-05-16T15:36:22.915Z</time>
      </trkpt>
      <trkpt lat="39.06373167" lon="-8.794555">
        <ele>-5.0</ele>
        <time>2019-05-16T15:36:23.931Z</time>
      </trkpt>
      <trkpt lat="39.06377667" lon="-8.79445833">
        <ele>-5.0</ele>
        <time>2019-05-16T15:36:24.921Z</time>
      </trkpt>
      <trkpt lat="39.06377667" lon="-8.79445833">
        <ele>-5.0</ele>
        <time>2019-05-16T15:36:25.930Z</time>
      </trkpt>
      <trkpt lat="39.06380833" lon="-8.79436">
        <ele>-5.0</ele>
        <time>2019-05-16T15:36:26.912Z</time>
      </trkpt>
      <trkpt lat="39.06380833" lon="-8.79436">
        <ele>-5.0</ele>
        <time>2019-05-16T15:36:27.902Z</time>
      </trkpt>
      <trkpt lat="39.06383667" lon="-8.79427833">
        <ele>-4.0</ele>
        <time>2019-05-16T15:36:28.921Z</time>
      </trkpt>
      <trkpt lat="39.06383667" lon="-8.79427833">
        <ele>-4.0</ele>
        <time>2019-05-16T15:36:29.933Z</time>
      </trkpt>
      <trkpt lat="39.06385833" lon="-8.79421333">
        <ele>-4.0</ele>
        <time>2019-05-16T15:36:30.916Z</time>
      </trkpt>
      <trkpt lat="39.06386833" lon="-8.79418">
        <ele>-4.0</ele>
        <time>2019-05-16T15:36:31.908Z</time>
      </trkpt>
      <trkpt lat="39.06388167" lon="-8.794145">
        <ele>-4.0</ele>
        <time>2019-05-16T15:36:32.926Z</time>
      </trkpt>
      <trkpt lat="39.06388167" lon="-8.794145">
        <ele>-4.0</ele>
        <time>2019-05-16T15:36:33.918Z</time>
      </trkpt>
      <trkpt lat="39.06391333" lon="-8.79407">
        <ele>-4.0</ele>
        <time>2019-05-16T15:36:34.903Z</time>
      </trkpt>
      <trkpt lat="39.06391333" lon="-8.79407">
        <ele>-4.0</ele>
        <time>2019-05-16T15:36:35.929Z</time>
      </trkpt>
      <trkpt lat="39.06394667" lon="-8.79399667">
        <ele>-3.0</ele>
        <time>2019-05-16T15:36:36.922Z</time>
      </trkpt>
      <trkpt lat="39.06396667" lon="-8.79395833">
        <ele>-3.0</ele>
        <time>2019-05-16T15:36:37.931Z</time>
      </trkpt>
      <trkpt lat="39.06399" lon="-8.79392167">
        <ele>-3.0</ele>
        <time>2019-05-16T15:36:38.922Z</time>
      </trkpt>
      <trkpt lat="39.06399" lon="-8.79392167">
        <ele>-3.0</ele>
        <time>2019-05-16T15:36:39.903Z</time>
      </trkpt>
      <trkpt lat="39.06403333" lon="-8.79384167">
        <ele>-3.0</ele>
        <time>2019-05-16T15:36:40.921Z</time>
      </trkpt>
      <trkpt lat="39.06403333" lon="-8.79384167">
        <ele>-3.0</ele>
        <time>2019-05-16T15:36:41.902Z</time>
      </trkpt>
      <trkpt lat="39.06408" lon="-8.79376333">
        <ele>-3.0</ele>
        <time>2019-05-16T15:36:42.931Z</time>
      </trkpt>
      <trkpt lat="39.06408" lon="-8.79376333">
        <ele>-3.0</ele>
        <time>2019-05-16T15:36:43.932Z</time>
      </trkpt>
      <trkpt lat="39.06413333" lon="-8.79369">
        <ele>-2.0</ele>
        <time>2019-05-16T15:36:44.918Z</time>
      </trkpt>
      <trkpt lat="39.06413333" lon="-8.79369">
        <ele>-2.0</ele>
        <time>2019-05-16T15:36:45.899Z</time>
      </trkpt>
      <trkpt lat="39.06418" lon="-8.79361">
        <ele>-2.0</ele>
        <time>2019-05-16T15:36:46.915Z</time>
      </trkpt>
      <trkpt lat="39.06418" lon="-8.79361">
        <ele>-2.0</ele>
        <time>2019-05-16T15:36:47.920Z</time>
      </trkpt>
      <trkpt lat="39.064225" lon="-8.79352667">
        <ele>-2.0</ele>
        <time>2019-05-16T15:36:48.902Z</time>
      </trkpt>
      <trkpt lat="39.064225" lon="-8.79352667">
        <ele>-2.0</ele>
        <time>2019-05-16T15:36:49.897Z</time>
      </trkpt>
      <trkpt lat="39.06427167" lon="-8.79344833">
        <ele>-2.0</ele>
        <time>2019-05-16T15:36:50.916Z</time>
      </trkpt>
      <trkpt lat="39.06427167" lon="-8.79344833">
        <ele>-2.0</ele>
        <time>2019-05-16T15:36:51.902Z</time>
      </trkpt>
      <trkpt lat="39.06432" lon="-8.79337">
        <ele>-2.0</ele>
        <time>2019-05-16T15:36:52.932Z</time>
      </trkpt>
      <trkpt lat="39.06432" lon="-8.79337">
        <ele>-2.0</ele>
        <time>2019-05-16T15:36:53.923Z</time>
      </trkpt>
      <trkpt lat="39.06436667" lon="-8.79329333">
        <ele>-2.0</ele>
        <time>2019-05-16T15:36:54.906Z</time>
      </trkpt>
      <trkpt lat="39.06436667" lon="-8.79329333">
        <ele>-2.0</ele>
        <time>2019-05-16T15:36:55.925Z</time>
      </trkpt>
      <trkpt lat="39.064415" lon="-8.79321667">
        <ele>-1.0</ele>
        <time>2019-05-16T15:36:56.928Z</time>
      </trkpt>
      <trkpt lat="39.064415" lon="-8.79321667">
        <ele>-1.0</ele>
        <time>2019-05-16T15:36:57.903Z</time>
      </trkpt>
      <trkpt lat="39.06446167" lon="-8.793135">
        <ele>-1.0</ele>
        <time>2019-05-16T15:36:58.922Z</time>
      </trkpt>
      <trkpt lat="39.06446167" lon="-8.793135">
        <ele>-1.0</ele>
        <time>2019-05-16T15:36:59.904Z</time>
      </trkpt>
      <trkpt lat="39.06451" lon="-8.79305333">
        <ele>-1.0</ele>
        <time>2019-05-16T15:37:00.921Z</time>
      </trkpt>
      <trkpt lat="39.06451" lon="-8.79305333">
        <ele>-1.0</ele>
        <time>2019-05-16T15:37:01.923Z</time>
      </trkpt>
      <trkpt lat="39.064555" lon="-8.79297167">
        <ele>-2.0</ele>
        <time>2019-05-16T15:37:02.913Z</time>
      </trkpt>
      <trkpt lat="39.064555" lon="-8.79297167">
        <ele>-2.0</ele>
        <time>2019-05-16T15:37:03.903Z</time>
      </trkpt>
      <trkpt lat="39.06460333" lon="-8.79289">
        <ele>-1.0</ele>
        <time>2019-05-16T15:37:04.922Z</time>
      </trkpt>
      <trkpt lat="39.06460333" lon="-8.79289">
        <ele>-1.0</ele>
        <time>2019-05-16T15:37:05.904Z</time>
      </trkpt>
      <trkpt lat="39.06465" lon="-8.79281">
        <ele>-1.0</ele>
        <time>2019-05-16T15:37:06.899Z</time>
      </trkpt>
      <trkpt lat="39.06465" lon="-8.79281">
        <ele>-1.0</ele>
        <time>2019-05-16T15:37:07.897Z</time>
      </trkpt>
      <trkpt lat="39.06469833" lon="-8.79273167">
        <ele>-1.0</ele>
        <time>2019-05-16T15:37:08.921Z</time>
      </trkpt>
      <trkpt lat="39.06469833" lon="-8.79273167">
        <ele>-1.0</ele>
        <time>2019-05-16T15:37:09.912Z</time>
      </trkpt>
      <trkpt lat="39.06475" lon="-8.79265333">
        <ele>-1.0</ele>
        <time>2019-05-16T15:37:10.899Z</time>
      </trkpt>
      <trkpt lat="39.06475" lon="-8.79265333">
        <ele>-1.0</ele>
        <time>2019-05-16T15:37:11.917Z</time>
      </trkpt>
      <trkpt lat="39.06479833" lon="-8.79256667">
        <ele>-1.0</ele>
        <time>2019-05-16T15:37:12.933Z</time>
      </trkpt>
      <trkpt lat="39.06479833" lon="-8.79256667">
        <ele>-1.0</ele>
        <time>2019-05-16T15:37:13.900Z</time>
      </trkpt>
      <trkpt lat="39.06484833" lon="-8.79248">
        <ele>-1.0</ele>
        <time>2019-05-16T15:37:14.915Z</time>
      </trkpt>
      <trkpt lat="39.06484833" lon="-8.79248">
        <ele>-1.0</ele>
        <time>2019-05-16T15:37:15.915Z</time>
      </trkpt>
      <trkpt lat="39.06490167" lon="-8.79239333">
        <ele>-1.0</ele>
        <time>2019-05-16T15:37:16.936Z</time>
      </trkpt>
      <trkpt lat="39.06490167" lon="-8.79239333">
        <ele>-1.0</ele>
        <time>2019-05-16T15:37:17.923Z</time>
      </trkpt>
      <trkpt lat="39.064955" lon="-8.79230167">
        <ele>-1.0</ele>
        <time>2019-05-16T15:37:18.908Z</time>
      </trkpt>
      <trkpt lat="39.064955" lon="-8.79230167">
        <ele>-1.0</ele>
        <time>2019-05-16T15:37:19.907Z</time>
      </trkpt>
      <trkpt lat="39.06500833" lon="-8.79220833">
        <ele>-1.0</ele>
        <time>2019-05-16T15:37:20.933Z</time>
      </trkpt>
      <trkpt lat="39.06500833" lon="-8.79220833">
        <ele>-1.0</ele>
        <time>2019-05-16T15:37:21.933Z</time>
      </trkpt>
      <trkpt lat="39.06506167" lon="-8.79211333">
        <ele>-1.0</ele>
        <time>2019-05-16T15:37:22.911Z</time>
      </trkpt>
      <trkpt lat="39.06506167" lon="-8.79211333">
        <ele>-1.0</ele>
        <time>2019-05-16T15:37:23.923Z</time>
      </trkpt>
      <trkpt lat="39.065115" lon="-8.79202">
        <ele>-1.0</ele>
        <time>2019-05-16T15:37:24.903Z</time>
      </trkpt>
      <trkpt lat="39.065115" lon="-8.79202">
        <ele>-1.0</ele>
        <time>2019-05-16T15:37:25.922Z</time>
      </trkpt>
      <trkpt lat="39.06516333" lon="-8.79193">
        <ele>-1.0</ele>
        <time>2019-05-16T15:37:26.910Z</time>
      </trkpt>
      <trkpt lat="39.06516333" lon="-8.79193">
        <ele>-1.0</ele>
        <time>2019-05-16T15:37:27.919Z</time>
      </trkpt>
      <trkpt lat="39.06521167" lon="-8.79183667">
        <ele>-1.0</ele>
        <time>2019-05-16T15:37:28.921Z</time>
      </trkpt>
      <trkpt lat="39.06521167" lon="-8.79183667">
        <ele>-1.0</ele>
        <time>2019-05-16T15:37:29.910Z</time>
      </trkpt>
      <trkpt lat="39.06525667" lon="-8.79174167">
        <ele>-1.0</ele>
        <time>2019-05-16T15:37:30.897Z</time>
      </trkpt>
      <trkpt lat="39.06525667" lon="-8.79174167">
        <ele>-1.0</ele>
        <time>2019-05-16T15:37:31.922Z</time>
      </trkpt>
      <trkpt lat="39.06530167" lon="-8.79165333">
        <ele>-1.0</ele>
        <time>2019-05-16T15:37:32.901Z</time>
      </trkpt>
      <trkpt lat="39.06530167" lon="-8.79165333">
        <ele>-1.0</ele>
        <time>2019-05-16T15:37:33.905Z</time>
      </trkpt>
      <trkpt lat="39.06534333" lon="-8.79157167">
        <ele>-1.0</ele>
        <time>2019-05-16T15:37:34.931Z</time>
      </trkpt>
      <trkpt lat="39.06534333" lon="-8.79157167">
        <ele>-1.0</ele>
        <time>2019-05-16T15:37:35.918Z</time>
      </trkpt>
      <trkpt lat="39.06538667" lon="-8.79149">
        <ele>-1.0</ele>
        <time>2019-05-16T15:37:36.904Z</time>
      </trkpt>
      <trkpt lat="39.06538667" lon="-8.79149">
        <ele>-1.0</ele>
        <time>2019-05-16T15:37:37.923Z</time>
      </trkpt>
      <trkpt lat="39.06543" lon="-8.79140333">
        <ele>-1.0</ele>
        <time>2019-05-16T15:37:38.907Z</time>
      </trkpt>
      <trkpt lat="39.06543" lon="-8.79140333">
        <ele>-1.0</ele>
        <time>2019-05-16T15:37:39.929Z</time>
      </trkpt>
      <trkpt lat="39.06547167" lon="-8.79131667">
        <ele>-1.0</ele>
        <time>2019-05-16T15:37:40.911Z</time>
      </trkpt>
      <trkpt lat="39.06547167" lon="-8.79131667">
        <ele>-1.0</ele>
        <time>2019-05-16T15:37:41.934Z</time>
      </trkpt>
      <trkpt lat="39.06551333" lon="-8.79123167">
        <ele>-1.0</ele>
        <time>2019-05-16T15:37:42.897Z</time>
      </trkpt>
      <trkpt lat="39.06551333" lon="-8.79123167">
        <ele>-1.0</ele>
        <time>2019-05-16T15:37:43.932Z</time>
      </trkpt>
      <trkpt lat="39.06555667" lon="-8.79114667">
        <ele>-1.0</ele>
        <time>2019-05-16T15:37:44.941Z</time>
      </trkpt>
      <trkpt lat="39.06555667" lon="-8.79114667">
        <ele>-1.0</ele>
        <time>2019-05-16T15:37:45.911Z</time>
      </trkpt>
      <trkpt lat="39.0656" lon="-8.79105667">
        <ele>-2.0</ele>
        <time>2019-05-16T15:37:46.931Z</time>
      </trkpt>
      <trkpt lat="39.0656" lon="-8.79105667">
        <ele>-2.0</ele>
        <time>2019-05-16T15:37:47.919Z</time>
      </trkpt>
      <trkpt lat="39.06564167" lon="-8.79096333">
        <ele>-2.0</ele>
        <time>2019-05-16T15:37:48.941Z</time>
      </trkpt>
      <trkpt lat="39.06566333" lon="-8.79091833">
        <ele>-2.0</ele>
        <time>2019-05-16T15:37:49.931Z</time>
      </trkpt>
      <trkpt lat="39.06566333" lon="-8.79091833">
        <ele>-2.0</ele>
        <time>2019-05-16T15:37:50.916Z</time>
      </trkpt>
      <trkpt lat="39.06570833" lon="-8.79083167">
        <ele>-2.0</ele>
        <time>2019-05-16T15:37:51.902Z</time>
      </trkpt>
      <trkpt lat="39.06572833" lon="-8.79079">
        <ele>-2.0</ele>
        <time>2019-05-16T15:37:52.902Z</time>
      </trkpt>
      <trkpt lat="39.06572833" lon="-8.79079">
        <ele>-2.0</ele>
        <time>2019-05-16T15:37:53.932Z</time>
      </trkpt>
      <trkpt lat="39.06577167" lon="-8.790705">
        <ele>-2.0</ele>
        <time>2019-05-16T15:37:54.911Z</time>
      </trkpt>
      <trkpt lat="39.06577167" lon="-8.790705">
        <ele>-2.0</ele>
        <time>2019-05-16T15:37:55.919Z</time>
      </trkpt>
      <trkpt lat="39.06581333" lon="-8.79061333">
        <ele>-2.0</ele>
        <time>2019-05-16T15:37:56.911Z</time>
      </trkpt>
      <trkpt lat="39.06581333" lon="-8.79061333">
        <ele>-2.0</ele>
        <time>2019-05-16T15:37:57.919Z</time>
      </trkpt>
      <trkpt lat="39.06586333" lon="-8.79052333">
        <ele>-2.0</ele>
        <time>2019-05-16T15:37:58.918Z</time>
      </trkpt>
      <trkpt lat="39.06586333" lon="-8.79052333">
        <ele>-2.0</ele>
        <time>2019-05-16T15:37:59.922Z</time>
      </trkpt>
      <trkpt lat="39.06591" lon="-8.79043">
        <ele>-2.0</ele>
        <time>2019-05-16T15:38:00.899Z</time>
      </trkpt>
      <trkpt lat="39.06591" lon="-8.79043">
        <ele>-2.0</ele>
        <time>2019-05-16T15:38:01.924Z</time>
      </trkpt>
      <trkpt lat="39.06595833" lon="-8.790335">
        <ele>-2.0</ele>
        <time>2019-05-16T15:38:02.906Z</time>
      </trkpt>
      <trkpt lat="39.06595833" lon="-8.790335">
        <ele>-2.0</ele>
        <time>2019-05-16T15:38:03.925Z</time>
      </trkpt>
      <trkpt lat="39.06600167" lon="-8.79023833">
        <ele>-2.0</ele>
        <time>2019-05-16T15:38:04.907Z</time>
      </trkpt>
      <trkpt lat="39.06600167" lon="-8.79023833">
        <ele>-2.0</ele>
        <time>2019-05-16T15:38:05.935Z</time>
      </trkpt>
      <trkpt lat="39.06604833" lon="-8.79014333">
        <ele>-3.0</ele>
        <time>2019-05-16T15:38:06.912Z</time>
      </trkpt>
      <trkpt lat="39.06604833" lon="-8.79014333">
        <ele>-3.0</ele>
        <time>2019-05-16T15:38:07.932Z</time>
      </trkpt>
      <trkpt lat="39.06609167" lon="-8.79004833">
        <ele>-3.0</ele>
        <time>2019-05-16T15:38:08.921Z</time>
      </trkpt>
      <trkpt lat="39.06609167" lon="-8.79004833">
        <ele>-3.0</ele>
        <time>2019-05-16T15:38:09.909Z</time>
      </trkpt>
      <trkpt lat="39.06614" lon="-8.789955">
        <ele>-3.0</ele>
        <time>2019-05-16T15:38:10.921Z</time>
      </trkpt>
      <trkpt lat="39.06614" lon="-8.789955">
        <ele>-3.0</ele>
        <time>2019-05-16T15:38:11.928Z</time>
      </trkpt>
      <trkpt lat="39.06618833" lon="-8.78986333">
        <ele>-3.0</ele>
        <time>2019-05-16T15:38:12.904Z</time>
      </trkpt>
      <trkpt lat="39.06618833" lon="-8.78986333">
        <ele>-3.0</ele>
        <time>2019-05-16T15:38:13.933Z</time>
      </trkpt>
      <trkpt lat="39.066235" lon="-8.78977333">
        <ele>-3.0</ele>
        <time>2019-05-16T15:38:14.933Z</time>
      </trkpt>
      <trkpt lat="39.066235" lon="-8.78977333">
        <ele>-3.0</ele>
        <time>2019-05-16T15:38:15.918Z</time>
      </trkpt>
      <trkpt lat="39.066285" lon="-8.78968667">
        <ele>-3.0</ele>
        <time>2019-05-16T15:38:16.940Z</time>
      </trkpt>
      <trkpt lat="39.066285" lon="-8.78968667">
        <ele>-3.0</ele>
        <time>2019-05-16T15:38:17.903Z</time>
      </trkpt>
      <trkpt lat="39.06633" lon="-8.789605">
        <ele>-3.0</ele>
        <time>2019-05-16T15:38:18.929Z</time>
      </trkpt>
      <trkpt lat="39.06633" lon="-8.789605">
        <ele>-3.0</ele>
        <time>2019-05-16T15:38:19.929Z</time>
      </trkpt>
      <trkpt lat="39.066375" lon="-8.78953">
        <ele>-2.0</ele>
        <time>2019-05-16T15:38:20.916Z</time>
      </trkpt>
      <trkpt lat="39.066375" lon="-8.78953">
        <ele>-2.0</ele>
        <time>2019-05-16T15:38:21.920Z</time>
      </trkpt>
      <trkpt lat="39.06641667" lon="-8.78945833">
        <ele>-2.0</ele>
        <time>2019-05-16T15:38:22.900Z</time>
      </trkpt>
      <trkpt lat="39.06641667" lon="-8.78945833">
        <ele>-2.0</ele>
        <time>2019-05-16T15:38:23.903Z</time>
      </trkpt>
      <trkpt lat="39.06645833" lon="-8.78940333">
        <ele>-2.0</ele>
        <time>2019-05-16T15:38:24.930Z</time>
      </trkpt>
      <trkpt lat="39.06645833" lon="-8.78940333">
        <ele>-2.0</ele>
        <time>2019-05-16T15:38:25.914Z</time>
      </trkpt>
      <trkpt lat="39.06648833" lon="-8.78935">
        <ele>-1.0</ele>
        <time>2019-05-16T15:38:26.929Z</time>
      </trkpt>
      <trkpt lat="39.06648833" lon="-8.78935">
        <ele>-1.0</ele>
        <time>2019-05-16T15:38:27.937Z</time>
      </trkpt>
      <trkpt lat="39.066525" lon="-8.78928667">
        <ele>-2.0</ele>
        <time>2019-05-16T15:38:28.917Z</time>
      </trkpt>
      <trkpt lat="39.066525" lon="-8.78928667">
        <ele>-2.0</ele>
        <time>2019-05-16T15:38:29.924Z</time>
      </trkpt>
      <trkpt lat="39.06656667" lon="-8.78921833">
        <ele>-2.0</ele>
        <time>2019-05-16T15:38:30.906Z</time>
      </trkpt>
      <trkpt lat="39.06658667" lon="-8.78918167">
        <ele>-2.0</ele>
        <time>2019-05-16T15:38:31.909Z</time>
      </trkpt>
      <trkpt lat="39.06661" lon="-8.78914333">
        <ele>-2.0</ele>
        <time>2019-05-16T15:38:32.907Z</time>
      </trkpt>
      <trkpt lat="39.06661" lon="-8.78914333">
        <ele>-2.0</ele>
        <time>2019-05-16T15:38:33.933Z</time>
      </trkpt>
      <trkpt lat="39.066655" lon="-8.78906333">
        <ele>-2.0</ele>
        <time>2019-05-16T15:38:34.913Z</time>
      </trkpt>
      <trkpt lat="39.066655" lon="-8.78906333">
        <ele>-2.0</ele>
        <time>2019-05-16T15:38:35.932Z</time>
      </trkpt>
      <trkpt lat="39.06669833" lon="-8.78898">
        <ele>-2.0</ele>
        <time>2019-05-16T15:38:36.903Z</time>
      </trkpt>
      <trkpt lat="39.06669833" lon="-8.78898">
        <ele>-2.0</ele>
        <time>2019-05-16T15:38:37.906Z</time>
      </trkpt>
      <trkpt lat="39.06674333" lon="-8.78889833">
        <ele>-2.0</ele>
        <time>2019-05-16T15:38:38.935Z</time>
      </trkpt>
      <trkpt lat="39.06674333" lon="-8.78889833">
        <ele>-2.0</ele>
        <time>2019-05-16T15:38:39.921Z</time>
      </trkpt>
      <trkpt lat="39.06678667" lon="-8.78881667">
        <ele>-2.0</ele>
        <time>2019-05-16T15:38:40.900Z</time>
      </trkpt>
      <trkpt lat="39.06678667" lon="-8.78881667">
        <ele>-2.0</ele>
        <time>2019-05-16T15:38:41.908Z</time>
      </trkpt>
      <trkpt lat="39.06682333" lon="-8.78873667">
        <ele>-2.0</ele>
        <time>2019-05-16T15:38:42.897Z</time>
      </trkpt>
      <trkpt lat="39.06682333" lon="-8.78873667">
        <ele>-2.0</ele>
        <time>2019-05-16T15:38:43.932Z</time>
      </trkpt>
      <trkpt lat="39.06686167" lon="-8.78866333">
        <ele>-2.0</ele>
        <time>2019-05-16T15:38:44.931Z</time>
      </trkpt>
      <trkpt lat="39.06686167" lon="-8.78866333">
        <ele>-2.0</ele>
        <time>2019-05-16T15:38:45.936Z</time>
      </trkpt>
      <trkpt lat="39.066895" lon="-8.78858833">
        <ele>-2.0</ele>
        <time>2019-05-16T15:38:46.915Z</time>
      </trkpt>
      <trkpt lat="39.066895" lon="-8.78858833">
        <ele>-2.0</ele>
        <time>2019-05-16T15:38:47.904Z</time>
      </trkpt>
      <trkpt lat="39.06693333" lon="-8.78850667">
        <ele>-2.0</ele>
        <time>2019-05-16T15:38:48.924Z</time>
      </trkpt>
      <trkpt lat="39.06693333" lon="-8.78850667">
        <ele>-2.0</ele>
        <time>2019-05-16T15:38:49.913Z</time>
      </trkpt>
      <trkpt lat="39.06697333" lon="-8.78842167">
        <ele>-2.0</ele>
        <time>2019-05-16T15:38:50.932Z</time>
      </trkpt>
      <trkpt lat="39.06697333" lon="-8.78842167">
        <ele>-2.0</ele>
        <time>2019-05-16T15:38:51.913Z</time>
      </trkpt>
      <trkpt lat="39.06701167" lon="-8.78833">
        <ele>-2.0</ele>
        <time>2019-05-16T15:38:52.940Z</time>
      </trkpt>
      <trkpt lat="39.06701167" lon="-8.78833">
        <ele>-2.0</ele>
        <time>2019-05-16T15:38:53.903Z</time>
      </trkpt>
      <trkpt lat="39.067055" lon="-8.78823667">
        <ele>-2.0</ele>
        <time>2019-05-16T15:38:54.921Z</time>
      </trkpt>
      <trkpt lat="39.067055" lon="-8.78823667">
        <ele>-2.0</ele>
        <time>2019-05-16T15:38:55.906Z</time>
      </trkpt>
      <trkpt lat="39.06709667" lon="-8.78814333">
        <ele>-2.0</ele>
        <time>2019-05-16T15:38:56.935Z</time>
      </trkpt>
      <trkpt lat="39.06709667" lon="-8.78814333">
        <ele>-2.0</ele>
        <time>2019-05-16T15:38:57.930Z</time>
      </trkpt>
      <trkpt lat="39.06713667" lon="-8.78804667">
        <ele>-3.0</ele>
        <time>2019-05-16T15:38:58.924Z</time>
      </trkpt>
      <trkpt lat="39.06713667" lon="-8.78804667">
        <ele>-3.0</ele>
        <time>2019-05-16T15:38:59.903Z</time>
      </trkpt>
      <trkpt lat="39.06717833" lon="-8.78795">
        <ele>-3.0</ele>
        <time>2019-05-16T15:39:00.921Z</time>
      </trkpt>
      <trkpt lat="39.0672" lon="-8.78790333">
        <ele>-3.0</ele>
        <time>2019-05-16T15:39:01.910Z</time>
      </trkpt>
      <trkpt lat="39.0672" lon="-8.78790333">
        <ele>-3.0</ele>
        <time>2019-05-16T15:39:02.919Z</time>
      </trkpt>
      <trkpt lat="39.06724167" lon="-8.78780833">
        <ele>-3.0</ele>
        <time>2019-05-16T15:39:03.936Z</time>
      </trkpt>
      <trkpt lat="39.06724167" lon="-8.78780833">
        <ele>-3.0</ele>
        <time>2019-05-16T15:39:04.934Z</time>
      </trkpt>
      <trkpt lat="39.06728667" lon="-8.787715">
        <ele>-3.0</ele>
        <time>2019-05-16T15:39:05.916Z</time>
      </trkpt>
      <trkpt lat="39.06730833" lon="-8.78766667">
        <ele>-3.0</ele>
        <time>2019-05-16T15:39:06.921Z</time>
      </trkpt>
      <trkpt lat="39.06730833" lon="-8.78766667">
        <ele>-3.0</ele>
        <time>2019-05-16T15:39:07.898Z</time>
      </trkpt>
      <trkpt lat="39.067355" lon="-8.78757667">
        <ele>-3.0</ele>
        <time>2019-05-16T15:39:08.922Z</time>
      </trkpt>
      <trkpt lat="39.067355" lon="-8.78757667">
        <ele>-3.0</ele>
        <time>2019-05-16T15:39:09.902Z</time>
      </trkpt>
      <trkpt lat="39.06740167" lon="-8.78748833">
        <ele>-3.0</ele>
        <time>2019-05-16T15:39:10.920Z</time>
      </trkpt>
      <trkpt lat="39.06740167" lon="-8.78748833">
        <ele>-3.0</ele>
        <time>2019-05-16T15:39:11.913Z</time>
      </trkpt>
      <trkpt lat="39.06744667" lon="-8.7874">
        <ele>-3.0</ele>
        <time>2019-05-16T15:39:12.933Z</time>
      </trkpt>
      <trkpt lat="39.06746833" lon="-8.78735667">
        <ele>-3.0</ele>
        <time>2019-05-16T15:39:13.905Z</time>
      </trkpt>
      <trkpt lat="39.06748667" lon="-8.78731">
        <ele>-3.0</ele>
        <time>2019-05-16T15:39:14.929Z</time>
      </trkpt>
      <trkpt lat="39.06748667" lon="-8.78731">
        <ele>-3.0</ele>
        <time>2019-05-16T15:39:15.937Z</time>
      </trkpt>
      <trkpt lat="39.067535" lon="-8.78722333">
        <ele>-3.0</ele>
        <time>2019-05-16T15:39:16.917Z</time>
      </trkpt>
      <trkpt lat="39.06756167" lon="-8.78718">
        <ele>-3.0</ele>
        <time>2019-05-16T15:39:17.932Z</time>
      </trkpt>
      <trkpt lat="39.06756167" lon="-8.78718">
        <ele>-3.0</ele>
        <time>2019-05-16T15:39:18.927Z</time>
      </trkpt>
      <trkpt lat="39.06761333" lon="-8.78709">
        <ele>-3.0</ele>
        <time>2019-05-16T15:39:19.914Z</time>
      </trkpt>
      <trkpt lat="39.06761333" lon="-8.78709">
        <ele>-3.0</ele>
        <time>2019-05-16T15:39:20.913Z</time>
      </trkpt>
      <trkpt lat="39.06766333" lon="-8.786995">
        <ele>-3.0</ele>
        <time>2019-05-16T15:39:21.907Z</time>
      </trkpt>
      <trkpt lat="39.06766333" lon="-8.786995">
        <ele>-3.0</ele>
        <time>2019-05-16T15:39:22.928Z</time>
      </trkpt>
      <trkpt lat="39.067715" lon="-8.78690333">
        <ele>-3.0</ele>
        <time>2019-05-16T15:39:23.910Z</time>
      </trkpt>
      <trkpt lat="39.06774" lon="-8.78685833">
        <ele>-3.0</ele>
        <time>2019-05-16T15:39:24.917Z</time>
      </trkpt>
      <trkpt lat="39.06774" lon="-8.78685833">
        <ele>-3.0</ele>
        <time>2019-05-16T15:39:25.899Z</time>
      </trkpt>
      <trkpt lat="39.06778833" lon="-8.78676667">
        <ele>-3.0</ele>
        <time>2019-05-16T15:39:26.920Z</time>
      </trkpt>
      <trkpt lat="39.06778833" lon="-8.78676667">
        <ele>-3.0</ele>
        <time>2019-05-16T15:39:27.933Z</time>
      </trkpt>
      <trkpt lat="39.06784" lon="-8.786675">
        <ele>-3.0</ele>
        <time>2019-05-16T15:39:28.918Z</time>
      </trkpt>
      <trkpt lat="39.06784" lon="-8.786675">
        <ele>-3.0</ele>
        <time>2019-05-16T15:39:29.899Z</time>
      </trkpt>
      <trkpt lat="39.06789167" lon="-8.78658833">
        <ele>-3.0</ele>
        <time>2019-05-16T15:39:30.925Z</time>
      </trkpt>
      <trkpt lat="39.06791833" lon="-8.78654667">
        <ele>-3.0</ele>
        <time>2019-05-16T15:39:31.939Z</time>
      </trkpt>
      <trkpt lat="39.06791833" lon="-8.78654667">
        <ele>-3.0</ele>
        <time>2019-05-16T15:39:32.921Z</time>
      </trkpt>
      <trkpt lat="39.06796833" lon="-8.78646333">
        <ele>-3.0</ele>
        <time>2019-05-16T15:39:33.935Z</time>
      </trkpt>
      <trkpt lat="39.06796833" lon="-8.78646333">
        <ele>-3.0</ele>
        <time>2019-05-16T15:39:34.901Z</time>
      </trkpt>
      <trkpt lat="39.06802" lon="-8.786385">
        <ele>-3.0</ele>
        <time>2019-05-16T15:39:35.935Z</time>
      </trkpt>
      <trkpt lat="39.06802" lon="-8.786385">
        <ele>-3.0</ele>
        <time>2019-05-16T15:39:36.921Z</time>
      </trkpt>
      <trkpt lat="39.06807167" lon="-8.78630667">
        <ele>-3.0</ele>
        <time>2019-05-16T15:39:37.911Z</time>
      </trkpt>
      <trkpt lat="39.06809833" lon="-8.78626333">
        <ele>-3.0</ele>
        <time>2019-05-16T15:39:38.912Z</time>
      </trkpt>
      <trkpt lat="39.06809833" lon="-8.78626333">
        <ele>-3.0</ele>
        <time>2019-05-16T15:39:39.920Z</time>
      </trkpt>
      <trkpt lat="39.06815167" lon="-8.78617667">
        <ele>-3.0</ele>
        <time>2019-05-16T15:39:40.914Z</time>
      </trkpt>
      <trkpt lat="39.06815167" lon="-8.78617667">
        <ele>-3.0</ele>
        <time>2019-05-16T15:39:41.926Z</time>
      </trkpt>
      <trkpt lat="39.06820333" lon="-8.78609333">
        <ele>-3.0</ele>
        <time>2019-05-16T15:39:42.923Z</time>
      </trkpt>
      <trkpt lat="39.06822833" lon="-8.78605333">
        <ele>-3.0</ele>
        <time>2019-05-16T15:39:43.914Z</time>
      </trkpt>
      <trkpt lat="39.06825167" lon="-8.786015">
        <ele>-3.0</ele>
        <time>2019-05-16T15:39:44.901Z</time>
      </trkpt>
      <trkpt lat="39.06825167" lon="-8.786015">
        <ele>-3.0</ele>
        <time>2019-05-16T15:39:45.923Z</time>
      </trkpt>
      <trkpt lat="39.06830333" lon="-8.78595167">
        <ele>-3.0</ele>
        <time>2019-05-16T15:39:46.900Z</time>
      </trkpt>
      <trkpt lat="39.06830333" lon="-8.78595167">
        <ele>-3.0</ele>
        <time>2019-05-16T15:39:47.927Z</time>
      </trkpt>
      <trkpt lat="39.06835833" lon="-8.785925">
        <ele>-3.0</ele>
        <time>2019-05-16T15:39:48.909Z</time>
      </trkpt>
      <trkpt lat="39.06837667" lon="-8.78592">
        <ele>-3.0</ele>
        <time>2019-05-16T15:39:49.914Z</time>
      </trkpt>
      <trkpt lat="39.06837667" lon="-8.78592">
        <ele>-3.0</ele>
        <time>2019-05-16T15:39:50.932Z</time>
      </trkpt>
      <trkpt lat="39.06838833" lon="-8.78591833">
        <ele>-3.0</ele>
        <time>2019-05-16T15:39:51.913Z</time>
      </trkpt>
      <trkpt lat="39.06838667" lon="-8.78591833">
        <ele>-3.0</ele>
        <time>2019-05-16T15:39:52.914Z</time>
      </trkpt>
      <trkpt lat="39.06838667" lon="-8.78591833">
        <ele>-3.0</ele>
        <time>2019-05-16T15:39:53.933Z</time>
      </trkpt>
      <trkpt lat="39.06838667" lon="-8.78591833">
        <ele>-3.0</ele>
        <time>2019-05-16T15:39:54.899Z</time>
      </trkpt>
      <trkpt lat="39.06838667" lon="-8.78591833">
        <ele>-3.0</ele>
        <time>2019-05-16T15:39:55.905Z</time>
      </trkpt>
      <trkpt lat="39.06838667" lon="-8.78591833">
        <ele>-3.0</ele>
        <time>2019-05-16T15:39:56.934Z</time>
      </trkpt>
      <trkpt lat="39.06838667" lon="-8.78591833">
        <ele>-3.0</ele>
        <time>2019-05-16T15:39:57.897Z</time>
      </trkpt>
      <trkpt lat="39.06838667" lon="-8.78591833">
        <ele>-3.0</ele>
        <time>2019-05-16T15:39:58.932Z</time>
      </trkpt>
      <trkpt lat="39.06838667" lon="-8.78591833">
        <ele>-3.0</ele>
        <time>2019-05-16T15:39:59.928Z</time>
      </trkpt>
      <trkpt lat="39.06838667" lon="-8.78591833">
        <ele>-3.0</ele>
        <time>2019-05-16T15:40:00.932Z</time>
      </trkpt>
      <trkpt lat="39.06838667" lon="-8.78591833">
        <ele>-3.0</ele>
        <time>2019-05-16T15:40:01.933Z</time>
      </trkpt>
      <trkpt lat="39.06838667" lon="-8.78591833">
        <ele>-3.0</ele>
        <time>2019-05-16T15:40:02.928Z</time>
      </trkpt>
      <trkpt lat="39.06838667" lon="-8.78591833">
        <ele>-3.0</ele>
        <time>2019-05-16T15:40:03.926Z</time>
      </trkpt>
      <trkpt lat="39.06838667" lon="-8.78591833">
        <ele>-3.0</ele>
        <time>2019-05-16T15:40:04.932Z</time>
      </trkpt>
      <trkpt lat="39.06838667" lon="-8.78591833">
        <ele>-3.0</ele>
        <time>2019-05-16T15:40:05.927Z</time>
      </trkpt>
      <trkpt lat="39.06838667" lon="-8.78591833">
        <ele>-3.0</ele>
        <time>2019-05-16T15:40:06.932Z</time>
      </trkpt>
      <trkpt lat="39.06838667" lon="-8.78591833">
        <ele>-3.0</ele>
        <time>2019-05-16T15:40:07.927Z</time>
      </trkpt>
      <trkpt lat="39.06838667" lon="-8.78591833">
        <ele>-3.0</ele>
        <time>2019-05-16T15:40:08.934Z</time>
      </trkpt>
      <trkpt lat="39.06838667" lon="-8.78591833">
        <ele>-3.0</ele>
        <time>2019-05-16T15:40:09.928Z</time>
      </trkpt>
      <trkpt lat="39.06838667" lon="-8.78591833">
        <ele>-3.0</ele>
        <time>2019-05-16T15:40:10.929Z</time>
      </trkpt>
      <trkpt lat="39.06838667" lon="-8.78591833">
        <ele>-3.0</ele>
        <time>2019-05-16T15:40:11.926Z</time>
      </trkpt>
      <trkpt lat="39.06838667" lon="-8.78591833">
        <ele>-3.0</ele>
        <time>2019-05-16T15:40:12.919Z</time>
      </trkpt>
      <trkpt lat="39.06838667" lon="-8.78591833">
        <ele>-3.0</ele>
        <time>2019-05-16T15:40:13.904Z</time>
      </trkpt>
      <trkpt lat="39.06838667" lon="-8.78591833">
        <ele>-3.0</ele>
        <time>2019-05-16T15:40:14.934Z</time>
      </trkpt>
      <trkpt lat="39.06838667" lon="-8.78591833">
        <ele>-3.0</ele>
        <time>2019-05-16T15:40:15.929Z</time>
      </trkpt>
      <trkpt lat="39.06838667" lon="-8.78591833">
        <ele>-3.0</ele>
        <time>2019-05-16T15:40:16.932Z</time>
      </trkpt>
      <trkpt lat="39.06838667" lon="-8.78591833">
        <ele>-3.0</ele>
        <time>2019-05-16T15:40:17.927Z</time>
      </trkpt>
      <trkpt lat="39.06838667" lon="-8.78591833">
        <ele>-3.0</ele>
        <time>2019-05-16T15:40:18.932Z</time>
      </trkpt>
      <trkpt lat="39.06838667" lon="-8.78591833">
        <ele>-3.0</ele>
        <time>2019-05-16T15:40:19.928Z</time>
      </trkpt>
      <trkpt lat="39.06838667" lon="-8.78591833">
        <ele>-3.0</ele>
        <time>2019-05-16T15:40:20.906Z</time>
      </trkpt>
      <trkpt lat="39.06838667" lon="-8.78591833">
        <ele>-3.0</ele>
        <time>2019-05-16T15:40:21.919Z</time>
      </trkpt>
      <trkpt lat="39.06838667" lon="-8.78591833">
        <ele>-3.0</ele>
        <time>2019-05-16T15:40:22.926Z</time>
      </trkpt>
      <trkpt lat="39.06838667" lon="-8.78591833">
        <ele>-3.0</ele>
        <time>2019-05-16T15:40:23.932Z</time>
      </trkpt>
      <trkpt lat="39.06838667" lon="-8.78591833">
        <ele>-3.0</ele>
        <time>2019-05-16T15:40:24.927Z</time>
      </trkpt>
      <trkpt lat="39.06838667" lon="-8.78591833">
        <ele>-3.0</ele>
        <time>2019-05-16T15:40:25.932Z</time>
      </trkpt>
      <trkpt lat="39.06838667" lon="-8.78591833">
        <ele>-3.0</ele>
        <time>2019-05-16T15:40:26.935Z</time>
      </trkpt>
      <trkpt lat="39.06838667" lon="-8.78591833">
        <ele>-3.0</ele>
        <time>2019-05-16T15:40:27.924Z</time>
      </trkpt>
      <trkpt lat="39.06838667" lon="-8.78591833">
        <ele>-3.0</ele>
        <time>2019-05-16T15:40:28.929Z</time>
      </trkpt>
      <trkpt lat="39.06838667" lon="-8.78591833">
        <ele>-3.0</ele>
        <time>2019-05-16T15:40:29.927Z</time>
      </trkpt>
      <trkpt lat="39.06838667" lon="-8.78591833">
        <ele>-3.0</ele>
        <time>2019-05-16T15:40:30.932Z</time>
      </trkpt>
      <trkpt lat="39.06838667" lon="-8.78591833">
        <ele>-3.0</ele>
        <time>2019-05-16T15:40:31.928Z</time>
      </trkpt>
      <trkpt lat="39.06838667" lon="-8.78591833">
        <ele>-3.0</ele>
        <time>2019-05-16T15:40:32.934Z</time>
      </trkpt>
      <trkpt lat="39.06838667" lon="-8.78591833">
        <ele>-3.0</ele>
        <time>2019-05-16T15:40:33.928Z</time>
      </trkpt>
      <trkpt lat="39.06838667" lon="-8.78591833">
        <ele>-3.0</ele>
        <time>2019-05-16T15:40:34.932Z</time>
      </trkpt>
      <trkpt lat="39.06838667" lon="-8.78591833">
        <ele>-3.0</ele>
        <time>2019-05-16T15:40:35.930Z</time>
      </trkpt>
      <trkpt lat="39.06838667" lon="-8.78591833">
        <ele>-3.0</ele>
        <time>2019-05-16T15:40:36.932Z</time>
      </trkpt>
      <trkpt lat="39.06838667" lon="-8.78591833">
        <ele>-3.0</ele>
        <time>2019-05-16T15:40:37.927Z</time>
      </trkpt>
      <trkpt lat="39.06838667" lon="-8.78591833">
        <ele>-3.0</ele>
        <time>2019-05-16T15:40:38.935Z</time>
      </trkpt>
      <trkpt lat="39.06838667" lon="-8.78591833">
        <ele>-3.0</ele>
        <time>2019-05-16T15:40:39.926Z</time>
      </trkpt>
      <trkpt lat="39.0684" lon="-8.78590833">
        <ele>-2.0</ele>
        <time>2019-05-16T15:40:40.933Z</time>
      </trkpt>
      <trkpt lat="39.06839833" lon="-8.78590667">
        <ele>-2.0</ele>
        <time>2019-05-16T15:40:41.931Z</time>
      </trkpt>
      <trkpt lat="39.06839833" lon="-8.78590667">
        <ele>-2.0</ele>
        <time>2019-05-16T15:40:42.929Z</time>
      </trkpt>
      <trkpt lat="39.06839667" lon="-8.78590833">
        <ele>-2.0</ele>
        <time>2019-05-16T15:40:43.932Z</time>
      </trkpt>
      <trkpt lat="39.06839667" lon="-8.78590833">
        <ele>-2.0</ele>
        <time>2019-05-16T15:40:44.935Z</time>
      </trkpt>
      <trkpt lat="39.06839667" lon="-8.78590833">
        <ele>-2.0</ele>
        <time>2019-05-16T15:40:45.927Z</time>
      </trkpt>
      <trkpt lat="39.06839667" lon="-8.78590833">
        <ele>-2.0</ele>
        <time>2019-05-16T15:40:46.929Z</time>
      </trkpt>
      <trkpt lat="39.06839667" lon="-8.78590833">
        <ele>-2.0</ele>
        <time>2019-05-16T15:40:47.927Z</time>
      </trkpt>
      <trkpt lat="39.06839667" lon="-8.78590833">
        <ele>-2.0</ele>
        <time>2019-05-16T15:40:48.932Z</time>
      </trkpt>
      <trkpt lat="39.06839667" lon="-8.78590833">
        <ele>-2.0</ele>
        <time>2019-05-16T15:40:49.903Z</time>
      </trkpt>
      <trkpt lat="39.06839667" lon="-8.78590833">
        <ele>-2.0</ele>
        <time>2019-05-16T15:40:50.935Z</time>
      </trkpt>
      <trkpt lat="39.06839667" lon="-8.78590833">
        <ele>-2.0</ele>
        <time>2019-05-16T15:40:51.929Z</time>
      </trkpt>
      <trkpt lat="39.06839667" lon="-8.78590833">
        <ele>-2.0</ele>
        <time>2019-05-16T15:40:52.932Z</time>
      </trkpt>
      <trkpt lat="39.06839667" lon="-8.78590833">
        <ele>-2.0</ele>
        <time>2019-05-16T15:40:53.927Z</time>
      </trkpt>
      <trkpt lat="39.06839667" lon="-8.78590833">
        <ele>-2.0</ele>
        <time>2019-05-16T15:40:54.932Z</time>
      </trkpt>
      <trkpt lat="39.06839667" lon="-8.78590833">
        <ele>-2.0</ele>
        <time>2019-05-16T15:40:55.930Z</time>
      </trkpt>
      <trkpt lat="39.06839667" lon="-8.78590833">
        <ele>-2.0</ele>
        <time>2019-05-16T15:40:56.935Z</time>
      </trkpt>
      <trkpt lat="39.06839667" lon="-8.78590833">
        <ele>-2.0</ele>
        <time>2019-05-16T15:40:57.927Z</time>
      </trkpt>
      <trkpt lat="39.06839667" lon="-8.78590833">
        <ele>-2.0</ele>
        <time>2019-05-16T15:40:58.932Z</time>
      </trkpt>
      <trkpt lat="39.06839667" lon="-8.78590833">
        <ele>-2.0</ele>
        <time>2019-05-16T15:40:59.928Z</time>
      </trkpt>
      <trkpt lat="39.06839667" lon="-8.78590833">
        <ele>-2.0</ele>
        <time>2019-05-16T15:41:00.933Z</time>
      </trkpt>
      <trkpt lat="39.06839667" lon="-8.78590833">
        <ele>-2.0</ele>
        <time>2019-05-16T15:41:01.897Z</time>
      </trkpt>
      <trkpt lat="39.06839667" lon="-8.78590833">
        <ele>-2.0</ele>
        <time>2019-05-16T15:41:02.905Z</time>
      </trkpt>
      <trkpt lat="39.06839667" lon="-8.78590833">
        <ele>-2.0</ele>
        <time>2019-05-16T15:41:03.931Z</time>
      </trkpt>
      <trkpt lat="39.06839667" lon="-8.78590833">
        <ele>-2.0</ele>
        <time>2019-05-16T15:41:04.933Z</time>
      </trkpt>
      <trkpt lat="39.06839667" lon="-8.78590833">
        <ele>-2.0</ele>
        <time>2019-05-16T15:41:05.929Z</time>
      </trkpt>
      <trkpt lat="39.06839667" lon="-8.78590833">
        <ele>-2.0</ele>
        <time>2019-05-16T15:41:06.932Z</time>
      </trkpt>
      <trkpt lat="39.06839667" lon="-8.78590833">
        <ele>-2.0</ele>
        <time>2019-05-16T15:41:07.927Z</time>
      </trkpt>
      <trkpt lat="39.06839667" lon="-8.78590833">
        <ele>-2.0</ele>
        <time>2019-05-16T15:41:08.934Z</time>
      </trkpt>
      <trkpt lat="39.06839667" lon="-8.78590833">
        <ele>-2.0</ele>
        <time>2019-05-16T15:41:09.927Z</time>
      </trkpt>
      <trkpt lat="39.06839667" lon="-8.78590833">
        <ele>-2.0</ele>
        <time>2019-05-16T15:41:10.932Z</time>
      </trkpt>
      <trkpt lat="39.06839667" lon="-8.78590833">
        <ele>-2.0</ele>
        <time>2019-05-16T15:41:11.923Z</time>
      </trkpt>
      <trkpt lat="39.06839667" lon="-8.78590833">
        <ele>-2.0</ele>
        <time>2019-05-16T15:41:12.909Z</time>
      </trkpt>
      <trkpt lat="39.06839667" lon="-8.78590833">
        <ele>-2.0</ele>
        <time>2019-05-16T15:41:13.936Z</time>
      </trkpt>
      <trkpt lat="39.06839667" lon="-8.78590833">
        <ele>-2.0</ele>
        <time>2019-05-16T15:41:14.929Z</time>
      </trkpt>
      <trkpt lat="39.06839667" lon="-8.78590833">
        <ele>-2.0</ele>
        <time>2019-05-16T15:41:15.932Z</time>
      </trkpt>
      <trkpt lat="39.06839667" lon="-8.78590833">
        <ele>-2.0</ele>
        <time>2019-05-16T15:41:16.932Z</time>
      </trkpt>
      <trkpt lat="39.06839667" lon="-8.78590833">
        <ele>-2.0</ele>
        <time>2019-05-16T15:41:17.927Z</time>
      </trkpt>
      <trkpt lat="39.06839667" lon="-8.78590833">
        <ele>-2.0</ele>
        <time>2019-05-16T15:41:18.929Z</time>
      </trkpt>
      <trkpt lat="39.06839667" lon="-8.78590833">
        <ele>-2.0</ele>
        <time>2019-05-16T15:41:19.927Z</time>
      </trkpt>
      <trkpt lat="39.06839667" lon="-8.78590833">
        <ele>-2.0</ele>
        <time>2019-05-16T15:41:20.934Z</time>
      </trkpt>
      <trkpt lat="39.06839667" lon="-8.78590833">
        <ele>-2.0</ele>
        <time>2019-05-16T15:41:21.899Z</time>
      </trkpt>
      <trkpt lat="39.06839667" lon="-8.78590833">
        <ele>-2.0</ele>
        <time>2019-05-16T15:41:22.905Z</time>
      </trkpt>
      <trkpt lat="39.06839667" lon="-8.78590833">
        <ele>-2.0</ele>
        <time>2019-05-16T15:41:23.930Z</time>
      </trkpt>
      <trkpt lat="39.06839667" lon="-8.78590833">
        <ele>-2.0</ele>
        <time>2019-05-16T15:41:24.932Z</time>
      </trkpt>
      <trkpt lat="39.06839667" lon="-8.78590833">
        <ele>-2.0</ele>
        <time>2019-05-16T15:41:25.928Z</time>
      </trkpt>
      <trkpt lat="39.06839667" lon="-8.78590833">
        <ele>-2.0</ele>
        <time>2019-05-16T15:41:26.936Z</time>
      </trkpt>
      <trkpt lat="39.06839667" lon="-8.78590833">
        <ele>-2.0</ele>
        <time>2019-05-16T15:41:27.905Z</time>
      </trkpt>
      <trkpt lat="39.06839667" lon="-8.78590833">
        <ele>-2.0</ele>
        <time>2019-05-16T15:41:28.933Z</time>
      </trkpt>
      <trkpt lat="39.06839667" lon="-8.78590833">
        <ele>-2.0</ele>
        <time>2019-05-16T15:41:29.928Z</time>
      </trkpt>
      <trkpt lat="39.06839667" lon="-8.78590833">
        <ele>-2.0</ele>
        <time>2019-05-16T15:41:30.934Z</time>
      </trkpt>
      <trkpt lat="39.06839667" lon="-8.78590833">
        <ele>-2.0</ele>
        <time>2019-05-16T15:41:31.928Z</time>
      </trkpt>
      <trkpt lat="39.06839667" lon="-8.78590833">
        <ele>-2.0</ele>
        <time>2019-05-16T15:41:32.936Z</time>
      </trkpt>
      <trkpt lat="39.06839667" lon="-8.78590833">
        <ele>-2.0</ele>
        <time>2019-05-16T15:41:33.930Z</time>
      </trkpt>
      <trkpt lat="39.06839667" lon="-8.78590833">
        <ele>-2.0</ele>
        <time>2019-05-16T15:41:34.933Z</time>
      </trkpt>
      <trkpt lat="39.06839667" lon="-8.78590833">
        <ele>-2.0</ele>
        <time>2019-05-16T15:41:35.934Z</time>
      </trkpt>
      <trkpt lat="39.06839667" lon="-8.78590833">
        <ele>-2.0</ele>
        <time>2019-05-16T15:41:36.931Z</time>
      </trkpt>
      <trkpt lat="39.06839667" lon="-8.78590833">
        <ele>-2.0</ele>
        <time>2019-05-16T15:41:37.933Z</time>
      </trkpt>
      <trkpt lat="39.06839667" lon="-8.78590833">
        <ele>-2.0</ele>
        <time>2019-05-16T15:41:38.936Z</time>
      </trkpt>
      <trkpt lat="39.06839667" lon="-8.78590833">
        <ele>-2.0</ele>
        <time>2019-05-16T15:41:39.928Z</time>
      </trkpt>
      <trkpt lat="39.06838167" lon="-8.785895">
        <ele>-2.0</ele>
        <time>2019-05-16T15:41:40.914Z</time>
      </trkpt>
      <trkpt lat="39.06838167" lon="-8.785895">
        <ele>-2.0</ele>
        <time>2019-05-16T15:41:41.899Z</time>
      </trkpt>
      <trkpt lat="39.06838333" lon="-8.785885">
        <ele>-2.0</ele>
        <time>2019-05-16T15:41:42.933Z</time>
      </trkpt>
      <trkpt lat="39.06838333" lon="-8.785885">
        <ele>-2.0</ele>
        <time>2019-05-16T15:41:43.930Z</time>
      </trkpt>
      <trkpt lat="39.06838333" lon="-8.78587167">
        <ele>-2.0</ele>
        <time>2019-05-16T15:41:44.936Z</time>
      </trkpt>
      <trkpt lat="39.06838333" lon="-8.78587167">
        <ele>-2.0</ele>
        <time>2019-05-16T15:41:45.931Z</time>
      </trkpt>
      <trkpt lat="39.06838833" lon="-8.78584">
        <ele>-1.0</ele>
        <time>2019-05-16T15:41:46.933Z</time>
      </trkpt>
      <trkpt lat="39.06838833" lon="-8.78584">
        <ele>-1.0</ele>
        <time>2019-05-16T15:41:47.928Z</time>
      </trkpt>
      <trkpt lat="39.068395" lon="-8.78581">
        <ele>-2.0</ele>
        <time>2019-05-16T15:41:48.933Z</time>
      </trkpt>
      <trkpt lat="39.068395" lon="-8.78581">
        <ele>-2.0</ele>
        <time>2019-05-16T15:41:49.927Z</time>
      </trkpt>
      <trkpt lat="39.06840333" lon="-8.78577833">
        <ele>-1.0</ele>
        <time>2019-05-16T15:41:50.908Z</time>
      </trkpt>
      <trkpt lat="39.06840333" lon="-8.78577833">
        <ele>-1.0</ele>
        <time>2019-05-16T15:41:51.934Z</time>
      </trkpt>
      <trkpt lat="39.06842167" lon="-8.78574167">
        <ele>-1.0</ele>
        <time>2019-05-16T15:41:52.933Z</time>
      </trkpt>
      <trkpt lat="39.06842167" lon="-8.78574167">
        <ele>-1.0</ele>
        <time>2019-05-16T15:41:53.926Z</time>
      </trkpt>
      <trkpt lat="39.06844667" lon="-8.785695">
        <ele>-1.0</ele>
        <time>2019-05-16T15:41:54.939Z</time>
      </trkpt>
      <trkpt lat="39.06844667" lon="-8.785695">
        <ele>-1.0</ele>
        <time>2019-05-16T15:41:55.920Z</time>
      </trkpt>
      <trkpt lat="39.06847167" lon="-8.78564333">
        <ele>-2.0</ele>
        <time>2019-05-16T15:41:56.907Z</time>
      </trkpt>
      <trkpt lat="39.06847167" lon="-8.78564333">
        <ele>-2.0</ele>
        <time>2019-05-16T15:41:57.913Z</time>
      </trkpt>
      <trkpt lat="39.06850167" lon="-8.785585">
        <ele>-1.0</ele>
        <time>2019-05-16T15:41:58.900Z</time>
      </trkpt>
      <trkpt lat="39.06850167" lon="-8.785585">
        <ele>-1.0</ele>
        <time>2019-05-16T15:41:59.898Z</time>
      </trkpt>
      <trkpt lat="39.06854" lon="-8.78551667">
        <ele>-1.0</ele>
        <time>2019-05-16T15:42:00.926Z</time>
      </trkpt>
      <trkpt lat="39.06854" lon="-8.78551667">
        <ele>-1.0</ele>
        <time>2019-05-16T15:42:01.911Z</time>
      </trkpt>
      <trkpt lat="39.06858667" lon="-8.78543167">
        <ele>-1.0</ele>
        <time>2019-05-16T15:42:02.930Z</time>
      </trkpt>
      <trkpt lat="39.06858667" lon="-8.78543167">
        <ele>-1.0</ele>
        <time>2019-05-16T15:42:03.917Z</time>
      </trkpt>
      <trkpt lat="39.06863333" lon="-8.785345">
        <ele>-2.0</ele>
        <time>2019-05-16T15:42:04.897Z</time>
      </trkpt>
      <trkpt lat="39.06863333" lon="-8.785345">
        <ele>-2.0</ele>
        <time>2019-05-16T15:42:05.913Z</time>
      </trkpt>
      <trkpt lat="39.06867667" lon="-8.78526333">
        <ele>-2.0</ele>
        <time>2019-05-16T15:42:06.933Z</time>
      </trkpt>
      <trkpt lat="39.068695" lon="-8.78522167">
        <ele>-2.0</ele>
        <time>2019-05-16T15:42:07.930Z</time>
      </trkpt>
      <trkpt lat="39.06871167" lon="-8.78518167">
        <ele>-2.0</ele>
        <time>2019-05-16T15:42:08.925Z</time>
      </trkpt>
      <trkpt lat="39.06871167" lon="-8.78518167">
        <ele>-2.0</ele>
        <time>2019-05-16T15:42:09.909Z</time>
      </trkpt>
      <trkpt lat="39.06875" lon="-8.78510167">
        <ele>-2.0</ele>
        <time>2019-05-16T15:42:10.940Z</time>
      </trkpt>
      <trkpt lat="39.06875" lon="-8.78510167">
        <ele>-2.0</ele>
        <time>2019-05-16T15:42:11.912Z</time>
      </trkpt>
      <trkpt lat="39.06879167" lon="-8.785025">
        <ele>-2.0</ele>
        <time>2019-05-16T15:42:12.928Z</time>
      </trkpt>
      <trkpt lat="39.06879167" lon="-8.785025">
        <ele>-2.0</ele>
        <time>2019-05-16T15:42:13.932Z</time>
      </trkpt>
      <trkpt lat="39.06883333" lon="-8.78495">
        <ele>-2.0</ele>
        <time>2019-05-16T15:42:14.918Z</time>
      </trkpt>
      <trkpt lat="39.06883333" lon="-8.78495">
        <ele>-2.0</ele>
        <time>2019-05-16T15:42:15.904Z</time>
      </trkpt>
      <trkpt lat="39.06887167" lon="-8.78488">
        <ele>-2.0</ele>
        <time>2019-05-16T15:42:16.940Z</time>
      </trkpt>
      <trkpt lat="39.06887167" lon="-8.78488">
        <ele>-2.0</ele>
        <time>2019-05-16T15:42:17.923Z</time>
      </trkpt>
      <trkpt lat="39.0689" lon="-8.78480167">
        <ele>-2.0</ele>
        <time>2019-05-16T15:42:18.909Z</time>
      </trkpt>
      <trkpt lat="39.0689" lon="-8.78480167">
        <ele>-2.0</ele>
        <time>2019-05-16T15:42:19.933Z</time>
      </trkpt>
      <trkpt lat="39.06893667" lon="-8.78472333">
        <ele>-2.0</ele>
        <time>2019-05-16T15:42:20.931Z</time>
      </trkpt>
      <trkpt lat="39.06893667" lon="-8.78472333">
        <ele>-2.0</ele>
        <time>2019-05-16T15:42:21.932Z</time>
      </trkpt>
      <trkpt lat="39.06897333" lon="-8.78464333">
        <ele>-2.0</ele>
        <time>2019-05-16T15:42:22.917Z</time>
      </trkpt>
      <trkpt lat="39.06897333" lon="-8.78464333">
        <ele>-2.0</ele>
        <time>2019-05-16T15:42:23.936Z</time>
      </trkpt>
      <trkpt lat="39.06901" lon="-8.784565">
        <ele>-2.0</ele>
        <time>2019-05-16T15:42:24.913Z</time>
      </trkpt>
      <trkpt lat="39.06901" lon="-8.784565">
        <ele>-2.0</ele>
        <time>2019-05-16T15:42:25.926Z</time>
      </trkpt>
      <trkpt lat="39.06904333" lon="-8.78448333">
        <ele>-2.0</ele>
        <time>2019-05-16T15:42:26.912Z</time>
      </trkpt>
      <trkpt lat="39.06904333" lon="-8.78448333">
        <ele>-2.0</ele>
        <time>2019-05-16T15:42:27.913Z</time>
      </trkpt>
      <trkpt lat="39.06907833" lon="-8.78439833">
        <ele>-2.0</ele>
        <time>2019-05-16T15:42:28.935Z</time>
      </trkpt>
      <trkpt lat="39.06907833" lon="-8.78439833">
        <ele>-2.0</ele>
        <time>2019-05-16T15:42:29.933Z</time>
      </trkpt>
      <trkpt lat="39.06911667" lon="-8.784315">
        <ele>-2.0</ele>
        <time>2019-05-16T15:42:30.923Z</time>
      </trkpt>
      <trkpt lat="39.06911667" lon="-8.784315">
        <ele>-2.0</ele>
        <time>2019-05-16T15:42:31.912Z</time>
      </trkpt>
      <trkpt lat="39.069155" lon="-8.784225">
        <ele>-2.0</ele>
        <time>2019-05-16T15:42:32.926Z</time>
      </trkpt>
      <trkpt lat="39.069155" lon="-8.784225">
        <ele>-2.0</ele>
        <time>2019-05-16T15:42:33.897Z</time>
      </trkpt>
      <trkpt lat="39.06919667" lon="-8.78413333">
        <ele>-2.0</ele>
        <time>2019-05-16T15:42:34.919Z</time>
      </trkpt>
      <trkpt lat="39.06919667" lon="-8.78413333">
        <ele>-2.0</ele>
        <time>2019-05-16T15:42:35.918Z</time>
      </trkpt>
      <trkpt lat="39.06923" lon="-8.784035">
        <ele>-2.0</ele>
        <time>2019-05-16T15:42:36.939Z</time>
      </trkpt>
      <trkpt lat="39.06923" lon="-8.784035">
        <ele>-2.0</ele>
        <time>2019-05-16T15:42:37.920Z</time>
      </trkpt>
      <trkpt lat="39.06926167" lon="-8.78394">
        <ele>-2.0</ele>
        <time>2019-05-16T15:42:38.902Z</time>
      </trkpt>
      <trkpt lat="39.06926167" lon="-8.78394">
        <ele>-2.0</ele>
        <time>2019-05-16T15:42:39.930Z</time>
      </trkpt>
      <trkpt lat="39.06929667" lon="-8.78384667">
        <ele>-2.0</ele>
        <time>2019-05-16T15:42:40.906Z</time>
      </trkpt>
      <trkpt lat="39.06929667" lon="-8.78384667">
        <ele>-2.0</ele>
        <time>2019-05-16T15:42:41.911Z</time>
      </trkpt>
      <trkpt lat="39.06933167" lon="-8.783755">
        <ele>-2.0</ele>
        <time>2019-05-16T15:42:42.899Z</time>
      </trkpt>
      <trkpt lat="39.06933167" lon="-8.783755">
        <ele>-2.0</ele>
        <time>2019-05-16T15:42:43.933Z</time>
      </trkpt>
      <trkpt lat="39.06936333" lon="-8.78366833">
        <ele>-2.0</ele>
        <time>2019-05-16T15:42:44.913Z</time>
      </trkpt>
      <trkpt lat="39.06936333" lon="-8.78366833">
        <ele>-2.0</ele>
        <time>2019-05-16T15:42:45.923Z</time>
      </trkpt>
      <trkpt lat="39.069385" lon="-8.78357833">
        <ele>-2.0</ele>
        <time>2019-05-16T15:42:46.900Z</time>
      </trkpt>
      <trkpt lat="39.069385" lon="-8.78357833">
        <ele>-2.0</ele>
        <time>2019-05-16T15:42:47.913Z</time>
      </trkpt>
      <trkpt lat="39.06940833" lon="-8.783495">
        <ele>-1.0</ele>
        <time>2019-05-16T15:42:48.911Z</time>
      </trkpt>
      <trkpt lat="39.06940833" lon="-8.783495">
        <ele>-1.0</ele>
        <time>2019-05-16T15:42:49.929Z</time>
      </trkpt>
      <trkpt lat="39.069435" lon="-8.78342333">
        <ele>0.0</ele>
        <time>2019-05-16T15:42:50.904Z</time>
      </trkpt>
      <trkpt lat="39.069435" lon="-8.78342333">
        <ele>0.0</ele>
        <time>2019-05-16T15:42:51.898Z</time>
      </trkpt>
      <trkpt lat="39.06945667" lon="-8.78335">
        <ele>0.0</ele>
        <time>2019-05-16T15:42:52.920Z</time>
      </trkpt>
      <trkpt lat="39.06945667" lon="-8.78335">
        <ele>0.0</ele>
        <time>2019-05-16T15:42:53.926Z</time>
      </trkpt>
      <trkpt lat="39.06948333" lon="-8.78329333">
        <ele>1.0</ele>
        <time>2019-05-16T15:42:54.907Z</time>
      </trkpt>
      <trkpt lat="39.06948333" lon="-8.78329333">
        <ele>1.0</ele>
        <time>2019-05-16T15:42:55.920Z</time>
      </trkpt>
      <trkpt lat="39.06950667" lon="-8.78324">
        <ele>1.0</ele>
        <time>2019-05-16T15:42:56.906Z</time>
      </trkpt>
      <trkpt lat="39.06950667" lon="-8.78324">
        <ele>1.0</ele>
        <time>2019-05-16T15:42:57.913Z</time>
      </trkpt>
      <trkpt lat="39.06955167" lon="-8.78319">
        <ele>1.0</ele>
        <time>2019-05-16T15:42:58.933Z</time>
      </trkpt>
      <trkpt lat="39.06955167" lon="-8.78319">
        <ele>1.0</ele>
        <time>2019-05-16T15:42:59.935Z</time>
      </trkpt>
      <trkpt lat="39.0696" lon="-8.783145">
        <ele>1.0</ele>
        <time>2019-05-16T15:43:00.919Z</time>
      </trkpt>
      <trkpt lat="39.0696" lon="-8.783145">
        <ele>1.0</ele>
        <time>2019-05-16T15:43:01.933Z</time>
      </trkpt>
      <trkpt lat="39.06964333" lon="-8.7831">
        <ele>1.0</ele>
        <time>2019-05-16T15:43:02.912Z</time>
      </trkpt>
      <trkpt lat="39.06964333" lon="-8.7831">
        <ele>1.0</ele>
        <time>2019-05-16T15:43:03.930Z</time>
      </trkpt>
      <trkpt lat="39.06968833" lon="-8.78305833">
        <ele>1.0</ele>
        <time>2019-05-16T15:43:04.928Z</time>
      </trkpt>
      <trkpt lat="39.06968833" lon="-8.78305833">
        <ele>1.0</ele>
        <time>2019-05-16T15:43:05.898Z</time>
      </trkpt>
      <trkpt lat="39.06973833" lon="-8.783015">
        <ele>1.0</ele>
        <time>2019-05-16T15:43:06.931Z</time>
      </trkpt>
      <trkpt lat="39.06973833" lon="-8.783015">
        <ele>1.0</ele>
        <time>2019-05-16T15:43:07.906Z</time>
      </trkpt>
      <trkpt lat="39.069795" lon="-8.78297667">
        <ele>1.0</ele>
        <time>2019-05-16T15:43:08.928Z</time>
      </trkpt>
      <trkpt lat="39.069795" lon="-8.78297667">
        <ele>1.0</ele>
        <time>2019-05-16T15:43:09.911Z</time>
      </trkpt>
      <trkpt lat="39.06985" lon="-8.78294167">
        <ele>1.0</ele>
        <time>2019-05-16T15:43:10.929Z</time>
      </trkpt>
      <trkpt lat="39.06985" lon="-8.78294167">
        <ele>1.0</ele>
        <time>2019-05-16T15:43:11.917Z</time>
      </trkpt>
      <trkpt lat="39.06990333" lon="-8.782905">
        <ele>1.0</ele>
        <time>2019-05-16T15:43:12.915Z</time>
      </trkpt>
      <trkpt lat="39.06990333" lon="-8.782905">
        <ele>1.0</ele>
        <time>2019-05-16T15:43:13.899Z</time>
      </trkpt>
      <trkpt lat="39.06996167" lon="-8.78287167">
        <ele>1.0</ele>
        <time>2019-05-16T15:43:14.927Z</time>
      </trkpt>
      <trkpt lat="39.06996167" lon="-8.78287167">
        <ele>1.0</ele>
        <time>2019-05-16T15:43:15.926Z</time>
      </trkpt>
      <trkpt lat="39.07002" lon="-8.78283">
        <ele>1.0</ele>
        <time>2019-05-16T15:43:16.908Z</time>
      </trkpt>
      <trkpt lat="39.07002" lon="-8.78283">
        <ele>1.0</ele>
        <time>2019-05-16T15:43:17.903Z</time>
      </trkpt>
      <trkpt lat="39.07008" lon="-8.78278667">
        <ele>1.0</ele>
        <time>2019-05-16T15:43:18.922Z</time>
      </trkpt>
      <trkpt lat="39.07008" lon="-8.78278667">
        <ele>1.0</ele>
        <time>2019-05-16T15:43:19.933Z</time>
      </trkpt>
      <trkpt lat="39.07014167" lon="-8.78274833">
        <ele>1.0</ele>
        <time>2019-05-16T15:43:20.932Z</time>
      </trkpt>
      <trkpt lat="39.07014167" lon="-8.78274833">
        <ele>1.0</ele>
        <time>2019-05-16T15:43:21.912Z</time>
      </trkpt>
      <trkpt lat="39.07020333" lon="-8.78270833">
        <ele>1.0</ele>
        <time>2019-05-16T15:43:22.898Z</time>
      </trkpt>
      <trkpt lat="39.07020333" lon="-8.78270833">
        <ele>1.0</ele>
        <time>2019-05-16T15:43:23.923Z</time>
      </trkpt>
      <trkpt lat="39.07026333" lon="-8.78265833">
        <ele>1.0</ele>
        <time>2019-05-16T15:43:24.910Z</time>
      </trkpt>
      <trkpt lat="39.07026333" lon="-8.78265833">
        <ele>1.0</ele>
        <time>2019-05-16T15:43:25.913Z</time>
      </trkpt>
      <trkpt lat="39.07032167" lon="-8.7826">
        <ele>1.0</ele>
        <time>2019-05-16T15:43:26.906Z</time>
      </trkpt>
      <trkpt lat="39.07032167" lon="-8.7826">
        <ele>1.0</ele>
        <time>2019-05-16T15:43:27.920Z</time>
      </trkpt>
      <trkpt lat="39.07038167" lon="-8.78254167">
        <ele>1.0</ele>
        <time>2019-05-16T15:43:28.901Z</time>
      </trkpt>
      <trkpt lat="39.07038167" lon="-8.78254167">
        <ele>1.0</ele>
        <time>2019-05-16T15:43:29.913Z</time>
      </trkpt>
      <trkpt lat="39.07044" lon="-8.782485">
        <ele>1.0</ele>
        <time>2019-05-16T15:43:30.928Z</time>
      </trkpt>
      <trkpt lat="39.07044" lon="-8.782485">
        <ele>1.0</ele>
        <time>2019-05-16T15:43:31.929Z</time>
      </trkpt>
      <trkpt lat="39.07049667" lon="-8.78243167">
        <ele>1.0</ele>
        <time>2019-05-16T15:43:32.907Z</time>
      </trkpt>
      <trkpt lat="39.07049667" lon="-8.78243167">
        <ele>1.0</ele>
        <time>2019-05-16T15:43:33.897Z</time>
      </trkpt>
      <trkpt lat="39.07055333" lon="-8.782375">
        <ele>1.0</ele>
        <time>2019-05-16T15:43:34.936Z</time>
      </trkpt>
      <trkpt lat="39.07055333" lon="-8.782375">
        <ele>1.0</ele>
        <time>2019-05-16T15:43:35.934Z</time>
      </trkpt>
      <trkpt lat="39.07061167" lon="-8.78232333">
        <ele>1.0</ele>
        <time>2019-05-16T15:43:36.911Z</time>
      </trkpt>
      <trkpt lat="39.07061167" lon="-8.78232333">
        <ele>1.0</ele>
        <time>2019-05-16T15:43:37.910Z</time>
      </trkpt>
      <trkpt lat="39.07066667" lon="-8.78226833">
        <ele>1.0</ele>
        <time>2019-05-16T15:43:38.901Z</time>
      </trkpt>
      <trkpt lat="39.07066667" lon="-8.78226833">
        <ele>1.0</ele>
        <time>2019-05-16T15:43:39.926Z</time>
      </trkpt>
      <trkpt lat="39.07072333" lon="-8.78220833">
        <ele>1.0</ele>
        <time>2019-05-16T15:43:40.903Z</time>
      </trkpt>
      <trkpt lat="39.07072333" lon="-8.78220833">
        <ele>1.0</ele>
        <time>2019-05-16T15:43:41.910Z</time>
      </trkpt>
      <trkpt lat="39.070785" lon="-8.78215167">
        <ele>1.0</ele>
        <time>2019-05-16T15:43:42.927Z</time>
      </trkpt>
      <trkpt lat="39.070785" lon="-8.78215167">
        <ele>1.0</ele>
        <time>2019-05-16T15:43:43.913Z</time>
      </trkpt>
      <trkpt lat="39.07084333" lon="-8.78208833">
        <ele>1.0</ele>
        <time>2019-05-16T15:43:44.901Z</time>
      </trkpt>
      <trkpt lat="39.07084333" lon="-8.78208833">
        <ele>1.0</ele>
        <time>2019-05-16T15:43:45.914Z</time>
      </trkpt>
      <trkpt lat="39.07090333" lon="-8.78202">
        <ele>1.0</ele>
        <time>2019-05-16T15:43:46.897Z</time>
      </trkpt>
      <trkpt lat="39.07090333" lon="-8.78202">
        <ele>1.0</ele>
        <time>2019-05-16T15:43:47.931Z</time>
      </trkpt>
      <trkpt lat="39.07096333" lon="-8.78195">
        <ele>1.0</ele>
        <time>2019-05-16T15:43:48.916Z</time>
      </trkpt>
      <trkpt lat="39.07096333" lon="-8.78195">
        <ele>1.0</ele>
        <time>2019-05-16T15:43:49.908Z</time>
      </trkpt>
      <trkpt lat="39.07102167" lon="-8.78187667">
        <ele>1.0</ele>
        <time>2019-05-16T15:43:50.910Z</time>
      </trkpt>
      <trkpt lat="39.07102167" lon="-8.78187667">
        <ele>1.0</ele>
        <time>2019-05-16T15:43:51.908Z</time>
      </trkpt>
      <trkpt lat="39.07108167" lon="-8.78180167">
        <ele>1.0</ele>
        <time>2019-05-16T15:43:52.914Z</time>
      </trkpt>
      <trkpt lat="39.07108167" lon="-8.78180167">
        <ele>1.0</ele>
        <time>2019-05-16T15:43:53.902Z</time>
      </trkpt>
      <trkpt lat="39.07114" lon="-8.78172667">
        <ele>1.0</ele>
        <time>2019-05-16T15:43:54.925Z</time>
      </trkpt>
      <trkpt lat="39.07114" lon="-8.78172667">
        <ele>1.0</ele>
        <time>2019-05-16T15:43:55.913Z</time>
      </trkpt>
      <trkpt lat="39.0712" lon="-8.78164667">
        <ele>1.0</ele>
        <time>2019-05-16T15:43:56.936Z</time>
      </trkpt>
      <trkpt lat="39.0712" lon="-8.78164667">
        <ele>1.0</ele>
        <time>2019-05-16T15:43:57.920Z</time>
      </trkpt>
      <trkpt lat="39.07126167" lon="-8.78157167">
        <ele>1.0</ele>
        <time>2019-05-16T15:43:58.936Z</time>
      </trkpt>
      <trkpt lat="39.07126167" lon="-8.78157167">
        <ele>1.0</ele>
        <time>2019-05-16T15:43:59.904Z</time>
      </trkpt>
      <trkpt lat="39.07132667" lon="-8.781505">
        <ele>1.0</ele>
        <time>2019-05-16T15:44:00.922Z</time>
      </trkpt>
      <trkpt lat="39.07132667" lon="-8.781505">
        <ele>1.0</ele>
        <time>2019-05-16T15:44:01.903Z</time>
      </trkpt>
      <trkpt lat="39.07138667" lon="-8.781445">
        <ele>1.0</ele>
        <time>2019-05-16T15:44:02.921Z</time>
      </trkpt>
      <trkpt lat="39.07138667" lon="-8.781445">
        <ele>1.0</ele>
        <time>2019-05-16T15:44:03.897Z</time>
      </trkpt>
      <trkpt lat="39.07144667" lon="-8.78139667">
        <ele>1.0</ele>
        <time>2019-05-16T15:44:04.935Z</time>
      </trkpt>
      <trkpt lat="39.07144667" lon="-8.78139667">
        <ele>1.0</ele>
        <time>2019-05-16T15:44:05.930Z</time>
      </trkpt>
      <trkpt lat="39.07150833" lon="-8.78136">
        <ele>1.0</ele>
        <time>2019-05-16T15:44:06.912Z</time>
      </trkpt>
      <trkpt lat="39.07150833" lon="-8.78136">
        <ele>1.0</ele>
        <time>2019-05-16T15:44:07.920Z</time>
      </trkpt>
      <trkpt lat="39.07157667" lon="-8.781325">
        <ele>1.0</ele>
        <time>2019-05-16T15:44:08.917Z</time>
      </trkpt>
      <trkpt lat="39.07157667" lon="-8.781325">
        <ele>1.0</ele>
        <time>2019-05-16T15:44:09.920Z</time>
      </trkpt>
      <trkpt lat="39.07164667" lon="-8.78129333">
        <ele>1.0</ele>
        <time>2019-05-16T15:44:10.908Z</time>
      </trkpt>
      <trkpt lat="39.07164667" lon="-8.78129333">
        <ele>1.0</ele>
        <time>2019-05-16T15:44:11.902Z</time>
      </trkpt>
      <trkpt lat="39.07171833" lon="-8.78126333">
        <ele>1.0</ele>
        <time>2019-05-16T15:44:12.916Z</time>
      </trkpt>
      <trkpt lat="39.07171833" lon="-8.78126333">
        <ele>1.0</ele>
        <time>2019-05-16T15:44:13.898Z</time>
      </trkpt>
      <trkpt lat="39.07179167" lon="-8.78123167">
        <ele>1.0</ele>
        <time>2019-05-16T15:44:14.911Z</time>
      </trkpt>
      <trkpt lat="39.07179167" lon="-8.78123167">
        <ele>1.0</ele>
        <time>2019-05-16T15:44:15.920Z</time>
      </trkpt>
      <trkpt lat="39.07186833" lon="-8.7812">
        <ele>1.0</ele>
        <time>2019-05-16T15:44:16.941Z</time>
      </trkpt>
      <trkpt lat="39.07186833" lon="-8.7812">
        <ele>1.0</ele>
        <time>2019-05-16T15:44:17.921Z</time>
      </trkpt>
      <trkpt lat="39.071945" lon="-8.78116833">
        <ele>1.0</ele>
        <time>2019-05-16T15:44:18.907Z</time>
      </trkpt>
      <trkpt lat="39.071945" lon="-8.78116833">
        <ele>1.0</ele>
        <time>2019-05-16T15:44:19.903Z</time>
      </trkpt>
      <trkpt lat="39.072015" lon="-8.78113667">
        <ele>1.0</ele>
        <time>2019-05-16T15:44:20.966Z</time>
      </trkpt>
      <trkpt lat="39.072015" lon="-8.78113667">
        <ele>1.0</ele>
        <time>2019-05-16T15:44:21.911Z</time>
      </trkpt>
      <trkpt lat="39.07208" lon="-8.78109333">
        <ele>1.0</ele>
        <time>2019-05-16T15:44:22.936Z</time>
      </trkpt>
      <trkpt lat="39.07208" lon="-8.78109333">
        <ele>1.0</ele>
        <time>2019-05-16T15:44:23.933Z</time>
      </trkpt>
      <trkpt lat="39.072135" lon="-8.78104">
        <ele>1.0</ele>
        <time>2019-05-16T15:44:24.910Z</time>
      </trkpt>
      <trkpt lat="39.072135" lon="-8.78104">
        <ele>1.0</ele>
        <time>2019-05-16T15:44:25.906Z</time>
      </trkpt>
      <trkpt lat="39.07218333" lon="-8.78097667">
        <ele>1.0</ele>
        <time>2019-05-16T15:44:26.928Z</time>
      </trkpt>
      <trkpt lat="39.07218333" lon="-8.78097667">
        <ele>1.0</ele>
        <time>2019-05-16T15:44:27.909Z</time>
      </trkpt>
      <trkpt lat="39.07222333" lon="-8.78090167">
        <ele>1.0</ele>
        <time>2019-05-16T15:44:28.934Z</time>
      </trkpt>
      <trkpt lat="39.07222333" lon="-8.78090167">
        <ele>1.0</ele>
        <time>2019-05-16T15:44:29.910Z</time>
      </trkpt>
      <trkpt lat="39.07225667" lon="-8.78081833">
        <ele>0.0</ele>
        <time>2019-05-16T15:44:30.941Z</time>
      </trkpt>
      <trkpt lat="39.07225667" lon="-8.78081833">
        <ele>0.0</ele>
        <time>2019-05-16T15:44:31.923Z</time>
      </trkpt>
      <trkpt lat="39.07228333" lon="-8.78072667">
        <ele>0.0</ele>
        <time>2019-05-16T15:44:32.898Z</time>
      </trkpt>
      <trkpt lat="39.07228333" lon="-8.78072667">
        <ele>0.0</ele>
        <time>2019-05-16T15:44:33.898Z</time>
      </trkpt>
      <trkpt lat="39.07230333" lon="-8.78063333">
        <ele>0.0</ele>
        <time>2019-05-16T15:44:34.922Z</time>
      </trkpt>
      <trkpt lat="39.07230333" lon="-8.78063333">
        <ele>0.0</ele>
        <time>2019-05-16T15:44:35.923Z</time>
      </trkpt>
      <trkpt lat="39.07231667" lon="-8.780535">
        <ele>0.0</ele>
        <time>2019-05-16T15:44:36.900Z</time>
      </trkpt>
      <trkpt lat="39.07231667" lon="-8.780535">
        <ele>0.0</ele>
        <time>2019-05-16T15:44:37.903Z</time>
      </trkpt>
      <trkpt lat="39.07232667" lon="-8.78043167">
        <ele>0.0</ele>
        <time>2019-05-16T15:44:38.922Z</time>
      </trkpt>
      <trkpt lat="39.07232667" lon="-8.78043167">
        <ele>0.0</ele>
        <time>2019-05-16T15:44:39.933Z</time>
      </trkpt>
      <trkpt lat="39.07233667" lon="-8.78032333">
        <ele>0.0</ele>
        <time>2019-05-16T15:44:40.927Z</time>
      </trkpt>
      <trkpt lat="39.07233667" lon="-8.78032333">
        <ele>0.0</ele>
        <time>2019-05-16T15:44:41.933Z</time>
      </trkpt>
      <trkpt lat="39.07235167" lon="-8.780215">
        <ele>-1.0</ele>
        <time>2019-05-16T15:44:42.923Z</time>
      </trkpt>
      <trkpt lat="39.07235167" lon="-8.780215">
        <ele>-1.0</ele>
        <time>2019-05-16T15:44:43.910Z</time>
      </trkpt>
      <trkpt lat="39.07236333" lon="-8.78010333">
        <ele>-1.0</ele>
        <time>2019-05-16T15:44:44.900Z</time>
      </trkpt>
      <trkpt lat="39.07236333" lon="-8.78010333">
        <ele>-1.0</ele>
        <time>2019-05-16T15:44:45.921Z</time>
      </trkpt>
      <trkpt lat="39.07236833" lon="-8.77998833">
        <ele>-1.0</ele>
        <time>2019-05-16T15:44:46.900Z</time>
      </trkpt>
      <trkpt lat="39.07236833" lon="-8.77998833">
        <ele>-1.0</ele>
        <time>2019-05-16T15:44:47.921Z</time>
      </trkpt>
      <trkpt lat="39.07237833" lon="-8.77986333">
        <ele>-1.0</ele>
        <time>2019-05-16T15:44:48.911Z</time>
      </trkpt>
      <trkpt lat="39.07237833" lon="-8.77986333">
        <ele>-1.0</ele>
        <time>2019-05-16T15:44:49.932Z</time>
      </trkpt>
      <trkpt lat="39.07239" lon="-8.77972833">
        <ele>-2.0</ele>
        <time>2019-05-16T15:44:50.904Z</time>
      </trkpt>
      <trkpt lat="39.07239" lon="-8.77972833">
        <ele>-2.0</ele>
        <time>2019-05-16T15:44:51.908Z</time>
      </trkpt>
      <trkpt lat="39.07240333" lon="-8.77958333">
        <ele>-2.0</ele>
        <time>2019-05-16T15:44:52.936Z</time>
      </trkpt>
      <trkpt lat="39.07240333" lon="-8.77958333">
        <ele>-2.0</ele>
        <time>2019-05-16T15:44:53.921Z</time>
      </trkpt>
      <trkpt lat="39.07242667" lon="-8.77943167">
        <ele>-2.0</ele>
        <time>2019-05-16T15:44:54.905Z</time>
      </trkpt>
      <trkpt lat="39.07242667" lon="-8.77943167">
        <ele>-2.0</ele>
        <time>2019-05-16T15:44:55.902Z</time>
      </trkpt>
      <trkpt lat="39.07246667" lon="-8.779285">
        <ele>-2.0</ele>
        <time>2019-05-16T15:44:56.930Z</time>
      </trkpt>
      <trkpt lat="39.07246667" lon="-8.779285">
        <ele>-2.0</ele>
        <time>2019-05-16T15:44:57.925Z</time>
      </trkpt>
      <trkpt lat="39.07251833" lon="-8.77914667">
        <ele>-2.0</ele>
        <time>2019-05-16T15:44:58.908Z</time>
      </trkpt>
      <trkpt lat="39.07251833" lon="-8.77914667">
        <ele>-2.0</ele>
        <time>2019-05-16T15:44:59.903Z</time>
      </trkpt>
      <trkpt lat="39.07257833" lon="-8.77901667">
        <ele>-3.0</ele>
        <time>2019-05-16T15:45:00.930Z</time>
      </trkpt>
      <trkpt lat="39.07257833" lon="-8.77901667">
        <ele>-3.0</ele>
        <time>2019-05-16T15:45:01.934Z</time>
      </trkpt>
      <trkpt lat="39.07264" lon="-8.778895">
        <ele>-3.0</ele>
        <time>2019-05-16T15:45:02.916Z</time>
      </trkpt>
      <trkpt lat="39.07264" lon="-8.778895">
        <ele>-3.0</ele>
        <time>2019-05-16T15:45:03.912Z</time>
      </trkpt>
      <trkpt lat="39.07270167" lon="-8.77877833">
        <ele>-3.0</ele>
        <time>2019-05-16T15:45:04.931Z</time>
      </trkpt>
      <trkpt lat="39.07270167" lon="-8.77877833">
        <ele>-3.0</ele>
        <time>2019-05-16T15:45:05.933Z</time>
      </trkpt>
      <trkpt lat="39.07276333" lon="-8.778665">
        <ele>-3.0</ele>
        <time>2019-05-16T15:45:06.922Z</time>
      </trkpt>
      <trkpt lat="39.07276333" lon="-8.778665">
        <ele>-3.0</ele>
        <time>2019-05-16T15:45:07.901Z</time>
      </trkpt>
      <trkpt lat="39.07282333" lon="-8.77855667">
        <ele>-3.0</ele>
        <time>2019-05-16T15:45:08.924Z</time>
      </trkpt>
      <trkpt lat="39.07282333" lon="-8.77855667">
        <ele>-3.0</ele>
        <time>2019-05-16T15:45:09.913Z</time>
      </trkpt>
      <trkpt lat="39.07288167" lon="-8.77844833">
        <ele>-3.0</ele>
        <time>2019-05-16T15:45:10.901Z</time>
      </trkpt>
      <trkpt lat="39.07288167" lon="-8.77844833">
        <ele>-3.0</ele>
        <time>2019-05-16T15:45:11.913Z</time>
      </trkpt>
      <trkpt lat="39.07293833" lon="-8.778345">
        <ele>-3.0</ele>
        <time>2019-05-16T15:45:12.933Z</time>
      </trkpt>
      <trkpt lat="39.07293833" lon="-8.778345">
        <ele>-3.0</ele>
        <time>2019-05-16T15:45:13.936Z</time>
      </trkpt>
      <trkpt lat="39.07299167" lon="-8.77824">
        <ele>-3.0</ele>
        <time>2019-05-16T15:45:14.911Z</time>
      </trkpt>
      <trkpt lat="39.07299167" lon="-8.77824">
        <ele>-3.0</ele>
        <time>2019-05-16T15:45:15.906Z</time>
      </trkpt>
      <trkpt lat="39.073045" lon="-8.77814">
        <ele>-3.0</ele>
        <time>2019-05-16T15:45:16.922Z</time>
      </trkpt>
      <trkpt lat="39.07307333" lon="-8.77809167">
        <ele>-3.0</ele>
        <time>2019-05-16T15:45:17.929Z</time>
      </trkpt>
      <trkpt lat="39.07307333" lon="-8.77809167">
        <ele>-3.0</ele>
        <time>2019-05-16T15:45:18.923Z</time>
      </trkpt>
      <trkpt lat="39.07313167" lon="-8.77800333">
        <ele>-3.0</ele>
        <time>2019-05-16T15:45:19.908Z</time>
      </trkpt>
      <trkpt lat="39.07316167" lon="-8.77796167">
        <ele>-3.0</ele>
        <time>2019-05-16T15:45:20.899Z</time>
      </trkpt>
      <trkpt lat="39.07316167" lon="-8.77796167">
        <ele>-3.0</ele>
        <time>2019-05-16T15:45:21.914Z</time>
      </trkpt>
      <trkpt lat="39.07323333" lon="-8.77789667">
        <ele>-3.0</ele>
        <time>2019-05-16T15:45:22.931Z</time>
      </trkpt>
      <trkpt lat="39.07323333" lon="-8.77789667">
        <ele>-3.0</ele>
        <time>2019-05-16T15:45:23.932Z</time>
      </trkpt>
      <trkpt lat="39.07331333" lon="-8.77785167">
        <ele>-4.0</ele>
        <time>2019-05-16T15:45:24.919Z</time>
      </trkpt>
      <trkpt lat="39.07331333" lon="-8.77785167">
        <ele>-4.0</ele>
        <time>2019-05-16T15:45:25.920Z</time>
      </trkpt>
      <trkpt lat="39.0734" lon="-8.77782667">
        <ele>-4.0</ele>
        <time>2019-05-16T15:45:26.909Z</time>
      </trkpt>
      <trkpt lat="39.0734" lon="-8.77782667">
        <ele>-4.0</ele>
        <time>2019-05-16T15:45:27.932Z</time>
      </trkpt>
      <trkpt lat="39.07349167" lon="-8.77782333">
        <ele>-4.0</ele>
        <time>2019-05-16T15:45:28.912Z</time>
      </trkpt>
      <trkpt lat="39.07349167" lon="-8.77782333">
        <ele>-4.0</ele>
        <time>2019-05-16T15:45:29.903Z</time>
      </trkpt>
      <trkpt lat="39.07358333" lon="-8.77782167">
        <ele>-4.0</ele>
        <time>2019-05-16T15:45:30.927Z</time>
      </trkpt>
      <trkpt lat="39.07362667" lon="-8.77781833">
        <ele>-4.0</ele>
        <time>2019-05-16T15:45:31.899Z</time>
      </trkpt>
      <trkpt lat="39.07367167" lon="-8.77781667">
        <ele>-4.0</ele>
        <time>2019-05-16T15:45:32.902Z</time>
      </trkpt>
      <trkpt lat="39.07367167" lon="-8.77781667">
        <ele>-4.0</ele>
        <time>2019-05-16T15:45:33.928Z</time>
      </trkpt>
      <trkpt lat="39.07375667" lon="-8.77781667">
        <ele>-4.0</ele>
        <time>2019-05-16T15:45:34.921Z</time>
      </trkpt>
      <trkpt lat="39.07375667" lon="-8.77781667">
        <ele>-4.0</ele>
        <time>2019-05-16T15:45:35.899Z</time>
      </trkpt>
      <trkpt lat="39.07383833" lon="-8.777815">
        <ele>-4.0</ele>
        <time>2019-05-16T15:45:36.923Z</time>
      </trkpt>
      <trkpt lat="39.07383833" lon="-8.777815">
        <ele>-4.0</ele>
        <time>2019-05-16T15:45:37.933Z</time>
      </trkpt>
      <trkpt lat="39.07391833" lon="-8.77780833">
        <ele>-4.0</ele>
        <time>2019-05-16T15:45:38.920Z</time>
      </trkpt>
      <trkpt lat="39.07391833" lon="-8.77780833">
        <ele>-4.0</ele>
        <time>2019-05-16T15:45:39.909Z</time>
      </trkpt>
      <trkpt lat="39.07399833" lon="-8.77780167">
        <ele>-4.0</ele>
        <time>2019-05-16T15:45:40.910Z</time>
      </trkpt>
      <trkpt lat="39.07399833" lon="-8.77780167">
        <ele>-4.0</ele>
        <time>2019-05-16T15:45:41.921Z</time>
      </trkpt>
      <trkpt lat="39.07407667" lon="-8.77779167">
        <ele>-4.0</ele>
        <time>2019-05-16T15:45:42.905Z</time>
      </trkpt>
      <trkpt lat="39.07407667" lon="-8.77779167">
        <ele>-4.0</ele>
        <time>2019-05-16T15:45:43.930Z</time>
      </trkpt>
      <trkpt lat="39.07415667" lon="-8.77777167">
        <ele>-4.0</ele>
        <time>2019-05-16T15:45:44.900Z</time>
      </trkpt>
      <trkpt lat="39.07415667" lon="-8.77777167">
        <ele>-4.0</ele>
        <time>2019-05-16T15:45:45.926Z</time>
      </trkpt>
      <trkpt lat="39.07423" lon="-8.77773667">
        <ele>-4.0</ele>
        <time>2019-05-16T15:45:46.901Z</time>
      </trkpt>
      <trkpt lat="39.07423" lon="-8.77773667">
        <ele>-4.0</ele>
        <time>2019-05-16T15:45:47.921Z</time>
      </trkpt>
      <trkpt lat="39.0743" lon="-8.77768667">
        <ele>-4.0</ele>
        <time>2019-05-16T15:45:48.954Z</time>
      </trkpt>
      <trkpt lat="39.0743" lon="-8.77768667">
        <ele>-4.0</ele>
        <time>2019-05-16T15:45:49.908Z</time>
      </trkpt>
      <trkpt lat="39.07436333" lon="-8.77763167">
        <ele>-4.0</ele>
        <time>2019-05-16T15:45:50.931Z</time>
      </trkpt>
      <trkpt lat="39.07436333" lon="-8.77763167">
        <ele>-4.0</ele>
        <time>2019-05-16T15:45:51.928Z</time>
      </trkpt>
      <trkpt lat="39.07442" lon="-8.777575">
        <ele>-4.0</ele>
        <time>2019-05-16T15:45:52.915Z</time>
      </trkpt>
      <trkpt lat="39.07442" lon="-8.777575">
        <ele>-4.0</ele>
        <time>2019-05-16T15:45:53.903Z</time>
      </trkpt>
      <trkpt lat="39.07447333" lon="-8.77752">
        <ele>-4.0</ele>
        <time>2019-05-16T15:45:54.924Z</time>
      </trkpt>
      <trkpt lat="39.07447333" lon="-8.77752">
        <ele>-4.0</ele>
        <time>2019-05-16T15:45:55.931Z</time>
      </trkpt>
      <trkpt lat="39.07452333" lon="-8.77747167">
        <ele>-4.0</ele>
        <time>2019-05-16T15:45:56.910Z</time>
      </trkpt>
      <trkpt lat="39.07452333" lon="-8.77747167">
        <ele>-4.0</ele>
        <time>2019-05-16T15:45:57.906Z</time>
      </trkpt>
      <trkpt lat="39.07457333" lon="-8.77742">
        <ele>-4.0</ele>
        <time>2019-05-16T15:45:58.926Z</time>
      </trkpt>
      <trkpt lat="39.07457333" lon="-8.77742">
        <ele>-4.0</ele>
        <time>2019-05-16T15:45:59.929Z</time>
      </trkpt>
      <trkpt lat="39.07462667" lon="-8.77736167">
        <ele>-4.0</ele>
        <time>2019-05-16T15:46:00.912Z</time>
      </trkpt>
      <trkpt lat="39.07462667" lon="-8.77736167">
        <ele>-4.0</ele>
        <time>2019-05-16T15:46:01.903Z</time>
      </trkpt>
      <trkpt lat="39.07468333" lon="-8.77729833">
        <ele>-5.0</ele>
        <time>2019-05-16T15:46:02.925Z</time>
      </trkpt>
      <trkpt lat="39.07468333" lon="-8.77729833">
        <ele>-5.0</ele>
        <time>2019-05-16T15:46:03.906Z</time>
      </trkpt>
      <trkpt lat="39.074745" lon="-8.777235">
        <ele>-5.0</ele>
        <time>2019-05-16T15:46:04.941Z</time>
      </trkpt>
      <trkpt lat="39.074745" lon="-8.777235">
        <ele>-5.0</ele>
        <time>2019-05-16T15:46:05.923Z</time>
      </trkpt>
      <trkpt lat="39.07480667" lon="-8.77717">
        <ele>-5.0</ele>
        <time>2019-05-16T15:46:06.905Z</time>
      </trkpt>
      <trkpt lat="39.07480667" lon="-8.77717">
        <ele>-5.0</ele>
        <time>2019-05-16T15:46:07.903Z</time>
      </trkpt>
      <trkpt lat="39.07486667" lon="-8.77710333">
        <ele>-5.0</ele>
        <time>2019-05-16T15:46:08.918Z</time>
      </trkpt>
      <trkpt lat="39.07486667" lon="-8.77710333">
        <ele>-5.0</ele>
        <time>2019-05-16T15:46:09.903Z</time>
      </trkpt>
      <trkpt lat="39.07493167" lon="-8.77703833">
        <ele>-5.0</ele>
        <time>2019-05-16T15:46:10.921Z</time>
      </trkpt>
      <trkpt lat="39.07493167" lon="-8.77703833">
        <ele>-5.0</ele>
        <time>2019-05-16T15:46:11.898Z</time>
      </trkpt>
      <trkpt lat="39.074995" lon="-8.77696833">
        <ele>-5.0</ele>
        <time>2019-05-16T15:46:12.915Z</time>
      </trkpt>
      <trkpt lat="39.07502667" lon="-8.77693333">
        <ele>-5.0</ele>
        <time>2019-05-16T15:46:13.911Z</time>
      </trkpt>
      <trkpt lat="39.07506" lon="-8.7769">
        <ele>-5.0</ele>
        <time>2019-05-16T15:46:14.900Z</time>
      </trkpt>
      <trkpt lat="39.07506" lon="-8.7769">
        <ele>-5.0</ele>
        <time>2019-05-16T15:46:15.909Z</time>
      </trkpt>
      <trkpt lat="39.075125" lon="-8.77683">
        <ele>-5.0</ele>
        <time>2019-05-16T15:46:16.916Z</time>
      </trkpt>
      <trkpt lat="39.075125" lon="-8.77683">
        <ele>-5.0</ele>
        <time>2019-05-16T15:46:17.935Z</time>
      </trkpt>
      <trkpt lat="39.07519333" lon="-8.77676167">
        <ele>-5.0</ele>
        <time>2019-05-16T15:46:18.931Z</time>
      </trkpt>
      <trkpt lat="39.07519333" lon="-8.77676167">
        <ele>-5.0</ele>
        <time>2019-05-16T15:46:19.909Z</time>
      </trkpt>
      <trkpt lat="39.07526167" lon="-8.77669333">
        <ele>-5.0</ele>
        <time>2019-05-16T15:46:20.917Z</time>
      </trkpt>
      <trkpt lat="39.07526167" lon="-8.77669333">
        <ele>-5.0</ele>
        <time>2019-05-16T15:46:21.908Z</time>
      </trkpt>
      <trkpt lat="39.07532833" lon="-8.77662167">
        <ele>-5.0</ele>
        <time>2019-05-16T15:46:22.935Z</time>
      </trkpt>
      <trkpt lat="39.07532833" lon="-8.77662167">
        <ele>-5.0</ele>
        <time>2019-05-16T15:46:23.931Z</time>
      </trkpt>
      <trkpt lat="39.07539333" lon="-8.77655833">
        <ele>-5.0</ele>
        <time>2019-05-16T15:46:24.921Z</time>
      </trkpt>
      <trkpt lat="39.07539333" lon="-8.77655833">
        <ele>-5.0</ele>
        <time>2019-05-16T15:46:25.913Z</time>
      </trkpt>
      <trkpt lat="39.07545833" lon="-8.77649167">
        <ele>-5.0</ele>
        <time>2019-05-16T15:46:26.907Z</time>
      </trkpt>
      <trkpt lat="39.07545833" lon="-8.77649167">
        <ele>-5.0</ele>
        <time>2019-05-16T15:46:27.903Z</time>
      </trkpt>
      <trkpt lat="39.07552167" lon="-8.77642667">
        <ele>-5.0</ele>
        <time>2019-05-16T15:46:28.931Z</time>
      </trkpt>
      <trkpt lat="39.07555167" lon="-8.77639333">
        <ele>-5.0</ele>
        <time>2019-05-16T15:46:29.932Z</time>
      </trkpt>
      <trkpt lat="39.07555167" lon="-8.77639333">
        <ele>-5.0</ele>
        <time>2019-05-16T15:46:30.913Z</time>
      </trkpt>
      <trkpt lat="39.07561333" lon="-8.77632167">
        <ele>-5.0</ele>
        <time>2019-05-16T15:46:31.933Z</time>
      </trkpt>
      <trkpt lat="39.07561333" lon="-8.77632167">
        <ele>-5.0</ele>
        <time>2019-05-16T15:46:32.905Z</time>
      </trkpt>
      <trkpt lat="39.07567667" lon="-8.77625">
        <ele>-5.0</ele>
        <time>2019-05-16T15:46:33.920Z</time>
      </trkpt>
      <trkpt lat="39.07570833" lon="-8.77621333">
        <ele>-5.0</ele>
        <time>2019-05-16T15:46:34.919Z</time>
      </trkpt>
      <trkpt lat="39.07570833" lon="-8.77621333">
        <ele>-5.0</ele>
        <time>2019-05-16T15:46:35.933Z</time>
      </trkpt>
      <trkpt lat="39.075765" lon="-8.776135">
        <ele>-5.0</ele>
        <time>2019-05-16T15:46:36.925Z</time>
      </trkpt>
      <trkpt lat="39.075765" lon="-8.776135">
        <ele>-5.0</ele>
        <time>2019-05-16T15:46:37.903Z</time>
      </trkpt>
      <trkpt lat="39.07581833" lon="-8.77605">
        <ele>-5.0</ele>
        <time>2019-05-16T15:46:38.921Z</time>
      </trkpt>
      <trkpt lat="39.07581833" lon="-8.77605">
        <ele>-5.0</ele>
        <time>2019-05-16T15:46:39.933Z</time>
      </trkpt>
      <trkpt lat="39.07587" lon="-8.77596333">
        <ele>-5.0</ele>
        <time>2019-05-16T15:46:40.921Z</time>
      </trkpt>
      <trkpt lat="39.07587" lon="-8.77596333">
        <ele>-5.0</ele>
        <time>2019-05-16T15:46:41.912Z</time>
      </trkpt>
      <trkpt lat="39.075915" lon="-8.775875">
        <ele>-5.0</ele>
        <time>2019-05-16T15:46:42.902Z</time>
      </trkpt>
      <trkpt lat="39.075915" lon="-8.775875">
        <ele>-5.0</ele>
        <time>2019-05-16T15:46:43.912Z</time>
      </trkpt>
      <trkpt lat="39.07595833" lon="-8.775785">
        <ele>-5.0</ele>
        <time>2019-05-16T15:46:44.931Z</time>
      </trkpt>
      <trkpt lat="39.07595833" lon="-8.775785">
        <ele>-5.0</ele>
        <time>2019-05-16T15:46:45.923Z</time>
      </trkpt>
      <trkpt lat="39.07599333" lon="-8.77569333">
        <ele>-5.0</ele>
        <time>2019-05-16T15:46:46.905Z</time>
      </trkpt>
      <trkpt lat="39.07599333" lon="-8.77569333">
        <ele>-5.0</ele>
        <time>2019-05-16T15:46:47.923Z</time>
      </trkpt>
      <trkpt lat="39.07602" lon="-8.775595">
        <ele>-5.0</ele>
        <time>2019-05-16T15:46:48.906Z</time>
      </trkpt>
      <trkpt lat="39.07602" lon="-8.775595">
        <ele>-5.0</ele>
        <time>2019-05-16T15:46:49.936Z</time>
      </trkpt>
      <trkpt lat="39.07603833" lon="-8.77549167">
        <ele>-5.0</ele>
        <time>2019-05-16T15:46:50.931Z</time>
      </trkpt>
      <trkpt lat="39.07603833" lon="-8.77549167">
        <ele>-5.0</ele>
        <time>2019-05-16T15:46:51.907Z</time>
      </trkpt>
      <trkpt lat="39.076045" lon="-8.77538667">
        <ele>-5.0</ele>
        <time>2019-05-16T15:46:52.928Z</time>
      </trkpt>
      <trkpt lat="39.076045" lon="-8.77538667">
        <ele>-5.0</ele>
        <time>2019-05-16T15:46:53.903Z</time>
      </trkpt>
      <trkpt lat="39.07604167" lon="-8.77528">
        <ele>-5.0</ele>
        <time>2019-05-16T15:46:54.924Z</time>
      </trkpt>
      <trkpt lat="39.07604167" lon="-8.77528">
        <ele>-5.0</ele>
        <time>2019-05-16T15:46:55.901Z</time>
      </trkpt>
      <trkpt lat="39.07603" lon="-8.77517167">
        <ele>-5.0</ele>
        <time>2019-05-16T15:46:56.897Z</time>
      </trkpt>
      <trkpt lat="39.07603" lon="-8.77517167">
        <ele>-5.0</ele>
        <time>2019-05-16T15:46:57.913Z</time>
      </trkpt>
      <trkpt lat="39.07601833" lon="-8.77506">
        <ele>-5.0</ele>
        <time>2019-05-16T15:46:58.897Z</time>
      </trkpt>
      <trkpt lat="39.07601833" lon="-8.77506">
        <ele>-5.0</ele>
        <time>2019-05-16T15:46:59.928Z</time>
      </trkpt>
      <trkpt lat="39.07601167" lon="-8.774945">
        <ele>-5.0</ele>
        <time>2019-05-16T15:47:00.903Z</time>
      </trkpt>
      <trkpt lat="39.07601167" lon="-8.774945">
        <ele>-5.0</ele>
        <time>2019-05-16T15:47:01.928Z</time>
      </trkpt>
      <trkpt lat="39.07601" lon="-8.77482667">
        <ele>-5.0</ele>
        <time>2019-05-16T15:47:02.921Z</time>
      </trkpt>
      <trkpt lat="39.07601" lon="-8.77482667">
        <ele>-5.0</ele>
        <time>2019-05-16T15:47:03.910Z</time>
      </trkpt>
      <trkpt lat="39.07602" lon="-8.77470833">
        <ele>-5.0</ele>
        <time>2019-05-16T15:47:04.939Z</time>
      </trkpt>
      <trkpt lat="39.07602" lon="-8.77470833">
        <ele>-5.0</ele>
        <time>2019-05-16T15:47:05.927Z</time>
      </trkpt>
      <trkpt lat="39.07604" lon="-8.77459">
        <ele>-5.0</ele>
        <time>2019-05-16T15:47:06.907Z</time>
      </trkpt>
      <trkpt lat="39.076055" lon="-8.77453333">
        <ele>-5.0</ele>
        <time>2019-05-16T15:47:07.915Z</time>
      </trkpt>
      <trkpt lat="39.07607" lon="-8.77447667">
        <ele>-5.0</ele>
        <time>2019-05-16T15:47:08.916Z</time>
      </trkpt>
      <trkpt lat="39.07607" lon="-8.77447667">
        <ele>-5.0</ele>
        <time>2019-05-16T15:47:09.923Z</time>
      </trkpt>
      <trkpt lat="39.076105" lon="-8.77436833">
        <ele>-5.0</ele>
        <time>2019-05-16T15:47:10.905Z</time>
      </trkpt>
      <trkpt lat="39.076105" lon="-8.77436833">
        <ele>-5.0</ele>
        <time>2019-05-16T15:47:11.923Z</time>
      </trkpt>
      <trkpt lat="39.07614333" lon="-8.77426333">
        <ele>-5.0</ele>
        <time>2019-05-16T15:47:12.905Z</time>
      </trkpt>
      <trkpt lat="39.07616333" lon="-8.77421">
        <ele>-5.0</ele>
        <time>2019-05-16T15:47:13.911Z</time>
      </trkpt>
      <trkpt lat="39.07618167" lon="-8.77415833">
        <ele>-5.0</ele>
        <time>2019-05-16T15:47:14.908Z</time>
      </trkpt>
      <trkpt lat="39.07618167" lon="-8.77415833">
        <ele>-5.0</ele>
        <time>2019-05-16T15:47:15.932Z</time>
      </trkpt>
      <trkpt lat="39.07622167" lon="-8.774055">
        <ele>-5.0</ele>
        <time>2019-05-16T15:47:16.921Z</time>
      </trkpt>
      <trkpt lat="39.07622167" lon="-8.774055">
        <ele>-5.0</ele>
        <time>2019-05-16T15:47:17.925Z</time>
      </trkpt>
      <trkpt lat="39.07626" lon="-8.77395333">
        <ele>-4.0</ele>
        <time>2019-05-16T15:47:18.905Z</time>
      </trkpt>
      <trkpt lat="39.07626" lon="-8.77395333">
        <ele>-4.0</ele>
        <time>2019-05-16T15:47:19.925Z</time>
      </trkpt>
      <trkpt lat="39.07629833" lon="-8.77385167">
        <ele>-4.0</ele>
        <time>2019-05-16T15:47:20.933Z</time>
      </trkpt>
      <trkpt lat="39.07629833" lon="-8.77385167">
        <ele>-4.0</ele>
        <time>2019-05-16T15:47:21.928Z</time>
      </trkpt>
      <trkpt lat="39.07633833" lon="-8.77375">
        <ele>-4.0</ele>
        <time>2019-05-16T15:47:22.915Z</time>
      </trkpt>
      <trkpt lat="39.07633833" lon="-8.77375">
        <ele>-4.0</ele>
        <time>2019-05-16T15:47:23.928Z</time>
      </trkpt>
      <trkpt lat="39.07637833" lon="-8.77364667">
        <ele>-4.0</ele>
        <time>2019-05-16T15:47:24.905Z</time>
      </trkpt>
      <trkpt lat="39.07637833" lon="-8.77364667">
        <ele>-4.0</ele>
        <time>2019-05-16T15:47:25.935Z</time>
      </trkpt>
      <trkpt lat="39.07641833" lon="-8.773545">
        <ele>-4.0</ele>
        <time>2019-05-16T15:47:26.918Z</time>
      </trkpt>
      <trkpt lat="39.07641833" lon="-8.773545">
        <ele>-4.0</ele>
        <time>2019-05-16T15:47:27.924Z</time>
      </trkpt>
      <trkpt lat="39.07645833" lon="-8.77344167">
        <ele>-4.0</ele>
        <time>2019-05-16T15:47:28.936Z</time>
      </trkpt>
      <trkpt lat="39.07645833" lon="-8.77344167">
        <ele>-4.0</ele>
        <time>2019-05-16T15:47:29.927Z</time>
      </trkpt>
      <trkpt lat="39.07649833" lon="-8.77334167">
        <ele>-4.0</ele>
        <time>2019-05-16T15:47:30.911Z</time>
      </trkpt>
      <trkpt lat="39.07651833" lon="-8.77329167">
        <ele>-4.0</ele>
        <time>2019-05-16T15:47:31.908Z</time>
      </trkpt>
      <trkpt lat="39.07653667" lon="-8.773245">
        <ele>-4.0</ele>
        <time>2019-05-16T15:47:32.913Z</time>
      </trkpt>
      <trkpt lat="39.07653667" lon="-8.773245">
        <ele>-4.0</ele>
        <time>2019-05-16T15:47:33.913Z</time>
      </trkpt>
      <trkpt lat="39.07657333" lon="-8.77315333">
        <ele>-3.0</ele>
        <time>2019-05-16T15:47:34.911Z</time>
      </trkpt>
      <trkpt lat="39.07657333" lon="-8.77315333">
        <ele>-3.0</ele>
        <time>2019-05-16T15:47:35.929Z</time>
      </trkpt>
      <trkpt lat="39.07660667" lon="-8.77306667">
        <ele>-3.0</ele>
        <time>2019-05-16T15:47:36.907Z</time>
      </trkpt>
      <trkpt lat="39.07660667" lon="-8.77306667">
        <ele>-3.0</ele>
        <time>2019-05-16T15:47:37.905Z</time>
      </trkpt>
      <trkpt lat="39.07663833" lon="-8.77298167">
        <ele>-3.0</ele>
        <time>2019-05-16T15:47:38.918Z</time>
      </trkpt>
      <trkpt lat="39.07663833" lon="-8.77298167">
        <ele>-3.0</ele>
        <time>2019-05-16T15:47:39.921Z</time>
      </trkpt>
      <trkpt lat="39.07667" lon="-8.772895">
        <ele>-3.0</ele>
        <time>2019-05-16T15:47:40.902Z</time>
      </trkpt>
      <trkpt lat="39.07667" lon="-8.772895">
        <ele>-3.0</ele>
        <time>2019-05-16T15:47:41.936Z</time>
      </trkpt>
      <trkpt lat="39.07670333" lon="-8.77280667">
        <ele>-3.0</ele>
        <time>2019-05-16T15:47:42.918Z</time>
      </trkpt>
      <trkpt lat="39.07670333" lon="-8.77280667">
        <ele>-3.0</ele>
        <time>2019-05-16T15:47:43.934Z</time>
      </trkpt>
      <trkpt lat="39.07673667" lon="-8.77271167">
        <ele>-3.0</ele>
        <time>2019-05-16T15:47:44.915Z</time>
      </trkpt>
      <trkpt lat="39.07673667" lon="-8.77271167">
        <ele>-3.0</ele>
        <time>2019-05-16T15:47:45.934Z</time>
      </trkpt>
      <trkpt lat="39.07677167" lon="-8.77260833">
        <ele>-4.0</ele>
        <time>2019-05-16T15:47:46.913Z</time>
      </trkpt>
      <trkpt lat="39.07677167" lon="-8.77260833">
        <ele>-4.0</ele>
        <time>2019-05-16T15:47:47.924Z</time>
      </trkpt>
      <trkpt lat="39.07681" lon="-8.77249667">
        <ele>-5.0</ele>
        <time>2019-05-16T15:47:48.907Z</time>
      </trkpt>
      <trkpt lat="39.07681" lon="-8.77249667">
        <ele>-5.0</ele>
        <time>2019-05-16T15:47:49.911Z</time>
      </trkpt>
      <trkpt lat="39.07684833" lon="-8.77238167">
        <ele>-5.0</ele>
        <time>2019-05-16T15:47:50.902Z</time>
      </trkpt>
      <trkpt lat="39.07684833" lon="-8.77238167">
        <ele>-5.0</ele>
        <time>2019-05-16T15:47:51.919Z</time>
      </trkpt>
      <trkpt lat="39.07688667" lon="-8.77226667">
        <ele>-5.0</ele>
        <time>2019-05-16T15:47:52.897Z</time>
      </trkpt>
      <trkpt lat="39.07688667" lon="-8.77226667">
        <ele>-5.0</ele>
        <time>2019-05-16T15:47:53.913Z</time>
      </trkpt>
      <trkpt lat="39.07692" lon="-8.77215333">
        <ele>-5.0</ele>
        <time>2019-05-16T15:47:54.959Z</time>
      </trkpt>
      <trkpt lat="39.07692" lon="-8.77215333">
        <ele>-5.0</ele>
        <time>2019-05-16T15:47:55.911Z</time>
      </trkpt>
      <trkpt lat="39.07695167" lon="-8.77204833">
        <ele>-5.0</ele>
        <time>2019-05-16T15:47:56.933Z</time>
      </trkpt>
      <trkpt lat="39.07695167" lon="-8.77204833">
        <ele>-5.0</ele>
        <time>2019-05-16T15:47:57.899Z</time>
      </trkpt>
      <trkpt lat="39.07697833" lon="-8.771945">
        <ele>-5.0</ele>
        <time>2019-05-16T15:47:58.922Z</time>
      </trkpt>
      <trkpt lat="39.07697833" lon="-8.771945">
        <ele>-5.0</ele>
        <time>2019-05-16T15:47:59.905Z</time>
      </trkpt>
      <trkpt lat="39.07700333" lon="-8.77184333">
        <ele>-5.0</ele>
        <time>2019-05-16T15:48:00.921Z</time>
      </trkpt>
      <trkpt lat="39.07700333" lon="-8.77184333">
        <ele>-5.0</ele>
        <time>2019-05-16T15:48:01.911Z</time>
      </trkpt>
      <trkpt lat="39.07703" lon="-8.77174">
        <ele>-5.0</ele>
        <time>2019-05-16T15:48:02.930Z</time>
      </trkpt>
      <trkpt lat="39.07703" lon="-8.77174">
        <ele>-5.0</ele>
        <time>2019-05-16T15:48:03.901Z</time>
      </trkpt>
      <trkpt lat="39.077055" lon="-8.77163667">
        <ele>-5.0</ele>
        <time>2019-05-16T15:48:04.922Z</time>
      </trkpt>
      <trkpt lat="39.077055" lon="-8.77163667">
        <ele>-5.0</ele>
        <time>2019-05-16T15:48:05.923Z</time>
      </trkpt>
      <trkpt lat="39.07708167" lon="-8.771535">
        <ele>-5.0</ele>
        <time>2019-05-16T15:48:06.914Z</time>
      </trkpt>
      <trkpt lat="39.07709333" lon="-8.771485">
        <ele>-5.0</ele>
        <time>2019-05-16T15:48:07.915Z</time>
      </trkpt>
      <trkpt lat="39.07710333" lon="-8.77143333">
        <ele>-5.0</ele>
        <time>2019-05-16T15:48:08.927Z</time>
      </trkpt>
      <trkpt lat="39.07710333" lon="-8.77143333">
        <ele>-5.0</ele>
        <time>2019-05-16T15:48:09.909Z</time>
      </trkpt>
      <trkpt lat="39.077125" lon="-8.77132667">
        <ele>-5.0</ele>
        <time>2019-05-16T15:48:10.928Z</time>
      </trkpt>
      <trkpt lat="39.07713333" lon="-8.77127167">
        <ele>-5.0</ele>
        <time>2019-05-16T15:48:11.898Z</time>
      </trkpt>
      <trkpt lat="39.07713333" lon="-8.77127167">
        <ele>-5.0</ele>
        <time>2019-05-16T15:48:12.933Z</time>
      </trkpt>
      <trkpt lat="39.07715333" lon="-8.77116">
        <ele>-6.0</ele>
        <time>2019-05-16T15:48:13.922Z</time>
      </trkpt>
      <trkpt lat="39.07716333" lon="-8.77110167">
        <ele>-6.0</ele>
        <time>2019-05-16T15:48:14.920Z</time>
      </trkpt>
      <trkpt lat="39.07716333" lon="-8.77110167">
        <ele>-6.0</ele>
        <time>2019-05-16T15:48:15.934Z</time>
      </trkpt>
      <trkpt lat="39.07717833" lon="-8.77098667">
        <ele>-5.0</ele>
        <time>2019-05-16T15:48:16.906Z</time>
      </trkpt>
      <trkpt lat="39.07717833" lon="-8.77098667">
        <ele>-5.0</ele>
        <time>2019-05-16T15:48:17.932Z</time>
      </trkpt>
      <trkpt lat="39.07719" lon="-8.77087167">
        <ele>-5.0</ele>
        <time>2019-05-16T15:48:18.917Z</time>
      </trkpt>
      <trkpt lat="39.07719" lon="-8.77087167">
        <ele>-5.0</ele>
        <time>2019-05-16T15:48:19.909Z</time>
      </trkpt>
      <trkpt lat="39.0772" lon="-8.770755">
        <ele>-5.0</ele>
        <time>2019-05-16T15:48:20.937Z</time>
      </trkpt>
      <trkpt lat="39.0772" lon="-8.770755">
        <ele>-5.0</ele>
        <time>2019-05-16T15:48:21.911Z</time>
      </trkpt>
      <trkpt lat="39.077205" lon="-8.77064">
        <ele>-5.0</ele>
        <time>2019-05-16T15:48:22.901Z</time>
      </trkpt>
      <trkpt lat="39.077205" lon="-8.77064">
        <ele>-5.0</ele>
        <time>2019-05-16T15:48:23.920Z</time>
      </trkpt>
      <trkpt lat="39.07720333" lon="-8.770525">
        <ele>-5.0</ele>
        <time>2019-05-16T15:48:24.897Z</time>
      </trkpt>
      <trkpt lat="39.07720333" lon="-8.770525">
        <ele>-5.0</ele>
        <time>2019-05-16T15:48:25.899Z</time>
      </trkpt>
      <trkpt lat="39.07720167" lon="-8.77041">
        <ele>-5.0</ele>
        <time>2019-05-16T15:48:26.928Z</time>
      </trkpt>
      <trkpt lat="39.07720167" lon="-8.77041">
        <ele>-5.0</ele>
        <time>2019-05-16T15:48:27.923Z</time>
      </trkpt>
      <trkpt lat="39.07719833" lon="-8.77029667">
        <ele>-5.0</ele>
        <time>2019-05-16T15:48:28.902Z</time>
      </trkpt>
      <trkpt lat="39.07719833" lon="-8.77029667">
        <ele>-5.0</ele>
        <time>2019-05-16T15:48:29.931Z</time>
      </trkpt>
      <trkpt lat="39.0772" lon="-8.77018">
        <ele>-5.0</ele>
        <time>2019-05-16T15:48:30.921Z</time>
      </trkpt>
      <trkpt lat="39.0772" lon="-8.77018">
        <ele>-5.0</ele>
        <time>2019-05-16T15:48:31.936Z</time>
      </trkpt>
      <trkpt lat="39.07719667" lon="-8.770065">
        <ele>-5.0</ele>
        <time>2019-05-16T15:48:32.922Z</time>
      </trkpt>
      <trkpt lat="39.07719667" lon="-8.770065">
        <ele>-5.0</ele>
        <time>2019-05-16T15:48:33.929Z</time>
      </trkpt>
      <trkpt lat="39.07720167" lon="-8.76994667">
        <ele>-5.0</ele>
        <time>2019-05-16T15:48:34.937Z</time>
      </trkpt>
      <trkpt lat="39.07720167" lon="-8.76994667">
        <ele>-5.0</ele>
        <time>2019-05-16T15:48:35.923Z</time>
      </trkpt>
      <trkpt lat="39.077215" lon="-8.76982833">
        <ele>-5.0</ele>
        <time>2019-05-16T15:48:36.898Z</time>
      </trkpt>
      <trkpt lat="39.077215" lon="-8.76982833">
        <ele>-5.0</ele>
        <time>2019-05-16T15:48:37.913Z</time>
      </trkpt>
      <trkpt lat="39.07723" lon="-8.76971">
        <ele>-5.0</ele>
        <time>2019-05-16T15:48:38.908Z</time>
      </trkpt>
      <trkpt lat="39.07723" lon="-8.76971">
        <ele>-5.0</ele>
        <time>2019-05-16T15:48:39.936Z</time>
      </trkpt>
      <trkpt lat="39.077245" lon="-8.76958667">
        <ele>-5.0</ele>
        <time>2019-05-16T15:48:40.915Z</time>
      </trkpt>
      <trkpt lat="39.077245" lon="-8.76958667">
        <ele>-5.0</ele>
        <time>2019-05-16T15:48:41.903Z</time>
      </trkpt>
      <trkpt lat="39.07725667" lon="-8.76946667">
        <ele>-5.0</ele>
        <time>2019-05-16T15:48:42.904Z</time>
      </trkpt>
      <trkpt lat="39.07725667" lon="-8.76946667">
        <ele>-5.0</ele>
        <time>2019-05-16T15:48:43.935Z</time>
      </trkpt>
      <trkpt lat="39.07726833" lon="-8.76934833">
        <ele>-5.0</ele>
        <time>2019-05-16T15:48:44.908Z</time>
      </trkpt>
      <trkpt lat="39.07726833" lon="-8.76934833">
        <ele>-5.0</ele>
        <time>2019-05-16T15:48:45.932Z</time>
      </trkpt>
      <trkpt lat="39.07728" lon="-8.76923833">
        <ele>-5.0</ele>
        <time>2019-05-16T15:48:46.899Z</time>
      </trkpt>
      <trkpt lat="39.07728" lon="-8.76923833">
        <ele>-5.0</ele>
        <time>2019-05-16T15:48:47.933Z</time>
      </trkpt>
      <trkpt lat="39.07728667" lon="-8.76912667">
        <ele>-5.0</ele>
        <time>2019-05-16T15:48:48.911Z</time>
      </trkpt>
      <trkpt lat="39.07728667" lon="-8.76912667">
        <ele>-5.0</ele>
        <time>2019-05-16T15:48:49.934Z</time>
      </trkpt>
      <trkpt lat="39.07729667" lon="-8.76901333">
        <ele>-5.0</ele>
        <time>2019-05-16T15:48:50.920Z</time>
      </trkpt>
      <trkpt lat="39.07729667" lon="-8.76901333">
        <ele>-5.0</ele>
        <time>2019-05-16T15:48:51.934Z</time>
      </trkpt>
      <trkpt lat="39.07731" lon="-8.768905">
        <ele>-5.0</ele>
        <time>2019-05-16T15:48:52.920Z</time>
      </trkpt>
      <trkpt lat="39.07731" lon="-8.768905">
        <ele>-5.0</ele>
        <time>2019-05-16T15:48:53.923Z</time>
      </trkpt>
      <trkpt lat="39.07731833" lon="-8.76879667">
        <ele>-5.0</ele>
        <time>2019-05-16T15:48:54.911Z</time>
      </trkpt>
      <trkpt lat="39.07731833" lon="-8.76879667">
        <ele>-5.0</ele>
        <time>2019-05-16T15:48:55.931Z</time>
      </trkpt>
      <trkpt lat="39.07733" lon="-8.76868333">
        <ele>-5.0</ele>
        <time>2019-05-16T15:48:56.923Z</time>
      </trkpt>
      <trkpt lat="39.07733" lon="-8.76868333">
        <ele>-5.0</ele>
        <time>2019-05-16T15:48:57.933Z</time>
      </trkpt>
      <trkpt lat="39.07734167" lon="-8.768565">
        <ele>-5.0</ele>
        <time>2019-05-16T15:48:58.909Z</time>
      </trkpt>
      <trkpt lat="39.07734167" lon="-8.768565">
        <ele>-5.0</ele>
        <time>2019-05-16T15:48:59.923Z</time>
      </trkpt>
      <trkpt lat="39.077355" lon="-8.768445">
        <ele>-5.0</ele>
        <time>2019-05-16T15:49:00.898Z</time>
      </trkpt>
      <trkpt lat="39.07736" lon="-8.76838333">
        <ele>-5.0</ele>
        <time>2019-05-16T15:49:01.925Z</time>
      </trkpt>
      <trkpt lat="39.07736667" lon="-8.76832167">
        <ele>-5.0</ele>
        <time>2019-05-16T15:49:02.912Z</time>
      </trkpt>
      <trkpt lat="39.07736667" lon="-8.76832167">
        <ele>-5.0</ele>
        <time>2019-05-16T15:49:03.923Z</time>
      </trkpt>
      <trkpt lat="39.07737833" lon="-8.76820167">
        <ele>-5.0</ele>
        <time>2019-05-16T15:49:04.942Z</time>
      </trkpt>
      <trkpt lat="39.07737833" lon="-8.76820167">
        <ele>-5.0</ele>
        <time>2019-05-16T15:49:05.924Z</time>
      </trkpt>
      <trkpt lat="39.07739" lon="-8.768085">
        <ele>-4.0</ele>
        <time>2019-05-16T15:49:06.903Z</time>
      </trkpt>
      <trkpt lat="39.07739" lon="-8.768085">
        <ele>-4.0</ele>
        <time>2019-05-16T15:49:07.900Z</time>
      </trkpt>
      <trkpt lat="39.07740333" lon="-8.76796667">
        <ele>-4.0</ele>
        <time>2019-05-16T15:49:08.940Z</time>
      </trkpt>
      <trkpt lat="39.07740333" lon="-8.76796667">
        <ele>-4.0</ele>
        <time>2019-05-16T15:49:09.934Z</time>
      </trkpt>
      <trkpt lat="39.077415" lon="-8.76785">
        <ele>-4.0</ele>
        <time>2019-05-16T15:49:10.924Z</time>
      </trkpt>
      <trkpt lat="39.077415" lon="-8.76785">
        <ele>-4.0</ele>
        <time>2019-05-16T15:49:11.903Z</time>
      </trkpt>
      <trkpt lat="39.07742833" lon="-8.76773667">
        <ele>-4.0</ele>
        <time>2019-05-16T15:49:12.916Z</time>
      </trkpt>
      <trkpt lat="39.07742833" lon="-8.76773667">
        <ele>-4.0</ele>
        <time>2019-05-16T15:49:13.903Z</time>
      </trkpt>
      <trkpt lat="39.07744" lon="-8.76762333">
        <ele>-3.0</ele>
        <time>2019-05-16T15:49:14.928Z</time>
      </trkpt>
      <trkpt lat="39.07744" lon="-8.76762333">
        <ele>-3.0</ele>
        <time>2019-05-16T15:49:15.936Z</time>
      </trkpt>
      <trkpt lat="39.07744833" lon="-8.76750667">
        <ele>-3.0</ele>
        <time>2019-05-16T15:49:16.917Z</time>
      </trkpt>
      <trkpt lat="39.07744833" lon="-8.76750667">
        <ele>-3.0</ele>
        <time>2019-05-16T15:49:17.933Z</time>
      </trkpt>
      <trkpt lat="39.07745333" lon="-8.76738667">
        <ele>-3.0</ele>
        <time>2019-05-16T15:49:18.936Z</time>
      </trkpt>
      <trkpt lat="39.07745333" lon="-8.76738667">
        <ele>-3.0</ele>
        <time>2019-05-16T15:49:19.933Z</time>
      </trkpt>
      <trkpt lat="39.07745333" lon="-8.76726167">
        <ele>-3.0</ele>
        <time>2019-05-16T15:49:20.906Z</time>
      </trkpt>
      <trkpt lat="39.07745333" lon="-8.76726167">
        <ele>-3.0</ele>
        <time>2019-05-16T15:49:21.902Z</time>
      </trkpt>
      <trkpt lat="39.077455" lon="-8.76713833">
        <ele>-3.0</ele>
        <time>2019-05-16T15:49:22.920Z</time>
      </trkpt>
      <trkpt lat="39.077455" lon="-8.76713833">
        <ele>-3.0</ele>
        <time>2019-05-16T15:49:23.908Z</time>
      </trkpt>
      <trkpt lat="39.07746333" lon="-8.767015">
        <ele>-3.0</ele>
        <time>2019-05-16T15:49:24.936Z</time>
      </trkpt>
      <trkpt lat="39.07746333" lon="-8.767015">
        <ele>-3.0</ele>
        <time>2019-05-16T15:49:25.928Z</time>
      </trkpt>
      <trkpt lat="39.07748167" lon="-8.76689667">
        <ele>-3.0</ele>
        <time>2019-05-16T15:49:26.913Z</time>
      </trkpt>
      <trkpt lat="39.07748167" lon="-8.76689667">
        <ele>-3.0</ele>
        <time>2019-05-16T15:49:27.935Z</time>
      </trkpt>
      <trkpt lat="39.0775" lon="-8.76677667">
        <ele>-3.0</ele>
        <time>2019-05-16T15:49:28.926Z</time>
      </trkpt>
      <trkpt lat="39.0775" lon="-8.76677667">
        <ele>-3.0</ele>
        <time>2019-05-16T15:49:29.926Z</time>
      </trkpt>
      <trkpt lat="39.07752167" lon="-8.76665667">
        <ele>-3.0</ele>
        <time>2019-05-16T15:49:30.923Z</time>
      </trkpt>
      <trkpt lat="39.07752167" lon="-8.76665667">
        <ele>-3.0</ele>
        <time>2019-05-16T15:49:31.931Z</time>
      </trkpt>
      <trkpt lat="39.07754667" lon="-8.76653833">
        <ele>-3.0</ele>
        <time>2019-05-16T15:49:32.917Z</time>
      </trkpt>
      <trkpt lat="39.07754667" lon="-8.76653833">
        <ele>-3.0</ele>
        <time>2019-05-16T15:49:33.933Z</time>
      </trkpt>
      <trkpt lat="39.07757333" lon="-8.766415">
        <ele>-3.0</ele>
        <time>2019-05-16T15:49:34.920Z</time>
      </trkpt>
      <trkpt lat="39.07757333" lon="-8.766415">
        <ele>-3.0</ele>
        <time>2019-05-16T15:49:35.923Z</time>
      </trkpt>
      <trkpt lat="39.07759833" lon="-8.76629833">
        <ele>-2.0</ele>
        <time>2019-05-16T15:49:36.917Z</time>
      </trkpt>
      <trkpt lat="39.07759833" lon="-8.76629833">
        <ele>-2.0</ele>
        <time>2019-05-16T15:49:37.922Z</time>
      </trkpt>
      <trkpt lat="39.07762333" lon="-8.76618167">
        <ele>-2.0</ele>
        <time>2019-05-16T15:49:38.938Z</time>
      </trkpt>
      <trkpt lat="39.07762333" lon="-8.76618167">
        <ele>-2.0</ele>
        <time>2019-05-16T15:49:39.923Z</time>
      </trkpt>
      <trkpt lat="39.07764667" lon="-8.76606667">
        <ele>-2.0</ele>
        <time>2019-05-16T15:49:40.911Z</time>
      </trkpt>
      <trkpt lat="39.07764667" lon="-8.76606667">
        <ele>-2.0</ele>
        <time>2019-05-16T15:49:41.906Z</time>
      </trkpt>
      <trkpt lat="39.07766833" lon="-8.76595667">
        <ele>-2.0</ele>
        <time>2019-05-16T15:49:42.898Z</time>
      </trkpt>
      <trkpt lat="39.07767833" lon="-8.7659">
        <ele>-2.0</ele>
        <time>2019-05-16T15:49:43.901Z</time>
      </trkpt>
      <trkpt lat="39.07769" lon="-8.76584333">
        <ele>-1.0</ele>
        <time>2019-05-16T15:49:44.901Z</time>
      </trkpt>
      <trkpt lat="39.07769" lon="-8.76584333">
        <ele>-1.0</ele>
        <time>2019-05-16T15:49:45.923Z</time>
      </trkpt>
      <trkpt lat="39.07771333" lon="-8.76573833">
        <ele>-1.0</ele>
        <time>2019-05-16T15:49:46.932Z</time>
      </trkpt>
      <trkpt lat="39.07771333" lon="-8.76573833">
        <ele>-1.0</ele>
        <time>2019-05-16T15:49:47.903Z</time>
      </trkpt>
      <trkpt lat="39.07773667" lon="-8.76563333">
        <ele>-1.0</ele>
        <time>2019-05-16T15:49:48.929Z</time>
      </trkpt>
      <trkpt lat="39.07773667" lon="-8.76563333">
        <ele>-1.0</ele>
        <time>2019-05-16T15:49:49.923Z</time>
      </trkpt>
      <trkpt lat="39.07775667" lon="-8.76553167">
        <ele>-1.0</ele>
        <time>2019-05-16T15:49:50.922Z</time>
      </trkpt>
      <trkpt lat="39.07775667" lon="-8.76553167">
        <ele>-1.0</ele>
        <time>2019-05-16T15:49:51.935Z</time>
      </trkpt>
      <trkpt lat="39.07777667" lon="-8.76543333">
        <ele>-1.0</ele>
        <time>2019-05-16T15:49:52.910Z</time>
      </trkpt>
      <trkpt lat="39.07777667" lon="-8.76543333">
        <ele>-1.0</ele>
        <time>2019-05-16T15:49:53.903Z</time>
      </trkpt>
      <trkpt lat="39.07779833" lon="-8.765345">
        <ele>-1.0</ele>
        <time>2019-05-16T15:49:54.934Z</time>
      </trkpt>
      <trkpt lat="39.07779833" lon="-8.765345">
        <ele>-1.0</ele>
        <time>2019-05-16T15:49:55.925Z</time>
      </trkpt>
      <trkpt lat="39.07782167" lon="-8.76525833">
        <ele>-1.0</ele>
        <time>2019-05-16T15:49:56.925Z</time>
      </trkpt>
      <trkpt lat="39.07782167" lon="-8.76525833">
        <ele>-1.0</ele>
        <time>2019-05-16T15:49:57.903Z</time>
      </trkpt>
      <trkpt lat="39.07784833" lon="-8.76516833">
        <ele>-1.0</ele>
        <time>2019-05-16T15:49:58.931Z</time>
      </trkpt>
      <trkpt lat="39.07784833" lon="-8.76516833">
        <ele>-1.0</ele>
        <time>2019-05-16T15:49:59.912Z</time>
      </trkpt>
      <trkpt lat="39.07787333" lon="-8.76508333">
        <ele>-1.0</ele>
        <time>2019-05-16T15:50:00.938Z</time>
      </trkpt>
      <trkpt lat="39.07787333" lon="-8.76508333">
        <ele>-1.0</ele>
        <time>2019-05-16T15:50:01.920Z</time>
      </trkpt>
      <trkpt lat="39.0779" lon="-8.76499167">
        <ele>-1.0</ele>
        <time>2019-05-16T15:50:02.906Z</time>
      </trkpt>
      <trkpt lat="39.0779" lon="-8.76499167">
        <ele>-1.0</ele>
        <time>2019-05-16T15:50:03.934Z</time>
      </trkpt>
      <trkpt lat="39.07793167" lon="-8.76489667">
        <ele>-1.0</ele>
        <time>2019-05-16T15:50:04.909Z</time>
      </trkpt>
      <trkpt lat="39.07793167" lon="-8.76489667">
        <ele>-1.0</ele>
        <time>2019-05-16T15:50:05.913Z</time>
      </trkpt>
      <trkpt lat="39.07796" lon="-8.76480167">
        <ele>-1.0</ele>
        <time>2019-05-16T15:50:06.933Z</time>
      </trkpt>
      <trkpt lat="39.077975" lon="-8.76475333">
        <ele>-2.0</ele>
        <time>2019-05-16T15:50:07.898Z</time>
      </trkpt>
      <trkpt lat="39.07799" lon="-8.76470667">
        <ele>-2.0</ele>
        <time>2019-05-16T15:50:08.930Z</time>
      </trkpt>
      <trkpt lat="39.07799" lon="-8.76470667">
        <ele>-2.0</ele>
        <time>2019-05-16T15:50:09.920Z</time>
      </trkpt>
      <trkpt lat="39.07802667" lon="-8.76461167">
        <ele>-2.0</ele>
        <time>2019-05-16T15:50:10.898Z</time>
      </trkpt>
      <trkpt lat="39.07802667" lon="-8.76461167">
        <ele>-2.0</ele>
        <time>2019-05-16T15:50:11.914Z</time>
      </trkpt>
      <trkpt lat="39.07807" lon="-8.76451667">
        <ele>-2.0</ele>
        <time>2019-05-16T15:50:12.899Z</time>
      </trkpt>
      <trkpt lat="39.07807" lon="-8.76451667">
        <ele>-2.0</ele>
        <time>2019-05-16T15:50:13.921Z</time>
      </trkpt>
      <trkpt lat="39.07811667" lon="-8.76442667">
        <ele>-2.0</ele>
        <time>2019-05-16T15:50:14.905Z</time>
      </trkpt>
      <trkpt lat="39.07811667" lon="-8.76442667">
        <ele>-2.0</ele>
        <time>2019-05-16T15:50:15.930Z</time>
      </trkpt>
      <trkpt lat="39.07816" lon="-8.76434833">
        <ele>-3.0</ele>
        <time>2019-05-16T15:50:16.921Z</time>
      </trkpt>
      <trkpt lat="39.07816" lon="-8.76434833">
        <ele>-3.0</ele>
        <time>2019-05-16T15:50:17.899Z</time>
      </trkpt>
      <trkpt lat="39.078215" lon="-8.76427333">
        <ele>-3.0</ele>
        <time>2019-05-16T15:50:18.913Z</time>
      </trkpt>
      <trkpt lat="39.078215" lon="-8.76427333">
        <ele>-3.0</ele>
        <time>2019-05-16T15:50:19.903Z</time>
      </trkpt>
      <trkpt lat="39.07826333" lon="-8.76419667">
        <ele>-3.0</ele>
        <time>2019-05-16T15:50:20.911Z</time>
      </trkpt>
      <trkpt lat="39.07826333" lon="-8.76419667">
        <ele>-3.0</ele>
        <time>2019-05-16T15:50:21.920Z</time>
      </trkpt>
      <trkpt lat="39.07831833" lon="-8.76412">
        <ele>-3.0</ele>
        <time>2019-05-16T15:50:22.904Z</time>
      </trkpt>
      <trkpt lat="39.07831833" lon="-8.76412">
        <ele>-3.0</ele>
        <time>2019-05-16T15:50:23.897Z</time>
      </trkpt>
      <trkpt lat="39.07837333" lon="-8.76404333">
        <ele>-2.0</ele>
        <time>2019-05-16T15:50:24.920Z</time>
      </trkpt>
      <trkpt lat="39.07837333" lon="-8.76404333">
        <ele>-2.0</ele>
        <time>2019-05-16T15:50:25.929Z</time>
      </trkpt>
      <trkpt lat="39.07843167" lon="-8.76396667">
        <ele>-1.0</ele>
        <time>2019-05-16T15:50:26.907Z</time>
      </trkpt>
      <trkpt lat="39.07843167" lon="-8.76396667">
        <ele>-1.0</ele>
        <time>2019-05-16T15:50:27.932Z</time>
      </trkpt>
      <trkpt lat="39.07849" lon="-8.76388333">
        <ele>0.0</ele>
        <time>2019-05-16T15:50:28.917Z</time>
      </trkpt>
      <trkpt lat="39.07849" lon="-8.76388333">
        <ele>0.0</ele>
        <time>2019-05-16T15:50:29.912Z</time>
      </trkpt>
      <trkpt lat="39.07854" lon="-8.76379667">
        <ele>0.0</ele>
        <time>2019-05-16T15:50:30.935Z</time>
      </trkpt>
      <trkpt lat="39.078565" lon="-8.76375333">
        <ele>0.0</ele>
        <time>2019-05-16T15:50:31.915Z</time>
      </trkpt>
      <trkpt lat="39.07859" lon="-8.76371167">
        <ele>1.0</ele>
        <time>2019-05-16T15:50:32.934Z</time>
      </trkpt>
      <trkpt lat="39.07859" lon="-8.76371167">
        <ele>1.0</ele>
        <time>2019-05-16T15:50:33.903Z</time>
      </trkpt>
      <trkpt lat="39.07864167" lon="-8.76362833">
        <ele>1.0</ele>
        <time>2019-05-16T15:50:34.923Z</time>
      </trkpt>
      <trkpt lat="39.07864167" lon="-8.76362833">
        <ele>1.0</ele>
        <time>2019-05-16T15:50:35.907Z</time>
      </trkpt>
      <trkpt lat="39.078695" lon="-8.763555">
        <ele>1.0</ele>
        <time>2019-05-16T15:50:36.904Z</time>
      </trkpt>
      <trkpt lat="39.078695" lon="-8.763555">
        <ele>1.0</ele>
        <time>2019-05-16T15:50:37.904Z</time>
      </trkpt>
      <trkpt lat="39.07875833" lon="-8.76348833">
        <ele>1.0</ele>
        <time>2019-05-16T15:50:38.901Z</time>
      </trkpt>
      <trkpt lat="39.07875833" lon="-8.76348833">
        <ele>1.0</ele>
        <time>2019-05-16T15:50:39.902Z</time>
      </trkpt>
      <trkpt lat="39.07881" lon="-8.763415">
        <ele>0.0</ele>
        <time>2019-05-16T15:50:40.903Z</time>
      </trkpt>
      <trkpt lat="39.07881" lon="-8.763415">
        <ele>0.0</ele>
        <time>2019-05-16T15:50:41.908Z</time>
      </trkpt>
      <trkpt lat="39.07886" lon="-8.76334167">
        <ele>0.0</ele>
        <time>2019-05-16T15:50:42.932Z</time>
      </trkpt>
      <trkpt lat="39.07889" lon="-8.76330667">
        <ele>0.0</ele>
        <time>2019-05-16T15:50:43.900Z</time>
      </trkpt>
      <trkpt lat="39.07892" lon="-8.763275">
        <ele>0.0</ele>
        <time>2019-05-16T15:50:44.935Z</time>
      </trkpt>
      <trkpt lat="39.07892" lon="-8.763275">
        <ele>0.0</ele>
        <time>2019-05-16T15:50:45.926Z</time>
      </trkpt>
      <trkpt lat="39.07897833" lon="-8.76320833">
        <ele>1.0</ele>
        <time>2019-05-16T15:50:46.899Z</time>
      </trkpt>
      <trkpt lat="39.07897833" lon="-8.76320833">
        <ele>1.0</ele>
        <time>2019-05-16T15:50:47.932Z</time>
      </trkpt>
      <trkpt lat="39.07903667" lon="-8.76314333">
        <ele>1.0</ele>
        <time>2019-05-16T15:50:48.903Z</time>
      </trkpt>
      <trkpt lat="39.07903667" lon="-8.76314333">
        <ele>1.0</ele>
        <time>2019-05-16T15:50:49.930Z</time>
      </trkpt>
      <trkpt lat="39.07909667" lon="-8.76307667">
        <ele>1.0</ele>
        <time>2019-05-16T15:50:50.917Z</time>
      </trkpt>
      <trkpt lat="39.07909667" lon="-8.76307667">
        <ele>1.0</ele>
        <time>2019-05-16T15:50:51.908Z</time>
      </trkpt>
      <trkpt lat="39.07915667" lon="-8.76301">
        <ele>1.0</ele>
        <time>2019-05-16T15:50:52.901Z</time>
      </trkpt>
      <trkpt lat="39.07915667" lon="-8.76301">
        <ele>1.0</ele>
        <time>2019-05-16T15:50:53.935Z</time>
      </trkpt>
      <trkpt lat="39.07921667" lon="-8.76294667">
        <ele>1.0</ele>
        <time>2019-05-16T15:50:54.911Z</time>
      </trkpt>
      <trkpt lat="39.07921667" lon="-8.76294667">
        <ele>1.0</ele>
        <time>2019-05-16T15:50:55.919Z</time>
      </trkpt>
      <trkpt lat="39.07926833" lon="-8.76288333">
        <ele>1.0</ele>
        <time>2019-05-16T15:50:56.899Z</time>
      </trkpt>
      <trkpt lat="39.07926833" lon="-8.76288333">
        <ele>1.0</ele>
        <time>2019-05-16T15:50:57.911Z</time>
      </trkpt>
      <trkpt lat="39.07931333" lon="-8.76282">
        <ele>1.0</ele>
        <time>2019-05-16T15:50:58.933Z</time>
      </trkpt>
      <trkpt lat="39.07931333" lon="-8.76282">
        <ele>1.0</ele>
        <time>2019-05-16T15:50:59.921Z</time>
      </trkpt>
      <trkpt lat="39.07934167" lon="-8.762735">
        <ele>1.0</ele>
        <time>2019-05-16T15:51:00.935Z</time>
      </trkpt>
      <trkpt lat="39.07935333" lon="-8.76268667">
        <ele>0.0</ele>
        <time>2019-05-16T15:51:01.907Z</time>
      </trkpt>
      <trkpt lat="39.07936833" lon="-8.76263833">
        <ele>0.0</ele>
        <time>2019-05-16T15:51:02.902Z</time>
      </trkpt>
      <trkpt lat="39.07936833" lon="-8.76263833">
        <ele>0.0</ele>
        <time>2019-05-16T15:51:03.928Z</time>
      </trkpt>
      <trkpt lat="39.07941" lon="-8.76256">
        <ele>0.0</ele>
        <time>2019-05-16T15:51:04.905Z</time>
      </trkpt>
      <trkpt lat="39.07941" lon="-8.76256">
        <ele>0.0</ele>
        <time>2019-05-16T15:51:05.904Z</time>
      </trkpt>
      <trkpt lat="39.07944833" lon="-8.762495">
        <ele>0.0</ele>
        <time>2019-05-16T15:51:06.933Z</time>
      </trkpt>
      <trkpt lat="39.07944833" lon="-8.762495">
        <ele>0.0</ele>
        <time>2019-05-16T15:51:07.913Z</time>
      </trkpt>
      <trkpt lat="39.07948167" lon="-8.76242833">
        <ele>0.0</ele>
        <time>2019-05-16T15:51:08.901Z</time>
      </trkpt>
      <trkpt lat="39.07948167" lon="-8.76242833">
        <ele>0.0</ele>
        <time>2019-05-16T15:51:09.929Z</time>
      </trkpt>
      <trkpt lat="39.07951833" lon="-8.76236">
        <ele>0.0</ele>
        <time>2019-05-16T15:51:10.912Z</time>
      </trkpt>
      <trkpt lat="39.07951833" lon="-8.76236">
        <ele>0.0</ele>
        <time>2019-05-16T15:51:11.917Z</time>
      </trkpt>
      <trkpt lat="39.07956" lon="-8.762295">
        <ele>0.0</ele>
        <time>2019-05-16T15:51:12.900Z</time>
      </trkpt>
      <trkpt lat="39.07956" lon="-8.762295">
        <ele>0.0</ele>
        <time>2019-05-16T15:51:13.913Z</time>
      </trkpt>
      <trkpt lat="39.07960167" lon="-8.76224">
        <ele>0.0</ele>
        <time>2019-05-16T15:51:14.897Z</time>
      </trkpt>
      <trkpt lat="39.07960167" lon="-8.76224">
        <ele>0.0</ele>
        <time>2019-05-16T15:51:15.899Z</time>
      </trkpt>
      <trkpt lat="39.079635" lon="-8.76217667">
        <ele>0.0</ele>
        <time>2019-05-16T15:51:16.929Z</time>
      </trkpt>
      <trkpt lat="39.079635" lon="-8.76217667">
        <ele>0.0</ele>
        <time>2019-05-16T15:51:17.932Z</time>
      </trkpt>
      <trkpt lat="39.07967" lon="-8.76210833">
        <ele>0.0</ele>
        <time>2019-05-16T15:51:18.920Z</time>
      </trkpt>
      <trkpt lat="39.07967" lon="-8.76210833">
        <ele>0.0</ele>
        <time>2019-05-16T15:51:19.932Z</time>
      </trkpt>
      <trkpt lat="39.07969667" lon="-8.76204167">
        <ele>0.0</ele>
        <time>2019-05-16T15:51:20.915Z</time>
      </trkpt>
      <trkpt lat="39.07969667" lon="-8.76204167">
        <ele>0.0</ele>
        <time>2019-05-16T15:51:21.906Z</time>
      </trkpt>
      <trkpt lat="39.07973167" lon="-8.76197833">
        <ele>0.0</ele>
        <time>2019-05-16T15:51:22.925Z</time>
      </trkpt>
      <trkpt lat="39.07973167" lon="-8.76197833">
        <ele>0.0</ele>
        <time>2019-05-16T15:51:23.933Z</time>
      </trkpt>
      <trkpt lat="39.07976833" lon="-8.76191667">
        <ele>-1.0</ele>
        <time>2019-05-16T15:51:24.915Z</time>
      </trkpt>
      <trkpt lat="39.07976833" lon="-8.76191667">
        <ele>-1.0</ele>
        <time>2019-05-16T15:51:25.933Z</time>
      </trkpt>
      <trkpt lat="39.079805" lon="-8.76184833">
        <ele>-1.0</ele>
        <time>2019-05-16T15:51:26.911Z</time>
      </trkpt>
      <trkpt lat="39.079805" lon="-8.76184833">
        <ele>-1.0</ele>
        <time>2019-05-16T15:51:27.923Z</time>
      </trkpt>
      <trkpt lat="39.07984667" lon="-8.76178333">
        <ele>0.0</ele>
        <time>2019-05-16T15:51:28.902Z</time>
      </trkpt>
      <trkpt lat="39.07984667" lon="-8.76178333">
        <ele>0.0</ele>
        <time>2019-05-16T15:51:29.935Z</time>
      </trkpt>
      <trkpt lat="39.07988333" lon="-8.76171333">
        <ele>0.0</ele>
        <time>2019-05-16T15:51:30.911Z</time>
      </trkpt>
      <trkpt lat="39.07988333" lon="-8.76171333">
        <ele>0.0</ele>
        <time>2019-05-16T15:51:31.933Z</time>
      </trkpt>
      <trkpt lat="39.07992" lon="-8.76165333">
        <ele>0.0</ele>
        <time>2019-05-16T15:51:32.921Z</time>
      </trkpt>
      <trkpt lat="39.07992" lon="-8.76165333">
        <ele>0.0</ele>
        <time>2019-05-16T15:51:33.923Z</time>
      </trkpt>
      <trkpt lat="39.07995167" lon="-8.76158833">
        <ele>0.0</ele>
        <time>2019-05-16T15:51:34.897Z</time>
      </trkpt>
      <trkpt lat="39.07995167" lon="-8.76158833">
        <ele>0.0</ele>
        <time>2019-05-16T15:51:35.913Z</time>
      </trkpt>
      <trkpt lat="39.07998333" lon="-8.76152167">
        <ele>0.0</ele>
        <time>2019-05-16T15:51:36.903Z</time>
      </trkpt>
      <trkpt lat="39.07998333" lon="-8.76152167">
        <ele>0.0</ele>
        <time>2019-05-16T15:51:37.931Z</time>
      </trkpt>
      <trkpt lat="39.08001667" lon="-8.761455">
        <ele>0.0</ele>
        <time>2019-05-16T15:51:38.909Z</time>
      </trkpt>
      <trkpt lat="39.08001667" lon="-8.761455">
        <ele>0.0</ele>
        <time>2019-05-16T15:51:39.899Z</time>
      </trkpt>
      <trkpt lat="39.08005167" lon="-8.76139">
        <ele>0.0</ele>
        <time>2019-05-16T15:51:40.924Z</time>
      </trkpt>
      <trkpt lat="39.08005167" lon="-8.76139">
        <ele>0.0</ele>
        <time>2019-05-16T15:51:41.903Z</time>
      </trkpt>
      <trkpt lat="39.08009" lon="-8.76132167">
        <ele>0.0</ele>
        <time>2019-05-16T15:51:42.908Z</time>
      </trkpt>
      <trkpt lat="39.08009" lon="-8.76132167">
        <ele>0.0</ele>
        <time>2019-05-16T15:51:43.899Z</time>
      </trkpt>
      <trkpt lat="39.08013333" lon="-8.76126">
        <ele>2.0</ele>
        <time>2019-05-16T15:51:44.924Z</time>
      </trkpt>
      <trkpt lat="39.08013333" lon="-8.76126">
        <ele>2.0</ele>
        <time>2019-05-16T15:51:45.903Z</time>
      </trkpt>
      <trkpt lat="39.08017833" lon="-8.76119333">
        <ele>3.0</ele>
        <time>2019-05-16T15:51:46.926Z</time>
      </trkpt>
      <trkpt lat="39.08017833" lon="-8.76119333">
        <ele>3.0</ele>
        <time>2019-05-16T15:51:47.917Z</time>
      </trkpt>
      <trkpt lat="39.08022167" lon="-8.761125">
        <ele>3.0</ele>
        <time>2019-05-16T15:51:48.941Z</time>
      </trkpt>
      <trkpt lat="39.080245" lon="-8.76109333">
        <ele>4.0</ele>
        <time>2019-05-16T15:51:49.921Z</time>
      </trkpt>
      <trkpt lat="39.08026833" lon="-8.76106167">
        <ele>4.0</ele>
        <time>2019-05-16T15:51:50.934Z</time>
      </trkpt>
      <trkpt lat="39.08026833" lon="-8.76106167">
        <ele>4.0</ele>
        <time>2019-05-16T15:51:51.933Z</time>
      </trkpt>
      <trkpt lat="39.08031333" lon="-8.76099667">
        <ele>4.0</ele>
        <time>2019-05-16T15:51:52.909Z</time>
      </trkpt>
      <trkpt lat="39.08031333" lon="-8.76099667">
        <ele>4.0</ele>
        <time>2019-05-16T15:51:53.901Z</time>
      </trkpt>
      <trkpt lat="39.08034833" lon="-8.760925">
        <ele>4.0</ele>
        <time>2019-05-16T15:51:54.918Z</time>
      </trkpt>
      <trkpt lat="39.08034833" lon="-8.760925">
        <ele>4.0</ele>
        <time>2019-05-16T15:51:55.903Z</time>
      </trkpt>
      <trkpt lat="39.08039" lon="-8.76086167">
        <ele>5.0</ele>
        <time>2019-05-16T15:51:56.922Z</time>
      </trkpt>
      <trkpt lat="39.08039" lon="-8.76086167">
        <ele>5.0</ele>
        <time>2019-05-16T15:51:57.933Z</time>
      </trkpt>
      <trkpt lat="39.08043167" lon="-8.76080167">
        <ele>5.0</ele>
        <time>2019-05-16T15:51:58.931Z</time>
      </trkpt>
      <trkpt lat="39.08045167" lon="-8.76077167">
        <ele>5.0</ele>
        <time>2019-05-16T15:51:59.914Z</time>
      </trkpt>
      <trkpt lat="39.08045167" lon="-8.76077167">
        <ele>5.0</ele>
        <time>2019-05-16T15:52:00.936Z</time>
      </trkpt>
      <trkpt lat="39.08049" lon="-8.76071167">
        <ele>5.0</ele>
        <time>2019-05-16T15:52:01.921Z</time>
      </trkpt>
      <trkpt lat="39.08050667" lon="-8.76068">
        <ele>5.0</ele>
        <time>2019-05-16T15:52:02.928Z</time>
      </trkpt>
      <trkpt lat="39.08050667" lon="-8.76068">
        <ele>5.0</ele>
        <time>2019-05-16T15:52:03.915Z</time>
      </trkpt>
      <trkpt lat="39.08054833" lon="-8.76062667">
        <ele>6.0</ele>
        <time>2019-05-16T15:52:04.935Z</time>
      </trkpt>
      <trkpt lat="39.08054833" lon="-8.76062667">
        <ele>6.0</ele>
        <time>2019-05-16T15:52:05.924Z</time>
      </trkpt>
      <trkpt lat="39.08058667" lon="-8.760575">
        <ele>6.0</ele>
        <time>2019-05-16T15:52:06.909Z</time>
      </trkpt>
      <trkpt lat="39.08058667" lon="-8.760575">
        <ele>6.0</ele>
        <time>2019-05-16T15:52:07.908Z</time>
      </trkpt>
      <trkpt lat="39.08062667" lon="-8.76052167">
        <ele>6.0</ele>
        <time>2019-05-16T15:52:08.901Z</time>
      </trkpt>
      <trkpt lat="39.08062667" lon="-8.76052167">
        <ele>6.0</ele>
        <time>2019-05-16T15:52:09.933Z</time>
      </trkpt>
      <trkpt lat="39.08066667" lon="-8.760465">
        <ele>6.0</ele>
        <time>2019-05-16T15:52:10.910Z</time>
      </trkpt>
      <trkpt lat="39.08066667" lon="-8.760465">
        <ele>6.0</ele>
        <time>2019-05-16T15:52:11.913Z</time>
      </trkpt>
      <trkpt lat="39.08070667" lon="-8.760405">
        <ele>6.0</ele>
        <time>2019-05-16T15:52:12.934Z</time>
      </trkpt>
      <trkpt lat="39.08070667" lon="-8.760405">
        <ele>6.0</ele>
        <time>2019-05-16T15:52:13.917Z</time>
      </trkpt>
      <trkpt lat="39.08074333" lon="-8.76035">
        <ele>6.0</ele>
        <time>2019-05-16T15:52:14.946Z</time>
      </trkpt>
      <trkpt lat="39.08074333" lon="-8.76035">
        <ele>6.0</ele>
        <time>2019-05-16T15:52:15.913Z</time>
      </trkpt>
      <trkpt lat="39.08078" lon="-8.76029667">
        <ele>5.0</ele>
        <time>2019-05-16T15:52:16.901Z</time>
      </trkpt>
      <trkpt lat="39.08078" lon="-8.76029667">
        <ele>5.0</ele>
        <time>2019-05-16T15:52:17.933Z</time>
      </trkpt>
      <trkpt lat="39.080825" lon="-8.76024333">
        <ele>5.0</ele>
        <time>2019-05-16T15:52:18.919Z</time>
      </trkpt>
      <trkpt lat="39.080825" lon="-8.76024333">
        <ele>5.0</ele>
        <time>2019-05-16T15:52:19.902Z</time>
      </trkpt>
      <trkpt lat="39.080865" lon="-8.76018167">
        <ele>6.0</ele>
        <time>2019-05-16T15:52:20.961Z</time>
      </trkpt>
      <trkpt lat="39.080865" lon="-8.76018167">
        <ele>6.0</ele>
        <time>2019-05-16T15:52:21.907Z</time>
      </trkpt>
      <trkpt lat="39.080905" lon="-8.76011667">
        <ele>6.0</ele>
        <time>2019-05-16T15:52:22.931Z</time>
      </trkpt>
      <trkpt lat="39.080905" lon="-8.76011667">
        <ele>6.0</ele>
        <time>2019-05-16T15:52:23.906Z</time>
      </trkpt>
      <trkpt lat="39.08095" lon="-8.76005">
        <ele>6.0</ele>
        <time>2019-05-16T15:52:24.936Z</time>
      </trkpt>
      <trkpt lat="39.08095" lon="-8.76005">
        <ele>6.0</ele>
        <time>2019-05-16T15:52:25.924Z</time>
      </trkpt>
      <trkpt lat="39.080995" lon="-8.75998167">
        <ele>6.0</ele>
        <time>2019-05-16T15:52:26.901Z</time>
      </trkpt>
      <trkpt lat="39.080995" lon="-8.75998167">
        <ele>6.0</ele>
        <time>2019-05-16T15:52:27.921Z</time>
      </trkpt>
      <trkpt lat="39.08103833" lon="-8.75991333">
        <ele>7.0</ele>
        <time>2019-05-16T15:52:28.903Z</time>
      </trkpt>
      <trkpt lat="39.08103833" lon="-8.75991333">
        <ele>7.0</ele>
        <time>2019-05-16T15:52:29.900Z</time>
      </trkpt>
      <trkpt lat="39.08108333" lon="-8.759845">
        <ele>7.0</ele>
        <time>2019-05-16T15:52:30.921Z</time>
      </trkpt>
      <trkpt lat="39.08108333" lon="-8.759845">
        <ele>7.0</ele>
        <time>2019-05-16T15:52:31.909Z</time>
      </trkpt>
      <trkpt lat="39.08112667" lon="-8.75977833">
        <ele>7.0</ele>
        <time>2019-05-16T15:52:32.937Z</time>
      </trkpt>
      <trkpt lat="39.08112667" lon="-8.75977833">
        <ele>7.0</ele>
        <time>2019-05-16T15:52:33.903Z</time>
      </trkpt>
      <trkpt lat="39.08117333" lon="-8.75971833">
        <ele>7.0</ele>
        <time>2019-05-16T15:52:34.926Z</time>
      </trkpt>
      <trkpt lat="39.08117333" lon="-8.75971833">
        <ele>7.0</ele>
        <time>2019-05-16T15:52:35.933Z</time>
      </trkpt>
      <trkpt lat="39.08121167" lon="-8.75966">
        <ele>8.0</ele>
        <time>2019-05-16T15:52:36.907Z</time>
      </trkpt>
      <trkpt lat="39.08121167" lon="-8.75966">
        <ele>8.0</ele>
        <time>2019-05-16T15:52:37.923Z</time>
      </trkpt>
      <trkpt lat="39.08124667" lon="-8.75960333">
        <ele>8.0</ele>
        <time>2019-05-16T15:52:38.909Z</time>
      </trkpt>
      <trkpt lat="39.08124667" lon="-8.75960333">
        <ele>8.0</ele>
        <time>2019-05-16T15:52:39.913Z</time>
      </trkpt>
      <trkpt lat="39.081285" lon="-8.75954333">
        <ele>8.0</ele>
        <time>2019-05-16T15:52:40.900Z</time>
      </trkpt>
      <trkpt lat="39.081285" lon="-8.75954333">
        <ele>8.0</ele>
        <time>2019-05-16T15:52:41.912Z</time>
      </trkpt>
      <trkpt lat="39.08131667" lon="-8.75948">
        <ele>8.0</ele>
        <time>2019-05-16T15:52:42.904Z</time>
      </trkpt>
      <trkpt lat="39.08131667" lon="-8.75948">
        <ele>8.0</ele>
        <time>2019-05-16T15:52:43.914Z</time>
      </trkpt>
      <trkpt lat="39.08134667" lon="-8.75942333">
        <ele>7.0</ele>
        <time>2019-05-16T15:52:44.932Z</time>
      </trkpt>
      <trkpt lat="39.08134667" lon="-8.75942333">
        <ele>7.0</ele>
        <time>2019-05-16T15:52:45.913Z</time>
      </trkpt>
      <trkpt lat="39.08137667" lon="-8.759375">
        <ele>7.0</ele>
        <time>2019-05-16T15:52:46.907Z</time>
      </trkpt>
      <trkpt lat="39.08137667" lon="-8.759375">
        <ele>7.0</ele>
        <time>2019-05-16T15:52:47.929Z</time>
      </trkpt>
      <trkpt lat="39.08140833" lon="-8.75933167">
        <ele>8.0</ele>
        <time>2019-05-16T15:52:48.910Z</time>
      </trkpt>
      <trkpt lat="39.08140833" lon="-8.75933167">
        <ele>8.0</ele>
        <time>2019-05-16T15:52:49.923Z</time>
      </trkpt>
      <trkpt lat="39.08143167" lon="-8.75927833">
        <ele>7.0</ele>
        <time>2019-05-16T15:52:50.907Z</time>
      </trkpt>
      <trkpt lat="39.08143167" lon="-8.75927833">
        <ele>7.0</ele>
        <time>2019-05-16T15:52:51.901Z</time>
      </trkpt>
      <trkpt lat="39.08145667" lon="-8.75922167">
        <ele>7.0</ele>
        <time>2019-05-16T15:52:52.923Z</time>
      </trkpt>
      <trkpt lat="39.08145667" lon="-8.75922167">
        <ele>7.0</ele>
        <time>2019-05-16T15:52:53.928Z</time>
      </trkpt>
      <trkpt lat="39.0815" lon="-8.75915333">
        <ele>6.0</ele>
        <time>2019-05-16T15:52:54.921Z</time>
      </trkpt>
      <trkpt lat="39.0815" lon="-8.75915333">
        <ele>6.0</ele>
        <time>2019-05-16T15:52:55.923Z</time>
      </trkpt>
      <trkpt lat="39.08154333" lon="-8.75909">
        <ele>6.0</ele>
        <time>2019-05-16T15:52:56.909Z</time>
      </trkpt>
      <trkpt lat="39.08154333" lon="-8.75909">
        <ele>6.0</ele>
        <time>2019-05-16T15:52:57.919Z</time>
      </trkpt>
      <trkpt lat="39.08158667" lon="-8.759025">
        <ele>6.0</ele>
        <time>2019-05-16T15:52:58.899Z</time>
      </trkpt>
      <trkpt lat="39.08158667" lon="-8.759025">
        <ele>6.0</ele>
        <time>2019-05-16T15:52:59.937Z</time>
      </trkpt>
      <trkpt lat="39.08163167" lon="-8.75897">
        <ele>6.0</ele>
        <time>2019-05-16T15:53:00.916Z</time>
      </trkpt>
      <trkpt lat="39.08163167" lon="-8.75897">
        <ele>6.0</ele>
        <time>2019-05-16T15:53:01.929Z</time>
      </trkpt>
      <trkpt lat="39.08167" lon="-8.75891667">
        <ele>5.0</ele>
        <time>2019-05-16T15:53:02.917Z</time>
      </trkpt>
      <trkpt lat="39.08167" lon="-8.75891667">
        <ele>5.0</ele>
        <time>2019-05-16T15:53:03.921Z</time>
      </trkpt>
      <trkpt lat="39.08171167" lon="-8.75885667">
        <ele>5.0</ele>
        <time>2019-05-16T15:53:04.901Z</time>
      </trkpt>
      <trkpt lat="39.08171167" lon="-8.75885667">
        <ele>5.0</ele>
        <time>2019-05-16T15:53:05.922Z</time>
      </trkpt>
      <trkpt lat="39.08175667" lon="-8.75879167">
        <ele>6.0</ele>
        <time>2019-05-16T15:53:06.902Z</time>
      </trkpt>
      <trkpt lat="39.08175667" lon="-8.75879167">
        <ele>6.0</ele>
        <time>2019-05-16T15:53:07.923Z</time>
      </trkpt>
      <trkpt lat="39.081805" lon="-8.75872833">
        <ele>6.0</ele>
        <time>2019-05-16T15:53:08.908Z</time>
      </trkpt>
      <trkpt lat="39.081805" lon="-8.75872833">
        <ele>6.0</ele>
        <time>2019-05-16T15:53:09.932Z</time>
      </trkpt>
      <trkpt lat="39.08185167" lon="-8.75866">
        <ele>6.0</ele>
        <time>2019-05-16T15:53:10.921Z</time>
      </trkpt>
      <trkpt lat="39.08185167" lon="-8.75866">
        <ele>6.0</ele>
        <time>2019-05-16T15:53:11.899Z</time>
      </trkpt>
      <trkpt lat="39.081905" lon="-8.75859333">
        <ele>7.0</ele>
        <time>2019-05-16T15:53:12.916Z</time>
      </trkpt>
      <trkpt lat="39.081905" lon="-8.75859333">
        <ele>7.0</ele>
        <time>2019-05-16T15:53:13.913Z</time>
      </trkpt>
      <trkpt lat="39.08195333" lon="-8.75852">
        <ele>7.0</ele>
        <time>2019-05-16T15:53:14.934Z</time>
      </trkpt>
      <trkpt lat="39.08195333" lon="-8.75852">
        <ele>7.0</ele>
        <time>2019-05-16T15:53:15.919Z</time>
      </trkpt>
      <trkpt lat="39.08200333" lon="-8.75845">
        <ele>7.0</ele>
        <time>2019-05-16T15:53:16.935Z</time>
      </trkpt>
      <trkpt lat="39.08200333" lon="-8.75845">
        <ele>7.0</ele>
        <time>2019-05-16T15:53:17.928Z</time>
      </trkpt>
      <trkpt lat="39.08205667" lon="-8.758385">
        <ele>7.0</ele>
        <time>2019-05-16T15:53:18.906Z</time>
      </trkpt>
      <trkpt lat="39.08205667" lon="-8.758385">
        <ele>7.0</ele>
        <time>2019-05-16T15:53:19.921Z</time>
      </trkpt>
      <trkpt lat="39.08210833" lon="-8.75833">
        <ele>6.0</ele>
        <time>2019-05-16T15:53:20.947Z</time>
      </trkpt>
      <trkpt lat="39.08210833" lon="-8.75833">
        <ele>6.0</ele>
        <time>2019-05-16T15:53:21.912Z</time>
      </trkpt>
      <trkpt lat="39.08216333" lon="-8.75829">
        <ele>6.0</ele>
        <time>2019-05-16T15:53:22.939Z</time>
      </trkpt>
      <trkpt lat="39.08216333" lon="-8.75829">
        <ele>6.0</ele>
        <time>2019-05-16T15:53:23.931Z</time>
      </trkpt>
      <trkpt lat="39.082215" lon="-8.75825">
        <ele>6.0</ele>
        <time>2019-05-16T15:53:24.912Z</time>
      </trkpt>
      <trkpt lat="39.082215" lon="-8.75825">
        <ele>6.0</ele>
        <time>2019-05-16T15:53:25.921Z</time>
      </trkpt>
      <trkpt lat="39.08226333" lon="-8.758215">
        <ele>6.0</ele>
        <time>2019-05-16T15:53:26.902Z</time>
      </trkpt>
      <trkpt lat="39.08226333" lon="-8.758215">
        <ele>6.0</ele>
        <time>2019-05-16T15:53:27.924Z</time>
      </trkpt>
      <trkpt lat="39.082295" lon="-8.75820167">
        <ele>6.0</ele>
        <time>2019-05-16T15:53:28.912Z</time>
      </trkpt>
      <trkpt lat="39.082295" lon="-8.75820167">
        <ele>6.0</ele>
        <time>2019-05-16T15:53:29.919Z</time>
      </trkpt>
      <trkpt lat="39.08229833" lon="-8.75820167">
        <ele>6.0</ele>
        <time>2019-05-16T15:53:30.923Z</time>
      </trkpt>
      <trkpt lat="39.08229833" lon="-8.75820167">
        <ele>6.0</ele>
        <time>2019-05-16T15:53:31.933Z</time>
      </trkpt>
      <trkpt lat="39.08229833" lon="-8.75820167">
        <ele>6.0</ele>
        <time>2019-05-16T15:53:32.924Z</time>
      </trkpt>
      <trkpt lat="39.08229833" lon="-8.75820167">
        <ele>6.0</ele>
        <time>2019-05-16T15:53:33.933Z</time>
      </trkpt>
      <trkpt lat="39.08232" lon="-8.75817333">
        <ele>6.0</ele>
        <time>2019-05-16T15:53:34.899Z</time>
      </trkpt>
      <trkpt lat="39.08232" lon="-8.75817333">
        <ele>6.0</ele>
        <time>2019-05-16T15:53:35.905Z</time>
      </trkpt>
      <trkpt lat="39.082345" lon="-8.75815">
        <ele>6.0</ele>
        <time>2019-05-16T15:53:36.935Z</time>
      </trkpt>
      <trkpt lat="39.082345" lon="-8.75815">
        <ele>6.0</ele>
        <time>2019-05-16T15:53:37.929Z</time>
      </trkpt>
      <trkpt lat="39.08235" lon="-8.75814333">
        <ele>6.0</ele>
        <time>2019-05-16T15:53:38.936Z</time>
      </trkpt>
      <trkpt lat="39.08235" lon="-8.75814333">
        <ele>6.0</ele>
        <time>2019-05-16T15:53:39.919Z</time>
      </trkpt>
      <trkpt lat="39.08235" lon="-8.75814167">
        <ele>7.0</ele>
        <time>2019-05-16T15:53:40.908Z</time>
      </trkpt>
      <trkpt lat="39.08235" lon="-8.75814167">
        <ele>7.0</ele>
        <time>2019-05-16T15:53:41.934Z</time>
      </trkpt>
      <trkpt lat="39.08235" lon="-8.75814167">
        <ele>7.0</ele>
        <time>2019-05-16T15:53:42.932Z</time>
      </trkpt>
      <trkpt lat="39.08235" lon="-8.75814167">
        <ele>7.0</ele>
        <time>2019-05-16T15:53:43.930Z</time>
      </trkpt>
      <trkpt lat="39.08235" lon="-8.75814167">
        <ele>7.0</ele>
        <time>2019-05-16T15:53:44.936Z</time>
      </trkpt>
      <trkpt lat="39.08235" lon="-8.75814167">
        <ele>7.0</ele>
        <time>2019-05-16T15:53:45.929Z</time>
      </trkpt>
      <trkpt lat="39.08235" lon="-8.75814167">
        <ele>7.0</ele>
        <time>2019-05-16T15:53:46.934Z</time>
      </trkpt>
      <trkpt lat="39.08235" lon="-8.75814167">
        <ele>7.0</ele>
        <time>2019-05-16T15:53:47.929Z</time>
      </trkpt>
      <trkpt lat="39.08235" lon="-8.75814167">
        <ele>7.0</ele>
        <time>2019-05-16T15:53:48.934Z</time>
      </trkpt>
      <trkpt lat="39.08235" lon="-8.75814167">
        <ele>7.0</ele>
        <time>2019-05-16T15:53:49.929Z</time>
      </trkpt>
      <trkpt lat="39.08235" lon="-8.75814167">
        <ele>7.0</ele>
        <time>2019-05-16T15:53:50.934Z</time>
      </trkpt>
      <trkpt lat="39.08235" lon="-8.75814167">
        <ele>7.0</ele>
        <time>2019-05-16T15:53:51.935Z</time>
      </trkpt>
      <trkpt lat="39.08235" lon="-8.75814167">
        <ele>7.0</ele>
        <time>2019-05-16T15:53:52.935Z</time>
      </trkpt>
      <trkpt lat="39.08235" lon="-8.75814167">
        <ele>7.0</ele>
        <time>2019-05-16T15:53:53.933Z</time>
      </trkpt>
      <trkpt lat="39.08235" lon="-8.75814167">
        <ele>7.0</ele>
        <time>2019-05-16T15:53:54.934Z</time>
      </trkpt>
      <trkpt lat="39.08235" lon="-8.75814167">
        <ele>7.0</ele>
        <time>2019-05-16T15:53:55.930Z</time>
      </trkpt>
      <trkpt lat="39.08235" lon="-8.75814167">
        <ele>7.0</ele>
        <time>2019-05-16T15:53:56.902Z</time>
      </trkpt>
      <trkpt lat="39.08235" lon="-8.75814167">
        <ele>7.0</ele>
        <time>2019-05-16T15:53:57.930Z</time>
      </trkpt>
      <trkpt lat="39.08235" lon="-8.75814167">
        <ele>7.0</ele>
        <time>2019-05-16T15:53:58.935Z</time>
      </trkpt>
      <trkpt lat="39.08235" lon="-8.75814167">
        <ele>7.0</ele>
        <time>2019-05-16T15:53:59.931Z</time>
      </trkpt>
      <trkpt lat="39.08235" lon="-8.75814167">
        <ele>7.0</ele>
        <time>2019-05-16T15:54:00.914Z</time>
      </trkpt>
      <trkpt lat="39.08235" lon="-8.75814167">
        <ele>7.0</ele>
        <time>2019-05-16T15:54:01.901Z</time>
      </trkpt>
      <trkpt lat="39.08235" lon="-8.75814167">
        <ele>7.0</ele>
        <time>2019-05-16T15:54:02.897Z</time>
      </trkpt>
      <trkpt lat="39.08235" lon="-8.75814167">
        <ele>7.0</ele>
        <time>2019-05-16T15:54:03.930Z</time>
      </trkpt>
      <trkpt lat="39.08235" lon="-8.75814167">
        <ele>7.0</ele>
        <time>2019-05-16T15:54:04.935Z</time>
      </trkpt>
      <trkpt lat="39.08235" lon="-8.75814167">
        <ele>7.0</ele>
        <time>2019-05-16T15:54:05.931Z</time>
      </trkpt>
      <trkpt lat="39.08235" lon="-8.75814167">
        <ele>7.0</ele>
        <time>2019-05-16T15:54:06.936Z</time>
      </trkpt>
      <trkpt lat="39.08235" lon="-8.75814167">
        <ele>7.0</ele>
        <time>2019-05-16T15:54:07.930Z</time>
      </trkpt>
      <trkpt lat="39.08235" lon="-8.75814167">
        <ele>7.0</ele>
        <time>2019-05-16T15:54:08.897Z</time>
      </trkpt>
      <trkpt lat="39.08235" lon="-8.75814167">
        <ele>7.0</ele>
        <time>2019-05-16T15:54:09.930Z</time>
      </trkpt>
      <trkpt lat="39.08235" lon="-8.75814167">
        <ele>7.0</ele>
        <time>2019-05-16T15:54:10.909Z</time>
      </trkpt>
      <trkpt lat="39.08235" lon="-8.75814167">
        <ele>7.0</ele>
        <time>2019-05-16T15:54:11.935Z</time>
      </trkpt>
      <trkpt lat="39.08235" lon="-8.75814167">
        <ele>7.0</ele>
        <time>2019-05-16T15:54:12.934Z</time>
      </trkpt>
      <trkpt lat="39.08235" lon="-8.75814167">
        <ele>7.0</ele>
        <time>2019-05-16T15:54:13.930Z</time>
      </trkpt>
      <trkpt lat="39.08235" lon="-8.75814167">
        <ele>7.0</ele>
        <time>2019-05-16T15:54:14.898Z</time>
      </trkpt>
      <trkpt lat="39.08235" lon="-8.75814167">
        <ele>7.0</ele>
        <time>2019-05-16T15:54:15.929Z</time>
      </trkpt>
      <trkpt lat="39.08235" lon="-8.75814167">
        <ele>7.0</ele>
        <time>2019-05-16T15:54:16.935Z</time>
      </trkpt>
      <trkpt lat="39.08235" lon="-8.75814167">
        <ele>7.0</ele>
        <time>2019-05-16T15:54:17.930Z</time>
      </trkpt>
      <trkpt lat="39.08235" lon="-8.75814167">
        <ele>7.0</ele>
        <time>2019-05-16T15:54:18.935Z</time>
      </trkpt>
      <trkpt lat="39.08235" lon="-8.75814167">
        <ele>7.0</ele>
        <time>2019-05-16T15:54:19.930Z</time>
      </trkpt>
      <trkpt lat="39.08235" lon="-8.75814167">
        <ele>7.0</ele>
        <time>2019-05-16T15:54:20.933Z</time>
      </trkpt>
      <trkpt lat="39.08235" lon="-8.75814167">
        <ele>7.0</ele>
        <time>2019-05-16T15:54:21.914Z</time>
      </trkpt>
      <trkpt lat="39.08235" lon="-8.75814167">
        <ele>7.0</ele>
        <time>2019-05-16T15:54:22.920Z</time>
      </trkpt>
      <trkpt lat="39.08235" lon="-8.75814167">
        <ele>7.0</ele>
        <time>2019-05-16T15:54:23.930Z</time>
      </trkpt>
      <trkpt lat="39.08235" lon="-8.75814167">
        <ele>7.0</ele>
        <time>2019-05-16T15:54:24.934Z</time>
      </trkpt>
      <trkpt lat="39.08235" lon="-8.75814167">
        <ele>7.0</ele>
        <time>2019-05-16T15:54:25.906Z</time>
      </trkpt>
      <trkpt lat="39.08235" lon="-8.75814167">
        <ele>7.0</ele>
        <time>2019-05-16T15:54:26.936Z</time>
      </trkpt>
      <trkpt lat="39.08235" lon="-8.75814167">
        <ele>7.0</ele>
        <time>2019-05-16T15:54:27.899Z</time>
      </trkpt>
      <trkpt lat="39.08235" lon="-8.75814167">
        <ele>7.0</ele>
        <time>2019-05-16T15:54:28.935Z</time>
      </trkpt>
      <trkpt lat="39.08235" lon="-8.75814167">
        <ele>7.0</ele>
        <time>2019-05-16T15:54:29.932Z</time>
      </trkpt>
      <trkpt lat="39.08235" lon="-8.75814167">
        <ele>7.0</ele>
        <time>2019-05-16T15:54:30.935Z</time>
      </trkpt>
      <trkpt lat="39.08235" lon="-8.75814167">
        <ele>7.0</ele>
        <time>2019-05-16T15:54:31.931Z</time>
      </trkpt>
      <trkpt lat="39.08235" lon="-8.75814167">
        <ele>7.0</ele>
        <time>2019-05-16T15:54:32.897Z</time>
      </trkpt>
      <trkpt lat="39.08235" lon="-8.75814167">
        <ele>7.0</ele>
        <time>2019-05-16T15:54:33.930Z</time>
      </trkpt>
      <trkpt lat="39.08235" lon="-8.75814167">
        <ele>7.0</ele>
        <time>2019-05-16T15:54:34.934Z</time>
      </trkpt>
      <trkpt lat="39.08235" lon="-8.75814167">
        <ele>7.0</ele>
        <time>2019-05-16T15:54:35.930Z</time>
      </trkpt>
      <trkpt lat="39.08235" lon="-8.75814167">
        <ele>7.0</ele>
        <time>2019-05-16T15:54:36.935Z</time>
      </trkpt>
      <trkpt lat="39.08235" lon="-8.75814167">
        <ele>7.0</ele>
        <time>2019-05-16T15:54:37.935Z</time>
      </trkpt>
      <trkpt lat="39.08235" lon="-8.75814167">
        <ele>7.0</ele>
        <time>2019-05-16T15:54:38.932Z</time>
      </trkpt>
      <trkpt lat="39.08235" lon="-8.75814167">
        <ele>7.0</ele>
        <time>2019-05-16T15:54:39.935Z</time>
      </trkpt>
      <trkpt lat="39.08235" lon="-8.75814167">
        <ele>7.0</ele>
        <time>2019-05-16T15:54:40.932Z</time>
      </trkpt>
      <trkpt lat="39.08235" lon="-8.75814167">
        <ele>7.0</ele>
        <time>2019-05-16T15:54:41.935Z</time>
      </trkpt>
      <trkpt lat="39.08235" lon="-8.75814167">
        <ele>7.0</ele>
        <time>2019-05-16T15:54:42.932Z</time>
      </trkpt>
      <trkpt lat="39.08235" lon="-8.75814167">
        <ele>7.0</ele>
        <time>2019-05-16T15:54:43.935Z</time>
      </trkpt>
      <trkpt lat="39.08235" lon="-8.75814167">
        <ele>7.0</ele>
        <time>2019-05-16T15:54:44.897Z</time>
      </trkpt>
      <trkpt lat="39.08235" lon="-8.75814167">
        <ele>7.0</ele>
        <time>2019-05-16T15:54:45.929Z</time>
      </trkpt>
      <trkpt lat="39.08235" lon="-8.75814167">
        <ele>7.0</ele>
        <time>2019-05-16T15:54:46.935Z</time>
      </trkpt>
      <trkpt lat="39.08235" lon="-8.75814167">
        <ele>7.0</ele>
        <time>2019-05-16T15:54:47.930Z</time>
      </trkpt>
      <trkpt lat="39.08235" lon="-8.75814167">
        <ele>7.0</ele>
        <time>2019-05-16T15:54:48.934Z</time>
      </trkpt>
      <trkpt lat="39.08235" lon="-8.75814167">
        <ele>7.0</ele>
        <time>2019-05-16T15:54:49.930Z</time>
      </trkpt>
      <trkpt lat="39.08235" lon="-8.75814167">
        <ele>7.0</ele>
        <time>2019-05-16T15:54:50.898Z</time>
      </trkpt>
      <trkpt lat="39.08235" lon="-8.75814167">
        <ele>7.0</ele>
        <time>2019-05-16T15:54:51.930Z</time>
      </trkpt>
      <trkpt lat="39.08235" lon="-8.75814167">
        <ele>7.0</ele>
        <time>2019-05-16T15:54:52.935Z</time>
      </trkpt>
      <trkpt lat="39.08235" lon="-8.75814167">
        <ele>7.0</ele>
        <time>2019-05-16T15:54:53.930Z</time>
      </trkpt>
      <trkpt lat="39.08235" lon="-8.75814167">
        <ele>7.0</ele>
        <time>2019-05-16T15:54:54.935Z</time>
      </trkpt>
      <trkpt lat="39.08235" lon="-8.75814167">
        <ele>7.0</ele>
        <time>2019-05-16T15:54:55.930Z</time>
      </trkpt>
      <trkpt lat="39.08235" lon="-8.75814167">
        <ele>7.0</ele>
        <time>2019-05-16T15:54:56.897Z</time>
      </trkpt>
      <trkpt lat="39.08235" lon="-8.75814167">
        <ele>7.0</ele>
        <time>2019-05-16T15:54:57.929Z</time>
      </trkpt>
      <trkpt lat="39.08235" lon="-8.75814167">
        <ele>7.0</ele>
        <time>2019-05-16T15:54:58.935Z</time>
      </trkpt>
      <trkpt lat="39.08235" lon="-8.75814167">
        <ele>7.0</ele>
        <time>2019-05-16T15:54:59.934Z</time>
      </trkpt>
      <trkpt lat="39.08235" lon="-8.75814167">
        <ele>7.0</ele>
        <time>2019-05-16T15:55:00.928Z</time>
      </trkpt>
      <trkpt lat="39.08235" lon="-8.75814167">
        <ele>7.0</ele>
        <time>2019-05-16T15:55:01.901Z</time>
      </trkpt>
      <trkpt lat="39.08235" lon="-8.75814167">
        <ele>7.0</ele>
        <time>2019-05-16T15:55:02.897Z</time>
      </trkpt>
      <trkpt lat="39.08235" lon="-8.75814167">
        <ele>7.0</ele>
        <time>2019-05-16T15:55:03.930Z</time>
      </trkpt>
      <trkpt lat="39.08235" lon="-8.75814167">
        <ele>7.0</ele>
        <time>2019-05-16T15:55:04.934Z</time>
      </trkpt>
      <trkpt lat="39.08235" lon="-8.75814167">
        <ele>7.0</ele>
        <time>2019-05-16T15:55:05.930Z</time>
      </trkpt>
      <trkpt lat="39.08235" lon="-8.75814167">
        <ele>7.0</ele>
        <time>2019-05-16T15:55:06.932Z</time>
      </trkpt>
      <trkpt lat="39.08235" lon="-8.75814167">
        <ele>7.0</ele>
        <time>2019-05-16T15:55:07.930Z</time>
      </trkpt>
      <trkpt lat="39.08235" lon="-8.75814167">
        <ele>7.0</ele>
        <time>2019-05-16T15:55:08.936Z</time>
      </trkpt>
      <trkpt lat="39.08235" lon="-8.75814167">
        <ele>7.0</ele>
        <time>2019-05-16T15:55:09.932Z</time>
      </trkpt>
      <trkpt lat="39.08235" lon="-8.75814167">
        <ele>7.0</ele>
        <time>2019-05-16T15:55:10.927Z</time>
      </trkpt>
      <trkpt lat="39.08235" lon="-8.75814167">
        <ele>7.0</ele>
        <time>2019-05-16T15:55:11.934Z</time>
      </trkpt>
      <trkpt lat="39.08235" lon="-8.75814167">
        <ele>7.0</ele>
        <time>2019-05-16T15:55:12.930Z</time>
      </trkpt>
      <trkpt lat="39.08235" lon="-8.75814167">
        <ele>7.0</ele>
        <time>2019-05-16T15:55:13.934Z</time>
      </trkpt>
      <trkpt lat="39.08235" lon="-8.75814167">
        <ele>7.0</ele>
        <time>2019-05-16T15:55:14.897Z</time>
      </trkpt>
      <trkpt lat="39.08235" lon="-8.75814167">
        <ele>7.0</ele>
        <time>2019-05-16T15:55:15.929Z</time>
      </trkpt>
      <trkpt lat="39.08235" lon="-8.75814167">
        <ele>7.0</ele>
        <time>2019-05-16T15:55:16.935Z</time>
      </trkpt>
      <trkpt lat="39.08235" lon="-8.75814167">
        <ele>7.0</ele>
        <time>2019-05-16T15:55:17.930Z</time>
      </trkpt>
      <trkpt lat="39.08237833" lon="-8.75808833">
        <ele>6.0</ele>
        <time>2019-05-16T15:55:18.935Z</time>
      </trkpt>
      <trkpt lat="39.08238167" lon="-8.75808667">
        <ele>6.0</ele>
        <time>2019-05-16T15:55:19.935Z</time>
      </trkpt>
      <trkpt lat="39.08238167" lon="-8.75808667">
        <ele>6.0</ele>
        <time>2019-05-16T15:55:20.906Z</time>
      </trkpt>
      <trkpt lat="39.08238333" lon="-8.75808333">
        <ele>6.0</ele>
        <time>2019-05-16T15:55:21.930Z</time>
      </trkpt>
      <trkpt lat="39.08238333" lon="-8.75808333">
        <ele>6.0</ele>
        <time>2019-05-16T15:55:22.937Z</time>
      </trkpt>
      <trkpt lat="39.08238333" lon="-8.75808333">
        <ele>6.0</ele>
        <time>2019-05-16T15:55:23.902Z</time>
      </trkpt>
      <trkpt lat="39.08238333" lon="-8.75808333">
        <ele>6.0</ele>
        <time>2019-05-16T15:55:24.930Z</time>
      </trkpt>
      <trkpt lat="39.08238333" lon="-8.75808333">
        <ele>6.0</ele>
        <time>2019-05-16T15:55:25.935Z</time>
      </trkpt>
      <trkpt lat="39.08238333" lon="-8.75808333">
        <ele>6.0</ele>
        <time>2019-05-16T15:55:26.909Z</time>
      </trkpt>
      <trkpt lat="39.08238333" lon="-8.75808333">
        <ele>6.0</ele>
        <time>2019-05-16T15:55:27.934Z</time>
      </trkpt>
      <trkpt lat="39.08238333" lon="-8.75808333">
        <ele>6.0</ele>
        <time>2019-05-16T15:55:28.935Z</time>
      </trkpt>
      <trkpt lat="39.08238333" lon="-8.75808333">
        <ele>6.0</ele>
        <time>2019-05-16T15:55:29.930Z</time>
      </trkpt>
      <trkpt lat="39.08238333" lon="-8.75808333">
        <ele>6.0</ele>
        <time>2019-05-16T15:55:30.935Z</time>
      </trkpt>
      <trkpt lat="39.08238333" lon="-8.75808333">
        <ele>6.0</ele>
        <time>2019-05-16T15:55:31.934Z</time>
      </trkpt>
      <trkpt lat="39.08238333" lon="-8.75808333">
        <ele>6.0</ele>
        <time>2019-05-16T15:55:32.897Z</time>
      </trkpt>
      <trkpt lat="39.08238333" lon="-8.75808333">
        <ele>6.0</ele>
        <time>2019-05-16T15:55:33.930Z</time>
      </trkpt>
      <trkpt lat="39.08238333" lon="-8.75808333">
        <ele>6.0</ele>
        <time>2019-05-16T15:55:34.935Z</time>
      </trkpt>
      <trkpt lat="39.08238333" lon="-8.75808333">
        <ele>6.0</ele>
        <time>2019-05-16T15:55:35.933Z</time>
      </trkpt>
      <trkpt lat="39.08238333" lon="-8.75808333">
        <ele>6.0</ele>
        <time>2019-05-16T15:55:36.935Z</time>
      </trkpt>
      <trkpt lat="39.08238333" lon="-8.75808333">
        <ele>6.0</ele>
        <time>2019-05-16T15:55:37.935Z</time>
      </trkpt>
      <trkpt lat="39.08238333" lon="-8.75808333">
        <ele>6.0</ele>
        <time>2019-05-16T15:55:38.932Z</time>
      </trkpt>
      <trkpt lat="39.08238333" lon="-8.75808333">
        <ele>6.0</ele>
        <time>2019-05-16T15:55:39.934Z</time>
      </trkpt>
      <trkpt lat="39.08238333" lon="-8.75808333">
        <ele>6.0</ele>
        <time>2019-05-16T15:55:40.930Z</time>
      </trkpt>
      <trkpt lat="39.08238333" lon="-8.75808333">
        <ele>6.0</ele>
        <time>2019-05-16T15:55:41.935Z</time>
      </trkpt>
      <trkpt lat="39.08238333" lon="-8.75808333">
        <ele>6.0</ele>
        <time>2019-05-16T15:55:42.930Z</time>
      </trkpt>
      <trkpt lat="39.08238333" lon="-8.75808333">
        <ele>6.0</ele>
        <time>2019-05-16T15:55:43.935Z</time>
      </trkpt>
      <trkpt lat="39.08238333" lon="-8.75808333">
        <ele>6.0</ele>
        <time>2019-05-16T15:55:44.936Z</time>
      </trkpt>
      <trkpt lat="39.08238333" lon="-8.75808333">
        <ele>6.0</ele>
        <time>2019-05-16T15:55:45.929Z</time>
      </trkpt>
      <trkpt lat="39.08238333" lon="-8.75808333">
        <ele>6.0</ele>
        <time>2019-05-16T15:55:46.897Z</time>
      </trkpt>
      <trkpt lat="39.08238333" lon="-8.75808333">
        <ele>6.0</ele>
        <time>2019-05-16T15:55:47.929Z</time>
      </trkpt>
      <trkpt lat="39.08238333" lon="-8.75808333">
        <ele>6.0</ele>
        <time>2019-05-16T15:55:48.934Z</time>
      </trkpt>
      <trkpt lat="39.08238333" lon="-8.75808333">
        <ele>6.0</ele>
        <time>2019-05-16T15:55:49.932Z</time>
      </trkpt>
      <trkpt lat="39.08238333" lon="-8.75808333">
        <ele>6.0</ele>
        <time>2019-05-16T15:55:50.898Z</time>
      </trkpt>
      <trkpt lat="39.08238333" lon="-8.75808333">
        <ele>6.0</ele>
        <time>2019-05-16T15:55:51.930Z</time>
      </trkpt>
      <trkpt lat="39.08238333" lon="-8.75808333">
        <ele>6.0</ele>
        <time>2019-05-16T15:55:52.935Z</time>
      </trkpt>
      <trkpt lat="39.08238333" lon="-8.75808333">
        <ele>6.0</ele>
        <time>2019-05-16T15:55:53.930Z</time>
      </trkpt>
      <trkpt lat="39.08238333" lon="-8.75808333">
        <ele>6.0</ele>
        <time>2019-05-16T15:55:54.935Z</time>
      </trkpt>
      <trkpt lat="39.08238333" lon="-8.75808333">
        <ele>6.0</ele>
        <time>2019-05-16T15:55:55.928Z</time>
      </trkpt>
      <trkpt lat="39.08238333" lon="-8.75808333">
        <ele>6.0</ele>
        <time>2019-05-16T15:55:56.914Z</time>
      </trkpt>
      <trkpt lat="39.08238333" lon="-8.75808333">
        <ele>6.0</ele>
        <time>2019-05-16T15:55:57.900Z</time>
      </trkpt>
      <trkpt lat="39.08238333" lon="-8.75808333">
        <ele>6.0</ele>
        <time>2019-05-16T15:55:58.935Z</time>
      </trkpt>
      <trkpt lat="39.08238333" lon="-8.75808333">
        <ele>6.0</ele>
        <time>2019-05-16T15:55:59.930Z</time>
      </trkpt>
      <trkpt lat="39.08238333" lon="-8.75808333">
        <ele>6.0</ele>
        <time>2019-05-16T15:56:00.935Z</time>
      </trkpt>
      <trkpt lat="39.08238333" lon="-8.75808333">
        <ele>6.0</ele>
        <time>2019-05-16T15:56:01.931Z</time>
      </trkpt>
      <trkpt lat="39.08238333" lon="-8.75808333">
        <ele>6.0</ele>
        <time>2019-05-16T15:56:02.936Z</time>
      </trkpt>
      <trkpt lat="39.08238333" lon="-8.75808333">
        <ele>6.0</ele>
        <time>2019-05-16T15:56:03.930Z</time>
      </trkpt>
      <trkpt lat="39.08238833" lon="-8.75805833">
        <ele>7.0</ele>
        <time>2019-05-16T15:56:04.935Z</time>
      </trkpt>
      <trkpt lat="39.08238833" lon="-8.75805833">
        <ele>7.0</ele>
        <time>2019-05-16T15:56:05.929Z</time>
      </trkpt>
      <trkpt lat="39.082415" lon="-8.75802">
        <ele>7.0</ele>
        <time>2019-05-16T15:56:06.936Z</time>
      </trkpt>
      <trkpt lat="39.082415" lon="-8.75802">
        <ele>7.0</ele>
        <time>2019-05-16T15:56:07.929Z</time>
      </trkpt>
      <trkpt lat="39.08245333" lon="-8.75797">
        <ele>6.0</ele>
        <time>2019-05-16T15:56:08.898Z</time>
      </trkpt>
      <trkpt lat="39.08245333" lon="-8.75797">
        <ele>6.0</ele>
        <time>2019-05-16T15:56:09.897Z</time>
      </trkpt>
      <trkpt lat="39.08249" lon="-8.75792167">
        <ele>6.0</ele>
        <time>2019-05-16T15:56:10.916Z</time>
      </trkpt>
      <trkpt lat="39.08249" lon="-8.75792167">
        <ele>6.0</ele>
        <time>2019-05-16T15:56:11.923Z</time>
      </trkpt>
      <trkpt lat="39.08252667" lon="-8.75788">
        <ele>6.0</ele>
        <time>2019-05-16T15:56:12.904Z</time>
      </trkpt>
      <trkpt lat="39.08252667" lon="-8.75788">
        <ele>6.0</ele>
        <time>2019-05-16T15:56:13.933Z</time>
      </trkpt>
      <trkpt lat="39.08254833" lon="-8.75783333">
        <ele>6.0</ele>
        <time>2019-05-16T15:56:14.920Z</time>
      </trkpt>
      <trkpt lat="39.08254833" lon="-8.75783333">
        <ele>6.0</ele>
        <time>2019-05-16T15:56:15.924Z</time>
      </trkpt>
      <trkpt lat="39.08255667" lon="-8.75777833">
        <ele>6.0</ele>
        <time>2019-05-16T15:56:16.902Z</time>
      </trkpt>
      <trkpt lat="39.08255667" lon="-8.75777833">
        <ele>6.0</ele>
        <time>2019-05-16T15:56:17.933Z</time>
      </trkpt>
      <trkpt lat="39.082555" lon="-8.75772167">
        <ele>5.0</ele>
        <time>2019-05-16T15:56:18.922Z</time>
      </trkpt>
      <trkpt lat="39.082555" lon="-8.75772167">
        <ele>5.0</ele>
        <time>2019-05-16T15:56:19.903Z</time>
      </trkpt>
      <trkpt lat="39.08255" lon="-8.75766167">
        <ele>6.0</ele>
        <time>2019-05-16T15:56:20.914Z</time>
      </trkpt>
      <trkpt lat="39.08255" lon="-8.75766167">
        <ele>6.0</ele>
        <time>2019-05-16T15:56:21.920Z</time>
      </trkpt>
      <trkpt lat="39.08255333" lon="-8.7576">
        <ele>7.0</ele>
        <time>2019-05-16T15:56:22.941Z</time>
      </trkpt>
      <trkpt lat="39.08255333" lon="-8.7576">
        <ele>7.0</ele>
        <time>2019-05-16T15:56:23.923Z</time>
      </trkpt>
      <trkpt lat="39.08256667" lon="-8.75754833">
        <ele>7.0</ele>
        <time>2019-05-16T15:56:24.905Z</time>
      </trkpt>
      <trkpt lat="39.08256667" lon="-8.75754833">
        <ele>7.0</ele>
        <time>2019-05-16T15:56:25.900Z</time>
      </trkpt>
      <trkpt lat="39.08258833" lon="-8.75749833">
        <ele>7.0</ele>
        <time>2019-05-16T15:56:26.903Z</time>
      </trkpt>
      <trkpt lat="39.08258833" lon="-8.75749833">
        <ele>7.0</ele>
        <time>2019-05-16T15:56:27.920Z</time>
      </trkpt>
      <trkpt lat="39.082605" lon="-8.75744667">
        <ele>7.0</ele>
        <time>2019-05-16T15:56:28.901Z</time>
      </trkpt>
      <trkpt lat="39.082605" lon="-8.75744667">
        <ele>7.0</ele>
        <time>2019-05-16T15:56:29.928Z</time>
      </trkpt>
      <trkpt lat="39.08262333" lon="-8.75740333">
        <ele>7.0</ele>
        <time>2019-05-16T15:56:30.910Z</time>
      </trkpt>
      <trkpt lat="39.08262333" lon="-8.75740333">
        <ele>7.0</ele>
        <time>2019-05-16T15:56:31.913Z</time>
      </trkpt>
      <trkpt lat="39.082645" lon="-8.757355">
        <ele>7.0</ele>
        <time>2019-05-16T15:56:32.897Z</time>
      </trkpt>
      <trkpt lat="39.082645" lon="-8.757355">
        <ele>7.0</ele>
        <time>2019-05-16T15:56:33.929Z</time>
      </trkpt>
      <trkpt lat="39.08267167" lon="-8.75731667">
        <ele>7.0</ele>
        <time>2019-05-16T15:56:34.911Z</time>
      </trkpt>
      <trkpt lat="39.08267167" lon="-8.75731667">
        <ele>7.0</ele>
        <time>2019-05-16T15:56:35.922Z</time>
      </trkpt>
      <trkpt lat="39.082695" lon="-8.75727833">
        <ele>7.0</ele>
        <time>2019-05-16T15:56:36.907Z</time>
      </trkpt>
      <trkpt lat="39.082695" lon="-8.75727833">
        <ele>7.0</ele>
        <time>2019-05-16T15:56:37.921Z</time>
      </trkpt>
      <trkpt lat="39.08272833" lon="-8.75723">
        <ele>7.0</ele>
        <time>2019-05-16T15:56:38.953Z</time>
      </trkpt>
      <trkpt lat="39.08272833" lon="-8.75723">
        <ele>7.0</ele>
        <time>2019-05-16T15:56:39.914Z</time>
      </trkpt>
      <trkpt lat="39.08276833" lon="-8.757185">
        <ele>7.0</ele>
        <time>2019-05-16T15:56:40.929Z</time>
      </trkpt>
      <trkpt lat="39.08276833" lon="-8.757185">
        <ele>7.0</ele>
        <time>2019-05-16T15:56:41.930Z</time>
      </trkpt>
      <trkpt lat="39.0828" lon="-8.75713667">
        <ele>7.0</ele>
        <time>2019-05-16T15:56:42.911Z</time>
      </trkpt>
      <trkpt lat="39.0828" lon="-8.75713667">
        <ele>7.0</ele>
        <time>2019-05-16T15:56:43.904Z</time>
      </trkpt>
      <trkpt lat="39.082825" lon="-8.757085">
        <ele>7.0</ele>
        <time>2019-05-16T15:56:44.922Z</time>
      </trkpt>
      <trkpt lat="39.082825" lon="-8.757085">
        <ele>7.0</ele>
        <time>2019-05-16T15:56:45.904Z</time>
      </trkpt>
      <trkpt lat="39.08284667" lon="-8.75703167">
        <ele>7.0</ele>
        <time>2019-05-16T15:56:46.926Z</time>
      </trkpt>
      <trkpt lat="39.08284667" lon="-8.75703167">
        <ele>7.0</ele>
        <time>2019-05-16T15:56:47.913Z</time>
      </trkpt>
      <trkpt lat="39.08287" lon="-8.75698833">
        <ele>7.0</ele>
        <time>2019-05-16T15:56:48.941Z</time>
      </trkpt>
      <trkpt lat="39.08287" lon="-8.75698833">
        <ele>7.0</ele>
        <time>2019-05-16T15:56:49.897Z</time>
      </trkpt>
      <trkpt lat="39.082905" lon="-8.75695667">
        <ele>7.0</ele>
        <time>2019-05-16T15:56:50.913Z</time>
      </trkpt>
      <trkpt lat="39.082905" lon="-8.75695667">
        <ele>7.0</ele>
        <time>2019-05-16T15:56:51.923Z</time>
      </trkpt>
      <trkpt lat="39.08294667" lon="-8.75692667">
        <ele>7.0</ele>
        <time>2019-05-16T15:56:52.901Z</time>
      </trkpt>
      <trkpt lat="39.08294667" lon="-8.75692667">
        <ele>7.0</ele>
        <time>2019-05-16T15:56:53.921Z</time>
      </trkpt>
      <trkpt lat="39.083005" lon="-8.75689333">
        <ele>6.0</ele>
        <time>2019-05-16T15:56:54.901Z</time>
      </trkpt>
      <trkpt lat="39.083005" lon="-8.75689333">
        <ele>6.0</ele>
        <time>2019-05-16T15:56:55.921Z</time>
      </trkpt>
      <trkpt lat="39.08308" lon="-8.75686833">
        <ele>6.0</ele>
        <time>2019-05-16T15:56:56.909Z</time>
      </trkpt>
      <trkpt lat="39.08308" lon="-8.75686833">
        <ele>6.0</ele>
        <time>2019-05-16T15:56:57.915Z</time>
      </trkpt>
      <trkpt lat="39.08316167" lon="-8.75683333">
        <ele>5.0</ele>
        <time>2019-05-16T15:56:58.901Z</time>
      </trkpt>
      <trkpt lat="39.08316167" lon="-8.75683333">
        <ele>5.0</ele>
        <time>2019-05-16T15:56:59.930Z</time>
      </trkpt>
      <trkpt lat="39.08323667" lon="-8.756785">
        <ele>5.0</ele>
        <time>2019-05-16T15:57:00.918Z</time>
      </trkpt>
      <trkpt lat="39.08323667" lon="-8.756785">
        <ele>5.0</ele>
        <time>2019-05-16T15:57:01.921Z</time>
      </trkpt>
      <trkpt lat="39.08330833" lon="-8.75674833">
        <ele>5.0</ele>
        <time>2019-05-16T15:57:02.903Z</time>
      </trkpt>
      <trkpt lat="39.08330833" lon="-8.75674833">
        <ele>5.0</ele>
        <time>2019-05-16T15:57:03.933Z</time>
      </trkpt>
      <trkpt lat="39.083375" lon="-8.756715">
        <ele>5.0</ele>
        <time>2019-05-16T15:57:04.921Z</time>
      </trkpt>
      <trkpt lat="39.083375" lon="-8.756715">
        <ele>5.0</ele>
        <time>2019-05-16T15:57:05.900Z</time>
      </trkpt>
      <trkpt lat="39.08343333" lon="-8.75667833">
        <ele>5.0</ele>
        <time>2019-05-16T15:57:06.922Z</time>
      </trkpt>
      <trkpt lat="39.08343333" lon="-8.75667833">
        <ele>5.0</ele>
        <time>2019-05-16T15:57:07.897Z</time>
      </trkpt>
      <trkpt lat="39.08349167" lon="-8.756645">
        <ele>5.0</ele>
        <time>2019-05-16T15:57:08.917Z</time>
      </trkpt>
      <trkpt lat="39.08349167" lon="-8.756645">
        <ele>5.0</ele>
        <time>2019-05-16T15:57:09.901Z</time>
      </trkpt>
      <trkpt lat="39.08354833" lon="-8.75660833">
        <ele>4.0</ele>
        <time>2019-05-16T15:57:10.931Z</time>
      </trkpt>
      <trkpt lat="39.08354833" lon="-8.75660833">
        <ele>4.0</ele>
        <time>2019-05-16T15:57:11.903Z</time>
      </trkpt>
      <trkpt lat="39.08360833" lon="-8.75657333">
        <ele>4.0</ele>
        <time>2019-05-16T15:57:12.927Z</time>
      </trkpt>
      <trkpt lat="39.08360833" lon="-8.75657333">
        <ele>4.0</ele>
        <time>2019-05-16T15:57:13.904Z</time>
      </trkpt>
      <trkpt lat="39.083665" lon="-8.75653">
        <ele>4.0</ele>
        <time>2019-05-16T15:57:14.921Z</time>
      </trkpt>
      <trkpt lat="39.083665" lon="-8.75653">
        <ele>4.0</ele>
        <time>2019-05-16T15:57:15.913Z</time>
      </trkpt>
      <trkpt lat="39.08372667" lon="-8.75649167">
        <ele>4.0</ele>
        <time>2019-05-16T15:57:16.911Z</time>
      </trkpt>
      <trkpt lat="39.08372667" lon="-8.75649167">
        <ele>4.0</ele>
        <time>2019-05-16T15:57:17.907Z</time>
      </trkpt>
      <trkpt lat="39.08378333" lon="-8.75645333">
        <ele>4.0</ele>
        <time>2019-05-16T15:57:18.934Z</time>
      </trkpt>
      <trkpt lat="39.08378333" lon="-8.75645333">
        <ele>4.0</ele>
        <time>2019-05-16T15:57:19.933Z</time>
      </trkpt>
      <trkpt lat="39.08383833" lon="-8.75641">
        <ele>4.0</ele>
        <time>2019-05-16T15:57:20.952Z</time>
      </trkpt>
      <trkpt lat="39.08386833" lon="-8.75639">
        <ele>4.0</ele>
        <time>2019-05-16T15:57:21.912Z</time>
      </trkpt>
      <trkpt lat="39.08386833" lon="-8.75639">
        <ele>4.0</ele>
        <time>2019-05-16T15:57:22.922Z</time>
      </trkpt>
      <trkpt lat="39.08392667" lon="-8.756355">
        <ele>4.0</ele>
        <time>2019-05-16T15:57:23.909Z</time>
      </trkpt>
      <trkpt lat="39.08392667" lon="-8.756355">
        <ele>4.0</ele>
        <time>2019-05-16T15:57:24.924Z</time>
      </trkpt>
      <trkpt lat="39.08398667" lon="-8.75631667">
        <ele>4.0</ele>
        <time>2019-05-16T15:57:25.898Z</time>
      </trkpt>
      <trkpt lat="39.08401667" lon="-8.756295">
        <ele>4.0</ele>
        <time>2019-05-16T15:57:26.919Z</time>
      </trkpt>
      <trkpt lat="39.08401667" lon="-8.756295">
        <ele>4.0</ele>
        <time>2019-05-16T15:57:27.904Z</time>
      </trkpt>
      <trkpt lat="39.08407167" lon="-8.75624833">
        <ele>4.0</ele>
        <time>2019-05-16T15:57:28.922Z</time>
      </trkpt>
      <trkpt lat="39.08407167" lon="-8.75624833">
        <ele>4.0</ele>
        <time>2019-05-16T15:57:29.901Z</time>
      </trkpt>
      <trkpt lat="39.08413" lon="-8.756205">
        <ele>3.0</ele>
        <time>2019-05-16T15:57:30.915Z</time>
      </trkpt>
      <trkpt lat="39.08413" lon="-8.756205">
        <ele>3.0</ele>
        <time>2019-05-16T15:57:31.922Z</time>
      </trkpt>
      <trkpt lat="39.08418667" lon="-8.75616667">
        <ele>3.0</ele>
        <time>2019-05-16T15:57:32.913Z</time>
      </trkpt>
      <trkpt lat="39.08418667" lon="-8.75616667">
        <ele>3.0</ele>
        <time>2019-05-16T15:57:33.936Z</time>
      </trkpt>
      <trkpt lat="39.08424" lon="-8.75612667">
        <ele>3.0</ele>
        <time>2019-05-16T15:57:34.923Z</time>
      </trkpt>
      <trkpt lat="39.08424" lon="-8.75612667">
        <ele>3.0</ele>
        <time>2019-05-16T15:57:35.906Z</time>
      </trkpt>
      <trkpt lat="39.08429167" lon="-8.75609333">
        <ele>3.0</ele>
        <time>2019-05-16T15:57:36.928Z</time>
      </trkpt>
      <trkpt lat="39.08429167" lon="-8.75609333">
        <ele>3.0</ele>
        <time>2019-05-16T15:57:37.914Z</time>
      </trkpt>
      <trkpt lat="39.08434" lon="-8.75605333">
        <ele>3.0</ele>
        <time>2019-05-16T15:57:38.900Z</time>
      </trkpt>
      <trkpt lat="39.08434" lon="-8.75605333">
        <ele>3.0</ele>
        <time>2019-05-16T15:57:39.913Z</time>
      </trkpt>
      <trkpt lat="39.08439" lon="-8.756015">
        <ele>3.0</ele>
        <time>2019-05-16T15:57:40.936Z</time>
      </trkpt>
      <trkpt lat="39.08439" lon="-8.756015">
        <ele>3.0</ele>
        <time>2019-05-16T15:57:41.908Z</time>
      </trkpt>
      <trkpt lat="39.08444167" lon="-8.75598167">
        <ele>3.0</ele>
        <time>2019-05-16T15:57:42.934Z</time>
      </trkpt>
      <trkpt lat="39.08444167" lon="-8.75598167">
        <ele>3.0</ele>
        <time>2019-05-16T15:57:43.897Z</time>
      </trkpt>
      <trkpt lat="39.084495" lon="-8.75594333">
        <ele>3.0</ele>
        <time>2019-05-16T15:57:44.916Z</time>
      </trkpt>
      <trkpt lat="39.084495" lon="-8.75594333">
        <ele>3.0</ele>
        <time>2019-05-16T15:57:45.908Z</time>
      </trkpt>
      <trkpt lat="39.08455167" lon="-8.7559">
        <ele>3.0</ele>
        <time>2019-05-16T15:57:46.924Z</time>
      </trkpt>
      <trkpt lat="39.08458" lon="-8.75588">
        <ele>3.0</ele>
        <time>2019-05-16T15:57:47.937Z</time>
      </trkpt>
      <trkpt lat="39.08458" lon="-8.75588">
        <ele>3.0</ele>
        <time>2019-05-16T15:57:48.934Z</time>
      </trkpt>
      <trkpt lat="39.08463667" lon="-8.75583333">
        <ele>3.0</ele>
        <time>2019-05-16T15:57:49.912Z</time>
      </trkpt>
      <trkpt lat="39.08466667" lon="-8.75581">
        <ele>3.0</ele>
        <time>2019-05-16T15:57:50.918Z</time>
      </trkpt>
      <trkpt lat="39.08466667" lon="-8.75581">
        <ele>3.0</ele>
        <time>2019-05-16T15:57:51.898Z</time>
      </trkpt>
      <trkpt lat="39.08472833" lon="-8.75577167">
        <ele>3.0</ele>
        <time>2019-05-16T15:57:52.928Z</time>
      </trkpt>
      <trkpt lat="39.08472833" lon="-8.75577167">
        <ele>3.0</ele>
        <time>2019-05-16T15:57:53.922Z</time>
      </trkpt>
      <trkpt lat="39.084785" lon="-8.75572167">
        <ele>3.0</ele>
        <time>2019-05-16T15:57:54.901Z</time>
      </trkpt>
      <trkpt lat="39.084785" lon="-8.75572167">
        <ele>3.0</ele>
        <time>2019-05-16T15:57:55.903Z</time>
      </trkpt>
      <trkpt lat="39.08484333" lon="-8.755675">
        <ele>3.0</ele>
        <time>2019-05-16T15:57:56.921Z</time>
      </trkpt>
      <trkpt lat="39.08484333" lon="-8.755675">
        <ele>3.0</ele>
        <time>2019-05-16T15:57:57.908Z</time>
      </trkpt>
      <trkpt lat="39.0849" lon="-8.75563">
        <ele>3.0</ele>
        <time>2019-05-16T15:57:58.933Z</time>
      </trkpt>
      <trkpt lat="39.0849" lon="-8.75563">
        <ele>3.0</ele>
        <time>2019-05-16T15:57:59.925Z</time>
      </trkpt>
      <trkpt lat="39.084955" lon="-8.75559">
        <ele>3.0</ele>
        <time>2019-05-16T15:58:00.909Z</time>
      </trkpt>
      <trkpt lat="39.084955" lon="-8.75559">
        <ele>3.0</ele>
        <time>2019-05-16T15:58:01.931Z</time>
      </trkpt>
      <trkpt lat="39.08500333" lon="-8.75555">
        <ele>2.0</ele>
        <time>2019-05-16T15:58:02.909Z</time>
      </trkpt>
      <trkpt lat="39.08500333" lon="-8.75555">
        <ele>2.0</ele>
        <time>2019-05-16T15:58:03.903Z</time>
      </trkpt>
      <trkpt lat="39.08505333" lon="-8.755515">
        <ele>2.0</ele>
        <time>2019-05-16T15:58:04.924Z</time>
      </trkpt>
      <trkpt lat="39.08505333" lon="-8.755515">
        <ele>2.0</ele>
        <time>2019-05-16T15:58:05.926Z</time>
      </trkpt>
      <trkpt lat="39.08510667" lon="-8.755475">
        <ele>3.0</ele>
        <time>2019-05-16T15:58:06.926Z</time>
      </trkpt>
      <trkpt lat="39.08510667" lon="-8.755475">
        <ele>3.0</ele>
        <time>2019-05-16T15:58:07.905Z</time>
      </trkpt>
      <trkpt lat="39.08516" lon="-8.755435">
        <ele>3.0</ele>
        <time>2019-05-16T15:58:08.936Z</time>
      </trkpt>
      <trkpt lat="39.08516" lon="-8.755435">
        <ele>3.0</ele>
        <time>2019-05-16T15:58:09.922Z</time>
      </trkpt>
      <trkpt lat="39.085215" lon="-8.75539667">
        <ele>3.0</ele>
        <time>2019-05-16T15:58:10.907Z</time>
      </trkpt>
      <trkpt lat="39.085215" lon="-8.75539667">
        <ele>3.0</ele>
        <time>2019-05-16T15:58:11.914Z</time>
      </trkpt>
      <trkpt lat="39.08527" lon="-8.755355">
        <ele>3.0</ele>
        <time>2019-05-16T15:58:12.932Z</time>
      </trkpt>
      <trkpt lat="39.08529833" lon="-8.75533667">
        <ele>3.0</ele>
        <time>2019-05-16T15:58:13.934Z</time>
      </trkpt>
      <trkpt lat="39.08532667" lon="-8.755315">
        <ele>3.0</ele>
        <time>2019-05-16T15:58:14.900Z</time>
      </trkpt>
      <trkpt lat="39.08532667" lon="-8.755315">
        <ele>3.0</ele>
        <time>2019-05-16T15:58:15.913Z</time>
      </trkpt>
      <trkpt lat="39.085385" lon="-8.75527167">
        <ele>2.0</ele>
        <time>2019-05-16T15:58:16.938Z</time>
      </trkpt>
      <trkpt lat="39.085385" lon="-8.75527167">
        <ele>2.0</ele>
        <time>2019-05-16T15:58:17.903Z</time>
      </trkpt>
      <trkpt lat="39.08545" lon="-8.75523">
        <ele>2.0</ele>
        <time>2019-05-16T15:58:18.911Z</time>
      </trkpt>
      <trkpt lat="39.08545" lon="-8.75523">
        <ele>2.0</ele>
        <time>2019-05-16T15:58:19.903Z</time>
      </trkpt>
      <trkpt lat="39.08551833" lon="-8.75518333">
        <ele>2.0</ele>
        <time>2019-05-16T15:58:20.933Z</time>
      </trkpt>
      <trkpt lat="39.08551833" lon="-8.75518333">
        <ele>2.0</ele>
        <time>2019-05-16T15:58:21.913Z</time>
      </trkpt>
      <trkpt lat="39.085585" lon="-8.75513167">
        <ele>2.0</ele>
        <time>2019-05-16T15:58:22.920Z</time>
      </trkpt>
      <trkpt lat="39.085585" lon="-8.75513167">
        <ele>2.0</ele>
        <time>2019-05-16T15:58:23.931Z</time>
      </trkpt>
      <trkpt lat="39.08565333" lon="-8.75508167">
        <ele>2.0</ele>
        <time>2019-05-16T15:58:24.921Z</time>
      </trkpt>
      <trkpt lat="39.08568667" lon="-8.75505667">
        <ele>2.0</ele>
        <time>2019-05-16T15:58:25.913Z</time>
      </trkpt>
      <trkpt lat="39.08572167" lon="-8.75503333">
        <ele>2.0</ele>
        <time>2019-05-16T15:58:26.935Z</time>
      </trkpt>
      <trkpt lat="39.08572167" lon="-8.75503333">
        <ele>2.0</ele>
        <time>2019-05-16T15:58:27.902Z</time>
      </trkpt>
      <trkpt lat="39.08578833" lon="-8.75498667">
        <ele>2.0</ele>
        <time>2019-05-16T15:58:28.921Z</time>
      </trkpt>
      <trkpt lat="39.08578833" lon="-8.75498667">
        <ele>2.0</ele>
        <time>2019-05-16T15:58:29.934Z</time>
      </trkpt>
      <trkpt lat="39.08585667" lon="-8.75494">
        <ele>2.0</ele>
        <time>2019-05-16T15:58:30.911Z</time>
      </trkpt>
      <trkpt lat="39.08589" lon="-8.75491667">
        <ele>2.0</ele>
        <time>2019-05-16T15:58:31.936Z</time>
      </trkpt>
      <trkpt lat="39.085925" lon="-8.754895">
        <ele>2.0</ele>
        <time>2019-05-16T15:58:32.913Z</time>
      </trkpt>
      <trkpt lat="39.085925" lon="-8.754895">
        <ele>2.0</ele>
        <time>2019-05-16T15:58:33.908Z</time>
      </trkpt>
      <trkpt lat="39.08599333" lon="-8.75484833">
        <ele>2.0</ele>
        <time>2019-05-16T15:58:34.925Z</time>
      </trkpt>
      <trkpt lat="39.08599333" lon="-8.75484833">
        <ele>2.0</ele>
        <time>2019-05-16T15:58:35.904Z</time>
      </trkpt>
      <trkpt lat="39.08606" lon="-8.7548">
        <ele>2.0</ele>
        <time>2019-05-16T15:58:36.926Z</time>
      </trkpt>
      <trkpt lat="39.086095" lon="-8.75477833">
        <ele>2.0</ele>
        <time>2019-05-16T15:58:37.913Z</time>
      </trkpt>
      <trkpt lat="39.08613" lon="-8.75475667">
        <ele>2.0</ele>
        <time>2019-05-16T15:58:38.923Z</time>
      </trkpt>
      <trkpt lat="39.08613" lon="-8.75475667">
        <ele>2.0</ele>
        <time>2019-05-16T15:58:39.901Z</time>
      </trkpt>
      <trkpt lat="39.0862" lon="-8.75470667">
        <ele>2.0</ele>
        <time>2019-05-16T15:58:40.925Z</time>
      </trkpt>
      <trkpt lat="39.0862" lon="-8.75470667">
        <ele>2.0</ele>
        <time>2019-05-16T15:58:41.902Z</time>
      </trkpt>
      <trkpt lat="39.08627" lon="-8.75466167">
        <ele>2.0</ele>
        <time>2019-05-16T15:58:42.925Z</time>
      </trkpt>
      <trkpt lat="39.08627" lon="-8.75466167">
        <ele>2.0</ele>
        <time>2019-05-16T15:58:43.924Z</time>
      </trkpt>
      <trkpt lat="39.08634" lon="-8.75461833">
        <ele>2.0</ele>
        <time>2019-05-16T15:58:44.915Z</time>
      </trkpt>
      <trkpt lat="39.08634" lon="-8.75461833">
        <ele>2.0</ele>
        <time>2019-05-16T15:58:45.921Z</time>
      </trkpt>
      <trkpt lat="39.08640833" lon="-8.75457333">
        <ele>2.0</ele>
        <time>2019-05-16T15:58:46.909Z</time>
      </trkpt>
      <trkpt lat="39.08640833" lon="-8.75457333">
        <ele>2.0</ele>
        <time>2019-05-16T15:58:47.935Z</time>
      </trkpt>
      <trkpt lat="39.08647667" lon="-8.75453">
        <ele>1.0</ele>
        <time>2019-05-16T15:58:48.911Z</time>
      </trkpt>
      <trkpt lat="39.08647667" lon="-8.75453">
        <ele>1.0</ele>
        <time>2019-05-16T15:58:49.899Z</time>
      </trkpt>
      <trkpt lat="39.08654833" lon="-8.75449">
        <ele>1.0</ele>
        <time>2019-05-16T15:58:50.918Z</time>
      </trkpt>
      <trkpt lat="39.08654833" lon="-8.75449">
        <ele>1.0</ele>
        <time>2019-05-16T15:58:51.903Z</time>
      </trkpt>
      <trkpt lat="39.08661833" lon="-8.75444667">
        <ele>1.0</ele>
        <time>2019-05-16T15:58:52.921Z</time>
      </trkpt>
      <trkpt lat="39.08661833" lon="-8.75444667">
        <ele>1.0</ele>
        <time>2019-05-16T15:58:53.913Z</time>
      </trkpt>
      <trkpt lat="39.08669" lon="-8.7544">
        <ele>1.0</ele>
        <time>2019-05-16T15:58:54.907Z</time>
      </trkpt>
      <trkpt lat="39.08672333" lon="-8.75437833">
        <ele>1.0</ele>
        <time>2019-05-16T15:58:55.933Z</time>
      </trkpt>
      <trkpt lat="39.08675833" lon="-8.754355">
        <ele>1.0</ele>
        <time>2019-05-16T15:58:56.929Z</time>
      </trkpt>
      <trkpt lat="39.08675833" lon="-8.754355">
        <ele>1.0</ele>
        <time>2019-05-16T15:58:57.909Z</time>
      </trkpt>
      <trkpt lat="39.086825" lon="-8.75430333">
        <ele>1.0</ele>
        <time>2019-05-16T15:58:58.901Z</time>
      </trkpt>
      <trkpt lat="39.086825" lon="-8.75430333">
        <ele>1.0</ele>
        <time>2019-05-16T15:58:59.913Z</time>
      </trkpt>
      <trkpt lat="39.08688833" lon="-8.75425333">
        <ele>1.0</ele>
        <time>2019-05-16T15:59:00.937Z</time>
      </trkpt>
      <trkpt lat="39.08692167" lon="-8.75423">
        <ele>1.0</ele>
        <time>2019-05-16T15:59:01.921Z</time>
      </trkpt>
      <trkpt lat="39.08695333" lon="-8.75420333">
        <ele>1.0</ele>
        <time>2019-05-16T15:59:02.917Z</time>
      </trkpt>
      <trkpt lat="39.08695333" lon="-8.75420333">
        <ele>1.0</ele>
        <time>2019-05-16T15:59:03.906Z</time>
      </trkpt>
      <trkpt lat="39.08701833" lon="-8.75415">
        <ele>0.0</ele>
        <time>2019-05-16T15:59:04.911Z</time>
      </trkpt>
      <trkpt lat="39.08705" lon="-8.754125">
        <ele>0.0</ele>
        <time>2019-05-16T15:59:05.923Z</time>
      </trkpt>
      <trkpt lat="39.08705" lon="-8.754125">
        <ele>0.0</ele>
        <time>2019-05-16T15:59:06.911Z</time>
      </trkpt>
      <trkpt lat="39.08711333" lon="-8.75407167">
        <ele>0.0</ele>
        <time>2019-05-16T15:59:07.931Z</time>
      </trkpt>
      <trkpt lat="39.08714333" lon="-8.75404167">
        <ele>0.0</ele>
        <time>2019-05-16T15:59:08.905Z</time>
      </trkpt>
      <trkpt lat="39.08714333" lon="-8.75404167">
        <ele>0.0</ele>
        <time>2019-05-16T15:59:09.929Z</time>
      </trkpt>
      <trkpt lat="39.087205" lon="-8.75398333">
        <ele>0.0</ele>
        <time>2019-05-16T15:59:10.910Z</time>
      </trkpt>
      <trkpt lat="39.087205" lon="-8.75398333">
        <ele>0.0</ele>
        <time>2019-05-16T15:59:11.936Z</time>
      </trkpt>
      <trkpt lat="39.08726833" lon="-8.75393">
        <ele>0.0</ele>
        <time>2019-05-16T15:59:12.927Z</time>
      </trkpt>
      <trkpt lat="39.08730167" lon="-8.75390667">
        <ele>0.0</ele>
        <time>2019-05-16T15:59:13.908Z</time>
      </trkpt>
      <trkpt lat="39.087335" lon="-8.75388667">
        <ele>0.0</ele>
        <time>2019-05-16T15:59:14.900Z</time>
      </trkpt>
      <trkpt lat="39.087335" lon="-8.75388667">
        <ele>0.0</ele>
        <time>2019-05-16T15:59:15.907Z</time>
      </trkpt>
      <trkpt lat="39.08740167" lon="-8.75383667">
        <ele>0.0</ele>
        <time>2019-05-16T15:59:16.916Z</time>
      </trkpt>
      <trkpt lat="39.08740167" lon="-8.75383667">
        <ele>0.0</ele>
        <time>2019-05-16T15:59:17.903Z</time>
      </trkpt>
      <trkpt lat="39.08746667" lon="-8.75378333">
        <ele>0.0</ele>
        <time>2019-05-16T15:59:18.923Z</time>
      </trkpt>
      <trkpt lat="39.08746667" lon="-8.75378333">
        <ele>0.0</ele>
        <time>2019-05-16T15:59:19.911Z</time>
      </trkpt>
      <trkpt lat="39.08753167" lon="-8.75373333">
        <ele>-1.0</ele>
        <time>2019-05-16T15:59:20.907Z</time>
      </trkpt>
      <trkpt lat="39.08753167" lon="-8.75373333">
        <ele>-1.0</ele>
        <time>2019-05-16T15:59:21.934Z</time>
      </trkpt>
      <trkpt lat="39.0876" lon="-8.75368833">
        <ele>-1.0</ele>
        <time>2019-05-16T15:59:22.911Z</time>
      </trkpt>
      <trkpt lat="39.0876" lon="-8.75368833">
        <ele>-1.0</ele>
        <time>2019-05-16T15:59:23.903Z</time>
      </trkpt>
      <trkpt lat="39.08767167" lon="-8.75364667">
        <ele>-1.0</ele>
        <time>2019-05-16T15:59:24.929Z</time>
      </trkpt>
      <trkpt lat="39.08767167" lon="-8.75364667">
        <ele>-1.0</ele>
        <time>2019-05-16T15:59:25.926Z</time>
      </trkpt>
      <trkpt lat="39.08774167" lon="-8.75359833">
        <ele>-1.0</ele>
        <time>2019-05-16T15:59:26.926Z</time>
      </trkpt>
      <trkpt lat="39.08774167" lon="-8.75359833">
        <ele>-1.0</ele>
        <time>2019-05-16T15:59:27.901Z</time>
      </trkpt>
      <trkpt lat="39.08781167" lon="-8.753545">
        <ele>-1.0</ele>
        <time>2019-05-16T15:59:28.912Z</time>
      </trkpt>
      <trkpt lat="39.08781167" lon="-8.753545">
        <ele>-1.0</ele>
        <time>2019-05-16T15:59:29.903Z</time>
      </trkpt>
      <trkpt lat="39.08788333" lon="-8.75349">
        <ele>-1.0</ele>
        <time>2019-05-16T15:59:30.920Z</time>
      </trkpt>
      <trkpt lat="39.08788333" lon="-8.75349">
        <ele>-1.0</ele>
        <time>2019-05-16T15:59:31.903Z</time>
      </trkpt>
      <trkpt lat="39.08795333" lon="-8.753435">
        <ele>-1.0</ele>
        <time>2019-05-16T15:59:32.897Z</time>
      </trkpt>
      <trkpt lat="39.08795333" lon="-8.753435">
        <ele>-1.0</ele>
        <time>2019-05-16T15:59:33.909Z</time>
      </trkpt>
      <trkpt lat="39.08802333" lon="-8.75337833">
        <ele>-1.0</ele>
        <time>2019-05-16T15:59:34.931Z</time>
      </trkpt>
      <trkpt lat="39.08802333" lon="-8.75337833">
        <ele>-1.0</ele>
        <time>2019-05-16T15:59:35.912Z</time>
      </trkpt>
      <trkpt lat="39.08809667" lon="-8.753325">
        <ele>-1.0</ele>
        <time>2019-05-16T15:59:36.907Z</time>
      </trkpt>
      <trkpt lat="39.08809667" lon="-8.753325">
        <ele>-1.0</ele>
        <time>2019-05-16T15:59:37.929Z</time>
      </trkpt>
      <trkpt lat="39.08816667" lon="-8.75326833">
        <ele>-1.0</ele>
        <time>2019-05-16T15:59:38.923Z</time>
      </trkpt>
      <trkpt lat="39.08816667" lon="-8.75326833">
        <ele>-1.0</ele>
        <time>2019-05-16T15:59:39.923Z</time>
      </trkpt>
      <trkpt lat="39.08823833" lon="-8.75321">
        <ele>-1.0</ele>
        <time>2019-05-16T15:59:40.922Z</time>
      </trkpt>
      <trkpt lat="39.08823833" lon="-8.75321">
        <ele>-1.0</ele>
        <time>2019-05-16T15:59:41.929Z</time>
      </trkpt>
      <trkpt lat="39.08831" lon="-8.75315167">
        <ele>-1.0</ele>
        <time>2019-05-16T15:59:42.900Z</time>
      </trkpt>
      <trkpt lat="39.08831" lon="-8.75315167">
        <ele>-1.0</ele>
        <time>2019-05-16T15:59:43.908Z</time>
      </trkpt>
      <trkpt lat="39.08838333" lon="-8.753095">
        <ele>-1.0</ele>
        <time>2019-05-16T15:59:44.930Z</time>
      </trkpt>
      <trkpt lat="39.08838333" lon="-8.753095">
        <ele>-1.0</ele>
        <time>2019-05-16T15:59:45.913Z</time>
      </trkpt>
      <trkpt lat="39.088455" lon="-8.75304">
        <ele>-1.0</ele>
        <time>2019-05-16T15:59:46.897Z</time>
      </trkpt>
      <trkpt lat="39.088455" lon="-8.75304">
        <ele>-1.0</ele>
        <time>2019-05-16T15:59:47.923Z</time>
      </trkpt>
      <trkpt lat="39.08852833" lon="-8.75298333">
        <ele>-1.0</ele>
        <time>2019-05-16T15:59:48.915Z</time>
      </trkpt>
      <trkpt lat="39.08852833" lon="-8.75298333">
        <ele>-1.0</ele>
        <time>2019-05-16T15:59:49.921Z</time>
      </trkpt>
      <trkpt lat="39.0886" lon="-8.75292167">
        <ele>-1.0</ele>
        <time>2019-05-16T15:59:50.913Z</time>
      </trkpt>
      <trkpt lat="39.0886" lon="-8.75292167">
        <ele>-1.0</ele>
        <time>2019-05-16T15:59:51.903Z</time>
      </trkpt>
      <trkpt lat="39.08867167" lon="-8.75285833">
        <ele>-1.0</ele>
        <time>2019-05-16T15:59:52.926Z</time>
      </trkpt>
      <trkpt lat="39.08867167" lon="-8.75285833">
        <ele>-1.0</ele>
        <time>2019-05-16T15:59:53.934Z</time>
      </trkpt>
      <trkpt lat="39.08874833" lon="-8.7528">
        <ele>-1.0</ele>
        <time>2019-05-16T15:59:54.911Z</time>
      </trkpt>
      <trkpt lat="39.08874833" lon="-8.7528">
        <ele>-1.0</ele>
        <time>2019-05-16T15:59:55.923Z</time>
      </trkpt>
      <trkpt lat="39.08882167" lon="-8.75273667">
        <ele>-1.0</ele>
        <time>2019-05-16T15:59:56.903Z</time>
      </trkpt>
      <trkpt lat="39.08882167" lon="-8.75273667">
        <ele>-1.0</ele>
        <time>2019-05-16T15:59:57.922Z</time>
      </trkpt>
      <trkpt lat="39.08889667" lon="-8.75268">
        <ele>-1.0</ele>
        <time>2019-05-16T15:59:58.936Z</time>
      </trkpt>
      <trkpt lat="39.08889667" lon="-8.75268">
        <ele>-1.0</ele>
        <time>2019-05-16T15:59:59.927Z</time>
      </trkpt>
      <trkpt lat="39.08897" lon="-8.75262167">
        <ele>-1.0</ele>
        <time>2019-05-16T16:00:00.905Z</time>
      </trkpt>
      <trkpt lat="39.08897" lon="-8.75262167">
        <ele>-1.0</ele>
        <time>2019-05-16T16:00:01.935Z</time>
      </trkpt>
      <trkpt lat="39.08904167" lon="-8.75256167">
        <ele>-1.0</ele>
        <time>2019-05-16T16:00:02.911Z</time>
      </trkpt>
      <trkpt lat="39.08904167" lon="-8.75256167">
        <ele>-1.0</ele>
        <time>2019-05-16T16:00:03.931Z</time>
      </trkpt>
      <trkpt lat="39.08911167" lon="-8.75249833">
        <ele>-1.0</ele>
        <time>2019-05-16T16:00:04.913Z</time>
      </trkpt>
      <trkpt lat="39.089145" lon="-8.75246833">
        <ele>-1.0</ele>
        <time>2019-05-16T16:00:05.919Z</time>
      </trkpt>
      <trkpt lat="39.089145" lon="-8.75246833">
        <ele>-1.0</ele>
        <time>2019-05-16T16:00:06.931Z</time>
      </trkpt>
      <trkpt lat="39.08921167" lon="-8.75241167">
        <ele>0.0</ele>
        <time>2019-05-16T16:00:07.905Z</time>
      </trkpt>
      <trkpt lat="39.08924333" lon="-8.75238667">
        <ele>0.0</ele>
        <time>2019-05-16T16:00:08.924Z</time>
      </trkpt>
      <trkpt lat="39.08924333" lon="-8.75238667">
        <ele>0.0</ele>
        <time>2019-05-16T16:00:09.905Z</time>
      </trkpt>
      <trkpt lat="39.08930667" lon="-8.75233333">
        <ele>0.0</ele>
        <time>2019-05-16T16:00:10.925Z</time>
      </trkpt>
      <trkpt lat="39.08930667" lon="-8.75233333">
        <ele>0.0</ele>
        <time>2019-05-16T16:00:11.927Z</time>
      </trkpt>
      <trkpt lat="39.08936667" lon="-8.752285">
        <ele>1.0</ele>
        <time>2019-05-16T16:00:12.903Z</time>
      </trkpt>
      <trkpt lat="39.08936667" lon="-8.752285">
        <ele>1.0</ele>
        <time>2019-05-16T16:00:13.927Z</time>
      </trkpt>
      <trkpt lat="39.08942" lon="-8.75223333">
        <ele>1.0</ele>
        <time>2019-05-16T16:00:14.906Z</time>
      </trkpt>
      <trkpt lat="39.08942" lon="-8.75223333">
        <ele>1.0</ele>
        <time>2019-05-16T16:00:15.903Z</time>
      </trkpt>
      <trkpt lat="39.08947" lon="-8.75219">
        <ele>1.0</ele>
        <time>2019-05-16T16:00:16.921Z</time>
      </trkpt>
      <trkpt lat="39.08947" lon="-8.75219">
        <ele>1.0</ele>
        <time>2019-05-16T16:00:17.897Z</time>
      </trkpt>
      <trkpt lat="39.08952667" lon="-8.75217167">
        <ele>1.0</ele>
        <time>2019-05-16T16:00:18.912Z</time>
      </trkpt>
      <trkpt lat="39.08952667" lon="-8.75217167">
        <ele>1.0</ele>
        <time>2019-05-16T16:00:19.903Z</time>
      </trkpt>
      <trkpt lat="39.08957667" lon="-8.75217333">
        <ele>1.0</ele>
        <time>2019-05-16T16:00:20.932Z</time>
      </trkpt>
      <trkpt lat="39.08957667" lon="-8.75217333">
        <ele>1.0</ele>
        <time>2019-05-16T16:00:21.919Z</time>
      </trkpt>
      <trkpt lat="39.08961667" lon="-8.75218167">
        <ele>1.0</ele>
        <time>2019-05-16T16:00:22.908Z</time>
      </trkpt>
      <trkpt lat="39.08961667" lon="-8.75218167">
        <ele>1.0</ele>
        <time>2019-05-16T16:00:23.902Z</time>
      </trkpt>
      <trkpt lat="39.08965833" lon="-8.75219">
        <ele>1.0</ele>
        <time>2019-05-16T16:00:24.921Z</time>
      </trkpt>
      <trkpt lat="39.08965833" lon="-8.75219">
        <ele>1.0</ele>
        <time>2019-05-16T16:00:25.912Z</time>
      </trkpt>
      <trkpt lat="39.08970333" lon="-8.75220333">
        <ele>1.0</ele>
        <time>2019-05-16T16:00:26.901Z</time>
      </trkpt>
      <trkpt lat="39.08970333" lon="-8.75220333">
        <ele>1.0</ele>
        <time>2019-05-16T16:00:27.933Z</time>
      </trkpt>
      <trkpt lat="39.08975333" lon="-8.75220833">
        <ele>1.0</ele>
        <time>2019-05-16T16:00:28.910Z</time>
      </trkpt>
      <trkpt lat="39.08975333" lon="-8.75220833">
        <ele>1.0</ele>
        <time>2019-05-16T16:00:29.917Z</time>
      </trkpt>
      <trkpt lat="39.08980833" lon="-8.752205">
        <ele>1.0</ele>
        <time>2019-05-16T16:00:30.907Z</time>
      </trkpt>
      <trkpt lat="39.08980833" lon="-8.752205">
        <ele>1.0</ele>
        <time>2019-05-16T16:00:31.902Z</time>
      </trkpt>
      <trkpt lat="39.08986667" lon="-8.75219667">
        <ele>1.0</ele>
        <time>2019-05-16T16:00:32.922Z</time>
      </trkpt>
      <trkpt lat="39.08986667" lon="-8.75219667">
        <ele>1.0</ele>
        <time>2019-05-16T16:00:33.932Z</time>
      </trkpt>
      <trkpt lat="39.089925" lon="-8.752195">
        <ele>1.0</ele>
        <time>2019-05-16T16:00:34.931Z</time>
      </trkpt>
      <trkpt lat="39.089925" lon="-8.752195">
        <ele>1.0</ele>
        <time>2019-05-16T16:00:35.925Z</time>
      </trkpt>
      <trkpt lat="39.089985" lon="-8.752185">
        <ele>1.0</ele>
        <time>2019-05-16T16:00:36.912Z</time>
      </trkpt>
      <trkpt lat="39.089985" lon="-8.752185">
        <ele>1.0</ele>
        <time>2019-05-16T16:00:37.926Z</time>
      </trkpt>
      <trkpt lat="39.090045" lon="-8.75218667">
        <ele>1.0</ele>
        <time>2019-05-16T16:00:38.916Z</time>
      </trkpt>
      <trkpt lat="39.090045" lon="-8.75218667">
        <ele>1.0</ele>
        <time>2019-05-16T16:00:39.936Z</time>
      </trkpt>
      <trkpt lat="39.090105" lon="-8.75217333">
        <ele>2.0</ele>
        <time>2019-05-16T16:00:40.915Z</time>
      </trkpt>
      <trkpt lat="39.090105" lon="-8.75217333">
        <ele>2.0</ele>
        <time>2019-05-16T16:00:41.903Z</time>
      </trkpt>
      <trkpt lat="39.09016667" lon="-8.75214833">
        <ele>2.0</ele>
        <time>2019-05-16T16:00:42.938Z</time>
      </trkpt>
      <trkpt lat="39.09016667" lon="-8.75214833">
        <ele>2.0</ele>
        <time>2019-05-16T16:00:43.921Z</time>
      </trkpt>
      <trkpt lat="39.09023" lon="-8.752125">
        <ele>2.0</ele>
        <time>2019-05-16T16:00:44.939Z</time>
      </trkpt>
      <trkpt lat="39.09023" lon="-8.752125">
        <ele>2.0</ele>
        <time>2019-05-16T16:00:45.926Z</time>
      </trkpt>
      <trkpt lat="39.09028667" lon="-8.75208833">
        <ele>2.0</ele>
        <time>2019-05-16T16:00:46.903Z</time>
      </trkpt>
      <trkpt lat="39.09028667" lon="-8.75208833">
        <ele>2.0</ele>
        <time>2019-05-16T16:00:47.913Z</time>
      </trkpt>
      <trkpt lat="39.090345" lon="-8.752045">
        <ele>2.0</ele>
        <time>2019-05-16T16:00:48.931Z</time>
      </trkpt>
      <trkpt lat="39.090345" lon="-8.752045">
        <ele>2.0</ele>
        <time>2019-05-16T16:00:49.903Z</time>
      </trkpt>
      <trkpt lat="39.09040333" lon="-8.75200333">
        <ele>2.0</ele>
        <time>2019-05-16T16:00:50.915Z</time>
      </trkpt>
      <trkpt lat="39.09040333" lon="-8.75200333">
        <ele>2.0</ele>
        <time>2019-05-16T16:00:51.897Z</time>
      </trkpt>
      <trkpt lat="39.09046" lon="-8.75196167">
        <ele>2.0</ele>
        <time>2019-05-16T16:00:52.918Z</time>
      </trkpt>
      <trkpt lat="39.09046" lon="-8.75196167">
        <ele>2.0</ele>
        <time>2019-05-16T16:00:53.913Z</time>
      </trkpt>
      <trkpt lat="39.09051667" lon="-8.75191167">
        <ele>2.0</ele>
        <time>2019-05-16T16:00:54.898Z</time>
      </trkpt>
      <trkpt lat="39.090545" lon="-8.751885">
        <ele>2.0</ele>
        <time>2019-05-16T16:00:55.902Z</time>
      </trkpt>
      <trkpt lat="39.090575" lon="-8.75186">
        <ele>2.0</ele>
        <time>2019-05-16T16:00:56.924Z</time>
      </trkpt>
      <trkpt lat="39.090575" lon="-8.75186">
        <ele>2.0</ele>
        <time>2019-05-16T16:00:57.913Z</time>
      </trkpt>
      <trkpt lat="39.09063167" lon="-8.75180833">
        <ele>2.0</ele>
        <time>2019-05-16T16:00:58.907Z</time>
      </trkpt>
      <trkpt lat="39.09063167" lon="-8.75180833">
        <ele>2.0</ele>
        <time>2019-05-16T16:00:59.900Z</time>
      </trkpt>
      <trkpt lat="39.09069167" lon="-8.75175833">
        <ele>2.0</ele>
        <time>2019-05-16T16:01:00.923Z</time>
      </trkpt>
      <trkpt lat="39.09069167" lon="-8.75175833">
        <ele>2.0</ele>
        <time>2019-05-16T16:01:01.903Z</time>
      </trkpt>
      <trkpt lat="39.09074833" lon="-8.75171333">
        <ele>2.0</ele>
        <time>2019-05-16T16:01:02.930Z</time>
      </trkpt>
      <trkpt lat="39.09074833" lon="-8.75171333">
        <ele>2.0</ele>
        <time>2019-05-16T16:01:03.911Z</time>
      </trkpt>
      <trkpt lat="39.09079667" lon="-8.75166833">
        <ele>2.0</ele>
        <time>2019-05-16T16:01:04.908Z</time>
      </trkpt>
      <trkpt lat="39.09079667" lon="-8.75166833">
        <ele>2.0</ele>
        <time>2019-05-16T16:01:05.932Z</time>
      </trkpt>
      <trkpt lat="39.09084667" lon="-8.75161833">
        <ele>2.0</ele>
        <time>2019-05-16T16:01:06.921Z</time>
      </trkpt>
      <trkpt lat="39.090875" lon="-8.751595">
        <ele>2.0</ele>
        <time>2019-05-16T16:01:07.911Z</time>
      </trkpt>
      <trkpt lat="39.09090333" lon="-8.751575">
        <ele>2.0</ele>
        <time>2019-05-16T16:01:08.921Z</time>
      </trkpt>
      <trkpt lat="39.09090333" lon="-8.751575">
        <ele>2.0</ele>
        <time>2019-05-16T16:01:09.903Z</time>
      </trkpt>
      <trkpt lat="39.09095167" lon="-8.75153167">
        <ele>2.0</ele>
        <time>2019-05-16T16:01:10.919Z</time>
      </trkpt>
      <trkpt lat="39.09095167" lon="-8.75153167">
        <ele>2.0</ele>
        <time>2019-05-16T16:01:11.907Z</time>
      </trkpt>
      <trkpt lat="39.09099" lon="-8.751475">
        <ele>2.0</ele>
        <time>2019-05-16T16:01:12.933Z</time>
      </trkpt>
      <trkpt lat="39.09100833" lon="-8.75144833">
        <ele>2.0</ele>
        <time>2019-05-16T16:01:13.929Z</time>
      </trkpt>
      <trkpt lat="39.09102333" lon="-8.75142">
        <ele>2.0</ele>
        <time>2019-05-16T16:01:14.918Z</time>
      </trkpt>
      <trkpt lat="39.09102333" lon="-8.75142">
        <ele>2.0</ele>
        <time>2019-05-16T16:01:15.903Z</time>
      </trkpt>
      <trkpt lat="39.09105" lon="-8.751365">
        <ele>2.0</ele>
        <time>2019-05-16T16:01:16.928Z</time>
      </trkpt>
      <trkpt lat="39.09106167" lon="-8.75133667">
        <ele>2.0</ele>
        <time>2019-05-16T16:01:17.904Z</time>
      </trkpt>
      <trkpt lat="39.09106167" lon="-8.75133667">
        <ele>2.0</ele>
        <time>2019-05-16T16:01:18.900Z</time>
      </trkpt>
      <trkpt lat="39.09108333" lon="-8.75128">
        <ele>2.0</ele>
        <time>2019-05-16T16:01:19.911Z</time>
      </trkpt>
      <trkpt lat="39.09109" lon="-8.75125333">
        <ele>2.0</ele>
        <time>2019-05-16T16:01:20.994Z</time>
      </trkpt>
      <trkpt lat="39.09109" lon="-8.75125333">
        <ele>2.0</ele>
        <time>2019-05-16T16:01:21.928Z</time>
      </trkpt>
      <trkpt lat="39.09110833" lon="-8.75120167">
        <ele>2.0</ele>
        <time>2019-05-16T16:01:22.917Z</time>
      </trkpt>
      <trkpt lat="39.09110833" lon="-8.75120167">
        <ele>2.0</ele>
        <time>2019-05-16T16:01:23.900Z</time>
      </trkpt>
      <trkpt lat="39.09112667" lon="-8.75113167">
        <ele>2.0</ele>
        <time>2019-05-16T16:01:24.932Z</time>
      </trkpt>
      <trkpt lat="39.09112667" lon="-8.75113167">
        <ele>2.0</ele>
        <time>2019-05-16T16:01:25.909Z</time>
      </trkpt>
      <trkpt lat="39.09114667" lon="-8.75106333">
        <ele>2.0</ele>
        <time>2019-05-16T16:01:26.934Z</time>
      </trkpt>
      <trkpt lat="39.09114667" lon="-8.75106333">
        <ele>2.0</ele>
        <time>2019-05-16T16:01:27.911Z</time>
      </trkpt>
      <trkpt lat="39.091165" lon="-8.751">
        <ele>3.0</ele>
        <time>2019-05-16T16:01:28.903Z</time>
      </trkpt>
      <trkpt lat="39.091165" lon="-8.751">
        <ele>3.0</ele>
        <time>2019-05-16T16:01:29.933Z</time>
      </trkpt>
      <trkpt lat="39.09118" lon="-8.75093333">
        <ele>3.0</ele>
        <time>2019-05-16T16:01:30.941Z</time>
      </trkpt>
      <trkpt lat="39.09118" lon="-8.75093333">
        <ele>3.0</ele>
        <time>2019-05-16T16:01:31.909Z</time>
      </trkpt>
      <trkpt lat="39.09118667" lon="-8.75087167">
        <ele>2.0</ele>
        <time>2019-05-16T16:01:32.920Z</time>
      </trkpt>
      <trkpt lat="39.09118667" lon="-8.75087167">
        <ele>2.0</ele>
        <time>2019-05-16T16:01:33.906Z</time>
      </trkpt>
      <trkpt lat="39.09118" lon="-8.75082">
        <ele>3.0</ele>
        <time>2019-05-16T16:01:34.927Z</time>
      </trkpt>
      <trkpt lat="39.09118" lon="-8.75082">
        <ele>3.0</ele>
        <time>2019-05-16T16:01:35.925Z</time>
      </trkpt>
      <trkpt lat="39.09117833" lon="-8.75077167">
        <ele>3.0</ele>
        <time>2019-05-16T16:01:36.911Z</time>
      </trkpt>
      <trkpt lat="39.09117833" lon="-8.75077167">
        <ele>3.0</ele>
        <time>2019-05-16T16:01:37.913Z</time>
      </trkpt>
      <trkpt lat="39.091195" lon="-8.75073667">
        <ele>3.0</ele>
        <time>2019-05-16T16:01:38.925Z</time>
      </trkpt>
      <trkpt lat="39.091195" lon="-8.75073667">
        <ele>3.0</ele>
        <time>2019-05-16T16:01:39.913Z</time>
      </trkpt>
      <trkpt lat="39.09121667" lon="-8.75071333">
        <ele>3.0</ele>
        <time>2019-05-16T16:01:40.898Z</time>
      </trkpt>
      <trkpt lat="39.09121667" lon="-8.75071333">
        <ele>3.0</ele>
        <time>2019-05-16T16:01:41.915Z</time>
      </trkpt>
      <trkpt lat="39.09123833" lon="-8.750685">
        <ele>3.0</ele>
        <time>2019-05-16T16:01:42.902Z</time>
      </trkpt>
      <trkpt lat="39.09123833" lon="-8.750685">
        <ele>3.0</ele>
        <time>2019-05-16T16:01:43.936Z</time>
      </trkpt>
      <trkpt lat="39.091265" lon="-8.75065667">
        <ele>3.0</ele>
        <time>2019-05-16T16:01:44.927Z</time>
      </trkpt>
      <trkpt lat="39.091265" lon="-8.75065667">
        <ele>3.0</ele>
        <time>2019-05-16T16:01:45.901Z</time>
      </trkpt>
      <trkpt lat="39.09129833" lon="-8.75062667">
        <ele>3.0</ele>
        <time>2019-05-16T16:01:46.921Z</time>
      </trkpt>
      <trkpt lat="39.09129833" lon="-8.75062667">
        <ele>3.0</ele>
        <time>2019-05-16T16:01:47.900Z</time>
      </trkpt>
      <trkpt lat="39.09134" lon="-8.75059333">
        <ele>3.0</ele>
        <time>2019-05-16T16:01:48.922Z</time>
      </trkpt>
      <trkpt lat="39.09134" lon="-8.75059333">
        <ele>3.0</ele>
        <time>2019-05-16T16:01:49.923Z</time>
      </trkpt>
      <trkpt lat="39.09138833" lon="-8.750555">
        <ele>3.0</ele>
        <time>2019-05-16T16:01:50.915Z</time>
      </trkpt>
      <trkpt lat="39.09138833" lon="-8.750555">
        <ele>3.0</ele>
        <time>2019-05-16T16:01:51.928Z</time>
      </trkpt>
      <trkpt lat="39.09144167" lon="-8.75051667">
        <ele>3.0</ele>
        <time>2019-05-16T16:01:52.910Z</time>
      </trkpt>
      <trkpt lat="39.09144167" lon="-8.75051667">
        <ele>3.0</ele>
        <time>2019-05-16T16:01:53.921Z</time>
      </trkpt>
      <trkpt lat="39.09149333" lon="-8.75047333">
        <ele>2.0</ele>
        <time>2019-05-16T16:01:54.937Z</time>
      </trkpt>
      <trkpt lat="39.09151833" lon="-8.75045167">
        <ele>2.0</ele>
        <time>2019-05-16T16:01:55.919Z</time>
      </trkpt>
      <trkpt lat="39.09154167" lon="-8.75043167">
        <ele>2.0</ele>
        <time>2019-05-16T16:01:56.898Z</time>
      </trkpt>
      <trkpt lat="39.09154167" lon="-8.75043167">
        <ele>2.0</ele>
        <time>2019-05-16T16:01:57.934Z</time>
      </trkpt>
      <trkpt lat="39.09159" lon="-8.75039">
        <ele>2.0</ele>
        <time>2019-05-16T16:01:58.910Z</time>
      </trkpt>
      <trkpt lat="39.09159" lon="-8.75039">
        <ele>2.0</ele>
        <time>2019-05-16T16:01:59.913Z</time>
      </trkpt>
      <trkpt lat="39.09164333" lon="-8.75034833">
        <ele>3.0</ele>
        <time>2019-05-16T16:02:00.938Z</time>
      </trkpt>
      <trkpt lat="39.09164333" lon="-8.75034833">
        <ele>3.0</ele>
        <time>2019-05-16T16:02:01.936Z</time>
      </trkpt>
      <trkpt lat="39.09169833" lon="-8.75030667">
        <ele>3.0</ele>
        <time>2019-05-16T16:02:02.919Z</time>
      </trkpt>
      <trkpt lat="39.09169833" lon="-8.75030667">
        <ele>3.0</ele>
        <time>2019-05-16T16:02:03.901Z</time>
      </trkpt>
      <trkpt lat="39.091755" lon="-8.75026">
        <ele>3.0</ele>
        <time>2019-05-16T16:02:04.900Z</time>
      </trkpt>
      <trkpt lat="39.091755" lon="-8.75026">
        <ele>3.0</ele>
        <time>2019-05-16T16:02:05.926Z</time>
      </trkpt>
      <trkpt lat="39.09181333" lon="-8.750215">
        <ele>3.0</ele>
        <time>2019-05-16T16:02:06.909Z</time>
      </trkpt>
      <trkpt lat="39.09181333" lon="-8.750215">
        <ele>3.0</ele>
        <time>2019-05-16T16:02:07.899Z</time>
      </trkpt>
      <trkpt lat="39.091875" lon="-8.75017333">
        <ele>3.0</ele>
        <time>2019-05-16T16:02:08.903Z</time>
      </trkpt>
      <trkpt lat="39.091875" lon="-8.75017333">
        <ele>3.0</ele>
        <time>2019-05-16T16:02:09.900Z</time>
      </trkpt>
      <trkpt lat="39.09193667" lon="-8.75012667">
        <ele>3.0</ele>
        <time>2019-05-16T16:02:10.919Z</time>
      </trkpt>
      <trkpt lat="39.09193667" lon="-8.75012667">
        <ele>3.0</ele>
        <time>2019-05-16T16:02:11.923Z</time>
      </trkpt>
      <trkpt lat="39.09199833" lon="-8.75008">
        <ele>3.0</ele>
        <time>2019-05-16T16:02:12.911Z</time>
      </trkpt>
      <trkpt lat="39.09203" lon="-8.75006">
        <ele>3.0</ele>
        <time>2019-05-16T16:02:13.920Z</time>
      </trkpt>
      <trkpt lat="39.09203" lon="-8.75006">
        <ele>3.0</ele>
        <time>2019-05-16T16:02:14.923Z</time>
      </trkpt>
      <trkpt lat="39.0921" lon="-8.75001833">
        <ele>2.0</ele>
        <time>2019-05-16T16:02:15.901Z</time>
      </trkpt>
      <trkpt lat="39.0921" lon="-8.75001833">
        <ele>2.0</ele>
        <time>2019-05-16T16:02:16.924Z</time>
      </trkpt>
      <trkpt lat="39.09217167" lon="-8.74997833">
        <ele>2.0</ele>
        <time>2019-05-16T16:02:17.911Z</time>
      </trkpt>
      <trkpt lat="39.092205" lon="-8.74995667">
        <ele>2.0</ele>
        <time>2019-05-16T16:02:18.939Z</time>
      </trkpt>
      <trkpt lat="39.092205" lon="-8.74995667">
        <ele>2.0</ele>
        <time>2019-05-16T16:02:19.935Z</time>
      </trkpt>
      <trkpt lat="39.092275" lon="-8.74991833">
        <ele>2.0</ele>
        <time>2019-05-16T16:02:20.925Z</time>
      </trkpt>
      <trkpt lat="39.092275" lon="-8.74991833">
        <ele>2.0</ele>
        <time>2019-05-16T16:02:21.911Z</time>
      </trkpt>
      <trkpt lat="39.09234667" lon="-8.74987667">
        <ele>2.0</ele>
        <time>2019-05-16T16:02:22.901Z</time>
      </trkpt>
      <trkpt lat="39.09234667" lon="-8.74987667">
        <ele>2.0</ele>
        <time>2019-05-16T16:02:23.913Z</time>
      </trkpt>
      <trkpt lat="39.09242" lon="-8.74983667">
        <ele>2.0</ele>
        <time>2019-05-16T16:02:24.939Z</time>
      </trkpt>
      <trkpt lat="39.09242" lon="-8.74983667">
        <ele>2.0</ele>
        <time>2019-05-16T16:02:25.920Z</time>
      </trkpt>
      <trkpt lat="39.09249167" lon="-8.74979833">
        <ele>2.0</ele>
        <time>2019-05-16T16:02:26.912Z</time>
      </trkpt>
      <trkpt lat="39.09249167" lon="-8.74979833">
        <ele>2.0</ele>
        <time>2019-05-16T16:02:27.903Z</time>
      </trkpt>
      <trkpt lat="39.09256333" lon="-8.74976167">
        <ele>2.0</ele>
        <time>2019-05-16T16:02:28.925Z</time>
      </trkpt>
      <trkpt lat="39.09256333" lon="-8.74976167">
        <ele>2.0</ele>
        <time>2019-05-16T16:02:29.934Z</time>
      </trkpt>
      <trkpt lat="39.092635" lon="-8.74972167">
        <ele>2.0</ele>
        <time>2019-05-16T16:02:30.917Z</time>
      </trkpt>
      <trkpt lat="39.092635" lon="-8.74972167">
        <ele>2.0</ele>
        <time>2019-05-16T16:02:31.915Z</time>
      </trkpt>
      <trkpt lat="39.09270833" lon="-8.74968333">
        <ele>2.0</ele>
        <time>2019-05-16T16:02:32.908Z</time>
      </trkpt>
      <trkpt lat="39.09270833" lon="-8.74968333">
        <ele>2.0</ele>
        <time>2019-05-16T16:02:33.912Z</time>
      </trkpt>
      <trkpt lat="39.09278167" lon="-8.74964333">
        <ele>1.0</ele>
        <time>2019-05-16T16:02:34.923Z</time>
      </trkpt>
      <trkpt lat="39.09278167" lon="-8.74964333">
        <ele>1.0</ele>
        <time>2019-05-16T16:02:35.931Z</time>
      </trkpt>
      <trkpt lat="39.09285167" lon="-8.74960167">
        <ele>1.0</ele>
        <time>2019-05-16T16:02:36.915Z</time>
      </trkpt>
      <trkpt lat="39.09285167" lon="-8.74960167">
        <ele>1.0</ele>
        <time>2019-05-16T16:02:37.917Z</time>
      </trkpt>
      <trkpt lat="39.092925" lon="-8.74956167">
        <ele>1.0</ele>
        <time>2019-05-16T16:02:38.897Z</time>
      </trkpt>
      <trkpt lat="39.092925" lon="-8.74956167">
        <ele>1.0</ele>
        <time>2019-05-16T16:02:39.919Z</time>
      </trkpt>
      <trkpt lat="39.09299833" lon="-8.74952167">
        <ele>1.0</ele>
        <time>2019-05-16T16:02:40.906Z</time>
      </trkpt>
      <trkpt lat="39.093035" lon="-8.74950167">
        <ele>1.0</ele>
        <time>2019-05-16T16:02:41.929Z</time>
      </trkpt>
      <trkpt lat="39.09307167" lon="-8.74948">
        <ele>1.0</ele>
        <time>2019-05-16T16:02:42.911Z</time>
      </trkpt>
      <trkpt lat="39.09307167" lon="-8.74948">
        <ele>1.0</ele>
        <time>2019-05-16T16:02:43.910Z</time>
      </trkpt>
      <trkpt lat="39.093145" lon="-8.74943333">
        <ele>1.0</ele>
        <time>2019-05-16T16:02:44.898Z</time>
      </trkpt>
      <trkpt lat="39.093145" lon="-8.74943333">
        <ele>1.0</ele>
        <time>2019-05-16T16:02:45.923Z</time>
      </trkpt>
      <trkpt lat="39.09321667" lon="-8.74938667">
        <ele>1.0</ele>
        <time>2019-05-16T16:02:46.907Z</time>
      </trkpt>
      <trkpt lat="39.09321667" lon="-8.74938667">
        <ele>1.0</ele>
        <time>2019-05-16T16:02:47.919Z</time>
      </trkpt>
      <trkpt lat="39.09329" lon="-8.74934">
        <ele>1.0</ele>
        <time>2019-05-16T16:02:48.897Z</time>
      </trkpt>
      <trkpt lat="39.09329" lon="-8.74934">
        <ele>1.0</ele>
        <time>2019-05-16T16:02:49.921Z</time>
      </trkpt>
      <trkpt lat="39.09336333" lon="-8.74929">
        <ele>1.0</ele>
        <time>2019-05-16T16:02:50.901Z</time>
      </trkpt>
      <trkpt lat="39.09336333" lon="-8.74929">
        <ele>1.0</ele>
        <time>2019-05-16T16:02:51.932Z</time>
      </trkpt>
      <trkpt lat="39.09343667" lon="-8.74924333">
        <ele>1.0</ele>
        <time>2019-05-16T16:02:52.911Z</time>
      </trkpt>
      <trkpt lat="39.09343667" lon="-8.74924333">
        <ele>1.0</ele>
        <time>2019-05-16T16:02:53.933Z</time>
      </trkpt>
      <trkpt lat="39.09351" lon="-8.749185">
        <ele>1.0</ele>
        <time>2019-05-16T16:02:54.929Z</time>
      </trkpt>
      <trkpt lat="39.09354833" lon="-8.74915833">
        <ele>1.0</ele>
        <time>2019-05-16T16:02:55.909Z</time>
      </trkpt>
      <trkpt lat="39.09354833" lon="-8.74915833">
        <ele>1.0</ele>
        <time>2019-05-16T16:02:56.917Z</time>
      </trkpt>
      <trkpt lat="39.09362667" lon="-8.74910833">
        <ele>1.0</ele>
        <time>2019-05-16T16:02:57.941Z</time>
      </trkpt>
      <trkpt lat="39.09362667" lon="-8.74910833">
        <ele>1.0</ele>
        <time>2019-05-16T16:02:58.903Z</time>
      </trkpt>
      <trkpt lat="39.09370167" lon="-8.74905333">
        <ele>1.0</ele>
        <time>2019-05-16T16:02:59.920Z</time>
      </trkpt>
      <trkpt lat="39.09370167" lon="-8.74905333">
        <ele>1.0</ele>
        <time>2019-05-16T16:03:00.903Z</time>
      </trkpt>
      <trkpt lat="39.09377667" lon="-8.748995">
        <ele>1.0</ele>
        <time>2019-05-16T16:03:01.929Z</time>
      </trkpt>
      <trkpt lat="39.09381333" lon="-8.74896833">
        <ele>1.0</ele>
        <time>2019-05-16T16:03:02.926Z</time>
      </trkpt>
      <trkpt lat="39.09381333" lon="-8.74896833">
        <ele>1.0</ele>
        <time>2019-05-16T16:03:03.903Z</time>
      </trkpt>
      <trkpt lat="39.09388833" lon="-8.74891833">
        <ele>1.0</ele>
        <time>2019-05-16T16:03:04.922Z</time>
      </trkpt>
      <trkpt lat="39.09392333" lon="-8.74889167">
        <ele>1.0</ele>
        <time>2019-05-16T16:03:05.909Z</time>
      </trkpt>
      <trkpt lat="39.09395667" lon="-8.74886667">
        <ele>1.0</ele>
        <time>2019-05-16T16:03:06.921Z</time>
      </trkpt>
      <trkpt lat="39.09395667" lon="-8.74886667">
        <ele>1.0</ele>
        <time>2019-05-16T16:03:07.913Z</time>
      </trkpt>
      <trkpt lat="39.09402833" lon="-8.74882">
        <ele>1.0</ele>
        <time>2019-05-16T16:03:08.902Z</time>
      </trkpt>
      <trkpt lat="39.09402833" lon="-8.74882">
        <ele>1.0</ele>
        <time>2019-05-16T16:03:09.913Z</time>
      </trkpt>
      <trkpt lat="39.09409667" lon="-8.74877333">
        <ele>1.0</ele>
        <time>2019-05-16T16:03:10.932Z</time>
      </trkpt>
      <trkpt lat="39.09409667" lon="-8.74877333">
        <ele>1.0</ele>
        <time>2019-05-16T16:03:11.934Z</time>
      </trkpt>
      <trkpt lat="39.094165" lon="-8.74872333">
        <ele>1.0</ele>
        <time>2019-05-16T16:03:12.911Z</time>
      </trkpt>
      <trkpt lat="39.09419833" lon="-8.74869667">
        <ele>1.0</ele>
        <time>2019-05-16T16:03:13.925Z</time>
      </trkpt>
      <trkpt lat="39.09423333" lon="-8.74867167">
        <ele>1.0</ele>
        <time>2019-05-16T16:03:14.931Z</time>
      </trkpt>
      <trkpt lat="39.09423333" lon="-8.74867167">
        <ele>1.0</ele>
        <time>2019-05-16T16:03:15.933Z</time>
      </trkpt>
      <trkpt lat="39.09430333" lon="-8.74862167">
        <ele>1.0</ele>
        <time>2019-05-16T16:03:16.916Z</time>
      </trkpt>
      <trkpt lat="39.09430333" lon="-8.74862167">
        <ele>1.0</ele>
        <time>2019-05-16T16:03:17.922Z</time>
      </trkpt>
      <trkpt lat="39.09437333" lon="-8.74857">
        <ele>1.0</ele>
        <time>2019-05-16T16:03:18.912Z</time>
      </trkpt>
      <trkpt lat="39.09437333" lon="-8.74857">
        <ele>1.0</ele>
        <time>2019-05-16T16:03:19.910Z</time>
      </trkpt>
      <trkpt lat="39.09444167" lon="-8.74851667">
        <ele>0.0</ele>
        <time>2019-05-16T16:03:20.901Z</time>
      </trkpt>
      <trkpt lat="39.09444167" lon="-8.74851667">
        <ele>0.0</ele>
        <time>2019-05-16T16:03:21.922Z</time>
      </trkpt>
      <trkpt lat="39.09450667" lon="-8.74846333">
        <ele>0.0</ele>
        <time>2019-05-16T16:03:22.900Z</time>
      </trkpt>
      <trkpt lat="39.09450667" lon="-8.74846333">
        <ele>0.0</ele>
        <time>2019-05-16T16:03:23.903Z</time>
      </trkpt>
      <trkpt lat="39.09457333" lon="-8.748415">
        <ele>0.0</ele>
        <time>2019-05-16T16:03:24.921Z</time>
      </trkpt>
      <trkpt lat="39.09457333" lon="-8.748415">
        <ele>0.0</ele>
        <time>2019-05-16T16:03:25.926Z</time>
      </trkpt>
      <trkpt lat="39.09463667" lon="-8.74836">
        <ele>0.0</ele>
        <time>2019-05-16T16:03:26.910Z</time>
      </trkpt>
      <trkpt lat="39.09463667" lon="-8.74836">
        <ele>0.0</ele>
        <time>2019-05-16T16:03:27.903Z</time>
      </trkpt>
      <trkpt lat="39.09469833" lon="-8.74830167">
        <ele>0.0</ele>
        <time>2019-05-16T16:03:28.922Z</time>
      </trkpt>
      <trkpt lat="39.09469833" lon="-8.74830167">
        <ele>0.0</ele>
        <time>2019-05-16T16:03:29.910Z</time>
      </trkpt>
      <trkpt lat="39.09476167" lon="-8.74825">
        <ele>0.0</ele>
        <time>2019-05-16T16:03:30.912Z</time>
      </trkpt>
      <trkpt lat="39.09476167" lon="-8.74825">
        <ele>0.0</ele>
        <time>2019-05-16T16:03:31.913Z</time>
      </trkpt>
      <trkpt lat="39.09482333" lon="-8.7482">
        <ele>0.0</ele>
        <time>2019-05-16T16:03:32.932Z</time>
      </trkpt>
      <trkpt lat="39.09482333" lon="-8.7482">
        <ele>0.0</ele>
        <time>2019-05-16T16:03:33.909Z</time>
      </trkpt>
      <trkpt lat="39.09488667" lon="-8.74815167">
        <ele>0.0</ele>
        <time>2019-05-16T16:03:34.932Z</time>
      </trkpt>
      <trkpt lat="39.09488667" lon="-8.74815167">
        <ele>0.0</ele>
        <time>2019-05-16T16:03:35.927Z</time>
      </trkpt>
      <trkpt lat="39.09494833" lon="-8.74809833">
        <ele>0.0</ele>
        <time>2019-05-16T16:03:36.911Z</time>
      </trkpt>
      <trkpt lat="39.09497833" lon="-8.74807">
        <ele>0.0</ele>
        <time>2019-05-16T16:03:37.911Z</time>
      </trkpt>
      <trkpt lat="39.09497833" lon="-8.74807">
        <ele>0.0</ele>
        <time>2019-05-16T16:03:38.903Z</time>
      </trkpt>
      <trkpt lat="39.09504333" lon="-8.74801833">
        <ele>0.0</ele>
        <time>2019-05-16T16:03:39.915Z</time>
      </trkpt>
      <trkpt lat="39.09504333" lon="-8.74801833">
        <ele>0.0</ele>
        <time>2019-05-16T16:03:40.927Z</time>
      </trkpt>
      <trkpt lat="39.09510667" lon="-8.74796667">
        <ele>0.0</ele>
        <time>2019-05-16T16:03:41.917Z</time>
      </trkpt>
      <trkpt lat="39.09510667" lon="-8.74796667">
        <ele>0.0</ele>
        <time>2019-05-16T16:03:42.928Z</time>
      </trkpt>
      <trkpt lat="39.09516833" lon="-8.74791">
        <ele>0.0</ele>
        <time>2019-05-16T16:03:43.918Z</time>
      </trkpt>
      <trkpt lat="39.09520167" lon="-8.74788333">
        <ele>0.0</ele>
        <time>2019-05-16T16:03:44.924Z</time>
      </trkpt>
      <trkpt lat="39.09520167" lon="-8.74788333">
        <ele>0.0</ele>
        <time>2019-05-16T16:03:45.926Z</time>
      </trkpt>
      <trkpt lat="39.09526667" lon="-8.747825">
        <ele>-1.0</ele>
        <time>2019-05-16T16:03:46.912Z</time>
      </trkpt>
      <trkpt lat="39.09526667" lon="-8.747825">
        <ele>-1.0</ele>
        <time>2019-05-16T16:03:47.898Z</time>
      </trkpt>
      <trkpt lat="39.09533333" lon="-8.74776167">
        <ele>-1.0</ele>
        <time>2019-05-16T16:03:48.921Z</time>
      </trkpt>
      <trkpt lat="39.09533333" lon="-8.74776167">
        <ele>-1.0</ele>
        <time>2019-05-16T16:03:49.910Z</time>
      </trkpt>
      <trkpt lat="39.09540167" lon="-8.74769667">
        <ele>-1.0</ele>
        <time>2019-05-16T16:03:50.898Z</time>
      </trkpt>
      <trkpt lat="39.09540167" lon="-8.74769667">
        <ele>-1.0</ele>
        <time>2019-05-16T16:03:51.913Z</time>
      </trkpt>
      <trkpt lat="39.09547333" lon="-8.747635">
        <ele>-1.0</ele>
        <time>2019-05-16T16:03:52.946Z</time>
      </trkpt>
      <trkpt lat="39.09547333" lon="-8.747635">
        <ele>-1.0</ele>
        <time>2019-05-16T16:03:53.923Z</time>
      </trkpt>
      <trkpt lat="39.09553833" lon="-8.74757">
        <ele>-1.0</ele>
        <time>2019-05-16T16:03:54.901Z</time>
      </trkpt>
      <trkpt lat="39.09553833" lon="-8.74757">
        <ele>-1.0</ele>
        <time>2019-05-16T16:03:55.913Z</time>
      </trkpt>
      <trkpt lat="39.095605" lon="-8.74751">
        <ele>-1.0</ele>
        <time>2019-05-16T16:03:56.929Z</time>
      </trkpt>
      <trkpt lat="39.095605" lon="-8.74751">
        <ele>-1.0</ele>
        <time>2019-05-16T16:03:57.920Z</time>
      </trkpt>
      <trkpt lat="39.09567" lon="-8.74745333">
        <ele>-1.0</ele>
        <time>2019-05-16T16:03:58.913Z</time>
      </trkpt>
      <trkpt lat="39.09567" lon="-8.74745333">
        <ele>-1.0</ele>
        <time>2019-05-16T16:03:59.916Z</time>
      </trkpt>
      <trkpt lat="39.09573333" lon="-8.74740167">
        <ele>-1.0</ele>
        <time>2019-05-16T16:04:00.900Z</time>
      </trkpt>
      <trkpt lat="39.09573333" lon="-8.74740167">
        <ele>-1.0</ele>
        <time>2019-05-16T16:04:01.929Z</time>
      </trkpt>
      <trkpt lat="39.09579333" lon="-8.74734667">
        <ele>-1.0</ele>
        <time>2019-05-16T16:04:02.912Z</time>
      </trkpt>
      <trkpt lat="39.09579333" lon="-8.74734667">
        <ele>-1.0</ele>
        <time>2019-05-16T16:04:03.900Z</time>
      </trkpt>
      <trkpt lat="39.09585" lon="-8.747295">
        <ele>-1.0</ele>
        <time>2019-05-16T16:04:04.940Z</time>
      </trkpt>
      <trkpt lat="39.09585" lon="-8.747295">
        <ele>-1.0</ele>
        <time>2019-05-16T16:04:05.933Z</time>
      </trkpt>
      <trkpt lat="39.09590667" lon="-8.747245">
        <ele>-1.0</ele>
        <time>2019-05-16T16:04:06.911Z</time>
      </trkpt>
      <trkpt lat="39.09593667" lon="-8.74722167">
        <ele>-1.0</ele>
        <time>2019-05-16T16:04:07.917Z</time>
      </trkpt>
      <trkpt lat="39.095965" lon="-8.74719667">
        <ele>-1.0</ele>
        <time>2019-05-16T16:04:08.929Z</time>
      </trkpt>
      <trkpt lat="39.095965" lon="-8.74719667">
        <ele>-1.0</ele>
        <time>2019-05-16T16:04:09.903Z</time>
      </trkpt>
      <trkpt lat="39.09602167" lon="-8.747145">
        <ele>-1.0</ele>
        <time>2019-05-16T16:04:10.921Z</time>
      </trkpt>
      <trkpt lat="39.09602167" lon="-8.747145">
        <ele>-1.0</ele>
        <time>2019-05-16T16:04:11.923Z</time>
      </trkpt>
      <trkpt lat="39.09608" lon="-8.74709">
        <ele>-1.0</ele>
        <time>2019-05-16T16:04:12.904Z</time>
      </trkpt>
      <trkpt lat="39.09608" lon="-8.74709">
        <ele>-1.0</ele>
        <time>2019-05-16T16:04:13.936Z</time>
      </trkpt>
      <trkpt lat="39.09614" lon="-8.74703833">
        <ele>-1.0</ele>
        <time>2019-05-16T16:04:14.938Z</time>
      </trkpt>
      <trkpt lat="39.09614" lon="-8.74703833">
        <ele>-1.0</ele>
        <time>2019-05-16T16:04:15.936Z</time>
      </trkpt>
      <trkpt lat="39.096205" lon="-8.746985">
        <ele>-1.0</ele>
        <time>2019-05-16T16:04:16.929Z</time>
      </trkpt>
      <trkpt lat="39.096205" lon="-8.746985">
        <ele>-1.0</ele>
        <time>2019-05-16T16:04:17.923Z</time>
      </trkpt>
      <trkpt lat="39.09626833" lon="-8.74692833">
        <ele>-1.0</ele>
        <time>2019-05-16T16:04:18.906Z</time>
      </trkpt>
      <trkpt lat="39.09630167" lon="-8.7469">
        <ele>-1.0</ele>
        <time>2019-05-16T16:04:19.908Z</time>
      </trkpt>
      <trkpt lat="39.09630167" lon="-8.7469">
        <ele>-1.0</ele>
        <time>2019-05-16T16:04:20.925Z</time>
      </trkpt>
      <trkpt lat="39.09637" lon="-8.74684167">
        <ele>-1.0</ele>
        <time>2019-05-16T16:04:21.929Z</time>
      </trkpt>
      <trkpt lat="39.096405" lon="-8.746815">
        <ele>-1.0</ele>
        <time>2019-05-16T16:04:22.906Z</time>
      </trkpt>
      <trkpt lat="39.096405" lon="-8.746815">
        <ele>-1.0</ele>
        <time>2019-05-16T16:04:23.933Z</time>
      </trkpt>
      <trkpt lat="39.09647167" lon="-8.74675167">
        <ele>-1.0</ele>
        <time>2019-05-16T16:04:24.915Z</time>
      </trkpt>
      <trkpt lat="39.09647167" lon="-8.74675167">
        <ele>-1.0</ele>
        <time>2019-05-16T16:04:25.933Z</time>
      </trkpt>
      <trkpt lat="39.09654" lon="-8.74668667">
        <ele>-2.0</ele>
        <time>2019-05-16T16:04:26.921Z</time>
      </trkpt>
      <trkpt lat="39.09654" lon="-8.74668667">
        <ele>-2.0</ele>
        <time>2019-05-16T16:04:27.904Z</time>
      </trkpt>
      <trkpt lat="39.09661167" lon="-8.74662333">
        <ele>-2.0</ele>
        <time>2019-05-16T16:04:28.923Z</time>
      </trkpt>
      <trkpt lat="39.09661167" lon="-8.74662333">
        <ele>-2.0</ele>
        <time>2019-05-16T16:04:29.898Z</time>
      </trkpt>
      <trkpt lat="39.09668" lon="-8.74655833">
        <ele>-1.0</ele>
        <time>2019-05-16T16:04:30.925Z</time>
      </trkpt>
      <trkpt lat="39.09668" lon="-8.74655833">
        <ele>-1.0</ele>
        <time>2019-05-16T16:04:31.911Z</time>
      </trkpt>
      <trkpt lat="39.096745" lon="-8.74649333">
        <ele>-1.0</ele>
        <time>2019-05-16T16:04:32.934Z</time>
      </trkpt>
      <trkpt lat="39.096745" lon="-8.74649333">
        <ele>-1.0</ele>
        <time>2019-05-16T16:04:33.923Z</time>
      </trkpt>
      <trkpt lat="39.09680833" lon="-8.74643667">
        <ele>-1.0</ele>
        <time>2019-05-16T16:04:34.911Z</time>
      </trkpt>
      <trkpt lat="39.09680833" lon="-8.74643667">
        <ele>-1.0</ele>
        <time>2019-05-16T16:04:35.901Z</time>
      </trkpt>
      <trkpt lat="39.09686833" lon="-8.74637667">
        <ele>-1.0</ele>
        <time>2019-05-16T16:04:36.901Z</time>
      </trkpt>
      <trkpt lat="39.09686833" lon="-8.74637667">
        <ele>-1.0</ele>
        <time>2019-05-16T16:04:37.909Z</time>
      </trkpt>
      <trkpt lat="39.09693167" lon="-8.74631167">
        <ele>-1.0</ele>
        <time>2019-05-16T16:04:38.915Z</time>
      </trkpt>
      <trkpt lat="39.09693167" lon="-8.74631167">
        <ele>-1.0</ele>
        <time>2019-05-16T16:04:39.911Z</time>
      </trkpt>
      <trkpt lat="39.09699833" lon="-8.74624667">
        <ele>-1.0</ele>
        <time>2019-05-16T16:04:40.901Z</time>
      </trkpt>
      <trkpt lat="39.09699833" lon="-8.74624667">
        <ele>-1.0</ele>
        <time>2019-05-16T16:04:41.908Z</time>
      </trkpt>
      <trkpt lat="39.097065" lon="-8.74618">
        <ele>-1.0</ele>
        <time>2019-05-16T16:04:42.938Z</time>
      </trkpt>
      <trkpt lat="39.0971" lon="-8.74615">
        <ele>-1.0</ele>
        <time>2019-05-16T16:04:43.905Z</time>
      </trkpt>
      <trkpt lat="39.097135" lon="-8.74612167">
        <ele>-1.0</ele>
        <time>2019-05-16T16:04:44.899Z</time>
      </trkpt>
      <trkpt lat="39.097135" lon="-8.74612167">
        <ele>-1.0</ele>
        <time>2019-05-16T16:04:45.903Z</time>
      </trkpt>
      <trkpt lat="39.09721167" lon="-8.74606833">
        <ele>-1.0</ele>
        <time>2019-05-16T16:04:46.917Z</time>
      </trkpt>
      <trkpt lat="39.09721167" lon="-8.74606833">
        <ele>-1.0</ele>
        <time>2019-05-16T16:04:47.923Z</time>
      </trkpt>
      <trkpt lat="39.09728667" lon="-8.746015">
        <ele>-1.0</ele>
        <time>2019-05-16T16:04:48.941Z</time>
      </trkpt>
      <trkpt lat="39.09728667" lon="-8.746015">
        <ele>-1.0</ele>
        <time>2019-05-16T16:04:49.923Z</time>
      </trkpt>
      <trkpt lat="39.09736167" lon="-8.74596167">
        <ele>-1.0</ele>
        <time>2019-05-16T16:04:50.910Z</time>
      </trkpt>
      <trkpt lat="39.09736167" lon="-8.74596167">
        <ele>-1.0</ele>
        <time>2019-05-16T16:04:51.927Z</time>
      </trkpt>
      <trkpt lat="39.09743833" lon="-8.74591">
        <ele>-1.0</ele>
        <time>2019-05-16T16:04:52.910Z</time>
      </trkpt>
      <trkpt lat="39.09743833" lon="-8.74591">
        <ele>-1.0</ele>
        <time>2019-05-16T16:04:53.929Z</time>
      </trkpt>
      <trkpt lat="39.097515" lon="-8.74586">
        <ele>-1.0</ele>
        <time>2019-05-16T16:04:54.908Z</time>
      </trkpt>
      <trkpt lat="39.097515" lon="-8.74586">
        <ele>-1.0</ele>
        <time>2019-05-16T16:04:55.898Z</time>
      </trkpt>
      <trkpt lat="39.09758333" lon="-8.7458">
        <ele>-1.0</ele>
        <time>2019-05-16T16:04:56.920Z</time>
      </trkpt>
      <trkpt lat="39.09758333" lon="-8.7458">
        <ele>-1.0</ele>
        <time>2019-05-16T16:04:57.901Z</time>
      </trkpt>
      <trkpt lat="39.09763833" lon="-8.74573">
        <ele>0.0</ele>
        <time>2019-05-16T16:04:58.919Z</time>
      </trkpt>
      <trkpt lat="39.09763833" lon="-8.74573">
        <ele>0.0</ele>
        <time>2019-05-16T16:04:59.923Z</time>
      </trkpt>
      <trkpt lat="39.09768833" lon="-8.74565667">
        <ele>0.0</ele>
        <time>2019-05-16T16:05:00.900Z</time>
      </trkpt>
      <trkpt lat="39.09768833" lon="-8.74565667">
        <ele>0.0</ele>
        <time>2019-05-16T16:05:01.908Z</time>
      </trkpt>
      <trkpt lat="39.09773833" lon="-8.74558667">
        <ele>0.0</ele>
        <time>2019-05-16T16:05:02.901Z</time>
      </trkpt>
      <trkpt lat="39.09773833" lon="-8.74558667">
        <ele>0.0</ele>
        <time>2019-05-16T16:05:03.928Z</time>
      </trkpt>
      <trkpt lat="39.09779167" lon="-8.74551833">
        <ele>0.0</ele>
        <time>2019-05-16T16:05:04.911Z</time>
      </trkpt>
      <trkpt lat="39.09779167" lon="-8.74551833">
        <ele>0.0</ele>
        <time>2019-05-16T16:05:05.935Z</time>
      </trkpt>
      <trkpt lat="39.097845" lon="-8.745455">
        <ele>0.0</ele>
        <time>2019-05-16T16:05:06.908Z</time>
      </trkpt>
      <trkpt lat="39.097845" lon="-8.745455">
        <ele>0.0</ele>
        <time>2019-05-16T16:05:07.903Z</time>
      </trkpt>
      <trkpt lat="39.09790167" lon="-8.7454">
        <ele>0.0</ele>
        <time>2019-05-16T16:05:08.926Z</time>
      </trkpt>
      <trkpt lat="39.09790167" lon="-8.7454">
        <ele>0.0</ele>
        <time>2019-05-16T16:05:09.914Z</time>
      </trkpt>
      <trkpt lat="39.09795333" lon="-8.74534833">
        <ele>0.0</ele>
        <time>2019-05-16T16:05:10.899Z</time>
      </trkpt>
      <trkpt lat="39.09795333" lon="-8.74534833">
        <ele>0.0</ele>
        <time>2019-05-16T16:05:11.919Z</time>
      </trkpt>
      <trkpt lat="39.098005" lon="-8.74530667">
        <ele>0.0</ele>
        <time>2019-05-16T16:05:12.922Z</time>
      </trkpt>
      <trkpt lat="39.098005" lon="-8.74530667">
        <ele>0.0</ele>
        <time>2019-05-16T16:05:13.907Z</time>
      </trkpt>
      <trkpt lat="39.09804833" lon="-8.74526333">
        <ele>1.0</ele>
        <time>2019-05-16T16:05:14.933Z</time>
      </trkpt>
      <trkpt lat="39.09804833" lon="-8.74526333">
        <ele>1.0</ele>
        <time>2019-05-16T16:05:15.914Z</time>
      </trkpt>
      <trkpt lat="39.09809333" lon="-8.74522333">
        <ele>1.0</ele>
        <time>2019-05-16T16:05:16.936Z</time>
      </trkpt>
      <trkpt lat="39.09809333" lon="-8.74522333">
        <ele>1.0</ele>
        <time>2019-05-16T16:05:17.923Z</time>
      </trkpt>
      <trkpt lat="39.098135" lon="-8.74518167">
        <ele>1.0</ele>
        <time>2019-05-16T16:05:18.904Z</time>
      </trkpt>
      <trkpt lat="39.098135" lon="-8.74518167">
        <ele>1.0</ele>
        <time>2019-05-16T16:05:19.901Z</time>
      </trkpt>
      <trkpt lat="39.09818833" lon="-8.74514167">
        <ele>2.0</ele>
        <time>2019-05-16T16:05:20.921Z</time>
      </trkpt>
      <trkpt lat="39.09818833" lon="-8.74514167">
        <ele>2.0</ele>
        <time>2019-05-16T16:05:21.902Z</time>
      </trkpt>
      <trkpt lat="39.09824167" lon="-8.745105">
        <ele>1.0</ele>
        <time>2019-05-16T16:05:22.918Z</time>
      </trkpt>
      <trkpt lat="39.09824167" lon="-8.745105">
        <ele>1.0</ele>
        <time>2019-05-16T16:05:23.905Z</time>
      </trkpt>
      <trkpt lat="39.098295" lon="-8.74506167">
        <ele>1.0</ele>
        <time>2019-05-16T16:05:24.931Z</time>
      </trkpt>
      <trkpt lat="39.098295" lon="-8.74506167">
        <ele>1.0</ele>
        <time>2019-05-16T16:05:25.903Z</time>
      </trkpt>
      <trkpt lat="39.09834833" lon="-8.74501667">
        <ele>1.0</ele>
        <time>2019-05-16T16:05:26.927Z</time>
      </trkpt>
      <trkpt lat="39.09834833" lon="-8.74501667">
        <ele>1.0</ele>
        <time>2019-05-16T16:05:27.913Z</time>
      </trkpt>
      <trkpt lat="39.09840667" lon="-8.74497667">
        <ele>1.0</ele>
        <time>2019-05-16T16:05:28.897Z</time>
      </trkpt>
      <trkpt lat="39.09840667" lon="-8.74497667">
        <ele>1.0</ele>
        <time>2019-05-16T16:05:29.921Z</time>
      </trkpt>
      <trkpt lat="39.09845833" lon="-8.74493667">
        <ele>1.0</ele>
        <time>2019-05-16T16:05:30.900Z</time>
      </trkpt>
      <trkpt lat="39.09845833" lon="-8.74493667">
        <ele>1.0</ele>
        <time>2019-05-16T16:05:31.903Z</time>
      </trkpt>
      <trkpt lat="39.09850833" lon="-8.74489833">
        <ele>1.0</ele>
        <time>2019-05-16T16:05:32.927Z</time>
      </trkpt>
      <trkpt lat="39.09850833" lon="-8.74489833">
        <ele>1.0</ele>
        <time>2019-05-16T16:05:33.902Z</time>
      </trkpt>
      <trkpt lat="39.09855667" lon="-8.744855">
        <ele>1.0</ele>
        <time>2019-05-16T16:05:34.929Z</time>
      </trkpt>
      <trkpt lat="39.09855667" lon="-8.744855">
        <ele>1.0</ele>
        <time>2019-05-16T16:05:35.932Z</time>
      </trkpt>
      <trkpt lat="39.098615" lon="-8.74481333">
        <ele>1.0</ele>
        <time>2019-05-16T16:05:36.924Z</time>
      </trkpt>
      <trkpt lat="39.098615" lon="-8.74481333">
        <ele>1.0</ele>
        <time>2019-05-16T16:05:37.913Z</time>
      </trkpt>
      <trkpt lat="39.098675" lon="-8.74475833">
        <ele>1.0</ele>
        <time>2019-05-16T16:05:38.915Z</time>
      </trkpt>
      <trkpt lat="39.098675" lon="-8.74475833">
        <ele>1.0</ele>
        <time>2019-05-16T16:05:39.897Z</time>
      </trkpt>
      <trkpt lat="39.09874" lon="-8.74470167">
        <ele>0.0</ele>
        <time>2019-05-16T16:05:40.920Z</time>
      </trkpt>
      <trkpt lat="39.09874" lon="-8.74470167">
        <ele>0.0</ele>
        <time>2019-05-16T16:05:41.925Z</time>
      </trkpt>
      <trkpt lat="39.09880667" lon="-8.74464167">
        <ele>0.0</ele>
        <time>2019-05-16T16:05:42.911Z</time>
      </trkpt>
      <trkpt lat="39.09880667" lon="-8.74464167">
        <ele>0.0</ele>
        <time>2019-05-16T16:05:43.904Z</time>
      </trkpt>
      <trkpt lat="39.098875" lon="-8.74457833">
        <ele>0.0</ele>
        <time>2019-05-16T16:05:44.924Z</time>
      </trkpt>
      <trkpt lat="39.098875" lon="-8.74457833">
        <ele>0.0</ele>
        <time>2019-05-16T16:05:45.916Z</time>
      </trkpt>
      <trkpt lat="39.09894167" lon="-8.74451667">
        <ele>1.0</ele>
        <time>2019-05-16T16:05:46.899Z</time>
      </trkpt>
      <trkpt lat="39.09894167" lon="-8.74451667">
        <ele>1.0</ele>
        <time>2019-05-16T16:05:47.913Z</time>
      </trkpt>
      <trkpt lat="39.09901" lon="-8.74445833">
        <ele>1.0</ele>
        <time>2019-05-16T16:05:48.907Z</time>
      </trkpt>
      <trkpt lat="39.09901" lon="-8.74445833">
        <ele>1.0</ele>
        <time>2019-05-16T16:05:49.933Z</time>
      </trkpt>
      <trkpt lat="39.099075" lon="-8.74439667">
        <ele>1.0</ele>
        <time>2019-05-16T16:05:50.921Z</time>
      </trkpt>
      <trkpt lat="39.099075" lon="-8.74439667">
        <ele>1.0</ele>
        <time>2019-05-16T16:05:51.923Z</time>
      </trkpt>
      <trkpt lat="39.099135" lon="-8.74433833">
        <ele>1.0</ele>
        <time>2019-05-16T16:05:52.908Z</time>
      </trkpt>
      <trkpt lat="39.099135" lon="-8.74433833">
        <ele>1.0</ele>
        <time>2019-05-16T16:05:53.924Z</time>
      </trkpt>
      <trkpt lat="39.09919333" lon="-8.74428167">
        <ele>2.0</ele>
        <time>2019-05-16T16:05:54.901Z</time>
      </trkpt>
      <trkpt lat="39.09919333" lon="-8.74428167">
        <ele>2.0</ele>
        <time>2019-05-16T16:05:55.923Z</time>
      </trkpt>
      <trkpt lat="39.099255" lon="-8.74422667">
        <ele>2.0</ele>
        <time>2019-05-16T16:05:56.911Z</time>
      </trkpt>
      <trkpt lat="39.099255" lon="-8.74422667">
        <ele>2.0</ele>
        <time>2019-05-16T16:05:57.931Z</time>
      </trkpt>
      <trkpt lat="39.099315" lon="-8.74417">
        <ele>2.0</ele>
        <time>2019-05-16T16:05:58.910Z</time>
      </trkpt>
      <trkpt lat="39.099315" lon="-8.74417">
        <ele>2.0</ele>
        <time>2019-05-16T16:05:59.921Z</time>
      </trkpt>
      <trkpt lat="39.09938" lon="-8.74411333">
        <ele>2.0</ele>
        <time>2019-05-16T16:06:00.908Z</time>
      </trkpt>
      <trkpt lat="39.09938" lon="-8.74411333">
        <ele>2.0</ele>
        <time>2019-05-16T16:06:01.917Z</time>
      </trkpt>
      <trkpt lat="39.09944333" lon="-8.74405333">
        <ele>2.0</ele>
        <time>2019-05-16T16:06:02.898Z</time>
      </trkpt>
      <trkpt lat="39.09944333" lon="-8.74405333">
        <ele>2.0</ele>
        <time>2019-05-16T16:06:03.903Z</time>
      </trkpt>
      <trkpt lat="39.09950667" lon="-8.74399">
        <ele>2.0</ele>
        <time>2019-05-16T16:06:04.913Z</time>
      </trkpt>
      <trkpt lat="39.09950667" lon="-8.74399">
        <ele>2.0</ele>
        <time>2019-05-16T16:06:05.902Z</time>
      </trkpt>
      <trkpt lat="39.09956833" lon="-8.74393167">
        <ele>2.0</ele>
        <time>2019-05-16T16:06:06.918Z</time>
      </trkpt>
      <trkpt lat="39.09956833" lon="-8.74393167">
        <ele>2.0</ele>
        <time>2019-05-16T16:06:07.917Z</time>
      </trkpt>
      <trkpt lat="39.099625" lon="-8.74387833">
        <ele>2.0</ele>
        <time>2019-05-16T16:06:08.926Z</time>
      </trkpt>
      <trkpt lat="39.099625" lon="-8.74387833">
        <ele>2.0</ele>
        <time>2019-05-16T16:06:09.897Z</time>
      </trkpt>
      <trkpt lat="39.09967833" lon="-8.74382667">
        <ele>2.0</ele>
        <time>2019-05-16T16:06:10.913Z</time>
      </trkpt>
      <trkpt lat="39.09967833" lon="-8.74382667">
        <ele>2.0</ele>
        <time>2019-05-16T16:06:11.908Z</time>
      </trkpt>
      <trkpt lat="39.099725" lon="-8.74377667">
        <ele>2.0</ele>
        <time>2019-05-16T16:06:12.929Z</time>
      </trkpt>
      <trkpt lat="39.099725" lon="-8.74377667">
        <ele>2.0</ele>
        <time>2019-05-16T16:06:13.913Z</time>
      </trkpt>
      <trkpt lat="39.09976833" lon="-8.74373333">
        <ele>2.0</ele>
        <time>2019-05-16T16:06:14.909Z</time>
      </trkpt>
      <trkpt lat="39.09976833" lon="-8.74373333">
        <ele>2.0</ele>
        <time>2019-05-16T16:06:15.904Z</time>
      </trkpt>
      <trkpt lat="39.09982" lon="-8.74369333">
        <ele>2.0</ele>
        <time>2019-05-16T16:06:16.920Z</time>
      </trkpt>
      <trkpt lat="39.09982" lon="-8.74369333">
        <ele>2.0</ele>
        <time>2019-05-16T16:06:17.897Z</time>
      </trkpt>
      <trkpt lat="39.09987" lon="-8.743645">
        <ele>2.0</ele>
        <time>2019-05-16T16:06:18.912Z</time>
      </trkpt>
      <trkpt lat="39.09987" lon="-8.743645">
        <ele>2.0</ele>
        <time>2019-05-16T16:06:19.903Z</time>
      </trkpt>
      <trkpt lat="39.09992167" lon="-8.74359333">
        <ele>3.0</ele>
        <time>2019-05-16T16:06:20.899Z</time>
      </trkpt>
      <trkpt lat="39.09992167" lon="-8.74359333">
        <ele>3.0</ele>
        <time>2019-05-16T16:06:21.911Z</time>
      </trkpt>
      <trkpt lat="39.09997667" lon="-8.74354">
        <ele>3.0</ele>
        <time>2019-05-16T16:06:22.931Z</time>
      </trkpt>
      <trkpt lat="39.09997667" lon="-8.74354">
        <ele>3.0</ele>
        <time>2019-05-16T16:06:23.923Z</time>
      </trkpt>
      <trkpt lat="39.100025" lon="-8.74348">
        <ele>3.0</ele>
        <time>2019-05-16T16:06:24.916Z</time>
      </trkpt>
      <trkpt lat="39.100025" lon="-8.74348">
        <ele>3.0</ele>
        <time>2019-05-16T16:06:25.924Z</time>
      </trkpt>
      <trkpt lat="39.10007333" lon="-8.743425">
        <ele>2.0</ele>
        <time>2019-05-16T16:06:26.901Z</time>
      </trkpt>
      <trkpt lat="39.10007333" lon="-8.743425">
        <ele>2.0</ele>
        <time>2019-05-16T16:06:27.935Z</time>
      </trkpt>
      <trkpt lat="39.10013167" lon="-8.74337833">
        <ele>2.0</ele>
        <time>2019-05-16T16:06:28.927Z</time>
      </trkpt>
      <trkpt lat="39.10013167" lon="-8.74337833">
        <ele>2.0</ele>
        <time>2019-05-16T16:06:29.915Z</time>
      </trkpt>
      <trkpt lat="39.100185" lon="-8.743325">
        <ele>3.0</ele>
        <time>2019-05-16T16:06:30.931Z</time>
      </trkpt>
      <trkpt lat="39.100185" lon="-8.743325">
        <ele>3.0</ele>
        <time>2019-05-16T16:06:31.912Z</time>
      </trkpt>
      <trkpt lat="39.10024333" lon="-8.74327">
        <ele>3.0</ele>
        <time>2019-05-16T16:06:32.898Z</time>
      </trkpt>
      <trkpt lat="39.10024333" lon="-8.74327">
        <ele>3.0</ele>
        <time>2019-05-16T16:06:33.929Z</time>
      </trkpt>
      <trkpt lat="39.10030333" lon="-8.74321833">
        <ele>3.0</ele>
        <time>2019-05-16T16:06:34.915Z</time>
      </trkpt>
      <trkpt lat="39.10030333" lon="-8.74321833">
        <ele>3.0</ele>
        <time>2019-05-16T16:06:35.903Z</time>
      </trkpt>
      <trkpt lat="39.10036333" lon="-8.74316167">
        <ele>3.0</ele>
        <time>2019-05-16T16:06:36.928Z</time>
      </trkpt>
      <trkpt lat="39.10039333" lon="-8.743135">
        <ele>3.0</ele>
        <time>2019-05-16T16:06:37.928Z</time>
      </trkpt>
      <trkpt lat="39.100425" lon="-8.74310833">
        <ele>3.0</ele>
        <time>2019-05-16T16:06:38.932Z</time>
      </trkpt>
      <trkpt lat="39.100425" lon="-8.74310833">
        <ele>3.0</ele>
        <time>2019-05-16T16:06:39.916Z</time>
      </trkpt>
      <trkpt lat="39.10048667" lon="-8.74305167">
        <ele>3.0</ele>
        <time>2019-05-16T16:06:40.937Z</time>
      </trkpt>
      <trkpt lat="39.10048667" lon="-8.74305167">
        <ele>3.0</ele>
        <time>2019-05-16T16:06:41.923Z</time>
      </trkpt>
      <trkpt lat="39.10055167" lon="-8.74299667">
        <ele>3.0</ele>
        <time>2019-05-16T16:06:42.921Z</time>
      </trkpt>
      <trkpt lat="39.10055167" lon="-8.74299667">
        <ele>3.0</ele>
        <time>2019-05-16T16:06:43.923Z</time>
      </trkpt>
      <trkpt lat="39.10062" lon="-8.74293833">
        <ele>3.0</ele>
        <time>2019-05-16T16:06:44.921Z</time>
      </trkpt>
      <trkpt lat="39.10062" lon="-8.74293833">
        <ele>3.0</ele>
        <time>2019-05-16T16:06:45.903Z</time>
      </trkpt>
      <trkpt lat="39.10069167" lon="-8.742875">
        <ele>2.0</ele>
        <time>2019-05-16T16:06:46.925Z</time>
      </trkpt>
      <trkpt lat="39.10069167" lon="-8.742875">
        <ele>2.0</ele>
        <time>2019-05-16T16:06:47.936Z</time>
      </trkpt>
      <trkpt lat="39.100765" lon="-8.74281167">
        <ele>2.0</ele>
        <time>2019-05-16T16:06:48.915Z</time>
      </trkpt>
      <trkpt lat="39.100765" lon="-8.74281167">
        <ele>2.0</ele>
        <time>2019-05-16T16:06:49.903Z</time>
      </trkpt>
      <trkpt lat="39.10083833" lon="-8.74274833">
        <ele>2.0</ele>
        <time>2019-05-16T16:06:50.929Z</time>
      </trkpt>
      <trkpt lat="39.10083833" lon="-8.74274833">
        <ele>2.0</ele>
        <time>2019-05-16T16:06:51.922Z</time>
      </trkpt>
      <trkpt lat="39.10091167" lon="-8.74268">
        <ele>1.0</ele>
        <time>2019-05-16T16:06:52.905Z</time>
      </trkpt>
      <trkpt lat="39.10091167" lon="-8.74268">
        <ele>1.0</ele>
        <time>2019-05-16T16:06:53.932Z</time>
      </trkpt>
      <trkpt lat="39.10098167" lon="-8.74261833">
        <ele>2.0</ele>
        <time>2019-05-16T16:06:54.911Z</time>
      </trkpt>
      <trkpt lat="39.10098167" lon="-8.74261833">
        <ele>2.0</ele>
        <time>2019-05-16T16:06:55.932Z</time>
      </trkpt>
      <trkpt lat="39.10105" lon="-8.74256333">
        <ele>2.0</ele>
        <time>2019-05-16T16:06:56.917Z</time>
      </trkpt>
      <trkpt lat="39.10105" lon="-8.74256333">
        <ele>2.0</ele>
        <time>2019-05-16T16:06:57.897Z</time>
      </trkpt>
      <trkpt lat="39.10111833" lon="-8.74250167">
        <ele>2.0</ele>
        <time>2019-05-16T16:06:58.926Z</time>
      </trkpt>
      <trkpt lat="39.10111833" lon="-8.74250167">
        <ele>2.0</ele>
        <time>2019-05-16T16:06:59.913Z</time>
      </trkpt>
      <trkpt lat="39.10118833" lon="-8.74243667">
        <ele>2.0</ele>
        <time>2019-05-16T16:07:00.908Z</time>
      </trkpt>
      <trkpt lat="39.10118833" lon="-8.74243667">
        <ele>2.0</ele>
        <time>2019-05-16T16:07:01.912Z</time>
      </trkpt>
      <trkpt lat="39.10126167" lon="-8.742375">
        <ele>2.0</ele>
        <time>2019-05-16T16:07:02.941Z</time>
      </trkpt>
      <trkpt lat="39.10126167" lon="-8.742375">
        <ele>2.0</ele>
        <time>2019-05-16T16:07:03.902Z</time>
      </trkpt>
      <trkpt lat="39.10133667" lon="-8.74230833">
        <ele>2.0</ele>
        <time>2019-05-16T16:07:04.917Z</time>
      </trkpt>
      <trkpt lat="39.10133667" lon="-8.74230833">
        <ele>2.0</ele>
        <time>2019-05-16T16:07:05.903Z</time>
      </trkpt>
      <trkpt lat="39.10141" lon="-8.74224333">
        <ele>3.0</ele>
        <time>2019-05-16T16:07:06.919Z</time>
      </trkpt>
      <trkpt lat="39.10141" lon="-8.74224333">
        <ele>3.0</ele>
        <time>2019-05-16T16:07:07.923Z</time>
      </trkpt>
      <trkpt lat="39.10148" lon="-8.74217667">
        <ele>3.0</ele>
        <time>2019-05-16T16:07:08.914Z</time>
      </trkpt>
      <trkpt lat="39.10148" lon="-8.74217667">
        <ele>3.0</ele>
        <time>2019-05-16T16:07:09.933Z</time>
      </trkpt>
      <trkpt lat="39.10155" lon="-8.74210833">
        <ele>3.0</ele>
        <time>2019-05-16T16:07:10.911Z</time>
      </trkpt>
      <trkpt lat="39.10155" lon="-8.74210833">
        <ele>3.0</ele>
        <time>2019-05-16T16:07:11.929Z</time>
      </trkpt>
      <trkpt lat="39.10161833" lon="-8.74204167">
        <ele>3.0</ele>
        <time>2019-05-16T16:07:12.914Z</time>
      </trkpt>
      <trkpt lat="39.10161833" lon="-8.74204167">
        <ele>3.0</ele>
        <time>2019-05-16T16:07:13.923Z</time>
      </trkpt>
      <trkpt lat="39.10169" lon="-8.74198">
        <ele>3.0</ele>
        <time>2019-05-16T16:07:14.903Z</time>
      </trkpt>
      <trkpt lat="39.10169" lon="-8.74198">
        <ele>3.0</ele>
        <time>2019-05-16T16:07:15.905Z</time>
      </trkpt>
      <trkpt lat="39.10175667" lon="-8.74191333">
        <ele>3.0</ele>
        <time>2019-05-16T16:07:16.921Z</time>
      </trkpt>
      <trkpt lat="39.10175667" lon="-8.74191333">
        <ele>3.0</ele>
        <time>2019-05-16T16:07:17.927Z</time>
      </trkpt>
      <trkpt lat="39.10182667" lon="-8.74184333">
        <ele>3.0</ele>
        <time>2019-05-16T16:07:18.911Z</time>
      </trkpt>
      <trkpt lat="39.10182667" lon="-8.74184333">
        <ele>3.0</ele>
        <time>2019-05-16T16:07:19.933Z</time>
      </trkpt>
      <trkpt lat="39.10190167" lon="-8.74177667">
        <ele>3.0</ele>
        <time>2019-05-16T16:07:20.913Z</time>
      </trkpt>
      <trkpt lat="39.10190167" lon="-8.74177667">
        <ele>3.0</ele>
        <time>2019-05-16T16:07:21.898Z</time>
      </trkpt>
      <trkpt lat="39.10197667" lon="-8.74171667">
        <ele>2.0</ele>
        <time>2019-05-16T16:07:22.917Z</time>
      </trkpt>
      <trkpt lat="39.10201333" lon="-8.74169">
        <ele>2.0</ele>
        <time>2019-05-16T16:07:23.911Z</time>
      </trkpt>
      <trkpt lat="39.10201333" lon="-8.74169">
        <ele>2.0</ele>
        <time>2019-05-16T16:07:24.897Z</time>
      </trkpt>
      <trkpt lat="39.10208" lon="-8.74163">
        <ele>2.0</ele>
        <time>2019-05-16T16:07:25.915Z</time>
      </trkpt>
      <trkpt lat="39.102115" lon="-8.74159667">
        <ele>2.0</ele>
        <time>2019-05-16T16:07:26.919Z</time>
      </trkpt>
      <trkpt lat="39.102115" lon="-8.74159667">
        <ele>2.0</ele>
        <time>2019-05-16T16:07:27.902Z</time>
      </trkpt>
      <trkpt lat="39.10219167" lon="-8.74153167">
        <ele>2.0</ele>
        <time>2019-05-16T16:07:28.901Z</time>
      </trkpt>
      <trkpt lat="39.10219167" lon="-8.74153167">
        <ele>2.0</ele>
        <time>2019-05-16T16:07:29.913Z</time>
      </trkpt>
      <trkpt lat="39.10226667" lon="-8.741465">
        <ele>2.0</ele>
        <time>2019-05-16T16:07:30.932Z</time>
      </trkpt>
      <trkpt lat="39.102305" lon="-8.74143333">
        <ele>2.0</ele>
        <time>2019-05-16T16:07:31.927Z</time>
      </trkpt>
      <trkpt lat="39.10234333" lon="-8.7414">
        <ele>2.0</ele>
        <time>2019-05-16T16:07:32.933Z</time>
      </trkpt>
      <trkpt lat="39.10234333" lon="-8.7414">
        <ele>2.0</ele>
        <time>2019-05-16T16:07:33.933Z</time>
      </trkpt>
      <trkpt lat="39.10242" lon="-8.74133333">
        <ele>2.0</ele>
        <time>2019-05-16T16:07:34.925Z</time>
      </trkpt>
      <trkpt lat="39.10242" lon="-8.74133333">
        <ele>2.0</ele>
        <time>2019-05-16T16:07:35.913Z</time>
      </trkpt>
      <trkpt lat="39.10249667" lon="-8.74126667">
        <ele>2.0</ele>
        <time>2019-05-16T16:07:36.931Z</time>
      </trkpt>
      <trkpt lat="39.10249667" lon="-8.74126667">
        <ele>2.0</ele>
        <time>2019-05-16T16:07:37.923Z</time>
      </trkpt>
      <trkpt lat="39.10257167" lon="-8.74120167">
        <ele>2.0</ele>
        <time>2019-05-16T16:07:38.921Z</time>
      </trkpt>
      <trkpt lat="39.10257167" lon="-8.74120167">
        <ele>2.0</ele>
        <time>2019-05-16T16:07:39.913Z</time>
      </trkpt>
      <trkpt lat="39.10264333" lon="-8.74113667">
        <ele>3.0</ele>
        <time>2019-05-16T16:07:40.901Z</time>
      </trkpt>
      <trkpt lat="39.10264333" lon="-8.74113667">
        <ele>3.0</ele>
        <time>2019-05-16T16:07:41.935Z</time>
      </trkpt>
      <trkpt lat="39.10271833" lon="-8.74107833">
        <ele>3.0</ele>
        <time>2019-05-16T16:07:42.933Z</time>
      </trkpt>
      <trkpt lat="39.10271833" lon="-8.74107833">
        <ele>3.0</ele>
        <time>2019-05-16T16:07:43.926Z</time>
      </trkpt>
      <trkpt lat="39.10279167" lon="-8.74102167">
        <ele>3.0</ele>
        <time>2019-05-16T16:07:44.915Z</time>
      </trkpt>
      <trkpt lat="39.10279167" lon="-8.74102167">
        <ele>3.0</ele>
        <time>2019-05-16T16:07:45.902Z</time>
      </trkpt>
      <trkpt lat="39.102865" lon="-8.74096667">
        <ele>3.0</ele>
        <time>2019-05-16T16:07:46.926Z</time>
      </trkpt>
      <trkpt lat="39.102865" lon="-8.74096667">
        <ele>3.0</ele>
        <time>2019-05-16T16:07:47.923Z</time>
      </trkpt>
      <trkpt lat="39.10294167" lon="-8.74091333">
        <ele>3.0</ele>
        <time>2019-05-16T16:07:48.907Z</time>
      </trkpt>
      <trkpt lat="39.10294167" lon="-8.74091333">
        <ele>3.0</ele>
        <time>2019-05-16T16:07:49.936Z</time>
      </trkpt>
      <trkpt lat="39.10301667" lon="-8.74086333">
        <ele>3.0</ele>
        <time>2019-05-16T16:07:50.903Z</time>
      </trkpt>
      <trkpt lat="39.10301667" lon="-8.74086333">
        <ele>3.0</ele>
        <time>2019-05-16T16:07:51.929Z</time>
      </trkpt>
      <trkpt lat="39.10309167" lon="-8.74081833">
        <ele>3.0</ele>
        <time>2019-05-16T16:07:52.909Z</time>
      </trkpt>
      <trkpt lat="39.10309167" lon="-8.74081833">
        <ele>3.0</ele>
        <time>2019-05-16T16:07:53.914Z</time>
      </trkpt>
      <trkpt lat="39.10316333" lon="-8.74077667">
        <ele>3.0</ele>
        <time>2019-05-16T16:07:54.903Z</time>
      </trkpt>
      <trkpt lat="39.10316333" lon="-8.74077667">
        <ele>3.0</ele>
        <time>2019-05-16T16:07:55.903Z</time>
      </trkpt>
      <trkpt lat="39.10323167" lon="-8.74074">
        <ele>2.0</ele>
        <time>2019-05-16T16:07:56.928Z</time>
      </trkpt>
      <trkpt lat="39.10323167" lon="-8.74074">
        <ele>2.0</ele>
        <time>2019-05-16T16:07:57.924Z</time>
      </trkpt>
      <trkpt lat="39.10330167" lon="-8.740705">
        <ele>3.0</ele>
        <time>2019-05-16T16:07:58.913Z</time>
      </trkpt>
      <trkpt lat="39.10330167" lon="-8.740705">
        <ele>3.0</ele>
        <time>2019-05-16T16:07:59.903Z</time>
      </trkpt>
      <trkpt lat="39.10337333" lon="-8.74067333">
        <ele>3.0</ele>
        <time>2019-05-16T16:08:00.935Z</time>
      </trkpt>
      <trkpt lat="39.10337333" lon="-8.74067333">
        <ele>3.0</ele>
        <time>2019-05-16T16:08:01.926Z</time>
      </trkpt>
      <trkpt lat="39.10344833" lon="-8.74064333">
        <ele>3.0</ele>
        <time>2019-05-16T16:08:02.911Z</time>
      </trkpt>
      <trkpt lat="39.10344833" lon="-8.74064333">
        <ele>3.0</ele>
        <time>2019-05-16T16:08:03.915Z</time>
      </trkpt>
      <trkpt lat="39.10352167" lon="-8.74061167">
        <ele>3.0</ele>
        <time>2019-05-16T16:08:04.941Z</time>
      </trkpt>
      <trkpt lat="39.10352167" lon="-8.74061167">
        <ele>3.0</ele>
        <time>2019-05-16T16:08:05.922Z</time>
      </trkpt>
      <trkpt lat="39.10359333" lon="-8.74057833">
        <ele>3.0</ele>
        <time>2019-05-16T16:08:06.904Z</time>
      </trkpt>
      <trkpt lat="39.10359333" lon="-8.74057833">
        <ele>3.0</ele>
        <time>2019-05-16T16:08:07.909Z</time>
      </trkpt>
      <trkpt lat="39.10366333" lon="-8.74054333">
        <ele>3.0</ele>
        <time>2019-05-16T16:08:08.926Z</time>
      </trkpt>
      <trkpt lat="39.10366333" lon="-8.74054333">
        <ele>3.0</ele>
        <time>2019-05-16T16:08:09.913Z</time>
      </trkpt>
      <trkpt lat="39.10373" lon="-8.74049667">
        <ele>3.0</ele>
        <time>2019-05-16T16:08:10.901Z</time>
      </trkpt>
      <trkpt lat="39.10373" lon="-8.74049667">
        <ele>3.0</ele>
        <time>2019-05-16T16:08:11.933Z</time>
      </trkpt>
      <trkpt lat="39.10379333" lon="-8.74045167">
        <ele>3.0</ele>
        <time>2019-05-16T16:08:12.917Z</time>
      </trkpt>
      <trkpt lat="39.10379333" lon="-8.74045167">
        <ele>3.0</ele>
        <time>2019-05-16T16:08:13.933Z</time>
      </trkpt>
      <trkpt lat="39.10385833" lon="-8.74041667">
        <ele>3.0</ele>
        <time>2019-05-16T16:08:14.927Z</time>
      </trkpt>
      <trkpt lat="39.10385833" lon="-8.74041667">
        <ele>3.0</ele>
        <time>2019-05-16T16:08:15.927Z</time>
      </trkpt>
      <trkpt lat="39.10392167" lon="-8.74038333">
        <ele>3.0</ele>
        <time>2019-05-16T16:08:16.908Z</time>
      </trkpt>
      <trkpt lat="39.10392167" lon="-8.74038333">
        <ele>3.0</ele>
        <time>2019-05-16T16:08:17.897Z</time>
      </trkpt>
      <trkpt lat="39.10398167" lon="-8.740345">
        <ele>3.0</ele>
        <time>2019-05-16T16:08:18.907Z</time>
      </trkpt>
      <trkpt lat="39.10398167" lon="-8.740345">
        <ele>3.0</ele>
        <time>2019-05-16T16:08:19.931Z</time>
      </trkpt>
      <trkpt lat="39.10404" lon="-8.74031333">
        <ele>3.0</ele>
        <time>2019-05-16T16:08:21.036Z</time>
      </trkpt>
      <trkpt lat="39.10404" lon="-8.74031333">
        <ele>3.0</ele>
        <time>2019-05-16T16:08:21.932Z</time>
      </trkpt>
      <trkpt lat="39.10409333" lon="-8.74028333">
        <ele>3.0</ele>
        <time>2019-05-16T16:08:22.910Z</time>
      </trkpt>
      <trkpt lat="39.10409333" lon="-8.74028333">
        <ele>3.0</ele>
        <time>2019-05-16T16:08:23.933Z</time>
      </trkpt>
      <trkpt lat="39.104145" lon="-8.74025167">
        <ele>3.0</ele>
        <time>2019-05-16T16:08:24.921Z</time>
      </trkpt>
      <trkpt lat="39.104145" lon="-8.74025167">
        <ele>3.0</ele>
        <time>2019-05-16T16:08:25.925Z</time>
      </trkpt>
      <trkpt lat="39.10419667" lon="-8.74022333">
        <ele>3.0</ele>
        <time>2019-05-16T16:08:26.902Z</time>
      </trkpt>
      <trkpt lat="39.10419667" lon="-8.74022333">
        <ele>3.0</ele>
        <time>2019-05-16T16:08:27.919Z</time>
      </trkpt>
      <trkpt lat="39.10424333" lon="-8.74019167">
        <ele>4.0</ele>
        <time>2019-05-16T16:08:28.905Z</time>
      </trkpt>
      <trkpt lat="39.10424333" lon="-8.74019167">
        <ele>4.0</ele>
        <time>2019-05-16T16:08:29.933Z</time>
      </trkpt>
      <trkpt lat="39.10429" lon="-8.74016167">
        <ele>4.0</ele>
        <time>2019-05-16T16:08:30.908Z</time>
      </trkpt>
      <trkpt lat="39.104315" lon="-8.74014833">
        <ele>4.0</ele>
        <time>2019-05-16T16:08:31.921Z</time>
      </trkpt>
      <trkpt lat="39.10434167" lon="-8.740135">
        <ele>4.0</ele>
        <time>2019-05-16T16:08:32.911Z</time>
      </trkpt>
      <trkpt lat="39.10434167" lon="-8.740135">
        <ele>4.0</ele>
        <time>2019-05-16T16:08:33.932Z</time>
      </trkpt>
      <trkpt lat="39.10438833" lon="-8.740105">
        <ele>5.0</ele>
        <time>2019-05-16T16:08:34.919Z</time>
      </trkpt>
      <trkpt lat="39.10438833" lon="-8.740105">
        <ele>5.0</ele>
        <time>2019-05-16T16:08:35.924Z</time>
      </trkpt>
      <trkpt lat="39.10443833" lon="-8.74008167">
        <ele>6.0</ele>
        <time>2019-05-16T16:08:36.934Z</time>
      </trkpt>
      <trkpt lat="39.10443833" lon="-8.74008167">
        <ele>6.0</ele>
        <time>2019-05-16T16:08:37.923Z</time>
      </trkpt>
      <trkpt lat="39.10448667" lon="-8.74006">
        <ele>6.0</ele>
        <time>2019-05-16T16:08:38.919Z</time>
      </trkpt>
      <trkpt lat="39.10448667" lon="-8.74006">
        <ele>6.0</ele>
        <time>2019-05-16T16:08:39.900Z</time>
      </trkpt>
      <trkpt lat="39.10453333" lon="-8.74003167">
        <ele>7.0</ele>
        <time>2019-05-16T16:08:40.917Z</time>
      </trkpt>
      <trkpt lat="39.10453333" lon="-8.74003167">
        <ele>7.0</ele>
        <time>2019-05-16T16:08:41.913Z</time>
      </trkpt>
      <trkpt lat="39.10457833" lon="-8.74000333">
        <ele>7.0</ele>
        <time>2019-05-16T16:08:42.933Z</time>
      </trkpt>
      <trkpt lat="39.10457833" lon="-8.74000333">
        <ele>7.0</ele>
        <time>2019-05-16T16:08:43.933Z</time>
      </trkpt>
      <trkpt lat="39.10462833" lon="-8.739975">
        <ele>6.0</ele>
        <time>2019-05-16T16:08:44.907Z</time>
      </trkpt>
      <trkpt lat="39.10462833" lon="-8.739975">
        <ele>6.0</ele>
        <time>2019-05-16T16:08:45.924Z</time>
      </trkpt>
      <trkpt lat="39.10467833" lon="-8.73993167">
        <ele>6.0</ele>
        <time>2019-05-16T16:08:46.910Z</time>
      </trkpt>
      <trkpt lat="39.10467833" lon="-8.73993167">
        <ele>6.0</ele>
        <time>2019-05-16T16:08:47.907Z</time>
      </trkpt>
      <trkpt lat="39.10473167" lon="-8.73989333">
        <ele>6.0</ele>
        <time>2019-05-16T16:08:48.925Z</time>
      </trkpt>
      <trkpt lat="39.10473167" lon="-8.73989333">
        <ele>6.0</ele>
        <time>2019-05-16T16:08:49.905Z</time>
      </trkpt>
      <trkpt lat="39.10479333" lon="-8.739865">
        <ele>6.0</ele>
        <time>2019-05-16T16:08:50.924Z</time>
      </trkpt>
      <trkpt lat="39.10479333" lon="-8.739865">
        <ele>6.0</ele>
        <time>2019-05-16T16:08:51.901Z</time>
      </trkpt>
      <trkpt lat="39.104855" lon="-8.739835">
        <ele>7.0</ele>
        <time>2019-05-16T16:08:52.921Z</time>
      </trkpt>
      <trkpt lat="39.104855" lon="-8.739835">
        <ele>7.0</ele>
        <time>2019-05-16T16:08:53.933Z</time>
      </trkpt>
      <trkpt lat="39.10491667" lon="-8.73981167">
        <ele>7.0</ele>
        <time>2019-05-16T16:08:54.908Z</time>
      </trkpt>
      <trkpt lat="39.10491667" lon="-8.73981167">
        <ele>7.0</ele>
        <time>2019-05-16T16:08:55.932Z</time>
      </trkpt>
      <trkpt lat="39.10497667" lon="-8.73979167">
        <ele>8.0</ele>
        <time>2019-05-16T16:08:56.909Z</time>
      </trkpt>
      <trkpt lat="39.10497667" lon="-8.73979167">
        <ele>8.0</ele>
        <time>2019-05-16T16:08:57.930Z</time>
      </trkpt>
      <trkpt lat="39.10503667" lon="-8.73977">
        <ele>8.0</ele>
        <time>2019-05-16T16:08:58.922Z</time>
      </trkpt>
      <trkpt lat="39.10503667" lon="-8.73977">
        <ele>8.0</ele>
        <time>2019-05-16T16:08:59.907Z</time>
      </trkpt>
      <trkpt lat="39.10509333" lon="-8.73973833">
        <ele>8.0</ele>
        <time>2019-05-16T16:09:00.924Z</time>
      </trkpt>
      <trkpt lat="39.10509333" lon="-8.73973833">
        <ele>8.0</ele>
        <time>2019-05-16T16:09:01.910Z</time>
      </trkpt>
      <trkpt lat="39.10515333" lon="-8.73971333">
        <ele>8.0</ele>
        <time>2019-05-16T16:09:02.941Z</time>
      </trkpt>
      <trkpt lat="39.10515333" lon="-8.73971333">
        <ele>8.0</ele>
        <time>2019-05-16T16:09:03.912Z</time>
      </trkpt>
      <trkpt lat="39.10521167" lon="-8.73969333">
        <ele>8.0</ele>
        <time>2019-05-16T16:09:04.906Z</time>
      </trkpt>
      <trkpt lat="39.10521167" lon="-8.73969333">
        <ele>8.0</ele>
        <time>2019-05-16T16:09:05.934Z</time>
      </trkpt>
      <trkpt lat="39.10526833" lon="-8.73967833">
        <ele>8.0</ele>
        <time>2019-05-16T16:09:06.914Z</time>
      </trkpt>
      <trkpt lat="39.10526833" lon="-8.73967833">
        <ele>8.0</ele>
        <time>2019-05-16T16:09:07.933Z</time>
      </trkpt>
      <trkpt lat="39.10532333" lon="-8.73965833">
        <ele>7.0</ele>
        <time>2019-05-16T16:09:08.910Z</time>
      </trkpt>
      <trkpt lat="39.10532333" lon="-8.73965833">
        <ele>7.0</ele>
        <time>2019-05-16T16:09:09.910Z</time>
      </trkpt>
      <trkpt lat="39.10538167" lon="-8.73962667">
        <ele>7.0</ele>
        <time>2019-05-16T16:09:10.900Z</time>
      </trkpt>
      <trkpt lat="39.10538167" lon="-8.73962667">
        <ele>7.0</ele>
        <time>2019-05-16T16:09:11.930Z</time>
      </trkpt>
      <trkpt lat="39.10544167" lon="-8.73959833">
        <ele>7.0</ele>
        <time>2019-05-16T16:09:12.913Z</time>
      </trkpt>
      <trkpt lat="39.10544167" lon="-8.73959833">
        <ele>7.0</ele>
        <time>2019-05-16T16:09:13.903Z</time>
      </trkpt>
      <trkpt lat="39.10550167" lon="-8.73957167">
        <ele>8.0</ele>
        <time>2019-05-16T16:09:14.930Z</time>
      </trkpt>
      <trkpt lat="39.10550167" lon="-8.73957167">
        <ele>8.0</ele>
        <time>2019-05-16T16:09:15.924Z</time>
      </trkpt>
      <trkpt lat="39.10556" lon="-8.73955333">
        <ele>7.0</ele>
        <time>2019-05-16T16:09:16.899Z</time>
      </trkpt>
      <trkpt lat="39.10558833" lon="-8.73954333">
        <ele>7.0</ele>
        <time>2019-05-16T16:09:17.933Z</time>
      </trkpt>
      <trkpt lat="39.10558833" lon="-8.73954333">
        <ele>7.0</ele>
        <time>2019-05-16T16:09:18.913Z</time>
      </trkpt>
      <trkpt lat="39.10563167" lon="-8.73950167">
        <ele>7.0</ele>
        <time>2019-05-16T16:09:19.934Z</time>
      </trkpt>
      <trkpt lat="39.10565167" lon="-8.73948167">
        <ele>7.0</ele>
        <time>2019-05-16T16:09:20.931Z</time>
      </trkpt>
      <trkpt lat="39.10565167" lon="-8.73948167">
        <ele>7.0</ele>
        <time>2019-05-16T16:09:21.931Z</time>
      </trkpt>
      <trkpt lat="39.10566667" lon="-8.73946833">
        <ele>7.0</ele>
        <time>2019-05-16T16:09:22.922Z</time>
      </trkpt>
      <trkpt lat="39.10566667" lon="-8.73946833">
        <ele>7.0</ele>
        <time>2019-05-16T16:09:23.929Z</time>
      </trkpt>
      <trkpt lat="39.105665" lon="-8.73946833">
        <ele>7.0</ele>
        <time>2019-05-16T16:09:24.916Z</time>
      </trkpt>
      <trkpt lat="39.105665" lon="-8.73946833">
        <ele>7.0</ele>
        <time>2019-05-16T16:09:25.935Z</time>
      </trkpt>
      <trkpt lat="39.105665" lon="-8.73946833">
        <ele>7.0</ele>
        <time>2019-05-16T16:09:26.901Z</time>
      </trkpt>
      <trkpt lat="39.105665" lon="-8.73946833">
        <ele>7.0</ele>
        <time>2019-05-16T16:09:27.907Z</time>
      </trkpt>
      <trkpt lat="39.105665" lon="-8.73946833">
        <ele>7.0</ele>
        <time>2019-05-16T16:09:28.914Z</time>
      </trkpt>
      <trkpt lat="39.105665" lon="-8.73946833">
        <ele>7.0</ele>
        <time>2019-05-16T16:09:29.901Z</time>
      </trkpt>
      <trkpt lat="39.105665" lon="-8.73946833">
        <ele>7.0</ele>
        <time>2019-05-16T16:09:30.899Z</time>
      </trkpt>
      <trkpt lat="39.105665" lon="-8.73946833">
        <ele>7.0</ele>
        <time>2019-05-16T16:09:31.934Z</time>
      </trkpt>
      <trkpt lat="39.105665" lon="-8.73946833">
        <ele>7.0</ele>
        <time>2019-05-16T16:09:32.900Z</time>
      </trkpt>
      <trkpt lat="39.105665" lon="-8.73946833">
        <ele>7.0</ele>
        <time>2019-05-16T16:09:33.931Z</time>
      </trkpt>
      <trkpt lat="39.105665" lon="-8.73946833">
        <ele>7.0</ele>
        <time>2019-05-16T16:09:34.934Z</time>
      </trkpt>
      <trkpt lat="39.105665" lon="-8.73946833">
        <ele>7.0</ele>
        <time>2019-05-16T16:09:35.931Z</time>
      </trkpt>
      <trkpt lat="39.105665" lon="-8.73946833">
        <ele>7.0</ele>
        <time>2019-05-16T16:09:36.897Z</time>
      </trkpt>
      <trkpt lat="39.105665" lon="-8.73946833">
        <ele>7.0</ele>
        <time>2019-05-16T16:09:37.931Z</time>
      </trkpt>
      <trkpt lat="39.105665" lon="-8.73946833">
        <ele>7.0</ele>
        <time>2019-05-16T16:09:38.918Z</time>
      </trkpt>
      <trkpt lat="39.105665" lon="-8.73946833">
        <ele>7.0</ele>
        <time>2019-05-16T16:09:39.912Z</time>
      </trkpt>
      <trkpt lat="39.105665" lon="-8.73946833">
        <ele>7.0</ele>
        <time>2019-05-16T16:09:40.898Z</time>
      </trkpt>
      <trkpt lat="39.105665" lon="-8.73946833">
        <ele>7.0</ele>
        <time>2019-05-16T16:09:41.932Z</time>
      </trkpt>
      <trkpt lat="39.105665" lon="-8.73946833">
        <ele>7.0</ele>
        <time>2019-05-16T16:09:42.897Z</time>
      </trkpt>
      <trkpt lat="39.105665" lon="-8.73946833">
        <ele>7.0</ele>
        <time>2019-05-16T16:09:43.932Z</time>
      </trkpt>
      <trkpt lat="39.105665" lon="-8.73946833">
        <ele>7.0</ele>
        <time>2019-05-16T16:09:44.898Z</time>
      </trkpt>
      <trkpt lat="39.105665" lon="-8.73946833">
        <ele>7.0</ele>
        <time>2019-05-16T16:09:45.931Z</time>
      </trkpt>
      <trkpt lat="39.105665" lon="-8.73946833">
        <ele>7.0</ele>
        <time>2019-05-16T16:09:46.936Z</time>
      </trkpt>
      <trkpt lat="39.105665" lon="-8.73946833">
        <ele>7.0</ele>
        <time>2019-05-16T16:09:47.931Z</time>
      </trkpt>
      <trkpt lat="39.105665" lon="-8.73946833">
        <ele>7.0</ele>
        <time>2019-05-16T16:09:48.916Z</time>
      </trkpt>
      <trkpt lat="39.105665" lon="-8.73946833">
        <ele>7.0</ele>
        <time>2019-05-16T16:09:49.902Z</time>
      </trkpt>
      <trkpt lat="39.105665" lon="-8.73946833">
        <ele>7.0</ele>
        <time>2019-05-16T16:09:50.900Z</time>
      </trkpt>
      <trkpt lat="39.105665" lon="-8.73946833">
        <ele>7.0</ele>
        <time>2019-05-16T16:09:51.935Z</time>
      </trkpt>
      <trkpt lat="39.105665" lon="-8.73946833">
        <ele>7.0</ele>
        <time>2019-05-16T16:09:52.898Z</time>
      </trkpt>
      <trkpt lat="39.105665" lon="-8.73946833">
        <ele>7.0</ele>
        <time>2019-05-16T16:09:53.933Z</time>
      </trkpt>
      <trkpt lat="39.105665" lon="-8.73946833">
        <ele>7.0</ele>
        <time>2019-05-16T16:09:54.898Z</time>
      </trkpt>
      <trkpt lat="39.105665" lon="-8.73946833">
        <ele>7.0</ele>
        <time>2019-05-16T16:09:55.898Z</time>
      </trkpt>
      <trkpt lat="39.105665" lon="-8.73946833">
        <ele>7.0</ele>
        <time>2019-05-16T16:09:56.897Z</time>
      </trkpt>
      <trkpt lat="39.105665" lon="-8.73946833">
        <ele>7.0</ele>
        <time>2019-05-16T16:09:57.898Z</time>
      </trkpt>
      <trkpt lat="39.105665" lon="-8.73946833">
        <ele>7.0</ele>
        <time>2019-05-16T16:09:58.933Z</time>
      </trkpt>
      <trkpt lat="39.105665" lon="-8.73946833">
        <ele>7.0</ele>
        <time>2019-05-16T16:09:59.900Z</time>
      </trkpt>
      <trkpt lat="39.105665" lon="-8.73946833">
        <ele>7.0</ele>
        <time>2019-05-16T16:10:00.934Z</time>
      </trkpt>
      <trkpt lat="39.105665" lon="-8.73946833">
        <ele>7.0</ele>
        <time>2019-05-16T16:10:01.900Z</time>
      </trkpt>
      <trkpt lat="39.105665" lon="-8.73946833">
        <ele>7.0</ele>
        <time>2019-05-16T16:10:02.898Z</time>
      </trkpt>
      <trkpt lat="39.105665" lon="-8.73946833">
        <ele>7.0</ele>
        <time>2019-05-16T16:10:03.933Z</time>
      </trkpt>
      <trkpt lat="39.105665" lon="-8.73946833">
        <ele>7.0</ele>
        <time>2019-05-16T16:10:04.899Z</time>
      </trkpt>
      <trkpt lat="39.105665" lon="-8.73946833">
        <ele>7.0</ele>
        <time>2019-05-16T16:10:05.935Z</time>
      </trkpt>
      <trkpt lat="39.105665" lon="-8.73946833">
        <ele>7.0</ele>
        <time>2019-05-16T16:10:06.898Z</time>
      </trkpt>
      <trkpt lat="39.105665" lon="-8.73946833">
        <ele>7.0</ele>
        <time>2019-05-16T16:10:07.934Z</time>
      </trkpt>
      <trkpt lat="39.105665" lon="-8.73946833">
        <ele>7.0</ele>
        <time>2019-05-16T16:10:08.919Z</time>
      </trkpt>
      <trkpt lat="39.105665" lon="-8.73946833">
        <ele>7.0</ele>
        <time>2019-05-16T16:10:09.912Z</time>
      </trkpt>
      <trkpt lat="39.105665" lon="-8.73946833">
        <ele>7.0</ele>
        <time>2019-05-16T16:10:10.899Z</time>
      </trkpt>
      <trkpt lat="39.105665" lon="-8.73946833">
        <ele>7.0</ele>
        <time>2019-05-16T16:10:11.933Z</time>
      </trkpt>
      <trkpt lat="39.105665" lon="-8.73946833">
        <ele>7.0</ele>
        <time>2019-05-16T16:10:12.897Z</time>
      </trkpt>
      <trkpt lat="39.105665" lon="-8.73946833">
        <ele>7.0</ele>
        <time>2019-05-16T16:10:13.932Z</time>
      </trkpt>
      <trkpt lat="39.105665" lon="-8.73946833">
        <ele>7.0</ele>
        <time>2019-05-16T16:10:14.900Z</time>
      </trkpt>
      <trkpt lat="39.105665" lon="-8.73946833">
        <ele>7.0</ele>
        <time>2019-05-16T16:10:15.932Z</time>
      </trkpt>
      <trkpt lat="39.105665" lon="-8.73946833">
        <ele>7.0</ele>
        <time>2019-05-16T16:10:16.897Z</time>
      </trkpt>
      <trkpt lat="39.105665" lon="-8.73946833">
        <ele>7.0</ele>
        <time>2019-05-16T16:10:17.932Z</time>
      </trkpt>
      <trkpt lat="39.105665" lon="-8.73946833">
        <ele>7.0</ele>
        <time>2019-05-16T16:10:18.937Z</time>
      </trkpt>
      <trkpt lat="39.105665" lon="-8.73946833">
        <ele>7.0</ele>
        <time>2019-05-16T16:10:19.936Z</time>
      </trkpt>
      <trkpt lat="39.105665" lon="-8.73946833">
        <ele>7.0</ele>
        <time>2019-05-16T16:10:20.932Z</time>
      </trkpt>
      <trkpt lat="39.105665" lon="-8.73946833">
        <ele>7.0</ele>
        <time>2019-05-16T16:10:21.902Z</time>
      </trkpt>
      <trkpt lat="39.105665" lon="-8.73946833">
        <ele>7.0</ele>
        <time>2019-05-16T16:10:22.908Z</time>
      </trkpt>
      <trkpt lat="39.105665" lon="-8.73946833">
        <ele>7.0</ele>
        <time>2019-05-16T16:10:23.917Z</time>
      </trkpt>
      <trkpt lat="39.105665" lon="-8.73946833">
        <ele>7.0</ele>
        <time>2019-05-16T16:10:24.903Z</time>
      </trkpt>
      <trkpt lat="39.105665" lon="-8.73946833">
        <ele>7.0</ele>
        <time>2019-05-16T16:10:25.908Z</time>
      </trkpt>
      <trkpt lat="39.105665" lon="-8.73946833">
        <ele>7.0</ele>
        <time>2019-05-16T16:10:26.899Z</time>
      </trkpt>
      <trkpt lat="39.105665" lon="-8.73946833">
        <ele>7.0</ele>
        <time>2019-05-16T16:10:27.902Z</time>
      </trkpt>
      <trkpt lat="39.105665" lon="-8.73946833">
        <ele>7.0</ele>
        <time>2019-05-16T16:10:28.936Z</time>
      </trkpt>
      <trkpt lat="39.105665" lon="-8.73946833">
        <ele>7.0</ele>
        <time>2019-05-16T16:10:29.933Z</time>
      </trkpt>
      <trkpt lat="39.105665" lon="-8.73946833">
        <ele>7.0</ele>
        <time>2019-05-16T16:10:30.897Z</time>
      </trkpt>
      <trkpt lat="39.105665" lon="-8.73946833">
        <ele>7.0</ele>
        <time>2019-05-16T16:10:31.932Z</time>
      </trkpt>
      <trkpt lat="39.105665" lon="-8.73946833">
        <ele>7.0</ele>
        <time>2019-05-16T16:10:32.900Z</time>
      </trkpt>
      <trkpt lat="39.105665" lon="-8.73946833">
        <ele>7.0</ele>
        <time>2019-05-16T16:10:33.934Z</time>
      </trkpt>
      <trkpt lat="39.105665" lon="-8.73946833">
        <ele>7.0</ele>
        <time>2019-05-16T16:10:34.898Z</time>
      </trkpt>
      <trkpt lat="39.105665" lon="-8.73946833">
        <ele>7.0</ele>
        <time>2019-05-16T16:10:35.932Z</time>
      </trkpt>
      <trkpt lat="39.105665" lon="-8.73946833">
        <ele>7.0</ele>
        <time>2019-05-16T16:10:36.897Z</time>
      </trkpt>
      <trkpt lat="39.105665" lon="-8.73946833">
        <ele>7.0</ele>
        <time>2019-05-16T16:10:37.899Z</time>
      </trkpt>
      <trkpt lat="39.105665" lon="-8.73946833">
        <ele>7.0</ele>
        <time>2019-05-16T16:10:38.897Z</time>
      </trkpt>
      <trkpt lat="39.105665" lon="-8.73946833">
        <ele>7.0</ele>
        <time>2019-05-16T16:10:39.897Z</time>
      </trkpt>
      <trkpt lat="39.105665" lon="-8.73946833">
        <ele>7.0</ele>
        <time>2019-05-16T16:10:40.932Z</time>
      </trkpt>
      <trkpt lat="39.105665" lon="-8.73946833">
        <ele>7.0</ele>
        <time>2019-05-16T16:10:41.897Z</time>
      </trkpt>
      <trkpt lat="39.105665" lon="-8.73946833">
        <ele>7.0</ele>
        <time>2019-05-16T16:10:42.933Z</time>
      </trkpt>
      <trkpt lat="39.105665" lon="-8.73946833">
        <ele>7.0</ele>
        <time>2019-05-16T16:10:43.897Z</time>
      </trkpt>
      <trkpt lat="39.105665" lon="-8.73946833">
        <ele>7.0</ele>
        <time>2019-05-16T16:10:44.899Z</time>
      </trkpt>
      <trkpt lat="39.105665" lon="-8.73946833">
        <ele>7.0</ele>
        <time>2019-05-16T16:10:45.933Z</time>
      </trkpt>
      <trkpt lat="39.105665" lon="-8.73946833">
        <ele>7.0</ele>
        <time>2019-05-16T16:10:46.935Z</time>
      </trkpt>
      <trkpt lat="39.105665" lon="-8.73946833">
        <ele>7.0</ele>
        <time>2019-05-16T16:10:47.932Z</time>
      </trkpt>
      <trkpt lat="39.105665" lon="-8.73946833">
        <ele>7.0</ele>
        <time>2019-05-16T16:10:48.899Z</time>
      </trkpt>
      <trkpt lat="39.105665" lon="-8.73946833">
        <ele>7.0</ele>
        <time>2019-05-16T16:10:49.933Z</time>
      </trkpt>
      <trkpt lat="39.105665" lon="-8.73946833">
        <ele>7.0</ele>
        <time>2019-05-16T16:10:50.902Z</time>
      </trkpt>
      <trkpt lat="39.105665" lon="-8.73946833">
        <ele>7.0</ele>
        <time>2019-05-16T16:10:51.930Z</time>
      </trkpt>
      <trkpt lat="39.105665" lon="-8.73946833">
        <ele>7.0</ele>
        <time>2019-05-16T16:10:52.929Z</time>
      </trkpt>
      <trkpt lat="39.105665" lon="-8.73946833">
        <ele>7.0</ele>
        <time>2019-05-16T16:10:53.897Z</time>
      </trkpt>
      <trkpt lat="39.105665" lon="-8.73946833">
        <ele>7.0</ele>
        <time>2019-05-16T16:10:54.933Z</time>
      </trkpt>
      <trkpt lat="39.105665" lon="-8.73946833">
        <ele>7.0</ele>
        <time>2019-05-16T16:10:55.898Z</time>
      </trkpt>
      <trkpt lat="39.105665" lon="-8.73946833">
        <ele>7.0</ele>
        <time>2019-05-16T16:10:56.899Z</time>
      </trkpt>
      <trkpt lat="39.105665" lon="-8.73946833">
        <ele>7.0</ele>
        <time>2019-05-16T16:10:57.902Z</time>
      </trkpt>
      <trkpt lat="39.105665" lon="-8.73946833">
        <ele>7.0</ele>
        <time>2019-05-16T16:10:58.897Z</time>
      </trkpt>
      <trkpt lat="39.105665" lon="-8.73946833">
        <ele>7.0</ele>
        <time>2019-05-16T16:10:59.933Z</time>
      </trkpt>
      <trkpt lat="39.105665" lon="-8.73946833">
        <ele>7.0</ele>
        <time>2019-05-16T16:11:00.897Z</time>
      </trkpt>
      <trkpt lat="39.105665" lon="-8.73946833">
        <ele>7.0</ele>
        <time>2019-05-16T16:11:01.935Z</time>
      </trkpt>
      <trkpt lat="39.105665" lon="-8.73946833">
        <ele>7.0</ele>
        <time>2019-05-16T16:11:02.913Z</time>
      </trkpt>
      <trkpt lat="39.105665" lon="-8.73946833">
        <ele>7.0</ele>
        <time>2019-05-16T16:11:03.899Z</time>
      </trkpt>
      <trkpt lat="39.105665" lon="-8.73946833">
        <ele>7.0</ele>
        <time>2019-05-16T16:11:04.897Z</time>
      </trkpt>
      <trkpt lat="39.105665" lon="-8.73946833">
        <ele>7.0</ele>
        <time>2019-05-16T16:11:05.932Z</time>
      </trkpt>
      <trkpt lat="39.105665" lon="-8.73946833">
        <ele>7.0</ele>
        <time>2019-05-16T16:11:06.897Z</time>
      </trkpt>
      <trkpt lat="39.105665" lon="-8.73946833">
        <ele>7.0</ele>
        <time>2019-05-16T16:11:07.932Z</time>
      </trkpt>
      <trkpt lat="39.105665" lon="-8.73946833">
        <ele>7.0</ele>
        <time>2019-05-16T16:11:08.899Z</time>
      </trkpt>
      <trkpt lat="39.105665" lon="-8.73946833">
        <ele>7.0</ele>
        <time>2019-05-16T16:11:09.933Z</time>
      </trkpt>
      <trkpt lat="39.105665" lon="-8.73946833">
        <ele>7.0</ele>
        <time>2019-05-16T16:11:10.898Z</time>
      </trkpt>
      <trkpt lat="39.105665" lon="-8.73946833">
        <ele>7.0</ele>
        <time>2019-05-16T16:11:11.908Z</time>
      </trkpt>
      <trkpt lat="39.105665" lon="-8.73946833">
        <ele>7.0</ele>
        <time>2019-05-16T16:11:12.897Z</time>
      </trkpt>
      <trkpt lat="39.105665" lon="-8.73946833">
        <ele>7.0</ele>
        <time>2019-05-16T16:11:13.933Z</time>
      </trkpt>
      <trkpt lat="39.105665" lon="-8.73946833">
        <ele>7.0</ele>
        <time>2019-05-16T16:11:14.900Z</time>
      </trkpt>
      <trkpt lat="39.105665" lon="-8.73946833">
        <ele>7.0</ele>
        <time>2019-05-16T16:11:15.933Z</time>
      </trkpt>
      <trkpt lat="39.105665" lon="-8.73946833">
        <ele>7.0</ele>
        <time>2019-05-16T16:11:16.933Z</time>
      </trkpt>
      <trkpt lat="39.105665" lon="-8.73946833">
        <ele>7.0</ele>
        <time>2019-05-16T16:11:17.897Z</time>
      </trkpt>
      <trkpt lat="39.105665" lon="-8.73946833">
        <ele>7.0</ele>
        <time>2019-05-16T16:11:18.933Z</time>
      </trkpt>
      <trkpt lat="39.105665" lon="-8.73946833">
        <ele>7.0</ele>
        <time>2019-05-16T16:11:19.911Z</time>
      </trkpt>
      <trkpt lat="39.105665" lon="-8.73946833">
        <ele>7.0</ele>
        <time>2019-05-16T16:11:20.915Z</time>
      </trkpt>
      <trkpt lat="39.105665" lon="-8.73946833">
        <ele>7.0</ele>
        <time>2019-05-16T16:11:21.927Z</time>
      </trkpt>
      <trkpt lat="39.105665" lon="-8.73946833">
        <ele>7.0</ele>
        <time>2019-05-16T16:11:22.933Z</time>
      </trkpt>
      <trkpt lat="39.105665" lon="-8.73946833">
        <ele>7.0</ele>
        <time>2019-05-16T16:11:23.898Z</time>
      </trkpt>
      <trkpt lat="39.105665" lon="-8.73946833">
        <ele>7.0</ele>
        <time>2019-05-16T16:11:24.897Z</time>
      </trkpt>
      <trkpt lat="39.105665" lon="-8.73946833">
        <ele>7.0</ele>
        <time>2019-05-16T16:11:25.933Z</time>
      </trkpt>
      <trkpt lat="39.105665" lon="-8.73946833">
        <ele>7.0</ele>
        <time>2019-05-16T16:11:26.900Z</time>
      </trkpt>
      <trkpt lat="39.105665" lon="-8.73946833">
        <ele>7.0</ele>
        <time>2019-05-16T16:11:27.903Z</time>
      </trkpt>
      <trkpt lat="39.105665" lon="-8.73946833">
        <ele>7.0</ele>
        <time>2019-05-16T16:11:28.898Z</time>
      </trkpt>
      <trkpt lat="39.105665" lon="-8.73946833">
        <ele>7.0</ele>
        <time>2019-05-16T16:11:29.935Z</time>
      </trkpt>
      <trkpt lat="39.105665" lon="-8.73946833">
        <ele>7.0</ele>
        <time>2019-05-16T16:11:30.936Z</time>
      </trkpt>
      <trkpt lat="39.105665" lon="-8.73946833">
        <ele>7.0</ele>
        <time>2019-05-16T16:11:31.935Z</time>
      </trkpt>
      <trkpt lat="39.105665" lon="-8.73946833">
        <ele>7.0</ele>
        <time>2019-05-16T16:11:32.900Z</time>
      </trkpt>
      <trkpt lat="39.105665" lon="-8.73946833">
        <ele>7.0</ele>
        <time>2019-05-16T16:11:33.933Z</time>
      </trkpt>
      <trkpt lat="39.105665" lon="-8.73946833">
        <ele>7.0</ele>
        <time>2019-05-16T16:11:34.897Z</time>
      </trkpt>
      <trkpt lat="39.105665" lon="-8.73946833">
        <ele>7.0</ele>
        <time>2019-05-16T16:11:35.933Z</time>
      </trkpt>
      <trkpt lat="39.10567333" lon="-8.73945667">
        <ele>3.0</ele>
        <time>2019-05-16T16:11:36.898Z</time>
      </trkpt>
      <trkpt lat="39.10567333" lon="-8.73945667">
        <ele>3.0</ele>
        <time>2019-05-16T16:11:37.933Z</time>
      </trkpt>
      <trkpt lat="39.10567333" lon="-8.73946667">
        <ele>3.0</ele>
        <time>2019-05-16T16:11:38.900Z</time>
      </trkpt>
      <trkpt lat="39.10567333" lon="-8.73946667">
        <ele>3.0</ele>
        <time>2019-05-16T16:11:39.933Z</time>
      </trkpt>
      <trkpt lat="39.105675" lon="-8.73946833">
        <ele>3.0</ele>
        <time>2019-05-16T16:11:40.922Z</time>
      </trkpt>
      <trkpt lat="39.105675" lon="-8.73946833">
        <ele>3.0</ele>
        <time>2019-05-16T16:11:41.908Z</time>
      </trkpt>
      <trkpt lat="39.105675" lon="-8.73946833">
        <ele>3.0</ele>
        <time>2019-05-16T16:11:42.898Z</time>
      </trkpt>
      <trkpt lat="39.105675" lon="-8.73946833">
        <ele>3.0</ele>
        <time>2019-05-16T16:11:43.933Z</time>
      </trkpt>
      <trkpt lat="39.105675" lon="-8.73946833">
        <ele>3.0</ele>
        <time>2019-05-16T16:11:44.901Z</time>
      </trkpt>
      <trkpt lat="39.105675" lon="-8.73946833">
        <ele>3.0</ele>
        <time>2019-05-16T16:11:45.933Z</time>
      </trkpt>
      <trkpt lat="39.105675" lon="-8.73946833">
        <ele>3.0</ele>
        <time>2019-05-16T16:11:46.898Z</time>
      </trkpt>
      <trkpt lat="39.105675" lon="-8.73946833">
        <ele>3.0</ele>
        <time>2019-05-16T16:11:47.933Z</time>
      </trkpt>
      <trkpt lat="39.105675" lon="-8.73946833">
        <ele>3.0</ele>
        <time>2019-05-16T16:11:48.897Z</time>
      </trkpt>
      <trkpt lat="39.105675" lon="-8.73946833">
        <ele>3.0</ele>
        <time>2019-05-16T16:11:49.933Z</time>
      </trkpt>
      <trkpt lat="39.105675" lon="-8.73946833">
        <ele>3.0</ele>
        <time>2019-05-16T16:11:50.912Z</time>
      </trkpt>
      <trkpt lat="39.105675" lon="-8.73946833">
        <ele>3.0</ele>
        <time>2019-05-16T16:11:51.897Z</time>
      </trkpt>
      <trkpt lat="39.105675" lon="-8.73946833">
        <ele>3.0</ele>
        <time>2019-05-16T16:11:52.898Z</time>
      </trkpt>
      <trkpt lat="39.105675" lon="-8.73946833">
        <ele>3.0</ele>
        <time>2019-05-16T16:11:53.899Z</time>
      </trkpt>
      <trkpt lat="39.105675" lon="-8.73946833">
        <ele>3.0</ele>
        <time>2019-05-16T16:11:54.933Z</time>
      </trkpt>
      <trkpt lat="39.105675" lon="-8.73946833">
        <ele>3.0</ele>
        <time>2019-05-16T16:11:55.897Z</time>
      </trkpt>
      <trkpt lat="39.105675" lon="-8.73946833">
        <ele>3.0</ele>
        <time>2019-05-16T16:11:56.899Z</time>
      </trkpt>
      <trkpt lat="39.105675" lon="-8.73946833">
        <ele>3.0</ele>
        <time>2019-05-16T16:11:57.935Z</time>
      </trkpt>
      <trkpt lat="39.105675" lon="-8.73946833">
        <ele>3.0</ele>
        <time>2019-05-16T16:11:58.899Z</time>
      </trkpt>
      <trkpt lat="39.105675" lon="-8.73946833">
        <ele>3.0</ele>
        <time>2019-05-16T16:11:59.935Z</time>
      </trkpt>
      <trkpt lat="39.105675" lon="-8.73946833">
        <ele>3.0</ele>
        <time>2019-05-16T16:12:00.899Z</time>
      </trkpt>
      <trkpt lat="39.105675" lon="-8.73946833">
        <ele>3.0</ele>
        <time>2019-05-16T16:12:01.935Z</time>
      </trkpt>
      <trkpt lat="39.10569333" lon="-8.73948">
        <ele>2.0</ele>
        <time>2019-05-16T16:12:02.899Z</time>
      </trkpt>
      <trkpt lat="39.10569333" lon="-8.73948">
        <ele>2.0</ele>
        <time>2019-05-16T16:12:03.934Z</time>
      </trkpt>
      <trkpt lat="39.1057" lon="-8.73948333">
        <ele>2.0</ele>
        <time>2019-05-16T16:12:04.897Z</time>
      </trkpt>
      <trkpt lat="39.1057" lon="-8.73948333">
        <ele>2.0</ele>
        <time>2019-05-16T16:12:05.897Z</time>
      </trkpt>
      <trkpt lat="39.10570833" lon="-8.73948">
        <ele>2.0</ele>
        <time>2019-05-16T16:12:06.898Z</time>
      </trkpt>
      <trkpt lat="39.10570833" lon="-8.73948">
        <ele>2.0</ele>
        <time>2019-05-16T16:12:07.935Z</time>
      </trkpt>
      <trkpt lat="39.10572667" lon="-8.73947167">
        <ele>2.0</ele>
        <time>2019-05-16T16:12:08.898Z</time>
      </trkpt>
      <trkpt lat="39.10572667" lon="-8.73947167">
        <ele>2.0</ele>
        <time>2019-05-16T16:12:09.935Z</time>
      </trkpt>
      <trkpt lat="39.105755" lon="-8.73945833">
        <ele>2.0</ele>
        <time>2019-05-16T16:12:10.899Z</time>
      </trkpt>
      <trkpt lat="39.105755" lon="-8.73945833">
        <ele>2.0</ele>
        <time>2019-05-16T16:12:11.934Z</time>
      </trkpt>
      <trkpt lat="39.10580167" lon="-8.739435">
        <ele>2.0</ele>
        <time>2019-05-16T16:12:12.900Z</time>
      </trkpt>
      <trkpt lat="39.10580167" lon="-8.739435">
        <ele>2.0</ele>
        <time>2019-05-16T16:12:13.934Z</time>
      </trkpt>
      <trkpt lat="39.10585333" lon="-8.73941333">
        <ele>2.0</ele>
        <time>2019-05-16T16:12:14.913Z</time>
      </trkpt>
      <trkpt lat="39.10585333" lon="-8.73941333">
        <ele>2.0</ele>
        <time>2019-05-16T16:12:15.929Z</time>
      </trkpt>
      <trkpt lat="39.10591" lon="-8.73938333">
        <ele>2.0</ele>
        <time>2019-05-16T16:12:16.917Z</time>
      </trkpt>
      <trkpt lat="39.10594" lon="-8.73937">
        <ele>2.0</ele>
        <time>2019-05-16T16:12:17.939Z</time>
      </trkpt>
      <trkpt lat="39.10594" lon="-8.73937">
        <ele>2.0</ele>
        <time>2019-05-16T16:12:18.910Z</time>
      </trkpt>
      <trkpt lat="39.106" lon="-8.73933667">
        <ele>2.0</ele>
        <time>2019-05-16T16:12:19.897Z</time>
      </trkpt>
      <trkpt lat="39.106" lon="-8.73933667">
        <ele>2.0</ele>
        <time>2019-05-16T16:12:20.906Z</time>
      </trkpt>
      <trkpt lat="39.10606333" lon="-8.73930167">
        <ele>2.0</ele>
        <time>2019-05-16T16:12:21.931Z</time>
      </trkpt>
      <trkpt lat="39.10606333" lon="-8.73930167">
        <ele>2.0</ele>
        <time>2019-05-16T16:12:22.930Z</time>
      </trkpt>
      <trkpt lat="39.10613" lon="-8.739265">
        <ele>1.0</ele>
        <time>2019-05-16T16:12:23.931Z</time>
      </trkpt>
      <trkpt lat="39.10613" lon="-8.739265">
        <ele>1.0</ele>
        <time>2019-05-16T16:12:24.923Z</time>
      </trkpt>
      <trkpt lat="39.10619667" lon="-8.73923">
        <ele>1.0</ele>
        <time>2019-05-16T16:12:25.906Z</time>
      </trkpt>
      <trkpt lat="39.10623" lon="-8.73921">
        <ele>1.0</ele>
        <time>2019-05-16T16:12:26.907Z</time>
      </trkpt>
      <trkpt lat="39.10623" lon="-8.73921">
        <ele>1.0</ele>
        <time>2019-05-16T16:12:27.926Z</time>
      </trkpt>
      <trkpt lat="39.10629667" lon="-8.73917167">
        <ele>1.0</ele>
        <time>2019-05-16T16:12:28.911Z</time>
      </trkpt>
      <trkpt lat="39.10629667" lon="-8.73917167">
        <ele>1.0</ele>
        <time>2019-05-16T16:12:29.933Z</time>
      </trkpt>
      <trkpt lat="39.106365" lon="-8.73913667">
        <ele>1.0</ele>
        <time>2019-05-16T16:12:30.911Z</time>
      </trkpt>
      <trkpt lat="39.106365" lon="-8.73913667">
        <ele>1.0</ele>
        <time>2019-05-16T16:12:31.935Z</time>
      </trkpt>
      <trkpt lat="39.106435" lon="-8.7391">
        <ele>1.0</ele>
        <time>2019-05-16T16:12:32.921Z</time>
      </trkpt>
      <trkpt lat="39.106435" lon="-8.7391">
        <ele>1.0</ele>
        <time>2019-05-16T16:12:33.923Z</time>
      </trkpt>
      <trkpt lat="39.10650667" lon="-8.73906333">
        <ele>1.0</ele>
        <time>2019-05-16T16:12:34.903Z</time>
      </trkpt>
      <trkpt lat="39.10650667" lon="-8.73906333">
        <ele>1.0</ele>
        <time>2019-05-16T16:12:35.900Z</time>
      </trkpt>
      <trkpt lat="39.106575" lon="-8.73902667">
        <ele>1.0</ele>
        <time>2019-05-16T16:12:36.927Z</time>
      </trkpt>
      <trkpt lat="39.106575" lon="-8.73902667">
        <ele>1.0</ele>
        <time>2019-05-16T16:12:37.903Z</time>
      </trkpt>
      <trkpt lat="39.10664167" lon="-8.73899167">
        <ele>1.0</ele>
        <time>2019-05-16T16:12:38.925Z</time>
      </trkpt>
      <trkpt lat="39.10664167" lon="-8.73899167">
        <ele>1.0</ele>
        <time>2019-05-16T16:12:39.927Z</time>
      </trkpt>
      <trkpt lat="39.10670333" lon="-8.738955">
        <ele>1.0</ele>
        <time>2019-05-16T16:12:40.911Z</time>
      </trkpt>
      <trkpt lat="39.10670333" lon="-8.738955">
        <ele>1.0</ele>
        <time>2019-05-16T16:12:41.927Z</time>
      </trkpt>
      <trkpt lat="39.10676333" lon="-8.73891333">
        <ele>1.0</ele>
        <time>2019-05-16T16:12:42.936Z</time>
      </trkpt>
      <trkpt lat="39.10676333" lon="-8.73891333">
        <ele>1.0</ele>
        <time>2019-05-16T16:12:43.936Z</time>
      </trkpt>
      <trkpt lat="39.106825" lon="-8.738875">
        <ele>1.0</ele>
        <time>2019-05-16T16:12:44.911Z</time>
      </trkpt>
      <trkpt lat="39.106825" lon="-8.738875">
        <ele>1.0</ele>
        <time>2019-05-16T16:12:45.932Z</time>
      </trkpt>
      <trkpt lat="39.10688" lon="-8.73884667">
        <ele>1.0</ele>
        <time>2019-05-16T16:12:46.921Z</time>
      </trkpt>
      <trkpt lat="39.10688" lon="-8.73884667">
        <ele>1.0</ele>
        <time>2019-05-16T16:12:47.923Z</time>
      </trkpt>
      <trkpt lat="39.10693167" lon="-8.73881667">
        <ele>2.0</ele>
        <time>2019-05-16T16:12:48.911Z</time>
      </trkpt>
      <trkpt lat="39.10693167" lon="-8.73881667">
        <ele>2.0</ele>
        <time>2019-05-16T16:12:49.902Z</time>
      </trkpt>
      <trkpt lat="39.10698333" lon="-8.73878">
        <ele>2.0</ele>
        <time>2019-05-16T16:12:50.927Z</time>
      </trkpt>
      <trkpt lat="39.10698333" lon="-8.73878">
        <ele>2.0</ele>
        <time>2019-05-16T16:12:51.904Z</time>
      </trkpt>
      <trkpt lat="39.10703667" lon="-8.738735">
        <ele>3.0</ele>
        <time>2019-05-16T16:12:52.919Z</time>
      </trkpt>
      <trkpt lat="39.10703667" lon="-8.738735">
        <ele>3.0</ele>
        <time>2019-05-16T16:12:53.911Z</time>
      </trkpt>
      <trkpt lat="39.10709167" lon="-8.73868667">
        <ele>3.0</ele>
        <time>2019-05-16T16:12:54.930Z</time>
      </trkpt>
      <trkpt lat="39.10709167" lon="-8.73868667">
        <ele>3.0</ele>
        <time>2019-05-16T16:12:55.904Z</time>
      </trkpt>
      <trkpt lat="39.10713333" lon="-8.73865167">
        <ele>4.0</ele>
        <time>2019-05-16T16:12:56.924Z</time>
      </trkpt>
      <trkpt lat="39.10713333" lon="-8.73865167">
        <ele>4.0</ele>
        <time>2019-05-16T16:12:57.923Z</time>
      </trkpt>
      <trkpt lat="39.10716833" lon="-8.73862">
        <ele>4.0</ele>
        <time>2019-05-16T16:12:58.900Z</time>
      </trkpt>
      <trkpt lat="39.10716833" lon="-8.73862">
        <ele>4.0</ele>
        <time>2019-05-16T16:12:59.903Z</time>
      </trkpt>
      <trkpt lat="39.107205" lon="-8.73858833">
        <ele>4.0</ele>
        <time>2019-05-16T16:13:00.931Z</time>
      </trkpt>
      <trkpt lat="39.10722667" lon="-8.738575">
        <ele>4.0</ele>
        <time>2019-05-16T16:13:01.927Z</time>
      </trkpt>
      <trkpt lat="39.107255" lon="-8.73855833">
        <ele>5.0</ele>
        <time>2019-05-16T16:13:02.917Z</time>
      </trkpt>
      <trkpt lat="39.107255" lon="-8.73855833">
        <ele>5.0</ele>
        <time>2019-05-16T16:13:03.935Z</time>
      </trkpt>
      <trkpt lat="39.10731833" lon="-8.73851167">
        <ele>4.0</ele>
        <time>2019-05-16T16:13:04.931Z</time>
      </trkpt>
      <trkpt lat="39.10731833" lon="-8.73851167">
        <ele>4.0</ele>
        <time>2019-05-16T16:13:05.913Z</time>
      </trkpt>
      <trkpt lat="39.10738333" lon="-8.73846667">
        <ele>4.0</ele>
        <time>2019-05-16T16:13:06.904Z</time>
      </trkpt>
      <trkpt lat="39.10738333" lon="-8.73846667">
        <ele>4.0</ele>
        <time>2019-05-16T16:13:07.927Z</time>
      </trkpt>
      <trkpt lat="39.107455" lon="-8.73842167">
        <ele>4.0</ele>
        <time>2019-05-16T16:13:08.904Z</time>
      </trkpt>
      <trkpt lat="39.107455" lon="-8.73842167">
        <ele>4.0</ele>
        <time>2019-05-16T16:13:09.923Z</time>
      </trkpt>
      <trkpt lat="39.10751" lon="-8.73837167">
        <ele>4.0</ele>
        <time>2019-05-16T16:13:10.901Z</time>
      </trkpt>
      <trkpt lat="39.10751" lon="-8.73837167">
        <ele>4.0</ele>
        <time>2019-05-16T16:13:11.928Z</time>
      </trkpt>
      <trkpt lat="39.107565" lon="-8.73832833">
        <ele>5.0</ele>
        <time>2019-05-16T16:13:12.924Z</time>
      </trkpt>
      <trkpt lat="39.107565" lon="-8.73832833">
        <ele>5.0</ele>
        <time>2019-05-16T16:13:13.932Z</time>
      </trkpt>
      <trkpt lat="39.10762" lon="-8.73828833">
        <ele>5.0</ele>
        <time>2019-05-16T16:13:14.913Z</time>
      </trkpt>
      <trkpt lat="39.10764667" lon="-8.73827">
        <ele>5.0</ele>
        <time>2019-05-16T16:13:15.912Z</time>
      </trkpt>
      <trkpt lat="39.10764667" lon="-8.73827">
        <ele>5.0</ele>
        <time>2019-05-16T16:13:16.925Z</time>
      </trkpt>
      <trkpt lat="39.10770833" lon="-8.73823333">
        <ele>5.0</ele>
        <time>2019-05-16T16:13:17.905Z</time>
      </trkpt>
      <trkpt lat="39.10770833" lon="-8.73823333">
        <ele>5.0</ele>
        <time>2019-05-16T16:13:18.931Z</time>
      </trkpt>
      <trkpt lat="39.10777167" lon="-8.73820333">
        <ele>5.0</ele>
        <time>2019-05-16T16:13:19.925Z</time>
      </trkpt>
      <trkpt lat="39.10777167" lon="-8.73820333">
        <ele>5.0</ele>
        <time>2019-05-16T16:13:20.934Z</time>
      </trkpt>
      <trkpt lat="39.10782333" lon="-8.73815667">
        <ele>5.0</ele>
        <time>2019-05-16T16:13:21.933Z</time>
      </trkpt>
      <trkpt lat="39.10782333" lon="-8.73815667">
        <ele>5.0</ele>
        <time>2019-05-16T16:13:22.914Z</time>
      </trkpt>
      <trkpt lat="39.10788333" lon="-8.73812667">
        <ele>5.0</ele>
        <time>2019-05-16T16:13:23.899Z</time>
      </trkpt>
      <trkpt lat="39.10791333" lon="-8.73811167">
        <ele>5.0</ele>
        <time>2019-05-16T16:13:24.927Z</time>
      </trkpt>
      <trkpt lat="39.10791333" lon="-8.73811167">
        <ele>5.0</ele>
        <time>2019-05-16T16:13:25.912Z</time>
      </trkpt>
      <trkpt lat="39.107975" lon="-8.73807333">
        <ele>5.0</ele>
        <time>2019-05-16T16:13:26.931Z</time>
      </trkpt>
      <trkpt lat="39.107975" lon="-8.73807333">
        <ele>5.0</ele>
        <time>2019-05-16T16:13:27.903Z</time>
      </trkpt>
      <trkpt lat="39.108035" lon="-8.73804">
        <ele>5.0</ele>
        <time>2019-05-16T16:13:28.923Z</time>
      </trkpt>
      <trkpt lat="39.108035" lon="-8.73804">
        <ele>5.0</ele>
        <time>2019-05-16T16:13:29.928Z</time>
      </trkpt>
      <trkpt lat="39.10809167" lon="-8.73801">
        <ele>5.0</ele>
        <time>2019-05-16T16:13:30.931Z</time>
      </trkpt>
      <trkpt lat="39.10809167" lon="-8.73801">
        <ele>5.0</ele>
        <time>2019-05-16T16:13:31.920Z</time>
      </trkpt>
      <trkpt lat="39.108145" lon="-8.73797833">
        <ele>6.0</ele>
        <time>2019-05-16T16:13:32.902Z</time>
      </trkpt>
      <trkpt lat="39.108145" lon="-8.73797833">
        <ele>6.0</ele>
        <time>2019-05-16T16:13:33.905Z</time>
      </trkpt>
      <trkpt lat="39.10819833" lon="-8.73794833">
        <ele>6.0</ele>
        <time>2019-05-16T16:13:34.931Z</time>
      </trkpt>
      <trkpt lat="39.10819833" lon="-8.73794833">
        <ele>6.0</ele>
        <time>2019-05-16T16:13:35.903Z</time>
      </trkpt>
      <trkpt lat="39.10825333" lon="-8.73791833">
        <ele>6.0</ele>
        <time>2019-05-16T16:13:36.934Z</time>
      </trkpt>
      <trkpt lat="39.10825333" lon="-8.73791833">
        <ele>6.0</ele>
        <time>2019-05-16T16:13:37.897Z</time>
      </trkpt>
      <trkpt lat="39.10831" lon="-8.73789">
        <ele>6.0</ele>
        <time>2019-05-16T16:13:38.917Z</time>
      </trkpt>
      <trkpt lat="39.10831" lon="-8.73789">
        <ele>6.0</ele>
        <time>2019-05-16T16:13:39.904Z</time>
      </trkpt>
      <trkpt lat="39.10836833" lon="-8.73786">
        <ele>6.0</ele>
        <time>2019-05-16T16:13:40.930Z</time>
      </trkpt>
      <trkpt lat="39.10836833" lon="-8.73786">
        <ele>6.0</ele>
        <time>2019-05-16T16:13:41.903Z</time>
      </trkpt>
      <trkpt lat="39.10842167" lon="-8.737825">
        <ele>6.0</ele>
        <time>2019-05-16T16:13:42.918Z</time>
      </trkpt>
      <trkpt lat="39.10842167" lon="-8.737825">
        <ele>6.0</ele>
        <time>2019-05-16T16:13:43.904Z</time>
      </trkpt>
      <trkpt lat="39.10847833" lon="-8.73778833">
        <ele>6.0</ele>
        <time>2019-05-16T16:13:44.917Z</time>
      </trkpt>
      <trkpt lat="39.10847833" lon="-8.73778833">
        <ele>6.0</ele>
        <time>2019-05-16T16:13:45.906Z</time>
      </trkpt>
      <trkpt lat="39.10853333" lon="-8.73775333">
        <ele>6.0</ele>
        <time>2019-05-16T16:13:46.926Z</time>
      </trkpt>
      <trkpt lat="39.10853333" lon="-8.73775333">
        <ele>6.0</ele>
        <time>2019-05-16T16:13:47.912Z</time>
      </trkpt>
      <trkpt lat="39.10859" lon="-8.73771833">
        <ele>6.0</ele>
        <time>2019-05-16T16:13:48.937Z</time>
      </trkpt>
      <trkpt lat="39.10859" lon="-8.73771833">
        <ele>6.0</ele>
        <time>2019-05-16T16:13:49.934Z</time>
      </trkpt>
      <trkpt lat="39.10865" lon="-8.73768167">
        <ele>6.0</ele>
        <time>2019-05-16T16:13:50.908Z</time>
      </trkpt>
      <trkpt lat="39.10865" lon="-8.73768167">
        <ele>6.0</ele>
        <time>2019-05-16T16:13:51.926Z</time>
      </trkpt>
      <trkpt lat="39.10870833" lon="-8.73763833">
        <ele>6.0</ele>
        <time>2019-05-16T16:13:52.914Z</time>
      </trkpt>
      <trkpt lat="39.10873833" lon="-8.73761833">
        <ele>6.0</ele>
        <time>2019-05-16T16:13:53.921Z</time>
      </trkpt>
      <trkpt lat="39.10873833" lon="-8.73761833">
        <ele>6.0</ele>
        <time>2019-05-16T16:13:54.909Z</time>
      </trkpt>
      <trkpt lat="39.1088" lon="-8.73758167">
        <ele>6.0</ele>
        <time>2019-05-16T16:13:55.931Z</time>
      </trkpt>
      <trkpt lat="39.10883167" lon="-8.737565">
        <ele>6.0</ele>
        <time>2019-05-16T16:13:56.932Z</time>
      </trkpt>
      <trkpt lat="39.10883167" lon="-8.737565">
        <ele>6.0</ele>
        <time>2019-05-16T16:13:57.910Z</time>
      </trkpt>
      <trkpt lat="39.10889" lon="-8.737525">
        <ele>6.0</ele>
        <time>2019-05-16T16:13:58.930Z</time>
      </trkpt>
      <trkpt lat="39.10889" lon="-8.737525">
        <ele>6.0</ele>
        <time>2019-05-16T16:13:59.926Z</time>
      </trkpt>
      <trkpt lat="39.10894667" lon="-8.73748333">
        <ele>6.0</ele>
        <time>2019-05-16T16:14:00.905Z</time>
      </trkpt>
      <trkpt lat="39.108975" lon="-8.73746167">
        <ele>6.0</ele>
        <time>2019-05-16T16:14:01.939Z</time>
      </trkpt>
      <trkpt lat="39.10900333" lon="-8.73743833">
        <ele>6.0</ele>
        <time>2019-05-16T16:14:02.930Z</time>
      </trkpt>
      <trkpt lat="39.10900333" lon="-8.73743833">
        <ele>6.0</ele>
        <time>2019-05-16T16:14:03.935Z</time>
      </trkpt>
      <trkpt lat="39.10906167" lon="-8.73739">
        <ele>6.0</ele>
        <time>2019-05-16T16:14:04.917Z</time>
      </trkpt>
      <trkpt lat="39.10906167" lon="-8.73739">
        <ele>6.0</ele>
        <time>2019-05-16T16:14:05.933Z</time>
      </trkpt>
      <trkpt lat="39.10912167" lon="-8.73734167">
        <ele>6.0</ele>
        <time>2019-05-16T16:14:06.919Z</time>
      </trkpt>
      <trkpt lat="39.10912167" lon="-8.73734167">
        <ele>6.0</ele>
        <time>2019-05-16T16:14:07.905Z</time>
      </trkpt>
      <trkpt lat="39.10918" lon="-8.73729167">
        <ele>6.0</ele>
        <time>2019-05-16T16:14:08.922Z</time>
      </trkpt>
      <trkpt lat="39.10918" lon="-8.73729167">
        <ele>6.0</ele>
        <time>2019-05-16T16:14:09.933Z</time>
      </trkpt>
      <trkpt lat="39.10924" lon="-8.737245">
        <ele>6.0</ele>
        <time>2019-05-16T16:14:10.920Z</time>
      </trkpt>
      <trkpt lat="39.10924" lon="-8.737245">
        <ele>6.0</ele>
        <time>2019-05-16T16:14:11.906Z</time>
      </trkpt>
      <trkpt lat="39.10929833" lon="-8.73719333">
        <ele>6.0</ele>
        <time>2019-05-16T16:14:12.931Z</time>
      </trkpt>
      <trkpt lat="39.10929833" lon="-8.73719333">
        <ele>6.0</ele>
        <time>2019-05-16T16:14:13.935Z</time>
      </trkpt>
      <trkpt lat="39.10935833" lon="-8.73714667">
        <ele>6.0</ele>
        <time>2019-05-16T16:14:14.917Z</time>
      </trkpt>
      <trkpt lat="39.10935833" lon="-8.73714667">
        <ele>6.0</ele>
        <time>2019-05-16T16:14:15.924Z</time>
      </trkpt>
      <trkpt lat="39.10942" lon="-8.73709833">
        <ele>6.0</ele>
        <time>2019-05-16T16:14:16.899Z</time>
      </trkpt>
      <trkpt lat="39.10942" lon="-8.73709833">
        <ele>6.0</ele>
        <time>2019-05-16T16:14:17.913Z</time>
      </trkpt>
      <trkpt lat="39.10948" lon="-8.73704333">
        <ele>6.0</ele>
        <time>2019-05-16T16:14:18.899Z</time>
      </trkpt>
      <trkpt lat="39.10948" lon="-8.73704333">
        <ele>6.0</ele>
        <time>2019-05-16T16:14:19.933Z</time>
      </trkpt>
      <trkpt lat="39.10954" lon="-8.73699">
        <ele>6.0</ele>
        <time>2019-05-16T16:14:20.908Z</time>
      </trkpt>
      <trkpt lat="39.10954" lon="-8.73699">
        <ele>6.0</ele>
        <time>2019-05-16T16:14:21.901Z</time>
      </trkpt>
      <trkpt lat="39.10959833" lon="-8.73693833">
        <ele>6.0</ele>
        <time>2019-05-16T16:14:22.932Z</time>
      </trkpt>
      <trkpt lat="39.10959833" lon="-8.73693833">
        <ele>6.0</ele>
        <time>2019-05-16T16:14:23.928Z</time>
      </trkpt>
      <trkpt lat="39.109655" lon="-8.73688667">
        <ele>5.0</ele>
        <time>2019-05-16T16:14:24.911Z</time>
      </trkpt>
      <trkpt lat="39.109655" lon="-8.73688667">
        <ele>5.0</ele>
        <time>2019-05-16T16:14:25.924Z</time>
      </trkpt>
      <trkpt lat="39.10971" lon="-8.73683167">
        <ele>5.0</ele>
        <time>2019-05-16T16:14:26.897Z</time>
      </trkpt>
      <trkpt lat="39.10971" lon="-8.73683167">
        <ele>5.0</ele>
        <time>2019-05-16T16:14:27.934Z</time>
      </trkpt>
      <trkpt lat="39.10976333" lon="-8.73677833">
        <ele>5.0</ele>
        <time>2019-05-16T16:14:28.925Z</time>
      </trkpt>
      <trkpt lat="39.10976333" lon="-8.73677833">
        <ele>5.0</ele>
        <time>2019-05-16T16:14:29.900Z</time>
      </trkpt>
      <trkpt lat="39.10981667" lon="-8.736725">
        <ele>5.0</ele>
        <time>2019-05-16T16:14:30.902Z</time>
      </trkpt>
      <trkpt lat="39.10984333" lon="-8.7367">
        <ele>5.0</ele>
        <time>2019-05-16T16:14:31.905Z</time>
      </trkpt>
      <trkpt lat="39.10987167" lon="-8.73667333">
        <ele>5.0</ele>
        <time>2019-05-16T16:14:32.898Z</time>
      </trkpt>
      <trkpt lat="39.10987167" lon="-8.73667333">
        <ele>5.0</ele>
        <time>2019-05-16T16:14:33.927Z</time>
      </trkpt>
      <trkpt lat="39.10992833" lon="-8.73662167">
        <ele>5.0</ele>
        <time>2019-05-16T16:14:34.908Z</time>
      </trkpt>
      <trkpt lat="39.10992833" lon="-8.73662167">
        <ele>5.0</ele>
        <time>2019-05-16T16:14:35.913Z</time>
      </trkpt>
      <trkpt lat="39.10998667" lon="-8.73657">
        <ele>5.0</ele>
        <time>2019-05-16T16:14:36.903Z</time>
      </trkpt>
      <trkpt lat="39.10998667" lon="-8.73657">
        <ele>5.0</ele>
        <time>2019-05-16T16:14:37.930Z</time>
      </trkpt>
      <trkpt lat="39.11004333" lon="-8.73651167">
        <ele>5.0</ele>
        <time>2019-05-16T16:14:38.898Z</time>
      </trkpt>
      <trkpt lat="39.11004333" lon="-8.73651167">
        <ele>5.0</ele>
        <time>2019-05-16T16:14:39.923Z</time>
      </trkpt>
      <trkpt lat="39.1101" lon="-8.73645333">
        <ele>5.0</ele>
        <time>2019-05-16T16:14:40.905Z</time>
      </trkpt>
      <trkpt lat="39.11012833" lon="-8.736425">
        <ele>4.0</ele>
        <time>2019-05-16T16:14:41.897Z</time>
      </trkpt>
      <trkpt lat="39.11012833" lon="-8.736425">
        <ele>4.0</ele>
        <time>2019-05-16T16:14:42.902Z</time>
      </trkpt>
      <trkpt lat="39.11018833" lon="-8.73636667">
        <ele>4.0</ele>
        <time>2019-05-16T16:14:43.923Z</time>
      </trkpt>
      <trkpt lat="39.11022" lon="-8.73634">
        <ele>4.0</ele>
        <time>2019-05-16T16:14:44.917Z</time>
      </trkpt>
      <trkpt lat="39.11022" lon="-8.73634">
        <ele>4.0</ele>
        <time>2019-05-16T16:14:45.905Z</time>
      </trkpt>
      <trkpt lat="39.11028333" lon="-8.73628667">
        <ele>4.0</ele>
        <time>2019-05-16T16:14:46.930Z</time>
      </trkpt>
      <trkpt lat="39.11028333" lon="-8.73628667">
        <ele>4.0</ele>
        <time>2019-05-16T16:14:47.933Z</time>
      </trkpt>
      <trkpt lat="39.11034667" lon="-8.73623">
        <ele>4.0</ele>
        <time>2019-05-16T16:14:48.911Z</time>
      </trkpt>
      <trkpt lat="39.11034667" lon="-8.73623">
        <ele>4.0</ele>
        <time>2019-05-16T16:14:49.903Z</time>
      </trkpt>
      <trkpt lat="39.11041" lon="-8.736175">
        <ele>4.0</ele>
        <time>2019-05-16T16:14:50.918Z</time>
      </trkpt>
      <trkpt lat="39.11041" lon="-8.736175">
        <ele>4.0</ele>
        <time>2019-05-16T16:14:51.908Z</time>
      </trkpt>
      <trkpt lat="39.11046833" lon="-8.73612">
        <ele>4.0</ele>
        <time>2019-05-16T16:14:52.898Z</time>
      </trkpt>
      <trkpt lat="39.1105" lon="-8.736095">
        <ele>4.0</ele>
        <time>2019-05-16T16:14:53.904Z</time>
      </trkpt>
      <trkpt lat="39.1105" lon="-8.736095">
        <ele>4.0</ele>
        <time>2019-05-16T16:14:54.925Z</time>
      </trkpt>
      <trkpt lat="39.11056167" lon="-8.736055">
        <ele>4.0</ele>
        <time>2019-05-16T16:14:55.911Z</time>
      </trkpt>
      <trkpt lat="39.11059167" lon="-8.73603">
        <ele>4.0</ele>
        <time>2019-05-16T16:14:56.903Z</time>
      </trkpt>
      <trkpt lat="39.11059167" lon="-8.73603">
        <ele>4.0</ele>
        <time>2019-05-16T16:14:57.930Z</time>
      </trkpt>
      <trkpt lat="39.11065167" lon="-8.73597333">
        <ele>4.0</ele>
        <time>2019-05-16T16:14:58.915Z</time>
      </trkpt>
      <trkpt lat="39.11068333" lon="-8.73594833">
        <ele>4.0</ele>
        <time>2019-05-16T16:14:59.920Z</time>
      </trkpt>
      <trkpt lat="39.11068333" lon="-8.73594833">
        <ele>4.0</ele>
        <time>2019-05-16T16:15:00.909Z</time>
      </trkpt>
      <trkpt lat="39.11074833" lon="-8.73590667">
        <ele>4.0</ele>
        <time>2019-05-16T16:15:01.906Z</time>
      </trkpt>
      <trkpt lat="39.11078" lon="-8.73588667">
        <ele>4.0</ele>
        <time>2019-05-16T16:15:02.908Z</time>
      </trkpt>
      <trkpt lat="39.11078" lon="-8.73588667">
        <ele>4.0</ele>
        <time>2019-05-16T16:15:03.925Z</time>
      </trkpt>
      <trkpt lat="39.110845" lon="-8.735845">
        <ele>4.0</ele>
        <time>2019-05-16T16:15:04.907Z</time>
      </trkpt>
      <trkpt lat="39.110845" lon="-8.735845">
        <ele>4.0</ele>
        <time>2019-05-16T16:15:05.936Z</time>
      </trkpt>
      <trkpt lat="39.11091" lon="-8.7358">
        <ele>3.0</ele>
        <time>2019-05-16T16:15:06.922Z</time>
      </trkpt>
      <trkpt lat="39.11091" lon="-8.7358">
        <ele>3.0</ele>
        <time>2019-05-16T16:15:07.922Z</time>
      </trkpt>
      <trkpt lat="39.11097333" lon="-8.73576">
        <ele>3.0</ele>
        <time>2019-05-16T16:15:08.899Z</time>
      </trkpt>
      <trkpt lat="39.11097333" lon="-8.73576">
        <ele>3.0</ele>
        <time>2019-05-16T16:15:09.927Z</time>
      </trkpt>
      <trkpt lat="39.11104" lon="-8.73572333">
        <ele>3.0</ele>
        <time>2019-05-16T16:15:10.912Z</time>
      </trkpt>
      <trkpt lat="39.11107333" lon="-8.735705">
        <ele>3.0</ele>
        <time>2019-05-16T16:15:11.917Z</time>
      </trkpt>
      <trkpt lat="39.11107333" lon="-8.735705">
        <ele>3.0</ele>
        <time>2019-05-16T16:15:12.903Z</time>
      </trkpt>
      <trkpt lat="39.11114167" lon="-8.73566667">
        <ele>3.0</ele>
        <time>2019-05-16T16:15:13.913Z</time>
      </trkpt>
      <trkpt lat="39.11117333" lon="-8.73564667">
        <ele>3.0</ele>
        <time>2019-05-16T16:15:14.935Z</time>
      </trkpt>
      <trkpt lat="39.11117333" lon="-8.73564667">
        <ele>3.0</ele>
        <time>2019-05-16T16:15:15.928Z</time>
      </trkpt>
      <trkpt lat="39.11123833" lon="-8.73561">
        <ele>3.0</ele>
        <time>2019-05-16T16:15:16.920Z</time>
      </trkpt>
      <trkpt lat="39.11123833" lon="-8.73561">
        <ele>3.0</ele>
        <time>2019-05-16T16:15:17.928Z</time>
      </trkpt>
      <trkpt lat="39.111305" lon="-8.73557667">
        <ele>3.0</ele>
        <time>2019-05-16T16:15:18.911Z</time>
      </trkpt>
      <trkpt lat="39.111305" lon="-8.73557667">
        <ele>3.0</ele>
        <time>2019-05-16T16:15:19.903Z</time>
      </trkpt>
      <trkpt lat="39.11137" lon="-8.73554">
        <ele>3.0</ele>
        <time>2019-05-16T16:15:20.932Z</time>
      </trkpt>
      <trkpt lat="39.11140167" lon="-8.73552167">
        <ele>3.0</ele>
        <time>2019-05-16T16:15:21.933Z</time>
      </trkpt>
      <trkpt lat="39.11140167" lon="-8.73552167">
        <ele>3.0</ele>
        <time>2019-05-16T16:15:22.925Z</time>
      </trkpt>
      <trkpt lat="39.11146667" lon="-8.73548667">
        <ele>3.0</ele>
        <time>2019-05-16T16:15:23.903Z</time>
      </trkpt>
      <trkpt lat="39.11146667" lon="-8.73548667">
        <ele>3.0</ele>
        <time>2019-05-16T16:15:24.933Z</time>
      </trkpt>
      <trkpt lat="39.11152833" lon="-8.73545">
        <ele>3.0</ele>
        <time>2019-05-16T16:15:25.920Z</time>
      </trkpt>
      <trkpt lat="39.11155833" lon="-8.73543167">
        <ele>3.0</ele>
        <time>2019-05-16T16:15:26.910Z</time>
      </trkpt>
      <trkpt lat="39.11155833" lon="-8.73543167">
        <ele>3.0</ele>
        <time>2019-05-16T16:15:27.903Z</time>
      </trkpt>
      <trkpt lat="39.11161833" lon="-8.73539">
        <ele>3.0</ele>
        <time>2019-05-16T16:15:28.922Z</time>
      </trkpt>
      <trkpt lat="39.11164833" lon="-8.73536833">
        <ele>3.0</ele>
        <time>2019-05-16T16:15:29.929Z</time>
      </trkpt>
      <trkpt lat="39.11164833" lon="-8.73536833">
        <ele>3.0</ele>
        <time>2019-05-16T16:15:30.933Z</time>
      </trkpt>
      <trkpt lat="39.11170667" lon="-8.73532333">
        <ele>3.0</ele>
        <time>2019-05-16T16:15:31.910Z</time>
      </trkpt>
      <trkpt lat="39.11173667" lon="-8.7353">
        <ele>3.0</ele>
        <time>2019-05-16T16:15:32.928Z</time>
      </trkpt>
      <trkpt lat="39.11173667" lon="-8.7353">
        <ele>3.0</ele>
        <time>2019-05-16T16:15:33.924Z</time>
      </trkpt>
      <trkpt lat="39.11179333" lon="-8.73525167">
        <ele>3.0</ele>
        <time>2019-05-16T16:15:34.901Z</time>
      </trkpt>
      <trkpt lat="39.11179333" lon="-8.73525167">
        <ele>3.0</ele>
        <time>2019-05-16T16:15:35.913Z</time>
      </trkpt>
      <trkpt lat="39.11185167" lon="-8.73520333">
        <ele>2.0</ele>
        <time>2019-05-16T16:15:36.936Z</time>
      </trkpt>
      <trkpt lat="39.11185167" lon="-8.73520333">
        <ele>2.0</ele>
        <time>2019-05-16T16:15:37.898Z</time>
      </trkpt>
      <trkpt lat="39.111905" lon="-8.73515333">
        <ele>3.0</ele>
        <time>2019-05-16T16:15:38.919Z</time>
      </trkpt>
      <trkpt lat="39.111905" lon="-8.73515333">
        <ele>3.0</ele>
        <time>2019-05-16T16:15:39.897Z</time>
      </trkpt>
      <trkpt lat="39.11196" lon="-8.73510333">
        <ele>3.0</ele>
        <time>2019-05-16T16:15:40.916Z</time>
      </trkpt>
      <trkpt lat="39.11196" lon="-8.73510333">
        <ele>3.0</ele>
        <time>2019-05-16T16:15:41.934Z</time>
      </trkpt>
      <trkpt lat="39.11202" lon="-8.73506167">
        <ele>2.0</ele>
        <time>2019-05-16T16:15:42.929Z</time>
      </trkpt>
      <trkpt lat="39.11202" lon="-8.73506167">
        <ele>2.0</ele>
        <time>2019-05-16T16:15:43.918Z</time>
      </trkpt>
      <trkpt lat="39.11207333" lon="-8.73501833">
        <ele>2.0</ele>
        <time>2019-05-16T16:15:44.919Z</time>
      </trkpt>
      <trkpt lat="39.11207333" lon="-8.73501833">
        <ele>2.0</ele>
        <time>2019-05-16T16:15:45.933Z</time>
      </trkpt>
      <trkpt lat="39.11212167" lon="-8.73498333">
        <ele>3.0</ele>
        <time>2019-05-16T16:15:46.913Z</time>
      </trkpt>
      <trkpt lat="39.11212167" lon="-8.73498333">
        <ele>3.0</ele>
        <time>2019-05-16T16:15:47.931Z</time>
      </trkpt>
      <trkpt lat="39.11217667" lon="-8.73495333">
        <ele>3.0</ele>
        <time>2019-05-16T16:15:48.912Z</time>
      </trkpt>
      <trkpt lat="39.11220833" lon="-8.73494167">
        <ele>3.0</ele>
        <time>2019-05-16T16:15:49.931Z</time>
      </trkpt>
      <trkpt lat="39.11220833" lon="-8.73494167">
        <ele>3.0</ele>
        <time>2019-05-16T16:15:50.915Z</time>
      </trkpt>
      <trkpt lat="39.11227333" lon="-8.73492">
        <ele>2.0</ele>
        <time>2019-05-16T16:15:51.909Z</time>
      </trkpt>
      <trkpt lat="39.11227333" lon="-8.73492">
        <ele>2.0</ele>
        <time>2019-05-16T16:15:52.929Z</time>
      </trkpt>
      <trkpt lat="39.11233667" lon="-8.73489667">
        <ele>2.0</ele>
        <time>2019-05-16T16:15:53.902Z</time>
      </trkpt>
      <trkpt lat="39.11236833" lon="-8.73488167">
        <ele>2.0</ele>
        <time>2019-05-16T16:15:54.915Z</time>
      </trkpt>
      <trkpt lat="39.11236833" lon="-8.73488167">
        <ele>2.0</ele>
        <time>2019-05-16T16:15:55.912Z</time>
      </trkpt>
      <trkpt lat="39.11242333" lon="-8.73485833">
        <ele>2.0</ele>
        <time>2019-05-16T16:15:56.902Z</time>
      </trkpt>
      <trkpt lat="39.11242333" lon="-8.73485833">
        <ele>2.0</ele>
        <time>2019-05-16T16:15:57.903Z</time>
      </trkpt>
      <trkpt lat="39.11247667" lon="-8.73483167">
        <ele>2.0</ele>
        <time>2019-05-16T16:15:58.920Z</time>
      </trkpt>
      <trkpt lat="39.11247667" lon="-8.73483167">
        <ele>2.0</ele>
        <time>2019-05-16T16:15:59.923Z</time>
      </trkpt>
      <trkpt lat="39.11253" lon="-8.7348">
        <ele>2.0</ele>
        <time>2019-05-16T16:16:00.901Z</time>
      </trkpt>
      <trkpt lat="39.11253" lon="-8.7348">
        <ele>2.0</ele>
        <time>2019-05-16T16:16:01.930Z</time>
      </trkpt>
      <trkpt lat="39.11258167" lon="-8.734775">
        <ele>2.0</ele>
        <time>2019-05-16T16:16:02.946Z</time>
      </trkpt>
      <trkpt lat="39.11258167" lon="-8.734775">
        <ele>2.0</ele>
        <time>2019-05-16T16:16:03.923Z</time>
      </trkpt>
      <trkpt lat="39.11263333" lon="-8.73474833">
        <ele>2.0</ele>
        <time>2019-05-16T16:16:04.934Z</time>
      </trkpt>
      <trkpt lat="39.11263333" lon="-8.73474833">
        <ele>2.0</ele>
        <time>2019-05-16T16:16:05.928Z</time>
      </trkpt>
      <trkpt lat="39.112685" lon="-8.73471833">
        <ele>3.0</ele>
        <time>2019-05-16T16:16:06.908Z</time>
      </trkpt>
      <trkpt lat="39.112685" lon="-8.73471833">
        <ele>3.0</ele>
        <time>2019-05-16T16:16:07.900Z</time>
      </trkpt>
      <trkpt lat="39.11273167" lon="-8.734695">
        <ele>3.0</ele>
        <time>2019-05-16T16:16:08.919Z</time>
      </trkpt>
      <trkpt lat="39.11273167" lon="-8.734695">
        <ele>3.0</ele>
        <time>2019-05-16T16:16:09.903Z</time>
      </trkpt>
      <trkpt lat="39.112775" lon="-8.73466833">
        <ele>3.0</ele>
        <time>2019-05-16T16:16:10.920Z</time>
      </trkpt>
      <trkpt lat="39.112775" lon="-8.73466833">
        <ele>3.0</ele>
        <time>2019-05-16T16:16:11.906Z</time>
      </trkpt>
      <trkpt lat="39.11282" lon="-8.73463833">
        <ele>3.0</ele>
        <time>2019-05-16T16:16:12.899Z</time>
      </trkpt>
      <trkpt lat="39.11284333" lon="-8.73462">
        <ele>3.0</ele>
        <time>2019-05-16T16:16:13.918Z</time>
      </trkpt>
      <trkpt lat="39.11286667" lon="-8.73460167">
        <ele>3.0</ele>
        <time>2019-05-16T16:16:14.912Z</time>
      </trkpt>
      <trkpt lat="39.11286667" lon="-8.73460167">
        <ele>3.0</ele>
        <time>2019-05-16T16:16:15.922Z</time>
      </trkpt>
      <trkpt lat="39.11291667" lon="-8.73456833">
        <ele>3.0</ele>
        <time>2019-05-16T16:16:16.911Z</time>
      </trkpt>
      <trkpt lat="39.11291667" lon="-8.73456833">
        <ele>3.0</ele>
        <time>2019-05-16T16:16:17.917Z</time>
      </trkpt>
      <trkpt lat="39.11296833" lon="-8.73453833">
        <ele>3.0</ele>
        <time>2019-05-16T16:16:18.932Z</time>
      </trkpt>
      <trkpt lat="39.11296833" lon="-8.73453833">
        <ele>3.0</ele>
        <time>2019-05-16T16:16:19.936Z</time>
      </trkpt>
      <trkpt lat="39.11302167" lon="-8.734505">
        <ele>4.0</ele>
        <time>2019-05-16T16:16:20.929Z</time>
      </trkpt>
      <trkpt lat="39.11302167" lon="-8.734505">
        <ele>4.0</ele>
        <time>2019-05-16T16:16:21.905Z</time>
      </trkpt>
      <trkpt lat="39.11307833" lon="-8.734475">
        <ele>4.0</ele>
        <time>2019-05-16T16:16:22.929Z</time>
      </trkpt>
      <trkpt lat="39.11307833" lon="-8.734475">
        <ele>4.0</ele>
        <time>2019-05-16T16:16:23.903Z</time>
      </trkpt>
      <trkpt lat="39.11313667" lon="-8.73444167">
        <ele>4.0</ele>
        <time>2019-05-16T16:16:24.928Z</time>
      </trkpt>
      <trkpt lat="39.11313667" lon="-8.73444167">
        <ele>4.0</ele>
        <time>2019-05-16T16:16:25.906Z</time>
      </trkpt>
      <trkpt lat="39.113195" lon="-8.73441">
        <ele>4.0</ele>
        <time>2019-05-16T16:16:26.921Z</time>
      </trkpt>
      <trkpt lat="39.113195" lon="-8.73441">
        <ele>4.0</ele>
        <time>2019-05-16T16:16:27.937Z</time>
      </trkpt>
      <trkpt lat="39.11326" lon="-8.73438">
        <ele>3.0</ele>
        <time>2019-05-16T16:16:28.921Z</time>
      </trkpt>
      <trkpt lat="39.11326" lon="-8.73438">
        <ele>3.0</ele>
        <time>2019-05-16T16:16:29.917Z</time>
      </trkpt>
      <trkpt lat="39.113325" lon="-8.73435">
        <ele>3.0</ele>
        <time>2019-05-16T16:16:30.898Z</time>
      </trkpt>
      <trkpt lat="39.113325" lon="-8.73435">
        <ele>3.0</ele>
        <time>2019-05-16T16:16:31.921Z</time>
      </trkpt>
      <trkpt lat="39.113395" lon="-8.73432333">
        <ele>3.0</ele>
        <time>2019-05-16T16:16:32.934Z</time>
      </trkpt>
      <trkpt lat="39.113395" lon="-8.73432333">
        <ele>3.0</ele>
        <time>2019-05-16T16:16:33.918Z</time>
      </trkpt>
      <trkpt lat="39.113465" lon="-8.73429833">
        <ele>3.0</ele>
        <time>2019-05-16T16:16:34.898Z</time>
      </trkpt>
      <trkpt lat="39.113465" lon="-8.73429833">
        <ele>3.0</ele>
        <time>2019-05-16T16:16:35.927Z</time>
      </trkpt>
      <trkpt lat="39.11353667" lon="-8.73427333">
        <ele>3.0</ele>
        <time>2019-05-16T16:16:36.924Z</time>
      </trkpt>
      <trkpt lat="39.11353667" lon="-8.73427333">
        <ele>3.0</ele>
        <time>2019-05-16T16:16:37.923Z</time>
      </trkpt>
      <trkpt lat="39.11360333" lon="-8.73424833">
        <ele>3.0</ele>
        <time>2019-05-16T16:16:38.921Z</time>
      </trkpt>
      <trkpt lat="39.11360333" lon="-8.73424833">
        <ele>3.0</ele>
        <time>2019-05-16T16:16:39.914Z</time>
      </trkpt>
      <trkpt lat="39.11367167" lon="-8.734225">
        <ele>3.0</ele>
        <time>2019-05-16T16:16:40.900Z</time>
      </trkpt>
      <trkpt lat="39.11367167" lon="-8.734225">
        <ele>3.0</ele>
        <time>2019-05-16T16:16:41.933Z</time>
      </trkpt>
      <trkpt lat="39.11373833" lon="-8.73420667">
        <ele>3.0</ele>
        <time>2019-05-16T16:16:42.918Z</time>
      </trkpt>
      <trkpt lat="39.11373833" lon="-8.73420667">
        <ele>3.0</ele>
        <time>2019-05-16T16:16:43.924Z</time>
      </trkpt>
      <trkpt lat="39.113805" lon="-8.73419333">
        <ele>3.0</ele>
        <time>2019-05-16T16:16:44.899Z</time>
      </trkpt>
      <trkpt lat="39.113805" lon="-8.73419333">
        <ele>3.0</ele>
        <time>2019-05-16T16:16:45.926Z</time>
      </trkpt>
      <trkpt lat="39.113875" lon="-8.73418">
        <ele>3.0</ele>
        <time>2019-05-16T16:16:46.909Z</time>
      </trkpt>
      <trkpt lat="39.113875" lon="-8.73418">
        <ele>3.0</ele>
        <time>2019-05-16T16:16:47.898Z</time>
      </trkpt>
      <trkpt lat="39.11394667" lon="-8.73417167">
        <ele>3.0</ele>
        <time>2019-05-16T16:16:48.928Z</time>
      </trkpt>
      <trkpt lat="39.11394667" lon="-8.73417167">
        <ele>3.0</ele>
        <time>2019-05-16T16:16:49.925Z</time>
      </trkpt>
      <trkpt lat="39.11401833" lon="-8.73415833">
        <ele>2.0</ele>
        <time>2019-05-16T16:16:50.909Z</time>
      </trkpt>
      <trkpt lat="39.11401833" lon="-8.73415833">
        <ele>2.0</ele>
        <time>2019-05-16T16:16:51.935Z</time>
      </trkpt>
      <trkpt lat="39.11408833" lon="-8.73414667">
        <ele>2.0</ele>
        <time>2019-05-16T16:16:52.909Z</time>
      </trkpt>
      <trkpt lat="39.11408833" lon="-8.73414667">
        <ele>2.0</ele>
        <time>2019-05-16T16:16:53.905Z</time>
      </trkpt>
      <trkpt lat="39.11415833" lon="-8.73413">
        <ele>2.0</ele>
        <time>2019-05-16T16:16:54.921Z</time>
      </trkpt>
      <trkpt lat="39.11415833" lon="-8.73413">
        <ele>2.0</ele>
        <time>2019-05-16T16:16:55.923Z</time>
      </trkpt>
      <trkpt lat="39.11423" lon="-8.73411167">
        <ele>2.0</ele>
        <time>2019-05-16T16:16:56.902Z</time>
      </trkpt>
      <trkpt lat="39.11423" lon="-8.73411167">
        <ele>2.0</ele>
        <time>2019-05-16T16:16:57.910Z</time>
      </trkpt>
      <trkpt lat="39.11429833" lon="-8.73408833">
        <ele>2.0</ele>
        <time>2019-05-16T16:16:58.905Z</time>
      </trkpt>
      <trkpt lat="39.11429833" lon="-8.73408833">
        <ele>2.0</ele>
        <time>2019-05-16T16:16:59.903Z</time>
      </trkpt>
      <trkpt lat="39.114365" lon="-8.734065">
        <ele>2.0</ele>
        <time>2019-05-16T16:17:00.931Z</time>
      </trkpt>
      <trkpt lat="39.114365" lon="-8.734065">
        <ele>2.0</ele>
        <time>2019-05-16T16:17:01.909Z</time>
      </trkpt>
      <trkpt lat="39.114435" lon="-8.73403833">
        <ele>2.0</ele>
        <time>2019-05-16T16:17:02.901Z</time>
      </trkpt>
      <trkpt lat="39.114435" lon="-8.73403833">
        <ele>2.0</ele>
        <time>2019-05-16T16:17:03.900Z</time>
      </trkpt>
      <trkpt lat="39.11450333" lon="-8.73401167">
        <ele>2.0</ele>
        <time>2019-05-16T16:17:04.924Z</time>
      </trkpt>
      <trkpt lat="39.11450333" lon="-8.73401167">
        <ele>2.0</ele>
        <time>2019-05-16T16:17:05.927Z</time>
      </trkpt>
      <trkpt lat="39.11457333" lon="-8.73399">
        <ele>2.0</ele>
        <time>2019-05-16T16:17:06.947Z</time>
      </trkpt>
      <trkpt lat="39.11460833" lon="-8.73397833">
        <ele>2.0</ele>
        <time>2019-05-16T16:17:07.917Z</time>
      </trkpt>
      <trkpt lat="39.114645" lon="-8.73397167">
        <ele>2.0</ele>
        <time>2019-05-16T16:17:08.907Z</time>
      </trkpt>
      <trkpt lat="39.114645" lon="-8.73397167">
        <ele>2.0</ele>
        <time>2019-05-16T16:17:09.913Z</time>
      </trkpt>
      <trkpt lat="39.11471833" lon="-8.73396167">
        <ele>2.0</ele>
        <time>2019-05-16T16:17:10.901Z</time>
      </trkpt>
      <trkpt lat="39.11471833" lon="-8.73396167">
        <ele>2.0</ele>
        <time>2019-05-16T16:17:11.924Z</time>
      </trkpt>
      <trkpt lat="39.11479333" lon="-8.73394833">
        <ele>2.0</ele>
        <time>2019-05-16T16:17:12.909Z</time>
      </trkpt>
      <trkpt lat="39.11483167" lon="-8.733945">
        <ele>1.0</ele>
        <time>2019-05-16T16:17:13.925Z</time>
      </trkpt>
      <trkpt lat="39.11483167" lon="-8.733945">
        <ele>1.0</ele>
        <time>2019-05-16T16:17:14.936Z</time>
      </trkpt>
      <trkpt lat="39.11491" lon="-8.73394167">
        <ele>1.0</ele>
        <time>2019-05-16T16:17:15.921Z</time>
      </trkpt>
      <trkpt lat="39.114955" lon="-8.73394">
        <ele>1.0</ele>
        <time>2019-05-16T16:17:16.913Z</time>
      </trkpt>
      <trkpt lat="39.114955" lon="-8.73394">
        <ele>1.0</ele>
        <time>2019-05-16T16:17:17.905Z</time>
      </trkpt>
      <trkpt lat="39.115045" lon="-8.73393">
        <ele>1.0</ele>
        <time>2019-05-16T16:17:18.899Z</time>
      </trkpt>
      <trkpt lat="39.115045" lon="-8.73393">
        <ele>1.0</ele>
        <time>2019-05-16T16:17:19.902Z</time>
      </trkpt>
      <trkpt lat="39.11513833" lon="-8.73391">
        <ele>1.0</ele>
        <time>2019-05-16T16:17:20.925Z</time>
      </trkpt>
      <trkpt lat="39.11513833" lon="-8.73391">
        <ele>1.0</ele>
        <time>2019-05-16T16:17:21.919Z</time>
      </trkpt>
      <trkpt lat="39.11523667" lon="-8.73388833">
        <ele>1.0</ele>
        <time>2019-05-16T16:17:22.905Z</time>
      </trkpt>
      <trkpt lat="39.11523667" lon="-8.73388833">
        <ele>1.0</ele>
        <time>2019-05-16T16:17:23.925Z</time>
      </trkpt>
      <trkpt lat="39.11533667" lon="-8.73386">
        <ele>1.0</ele>
        <time>2019-05-16T16:17:24.904Z</time>
      </trkpt>
      <trkpt lat="39.11533667" lon="-8.73386">
        <ele>1.0</ele>
        <time>2019-05-16T16:17:25.923Z</time>
      </trkpt>
      <trkpt lat="39.115425" lon="-8.73381667">
        <ele>1.0</ele>
        <time>2019-05-16T16:17:26.906Z</time>
      </trkpt>
      <trkpt lat="39.115425" lon="-8.73381667">
        <ele>1.0</ele>
        <time>2019-05-16T16:17:27.934Z</time>
      </trkpt>
      <trkpt lat="39.11549833" lon="-8.73377">
        <ele>1.0</ele>
        <time>2019-05-16T16:17:28.908Z</time>
      </trkpt>
      <trkpt lat="39.11549833" lon="-8.73377">
        <ele>1.0</ele>
        <time>2019-05-16T16:17:29.901Z</time>
      </trkpt>
      <trkpt lat="39.11556833" lon="-8.73374833">
        <ele>1.0</ele>
        <time>2019-05-16T16:17:30.929Z</time>
      </trkpt>
      <trkpt lat="39.11559833" lon="-8.733735">
        <ele>1.0</ele>
        <time>2019-05-16T16:17:31.925Z</time>
      </trkpt>
      <trkpt lat="39.11562667" lon="-8.733725">
        <ele>1.0</ele>
        <time>2019-05-16T16:17:32.923Z</time>
      </trkpt>
      <trkpt lat="39.11562667" lon="-8.733725">
        <ele>1.0</ele>
        <time>2019-05-16T16:17:33.913Z</time>
      </trkpt>
      <trkpt lat="39.115675" lon="-8.73371">
        <ele>1.0</ele>
        <time>2019-05-16T16:17:34.899Z</time>
      </trkpt>
      <trkpt lat="39.1157" lon="-8.73370667">
        <ele>1.0</ele>
        <time>2019-05-16T16:17:35.921Z</time>
      </trkpt>
      <trkpt lat="39.11572667" lon="-8.73370333">
        <ele>1.0</ele>
        <time>2019-05-16T16:17:36.911Z</time>
      </trkpt>
      <trkpt lat="39.11572667" lon="-8.73370333">
        <ele>1.0</ele>
        <time>2019-05-16T16:17:37.925Z</time>
      </trkpt>
      <trkpt lat="39.115785" lon="-8.73369">
        <ele>1.0</ele>
        <time>2019-05-16T16:17:38.910Z</time>
      </trkpt>
      <trkpt lat="39.115785" lon="-8.73369">
        <ele>1.0</ele>
        <time>2019-05-16T16:17:39.903Z</time>
      </trkpt>
      <trkpt lat="39.11584667" lon="-8.733675">
        <ele>1.0</ele>
        <time>2019-05-16T16:17:40.898Z</time>
      </trkpt>
      <trkpt lat="39.11584667" lon="-8.733675">
        <ele>1.0</ele>
        <time>2019-05-16T16:17:41.927Z</time>
      </trkpt>
      <trkpt lat="39.11590833" lon="-8.73366">
        <ele>1.0</ele>
        <time>2019-05-16T16:17:42.905Z</time>
      </trkpt>
      <trkpt lat="39.11593833" lon="-8.73365667">
        <ele>1.0</ele>
        <time>2019-05-16T16:17:43.937Z</time>
      </trkpt>
      <trkpt lat="39.11597" lon="-8.733655">
        <ele>1.0</ele>
        <time>2019-05-16T16:17:44.924Z</time>
      </trkpt>
      <trkpt lat="39.11597" lon="-8.733655">
        <ele>1.0</ele>
        <time>2019-05-16T16:17:45.932Z</time>
      </trkpt>
      <trkpt lat="39.11603167" lon="-8.73365333">
        <ele>1.0</ele>
        <time>2019-05-16T16:17:46.911Z</time>
      </trkpt>
      <trkpt lat="39.11603167" lon="-8.73365333">
        <ele>1.0</ele>
        <time>2019-05-16T16:17:47.903Z</time>
      </trkpt>
      <trkpt lat="39.11609333" lon="-8.733645">
        <ele>1.0</ele>
        <time>2019-05-16T16:17:48.922Z</time>
      </trkpt>
      <trkpt lat="39.11609333" lon="-8.733645">
        <ele>1.0</ele>
        <time>2019-05-16T16:17:49.930Z</time>
      </trkpt>
      <trkpt lat="39.116155" lon="-8.73363167">
        <ele>1.0</ele>
        <time>2019-05-16T16:17:50.908Z</time>
      </trkpt>
      <trkpt lat="39.116155" lon="-8.73363167">
        <ele>1.0</ele>
        <time>2019-05-16T16:17:51.902Z</time>
      </trkpt>
      <trkpt lat="39.11621667" lon="-8.73362">
        <ele>1.0</ele>
        <time>2019-05-16T16:17:52.918Z</time>
      </trkpt>
      <trkpt lat="39.11621667" lon="-8.73362">
        <ele>1.0</ele>
        <time>2019-05-16T16:17:53.929Z</time>
      </trkpt>
      <trkpt lat="39.11628" lon="-8.73361167">
        <ele>1.0</ele>
        <time>2019-05-16T16:17:54.908Z</time>
      </trkpt>
      <trkpt lat="39.11628" lon="-8.73361167">
        <ele>1.0</ele>
        <time>2019-05-16T16:17:55.907Z</time>
      </trkpt>
      <trkpt lat="39.11634667" lon="-8.73360333">
        <ele>1.0</ele>
        <time>2019-05-16T16:17:56.933Z</time>
      </trkpt>
      <trkpt lat="39.11634667" lon="-8.73360333">
        <ele>1.0</ele>
        <time>2019-05-16T16:17:57.917Z</time>
      </trkpt>
      <trkpt lat="39.11641333" lon="-8.73360667">
        <ele>1.0</ele>
        <time>2019-05-16T16:17:58.899Z</time>
      </trkpt>
      <trkpt lat="39.11641333" lon="-8.73360667">
        <ele>1.0</ele>
        <time>2019-05-16T16:17:59.903Z</time>
      </trkpt>
      <trkpt lat="39.11648" lon="-8.733605">
        <ele>1.0</ele>
        <time>2019-05-16T16:18:00.927Z</time>
      </trkpt>
      <trkpt lat="39.11648" lon="-8.733605">
        <ele>1.0</ele>
        <time>2019-05-16T16:18:01.930Z</time>
      </trkpt>
      <trkpt lat="39.11654667" lon="-8.73359333">
        <ele>1.0</ele>
        <time>2019-05-16T16:18:02.913Z</time>
      </trkpt>
      <trkpt lat="39.11658" lon="-8.73358833">
        <ele>1.0</ele>
        <time>2019-05-16T16:18:03.906Z</time>
      </trkpt>
      <trkpt lat="39.11658" lon="-8.73358833">
        <ele>1.0</ele>
        <time>2019-05-16T16:18:04.906Z</time>
      </trkpt>
      <trkpt lat="39.11664833" lon="-8.73357833">
        <ele>1.0</ele>
        <time>2019-05-16T16:18:05.931Z</time>
      </trkpt>
      <trkpt lat="39.11664833" lon="-8.73357833">
        <ele>1.0</ele>
        <time>2019-05-16T16:18:06.918Z</time>
      </trkpt>
      <trkpt lat="39.116715" lon="-8.73357">
        <ele>1.0</ele>
        <time>2019-05-16T16:18:07.941Z</time>
      </trkpt>
      <trkpt lat="39.11674667" lon="-8.73356667">
        <ele>1.0</ele>
        <time>2019-05-16T16:18:08.931Z</time>
      </trkpt>
      <trkpt lat="39.11674667" lon="-8.73356667">
        <ele>1.0</ele>
        <time>2019-05-16T16:18:09.934Z</time>
      </trkpt>
      <trkpt lat="39.11681167" lon="-8.73355667">
        <ele>1.0</ele>
        <time>2019-05-16T16:18:10.924Z</time>
      </trkpt>
      <trkpt lat="39.11681167" lon="-8.73355667">
        <ele>1.0</ele>
        <time>2019-05-16T16:18:11.903Z</time>
      </trkpt>
      <trkpt lat="39.11687667" lon="-8.73355">
        <ele>1.0</ele>
        <time>2019-05-16T16:18:12.931Z</time>
      </trkpt>
      <trkpt lat="39.11691167" lon="-8.73354667">
        <ele>1.0</ele>
        <time>2019-05-16T16:18:13.901Z</time>
      </trkpt>
      <trkpt lat="39.116945" lon="-8.73354333">
        <ele>0.0</ele>
        <time>2019-05-16T16:18:14.923Z</time>
      </trkpt>
      <trkpt lat="39.116945" lon="-8.73354333">
        <ele>0.0</ele>
        <time>2019-05-16T16:18:15.930Z</time>
      </trkpt>
      <trkpt lat="39.11701333" lon="-8.73354167">
        <ele>0.0</ele>
        <time>2019-05-16T16:18:16.918Z</time>
      </trkpt>
      <trkpt lat="39.11701333" lon="-8.73354167">
        <ele>0.0</ele>
        <time>2019-05-16T16:18:17.903Z</time>
      </trkpt>
      <trkpt lat="39.11708167" lon="-8.733535">
        <ele>0.0</ele>
        <time>2019-05-16T16:18:18.929Z</time>
      </trkpt>
      <trkpt lat="39.11708167" lon="-8.733535">
        <ele>0.0</ele>
        <time>2019-05-16T16:18:19.928Z</time>
      </trkpt>
      <trkpt lat="39.11714333" lon="-8.73353667">
        <ele>0.0</ele>
        <time>2019-05-16T16:18:20.943Z</time>
      </trkpt>
      <trkpt lat="39.11714333" lon="-8.73353667">
        <ele>0.0</ele>
        <time>2019-05-16T16:18:21.928Z</time>
      </trkpt>
      <trkpt lat="39.11719833" lon="-8.73355">
        <ele>0.0</ele>
        <time>2019-05-16T16:18:22.904Z</time>
      </trkpt>
      <trkpt lat="39.11722333" lon="-8.73354333">
        <ele>0.0</ele>
        <time>2019-05-16T16:18:23.928Z</time>
      </trkpt>
      <trkpt lat="39.11722333" lon="-8.73354333">
        <ele>0.0</ele>
        <time>2019-05-16T16:18:24.923Z</time>
      </trkpt>
      <trkpt lat="39.11728" lon="-8.733525">
        <ele>0.0</ele>
        <time>2019-05-16T16:18:25.897Z</time>
      </trkpt>
      <trkpt lat="39.11730833" lon="-8.73352167">
        <ele>0.0</ele>
        <time>2019-05-16T16:18:26.901Z</time>
      </trkpt>
      <trkpt lat="39.11730833" lon="-8.73352167">
        <ele>0.0</ele>
        <time>2019-05-16T16:18:27.927Z</time>
      </trkpt>
      <trkpt lat="39.11737" lon="-8.73352">
        <ele>0.0</ele>
        <time>2019-05-16T16:18:28.909Z</time>
      </trkpt>
      <trkpt lat="39.11737" lon="-8.73352">
        <ele>0.0</ele>
        <time>2019-05-16T16:18:29.927Z</time>
      </trkpt>
      <trkpt lat="39.11743333" lon="-8.733515">
        <ele>0.0</ele>
        <time>2019-05-16T16:18:30.913Z</time>
      </trkpt>
      <trkpt lat="39.11743333" lon="-8.733515">
        <ele>0.0</ele>
        <time>2019-05-16T16:18:31.931Z</time>
      </trkpt>
      <trkpt lat="39.11749667" lon="-8.73351">
        <ele>0.0</ele>
        <time>2019-05-16T16:18:32.923Z</time>
      </trkpt>
      <trkpt lat="39.11749667" lon="-8.73351">
        <ele>0.0</ele>
        <time>2019-05-16T16:18:33.913Z</time>
      </trkpt>
      <trkpt lat="39.11755833" lon="-8.73350667">
        <ele>-1.0</ele>
        <time>2019-05-16T16:18:34.938Z</time>
      </trkpt>
      <trkpt lat="39.11755833" lon="-8.73350667">
        <ele>-1.0</ele>
        <time>2019-05-16T16:18:35.931Z</time>
      </trkpt>
      <trkpt lat="39.117615" lon="-8.73351">
        <ele>-1.0</ele>
        <time>2019-05-16T16:18:36.925Z</time>
      </trkpt>
      <trkpt lat="39.117615" lon="-8.73351">
        <ele>-1.0</ele>
        <time>2019-05-16T16:18:37.909Z</time>
      </trkpt>
      <trkpt lat="39.11767333" lon="-8.73350333">
        <ele>-1.0</ele>
        <time>2019-05-16T16:18:38.929Z</time>
      </trkpt>
      <trkpt lat="39.11767333" lon="-8.73350333">
        <ele>-1.0</ele>
        <time>2019-05-16T16:18:39.909Z</time>
      </trkpt>
      <trkpt lat="39.11773833" lon="-8.73349">
        <ele>0.0</ele>
        <time>2019-05-16T16:18:40.927Z</time>
      </trkpt>
      <trkpt lat="39.11773833" lon="-8.73349">
        <ele>0.0</ele>
        <time>2019-05-16T16:18:41.913Z</time>
      </trkpt>
      <trkpt lat="39.11780333" lon="-8.73348667">
        <ele>0.0</ele>
        <time>2019-05-16T16:18:42.910Z</time>
      </trkpt>
      <trkpt lat="39.117835" lon="-8.733485">
        <ele>0.0</ele>
        <time>2019-05-16T16:18:43.911Z</time>
      </trkpt>
      <trkpt lat="39.11786833" lon="-8.73348333">
        <ele>0.0</ele>
        <time>2019-05-16T16:18:44.908Z</time>
      </trkpt>
      <trkpt lat="39.11786833" lon="-8.73348333">
        <ele>0.0</ele>
        <time>2019-05-16T16:18:45.927Z</time>
      </trkpt>
      <trkpt lat="39.11793333" lon="-8.73347833">
        <ele>-1.0</ele>
        <time>2019-05-16T16:18:46.910Z</time>
      </trkpt>
      <trkpt lat="39.11793333" lon="-8.73347833">
        <ele>-1.0</ele>
        <time>2019-05-16T16:18:47.904Z</time>
      </trkpt>
      <trkpt lat="39.118" lon="-8.733475">
        <ele>-1.0</ele>
        <time>2019-05-16T16:18:48.920Z</time>
      </trkpt>
      <trkpt lat="39.118" lon="-8.733475">
        <ele>-1.0</ele>
        <time>2019-05-16T16:18:49.928Z</time>
      </trkpt>
      <trkpt lat="39.11806667" lon="-8.73346833">
        <ele>-1.0</ele>
        <time>2019-05-16T16:18:50.923Z</time>
      </trkpt>
      <trkpt lat="39.11806667" lon="-8.73346833">
        <ele>-1.0</ele>
        <time>2019-05-16T16:18:51.911Z</time>
      </trkpt>
      <trkpt lat="39.11813167" lon="-8.73346333">
        <ele>-1.0</ele>
        <time>2019-05-16T16:18:52.943Z</time>
      </trkpt>
      <trkpt lat="39.11813167" lon="-8.73346333">
        <ele>-1.0</ele>
        <time>2019-05-16T16:18:53.903Z</time>
      </trkpt>
      <trkpt lat="39.11820167" lon="-8.733455">
        <ele>-1.0</ele>
        <time>2019-05-16T16:18:54.929Z</time>
      </trkpt>
      <trkpt lat="39.11820167" lon="-8.733455">
        <ele>-1.0</ele>
        <time>2019-05-16T16:18:55.898Z</time>
      </trkpt>
      <trkpt lat="39.11827" lon="-8.73345167">
        <ele>-1.0</ele>
        <time>2019-05-16T16:18:56.924Z</time>
      </trkpt>
      <trkpt lat="39.11827" lon="-8.73345167">
        <ele>-1.0</ele>
        <time>2019-05-16T16:18:57.897Z</time>
      </trkpt>
      <trkpt lat="39.11833667" lon="-8.73345">
        <ele>-1.0</ele>
        <time>2019-05-16T16:18:58.927Z</time>
      </trkpt>
      <trkpt lat="39.11833667" lon="-8.73345">
        <ele>-1.0</ele>
        <time>2019-05-16T16:18:59.935Z</time>
      </trkpt>
      <trkpt lat="39.1184" lon="-8.73344833">
        <ele>-1.0</ele>
        <time>2019-05-16T16:19:00.929Z</time>
      </trkpt>
      <trkpt lat="39.1184" lon="-8.73344833">
        <ele>-1.0</ele>
        <time>2019-05-16T16:19:01.904Z</time>
      </trkpt>
      <trkpt lat="39.11846333" lon="-8.73344333">
        <ele>-1.0</ele>
        <time>2019-05-16T16:19:02.939Z</time>
      </trkpt>
      <trkpt lat="39.11846333" lon="-8.73344333">
        <ele>-1.0</ele>
        <time>2019-05-16T16:19:03.924Z</time>
      </trkpt>
      <trkpt lat="39.11852" lon="-8.73345167">
        <ele>-1.0</ele>
        <time>2019-05-16T16:19:04.905Z</time>
      </trkpt>
      <trkpt lat="39.11852" lon="-8.73345167">
        <ele>-1.0</ele>
        <time>2019-05-16T16:19:05.925Z</time>
      </trkpt>
      <trkpt lat="39.11856333" lon="-8.73347667">
        <ele>-1.0</ele>
        <time>2019-05-16T16:19:06.900Z</time>
      </trkpt>
      <trkpt lat="39.11856333" lon="-8.73347667">
        <ele>-1.0</ele>
        <time>2019-05-16T16:19:07.930Z</time>
      </trkpt>
      <trkpt lat="39.1186" lon="-8.73350833">
        <ele>-1.0</ele>
        <time>2019-05-16T16:19:08.915Z</time>
      </trkpt>
      <trkpt lat="39.1186" lon="-8.73350833">
        <ele>-1.0</ele>
        <time>2019-05-16T16:19:09.933Z</time>
      </trkpt>
      <trkpt lat="39.11861167" lon="-8.73351">
        <ele>-1.0</ele>
        <time>2019-05-16T16:19:10.952Z</time>
      </trkpt>
      <trkpt lat="39.11861167" lon="-8.73351">
        <ele>-1.0</ele>
        <time>2019-05-16T16:19:11.914Z</time>
      </trkpt>
      <trkpt lat="39.11861333" lon="-8.73350833">
        <ele>-1.0</ele>
        <time>2019-05-16T16:19:12.901Z</time>
      </trkpt>
      <trkpt lat="39.11861333" lon="-8.73350833">
        <ele>-1.0</ele>
        <time>2019-05-16T16:19:13.900Z</time>
      </trkpt>
      <trkpt lat="39.11861333" lon="-8.73350833">
        <ele>-1.0</ele>
        <time>2019-05-16T16:19:14.906Z</time>
      </trkpt>
      <trkpt lat="39.11861333" lon="-8.73350833">
        <ele>-1.0</ele>
        <time>2019-05-16T16:19:15.912Z</time>
      </trkpt>
      <trkpt lat="39.11861333" lon="-8.73350833">
        <ele>-1.0</ele>
        <time>2019-05-16T16:19:16.918Z</time>
      </trkpt>
      <trkpt lat="39.11861333" lon="-8.73350833">
        <ele>-1.0</ele>
        <time>2019-05-16T16:19:17.925Z</time>
      </trkpt>
      <trkpt lat="39.11861333" lon="-8.73350833">
        <ele>-1.0</ele>
        <time>2019-05-16T16:19:18.898Z</time>
      </trkpt>
      <trkpt lat="39.11861333" lon="-8.73350833">
        <ele>-1.0</ele>
        <time>2019-05-16T16:19:19.934Z</time>
      </trkpt>
      <trkpt lat="39.11861333" lon="-8.73350833">
        <ele>-1.0</ele>
        <time>2019-05-16T16:19:20.915Z</time>
      </trkpt>
      <trkpt lat="39.11861333" lon="-8.73350833">
        <ele>-1.0</ele>
        <time>2019-05-16T16:19:21.929Z</time>
      </trkpt>
      <trkpt lat="39.11860833" lon="-8.73349333">
        <ele>0.0</ele>
        <time>2019-05-16T16:19:22.935Z</time>
      </trkpt>
      <trkpt lat="39.11860833" lon="-8.73349333">
        <ele>0.0</ele>
        <time>2019-05-16T16:19:23.935Z</time>
      </trkpt>
      <trkpt lat="39.118595" lon="-8.73349333">
        <ele>-1.0</ele>
        <time>2019-05-16T16:19:24.898Z</time>
      </trkpt>
      <trkpt lat="39.118595" lon="-8.73349333">
        <ele>-1.0</ele>
        <time>2019-05-16T16:19:25.933Z</time>
      </trkpt>
      <trkpt lat="39.11858333" lon="-8.73349333">
        <ele>-1.0</ele>
        <time>2019-05-16T16:19:26.900Z</time>
      </trkpt>
      <trkpt lat="39.11858333" lon="-8.73349333">
        <ele>-1.0</ele>
        <time>2019-05-16T16:19:27.934Z</time>
      </trkpt>
      <trkpt lat="39.11858167" lon="-8.73349333">
        <ele>-1.0</ele>
        <time>2019-05-16T16:19:28.898Z</time>
      </trkpt>
      <trkpt lat="39.11858167" lon="-8.73349333">
        <ele>-1.0</ele>
        <time>2019-05-16T16:19:29.934Z</time>
      </trkpt>
      <trkpt lat="39.11858167" lon="-8.73349333">
        <ele>-1.0</ele>
        <time>2019-05-16T16:19:30.918Z</time>
      </trkpt>
      <trkpt lat="39.11858167" lon="-8.73349333">
        <ele>-1.0</ele>
        <time>2019-05-16T16:19:31.904Z</time>
      </trkpt>
      <trkpt lat="39.11858167" lon="-8.73349333">
        <ele>-1.0</ele>
        <time>2019-05-16T16:19:32.936Z</time>
      </trkpt>
      <trkpt lat="39.11858167" lon="-8.73349333">
        <ele>-1.0</ele>
        <time>2019-05-16T16:19:33.898Z</time>
      </trkpt>
      <trkpt lat="39.11858167" lon="-8.73349333">
        <ele>-1.0</ele>
        <time>2019-05-16T16:19:34.930Z</time>
      </trkpt>
      <trkpt lat="39.11858167" lon="-8.73349333">
        <ele>-1.0</ele>
        <time>2019-05-16T16:19:35.898Z</time>
      </trkpt>
      <trkpt lat="39.11858167" lon="-8.73349333">
        <ele>-1.0</ele>
        <time>2019-05-16T16:19:36.933Z</time>
      </trkpt>
      <trkpt lat="39.11858167" lon="-8.73349333">
        <ele>-1.0</ele>
        <time>2019-05-16T16:19:37.898Z</time>
      </trkpt>
      <trkpt lat="39.11858167" lon="-8.73349333">
        <ele>-1.0</ele>
        <time>2019-05-16T16:19:38.900Z</time>
      </trkpt>
      <trkpt lat="39.11858167" lon="-8.73349333">
        <ele>-1.0</ele>
        <time>2019-05-16T16:19:39.934Z</time>
      </trkpt>
      <trkpt lat="39.11858167" lon="-8.73349333">
        <ele>-1.0</ele>
        <time>2019-05-16T16:19:40.900Z</time>
      </trkpt>
      <trkpt lat="39.11858167" lon="-8.73349333">
        <ele>-1.0</ele>
        <time>2019-05-16T16:19:41.933Z</time>
      </trkpt>
      <trkpt lat="39.11858167" lon="-8.73349333">
        <ele>-1.0</ele>
        <time>2019-05-16T16:19:42.898Z</time>
      </trkpt>
      <trkpt lat="39.11858167" lon="-8.73349333">
        <ele>-1.0</ele>
        <time>2019-05-16T16:19:43.930Z</time>
      </trkpt>
      <trkpt lat="39.11858167" lon="-8.73349333">
        <ele>-1.0</ele>
        <time>2019-05-16T16:19:44.916Z</time>
      </trkpt>
      <trkpt lat="39.11858167" lon="-8.73349333">
        <ele>-1.0</ele>
        <time>2019-05-16T16:19:45.901Z</time>
      </trkpt>
      <trkpt lat="39.11858167" lon="-8.73349333">
        <ele>-1.0</ele>
        <time>2019-05-16T16:19:46.898Z</time>
      </trkpt>
      <trkpt lat="39.11858167" lon="-8.73349333">
        <ele>-1.0</ele>
        <time>2019-05-16T16:19:47.933Z</time>
      </trkpt>
      <trkpt lat="39.11858167" lon="-8.73349333">
        <ele>-1.0</ele>
        <time>2019-05-16T16:19:48.898Z</time>
      </trkpt>
      <trkpt lat="39.11858167" lon="-8.73349333">
        <ele>-1.0</ele>
        <time>2019-05-16T16:19:49.910Z</time>
      </trkpt>
      <trkpt lat="39.11858167" lon="-8.73349333">
        <ele>-1.0</ele>
        <time>2019-05-16T16:19:50.936Z</time>
      </trkpt>
      <trkpt lat="39.11858167" lon="-8.73349333">
        <ele>-1.0</ele>
        <time>2019-05-16T16:19:51.898Z</time>
      </trkpt>
      <trkpt lat="39.11858167" lon="-8.73349333">
        <ele>-1.0</ele>
        <time>2019-05-16T16:19:52.898Z</time>
      </trkpt>
      <trkpt lat="39.11858167" lon="-8.73349333">
        <ele>-1.0</ele>
        <time>2019-05-16T16:19:53.931Z</time>
      </trkpt>
      <trkpt lat="39.11858167" lon="-8.73349333">
        <ele>-1.0</ele>
        <time>2019-05-16T16:19:54.898Z</time>
      </trkpt>
      <trkpt lat="39.11858167" lon="-8.73349333">
        <ele>-1.0</ele>
        <time>2019-05-16T16:19:55.930Z</time>
      </trkpt>
      <trkpt lat="39.11858167" lon="-8.73349333">
        <ele>-1.0</ele>
        <time>2019-05-16T16:19:56.914Z</time>
      </trkpt>
      <trkpt lat="39.11858167" lon="-8.73349333">
        <ele>-1.0</ele>
        <time>2019-05-16T16:19:57.898Z</time>
      </trkpt>
      <trkpt lat="39.11858167" lon="-8.73349333">
        <ele>-1.0</ele>
        <time>2019-05-16T16:19:58.898Z</time>
      </trkpt>
      <trkpt lat="39.11858167" lon="-8.73349333">
        <ele>-1.0</ele>
        <time>2019-05-16T16:19:59.934Z</time>
      </trkpt>
      <trkpt lat="39.11858167" lon="-8.73349333">
        <ele>-1.0</ele>
        <time>2019-05-16T16:20:00.917Z</time>
      </trkpt>
      <trkpt lat="39.11858167" lon="-8.73349333">
        <ele>-1.0</ele>
        <time>2019-05-16T16:20:01.903Z</time>
      </trkpt>
      <trkpt lat="39.11858167" lon="-8.73349333">
        <ele>-1.0</ele>
        <time>2019-05-16T16:20:02.901Z</time>
      </trkpt>
      <trkpt lat="39.11858167" lon="-8.73349333">
        <ele>-1.0</ele>
        <time>2019-05-16T16:20:03.932Z</time>
      </trkpt>
      <trkpt lat="39.11858167" lon="-8.73349333">
        <ele>-1.0</ele>
        <time>2019-05-16T16:20:04.898Z</time>
      </trkpt>
      <trkpt lat="39.11858167" lon="-8.73349333">
        <ele>-1.0</ele>
        <time>2019-05-16T16:20:05.934Z</time>
      </trkpt>
      <trkpt lat="39.11858167" lon="-8.73349333">
        <ele>-1.0</ele>
        <time>2019-05-16T16:20:06.898Z</time>
      </trkpt>
      <trkpt lat="39.11858167" lon="-8.73349333">
        <ele>-1.0</ele>
        <time>2019-05-16T16:20:07.933Z</time>
      </trkpt>
      <trkpt lat="39.11858167" lon="-8.73349333">
        <ele>-1.0</ele>
        <time>2019-05-16T16:20:08.901Z</time>
      </trkpt>
      <trkpt lat="39.11858167" lon="-8.73349333">
        <ele>-1.0</ele>
        <time>2019-05-16T16:20:09.934Z</time>
      </trkpt>
      <trkpt lat="39.11858167" lon="-8.73349333">
        <ele>-1.0</ele>
        <time>2019-05-16T16:20:10.899Z</time>
      </trkpt>
      <trkpt lat="39.11858167" lon="-8.73349333">
        <ele>-1.0</ele>
        <time>2019-05-16T16:20:11.935Z</time>
      </trkpt>
      <trkpt lat="39.11858167" lon="-8.73349333">
        <ele>-1.0</ele>
        <time>2019-05-16T16:20:12.898Z</time>
      </trkpt>
      <trkpt lat="39.11858167" lon="-8.73349333">
        <ele>-1.0</ele>
        <time>2019-05-16T16:20:13.933Z</time>
      </trkpt>
      <trkpt lat="39.11858167" lon="-8.73349333">
        <ele>-1.0</ele>
        <time>2019-05-16T16:20:14.900Z</time>
      </trkpt>
      <trkpt lat="39.11858167" lon="-8.73349333">
        <ele>-1.0</ele>
        <time>2019-05-16T16:20:15.933Z</time>
      </trkpt>
      <trkpt lat="39.11858167" lon="-8.73349333">
        <ele>-1.0</ele>
        <time>2019-05-16T16:20:16.918Z</time>
      </trkpt>
      <trkpt lat="39.11858167" lon="-8.73349333">
        <ele>-1.0</ele>
        <time>2019-05-16T16:20:17.905Z</time>
      </trkpt>
      <trkpt lat="39.11858167" lon="-8.73349333">
        <ele>-1.0</ele>
        <time>2019-05-16T16:20:18.898Z</time>
      </trkpt>
      <trkpt lat="39.11858167" lon="-8.73349333">
        <ele>-1.0</ele>
        <time>2019-05-16T16:20:19.934Z</time>
      </trkpt>
      <trkpt lat="39.11858167" lon="-8.73349333">
        <ele>-1.0</ele>
        <time>2019-05-16T16:20:20.934Z</time>
      </trkpt>
      <trkpt lat="39.11858167" lon="-8.73349333">
        <ele>-1.0</ele>
        <time>2019-05-16T16:20:21.907Z</time>
      </trkpt>
      <trkpt lat="39.11858167" lon="-8.73349333">
        <ele>-1.0</ele>
        <time>2019-05-16T16:20:22.913Z</time>
      </trkpt>
      <trkpt lat="39.11858167" lon="-8.73349333">
        <ele>-1.0</ele>
        <time>2019-05-16T16:20:23.898Z</time>
      </trkpt>
      <trkpt lat="39.11858167" lon="-8.73349333">
        <ele>-1.0</ele>
        <time>2019-05-16T16:20:24.899Z</time>
      </trkpt>
      <trkpt lat="39.11858167" lon="-8.73349333">
        <ele>-1.0</ele>
        <time>2019-05-16T16:20:25.900Z</time>
      </trkpt>
      <trkpt lat="39.11858167" lon="-8.73349333">
        <ele>-1.0</ele>
        <time>2019-05-16T16:20:26.936Z</time>
      </trkpt>
      <trkpt lat="39.11858167" lon="-8.73349333">
        <ele>-1.0</ele>
        <time>2019-05-16T16:20:27.936Z</time>
      </trkpt>
      <trkpt lat="39.11858167" lon="-8.73349333">
        <ele>-1.0</ele>
        <time>2019-05-16T16:20:28.930Z</time>
      </trkpt>
      <trkpt lat="39.11858167" lon="-8.73349333">
        <ele>-1.0</ele>
        <time>2019-05-16T16:20:29.912Z</time>
      </trkpt>
      <trkpt lat="39.11858167" lon="-8.73349333">
        <ele>-1.0</ele>
        <time>2019-05-16T16:20:30.934Z</time>
      </trkpt>
      <trkpt lat="39.11858167" lon="-8.73349333">
        <ele>-1.0</ele>
        <time>2019-05-16T16:20:31.899Z</time>
      </trkpt>
      <trkpt lat="39.11858167" lon="-8.73349333">
        <ele>-1.0</ele>
        <time>2019-05-16T16:20:32.901Z</time>
      </trkpt>
      <trkpt lat="39.11858167" lon="-8.73349333">
        <ele>-1.0</ele>
        <time>2019-05-16T16:20:33.908Z</time>
      </trkpt>
      <trkpt lat="39.11858167" lon="-8.73349333">
        <ele>-1.0</ele>
        <time>2019-05-16T16:20:34.899Z</time>
      </trkpt>
      <trkpt lat="39.11858167" lon="-8.73349333">
        <ele>-1.0</ele>
        <time>2019-05-16T16:20:35.933Z</time>
      </trkpt>
      <trkpt lat="39.11858167" lon="-8.73349333">
        <ele>-1.0</ele>
        <time>2019-05-16T16:20:36.918Z</time>
      </trkpt>
      <trkpt lat="39.11858167" lon="-8.73349333">
        <ele>-1.0</ele>
        <time>2019-05-16T16:20:37.906Z</time>
      </trkpt>
      <trkpt lat="39.11858167" lon="-8.73349333">
        <ele>-1.0</ele>
        <time>2019-05-16T16:20:38.900Z</time>
      </trkpt>
      <trkpt lat="39.11858167" lon="-8.73349333">
        <ele>-1.0</ele>
        <time>2019-05-16T16:20:39.934Z</time>
      </trkpt>
      <trkpt lat="39.11858167" lon="-8.73349333">
        <ele>-1.0</ele>
        <time>2019-05-16T16:20:40.917Z</time>
      </trkpt>
      <trkpt lat="39.11858167" lon="-8.73349333">
        <ele>-1.0</ele>
        <time>2019-05-16T16:20:41.901Z</time>
      </trkpt>
      <trkpt lat="39.11858167" lon="-8.73349333">
        <ele>-1.0</ele>
        <time>2019-05-16T16:20:42.898Z</time>
      </trkpt>
      <trkpt lat="39.11858167" lon="-8.73349333">
        <ele>-1.0</ele>
        <time>2019-05-16T16:20:43.934Z</time>
      </trkpt>
      <trkpt lat="39.11858167" lon="-8.73349333">
        <ele>-1.0</ele>
        <time>2019-05-16T16:20:44.900Z</time>
      </trkpt>
      <trkpt lat="39.11858167" lon="-8.73349333">
        <ele>-1.0</ele>
        <time>2019-05-16T16:20:45.933Z</time>
      </trkpt>
      <trkpt lat="39.11858167" lon="-8.73349333">
        <ele>-1.0</ele>
        <time>2019-05-16T16:20:46.900Z</time>
      </trkpt>
      <trkpt lat="39.11858167" lon="-8.73349333">
        <ele>-1.0</ele>
        <time>2019-05-16T16:20:47.934Z</time>
      </trkpt>
      <trkpt lat="39.11858167" lon="-8.73349333">
        <ele>-1.0</ele>
        <time>2019-05-16T16:20:48.898Z</time>
      </trkpt>
      <trkpt lat="39.11858167" lon="-8.73349333">
        <ele>-1.0</ele>
        <time>2019-05-16T16:20:49.930Z</time>
      </trkpt>
      <trkpt lat="39.11858167" lon="-8.73349333">
        <ele>-1.0</ele>
        <time>2019-05-16T16:20:50.914Z</time>
      </trkpt>
      <trkpt lat="39.11858167" lon="-8.73349333">
        <ele>-1.0</ele>
        <time>2019-05-16T16:20:51.899Z</time>
      </trkpt>
      <trkpt lat="39.11858167" lon="-8.73349333">
        <ele>-1.0</ele>
        <time>2019-05-16T16:20:52.898Z</time>
      </trkpt>
      <trkpt lat="39.11858167" lon="-8.73349333">
        <ele>-1.0</ele>
        <time>2019-05-16T16:20:53.934Z</time>
      </trkpt>
      <trkpt lat="39.11858167" lon="-8.73349333">
        <ele>-1.0</ele>
        <time>2019-05-16T16:20:54.898Z</time>
      </trkpt>
      <trkpt lat="39.11858167" lon="-8.73349333">
        <ele>-1.0</ele>
        <time>2019-05-16T16:20:55.897Z</time>
      </trkpt>
      <trkpt lat="39.11858167" lon="-8.73349333">
        <ele>-1.0</ele>
        <time>2019-05-16T16:20:56.936Z</time>
      </trkpt>
      <trkpt lat="39.11858167" lon="-8.73349333">
        <ele>-1.0</ele>
        <time>2019-05-16T16:20:57.898Z</time>
      </trkpt>
      <trkpt lat="39.11858167" lon="-8.73349333">
        <ele>-1.0</ele>
        <time>2019-05-16T16:20:58.898Z</time>
      </trkpt>
      <trkpt lat="39.11858167" lon="-8.73349333">
        <ele>-1.0</ele>
        <time>2019-05-16T16:20:59.932Z</time>
      </trkpt>
      <trkpt lat="39.11858167" lon="-8.73349333">
        <ele>-1.0</ele>
        <time>2019-05-16T16:21:00.935Z</time>
      </trkpt>
      <trkpt lat="39.11858167" lon="-8.73349333">
        <ele>-1.0</ele>
        <time>2019-05-16T16:21:01.898Z</time>
      </trkpt>
      <trkpt lat="39.11858167" lon="-8.73349333">
        <ele>-1.0</ele>
        <time>2019-05-16T16:21:02.900Z</time>
      </trkpt>
      <trkpt lat="39.11858167" lon="-8.73349333">
        <ele>-1.0</ele>
        <time>2019-05-16T16:21:03.933Z</time>
      </trkpt>
      <trkpt lat="39.11858167" lon="-8.73349333">
        <ele>-1.0</ele>
        <time>2019-05-16T16:21:04.912Z</time>
      </trkpt>
      <trkpt lat="39.11858167" lon="-8.73349333">
        <ele>-1.0</ele>
        <time>2019-05-16T16:21:05.897Z</time>
      </trkpt>
      <trkpt lat="39.11858167" lon="-8.73349333">
        <ele>-1.0</ele>
        <time>2019-05-16T16:21:06.935Z</time>
      </trkpt>
      <trkpt lat="39.11858167" lon="-8.73349333">
        <ele>-1.0</ele>
        <time>2019-05-16T16:21:07.901Z</time>
      </trkpt>
      <trkpt lat="39.11858167" lon="-8.73349333">
        <ele>-1.0</ele>
        <time>2019-05-16T16:21:08.900Z</time>
      </trkpt>
      <trkpt lat="39.11858167" lon="-8.73349333">
        <ele>-1.0</ele>
        <time>2019-05-16T16:21:09.934Z</time>
      </trkpt>
      <trkpt lat="39.11858167" lon="-8.73349333">
        <ele>-1.0</ele>
        <time>2019-05-16T16:21:10.917Z</time>
      </trkpt>
      <trkpt lat="39.11858167" lon="-8.73349333">
        <ele>-1.0</ele>
        <time>2019-05-16T16:21:11.912Z</time>
      </trkpt>
      <trkpt lat="39.11858167" lon="-8.73349333">
        <ele>-1.0</ele>
        <time>2019-05-16T16:21:12.898Z</time>
      </trkpt>
      <trkpt lat="39.11858167" lon="-8.73349333">
        <ele>-1.0</ele>
        <time>2019-05-16T16:21:13.933Z</time>
      </trkpt>
      <trkpt lat="39.11858167" lon="-8.73349333">
        <ele>-1.0</ele>
        <time>2019-05-16T16:21:14.902Z</time>
      </trkpt>
      <trkpt lat="39.11858167" lon="-8.73349333">
        <ele>-1.0</ele>
        <time>2019-05-16T16:21:15.902Z</time>
      </trkpt>
      <trkpt lat="39.11858167" lon="-8.73349333">
        <ele>-1.0</ele>
        <time>2019-05-16T16:21:16.898Z</time>
      </trkpt>
      <trkpt lat="39.11858167" lon="-8.73349333">
        <ele>-1.0</ele>
        <time>2019-05-16T16:21:17.934Z</time>
      </trkpt>
      <trkpt lat="39.11858167" lon="-8.73349333">
        <ele>-1.0</ele>
        <time>2019-05-16T16:21:18.898Z</time>
      </trkpt>
      <trkpt lat="39.11858167" lon="-8.73349333">
        <ele>-1.0</ele>
        <time>2019-05-16T16:21:19.934Z</time>
      </trkpt>
      <trkpt lat="39.11858167" lon="-8.73349333">
        <ele>-1.0</ele>
        <time>2019-05-16T16:21:20.908Z</time>
      </trkpt>
      <trkpt lat="39.11858167" lon="-8.73349333">
        <ele>-1.0</ele>
        <time>2019-05-16T16:21:21.925Z</time>
      </trkpt>
      <trkpt lat="39.11858167" lon="-8.73349333">
        <ele>-1.0</ele>
        <time>2019-05-16T16:21:22.932Z</time>
      </trkpt>
      <trkpt lat="39.11858167" lon="-8.73349333">
        <ele>-1.0</ele>
        <time>2019-05-16T16:21:23.897Z</time>
      </trkpt>
      <trkpt lat="39.11858167" lon="-8.73349333">
        <ele>-1.0</ele>
        <time>2019-05-16T16:21:24.936Z</time>
      </trkpt>
      <trkpt lat="39.11858167" lon="-8.73349333">
        <ele>-1.0</ele>
        <time>2019-05-16T16:21:25.934Z</time>
      </trkpt>
      <trkpt lat="39.11858167" lon="-8.73349333">
        <ele>-1.0</ele>
        <time>2019-05-16T16:21:26.919Z</time>
      </trkpt>
      <trkpt lat="39.11858167" lon="-8.73349333">
        <ele>-1.0</ele>
        <time>2019-05-16T16:21:27.907Z</time>
      </trkpt>
      <trkpt lat="39.11858167" lon="-8.73349333">
        <ele>-1.0</ele>
        <time>2019-05-16T16:21:28.900Z</time>
      </trkpt>
      <trkpt lat="39.11858167" lon="-8.73349333">
        <ele>-1.0</ele>
        <time>2019-05-16T16:21:29.934Z</time>
      </trkpt>
      <trkpt lat="39.11858167" lon="-8.73349333">
        <ele>-1.0</ele>
        <time>2019-05-16T16:21:30.917Z</time>
      </trkpt>
      <trkpt lat="39.11858167" lon="-8.73349333">
        <ele>-1.0</ele>
        <time>2019-05-16T16:21:31.903Z</time>
      </trkpt>
      <trkpt lat="39.11858167" lon="-8.73349333">
        <ele>-1.0</ele>
        <time>2019-05-16T16:21:32.899Z</time>
      </trkpt>
      <trkpt lat="39.11858167" lon="-8.73349333">
        <ele>-1.0</ele>
        <time>2019-05-16T16:21:33.934Z</time>
      </trkpt>
      <trkpt lat="39.11858167" lon="-8.73349333">
        <ele>-1.0</ele>
        <time>2019-05-16T16:21:34.899Z</time>
      </trkpt>
      <trkpt lat="39.11858167" lon="-8.73349333">
        <ele>-1.0</ele>
        <time>2019-05-16T16:21:35.923Z</time>
      </trkpt>
      <trkpt lat="39.11858167" lon="-8.73349333">
        <ele>-1.0</ele>
        <time>2019-05-16T16:21:36.909Z</time>
      </trkpt>
      <trkpt lat="39.11858167" lon="-8.73349333">
        <ele>-1.0</ele>
        <time>2019-05-16T16:21:37.900Z</time>
      </trkpt>
      <trkpt lat="39.11858167" lon="-8.73349333">
        <ele>-1.0</ele>
        <time>2019-05-16T16:21:38.936Z</time>
      </trkpt>
      <trkpt lat="39.11858167" lon="-8.73349333">
        <ele>-1.0</ele>
        <time>2019-05-16T16:21:39.899Z</time>
      </trkpt>
      <trkpt lat="39.11858167" lon="-8.73349333">
        <ele>-1.0</ele>
        <time>2019-05-16T16:21:40.902Z</time>
      </trkpt>
      <trkpt lat="39.11858167" lon="-8.73349333">
        <ele>-1.0</ele>
        <time>2019-05-16T16:21:41.899Z</time>
      </trkpt>
      <trkpt lat="39.11858167" lon="-8.73349333">
        <ele>-1.0</ele>
        <time>2019-05-16T16:21:42.933Z</time>
      </trkpt>
      <trkpt lat="39.11858167" lon="-8.73349333">
        <ele>-1.0</ele>
        <time>2019-05-16T16:21:43.898Z</time>
      </trkpt>
      <trkpt lat="39.11858167" lon="-8.73349333">
        <ele>-1.0</ele>
        <time>2019-05-16T16:21:44.898Z</time>
      </trkpt>
      <trkpt lat="39.11858167" lon="-8.73349333">
        <ele>-1.0</ele>
        <time>2019-05-16T16:21:45.934Z</time>
      </trkpt>
      <trkpt lat="39.11858167" lon="-8.73349333">
        <ele>-1.0</ele>
        <time>2019-05-16T16:21:46.900Z</time>
      </trkpt>
      <trkpt lat="39.11858167" lon="-8.73349333">
        <ele>-1.0</ele>
        <time>2019-05-16T16:21:47.934Z</time>
      </trkpt>
      <trkpt lat="39.11858167" lon="-8.73349333">
        <ele>-1.0</ele>
        <time>2019-05-16T16:21:48.898Z</time>
      </trkpt>
      <trkpt lat="39.11858167" lon="-8.73349333">
        <ele>-1.0</ele>
        <time>2019-05-16T16:21:49.898Z</time>
      </trkpt>
      <trkpt lat="39.11858167" lon="-8.73349333">
        <ele>-1.0</ele>
        <time>2019-05-16T16:21:50.901Z</time>
      </trkpt>
      <trkpt lat="39.11858167" lon="-8.73349333">
        <ele>-1.0</ele>
        <time>2019-05-16T16:21:51.936Z</time>
      </trkpt>
      <trkpt lat="39.11858167" lon="-8.73349333">
        <ele>-1.0</ele>
        <time>2019-05-16T16:21:52.898Z</time>
      </trkpt>
      <trkpt lat="39.11858167" lon="-8.73349333">
        <ele>-1.0</ele>
        <time>2019-05-16T16:21:53.934Z</time>
      </trkpt>
      <trkpt lat="39.11858167" lon="-8.73349333">
        <ele>-1.0</ele>
        <time>2019-05-16T16:21:54.934Z</time>
      </trkpt>
      <trkpt lat="39.11858167" lon="-8.73349333">
        <ele>-1.0</ele>
        <time>2019-05-16T16:21:55.900Z</time>
      </trkpt>
      <trkpt lat="39.11858167" lon="-8.73349333">
        <ele>-1.0</ele>
        <time>2019-05-16T16:21:56.936Z</time>
      </trkpt>
      <trkpt lat="39.11858167" lon="-8.73349333">
        <ele>-1.0</ele>
        <time>2019-05-16T16:21:57.899Z</time>
      </trkpt>
      <trkpt lat="39.11858167" lon="-8.73349333">
        <ele>-1.0</ele>
        <time>2019-05-16T16:21:58.899Z</time>
      </trkpt>
      <trkpt lat="39.11858167" lon="-8.73349333">
        <ele>-1.0</ele>
        <time>2019-05-16T16:21:59.898Z</time>
      </trkpt>
      <trkpt lat="39.11858167" lon="-8.73349333">
        <ele>-1.0</ele>
        <time>2019-05-16T16:22:00.898Z</time>
      </trkpt>
      <trkpt lat="39.11858167" lon="-8.73349333">
        <ele>-1.0</ele>
        <time>2019-05-16T16:22:01.900Z</time>
      </trkpt>
      <trkpt lat="39.11858167" lon="-8.73349333">
        <ele>-1.0</ele>
        <time>2019-05-16T16:22:02.901Z</time>
      </trkpt>
      <trkpt lat="39.11858167" lon="-8.73349333">
        <ele>-1.0</ele>
        <time>2019-05-16T16:22:03.932Z</time>
      </trkpt>
      <trkpt lat="39.11858167" lon="-8.73349333">
        <ele>-1.0</ele>
        <time>2019-05-16T16:22:04.917Z</time>
      </trkpt>
      <trkpt lat="39.11858167" lon="-8.73349333">
        <ele>-1.0</ele>
        <time>2019-05-16T16:22:05.903Z</time>
      </trkpt>
      <trkpt lat="39.11858167" lon="-8.73349333">
        <ele>-1.0</ele>
        <time>2019-05-16T16:22:06.933Z</time>
      </trkpt>
      <trkpt lat="39.11858167" lon="-8.73349333">
        <ele>-1.0</ele>
        <time>2019-05-16T16:22:07.898Z</time>
      </trkpt>
      <trkpt lat="39.11858167" lon="-8.73349333">
        <ele>-1.0</ele>
        <time>2019-05-16T16:22:08.900Z</time>
      </trkpt>
      <trkpt lat="39.11858167" lon="-8.73349333">
        <ele>-1.0</ele>
        <time>2019-05-16T16:22:09.921Z</time>
      </trkpt>
      <trkpt lat="39.11858167" lon="-8.73349333">
        <ele>-1.0</ele>
        <time>2019-05-16T16:22:10.901Z</time>
      </trkpt>
      <trkpt lat="39.11858167" lon="-8.73349333">
        <ele>-1.0</ele>
        <time>2019-05-16T16:22:11.934Z</time>
      </trkpt>
      <trkpt lat="39.11858167" lon="-8.73349333">
        <ele>-1.0</ele>
        <time>2019-05-16T16:22:12.898Z</time>
      </trkpt>
      <trkpt lat="39.11858167" lon="-8.73349333">
        <ele>-1.0</ele>
        <time>2019-05-16T16:22:13.934Z</time>
      </trkpt>
      <trkpt lat="39.11858167" lon="-8.73349333">
        <ele>-1.0</ele>
        <time>2019-05-16T16:22:14.900Z</time>
      </trkpt>
      <trkpt lat="39.11858167" lon="-8.73349333">
        <ele>-1.0</ele>
        <time>2019-05-16T16:22:15.899Z</time>
      </trkpt>
      <trkpt lat="39.11858167" lon="-8.73349333">
        <ele>-1.0</ele>
        <time>2019-05-16T16:22:16.934Z</time>
      </trkpt>
      <trkpt lat="39.11858167" lon="-8.73349333">
        <ele>-1.0</ele>
        <time>2019-05-16T16:22:17.898Z</time>
      </trkpt>
      <trkpt lat="39.11858167" lon="-8.73349333">
        <ele>-1.0</ele>
        <time>2019-05-16T16:22:18.934Z</time>
      </trkpt>
      <trkpt lat="39.11858167" lon="-8.73349333">
        <ele>-1.0</ele>
        <time>2019-05-16T16:22:19.899Z</time>
      </trkpt>
      <trkpt lat="39.11858167" lon="-8.73349333">
        <ele>-1.0</ele>
        <time>2019-05-16T16:22:20.915Z</time>
      </trkpt>
      <trkpt lat="39.11858167" lon="-8.73349333">
        <ele>-1.0</ele>
        <time>2019-05-16T16:22:21.906Z</time>
      </trkpt>
      <trkpt lat="39.11858167" lon="-8.73349333">
        <ele>-1.0</ele>
        <time>2019-05-16T16:22:22.912Z</time>
      </trkpt>
      <trkpt lat="39.11858167" lon="-8.73349333">
        <ele>-1.0</ele>
        <time>2019-05-16T16:22:23.918Z</time>
      </trkpt>
      <trkpt lat="39.11858167" lon="-8.73349333">
        <ele>-1.0</ele>
        <time>2019-05-16T16:22:24.905Z</time>
      </trkpt>
      <trkpt lat="39.11858167" lon="-8.73349333">
        <ele>-1.0</ele>
        <time>2019-05-16T16:22:25.902Z</time>
      </trkpt>
      <trkpt lat="39.11858167" lon="-8.73349333">
        <ele>-1.0</ele>
        <time>2019-05-16T16:22:26.915Z</time>
      </trkpt>
      <trkpt lat="39.11858167" lon="-8.73349333">
        <ele>-1.0</ele>
        <time>2019-05-16T16:22:27.901Z</time>
      </trkpt>
      <trkpt lat="39.11858167" lon="-8.73349333">
        <ele>-1.0</ele>
        <time>2019-05-16T16:22:28.897Z</time>
      </trkpt>
      <trkpt lat="39.11858167" lon="-8.73349333">
        <ele>-1.0</ele>
        <time>2019-05-16T16:22:29.934Z</time>
      </trkpt>
      <trkpt lat="39.11858167" lon="-8.73349333">
        <ele>-1.0</ele>
        <time>2019-05-16T16:22:30.913Z</time>
      </trkpt>
      <trkpt lat="39.11858167" lon="-8.73349333">
        <ele>-1.0</ele>
        <time>2019-05-16T16:22:31.900Z</time>
      </trkpt>
      <trkpt lat="39.11858167" lon="-8.73349333">
        <ele>-1.0</ele>
        <time>2019-05-16T16:22:32.902Z</time>
      </trkpt>
      <trkpt lat="39.11858167" lon="-8.73349333">
        <ele>-1.0</ele>
        <time>2019-05-16T16:22:33.934Z</time>
      </trkpt>
      <trkpt lat="39.11858167" lon="-8.73349333">
        <ele>-1.0</ele>
        <time>2019-05-16T16:22:34.899Z</time>
      </trkpt>
      <trkpt lat="39.11858167" lon="-8.73349333">
        <ele>-1.0</ele>
        <time>2019-05-16T16:22:35.932Z</time>
      </trkpt>
      <trkpt lat="39.11858167" lon="-8.73349333">
        <ele>-1.0</ele>
        <time>2019-05-16T16:22:36.899Z</time>
      </trkpt>
      <trkpt lat="39.11858167" lon="-8.73349333">
        <ele>-1.0</ele>
        <time>2019-05-16T16:22:37.899Z</time>
      </trkpt>
      <trkpt lat="39.11858167" lon="-8.73349333">
        <ele>-1.0</ele>
        <time>2019-05-16T16:22:38.936Z</time>
      </trkpt>
      <trkpt lat="39.11858167" lon="-8.73349333">
        <ele>-1.0</ele>
        <time>2019-05-16T16:22:39.913Z</time>
      </trkpt>
      <trkpt lat="39.11858167" lon="-8.73349333">
        <ele>-1.0</ele>
        <time>2019-05-16T16:22:40.898Z</time>
      </trkpt>
      <trkpt lat="39.11858167" lon="-8.73349333">
        <ele>-1.0</ele>
        <time>2019-05-16T16:22:41.930Z</time>
      </trkpt>
      <trkpt lat="39.11858167" lon="-8.73349333">
        <ele>-1.0</ele>
        <time>2019-05-16T16:22:42.898Z</time>
      </trkpt>
      <trkpt lat="39.11858167" lon="-8.73349333">
        <ele>-1.0</ele>
        <time>2019-05-16T16:22:43.930Z</time>
      </trkpt>
      <trkpt lat="39.11858167" lon="-8.73349333">
        <ele>-1.0</ele>
        <time>2019-05-16T16:22:44.916Z</time>
      </trkpt>
      <trkpt lat="39.11858167" lon="-8.73349333">
        <ele>-1.0</ele>
        <time>2019-05-16T16:22:45.900Z</time>
      </trkpt>
      <trkpt lat="39.11858167" lon="-8.73349333">
        <ele>-1.0</ele>
        <time>2019-05-16T16:22:46.898Z</time>
      </trkpt>
      <trkpt lat="39.11858167" lon="-8.73349333">
        <ele>-1.0</ele>
        <time>2019-05-16T16:22:47.934Z</time>
      </trkpt>
      <trkpt lat="39.11858167" lon="-8.73349333">
        <ele>-1.0</ele>
        <time>2019-05-16T16:22:48.899Z</time>
      </trkpt>
      <trkpt lat="39.11858167" lon="-8.73349333">
        <ele>-1.0</ele>
        <time>2019-05-16T16:22:49.898Z</time>
      </trkpt>
      <trkpt lat="39.11858167" lon="-8.73349333">
        <ele>-1.0</ele>
        <time>2019-05-16T16:22:50.901Z</time>
      </trkpt>
      <trkpt lat="39.11858167" lon="-8.73349333">
        <ele>-1.0</ele>
        <time>2019-05-16T16:22:51.933Z</time>
      </trkpt>
      <trkpt lat="39.11858167" lon="-8.73349333">
        <ele>-1.0</ele>
        <time>2019-05-16T16:22:52.898Z</time>
      </trkpt>
      <trkpt lat="39.11858167" lon="-8.73349333">
        <ele>-1.0</ele>
        <time>2019-05-16T16:22:53.934Z</time>
      </trkpt>
      <trkpt lat="39.11858167" lon="-8.73349333">
        <ele>-1.0</ele>
        <time>2019-05-16T16:22:54.898Z</time>
      </trkpt>
      <trkpt lat="39.11858167" lon="-8.73349333">
        <ele>-1.0</ele>
        <time>2019-05-16T16:22:55.934Z</time>
      </trkpt>
      <trkpt lat="39.11858167" lon="-8.73349333">
        <ele>-1.0</ele>
        <time>2019-05-16T16:22:56.901Z</time>
      </trkpt>
      <trkpt lat="39.11858167" lon="-8.73349333">
        <ele>-1.0</ele>
        <time>2019-05-16T16:22:57.930Z</time>
      </trkpt>
      <trkpt lat="39.11858167" lon="-8.73349333">
        <ele>-1.0</ele>
        <time>2019-05-16T16:22:58.899Z</time>
      </trkpt>
      <trkpt lat="39.11858167" lon="-8.73349333">
        <ele>-1.0</ele>
        <time>2019-05-16T16:22:59.934Z</time>
      </trkpt>
      <trkpt lat="39.11858167" lon="-8.73349333">
        <ele>-1.0</ele>
        <time>2019-05-16T16:23:00.898Z</time>
      </trkpt>
      <trkpt lat="39.11858167" lon="-8.73349333">
        <ele>-1.0</ele>
        <time>2019-05-16T16:23:01.901Z</time>
      </trkpt>
      <trkpt lat="39.11858167" lon="-8.73349333">
        <ele>-1.0</ele>
        <time>2019-05-16T16:23:02.901Z</time>
      </trkpt>
      <trkpt lat="39.11858167" lon="-8.73349333">
        <ele>-1.0</ele>
        <time>2019-05-16T16:23:03.934Z</time>
      </trkpt>
      <trkpt lat="39.11858167" lon="-8.73349333">
        <ele>-1.0</ele>
        <time>2019-05-16T16:23:04.899Z</time>
      </trkpt>
      <trkpt lat="39.11858167" lon="-8.73349333">
        <ele>-1.0</ele>
        <time>2019-05-16T16:23:05.935Z</time>
      </trkpt>
      <trkpt lat="39.11858167" lon="-8.73349333">
        <ele>-1.0</ele>
        <time>2019-05-16T16:23:06.903Z</time>
      </trkpt>
      <trkpt lat="39.11858167" lon="-8.73349333">
        <ele>-1.0</ele>
        <time>2019-05-16T16:23:07.932Z</time>
      </trkpt>
      <trkpt lat="39.11858167" lon="-8.73349333">
        <ele>-1.0</ele>
        <time>2019-05-16T16:23:08.916Z</time>
      </trkpt>
      <trkpt lat="39.11858167" lon="-8.73349333">
        <ele>-1.0</ele>
        <time>2019-05-16T16:23:09.902Z</time>
      </trkpt>
      <trkpt lat="39.11858167" lon="-8.73349333">
        <ele>-1.0</ele>
        <time>2019-05-16T16:23:10.898Z</time>
      </trkpt>
      <trkpt lat="39.11858167" lon="-8.73349333">
        <ele>-1.0</ele>
        <time>2019-05-16T16:23:11.933Z</time>
      </trkpt>
      <trkpt lat="39.11858167" lon="-8.73349333">
        <ele>-1.0</ele>
        <time>2019-05-16T16:23:12.898Z</time>
      </trkpt>
      <trkpt lat="39.11858167" lon="-8.73349333">
        <ele>-1.0</ele>
        <time>2019-05-16T16:23:13.899Z</time>
      </trkpt>
      <trkpt lat="39.11858167" lon="-8.73349333">
        <ele>-1.0</ele>
        <time>2019-05-16T16:23:14.936Z</time>
      </trkpt>
      <trkpt lat="39.11858167" lon="-8.73349333">
        <ele>-1.0</ele>
        <time>2019-05-16T16:23:15.898Z</time>
      </trkpt>
      <trkpt lat="39.11858167" lon="-8.73349333">
        <ele>-1.0</ele>
        <time>2019-05-16T16:23:16.898Z</time>
      </trkpt>
      <trkpt lat="39.11858167" lon="-8.73349333">
        <ele>-1.0</ele>
        <time>2019-05-16T16:23:17.933Z</time>
      </trkpt>
      <trkpt lat="39.11858167" lon="-8.73349333">
        <ele>-1.0</ele>
        <time>2019-05-16T16:23:18.936Z</time>
      </trkpt>
      <trkpt lat="39.11858167" lon="-8.73349333">
        <ele>-1.0</ele>
        <time>2019-05-16T16:23:19.935Z</time>
      </trkpt>
      <trkpt lat="39.11858167" lon="-8.73349333">
        <ele>-1.0</ele>
        <time>2019-05-16T16:23:20.916Z</time>
      </trkpt>
      <trkpt lat="39.11858167" lon="-8.73349333">
        <ele>-1.0</ele>
        <time>2019-05-16T16:23:21.928Z</time>
      </trkpt>
      <trkpt lat="39.11858167" lon="-8.73349333">
        <ele>-1.0</ele>
        <time>2019-05-16T16:23:22.934Z</time>
      </trkpt>
      <trkpt lat="39.11858167" lon="-8.73349333">
        <ele>-1.0</ele>
        <time>2019-05-16T16:23:23.900Z</time>
      </trkpt>
      <trkpt lat="39.11858167" lon="-8.73349333">
        <ele>-1.0</ele>
        <time>2019-05-16T16:23:24.898Z</time>
      </trkpt>
      <trkpt lat="39.11858167" lon="-8.73349333">
        <ele>-1.0</ele>
        <time>2019-05-16T16:23:25.934Z</time>
      </trkpt>
      <trkpt lat="39.11858167" lon="-8.73349333">
        <ele>-1.0</ele>
        <time>2019-05-16T16:23:26.900Z</time>
      </trkpt>
      <trkpt lat="39.11858167" lon="-8.73349333">
        <ele>-1.0</ele>
        <time>2019-05-16T16:23:27.902Z</time>
      </trkpt>
      <trkpt lat="39.11858167" lon="-8.73349333">
        <ele>-1.0</ele>
        <time>2019-05-16T16:23:28.899Z</time>
      </trkpt>
      <trkpt lat="39.11858167" lon="-8.73349333">
        <ele>-1.0</ele>
        <time>2019-05-16T16:23:29.934Z</time>
      </trkpt>
      <trkpt lat="39.11858167" lon="-8.73349333">
        <ele>-1.0</ele>
        <time>2019-05-16T16:23:30.899Z</time>
      </trkpt>
      <trkpt lat="39.11858167" lon="-8.73349333">
        <ele>-1.0</ele>
        <time>2019-05-16T16:23:31.900Z</time>
      </trkpt>
      <trkpt lat="39.11858167" lon="-8.73349333">
        <ele>-1.0</ele>
        <time>2019-05-16T16:23:32.936Z</time>
      </trkpt>
      <trkpt lat="39.11858167" lon="-8.73349333">
        <ele>-1.0</ele>
        <time>2019-05-16T16:23:33.899Z</time>
      </trkpt>
      <trkpt lat="39.11858167" lon="-8.73349333">
        <ele>-1.0</ele>
        <time>2019-05-16T16:23:34.934Z</time>
      </trkpt>
      <trkpt lat="39.11858167" lon="-8.73349333">
        <ele>-1.0</ele>
        <time>2019-05-16T16:23:35.899Z</time>
      </trkpt>
      <trkpt lat="39.11858167" lon="-8.73349333">
        <ele>-1.0</ele>
        <time>2019-05-16T16:23:36.899Z</time>
      </trkpt>
      <trkpt lat="39.11858167" lon="-8.73349333">
        <ele>-1.0</ele>
        <time>2019-05-16T16:23:37.934Z</time>
      </trkpt>
      <trkpt lat="39.11858167" lon="-8.73349333">
        <ele>-1.0</ele>
        <time>2019-05-16T16:23:38.901Z</time>
      </trkpt>
      <trkpt lat="39.11858167" lon="-8.73349333">
        <ele>-1.0</ele>
        <time>2019-05-16T16:23:39.931Z</time>
      </trkpt>
      <trkpt lat="39.11858167" lon="-8.73349333">
        <ele>-1.0</ele>
        <time>2019-05-16T16:23:40.913Z</time>
      </trkpt>
      <trkpt lat="39.11858167" lon="-8.73349333">
        <ele>-1.0</ele>
        <time>2019-05-16T16:23:41.899Z</time>
      </trkpt>
      <trkpt lat="39.11858167" lon="-8.73349333">
        <ele>-1.0</ele>
        <time>2019-05-16T16:23:42.899Z</time>
      </trkpt>
      <trkpt lat="39.11858167" lon="-8.73349333">
        <ele>-1.0</ele>
        <time>2019-05-16T16:23:43.929Z</time>
      </trkpt>
      <trkpt lat="39.11858167" lon="-8.73349333">
        <ele>-1.0</ele>
        <time>2019-05-16T16:23:44.914Z</time>
      </trkpt>
      <trkpt lat="39.11858167" lon="-8.73349333">
        <ele>-1.0</ele>
        <time>2019-05-16T16:23:45.900Z</time>
      </trkpt>
      <trkpt lat="39.11858167" lon="-8.73349333">
        <ele>-1.0</ele>
        <time>2019-05-16T16:23:46.898Z</time>
      </trkpt>
      <trkpt lat="39.11858167" lon="-8.73349333">
        <ele>-1.0</ele>
        <time>2019-05-16T16:23:47.934Z</time>
      </trkpt>
      <trkpt lat="39.11858167" lon="-8.73349333">
        <ele>-1.0</ele>
        <time>2019-05-16T16:23:48.899Z</time>
      </trkpt>
      <trkpt lat="39.11858167" lon="-8.73349333">
        <ele>-1.0</ele>
        <time>2019-05-16T16:23:49.935Z</time>
      </trkpt>
      <trkpt lat="39.118555" lon="-8.73346667">
        <ele>-2.0</ele>
        <time>2019-05-16T16:23:50.901Z</time>
      </trkpt>
      <trkpt lat="39.118555" lon="-8.73346667">
        <ele>-2.0</ele>
        <time>2019-05-16T16:23:51.934Z</time>
      </trkpt>
      <trkpt lat="39.118575" lon="-8.73344833">
        <ele>-2.0</ele>
        <time>2019-05-16T16:23:52.898Z</time>
      </trkpt>
      <trkpt lat="39.11859" lon="-8.73344">
        <ele>-2.0</ele>
        <time>2019-05-16T16:23:53.899Z</time>
      </trkpt>
      <trkpt lat="39.11859" lon="-8.73344">
        <ele>-2.0</ele>
        <time>2019-05-16T16:23:54.934Z</time>
      </trkpt>
      <trkpt lat="39.11863" lon="-8.73342833">
        <ele>-1.0</ele>
        <time>2019-05-16T16:23:55.930Z</time>
      </trkpt>
      <trkpt lat="39.118655" lon="-8.733425">
        <ele>-2.0</ele>
        <time>2019-05-16T16:23:56.921Z</time>
      </trkpt>
      <trkpt lat="39.118655" lon="-8.733425">
        <ele>-2.0</ele>
        <time>2019-05-16T16:23:57.912Z</time>
      </trkpt>
      <trkpt lat="39.11871167" lon="-8.733415">
        <ele>-2.0</ele>
        <time>2019-05-16T16:23:58.901Z</time>
      </trkpt>
      <trkpt lat="39.11871167" lon="-8.733415">
        <ele>-2.0</ele>
        <time>2019-05-16T16:23:59.898Z</time>
      </trkpt>
      <trkpt lat="39.118765" lon="-8.73340667">
        <ele>-1.0</ele>
        <time>2019-05-16T16:24:00.923Z</time>
      </trkpt>
      <trkpt lat="39.118765" lon="-8.73340667">
        <ele>-1.0</ele>
        <time>2019-05-16T16:24:01.926Z</time>
      </trkpt>
      <trkpt lat="39.11881667" lon="-8.73340167">
        <ele>-1.0</ele>
        <time>2019-05-16T16:24:02.901Z</time>
      </trkpt>
      <trkpt lat="39.11881667" lon="-8.73340167">
        <ele>-1.0</ele>
        <time>2019-05-16T16:24:03.924Z</time>
      </trkpt>
      <trkpt lat="39.11886667" lon="-8.73338667">
        <ele>-1.0</ele>
        <time>2019-05-16T16:24:04.901Z</time>
      </trkpt>
      <trkpt lat="39.11886667" lon="-8.73338667">
        <ele>-1.0</ele>
        <time>2019-05-16T16:24:05.906Z</time>
      </trkpt>
      <trkpt lat="39.11892" lon="-8.733375">
        <ele>-1.0</ele>
        <time>2019-05-16T16:24:06.917Z</time>
      </trkpt>
      <trkpt lat="39.11892" lon="-8.733375">
        <ele>-1.0</ele>
        <time>2019-05-16T16:24:07.926Z</time>
      </trkpt>
      <trkpt lat="39.11897333" lon="-8.73336">
        <ele>-1.0</ele>
        <time>2019-05-16T16:24:08.912Z</time>
      </trkpt>
      <trkpt lat="39.11897333" lon="-8.73336">
        <ele>-1.0</ele>
        <time>2019-05-16T16:24:09.933Z</time>
      </trkpt>
      <trkpt lat="39.11902833" lon="-8.733345">
        <ele>-1.0</ele>
        <time>2019-05-16T16:24:10.905Z</time>
      </trkpt>
      <trkpt lat="39.11902833" lon="-8.733345">
        <ele>-1.0</ele>
        <time>2019-05-16T16:24:11.901Z</time>
      </trkpt>
      <trkpt lat="39.11907833" lon="-8.73332667">
        <ele>-1.0</ele>
        <time>2019-05-16T16:24:12.918Z</time>
      </trkpt>
      <trkpt lat="39.11907833" lon="-8.73332667">
        <ele>-1.0</ele>
        <time>2019-05-16T16:24:13.905Z</time>
      </trkpt>
      <trkpt lat="39.11912667" lon="-8.73330667">
        <ele>-1.0</ele>
        <time>2019-05-16T16:24:14.927Z</time>
      </trkpt>
      <trkpt lat="39.11912667" lon="-8.73330667">
        <ele>-1.0</ele>
        <time>2019-05-16T16:24:15.919Z</time>
      </trkpt>
      <trkpt lat="39.11917167" lon="-8.73329167">
        <ele>-1.0</ele>
        <time>2019-05-16T16:24:16.906Z</time>
      </trkpt>
      <trkpt lat="39.11917167" lon="-8.73329167">
        <ele>-1.0</ele>
        <time>2019-05-16T16:24:17.931Z</time>
      </trkpt>
      <trkpt lat="39.11921833" lon="-8.733275">
        <ele>-1.0</ele>
        <time>2019-05-16T16:24:18.917Z</time>
      </trkpt>
      <trkpt lat="39.11921833" lon="-8.733275">
        <ele>-1.0</ele>
        <time>2019-05-16T16:24:19.905Z</time>
      </trkpt>
      <trkpt lat="39.119265" lon="-8.733255">
        <ele>-1.0</ele>
        <time>2019-05-16T16:24:20.906Z</time>
      </trkpt>
      <trkpt lat="39.119265" lon="-8.733255">
        <ele>-1.0</ele>
        <time>2019-05-16T16:24:21.923Z</time>
      </trkpt>
      <trkpt lat="39.11932" lon="-8.73323167">
        <ele>-1.0</ele>
        <time>2019-05-16T16:24:22.902Z</time>
      </trkpt>
      <trkpt lat="39.11932" lon="-8.73323167">
        <ele>-1.0</ele>
        <time>2019-05-16T16:24:23.903Z</time>
      </trkpt>
      <trkpt lat="39.11938" lon="-8.73320333">
        <ele>-1.0</ele>
        <time>2019-05-16T16:24:24.930Z</time>
      </trkpt>
      <trkpt lat="39.11938" lon="-8.73320333">
        <ele>-1.0</ele>
        <time>2019-05-16T16:24:25.925Z</time>
      </trkpt>
      <trkpt lat="39.11944" lon="-8.73317333">
        <ele>-1.0</ele>
        <time>2019-05-16T16:24:26.909Z</time>
      </trkpt>
      <trkpt lat="39.11944" lon="-8.73317333">
        <ele>-1.0</ele>
        <time>2019-05-16T16:24:27.910Z</time>
      </trkpt>
      <trkpt lat="39.1195" lon="-8.73314333">
        <ele>-1.0</ele>
        <time>2019-05-16T16:24:28.929Z</time>
      </trkpt>
      <trkpt lat="39.1195" lon="-8.73314333">
        <ele>-1.0</ele>
        <time>2019-05-16T16:24:29.930Z</time>
      </trkpt>
      <trkpt lat="39.11956" lon="-8.733115">
        <ele>-1.0</ele>
        <time>2019-05-16T16:24:30.905Z</time>
      </trkpt>
      <trkpt lat="39.11956" lon="-8.733115">
        <ele>-1.0</ele>
        <time>2019-05-16T16:24:31.901Z</time>
      </trkpt>
      <trkpt lat="39.11962" lon="-8.73308833">
        <ele>-1.0</ele>
        <time>2019-05-16T16:24:32.918Z</time>
      </trkpt>
      <trkpt lat="39.11962" lon="-8.73308833">
        <ele>-1.0</ele>
        <time>2019-05-16T16:24:33.928Z</time>
      </trkpt>
      <trkpt lat="39.11968333" lon="-8.73306">
        <ele>-1.0</ele>
        <time>2019-05-16T16:24:34.915Z</time>
      </trkpt>
      <trkpt lat="39.11968333" lon="-8.73306">
        <ele>-1.0</ele>
        <time>2019-05-16T16:24:35.903Z</time>
      </trkpt>
      <trkpt lat="39.11974667" lon="-8.73303167">
        <ele>-1.0</ele>
        <time>2019-05-16T16:24:36.921Z</time>
      </trkpt>
      <trkpt lat="39.11977833" lon="-8.733015">
        <ele>-1.0</ele>
        <time>2019-05-16T16:24:37.918Z</time>
      </trkpt>
      <trkpt lat="39.11981" lon="-8.733">
        <ele>-1.0</ele>
        <time>2019-05-16T16:24:38.919Z</time>
      </trkpt>
      <trkpt lat="39.11981" lon="-8.733">
        <ele>-1.0</ele>
        <time>2019-05-16T16:24:39.914Z</time>
      </trkpt>
      <trkpt lat="39.11987167" lon="-8.73297333">
        <ele>-1.0</ele>
        <time>2019-05-16T16:24:40.932Z</time>
      </trkpt>
      <trkpt lat="39.11987167" lon="-8.73297333">
        <ele>-1.0</ele>
        <time>2019-05-16T16:24:41.928Z</time>
      </trkpt>
      <trkpt lat="39.119935" lon="-8.73294667">
        <ele>-1.0</ele>
        <time>2019-05-16T16:24:42.909Z</time>
      </trkpt>
      <trkpt lat="39.119935" lon="-8.73294667">
        <ele>-1.0</ele>
        <time>2019-05-16T16:24:43.903Z</time>
      </trkpt>
      <trkpt lat="39.11999667" lon="-8.73292">
        <ele>-1.0</ele>
        <time>2019-05-16T16:24:44.921Z</time>
      </trkpt>
      <trkpt lat="39.11999667" lon="-8.73292">
        <ele>-1.0</ele>
        <time>2019-05-16T16:24:45.936Z</time>
      </trkpt>
      <trkpt lat="39.12005833" lon="-8.73289">
        <ele>-1.0</ele>
        <time>2019-05-16T16:24:46.922Z</time>
      </trkpt>
      <trkpt lat="39.12005833" lon="-8.73289">
        <ele>-1.0</ele>
        <time>2019-05-16T16:24:47.926Z</time>
      </trkpt>
      <trkpt lat="39.12012" lon="-8.73286">
        <ele>-1.0</ele>
        <time>2019-05-16T16:24:48.916Z</time>
      </trkpt>
      <trkpt lat="39.12012" lon="-8.73286">
        <ele>-1.0</ele>
        <time>2019-05-16T16:24:49.910Z</time>
      </trkpt>
      <trkpt lat="39.12018" lon="-8.73283167">
        <ele>0.0</ele>
        <time>2019-05-16T16:24:50.939Z</time>
      </trkpt>
      <trkpt lat="39.12018" lon="-8.73283167">
        <ele>0.0</ele>
        <time>2019-05-16T16:24:51.926Z</time>
      </trkpt>
      <trkpt lat="39.12024" lon="-8.73280667">
        <ele>0.0</ele>
        <time>2019-05-16T16:24:52.905Z</time>
      </trkpt>
      <trkpt lat="39.12024" lon="-8.73280667">
        <ele>0.0</ele>
        <time>2019-05-16T16:24:53.906Z</time>
      </trkpt>
      <trkpt lat="39.1203" lon="-8.73277833">
        <ele>0.0</ele>
        <time>2019-05-16T16:24:54.929Z</time>
      </trkpt>
      <trkpt lat="39.1203" lon="-8.73277833">
        <ele>0.0</ele>
        <time>2019-05-16T16:24:55.917Z</time>
      </trkpt>
      <trkpt lat="39.12035833" lon="-8.73275">
        <ele>0.0</ele>
        <time>2019-05-16T16:24:56.901Z</time>
      </trkpt>
      <trkpt lat="39.12035833" lon="-8.73275">
        <ele>0.0</ele>
        <time>2019-05-16T16:24:57.934Z</time>
      </trkpt>
      <trkpt lat="39.120415" lon="-8.732725">
        <ele>0.0</ele>
        <time>2019-05-16T16:24:58.915Z</time>
      </trkpt>
      <trkpt lat="39.120415" lon="-8.732725">
        <ele>0.0</ele>
        <time>2019-05-16T16:24:59.903Z</time>
      </trkpt>
      <trkpt lat="39.120465" lon="-8.73269833">
        <ele>0.0</ele>
        <time>2019-05-16T16:25:00.929Z</time>
      </trkpt>
      <trkpt lat="39.120465" lon="-8.73269833">
        <ele>0.0</ele>
        <time>2019-05-16T16:25:01.905Z</time>
      </trkpt>
      <trkpt lat="39.12051167" lon="-8.73267333">
        <ele>0.0</ele>
        <time>2019-05-16T16:25:02.927Z</time>
      </trkpt>
      <trkpt lat="39.12051167" lon="-8.73267333">
        <ele>0.0</ele>
        <time>2019-05-16T16:25:03.904Z</time>
      </trkpt>
      <trkpt lat="39.12056" lon="-8.73264833">
        <ele>0.0</ele>
        <time>2019-05-16T16:25:04.932Z</time>
      </trkpt>
      <trkpt lat="39.12056" lon="-8.73264833">
        <ele>0.0</ele>
        <time>2019-05-16T16:25:05.913Z</time>
      </trkpt>
      <trkpt lat="39.12061167" lon="-8.73262167">
        <ele>0.0</ele>
        <time>2019-05-16T16:25:06.900Z</time>
      </trkpt>
      <trkpt lat="39.12061167" lon="-8.73262167">
        <ele>0.0</ele>
        <time>2019-05-16T16:25:07.918Z</time>
      </trkpt>
      <trkpt lat="39.120665" lon="-8.73259333">
        <ele>0.0</ele>
        <time>2019-05-16T16:25:08.903Z</time>
      </trkpt>
      <trkpt lat="39.120665" lon="-8.73259333">
        <ele>0.0</ele>
        <time>2019-05-16T16:25:09.905Z</time>
      </trkpt>
      <trkpt lat="39.12071833" lon="-8.73256167">
        <ele>0.0</ele>
        <time>2019-05-16T16:25:10.927Z</time>
      </trkpt>
      <trkpt lat="39.12071833" lon="-8.73256167">
        <ele>0.0</ele>
        <time>2019-05-16T16:25:11.920Z</time>
      </trkpt>
      <trkpt lat="39.12077333" lon="-8.73252667">
        <ele>0.0</ele>
        <time>2019-05-16T16:25:12.898Z</time>
      </trkpt>
      <trkpt lat="39.12077333" lon="-8.73252667">
        <ele>0.0</ele>
        <time>2019-05-16T16:25:13.917Z</time>
      </trkpt>
      <trkpt lat="39.12082667" lon="-8.73249667">
        <ele>0.0</ele>
        <time>2019-05-16T16:25:14.928Z</time>
      </trkpt>
      <trkpt lat="39.12082667" lon="-8.73249667">
        <ele>0.0</ele>
        <time>2019-05-16T16:25:15.917Z</time>
      </trkpt>
      <trkpt lat="39.12088333" lon="-8.732465">
        <ele>0.0</ele>
        <time>2019-05-16T16:25:16.906Z</time>
      </trkpt>
      <trkpt lat="39.12088333" lon="-8.732465">
        <ele>0.0</ele>
        <time>2019-05-16T16:25:17.908Z</time>
      </trkpt>
      <trkpt lat="39.12094167" lon="-8.73243333">
        <ele>0.0</ele>
        <time>2019-05-16T16:25:18.897Z</time>
      </trkpt>
      <trkpt lat="39.12094167" lon="-8.73243333">
        <ele>0.0</ele>
        <time>2019-05-16T16:25:19.933Z</time>
      </trkpt>
      <trkpt lat="39.12099667" lon="-8.73239667">
        <ele>0.0</ele>
        <time>2019-05-16T16:25:20.951Z</time>
      </trkpt>
      <trkpt lat="39.12099667" lon="-8.73239667">
        <ele>0.0</ele>
        <time>2019-05-16T16:25:21.898Z</time>
      </trkpt>
      <trkpt lat="39.12104833" lon="-8.732355">
        <ele>0.0</ele>
        <time>2019-05-16T16:25:22.915Z</time>
      </trkpt>
      <trkpt lat="39.12104833" lon="-8.732355">
        <ele>0.0</ele>
        <time>2019-05-16T16:25:23.903Z</time>
      </trkpt>
      <trkpt lat="39.1211" lon="-8.73232">
        <ele>0.0</ele>
        <time>2019-05-16T16:25:24.993Z</time>
      </trkpt>
      <trkpt lat="39.1211" lon="-8.73232">
        <ele>0.0</ele>
        <time>2019-05-16T16:25:25.897Z</time>
      </trkpt>
      <trkpt lat="39.12115" lon="-8.732285">
        <ele>0.0</ele>
        <time>2019-05-16T16:25:26.915Z</time>
      </trkpt>
      <trkpt lat="39.12115" lon="-8.732285">
        <ele>0.0</ele>
        <time>2019-05-16T16:25:27.910Z</time>
      </trkpt>
      <trkpt lat="39.12119833" lon="-8.73224833">
        <ele>0.0</ele>
        <time>2019-05-16T16:25:28.932Z</time>
      </trkpt>
      <trkpt lat="39.12119833" lon="-8.73224833">
        <ele>0.0</ele>
        <time>2019-05-16T16:25:29.913Z</time>
      </trkpt>
      <trkpt lat="39.12124833" lon="-8.73221833">
        <ele>0.0</ele>
        <time>2019-05-16T16:25:30.931Z</time>
      </trkpt>
      <trkpt lat="39.12124833" lon="-8.73221833">
        <ele>0.0</ele>
        <time>2019-05-16T16:25:31.903Z</time>
      </trkpt>
      <trkpt lat="39.12129833" lon="-8.73218333">
        <ele>0.0</ele>
        <time>2019-05-16T16:25:32.923Z</time>
      </trkpt>
      <trkpt lat="39.12129833" lon="-8.73218333">
        <ele>0.0</ele>
        <time>2019-05-16T16:25:33.913Z</time>
      </trkpt>
      <trkpt lat="39.12135" lon="-8.73214667">
        <ele>0.0</ele>
        <time>2019-05-16T16:25:34.897Z</time>
      </trkpt>
      <trkpt lat="39.12135" lon="-8.73214667">
        <ele>0.0</ele>
        <time>2019-05-16T16:25:35.934Z</time>
      </trkpt>
      <trkpt lat="39.12140167" lon="-8.73211">
        <ele>0.0</ele>
        <time>2019-05-16T16:25:36.933Z</time>
      </trkpt>
      <trkpt lat="39.12140167" lon="-8.73211">
        <ele>0.0</ele>
        <time>2019-05-16T16:25:37.907Z</time>
      </trkpt>
      <trkpt lat="39.12145833" lon="-8.73207">
        <ele>0.0</ele>
        <time>2019-05-16T16:25:38.927Z</time>
      </trkpt>
      <trkpt lat="39.12145833" lon="-8.73207">
        <ele>0.0</ele>
        <time>2019-05-16T16:25:39.926Z</time>
      </trkpt>
      <trkpt lat="39.12151333" lon="-8.73202833">
        <ele>0.0</ele>
        <time>2019-05-16T16:25:40.898Z</time>
      </trkpt>
      <trkpt lat="39.12151333" lon="-8.73202833">
        <ele>0.0</ele>
        <time>2019-05-16T16:25:41.919Z</time>
      </trkpt>
      <trkpt lat="39.12157167" lon="-8.73198833">
        <ele>0.0</ele>
        <time>2019-05-16T16:25:42.911Z</time>
      </trkpt>
      <trkpt lat="39.12157167" lon="-8.73198833">
        <ele>0.0</ele>
        <time>2019-05-16T16:25:43.903Z</time>
      </trkpt>
      <trkpt lat="39.12163" lon="-8.73194667">
        <ele>0.0</ele>
        <time>2019-05-16T16:25:44.932Z</time>
      </trkpt>
      <trkpt lat="39.12163" lon="-8.73194667">
        <ele>0.0</ele>
        <time>2019-05-16T16:25:45.903Z</time>
      </trkpt>
      <trkpt lat="39.12169" lon="-8.73190667">
        <ele>0.0</ele>
        <time>2019-05-16T16:25:46.931Z</time>
      </trkpt>
      <trkpt lat="39.12169" lon="-8.73190667">
        <ele>0.0</ele>
        <time>2019-05-16T16:25:47.901Z</time>
      </trkpt>
      <trkpt lat="39.12175" lon="-8.73186333">
        <ele>0.0</ele>
        <time>2019-05-16T16:25:48.919Z</time>
      </trkpt>
      <trkpt lat="39.12178" lon="-8.73184333">
        <ele>0.0</ele>
        <time>2019-05-16T16:25:49.929Z</time>
      </trkpt>
      <trkpt lat="39.12181" lon="-8.73182333">
        <ele>0.0</ele>
        <time>2019-05-16T16:25:50.935Z</time>
      </trkpt>
      <trkpt lat="39.12181" lon="-8.73182333">
        <ele>0.0</ele>
        <time>2019-05-16T16:25:51.933Z</time>
      </trkpt>
      <trkpt lat="39.12186667" lon="-8.731785">
        <ele>0.0</ele>
        <time>2019-05-16T16:25:52.934Z</time>
      </trkpt>
      <trkpt lat="39.12186667" lon="-8.731785">
        <ele>0.0</ele>
        <time>2019-05-16T16:25:53.900Z</time>
      </trkpt>
      <trkpt lat="39.12191833" lon="-8.73174667">
        <ele>0.0</ele>
        <time>2019-05-16T16:25:54.925Z</time>
      </trkpt>
      <trkpt lat="39.12191833" lon="-8.73174667">
        <ele>0.0</ele>
        <time>2019-05-16T16:25:55.918Z</time>
      </trkpt>
      <trkpt lat="39.12197167" lon="-8.73170833">
        <ele>0.0</ele>
        <time>2019-05-16T16:25:56.934Z</time>
      </trkpt>
      <trkpt lat="39.12197167" lon="-8.73170833">
        <ele>0.0</ele>
        <time>2019-05-16T16:25:57.916Z</time>
      </trkpt>
      <trkpt lat="39.122025" lon="-8.73166833">
        <ele>0.0</ele>
        <time>2019-05-16T16:25:58.899Z</time>
      </trkpt>
      <trkpt lat="39.122025" lon="-8.73166833">
        <ele>0.0</ele>
        <time>2019-05-16T16:25:59.913Z</time>
      </trkpt>
      <trkpt lat="39.12208167" lon="-8.73163167">
        <ele>0.0</ele>
        <time>2019-05-16T16:26:00.931Z</time>
      </trkpt>
      <trkpt lat="39.12208167" lon="-8.73163167">
        <ele>0.0</ele>
        <time>2019-05-16T16:26:01.928Z</time>
      </trkpt>
      <trkpt lat="39.12213667" lon="-8.73159">
        <ele>0.0</ele>
        <time>2019-05-16T16:26:02.904Z</time>
      </trkpt>
      <trkpt lat="39.12213667" lon="-8.73159">
        <ele>0.0</ele>
        <time>2019-05-16T16:26:03.907Z</time>
      </trkpt>
      <trkpt lat="39.12219333" lon="-8.73155167">
        <ele>0.0</ele>
        <time>2019-05-16T16:26:04.928Z</time>
      </trkpt>
      <trkpt lat="39.12219333" lon="-8.73155167">
        <ele>0.0</ele>
        <time>2019-05-16T16:26:05.903Z</time>
      </trkpt>
      <trkpt lat="39.12224833" lon="-8.73150833">
        <ele>0.0</ele>
        <time>2019-05-16T16:26:06.919Z</time>
      </trkpt>
      <trkpt lat="39.122275" lon="-8.73148667">
        <ele>0.0</ele>
        <time>2019-05-16T16:26:07.906Z</time>
      </trkpt>
      <trkpt lat="39.12230167" lon="-8.73146833">
        <ele>0.0</ele>
        <time>2019-05-16T16:26:08.906Z</time>
      </trkpt>
      <trkpt lat="39.12230167" lon="-8.73146833">
        <ele>0.0</ele>
        <time>2019-05-16T16:26:09.933Z</time>
      </trkpt>
      <trkpt lat="39.122355" lon="-8.73142667">
        <ele>0.0</ele>
        <time>2019-05-16T16:26:10.904Z</time>
      </trkpt>
      <trkpt lat="39.122355" lon="-8.73142667">
        <ele>0.0</ele>
        <time>2019-05-16T16:26:11.935Z</time>
      </trkpt>
      <trkpt lat="39.12241" lon="-8.731385">
        <ele>0.0</ele>
        <time>2019-05-16T16:26:12.912Z</time>
      </trkpt>
      <trkpt lat="39.12241" lon="-8.731385">
        <ele>0.0</ele>
        <time>2019-05-16T16:26:13.900Z</time>
      </trkpt>
      <trkpt lat="39.12246333" lon="-8.73134167">
        <ele>0.0</ele>
        <time>2019-05-16T16:26:14.912Z</time>
      </trkpt>
      <trkpt lat="39.12246333" lon="-8.73134167">
        <ele>0.0</ele>
        <time>2019-05-16T16:26:15.932Z</time>
      </trkpt>
      <trkpt lat="39.12251667" lon="-8.731295">
        <ele>0.0</ele>
        <time>2019-05-16T16:26:16.912Z</time>
      </trkpt>
      <trkpt lat="39.12251667" lon="-8.731295">
        <ele>0.0</ele>
        <time>2019-05-16T16:26:17.914Z</time>
      </trkpt>
      <trkpt lat="39.12257" lon="-8.73125167">
        <ele>0.0</ele>
        <time>2019-05-16T16:26:18.911Z</time>
      </trkpt>
      <trkpt lat="39.12257" lon="-8.73125167">
        <ele>0.0</ele>
        <time>2019-05-16T16:26:19.923Z</time>
      </trkpt>
      <trkpt lat="39.12262333" lon="-8.731205">
        <ele>0.0</ele>
        <time>2019-05-16T16:26:20.951Z</time>
      </trkpt>
      <trkpt lat="39.12262333" lon="-8.731205">
        <ele>0.0</ele>
        <time>2019-05-16T16:26:21.905Z</time>
      </trkpt>
      <trkpt lat="39.12267833" lon="-8.73115667">
        <ele>0.0</ele>
        <time>2019-05-16T16:26:22.902Z</time>
      </trkpt>
      <trkpt lat="39.12267833" lon="-8.73115667">
        <ele>0.0</ele>
        <time>2019-05-16T16:26:23.903Z</time>
      </trkpt>
      <trkpt lat="39.12273167" lon="-8.73111167">
        <ele>0.0</ele>
        <time>2019-05-16T16:26:24.921Z</time>
      </trkpt>
      <trkpt lat="39.12273167" lon="-8.73111167">
        <ele>0.0</ele>
        <time>2019-05-16T16:26:25.908Z</time>
      </trkpt>
      <trkpt lat="39.12278667" lon="-8.73106667">
        <ele>0.0</ele>
        <time>2019-05-16T16:26:26.931Z</time>
      </trkpt>
      <trkpt lat="39.12278667" lon="-8.73106667">
        <ele>0.0</ele>
        <time>2019-05-16T16:26:27.913Z</time>
      </trkpt>
      <trkpt lat="39.12284167" lon="-8.73101833">
        <ele>0.0</ele>
        <time>2019-05-16T16:26:28.923Z</time>
      </trkpt>
      <trkpt lat="39.12284167" lon="-8.73101833">
        <ele>0.0</ele>
        <time>2019-05-16T16:26:29.916Z</time>
      </trkpt>
      <trkpt lat="39.1229" lon="-8.73097167">
        <ele>0.0</ele>
        <time>2019-05-16T16:26:30.908Z</time>
      </trkpt>
      <trkpt lat="39.1229" lon="-8.73097167">
        <ele>0.0</ele>
        <time>2019-05-16T16:26:31.906Z</time>
      </trkpt>
      <trkpt lat="39.12296167" lon="-8.73092333">
        <ele>0.0</ele>
        <time>2019-05-16T16:26:32.921Z</time>
      </trkpt>
      <trkpt lat="39.12296167" lon="-8.73092333">
        <ele>0.0</ele>
        <time>2019-05-16T16:26:33.903Z</time>
      </trkpt>
      <trkpt lat="39.123025" lon="-8.73087667">
        <ele>0.0</ele>
        <time>2019-05-16T16:26:34.927Z</time>
      </trkpt>
      <trkpt lat="39.123025" lon="-8.73087667">
        <ele>0.0</ele>
        <time>2019-05-16T16:26:35.922Z</time>
      </trkpt>
      <trkpt lat="39.12308167" lon="-8.73082667">
        <ele>0.0</ele>
        <time>2019-05-16T16:26:36.906Z</time>
      </trkpt>
      <trkpt lat="39.12308167" lon="-8.73082667">
        <ele>0.0</ele>
        <time>2019-05-16T16:26:37.923Z</time>
      </trkpt>
      <trkpt lat="39.12313667" lon="-8.73078">
        <ele>0.0</ele>
        <time>2019-05-16T16:26:38.902Z</time>
      </trkpt>
      <trkpt lat="39.12313667" lon="-8.73078">
        <ele>0.0</ele>
        <time>2019-05-16T16:26:39.902Z</time>
      </trkpt>
      <trkpt lat="39.12319" lon="-8.730735">
        <ele>0.0</ele>
        <time>2019-05-16T16:26:40.926Z</time>
      </trkpt>
      <trkpt lat="39.12319" lon="-8.730735">
        <ele>0.0</ele>
        <time>2019-05-16T16:26:41.912Z</time>
      </trkpt>
      <trkpt lat="39.12324333" lon="-8.730685">
        <ele>0.0</ele>
        <time>2019-05-16T16:26:42.902Z</time>
      </trkpt>
      <trkpt lat="39.12324333" lon="-8.730685">
        <ele>0.0</ele>
        <time>2019-05-16T16:26:43.928Z</time>
      </trkpt>
      <trkpt lat="39.1233" lon="-8.73062667">
        <ele>0.0</ele>
        <time>2019-05-16T16:26:44.901Z</time>
      </trkpt>
      <trkpt lat="39.1233" lon="-8.73062667">
        <ele>0.0</ele>
        <time>2019-05-16T16:26:45.902Z</time>
      </trkpt>
      <trkpt lat="39.12335667" lon="-8.73056833">
        <ele>0.0</ele>
        <time>2019-05-16T16:26:46.931Z</time>
      </trkpt>
      <trkpt lat="39.12335667" lon="-8.73056833">
        <ele>0.0</ele>
        <time>2019-05-16T16:26:47.910Z</time>
      </trkpt>
      <trkpt lat="39.12341167" lon="-8.73050833">
        <ele>0.0</ele>
        <time>2019-05-16T16:26:48.940Z</time>
      </trkpt>
      <trkpt lat="39.12341167" lon="-8.73050833">
        <ele>0.0</ele>
        <time>2019-05-16T16:26:49.924Z</time>
      </trkpt>
      <trkpt lat="39.12346333" lon="-8.73045167">
        <ele>-1.0</ele>
        <time>2019-05-16T16:26:50.919Z</time>
      </trkpt>
      <trkpt lat="39.12346333" lon="-8.73045167">
        <ele>-1.0</ele>
        <time>2019-05-16T16:26:51.908Z</time>
      </trkpt>
      <trkpt lat="39.123515" lon="-8.73039167">
        <ele>-1.0</ele>
        <time>2019-05-16T16:26:52.899Z</time>
      </trkpt>
      <trkpt lat="39.123515" lon="-8.73039167">
        <ele>-1.0</ele>
        <time>2019-05-16T16:26:53.929Z</time>
      </trkpt>
      <trkpt lat="39.12357" lon="-8.73033333">
        <ele>-1.0</ele>
        <time>2019-05-16T16:26:54.911Z</time>
      </trkpt>
      <trkpt lat="39.12357" lon="-8.73033333">
        <ele>-1.0</ele>
        <time>2019-05-16T16:26:55.926Z</time>
      </trkpt>
      <trkpt lat="39.12362167" lon="-8.73027333">
        <ele>-1.0</ele>
        <time>2019-05-16T16:26:56.900Z</time>
      </trkpt>
      <trkpt lat="39.12362167" lon="-8.73027333">
        <ele>-1.0</ele>
        <time>2019-05-16T16:26:57.926Z</time>
      </trkpt>
      <trkpt lat="39.12367833" lon="-8.73021667">
        <ele>-1.0</ele>
        <time>2019-05-16T16:26:58.911Z</time>
      </trkpt>
      <trkpt lat="39.12367833" lon="-8.73021667">
        <ele>-1.0</ele>
        <time>2019-05-16T16:26:59.903Z</time>
      </trkpt>
      <trkpt lat="39.12373" lon="-8.73015667">
        <ele>-1.0</ele>
        <time>2019-05-16T16:27:00.923Z</time>
      </trkpt>
      <trkpt lat="39.12373" lon="-8.73015667">
        <ele>-1.0</ele>
        <time>2019-05-16T16:27:01.932Z</time>
      </trkpt>
      <trkpt lat="39.12378333" lon="-8.73010167">
        <ele>-1.0</ele>
        <time>2019-05-16T16:27:02.916Z</time>
      </trkpt>
      <trkpt lat="39.12378333" lon="-8.73010167">
        <ele>-1.0</ele>
        <time>2019-05-16T16:27:03.912Z</time>
      </trkpt>
      <trkpt lat="39.12383667" lon="-8.73004333">
        <ele>-1.0</ele>
        <time>2019-05-16T16:27:04.934Z</time>
      </trkpt>
      <trkpt lat="39.12383667" lon="-8.73004333">
        <ele>-1.0</ele>
        <time>2019-05-16T16:27:05.897Z</time>
      </trkpt>
      <trkpt lat="39.12389333" lon="-8.729985">
        <ele>-1.0</ele>
        <time>2019-05-16T16:27:06.921Z</time>
      </trkpt>
      <trkpt lat="39.12392167" lon="-8.729955">
        <ele>-1.0</ele>
        <time>2019-05-16T16:27:07.919Z</time>
      </trkpt>
      <trkpt lat="39.12395" lon="-8.729925">
        <ele>-1.0</ele>
        <time>2019-05-16T16:27:08.915Z</time>
      </trkpt>
      <trkpt lat="39.12397667" lon="-8.729895">
        <ele>-1.0</ele>
        <time>2019-05-16T16:27:09.926Z</time>
      </trkpt>
      <trkpt lat="39.12397667" lon="-8.729895">
        <ele>-1.0</ele>
        <time>2019-05-16T16:27:10.932Z</time>
      </trkpt>
      <trkpt lat="39.12403333" lon="-8.72983">
        <ele>-1.0</ele>
        <time>2019-05-16T16:27:11.918Z</time>
      </trkpt>
      <trkpt lat="39.12403333" lon="-8.72983">
        <ele>-1.0</ele>
        <time>2019-05-16T16:27:12.907Z</time>
      </trkpt>
      <trkpt lat="39.12409" lon="-8.729765">
        <ele>-1.0</ele>
        <time>2019-05-16T16:27:13.908Z</time>
      </trkpt>
      <trkpt lat="39.12411833" lon="-8.72973167">
        <ele>-2.0</ele>
        <time>2019-05-16T16:27:14.908Z</time>
      </trkpt>
      <trkpt lat="39.12411833" lon="-8.72973167">
        <ele>-2.0</ele>
        <time>2019-05-16T16:27:15.914Z</time>
      </trkpt>
      <trkpt lat="39.12417167" lon="-8.729665">
        <ele>-2.0</ele>
        <time>2019-05-16T16:27:16.913Z</time>
      </trkpt>
      <trkpt lat="39.12417167" lon="-8.729665">
        <ele>-2.0</ele>
        <time>2019-05-16T16:27:17.931Z</time>
      </trkpt>
      <trkpt lat="39.12422833" lon="-8.729605">
        <ele>-2.0</ele>
        <time>2019-05-16T16:27:18.917Z</time>
      </trkpt>
      <trkpt lat="39.124255" lon="-8.72957167">
        <ele>-2.0</ele>
        <time>2019-05-16T16:27:19.921Z</time>
      </trkpt>
      <trkpt lat="39.12428167" lon="-8.72953833">
        <ele>-2.0</ele>
        <time>2019-05-16T16:27:20.912Z</time>
      </trkpt>
      <trkpt lat="39.12428167" lon="-8.72953833">
        <ele>-2.0</ele>
        <time>2019-05-16T16:27:21.903Z</time>
      </trkpt>
      <trkpt lat="39.12433333" lon="-8.729475">
        <ele>-2.0</ele>
        <time>2019-05-16T16:27:22.915Z</time>
      </trkpt>
      <trkpt lat="39.12433333" lon="-8.729475">
        <ele>-2.0</ele>
        <time>2019-05-16T16:27:23.931Z</time>
      </trkpt>
      <trkpt lat="39.12438833" lon="-8.72941167">
        <ele>-2.0</ele>
        <time>2019-05-16T16:27:24.921Z</time>
      </trkpt>
      <trkpt lat="39.12438833" lon="-8.72941167">
        <ele>-2.0</ele>
        <time>2019-05-16T16:27:25.926Z</time>
      </trkpt>
      <trkpt lat="39.12444167" lon="-8.72935167">
        <ele>-2.0</ele>
        <time>2019-05-16T16:27:26.902Z</time>
      </trkpt>
      <trkpt lat="39.12444167" lon="-8.72935167">
        <ele>-2.0</ele>
        <time>2019-05-16T16:27:27.922Z</time>
      </trkpt>
      <trkpt lat="39.124495" lon="-8.729295">
        <ele>-2.0</ele>
        <time>2019-05-16T16:27:28.909Z</time>
      </trkpt>
      <trkpt lat="39.124495" lon="-8.729295">
        <ele>-2.0</ele>
        <time>2019-05-16T16:27:29.923Z</time>
      </trkpt>
      <trkpt lat="39.12454833" lon="-8.72924333">
        <ele>-2.0</ele>
        <time>2019-05-16T16:27:30.909Z</time>
      </trkpt>
      <trkpt lat="39.12454833" lon="-8.72924333">
        <ele>-2.0</ele>
        <time>2019-05-16T16:27:31.911Z</time>
      </trkpt>
      <trkpt lat="39.124605" lon="-8.72919333">
        <ele>-2.0</ele>
        <time>2019-05-16T16:27:32.935Z</time>
      </trkpt>
      <trkpt lat="39.124605" lon="-8.72919333">
        <ele>-2.0</ele>
        <time>2019-05-16T16:27:33.914Z</time>
      </trkpt>
      <trkpt lat="39.124665" lon="-8.72914833">
        <ele>-2.0</ele>
        <time>2019-05-16T16:27:34.935Z</time>
      </trkpt>
      <trkpt lat="39.124665" lon="-8.72914833">
        <ele>-2.0</ele>
        <time>2019-05-16T16:27:35.913Z</time>
      </trkpt>
      <trkpt lat="39.12472667" lon="-8.7291">
        <ele>-2.0</ele>
        <time>2019-05-16T16:27:36.931Z</time>
      </trkpt>
      <trkpt lat="39.12472667" lon="-8.7291">
        <ele>-2.0</ele>
        <time>2019-05-16T16:27:37.900Z</time>
      </trkpt>
      <trkpt lat="39.124785" lon="-8.729055">
        <ele>-2.0</ele>
        <time>2019-05-16T16:27:38.919Z</time>
      </trkpt>
      <trkpt lat="39.124785" lon="-8.729055">
        <ele>-2.0</ele>
        <time>2019-05-16T16:27:39.902Z</time>
      </trkpt>
      <trkpt lat="39.124845" lon="-8.72901167">
        <ele>-2.0</ele>
        <time>2019-05-16T16:27:40.921Z</time>
      </trkpt>
      <trkpt lat="39.124845" lon="-8.72901167">
        <ele>-2.0</ele>
        <time>2019-05-16T16:27:41.911Z</time>
      </trkpt>
      <trkpt lat="39.12490833" lon="-8.72897333">
        <ele>-2.0</ele>
        <time>2019-05-16T16:27:42.931Z</time>
      </trkpt>
      <trkpt lat="39.12490833" lon="-8.72897333">
        <ele>-2.0</ele>
        <time>2019-05-16T16:27:43.915Z</time>
      </trkpt>
      <trkpt lat="39.12496833" lon="-8.72893167">
        <ele>-2.0</ele>
        <time>2019-05-16T16:27:44.933Z</time>
      </trkpt>
      <trkpt lat="39.12496833" lon="-8.72893167">
        <ele>-2.0</ele>
        <time>2019-05-16T16:27:45.902Z</time>
      </trkpt>
      <trkpt lat="39.125025" lon="-8.72889167">
        <ele>-2.0</ele>
        <time>2019-05-16T16:27:46.925Z</time>
      </trkpt>
      <trkpt lat="39.125025" lon="-8.72889167">
        <ele>-2.0</ele>
        <time>2019-05-16T16:27:47.902Z</time>
      </trkpt>
      <trkpt lat="39.12508667" lon="-8.72886">
        <ele>-2.0</ele>
        <time>2019-05-16T16:27:48.918Z</time>
      </trkpt>
      <trkpt lat="39.12512" lon="-8.728845">
        <ele>-2.0</ele>
        <time>2019-05-16T16:27:49.931Z</time>
      </trkpt>
      <trkpt lat="39.12512" lon="-8.728845">
        <ele>-2.0</ele>
        <time>2019-05-16T16:27:50.931Z</time>
      </trkpt>
      <trkpt lat="39.125185" lon="-8.72881167">
        <ele>-2.0</ele>
        <time>2019-05-16T16:27:51.903Z</time>
      </trkpt>
      <trkpt lat="39.12522" lon="-8.72879833">
        <ele>-2.0</ele>
        <time>2019-05-16T16:27:52.901Z</time>
      </trkpt>
      <trkpt lat="39.12522" lon="-8.72879833">
        <ele>-2.0</ele>
        <time>2019-05-16T16:27:53.898Z</time>
      </trkpt>
      <trkpt lat="39.12529" lon="-8.72877833">
        <ele>-1.0</ele>
        <time>2019-05-16T16:27:54.913Z</time>
      </trkpt>
      <trkpt lat="39.12529" lon="-8.72877833">
        <ele>-1.0</ele>
        <time>2019-05-16T16:27:55.905Z</time>
      </trkpt>
      <trkpt lat="39.12536333" lon="-8.72875333">
        <ele>-1.0</ele>
        <time>2019-05-16T16:27:56.897Z</time>
      </trkpt>
      <trkpt lat="39.12536333" lon="-8.72875333">
        <ele>-1.0</ele>
        <time>2019-05-16T16:27:57.905Z</time>
      </trkpt>
      <trkpt lat="39.125435" lon="-8.72873167">
        <ele>-1.0</ele>
        <time>2019-05-16T16:27:58.926Z</time>
      </trkpt>
      <trkpt lat="39.125435" lon="-8.72873167">
        <ele>-1.0</ele>
        <time>2019-05-16T16:27:59.923Z</time>
      </trkpt>
      <trkpt lat="39.12551" lon="-8.72872">
        <ele>-1.0</ele>
        <time>2019-05-16T16:28:00.901Z</time>
      </trkpt>
      <trkpt lat="39.12554667" lon="-8.72871667">
        <ele>-1.0</ele>
        <time>2019-05-16T16:28:01.929Z</time>
      </trkpt>
      <trkpt lat="39.12558333" lon="-8.72871">
        <ele>-1.0</ele>
        <time>2019-05-16T16:28:02.910Z</time>
      </trkpt>
      <trkpt lat="39.12558333" lon="-8.72871">
        <ele>-1.0</ele>
        <time>2019-05-16T16:28:03.928Z</time>
      </trkpt>
      <trkpt lat="39.12565667" lon="-8.728685">
        <ele>-1.0</ele>
        <time>2019-05-16T16:28:04.907Z</time>
      </trkpt>
      <trkpt lat="39.12565667" lon="-8.728685">
        <ele>-1.0</ele>
        <time>2019-05-16T16:28:05.935Z</time>
      </trkpt>
      <trkpt lat="39.12573" lon="-8.728665">
        <ele>-1.0</ele>
        <time>2019-05-16T16:28:06.898Z</time>
      </trkpt>
      <trkpt lat="39.12573" lon="-8.728665">
        <ele>-1.0</ele>
        <time>2019-05-16T16:28:07.923Z</time>
      </trkpt>
      <trkpt lat="39.12580333" lon="-8.72864167">
        <ele>-1.0</ele>
        <time>2019-05-16T16:28:08.910Z</time>
      </trkpt>
      <trkpt lat="39.12580333" lon="-8.72864167">
        <ele>-1.0</ele>
        <time>2019-05-16T16:28:09.932Z</time>
      </trkpt>
      <trkpt lat="39.12586667" lon="-8.72861167">
        <ele>0.0</ele>
        <time>2019-05-16T16:28:10.921Z</time>
      </trkpt>
      <trkpt lat="39.12586667" lon="-8.72861167">
        <ele>0.0</ele>
        <time>2019-05-16T16:28:11.919Z</time>
      </trkpt>
      <trkpt lat="39.12592667" lon="-8.72857833">
        <ele>-1.0</ele>
        <time>2019-05-16T16:28:12.900Z</time>
      </trkpt>
      <trkpt lat="39.12592667" lon="-8.72857833">
        <ele>-1.0</ele>
        <time>2019-05-16T16:28:13.902Z</time>
      </trkpt>
      <trkpt lat="39.12598333" lon="-8.72854667">
        <ele>-1.0</ele>
        <time>2019-05-16T16:28:14.927Z</time>
      </trkpt>
      <trkpt lat="39.12598333" lon="-8.72854667">
        <ele>-1.0</ele>
        <time>2019-05-16T16:28:15.933Z</time>
      </trkpt>
      <trkpt lat="39.12604" lon="-8.72851333">
        <ele>0.0</ele>
        <time>2019-05-16T16:28:16.912Z</time>
      </trkpt>
      <trkpt lat="39.12606667" lon="-8.72849833">
        <ele>0.0</ele>
        <time>2019-05-16T16:28:17.907Z</time>
      </trkpt>
      <trkpt lat="39.12606667" lon="-8.72849833">
        <ele>0.0</ele>
        <time>2019-05-16T16:28:18.914Z</time>
      </trkpt>
      <trkpt lat="39.12611833" lon="-8.72846667">
        <ele>0.0</ele>
        <time>2019-05-16T16:28:19.937Z</time>
      </trkpt>
      <trkpt lat="39.12614333" lon="-8.72845333">
        <ele>0.0</ele>
        <time>2019-05-16T16:28:21.020Z</time>
      </trkpt>
      <trkpt lat="39.12614333" lon="-8.72845333">
        <ele>0.0</ele>
        <time>2019-05-16T16:28:21.898Z</time>
      </trkpt>
      <trkpt lat="39.1262" lon="-8.72842667">
        <ele>0.0</ele>
        <time>2019-05-16T16:28:22.928Z</time>
      </trkpt>
      <trkpt lat="39.1262" lon="-8.72842667">
        <ele>0.0</ele>
        <time>2019-05-16T16:28:23.903Z</time>
      </trkpt>
      <trkpt lat="39.12625667" lon="-8.72839833">
        <ele>0.0</ele>
        <time>2019-05-16T16:28:24.926Z</time>
      </trkpt>
      <trkpt lat="39.12625667" lon="-8.72839833">
        <ele>0.0</ele>
        <time>2019-05-16T16:28:25.903Z</time>
      </trkpt>
      <trkpt lat="39.12631" lon="-8.72836833">
        <ele>0.0</ele>
        <time>2019-05-16T16:28:26.925Z</time>
      </trkpt>
      <trkpt lat="39.12631" lon="-8.72836833">
        <ele>0.0</ele>
        <time>2019-05-16T16:28:27.899Z</time>
      </trkpt>
      <trkpt lat="39.126365" lon="-8.72833667">
        <ele>0.0</ele>
        <time>2019-05-16T16:28:28.914Z</time>
      </trkpt>
      <trkpt lat="39.126365" lon="-8.72833667">
        <ele>0.0</ele>
        <time>2019-05-16T16:28:29.913Z</time>
      </trkpt>
      <trkpt lat="39.12641667" lon="-8.72830667">
        <ele>1.0</ele>
        <time>2019-05-16T16:28:30.908Z</time>
      </trkpt>
      <trkpt lat="39.12641667" lon="-8.72830667">
        <ele>1.0</ele>
        <time>2019-05-16T16:28:31.904Z</time>
      </trkpt>
      <trkpt lat="39.12646833" lon="-8.72827833">
        <ele>1.0</ele>
        <time>2019-05-16T16:28:32.908Z</time>
      </trkpt>
      <trkpt lat="39.12646833" lon="-8.72827833">
        <ele>1.0</ele>
        <time>2019-05-16T16:28:33.908Z</time>
      </trkpt>
      <trkpt lat="39.12651833" lon="-8.72824833">
        <ele>1.0</ele>
        <time>2019-05-16T16:28:34.927Z</time>
      </trkpt>
      <trkpt lat="39.12651833" lon="-8.72824833">
        <ele>1.0</ele>
        <time>2019-05-16T16:28:35.929Z</time>
      </trkpt>
      <trkpt lat="39.126565" lon="-8.72822167">
        <ele>1.0</ele>
        <time>2019-05-16T16:28:36.909Z</time>
      </trkpt>
      <trkpt lat="39.126565" lon="-8.72822167">
        <ele>1.0</ele>
        <time>2019-05-16T16:28:37.934Z</time>
      </trkpt>
      <trkpt lat="39.12661167" lon="-8.72819333">
        <ele>2.0</ele>
        <time>2019-05-16T16:28:38.913Z</time>
      </trkpt>
      <trkpt lat="39.12661167" lon="-8.72819333">
        <ele>2.0</ele>
        <time>2019-05-16T16:28:39.926Z</time>
      </trkpt>
      <trkpt lat="39.12666167" lon="-8.72816333">
        <ele>2.0</ele>
        <time>2019-05-16T16:28:40.899Z</time>
      </trkpt>
      <trkpt lat="39.12666167" lon="-8.72816333">
        <ele>2.0</ele>
        <time>2019-05-16T16:28:41.926Z</time>
      </trkpt>
      <trkpt lat="39.12671333" lon="-8.728135">
        <ele>2.0</ele>
        <time>2019-05-16T16:28:42.900Z</time>
      </trkpt>
      <trkpt lat="39.12673833" lon="-8.72812">
        <ele>2.0</ele>
        <time>2019-05-16T16:28:43.934Z</time>
      </trkpt>
      <trkpt lat="39.126765" lon="-8.72810833">
        <ele>2.0</ele>
        <time>2019-05-16T16:28:44.921Z</time>
      </trkpt>
      <trkpt lat="39.126765" lon="-8.72810833">
        <ele>2.0</ele>
        <time>2019-05-16T16:28:45.903Z</time>
      </trkpt>
      <trkpt lat="39.12682167" lon="-8.728085">
        <ele>2.0</ele>
        <time>2019-05-16T16:28:46.921Z</time>
      </trkpt>
      <trkpt lat="39.12682167" lon="-8.728085">
        <ele>2.0</ele>
        <time>2019-05-16T16:28:47.914Z</time>
      </trkpt>
      <trkpt lat="39.12688167" lon="-8.728055">
        <ele>2.0</ele>
        <time>2019-05-16T16:28:48.941Z</time>
      </trkpt>
      <trkpt lat="39.12691167" lon="-8.72804">
        <ele>2.0</ele>
        <time>2019-05-16T16:28:49.900Z</time>
      </trkpt>
      <trkpt lat="39.12694167" lon="-8.72802167">
        <ele>2.0</ele>
        <time>2019-05-16T16:28:50.921Z</time>
      </trkpt>
      <trkpt lat="39.12694167" lon="-8.72802167">
        <ele>2.0</ele>
        <time>2019-05-16T16:28:51.907Z</time>
      </trkpt>
      <trkpt lat="39.12700167" lon="-8.72798667">
        <ele>3.0</ele>
        <time>2019-05-16T16:28:52.901Z</time>
      </trkpt>
      <trkpt lat="39.12700167" lon="-8.72798667">
        <ele>3.0</ele>
        <time>2019-05-16T16:28:53.899Z</time>
      </trkpt>
      <trkpt lat="39.12706333" lon="-8.72795833">
        <ele>3.0</ele>
        <time>2019-05-16T16:28:54.922Z</time>
      </trkpt>
      <trkpt lat="39.12706333" lon="-8.72795833">
        <ele>3.0</ele>
        <time>2019-05-16T16:28:55.911Z</time>
      </trkpt>
      <trkpt lat="39.12712333" lon="-8.72792667">
        <ele>3.0</ele>
        <time>2019-05-16T16:28:56.934Z</time>
      </trkpt>
      <trkpt lat="39.12712333" lon="-8.72792667">
        <ele>3.0</ele>
        <time>2019-05-16T16:28:57.923Z</time>
      </trkpt>
      <trkpt lat="39.12718" lon="-8.72789333">
        <ele>3.0</ele>
        <time>2019-05-16T16:28:58.930Z</time>
      </trkpt>
      <trkpt lat="39.12718" lon="-8.72789333">
        <ele>3.0</ele>
        <time>2019-05-16T16:28:59.925Z</time>
      </trkpt>
      <trkpt lat="39.12723333" lon="-8.727865">
        <ele>3.0</ele>
        <time>2019-05-16T16:29:00.911Z</time>
      </trkpt>
      <trkpt lat="39.12725667" lon="-8.72784833">
        <ele>3.0</ele>
        <time>2019-05-16T16:29:01.941Z</time>
      </trkpt>
      <trkpt lat="39.12728333" lon="-8.72783167">
        <ele>3.0</ele>
        <time>2019-05-16T16:29:02.912Z</time>
      </trkpt>
      <trkpt lat="39.12728333" lon="-8.72783167">
        <ele>3.0</ele>
        <time>2019-05-16T16:29:03.903Z</time>
      </trkpt>
      <trkpt lat="39.12733" lon="-8.72779833">
        <ele>3.0</ele>
        <time>2019-05-16T16:29:04.920Z</time>
      </trkpt>
      <trkpt lat="39.12733" lon="-8.72779833">
        <ele>3.0</ele>
        <time>2019-05-16T16:29:05.898Z</time>
      </trkpt>
      <trkpt lat="39.127375" lon="-8.72776167">
        <ele>4.0</ele>
        <time>2019-05-16T16:29:06.925Z</time>
      </trkpt>
      <trkpt lat="39.127375" lon="-8.72776167">
        <ele>4.0</ele>
        <time>2019-05-16T16:29:07.898Z</time>
      </trkpt>
      <trkpt lat="39.127425" lon="-8.72773">
        <ele>4.0</ele>
        <time>2019-05-16T16:29:08.912Z</time>
      </trkpt>
      <trkpt lat="39.127425" lon="-8.72773">
        <ele>4.0</ele>
        <time>2019-05-16T16:29:09.902Z</time>
      </trkpt>
      <trkpt lat="39.12748" lon="-8.7277">
        <ele>4.0</ele>
        <time>2019-05-16T16:29:10.921Z</time>
      </trkpt>
      <trkpt lat="39.12748" lon="-8.7277">
        <ele>4.0</ele>
        <time>2019-05-16T16:29:11.933Z</time>
      </trkpt>
      <trkpt lat="39.127535" lon="-8.72766833">
        <ele>4.0</ele>
        <time>2019-05-16T16:29:12.922Z</time>
      </trkpt>
      <trkpt lat="39.127535" lon="-8.72766833">
        <ele>4.0</ele>
        <time>2019-05-16T16:29:13.903Z</time>
      </trkpt>
      <trkpt lat="39.12759" lon="-8.72764333">
        <ele>3.0</ele>
        <time>2019-05-16T16:29:14.917Z</time>
      </trkpt>
      <trkpt lat="39.12759" lon="-8.72764333">
        <ele>3.0</ele>
        <time>2019-05-16T16:29:15.913Z</time>
      </trkpt>
      <trkpt lat="39.12763833" lon="-8.72762333">
        <ele>4.0</ele>
        <time>2019-05-16T16:29:16.935Z</time>
      </trkpt>
      <trkpt lat="39.12763833" lon="-8.72762333">
        <ele>4.0</ele>
        <time>2019-05-16T16:29:17.898Z</time>
      </trkpt>
      <trkpt lat="39.127695" lon="-8.727615">
        <ele>3.0</ele>
        <time>2019-05-16T16:29:18.927Z</time>
      </trkpt>
      <trkpt lat="39.12772667" lon="-8.72761">
        <ele>3.0</ele>
        <time>2019-05-16T16:29:19.929Z</time>
      </trkpt>
      <trkpt lat="39.12772667" lon="-8.72761">
        <ele>3.0</ele>
        <time>2019-05-16T16:29:20.903Z</time>
      </trkpt>
      <trkpt lat="39.12779167" lon="-8.72760333">
        <ele>3.0</ele>
        <time>2019-05-16T16:29:21.906Z</time>
      </trkpt>
      <trkpt lat="39.12779167" lon="-8.72760333">
        <ele>3.0</ele>
        <time>2019-05-16T16:29:22.926Z</time>
      </trkpt>
      <trkpt lat="39.12785833" lon="-8.72759667">
        <ele>3.0</ele>
        <time>2019-05-16T16:29:23.917Z</time>
      </trkpt>
      <trkpt lat="39.12785833" lon="-8.72759667">
        <ele>3.0</ele>
        <time>2019-05-16T16:29:24.927Z</time>
      </trkpt>
      <trkpt lat="39.127925" lon="-8.72758833">
        <ele>3.0</ele>
        <time>2019-05-16T16:29:25.917Z</time>
      </trkpt>
      <trkpt lat="39.127925" lon="-8.72758833">
        <ele>3.0</ele>
        <time>2019-05-16T16:29:26.920Z</time>
      </trkpt>
      <trkpt lat="39.12799167" lon="-8.72758">
        <ele>3.0</ele>
        <time>2019-05-16T16:29:27.906Z</time>
      </trkpt>
      <trkpt lat="39.12799167" lon="-8.72758">
        <ele>3.0</ele>
        <time>2019-05-16T16:29:28.934Z</time>
      </trkpt>
      <trkpt lat="39.128055" lon="-8.72757333">
        <ele>3.0</ele>
        <time>2019-05-16T16:29:29.924Z</time>
      </trkpt>
      <trkpt lat="39.128055" lon="-8.72757333">
        <ele>3.0</ele>
        <time>2019-05-16T16:29:30.929Z</time>
      </trkpt>
      <trkpt lat="39.12811833" lon="-8.72756667">
        <ele>3.0</ele>
        <time>2019-05-16T16:29:31.909Z</time>
      </trkpt>
      <trkpt lat="39.12815167" lon="-8.72756167">
        <ele>3.0</ele>
        <time>2019-05-16T16:29:32.921Z</time>
      </trkpt>
      <trkpt lat="39.12815167" lon="-8.72756167">
        <ele>3.0</ele>
        <time>2019-05-16T16:29:33.913Z</time>
      </trkpt>
      <trkpt lat="39.12821667" lon="-8.72755833">
        <ele>3.0</ele>
        <time>2019-05-16T16:29:34.932Z</time>
      </trkpt>
      <trkpt lat="39.12821667" lon="-8.72755833">
        <ele>3.0</ele>
        <time>2019-05-16T16:29:35.910Z</time>
      </trkpt>
      <trkpt lat="39.12828167" lon="-8.72755333">
        <ele>3.0</ele>
        <time>2019-05-16T16:29:36.925Z</time>
      </trkpt>
      <trkpt lat="39.12828167" lon="-8.72755333">
        <ele>3.0</ele>
        <time>2019-05-16T16:29:37.897Z</time>
      </trkpt>
      <trkpt lat="39.128345" lon="-8.727545">
        <ele>3.0</ele>
        <time>2019-05-16T16:29:38.928Z</time>
      </trkpt>
      <trkpt lat="39.128345" lon="-8.727545">
        <ele>3.0</ele>
        <time>2019-05-16T16:29:39.914Z</time>
      </trkpt>
      <trkpt lat="39.12840333" lon="-8.72753667">
        <ele>3.0</ele>
        <time>2019-05-16T16:29:40.931Z</time>
      </trkpt>
      <trkpt lat="39.12840333" lon="-8.72753667">
        <ele>3.0</ele>
        <time>2019-05-16T16:29:41.918Z</time>
      </trkpt>
      <trkpt lat="39.128465" lon="-8.727525">
        <ele>3.0</ele>
        <time>2019-05-16T16:29:42.911Z</time>
      </trkpt>
      <trkpt lat="39.128465" lon="-8.727525">
        <ele>3.0</ele>
        <time>2019-05-16T16:29:43.920Z</time>
      </trkpt>
      <trkpt lat="39.12853167" lon="-8.72751">
        <ele>4.0</ele>
        <time>2019-05-16T16:29:44.913Z</time>
      </trkpt>
      <trkpt lat="39.12853167" lon="-8.72751">
        <ele>4.0</ele>
        <time>2019-05-16T16:29:45.911Z</time>
      </trkpt>
      <trkpt lat="39.12859667" lon="-8.727495">
        <ele>4.0</ele>
        <time>2019-05-16T16:29:46.932Z</time>
      </trkpt>
      <trkpt lat="39.12859667" lon="-8.727495">
        <ele>4.0</ele>
        <time>2019-05-16T16:29:47.926Z</time>
      </trkpt>
      <trkpt lat="39.12866333" lon="-8.72748">
        <ele>4.0</ele>
        <time>2019-05-16T16:29:48.903Z</time>
      </trkpt>
      <trkpt lat="39.12866333" lon="-8.72748">
        <ele>4.0</ele>
        <time>2019-05-16T16:29:49.927Z</time>
      </trkpt>
      <trkpt lat="39.12872833" lon="-8.72746333">
        <ele>4.0</ele>
        <time>2019-05-16T16:29:50.921Z</time>
      </trkpt>
      <trkpt lat="39.12872833" lon="-8.72746333">
        <ele>4.0</ele>
        <time>2019-05-16T16:29:51.914Z</time>
      </trkpt>
      <trkpt lat="39.12879333" lon="-8.72744833">
        <ele>5.0</ele>
        <time>2019-05-16T16:29:52.933Z</time>
      </trkpt>
      <trkpt lat="39.12879333" lon="-8.72744833">
        <ele>5.0</ele>
        <time>2019-05-16T16:29:53.926Z</time>
      </trkpt>
      <trkpt lat="39.12886" lon="-8.72743667">
        <ele>4.0</ele>
        <time>2019-05-16T16:29:54.906Z</time>
      </trkpt>
      <trkpt lat="39.12886" lon="-8.72743667">
        <ele>4.0</ele>
        <time>2019-05-16T16:29:55.900Z</time>
      </trkpt>
      <trkpt lat="39.12892667" lon="-8.727425">
        <ele>5.0</ele>
        <time>2019-05-16T16:29:56.922Z</time>
      </trkpt>
      <trkpt lat="39.12892667" lon="-8.727425">
        <ele>5.0</ele>
        <time>2019-05-16T16:29:57.911Z</time>
      </trkpt>
      <trkpt lat="39.12899" lon="-8.727415">
        <ele>5.0</ele>
        <time>2019-05-16T16:29:58.932Z</time>
      </trkpt>
      <trkpt lat="39.12902333" lon="-8.72741167">
        <ele>5.0</ele>
        <time>2019-05-16T16:29:59.918Z</time>
      </trkpt>
      <trkpt lat="39.12902333" lon="-8.72741167">
        <ele>5.0</ele>
        <time>2019-05-16T16:30:00.900Z</time>
      </trkpt>
      <trkpt lat="39.12909167" lon="-8.72739833">
        <ele>5.0</ele>
        <time>2019-05-16T16:30:01.933Z</time>
      </trkpt>
      <trkpt lat="39.129125" lon="-8.72739333">
        <ele>5.0</ele>
        <time>2019-05-16T16:30:02.933Z</time>
      </trkpt>
      <trkpt lat="39.129125" lon="-8.72739333">
        <ele>5.0</ele>
        <time>2019-05-16T16:30:03.916Z</time>
      </trkpt>
      <trkpt lat="39.12919" lon="-8.72737667">
        <ele>5.0</ele>
        <time>2019-05-16T16:30:04.901Z</time>
      </trkpt>
      <trkpt lat="39.12919" lon="-8.72737667">
        <ele>5.0</ele>
        <time>2019-05-16T16:30:05.903Z</time>
      </trkpt>
      <trkpt lat="39.12925833" lon="-8.72736167">
        <ele>5.0</ele>
        <time>2019-05-16T16:30:06.927Z</time>
      </trkpt>
      <trkpt lat="39.12925833" lon="-8.72736167">
        <ele>5.0</ele>
        <time>2019-05-16T16:30:07.912Z</time>
      </trkpt>
      <trkpt lat="39.12932667" lon="-8.72734833">
        <ele>5.0</ele>
        <time>2019-05-16T16:30:08.931Z</time>
      </trkpt>
      <trkpt lat="39.12932667" lon="-8.72734833">
        <ele>5.0</ele>
        <time>2019-05-16T16:30:09.914Z</time>
      </trkpt>
      <trkpt lat="39.12939333" lon="-8.72733667">
        <ele>6.0</ele>
        <time>2019-05-16T16:30:10.899Z</time>
      </trkpt>
      <trkpt lat="39.12939333" lon="-8.72733667">
        <ele>6.0</ele>
        <time>2019-05-16T16:30:11.908Z</time>
      </trkpt>
      <trkpt lat="39.12945667" lon="-8.727325">
        <ele>5.0</ele>
        <time>2019-05-16T16:30:12.932Z</time>
      </trkpt>
      <trkpt lat="39.12948667" lon="-8.72732167">
        <ele>5.0</ele>
        <time>2019-05-16T16:30:13.937Z</time>
      </trkpt>
      <trkpt lat="39.12952" lon="-8.72732">
        <ele>5.0</ele>
        <time>2019-05-16T16:30:14.932Z</time>
      </trkpt>
      <trkpt lat="39.12952" lon="-8.72732">
        <ele>5.0</ele>
        <time>2019-05-16T16:30:15.925Z</time>
      </trkpt>
      <trkpt lat="39.129585" lon="-8.72731167">
        <ele>5.0</ele>
        <time>2019-05-16T16:30:16.914Z</time>
      </trkpt>
      <trkpt lat="39.129585" lon="-8.72731167">
        <ele>5.0</ele>
        <time>2019-05-16T16:30:17.926Z</time>
      </trkpt>
      <trkpt lat="39.129645" lon="-8.72730333">
        <ele>5.0</ele>
        <time>2019-05-16T16:30:18.920Z</time>
      </trkpt>
      <trkpt lat="39.129645" lon="-8.72730333">
        <ele>5.0</ele>
        <time>2019-05-16T16:30:19.902Z</time>
      </trkpt>
      <trkpt lat="39.129705" lon="-8.72729667">
        <ele>5.0</ele>
        <time>2019-05-16T16:30:20.942Z</time>
      </trkpt>
      <trkpt lat="39.129705" lon="-8.72729667">
        <ele>5.0</ele>
        <time>2019-05-16T16:30:21.927Z</time>
      </trkpt>
      <trkpt lat="39.129765" lon="-8.72729">
        <ele>5.0</ele>
        <time>2019-05-16T16:30:22.902Z</time>
      </trkpt>
      <trkpt lat="39.129795" lon="-8.72729">
        <ele>5.0</ele>
        <time>2019-05-16T16:30:23.909Z</time>
      </trkpt>
      <trkpt lat="39.12982833" lon="-8.72728667">
        <ele>5.0</ele>
        <time>2019-05-16T16:30:24.921Z</time>
      </trkpt>
      <trkpt lat="39.12982833" lon="-8.72728667">
        <ele>5.0</ele>
        <time>2019-05-16T16:30:25.918Z</time>
      </trkpt>
      <trkpt lat="39.12989167" lon="-8.72727833">
        <ele>5.0</ele>
        <time>2019-05-16T16:30:26.939Z</time>
      </trkpt>
      <trkpt lat="39.12989167" lon="-8.72727833">
        <ele>5.0</ele>
        <time>2019-05-16T16:30:27.927Z</time>
      </trkpt>
      <trkpt lat="39.129955" lon="-8.727275">
        <ele>5.0</ele>
        <time>2019-05-16T16:30:28.918Z</time>
      </trkpt>
      <trkpt lat="39.129955" lon="-8.727275">
        <ele>5.0</ele>
        <time>2019-05-16T16:30:29.903Z</time>
      </trkpt>
      <trkpt lat="39.13001833" lon="-8.72727">
        <ele>5.0</ele>
        <time>2019-05-16T16:30:30.929Z</time>
      </trkpt>
      <trkpt lat="39.13001833" lon="-8.72727">
        <ele>5.0</ele>
        <time>2019-05-16T16:30:31.936Z</time>
      </trkpt>
      <trkpt lat="39.13007667" lon="-8.72726833">
        <ele>5.0</ele>
        <time>2019-05-16T16:30:32.911Z</time>
      </trkpt>
      <trkpt lat="39.13007667" lon="-8.72726833">
        <ele>5.0</ele>
        <time>2019-05-16T16:30:33.905Z</time>
      </trkpt>
      <trkpt lat="39.13013333" lon="-8.72726">
        <ele>5.0</ele>
        <time>2019-05-16T16:30:34.923Z</time>
      </trkpt>
      <trkpt lat="39.13013333" lon="-8.72726">
        <ele>5.0</ele>
        <time>2019-05-16T16:30:35.915Z</time>
      </trkpt>
      <trkpt lat="39.13019167" lon="-8.72725667">
        <ele>6.0</ele>
        <time>2019-05-16T16:30:36.915Z</time>
      </trkpt>
      <trkpt lat="39.13019167" lon="-8.72725667">
        <ele>6.0</ele>
        <time>2019-05-16T16:30:37.934Z</time>
      </trkpt>
      <trkpt lat="39.13025" lon="-8.72725333">
        <ele>6.0</ele>
        <time>2019-05-16T16:30:38.911Z</time>
      </trkpt>
      <trkpt lat="39.13025" lon="-8.72725333">
        <ele>6.0</ele>
        <time>2019-05-16T16:30:39.926Z</time>
      </trkpt>
      <trkpt lat="39.13031167" lon="-8.72724667">
        <ele>6.0</ele>
        <time>2019-05-16T16:30:40.906Z</time>
      </trkpt>
      <trkpt lat="39.13031167" lon="-8.72724667">
        <ele>6.0</ele>
        <time>2019-05-16T16:30:41.930Z</time>
      </trkpt>
      <trkpt lat="39.13037333" lon="-8.72724">
        <ele>6.0</ele>
        <time>2019-05-16T16:30:42.906Z</time>
      </trkpt>
      <trkpt lat="39.13040333" lon="-8.72723833">
        <ele>6.0</ele>
        <time>2019-05-16T16:30:43.931Z</time>
      </trkpt>
      <trkpt lat="39.13040333" lon="-8.72723833">
        <ele>6.0</ele>
        <time>2019-05-16T16:30:44.917Z</time>
      </trkpt>
      <trkpt lat="39.13046167" lon="-8.72723167">
        <ele>6.0</ele>
        <time>2019-05-16T16:30:45.931Z</time>
      </trkpt>
      <trkpt lat="39.13046167" lon="-8.72723167">
        <ele>6.0</ele>
        <time>2019-05-16T16:30:46.916Z</time>
      </trkpt>
      <trkpt lat="39.130525" lon="-8.72722833">
        <ele>6.0</ele>
        <time>2019-05-16T16:30:47.897Z</time>
      </trkpt>
      <trkpt lat="39.130525" lon="-8.72722833">
        <ele>6.0</ele>
        <time>2019-05-16T16:30:48.930Z</time>
      </trkpt>
      <trkpt lat="39.13058667" lon="-8.72723">
        <ele>5.0</ele>
        <time>2019-05-16T16:30:49.929Z</time>
      </trkpt>
      <trkpt lat="39.130615" lon="-8.72722833">
        <ele>5.0</ele>
        <time>2019-05-16T16:30:50.932Z</time>
      </trkpt>
      <trkpt lat="39.130615" lon="-8.72722833">
        <ele>5.0</ele>
        <time>2019-05-16T16:30:51.899Z</time>
      </trkpt>
      <trkpt lat="39.13067" lon="-8.72722">
        <ele>6.0</ele>
        <time>2019-05-16T16:30:52.929Z</time>
      </trkpt>
      <trkpt lat="39.13067" lon="-8.72722">
        <ele>6.0</ele>
        <time>2019-05-16T16:30:53.900Z</time>
      </trkpt>
      <trkpt lat="39.13072333" lon="-8.727225">
        <ele>6.0</ele>
        <time>2019-05-16T16:30:54.915Z</time>
      </trkpt>
      <trkpt lat="39.13072333" lon="-8.727225">
        <ele>6.0</ele>
        <time>2019-05-16T16:30:55.903Z</time>
      </trkpt>
      <trkpt lat="39.13077667" lon="-8.72723333">
        <ele>6.0</ele>
        <time>2019-05-16T16:30:56.923Z</time>
      </trkpt>
      <trkpt lat="39.13077667" lon="-8.72723333">
        <ele>6.0</ele>
        <time>2019-05-16T16:30:57.915Z</time>
      </trkpt>
      <trkpt lat="39.13083667" lon="-8.72723667">
        <ele>6.0</ele>
        <time>2019-05-16T16:30:58.903Z</time>
      </trkpt>
      <trkpt lat="39.13083667" lon="-8.72723667">
        <ele>6.0</ele>
        <time>2019-05-16T16:30:59.926Z</time>
      </trkpt>
      <trkpt lat="39.13090333" lon="-8.72724333">
        <ele>6.0</ele>
        <time>2019-05-16T16:31:00.916Z</time>
      </trkpt>
      <trkpt lat="39.13090333" lon="-8.72724333">
        <ele>6.0</ele>
        <time>2019-05-16T16:31:01.928Z</time>
      </trkpt>
      <trkpt lat="39.13097167" lon="-8.72724833">
        <ele>6.0</ele>
        <time>2019-05-16T16:31:02.910Z</time>
      </trkpt>
      <trkpt lat="39.131005" lon="-8.72724833">
        <ele>6.0</ele>
        <time>2019-05-16T16:31:03.904Z</time>
      </trkpt>
      <trkpt lat="39.131005" lon="-8.72724833">
        <ele>6.0</ele>
        <time>2019-05-16T16:31:04.924Z</time>
      </trkpt>
      <trkpt lat="39.13107333" lon="-8.72725333">
        <ele>6.0</ele>
        <time>2019-05-16T16:31:05.901Z</time>
      </trkpt>
      <trkpt lat="39.13110667" lon="-8.72725667">
        <ele>6.0</ele>
        <time>2019-05-16T16:31:06.901Z</time>
      </trkpt>
      <trkpt lat="39.13110667" lon="-8.72725667">
        <ele>6.0</ele>
        <time>2019-05-16T16:31:07.934Z</time>
      </trkpt>
      <trkpt lat="39.13117333" lon="-8.72726167">
        <ele>6.0</ele>
        <time>2019-05-16T16:31:08.910Z</time>
      </trkpt>
      <trkpt lat="39.13117333" lon="-8.72726167">
        <ele>6.0</ele>
        <time>2019-05-16T16:31:09.927Z</time>
      </trkpt>
      <trkpt lat="39.131235" lon="-8.72726833">
        <ele>6.0</ele>
        <time>2019-05-16T16:31:10.904Z</time>
      </trkpt>
      <trkpt lat="39.131235" lon="-8.72726833">
        <ele>6.0</ele>
        <time>2019-05-16T16:31:11.933Z</time>
      </trkpt>
      <trkpt lat="39.1313" lon="-8.72727667">
        <ele>6.0</ele>
        <time>2019-05-16T16:31:12.908Z</time>
      </trkpt>
      <trkpt lat="39.1313" lon="-8.72727667">
        <ele>6.0</ele>
        <time>2019-05-16T16:31:13.936Z</time>
      </trkpt>
      <trkpt lat="39.13136333" lon="-8.72728667">
        <ele>6.0</ele>
        <time>2019-05-16T16:31:14.914Z</time>
      </trkpt>
      <trkpt lat="39.13136333" lon="-8.72728667">
        <ele>6.0</ele>
        <time>2019-05-16T16:31:15.909Z</time>
      </trkpt>
      <trkpt lat="39.131425" lon="-8.7273">
        <ele>6.0</ele>
        <time>2019-05-16T16:31:16.926Z</time>
      </trkpt>
      <trkpt lat="39.131425" lon="-8.7273">
        <ele>6.0</ele>
        <time>2019-05-16T16:31:17.936Z</time>
      </trkpt>
      <trkpt lat="39.131485" lon="-8.72731">
        <ele>6.0</ele>
        <time>2019-05-16T16:31:18.915Z</time>
      </trkpt>
      <trkpt lat="39.131485" lon="-8.72731">
        <ele>6.0</ele>
        <time>2019-05-16T16:31:19.910Z</time>
      </trkpt>
      <trkpt lat="39.131545" lon="-8.72732833">
        <ele>6.0</ele>
        <time>2019-05-16T16:31:20.911Z</time>
      </trkpt>
      <trkpt lat="39.131545" lon="-8.72732833">
        <ele>6.0</ele>
        <time>2019-05-16T16:31:21.904Z</time>
      </trkpt>
      <trkpt lat="39.13160667" lon="-8.72734833">
        <ele>6.0</ele>
        <time>2019-05-16T16:31:22.922Z</time>
      </trkpt>
      <trkpt lat="39.13163667" lon="-8.727355">
        <ele>6.0</ele>
        <time>2019-05-16T16:31:23.921Z</time>
      </trkpt>
      <trkpt lat="39.13163667" lon="-8.727355">
        <ele>6.0</ele>
        <time>2019-05-16T16:31:24.927Z</time>
      </trkpt>
      <trkpt lat="39.1317" lon="-8.72737167">
        <ele>6.0</ele>
        <time>2019-05-16T16:31:25.906Z</time>
      </trkpt>
      <trkpt lat="39.13173167" lon="-8.72738">
        <ele>6.0</ele>
        <time>2019-05-16T16:31:26.909Z</time>
      </trkpt>
      <trkpt lat="39.13173167" lon="-8.72738">
        <ele>6.0</ele>
        <time>2019-05-16T16:31:27.908Z</time>
      </trkpt>
      <trkpt lat="39.13179333" lon="-8.72739667">
        <ele>6.0</ele>
        <time>2019-05-16T16:31:28.923Z</time>
      </trkpt>
      <trkpt lat="39.13179333" lon="-8.72739667">
        <ele>6.0</ele>
        <time>2019-05-16T16:31:29.933Z</time>
      </trkpt>
      <trkpt lat="39.13185667" lon="-8.72741667">
        <ele>6.0</ele>
        <time>2019-05-16T16:31:30.898Z</time>
      </trkpt>
      <trkpt lat="39.13185667" lon="-8.72741667">
        <ele>6.0</ele>
        <time>2019-05-16T16:31:31.909Z</time>
      </trkpt>
      <trkpt lat="39.13192" lon="-8.72743833">
        <ele>6.0</ele>
        <time>2019-05-16T16:31:32.925Z</time>
      </trkpt>
      <trkpt lat="39.13192" lon="-8.72743833">
        <ele>6.0</ele>
        <time>2019-05-16T16:31:33.931Z</time>
      </trkpt>
      <trkpt lat="39.13198167" lon="-8.72745667">
        <ele>6.0</ele>
        <time>2019-05-16T16:31:34.910Z</time>
      </trkpt>
      <trkpt lat="39.13198167" lon="-8.72745667">
        <ele>6.0</ele>
        <time>2019-05-16T16:31:35.904Z</time>
      </trkpt>
      <trkpt lat="39.132045" lon="-8.72747167">
        <ele>6.0</ele>
        <time>2019-05-16T16:31:36.925Z</time>
      </trkpt>
      <trkpt lat="39.132045" lon="-8.72747167">
        <ele>6.0</ele>
        <time>2019-05-16T16:31:37.932Z</time>
      </trkpt>
      <trkpt lat="39.132105" lon="-8.72748333">
        <ele>6.0</ele>
        <time>2019-05-16T16:31:38.909Z</time>
      </trkpt>
      <trkpt lat="39.132105" lon="-8.72748333">
        <ele>6.0</ele>
        <time>2019-05-16T16:31:39.927Z</time>
      </trkpt>
      <trkpt lat="39.13216" lon="-8.72749667">
        <ele>6.0</ele>
        <time>2019-05-16T16:31:40.911Z</time>
      </trkpt>
      <trkpt lat="39.13216" lon="-8.72749667">
        <ele>6.0</ele>
        <time>2019-05-16T16:31:41.900Z</time>
      </trkpt>
      <trkpt lat="39.13222167" lon="-8.727505">
        <ele>6.0</ele>
        <time>2019-05-16T16:31:42.920Z</time>
      </trkpt>
      <trkpt lat="39.13225167" lon="-8.72751">
        <ele>6.0</ele>
        <time>2019-05-16T16:31:43.937Z</time>
      </trkpt>
      <trkpt lat="39.13228167" lon="-8.727515">
        <ele>6.0</ele>
        <time>2019-05-16T16:31:44.926Z</time>
      </trkpt>
      <trkpt lat="39.13228167" lon="-8.727515">
        <ele>6.0</ele>
        <time>2019-05-16T16:31:45.900Z</time>
      </trkpt>
      <trkpt lat="39.13234167" lon="-8.72752667">
        <ele>6.0</ele>
        <time>2019-05-16T16:31:46.931Z</time>
      </trkpt>
      <trkpt lat="39.13234167" lon="-8.72752667">
        <ele>6.0</ele>
        <time>2019-05-16T16:31:47.928Z</time>
      </trkpt>
      <trkpt lat="39.1324" lon="-8.72754167">
        <ele>6.0</ele>
        <time>2019-05-16T16:31:48.905Z</time>
      </trkpt>
      <trkpt lat="39.1324" lon="-8.72754167">
        <ele>6.0</ele>
        <time>2019-05-16T16:31:49.928Z</time>
      </trkpt>
      <trkpt lat="39.13245833" lon="-8.72755333">
        <ele>6.0</ele>
        <time>2019-05-16T16:31:50.913Z</time>
      </trkpt>
      <trkpt lat="39.13245833" lon="-8.72755333">
        <ele>6.0</ele>
        <time>2019-05-16T16:31:51.933Z</time>
      </trkpt>
      <trkpt lat="39.132515" lon="-8.727565">
        <ele>6.0</ele>
        <time>2019-05-16T16:31:52.917Z</time>
      </trkpt>
      <trkpt lat="39.13254333" lon="-8.72757">
        <ele>5.0</ele>
        <time>2019-05-16T16:31:53.922Z</time>
      </trkpt>
      <trkpt lat="39.13254333" lon="-8.72757">
        <ele>5.0</ele>
        <time>2019-05-16T16:31:54.904Z</time>
      </trkpt>
      <trkpt lat="39.13259833" lon="-8.72758167">
        <ele>5.0</ele>
        <time>2019-05-16T16:31:55.903Z</time>
      </trkpt>
      <trkpt lat="39.132625" lon="-8.72758833">
        <ele>5.0</ele>
        <time>2019-05-16T16:31:56.926Z</time>
      </trkpt>
      <trkpt lat="39.132625" lon="-8.72758833">
        <ele>5.0</ele>
        <time>2019-05-16T16:31:57.931Z</time>
      </trkpt>
      <trkpt lat="39.13268167" lon="-8.72759667">
        <ele>5.0</ele>
        <time>2019-05-16T16:31:58.914Z</time>
      </trkpt>
      <trkpt lat="39.13268167" lon="-8.72759667">
        <ele>5.0</ele>
        <time>2019-05-16T16:31:59.919Z</time>
      </trkpt>
      <trkpt lat="39.13273833" lon="-8.72760667">
        <ele>5.0</ele>
        <time>2019-05-16T16:32:00.898Z</time>
      </trkpt>
      <trkpt lat="39.13273833" lon="-8.72760667">
        <ele>5.0</ele>
        <time>2019-05-16T16:32:01.926Z</time>
      </trkpt>
      <trkpt lat="39.132795" lon="-8.72761667">
        <ele>5.0</ele>
        <time>2019-05-16T16:32:02.913Z</time>
      </trkpt>
      <trkpt lat="39.132795" lon="-8.72761667">
        <ele>5.0</ele>
        <time>2019-05-16T16:32:03.927Z</time>
      </trkpt>
      <trkpt lat="39.13285333" lon="-8.72762667">
        <ele>5.0</ele>
        <time>2019-05-16T16:32:04.910Z</time>
      </trkpt>
      <trkpt lat="39.13285333" lon="-8.72762667">
        <ele>5.0</ele>
        <time>2019-05-16T16:32:05.897Z</time>
      </trkpt>
      <trkpt lat="39.13291167" lon="-8.72763667">
        <ele>5.0</ele>
        <time>2019-05-16T16:32:06.922Z</time>
      </trkpt>
      <trkpt lat="39.13294" lon="-8.72764167">
        <ele>5.0</ele>
        <time>2019-05-16T16:32:07.923Z</time>
      </trkpt>
      <trkpt lat="39.13294" lon="-8.72764167">
        <ele>5.0</ele>
        <time>2019-05-16T16:32:08.902Z</time>
      </trkpt>
      <trkpt lat="39.13300167" lon="-8.72765">
        <ele>5.0</ele>
        <time>2019-05-16T16:32:09.919Z</time>
      </trkpt>
      <trkpt lat="39.13300167" lon="-8.72765">
        <ele>5.0</ele>
        <time>2019-05-16T16:32:10.927Z</time>
      </trkpt>
      <trkpt lat="39.13306167" lon="-8.72766167">
        <ele>5.0</ele>
        <time>2019-05-16T16:32:11.901Z</time>
      </trkpt>
      <trkpt lat="39.13309" lon="-8.72766667">
        <ele>5.0</ele>
        <time>2019-05-16T16:32:12.902Z</time>
      </trkpt>
      <trkpt lat="39.13309" lon="-8.72766667">
        <ele>5.0</ele>
        <time>2019-05-16T16:32:13.936Z</time>
      </trkpt>
      <trkpt lat="39.13315" lon="-8.72767833">
        <ele>5.0</ele>
        <time>2019-05-16T16:32:14.920Z</time>
      </trkpt>
      <trkpt lat="39.13315" lon="-8.72767833">
        <ele>5.0</ele>
        <time>2019-05-16T16:32:15.903Z</time>
      </trkpt>
      <trkpt lat="39.133205" lon="-8.72768833">
        <ele>5.0</ele>
        <time>2019-05-16T16:32:16.920Z</time>
      </trkpt>
      <trkpt lat="39.133205" lon="-8.72768833">
        <ele>5.0</ele>
        <time>2019-05-16T16:32:17.925Z</time>
      </trkpt>
      <trkpt lat="39.13325667" lon="-8.72769333">
        <ele>5.0</ele>
        <time>2019-05-16T16:32:18.904Z</time>
      </trkpt>
      <trkpt lat="39.13325667" lon="-8.72769333">
        <ele>5.0</ele>
        <time>2019-05-16T16:32:19.934Z</time>
      </trkpt>
      <trkpt lat="39.13330833" lon="-8.72770333">
        <ele>4.0</ele>
        <time>2019-05-16T16:32:20.936Z</time>
      </trkpt>
      <trkpt lat="39.13330833" lon="-8.72770333">
        <ele>4.0</ele>
        <time>2019-05-16T16:32:21.912Z</time>
      </trkpt>
      <trkpt lat="39.13336" lon="-8.727715">
        <ele>4.0</ele>
        <time>2019-05-16T16:32:22.929Z</time>
      </trkpt>
      <trkpt lat="39.13336" lon="-8.727715">
        <ele>4.0</ele>
        <time>2019-05-16T16:32:23.903Z</time>
      </trkpt>
      <trkpt lat="39.13341333" lon="-8.72772167">
        <ele>4.0</ele>
        <time>2019-05-16T16:32:24.918Z</time>
      </trkpt>
      <trkpt lat="39.13341333" lon="-8.72772167">
        <ele>4.0</ele>
        <time>2019-05-16T16:32:25.903Z</time>
      </trkpt>
      <trkpt lat="39.133465" lon="-8.72773333">
        <ele>4.0</ele>
        <time>2019-05-16T16:32:26.925Z</time>
      </trkpt>
      <trkpt lat="39.133465" lon="-8.72773333">
        <ele>4.0</ele>
        <time>2019-05-16T16:32:27.897Z</time>
      </trkpt>
      <trkpt lat="39.13351667" lon="-8.72774333">
        <ele>4.0</ele>
        <time>2019-05-16T16:32:28.918Z</time>
      </trkpt>
      <trkpt lat="39.13351667" lon="-8.72774333">
        <ele>4.0</ele>
        <time>2019-05-16T16:32:29.921Z</time>
      </trkpt>
      <trkpt lat="39.13356833" lon="-8.727755">
        <ele>4.0</ele>
        <time>2019-05-16T16:32:30.904Z</time>
      </trkpt>
      <trkpt lat="39.13356833" lon="-8.727755">
        <ele>4.0</ele>
        <time>2019-05-16T16:32:31.933Z</time>
      </trkpt>
      <trkpt lat="39.13361833" lon="-8.72777">
        <ele>4.0</ele>
        <time>2019-05-16T16:32:32.911Z</time>
      </trkpt>
      <trkpt lat="39.13361833" lon="-8.72777">
        <ele>4.0</ele>
        <time>2019-05-16T16:32:33.929Z</time>
      </trkpt>
      <trkpt lat="39.13366833" lon="-8.72778667">
        <ele>4.0</ele>
        <time>2019-05-16T16:32:34.907Z</time>
      </trkpt>
      <trkpt lat="39.13366833" lon="-8.72778667">
        <ele>4.0</ele>
        <time>2019-05-16T16:32:35.910Z</time>
      </trkpt>
      <trkpt lat="39.13371833" lon="-8.7278">
        <ele>4.0</ele>
        <time>2019-05-16T16:32:36.927Z</time>
      </trkpt>
      <trkpt lat="39.13371833" lon="-8.7278">
        <ele>4.0</ele>
        <time>2019-05-16T16:32:37.907Z</time>
      </trkpt>
      <trkpt lat="39.13377167" lon="-8.72781667">
        <ele>4.0</ele>
        <time>2019-05-16T16:32:38.921Z</time>
      </trkpt>
      <trkpt lat="39.13377167" lon="-8.72781667">
        <ele>4.0</ele>
        <time>2019-05-16T16:32:39.913Z</time>
      </trkpt>
      <trkpt lat="39.133825" lon="-8.727835">
        <ele>4.0</ele>
        <time>2019-05-16T16:32:40.924Z</time>
      </trkpt>
      <trkpt lat="39.13385333" lon="-8.72784667">
        <ele>4.0</ele>
        <time>2019-05-16T16:32:41.913Z</time>
      </trkpt>
      <trkpt lat="39.13385333" lon="-8.72784667">
        <ele>4.0</ele>
        <time>2019-05-16T16:32:42.914Z</time>
      </trkpt>
      <trkpt lat="39.13390833" lon="-8.72786667">
        <ele>4.0</ele>
        <time>2019-05-16T16:32:43.913Z</time>
      </trkpt>
      <trkpt lat="39.13393333" lon="-8.72787667">
        <ele>4.0</ele>
        <time>2019-05-16T16:32:44.939Z</time>
      </trkpt>
      <trkpt lat="39.13393333" lon="-8.72787667">
        <ele>4.0</ele>
        <time>2019-05-16T16:32:45.917Z</time>
      </trkpt>
      <trkpt lat="39.13398667" lon="-8.72789833">
        <ele>3.0</ele>
        <time>2019-05-16T16:32:46.901Z</time>
      </trkpt>
      <trkpt lat="39.13401333" lon="-8.72791333">
        <ele>3.0</ele>
        <time>2019-05-16T16:32:47.927Z</time>
      </trkpt>
      <trkpt lat="39.13401333" lon="-8.72791333">
        <ele>3.0</ele>
        <time>2019-05-16T16:32:48.908Z</time>
      </trkpt>
      <trkpt lat="39.13406667" lon="-8.72794">
        <ele>3.0</ele>
        <time>2019-05-16T16:32:49.931Z</time>
      </trkpt>
      <trkpt lat="39.13409167" lon="-8.727955">
        <ele>3.0</ele>
        <time>2019-05-16T16:32:50.932Z</time>
      </trkpt>
      <trkpt lat="39.13409167" lon="-8.727955">
        <ele>3.0</ele>
        <time>2019-05-16T16:32:51.903Z</time>
      </trkpt>
      <trkpt lat="39.13414333" lon="-8.72798667">
        <ele>3.0</ele>
        <time>2019-05-16T16:32:52.928Z</time>
      </trkpt>
      <trkpt lat="39.13414333" lon="-8.72798667">
        <ele>3.0</ele>
        <time>2019-05-16T16:32:53.912Z</time>
      </trkpt>
      <trkpt lat="39.134195" lon="-8.72802">
        <ele>3.0</ele>
        <time>2019-05-16T16:32:54.923Z</time>
      </trkpt>
      <trkpt lat="39.13422" lon="-8.72803667">
        <ele>3.0</ele>
        <time>2019-05-16T16:32:55.927Z</time>
      </trkpt>
      <trkpt lat="39.13422" lon="-8.72803667">
        <ele>3.0</ele>
        <time>2019-05-16T16:32:56.913Z</time>
      </trkpt>
      <trkpt lat="39.13427167" lon="-8.728065">
        <ele>2.0</ele>
        <time>2019-05-16T16:32:57.932Z</time>
      </trkpt>
      <trkpt lat="39.13427167" lon="-8.728065">
        <ele>2.0</ele>
        <time>2019-05-16T16:32:58.900Z</time>
      </trkpt>
      <trkpt lat="39.13431833" lon="-8.72809667">
        <ele>2.0</ele>
        <time>2019-05-16T16:32:59.924Z</time>
      </trkpt>
      <trkpt lat="39.13431833" lon="-8.72809667">
        <ele>2.0</ele>
        <time>2019-05-16T16:33:00.932Z</time>
      </trkpt>
      <trkpt lat="39.13436667" lon="-8.728125">
        <ele>2.0</ele>
        <time>2019-05-16T16:33:01.912Z</time>
      </trkpt>
      <trkpt lat="39.13438833" lon="-8.72813667">
        <ele>2.0</ele>
        <time>2019-05-16T16:33:02.908Z</time>
      </trkpt>
      <trkpt lat="39.13438833" lon="-8.72813667">
        <ele>2.0</ele>
        <time>2019-05-16T16:33:03.916Z</time>
      </trkpt>
      <trkpt lat="39.13443333" lon="-8.72816167">
        <ele>3.0</ele>
        <time>2019-05-16T16:33:04.900Z</time>
      </trkpt>
      <trkpt lat="39.13445667" lon="-8.72817667">
        <ele>3.0</ele>
        <time>2019-05-16T16:33:05.904Z</time>
      </trkpt>
      <trkpt lat="39.13445667" lon="-8.72817667">
        <ele>3.0</ele>
        <time>2019-05-16T16:33:06.897Z</time>
      </trkpt>
      <trkpt lat="39.13451" lon="-8.7282">
        <ele>3.0</ele>
        <time>2019-05-16T16:33:07.919Z</time>
      </trkpt>
      <trkpt lat="39.13451" lon="-8.7282">
        <ele>3.0</ele>
        <time>2019-05-16T16:33:08.909Z</time>
      </trkpt>
      <trkpt lat="39.13453667" lon="-8.728215">
        <ele>2.0</ele>
        <time>2019-05-16T16:33:09.929Z</time>
      </trkpt>
      <trkpt lat="39.13459167" lon="-8.72824667">
        <ele>2.0</ele>
        <time>2019-05-16T16:33:10.908Z</time>
      </trkpt>
      <trkpt lat="39.13459167" lon="-8.72824667">
        <ele>2.0</ele>
        <time>2019-05-16T16:33:11.898Z</time>
      </trkpt>
      <trkpt lat="39.13464833" lon="-8.72827833">
        <ele>2.0</ele>
        <time>2019-05-16T16:33:12.931Z</time>
      </trkpt>
      <trkpt lat="39.13464833" lon="-8.72827833">
        <ele>2.0</ele>
        <time>2019-05-16T16:33:13.916Z</time>
      </trkpt>
      <trkpt lat="39.13470667" lon="-8.72831">
        <ele>2.0</ele>
        <time>2019-05-16T16:33:14.935Z</time>
      </trkpt>
      <trkpt lat="39.13470667" lon="-8.72831">
        <ele>2.0</ele>
        <time>2019-05-16T16:33:15.899Z</time>
      </trkpt>
      <trkpt lat="39.13476333" lon="-8.72834">
        <ele>2.0</ele>
        <time>2019-05-16T16:33:16.910Z</time>
      </trkpt>
      <trkpt lat="39.13476333" lon="-8.72834">
        <ele>2.0</ele>
        <time>2019-05-16T16:33:17.901Z</time>
      </trkpt>
      <trkpt lat="39.134815" lon="-8.72837167">
        <ele>2.0</ele>
        <time>2019-05-16T16:33:18.941Z</time>
      </trkpt>
      <trkpt lat="39.134815" lon="-8.72837167">
        <ele>2.0</ele>
        <time>2019-05-16T16:33:19.929Z</time>
      </trkpt>
      <trkpt lat="39.13486333" lon="-8.728395">
        <ele>2.0</ele>
        <time>2019-05-16T16:33:20.939Z</time>
      </trkpt>
      <trkpt lat="39.13486333" lon="-8.728395">
        <ele>2.0</ele>
        <time>2019-05-16T16:33:21.936Z</time>
      </trkpt>
      <trkpt lat="39.13491" lon="-8.72841333">
        <ele>2.0</ele>
        <time>2019-05-16T16:33:22.917Z</time>
      </trkpt>
      <trkpt lat="39.13491" lon="-8.72841333">
        <ele>2.0</ele>
        <time>2019-05-16T16:33:23.898Z</time>
      </trkpt>
      <trkpt lat="39.13495833" lon="-8.72844">
        <ele>2.0</ele>
        <time>2019-05-16T16:33:24.915Z</time>
      </trkpt>
      <trkpt lat="39.13495833" lon="-8.72844">
        <ele>2.0</ele>
        <time>2019-05-16T16:33:25.926Z</time>
      </trkpt>
      <trkpt lat="39.13501" lon="-8.728465">
        <ele>2.0</ele>
        <time>2019-05-16T16:33:26.907Z</time>
      </trkpt>
      <trkpt lat="39.13501" lon="-8.728465">
        <ele>2.0</ele>
        <time>2019-05-16T16:33:27.932Z</time>
      </trkpt>
      <trkpt lat="39.13506167" lon="-8.72849667">
        <ele>2.0</ele>
        <time>2019-05-16T16:33:28.908Z</time>
      </trkpt>
      <trkpt lat="39.13506167" lon="-8.72849667">
        <ele>2.0</ele>
        <time>2019-05-16T16:33:29.933Z</time>
      </trkpt>
      <trkpt lat="39.135115" lon="-8.72852167">
        <ele>2.0</ele>
        <time>2019-05-16T16:33:30.908Z</time>
      </trkpt>
      <trkpt lat="39.135115" lon="-8.72852167">
        <ele>2.0</ele>
        <time>2019-05-16T16:33:31.934Z</time>
      </trkpt>
      <trkpt lat="39.13516667" lon="-8.728545">
        <ele>2.0</ele>
        <time>2019-05-16T16:33:32.909Z</time>
      </trkpt>
      <trkpt lat="39.13516667" lon="-8.728545">
        <ele>2.0</ele>
        <time>2019-05-16T16:33:33.912Z</time>
      </trkpt>
      <trkpt lat="39.13522167" lon="-8.72857167">
        <ele>2.0</ele>
        <time>2019-05-16T16:33:34.898Z</time>
      </trkpt>
      <trkpt lat="39.13522167" lon="-8.72857167">
        <ele>2.0</ele>
        <time>2019-05-16T16:33:35.929Z</time>
      </trkpt>
      <trkpt lat="39.13527667" lon="-8.728595">
        <ele>2.0</ele>
        <time>2019-05-16T16:33:36.912Z</time>
      </trkpt>
      <trkpt lat="39.13530167" lon="-8.72860667">
        <ele>2.0</ele>
        <time>2019-05-16T16:33:37.902Z</time>
      </trkpt>
      <trkpt lat="39.13530167" lon="-8.72860667">
        <ele>2.0</ele>
        <time>2019-05-16T16:33:38.918Z</time>
      </trkpt>
      <trkpt lat="39.13535667" lon="-8.72863167">
        <ele>2.0</ele>
        <time>2019-05-16T16:33:39.922Z</time>
      </trkpt>
      <trkpt lat="39.13535667" lon="-8.72863167">
        <ele>2.0</ele>
        <time>2019-05-16T16:33:40.898Z</time>
      </trkpt>
      <trkpt lat="39.13541167" lon="-8.72865833">
        <ele>2.0</ele>
        <time>2019-05-16T16:33:41.921Z</time>
      </trkpt>
      <trkpt lat="39.13541167" lon="-8.72865833">
        <ele>2.0</ele>
        <time>2019-05-16T16:33:42.914Z</time>
      </trkpt>
      <trkpt lat="39.13546667" lon="-8.72868167">
        <ele>2.0</ele>
        <time>2019-05-16T16:33:43.932Z</time>
      </trkpt>
      <trkpt lat="39.135495" lon="-8.72869333">
        <ele>2.0</ele>
        <time>2019-05-16T16:33:44.899Z</time>
      </trkpt>
      <trkpt lat="39.135495" lon="-8.72869333">
        <ele>2.0</ele>
        <time>2019-05-16T16:33:45.906Z</time>
      </trkpt>
      <trkpt lat="39.13554667" lon="-8.72871167">
        <ele>2.0</ele>
        <time>2019-05-16T16:33:46.940Z</time>
      </trkpt>
      <trkpt lat="39.13554667" lon="-8.72871167">
        <ele>2.0</ele>
        <time>2019-05-16T16:33:47.934Z</time>
      </trkpt>
      <trkpt lat="39.13559667" lon="-8.72873">
        <ele>2.0</ele>
        <time>2019-05-16T16:33:48.932Z</time>
      </trkpt>
      <trkpt lat="39.13559667" lon="-8.72873">
        <ele>2.0</ele>
        <time>2019-05-16T16:33:49.903Z</time>
      </trkpt>
      <trkpt lat="39.13564833" lon="-8.72875667">
        <ele>1.0</ele>
        <time>2019-05-16T16:33:50.901Z</time>
      </trkpt>
      <trkpt lat="39.13564833" lon="-8.72875667">
        <ele>1.0</ele>
        <time>2019-05-16T16:33:51.914Z</time>
      </trkpt>
      <trkpt lat="39.13570333" lon="-8.72877333">
        <ele>1.0</ele>
        <time>2019-05-16T16:33:52.941Z</time>
      </trkpt>
      <trkpt lat="39.13570333" lon="-8.72877333">
        <ele>1.0</ele>
        <time>2019-05-16T16:33:53.936Z</time>
      </trkpt>
      <trkpt lat="39.13575667" lon="-8.728795">
        <ele>1.0</ele>
        <time>2019-05-16T16:33:54.928Z</time>
      </trkpt>
      <trkpt lat="39.13575667" lon="-8.728795">
        <ele>1.0</ele>
        <time>2019-05-16T16:33:55.913Z</time>
      </trkpt>
      <trkpt lat="39.13581" lon="-8.72881333">
        <ele>1.0</ele>
        <time>2019-05-16T16:33:56.935Z</time>
      </trkpt>
      <trkpt lat="39.13581" lon="-8.72881333">
        <ele>1.0</ele>
        <time>2019-05-16T16:33:57.903Z</time>
      </trkpt>
      <trkpt lat="39.13586333" lon="-8.72883167">
        <ele>1.0</ele>
        <time>2019-05-16T16:33:58.926Z</time>
      </trkpt>
      <trkpt lat="39.13589" lon="-8.72884167">
        <ele>1.0</ele>
        <time>2019-05-16T16:33:59.925Z</time>
      </trkpt>
      <trkpt lat="39.13589" lon="-8.72884167">
        <ele>1.0</ele>
        <time>2019-05-16T16:34:00.927Z</time>
      </trkpt>
      <trkpt lat="39.135945" lon="-8.72886167">
        <ele>1.0</ele>
        <time>2019-05-16T16:34:01.907Z</time>
      </trkpt>
      <trkpt lat="39.135945" lon="-8.72886167">
        <ele>1.0</ele>
        <time>2019-05-16T16:34:02.914Z</time>
      </trkpt>
      <trkpt lat="39.136" lon="-8.72888333">
        <ele>1.0</ele>
        <time>2019-05-16T16:34:03.906Z</time>
      </trkpt>
      <trkpt lat="39.136" lon="-8.72888333">
        <ele>1.0</ele>
        <time>2019-05-16T16:34:04.910Z</time>
      </trkpt>
      <trkpt lat="39.13605333" lon="-8.7289">
        <ele>1.0</ele>
        <time>2019-05-16T16:34:05.915Z</time>
      </trkpt>
      <trkpt lat="39.13605333" lon="-8.7289">
        <ele>1.0</ele>
        <time>2019-05-16T16:34:06.932Z</time>
      </trkpt>
      <trkpt lat="39.136105" lon="-8.728915">
        <ele>1.0</ele>
        <time>2019-05-16T16:34:07.926Z</time>
      </trkpt>
      <trkpt lat="39.13613" lon="-8.72892333">
        <ele>1.0</ele>
        <time>2019-05-16T16:34:08.922Z</time>
      </trkpt>
      <trkpt lat="39.13613" lon="-8.72892333">
        <ele>1.0</ele>
        <time>2019-05-16T16:34:09.929Z</time>
      </trkpt>
      <trkpt lat="39.136185" lon="-8.72893833">
        <ele>1.0</ele>
        <time>2019-05-16T16:34:10.930Z</time>
      </trkpt>
      <trkpt lat="39.136185" lon="-8.72893833">
        <ele>1.0</ele>
        <time>2019-05-16T16:34:11.912Z</time>
      </trkpt>
      <trkpt lat="39.13623833" lon="-8.728955">
        <ele>1.0</ele>
        <time>2019-05-16T16:34:12.929Z</time>
      </trkpt>
      <trkpt lat="39.13626667" lon="-8.72896">
        <ele>1.0</ele>
        <time>2019-05-16T16:34:13.918Z</time>
      </trkpt>
      <trkpt lat="39.13626667" lon="-8.72896">
        <ele>1.0</ele>
        <time>2019-05-16T16:34:14.935Z</time>
      </trkpt>
      <trkpt lat="39.13631667" lon="-8.72897333">
        <ele>1.0</ele>
        <time>2019-05-16T16:34:15.926Z</time>
      </trkpt>
      <trkpt lat="39.13631667" lon="-8.72897333">
        <ele>1.0</ele>
        <time>2019-05-16T16:34:16.902Z</time>
      </trkpt>
      <trkpt lat="39.13636667" lon="-8.72898167">
        <ele>1.0</ele>
        <time>2019-05-16T16:34:17.978Z</time>
      </trkpt>
      <trkpt lat="39.13636667" lon="-8.72898167">
        <ele>1.0</ele>
        <time>2019-05-16T16:34:18.903Z</time>
      </trkpt>
      <trkpt lat="39.136415" lon="-8.72898833">
        <ele>2.0</ele>
        <time>2019-05-16T16:34:19.920Z</time>
      </trkpt>
      <trkpt lat="39.13643833" lon="-8.72899333">
        <ele>2.0</ele>
        <time>2019-05-16T16:34:20.922Z</time>
      </trkpt>
      <trkpt lat="39.13643833" lon="-8.72899333">
        <ele>2.0</ele>
        <time>2019-05-16T16:34:21.919Z</time>
      </trkpt>
      <trkpt lat="39.13649333" lon="-8.72898667">
        <ele>2.0</ele>
        <time>2019-05-16T16:34:22.912Z</time>
      </trkpt>
      <trkpt lat="39.13649333" lon="-8.72898667">
        <ele>2.0</ele>
        <time>2019-05-16T16:34:23.913Z</time>
      </trkpt>
      <trkpt lat="39.13655167" lon="-8.72898167">
        <ele>2.0</ele>
        <time>2019-05-16T16:34:24.933Z</time>
      </trkpt>
      <trkpt lat="39.13655167" lon="-8.72898167">
        <ele>2.0</ele>
        <time>2019-05-16T16:34:25.903Z</time>
      </trkpt>
      <trkpt lat="39.136605" lon="-8.72898">
        <ele>2.0</ele>
        <time>2019-05-16T16:34:26.925Z</time>
      </trkpt>
      <trkpt lat="39.136605" lon="-8.72898">
        <ele>2.0</ele>
        <time>2019-05-16T16:34:27.932Z</time>
      </trkpt>
      <trkpt lat="39.136655" lon="-8.72897833">
        <ele>2.0</ele>
        <time>2019-05-16T16:34:28.912Z</time>
      </trkpt>
      <trkpt lat="39.136655" lon="-8.72897833">
        <ele>2.0</ele>
        <time>2019-05-16T16:34:29.901Z</time>
      </trkpt>
      <trkpt lat="39.136705" lon="-8.72897">
        <ele>2.0</ele>
        <time>2019-05-16T16:34:30.942Z</time>
      </trkpt>
      <trkpt lat="39.136705" lon="-8.72897">
        <ele>2.0</ele>
        <time>2019-05-16T16:34:31.927Z</time>
      </trkpt>
      <trkpt lat="39.13675667" lon="-8.72895833">
        <ele>2.0</ele>
        <time>2019-05-16T16:34:32.902Z</time>
      </trkpt>
      <trkpt lat="39.13675667" lon="-8.72895833">
        <ele>2.0</ele>
        <time>2019-05-16T16:34:33.917Z</time>
      </trkpt>
      <trkpt lat="39.13681167" lon="-8.72895">
        <ele>2.0</ele>
        <time>2019-05-16T16:34:34.907Z</time>
      </trkpt>
      <trkpt lat="39.13681167" lon="-8.72895">
        <ele>2.0</ele>
        <time>2019-05-16T16:34:35.924Z</time>
      </trkpt>
      <trkpt lat="39.13687" lon="-8.72894">
        <ele>2.0</ele>
        <time>2019-05-16T16:34:36.898Z</time>
      </trkpt>
      <trkpt lat="39.13687" lon="-8.72894">
        <ele>2.0</ele>
        <time>2019-05-16T16:34:37.916Z</time>
      </trkpt>
      <trkpt lat="39.13693" lon="-8.72892833">
        <ele>2.0</ele>
        <time>2019-05-16T16:34:38.935Z</time>
      </trkpt>
      <trkpt lat="39.13693" lon="-8.72892833">
        <ele>2.0</ele>
        <time>2019-05-16T16:34:39.916Z</time>
      </trkpt>
      <trkpt lat="39.13699" lon="-8.72891667">
        <ele>2.0</ele>
        <time>2019-05-16T16:34:40.922Z</time>
      </trkpt>
      <trkpt lat="39.13702" lon="-8.72891">
        <ele>2.0</ele>
        <time>2019-05-16T16:34:41.918Z</time>
      </trkpt>
      <trkpt lat="39.13702" lon="-8.72891">
        <ele>2.0</ele>
        <time>2019-05-16T16:34:42.933Z</time>
      </trkpt>
      <trkpt lat="39.13707667" lon="-8.72889667">
        <ele>3.0</ele>
        <time>2019-05-16T16:34:43.914Z</time>
      </trkpt>
      <trkpt lat="39.13707667" lon="-8.72889667">
        <ele>3.0</ele>
        <time>2019-05-16T16:34:44.917Z</time>
      </trkpt>
      <trkpt lat="39.13713167" lon="-8.72888667">
        <ele>3.0</ele>
        <time>2019-05-16T16:34:45.903Z</time>
      </trkpt>
      <trkpt lat="39.13713167" lon="-8.72888667">
        <ele>3.0</ele>
        <time>2019-05-16T16:34:46.907Z</time>
      </trkpt>
      <trkpt lat="39.13718667" lon="-8.72887667">
        <ele>3.0</ele>
        <time>2019-05-16T16:34:47.933Z</time>
      </trkpt>
      <trkpt lat="39.13718667" lon="-8.72887667">
        <ele>3.0</ele>
        <time>2019-05-16T16:34:48.907Z</time>
      </trkpt>
      <trkpt lat="39.13724167" lon="-8.72886667">
        <ele>3.0</ele>
        <time>2019-05-16T16:34:49.931Z</time>
      </trkpt>
      <trkpt lat="39.13726833" lon="-8.72886333">
        <ele>3.0</ele>
        <time>2019-05-16T16:34:50.930Z</time>
      </trkpt>
      <trkpt lat="39.13726833" lon="-8.72886333">
        <ele>3.0</ele>
        <time>2019-05-16T16:34:51.898Z</time>
      </trkpt>
      <trkpt lat="39.137325" lon="-8.72885667">
        <ele>3.0</ele>
        <time>2019-05-16T16:34:52.918Z</time>
      </trkpt>
      <trkpt lat="39.137325" lon="-8.72885667">
        <ele>3.0</ele>
        <time>2019-05-16T16:34:53.924Z</time>
      </trkpt>
      <trkpt lat="39.13738333" lon="-8.72884">
        <ele>3.0</ele>
        <time>2019-05-16T16:34:54.910Z</time>
      </trkpt>
      <trkpt lat="39.13738333" lon="-8.72884">
        <ele>3.0</ele>
        <time>2019-05-16T16:34:55.933Z</time>
      </trkpt>
      <trkpt lat="39.13744333" lon="-8.728825">
        <ele>3.0</ele>
        <time>2019-05-16T16:34:56.919Z</time>
      </trkpt>
      <trkpt lat="39.13744333" lon="-8.728825">
        <ele>3.0</ele>
        <time>2019-05-16T16:34:57.907Z</time>
      </trkpt>
      <trkpt lat="39.13750667" lon="-8.72880833">
        <ele>3.0</ele>
        <time>2019-05-16T16:34:58.936Z</time>
      </trkpt>
      <trkpt lat="39.13750667" lon="-8.72880833">
        <ele>3.0</ele>
        <time>2019-05-16T16:34:59.899Z</time>
      </trkpt>
      <trkpt lat="39.13757333" lon="-8.72879333">
        <ele>3.0</ele>
        <time>2019-05-16T16:35:00.919Z</time>
      </trkpt>
      <trkpt lat="39.13757333" lon="-8.72879333">
        <ele>3.0</ele>
        <time>2019-05-16T16:35:01.933Z</time>
      </trkpt>
      <trkpt lat="39.137635" lon="-8.72877833">
        <ele>3.0</ele>
        <time>2019-05-16T16:35:02.904Z</time>
      </trkpt>
      <trkpt lat="39.137635" lon="-8.72877833">
        <ele>3.0</ele>
        <time>2019-05-16T16:35:03.925Z</time>
      </trkpt>
      <trkpt lat="39.13769667" lon="-8.72876333">
        <ele>3.0</ele>
        <time>2019-05-16T16:35:04.907Z</time>
      </trkpt>
      <trkpt lat="39.13769667" lon="-8.72876333">
        <ele>3.0</ele>
        <time>2019-05-16T16:35:05.933Z</time>
      </trkpt>
      <trkpt lat="39.13775667" lon="-8.72875">
        <ele>3.0</ele>
        <time>2019-05-16T16:35:06.905Z</time>
      </trkpt>
      <trkpt lat="39.13775667" lon="-8.72875">
        <ele>3.0</ele>
        <time>2019-05-16T16:35:07.903Z</time>
      </trkpt>
      <trkpt lat="39.13781833" lon="-8.72873">
        <ele>4.0</ele>
        <time>2019-05-16T16:35:08.929Z</time>
      </trkpt>
      <trkpt lat="39.13781833" lon="-8.72873">
        <ele>4.0</ele>
        <time>2019-05-16T16:35:09.902Z</time>
      </trkpt>
      <trkpt lat="39.13788167" lon="-8.72871">
        <ele>4.0</ele>
        <time>2019-05-16T16:35:10.937Z</time>
      </trkpt>
      <trkpt lat="39.13788167" lon="-8.72871">
        <ele>4.0</ele>
        <time>2019-05-16T16:35:11.917Z</time>
      </trkpt>
      <trkpt lat="39.13794" lon="-8.72869">
        <ele>4.0</ele>
        <time>2019-05-16T16:35:12.908Z</time>
      </trkpt>
      <trkpt lat="39.13794" lon="-8.72869">
        <ele>4.0</ele>
        <time>2019-05-16T16:35:13.913Z</time>
      </trkpt>
      <trkpt lat="39.138" lon="-8.72867333">
        <ele>4.0</ele>
        <time>2019-05-16T16:35:14.911Z</time>
      </trkpt>
      <trkpt lat="39.138" lon="-8.72867333">
        <ele>4.0</ele>
        <time>2019-05-16T16:35:15.902Z</time>
      </trkpt>
      <trkpt lat="39.13806167" lon="-8.72865167">
        <ele>4.0</ele>
        <time>2019-05-16T16:35:16.925Z</time>
      </trkpt>
      <trkpt lat="39.13806167" lon="-8.72865167">
        <ele>4.0</ele>
        <time>2019-05-16T16:35:17.903Z</time>
      </trkpt>
      <trkpt lat="39.13812333" lon="-8.72863333">
        <ele>4.0</ele>
        <time>2019-05-16T16:35:18.926Z</time>
      </trkpt>
      <trkpt lat="39.13812333" lon="-8.72863333">
        <ele>4.0</ele>
        <time>2019-05-16T16:35:19.933Z</time>
      </trkpt>
      <trkpt lat="39.13818333" lon="-8.72861667">
        <ele>4.0</ele>
        <time>2019-05-16T16:35:20.915Z</time>
      </trkpt>
      <trkpt lat="39.13818333" lon="-8.72861667">
        <ele>4.0</ele>
        <time>2019-05-16T16:35:21.911Z</time>
      </trkpt>
      <trkpt lat="39.13824" lon="-8.72859667">
        <ele>4.0</ele>
        <time>2019-05-16T16:35:22.923Z</time>
      </trkpt>
      <trkpt lat="39.13824" lon="-8.72859667">
        <ele>4.0</ele>
        <time>2019-05-16T16:35:23.902Z</time>
      </trkpt>
      <trkpt lat="39.13829833" lon="-8.72858167">
        <ele>4.0</ele>
        <time>2019-05-16T16:35:24.919Z</time>
      </trkpt>
      <trkpt lat="39.13829833" lon="-8.72858167">
        <ele>4.0</ele>
        <time>2019-05-16T16:35:25.903Z</time>
      </trkpt>
      <trkpt lat="39.13835667" lon="-8.72856333">
        <ele>4.0</ele>
        <time>2019-05-16T16:35:26.897Z</time>
      </trkpt>
      <trkpt lat="39.13835667" lon="-8.72856333">
        <ele>4.0</ele>
        <time>2019-05-16T16:35:27.927Z</time>
      </trkpt>
      <trkpt lat="39.13841667" lon="-8.72854667">
        <ele>4.0</ele>
        <time>2019-05-16T16:35:28.916Z</time>
      </trkpt>
      <trkpt lat="39.13841667" lon="-8.72854667">
        <ele>4.0</ele>
        <time>2019-05-16T16:35:29.924Z</time>
      </trkpt>
      <trkpt lat="39.138475" lon="-8.72853167">
        <ele>4.0</ele>
        <time>2019-05-16T16:35:30.915Z</time>
      </trkpt>
      <trkpt lat="39.138475" lon="-8.72853167">
        <ele>4.0</ele>
        <time>2019-05-16T16:35:31.912Z</time>
      </trkpt>
      <trkpt lat="39.13853" lon="-8.72851333">
        <ele>4.0</ele>
        <time>2019-05-16T16:35:32.937Z</time>
      </trkpt>
      <trkpt lat="39.13853" lon="-8.72851333">
        <ele>4.0</ele>
        <time>2019-05-16T16:35:33.903Z</time>
      </trkpt>
      <trkpt lat="39.13858667" lon="-8.728495">
        <ele>4.0</ele>
        <time>2019-05-16T16:35:34.922Z</time>
      </trkpt>
      <trkpt lat="39.13858667" lon="-8.728495">
        <ele>4.0</ele>
        <time>2019-05-16T16:35:35.899Z</time>
      </trkpt>
      <trkpt lat="39.13864667" lon="-8.72848333">
        <ele>4.0</ele>
        <time>2019-05-16T16:35:36.924Z</time>
      </trkpt>
      <trkpt lat="39.13864667" lon="-8.72848333">
        <ele>4.0</ele>
        <time>2019-05-16T16:35:37.913Z</time>
      </trkpt>
      <trkpt lat="39.138705" lon="-8.72846667">
        <ele>4.0</ele>
        <time>2019-05-16T16:35:38.941Z</time>
      </trkpt>
      <trkpt lat="39.138705" lon="-8.72846667">
        <ele>4.0</ele>
        <time>2019-05-16T16:35:39.899Z</time>
      </trkpt>
      <trkpt lat="39.13876333" lon="-8.728455">
        <ele>3.0</ele>
        <time>2019-05-16T16:35:40.920Z</time>
      </trkpt>
      <trkpt lat="39.13876333" lon="-8.728455">
        <ele>3.0</ele>
        <time>2019-05-16T16:35:41.932Z</time>
      </trkpt>
      <trkpt lat="39.13882167" lon="-8.72844167">
        <ele>3.0</ele>
        <time>2019-05-16T16:35:42.925Z</time>
      </trkpt>
      <trkpt lat="39.13882167" lon="-8.72844167">
        <ele>3.0</ele>
        <time>2019-05-16T16:35:43.903Z</time>
      </trkpt>
      <trkpt lat="39.13888" lon="-8.72843167">
        <ele>3.0</ele>
        <time>2019-05-16T16:35:44.919Z</time>
      </trkpt>
      <trkpt lat="39.13888" lon="-8.72843167">
        <ele>3.0</ele>
        <time>2019-05-16T16:35:45.928Z</time>
      </trkpt>
      <trkpt lat="39.13893833" lon="-8.72842167">
        <ele>3.0</ele>
        <time>2019-05-16T16:35:46.911Z</time>
      </trkpt>
      <trkpt lat="39.13893833" lon="-8.72842167">
        <ele>3.0</ele>
        <time>2019-05-16T16:35:47.902Z</time>
      </trkpt>
      <trkpt lat="39.13899333" lon="-8.72841167">
        <ele>3.0</ele>
        <time>2019-05-16T16:35:48.921Z</time>
      </trkpt>
      <trkpt lat="39.13899333" lon="-8.72841167">
        <ele>3.0</ele>
        <time>2019-05-16T16:35:49.928Z</time>
      </trkpt>
      <trkpt lat="39.13904833" lon="-8.72840667">
        <ele>3.0</ele>
        <time>2019-05-16T16:35:50.920Z</time>
      </trkpt>
      <trkpt lat="39.13904833" lon="-8.72840667">
        <ele>3.0</ele>
        <time>2019-05-16T16:35:51.915Z</time>
      </trkpt>
      <trkpt lat="39.13910167" lon="-8.7284">
        <ele>3.0</ele>
        <time>2019-05-16T16:35:52.932Z</time>
      </trkpt>
      <trkpt lat="39.13910167" lon="-8.7284">
        <ele>3.0</ele>
        <time>2019-05-16T16:35:53.905Z</time>
      </trkpt>
      <trkpt lat="39.13915667" lon="-8.72839333">
        <ele>3.0</ele>
        <time>2019-05-16T16:35:54.903Z</time>
      </trkpt>
      <trkpt lat="39.13915667" lon="-8.72839333">
        <ele>3.0</ele>
        <time>2019-05-16T16:35:55.898Z</time>
      </trkpt>
      <trkpt lat="39.13920833" lon="-8.728385">
        <ele>3.0</ele>
        <time>2019-05-16T16:35:56.910Z</time>
      </trkpt>
      <trkpt lat="39.13920833" lon="-8.728385">
        <ele>3.0</ele>
        <time>2019-05-16T16:35:57.903Z</time>
      </trkpt>
      <trkpt lat="39.13926333" lon="-8.728375">
        <ele>3.0</ele>
        <time>2019-05-16T16:35:58.925Z</time>
      </trkpt>
      <trkpt lat="39.13926333" lon="-8.728375">
        <ele>3.0</ele>
        <time>2019-05-16T16:35:59.918Z</time>
      </trkpt>
      <trkpt lat="39.13931833" lon="-8.72836833">
        <ele>3.0</ele>
        <time>2019-05-16T16:36:00.899Z</time>
      </trkpt>
      <trkpt lat="39.13931833" lon="-8.72836833">
        <ele>3.0</ele>
        <time>2019-05-16T16:36:01.918Z</time>
      </trkpt>
      <trkpt lat="39.13937333" lon="-8.72836333">
        <ele>3.0</ele>
        <time>2019-05-16T16:36:02.911Z</time>
      </trkpt>
      <trkpt lat="39.13937333" lon="-8.72836333">
        <ele>3.0</ele>
        <time>2019-05-16T16:36:03.913Z</time>
      </trkpt>
      <trkpt lat="39.13942667" lon="-8.72835167">
        <ele>3.0</ele>
        <time>2019-05-16T16:36:04.933Z</time>
      </trkpt>
      <trkpt lat="39.13942667" lon="-8.72835167">
        <ele>3.0</ele>
        <time>2019-05-16T16:36:05.915Z</time>
      </trkpt>
      <trkpt lat="39.13947833" lon="-8.72834167">
        <ele>3.0</ele>
        <time>2019-05-16T16:36:06.938Z</time>
      </trkpt>
      <trkpt lat="39.13947833" lon="-8.72834167">
        <ele>3.0</ele>
        <time>2019-05-16T16:36:07.926Z</time>
      </trkpt>
      <trkpt lat="39.13952833" lon="-8.72832833">
        <ele>3.0</ele>
        <time>2019-05-16T16:36:08.906Z</time>
      </trkpt>
      <trkpt lat="39.13952833" lon="-8.72832833">
        <ele>3.0</ele>
        <time>2019-05-16T16:36:09.900Z</time>
      </trkpt>
      <trkpt lat="39.13958167" lon="-8.72832333">
        <ele>3.0</ele>
        <time>2019-05-16T16:36:10.922Z</time>
      </trkpt>
      <trkpt lat="39.13958167" lon="-8.72832333">
        <ele>3.0</ele>
        <time>2019-05-16T16:36:11.911Z</time>
      </trkpt>
      <trkpt lat="39.13963333" lon="-8.72831">
        <ele>3.0</ele>
        <time>2019-05-16T16:36:12.932Z</time>
      </trkpt>
      <trkpt lat="39.13963333" lon="-8.72831">
        <ele>3.0</ele>
        <time>2019-05-16T16:36:13.911Z</time>
      </trkpt>
      <trkpt lat="39.13968333" lon="-8.7283">
        <ele>3.0</ele>
        <time>2019-05-16T16:36:14.931Z</time>
      </trkpt>
      <trkpt lat="39.13968333" lon="-8.7283">
        <ele>3.0</ele>
        <time>2019-05-16T16:36:15.924Z</time>
      </trkpt>
      <trkpt lat="39.13973333" lon="-8.72828833">
        <ele>3.0</ele>
        <time>2019-05-16T16:36:16.918Z</time>
      </trkpt>
      <trkpt lat="39.13973333" lon="-8.72828833">
        <ele>3.0</ele>
        <time>2019-05-16T16:36:17.920Z</time>
      </trkpt>
      <trkpt lat="39.13978333" lon="-8.72827167">
        <ele>3.0</ele>
        <time>2019-05-16T16:36:18.899Z</time>
      </trkpt>
      <trkpt lat="39.13978333" lon="-8.72827167">
        <ele>3.0</ele>
        <time>2019-05-16T16:36:19.934Z</time>
      </trkpt>
      <trkpt lat="39.13983667" lon="-8.728255">
        <ele>3.0</ele>
        <time>2019-05-16T16:36:20.993Z</time>
      </trkpt>
      <trkpt lat="39.13983667" lon="-8.728255">
        <ele>3.0</ele>
        <time>2019-05-16T16:36:21.933Z</time>
      </trkpt>
      <trkpt lat="39.13989" lon="-8.72823333">
        <ele>3.0</ele>
        <time>2019-05-16T16:36:22.916Z</time>
      </trkpt>
      <trkpt lat="39.13989" lon="-8.72823333">
        <ele>3.0</ele>
        <time>2019-05-16T16:36:23.903Z</time>
      </trkpt>
      <trkpt lat="39.13994" lon="-8.72820667">
        <ele>3.0</ele>
        <time>2019-05-16T16:36:24.932Z</time>
      </trkpt>
      <trkpt lat="39.13994" lon="-8.72820667">
        <ele>3.0</ele>
        <time>2019-05-16T16:36:25.903Z</time>
      </trkpt>
      <trkpt lat="39.13998833" lon="-8.72818">
        <ele>3.0</ele>
        <time>2019-05-16T16:36:26.927Z</time>
      </trkpt>
      <trkpt lat="39.13998833" lon="-8.72818">
        <ele>3.0</ele>
        <time>2019-05-16T16:36:27.905Z</time>
      </trkpt>
      <trkpt lat="39.14003667" lon="-8.72814833">
        <ele>3.0</ele>
        <time>2019-05-16T16:36:28.899Z</time>
      </trkpt>
      <trkpt lat="39.14003667" lon="-8.72814833">
        <ele>3.0</ele>
        <time>2019-05-16T16:36:29.909Z</time>
      </trkpt>
      <trkpt lat="39.14008833" lon="-8.72811167">
        <ele>3.0</ele>
        <time>2019-05-16T16:36:30.921Z</time>
      </trkpt>
      <trkpt lat="39.14008833" lon="-8.72811167">
        <ele>3.0</ele>
        <time>2019-05-16T16:36:31.928Z</time>
      </trkpt>
      <trkpt lat="39.14014167" lon="-8.728075">
        <ele>3.0</ele>
        <time>2019-05-16T16:36:32.902Z</time>
      </trkpt>
      <trkpt lat="39.14014167" lon="-8.728075">
        <ele>3.0</ele>
        <time>2019-05-16T16:36:33.903Z</time>
      </trkpt>
      <trkpt lat="39.1402" lon="-8.72803667">
        <ele>4.0</ele>
        <time>2019-05-16T16:36:34.925Z</time>
      </trkpt>
      <trkpt lat="39.1402" lon="-8.72803667">
        <ele>4.0</ele>
        <time>2019-05-16T16:36:35.900Z</time>
      </trkpt>
      <trkpt lat="39.14025667" lon="-8.72799833">
        <ele>4.0</ele>
        <time>2019-05-16T16:36:36.928Z</time>
      </trkpt>
      <trkpt lat="39.14025667" lon="-8.72799833">
        <ele>4.0</ele>
        <time>2019-05-16T16:36:37.930Z</time>
      </trkpt>
      <trkpt lat="39.14030833" lon="-8.72796">
        <ele>4.0</ele>
        <time>2019-05-16T16:36:38.941Z</time>
      </trkpt>
      <trkpt lat="39.14030833" lon="-8.72796">
        <ele>4.0</ele>
        <time>2019-05-16T16:36:39.912Z</time>
      </trkpt>
      <trkpt lat="39.140355" lon="-8.72792167">
        <ele>4.0</ele>
        <time>2019-05-16T16:36:40.931Z</time>
      </trkpt>
      <trkpt lat="39.140355" lon="-8.72792167">
        <ele>4.0</ele>
        <time>2019-05-16T16:36:41.913Z</time>
      </trkpt>
      <trkpt lat="39.140405" lon="-8.72789">
        <ele>4.0</ele>
        <time>2019-05-16T16:36:42.927Z</time>
      </trkpt>
      <trkpt lat="39.140405" lon="-8.72789">
        <ele>4.0</ele>
        <time>2019-05-16T16:36:43.924Z</time>
      </trkpt>
      <trkpt lat="39.14045667" lon="-8.72785667">
        <ele>4.0</ele>
        <time>2019-05-16T16:36:44.901Z</time>
      </trkpt>
      <trkpt lat="39.14045667" lon="-8.72785667">
        <ele>4.0</ele>
        <time>2019-05-16T16:36:45.933Z</time>
      </trkpt>
      <trkpt lat="39.14051" lon="-8.727825">
        <ele>5.0</ele>
        <time>2019-05-16T16:36:46.907Z</time>
      </trkpt>
      <trkpt lat="39.14051" lon="-8.727825">
        <ele>5.0</ele>
        <time>2019-05-16T16:36:47.936Z</time>
      </trkpt>
      <trkpt lat="39.140565" lon="-8.72778833">
        <ele>4.0</ele>
        <time>2019-05-16T16:36:48.920Z</time>
      </trkpt>
      <trkpt lat="39.140565" lon="-8.72778833">
        <ele>4.0</ele>
        <time>2019-05-16T16:36:49.903Z</time>
      </trkpt>
      <trkpt lat="39.14061833" lon="-8.72775333">
        <ele>4.0</ele>
        <time>2019-05-16T16:36:50.934Z</time>
      </trkpt>
      <trkpt lat="39.14061833" lon="-8.72775333">
        <ele>4.0</ele>
        <time>2019-05-16T16:36:51.912Z</time>
      </trkpt>
      <trkpt lat="39.14067" lon="-8.72772">
        <ele>4.0</ele>
        <time>2019-05-16T16:36:52.938Z</time>
      </trkpt>
      <trkpt lat="39.14067" lon="-8.72772">
        <ele>4.0</ele>
        <time>2019-05-16T16:36:53.898Z</time>
      </trkpt>
      <trkpt lat="39.14072" lon="-8.727685">
        <ele>5.0</ele>
        <time>2019-05-16T16:36:54.928Z</time>
      </trkpt>
      <trkpt lat="39.14072" lon="-8.727685">
        <ele>5.0</ele>
        <time>2019-05-16T16:36:55.920Z</time>
      </trkpt>
      <trkpt lat="39.14076833" lon="-8.72765333">
        <ele>5.0</ele>
        <time>2019-05-16T16:36:56.911Z</time>
      </trkpt>
      <trkpt lat="39.14076833" lon="-8.72765333">
        <ele>5.0</ele>
        <time>2019-05-16T16:36:57.899Z</time>
      </trkpt>
      <trkpt lat="39.140815" lon="-8.72762333">
        <ele>5.0</ele>
        <time>2019-05-16T16:36:58.917Z</time>
      </trkpt>
      <trkpt lat="39.140815" lon="-8.72762333">
        <ele>5.0</ele>
        <time>2019-05-16T16:36:59.928Z</time>
      </trkpt>
      <trkpt lat="39.14086167" lon="-8.72758667">
        <ele>5.0</ele>
        <time>2019-05-16T16:37:00.901Z</time>
      </trkpt>
      <trkpt lat="39.14086167" lon="-8.72758667">
        <ele>5.0</ele>
        <time>2019-05-16T16:37:01.936Z</time>
      </trkpt>
      <trkpt lat="39.14089833" lon="-8.72755">
        <ele>5.0</ele>
        <time>2019-05-16T16:37:02.921Z</time>
      </trkpt>
      <trkpt lat="39.14089833" lon="-8.72755">
        <ele>5.0</ele>
        <time>2019-05-16T16:37:03.903Z</time>
      </trkpt>
      <trkpt lat="39.14093333" lon="-8.72751333">
        <ele>5.0</ele>
        <time>2019-05-16T16:37:04.918Z</time>
      </trkpt>
      <trkpt lat="39.14093333" lon="-8.72751333">
        <ele>5.0</ele>
        <time>2019-05-16T16:37:05.936Z</time>
      </trkpt>
      <trkpt lat="39.14097167" lon="-8.72747667">
        <ele>6.0</ele>
        <time>2019-05-16T16:37:06.909Z</time>
      </trkpt>
      <trkpt lat="39.14097167" lon="-8.72747667">
        <ele>6.0</ele>
        <time>2019-05-16T16:37:07.909Z</time>
      </trkpt>
      <trkpt lat="39.14101167" lon="-8.72744167">
        <ele>6.0</ele>
        <time>2019-05-16T16:37:08.935Z</time>
      </trkpt>
      <trkpt lat="39.14101167" lon="-8.72744167">
        <ele>6.0</ele>
        <time>2019-05-16T16:37:09.926Z</time>
      </trkpt>
      <trkpt lat="39.14106" lon="-8.72740833">
        <ele>6.0</ele>
        <time>2019-05-16T16:37:10.906Z</time>
      </trkpt>
      <trkpt lat="39.14106" lon="-8.72740833">
        <ele>6.0</ele>
        <time>2019-05-16T16:37:11.925Z</time>
      </trkpt>
      <trkpt lat="39.14110333" lon="-8.727365">
        <ele>6.0</ele>
        <time>2019-05-16T16:37:12.902Z</time>
      </trkpt>
      <trkpt lat="39.14110333" lon="-8.727365">
        <ele>6.0</ele>
        <time>2019-05-16T16:37:13.929Z</time>
      </trkpt>
      <trkpt lat="39.14114833" lon="-8.72732667">
        <ele>6.0</ele>
        <time>2019-05-16T16:37:14.906Z</time>
      </trkpt>
      <trkpt lat="39.14114833" lon="-8.72732667">
        <ele>6.0</ele>
        <time>2019-05-16T16:37:15.897Z</time>
      </trkpt>
      <trkpt lat="39.14119833" lon="-8.72728833">
        <ele>6.0</ele>
        <time>2019-05-16T16:37:16.908Z</time>
      </trkpt>
      <trkpt lat="39.14119833" lon="-8.72728833">
        <ele>6.0</ele>
        <time>2019-05-16T16:37:17.935Z</time>
      </trkpt>
      <trkpt lat="39.14124667" lon="-8.72724333">
        <ele>6.0</ele>
        <time>2019-05-16T16:37:18.931Z</time>
      </trkpt>
      <trkpt lat="39.14124667" lon="-8.72724333">
        <ele>6.0</ele>
        <time>2019-05-16T16:37:19.927Z</time>
      </trkpt>
      <trkpt lat="39.14129667" lon="-8.72720833">
        <ele>6.0</ele>
        <time>2019-05-16T16:37:20.960Z</time>
      </trkpt>
      <trkpt lat="39.14129667" lon="-8.72720833">
        <ele>6.0</ele>
        <time>2019-05-16T16:37:21.924Z</time>
      </trkpt>
      <trkpt lat="39.14134333" lon="-8.72717167">
        <ele>6.0</ele>
        <time>2019-05-16T16:37:22.911Z</time>
      </trkpt>
      <trkpt lat="39.14134333" lon="-8.72717167">
        <ele>6.0</ele>
        <time>2019-05-16T16:37:23.935Z</time>
      </trkpt>
      <trkpt lat="39.14139333" lon="-8.72713667">
        <ele>6.0</ele>
        <time>2019-05-16T16:37:24.915Z</time>
      </trkpt>
      <trkpt lat="39.14139333" lon="-8.72713667">
        <ele>6.0</ele>
        <time>2019-05-16T16:37:25.898Z</time>
      </trkpt>
      <trkpt lat="39.14144167" lon="-8.72710333">
        <ele>5.0</ele>
        <time>2019-05-16T16:37:26.914Z</time>
      </trkpt>
      <trkpt lat="39.14144167" lon="-8.72710333">
        <ele>5.0</ele>
        <time>2019-05-16T16:37:27.931Z</time>
      </trkpt>
      <trkpt lat="39.14149333" lon="-8.72706833">
        <ele>5.0</ele>
        <time>2019-05-16T16:37:28.910Z</time>
      </trkpt>
      <trkpt lat="39.14149333" lon="-8.72706833">
        <ele>5.0</ele>
        <time>2019-05-16T16:37:29.933Z</time>
      </trkpt>
      <trkpt lat="39.14154333" lon="-8.72703167">
        <ele>5.0</ele>
        <time>2019-05-16T16:37:30.917Z</time>
      </trkpt>
      <trkpt lat="39.14154333" lon="-8.72703167">
        <ele>5.0</ele>
        <time>2019-05-16T16:37:31.926Z</time>
      </trkpt>
      <trkpt lat="39.14159667" lon="-8.72699833">
        <ele>5.0</ele>
        <time>2019-05-16T16:37:32.903Z</time>
      </trkpt>
      <trkpt lat="39.14159667" lon="-8.72699833">
        <ele>5.0</ele>
        <time>2019-05-16T16:37:33.928Z</time>
      </trkpt>
      <trkpt lat="39.14164667" lon="-8.726965">
        <ele>5.0</ele>
        <time>2019-05-16T16:37:34.915Z</time>
      </trkpt>
      <trkpt lat="39.14164667" lon="-8.726965">
        <ele>5.0</ele>
        <time>2019-05-16T16:37:35.905Z</time>
      </trkpt>
      <trkpt lat="39.141695" lon="-8.72693833">
        <ele>5.0</ele>
        <time>2019-05-16T16:37:36.921Z</time>
      </trkpt>
      <trkpt lat="39.141695" lon="-8.72693833">
        <ele>5.0</ele>
        <time>2019-05-16T16:37:37.914Z</time>
      </trkpt>
      <trkpt lat="39.14174333" lon="-8.72691333">
        <ele>5.0</ele>
        <time>2019-05-16T16:37:38.933Z</time>
      </trkpt>
      <trkpt lat="39.14174333" lon="-8.72691333">
        <ele>5.0</ele>
        <time>2019-05-16T16:37:39.932Z</time>
      </trkpt>
      <trkpt lat="39.14179333" lon="-8.72688667">
        <ele>5.0</ele>
        <time>2019-05-16T16:37:40.926Z</time>
      </trkpt>
      <trkpt lat="39.14179333" lon="-8.72688667">
        <ele>5.0</ele>
        <time>2019-05-16T16:37:41.902Z</time>
      </trkpt>
      <trkpt lat="39.14184667" lon="-8.72685833">
        <ele>5.0</ele>
        <time>2019-05-16T16:37:42.924Z</time>
      </trkpt>
      <trkpt lat="39.14187333" lon="-8.72684167">
        <ele>5.0</ele>
        <time>2019-05-16T16:37:43.911Z</time>
      </trkpt>
      <trkpt lat="39.14189833" lon="-8.726825">
        <ele>5.0</ele>
        <time>2019-05-16T16:37:44.922Z</time>
      </trkpt>
      <trkpt lat="39.14189833" lon="-8.726825">
        <ele>5.0</ele>
        <time>2019-05-16T16:37:45.903Z</time>
      </trkpt>
      <trkpt lat="39.14194833" lon="-8.72679667">
        <ele>5.0</ele>
        <time>2019-05-16T16:37:46.923Z</time>
      </trkpt>
      <trkpt lat="39.14194833" lon="-8.72679667">
        <ele>5.0</ele>
        <time>2019-05-16T16:37:47.924Z</time>
      </trkpt>
      <trkpt lat="39.14199833" lon="-8.72677167">
        <ele>5.0</ele>
        <time>2019-05-16T16:37:48.903Z</time>
      </trkpt>
      <trkpt lat="39.14199833" lon="-8.72677167">
        <ele>5.0</ele>
        <time>2019-05-16T16:37:49.903Z</time>
      </trkpt>
      <trkpt lat="39.14205167" lon="-8.72674833">
        <ele>5.0</ele>
        <time>2019-05-16T16:37:50.925Z</time>
      </trkpt>
      <trkpt lat="39.14205167" lon="-8.72674833">
        <ele>5.0</ele>
        <time>2019-05-16T16:37:51.928Z</time>
      </trkpt>
      <trkpt lat="39.142105" lon="-8.72672667">
        <ele>5.0</ele>
        <time>2019-05-16T16:37:52.911Z</time>
      </trkpt>
      <trkpt lat="39.142105" lon="-8.72672667">
        <ele>5.0</ele>
        <time>2019-05-16T16:37:53.904Z</time>
      </trkpt>
      <trkpt lat="39.14216167" lon="-8.72670833">
        <ele>5.0</ele>
        <time>2019-05-16T16:37:54.932Z</time>
      </trkpt>
      <trkpt lat="39.14216167" lon="-8.72670833">
        <ele>5.0</ele>
        <time>2019-05-16T16:37:55.933Z</time>
      </trkpt>
      <trkpt lat="39.14221667" lon="-8.72668667">
        <ele>5.0</ele>
        <time>2019-05-16T16:37:56.922Z</time>
      </trkpt>
      <trkpt lat="39.14221667" lon="-8.72668667">
        <ele>5.0</ele>
        <time>2019-05-16T16:37:57.903Z</time>
      </trkpt>
      <trkpt lat="39.142275" lon="-8.726675">
        <ele>5.0</ele>
        <time>2019-05-16T16:37:58.928Z</time>
      </trkpt>
      <trkpt lat="39.142275" lon="-8.726675">
        <ele>5.0</ele>
        <time>2019-05-16T16:37:59.922Z</time>
      </trkpt>
      <trkpt lat="39.14233167" lon="-8.72665667">
        <ele>5.0</ele>
        <time>2019-05-16T16:38:00.911Z</time>
      </trkpt>
      <trkpt lat="39.14233167" lon="-8.72665667">
        <ele>5.0</ele>
        <time>2019-05-16T16:38:01.919Z</time>
      </trkpt>
      <trkpt lat="39.14239167" lon="-8.726645">
        <ele>5.0</ele>
        <time>2019-05-16T16:38:02.908Z</time>
      </trkpt>
      <trkpt lat="39.14239167" lon="-8.726645">
        <ele>5.0</ele>
        <time>2019-05-16T16:38:03.923Z</time>
      </trkpt>
      <trkpt lat="39.14245" lon="-8.72663167">
        <ele>4.0</ele>
        <time>2019-05-16T16:38:04.907Z</time>
      </trkpt>
      <trkpt lat="39.14245" lon="-8.72663167">
        <ele>4.0</ele>
        <time>2019-05-16T16:38:05.903Z</time>
      </trkpt>
      <trkpt lat="39.14250667" lon="-8.726615">
        <ele>4.0</ele>
        <time>2019-05-16T16:38:06.921Z</time>
      </trkpt>
      <trkpt lat="39.14250667" lon="-8.726615">
        <ele>4.0</ele>
        <time>2019-05-16T16:38:07.907Z</time>
      </trkpt>
      <trkpt lat="39.142565" lon="-8.7266">
        <ele>4.0</ele>
        <time>2019-05-16T16:38:08.918Z</time>
      </trkpt>
      <trkpt lat="39.142565" lon="-8.7266">
        <ele>4.0</ele>
        <time>2019-05-16T16:38:09.910Z</time>
      </trkpt>
      <trkpt lat="39.142625" lon="-8.72658">
        <ele>4.0</ele>
        <time>2019-05-16T16:38:10.899Z</time>
      </trkpt>
      <trkpt lat="39.142625" lon="-8.72658">
        <ele>4.0</ele>
        <time>2019-05-16T16:38:11.929Z</time>
      </trkpt>
      <trkpt lat="39.142685" lon="-8.72656167">
        <ele>4.0</ele>
        <time>2019-05-16T16:38:12.922Z</time>
      </trkpt>
      <trkpt lat="39.142685" lon="-8.72656167">
        <ele>4.0</ele>
        <time>2019-05-16T16:38:13.930Z</time>
      </trkpt>
      <trkpt lat="39.14274167" lon="-8.72653667">
        <ele>4.0</ele>
        <time>2019-05-16T16:38:14.917Z</time>
      </trkpt>
      <trkpt lat="39.14274167" lon="-8.72653667">
        <ele>4.0</ele>
        <time>2019-05-16T16:38:15.933Z</time>
      </trkpt>
      <trkpt lat="39.14279333" lon="-8.726515">
        <ele>4.0</ele>
        <time>2019-05-16T16:38:16.915Z</time>
      </trkpt>
      <trkpt lat="39.14279333" lon="-8.726515">
        <ele>4.0</ele>
        <time>2019-05-16T16:38:17.913Z</time>
      </trkpt>
      <trkpt lat="39.14284" lon="-8.726495">
        <ele>4.0</ele>
        <time>2019-05-16T16:38:18.935Z</time>
      </trkpt>
      <trkpt lat="39.14284" lon="-8.726495">
        <ele>4.0</ele>
        <time>2019-05-16T16:38:19.902Z</time>
      </trkpt>
      <trkpt lat="39.14288833" lon="-8.72647167">
        <ele>4.0</ele>
        <time>2019-05-16T16:38:20.902Z</time>
      </trkpt>
      <trkpt lat="39.14288833" lon="-8.72647167">
        <ele>4.0</ele>
        <time>2019-05-16T16:38:21.927Z</time>
      </trkpt>
      <trkpt lat="39.14294" lon="-8.72644667">
        <ele>4.0</ele>
        <time>2019-05-16T16:38:22.906Z</time>
      </trkpt>
      <trkpt lat="39.14294" lon="-8.72644667">
        <ele>4.0</ele>
        <time>2019-05-16T16:38:23.924Z</time>
      </trkpt>
      <trkpt lat="39.14299333" lon="-8.72642">
        <ele>4.0</ele>
        <time>2019-05-16T16:38:24.901Z</time>
      </trkpt>
      <trkpt lat="39.14299333" lon="-8.72642">
        <ele>4.0</ele>
        <time>2019-05-16T16:38:25.927Z</time>
      </trkpt>
      <trkpt lat="39.14304833" lon="-8.72639">
        <ele>4.0</ele>
        <time>2019-05-16T16:38:26.903Z</time>
      </trkpt>
      <trkpt lat="39.14304833" lon="-8.72639">
        <ele>4.0</ele>
        <time>2019-05-16T16:38:27.933Z</time>
      </trkpt>
      <trkpt lat="39.14310167" lon="-8.72635833">
        <ele>4.0</ele>
        <time>2019-05-16T16:38:28.909Z</time>
      </trkpt>
      <trkpt lat="39.14310167" lon="-8.72635833">
        <ele>4.0</ele>
        <time>2019-05-16T16:38:29.930Z</time>
      </trkpt>
      <trkpt lat="39.143155" lon="-8.72632833">
        <ele>4.0</ele>
        <time>2019-05-16T16:38:30.916Z</time>
      </trkpt>
      <trkpt lat="39.143155" lon="-8.72632833">
        <ele>4.0</ele>
        <time>2019-05-16T16:38:31.928Z</time>
      </trkpt>
      <trkpt lat="39.14321167" lon="-8.7263">
        <ele>4.0</ele>
        <time>2019-05-16T16:38:32.914Z</time>
      </trkpt>
      <trkpt lat="39.14321167" lon="-8.7263">
        <ele>4.0</ele>
        <time>2019-05-16T16:38:33.903Z</time>
      </trkpt>
      <trkpt lat="39.14326833" lon="-8.72627">
        <ele>4.0</ele>
        <time>2019-05-16T16:38:34.906Z</time>
      </trkpt>
      <trkpt lat="39.14326833" lon="-8.72627">
        <ele>4.0</ele>
        <time>2019-05-16T16:38:35.911Z</time>
      </trkpt>
      <trkpt lat="39.14332667" lon="-8.72624">
        <ele>4.0</ele>
        <time>2019-05-16T16:38:36.900Z</time>
      </trkpt>
      <trkpt lat="39.14332667" lon="-8.72624">
        <ele>4.0</ele>
        <time>2019-05-16T16:38:37.905Z</time>
      </trkpt>
      <trkpt lat="39.14338667" lon="-8.72621">
        <ele>4.0</ele>
        <time>2019-05-16T16:38:38.924Z</time>
      </trkpt>
      <trkpt lat="39.14338667" lon="-8.72621">
        <ele>4.0</ele>
        <time>2019-05-16T16:38:39.913Z</time>
      </trkpt>
      <trkpt lat="39.14344833" lon="-8.72618">
        <ele>4.0</ele>
        <time>2019-05-16T16:38:40.898Z</time>
      </trkpt>
      <trkpt lat="39.14344833" lon="-8.72618">
        <ele>4.0</ele>
        <time>2019-05-16T16:38:41.933Z</time>
      </trkpt>
      <trkpt lat="39.14350667" lon="-8.72615167">
        <ele>4.0</ele>
        <time>2019-05-16T16:38:42.913Z</time>
      </trkpt>
      <trkpt lat="39.14350667" lon="-8.72615167">
        <ele>4.0</ele>
        <time>2019-05-16T16:38:43.901Z</time>
      </trkpt>
      <trkpt lat="39.143565" lon="-8.72612333">
        <ele>4.0</ele>
        <time>2019-05-16T16:38:44.927Z</time>
      </trkpt>
      <trkpt lat="39.143565" lon="-8.72612333">
        <ele>4.0</ele>
        <time>2019-05-16T16:38:45.914Z</time>
      </trkpt>
      <trkpt lat="39.14362167" lon="-8.726095">
        <ele>4.0</ele>
        <time>2019-05-16T16:38:46.939Z</time>
      </trkpt>
      <trkpt lat="39.14362167" lon="-8.726095">
        <ele>4.0</ele>
        <time>2019-05-16T16:38:47.931Z</time>
      </trkpt>
      <trkpt lat="39.14367667" lon="-8.72607333">
        <ele>4.0</ele>
        <time>2019-05-16T16:38:48.903Z</time>
      </trkpt>
      <trkpt lat="39.14367667" lon="-8.72607333">
        <ele>4.0</ele>
        <time>2019-05-16T16:38:49.902Z</time>
      </trkpt>
      <trkpt lat="39.143735" lon="-8.726045">
        <ele>4.0</ele>
        <time>2019-05-16T16:38:50.926Z</time>
      </trkpt>
      <trkpt lat="39.143735" lon="-8.726045">
        <ele>4.0</ele>
        <time>2019-05-16T16:38:51.907Z</time>
      </trkpt>
      <trkpt lat="39.14379" lon="-8.72601833">
        <ele>4.0</ele>
        <time>2019-05-16T16:38:52.931Z</time>
      </trkpt>
      <trkpt lat="39.14379" lon="-8.72601833">
        <ele>4.0</ele>
        <time>2019-05-16T16:38:53.911Z</time>
      </trkpt>
      <trkpt lat="39.14384667" lon="-8.72599167">
        <ele>4.0</ele>
        <time>2019-05-16T16:38:54.927Z</time>
      </trkpt>
      <trkpt lat="39.14384667" lon="-8.72599167">
        <ele>4.0</ele>
        <time>2019-05-16T16:38:55.914Z</time>
      </trkpt>
      <trkpt lat="39.14390167" lon="-8.725965">
        <ele>4.0</ele>
        <time>2019-05-16T16:38:56.935Z</time>
      </trkpt>
      <trkpt lat="39.14390167" lon="-8.725965">
        <ele>4.0</ele>
        <time>2019-05-16T16:38:57.923Z</time>
      </trkpt>
      <trkpt lat="39.14395833" lon="-8.72594">
        <ele>4.0</ele>
        <time>2019-05-16T16:38:58.901Z</time>
      </trkpt>
      <trkpt lat="39.14395833" lon="-8.72594">
        <ele>4.0</ele>
        <time>2019-05-16T16:38:59.934Z</time>
      </trkpt>
      <trkpt lat="39.144015" lon="-8.725915">
        <ele>3.0</ele>
        <time>2019-05-16T16:39:00.919Z</time>
      </trkpt>
      <trkpt lat="39.144015" lon="-8.725915">
        <ele>3.0</ele>
        <time>2019-05-16T16:39:01.913Z</time>
      </trkpt>
      <trkpt lat="39.14406833" lon="-8.72588833">
        <ele>3.0</ele>
        <time>2019-05-16T16:39:02.934Z</time>
      </trkpt>
      <trkpt lat="39.14406833" lon="-8.72588833">
        <ele>3.0</ele>
        <time>2019-05-16T16:39:03.917Z</time>
      </trkpt>
      <trkpt lat="39.14412167" lon="-8.72586333">
        <ele>3.0</ele>
        <time>2019-05-16T16:39:04.920Z</time>
      </trkpt>
      <trkpt lat="39.14412167" lon="-8.72586333">
        <ele>3.0</ele>
        <time>2019-05-16T16:39:05.932Z</time>
      </trkpt>
      <trkpt lat="39.14417833" lon="-8.72583833">
        <ele>3.0</ele>
        <time>2019-05-16T16:39:06.911Z</time>
      </trkpt>
      <trkpt lat="39.14417833" lon="-8.72583833">
        <ele>3.0</ele>
        <time>2019-05-16T16:39:07.933Z</time>
      </trkpt>
      <trkpt lat="39.144235" lon="-8.72581167">
        <ele>3.0</ele>
        <time>2019-05-16T16:39:08.912Z</time>
      </trkpt>
      <trkpt lat="39.144235" lon="-8.72581167">
        <ele>3.0</ele>
        <time>2019-05-16T16:39:09.902Z</time>
      </trkpt>
      <trkpt lat="39.144295" lon="-8.72578333">
        <ele>4.0</ele>
        <time>2019-05-16T16:39:10.915Z</time>
      </trkpt>
      <trkpt lat="39.144295" lon="-8.72578333">
        <ele>4.0</ele>
        <time>2019-05-16T16:39:11.904Z</time>
      </trkpt>
      <trkpt lat="39.14435833" lon="-8.72576167">
        <ele>4.0</ele>
        <time>2019-05-16T16:39:12.917Z</time>
      </trkpt>
      <trkpt lat="39.14435833" lon="-8.72576167">
        <ele>4.0</ele>
        <time>2019-05-16T16:39:13.899Z</time>
      </trkpt>
      <trkpt lat="39.144425" lon="-8.72573833">
        <ele>4.0</ele>
        <time>2019-05-16T16:39:14.917Z</time>
      </trkpt>
      <trkpt lat="39.144425" lon="-8.72573833">
        <ele>4.0</ele>
        <time>2019-05-16T16:39:15.903Z</time>
      </trkpt>
      <trkpt lat="39.14448667" lon="-8.725715">
        <ele>4.0</ele>
        <time>2019-05-16T16:39:16.920Z</time>
      </trkpt>
      <trkpt lat="39.14448667" lon="-8.725715">
        <ele>4.0</ele>
        <time>2019-05-16T16:39:17.924Z</time>
      </trkpt>
      <trkpt lat="39.14454333" lon="-8.72569167">
        <ele>4.0</ele>
        <time>2019-05-16T16:39:18.938Z</time>
      </trkpt>
      <trkpt lat="39.14454333" lon="-8.72569167">
        <ele>4.0</ele>
        <time>2019-05-16T16:39:19.934Z</time>
      </trkpt>
      <trkpt lat="39.144605" lon="-8.72567333">
        <ele>4.0</ele>
        <time>2019-05-16T16:39:20.936Z</time>
      </trkpt>
      <trkpt lat="39.144605" lon="-8.72567333">
        <ele>4.0</ele>
        <time>2019-05-16T16:39:21.926Z</time>
      </trkpt>
      <trkpt lat="39.144665" lon="-8.72565333">
        <ele>4.0</ele>
        <time>2019-05-16T16:39:22.914Z</time>
      </trkpt>
      <trkpt lat="39.144665" lon="-8.72565333">
        <ele>4.0</ele>
        <time>2019-05-16T16:39:23.903Z</time>
      </trkpt>
      <trkpt lat="39.14472333" lon="-8.72562833">
        <ele>4.0</ele>
        <time>2019-05-16T16:39:24.925Z</time>
      </trkpt>
      <trkpt lat="39.14472333" lon="-8.72562833">
        <ele>4.0</ele>
        <time>2019-05-16T16:39:25.903Z</time>
      </trkpt>
      <trkpt lat="39.14478167" lon="-8.7256">
        <ele>4.0</ele>
        <time>2019-05-16T16:39:26.926Z</time>
      </trkpt>
      <trkpt lat="39.14478167" lon="-8.7256">
        <ele>4.0</ele>
        <time>2019-05-16T16:39:27.911Z</time>
      </trkpt>
      <trkpt lat="39.14483667" lon="-8.72556667">
        <ele>4.0</ele>
        <time>2019-05-16T16:39:28.931Z</time>
      </trkpt>
      <trkpt lat="39.14483667" lon="-8.72556667">
        <ele>4.0</ele>
        <time>2019-05-16T16:39:29.927Z</time>
      </trkpt>
      <trkpt lat="39.14489333" lon="-8.72553667">
        <ele>4.0</ele>
        <time>2019-05-16T16:39:30.910Z</time>
      </trkpt>
      <trkpt lat="39.14492333" lon="-8.72552167">
        <ele>5.0</ele>
        <time>2019-05-16T16:39:31.908Z</time>
      </trkpt>
      <trkpt lat="39.14495167" lon="-8.72550667">
        <ele>5.0</ele>
        <time>2019-05-16T16:39:32.914Z</time>
      </trkpt>
      <trkpt lat="39.14495167" lon="-8.72550667">
        <ele>5.0</ele>
        <time>2019-05-16T16:39:33.910Z</time>
      </trkpt>
      <trkpt lat="39.14500833" lon="-8.72547333">
        <ele>5.0</ele>
        <time>2019-05-16T16:39:34.929Z</time>
      </trkpt>
      <trkpt lat="39.14500833" lon="-8.72547333">
        <ele>5.0</ele>
        <time>2019-05-16T16:39:35.917Z</time>
      </trkpt>
      <trkpt lat="39.14506667" lon="-8.72544333">
        <ele>5.0</ele>
        <time>2019-05-16T16:39:36.908Z</time>
      </trkpt>
      <trkpt lat="39.14506667" lon="-8.72544333">
        <ele>5.0</ele>
        <time>2019-05-16T16:39:37.897Z</time>
      </trkpt>
      <trkpt lat="39.14512" lon="-8.72540667">
        <ele>5.0</ele>
        <time>2019-05-16T16:39:38.928Z</time>
      </trkpt>
      <trkpt lat="39.14512" lon="-8.72540667">
        <ele>5.0</ele>
        <time>2019-05-16T16:39:39.929Z</time>
      </trkpt>
      <trkpt lat="39.145175" lon="-8.72537333">
        <ele>5.0</ele>
        <time>2019-05-16T16:39:40.908Z</time>
      </trkpt>
      <trkpt lat="39.145175" lon="-8.72537333">
        <ele>5.0</ele>
        <time>2019-05-16T16:39:41.912Z</time>
      </trkpt>
      <trkpt lat="39.14522833" lon="-8.725345">
        <ele>5.0</ele>
        <time>2019-05-16T16:39:42.897Z</time>
      </trkpt>
      <trkpt lat="39.14522833" lon="-8.725345">
        <ele>5.0</ele>
        <time>2019-05-16T16:39:43.928Z</time>
      </trkpt>
      <trkpt lat="39.14528167" lon="-8.72531333">
        <ele>5.0</ele>
        <time>2019-05-16T16:39:44.907Z</time>
      </trkpt>
      <trkpt lat="39.14528167" lon="-8.72531333">
        <ele>5.0</ele>
        <time>2019-05-16T16:39:45.929Z</time>
      </trkpt>
      <trkpt lat="39.14533833" lon="-8.72528333">
        <ele>5.0</ele>
        <time>2019-05-16T16:39:46.908Z</time>
      </trkpt>
      <trkpt lat="39.14533833" lon="-8.72528333">
        <ele>5.0</ele>
        <time>2019-05-16T16:39:47.897Z</time>
      </trkpt>
      <trkpt lat="39.14539667" lon="-8.72525">
        <ele>5.0</ele>
        <time>2019-05-16T16:39:48.928Z</time>
      </trkpt>
      <trkpt lat="39.14539667" lon="-8.72525">
        <ele>5.0</ele>
        <time>2019-05-16T16:39:49.920Z</time>
      </trkpt>
      <trkpt lat="39.14545333" lon="-8.72522333">
        <ele>6.0</ele>
        <time>2019-05-16T16:39:50.935Z</time>
      </trkpt>
      <trkpt lat="39.14545333" lon="-8.72522333">
        <ele>6.0</ele>
        <time>2019-05-16T16:39:51.923Z</time>
      </trkpt>
      <trkpt lat="39.14551" lon="-8.72519667">
        <ele>6.0</ele>
        <time>2019-05-16T16:39:52.900Z</time>
      </trkpt>
      <trkpt lat="39.14551" lon="-8.72519667">
        <ele>6.0</ele>
        <time>2019-05-16T16:39:53.918Z</time>
      </trkpt>
      <trkpt lat="39.145565" lon="-8.72517167">
        <ele>6.0</ele>
        <time>2019-05-16T16:39:54.927Z</time>
      </trkpt>
      <trkpt lat="39.145565" lon="-8.72517167">
        <ele>6.0</ele>
        <time>2019-05-16T16:39:55.897Z</time>
      </trkpt>
      <trkpt lat="39.14562" lon="-8.72514833">
        <ele>6.0</ele>
        <time>2019-05-16T16:39:56.919Z</time>
      </trkpt>
      <trkpt lat="39.14562" lon="-8.72514833">
        <ele>6.0</ele>
        <time>2019-05-16T16:39:57.901Z</time>
      </trkpt>
      <trkpt lat="39.14567667" lon="-8.725125">
        <ele>6.0</ele>
        <time>2019-05-16T16:39:58.915Z</time>
      </trkpt>
      <trkpt lat="39.14567667" lon="-8.725125">
        <ele>6.0</ele>
        <time>2019-05-16T16:39:59.913Z</time>
      </trkpt>
      <trkpt lat="39.145735" lon="-8.72509667">
        <ele>6.0</ele>
        <time>2019-05-16T16:40:00.933Z</time>
      </trkpt>
      <trkpt lat="39.145735" lon="-8.72509667">
        <ele>6.0</ele>
        <time>2019-05-16T16:40:01.929Z</time>
      </trkpt>
      <trkpt lat="39.14579" lon="-8.72507333">
        <ele>6.0</ele>
        <time>2019-05-16T16:40:02.909Z</time>
      </trkpt>
      <trkpt lat="39.14579" lon="-8.72507333">
        <ele>6.0</ele>
        <time>2019-05-16T16:40:03.908Z</time>
      </trkpt>
      <trkpt lat="39.14584333" lon="-8.72505">
        <ele>6.0</ele>
        <time>2019-05-16T16:40:04.929Z</time>
      </trkpt>
      <trkpt lat="39.14584333" lon="-8.72505">
        <ele>6.0</ele>
        <time>2019-05-16T16:40:05.903Z</time>
      </trkpt>
      <trkpt lat="39.14589667" lon="-8.72502167">
        <ele>6.0</ele>
        <time>2019-05-16T16:40:06.929Z</time>
      </trkpt>
      <trkpt lat="39.14589667" lon="-8.72502167">
        <ele>6.0</ele>
        <time>2019-05-16T16:40:07.916Z</time>
      </trkpt>
      <trkpt lat="39.14594833" lon="-8.72499667">
        <ele>6.0</ele>
        <time>2019-05-16T16:40:08.936Z</time>
      </trkpt>
      <trkpt lat="39.14594833" lon="-8.72499667">
        <ele>6.0</ele>
        <time>2019-05-16T16:40:09.915Z</time>
      </trkpt>
      <trkpt lat="39.146005" lon="-8.724975">
        <ele>6.0</ele>
        <time>2019-05-16T16:40:10.898Z</time>
      </trkpt>
      <trkpt lat="39.146005" lon="-8.724975">
        <ele>6.0</ele>
        <time>2019-05-16T16:40:11.903Z</time>
      </trkpt>
      <trkpt lat="39.14606333" lon="-8.72495">
        <ele>7.0</ele>
        <time>2019-05-16T16:40:12.929Z</time>
      </trkpt>
      <trkpt lat="39.14606333" lon="-8.72495">
        <ele>7.0</ele>
        <time>2019-05-16T16:40:13.903Z</time>
      </trkpt>
      <trkpt lat="39.14612167" lon="-8.72492667">
        <ele>7.0</ele>
        <time>2019-05-16T16:40:14.925Z</time>
      </trkpt>
      <trkpt lat="39.14612167" lon="-8.72492667">
        <ele>7.0</ele>
        <time>2019-05-16T16:40:15.909Z</time>
      </trkpt>
      <trkpt lat="39.14618" lon="-8.72490167">
        <ele>7.0</ele>
        <time>2019-05-16T16:40:16.931Z</time>
      </trkpt>
      <trkpt lat="39.14618" lon="-8.72490167">
        <ele>7.0</ele>
        <time>2019-05-16T16:40:17.933Z</time>
      </trkpt>
      <trkpt lat="39.14623667" lon="-8.72488">
        <ele>7.0</ele>
        <time>2019-05-16T16:40:18.911Z</time>
      </trkpt>
      <trkpt lat="39.14623667" lon="-8.72488">
        <ele>7.0</ele>
        <time>2019-05-16T16:40:19.898Z</time>
      </trkpt>
      <trkpt lat="39.14629667" lon="-8.72486">
        <ele>6.0</ele>
        <time>2019-05-16T16:40:21.008Z</time>
      </trkpt>
      <trkpt lat="39.14629667" lon="-8.72486">
        <ele>6.0</ele>
        <time>2019-05-16T16:40:21.930Z</time>
      </trkpt>
      <trkpt lat="39.146355" lon="-8.72484">
        <ele>6.0</ele>
        <time>2019-05-16T16:40:22.914Z</time>
      </trkpt>
      <trkpt lat="39.146355" lon="-8.72484">
        <ele>6.0</ele>
        <time>2019-05-16T16:40:23.913Z</time>
      </trkpt>
      <trkpt lat="39.14641333" lon="-8.72482167">
        <ele>6.0</ele>
        <time>2019-05-16T16:40:24.911Z</time>
      </trkpt>
      <trkpt lat="39.14641333" lon="-8.72482167">
        <ele>6.0</ele>
        <time>2019-05-16T16:40:25.903Z</time>
      </trkpt>
      <trkpt lat="39.14646833" lon="-8.724805">
        <ele>6.0</ele>
        <time>2019-05-16T16:40:26.928Z</time>
      </trkpt>
      <trkpt lat="39.14646833" lon="-8.724805">
        <ele>6.0</ele>
        <time>2019-05-16T16:40:27.928Z</time>
      </trkpt>
      <trkpt lat="39.14652167" lon="-8.72478833">
        <ele>6.0</ele>
        <time>2019-05-16T16:40:28.906Z</time>
      </trkpt>
      <trkpt lat="39.14652167" lon="-8.72478833">
        <ele>6.0</ele>
        <time>2019-05-16T16:40:29.913Z</time>
      </trkpt>
      <trkpt lat="39.14657667" lon="-8.724775">
        <ele>6.0</ele>
        <time>2019-05-16T16:40:30.932Z</time>
      </trkpt>
      <trkpt lat="39.14657667" lon="-8.724775">
        <ele>6.0</ele>
        <time>2019-05-16T16:40:31.903Z</time>
      </trkpt>
      <trkpt lat="39.14663167" lon="-8.724755">
        <ele>6.0</ele>
        <time>2019-05-16T16:40:32.933Z</time>
      </trkpt>
      <trkpt lat="39.14663167" lon="-8.724755">
        <ele>6.0</ele>
        <time>2019-05-16T16:40:33.902Z</time>
      </trkpt>
      <trkpt lat="39.146685" lon="-8.72473833">
        <ele>6.0</ele>
        <time>2019-05-16T16:40:34.929Z</time>
      </trkpt>
      <trkpt lat="39.146685" lon="-8.72473833">
        <ele>6.0</ele>
        <time>2019-05-16T16:40:35.933Z</time>
      </trkpt>
      <trkpt lat="39.146735" lon="-8.72472333">
        <ele>6.0</ele>
        <time>2019-05-16T16:40:36.914Z</time>
      </trkpt>
      <trkpt lat="39.146735" lon="-8.72472333">
        <ele>6.0</ele>
        <time>2019-05-16T16:40:37.899Z</time>
      </trkpt>
      <trkpt lat="39.14678333" lon="-8.72471333">
        <ele>5.0</ele>
        <time>2019-05-16T16:40:38.901Z</time>
      </trkpt>
      <trkpt lat="39.14678333" lon="-8.72471333">
        <ele>5.0</ele>
        <time>2019-05-16T16:40:39.903Z</time>
      </trkpt>
      <trkpt lat="39.14683333" lon="-8.7247">
        <ele>5.0</ele>
        <time>2019-05-16T16:40:40.931Z</time>
      </trkpt>
      <trkpt lat="39.14683333" lon="-8.7247">
        <ele>5.0</ele>
        <time>2019-05-16T16:40:41.916Z</time>
      </trkpt>
      <trkpt lat="39.146885" lon="-8.72469">
        <ele>5.0</ele>
        <time>2019-05-16T16:40:42.901Z</time>
      </trkpt>
      <trkpt lat="39.146885" lon="-8.72469">
        <ele>5.0</ele>
        <time>2019-05-16T16:40:43.913Z</time>
      </trkpt>
      <trkpt lat="39.14693833" lon="-8.724675">
        <ele>5.0</ele>
        <time>2019-05-16T16:40:44.932Z</time>
      </trkpt>
      <trkpt lat="39.14693833" lon="-8.724675">
        <ele>5.0</ele>
        <time>2019-05-16T16:40:45.936Z</time>
      </trkpt>
      <trkpt lat="39.14698833" lon="-8.72466">
        <ele>5.0</ele>
        <time>2019-05-16T16:40:46.921Z</time>
      </trkpt>
      <trkpt lat="39.14698833" lon="-8.72466">
        <ele>5.0</ele>
        <time>2019-05-16T16:40:47.906Z</time>
      </trkpt>
      <trkpt lat="39.14704" lon="-8.72464667">
        <ele>5.0</ele>
        <time>2019-05-16T16:40:48.936Z</time>
      </trkpt>
      <trkpt lat="39.14704" lon="-8.72464667">
        <ele>5.0</ele>
        <time>2019-05-16T16:40:49.928Z</time>
      </trkpt>
      <trkpt lat="39.14709167" lon="-8.72463333">
        <ele>5.0</ele>
        <time>2019-05-16T16:40:50.903Z</time>
      </trkpt>
      <trkpt lat="39.14709167" lon="-8.72463333">
        <ele>5.0</ele>
        <time>2019-05-16T16:40:51.899Z</time>
      </trkpt>
      <trkpt lat="39.14714667" lon="-8.72461833">
        <ele>5.0</ele>
        <time>2019-05-16T16:40:52.918Z</time>
      </trkpt>
      <trkpt lat="39.14714667" lon="-8.72461833">
        <ele>5.0</ele>
        <time>2019-05-16T16:40:53.903Z</time>
      </trkpt>
      <trkpt lat="39.1472" lon="-8.72460167">
        <ele>5.0</ele>
        <time>2019-05-16T16:40:54.928Z</time>
      </trkpt>
      <trkpt lat="39.1472" lon="-8.72460167">
        <ele>5.0</ele>
        <time>2019-05-16T16:40:55.935Z</time>
      </trkpt>
      <trkpt lat="39.14725333" lon="-8.72459">
        <ele>5.0</ele>
        <time>2019-05-16T16:40:56.914Z</time>
      </trkpt>
      <trkpt lat="39.14725333" lon="-8.72459">
        <ele>5.0</ele>
        <time>2019-05-16T16:40:57.933Z</time>
      </trkpt>
      <trkpt lat="39.14730667" lon="-8.72457167">
        <ele>5.0</ele>
        <time>2019-05-16T16:40:58.913Z</time>
      </trkpt>
      <trkpt lat="39.14730667" lon="-8.72457167">
        <ele>5.0</ele>
        <time>2019-05-16T16:40:59.903Z</time>
      </trkpt>
      <trkpt lat="39.14736" lon="-8.72455167">
        <ele>5.0</ele>
        <time>2019-05-16T16:41:00.929Z</time>
      </trkpt>
      <trkpt lat="39.14736" lon="-8.72455167">
        <ele>5.0</ele>
        <time>2019-05-16T16:41:01.902Z</time>
      </trkpt>
      <trkpt lat="39.147415" lon="-8.724535">
        <ele>5.0</ele>
        <time>2019-05-16T16:41:02.921Z</time>
      </trkpt>
      <trkpt lat="39.147415" lon="-8.724535">
        <ele>5.0</ele>
        <time>2019-05-16T16:41:03.898Z</time>
      </trkpt>
      <trkpt lat="39.14747333" lon="-8.724515">
        <ele>5.0</ele>
        <time>2019-05-16T16:41:04.912Z</time>
      </trkpt>
      <trkpt lat="39.14747333" lon="-8.724515">
        <ele>5.0</ele>
        <time>2019-05-16T16:41:05.910Z</time>
      </trkpt>
      <trkpt lat="39.14753167" lon="-8.72449167">
        <ele>5.0</ele>
        <time>2019-05-16T16:41:06.932Z</time>
      </trkpt>
      <trkpt lat="39.14753167" lon="-8.72449167">
        <ele>5.0</ele>
        <time>2019-05-16T16:41:07.900Z</time>
      </trkpt>
      <trkpt lat="39.14758667" lon="-8.72447">
        <ele>5.0</ele>
        <time>2019-05-16T16:41:08.928Z</time>
      </trkpt>
      <trkpt lat="39.14758667" lon="-8.72447">
        <ele>5.0</ele>
        <time>2019-05-16T16:41:09.913Z</time>
      </trkpt>
      <trkpt lat="39.14764" lon="-8.72444667">
        <ele>5.0</ele>
        <time>2019-05-16T16:41:10.941Z</time>
      </trkpt>
      <trkpt lat="39.14764" lon="-8.72444667">
        <ele>5.0</ele>
        <time>2019-05-16T16:41:11.903Z</time>
      </trkpt>
      <trkpt lat="39.14769333" lon="-8.724425">
        <ele>5.0</ele>
        <time>2019-05-16T16:41:12.898Z</time>
      </trkpt>
      <trkpt lat="39.14769333" lon="-8.724425">
        <ele>5.0</ele>
        <time>2019-05-16T16:41:13.922Z</time>
      </trkpt>
      <trkpt lat="39.14774667" lon="-8.72440333">
        <ele>5.0</ele>
        <time>2019-05-16T16:41:14.907Z</time>
      </trkpt>
      <trkpt lat="39.14774667" lon="-8.72440333">
        <ele>5.0</ele>
        <time>2019-05-16T16:41:15.927Z</time>
      </trkpt>
      <trkpt lat="39.14779833" lon="-8.72438167">
        <ele>5.0</ele>
        <time>2019-05-16T16:41:16.922Z</time>
      </trkpt>
      <trkpt lat="39.14779833" lon="-8.72438167">
        <ele>5.0</ele>
        <time>2019-05-16T16:41:17.913Z</time>
      </trkpt>
      <trkpt lat="39.14784833" lon="-8.72434833">
        <ele>5.0</ele>
        <time>2019-05-16T16:41:18.937Z</time>
      </trkpt>
      <trkpt lat="39.14784833" lon="-8.72434833">
        <ele>5.0</ele>
        <time>2019-05-16T16:41:19.918Z</time>
      </trkpt>
      <trkpt lat="39.14790167" lon="-8.72432333">
        <ele>5.0</ele>
        <time>2019-05-16T16:41:21.030Z</time>
      </trkpt>
      <trkpt lat="39.14790167" lon="-8.72432333">
        <ele>5.0</ele>
        <time>2019-05-16T16:41:21.909Z</time>
      </trkpt>
      <trkpt lat="39.14795333" lon="-8.724295">
        <ele>5.0</ele>
        <time>2019-05-16T16:41:22.931Z</time>
      </trkpt>
      <trkpt lat="39.14795333" lon="-8.724295">
        <ele>5.0</ele>
        <time>2019-05-16T16:41:23.915Z</time>
      </trkpt>
      <trkpt lat="39.148005" lon="-8.72427">
        <ele>5.0</ele>
        <time>2019-05-16T16:41:24.931Z</time>
      </trkpt>
      <trkpt lat="39.148005" lon="-8.72427">
        <ele>5.0</ele>
        <time>2019-05-16T16:41:25.903Z</time>
      </trkpt>
      <trkpt lat="39.14805667" lon="-8.724245">
        <ele>5.0</ele>
        <time>2019-05-16T16:41:26.932Z</time>
      </trkpt>
      <trkpt lat="39.14805667" lon="-8.724245">
        <ele>5.0</ele>
        <time>2019-05-16T16:41:27.917Z</time>
      </trkpt>
      <trkpt lat="39.14811" lon="-8.72422">
        <ele>5.0</ele>
        <time>2019-05-16T16:41:28.903Z</time>
      </trkpt>
      <trkpt lat="39.14811" lon="-8.72422">
        <ele>5.0</ele>
        <time>2019-05-16T16:41:29.932Z</time>
      </trkpt>
      <trkpt lat="39.14816167" lon="-8.7242">
        <ele>5.0</ele>
        <time>2019-05-16T16:41:30.907Z</time>
      </trkpt>
      <trkpt lat="39.14816167" lon="-8.7242">
        <ele>5.0</ele>
        <time>2019-05-16T16:41:31.928Z</time>
      </trkpt>
      <trkpt lat="39.14821333" lon="-8.72417833">
        <ele>5.0</ele>
        <time>2019-05-16T16:41:32.914Z</time>
      </trkpt>
      <trkpt lat="39.14821333" lon="-8.72417833">
        <ele>5.0</ele>
        <time>2019-05-16T16:41:33.905Z</time>
      </trkpt>
      <trkpt lat="39.14826667" lon="-8.72416333">
        <ele>5.0</ele>
        <time>2019-05-16T16:41:34.901Z</time>
      </trkpt>
      <trkpt lat="39.14829333" lon="-8.72415667">
        <ele>5.0</ele>
        <time>2019-05-16T16:41:35.917Z</time>
      </trkpt>
      <trkpt lat="39.14829333" lon="-8.72415667">
        <ele>5.0</ele>
        <time>2019-05-16T16:41:36.903Z</time>
      </trkpt>
      <trkpt lat="39.14834667" lon="-8.72413">
        <ele>5.0</ele>
        <time>2019-05-16T16:41:37.915Z</time>
      </trkpt>
      <trkpt lat="39.148375" lon="-8.72412">
        <ele>5.0</ele>
        <time>2019-05-16T16:41:38.899Z</time>
      </trkpt>
      <trkpt lat="39.148375" lon="-8.72412">
        <ele>5.0</ele>
        <time>2019-05-16T16:41:39.932Z</time>
      </trkpt>
      <trkpt lat="39.14842667" lon="-8.72409667">
        <ele>6.0</ele>
        <time>2019-05-16T16:41:40.915Z</time>
      </trkpt>
      <trkpt lat="39.14842667" lon="-8.72409667">
        <ele>6.0</ele>
        <time>2019-05-16T16:41:41.915Z</time>
      </trkpt>
      <trkpt lat="39.14847833" lon="-8.724065">
        <ele>5.0</ele>
        <time>2019-05-16T16:41:42.932Z</time>
      </trkpt>
      <trkpt lat="39.14847833" lon="-8.724065">
        <ele>5.0</ele>
        <time>2019-05-16T16:41:43.905Z</time>
      </trkpt>
      <trkpt lat="39.14853333" lon="-8.72403333">
        <ele>5.0</ele>
        <time>2019-05-16T16:41:44.925Z</time>
      </trkpt>
      <trkpt lat="39.14853333" lon="-8.72403333">
        <ele>5.0</ele>
        <time>2019-05-16T16:41:45.903Z</time>
      </trkpt>
      <trkpt lat="39.14859" lon="-8.72400833">
        <ele>5.0</ele>
        <time>2019-05-16T16:41:46.923Z</time>
      </trkpt>
      <trkpt lat="39.14859" lon="-8.72400833">
        <ele>5.0</ele>
        <time>2019-05-16T16:41:47.916Z</time>
      </trkpt>
      <trkpt lat="39.14864167" lon="-8.72398333">
        <ele>5.0</ele>
        <time>2019-05-16T16:41:48.900Z</time>
      </trkpt>
      <trkpt lat="39.14864167" lon="-8.72398333">
        <ele>5.0</ele>
        <time>2019-05-16T16:41:49.902Z</time>
      </trkpt>
      <trkpt lat="39.14869" lon="-8.723965">
        <ele>5.0</ele>
        <time>2019-05-16T16:41:50.929Z</time>
      </trkpt>
      <trkpt lat="39.14869" lon="-8.723965">
        <ele>5.0</ele>
        <time>2019-05-16T16:41:51.911Z</time>
      </trkpt>
      <trkpt lat="39.14874" lon="-8.72393667">
        <ele>5.0</ele>
        <time>2019-05-16T16:41:52.937Z</time>
      </trkpt>
      <trkpt lat="39.14874" lon="-8.72393667">
        <ele>5.0</ele>
        <time>2019-05-16T16:41:53.900Z</time>
      </trkpt>
      <trkpt lat="39.14879333" lon="-8.72390833">
        <ele>4.0</ele>
        <time>2019-05-16T16:41:54.933Z</time>
      </trkpt>
      <trkpt lat="39.14879333" lon="-8.72390833">
        <ele>4.0</ele>
        <time>2019-05-16T16:41:55.928Z</time>
      </trkpt>
      <trkpt lat="39.14884333" lon="-8.72388333">
        <ele>4.0</ele>
        <time>2019-05-16T16:41:56.916Z</time>
      </trkpt>
      <trkpt lat="39.14884333" lon="-8.72388333">
        <ele>4.0</ele>
        <time>2019-05-16T16:41:57.905Z</time>
      </trkpt>
      <trkpt lat="39.148895" lon="-8.72386333">
        <ele>4.0</ele>
        <time>2019-05-16T16:41:58.905Z</time>
      </trkpt>
      <trkpt lat="39.148895" lon="-8.72386333">
        <ele>4.0</ele>
        <time>2019-05-16T16:41:59.921Z</time>
      </trkpt>
      <trkpt lat="39.14895" lon="-8.72383833">
        <ele>4.0</ele>
        <time>2019-05-16T16:42:00.912Z</time>
      </trkpt>
      <trkpt lat="39.14895" lon="-8.72383833">
        <ele>4.0</ele>
        <time>2019-05-16T16:42:01.906Z</time>
      </trkpt>
      <trkpt lat="39.14900333" lon="-8.72382167">
        <ele>4.0</ele>
        <time>2019-05-16T16:42:02.925Z</time>
      </trkpt>
      <trkpt lat="39.14900333" lon="-8.72382167">
        <ele>4.0</ele>
        <time>2019-05-16T16:42:03.904Z</time>
      </trkpt>
      <trkpt lat="39.14905333" lon="-8.7238">
        <ele>5.0</ele>
        <time>2019-05-16T16:42:04.931Z</time>
      </trkpt>
      <trkpt lat="39.14905333" lon="-8.7238">
        <ele>5.0</ele>
        <time>2019-05-16T16:42:05.928Z</time>
      </trkpt>
      <trkpt lat="39.14910833" lon="-8.72376">
        <ele>4.0</ele>
        <time>2019-05-16T16:42:06.914Z</time>
      </trkpt>
      <trkpt lat="39.14910833" lon="-8.72376">
        <ele>4.0</ele>
        <time>2019-05-16T16:42:07.937Z</time>
      </trkpt>
      <trkpt lat="39.14916667" lon="-8.72374">
        <ele>4.0</ele>
        <time>2019-05-16T16:42:08.914Z</time>
      </trkpt>
      <trkpt lat="39.14916667" lon="-8.72374">
        <ele>4.0</ele>
        <time>2019-05-16T16:42:09.913Z</time>
      </trkpt>
      <trkpt lat="39.149225" lon="-8.72373333">
        <ele>4.0</ele>
        <time>2019-05-16T16:42:10.902Z</time>
      </trkpt>
      <trkpt lat="39.149225" lon="-8.72373333">
        <ele>4.0</ele>
        <time>2019-05-16T16:42:11.929Z</time>
      </trkpt>
      <trkpt lat="39.14927667" lon="-8.72371333">
        <ele>5.0</ele>
        <time>2019-05-16T16:42:12.913Z</time>
      </trkpt>
      <trkpt lat="39.14929833" lon="-8.7237">
        <ele>5.0</ele>
        <time>2019-05-16T16:42:13.921Z</time>
      </trkpt>
      <trkpt lat="39.14932167" lon="-8.72368833">
        <ele>5.0</ele>
        <time>2019-05-16T16:42:14.932Z</time>
      </trkpt>
      <trkpt lat="39.14932167" lon="-8.72368833">
        <ele>5.0</ele>
        <time>2019-05-16T16:42:15.905Z</time>
      </trkpt>
      <trkpt lat="39.14937667" lon="-8.72366833">
        <ele>5.0</ele>
        <time>2019-05-16T16:42:16.926Z</time>
      </trkpt>
      <trkpt lat="39.14937667" lon="-8.72366833">
        <ele>5.0</ele>
        <time>2019-05-16T16:42:17.933Z</time>
      </trkpt>
      <trkpt lat="39.14943333" lon="-8.72365167">
        <ele>6.0</ele>
        <time>2019-05-16T16:42:18.914Z</time>
      </trkpt>
      <trkpt lat="39.14943333" lon="-8.72365167">
        <ele>6.0</ele>
        <time>2019-05-16T16:42:19.911Z</time>
      </trkpt>
      <trkpt lat="39.14948667" lon="-8.72362667">
        <ele>6.0</ele>
        <time>2019-05-16T16:42:20.915Z</time>
      </trkpt>
      <trkpt lat="39.14948667" lon="-8.72362667">
        <ele>6.0</ele>
        <time>2019-05-16T16:42:21.923Z</time>
      </trkpt>
      <trkpt lat="39.14954" lon="-8.72360333">
        <ele>6.0</ele>
        <time>2019-05-16T16:42:22.900Z</time>
      </trkpt>
      <trkpt lat="39.14954" lon="-8.72360333">
        <ele>6.0</ele>
        <time>2019-05-16T16:42:23.921Z</time>
      </trkpt>
      <trkpt lat="39.14959167" lon="-8.72358167">
        <ele>7.0</ele>
        <time>2019-05-16T16:42:24.907Z</time>
      </trkpt>
      <trkpt lat="39.14959167" lon="-8.72358167">
        <ele>7.0</ele>
        <time>2019-05-16T16:42:25.912Z</time>
      </trkpt>
      <trkpt lat="39.14963833" lon="-8.72356">
        <ele>7.0</ele>
        <time>2019-05-16T16:42:26.933Z</time>
      </trkpt>
      <trkpt lat="39.14963833" lon="-8.72356">
        <ele>7.0</ele>
        <time>2019-05-16T16:42:27.915Z</time>
      </trkpt>
      <trkpt lat="39.14968833" lon="-8.72353667">
        <ele>7.0</ele>
        <time>2019-05-16T16:42:28.930Z</time>
      </trkpt>
      <trkpt lat="39.14968833" lon="-8.72353667">
        <ele>7.0</ele>
        <time>2019-05-16T16:42:29.930Z</time>
      </trkpt>
      <trkpt lat="39.14973667" lon="-8.723505">
        <ele>7.0</ele>
        <time>2019-05-16T16:42:30.911Z</time>
      </trkpt>
      <trkpt lat="39.14973667" lon="-8.723505">
        <ele>7.0</ele>
        <time>2019-05-16T16:42:31.919Z</time>
      </trkpt>
      <trkpt lat="39.149785" lon="-8.72347333">
        <ele>7.0</ele>
        <time>2019-05-16T16:42:32.901Z</time>
      </trkpt>
      <trkpt lat="39.149785" lon="-8.72347333">
        <ele>7.0</ele>
        <time>2019-05-16T16:42:33.913Z</time>
      </trkpt>
      <trkpt lat="39.14983333" lon="-8.72343667">
        <ele>7.0</ele>
        <time>2019-05-16T16:42:34.934Z</time>
      </trkpt>
      <trkpt lat="39.14983333" lon="-8.72343667">
        <ele>7.0</ele>
        <time>2019-05-16T16:42:35.902Z</time>
      </trkpt>
      <trkpt lat="39.149885" lon="-8.72340333">
        <ele>7.0</ele>
        <time>2019-05-16T16:42:36.923Z</time>
      </trkpt>
      <trkpt lat="39.14991" lon="-8.723385">
        <ele>7.0</ele>
        <time>2019-05-16T16:42:37.923Z</time>
      </trkpt>
      <trkpt lat="39.14991" lon="-8.723385">
        <ele>7.0</ele>
        <time>2019-05-16T16:42:38.909Z</time>
      </trkpt>
      <trkpt lat="39.14995833" lon="-8.72334833">
        <ele>7.0</ele>
        <time>2019-05-16T16:42:39.926Z</time>
      </trkpt>
      <trkpt lat="39.14995833" lon="-8.72334833">
        <ele>7.0</ele>
        <time>2019-05-16T16:42:40.926Z</time>
      </trkpt>
      <trkpt lat="39.15000833" lon="-8.72331333">
        <ele>7.0</ele>
        <time>2019-05-16T16:42:41.907Z</time>
      </trkpt>
      <trkpt lat="39.15000833" lon="-8.72331333">
        <ele>7.0</ele>
        <time>2019-05-16T16:42:42.903Z</time>
      </trkpt>
      <trkpt lat="39.15005333" lon="-8.72327667">
        <ele>7.0</ele>
        <time>2019-05-16T16:42:43.922Z</time>
      </trkpt>
      <trkpt lat="39.15007667" lon="-8.72325833">
        <ele>7.0</ele>
        <time>2019-05-16T16:42:44.912Z</time>
      </trkpt>
      <trkpt lat="39.15007667" lon="-8.72325833">
        <ele>7.0</ele>
        <time>2019-05-16T16:42:45.903Z</time>
      </trkpt>
      <trkpt lat="39.15012333" lon="-8.72322167">
        <ele>7.0</ele>
        <time>2019-05-16T16:42:46.923Z</time>
      </trkpt>
      <trkpt lat="39.15012333" lon="-8.72322167">
        <ele>7.0</ele>
        <time>2019-05-16T16:42:47.903Z</time>
      </trkpt>
      <trkpt lat="39.150175" lon="-8.72319167">
        <ele>7.0</ele>
        <time>2019-05-16T16:42:48.928Z</time>
      </trkpt>
      <trkpt lat="39.150175" lon="-8.72319167">
        <ele>7.0</ele>
        <time>2019-05-16T16:42:49.920Z</time>
      </trkpt>
      <trkpt lat="39.15022333" lon="-8.723155">
        <ele>7.0</ele>
        <time>2019-05-16T16:42:50.924Z</time>
      </trkpt>
      <trkpt lat="39.15022333" lon="-8.723155">
        <ele>7.0</ele>
        <time>2019-05-16T16:42:51.913Z</time>
      </trkpt>
      <trkpt lat="39.150275" lon="-8.72312167">
        <ele>7.0</ele>
        <time>2019-05-16T16:42:52.901Z</time>
      </trkpt>
      <trkpt lat="39.150275" lon="-8.72312167">
        <ele>7.0</ele>
        <time>2019-05-16T16:42:53.929Z</time>
      </trkpt>
      <trkpt lat="39.15032833" lon="-8.72309167">
        <ele>7.0</ele>
        <time>2019-05-16T16:42:54.904Z</time>
      </trkpt>
      <trkpt lat="39.15032833" lon="-8.72309167">
        <ele>7.0</ele>
        <time>2019-05-16T16:42:55.924Z</time>
      </trkpt>
      <trkpt lat="39.150385" lon="-8.72305333">
        <ele>6.0</ele>
        <time>2019-05-16T16:42:56.911Z</time>
      </trkpt>
      <trkpt lat="39.150385" lon="-8.72305333">
        <ele>6.0</ele>
        <time>2019-05-16T16:42:57.913Z</time>
      </trkpt>
      <trkpt lat="39.15044333" lon="-8.723015">
        <ele>6.0</ele>
        <time>2019-05-16T16:42:58.937Z</time>
      </trkpt>
      <trkpt lat="39.15044333" lon="-8.723015">
        <ele>6.0</ele>
        <time>2019-05-16T16:42:59.929Z</time>
      </trkpt>
      <trkpt lat="39.150495" lon="-8.72298333">
        <ele>6.0</ele>
        <time>2019-05-16T16:43:00.912Z</time>
      </trkpt>
      <trkpt lat="39.150495" lon="-8.72298333">
        <ele>6.0</ele>
        <time>2019-05-16T16:43:01.907Z</time>
      </trkpt>
      <trkpt lat="39.15054" lon="-8.72295833">
        <ele>5.0</ele>
        <time>2019-05-16T16:43:02.931Z</time>
      </trkpt>
      <trkpt lat="39.15054" lon="-8.72295833">
        <ele>5.0</ele>
        <time>2019-05-16T16:43:03.913Z</time>
      </trkpt>
      <trkpt lat="39.15058833" lon="-8.72293167">
        <ele>5.0</ele>
        <time>2019-05-16T16:43:04.911Z</time>
      </trkpt>
      <trkpt lat="39.15058833" lon="-8.72293167">
        <ele>5.0</ele>
        <time>2019-05-16T16:43:05.933Z</time>
      </trkpt>
      <trkpt lat="39.15063833" lon="-8.722905">
        <ele>6.0</ele>
        <time>2019-05-16T16:43:06.911Z</time>
      </trkpt>
      <trkpt lat="39.15063833" lon="-8.722905">
        <ele>6.0</ele>
        <time>2019-05-16T16:43:07.933Z</time>
      </trkpt>
      <trkpt lat="39.15069" lon="-8.72288167">
        <ele>6.0</ele>
        <time>2019-05-16T16:43:08.916Z</time>
      </trkpt>
      <trkpt lat="39.15069" lon="-8.72288167">
        <ele>6.0</ele>
        <time>2019-05-16T16:43:09.934Z</time>
      </trkpt>
      <trkpt lat="39.15074167" lon="-8.722855">
        <ele>6.0</ele>
        <time>2019-05-16T16:43:10.912Z</time>
      </trkpt>
      <trkpt lat="39.15074167" lon="-8.722855">
        <ele>6.0</ele>
        <time>2019-05-16T16:43:11.911Z</time>
      </trkpt>
      <trkpt lat="39.15074167" lon="-8.722855">
        <ele>6.0</ele>
        <time>2019-05-16T16:43:12.901Z</time>
      </trkpt>
      <trkpt lat="39.15082" lon="-8.72281667">
        <ele>7.0</ele>
        <time>2019-05-16T16:43:13.918Z</time>
      </trkpt>
      <trkpt lat="39.150845" lon="-8.722805">
        <ele>6.0</ele>
        <time>2019-05-16T16:43:14.931Z</time>
      </trkpt>
      <trkpt lat="39.150845" lon="-8.722805">
        <ele>6.0</ele>
        <time>2019-05-16T16:43:15.916Z</time>
      </trkpt>
      <trkpt lat="39.15089667" lon="-8.72277833">
        <ele>6.0</ele>
        <time>2019-05-16T16:43:16.936Z</time>
      </trkpt>
      <trkpt lat="39.15089667" lon="-8.72277833">
        <ele>6.0</ele>
        <time>2019-05-16T16:43:17.913Z</time>
      </trkpt>
      <trkpt lat="39.15094667" lon="-8.72275333">
        <ele>6.0</ele>
        <time>2019-05-16T16:43:18.965Z</time>
      </trkpt>
      <trkpt lat="39.15094667" lon="-8.72275333">
        <ele>6.0</ele>
        <time>2019-05-16T16:43:19.936Z</time>
      </trkpt>
      <trkpt lat="39.150995" lon="-8.72272833">
        <ele>7.0</ele>
        <time>2019-05-16T16:43:20.983Z</time>
      </trkpt>
      <trkpt lat="39.150995" lon="-8.72272833">
        <ele>7.0</ele>
        <time>2019-05-16T16:43:21.899Z</time>
      </trkpt>
      <trkpt lat="39.15104167" lon="-8.722695">
        <ele>6.0</ele>
        <time>2019-05-16T16:43:22.919Z</time>
      </trkpt>
      <trkpt lat="39.15104167" lon="-8.722695">
        <ele>6.0</ele>
        <time>2019-05-16T16:43:23.928Z</time>
      </trkpt>
      <trkpt lat="39.15109" lon="-8.72267">
        <ele>6.0</ele>
        <time>2019-05-16T16:43:24.920Z</time>
      </trkpt>
      <trkpt lat="39.15109" lon="-8.72267">
        <ele>6.0</ele>
        <time>2019-05-16T16:43:25.902Z</time>
      </trkpt>
      <trkpt lat="39.15114333" lon="-8.72264">
        <ele>6.0</ele>
        <time>2019-05-16T16:43:26.919Z</time>
      </trkpt>
      <trkpt lat="39.15114333" lon="-8.72264">
        <ele>6.0</ele>
        <time>2019-05-16T16:43:27.900Z</time>
      </trkpt>
      <trkpt lat="39.1512" lon="-8.72261333">
        <ele>6.0</ele>
        <time>2019-05-16T16:43:28.921Z</time>
      </trkpt>
      <trkpt lat="39.1512" lon="-8.72261333">
        <ele>6.0</ele>
        <time>2019-05-16T16:43:29.913Z</time>
      </trkpt>
      <trkpt lat="39.15125333" lon="-8.72258167">
        <ele>5.0</ele>
        <time>2019-05-16T16:43:30.939Z</time>
      </trkpt>
      <trkpt lat="39.15125333" lon="-8.72258167">
        <ele>5.0</ele>
        <time>2019-05-16T16:43:31.906Z</time>
      </trkpt>
      <trkpt lat="39.15130667" lon="-8.72254833">
        <ele>6.0</ele>
        <time>2019-05-16T16:43:32.941Z</time>
      </trkpt>
      <trkpt lat="39.15130667" lon="-8.72254833">
        <ele>6.0</ele>
        <time>2019-05-16T16:43:33.933Z</time>
      </trkpt>
      <trkpt lat="39.15136167" lon="-8.72252167">
        <ele>6.0</ele>
        <time>2019-05-16T16:43:34.902Z</time>
      </trkpt>
      <trkpt lat="39.15136167" lon="-8.72252167">
        <ele>6.0</ele>
        <time>2019-05-16T16:43:35.929Z</time>
      </trkpt>
      <trkpt lat="39.151415" lon="-8.72249167">
        <ele>6.0</ele>
        <time>2019-05-16T16:43:36.901Z</time>
      </trkpt>
      <trkpt lat="39.151415" lon="-8.72249167">
        <ele>6.0</ele>
        <time>2019-05-16T16:43:37.898Z</time>
      </trkpt>
      <trkpt lat="39.15146833" lon="-8.72246333">
        <ele>5.0</ele>
        <time>2019-05-16T16:43:38.912Z</time>
      </trkpt>
      <trkpt lat="39.15146833" lon="-8.72246333">
        <ele>5.0</ele>
        <time>2019-05-16T16:43:39.929Z</time>
      </trkpt>
      <trkpt lat="39.15152333" lon="-8.722435">
        <ele>5.0</ele>
        <time>2019-05-16T16:43:40.911Z</time>
      </trkpt>
      <trkpt lat="39.15152333" lon="-8.722435">
        <ele>5.0</ele>
        <time>2019-05-16T16:43:41.934Z</time>
      </trkpt>
      <trkpt lat="39.15157667" lon="-8.72240167">
        <ele>5.0</ele>
        <time>2019-05-16T16:43:42.911Z</time>
      </trkpt>
      <trkpt lat="39.15157667" lon="-8.72240167">
        <ele>5.0</ele>
        <time>2019-05-16T16:43:43.905Z</time>
      </trkpt>
      <trkpt lat="39.15163167" lon="-8.72236833">
        <ele>6.0</ele>
        <time>2019-05-16T16:43:44.930Z</time>
      </trkpt>
      <trkpt lat="39.15163167" lon="-8.72236833">
        <ele>6.0</ele>
        <time>2019-05-16T16:43:45.932Z</time>
      </trkpt>
      <trkpt lat="39.15168" lon="-8.72234">
        <ele>6.0</ele>
        <time>2019-05-16T16:43:46.907Z</time>
      </trkpt>
      <trkpt lat="39.15168" lon="-8.72234">
        <ele>6.0</ele>
        <time>2019-05-16T16:43:47.926Z</time>
      </trkpt>
      <trkpt lat="39.15172167" lon="-8.72232167">
        <ele>6.0</ele>
        <time>2019-05-16T16:43:48.917Z</time>
      </trkpt>
      <trkpt lat="39.15174" lon="-8.72232333">
        <ele>6.0</ele>
        <time>2019-05-16T16:43:49.932Z</time>
      </trkpt>
      <trkpt lat="39.15175" lon="-8.72233333">
        <ele>7.0</ele>
        <time>2019-05-16T16:43:50.920Z</time>
      </trkpt>
      <trkpt lat="39.15175" lon="-8.72233333">
        <ele>7.0</ele>
        <time>2019-05-16T16:43:51.916Z</time>
      </trkpt>
      <trkpt lat="39.151755" lon="-8.72235167">
        <ele>7.0</ele>
        <time>2019-05-16T16:43:52.938Z</time>
      </trkpt>
      <trkpt lat="39.151755" lon="-8.72235167">
        <ele>7.0</ele>
        <time>2019-05-16T16:43:53.909Z</time>
      </trkpt>
      <trkpt lat="39.15175667" lon="-8.72235167">
        <ele>7.0</ele>
        <time>2019-05-16T16:43:54.924Z</time>
      </trkpt>
      <trkpt lat="39.15175667" lon="-8.72235167">
        <ele>7.0</ele>
        <time>2019-05-16T16:43:55.925Z</time>
      </trkpt>
      <trkpt lat="39.15175667" lon="-8.72235167">
        <ele>7.0</ele>
        <time>2019-05-16T16:43:56.933Z</time>
      </trkpt>
      <trkpt lat="39.15175667" lon="-8.72235167">
        <ele>7.0</ele>
        <time>2019-05-16T16:43:57.898Z</time>
      </trkpt>
      <trkpt lat="39.15175667" lon="-8.72235167">
        <ele>7.0</ele>
        <time>2019-05-16T16:43:58.904Z</time>
      </trkpt>
      <trkpt lat="39.15175667" lon="-8.72235167">
        <ele>7.0</ele>
        <time>2019-05-16T16:43:59.914Z</time>
      </trkpt>
      <trkpt lat="39.15175667" lon="-8.72235167">
        <ele>7.0</ele>
        <time>2019-05-16T16:44:00.904Z</time>
      </trkpt>
      <trkpt lat="39.15175667" lon="-8.72235167">
        <ele>7.0</ele>
        <time>2019-05-16T16:44:01.903Z</time>
      </trkpt>
      <trkpt lat="39.15175667" lon="-8.72235167">
        <ele>7.0</ele>
        <time>2019-05-16T16:44:02.905Z</time>
      </trkpt>
      <trkpt lat="39.15175667" lon="-8.72235167">
        <ele>7.0</ele>
        <time>2019-05-16T16:44:03.897Z</time>
      </trkpt>
      <trkpt lat="39.15175667" lon="-8.72235167">
        <ele>7.0</ele>
        <time>2019-05-16T16:44:04.902Z</time>
      </trkpt>
      <trkpt lat="39.15175667" lon="-8.72235167">
        <ele>7.0</ele>
        <time>2019-05-16T16:44:05.898Z</time>
      </trkpt>
      <trkpt lat="39.15175667" lon="-8.72235167">
        <ele>7.0</ele>
        <time>2019-05-16T16:44:06.903Z</time>
      </trkpt>
      <trkpt lat="39.15175667" lon="-8.72235167">
        <ele>7.0</ele>
        <time>2019-05-16T16:44:07.897Z</time>
      </trkpt>
      <trkpt lat="39.15175667" lon="-8.72235167">
        <ele>7.0</ele>
        <time>2019-05-16T16:44:08.903Z</time>
      </trkpt>
      <trkpt lat="39.15175667" lon="-8.72235167">
        <ele>7.0</ele>
        <time>2019-05-16T16:44:09.897Z</time>
      </trkpt>
      <trkpt lat="39.15175667" lon="-8.72235167">
        <ele>7.0</ele>
        <time>2019-05-16T16:44:10.902Z</time>
      </trkpt>
      <trkpt lat="39.15175667" lon="-8.72235167">
        <ele>7.0</ele>
        <time>2019-05-16T16:44:11.897Z</time>
      </trkpt>
      <trkpt lat="39.15175667" lon="-8.72235167">
        <ele>7.0</ele>
        <time>2019-05-16T16:44:12.902Z</time>
      </trkpt>
      <trkpt lat="39.15175667" lon="-8.72235167">
        <ele>7.0</ele>
        <time>2019-05-16T16:44:13.897Z</time>
      </trkpt>
      <trkpt lat="39.15175667" lon="-8.72235167">
        <ele>7.0</ele>
        <time>2019-05-16T16:44:14.903Z</time>
      </trkpt>
      <trkpt lat="39.15175667" lon="-8.72235167">
        <ele>7.0</ele>
        <time>2019-05-16T16:44:15.897Z</time>
      </trkpt>
      <trkpt lat="39.15175667" lon="-8.72235167">
        <ele>7.0</ele>
        <time>2019-05-16T16:44:16.923Z</time>
      </trkpt>
      <trkpt lat="39.15175667" lon="-8.72235167">
        <ele>7.0</ele>
        <time>2019-05-16T16:44:17.922Z</time>
      </trkpt>
      <trkpt lat="39.15175667" lon="-8.72235167">
        <ele>7.0</ele>
        <time>2019-05-16T16:44:18.907Z</time>
      </trkpt>
      <trkpt lat="39.15175667" lon="-8.72235167">
        <ele>7.0</ele>
        <time>2019-05-16T16:44:19.897Z</time>
      </trkpt>
      <trkpt lat="39.15175667" lon="-8.72235167">
        <ele>7.0</ele>
        <time>2019-05-16T16:44:20.933Z</time>
      </trkpt>
      <trkpt lat="39.15175667" lon="-8.72235167">
        <ele>7.0</ele>
        <time>2019-05-16T16:44:21.906Z</time>
      </trkpt>
      <trkpt lat="39.15175667" lon="-8.72235167">
        <ele>7.0</ele>
        <time>2019-05-16T16:44:22.912Z</time>
      </trkpt>
      <trkpt lat="39.15175667" lon="-8.72235167">
        <ele>7.0</ele>
        <time>2019-05-16T16:44:23.922Z</time>
      </trkpt>
      <trkpt lat="39.15175667" lon="-8.72235167">
        <ele>7.0</ele>
        <time>2019-05-16T16:44:24.928Z</time>
      </trkpt>
      <trkpt lat="39.15175667" lon="-8.72235167">
        <ele>7.0</ele>
        <time>2019-05-16T16:44:25.934Z</time>
      </trkpt>
      <trkpt lat="39.15175667" lon="-8.72235167">
        <ele>7.0</ele>
        <time>2019-05-16T16:44:26.922Z</time>
      </trkpt>
      <trkpt lat="39.15175667" lon="-8.72235167">
        <ele>7.0</ele>
        <time>2019-05-16T16:44:27.908Z</time>
      </trkpt>
      <trkpt lat="39.15175667" lon="-8.72235167">
        <ele>7.0</ele>
        <time>2019-05-16T16:44:28.902Z</time>
      </trkpt>
      <trkpt lat="39.15175667" lon="-8.72235167">
        <ele>7.0</ele>
        <time>2019-05-16T16:44:29.897Z</time>
      </trkpt>
      <trkpt lat="39.15175667" lon="-8.72235167">
        <ele>7.0</ele>
        <time>2019-05-16T16:44:30.915Z</time>
      </trkpt>
      <trkpt lat="39.15175667" lon="-8.72235167">
        <ele>7.0</ele>
        <time>2019-05-16T16:44:31.902Z</time>
      </trkpt>
      <trkpt lat="39.15175667" lon="-8.72235167">
        <ele>7.0</ele>
        <time>2019-05-16T16:44:32.904Z</time>
      </trkpt>
      <trkpt lat="39.15175667" lon="-8.72235167">
        <ele>7.0</ele>
        <time>2019-05-16T16:44:33.897Z</time>
      </trkpt>
      <trkpt lat="39.15175667" lon="-8.72235167">
        <ele>7.0</ele>
        <time>2019-05-16T16:44:34.903Z</time>
      </trkpt>
      <trkpt lat="39.15175667" lon="-8.72235167">
        <ele>7.0</ele>
        <time>2019-05-16T16:44:35.897Z</time>
      </trkpt>
      <trkpt lat="39.15175667" lon="-8.72235167">
        <ele>7.0</ele>
        <time>2019-05-16T16:44:36.902Z</time>
      </trkpt>
      <trkpt lat="39.15175667" lon="-8.72235167">
        <ele>7.0</ele>
        <time>2019-05-16T16:44:37.897Z</time>
      </trkpt>
      <trkpt lat="39.15175667" lon="-8.72235167">
        <ele>7.0</ele>
        <time>2019-05-16T16:44:38.905Z</time>
      </trkpt>
      <trkpt lat="39.15175667" lon="-8.72235167">
        <ele>7.0</ele>
        <time>2019-05-16T16:44:39.903Z</time>
      </trkpt>
      <trkpt lat="39.15175667" lon="-8.72235167">
        <ele>7.0</ele>
        <time>2019-05-16T16:44:40.900Z</time>
      </trkpt>
      <trkpt lat="39.15175667" lon="-8.72235167">
        <ele>7.0</ele>
        <time>2019-05-16T16:44:41.901Z</time>
      </trkpt>
      <trkpt lat="39.15175667" lon="-8.72235167">
        <ele>7.0</ele>
        <time>2019-05-16T16:44:42.897Z</time>
      </trkpt>
      <trkpt lat="39.15175667" lon="-8.72235167">
        <ele>7.0</ele>
        <time>2019-05-16T16:44:43.902Z</time>
      </trkpt>
      <trkpt lat="39.15175667" lon="-8.72235167">
        <ele>7.0</ele>
        <time>2019-05-16T16:44:44.905Z</time>
      </trkpt>
      <trkpt lat="39.15175667" lon="-8.72235167">
        <ele>7.0</ele>
        <time>2019-05-16T16:44:45.897Z</time>
      </trkpt>
      <trkpt lat="39.15175667" lon="-8.72235167">
        <ele>7.0</ele>
        <time>2019-05-16T16:44:46.898Z</time>
      </trkpt>
      <trkpt lat="39.15175667" lon="-8.72235167">
        <ele>7.0</ele>
        <time>2019-05-16T16:44:47.902Z</time>
      </trkpt>
      <trkpt lat="39.15175667" lon="-8.72235167">
        <ele>7.0</ele>
        <time>2019-05-16T16:44:48.903Z</time>
      </trkpt>
      <trkpt lat="39.15175667" lon="-8.72235167">
        <ele>7.0</ele>
        <time>2019-05-16T16:44:49.897Z</time>
      </trkpt>
      <trkpt lat="39.15175667" lon="-8.72235167">
        <ele>7.0</ele>
        <time>2019-05-16T16:44:50.905Z</time>
      </trkpt>
      <trkpt lat="39.15175667" lon="-8.72235167">
        <ele>7.0</ele>
        <time>2019-05-16T16:44:51.897Z</time>
      </trkpt>
      <trkpt lat="39.15175667" lon="-8.72235167">
        <ele>7.0</ele>
        <time>2019-05-16T16:44:52.902Z</time>
      </trkpt>
      <trkpt lat="39.15175667" lon="-8.72235167">
        <ele>7.0</ele>
        <time>2019-05-16T16:44:53.897Z</time>
      </trkpt>
      <trkpt lat="39.15175667" lon="-8.72235167">
        <ele>7.0</ele>
        <time>2019-05-16T16:44:54.902Z</time>
      </trkpt>
      <trkpt lat="39.15175667" lon="-8.72235167">
        <ele>7.0</ele>
        <time>2019-05-16T16:44:55.897Z</time>
      </trkpt>
      <trkpt lat="39.15175667" lon="-8.72235167">
        <ele>7.0</ele>
        <time>2019-05-16T16:44:56.936Z</time>
      </trkpt>
      <trkpt lat="39.15175667" lon="-8.72235167">
        <ele>7.0</ele>
        <time>2019-05-16T16:44:57.903Z</time>
      </trkpt>
      <trkpt lat="39.15175667" lon="-8.72235167">
        <ele>7.0</ele>
        <time>2019-05-16T16:44:58.897Z</time>
      </trkpt>
      <trkpt lat="39.15175667" lon="-8.72235167">
        <ele>7.0</ele>
        <time>2019-05-16T16:44:59.900Z</time>
      </trkpt>
      <trkpt lat="39.15175667" lon="-8.72235167">
        <ele>7.0</ele>
        <time>2019-05-16T16:45:00.902Z</time>
      </trkpt>
      <trkpt lat="39.15175667" lon="-8.72235167">
        <ele>7.0</ele>
        <time>2019-05-16T16:45:01.901Z</time>
      </trkpt>
      <trkpt lat="39.15175667" lon="-8.72235167">
        <ele>7.0</ele>
        <time>2019-05-16T16:45:02.905Z</time>
      </trkpt>
      <trkpt lat="39.15175667" lon="-8.72235167">
        <ele>7.0</ele>
        <time>2019-05-16T16:45:03.897Z</time>
      </trkpt>
      <trkpt lat="39.15175667" lon="-8.72235167">
        <ele>7.0</ele>
        <time>2019-05-16T16:45:04.899Z</time>
      </trkpt>
      <trkpt lat="39.15175667" lon="-8.72235167">
        <ele>7.0</ele>
        <time>2019-05-16T16:45:05.897Z</time>
      </trkpt>
      <trkpt lat="39.15175667" lon="-8.72235167">
        <ele>7.0</ele>
        <time>2019-05-16T16:45:06.934Z</time>
      </trkpt>
      <trkpt lat="39.15175667" lon="-8.72235167">
        <ele>7.0</ele>
        <time>2019-05-16T16:45:07.902Z</time>
      </trkpt>
      <trkpt lat="39.15175667" lon="-8.72235167">
        <ele>7.0</ele>
        <time>2019-05-16T16:45:08.901Z</time>
      </trkpt>
      <trkpt lat="39.15175667" lon="-8.72235167">
        <ele>7.0</ele>
        <time>2019-05-16T16:45:09.897Z</time>
      </trkpt>
      <trkpt lat="39.15175667" lon="-8.72235167">
        <ele>7.0</ele>
        <time>2019-05-16T16:45:10.921Z</time>
      </trkpt>
      <trkpt lat="39.15175667" lon="-8.72235167">
        <ele>7.0</ele>
        <time>2019-05-16T16:45:11.907Z</time>
      </trkpt>
      <trkpt lat="39.15175667" lon="-8.72235167">
        <ele>7.0</ele>
        <time>2019-05-16T16:45:12.902Z</time>
      </trkpt>
      <trkpt lat="39.15175667" lon="-8.72235167">
        <ele>7.0</ele>
        <time>2019-05-16T16:45:13.897Z</time>
      </trkpt>
      <trkpt lat="39.15175667" lon="-8.72235167">
        <ele>7.0</ele>
        <time>2019-05-16T16:45:14.904Z</time>
      </trkpt>
      <trkpt lat="39.15175667" lon="-8.72235167">
        <ele>7.0</ele>
        <time>2019-05-16T16:45:15.898Z</time>
      </trkpt>
      <trkpt lat="39.15175667" lon="-8.72235167">
        <ele>7.0</ele>
        <time>2019-05-16T16:45:16.903Z</time>
      </trkpt>
      <trkpt lat="39.15175667" lon="-8.72235167">
        <ele>7.0</ele>
        <time>2019-05-16T16:45:17.903Z</time>
      </trkpt>
      <trkpt lat="39.15175667" lon="-8.72235167">
        <ele>7.0</ele>
        <time>2019-05-16T16:45:18.897Z</time>
      </trkpt>
      <trkpt lat="39.15175667" lon="-8.72235167">
        <ele>7.0</ele>
        <time>2019-05-16T16:45:19.903Z</time>
      </trkpt>
      <trkpt lat="39.15175667" lon="-8.72235167">
        <ele>7.0</ele>
        <time>2019-05-16T16:45:20.904Z</time>
      </trkpt>
      <trkpt lat="39.15175667" lon="-8.72235167">
        <ele>7.0</ele>
        <time>2019-05-16T16:45:21.929Z</time>
      </trkpt>
      <trkpt lat="39.15175667" lon="-8.72235167">
        <ele>7.0</ele>
        <time>2019-05-16T16:45:22.935Z</time>
      </trkpt>
      <trkpt lat="39.15175667" lon="-8.72235167">
        <ele>7.0</ele>
        <time>2019-05-16T16:45:23.901Z</time>
      </trkpt>
      <trkpt lat="39.15175667" lon="-8.72235167">
        <ele>7.0</ele>
        <time>2019-05-16T16:45:24.902Z</time>
      </trkpt>
      <trkpt lat="39.15175667" lon="-8.72235167">
        <ele>7.0</ele>
        <time>2019-05-16T16:45:25.897Z</time>
      </trkpt>
      <trkpt lat="39.15175667" lon="-8.72235167">
        <ele>7.0</ele>
        <time>2019-05-16T16:45:26.907Z</time>
      </trkpt>
      <trkpt lat="39.15175667" lon="-8.72235167">
        <ele>7.0</ele>
        <time>2019-05-16T16:45:27.912Z</time>
      </trkpt>
      <trkpt lat="39.15175667" lon="-8.72235167">
        <ele>7.0</ele>
        <time>2019-05-16T16:45:28.902Z</time>
      </trkpt>
      <trkpt lat="39.15175667" lon="-8.72235167">
        <ele>7.0</ele>
        <time>2019-05-16T16:45:29.901Z</time>
      </trkpt>
      <trkpt lat="39.15175667" lon="-8.72235167">
        <ele>7.0</ele>
        <time>2019-05-16T16:45:30.903Z</time>
      </trkpt>
      <trkpt lat="39.15175667" lon="-8.72235167">
        <ele>7.0</ele>
        <time>2019-05-16T16:45:31.897Z</time>
      </trkpt>
      <trkpt lat="39.15175667" lon="-8.72235167">
        <ele>7.0</ele>
        <time>2019-05-16T16:45:32.904Z</time>
      </trkpt>
      <trkpt lat="39.15175667" lon="-8.72235167">
        <ele>7.0</ele>
        <time>2019-05-16T16:45:33.897Z</time>
      </trkpt>
      <trkpt lat="39.15175667" lon="-8.72235167">
        <ele>7.0</ele>
        <time>2019-05-16T16:45:34.902Z</time>
      </trkpt>
      <trkpt lat="39.15175667" lon="-8.72235167">
        <ele>7.0</ele>
        <time>2019-05-16T16:45:35.898Z</time>
      </trkpt>
      <trkpt lat="39.15175667" lon="-8.72235167">
        <ele>7.0</ele>
        <time>2019-05-16T16:45:36.911Z</time>
      </trkpt>
      <trkpt lat="39.15175667" lon="-8.72235167">
        <ele>7.0</ele>
        <time>2019-05-16T16:45:37.897Z</time>
      </trkpt>
      <trkpt lat="39.15175667" lon="-8.72235167">
        <ele>7.0</ele>
        <time>2019-05-16T16:45:38.905Z</time>
      </trkpt>
      <trkpt lat="39.15175667" lon="-8.72235167">
        <ele>7.0</ele>
        <time>2019-05-16T16:45:39.901Z</time>
      </trkpt>
      <trkpt lat="39.15175667" lon="-8.72235167">
        <ele>7.0</ele>
        <time>2019-05-16T16:45:40.905Z</time>
      </trkpt>
      <trkpt lat="39.15175667" lon="-8.72235167">
        <ele>7.0</ele>
        <time>2019-05-16T16:45:41.897Z</time>
      </trkpt>
      <trkpt lat="39.15175667" lon="-8.72235167">
        <ele>7.0</ele>
        <time>2019-05-16T16:45:42.903Z</time>
      </trkpt>
      <trkpt lat="39.15175667" lon="-8.72235167">
        <ele>7.0</ele>
        <time>2019-05-16T16:45:43.897Z</time>
      </trkpt>
      <trkpt lat="39.15175667" lon="-8.72235167">
        <ele>7.0</ele>
        <time>2019-05-16T16:45:44.905Z</time>
      </trkpt>
      <trkpt lat="39.15175667" lon="-8.72235167">
        <ele>7.0</ele>
        <time>2019-05-16T16:45:45.897Z</time>
      </trkpt>
      <trkpt lat="39.15175667" lon="-8.72235167">
        <ele>7.0</ele>
        <time>2019-05-16T16:45:46.911Z</time>
      </trkpt>
      <trkpt lat="39.15175667" lon="-8.72235167">
        <ele>7.0</ele>
        <time>2019-05-16T16:45:47.897Z</time>
      </trkpt>
      <trkpt lat="39.15175667" lon="-8.72235167">
        <ele>7.0</ele>
        <time>2019-05-16T16:45:48.903Z</time>
      </trkpt>
      <trkpt lat="39.15175667" lon="-8.72235167">
        <ele>7.0</ele>
        <time>2019-05-16T16:45:49.902Z</time>
      </trkpt>
      <trkpt lat="39.15175667" lon="-8.72235167">
        <ele>7.0</ele>
        <time>2019-05-16T16:45:50.904Z</time>
      </trkpt>
      <trkpt lat="39.15175667" lon="-8.72235167">
        <ele>7.0</ele>
        <time>2019-05-16T16:45:51.897Z</time>
      </trkpt>
      <trkpt lat="39.15179167" lon="-8.72233">
        <ele>7.0</ele>
        <time>2019-05-16T16:45:52.902Z</time>
      </trkpt>
      <trkpt lat="39.15179167" lon="-8.72233">
        <ele>7.0</ele>
        <time>2019-05-16T16:45:53.897Z</time>
      </trkpt>
      <trkpt lat="39.151815" lon="-8.72231333">
        <ele>7.0</ele>
        <time>2019-05-16T16:45:54.902Z</time>
      </trkpt>
      <trkpt lat="39.151815" lon="-8.72231333">
        <ele>7.0</ele>
        <time>2019-05-16T16:45:55.897Z</time>
      </trkpt>
      <trkpt lat="39.15183667" lon="-8.722295">
        <ele>7.0</ele>
        <time>2019-05-16T16:45:56.909Z</time>
      </trkpt>
      <trkpt lat="39.15183667" lon="-8.722295">
        <ele>7.0</ele>
        <time>2019-05-16T16:45:57.897Z</time>
      </trkpt>
      <trkpt lat="39.15187167" lon="-8.722275">
        <ele>7.0</ele>
        <time>2019-05-16T16:45:58.939Z</time>
      </trkpt>
      <trkpt lat="39.15187167" lon="-8.722275">
        <ele>7.0</ele>
        <time>2019-05-16T16:45:59.927Z</time>
      </trkpt>
      <trkpt lat="39.15191167" lon="-8.72225">
        <ele>7.0</ele>
        <time>2019-05-16T16:46:00.904Z</time>
      </trkpt>
      <trkpt lat="39.15191167" lon="-8.72225">
        <ele>7.0</ele>
        <time>2019-05-16T16:46:01.899Z</time>
      </trkpt>
      <trkpt lat="39.15196167" lon="-8.72222667">
        <ele>7.0</ele>
        <time>2019-05-16T16:46:02.923Z</time>
      </trkpt>
      <trkpt lat="39.15196167" lon="-8.72222667">
        <ele>7.0</ele>
        <time>2019-05-16T16:46:03.914Z</time>
      </trkpt>
      <trkpt lat="39.15201333" lon="-8.72220333">
        <ele>6.0</ele>
        <time>2019-05-16T16:46:04.930Z</time>
      </trkpt>
      <trkpt lat="39.15203833" lon="-8.72219167">
        <ele>7.0</ele>
        <time>2019-05-16T16:46:05.921Z</time>
      </trkpt>
      <trkpt lat="39.15203833" lon="-8.72219167">
        <ele>7.0</ele>
        <time>2019-05-16T16:46:06.936Z</time>
      </trkpt>
      <trkpt lat="39.15209167" lon="-8.72216">
        <ele>6.0</ele>
        <time>2019-05-16T16:46:07.923Z</time>
      </trkpt>
      <trkpt lat="39.15211833" lon="-8.722145">
        <ele>6.0</ele>
        <time>2019-05-16T16:46:08.932Z</time>
      </trkpt>
      <trkpt lat="39.15214333" lon="-8.72213167">
        <ele>6.0</ele>
        <time>2019-05-16T16:46:09.907Z</time>
      </trkpt>
      <trkpt lat="39.15214333" lon="-8.72213167">
        <ele>6.0</ele>
        <time>2019-05-16T16:46:10.904Z</time>
      </trkpt>
      <trkpt lat="39.15219667" lon="-8.72210667">
        <ele>6.0</ele>
        <time>2019-05-16T16:46:11.926Z</time>
      </trkpt>
      <trkpt lat="39.15219667" lon="-8.72210667">
        <ele>6.0</ele>
        <time>2019-05-16T16:46:12.902Z</time>
      </trkpt>
      <trkpt lat="39.15225167" lon="-8.72207667">
        <ele>6.0</ele>
        <time>2019-05-16T16:46:13.913Z</time>
      </trkpt>
      <trkpt lat="39.15228" lon="-8.72206167">
        <ele>6.0</ele>
        <time>2019-05-16T16:46:14.897Z</time>
      </trkpt>
      <trkpt lat="39.15228" lon="-8.72206167">
        <ele>6.0</ele>
        <time>2019-05-16T16:46:15.922Z</time>
      </trkpt>
      <trkpt lat="39.15233833" lon="-8.72203667">
        <ele>6.0</ele>
        <time>2019-05-16T16:46:16.906Z</time>
      </trkpt>
      <trkpt lat="39.15233833" lon="-8.72203667">
        <ele>6.0</ele>
        <time>2019-05-16T16:46:17.913Z</time>
      </trkpt>
      <trkpt lat="39.152395" lon="-8.72201">
        <ele>6.0</ele>
        <time>2019-05-16T16:46:18.932Z</time>
      </trkpt>
      <trkpt lat="39.152395" lon="-8.72201">
        <ele>6.0</ele>
        <time>2019-05-16T16:46:19.903Z</time>
      </trkpt>
      <trkpt lat="39.15245" lon="-8.72198667">
        <ele>6.0</ele>
        <time>2019-05-16T16:46:20.915Z</time>
      </trkpt>
      <trkpt lat="39.15245" lon="-8.72198667">
        <ele>6.0</ele>
        <time>2019-05-16T16:46:21.928Z</time>
      </trkpt>
      <trkpt lat="39.15250333" lon="-8.72196167">
        <ele>6.0</ele>
        <time>2019-05-16T16:46:22.916Z</time>
      </trkpt>
      <trkpt lat="39.15250333" lon="-8.72196167">
        <ele>6.0</ele>
        <time>2019-05-16T16:46:23.913Z</time>
      </trkpt>
      <trkpt lat="39.15255333" lon="-8.72194167">
        <ele>6.0</ele>
        <time>2019-05-16T16:46:24.927Z</time>
      </trkpt>
      <trkpt lat="39.15255333" lon="-8.72194167">
        <ele>6.0</ele>
        <time>2019-05-16T16:46:25.930Z</time>
      </trkpt>
      <trkpt lat="39.15260333" lon="-8.72192">
        <ele>6.0</ele>
        <time>2019-05-16T16:46:26.915Z</time>
      </trkpt>
      <trkpt lat="39.15260333" lon="-8.72192">
        <ele>6.0</ele>
        <time>2019-05-16T16:46:27.915Z</time>
      </trkpt>
      <trkpt lat="39.15265" lon="-8.72189667">
        <ele>6.0</ele>
        <time>2019-05-16T16:46:28.936Z</time>
      </trkpt>
      <trkpt lat="39.15265" lon="-8.72189667">
        <ele>6.0</ele>
        <time>2019-05-16T16:46:29.929Z</time>
      </trkpt>
      <trkpt lat="39.15269833" lon="-8.72187667">
        <ele>6.0</ele>
        <time>2019-05-16T16:46:30.912Z</time>
      </trkpt>
      <trkpt lat="39.15269833" lon="-8.72187667">
        <ele>6.0</ele>
        <time>2019-05-16T16:46:31.913Z</time>
      </trkpt>
      <trkpt lat="39.15275333" lon="-8.72185667">
        <ele>6.0</ele>
        <time>2019-05-16T16:46:32.932Z</time>
      </trkpt>
      <trkpt lat="39.15275333" lon="-8.72185667">
        <ele>6.0</ele>
        <time>2019-05-16T16:46:33.909Z</time>
      </trkpt>
      <trkpt lat="39.152805" lon="-8.72183">
        <ele>5.0</ele>
        <time>2019-05-16T16:46:34.929Z</time>
      </trkpt>
      <trkpt lat="39.152805" lon="-8.72183">
        <ele>5.0</ele>
        <time>2019-05-16T16:46:35.912Z</time>
      </trkpt>
      <trkpt lat="39.15284833" lon="-8.72180667">
        <ele>5.0</ele>
        <time>2019-05-16T16:46:36.898Z</time>
      </trkpt>
      <trkpt lat="39.15284833" lon="-8.72180667">
        <ele>5.0</ele>
        <time>2019-05-16T16:46:37.929Z</time>
      </trkpt>
      <trkpt lat="39.152895" lon="-8.72179">
        <ele>5.0</ele>
        <time>2019-05-16T16:46:38.910Z</time>
      </trkpt>
      <trkpt lat="39.152895" lon="-8.72179">
        <ele>5.0</ele>
        <time>2019-05-16T16:46:39.901Z</time>
      </trkpt>
      <trkpt lat="39.152945" lon="-8.721765">
        <ele>5.0</ele>
        <time>2019-05-16T16:46:40.923Z</time>
      </trkpt>
      <trkpt lat="39.152945" lon="-8.721765">
        <ele>5.0</ele>
        <time>2019-05-16T16:46:41.925Z</time>
      </trkpt>
      <trkpt lat="39.152995" lon="-8.72174667">
        <ele>5.0</ele>
        <time>2019-05-16T16:46:42.910Z</time>
      </trkpt>
      <trkpt lat="39.152995" lon="-8.72174667">
        <ele>5.0</ele>
        <time>2019-05-16T16:46:43.928Z</time>
      </trkpt>
      <trkpt lat="39.15304667" lon="-8.72172333">
        <ele>5.0</ele>
        <time>2019-05-16T16:46:44.911Z</time>
      </trkpt>
      <trkpt lat="39.15304667" lon="-8.72172333">
        <ele>5.0</ele>
        <time>2019-05-16T16:46:45.921Z</time>
      </trkpt>
      <trkpt lat="39.1531" lon="-8.72170167">
        <ele>5.0</ele>
        <time>2019-05-16T16:46:46.901Z</time>
      </trkpt>
      <trkpt lat="39.1531" lon="-8.72170167">
        <ele>5.0</ele>
        <time>2019-05-16T16:46:47.900Z</time>
      </trkpt>
      <trkpt lat="39.15315667" lon="-8.72168">
        <ele>5.0</ele>
        <time>2019-05-16T16:46:48.922Z</time>
      </trkpt>
      <trkpt lat="39.15315667" lon="-8.72168">
        <ele>5.0</ele>
        <time>2019-05-16T16:46:49.903Z</time>
      </trkpt>
      <trkpt lat="39.15321333" lon="-8.72166167">
        <ele>5.0</ele>
        <time>2019-05-16T16:46:50.921Z</time>
      </trkpt>
      <trkpt lat="39.15321333" lon="-8.72166167">
        <ele>5.0</ele>
        <time>2019-05-16T16:46:51.932Z</time>
      </trkpt>
      <trkpt lat="39.15326833" lon="-8.72163667">
        <ele>5.0</ele>
        <time>2019-05-16T16:46:52.901Z</time>
      </trkpt>
      <trkpt lat="39.15326833" lon="-8.72163667">
        <ele>5.0</ele>
        <time>2019-05-16T16:46:53.918Z</time>
      </trkpt>
      <trkpt lat="39.15332667" lon="-8.72161167">
        <ele>4.0</ele>
        <time>2019-05-16T16:46:54.915Z</time>
      </trkpt>
      <trkpt lat="39.15332667" lon="-8.72161167">
        <ele>4.0</ele>
        <time>2019-05-16T16:46:55.924Z</time>
      </trkpt>
      <trkpt lat="39.15338667" lon="-8.72159">
        <ele>4.0</ele>
        <time>2019-05-16T16:46:56.902Z</time>
      </trkpt>
      <trkpt lat="39.15338667" lon="-8.72159">
        <ele>4.0</ele>
        <time>2019-05-16T16:46:57.920Z</time>
      </trkpt>
      <trkpt lat="39.153445" lon="-8.72156833">
        <ele>4.0</ele>
        <time>2019-05-16T16:46:58.901Z</time>
      </trkpt>
      <trkpt lat="39.153445" lon="-8.72156833">
        <ele>4.0</ele>
        <time>2019-05-16T16:46:59.913Z</time>
      </trkpt>
      <trkpt lat="39.1535" lon="-8.72154667">
        <ele>4.0</ele>
        <time>2019-05-16T16:47:00.902Z</time>
      </trkpt>
      <trkpt lat="39.1535" lon="-8.72154667">
        <ele>4.0</ele>
        <time>2019-05-16T16:47:01.903Z</time>
      </trkpt>
      <trkpt lat="39.15355" lon="-8.72152667">
        <ele>4.0</ele>
        <time>2019-05-16T16:47:02.929Z</time>
      </trkpt>
      <trkpt lat="39.15355" lon="-8.72152667">
        <ele>4.0</ele>
        <time>2019-05-16T16:47:03.903Z</time>
      </trkpt>
      <trkpt lat="39.15360667" lon="-8.721505">
        <ele>4.0</ele>
        <time>2019-05-16T16:47:04.932Z</time>
      </trkpt>
      <trkpt lat="39.15360667" lon="-8.721505">
        <ele>4.0</ele>
        <time>2019-05-16T16:47:05.933Z</time>
      </trkpt>
      <trkpt lat="39.15366333" lon="-8.72148333">
        <ele>4.0</ele>
        <time>2019-05-16T16:47:06.900Z</time>
      </trkpt>
      <trkpt lat="39.15366333" lon="-8.72148333">
        <ele>4.0</ele>
        <time>2019-05-16T16:47:07.904Z</time>
      </trkpt>
      <trkpt lat="39.15372167" lon="-8.72145833">
        <ele>4.0</ele>
        <time>2019-05-16T16:47:08.898Z</time>
      </trkpt>
      <trkpt lat="39.15372167" lon="-8.72145833">
        <ele>4.0</ele>
        <time>2019-05-16T16:47:09.921Z</time>
      </trkpt>
      <trkpt lat="39.15378167" lon="-8.721435">
        <ele>4.0</ele>
        <time>2019-05-16T16:47:10.916Z</time>
      </trkpt>
      <trkpt lat="39.15378167" lon="-8.721435">
        <ele>4.0</ele>
        <time>2019-05-16T16:47:11.925Z</time>
      </trkpt>
      <trkpt lat="39.15384" lon="-8.72141333">
        <ele>4.0</ele>
        <time>2019-05-16T16:47:12.904Z</time>
      </trkpt>
      <trkpt lat="39.15384" lon="-8.72141333">
        <ele>4.0</ele>
        <time>2019-05-16T16:47:13.920Z</time>
      </trkpt>
      <trkpt lat="39.15389833" lon="-8.721395">
        <ele>4.0</ele>
        <time>2019-05-16T16:47:14.903Z</time>
      </trkpt>
      <trkpt lat="39.15389833" lon="-8.721395">
        <ele>4.0</ele>
        <time>2019-05-16T16:47:15.903Z</time>
      </trkpt>
      <trkpt lat="39.15395667" lon="-8.72137167">
        <ele>4.0</ele>
        <time>2019-05-16T16:47:16.901Z</time>
      </trkpt>
      <trkpt lat="39.15395667" lon="-8.72137167">
        <ele>4.0</ele>
        <time>2019-05-16T16:47:17.934Z</time>
      </trkpt>
      <trkpt lat="39.15401667" lon="-8.72135167">
        <ele>4.0</ele>
        <time>2019-05-16T16:47:18.911Z</time>
      </trkpt>
      <trkpt lat="39.15404833" lon="-8.72134167">
        <ele>4.0</ele>
        <time>2019-05-16T16:47:19.920Z</time>
      </trkpt>
      <trkpt lat="39.15404833" lon="-8.72134167">
        <ele>4.0</ele>
        <time>2019-05-16T16:47:20.903Z</time>
      </trkpt>
      <trkpt lat="39.15410667" lon="-8.72131833">
        <ele>4.0</ele>
        <time>2019-05-16T16:47:21.922Z</time>
      </trkpt>
      <trkpt lat="39.15410667" lon="-8.72131833">
        <ele>4.0</ele>
        <time>2019-05-16T16:47:22.899Z</time>
      </trkpt>
      <trkpt lat="39.15416833" lon="-8.72129667">
        <ele>4.0</ele>
        <time>2019-05-16T16:47:23.923Z</time>
      </trkpt>
      <trkpt lat="39.15416833" lon="-8.72129667">
        <ele>4.0</ele>
        <time>2019-05-16T16:47:24.929Z</time>
      </trkpt>
      <trkpt lat="39.15422833" lon="-8.72127333">
        <ele>4.0</ele>
        <time>2019-05-16T16:47:25.921Z</time>
      </trkpt>
      <trkpt lat="39.15426" lon="-8.721265">
        <ele>4.0</ele>
        <time>2019-05-16T16:47:26.912Z</time>
      </trkpt>
      <trkpt lat="39.15426" lon="-8.721265">
        <ele>4.0</ele>
        <time>2019-05-16T16:47:27.897Z</time>
      </trkpt>
      <trkpt lat="39.15432" lon="-8.72124667">
        <ele>3.0</ele>
        <time>2019-05-16T16:47:28.931Z</time>
      </trkpt>
      <trkpt lat="39.15432" lon="-8.72124667">
        <ele>3.0</ele>
        <time>2019-05-16T16:47:29.899Z</time>
      </trkpt>
      <trkpt lat="39.15438" lon="-8.72122">
        <ele>3.0</ele>
        <time>2019-05-16T16:47:30.920Z</time>
      </trkpt>
      <trkpt lat="39.15438" lon="-8.72122">
        <ele>3.0</ele>
        <time>2019-05-16T16:47:31.898Z</time>
      </trkpt>
      <trkpt lat="39.15443833" lon="-8.72119667">
        <ele>3.0</ele>
        <time>2019-05-16T16:47:32.921Z</time>
      </trkpt>
      <trkpt lat="39.15443833" lon="-8.72119667">
        <ele>3.0</ele>
        <time>2019-05-16T16:47:33.901Z</time>
      </trkpt>
      <trkpt lat="39.15449667" lon="-8.72116833">
        <ele>3.0</ele>
        <time>2019-05-16T16:47:34.927Z</time>
      </trkpt>
      <trkpt lat="39.15449667" lon="-8.72116833">
        <ele>3.0</ele>
        <time>2019-05-16T16:47:35.903Z</time>
      </trkpt>
      <trkpt lat="39.15455667" lon="-8.72114833">
        <ele>3.0</ele>
        <time>2019-05-16T16:47:36.924Z</time>
      </trkpt>
      <trkpt lat="39.15455667" lon="-8.72114833">
        <ele>3.0</ele>
        <time>2019-05-16T16:47:37.906Z</time>
      </trkpt>
      <trkpt lat="39.15462167" lon="-8.72112167">
        <ele>3.0</ele>
        <time>2019-05-16T16:47:38.928Z</time>
      </trkpt>
      <trkpt lat="39.15462167" lon="-8.72112167">
        <ele>3.0</ele>
        <time>2019-05-16T16:47:39.903Z</time>
      </trkpt>
      <trkpt lat="39.15468" lon="-8.72110333">
        <ele>3.0</ele>
        <time>2019-05-16T16:47:40.922Z</time>
      </trkpt>
      <trkpt lat="39.15468" lon="-8.72110333">
        <ele>3.0</ele>
        <time>2019-05-16T16:47:41.903Z</time>
      </trkpt>
      <trkpt lat="39.15474" lon="-8.72108">
        <ele>3.0</ele>
        <time>2019-05-16T16:47:42.922Z</time>
      </trkpt>
      <trkpt lat="39.15474" lon="-8.72108">
        <ele>3.0</ele>
        <time>2019-05-16T16:47:43.903Z</time>
      </trkpt>
      <trkpt lat="39.15480167" lon="-8.72105667">
        <ele>3.0</ele>
        <time>2019-05-16T16:47:44.924Z</time>
      </trkpt>
      <trkpt lat="39.15480167" lon="-8.72105667">
        <ele>3.0</ele>
        <time>2019-05-16T16:47:45.903Z</time>
      </trkpt>
      <trkpt lat="39.15486" lon="-8.72102167">
        <ele>3.0</ele>
        <time>2019-05-16T16:47:46.920Z</time>
      </trkpt>
      <trkpt lat="39.15486" lon="-8.72102167">
        <ele>3.0</ele>
        <time>2019-05-16T16:47:47.903Z</time>
      </trkpt>
      <trkpt lat="39.15491833" lon="-8.72099333">
        <ele>3.0</ele>
        <time>2019-05-16T16:47:48.920Z</time>
      </trkpt>
      <trkpt lat="39.15491833" lon="-8.72099333">
        <ele>3.0</ele>
        <time>2019-05-16T16:47:49.903Z</time>
      </trkpt>
      <trkpt lat="39.15498" lon="-8.72096833">
        <ele>3.0</ele>
        <time>2019-05-16T16:47:50.931Z</time>
      </trkpt>
      <trkpt lat="39.15498" lon="-8.72096833">
        <ele>3.0</ele>
        <time>2019-05-16T16:47:51.903Z</time>
      </trkpt>
      <trkpt lat="39.15504" lon="-8.72094333">
        <ele>3.0</ele>
        <time>2019-05-16T16:47:52.920Z</time>
      </trkpt>
      <trkpt lat="39.15504" lon="-8.72094333">
        <ele>3.0</ele>
        <time>2019-05-16T16:47:53.913Z</time>
      </trkpt>
      <trkpt lat="39.15510167" lon="-8.72092333">
        <ele>3.0</ele>
        <time>2019-05-16T16:47:54.898Z</time>
      </trkpt>
      <trkpt lat="39.15510167" lon="-8.72092333">
        <ele>3.0</ele>
        <time>2019-05-16T16:47:55.901Z</time>
      </trkpt>
      <trkpt lat="39.15516167" lon="-8.72089667">
        <ele>3.0</ele>
        <time>2019-05-16T16:47:56.965Z</time>
      </trkpt>
      <trkpt lat="39.15516167" lon="-8.72089667">
        <ele>3.0</ele>
        <time>2019-05-16T16:47:57.912Z</time>
      </trkpt>
      <trkpt lat="39.155225" lon="-8.72087333">
        <ele>3.0</ele>
        <time>2019-05-16T16:47:58.899Z</time>
      </trkpt>
      <trkpt lat="39.155225" lon="-8.72087333">
        <ele>3.0</ele>
        <time>2019-05-16T16:47:59.906Z</time>
      </trkpt>
      <trkpt lat="39.15528833" lon="-8.72085">
        <ele>3.0</ele>
        <time>2019-05-16T16:48:00.932Z</time>
      </trkpt>
      <trkpt lat="39.15531833" lon="-8.72083833">
        <ele>3.0</ele>
        <time>2019-05-16T16:48:01.931Z</time>
      </trkpt>
      <trkpt lat="39.15534833" lon="-8.72082667">
        <ele>3.0</ele>
        <time>2019-05-16T16:48:02.929Z</time>
      </trkpt>
      <trkpt lat="39.15534833" lon="-8.72082667">
        <ele>3.0</ele>
        <time>2019-05-16T16:48:03.915Z</time>
      </trkpt>
      <trkpt lat="39.15540667" lon="-8.72080833">
        <ele>3.0</ele>
        <time>2019-05-16T16:48:04.931Z</time>
      </trkpt>
      <trkpt lat="39.15540667" lon="-8.72080833">
        <ele>3.0</ele>
        <time>2019-05-16T16:48:05.924Z</time>
      </trkpt>
      <trkpt lat="39.155465" lon="-8.72078667">
        <ele>3.0</ele>
        <time>2019-05-16T16:48:06.933Z</time>
      </trkpt>
      <trkpt lat="39.155465" lon="-8.72078667">
        <ele>3.0</ele>
        <time>2019-05-16T16:48:07.927Z</time>
      </trkpt>
      <trkpt lat="39.15552" lon="-8.72075833">
        <ele>4.0</ele>
        <time>2019-05-16T16:48:08.908Z</time>
      </trkpt>
      <trkpt lat="39.15552" lon="-8.72075833">
        <ele>4.0</ele>
        <time>2019-05-16T16:48:09.915Z</time>
      </trkpt>
      <trkpt lat="39.15557833" lon="-8.72073333">
        <ele>4.0</ele>
        <time>2019-05-16T16:48:10.941Z</time>
      </trkpt>
      <trkpt lat="39.15557833" lon="-8.72073333">
        <ele>4.0</ele>
        <time>2019-05-16T16:48:11.924Z</time>
      </trkpt>
      <trkpt lat="39.15563" lon="-8.72071">
        <ele>4.0</ele>
        <time>2019-05-16T16:48:12.903Z</time>
      </trkpt>
      <trkpt lat="39.15563" lon="-8.72071">
        <ele>4.0</ele>
        <time>2019-05-16T16:48:13.903Z</time>
      </trkpt>
      <trkpt lat="39.155685" lon="-8.720685">
        <ele>4.0</ele>
        <time>2019-05-16T16:48:14.904Z</time>
      </trkpt>
      <trkpt lat="39.155685" lon="-8.720685">
        <ele>4.0</ele>
        <time>2019-05-16T16:48:15.932Z</time>
      </trkpt>
      <trkpt lat="39.15573667" lon="-8.72065833">
        <ele>4.0</ele>
        <time>2019-05-16T16:48:16.916Z</time>
      </trkpt>
      <trkpt lat="39.15573667" lon="-8.72065833">
        <ele>4.0</ele>
        <time>2019-05-16T16:48:17.919Z</time>
      </trkpt>
      <trkpt lat="39.15579" lon="-8.72063333">
        <ele>4.0</ele>
        <time>2019-05-16T16:48:18.937Z</time>
      </trkpt>
      <trkpt lat="39.15579" lon="-8.72063333">
        <ele>4.0</ele>
        <time>2019-05-16T16:48:19.936Z</time>
      </trkpt>
      <trkpt lat="39.15584833" lon="-8.72061667">
        <ele>4.0</ele>
        <time>2019-05-16T16:48:20.924Z</time>
      </trkpt>
      <trkpt lat="39.15584833" lon="-8.72061667">
        <ele>4.0</ele>
        <time>2019-05-16T16:48:21.899Z</time>
      </trkpt>
      <trkpt lat="39.15590333" lon="-8.72059667">
        <ele>5.0</ele>
        <time>2019-05-16T16:48:22.923Z</time>
      </trkpt>
      <trkpt lat="39.15590333" lon="-8.72059667">
        <ele>5.0</ele>
        <time>2019-05-16T16:48:23.910Z</time>
      </trkpt>
      <trkpt lat="39.15596167" lon="-8.72058167">
        <ele>5.0</ele>
        <time>2019-05-16T16:48:24.933Z</time>
      </trkpt>
      <trkpt lat="39.15596167" lon="-8.72058167">
        <ele>5.0</ele>
        <time>2019-05-16T16:48:25.901Z</time>
      </trkpt>
      <trkpt lat="39.15601667" lon="-8.72056167">
        <ele>5.0</ele>
        <time>2019-05-16T16:48:26.924Z</time>
      </trkpt>
      <trkpt lat="39.15601667" lon="-8.72056167">
        <ele>5.0</ele>
        <time>2019-05-16T16:48:27.923Z</time>
      </trkpt>
      <trkpt lat="39.15607667" lon="-8.72054667">
        <ele>5.0</ele>
        <time>2019-05-16T16:48:28.900Z</time>
      </trkpt>
      <trkpt lat="39.15607667" lon="-8.72054667">
        <ele>5.0</ele>
        <time>2019-05-16T16:48:29.903Z</time>
      </trkpt>
      <trkpt lat="39.15613667" lon="-8.72053167">
        <ele>5.0</ele>
        <time>2019-05-16T16:48:30.901Z</time>
      </trkpt>
      <trkpt lat="39.15613667" lon="-8.72053167">
        <ele>5.0</ele>
        <time>2019-05-16T16:48:31.923Z</time>
      </trkpt>
      <trkpt lat="39.1562" lon="-8.720515">
        <ele>5.0</ele>
        <time>2019-05-16T16:48:32.897Z</time>
      </trkpt>
      <trkpt lat="39.1562" lon="-8.720515">
        <ele>5.0</ele>
        <time>2019-05-16T16:48:33.930Z</time>
      </trkpt>
      <trkpt lat="39.15626667" lon="-8.72049667">
        <ele>5.0</ele>
        <time>2019-05-16T16:48:34.913Z</time>
      </trkpt>
      <trkpt lat="39.15626667" lon="-8.72049667">
        <ele>5.0</ele>
        <time>2019-05-16T16:48:35.905Z</time>
      </trkpt>
      <trkpt lat="39.15633333" lon="-8.72047667">
        <ele>5.0</ele>
        <time>2019-05-16T16:48:36.931Z</time>
      </trkpt>
      <trkpt lat="39.15633333" lon="-8.72047667">
        <ele>5.0</ele>
        <time>2019-05-16T16:48:37.917Z</time>
      </trkpt>
      <trkpt lat="39.15639667" lon="-8.72045333">
        <ele>5.0</ele>
        <time>2019-05-16T16:48:38.932Z</time>
      </trkpt>
      <trkpt lat="39.15639667" lon="-8.72045333">
        <ele>5.0</ele>
        <time>2019-05-16T16:48:39.931Z</time>
      </trkpt>
      <trkpt lat="39.15646167" lon="-8.720435">
        <ele>5.0</ele>
        <time>2019-05-16T16:48:40.920Z</time>
      </trkpt>
      <trkpt lat="39.15646167" lon="-8.720435">
        <ele>5.0</ele>
        <time>2019-05-16T16:48:41.906Z</time>
      </trkpt>
      <trkpt lat="39.156525" lon="-8.72041333">
        <ele>5.0</ele>
        <time>2019-05-16T16:48:42.927Z</time>
      </trkpt>
      <trkpt lat="39.156525" lon="-8.72041333">
        <ele>5.0</ele>
        <time>2019-05-16T16:48:43.922Z</time>
      </trkpt>
      <trkpt lat="39.15658667" lon="-8.72038833">
        <ele>4.0</ele>
        <time>2019-05-16T16:48:44.911Z</time>
      </trkpt>
      <trkpt lat="39.15658667" lon="-8.72038833">
        <ele>4.0</ele>
        <time>2019-05-16T16:48:45.903Z</time>
      </trkpt>
      <trkpt lat="39.15665167" lon="-8.720365">
        <ele>4.0</ele>
        <time>2019-05-16T16:48:46.926Z</time>
      </trkpt>
      <trkpt lat="39.15665167" lon="-8.720365">
        <ele>4.0</ele>
        <time>2019-05-16T16:48:47.909Z</time>
      </trkpt>
      <trkpt lat="39.156715" lon="-8.72033667">
        <ele>5.0</ele>
        <time>2019-05-16T16:48:48.899Z</time>
      </trkpt>
      <trkpt lat="39.156715" lon="-8.72033667">
        <ele>5.0</ele>
        <time>2019-05-16T16:48:49.921Z</time>
      </trkpt>
      <trkpt lat="39.15678" lon="-8.72031">
        <ele>4.0</ele>
        <time>2019-05-16T16:48:50.904Z</time>
      </trkpt>
      <trkpt lat="39.15678" lon="-8.72031">
        <ele>4.0</ele>
        <time>2019-05-16T16:48:51.903Z</time>
      </trkpt>
      <trkpt lat="39.15684333" lon="-8.72028167">
        <ele>4.0</ele>
        <time>2019-05-16T16:48:52.916Z</time>
      </trkpt>
      <trkpt lat="39.15684333" lon="-8.72028167">
        <ele>4.0</ele>
        <time>2019-05-16T16:48:53.903Z</time>
      </trkpt>
      <trkpt lat="39.156905" lon="-8.72024833">
        <ele>5.0</ele>
        <time>2019-05-16T16:48:54.929Z</time>
      </trkpt>
      <trkpt lat="39.156905" lon="-8.72024833">
        <ele>5.0</ele>
        <time>2019-05-16T16:48:55.919Z</time>
      </trkpt>
      <trkpt lat="39.15697333" lon="-8.720215">
        <ele>5.0</ele>
        <time>2019-05-16T16:48:56.901Z</time>
      </trkpt>
      <trkpt lat="39.15697333" lon="-8.720215">
        <ele>5.0</ele>
        <time>2019-05-16T16:48:57.933Z</time>
      </trkpt>
      <trkpt lat="39.15704667" lon="-8.72017167">
        <ele>4.0</ele>
        <time>2019-05-16T16:48:58.921Z</time>
      </trkpt>
      <trkpt lat="39.15704667" lon="-8.72017167">
        <ele>4.0</ele>
        <time>2019-05-16T16:48:59.897Z</time>
      </trkpt>
      <trkpt lat="39.15711667" lon="-8.72012667">
        <ele>4.0</ele>
        <time>2019-05-16T16:49:00.921Z</time>
      </trkpt>
      <trkpt lat="39.15711667" lon="-8.72012667">
        <ele>4.0</ele>
        <time>2019-05-16T16:49:01.901Z</time>
      </trkpt>
      <trkpt lat="39.15718667" lon="-8.72007833">
        <ele>4.0</ele>
        <time>2019-05-16T16:49:02.928Z</time>
      </trkpt>
      <trkpt lat="39.15718667" lon="-8.72007833">
        <ele>4.0</ele>
        <time>2019-05-16T16:49:03.913Z</time>
      </trkpt>
      <trkpt lat="39.15724833" lon="-8.72003">
        <ele>4.0</ele>
        <time>2019-05-16T16:49:04.934Z</time>
      </trkpt>
      <trkpt lat="39.15724833" lon="-8.72003">
        <ele>4.0</ele>
        <time>2019-05-16T16:49:05.901Z</time>
      </trkpt>
      <trkpt lat="39.15731" lon="-8.71998167">
        <ele>4.0</ele>
        <time>2019-05-16T16:49:06.920Z</time>
      </trkpt>
      <trkpt lat="39.15731" lon="-8.71998167">
        <ele>4.0</ele>
        <time>2019-05-16T16:49:07.903Z</time>
      </trkpt>
      <trkpt lat="39.15737" lon="-8.719935">
        <ele>4.0</ele>
        <time>2019-05-16T16:49:08.920Z</time>
      </trkpt>
      <trkpt lat="39.15737" lon="-8.719935">
        <ele>4.0</ele>
        <time>2019-05-16T16:49:09.931Z</time>
      </trkpt>
      <trkpt lat="39.15742667" lon="-8.719895">
        <ele>4.0</ele>
        <time>2019-05-16T16:49:10.912Z</time>
      </trkpt>
      <trkpt lat="39.15742667" lon="-8.719895">
        <ele>4.0</ele>
        <time>2019-05-16T16:49:11.926Z</time>
      </trkpt>
      <trkpt lat="39.15748833" lon="-8.719855">
        <ele>4.0</ele>
        <time>2019-05-16T16:49:12.905Z</time>
      </trkpt>
      <trkpt lat="39.15748833" lon="-8.719855">
        <ele>4.0</ele>
        <time>2019-05-16T16:49:13.925Z</time>
      </trkpt>
      <trkpt lat="39.15755167" lon="-8.71981">
        <ele>4.0</ele>
        <time>2019-05-16T16:49:14.899Z</time>
      </trkpt>
      <trkpt lat="39.15755167" lon="-8.71981">
        <ele>4.0</ele>
        <time>2019-05-16T16:49:15.932Z</time>
      </trkpt>
      <trkpt lat="39.15761333" lon="-8.71976167">
        <ele>4.0</ele>
        <time>2019-05-16T16:49:16.921Z</time>
      </trkpt>
      <trkpt lat="39.15761333" lon="-8.71976167">
        <ele>4.0</ele>
        <time>2019-05-16T16:49:17.911Z</time>
      </trkpt>
      <trkpt lat="39.15767333" lon="-8.71971167">
        <ele>4.0</ele>
        <time>2019-05-16T16:49:18.901Z</time>
      </trkpt>
      <trkpt lat="39.157705" lon="-8.71968833">
        <ele>4.0</ele>
        <time>2019-05-16T16:49:19.924Z</time>
      </trkpt>
      <trkpt lat="39.15773667" lon="-8.71967">
        <ele>4.0</ele>
        <time>2019-05-16T16:49:20.934Z</time>
      </trkpt>
      <trkpt lat="39.15773667" lon="-8.71967">
        <ele>4.0</ele>
        <time>2019-05-16T16:49:21.911Z</time>
      </trkpt>
      <trkpt lat="39.1578" lon="-8.71963">
        <ele>4.0</ele>
        <time>2019-05-16T16:49:22.925Z</time>
      </trkpt>
      <trkpt lat="39.1578" lon="-8.71963">
        <ele>4.0</ele>
        <time>2019-05-16T16:49:23.908Z</time>
      </trkpt>
      <trkpt lat="39.15785833" lon="-8.71958167">
        <ele>3.0</ele>
        <time>2019-05-16T16:49:24.936Z</time>
      </trkpt>
      <trkpt lat="39.15785833" lon="-8.71958167">
        <ele>3.0</ele>
        <time>2019-05-16T16:49:25.913Z</time>
      </trkpt>
      <trkpt lat="39.15791333" lon="-8.719535">
        <ele>3.0</ele>
        <time>2019-05-16T16:49:26.901Z</time>
      </trkpt>
      <trkpt lat="39.15791333" lon="-8.719535">
        <ele>3.0</ele>
        <time>2019-05-16T16:49:27.935Z</time>
      </trkpt>
      <trkpt lat="39.157965" lon="-8.719485">
        <ele>3.0</ele>
        <time>2019-05-16T16:49:28.909Z</time>
      </trkpt>
      <trkpt lat="39.157965" lon="-8.719485">
        <ele>3.0</ele>
        <time>2019-05-16T16:49:29.928Z</time>
      </trkpt>
      <trkpt lat="39.15802333" lon="-8.71944333">
        <ele>3.0</ele>
        <time>2019-05-16T16:49:30.906Z</time>
      </trkpt>
      <trkpt lat="39.15802333" lon="-8.71944333">
        <ele>3.0</ele>
        <time>2019-05-16T16:49:31.930Z</time>
      </trkpt>
      <trkpt lat="39.15808" lon="-8.7194">
        <ele>4.0</ele>
        <time>2019-05-16T16:49:32.915Z</time>
      </trkpt>
      <trkpt lat="39.15808" lon="-8.7194">
        <ele>4.0</ele>
        <time>2019-05-16T16:49:33.907Z</time>
      </trkpt>
      <trkpt lat="39.15813167" lon="-8.71935333">
        <ele>4.0</ele>
        <time>2019-05-16T16:49:34.925Z</time>
      </trkpt>
      <trkpt lat="39.15813167" lon="-8.71935333">
        <ele>4.0</ele>
        <time>2019-05-16T16:49:35.923Z</time>
      </trkpt>
      <trkpt lat="39.15818667" lon="-8.71930667">
        <ele>4.0</ele>
        <time>2019-05-16T16:49:36.903Z</time>
      </trkpt>
      <trkpt lat="39.15821333" lon="-8.71928333">
        <ele>4.0</ele>
        <time>2019-05-16T16:49:37.911Z</time>
      </trkpt>
      <trkpt lat="39.15823833" lon="-8.71925833">
        <ele>4.0</ele>
        <time>2019-05-16T16:49:38.934Z</time>
      </trkpt>
      <trkpt lat="39.15823833" lon="-8.71925833">
        <ele>4.0</ele>
        <time>2019-05-16T16:49:39.913Z</time>
      </trkpt>
      <trkpt lat="39.15829" lon="-8.71921667">
        <ele>5.0</ele>
        <time>2019-05-16T16:49:40.935Z</time>
      </trkpt>
      <trkpt lat="39.15829" lon="-8.71921667">
        <ele>5.0</ele>
        <time>2019-05-16T16:49:41.929Z</time>
      </trkpt>
      <trkpt lat="39.15834" lon="-8.71917">
        <ele>5.0</ele>
        <time>2019-05-16T16:49:42.908Z</time>
      </trkpt>
      <trkpt lat="39.15834" lon="-8.71917">
        <ele>5.0</ele>
        <time>2019-05-16T16:49:43.910Z</time>
      </trkpt>
      <trkpt lat="39.15839333" lon="-8.719125">
        <ele>5.0</ele>
        <time>2019-05-16T16:49:44.932Z</time>
      </trkpt>
      <trkpt lat="39.15839333" lon="-8.719125">
        <ele>5.0</ele>
        <time>2019-05-16T16:49:45.913Z</time>
      </trkpt>
      <trkpt lat="39.15844667" lon="-8.71908">
        <ele>5.0</ele>
        <time>2019-05-16T16:49:46.930Z</time>
      </trkpt>
      <trkpt lat="39.15844667" lon="-8.71908">
        <ele>5.0</ele>
        <time>2019-05-16T16:49:47.929Z</time>
      </trkpt>
      <trkpt lat="39.1585" lon="-8.71903167">
        <ele>4.0</ele>
        <time>2019-05-16T16:49:48.921Z</time>
      </trkpt>
      <trkpt lat="39.1585" lon="-8.71903167">
        <ele>4.0</ele>
        <time>2019-05-16T16:49:49.904Z</time>
      </trkpt>
      <trkpt lat="39.15854833" lon="-8.71898">
        <ele>4.0</ele>
        <time>2019-05-16T16:49:50.929Z</time>
      </trkpt>
      <trkpt lat="39.15854833" lon="-8.71898">
        <ele>4.0</ele>
        <time>2019-05-16T16:49:51.901Z</time>
      </trkpt>
      <trkpt lat="39.15859833" lon="-8.71892667">
        <ele>4.0</ele>
        <time>2019-05-16T16:49:52.925Z</time>
      </trkpt>
      <trkpt lat="39.15859833" lon="-8.71892667">
        <ele>4.0</ele>
        <time>2019-05-16T16:49:53.919Z</time>
      </trkpt>
      <trkpt lat="39.15864833" lon="-8.71887833">
        <ele>3.0</ele>
        <time>2019-05-16T16:49:54.905Z</time>
      </trkpt>
      <trkpt lat="39.15864833" lon="-8.71887833">
        <ele>3.0</ele>
        <time>2019-05-16T16:49:55.929Z</time>
      </trkpt>
      <trkpt lat="39.15870667" lon="-8.718835">
        <ele>2.0</ele>
        <time>2019-05-16T16:49:56.913Z</time>
      </trkpt>
      <trkpt lat="39.15870667" lon="-8.718835">
        <ele>2.0</ele>
        <time>2019-05-16T16:49:57.903Z</time>
      </trkpt>
      <trkpt lat="39.15875833" lon="-8.71878">
        <ele>2.0</ele>
        <time>2019-05-16T16:49:58.925Z</time>
      </trkpt>
      <trkpt lat="39.15875833" lon="-8.71878">
        <ele>2.0</ele>
        <time>2019-05-16T16:49:59.928Z</time>
      </trkpt>
      <trkpt lat="39.15881667" lon="-8.71872">
        <ele>1.0</ele>
        <time>2019-05-16T16:50:00.920Z</time>
      </trkpt>
      <trkpt lat="39.15881667" lon="-8.71872">
        <ele>1.0</ele>
        <time>2019-05-16T16:50:01.915Z</time>
      </trkpt>
      <trkpt lat="39.15887333" lon="-8.71866333">
        <ele>1.0</ele>
        <time>2019-05-16T16:50:02.935Z</time>
      </trkpt>
      <trkpt lat="39.15887333" lon="-8.71866333">
        <ele>1.0</ele>
        <time>2019-05-16T16:50:03.913Z</time>
      </trkpt>
      <trkpt lat="39.15893667" lon="-8.71860833">
        <ele>1.0</ele>
        <time>2019-05-16T16:50:04.934Z</time>
      </trkpt>
      <trkpt lat="39.15893667" lon="-8.71860833">
        <ele>1.0</ele>
        <time>2019-05-16T16:50:05.920Z</time>
      </trkpt>
      <trkpt lat="39.15899333" lon="-8.71855667">
        <ele>0.0</ele>
        <time>2019-05-16T16:50:06.920Z</time>
      </trkpt>
      <trkpt lat="39.15899333" lon="-8.71855667">
        <ele>0.0</ele>
        <time>2019-05-16T16:50:07.907Z</time>
      </trkpt>
      <trkpt lat="39.15904667" lon="-8.71850833">
        <ele>0.0</ele>
        <time>2019-05-16T16:50:08.930Z</time>
      </trkpt>
      <trkpt lat="39.15904667" lon="-8.71850833">
        <ele>0.0</ele>
        <time>2019-05-16T16:50:09.915Z</time>
      </trkpt>
      <trkpt lat="39.15909667" lon="-8.71846167">
        <ele>-1.0</ele>
        <time>2019-05-16T16:50:10.902Z</time>
      </trkpt>
      <trkpt lat="39.15909667" lon="-8.71846167">
        <ele>-1.0</ele>
        <time>2019-05-16T16:50:11.899Z</time>
      </trkpt>
      <trkpt lat="39.15914667" lon="-8.71840667">
        <ele>0.0</ele>
        <time>2019-05-16T16:50:12.921Z</time>
      </trkpt>
      <trkpt lat="39.15914667" lon="-8.71840667">
        <ele>0.0</ele>
        <time>2019-05-16T16:50:13.903Z</time>
      </trkpt>
      <trkpt lat="39.1592" lon="-8.718355">
        <ele>0.0</ele>
        <time>2019-05-16T16:50:14.933Z</time>
      </trkpt>
      <trkpt lat="39.1592" lon="-8.718355">
        <ele>0.0</ele>
        <time>2019-05-16T16:50:15.914Z</time>
      </trkpt>
      <trkpt lat="39.15925667" lon="-8.71830167">
        <ele>0.0</ele>
        <time>2019-05-16T16:50:16.897Z</time>
      </trkpt>
      <trkpt lat="39.15925667" lon="-8.71830167">
        <ele>0.0</ele>
        <time>2019-05-16T16:50:17.910Z</time>
      </trkpt>
      <trkpt lat="39.15931167" lon="-8.71824667">
        <ele>1.0</ele>
        <time>2019-05-16T16:50:18.907Z</time>
      </trkpt>
      <trkpt lat="39.15931167" lon="-8.71824667">
        <ele>1.0</ele>
        <time>2019-05-16T16:50:19.902Z</time>
      </trkpt>
      <trkpt lat="39.159365" lon="-8.71818667">
        <ele>0.0</ele>
        <time>2019-05-16T16:50:20.917Z</time>
      </trkpt>
      <trkpt lat="39.159365" lon="-8.71818667">
        <ele>0.0</ele>
        <time>2019-05-16T16:50:21.898Z</time>
      </trkpt>
      <trkpt lat="39.15942" lon="-8.71812833">
        <ele>0.0</ele>
        <time>2019-05-16T16:50:22.900Z</time>
      </trkpt>
      <trkpt lat="39.15942" lon="-8.71812833">
        <ele>0.0</ele>
        <time>2019-05-16T16:50:23.923Z</time>
      </trkpt>
      <trkpt lat="39.15947667" lon="-8.718075">
        <ele>0.0</ele>
        <time>2019-05-16T16:50:24.900Z</time>
      </trkpt>
      <trkpt lat="39.15947667" lon="-8.718075">
        <ele>0.0</ele>
        <time>2019-05-16T16:50:25.921Z</time>
      </trkpt>
      <trkpt lat="39.15953167" lon="-8.71802167">
        <ele>1.0</ele>
        <time>2019-05-16T16:50:26.911Z</time>
      </trkpt>
      <trkpt lat="39.15953167" lon="-8.71802167">
        <ele>1.0</ele>
        <time>2019-05-16T16:50:27.935Z</time>
      </trkpt>
      <trkpt lat="39.159585" lon="-8.717965">
        <ele>1.0</ele>
        <time>2019-05-16T16:50:28.913Z</time>
      </trkpt>
      <trkpt lat="39.159585" lon="-8.717965">
        <ele>1.0</ele>
        <time>2019-05-16T16:50:29.934Z</time>
      </trkpt>
      <trkpt lat="39.15963833" lon="-8.71791">
        <ele>1.0</ele>
        <time>2019-05-16T16:50:30.918Z</time>
      </trkpt>
      <trkpt lat="39.15963833" lon="-8.71791">
        <ele>1.0</ele>
        <time>2019-05-16T16:50:31.912Z</time>
      </trkpt>
      <trkpt lat="39.15968833" lon="-8.71785">
        <ele>1.0</ele>
        <time>2019-05-16T16:50:32.900Z</time>
      </trkpt>
      <trkpt lat="39.15968833" lon="-8.71785">
        <ele>1.0</ele>
        <time>2019-05-16T16:50:33.912Z</time>
      </trkpt>
      <trkpt lat="39.15974167" lon="-8.71778833">
        <ele>1.0</ele>
        <time>2019-05-16T16:50:34.935Z</time>
      </trkpt>
      <trkpt lat="39.15974167" lon="-8.71778833">
        <ele>1.0</ele>
        <time>2019-05-16T16:50:35.919Z</time>
      </trkpt>
      <trkpt lat="39.1598" lon="-8.71773167">
        <ele>1.0</ele>
        <time>2019-05-16T16:50:36.929Z</time>
      </trkpt>
      <trkpt lat="39.15982833" lon="-8.71770333">
        <ele>1.0</ele>
        <time>2019-05-16T16:50:37.929Z</time>
      </trkpt>
      <trkpt lat="39.15985833" lon="-8.71767333">
        <ele>1.0</ele>
        <time>2019-05-16T16:50:38.903Z</time>
      </trkpt>
      <trkpt lat="39.15985833" lon="-8.71767333">
        <ele>1.0</ele>
        <time>2019-05-16T16:50:39.899Z</time>
      </trkpt>
      <trkpt lat="39.15991167" lon="-8.717615">
        <ele>0.0</ele>
        <time>2019-05-16T16:50:40.932Z</time>
      </trkpt>
      <trkpt lat="39.15991167" lon="-8.717615">
        <ele>0.0</ele>
        <time>2019-05-16T16:50:41.901Z</time>
      </trkpt>
      <trkpt lat="39.159965" lon="-8.717555">
        <ele>0.0</ele>
        <time>2019-05-16T16:50:42.921Z</time>
      </trkpt>
      <trkpt lat="39.159965" lon="-8.717555">
        <ele>0.0</ele>
        <time>2019-05-16T16:50:43.923Z</time>
      </trkpt>
      <trkpt lat="39.16001833" lon="-8.71749">
        <ele>1.0</ele>
        <time>2019-05-16T16:50:44.903Z</time>
      </trkpt>
      <trkpt lat="39.16001833" lon="-8.71749">
        <ele>1.0</ele>
        <time>2019-05-16T16:50:45.913Z</time>
      </trkpt>
      <trkpt lat="39.160075" lon="-8.71742833">
        <ele>0.0</ele>
        <time>2019-05-16T16:50:46.897Z</time>
      </trkpt>
      <trkpt lat="39.160075" lon="-8.71742833">
        <ele>0.0</ele>
        <time>2019-05-16T16:50:47.905Z</time>
      </trkpt>
      <trkpt lat="39.16013333" lon="-8.71736833">
        <ele>0.0</ele>
        <time>2019-05-16T16:50:48.928Z</time>
      </trkpt>
      <trkpt lat="39.16013333" lon="-8.71736833">
        <ele>0.0</ele>
        <time>2019-05-16T16:50:49.930Z</time>
      </trkpt>
      <trkpt lat="39.16019333" lon="-8.71731">
        <ele>0.0</ele>
        <time>2019-05-16T16:50:50.931Z</time>
      </trkpt>
      <trkpt lat="39.16019333" lon="-8.71731">
        <ele>0.0</ele>
        <time>2019-05-16T16:50:51.903Z</time>
      </trkpt>
      <trkpt lat="39.16025333" lon="-8.71725167">
        <ele>0.0</ele>
        <time>2019-05-16T16:50:52.899Z</time>
      </trkpt>
      <trkpt lat="39.16025333" lon="-8.71725167">
        <ele>0.0</ele>
        <time>2019-05-16T16:50:53.933Z</time>
      </trkpt>
      <trkpt lat="39.16031333" lon="-8.71719167">
        <ele>0.0</ele>
        <time>2019-05-16T16:50:54.921Z</time>
      </trkpt>
      <trkpt lat="39.16031333" lon="-8.71719167">
        <ele>0.0</ele>
        <time>2019-05-16T16:50:55.915Z</time>
      </trkpt>
      <trkpt lat="39.160365" lon="-8.71713333">
        <ele>0.0</ele>
        <time>2019-05-16T16:50:56.933Z</time>
      </trkpt>
      <trkpt lat="39.160365" lon="-8.71713333">
        <ele>0.0</ele>
        <time>2019-05-16T16:50:57.929Z</time>
      </trkpt>
      <trkpt lat="39.16041667" lon="-8.71707667">
        <ele>0.0</ele>
        <time>2019-05-16T16:50:58.918Z</time>
      </trkpt>
      <trkpt lat="39.16041667" lon="-8.71707667">
        <ele>0.0</ele>
        <time>2019-05-16T16:50:59.933Z</time>
      </trkpt>
      <trkpt lat="39.16047" lon="-8.71702">
        <ele>0.0</ele>
        <time>2019-05-16T16:51:00.905Z</time>
      </trkpt>
      <trkpt lat="39.16047" lon="-8.71702">
        <ele>0.0</ele>
        <time>2019-05-16T16:51:01.934Z</time>
      </trkpt>
      <trkpt lat="39.160525" lon="-8.71696167">
        <ele>0.0</ele>
        <time>2019-05-16T16:51:02.921Z</time>
      </trkpt>
      <trkpt lat="39.160525" lon="-8.71696167">
        <ele>0.0</ele>
        <time>2019-05-16T16:51:03.932Z</time>
      </trkpt>
      <trkpt lat="39.16057667" lon="-8.7169">
        <ele>0.0</ele>
        <time>2019-05-16T16:51:04.911Z</time>
      </trkpt>
      <trkpt lat="39.16057667" lon="-8.7169">
        <ele>0.0</ele>
        <time>2019-05-16T16:51:05.907Z</time>
      </trkpt>
      <trkpt lat="39.16062833" lon="-8.71684">
        <ele>0.0</ele>
        <time>2019-05-16T16:51:06.932Z</time>
      </trkpt>
      <trkpt lat="39.16062833" lon="-8.71684">
        <ele>0.0</ele>
        <time>2019-05-16T16:51:07.916Z</time>
      </trkpt>
      <trkpt lat="39.160685" lon="-8.71678">
        <ele>0.0</ele>
        <time>2019-05-16T16:51:08.935Z</time>
      </trkpt>
      <trkpt lat="39.160685" lon="-8.71678">
        <ele>0.0</ele>
        <time>2019-05-16T16:51:09.913Z</time>
      </trkpt>
      <trkpt lat="39.16074667" lon="-8.716725">
        <ele>0.0</ele>
        <time>2019-05-16T16:51:10.927Z</time>
      </trkpt>
      <trkpt lat="39.16074667" lon="-8.716725">
        <ele>0.0</ele>
        <time>2019-05-16T16:51:11.927Z</time>
      </trkpt>
      <trkpt lat="39.160805" lon="-8.71666833">
        <ele>0.0</ele>
        <time>2019-05-16T16:51:12.911Z</time>
      </trkpt>
      <trkpt lat="39.160805" lon="-8.71666833">
        <ele>0.0</ele>
        <time>2019-05-16T16:51:13.897Z</time>
      </trkpt>
      <trkpt lat="39.16086333" lon="-8.71661167">
        <ele>0.0</ele>
        <time>2019-05-16T16:51:14.937Z</time>
      </trkpt>
      <trkpt lat="39.16086333" lon="-8.71661167">
        <ele>0.0</ele>
        <time>2019-05-16T16:51:15.931Z</time>
      </trkpt>
      <trkpt lat="39.16092" lon="-8.71655833">
        <ele>0.0</ele>
        <time>2019-05-16T16:51:16.911Z</time>
      </trkpt>
      <trkpt lat="39.16092" lon="-8.71655833">
        <ele>0.0</ele>
        <time>2019-05-16T16:51:17.918Z</time>
      </trkpt>
      <trkpt lat="39.16097" lon="-8.71650333">
        <ele>0.0</ele>
        <time>2019-05-16T16:51:18.907Z</time>
      </trkpt>
      <trkpt lat="39.16097" lon="-8.71650333">
        <ele>0.0</ele>
        <time>2019-05-16T16:51:19.903Z</time>
      </trkpt>
      <trkpt lat="39.161025" lon="-8.71644833">
        <ele>0.0</ele>
        <time>2019-05-16T16:51:20.962Z</time>
      </trkpt>
      <trkpt lat="39.161025" lon="-8.71644833">
        <ele>0.0</ele>
        <time>2019-05-16T16:51:21.928Z</time>
      </trkpt>
      <trkpt lat="39.16108" lon="-8.71639167">
        <ele>0.0</ele>
        <time>2019-05-16T16:51:22.906Z</time>
      </trkpt>
      <trkpt lat="39.16111" lon="-8.71636333">
        <ele>0.0</ele>
        <time>2019-05-16T16:51:23.899Z</time>
      </trkpt>
      <trkpt lat="39.16111" lon="-8.71636333">
        <ele>0.0</ele>
        <time>2019-05-16T16:51:24.909Z</time>
      </trkpt>
      <trkpt lat="39.16117" lon="-8.71630667">
        <ele>0.0</ele>
        <time>2019-05-16T16:51:25.931Z</time>
      </trkpt>
      <trkpt lat="39.16117" lon="-8.71630667">
        <ele>0.0</ele>
        <time>2019-05-16T16:51:26.933Z</time>
      </trkpt>
      <trkpt lat="39.16123333" lon="-8.71625">
        <ele>-1.0</ele>
        <time>2019-05-16T16:51:27.941Z</time>
      </trkpt>
      <trkpt lat="39.161265" lon="-8.71622333">
        <ele>-1.0</ele>
        <time>2019-05-16T16:51:28.901Z</time>
      </trkpt>
      <trkpt lat="39.161265" lon="-8.71622333">
        <ele>-1.0</ele>
        <time>2019-05-16T16:51:29.923Z</time>
      </trkpt>
      <trkpt lat="39.16133" lon="-8.71617167">
        <ele>-1.0</ele>
        <time>2019-05-16T16:51:30.923Z</time>
      </trkpt>
      <trkpt lat="39.16133" lon="-8.71617167">
        <ele>-1.0</ele>
        <time>2019-05-16T16:51:31.919Z</time>
      </trkpt>
      <trkpt lat="39.16139" lon="-8.71612333">
        <ele>-1.0</ele>
        <time>2019-05-16T16:51:32.937Z</time>
      </trkpt>
      <trkpt lat="39.16139" lon="-8.71612333">
        <ele>-1.0</ele>
        <time>2019-05-16T16:51:33.913Z</time>
      </trkpt>
      <trkpt lat="39.16144667" lon="-8.71607667">
        <ele>-1.0</ele>
        <time>2019-05-16T16:51:34.938Z</time>
      </trkpt>
      <trkpt lat="39.16144667" lon="-8.71607667">
        <ele>-1.0</ele>
        <time>2019-05-16T16:51:35.915Z</time>
      </trkpt>
      <trkpt lat="39.161495" lon="-8.71602833">
        <ele>-1.0</ele>
        <time>2019-05-16T16:51:36.930Z</time>
      </trkpt>
      <trkpt lat="39.161495" lon="-8.71602833">
        <ele>-1.0</ele>
        <time>2019-05-16T16:51:37.934Z</time>
      </trkpt>
      <trkpt lat="39.16153667" lon="-8.715985">
        <ele>-1.0</ele>
        <time>2019-05-16T16:51:38.915Z</time>
      </trkpt>
      <trkpt lat="39.16153667" lon="-8.715985">
        <ele>-1.0</ele>
        <time>2019-05-16T16:51:39.905Z</time>
      </trkpt>
      <trkpt lat="39.16157" lon="-8.71595333">
        <ele>-1.0</ele>
        <time>2019-05-16T16:51:40.899Z</time>
      </trkpt>
      <trkpt lat="39.16157" lon="-8.71595333">
        <ele>-1.0</ele>
        <time>2019-05-16T16:51:41.931Z</time>
      </trkpt>
      <trkpt lat="39.16159167" lon="-8.71593">
        <ele>-1.0</ele>
        <time>2019-05-16T16:51:42.920Z</time>
      </trkpt>
      <trkpt lat="39.16159167" lon="-8.71593">
        <ele>-1.0</ele>
        <time>2019-05-16T16:51:43.899Z</time>
      </trkpt>
      <trkpt lat="39.161605" lon="-8.71590333">
        <ele>0.0</ele>
        <time>2019-05-16T16:51:44.919Z</time>
      </trkpt>
      <trkpt lat="39.161605" lon="-8.71590333">
        <ele>0.0</ele>
        <time>2019-05-16T16:51:45.933Z</time>
      </trkpt>
      <trkpt lat="39.16163167" lon="-8.71586667">
        <ele>0.0</ele>
        <time>2019-05-16T16:51:46.922Z</time>
      </trkpt>
      <trkpt lat="39.16163167" lon="-8.71586667">
        <ele>0.0</ele>
        <time>2019-05-16T16:51:47.902Z</time>
      </trkpt>
      <trkpt lat="39.16166667" lon="-8.71583">
        <ele>0.0</ele>
        <time>2019-05-16T16:51:48.919Z</time>
      </trkpt>
      <trkpt lat="39.16166667" lon="-8.71583">
        <ele>0.0</ele>
        <time>2019-05-16T16:51:49.900Z</time>
      </trkpt>
      <trkpt lat="39.16169667" lon="-8.71579833">
        <ele>0.0</ele>
        <time>2019-05-16T16:51:50.933Z</time>
      </trkpt>
      <trkpt lat="39.16169667" lon="-8.71579833">
        <ele>0.0</ele>
        <time>2019-05-16T16:51:51.923Z</time>
      </trkpt>
      <trkpt lat="39.16174333" lon="-8.715755">
        <ele>0.0</ele>
        <time>2019-05-16T16:51:52.897Z</time>
      </trkpt>
      <trkpt lat="39.16174333" lon="-8.715755">
        <ele>0.0</ele>
        <time>2019-05-16T16:51:53.933Z</time>
      </trkpt>
      <trkpt lat="39.16180167" lon="-8.71569">
        <ele>0.0</ele>
        <time>2019-05-16T16:51:54.910Z</time>
      </trkpt>
      <trkpt lat="39.16183833" lon="-8.71565167">
        <ele>0.0</ele>
        <time>2019-05-16T16:51:55.931Z</time>
      </trkpt>
      <trkpt lat="39.16187667" lon="-8.71561167">
        <ele>0.0</ele>
        <time>2019-05-16T16:51:56.898Z</time>
      </trkpt>
      <trkpt lat="39.16187667" lon="-8.71561167">
        <ele>0.0</ele>
        <time>2019-05-16T16:51:57.934Z</time>
      </trkpt>
      <trkpt lat="39.16195833" lon="-8.715515">
        <ele>0.0</ele>
        <time>2019-05-16T16:51:58.914Z</time>
      </trkpt>
      <trkpt lat="39.16195833" lon="-8.715515">
        <ele>0.0</ele>
        <time>2019-05-16T16:51:59.933Z</time>
      </trkpt>
      <trkpt lat="39.16203667" lon="-8.71541333">
        <ele>0.0</ele>
        <time>2019-05-16T16:52:00.909Z</time>
      </trkpt>
      <trkpt lat="39.16203667" lon="-8.71541333">
        <ele>0.0</ele>
        <time>2019-05-16T16:52:01.933Z</time>
      </trkpt>
      <trkpt lat="39.16211833" lon="-8.71532167">
        <ele>0.0</ele>
        <time>2019-05-16T16:52:02.908Z</time>
      </trkpt>
      <trkpt lat="39.16211833" lon="-8.71532167">
        <ele>0.0</ele>
        <time>2019-05-16T16:52:03.931Z</time>
      </trkpt>
      <trkpt lat="39.162195" lon="-8.71523333">
        <ele>1.0</ele>
        <time>2019-05-16T16:52:04.909Z</time>
      </trkpt>
      <trkpt lat="39.162195" lon="-8.71523333">
        <ele>1.0</ele>
        <time>2019-05-16T16:52:05.913Z</time>
      </trkpt>
      <trkpt lat="39.16226" lon="-8.715165">
        <ele>1.0</ele>
        <time>2019-05-16T16:52:06.941Z</time>
      </trkpt>
      <trkpt lat="39.16228667" lon="-8.71513833">
        <ele>1.0</ele>
        <time>2019-05-16T16:52:07.904Z</time>
      </trkpt>
      <trkpt lat="39.16230833" lon="-8.71511167">
        <ele>1.0</ele>
        <time>2019-05-16T16:52:08.921Z</time>
      </trkpt>
      <trkpt lat="39.16230833" lon="-8.71511167">
        <ele>1.0</ele>
        <time>2019-05-16T16:52:09.913Z</time>
      </trkpt>
      <trkpt lat="39.162345" lon="-8.71507">
        <ele>2.0</ele>
        <time>2019-05-16T16:52:10.933Z</time>
      </trkpt>
      <trkpt lat="39.162345" lon="-8.71507">
        <ele>2.0</ele>
        <time>2019-05-16T16:52:11.929Z</time>
      </trkpt>
      <trkpt lat="39.162375" lon="-8.715035">
        <ele>2.0</ele>
        <time>2019-05-16T16:52:12.915Z</time>
      </trkpt>
      <trkpt lat="39.162375" lon="-8.715035">
        <ele>2.0</ele>
        <time>2019-05-16T16:52:13.903Z</time>
      </trkpt>
      <trkpt lat="39.16240667" lon="-8.71500333">
        <ele>2.0</ele>
        <time>2019-05-16T16:52:14.931Z</time>
      </trkpt>
      <trkpt lat="39.16240667" lon="-8.71500333">
        <ele>2.0</ele>
        <time>2019-05-16T16:52:15.898Z</time>
      </trkpt>
      <trkpt lat="39.16243833" lon="-8.71497">
        <ele>2.0</ele>
        <time>2019-05-16T16:52:16.923Z</time>
      </trkpt>
      <trkpt lat="39.16243833" lon="-8.71497">
        <ele>2.0</ele>
        <time>2019-05-16T16:52:17.910Z</time>
      </trkpt>
      <trkpt lat="39.16248" lon="-8.71494167">
        <ele>2.0</ele>
        <time>2019-05-16T16:52:18.929Z</time>
      </trkpt>
      <trkpt lat="39.16248" lon="-8.71494167">
        <ele>2.0</ele>
        <time>2019-05-16T16:52:19.920Z</time>
      </trkpt>
      <trkpt lat="39.162505" lon="-8.714925">
        <ele>2.0</ele>
        <time>2019-05-16T16:52:20.935Z</time>
      </trkpt>
      <trkpt lat="39.162505" lon="-8.714925">
        <ele>2.0</ele>
        <time>2019-05-16T16:52:21.925Z</time>
      </trkpt>
      <trkpt lat="39.16250833" lon="-8.71492667">
        <ele>2.0</ele>
        <time>2019-05-16T16:52:22.928Z</time>
      </trkpt>
      <trkpt lat="39.16250833" lon="-8.71492667">
        <ele>2.0</ele>
        <time>2019-05-16T16:52:23.903Z</time>
      </trkpt>
      <trkpt lat="39.16250833" lon="-8.71492667">
        <ele>2.0</ele>
        <time>2019-05-16T16:52:24.922Z</time>
      </trkpt>
      <trkpt lat="39.16250833" lon="-8.71492667">
        <ele>2.0</ele>
        <time>2019-05-16T16:52:25.914Z</time>
      </trkpt>
      <trkpt lat="39.16250833" lon="-8.71492667">
        <ele>2.0</ele>
        <time>2019-05-16T16:52:26.921Z</time>
      </trkpt>
      <trkpt lat="39.16250833" lon="-8.71492667">
        <ele>2.0</ele>
        <time>2019-05-16T16:52:27.898Z</time>
      </trkpt>
      <trkpt lat="39.16250833" lon="-8.71492667">
        <ele>2.0</ele>
        <time>2019-05-16T16:52:28.902Z</time>
      </trkpt>
      <trkpt lat="39.16250833" lon="-8.71492667">
        <ele>2.0</ele>
        <time>2019-05-16T16:52:29.917Z</time>
      </trkpt>
      <trkpt lat="39.16250833" lon="-8.71492667">
        <ele>2.0</ele>
        <time>2019-05-16T16:52:30.904Z</time>
      </trkpt>
      <trkpt lat="39.16250833" lon="-8.71492667">
        <ele>2.0</ele>
        <time>2019-05-16T16:52:31.897Z</time>
      </trkpt>
      <trkpt lat="39.16250833" lon="-8.71492667">
        <ele>2.0</ele>
        <time>2019-05-16T16:52:32.905Z</time>
      </trkpt>
      <trkpt lat="39.16250833" lon="-8.71492667">
        <ele>2.0</ele>
        <time>2019-05-16T16:52:33.898Z</time>
      </trkpt>
      <trkpt lat="39.16250833" lon="-8.71492667">
        <ele>2.0</ele>
        <time>2019-05-16T16:52:34.903Z</time>
      </trkpt>
      <trkpt lat="39.16250833" lon="-8.71492667">
        <ele>2.0</ele>
        <time>2019-05-16T16:52:35.898Z</time>
      </trkpt>
      <trkpt lat="39.16250833" lon="-8.71492667">
        <ele>2.0</ele>
        <time>2019-05-16T16:52:36.907Z</time>
      </trkpt>
      <trkpt lat="39.16250833" lon="-8.71492667">
        <ele>2.0</ele>
        <time>2019-05-16T16:52:37.898Z</time>
      </trkpt>
      <trkpt lat="39.16250833" lon="-8.71492667">
        <ele>2.0</ele>
        <time>2019-05-16T16:52:38.905Z</time>
      </trkpt>
      <trkpt lat="39.16250833" lon="-8.71492667">
        <ele>2.0</ele>
        <time>2019-05-16T16:52:39.904Z</time>
      </trkpt>
      <trkpt lat="39.16250833" lon="-8.71492667">
        <ele>2.0</ele>
        <time>2019-05-16T16:52:40.897Z</time>
      </trkpt>
      <trkpt lat="39.16250833" lon="-8.71492667">
        <ele>2.0</ele>
        <time>2019-05-16T16:52:41.925Z</time>
      </trkpt>
      <trkpt lat="39.16250833" lon="-8.71492667">
        <ele>2.0</ele>
        <time>2019-05-16T16:52:42.909Z</time>
      </trkpt>
      <trkpt lat="39.16250833" lon="-8.71492667">
        <ele>2.0</ele>
        <time>2019-05-16T16:52:43.902Z</time>
      </trkpt>
      <trkpt lat="39.16250833" lon="-8.71492667">
        <ele>2.0</ele>
        <time>2019-05-16T16:52:44.905Z</time>
      </trkpt>
      <trkpt lat="39.16250833" lon="-8.71492667">
        <ele>2.0</ele>
        <time>2019-05-16T16:52:45.897Z</time>
      </trkpt>
      <trkpt lat="39.16250833" lon="-8.71492667">
        <ele>2.0</ele>
        <time>2019-05-16T16:52:46.910Z</time>
      </trkpt>
      <trkpt lat="39.16250833" lon="-8.71492667">
        <ele>2.0</ele>
        <time>2019-05-16T16:52:47.936Z</time>
      </trkpt>
      <trkpt lat="39.16250833" lon="-8.71492667">
        <ele>2.0</ele>
        <time>2019-05-16T16:52:48.903Z</time>
      </trkpt>
      <trkpt lat="39.16250833" lon="-8.71492667">
        <ele>2.0</ele>
        <time>2019-05-16T16:52:49.898Z</time>
      </trkpt>
      <trkpt lat="39.16250833" lon="-8.71492667">
        <ele>2.0</ele>
        <time>2019-05-16T16:52:50.923Z</time>
      </trkpt>
      <trkpt lat="39.16250833" lon="-8.71492667">
        <ele>2.0</ele>
        <time>2019-05-16T16:52:51.908Z</time>
      </trkpt>
      <trkpt lat="39.16250833" lon="-8.71492667">
        <ele>2.0</ele>
        <time>2019-05-16T16:52:52.903Z</time>
      </trkpt>
      <trkpt lat="39.16250833" lon="-8.71492667">
        <ele>2.0</ele>
        <time>2019-05-16T16:52:53.897Z</time>
      </trkpt>
      <trkpt lat="39.16250833" lon="-8.71492667">
        <ele>2.0</ele>
        <time>2019-05-16T16:52:54.902Z</time>
      </trkpt>
      <trkpt lat="39.16250833" lon="-8.71492667">
        <ele>2.0</ele>
        <time>2019-05-16T16:52:55.900Z</time>
      </trkpt>
      <trkpt lat="39.16250833" lon="-8.71492667">
        <ele>2.0</ele>
        <time>2019-05-16T16:52:56.904Z</time>
      </trkpt>
      <trkpt lat="39.16250833" lon="-8.71492667">
        <ele>2.0</ele>
        <time>2019-05-16T16:52:57.903Z</time>
      </trkpt>
      <trkpt lat="39.16250833" lon="-8.71492667">
        <ele>2.0</ele>
        <time>2019-05-16T16:52:58.903Z</time>
      </trkpt>
      <trkpt lat="39.16250833" lon="-8.71492667">
        <ele>2.0</ele>
        <time>2019-05-16T16:52:59.900Z</time>
      </trkpt>
      <trkpt lat="39.16250833" lon="-8.71492667">
        <ele>2.0</ele>
        <time>2019-05-16T16:53:00.900Z</time>
      </trkpt>
      <trkpt lat="39.16250833" lon="-8.71492667">
        <ele>2.0</ele>
        <time>2019-05-16T16:53:01.910Z</time>
      </trkpt>
      <trkpt lat="39.16250833" lon="-8.71492667">
        <ele>2.0</ele>
        <time>2019-05-16T16:53:02.908Z</time>
      </trkpt>
      <trkpt lat="39.16250833" lon="-8.71492667">
        <ele>2.0</ele>
        <time>2019-05-16T16:53:03.898Z</time>
      </trkpt>
      <trkpt lat="39.16250833" lon="-8.71492667">
        <ele>2.0</ele>
        <time>2019-05-16T16:53:04.902Z</time>
      </trkpt>
      <trkpt lat="39.16250833" lon="-8.71492667">
        <ele>2.0</ele>
        <time>2019-05-16T16:53:05.898Z</time>
      </trkpt>
      <trkpt lat="39.16250833" lon="-8.71492667">
        <ele>2.0</ele>
        <time>2019-05-16T16:53:06.902Z</time>
      </trkpt>
      <trkpt lat="39.16250833" lon="-8.71492667">
        <ele>2.0</ele>
        <time>2019-05-16T16:53:07.898Z</time>
      </trkpt>
      <trkpt lat="39.16250833" lon="-8.71492667">
        <ele>2.0</ele>
        <time>2019-05-16T16:53:08.906Z</time>
      </trkpt>
      <trkpt lat="39.16250833" lon="-8.71492667">
        <ele>2.0</ele>
        <time>2019-05-16T16:53:09.897Z</time>
      </trkpt>
      <trkpt lat="39.16250833" lon="-8.71492667">
        <ele>2.0</ele>
        <time>2019-05-16T16:53:10.903Z</time>
      </trkpt>
      <trkpt lat="39.16250833" lon="-8.71492667">
        <ele>2.0</ele>
        <time>2019-05-16T16:53:11.898Z</time>
      </trkpt>
      <trkpt lat="39.16250833" lon="-8.71492667">
        <ele>2.0</ele>
        <time>2019-05-16T16:53:12.903Z</time>
      </trkpt>
      <trkpt lat="39.16250833" lon="-8.71492667">
        <ele>2.0</ele>
        <time>2019-05-16T16:53:13.898Z</time>
      </trkpt>
      <trkpt lat="39.16250833" lon="-8.71492667">
        <ele>2.0</ele>
        <time>2019-05-16T16:53:14.905Z</time>
      </trkpt>
      <trkpt lat="39.16250833" lon="-8.71492667">
        <ele>2.0</ele>
        <time>2019-05-16T16:53:15.897Z</time>
      </trkpt>
      <trkpt lat="39.16250833" lon="-8.71492667">
        <ele>2.0</ele>
        <time>2019-05-16T16:53:16.902Z</time>
      </trkpt>
      <trkpt lat="39.16250833" lon="-8.71492667">
        <ele>2.0</ele>
        <time>2019-05-16T16:53:17.904Z</time>
      </trkpt>
      <trkpt lat="39.16250833" lon="-8.71492667">
        <ele>2.0</ele>
        <time>2019-05-16T16:53:18.898Z</time>
      </trkpt>
      <trkpt lat="39.16250833" lon="-8.71492667">
        <ele>2.0</ele>
        <time>2019-05-16T16:53:19.902Z</time>
      </trkpt>
      <trkpt lat="39.16250833" lon="-8.71492667">
        <ele>2.0</ele>
        <time>2019-05-16T16:53:20.922Z</time>
      </trkpt>
      <trkpt lat="39.16250833" lon="-8.71492667">
        <ele>2.0</ele>
        <time>2019-05-16T16:53:21.901Z</time>
      </trkpt>
      <trkpt lat="39.16250833" lon="-8.71492667">
        <ele>2.0</ele>
        <time>2019-05-16T16:53:22.907Z</time>
      </trkpt>
      <trkpt lat="39.16250833" lon="-8.71492667">
        <ele>2.0</ele>
        <time>2019-05-16T16:53:23.914Z</time>
      </trkpt>
      <trkpt lat="39.16250833" lon="-8.71492667">
        <ele>2.0</ele>
        <time>2019-05-16T16:53:24.905Z</time>
      </trkpt>
      <trkpt lat="39.16250833" lon="-8.71492667">
        <ele>2.0</ele>
        <time>2019-05-16T16:53:25.898Z</time>
      </trkpt>
      <trkpt lat="39.16250833" lon="-8.71492667">
        <ele>2.0</ele>
        <time>2019-05-16T16:53:26.906Z</time>
      </trkpt>
      <trkpt lat="39.16250833" lon="-8.71492667">
        <ele>2.0</ele>
        <time>2019-05-16T16:53:27.897Z</time>
      </trkpt>
      <trkpt lat="39.16250833" lon="-8.71492667">
        <ele>2.0</ele>
        <time>2019-05-16T16:53:28.903Z</time>
      </trkpt>
      <trkpt lat="39.16250833" lon="-8.71492667">
        <ele>2.0</ele>
        <time>2019-05-16T16:53:29.897Z</time>
      </trkpt>
      <trkpt lat="39.16250833" lon="-8.71492667">
        <ele>2.0</ele>
        <time>2019-05-16T16:53:30.903Z</time>
      </trkpt>
      <trkpt lat="39.16250833" lon="-8.71492667">
        <ele>2.0</ele>
        <time>2019-05-16T16:53:31.922Z</time>
      </trkpt>
      <trkpt lat="39.16250833" lon="-8.71492667">
        <ele>2.0</ele>
        <time>2019-05-16T16:53:32.908Z</time>
      </trkpt>
      <trkpt lat="39.16250833" lon="-8.71492667">
        <ele>2.0</ele>
        <time>2019-05-16T16:53:33.903Z</time>
      </trkpt>
      <trkpt lat="39.16250833" lon="-8.71492667">
        <ele>2.0</ele>
        <time>2019-05-16T16:53:34.898Z</time>
      </trkpt>
      <trkpt lat="39.16250833" lon="-8.71492667">
        <ele>2.0</ele>
        <time>2019-05-16T16:53:35.902Z</time>
      </trkpt>
      <trkpt lat="39.16250833" lon="-8.71492667">
        <ele>2.0</ele>
        <time>2019-05-16T16:53:36.898Z</time>
      </trkpt>
      <trkpt lat="39.16250833" lon="-8.71492667">
        <ele>2.0</ele>
        <time>2019-05-16T16:53:37.903Z</time>
      </trkpt>
      <trkpt lat="39.16250833" lon="-8.71492667">
        <ele>2.0</ele>
        <time>2019-05-16T16:53:38.905Z</time>
      </trkpt>
      <trkpt lat="39.16250833" lon="-8.71492667">
        <ele>2.0</ele>
        <time>2019-05-16T16:53:39.897Z</time>
      </trkpt>
      <trkpt lat="39.16250833" lon="-8.71492667">
        <ele>2.0</ele>
        <time>2019-05-16T16:53:40.932Z</time>
      </trkpt>
      <trkpt lat="39.16250833" lon="-8.71492667">
        <ele>2.0</ele>
        <time>2019-05-16T16:53:41.910Z</time>
      </trkpt>
      <trkpt lat="39.16250833" lon="-8.71492667">
        <ele>2.0</ele>
        <time>2019-05-16T16:53:42.902Z</time>
      </trkpt>
      <trkpt lat="39.16250833" lon="-8.71492667">
        <ele>2.0</ele>
        <time>2019-05-16T16:53:43.897Z</time>
      </trkpt>
      <trkpt lat="39.16250833" lon="-8.71492667">
        <ele>2.0</ele>
        <time>2019-05-16T16:53:44.906Z</time>
      </trkpt>
      <trkpt lat="39.16250833" lon="-8.71492667">
        <ele>2.0</ele>
        <time>2019-05-16T16:53:45.900Z</time>
      </trkpt>
      <trkpt lat="39.16250833" lon="-8.71492667">
        <ele>2.0</ele>
        <time>2019-05-16T16:53:46.902Z</time>
      </trkpt>
      <trkpt lat="39.16250833" lon="-8.71492667">
        <ele>2.0</ele>
        <time>2019-05-16T16:53:47.897Z</time>
      </trkpt>
      <trkpt lat="39.16250833" lon="-8.71492667">
        <ele>2.0</ele>
        <time>2019-05-16T16:53:48.907Z</time>
      </trkpt>
      <trkpt lat="39.16250833" lon="-8.71492667">
        <ele>2.0</ele>
        <time>2019-05-16T16:53:49.905Z</time>
      </trkpt>
      <trkpt lat="39.16250833" lon="-8.71492667">
        <ele>2.0</ele>
        <time>2019-05-16T16:53:50.901Z</time>
      </trkpt>
      <trkpt lat="39.16250833" lon="-8.71492667">
        <ele>2.0</ele>
        <time>2019-05-16T16:53:51.900Z</time>
      </trkpt>
      <trkpt lat="39.16250833" lon="-8.71492667">
        <ele>2.0</ele>
        <time>2019-05-16T16:53:52.905Z</time>
      </trkpt>
      <trkpt lat="39.16250833" lon="-8.71492667">
        <ele>2.0</ele>
        <time>2019-05-16T16:53:53.898Z</time>
      </trkpt>
      <trkpt lat="39.16250833" lon="-8.71492667">
        <ele>2.0</ele>
        <time>2019-05-16T16:53:54.903Z</time>
      </trkpt>
      <trkpt lat="39.16250833" lon="-8.71492667">
        <ele>2.0</ele>
        <time>2019-05-16T16:53:55.898Z</time>
      </trkpt>
      <trkpt lat="39.16250833" lon="-8.71492667">
        <ele>2.0</ele>
        <time>2019-05-16T16:53:56.905Z</time>
      </trkpt>
      <trkpt lat="39.16250833" lon="-8.71492667">
        <ele>2.0</ele>
        <time>2019-05-16T16:53:57.904Z</time>
      </trkpt>
      <trkpt lat="39.16250833" lon="-8.71492667">
        <ele>2.0</ele>
        <time>2019-05-16T16:53:58.903Z</time>
      </trkpt>
      <trkpt lat="39.16250833" lon="-8.71492667">
        <ele>2.0</ele>
        <time>2019-05-16T16:53:59.898Z</time>
      </trkpt>
      <trkpt lat="39.16250833" lon="-8.71492667">
        <ele>2.0</ele>
        <time>2019-05-16T16:54:00.908Z</time>
      </trkpt>
      <trkpt lat="39.16250833" lon="-8.71492667">
        <ele>2.0</ele>
        <time>2019-05-16T16:54:01.901Z</time>
      </trkpt>
      <trkpt lat="39.16250833" lon="-8.71492667">
        <ele>2.0</ele>
        <time>2019-05-16T16:54:02.905Z</time>
      </trkpt>
      <trkpt lat="39.16252167" lon="-8.71492333">
        <ele>5.0</ele>
        <time>2019-05-16T16:54:03.902Z</time>
      </trkpt>
      <trkpt lat="39.16252167" lon="-8.71492333">
        <ele>5.0</ele>
        <time>2019-05-16T16:54:04.898Z</time>
      </trkpt>
      <trkpt lat="39.16253" lon="-8.71491167">
        <ele>6.0</ele>
        <time>2019-05-16T16:54:05.928Z</time>
      </trkpt>
      <trkpt lat="39.16253" lon="-8.71491">
        <ele>6.0</ele>
        <time>2019-05-16T16:54:06.913Z</time>
      </trkpt>
      <trkpt lat="39.16253" lon="-8.71491">
        <ele>6.0</ele>
        <time>2019-05-16T16:54:07.900Z</time>
      </trkpt>
      <trkpt lat="39.16253" lon="-8.71491">
        <ele>6.0</ele>
        <time>2019-05-16T16:54:08.905Z</time>
      </trkpt>
      <trkpt lat="39.16253" lon="-8.71491">
        <ele>6.0</ele>
        <time>2019-05-16T16:54:09.898Z</time>
      </trkpt>
      <trkpt lat="39.16254167" lon="-8.714905">
        <ele>5.0</ele>
        <time>2019-05-16T16:54:10.932Z</time>
      </trkpt>
      <trkpt lat="39.16254167" lon="-8.714905">
        <ele>5.0</ele>
        <time>2019-05-16T16:54:11.917Z</time>
      </trkpt>
      <trkpt lat="39.16256833" lon="-8.71489167">
        <ele>5.0</ele>
        <time>2019-05-16T16:54:12.904Z</time>
      </trkpt>
      <trkpt lat="39.16256833" lon="-8.71489167">
        <ele>5.0</ele>
        <time>2019-05-16T16:54:13.898Z</time>
      </trkpt>
      <trkpt lat="39.162605" lon="-8.71486167">
        <ele>5.0</ele>
        <time>2019-05-16T16:54:14.907Z</time>
      </trkpt>
      <trkpt lat="39.162605" lon="-8.71486167">
        <ele>5.0</ele>
        <time>2019-05-16T16:54:15.898Z</time>
      </trkpt>
      <trkpt lat="39.162645" lon="-8.71481833">
        <ele>5.0</ele>
        <time>2019-05-16T16:54:16.910Z</time>
      </trkpt>
      <trkpt lat="39.162645" lon="-8.71481833">
        <ele>5.0</ele>
        <time>2019-05-16T16:54:17.913Z</time>
      </trkpt>
      <trkpt lat="39.16268667" lon="-8.71477667">
        <ele>5.0</ele>
        <time>2019-05-16T16:54:18.938Z</time>
      </trkpt>
      <trkpt lat="39.16268667" lon="-8.71477667">
        <ele>5.0</ele>
        <time>2019-05-16T16:54:19.899Z</time>
      </trkpt>
      <trkpt lat="39.16273" lon="-8.71473">
        <ele>5.0</ele>
        <time>2019-05-16T16:54:20.978Z</time>
      </trkpt>
      <trkpt lat="39.16273" lon="-8.71473">
        <ele>5.0</ele>
        <time>2019-05-16T16:54:21.952Z</time>
      </trkpt>
      <trkpt lat="39.16278333" lon="-8.714675">
        <ele>5.0</ele>
        <time>2019-05-16T16:54:22.919Z</time>
      </trkpt>
      <trkpt lat="39.16278333" lon="-8.714675">
        <ele>5.0</ele>
        <time>2019-05-16T16:54:23.919Z</time>
      </trkpt>
      <trkpt lat="39.16283667" lon="-8.71462333">
        <ele>4.0</ele>
        <time>2019-05-16T16:54:24.904Z</time>
      </trkpt>
      <trkpt lat="39.16283667" lon="-8.71462333">
        <ele>4.0</ele>
        <time>2019-05-16T16:54:25.923Z</time>
      </trkpt>
      <trkpt lat="39.16288833" lon="-8.714565">
        <ele>5.0</ele>
        <time>2019-05-16T16:54:26.905Z</time>
      </trkpt>
      <trkpt lat="39.16288833" lon="-8.714565">
        <ele>5.0</ele>
        <time>2019-05-16T16:54:27.913Z</time>
      </trkpt>
      <trkpt lat="39.16293833" lon="-8.71450833">
        <ele>5.0</ele>
        <time>2019-05-16T16:54:28.934Z</time>
      </trkpt>
      <trkpt lat="39.16293833" lon="-8.71450833">
        <ele>5.0</ele>
        <time>2019-05-16T16:54:29.914Z</time>
      </trkpt>
      <trkpt lat="39.16299" lon="-8.714455">
        <ele>5.0</ele>
        <time>2019-05-16T16:54:30.901Z</time>
      </trkpt>
      <trkpt lat="39.16299" lon="-8.714455">
        <ele>5.0</ele>
        <time>2019-05-16T16:54:31.927Z</time>
      </trkpt>
      <trkpt lat="39.16304" lon="-8.71440833">
        <ele>5.0</ele>
        <time>2019-05-16T16:54:32.917Z</time>
      </trkpt>
      <trkpt lat="39.16304" lon="-8.71440833">
        <ele>5.0</ele>
        <time>2019-05-16T16:54:33.910Z</time>
      </trkpt>
      <trkpt lat="39.16308667" lon="-8.71436333">
        <ele>5.0</ele>
        <time>2019-05-16T16:54:34.931Z</time>
      </trkpt>
      <trkpt lat="39.16308667" lon="-8.71436333">
        <ele>5.0</ele>
        <time>2019-05-16T16:54:35.909Z</time>
      </trkpt>
      <trkpt lat="39.16313333" lon="-8.71431333">
        <ele>4.0</ele>
        <time>2019-05-16T16:54:36.927Z</time>
      </trkpt>
      <trkpt lat="39.16313333" lon="-8.71431333">
        <ele>4.0</ele>
        <time>2019-05-16T16:54:37.923Z</time>
      </trkpt>
      <trkpt lat="39.16318333" lon="-8.71425833">
        <ele>4.0</ele>
        <time>2019-05-16T16:54:38.914Z</time>
      </trkpt>
      <trkpt lat="39.16318333" lon="-8.71425833">
        <ele>4.0</ele>
        <time>2019-05-16T16:54:39.897Z</time>
      </trkpt>
      <trkpt lat="39.163235" lon="-8.714205">
        <ele>4.0</ele>
        <time>2019-05-16T16:54:40.916Z</time>
      </trkpt>
      <trkpt lat="39.163235" lon="-8.714205">
        <ele>4.0</ele>
        <time>2019-05-16T16:54:41.923Z</time>
      </trkpt>
      <trkpt lat="39.16328833" lon="-8.714155">
        <ele>4.0</ele>
        <time>2019-05-16T16:54:42.900Z</time>
      </trkpt>
      <trkpt lat="39.16328833" lon="-8.714155">
        <ele>4.0</ele>
        <time>2019-05-16T16:54:43.933Z</time>
      </trkpt>
      <trkpt lat="39.16333833" lon="-8.71410333">
        <ele>5.0</ele>
        <time>2019-05-16T16:54:44.916Z</time>
      </trkpt>
      <trkpt lat="39.16333833" lon="-8.71410333">
        <ele>5.0</ele>
        <time>2019-05-16T16:54:45.935Z</time>
      </trkpt>
      <trkpt lat="39.16338333" lon="-8.71405667">
        <ele>4.0</ele>
        <time>2019-05-16T16:54:46.930Z</time>
      </trkpt>
      <trkpt lat="39.16338333" lon="-8.71405667">
        <ele>4.0</ele>
        <time>2019-05-16T16:54:47.934Z</time>
      </trkpt>
      <trkpt lat="39.16343167" lon="-8.71401">
        <ele>4.0</ele>
        <time>2019-05-16T16:54:48.922Z</time>
      </trkpt>
      <trkpt lat="39.16343167" lon="-8.71401">
        <ele>4.0</ele>
        <time>2019-05-16T16:54:49.912Z</time>
      </trkpt>
      <trkpt lat="39.16348167" lon="-8.71396167">
        <ele>4.0</ele>
        <time>2019-05-16T16:54:50.936Z</time>
      </trkpt>
      <trkpt lat="39.16348167" lon="-8.71396167">
        <ele>4.0</ele>
        <time>2019-05-16T16:54:51.923Z</time>
      </trkpt>
      <trkpt lat="39.16353167" lon="-8.713905">
        <ele>4.0</ele>
        <time>2019-05-16T16:54:52.913Z</time>
      </trkpt>
      <trkpt lat="39.16353167" lon="-8.713905">
        <ele>4.0</ele>
        <time>2019-05-16T16:54:53.903Z</time>
      </trkpt>
      <trkpt lat="39.16358167" lon="-8.71384833">
        <ele>3.0</ele>
        <time>2019-05-16T16:54:54.921Z</time>
      </trkpt>
      <trkpt lat="39.16358167" lon="-8.71384833">
        <ele>3.0</ele>
        <time>2019-05-16T16:54:55.928Z</time>
      </trkpt>
      <trkpt lat="39.163635" lon="-8.71379167">
        <ele>3.0</ele>
        <time>2019-05-16T16:54:56.908Z</time>
      </trkpt>
      <trkpt lat="39.163635" lon="-8.71379167">
        <ele>3.0</ele>
        <time>2019-05-16T16:54:57.935Z</time>
      </trkpt>
      <trkpt lat="39.16368667" lon="-8.713735">
        <ele>4.0</ele>
        <time>2019-05-16T16:54:58.919Z</time>
      </trkpt>
      <trkpt lat="39.16368667" lon="-8.713735">
        <ele>4.0</ele>
        <time>2019-05-16T16:54:59.934Z</time>
      </trkpt>
      <trkpt lat="39.16373667" lon="-8.71368333">
        <ele>3.0</ele>
        <time>2019-05-16T16:55:00.917Z</time>
      </trkpt>
      <trkpt lat="39.16373667" lon="-8.71368333">
        <ele>3.0</ele>
        <time>2019-05-16T16:55:01.906Z</time>
      </trkpt>
      <trkpt lat="39.16378333" lon="-8.71363333">
        <ele>3.0</ele>
        <time>2019-05-16T16:55:02.921Z</time>
      </trkpt>
      <trkpt lat="39.16378333" lon="-8.71363333">
        <ele>3.0</ele>
        <time>2019-05-16T16:55:03.936Z</time>
      </trkpt>
      <trkpt lat="39.16383" lon="-8.71359">
        <ele>2.0</ele>
        <time>2019-05-16T16:55:04.915Z</time>
      </trkpt>
      <trkpt lat="39.16383" lon="-8.71359">
        <ele>2.0</ele>
        <time>2019-05-16T16:55:05.924Z</time>
      </trkpt>
      <trkpt lat="39.163875" lon="-8.71355">
        <ele>2.0</ele>
        <time>2019-05-16T16:55:06.939Z</time>
      </trkpt>
      <trkpt lat="39.163875" lon="-8.71355">
        <ele>2.0</ele>
        <time>2019-05-16T16:55:07.932Z</time>
      </trkpt>
      <trkpt lat="39.16392" lon="-8.71350667">
        <ele>2.0</ele>
        <time>2019-05-16T16:55:08.907Z</time>
      </trkpt>
      <trkpt lat="39.16392" lon="-8.71350667">
        <ele>2.0</ele>
        <time>2019-05-16T16:55:09.909Z</time>
      </trkpt>
      <trkpt lat="39.16396333" lon="-8.71345833">
        <ele>2.0</ele>
        <time>2019-05-16T16:55:10.900Z</time>
      </trkpt>
      <trkpt lat="39.16398667" lon="-8.71343333">
        <ele>3.0</ele>
        <time>2019-05-16T16:55:11.915Z</time>
      </trkpt>
      <trkpt lat="39.16398667" lon="-8.71343333">
        <ele>3.0</ele>
        <time>2019-05-16T16:55:12.911Z</time>
      </trkpt>
      <trkpt lat="39.16403167" lon="-8.71338">
        <ele>2.0</ele>
        <time>2019-05-16T16:55:13.928Z</time>
      </trkpt>
      <trkpt lat="39.164055" lon="-8.713355">
        <ele>2.0</ele>
        <time>2019-05-16T16:55:14.903Z</time>
      </trkpt>
      <trkpt lat="39.164055" lon="-8.713355">
        <ele>2.0</ele>
        <time>2019-05-16T16:55:15.905Z</time>
      </trkpt>
      <trkpt lat="39.164105" lon="-8.71330667">
        <ele>2.0</ele>
        <time>2019-05-16T16:55:16.921Z</time>
      </trkpt>
      <trkpt lat="39.164105" lon="-8.71330667">
        <ele>2.0</ele>
        <time>2019-05-16T16:55:17.933Z</time>
      </trkpt>
      <trkpt lat="39.164155" lon="-8.713255">
        <ele>2.0</ele>
        <time>2019-05-16T16:55:18.911Z</time>
      </trkpt>
      <trkpt lat="39.164155" lon="-8.713255">
        <ele>2.0</ele>
        <time>2019-05-16T16:55:19.934Z</time>
      </trkpt>
      <trkpt lat="39.16420167" lon="-8.713205">
        <ele>2.0</ele>
        <time>2019-05-16T16:55:20.898Z</time>
      </trkpt>
      <trkpt lat="39.16420167" lon="-8.713205">
        <ele>2.0</ele>
        <time>2019-05-16T16:55:21.932Z</time>
      </trkpt>
      <trkpt lat="39.16425167" lon="-8.71316167">
        <ele>2.0</ele>
        <time>2019-05-16T16:55:22.913Z</time>
      </trkpt>
      <trkpt lat="39.16425167" lon="-8.71316167">
        <ele>2.0</ele>
        <time>2019-05-16T16:55:23.913Z</time>
      </trkpt>
      <trkpt lat="39.16430333" lon="-8.71312">
        <ele>2.0</ele>
        <time>2019-05-16T16:55:24.926Z</time>
      </trkpt>
      <trkpt lat="39.16430333" lon="-8.71312">
        <ele>2.0</ele>
        <time>2019-05-16T16:55:25.897Z</time>
      </trkpt>
      <trkpt lat="39.164355" lon="-8.71308">
        <ele>1.0</ele>
        <time>2019-05-16T16:55:26.914Z</time>
      </trkpt>
      <trkpt lat="39.164355" lon="-8.71308">
        <ele>1.0</ele>
        <time>2019-05-16T16:55:27.923Z</time>
      </trkpt>
      <trkpt lat="39.164405" lon="-8.71303667">
        <ele>1.0</ele>
        <time>2019-05-16T16:55:28.911Z</time>
      </trkpt>
      <trkpt lat="39.164405" lon="-8.71303667">
        <ele>1.0</ele>
        <time>2019-05-16T16:55:29.931Z</time>
      </trkpt>
      <trkpt lat="39.16445" lon="-8.71298">
        <ele>2.0</ele>
        <time>2019-05-16T16:55:30.933Z</time>
      </trkpt>
      <trkpt lat="39.16445" lon="-8.71298">
        <ele>2.0</ele>
        <time>2019-05-16T16:55:31.930Z</time>
      </trkpt>
      <trkpt lat="39.16449667" lon="-8.71293667">
        <ele>2.0</ele>
        <time>2019-05-16T16:55:32.921Z</time>
      </trkpt>
      <trkpt lat="39.16449667" lon="-8.71293667">
        <ele>2.0</ele>
        <time>2019-05-16T16:55:33.909Z</time>
      </trkpt>
      <trkpt lat="39.16454333" lon="-8.71290167">
        <ele>2.0</ele>
        <time>2019-05-16T16:55:34.930Z</time>
      </trkpt>
      <trkpt lat="39.16454333" lon="-8.71290167">
        <ele>2.0</ele>
        <time>2019-05-16T16:55:35.910Z</time>
      </trkpt>
      <trkpt lat="39.164585" lon="-8.71286167">
        <ele>3.0</ele>
        <time>2019-05-16T16:55:36.925Z</time>
      </trkpt>
      <trkpt lat="39.164585" lon="-8.71286167">
        <ele>3.0</ele>
        <time>2019-05-16T16:55:37.933Z</time>
      </trkpt>
      <trkpt lat="39.16462667" lon="-8.71281833">
        <ele>3.0</ele>
        <time>2019-05-16T16:55:38.915Z</time>
      </trkpt>
      <trkpt lat="39.16462667" lon="-8.71281833">
        <ele>3.0</ele>
        <time>2019-05-16T16:55:39.922Z</time>
      </trkpt>
      <trkpt lat="39.16467167" lon="-8.71277833">
        <ele>3.0</ele>
        <time>2019-05-16T16:55:40.916Z</time>
      </trkpt>
      <trkpt lat="39.16467167" lon="-8.71277833">
        <ele>3.0</ele>
        <time>2019-05-16T16:55:41.910Z</time>
      </trkpt>
      <trkpt lat="39.16471667" lon="-8.71273667">
        <ele>3.0</ele>
        <time>2019-05-16T16:55:42.926Z</time>
      </trkpt>
      <trkpt lat="39.16471667" lon="-8.71273667">
        <ele>3.0</ele>
        <time>2019-05-16T16:55:43.932Z</time>
      </trkpt>
      <trkpt lat="39.16476167" lon="-8.71268667">
        <ele>3.0</ele>
        <time>2019-05-16T16:55:44.918Z</time>
      </trkpt>
      <trkpt lat="39.16476167" lon="-8.71268667">
        <ele>3.0</ele>
        <time>2019-05-16T16:55:45.929Z</time>
      </trkpt>
      <trkpt lat="39.16481" lon="-8.71264167">
        <ele>4.0</ele>
        <time>2019-05-16T16:55:46.904Z</time>
      </trkpt>
      <trkpt lat="39.16481" lon="-8.71264167">
        <ele>4.0</ele>
        <time>2019-05-16T16:55:47.907Z</time>
      </trkpt>
      <trkpt lat="39.16485833" lon="-8.71259667">
        <ele>4.0</ele>
        <time>2019-05-16T16:55:48.928Z</time>
      </trkpt>
      <trkpt lat="39.16485833" lon="-8.71259667">
        <ele>4.0</ele>
        <time>2019-05-16T16:55:49.932Z</time>
      </trkpt>
      <trkpt lat="39.16490833" lon="-8.71255167">
        <ele>4.0</ele>
        <time>2019-05-16T16:55:50.919Z</time>
      </trkpt>
      <trkpt lat="39.16490833" lon="-8.71255167">
        <ele>4.0</ele>
        <time>2019-05-16T16:55:51.932Z</time>
      </trkpt>
      <trkpt lat="39.16495667" lon="-8.712505">
        <ele>4.0</ele>
        <time>2019-05-16T16:55:52.913Z</time>
      </trkpt>
      <trkpt lat="39.16495667" lon="-8.712505">
        <ele>4.0</ele>
        <time>2019-05-16T16:55:53.935Z</time>
      </trkpt>
      <trkpt lat="39.16500333" lon="-8.712455">
        <ele>4.0</ele>
        <time>2019-05-16T16:55:54.911Z</time>
      </trkpt>
      <trkpt lat="39.16500333" lon="-8.712455">
        <ele>4.0</ele>
        <time>2019-05-16T16:55:55.898Z</time>
      </trkpt>
      <trkpt lat="39.165055" lon="-8.71240667">
        <ele>4.0</ele>
        <time>2019-05-16T16:55:56.921Z</time>
      </trkpt>
      <trkpt lat="39.165055" lon="-8.71240667">
        <ele>4.0</ele>
        <time>2019-05-16T16:55:57.905Z</time>
      </trkpt>
      <trkpt lat="39.165105" lon="-8.71235333">
        <ele>4.0</ele>
        <time>2019-05-16T16:55:58.924Z</time>
      </trkpt>
      <trkpt lat="39.16513167" lon="-8.71232833">
        <ele>3.0</ele>
        <time>2019-05-16T16:55:59.934Z</time>
      </trkpt>
      <trkpt lat="39.16513167" lon="-8.71232833">
        <ele>3.0</ele>
        <time>2019-05-16T16:56:00.907Z</time>
      </trkpt>
      <trkpt lat="39.165185" lon="-8.71227667">
        <ele>3.0</ele>
        <time>2019-05-16T16:56:01.929Z</time>
      </trkpt>
      <trkpt lat="39.16521167" lon="-8.71225167">
        <ele>3.0</ele>
        <time>2019-05-16T16:56:02.908Z</time>
      </trkpt>
      <trkpt lat="39.16521167" lon="-8.71225167">
        <ele>3.0</ele>
        <time>2019-05-16T16:56:03.904Z</time>
      </trkpt>
      <trkpt lat="39.16526333" lon="-8.7122">
        <ele>3.0</ele>
        <time>2019-05-16T16:56:04.926Z</time>
      </trkpt>
      <trkpt lat="39.16526333" lon="-8.7122">
        <ele>3.0</ele>
        <time>2019-05-16T16:56:05.900Z</time>
      </trkpt>
      <trkpt lat="39.165315" lon="-8.71215333">
        <ele>3.0</ele>
        <time>2019-05-16T16:56:06.923Z</time>
      </trkpt>
      <trkpt lat="39.165315" lon="-8.71215333">
        <ele>3.0</ele>
        <time>2019-05-16T16:56:07.923Z</time>
      </trkpt>
      <trkpt lat="39.16536167" lon="-8.71210667">
        <ele>3.0</ele>
        <time>2019-05-16T16:56:08.910Z</time>
      </trkpt>
      <trkpt lat="39.16536167" lon="-8.71210667">
        <ele>3.0</ele>
        <time>2019-05-16T16:56:09.923Z</time>
      </trkpt>
      <trkpt lat="39.16540667" lon="-8.71206667">
        <ele>3.0</ele>
        <time>2019-05-16T16:56:10.921Z</time>
      </trkpt>
      <trkpt lat="39.16540667" lon="-8.71206667">
        <ele>3.0</ele>
        <time>2019-05-16T16:56:11.912Z</time>
      </trkpt>
      <trkpt lat="39.16546" lon="-8.71200833">
        <ele>3.0</ele>
        <time>2019-05-16T16:56:12.933Z</time>
      </trkpt>
      <trkpt lat="39.16546" lon="-8.71200833">
        <ele>3.0</ele>
        <time>2019-05-16T16:56:13.904Z</time>
      </trkpt>
      <trkpt lat="39.16552167" lon="-8.711945">
        <ele>3.0</ele>
        <time>2019-05-16T16:56:14.903Z</time>
      </trkpt>
      <trkpt lat="39.16552167" lon="-8.711945">
        <ele>3.0</ele>
        <time>2019-05-16T16:56:15.929Z</time>
      </trkpt>
      <trkpt lat="39.16557667" lon="-8.71188667">
        <ele>3.0</ele>
        <time>2019-05-16T16:56:16.907Z</time>
      </trkpt>
      <trkpt lat="39.16557667" lon="-8.71188667">
        <ele>3.0</ele>
        <time>2019-05-16T16:56:17.903Z</time>
      </trkpt>
      <trkpt lat="39.165635" lon="-8.71184667">
        <ele>3.0</ele>
        <time>2019-05-16T16:56:18.934Z</time>
      </trkpt>
      <trkpt lat="39.165665" lon="-8.71182667">
        <ele>3.0</ele>
        <time>2019-05-16T16:56:19.931Z</time>
      </trkpt>
      <trkpt lat="39.165665" lon="-8.71182667">
        <ele>3.0</ele>
        <time>2019-05-16T16:56:20.905Z</time>
      </trkpt>
      <trkpt lat="39.165715" lon="-8.71178">
        <ele>3.0</ele>
        <time>2019-05-16T16:56:21.978Z</time>
      </trkpt>
      <trkpt lat="39.165715" lon="-8.71178">
        <ele>3.0</ele>
        <time>2019-05-16T16:56:22.911Z</time>
      </trkpt>
      <trkpt lat="39.16576167" lon="-8.71173667">
        <ele>3.0</ele>
        <time>2019-05-16T16:56:23.929Z</time>
      </trkpt>
      <trkpt lat="39.16576167" lon="-8.71173667">
        <ele>3.0</ele>
        <time>2019-05-16T16:56:24.921Z</time>
      </trkpt>
      <trkpt lat="39.16579833" lon="-8.71169167">
        <ele>3.0</ele>
        <time>2019-05-16T16:56:25.905Z</time>
      </trkpt>
      <trkpt lat="39.16581167" lon="-8.71167167">
        <ele>3.0</ele>
        <time>2019-05-16T16:56:26.919Z</time>
      </trkpt>
      <trkpt lat="39.16581167" lon="-8.71167167">
        <ele>3.0</ele>
        <time>2019-05-16T16:56:27.898Z</time>
      </trkpt>
      <trkpt lat="39.16583833" lon="-8.71164">
        <ele>4.0</ele>
        <time>2019-05-16T16:56:28.900Z</time>
      </trkpt>
      <trkpt lat="39.16583833" lon="-8.71164">
        <ele>4.0</ele>
        <time>2019-05-16T16:56:29.913Z</time>
      </trkpt>
      <trkpt lat="39.16587167" lon="-8.71161167">
        <ele>4.0</ele>
        <time>2019-05-16T16:56:30.913Z</time>
      </trkpt>
      <trkpt lat="39.16589167" lon="-8.711595">
        <ele>4.0</ele>
        <time>2019-05-16T16:56:31.912Z</time>
      </trkpt>
      <trkpt lat="39.165915" lon="-8.71157333">
        <ele>4.0</ele>
        <time>2019-05-16T16:56:32.904Z</time>
      </trkpt>
      <trkpt lat="39.165915" lon="-8.71157333">
        <ele>4.0</ele>
        <time>2019-05-16T16:56:33.923Z</time>
      </trkpt>
      <trkpt lat="39.16596333" lon="-8.71152667">
        <ele>4.0</ele>
        <time>2019-05-16T16:56:34.909Z</time>
      </trkpt>
      <trkpt lat="39.16596333" lon="-8.71152667">
        <ele>4.0</ele>
        <time>2019-05-16T16:56:35.920Z</time>
      </trkpt>
      <trkpt lat="39.166015" lon="-8.71148167">
        <ele>4.0</ele>
        <time>2019-05-16T16:56:36.925Z</time>
      </trkpt>
      <trkpt lat="39.16603833" lon="-8.71145833">
        <ele>4.0</ele>
        <time>2019-05-16T16:56:37.921Z</time>
      </trkpt>
      <trkpt lat="39.16606" lon="-8.71143333">
        <ele>4.0</ele>
        <time>2019-05-16T16:56:38.923Z</time>
      </trkpt>
      <trkpt lat="39.16606" lon="-8.71143333">
        <ele>4.0</ele>
        <time>2019-05-16T16:56:39.909Z</time>
      </trkpt>
      <trkpt lat="39.16611" lon="-8.71138833">
        <ele>4.0</ele>
        <time>2019-05-16T16:56:40.926Z</time>
      </trkpt>
      <trkpt lat="39.16611" lon="-8.71138833">
        <ele>4.0</ele>
        <time>2019-05-16T16:56:41.908Z</time>
      </trkpt>
      <trkpt lat="39.16615667" lon="-8.71134667">
        <ele>4.0</ele>
        <time>2019-05-16T16:56:42.934Z</time>
      </trkpt>
      <trkpt lat="39.16617833" lon="-8.71132333">
        <ele>4.0</ele>
        <time>2019-05-16T16:56:43.921Z</time>
      </trkpt>
      <trkpt lat="39.16620333" lon="-8.71129667">
        <ele>4.0</ele>
        <time>2019-05-16T16:56:44.927Z</time>
      </trkpt>
      <trkpt lat="39.16620333" lon="-8.71129667">
        <ele>4.0</ele>
        <time>2019-05-16T16:56:45.934Z</time>
      </trkpt>
      <trkpt lat="39.16625333" lon="-8.71124833">
        <ele>4.0</ele>
        <time>2019-05-16T16:56:46.911Z</time>
      </trkpt>
      <trkpt lat="39.16625333" lon="-8.71124833">
        <ele>4.0</ele>
        <time>2019-05-16T16:56:47.935Z</time>
      </trkpt>
      <trkpt lat="39.16630833" lon="-8.7112">
        <ele>4.0</ele>
        <time>2019-05-16T16:56:48.912Z</time>
      </trkpt>
      <trkpt lat="39.16630833" lon="-8.7112">
        <ele>4.0</ele>
        <time>2019-05-16T16:56:49.902Z</time>
      </trkpt>
      <trkpt lat="39.16635667" lon="-8.71115167">
        <ele>4.0</ele>
        <time>2019-05-16T16:56:50.925Z</time>
      </trkpt>
      <trkpt lat="39.16635667" lon="-8.71115167">
        <ele>4.0</ele>
        <time>2019-05-16T16:56:51.923Z</time>
      </trkpt>
      <trkpt lat="39.16640333" lon="-8.71109667">
        <ele>4.0</ele>
        <time>2019-05-16T16:56:52.901Z</time>
      </trkpt>
      <trkpt lat="39.16642833" lon="-8.71107167">
        <ele>4.0</ele>
        <time>2019-05-16T16:56:53.910Z</time>
      </trkpt>
      <trkpt lat="39.16642833" lon="-8.71107167">
        <ele>4.0</ele>
        <time>2019-05-16T16:56:54.930Z</time>
      </trkpt>
      <trkpt lat="39.16647333" lon="-8.711025">
        <ele>4.0</ele>
        <time>2019-05-16T16:56:55.915Z</time>
      </trkpt>
      <trkpt lat="39.16649667" lon="-8.71100167">
        <ele>4.0</ele>
        <time>2019-05-16T16:56:56.921Z</time>
      </trkpt>
      <trkpt lat="39.16649667" lon="-8.71100167">
        <ele>4.0</ele>
        <time>2019-05-16T16:56:57.902Z</time>
      </trkpt>
      <trkpt lat="39.16654667" lon="-8.710955">
        <ele>4.0</ele>
        <time>2019-05-16T16:56:58.927Z</time>
      </trkpt>
      <trkpt lat="39.16654667" lon="-8.710955">
        <ele>4.0</ele>
        <time>2019-05-16T16:56:59.909Z</time>
      </trkpt>
      <trkpt lat="39.16659667" lon="-8.71091167">
        <ele>5.0</ele>
        <time>2019-05-16T16:57:00.936Z</time>
      </trkpt>
      <trkpt lat="39.16659667" lon="-8.71091167">
        <ele>5.0</ele>
        <time>2019-05-16T16:57:01.929Z</time>
      </trkpt>
      <trkpt lat="39.16664333" lon="-8.71087333">
        <ele>5.0</ele>
        <time>2019-05-16T16:57:02.909Z</time>
      </trkpt>
      <trkpt lat="39.16664333" lon="-8.71087333">
        <ele>5.0</ele>
        <time>2019-05-16T16:57:03.900Z</time>
      </trkpt>
      <trkpt lat="39.16669" lon="-8.71082667">
        <ele>5.0</ele>
        <time>2019-05-16T16:57:04.925Z</time>
      </trkpt>
      <trkpt lat="39.16669" lon="-8.71082667">
        <ele>5.0</ele>
        <time>2019-05-16T16:57:05.902Z</time>
      </trkpt>
      <trkpt lat="39.16674167" lon="-8.71078">
        <ele>5.0</ele>
        <time>2019-05-16T16:57:06.915Z</time>
      </trkpt>
      <trkpt lat="39.16674167" lon="-8.71078">
        <ele>5.0</ele>
        <time>2019-05-16T16:57:07.934Z</time>
      </trkpt>
      <trkpt lat="39.16679667" lon="-8.71073">
        <ele>4.0</ele>
        <time>2019-05-16T16:57:08.912Z</time>
      </trkpt>
      <trkpt lat="39.16679667" lon="-8.71073">
        <ele>4.0</ele>
        <time>2019-05-16T16:57:09.913Z</time>
      </trkpt>
      <trkpt lat="39.16685" lon="-8.71068333">
        <ele>5.0</ele>
        <time>2019-05-16T16:57:10.931Z</time>
      </trkpt>
      <trkpt lat="39.16685" lon="-8.71068333">
        <ele>5.0</ele>
        <time>2019-05-16T16:57:11.930Z</time>
      </trkpt>
      <trkpt lat="39.16690167" lon="-8.71063833">
        <ele>4.0</ele>
        <time>2019-05-16T16:57:12.918Z</time>
      </trkpt>
      <trkpt lat="39.16690167" lon="-8.71063833">
        <ele>4.0</ele>
        <time>2019-05-16T16:57:13.901Z</time>
      </trkpt>
      <trkpt lat="39.16695333" lon="-8.71058833">
        <ele>4.0</ele>
        <time>2019-05-16T16:57:14.931Z</time>
      </trkpt>
      <trkpt lat="39.16695333" lon="-8.71058833">
        <ele>4.0</ele>
        <time>2019-05-16T16:57:15.915Z</time>
      </trkpt>
      <trkpt lat="39.16700167" lon="-8.71054">
        <ele>4.0</ele>
        <time>2019-05-16T16:57:16.900Z</time>
      </trkpt>
      <trkpt lat="39.16700167" lon="-8.71054">
        <ele>4.0</ele>
        <time>2019-05-16T16:57:17.920Z</time>
      </trkpt>
      <trkpt lat="39.16705333" lon="-8.710495">
        <ele>4.0</ele>
        <time>2019-05-16T16:57:18.898Z</time>
      </trkpt>
      <trkpt lat="39.16705333" lon="-8.710495">
        <ele>4.0</ele>
        <time>2019-05-16T16:57:19.933Z</time>
      </trkpt>
      <trkpt lat="39.16710333" lon="-8.71045">
        <ele>4.0</ele>
        <time>2019-05-16T16:57:20.938Z</time>
      </trkpt>
      <trkpt lat="39.16710333" lon="-8.71045">
        <ele>4.0</ele>
        <time>2019-05-16T16:57:21.936Z</time>
      </trkpt>
      <trkpt lat="39.16715333" lon="-8.71040833">
        <ele>4.0</ele>
        <time>2019-05-16T16:57:22.910Z</time>
      </trkpt>
      <trkpt lat="39.16715333" lon="-8.71040833">
        <ele>4.0</ele>
        <time>2019-05-16T16:57:23.918Z</time>
      </trkpt>
      <trkpt lat="39.16720667" lon="-8.71036167">
        <ele>3.0</ele>
        <time>2019-05-16T16:57:24.909Z</time>
      </trkpt>
      <trkpt lat="39.16720667" lon="-8.71036167">
        <ele>3.0</ele>
        <time>2019-05-16T16:57:25.928Z</time>
      </trkpt>
      <trkpt lat="39.16725833" lon="-8.71031667">
        <ele>3.0</ele>
        <time>2019-05-16T16:57:26.916Z</time>
      </trkpt>
      <trkpt lat="39.16725833" lon="-8.71031667">
        <ele>3.0</ele>
        <time>2019-05-16T16:57:27.913Z</time>
      </trkpt>
      <trkpt lat="39.16730667" lon="-8.71027167">
        <ele>3.0</ele>
        <time>2019-05-16T16:57:28.901Z</time>
      </trkpt>
      <trkpt lat="39.16730667" lon="-8.71027167">
        <ele>3.0</ele>
        <time>2019-05-16T16:57:29.902Z</time>
      </trkpt>
      <trkpt lat="39.16736" lon="-8.710225">
        <ele>3.0</ele>
        <time>2019-05-16T16:57:30.920Z</time>
      </trkpt>
      <trkpt lat="39.16736" lon="-8.710225">
        <ele>3.0</ele>
        <time>2019-05-16T16:57:31.901Z</time>
      </trkpt>
      <trkpt lat="39.16741167" lon="-8.71018">
        <ele>3.0</ele>
        <time>2019-05-16T16:57:32.921Z</time>
      </trkpt>
      <trkpt lat="39.16741167" lon="-8.71018">
        <ele>3.0</ele>
        <time>2019-05-16T16:57:33.913Z</time>
      </trkpt>
      <trkpt lat="39.167465" lon="-8.71013833">
        <ele>3.0</ele>
        <time>2019-05-16T16:57:34.935Z</time>
      </trkpt>
      <trkpt lat="39.167465" lon="-8.71013833">
        <ele>3.0</ele>
        <time>2019-05-16T16:57:35.916Z</time>
      </trkpt>
      <trkpt lat="39.16752" lon="-8.71009333">
        <ele>3.0</ele>
        <time>2019-05-16T16:57:36.937Z</time>
      </trkpt>
      <trkpt lat="39.16752" lon="-8.71009333">
        <ele>3.0</ele>
        <time>2019-05-16T16:57:37.935Z</time>
      </trkpt>
      <trkpt lat="39.16757" lon="-8.71003833">
        <ele>3.0</ele>
        <time>2019-05-16T16:57:38.914Z</time>
      </trkpt>
      <trkpt lat="39.16757" lon="-8.71003833">
        <ele>3.0</ele>
        <time>2019-05-16T16:57:39.930Z</time>
      </trkpt>
      <trkpt lat="39.16761833" lon="-8.70998167">
        <ele>3.0</ele>
        <time>2019-05-16T16:57:40.914Z</time>
      </trkpt>
      <trkpt lat="39.16761833" lon="-8.70998167">
        <ele>3.0</ele>
        <time>2019-05-16T16:57:41.900Z</time>
      </trkpt>
      <trkpt lat="39.16767167" lon="-8.70992833">
        <ele>3.0</ele>
        <time>2019-05-16T16:57:42.920Z</time>
      </trkpt>
      <trkpt lat="39.16767167" lon="-8.70992833">
        <ele>3.0</ele>
        <time>2019-05-16T16:57:43.913Z</time>
      </trkpt>
      <trkpt lat="39.16772667" lon="-8.70988">
        <ele>3.0</ele>
        <time>2019-05-16T16:57:44.935Z</time>
      </trkpt>
      <trkpt lat="39.16772667" lon="-8.70988">
        <ele>3.0</ele>
        <time>2019-05-16T16:57:45.917Z</time>
      </trkpt>
      <trkpt lat="39.16778167" lon="-8.70982333">
        <ele>2.0</ele>
        <time>2019-05-16T16:57:46.902Z</time>
      </trkpt>
      <trkpt lat="39.16780667" lon="-8.709795">
        <ele>3.0</ele>
        <time>2019-05-16T16:57:47.919Z</time>
      </trkpt>
      <trkpt lat="39.16780667" lon="-8.709795">
        <ele>3.0</ele>
        <time>2019-05-16T16:57:48.899Z</time>
      </trkpt>
      <trkpt lat="39.167855" lon="-8.709745">
        <ele>3.0</ele>
        <time>2019-05-16T16:57:49.921Z</time>
      </trkpt>
      <trkpt lat="39.16788" lon="-8.70972">
        <ele>3.0</ele>
        <time>2019-05-16T16:57:50.908Z</time>
      </trkpt>
      <trkpt lat="39.16788" lon="-8.70972">
        <ele>3.0</ele>
        <time>2019-05-16T16:57:51.920Z</time>
      </trkpt>
      <trkpt lat="39.16793333" lon="-8.70967">
        <ele>3.0</ele>
        <time>2019-05-16T16:57:52.905Z</time>
      </trkpt>
      <trkpt lat="39.16793333" lon="-8.70967">
        <ele>3.0</ele>
        <time>2019-05-16T16:57:53.911Z</time>
      </trkpt>
      <trkpt lat="39.16799" lon="-8.70962">
        <ele>3.0</ele>
        <time>2019-05-16T16:57:54.921Z</time>
      </trkpt>
      <trkpt lat="39.16799" lon="-8.70962">
        <ele>3.0</ele>
        <time>2019-05-16T16:57:55.903Z</time>
      </trkpt>
      <trkpt lat="39.168045" lon="-8.70956667">
        <ele>3.0</ele>
        <time>2019-05-16T16:57:56.921Z</time>
      </trkpt>
      <trkpt lat="39.168045" lon="-8.70956667">
        <ele>3.0</ele>
        <time>2019-05-16T16:57:57.937Z</time>
      </trkpt>
      <trkpt lat="39.16809833" lon="-8.70952">
        <ele>3.0</ele>
        <time>2019-05-16T16:57:58.921Z</time>
      </trkpt>
      <trkpt lat="39.16809833" lon="-8.70952">
        <ele>3.0</ele>
        <time>2019-05-16T16:57:59.933Z</time>
      </trkpt>
      <trkpt lat="39.168155" lon="-8.70946833">
        <ele>3.0</ele>
        <time>2019-05-16T16:58:00.914Z</time>
      </trkpt>
      <trkpt lat="39.168155" lon="-8.70946833">
        <ele>3.0</ele>
        <time>2019-05-16T16:58:01.924Z</time>
      </trkpt>
      <trkpt lat="39.168215" lon="-8.70941167">
        <ele>3.0</ele>
        <time>2019-05-16T16:58:02.914Z</time>
      </trkpt>
      <trkpt lat="39.168215" lon="-8.70941167">
        <ele>3.0</ele>
        <time>2019-05-16T16:58:03.935Z</time>
      </trkpt>
      <trkpt lat="39.168275" lon="-8.709355">
        <ele>3.0</ele>
        <time>2019-05-16T16:58:04.912Z</time>
      </trkpt>
      <trkpt lat="39.168305" lon="-8.70932667">
        <ele>3.0</ele>
        <time>2019-05-16T16:58:05.928Z</time>
      </trkpt>
      <trkpt lat="39.168305" lon="-8.70932667">
        <ele>3.0</ele>
        <time>2019-05-16T16:58:06.916Z</time>
      </trkpt>
      <trkpt lat="39.16836833" lon="-8.70927333">
        <ele>3.0</ele>
        <time>2019-05-16T16:58:07.900Z</time>
      </trkpt>
      <trkpt lat="39.16839833" lon="-8.709245">
        <ele>3.0</ele>
        <time>2019-05-16T16:58:08.935Z</time>
      </trkpt>
      <trkpt lat="39.16839833" lon="-8.709245">
        <ele>3.0</ele>
        <time>2019-05-16T16:58:09.922Z</time>
      </trkpt>
      <trkpt lat="39.16845833" lon="-8.70918833">
        <ele>3.0</ele>
        <time>2019-05-16T16:58:10.902Z</time>
      </trkpt>
      <trkpt lat="39.16845833" lon="-8.70918833">
        <ele>3.0</ele>
        <time>2019-05-16T16:58:11.933Z</time>
      </trkpt>
      <trkpt lat="39.16851667" lon="-8.70913333">
        <ele>2.0</ele>
        <time>2019-05-16T16:58:12.919Z</time>
      </trkpt>
      <trkpt lat="39.16851667" lon="-8.70913333">
        <ele>2.0</ele>
        <time>2019-05-16T16:58:13.922Z</time>
      </trkpt>
      <trkpt lat="39.16857167" lon="-8.70908333">
        <ele>2.0</ele>
        <time>2019-05-16T16:58:14.908Z</time>
      </trkpt>
      <trkpt lat="39.16857167" lon="-8.70908333">
        <ele>2.0</ele>
        <time>2019-05-16T16:58:15.904Z</time>
      </trkpt>
      <trkpt lat="39.16862833" lon="-8.70903333">
        <ele>2.0</ele>
        <time>2019-05-16T16:58:16.923Z</time>
      </trkpt>
      <trkpt lat="39.16865667" lon="-8.709005">
        <ele>2.0</ele>
        <time>2019-05-16T16:58:17.914Z</time>
      </trkpt>
      <trkpt lat="39.16865667" lon="-8.709005">
        <ele>2.0</ele>
        <time>2019-05-16T16:58:18.928Z</time>
      </trkpt>
      <trkpt lat="39.16871333" lon="-8.70894667">
        <ele>2.0</ele>
        <time>2019-05-16T16:58:19.899Z</time>
      </trkpt>
      <trkpt lat="39.16871333" lon="-8.70894667">
        <ele>2.0</ele>
        <time>2019-05-16T16:58:20.933Z</time>
      </trkpt>
      <trkpt lat="39.16877167" lon="-8.70888833">
        <ele>2.0</ele>
        <time>2019-05-16T16:58:21.914Z</time>
      </trkpt>
      <trkpt lat="39.1688" lon="-8.70886167">
        <ele>2.0</ele>
        <time>2019-05-16T16:58:22.931Z</time>
      </trkpt>
      <trkpt lat="39.1688" lon="-8.70886167">
        <ele>2.0</ele>
        <time>2019-05-16T16:58:23.907Z</time>
      </trkpt>
      <trkpt lat="39.16885833" lon="-8.70880333">
        <ele>2.0</ele>
        <time>2019-05-16T16:58:24.931Z</time>
      </trkpt>
      <trkpt lat="39.16885833" lon="-8.70880333">
        <ele>2.0</ele>
        <time>2019-05-16T16:58:25.920Z</time>
      </trkpt>
      <trkpt lat="39.16891667" lon="-8.70875167">
        <ele>2.0</ele>
        <time>2019-05-16T16:58:26.910Z</time>
      </trkpt>
      <trkpt lat="39.16891667" lon="-8.70875167">
        <ele>2.0</ele>
        <time>2019-05-16T16:58:27.933Z</time>
      </trkpt>
      <trkpt lat="39.16897167" lon="-8.70870167">
        <ele>2.0</ele>
        <time>2019-05-16T16:58:28.913Z</time>
      </trkpt>
      <trkpt lat="39.16897167" lon="-8.70870167">
        <ele>2.0</ele>
        <time>2019-05-16T16:58:29.933Z</time>
      </trkpt>
      <trkpt lat="39.16902333" lon="-8.70864833">
        <ele>2.0</ele>
        <time>2019-05-16T16:58:30.913Z</time>
      </trkpt>
      <trkpt lat="39.16902333" lon="-8.70864833">
        <ele>2.0</ele>
        <time>2019-05-16T16:58:31.915Z</time>
      </trkpt>
      <trkpt lat="39.16908" lon="-8.70859333">
        <ele>2.0</ele>
        <time>2019-05-16T16:58:32.906Z</time>
      </trkpt>
      <trkpt lat="39.16908" lon="-8.70859333">
        <ele>2.0</ele>
        <time>2019-05-16T16:58:33.908Z</time>
      </trkpt>
      <trkpt lat="39.16913833" lon="-8.70854333">
        <ele>1.0</ele>
        <time>2019-05-16T16:58:34.930Z</time>
      </trkpt>
      <trkpt lat="39.16913833" lon="-8.70854333">
        <ele>1.0</ele>
        <time>2019-05-16T16:58:35.913Z</time>
      </trkpt>
      <trkpt lat="39.16919333" lon="-8.708485">
        <ele>1.0</ele>
        <time>2019-05-16T16:58:36.931Z</time>
      </trkpt>
      <trkpt lat="39.16919333" lon="-8.708485">
        <ele>1.0</ele>
        <time>2019-05-16T16:58:37.904Z</time>
      </trkpt>
      <trkpt lat="39.16925167" lon="-8.70843167">
        <ele>1.0</ele>
        <time>2019-05-16T16:58:38.929Z</time>
      </trkpt>
      <trkpt lat="39.16925167" lon="-8.70843167">
        <ele>1.0</ele>
        <time>2019-05-16T16:58:39.934Z</time>
      </trkpt>
      <trkpt lat="39.16931" lon="-8.70837333">
        <ele>1.0</ele>
        <time>2019-05-16T16:58:40.921Z</time>
      </trkpt>
      <trkpt lat="39.16931" lon="-8.70837333">
        <ele>1.0</ele>
        <time>2019-05-16T16:58:41.899Z</time>
      </trkpt>
      <trkpt lat="39.16937167" lon="-8.70831667">
        <ele>1.0</ele>
        <time>2019-05-16T16:58:42.918Z</time>
      </trkpt>
      <trkpt lat="39.16937167" lon="-8.70831667">
        <ele>1.0</ele>
        <time>2019-05-16T16:58:43.921Z</time>
      </trkpt>
      <trkpt lat="39.169435" lon="-8.708255">
        <ele>1.0</ele>
        <time>2019-05-16T16:58:44.902Z</time>
      </trkpt>
      <trkpt lat="39.169435" lon="-8.708255">
        <ele>1.0</ele>
        <time>2019-05-16T16:58:45.932Z</time>
      </trkpt>
      <trkpt lat="39.16949833" lon="-8.70819333">
        <ele>1.0</ele>
        <time>2019-05-16T16:58:46.915Z</time>
      </trkpt>
      <trkpt lat="39.16952833" lon="-8.70816333">
        <ele>1.0</ele>
        <time>2019-05-16T16:58:47.936Z</time>
      </trkpt>
      <trkpt lat="39.16952833" lon="-8.70816333">
        <ele>1.0</ele>
        <time>2019-05-16T16:58:48.923Z</time>
      </trkpt>
      <trkpt lat="39.16959167" lon="-8.708105">
        <ele>1.0</ele>
        <time>2019-05-16T16:58:49.904Z</time>
      </trkpt>
      <trkpt lat="39.16962333" lon="-8.708075">
        <ele>1.0</ele>
        <time>2019-05-16T16:58:50.910Z</time>
      </trkpt>
      <trkpt lat="39.16962333" lon="-8.708075">
        <ele>1.0</ele>
        <time>2019-05-16T16:58:51.936Z</time>
      </trkpt>
      <trkpt lat="39.16969" lon="-8.70801667">
        <ele>1.0</ele>
        <time>2019-05-16T16:58:52.911Z</time>
      </trkpt>
      <trkpt lat="39.16969" lon="-8.70801667">
        <ele>1.0</ele>
        <time>2019-05-16T16:58:53.933Z</time>
      </trkpt>
      <trkpt lat="39.169755" lon="-8.70795667">
        <ele>0.0</ele>
        <time>2019-05-16T16:58:54.911Z</time>
      </trkpt>
      <trkpt lat="39.16978833" lon="-8.70792667">
        <ele>0.0</ele>
        <time>2019-05-16T16:58:55.901Z</time>
      </trkpt>
      <trkpt lat="39.16981833" lon="-8.70789833">
        <ele>0.0</ele>
        <time>2019-05-16T16:58:56.937Z</time>
      </trkpt>
      <trkpt lat="39.16981833" lon="-8.70789833">
        <ele>0.0</ele>
        <time>2019-05-16T16:58:57.919Z</time>
      </trkpt>
      <trkpt lat="39.16988" lon="-8.70784167">
        <ele>0.0</ele>
        <time>2019-05-16T16:58:58.904Z</time>
      </trkpt>
      <trkpt lat="39.16988" lon="-8.70784167">
        <ele>0.0</ele>
        <time>2019-05-16T16:58:59.934Z</time>
      </trkpt>
      <trkpt lat="39.16994333" lon="-8.707785">
        <ele>0.0</ele>
        <time>2019-05-16T16:59:00.913Z</time>
      </trkpt>
      <trkpt lat="39.16994333" lon="-8.707785">
        <ele>0.0</ele>
        <time>2019-05-16T16:59:01.905Z</time>
      </trkpt>
      <trkpt lat="39.170005" lon="-8.70772167">
        <ele>0.0</ele>
        <time>2019-05-16T16:59:02.925Z</time>
      </trkpt>
      <trkpt lat="39.170005" lon="-8.70772167">
        <ele>0.0</ele>
        <time>2019-05-16T16:59:03.897Z</time>
      </trkpt>
      <trkpt lat="39.17006333" lon="-8.70766667">
        <ele>0.0</ele>
        <time>2019-05-16T16:59:04.916Z</time>
      </trkpt>
      <trkpt lat="39.17006333" lon="-8.70766667">
        <ele>0.0</ele>
        <time>2019-05-16T16:59:05.908Z</time>
      </trkpt>
      <trkpt lat="39.17012333" lon="-8.70761333">
        <ele>0.0</ele>
        <time>2019-05-16T16:59:06.931Z</time>
      </trkpt>
      <trkpt lat="39.17012333" lon="-8.70761333">
        <ele>0.0</ele>
        <time>2019-05-16T16:59:07.913Z</time>
      </trkpt>
      <trkpt lat="39.17018167" lon="-8.70756">
        <ele>0.0</ele>
        <time>2019-05-16T16:59:08.932Z</time>
      </trkpt>
      <trkpt lat="39.17018167" lon="-8.70756">
        <ele>0.0</ele>
        <time>2019-05-16T16:59:09.928Z</time>
      </trkpt>
      <trkpt lat="39.17023667" lon="-8.707505">
        <ele>0.0</ele>
        <time>2019-05-16T16:59:10.907Z</time>
      </trkpt>
      <trkpt lat="39.17023667" lon="-8.707505">
        <ele>0.0</ele>
        <time>2019-05-16T16:59:11.922Z</time>
      </trkpt>
      <trkpt lat="39.17029333" lon="-8.70744833">
        <ele>0.0</ele>
        <time>2019-05-16T16:59:12.915Z</time>
      </trkpt>
      <trkpt lat="39.17029333" lon="-8.70744833">
        <ele>0.0</ele>
        <time>2019-05-16T16:59:13.933Z</time>
      </trkpt>
      <trkpt lat="39.17035333" lon="-8.707395">
        <ele>0.0</ele>
        <time>2019-05-16T16:59:14.928Z</time>
      </trkpt>
      <trkpt lat="39.17035333" lon="-8.707395">
        <ele>0.0</ele>
        <time>2019-05-16T16:59:15.911Z</time>
      </trkpt>
      <trkpt lat="39.17041" lon="-8.70734833">
        <ele>0.0</ele>
        <time>2019-05-16T16:59:16.937Z</time>
      </trkpt>
      <trkpt lat="39.17041" lon="-8.70734833">
        <ele>0.0</ele>
        <time>2019-05-16T16:59:17.903Z</time>
      </trkpt>
      <trkpt lat="39.17046667" lon="-8.707305">
        <ele>0.0</ele>
        <time>2019-05-16T16:59:18.919Z</time>
      </trkpt>
      <trkpt lat="39.170495" lon="-8.70728167">
        <ele>0.0</ele>
        <time>2019-05-16T16:59:19.931Z</time>
      </trkpt>
      <trkpt lat="39.17052333" lon="-8.70726167">
        <ele>0.0</ele>
        <time>2019-05-16T16:59:20.898Z</time>
      </trkpt>
      <trkpt lat="39.17052333" lon="-8.70726167">
        <ele>0.0</ele>
        <time>2019-05-16T16:59:21.928Z</time>
      </trkpt>
      <trkpt lat="39.170585" lon="-8.70721">
        <ele>0.0</ele>
        <time>2019-05-16T16:59:22.920Z</time>
      </trkpt>
      <trkpt lat="39.170585" lon="-8.70721">
        <ele>0.0</ele>
        <time>2019-05-16T16:59:23.919Z</time>
      </trkpt>
      <trkpt lat="39.17064667" lon="-8.70715333">
        <ele>0.0</ele>
        <time>2019-05-16T16:59:24.908Z</time>
      </trkpt>
      <trkpt lat="39.17064667" lon="-8.70715333">
        <ele>0.0</ele>
        <time>2019-05-16T16:59:25.907Z</time>
      </trkpt>
      <trkpt lat="39.17070333" lon="-8.70710333">
        <ele>0.0</ele>
        <time>2019-05-16T16:59:26.933Z</time>
      </trkpt>
      <trkpt lat="39.17070333" lon="-8.70710333">
        <ele>0.0</ele>
        <time>2019-05-16T16:59:27.929Z</time>
      </trkpt>
      <trkpt lat="39.17076333" lon="-8.70705">
        <ele>0.0</ele>
        <time>2019-05-16T16:59:28.916Z</time>
      </trkpt>
      <trkpt lat="39.17076333" lon="-8.70705">
        <ele>0.0</ele>
        <time>2019-05-16T16:59:29.933Z</time>
      </trkpt>
      <trkpt lat="39.17082" lon="-8.70699667">
        <ele>0.0</ele>
        <time>2019-05-16T16:59:30.902Z</time>
      </trkpt>
      <trkpt lat="39.17082" lon="-8.70699667">
        <ele>0.0</ele>
        <time>2019-05-16T16:59:31.918Z</time>
      </trkpt>
      <trkpt lat="39.170875" lon="-8.70694167">
        <ele>0.0</ele>
        <time>2019-05-16T16:59:32.903Z</time>
      </trkpt>
      <trkpt lat="39.170875" lon="-8.70694167">
        <ele>0.0</ele>
        <time>2019-05-16T16:59:33.930Z</time>
      </trkpt>
      <trkpt lat="39.17092833" lon="-8.70688667">
        <ele>0.0</ele>
        <time>2019-05-16T16:59:34.916Z</time>
      </trkpt>
      <trkpt lat="39.17092833" lon="-8.70688667">
        <ele>0.0</ele>
        <time>2019-05-16T16:59:35.932Z</time>
      </trkpt>
      <trkpt lat="39.17098833" lon="-8.70683167">
        <ele>0.0</ele>
        <time>2019-05-16T16:59:36.927Z</time>
      </trkpt>
      <trkpt lat="39.17098833" lon="-8.70683167">
        <ele>0.0</ele>
        <time>2019-05-16T16:59:37.913Z</time>
      </trkpt>
      <trkpt lat="39.17105" lon="-8.70677167">
        <ele>0.0</ele>
        <time>2019-05-16T16:59:38.931Z</time>
      </trkpt>
      <trkpt lat="39.17105" lon="-8.70677167">
        <ele>0.0</ele>
        <time>2019-05-16T16:59:39.907Z</time>
      </trkpt>
      <trkpt lat="39.17111" lon="-8.70671333">
        <ele>0.0</ele>
        <time>2019-05-16T16:59:40.921Z</time>
      </trkpt>
      <trkpt lat="39.17111" lon="-8.70671333">
        <ele>0.0</ele>
        <time>2019-05-16T16:59:41.915Z</time>
      </trkpt>
      <trkpt lat="39.17116833" lon="-8.70665333">
        <ele>0.0</ele>
        <time>2019-05-16T16:59:42.933Z</time>
      </trkpt>
      <trkpt lat="39.17116833" lon="-8.70665333">
        <ele>0.0</ele>
        <time>2019-05-16T16:59:43.933Z</time>
      </trkpt>
      <trkpt lat="39.171225" lon="-8.70659667">
        <ele>0.0</ele>
        <time>2019-05-16T16:59:44.931Z</time>
      </trkpt>
      <trkpt lat="39.171225" lon="-8.70659667">
        <ele>0.0</ele>
        <time>2019-05-16T16:59:45.922Z</time>
      </trkpt>
      <trkpt lat="39.17127833" lon="-8.706545">
        <ele>0.0</ele>
        <time>2019-05-16T16:59:46.898Z</time>
      </trkpt>
      <trkpt lat="39.17127833" lon="-8.706545">
        <ele>0.0</ele>
        <time>2019-05-16T16:59:47.920Z</time>
      </trkpt>
      <trkpt lat="39.17133667" lon="-8.70649833">
        <ele>0.0</ele>
        <time>2019-05-16T16:59:48.902Z</time>
      </trkpt>
      <trkpt lat="39.17133667" lon="-8.70649833">
        <ele>0.0</ele>
        <time>2019-05-16T16:59:49.898Z</time>
      </trkpt>
      <trkpt lat="39.17139333" lon="-8.70644667">
        <ele>0.0</ele>
        <time>2019-05-16T16:59:50.929Z</time>
      </trkpt>
      <trkpt lat="39.17139333" lon="-8.70644667">
        <ele>0.0</ele>
        <time>2019-05-16T16:59:51.913Z</time>
      </trkpt>
      <trkpt lat="39.17144833" lon="-8.70639333">
        <ele>0.0</ele>
        <time>2019-05-16T16:59:52.931Z</time>
      </trkpt>
      <trkpt lat="39.17144833" lon="-8.70639333">
        <ele>0.0</ele>
        <time>2019-05-16T16:59:53.923Z</time>
      </trkpt>
      <trkpt lat="39.171505" lon="-8.70634333">
        <ele>0.0</ele>
        <time>2019-05-16T16:59:54.905Z</time>
      </trkpt>
      <trkpt lat="39.171505" lon="-8.70634333">
        <ele>0.0</ele>
        <time>2019-05-16T16:59:55.903Z</time>
      </trkpt>
      <trkpt lat="39.17156167" lon="-8.70629333">
        <ele>0.0</ele>
        <time>2019-05-16T16:59:56.900Z</time>
      </trkpt>
      <trkpt lat="39.17156167" lon="-8.70629333">
        <ele>0.0</ele>
        <time>2019-05-16T16:59:57.910Z</time>
      </trkpt>
      <trkpt lat="39.17161667" lon="-8.706245">
        <ele>1.0</ele>
        <time>2019-05-16T16:59:58.905Z</time>
      </trkpt>
      <trkpt lat="39.17161667" lon="-8.706245">
        <ele>1.0</ele>
        <time>2019-05-16T16:59:59.937Z</time>
      </trkpt>
      <trkpt lat="39.171665" lon="-8.7062">
        <ele>1.0</ele>
        <time>2019-05-16T17:00:00.914Z</time>
      </trkpt>
      <trkpt lat="39.171665" lon="-8.7062">
        <ele>1.0</ele>
        <time>2019-05-16T17:00:01.923Z</time>
      </trkpt>
      <trkpt lat="39.17171167" lon="-8.70615833">
        <ele>1.0</ele>
        <time>2019-05-16T17:00:02.921Z</time>
      </trkpt>
      <trkpt lat="39.17171167" lon="-8.70615833">
        <ele>1.0</ele>
        <time>2019-05-16T17:00:03.913Z</time>
      </trkpt>
      <trkpt lat="39.17175833" lon="-8.70612">
        <ele>1.0</ele>
        <time>2019-05-16T17:00:04.899Z</time>
      </trkpt>
      <trkpt lat="39.17175833" lon="-8.70612">
        <ele>1.0</ele>
        <time>2019-05-16T17:00:05.931Z</time>
      </trkpt>
      <trkpt lat="39.1718" lon="-8.70608">
        <ele>1.0</ele>
        <time>2019-05-16T17:00:06.917Z</time>
      </trkpt>
      <trkpt lat="39.1718" lon="-8.70608">
        <ele>1.0</ele>
        <time>2019-05-16T17:00:07.934Z</time>
      </trkpt>
      <trkpt lat="39.17184333" lon="-8.70603833">
        <ele>1.0</ele>
        <time>2019-05-16T17:00:08.915Z</time>
      </trkpt>
      <trkpt lat="39.17184333" lon="-8.70603833">
        <ele>1.0</ele>
        <time>2019-05-16T17:00:09.908Z</time>
      </trkpt>
      <trkpt lat="39.17188833" lon="-8.70599167">
        <ele>1.0</ele>
        <time>2019-05-16T17:00:10.902Z</time>
      </trkpt>
      <trkpt lat="39.17188833" lon="-8.70599167">
        <ele>1.0</ele>
        <time>2019-05-16T17:00:11.932Z</time>
      </trkpt>
      <trkpt lat="39.171935" lon="-8.705945">
        <ele>1.0</ele>
        <time>2019-05-16T17:00:12.923Z</time>
      </trkpt>
      <trkpt lat="39.171935" lon="-8.705945">
        <ele>1.0</ele>
        <time>2019-05-16T17:00:13.908Z</time>
      </trkpt>
      <trkpt lat="39.171985" lon="-8.70589667">
        <ele>1.0</ele>
        <time>2019-05-16T17:00:14.933Z</time>
      </trkpt>
      <trkpt lat="39.171985" lon="-8.70589667">
        <ele>1.0</ele>
        <time>2019-05-16T17:00:15.909Z</time>
      </trkpt>
      <trkpt lat="39.17203167" lon="-8.70585">
        <ele>1.0</ele>
        <time>2019-05-16T17:00:16.923Z</time>
      </trkpt>
      <trkpt lat="39.17203167" lon="-8.70585">
        <ele>1.0</ele>
        <time>2019-05-16T17:00:17.901Z</time>
      </trkpt>
      <trkpt lat="39.172075" lon="-8.70581">
        <ele>1.0</ele>
        <time>2019-05-16T17:00:18.931Z</time>
      </trkpt>
      <trkpt lat="39.172075" lon="-8.70581">
        <ele>1.0</ele>
        <time>2019-05-16T17:00:19.923Z</time>
      </trkpt>
      <trkpt lat="39.17211667" lon="-8.70575833">
        <ele>0.0</ele>
        <time>2019-05-16T17:00:20.929Z</time>
      </trkpt>
      <trkpt lat="39.17211667" lon="-8.70575833">
        <ele>0.0</ele>
        <time>2019-05-16T17:00:21.903Z</time>
      </trkpt>
      <trkpt lat="39.172165" lon="-8.705705">
        <ele>0.0</ele>
        <time>2019-05-16T17:00:22.934Z</time>
      </trkpt>
      <trkpt lat="39.172165" lon="-8.705705">
        <ele>0.0</ele>
        <time>2019-05-16T17:00:23.933Z</time>
      </trkpt>
      <trkpt lat="39.17221333" lon="-8.705645">
        <ele>0.0</ele>
        <time>2019-05-16T17:00:24.910Z</time>
      </trkpt>
      <trkpt lat="39.17221333" lon="-8.705645">
        <ele>0.0</ele>
        <time>2019-05-16T17:00:25.925Z</time>
      </trkpt>
      <trkpt lat="39.17226167" lon="-8.705575">
        <ele>0.0</ele>
        <time>2019-05-16T17:00:26.906Z</time>
      </trkpt>
      <trkpt lat="39.17226167" lon="-8.705575">
        <ele>0.0</ele>
        <time>2019-05-16T17:00:27.932Z</time>
      </trkpt>
      <trkpt lat="39.17231667" lon="-8.705505">
        <ele>0.0</ele>
        <time>2019-05-16T17:00:28.902Z</time>
      </trkpt>
      <trkpt lat="39.17231667" lon="-8.705505">
        <ele>0.0</ele>
        <time>2019-05-16T17:00:29.928Z</time>
      </trkpt>
      <trkpt lat="39.17237" lon="-8.705435">
        <ele>0.0</ele>
        <time>2019-05-16T17:00:30.901Z</time>
      </trkpt>
      <trkpt lat="39.17237" lon="-8.705435">
        <ele>0.0</ele>
        <time>2019-05-16T17:00:31.914Z</time>
      </trkpt>
      <trkpt lat="39.17242333" lon="-8.70537">
        <ele>0.0</ele>
        <time>2019-05-16T17:00:32.934Z</time>
      </trkpt>
      <trkpt lat="39.17242333" lon="-8.70537">
        <ele>0.0</ele>
        <time>2019-05-16T17:00:33.920Z</time>
      </trkpt>
      <trkpt lat="39.17247667" lon="-8.70531">
        <ele>0.0</ele>
        <time>2019-05-16T17:00:34.898Z</time>
      </trkpt>
      <trkpt lat="39.17250333" lon="-8.70528">
        <ele>0.0</ele>
        <time>2019-05-16T17:00:35.933Z</time>
      </trkpt>
      <trkpt lat="39.17250333" lon="-8.70528">
        <ele>0.0</ele>
        <time>2019-05-16T17:00:36.917Z</time>
      </trkpt>
      <trkpt lat="39.172555" lon="-8.70522167">
        <ele>0.0</ele>
        <time>2019-05-16T17:00:37.939Z</time>
      </trkpt>
      <trkpt lat="39.17257667" lon="-8.70519667">
        <ele>0.0</ele>
        <time>2019-05-16T17:00:38.921Z</time>
      </trkpt>
      <trkpt lat="39.17257667" lon="-8.70519667">
        <ele>0.0</ele>
        <time>2019-05-16T17:00:39.934Z</time>
      </trkpt>
      <trkpt lat="39.17262333" lon="-8.70514667">
        <ele>1.0</ele>
        <time>2019-05-16T17:00:40.932Z</time>
      </trkpt>
      <trkpt lat="39.17262333" lon="-8.70514667">
        <ele>1.0</ele>
        <time>2019-05-16T17:00:41.901Z</time>
      </trkpt>
      <trkpt lat="39.17267333" lon="-8.705095">
        <ele>1.0</ele>
        <time>2019-05-16T17:00:42.924Z</time>
      </trkpt>
      <trkpt lat="39.17267333" lon="-8.705095">
        <ele>1.0</ele>
        <time>2019-05-16T17:00:43.923Z</time>
      </trkpt>
      <trkpt lat="39.17272667" lon="-8.705035">
        <ele>2.0</ele>
        <time>2019-05-16T17:00:44.898Z</time>
      </trkpt>
      <trkpt lat="39.17275167" lon="-8.705005">
        <ele>2.0</ele>
        <time>2019-05-16T17:00:45.938Z</time>
      </trkpt>
      <trkpt lat="39.17275167" lon="-8.705005">
        <ele>2.0</ele>
        <time>2019-05-16T17:00:46.912Z</time>
      </trkpt>
      <trkpt lat="39.172795" lon="-8.704955">
        <ele>2.0</ele>
        <time>2019-05-16T17:00:47.928Z</time>
      </trkpt>
      <trkpt lat="39.172795" lon="-8.704955">
        <ele>2.0</ele>
        <time>2019-05-16T17:00:48.915Z</time>
      </trkpt>
      <trkpt lat="39.17283833" lon="-8.70490333">
        <ele>2.0</ele>
        <time>2019-05-16T17:00:49.930Z</time>
      </trkpt>
      <trkpt lat="39.17286167" lon="-8.70487667">
        <ele>2.0</ele>
        <time>2019-05-16T17:00:50.931Z</time>
      </trkpt>
      <trkpt lat="39.17286167" lon="-8.70487667">
        <ele>2.0</ele>
        <time>2019-05-16T17:00:51.915Z</time>
      </trkpt>
      <trkpt lat="39.17290667" lon="-8.70482">
        <ele>3.0</ele>
        <time>2019-05-16T17:00:52.898Z</time>
      </trkpt>
      <trkpt lat="39.17290667" lon="-8.70482">
        <ele>3.0</ele>
        <time>2019-05-16T17:00:53.913Z</time>
      </trkpt>
      <trkpt lat="39.17294333" lon="-8.704775">
        <ele>3.0</ele>
        <time>2019-05-16T17:00:54.935Z</time>
      </trkpt>
      <trkpt lat="39.17294333" lon="-8.704775">
        <ele>3.0</ele>
        <time>2019-05-16T17:00:55.914Z</time>
      </trkpt>
      <trkpt lat="39.17297667" lon="-8.704735">
        <ele>3.0</ele>
        <time>2019-05-16T17:00:56.932Z</time>
      </trkpt>
      <trkpt lat="39.17297667" lon="-8.704735">
        <ele>3.0</ele>
        <time>2019-05-16T17:00:57.913Z</time>
      </trkpt>
      <trkpt lat="39.17301667" lon="-8.70469">
        <ele>3.0</ele>
        <time>2019-05-16T17:00:58.941Z</time>
      </trkpt>
      <trkpt lat="39.17301667" lon="-8.70469">
        <ele>3.0</ele>
        <time>2019-05-16T17:00:59.924Z</time>
      </trkpt>
      <trkpt lat="39.17306167" lon="-8.704635">
        <ele>3.0</ele>
        <time>2019-05-16T17:01:00.897Z</time>
      </trkpt>
      <trkpt lat="39.17306167" lon="-8.704635">
        <ele>3.0</ele>
        <time>2019-05-16T17:01:01.903Z</time>
      </trkpt>
      <trkpt lat="39.17311" lon="-8.70456833">
        <ele>3.0</ele>
        <time>2019-05-16T17:01:02.899Z</time>
      </trkpt>
      <trkpt lat="39.17311" lon="-8.70456833">
        <ele>3.0</ele>
        <time>2019-05-16T17:01:03.920Z</time>
      </trkpt>
      <trkpt lat="39.17316167" lon="-8.7045">
        <ele>2.0</ele>
        <time>2019-05-16T17:01:04.934Z</time>
      </trkpt>
      <trkpt lat="39.17316167" lon="-8.7045">
        <ele>2.0</ele>
        <time>2019-05-16T17:01:05.897Z</time>
      </trkpt>
      <trkpt lat="39.173215" lon="-8.704425">
        <ele>2.0</ele>
        <time>2019-05-16T17:01:06.913Z</time>
      </trkpt>
      <trkpt lat="39.173215" lon="-8.704425">
        <ele>2.0</ele>
        <time>2019-05-16T17:01:07.903Z</time>
      </trkpt>
      <trkpt lat="39.17327167" lon="-8.70435">
        <ele>2.0</ele>
        <time>2019-05-16T17:01:08.919Z</time>
      </trkpt>
      <trkpt lat="39.17327167" lon="-8.70435">
        <ele>2.0</ele>
        <time>2019-05-16T17:01:09.918Z</time>
      </trkpt>
      <trkpt lat="39.17333667" lon="-8.70428833">
        <ele>2.0</ele>
        <time>2019-05-16T17:01:10.939Z</time>
      </trkpt>
      <trkpt lat="39.17333667" lon="-8.70428833">
        <ele>2.0</ele>
        <time>2019-05-16T17:01:11.923Z</time>
      </trkpt>
      <trkpt lat="39.173415" lon="-8.70426667">
        <ele>2.0</ele>
        <time>2019-05-16T17:01:12.907Z</time>
      </trkpt>
      <trkpt lat="39.173415" lon="-8.70426667">
        <ele>2.0</ele>
        <time>2019-05-16T17:01:13.912Z</time>
      </trkpt>
      <trkpt lat="39.17348833" lon="-8.70429167">
        <ele>1.0</ele>
        <time>2019-05-16T17:01:14.920Z</time>
      </trkpt>
      <trkpt lat="39.17348833" lon="-8.70429167">
        <ele>1.0</ele>
        <time>2019-05-16T17:01:15.935Z</time>
      </trkpt>
      <trkpt lat="39.17353167" lon="-8.70434">
        <ele>1.0</ele>
        <time>2019-05-16T17:01:16.917Z</time>
      </trkpt>
      <trkpt lat="39.17353167" lon="-8.70434">
        <ele>1.0</ele>
        <time>2019-05-16T17:01:17.932Z</time>
      </trkpt>
      <trkpt lat="39.17357" lon="-8.704395">
        <ele>1.0</ele>
        <time>2019-05-16T17:01:18.913Z</time>
      </trkpt>
      <trkpt lat="39.17357" lon="-8.704395">
        <ele>1.0</ele>
        <time>2019-05-16T17:01:19.904Z</time>
      </trkpt>
      <trkpt lat="39.17361333" lon="-8.70445167">
        <ele>1.0</ele>
        <time>2019-05-16T17:01:20.903Z</time>
      </trkpt>
      <trkpt lat="39.17361333" lon="-8.70445167">
        <ele>1.0</ele>
        <time>2019-05-16T17:01:21.922Z</time>
      </trkpt>
      <trkpt lat="39.17366167" lon="-8.70450667">
        <ele>1.0</ele>
        <time>2019-05-16T17:01:22.919Z</time>
      </trkpt>
      <trkpt lat="39.17366167" lon="-8.70450667">
        <ele>1.0</ele>
        <time>2019-05-16T17:01:23.916Z</time>
      </trkpt>
      <trkpt lat="39.17372" lon="-8.70455833">
        <ele>1.0</ele>
        <time>2019-05-16T17:01:24.911Z</time>
      </trkpt>
      <trkpt lat="39.17372" lon="-8.70455833">
        <ele>1.0</ele>
        <time>2019-05-16T17:01:25.924Z</time>
      </trkpt>
      <trkpt lat="39.17378" lon="-8.70459333">
        <ele>0.0</ele>
        <time>2019-05-16T17:01:26.907Z</time>
      </trkpt>
      <trkpt lat="39.17378" lon="-8.70459333">
        <ele>0.0</ele>
        <time>2019-05-16T17:01:27.937Z</time>
      </trkpt>
      <trkpt lat="39.17383667" lon="-8.70461833">
        <ele>1.0</ele>
        <time>2019-05-16T17:01:28.922Z</time>
      </trkpt>
      <trkpt lat="39.17383667" lon="-8.70461833">
        <ele>1.0</ele>
        <time>2019-05-16T17:01:29.906Z</time>
      </trkpt>
      <trkpt lat="39.173895" lon="-8.70464333">
        <ele>1.0</ele>
        <time>2019-05-16T17:01:30.930Z</time>
      </trkpt>
      <trkpt lat="39.17392667" lon="-8.70464833">
        <ele>1.0</ele>
        <time>2019-05-16T17:01:31.900Z</time>
      </trkpt>
      <trkpt lat="39.17395333" lon="-8.704655">
        <ele>1.0</ele>
        <time>2019-05-16T17:01:32.933Z</time>
      </trkpt>
      <trkpt lat="39.17395333" lon="-8.704655">
        <ele>1.0</ele>
        <time>2019-05-16T17:01:33.914Z</time>
      </trkpt>
      <trkpt lat="39.17401333" lon="-8.704665">
        <ele>1.0</ele>
        <time>2019-05-16T17:01:34.905Z</time>
      </trkpt>
      <trkpt lat="39.17404667" lon="-8.70466667">
        <ele>2.0</ele>
        <time>2019-05-16T17:01:35.912Z</time>
      </trkpt>
      <trkpt lat="39.17404667" lon="-8.70466667">
        <ele>2.0</ele>
        <time>2019-05-16T17:01:36.902Z</time>
      </trkpt>
      <trkpt lat="39.17412333" lon="-8.704675">
        <ele>1.0</ele>
        <time>2019-05-16T17:01:37.929Z</time>
      </trkpt>
      <trkpt lat="39.17412333" lon="-8.704675">
        <ele>1.0</ele>
        <time>2019-05-16T17:01:38.935Z</time>
      </trkpt>
      <trkpt lat="39.17419333" lon="-8.704685">
        <ele>2.0</ele>
        <time>2019-05-16T17:01:39.933Z</time>
      </trkpt>
      <trkpt lat="39.17419333" lon="-8.704685">
        <ele>2.0</ele>
        <time>2019-05-16T17:01:40.922Z</time>
      </trkpt>
      <trkpt lat="39.17425167" lon="-8.70469333">
        <ele>3.0</ele>
        <time>2019-05-16T17:01:41.908Z</time>
      </trkpt>
      <trkpt lat="39.17425167" lon="-8.70469333">
        <ele>3.0</ele>
        <time>2019-05-16T17:01:42.909Z</time>
      </trkpt>
      <trkpt lat="39.174305" lon="-8.70470167">
        <ele>3.0</ele>
        <time>2019-05-16T17:01:43.930Z</time>
      </trkpt>
      <trkpt lat="39.17433333" lon="-8.704705">
        <ele>4.0</ele>
        <time>2019-05-16T17:01:44.934Z</time>
      </trkpt>
      <trkpt lat="39.17433333" lon="-8.704705">
        <ele>4.0</ele>
        <time>2019-05-16T17:01:45.924Z</time>
      </trkpt>
      <trkpt lat="39.17439833" lon="-8.70471167">
        <ele>4.0</ele>
        <time>2019-05-16T17:01:46.916Z</time>
      </trkpt>
      <trkpt lat="39.17439833" lon="-8.70471167">
        <ele>4.0</ele>
        <time>2019-05-16T17:01:47.936Z</time>
      </trkpt>
      <trkpt lat="39.17446667" lon="-8.70471667">
        <ele>4.0</ele>
        <time>2019-05-16T17:01:48.922Z</time>
      </trkpt>
      <trkpt lat="39.17446667" lon="-8.70471667">
        <ele>4.0</ele>
        <time>2019-05-16T17:01:49.932Z</time>
      </trkpt>
      <trkpt lat="39.17454" lon="-8.70472667">
        <ele>4.0</ele>
        <time>2019-05-16T17:01:50.913Z</time>
      </trkpt>
      <trkpt lat="39.17454" lon="-8.70472667">
        <ele>4.0</ele>
        <time>2019-05-16T17:01:51.910Z</time>
      </trkpt>
      <trkpt lat="39.17461667" lon="-8.70473833">
        <ele>5.0</ele>
        <time>2019-05-16T17:01:52.930Z</time>
      </trkpt>
      <trkpt lat="39.17461667" lon="-8.70473833">
        <ele>5.0</ele>
        <time>2019-05-16T17:01:53.934Z</time>
      </trkpt>
      <trkpt lat="39.17468667" lon="-8.70474667">
        <ele>5.0</ele>
        <time>2019-05-16T17:01:54.913Z</time>
      </trkpt>
      <trkpt lat="39.17468667" lon="-8.70474667">
        <ele>5.0</ele>
        <time>2019-05-16T17:01:55.903Z</time>
      </trkpt>
      <trkpt lat="39.17474833" lon="-8.70475667">
        <ele>5.0</ele>
        <time>2019-05-16T17:01:56.900Z</time>
      </trkpt>
      <trkpt lat="39.17474833" lon="-8.70475667">
        <ele>5.0</ele>
        <time>2019-05-16T17:01:57.923Z</time>
      </trkpt>
      <trkpt lat="39.174815" lon="-8.70476167">
        <ele>5.0</ele>
        <time>2019-05-16T17:01:58.901Z</time>
      </trkpt>
      <trkpt lat="39.174815" lon="-8.70476167">
        <ele>5.0</ele>
        <time>2019-05-16T17:01:59.912Z</time>
      </trkpt>
      <trkpt lat="39.17488333" lon="-8.70477167">
        <ele>5.0</ele>
        <time>2019-05-16T17:02:00.928Z</time>
      </trkpt>
      <trkpt lat="39.17488333" lon="-8.70477167">
        <ele>5.0</ele>
        <time>2019-05-16T17:02:01.923Z</time>
      </trkpt>
      <trkpt lat="39.17495333" lon="-8.70478">
        <ele>6.0</ele>
        <time>2019-05-16T17:02:02.910Z</time>
      </trkpt>
      <trkpt lat="39.17495333" lon="-8.70478">
        <ele>6.0</ele>
        <time>2019-05-16T17:02:03.910Z</time>
      </trkpt>
      <trkpt lat="39.17502167" lon="-8.70478333">
        <ele>6.0</ele>
        <time>2019-05-16T17:02:04.937Z</time>
      </trkpt>
      <trkpt lat="39.17502167" lon="-8.70478333">
        <ele>6.0</ele>
        <time>2019-05-16T17:02:05.903Z</time>
      </trkpt>
      <trkpt lat="39.17509" lon="-8.70479167">
        <ele>6.0</ele>
        <time>2019-05-16T17:02:06.928Z</time>
      </trkpt>
      <trkpt lat="39.17509" lon="-8.70479167">
        <ele>6.0</ele>
        <time>2019-05-16T17:02:07.925Z</time>
      </trkpt>
      <trkpt lat="39.17515667" lon="-8.7048">
        <ele>6.0</ele>
        <time>2019-05-16T17:02:08.906Z</time>
      </trkpt>
      <trkpt lat="39.17515667" lon="-8.7048">
        <ele>6.0</ele>
        <time>2019-05-16T17:02:09.924Z</time>
      </trkpt>
      <trkpt lat="39.17522" lon="-8.70481">
        <ele>6.0</ele>
        <time>2019-05-16T17:02:10.905Z</time>
      </trkpt>
      <trkpt lat="39.17522" lon="-8.70481">
        <ele>6.0</ele>
        <time>2019-05-16T17:02:11.934Z</time>
      </trkpt>
      <trkpt lat="39.17528167" lon="-8.70481833">
        <ele>6.0</ele>
        <time>2019-05-16T17:02:12.921Z</time>
      </trkpt>
      <trkpt lat="39.17528167" lon="-8.70481833">
        <ele>6.0</ele>
        <time>2019-05-16T17:02:13.934Z</time>
      </trkpt>
      <trkpt lat="39.17534167" lon="-8.70483167">
        <ele>6.0</ele>
        <time>2019-05-16T17:02:14.901Z</time>
      </trkpt>
      <trkpt lat="39.17534167" lon="-8.70483167">
        <ele>6.0</ele>
        <time>2019-05-16T17:02:15.913Z</time>
      </trkpt>
      <trkpt lat="39.1754" lon="-8.70484333">
        <ele>7.0</ele>
        <time>2019-05-16T17:02:16.937Z</time>
      </trkpt>
      <trkpt lat="39.1754" lon="-8.70484333">
        <ele>7.0</ele>
        <time>2019-05-16T17:02:17.903Z</time>
      </trkpt>
      <trkpt lat="39.17545833" lon="-8.70485667">
        <ele>7.0</ele>
        <time>2019-05-16T17:02:18.928Z</time>
      </trkpt>
      <trkpt lat="39.17548833" lon="-8.70486333">
        <ele>7.0</ele>
        <time>2019-05-16T17:02:19.916Z</time>
      </trkpt>
      <trkpt lat="39.17548833" lon="-8.70486333">
        <ele>7.0</ele>
        <time>2019-05-16T17:02:20.911Z</time>
      </trkpt>
      <trkpt lat="39.17555" lon="-8.70487667">
        <ele>7.0</ele>
        <time>2019-05-16T17:02:21.915Z</time>
      </trkpt>
      <trkpt lat="39.17558167" lon="-8.70488167">
        <ele>7.0</ele>
        <time>2019-05-16T17:02:22.905Z</time>
      </trkpt>
      <trkpt lat="39.17558167" lon="-8.70488167">
        <ele>7.0</ele>
        <time>2019-05-16T17:02:23.933Z</time>
      </trkpt>
      <trkpt lat="39.17564333" lon="-8.70489333">
        <ele>7.0</ele>
        <time>2019-05-16T17:02:24.906Z</time>
      </trkpt>
      <trkpt lat="39.17564333" lon="-8.70489333">
        <ele>7.0</ele>
        <time>2019-05-16T17:02:25.923Z</time>
      </trkpt>
      <trkpt lat="39.17570833" lon="-8.70489833">
        <ele>7.0</ele>
        <time>2019-05-16T17:02:26.915Z</time>
      </trkpt>
      <trkpt lat="39.17570833" lon="-8.70489833">
        <ele>7.0</ele>
        <time>2019-05-16T17:02:27.900Z</time>
      </trkpt>
      <trkpt lat="39.17577833" lon="-8.70490333">
        <ele>7.0</ele>
        <time>2019-05-16T17:02:28.929Z</time>
      </trkpt>
      <trkpt lat="39.17577833" lon="-8.70490333">
        <ele>7.0</ele>
        <time>2019-05-16T17:02:29.912Z</time>
      </trkpt>
      <trkpt lat="39.17585" lon="-8.704915">
        <ele>7.0</ele>
        <time>2019-05-16T17:02:30.915Z</time>
      </trkpt>
      <trkpt lat="39.17585" lon="-8.704915">
        <ele>7.0</ele>
        <time>2019-05-16T17:02:31.923Z</time>
      </trkpt>
      <trkpt lat="39.17592" lon="-8.70492667">
        <ele>7.0</ele>
        <time>2019-05-16T17:02:32.900Z</time>
      </trkpt>
      <trkpt lat="39.17592" lon="-8.70492667">
        <ele>7.0</ele>
        <time>2019-05-16T17:02:33.903Z</time>
      </trkpt>
      <trkpt lat="39.17599167" lon="-8.70493333">
        <ele>7.0</ele>
        <time>2019-05-16T17:02:34.920Z</time>
      </trkpt>
      <trkpt lat="39.17599167" lon="-8.70493333">
        <ele>7.0</ele>
        <time>2019-05-16T17:02:35.928Z</time>
      </trkpt>
      <trkpt lat="39.17605833" lon="-8.70494333">
        <ele>7.0</ele>
        <time>2019-05-16T17:02:36.902Z</time>
      </trkpt>
      <trkpt lat="39.17605833" lon="-8.70494333">
        <ele>7.0</ele>
        <time>2019-05-16T17:02:37.934Z</time>
      </trkpt>
      <trkpt lat="39.17612333" lon="-8.70495167">
        <ele>7.0</ele>
        <time>2019-05-16T17:02:38.919Z</time>
      </trkpt>
      <trkpt lat="39.17612333" lon="-8.70495167">
        <ele>7.0</ele>
        <time>2019-05-16T17:02:39.917Z</time>
      </trkpt>
      <trkpt lat="39.17618833" lon="-8.70495667">
        <ele>7.0</ele>
        <time>2019-05-16T17:02:40.901Z</time>
      </trkpt>
      <trkpt lat="39.17618833" lon="-8.70495667">
        <ele>7.0</ele>
        <time>2019-05-16T17:02:41.919Z</time>
      </trkpt>
      <trkpt lat="39.17625667" lon="-8.70495167">
        <ele>7.0</ele>
        <time>2019-05-16T17:02:42.915Z</time>
      </trkpt>
      <trkpt lat="39.17625667" lon="-8.70495167">
        <ele>7.0</ele>
        <time>2019-05-16T17:02:43.903Z</time>
      </trkpt>
      <trkpt lat="39.176325" lon="-8.704935">
        <ele>7.0</ele>
        <time>2019-05-16T17:02:44.919Z</time>
      </trkpt>
      <trkpt lat="39.176325" lon="-8.704935">
        <ele>7.0</ele>
        <time>2019-05-16T17:02:45.905Z</time>
      </trkpt>
      <trkpt lat="39.17639333" lon="-8.70491">
        <ele>7.0</ele>
        <time>2019-05-16T17:02:46.929Z</time>
      </trkpt>
      <trkpt lat="39.17639333" lon="-8.70491">
        <ele>7.0</ele>
        <time>2019-05-16T17:02:47.934Z</time>
      </trkpt>
      <trkpt lat="39.17645833" lon="-8.70486833">
        <ele>7.0</ele>
        <time>2019-05-16T17:02:48.911Z</time>
      </trkpt>
      <trkpt lat="39.17645833" lon="-8.70486833">
        <ele>7.0</ele>
        <time>2019-05-16T17:02:49.916Z</time>
      </trkpt>
      <trkpt lat="39.17652" lon="-8.70482333">
        <ele>7.0</ele>
        <time>2019-05-16T17:02:50.941Z</time>
      </trkpt>
      <trkpt lat="39.17652" lon="-8.70482333">
        <ele>7.0</ele>
        <time>2019-05-16T17:02:51.897Z</time>
      </trkpt>
      <trkpt lat="39.17658" lon="-8.70477667">
        <ele>7.0</ele>
        <time>2019-05-16T17:02:52.918Z</time>
      </trkpt>
      <trkpt lat="39.17658" lon="-8.70477667">
        <ele>7.0</ele>
        <time>2019-05-16T17:02:53.923Z</time>
      </trkpt>
      <trkpt lat="39.176635" lon="-8.70472667">
        <ele>7.0</ele>
        <time>2019-05-16T17:02:54.903Z</time>
      </trkpt>
      <trkpt lat="39.176635" lon="-8.70472667">
        <ele>7.0</ele>
        <time>2019-05-16T17:02:55.934Z</time>
      </trkpt>
      <trkpt lat="39.17669333" lon="-8.704685">
        <ele>7.0</ele>
        <time>2019-05-16T17:02:56.918Z</time>
      </trkpt>
      <trkpt lat="39.17669333" lon="-8.704685">
        <ele>7.0</ele>
        <time>2019-05-16T17:02:57.911Z</time>
      </trkpt>
      <trkpt lat="39.176755" lon="-8.70464">
        <ele>7.0</ele>
        <time>2019-05-16T17:02:58.907Z</time>
      </trkpt>
      <trkpt lat="39.176755" lon="-8.70464">
        <ele>7.0</ele>
        <time>2019-05-16T17:02:59.903Z</time>
      </trkpt>
      <trkpt lat="39.17681833" lon="-8.70459833">
        <ele>7.0</ele>
        <time>2019-05-16T17:03:00.933Z</time>
      </trkpt>
      <trkpt lat="39.17685167" lon="-8.70457833">
        <ele>7.0</ele>
        <time>2019-05-16T17:03:01.909Z</time>
      </trkpt>
      <trkpt lat="39.17688667" lon="-8.70456">
        <ele>7.0</ele>
        <time>2019-05-16T17:03:02.939Z</time>
      </trkpt>
      <trkpt lat="39.17688667" lon="-8.70456">
        <ele>7.0</ele>
        <time>2019-05-16T17:03:03.901Z</time>
      </trkpt>
      <trkpt lat="39.176955" lon="-8.70452333">
        <ele>7.0</ele>
        <time>2019-05-16T17:03:04.924Z</time>
      </trkpt>
      <trkpt lat="39.176955" lon="-8.70452333">
        <ele>7.0</ele>
        <time>2019-05-16T17:03:05.924Z</time>
      </trkpt>
      <trkpt lat="39.17702167" lon="-8.70448833">
        <ele>7.0</ele>
        <time>2019-05-16T17:03:06.911Z</time>
      </trkpt>
      <trkpt lat="39.17705667" lon="-8.704475">
        <ele>7.0</ele>
        <time>2019-05-16T17:03:07.931Z</time>
      </trkpt>
      <trkpt lat="39.17709167" lon="-8.70446">
        <ele>7.0</ele>
        <time>2019-05-16T17:03:08.918Z</time>
      </trkpt>
      <trkpt lat="39.17709167" lon="-8.70446">
        <ele>7.0</ele>
        <time>2019-05-16T17:03:09.930Z</time>
      </trkpt>
      <trkpt lat="39.17716" lon="-8.70442667">
        <ele>7.0</ele>
        <time>2019-05-16T17:03:10.916Z</time>
      </trkpt>
      <trkpt lat="39.17716" lon="-8.70442667">
        <ele>7.0</ele>
        <time>2019-05-16T17:03:11.899Z</time>
      </trkpt>
      <trkpt lat="39.17722667" lon="-8.70439833">
        <ele>7.0</ele>
        <time>2019-05-16T17:03:12.919Z</time>
      </trkpt>
      <trkpt lat="39.17722667" lon="-8.70439833">
        <ele>7.0</ele>
        <time>2019-05-16T17:03:13.932Z</time>
      </trkpt>
      <trkpt lat="39.17728667" lon="-8.70437167">
        <ele>7.0</ele>
        <time>2019-05-16T17:03:14.921Z</time>
      </trkpt>
      <trkpt lat="39.17728667" lon="-8.70437167">
        <ele>7.0</ele>
        <time>2019-05-16T17:03:15.901Z</time>
      </trkpt>
      <trkpt lat="39.17734" lon="-8.704355">
        <ele>8.0</ele>
        <time>2019-05-16T17:03:16.937Z</time>
      </trkpt>
      <trkpt lat="39.17734" lon="-8.704355">
        <ele>8.0</ele>
        <time>2019-05-16T17:03:17.935Z</time>
      </trkpt>
      <trkpt lat="39.17738833" lon="-8.70434667">
        <ele>8.0</ele>
        <time>2019-05-16T17:03:18.917Z</time>
      </trkpt>
      <trkpt lat="39.17738833" lon="-8.70434667">
        <ele>8.0</ele>
        <time>2019-05-16T17:03:19.901Z</time>
      </trkpt>
      <trkpt lat="39.17743167" lon="-8.70432833">
        <ele>8.0</ele>
        <time>2019-05-16T17:03:21.011Z</time>
      </trkpt>
      <trkpt lat="39.17743167" lon="-8.70432833">
        <ele>8.0</ele>
        <time>2019-05-16T17:03:21.898Z</time>
      </trkpt>
      <trkpt lat="39.17747167" lon="-8.70431833">
        <ele>8.0</ele>
        <time>2019-05-16T17:03:22.926Z</time>
      </trkpt>
      <trkpt lat="39.17747167" lon="-8.70431833">
        <ele>8.0</ele>
        <time>2019-05-16T17:03:23.902Z</time>
      </trkpt>
      <trkpt lat="39.17751333" lon="-8.7043">
        <ele>8.0</ele>
        <time>2019-05-16T17:03:24.926Z</time>
      </trkpt>
      <trkpt lat="39.17751333" lon="-8.7043">
        <ele>8.0</ele>
        <time>2019-05-16T17:03:25.924Z</time>
      </trkpt>
      <trkpt lat="39.17756667" lon="-8.70427333">
        <ele>8.0</ele>
        <time>2019-05-16T17:03:26.904Z</time>
      </trkpt>
      <trkpt lat="39.17756667" lon="-8.70427333">
        <ele>8.0</ele>
        <time>2019-05-16T17:03:27.934Z</time>
      </trkpt>
      <trkpt lat="39.17762" lon="-8.70425167">
        <ele>8.0</ele>
        <time>2019-05-16T17:03:28.913Z</time>
      </trkpt>
      <trkpt lat="39.17762" lon="-8.70425167">
        <ele>8.0</ele>
        <time>2019-05-16T17:03:29.914Z</time>
      </trkpt>
      <trkpt lat="39.17767" lon="-8.704225">
        <ele>8.0</ele>
        <time>2019-05-16T17:03:30.931Z</time>
      </trkpt>
      <trkpt lat="39.17767" lon="-8.704225">
        <ele>8.0</ele>
        <time>2019-05-16T17:03:31.923Z</time>
      </trkpt>
      <trkpt lat="39.17771833" lon="-8.70418333">
        <ele>9.0</ele>
        <time>2019-05-16T17:03:32.908Z</time>
      </trkpt>
      <trkpt lat="39.17771833" lon="-8.70418333">
        <ele>9.0</ele>
        <time>2019-05-16T17:03:33.920Z</time>
      </trkpt>
      <trkpt lat="39.17776667" lon="-8.70415167">
        <ele>8.0</ele>
        <time>2019-05-16T17:03:34.922Z</time>
      </trkpt>
      <trkpt lat="39.17776667" lon="-8.70415167">
        <ele>8.0</ele>
        <time>2019-05-16T17:03:35.906Z</time>
      </trkpt>
      <trkpt lat="39.177815" lon="-8.70411">
        <ele>8.0</ele>
        <time>2019-05-16T17:03:36.925Z</time>
      </trkpt>
      <trkpt lat="39.17784167" lon="-8.70409333">
        <ele>8.0</ele>
        <time>2019-05-16T17:03:37.909Z</time>
      </trkpt>
      <trkpt lat="39.17784167" lon="-8.70409333">
        <ele>8.0</ele>
        <time>2019-05-16T17:03:38.917Z</time>
      </trkpt>
      <trkpt lat="39.177895" lon="-8.704065">
        <ele>8.0</ele>
        <time>2019-05-16T17:03:39.901Z</time>
      </trkpt>
      <trkpt lat="39.17791833" lon="-8.70404333">
        <ele>8.0</ele>
        <time>2019-05-16T17:03:40.898Z</time>
      </trkpt>
      <trkpt lat="39.17791833" lon="-8.70404333">
        <ele>8.0</ele>
        <time>2019-05-16T17:03:41.902Z</time>
      </trkpt>
      <trkpt lat="39.17796667" lon="-8.704005">
        <ele>8.0</ele>
        <time>2019-05-16T17:03:42.923Z</time>
      </trkpt>
      <trkpt lat="39.17796667" lon="-8.704005">
        <ele>8.0</ele>
        <time>2019-05-16T17:03:43.931Z</time>
      </trkpt>
      <trkpt lat="39.17801833" lon="-8.703975">
        <ele>8.0</ele>
        <time>2019-05-16T17:03:44.905Z</time>
      </trkpt>
      <trkpt lat="39.17801833" lon="-8.703975">
        <ele>8.0</ele>
        <time>2019-05-16T17:03:45.905Z</time>
      </trkpt>
      <trkpt lat="39.17806167" lon="-8.70393167">
        <ele>9.0</ele>
        <time>2019-05-16T17:03:46.933Z</time>
      </trkpt>
      <trkpt lat="39.17806167" lon="-8.70393167">
        <ele>9.0</ele>
        <time>2019-05-16T17:03:47.923Z</time>
      </trkpt>
      <trkpt lat="39.17811167" lon="-8.70389667">
        <ele>9.0</ele>
        <time>2019-05-16T17:03:48.899Z</time>
      </trkpt>
      <trkpt lat="39.17811167" lon="-8.70389667">
        <ele>9.0</ele>
        <time>2019-05-16T17:03:49.916Z</time>
      </trkpt>
      <trkpt lat="39.17816" lon="-8.70385833">
        <ele>9.0</ele>
        <time>2019-05-16T17:03:50.898Z</time>
      </trkpt>
      <trkpt lat="39.17816" lon="-8.70385833">
        <ele>9.0</ele>
        <time>2019-05-16T17:03:51.922Z</time>
      </trkpt>
      <trkpt lat="39.17820833" lon="-8.70382">
        <ele>9.0</ele>
        <time>2019-05-16T17:03:52.904Z</time>
      </trkpt>
      <trkpt lat="39.17820833" lon="-8.70382">
        <ele>9.0</ele>
        <time>2019-05-16T17:03:53.935Z</time>
      </trkpt>
      <trkpt lat="39.17825833" lon="-8.70378333">
        <ele>9.0</ele>
        <time>2019-05-16T17:03:54.920Z</time>
      </trkpt>
      <trkpt lat="39.17825833" lon="-8.70378333">
        <ele>9.0</ele>
        <time>2019-05-16T17:03:55.913Z</time>
      </trkpt>
      <trkpt lat="39.17830667" lon="-8.70374333">
        <ele>9.0</ele>
        <time>2019-05-16T17:03:56.931Z</time>
      </trkpt>
      <trkpt lat="39.17830667" lon="-8.70374333">
        <ele>9.0</ele>
        <time>2019-05-16T17:03:57.903Z</time>
      </trkpt>
      <trkpt lat="39.17835667" lon="-8.70370333">
        <ele>9.0</ele>
        <time>2019-05-16T17:03:58.917Z</time>
      </trkpt>
      <trkpt lat="39.17835667" lon="-8.70370333">
        <ele>9.0</ele>
        <time>2019-05-16T17:03:59.901Z</time>
      </trkpt>
      <trkpt lat="39.17841" lon="-8.70366333">
        <ele>8.0</ele>
        <time>2019-05-16T17:04:00.919Z</time>
      </trkpt>
      <trkpt lat="39.17841" lon="-8.70366333">
        <ele>8.0</ele>
        <time>2019-05-16T17:04:01.933Z</time>
      </trkpt>
      <trkpt lat="39.17846167" lon="-8.70361833">
        <ele>8.0</ele>
        <time>2019-05-16T17:04:02.916Z</time>
      </trkpt>
      <trkpt lat="39.17846167" lon="-8.70361833">
        <ele>8.0</ele>
        <time>2019-05-16T17:04:03.914Z</time>
      </trkpt>
      <trkpt lat="39.17851833" lon="-8.70357833">
        <ele>8.0</ele>
        <time>2019-05-16T17:04:04.930Z</time>
      </trkpt>
      <trkpt lat="39.17851833" lon="-8.70357833">
        <ele>8.0</ele>
        <time>2019-05-16T17:04:05.917Z</time>
      </trkpt>
      <trkpt lat="39.17857333" lon="-8.703535">
        <ele>8.0</ele>
        <time>2019-05-16T17:04:06.898Z</time>
      </trkpt>
      <trkpt lat="39.17857333" lon="-8.703535">
        <ele>8.0</ele>
        <time>2019-05-16T17:04:07.933Z</time>
      </trkpt>
      <trkpt lat="39.17862833" lon="-8.70349">
        <ele>8.0</ele>
        <time>2019-05-16T17:04:08.909Z</time>
      </trkpt>
      <trkpt lat="39.17862833" lon="-8.70349">
        <ele>8.0</ele>
        <time>2019-05-16T17:04:09.905Z</time>
      </trkpt>
      <trkpt lat="39.17868333" lon="-8.70345167">
        <ele>8.0</ele>
        <time>2019-05-16T17:04:10.920Z</time>
      </trkpt>
      <trkpt lat="39.17871" lon="-8.703435">
        <ele>8.0</ele>
        <time>2019-05-16T17:04:11.915Z</time>
      </trkpt>
      <trkpt lat="39.17871" lon="-8.703435">
        <ele>8.0</ele>
        <time>2019-05-16T17:04:12.912Z</time>
      </trkpt>
      <trkpt lat="39.17876" lon="-8.703395">
        <ele>8.0</ele>
        <time>2019-05-16T17:04:13.934Z</time>
      </trkpt>
      <trkpt lat="39.17878333" lon="-8.70337333">
        <ele>8.0</ele>
        <time>2019-05-16T17:04:14.906Z</time>
      </trkpt>
      <trkpt lat="39.17878333" lon="-8.70337333">
        <ele>8.0</ele>
        <time>2019-05-16T17:04:15.925Z</time>
      </trkpt>
      <trkpt lat="39.17883333" lon="-8.70333">
        <ele>8.0</ele>
        <time>2019-05-16T17:04:16.897Z</time>
      </trkpt>
      <trkpt lat="39.17883333" lon="-8.70333">
        <ele>8.0</ele>
        <time>2019-05-16T17:04:17.928Z</time>
      </trkpt>
      <trkpt lat="39.17889" lon="-8.70329">
        <ele>7.0</ele>
        <time>2019-05-16T17:04:18.911Z</time>
      </trkpt>
      <trkpt lat="39.17889" lon="-8.70329">
        <ele>7.0</ele>
        <time>2019-05-16T17:04:19.923Z</time>
      </trkpt>
      <trkpt lat="39.178945" lon="-8.703245">
        <ele>7.0</ele>
        <time>2019-05-16T17:04:20.902Z</time>
      </trkpt>
      <trkpt lat="39.17897167" lon="-8.70322333">
        <ele>7.0</ele>
        <time>2019-05-16T17:04:21.944Z</time>
      </trkpt>
      <trkpt lat="39.17897167" lon="-8.70322333">
        <ele>7.0</ele>
        <time>2019-05-16T17:04:22.912Z</time>
      </trkpt>
      <trkpt lat="39.17902667" lon="-8.70318">
        <ele>7.0</ele>
        <time>2019-05-16T17:04:23.907Z</time>
      </trkpt>
      <trkpt lat="39.17902667" lon="-8.70318">
        <ele>7.0</ele>
        <time>2019-05-16T17:04:24.903Z</time>
      </trkpt>
      <trkpt lat="39.17908" lon="-8.70313833">
        <ele>7.0</ele>
        <time>2019-05-16T17:04:25.921Z</time>
      </trkpt>
      <trkpt lat="39.17910667" lon="-8.70311833">
        <ele>7.0</ele>
        <time>2019-05-16T17:04:26.922Z</time>
      </trkpt>
      <trkpt lat="39.17910667" lon="-8.70311833">
        <ele>7.0</ele>
        <time>2019-05-16T17:04:27.923Z</time>
      </trkpt>
      <trkpt lat="39.179165" lon="-8.70307167">
        <ele>7.0</ele>
        <time>2019-05-16T17:04:28.905Z</time>
      </trkpt>
      <trkpt lat="39.179165" lon="-8.70307167">
        <ele>7.0</ele>
        <time>2019-05-16T17:04:29.901Z</time>
      </trkpt>
      <trkpt lat="39.179225" lon="-8.70303">
        <ele>7.0</ele>
        <time>2019-05-16T17:04:30.928Z</time>
      </trkpt>
      <trkpt lat="39.179225" lon="-8.70303">
        <ele>7.0</ele>
        <time>2019-05-16T17:04:31.910Z</time>
      </trkpt>
      <trkpt lat="39.17928167" lon="-8.70298333">
        <ele>7.0</ele>
        <time>2019-05-16T17:04:32.923Z</time>
      </trkpt>
      <trkpt lat="39.17928167" lon="-8.70298333">
        <ele>7.0</ele>
        <time>2019-05-16T17:04:33.911Z</time>
      </trkpt>
      <trkpt lat="39.17933667" lon="-8.702935">
        <ele>7.0</ele>
        <time>2019-05-16T17:04:34.934Z</time>
      </trkpt>
      <trkpt lat="39.17933667" lon="-8.702935">
        <ele>7.0</ele>
        <time>2019-05-16T17:04:35.906Z</time>
      </trkpt>
      <trkpt lat="39.17939167" lon="-8.702885">
        <ele>7.0</ele>
        <time>2019-05-16T17:04:36.901Z</time>
      </trkpt>
      <trkpt lat="39.17942" lon="-8.70286333">
        <ele>7.0</ele>
        <time>2019-05-16T17:04:37.901Z</time>
      </trkpt>
      <trkpt lat="39.17944833" lon="-8.70284167">
        <ele>7.0</ele>
        <time>2019-05-16T17:04:38.912Z</time>
      </trkpt>
      <trkpt lat="39.17944833" lon="-8.70284167">
        <ele>7.0</ele>
        <time>2019-05-16T17:04:39.932Z</time>
      </trkpt>
      <trkpt lat="39.179505" lon="-8.70280167">
        <ele>6.0</ele>
        <time>2019-05-16T17:04:40.925Z</time>
      </trkpt>
      <trkpt lat="39.179505" lon="-8.70280167">
        <ele>6.0</ele>
        <time>2019-05-16T17:04:41.914Z</time>
      </trkpt>
      <trkpt lat="39.17955667" lon="-8.70275667">
        <ele>7.0</ele>
        <time>2019-05-16T17:04:42.934Z</time>
      </trkpt>
      <trkpt lat="39.17955667" lon="-8.70275667">
        <ele>7.0</ele>
        <time>2019-05-16T17:04:43.910Z</time>
      </trkpt>
      <trkpt lat="39.17961333" lon="-8.70272">
        <ele>6.0</ele>
        <time>2019-05-16T17:04:44.934Z</time>
      </trkpt>
      <trkpt lat="39.17961333" lon="-8.70272">
        <ele>6.0</ele>
        <time>2019-05-16T17:04:45.925Z</time>
      </trkpt>
      <trkpt lat="39.17967" lon="-8.70268833">
        <ele>7.0</ele>
        <time>2019-05-16T17:04:46.916Z</time>
      </trkpt>
      <trkpt lat="39.17967" lon="-8.70268833">
        <ele>7.0</ele>
        <time>2019-05-16T17:04:47.909Z</time>
      </trkpt>
      <trkpt lat="39.17973" lon="-8.70266">
        <ele>7.0</ele>
        <time>2019-05-16T17:04:48.937Z</time>
      </trkpt>
      <trkpt lat="39.17973" lon="-8.70266">
        <ele>7.0</ele>
        <time>2019-05-16T17:04:49.936Z</time>
      </trkpt>
      <trkpt lat="39.179795" lon="-8.702645">
        <ele>7.0</ele>
        <time>2019-05-16T17:04:50.921Z</time>
      </trkpt>
      <trkpt lat="39.179795" lon="-8.702645">
        <ele>7.0</ele>
        <time>2019-05-16T17:04:51.936Z</time>
      </trkpt>
      <trkpt lat="39.179865" lon="-8.702635">
        <ele>7.0</ele>
        <time>2019-05-16T17:04:52.912Z</time>
      </trkpt>
      <trkpt lat="39.179865" lon="-8.702635">
        <ele>7.0</ele>
        <time>2019-05-16T17:04:53.931Z</time>
      </trkpt>
      <trkpt lat="39.17993667" lon="-8.70263167">
        <ele>6.0</ele>
        <time>2019-05-16T17:04:54.922Z</time>
      </trkpt>
      <trkpt lat="39.17993667" lon="-8.70263167">
        <ele>6.0</ele>
        <time>2019-05-16T17:04:55.903Z</time>
      </trkpt>
      <trkpt lat="39.18001" lon="-8.70264333">
        <ele>6.0</ele>
        <time>2019-05-16T17:04:56.913Z</time>
      </trkpt>
      <trkpt lat="39.18001" lon="-8.70264333">
        <ele>6.0</ele>
        <time>2019-05-16T17:04:57.910Z</time>
      </trkpt>
      <trkpt lat="39.180085" lon="-8.702645">
        <ele>6.0</ele>
        <time>2019-05-16T17:04:58.931Z</time>
      </trkpt>
      <trkpt lat="39.18011833" lon="-8.70264333">
        <ele>6.0</ele>
        <time>2019-05-16T17:04:59.912Z</time>
      </trkpt>
      <trkpt lat="39.18011833" lon="-8.70264333">
        <ele>6.0</ele>
        <time>2019-05-16T17:05:00.898Z</time>
      </trkpt>
      <trkpt lat="39.18018" lon="-8.70263333">
        <ele>6.0</ele>
        <time>2019-05-16T17:05:01.921Z</time>
      </trkpt>
      <trkpt lat="39.18020833" lon="-8.702625">
        <ele>6.0</ele>
        <time>2019-05-16T17:05:02.931Z</time>
      </trkpt>
      <trkpt lat="39.18020833" lon="-8.702625">
        <ele>6.0</ele>
        <time>2019-05-16T17:05:03.936Z</time>
      </trkpt>
      <trkpt lat="39.18025167" lon="-8.70259667">
        <ele>6.0</ele>
        <time>2019-05-16T17:05:04.918Z</time>
      </trkpt>
      <trkpt lat="39.18025167" lon="-8.70259667">
        <ele>6.0</ele>
        <time>2019-05-16T17:05:05.933Z</time>
      </trkpt>
      <trkpt lat="39.18029333" lon="-8.70255333">
        <ele>6.0</ele>
        <time>2019-05-16T17:05:06.912Z</time>
      </trkpt>
      <trkpt lat="39.180315" lon="-8.70252833">
        <ele>6.0</ele>
        <time>2019-05-16T17:05:07.917Z</time>
      </trkpt>
      <trkpt lat="39.180315" lon="-8.70252833">
        <ele>6.0</ele>
        <time>2019-05-16T17:05:08.924Z</time>
      </trkpt>
      <trkpt lat="39.180355" lon="-8.70247">
        <ele>6.0</ele>
        <time>2019-05-16T17:05:09.915Z</time>
      </trkpt>
      <trkpt lat="39.180355" lon="-8.70247">
        <ele>6.0</ele>
        <time>2019-05-16T17:05:10.923Z</time>
      </trkpt>
      <trkpt lat="39.18039667" lon="-8.70241">
        <ele>6.0</ele>
        <time>2019-05-16T17:05:11.907Z</time>
      </trkpt>
      <trkpt lat="39.18041667" lon="-8.70237833">
        <ele>6.0</ele>
        <time>2019-05-16T17:05:12.909Z</time>
      </trkpt>
      <trkpt lat="39.18041667" lon="-8.70237833">
        <ele>6.0</ele>
        <time>2019-05-16T17:05:13.919Z</time>
      </trkpt>
      <trkpt lat="39.18045833" lon="-8.70231667">
        <ele>6.0</ele>
        <time>2019-05-16T17:05:14.901Z</time>
      </trkpt>
      <trkpt lat="39.18045833" lon="-8.70231667">
        <ele>6.0</ele>
        <time>2019-05-16T17:05:15.903Z</time>
      </trkpt>
      <trkpt lat="39.18049667" lon="-8.70224667">
        <ele>6.0</ele>
        <time>2019-05-16T17:05:16.931Z</time>
      </trkpt>
      <trkpt lat="39.18049667" lon="-8.70224667">
        <ele>6.0</ele>
        <time>2019-05-16T17:05:17.923Z</time>
      </trkpt>
      <trkpt lat="39.18053833" lon="-8.702175">
        <ele>6.0</ele>
        <time>2019-05-16T17:05:18.913Z</time>
      </trkpt>
      <trkpt lat="39.18056" lon="-8.70213833">
        <ele>6.0</ele>
        <time>2019-05-16T17:05:19.906Z</time>
      </trkpt>
      <trkpt lat="39.18056" lon="-8.70213833">
        <ele>6.0</ele>
        <time>2019-05-16T17:05:20.926Z</time>
      </trkpt>
      <trkpt lat="39.18061333" lon="-8.70207167">
        <ele>6.0</ele>
        <time>2019-05-16T17:05:21.911Z</time>
      </trkpt>
      <trkpt lat="39.18061333" lon="-8.70207167">
        <ele>6.0</ele>
        <time>2019-05-16T17:05:22.903Z</time>
      </trkpt>
      <trkpt lat="39.18066333" lon="-8.702005">
        <ele>6.0</ele>
        <time>2019-05-16T17:05:23.921Z</time>
      </trkpt>
      <trkpt lat="39.18066333" lon="-8.702005">
        <ele>6.0</ele>
        <time>2019-05-16T17:05:24.909Z</time>
      </trkpt>
      <trkpt lat="39.180715" lon="-8.70194333">
        <ele>6.0</ele>
        <time>2019-05-16T17:05:25.904Z</time>
      </trkpt>
      <trkpt lat="39.18074167" lon="-8.70191333">
        <ele>6.0</ele>
        <time>2019-05-16T17:05:26.902Z</time>
      </trkpt>
      <trkpt lat="39.18074167" lon="-8.70191333">
        <ele>6.0</ele>
        <time>2019-05-16T17:05:27.931Z</time>
      </trkpt>
      <trkpt lat="39.18078667" lon="-8.70186">
        <ele>6.0</ele>
        <time>2019-05-16T17:05:28.918Z</time>
      </trkpt>
      <trkpt lat="39.18078667" lon="-8.70186">
        <ele>6.0</ele>
        <time>2019-05-16T17:05:29.897Z</time>
      </trkpt>
      <trkpt lat="39.18084" lon="-8.70180667">
        <ele>6.0</ele>
        <time>2019-05-16T17:05:30.926Z</time>
      </trkpt>
      <trkpt lat="39.18084" lon="-8.70180667">
        <ele>6.0</ele>
        <time>2019-05-16T17:05:31.903Z</time>
      </trkpt>
      <trkpt lat="39.18089333" lon="-8.70175833">
        <ele>6.0</ele>
        <time>2019-05-16T17:05:32.933Z</time>
      </trkpt>
      <trkpt lat="39.18089333" lon="-8.70175833">
        <ele>6.0</ele>
        <time>2019-05-16T17:05:33.903Z</time>
      </trkpt>
      <trkpt lat="39.18094833" lon="-8.70170667">
        <ele>6.0</ele>
        <time>2019-05-16T17:05:34.922Z</time>
      </trkpt>
      <trkpt lat="39.18094833" lon="-8.70170667">
        <ele>6.0</ele>
        <time>2019-05-16T17:05:35.899Z</time>
      </trkpt>
      <trkpt lat="39.18100167" lon="-8.70164333">
        <ele>6.0</ele>
        <time>2019-05-16T17:05:36.930Z</time>
      </trkpt>
      <trkpt lat="39.18100167" lon="-8.70164333">
        <ele>6.0</ele>
        <time>2019-05-16T17:05:37.910Z</time>
      </trkpt>
      <trkpt lat="39.18106" lon="-8.70159333">
        <ele>6.0</ele>
        <time>2019-05-16T17:05:38.924Z</time>
      </trkpt>
      <trkpt lat="39.18106" lon="-8.70159333">
        <ele>6.0</ele>
        <time>2019-05-16T17:05:39.906Z</time>
      </trkpt>
      <trkpt lat="39.18112167" lon="-8.701535">
        <ele>6.0</ele>
        <time>2019-05-16T17:05:40.922Z</time>
      </trkpt>
      <trkpt lat="39.18112167" lon="-8.701535">
        <ele>6.0</ele>
        <time>2019-05-16T17:05:41.903Z</time>
      </trkpt>
      <trkpt lat="39.18118333" lon="-8.701475">
        <ele>6.0</ele>
        <time>2019-05-16T17:05:42.922Z</time>
      </trkpt>
      <trkpt lat="39.18118333" lon="-8.701475">
        <ele>6.0</ele>
        <time>2019-05-16T17:05:43.922Z</time>
      </trkpt>
      <trkpt lat="39.181245" lon="-8.70142">
        <ele>6.0</ele>
        <time>2019-05-16T17:05:44.911Z</time>
      </trkpt>
      <trkpt lat="39.181245" lon="-8.70142">
        <ele>6.0</ele>
        <time>2019-05-16T17:05:45.923Z</time>
      </trkpt>
      <trkpt lat="39.18130667" lon="-8.70136833">
        <ele>6.0</ele>
        <time>2019-05-16T17:05:46.904Z</time>
      </trkpt>
      <trkpt lat="39.18130667" lon="-8.70136833">
        <ele>6.0</ele>
        <time>2019-05-16T17:05:47.897Z</time>
      </trkpt>
      <trkpt lat="39.18136833" lon="-8.70132">
        <ele>5.0</ele>
        <time>2019-05-16T17:05:48.929Z</time>
      </trkpt>
      <trkpt lat="39.18136833" lon="-8.70132">
        <ele>5.0</ele>
        <time>2019-05-16T17:05:49.903Z</time>
      </trkpt>
      <trkpt lat="39.18143" lon="-8.70127667">
        <ele>5.0</ele>
        <time>2019-05-16T17:05:50.926Z</time>
      </trkpt>
      <trkpt lat="39.18143" lon="-8.70127667">
        <ele>5.0</ele>
        <time>2019-05-16T17:05:51.903Z</time>
      </trkpt>
      <trkpt lat="39.18148667" lon="-8.70123167">
        <ele>5.0</ele>
        <time>2019-05-16T17:05:52.916Z</time>
      </trkpt>
      <trkpt lat="39.18148667" lon="-8.70123167">
        <ele>5.0</ele>
        <time>2019-05-16T17:05:53.903Z</time>
      </trkpt>
      <trkpt lat="39.181545" lon="-8.70119">
        <ele>5.0</ele>
        <time>2019-05-16T17:05:54.921Z</time>
      </trkpt>
      <trkpt lat="39.181545" lon="-8.70119">
        <ele>5.0</ele>
        <time>2019-05-16T17:05:55.906Z</time>
      </trkpt>
      <trkpt lat="39.181605" lon="-8.70114667">
        <ele>5.0</ele>
        <time>2019-05-16T17:05:56.927Z</time>
      </trkpt>
      <trkpt lat="39.181605" lon="-8.70114667">
        <ele>5.0</ele>
        <time>2019-05-16T17:05:57.916Z</time>
      </trkpt>
      <trkpt lat="39.18166167" lon="-8.70110167">
        <ele>5.0</ele>
        <time>2019-05-16T17:05:58.897Z</time>
      </trkpt>
      <trkpt lat="39.18166167" lon="-8.70110167">
        <ele>5.0</ele>
        <time>2019-05-16T17:05:59.919Z</time>
      </trkpt>
      <trkpt lat="39.18171833" lon="-8.70106167">
        <ele>5.0</ele>
        <time>2019-05-16T17:06:00.901Z</time>
      </trkpt>
      <trkpt lat="39.18171833" lon="-8.70106167">
        <ele>5.0</ele>
        <time>2019-05-16T17:06:01.935Z</time>
      </trkpt>
      <trkpt lat="39.18176833" lon="-8.70102333">
        <ele>5.0</ele>
        <time>2019-05-16T17:06:02.932Z</time>
      </trkpt>
      <trkpt lat="39.18176833" lon="-8.70102333">
        <ele>5.0</ele>
        <time>2019-05-16T17:06:03.910Z</time>
      </trkpt>
      <trkpt lat="39.18181667" lon="-8.70098667">
        <ele>5.0</ele>
        <time>2019-05-16T17:06:04.928Z</time>
      </trkpt>
      <trkpt lat="39.18181667" lon="-8.70098667">
        <ele>5.0</ele>
        <time>2019-05-16T17:06:05.923Z</time>
      </trkpt>
      <trkpt lat="39.18186667" lon="-8.70094667">
        <ele>5.0</ele>
        <time>2019-05-16T17:06:06.907Z</time>
      </trkpt>
      <trkpt lat="39.18186667" lon="-8.70094667">
        <ele>5.0</ele>
        <time>2019-05-16T17:06:07.923Z</time>
      </trkpt>
      <trkpt lat="39.18192" lon="-8.70090667">
        <ele>5.0</ele>
        <time>2019-05-16T17:06:08.923Z</time>
      </trkpt>
      <trkpt lat="39.18192" lon="-8.70090667">
        <ele>5.0</ele>
        <time>2019-05-16T17:06:09.899Z</time>
      </trkpt>
      <trkpt lat="39.18197667" lon="-8.700865">
        <ele>5.0</ele>
        <time>2019-05-16T17:06:10.922Z</time>
      </trkpt>
      <trkpt lat="39.18197667" lon="-8.700865">
        <ele>5.0</ele>
        <time>2019-05-16T17:06:11.932Z</time>
      </trkpt>
      <trkpt lat="39.18203333" lon="-8.70081833">
        <ele>5.0</ele>
        <time>2019-05-16T17:06:12.936Z</time>
      </trkpt>
      <trkpt lat="39.18203333" lon="-8.70081833">
        <ele>5.0</ele>
        <time>2019-05-16T17:06:13.931Z</time>
      </trkpt>
      <trkpt lat="39.18208667" lon="-8.70077167">
        <ele>5.0</ele>
        <time>2019-05-16T17:06:14.910Z</time>
      </trkpt>
      <trkpt lat="39.18208667" lon="-8.70077167">
        <ele>5.0</ele>
        <time>2019-05-16T17:06:15.933Z</time>
      </trkpt>
      <trkpt lat="39.18213667" lon="-8.700725">
        <ele>4.0</ele>
        <time>2019-05-16T17:06:16.912Z</time>
      </trkpt>
      <trkpt lat="39.18213667" lon="-8.700725">
        <ele>4.0</ele>
        <time>2019-05-16T17:06:17.903Z</time>
      </trkpt>
      <trkpt lat="39.18219" lon="-8.70068">
        <ele>4.0</ele>
        <time>2019-05-16T17:06:18.930Z</time>
      </trkpt>
      <trkpt lat="39.18219" lon="-8.70068">
        <ele>4.0</ele>
        <time>2019-05-16T17:06:19.929Z</time>
      </trkpt>
      <trkpt lat="39.18224167" lon="-8.700635">
        <ele>4.0</ele>
        <time>2019-05-16T17:06:20.914Z</time>
      </trkpt>
      <trkpt lat="39.18224167" lon="-8.700635">
        <ele>4.0</ele>
        <time>2019-05-16T17:06:21.921Z</time>
      </trkpt>
      <trkpt lat="39.18229333" lon="-8.70058833">
        <ele>4.0</ele>
        <time>2019-05-16T17:06:22.907Z</time>
      </trkpt>
      <trkpt lat="39.18229333" lon="-8.70058833">
        <ele>4.0</ele>
        <time>2019-05-16T17:06:23.934Z</time>
      </trkpt>
      <trkpt lat="39.18234667" lon="-8.70054167">
        <ele>4.0</ele>
        <time>2019-05-16T17:06:24.921Z</time>
      </trkpt>
      <trkpt lat="39.18234667" lon="-8.70054167">
        <ele>4.0</ele>
        <time>2019-05-16T17:06:25.903Z</time>
      </trkpt>
      <trkpt lat="39.1824" lon="-8.70048667">
        <ele>4.0</ele>
        <time>2019-05-16T17:06:26.929Z</time>
      </trkpt>
      <trkpt lat="39.1824" lon="-8.70048667">
        <ele>4.0</ele>
        <time>2019-05-16T17:06:27.935Z</time>
      </trkpt>
      <trkpt lat="39.18245" lon="-8.70043833">
        <ele>4.0</ele>
        <time>2019-05-16T17:06:28.928Z</time>
      </trkpt>
      <trkpt lat="39.18245" lon="-8.70043833">
        <ele>4.0</ele>
        <time>2019-05-16T17:06:29.905Z</time>
      </trkpt>
      <trkpt lat="39.1825" lon="-8.70038667">
        <ele>4.0</ele>
        <time>2019-05-16T17:06:30.935Z</time>
      </trkpt>
      <trkpt lat="39.182525" lon="-8.70036">
        <ele>4.0</ele>
        <time>2019-05-16T17:06:31.927Z</time>
      </trkpt>
      <trkpt lat="39.18255167" lon="-8.70033167">
        <ele>4.0</ele>
        <time>2019-05-16T17:06:32.922Z</time>
      </trkpt>
      <trkpt lat="39.18255167" lon="-8.70033167">
        <ele>4.0</ele>
        <time>2019-05-16T17:06:33.923Z</time>
      </trkpt>
      <trkpt lat="39.18260333" lon="-8.700275">
        <ele>4.0</ele>
        <time>2019-05-16T17:06:34.914Z</time>
      </trkpt>
      <trkpt lat="39.18262833" lon="-8.70024667">
        <ele>4.0</ele>
        <time>2019-05-16T17:06:35.933Z</time>
      </trkpt>
      <trkpt lat="39.18262833" lon="-8.70024667">
        <ele>4.0</ele>
        <time>2019-05-16T17:06:36.902Z</time>
      </trkpt>
      <trkpt lat="39.18267333" lon="-8.70019667">
        <ele>4.0</ele>
        <time>2019-05-16T17:06:37.919Z</time>
      </trkpt>
      <trkpt lat="39.18267333" lon="-8.70019667">
        <ele>4.0</ele>
        <time>2019-05-16T17:06:38.928Z</time>
      </trkpt>
      <trkpt lat="39.18271167" lon="-8.70015167">
        <ele>4.0</ele>
        <time>2019-05-16T17:06:39.915Z</time>
      </trkpt>
      <trkpt lat="39.18272833" lon="-8.70012833">
        <ele>3.0</ele>
        <time>2019-05-16T17:06:40.897Z</time>
      </trkpt>
      <trkpt lat="39.18272833" lon="-8.70012833">
        <ele>3.0</ele>
        <time>2019-05-16T17:06:41.902Z</time>
      </trkpt>
      <trkpt lat="39.18276167" lon="-8.70009167">
        <ele>4.0</ele>
        <time>2019-05-16T17:06:42.937Z</time>
      </trkpt>
      <trkpt lat="39.18277667" lon="-8.700075">
        <ele>4.0</ele>
        <time>2019-05-16T17:06:43.909Z</time>
      </trkpt>
      <trkpt lat="39.18277667" lon="-8.700075">
        <ele>4.0</ele>
        <time>2019-05-16T17:06:44.903Z</time>
      </trkpt>
      <trkpt lat="39.182805" lon="-8.70004833">
        <ele>3.0</ele>
        <time>2019-05-16T17:06:45.937Z</time>
      </trkpt>
      <trkpt lat="39.18281667" lon="-8.700035">
        <ele>3.0</ele>
        <time>2019-05-16T17:06:46.913Z</time>
      </trkpt>
      <trkpt lat="39.18281667" lon="-8.700035">
        <ele>3.0</ele>
        <time>2019-05-16T17:06:47.935Z</time>
      </trkpt>
      <trkpt lat="39.182835" lon="-8.70002">
        <ele>3.0</ele>
        <time>2019-05-16T17:06:48.924Z</time>
      </trkpt>
      <trkpt lat="39.182835" lon="-8.70002">
        <ele>3.0</ele>
        <time>2019-05-16T17:06:49.906Z</time>
      </trkpt>
      <trkpt lat="39.182835" lon="-8.70002">
        <ele>3.0</ele>
        <time>2019-05-16T17:06:50.925Z</time>
      </trkpt>
      <trkpt lat="39.182835" lon="-8.70002">
        <ele>3.0</ele>
        <time>2019-05-16T17:06:51.913Z</time>
      </trkpt>
      <trkpt lat="39.182835" lon="-8.70002">
        <ele>3.0</ele>
        <time>2019-05-16T17:06:52.919Z</time>
      </trkpt>
      <trkpt lat="39.182835" lon="-8.70002">
        <ele>3.0</ele>
        <time>2019-05-16T17:06:53.925Z</time>
      </trkpt>
      <trkpt lat="39.182835" lon="-8.70002">
        <ele>3.0</ele>
        <time>2019-05-16T17:06:54.933Z</time>
      </trkpt>
      <trkpt lat="39.182835" lon="-8.70002">
        <ele>3.0</ele>
        <time>2019-05-16T17:06:55.899Z</time>
      </trkpt>
      <trkpt lat="39.182835" lon="-8.70002">
        <ele>3.0</ele>
        <time>2019-05-16T17:06:56.905Z</time>
      </trkpt>
      <trkpt lat="39.182835" lon="-8.70002">
        <ele>3.0</ele>
        <time>2019-05-16T17:06:57.906Z</time>
      </trkpt>
      <trkpt lat="39.182835" lon="-8.70002">
        <ele>3.0</ele>
        <time>2019-05-16T17:06:58.901Z</time>
      </trkpt>
      <trkpt lat="39.182835" lon="-8.70002">
        <ele>3.0</ele>
        <time>2019-05-16T17:06:59.906Z</time>
      </trkpt>
      <trkpt lat="39.182835" lon="-8.70002">
        <ele>3.0</ele>
        <time>2019-05-16T17:07:00.901Z</time>
      </trkpt>
      <trkpt lat="39.182835" lon="-8.70002">
        <ele>3.0</ele>
        <time>2019-05-16T17:07:01.906Z</time>
      </trkpt>
      <trkpt lat="39.182835" lon="-8.70002">
        <ele>3.0</ele>
        <time>2019-05-16T17:07:02.907Z</time>
      </trkpt>
      <trkpt lat="39.182835" lon="-8.70002">
        <ele>3.0</ele>
        <time>2019-05-16T17:07:03.925Z</time>
      </trkpt>
      <trkpt lat="39.182835" lon="-8.70002">
        <ele>3.0</ele>
        <time>2019-05-16T17:07:04.920Z</time>
      </trkpt>
      <trkpt lat="39.182835" lon="-8.70002">
        <ele>3.0</ele>
        <time>2019-05-16T17:07:05.906Z</time>
      </trkpt>
      <trkpt lat="39.182835" lon="-8.70002">
        <ele>3.0</ele>
        <time>2019-05-16T17:07:06.908Z</time>
      </trkpt>
      <trkpt lat="39.182835" lon="-8.70002">
        <ele>3.0</ele>
        <time>2019-05-16T17:07:07.902Z</time>
      </trkpt>
      <trkpt lat="39.182835" lon="-8.70002">
        <ele>3.0</ele>
        <time>2019-05-16T17:07:08.907Z</time>
      </trkpt>
      <trkpt lat="39.182835" lon="-8.70002">
        <ele>3.0</ele>
        <time>2019-05-16T17:07:09.901Z</time>
      </trkpt>
      <trkpt lat="39.182835" lon="-8.70002">
        <ele>3.0</ele>
        <time>2019-05-16T17:07:10.906Z</time>
      </trkpt>
      <trkpt lat="39.182835" lon="-8.70002">
        <ele>3.0</ele>
        <time>2019-05-16T17:07:11.901Z</time>
      </trkpt>
      <trkpt lat="39.182835" lon="-8.70002">
        <ele>3.0</ele>
        <time>2019-05-16T17:07:12.906Z</time>
      </trkpt>
      <trkpt lat="39.182835" lon="-8.70002">
        <ele>3.0</ele>
        <time>2019-05-16T17:07:13.901Z</time>
      </trkpt>
      <trkpt lat="39.182835" lon="-8.70002">
        <ele>3.0</ele>
        <time>2019-05-16T17:07:14.907Z</time>
      </trkpt>
      <trkpt lat="39.182835" lon="-8.70002">
        <ele>3.0</ele>
        <time>2019-05-16T17:07:15.907Z</time>
      </trkpt>
      <trkpt lat="39.182835" lon="-8.70002">
        <ele>3.0</ele>
        <time>2019-05-16T17:07:16.901Z</time>
      </trkpt>
      <trkpt lat="39.182835" lon="-8.70002">
        <ele>3.0</ele>
        <time>2019-05-16T17:07:17.906Z</time>
      </trkpt>
      <trkpt lat="39.182835" lon="-8.70002">
        <ele>3.0</ele>
        <time>2019-05-16T17:07:18.932Z</time>
      </trkpt>
      <trkpt lat="39.182835" lon="-8.70002">
        <ele>3.0</ele>
        <time>2019-05-16T17:07:19.907Z</time>
      </trkpt>
      <trkpt lat="39.182835" lon="-8.70002">
        <ele>3.0</ele>
        <time>2019-05-16T17:07:20.902Z</time>
      </trkpt>
      <trkpt lat="39.182835" lon="-8.70002">
        <ele>3.0</ele>
        <time>2019-05-16T17:07:21.917Z</time>
      </trkpt>
      <trkpt lat="39.182835" lon="-8.70002">
        <ele>3.0</ele>
        <time>2019-05-16T17:07:22.924Z</time>
      </trkpt>
      <trkpt lat="39.182835" lon="-8.70002">
        <ele>3.0</ele>
        <time>2019-05-16T17:07:23.912Z</time>
      </trkpt>
      <trkpt lat="39.182835" lon="-8.70002">
        <ele>3.0</ele>
        <time>2019-05-16T17:07:24.903Z</time>
      </trkpt>
      <trkpt lat="39.182835" lon="-8.70002">
        <ele>3.0</ele>
        <time>2019-05-16T17:07:25.906Z</time>
      </trkpt>
      <trkpt lat="39.182835" lon="-8.70002">
        <ele>3.0</ele>
        <time>2019-05-16T17:07:26.907Z</time>
      </trkpt>
      <trkpt lat="39.182835" lon="-8.70002">
        <ele>3.0</ele>
        <time>2019-05-16T17:07:27.901Z</time>
      </trkpt>
      <trkpt lat="39.182835" lon="-8.70002">
        <ele>3.0</ele>
        <time>2019-05-16T17:07:28.906Z</time>
      </trkpt>
      <trkpt lat="39.182835" lon="-8.70002">
        <ele>3.0</ele>
        <time>2019-05-16T17:07:29.901Z</time>
      </trkpt>
      <trkpt lat="39.182835" lon="-8.70002">
        <ele>3.0</ele>
        <time>2019-05-16T17:07:30.906Z</time>
      </trkpt>
      <trkpt lat="39.182835" lon="-8.70002">
        <ele>3.0</ele>
        <time>2019-05-16T17:07:31.903Z</time>
      </trkpt>
      <trkpt lat="39.182835" lon="-8.70002">
        <ele>3.0</ele>
        <time>2019-05-16T17:07:32.905Z</time>
      </trkpt>
      <trkpt lat="39.182835" lon="-8.70002">
        <ele>3.0</ele>
        <time>2019-05-16T17:07:33.902Z</time>
      </trkpt>
      <trkpt lat="39.182835" lon="-8.70002">
        <ele>3.0</ele>
        <time>2019-05-16T17:07:34.906Z</time>
      </trkpt>
      <trkpt lat="39.182835" lon="-8.70002">
        <ele>3.0</ele>
        <time>2019-05-16T17:07:35.907Z</time>
      </trkpt>
      <trkpt lat="39.182835" lon="-8.70002">
        <ele>3.0</ele>
        <time>2019-05-16T17:07:36.922Z</time>
      </trkpt>
      <trkpt lat="39.182835" lon="-8.70002">
        <ele>3.0</ele>
        <time>2019-05-16T17:07:37.909Z</time>
      </trkpt>
      <trkpt lat="39.182835" lon="-8.70002">
        <ele>3.0</ele>
        <time>2019-05-16T17:07:38.902Z</time>
      </trkpt>
      <trkpt lat="39.182835" lon="-8.70002">
        <ele>3.0</ele>
        <time>2019-05-16T17:07:39.908Z</time>
      </trkpt>
      <trkpt lat="39.182835" lon="-8.70002">
        <ele>3.0</ele>
        <time>2019-05-16T17:07:40.902Z</time>
      </trkpt>
      <trkpt lat="39.182835" lon="-8.70002">
        <ele>3.0</ele>
        <time>2019-05-16T17:07:41.908Z</time>
      </trkpt>
      <trkpt lat="39.182835" lon="-8.70002">
        <ele>3.0</ele>
        <time>2019-05-16T17:07:42.903Z</time>
      </trkpt>
      <trkpt lat="39.182835" lon="-8.70002">
        <ele>3.0</ele>
        <time>2019-05-16T17:07:43.907Z</time>
      </trkpt>
      <trkpt lat="39.182835" lon="-8.70002">
        <ele>3.0</ele>
        <time>2019-05-16T17:07:44.908Z</time>
      </trkpt>
      <trkpt lat="39.182835" lon="-8.70002">
        <ele>3.0</ele>
        <time>2019-05-16T17:07:45.902Z</time>
      </trkpt>
      <trkpt lat="39.182835" lon="-8.70002">
        <ele>3.0</ele>
        <time>2019-05-16T17:07:46.907Z</time>
      </trkpt>
      <trkpt lat="39.182835" lon="-8.70002">
        <ele>3.0</ele>
        <time>2019-05-16T17:07:47.902Z</time>
      </trkpt>
      <trkpt lat="39.182835" lon="-8.70002">
        <ele>3.0</ele>
        <time>2019-05-16T17:07:48.902Z</time>
      </trkpt>
      <trkpt lat="39.182835" lon="-8.70002">
        <ele>3.0</ele>
        <time>2019-05-16T17:07:49.907Z</time>
      </trkpt>
      <trkpt lat="39.182835" lon="-8.70002">
        <ele>3.0</ele>
        <time>2019-05-16T17:07:50.906Z</time>
      </trkpt>
      <trkpt lat="39.182835" lon="-8.70002">
        <ele>3.0</ele>
        <time>2019-05-16T17:07:51.902Z</time>
      </trkpt>
      <trkpt lat="39.182835" lon="-8.70002">
        <ele>3.0</ele>
        <time>2019-05-16T17:07:52.907Z</time>
      </trkpt>
      <trkpt lat="39.182835" lon="-8.70002">
        <ele>3.0</ele>
        <time>2019-05-16T17:07:53.903Z</time>
      </trkpt>
      <trkpt lat="39.18283667" lon="-8.70001833">
        <ele>2.0</ele>
        <time>2019-05-16T17:07:54.907Z</time>
      </trkpt>
      <trkpt lat="39.18285" lon="-8.700005">
        <ele>2.0</ele>
        <time>2019-05-16T17:07:55.908Z</time>
      </trkpt>
      <trkpt lat="39.18285" lon="-8.700005">
        <ele>2.0</ele>
        <time>2019-05-16T17:07:56.905Z</time>
      </trkpt>
      <trkpt lat="39.18289333" lon="-8.69996833">
        <ele>2.0</ele>
        <time>2019-05-16T17:07:57.907Z</time>
      </trkpt>
      <trkpt lat="39.18289333" lon="-8.69996833">
        <ele>2.0</ele>
        <time>2019-05-16T17:07:58.900Z</time>
      </trkpt>
      <trkpt lat="39.18294167" lon="-8.69991833">
        <ele>2.0</ele>
        <time>2019-05-16T17:07:59.907Z</time>
      </trkpt>
      <trkpt lat="39.18294167" lon="-8.69991833">
        <ele>2.0</ele>
        <time>2019-05-16T17:08:00.905Z</time>
      </trkpt>
      <trkpt lat="39.18298833" lon="-8.699875">
        <ele>2.0</ele>
        <time>2019-05-16T17:08:01.927Z</time>
      </trkpt>
      <trkpt lat="39.18301167" lon="-8.69985833">
        <ele>1.0</ele>
        <time>2019-05-16T17:08:02.914Z</time>
      </trkpt>
      <trkpt lat="39.18301167" lon="-8.69985833">
        <ele>1.0</ele>
        <time>2019-05-16T17:08:03.927Z</time>
      </trkpt>
      <trkpt lat="39.183055" lon="-8.69982">
        <ele>2.0</ele>
        <time>2019-05-16T17:08:04.913Z</time>
      </trkpt>
      <trkpt lat="39.183055" lon="-8.69982">
        <ele>2.0</ele>
        <time>2019-05-16T17:08:05.926Z</time>
      </trkpt>
      <trkpt lat="39.183105" lon="-8.69977333">
        <ele>2.0</ele>
        <time>2019-05-16T17:08:06.907Z</time>
      </trkpt>
      <trkpt lat="39.183105" lon="-8.69977333">
        <ele>2.0</ele>
        <time>2019-05-16T17:08:07.919Z</time>
      </trkpt>
      <trkpt lat="39.18315167" lon="-8.69972333">
        <ele>2.0</ele>
        <time>2019-05-16T17:08:08.940Z</time>
      </trkpt>
      <trkpt lat="39.18315167" lon="-8.69972333">
        <ele>2.0</ele>
        <time>2019-05-16T17:08:09.903Z</time>
      </trkpt>
      <trkpt lat="39.18320167" lon="-8.69968">
        <ele>2.0</ele>
        <time>2019-05-16T17:08:10.925Z</time>
      </trkpt>
      <trkpt lat="39.18320167" lon="-8.69968">
        <ele>2.0</ele>
        <time>2019-05-16T17:08:11.913Z</time>
      </trkpt>
      <trkpt lat="39.18324833" lon="-8.69964667">
        <ele>2.0</ele>
        <time>2019-05-16T17:08:12.930Z</time>
      </trkpt>
      <trkpt lat="39.18324833" lon="-8.69964667">
        <ele>2.0</ele>
        <time>2019-05-16T17:08:13.917Z</time>
      </trkpt>
      <trkpt lat="39.183295" lon="-8.69960167">
        <ele>2.0</ele>
        <time>2019-05-16T17:08:14.915Z</time>
      </trkpt>
      <trkpt lat="39.183295" lon="-8.69960167">
        <ele>2.0</ele>
        <time>2019-05-16T17:08:15.913Z</time>
      </trkpt>
      <trkpt lat="39.18334667" lon="-8.699565">
        <ele>2.0</ele>
        <time>2019-05-16T17:08:16.902Z</time>
      </trkpt>
      <trkpt lat="39.18334667" lon="-8.699565">
        <ele>2.0</ele>
        <time>2019-05-16T17:08:17.924Z</time>
      </trkpt>
      <trkpt lat="39.18339667" lon="-8.69952667">
        <ele>2.0</ele>
        <time>2019-05-16T17:08:18.906Z</time>
      </trkpt>
      <trkpt lat="39.18342167" lon="-8.69950667">
        <ele>2.0</ele>
        <time>2019-05-16T17:08:19.907Z</time>
      </trkpt>
      <trkpt lat="39.183445" lon="-8.69948667">
        <ele>2.0</ele>
        <time>2019-05-16T17:08:20.936Z</time>
      </trkpt>
      <trkpt lat="39.183445" lon="-8.69948667">
        <ele>2.0</ele>
        <time>2019-05-16T17:08:21.912Z</time>
      </trkpt>
      <trkpt lat="39.18349667" lon="-8.69945167">
        <ele>2.0</ele>
        <time>2019-05-16T17:08:22.900Z</time>
      </trkpt>
      <trkpt lat="39.18349667" lon="-8.69945167">
        <ele>2.0</ele>
        <time>2019-05-16T17:08:23.901Z</time>
      </trkpt>
      <trkpt lat="39.18354833" lon="-8.69941333">
        <ele>1.0</ele>
        <time>2019-05-16T17:08:24.921Z</time>
      </trkpt>
      <trkpt lat="39.18354833" lon="-8.69941333">
        <ele>1.0</ele>
        <time>2019-05-16T17:08:25.920Z</time>
      </trkpt>
      <trkpt lat="39.18360833" lon="-8.699375">
        <ele>1.0</ele>
        <time>2019-05-16T17:08:26.898Z</time>
      </trkpt>
      <trkpt lat="39.18360833" lon="-8.699375">
        <ele>1.0</ele>
        <time>2019-05-16T17:08:27.903Z</time>
      </trkpt>
      <trkpt lat="39.18366167" lon="-8.69933">
        <ele>1.0</ele>
        <time>2019-05-16T17:08:28.923Z</time>
      </trkpt>
      <trkpt lat="39.18366167" lon="-8.69933">
        <ele>1.0</ele>
        <time>2019-05-16T17:08:29.904Z</time>
      </trkpt>
      <trkpt lat="39.18372333" lon="-8.69928167">
        <ele>1.0</ele>
        <time>2019-05-16T17:08:30.931Z</time>
      </trkpt>
      <trkpt lat="39.18372333" lon="-8.69928167">
        <ele>1.0</ele>
        <time>2019-05-16T17:08:31.899Z</time>
      </trkpt>
      <trkpt lat="39.183785" lon="-8.69924">
        <ele>1.0</ele>
        <time>2019-05-16T17:08:32.919Z</time>
      </trkpt>
      <trkpt lat="39.183785" lon="-8.69924">
        <ele>1.0</ele>
        <time>2019-05-16T17:08:33.934Z</time>
      </trkpt>
      <trkpt lat="39.18384" lon="-8.69920167">
        <ele>1.0</ele>
        <time>2019-05-16T17:08:34.909Z</time>
      </trkpt>
      <trkpt lat="39.18384" lon="-8.69920167">
        <ele>1.0</ele>
        <time>2019-05-16T17:08:35.913Z</time>
      </trkpt>
      <trkpt lat="39.183895" lon="-8.69916833">
        <ele>1.0</ele>
        <time>2019-05-16T17:08:36.902Z</time>
      </trkpt>
      <trkpt lat="39.183895" lon="-8.69916833">
        <ele>1.0</ele>
        <time>2019-05-16T17:08:37.922Z</time>
      </trkpt>
      <trkpt lat="39.18395333" lon="-8.69913333">
        <ele>1.0</ele>
        <time>2019-05-16T17:08:38.935Z</time>
      </trkpt>
      <trkpt lat="39.18395333" lon="-8.69913333">
        <ele>1.0</ele>
        <time>2019-05-16T17:08:39.924Z</time>
      </trkpt>
      <trkpt lat="39.184015" lon="-8.6991">
        <ele>1.0</ele>
        <time>2019-05-16T17:08:40.915Z</time>
      </trkpt>
      <trkpt lat="39.184015" lon="-8.6991">
        <ele>1.0</ele>
        <time>2019-05-16T17:08:41.902Z</time>
      </trkpt>
      <trkpt lat="39.184075" lon="-8.69906333">
        <ele>1.0</ele>
        <time>2019-05-16T17:08:42.938Z</time>
      </trkpt>
      <trkpt lat="39.184075" lon="-8.69906333">
        <ele>1.0</ele>
        <time>2019-05-16T17:08:43.930Z</time>
      </trkpt>
      <trkpt lat="39.18413667" lon="-8.69903833">
        <ele>1.0</ele>
        <time>2019-05-16T17:08:44.910Z</time>
      </trkpt>
      <trkpt lat="39.18413667" lon="-8.69903833">
        <ele>1.0</ele>
        <time>2019-05-16T17:08:45.911Z</time>
      </trkpt>
      <trkpt lat="39.18419167" lon="-8.69900833">
        <ele>1.0</ele>
        <time>2019-05-16T17:08:46.931Z</time>
      </trkpt>
      <trkpt lat="39.18419167" lon="-8.69900833">
        <ele>1.0</ele>
        <time>2019-05-16T17:08:47.925Z</time>
      </trkpt>
      <trkpt lat="39.18424833" lon="-8.69898167">
        <ele>1.0</ele>
        <time>2019-05-16T17:08:48.897Z</time>
      </trkpt>
      <trkpt lat="39.18427833" lon="-8.69896667">
        <ele>1.0</ele>
        <time>2019-05-16T17:08:49.936Z</time>
      </trkpt>
      <trkpt lat="39.18431" lon="-8.69895167">
        <ele>1.0</ele>
        <time>2019-05-16T17:08:50.918Z</time>
      </trkpt>
      <trkpt lat="39.18431" lon="-8.69895167">
        <ele>1.0</ele>
        <time>2019-05-16T17:08:51.926Z</time>
      </trkpt>
      <trkpt lat="39.18437" lon="-8.69892167">
        <ele>1.0</ele>
        <time>2019-05-16T17:08:52.905Z</time>
      </trkpt>
      <trkpt lat="39.18437" lon="-8.69892167">
        <ele>1.0</ele>
        <time>2019-05-16T17:08:53.898Z</time>
      </trkpt>
      <trkpt lat="39.18442667" lon="-8.69888667">
        <ele>2.0</ele>
        <time>2019-05-16T17:08:54.922Z</time>
      </trkpt>
      <trkpt lat="39.18442667" lon="-8.69888667">
        <ele>2.0</ele>
        <time>2019-05-16T17:08:55.897Z</time>
      </trkpt>
      <trkpt lat="39.184485" lon="-8.69886167">
        <ele>2.0</ele>
        <time>2019-05-16T17:08:56.920Z</time>
      </trkpt>
      <trkpt lat="39.184485" lon="-8.69886167">
        <ele>2.0</ele>
        <time>2019-05-16T17:08:57.934Z</time>
      </trkpt>
      <trkpt lat="39.18454" lon="-8.698835">
        <ele>2.0</ele>
        <time>2019-05-16T17:08:58.918Z</time>
      </trkpt>
      <trkpt lat="39.18454" lon="-8.698835">
        <ele>2.0</ele>
        <time>2019-05-16T17:08:59.898Z</time>
      </trkpt>
      <trkpt lat="39.1846" lon="-8.69880833">
        <ele>1.0</ele>
        <time>2019-05-16T17:09:00.916Z</time>
      </trkpt>
      <trkpt lat="39.18462667" lon="-8.698795">
        <ele>2.0</ele>
        <time>2019-05-16T17:09:01.942Z</time>
      </trkpt>
      <trkpt lat="39.184655" lon="-8.69878">
        <ele>2.0</ele>
        <time>2019-05-16T17:09:02.921Z</time>
      </trkpt>
      <trkpt lat="39.184655" lon="-8.69878">
        <ele>2.0</ele>
        <time>2019-05-16T17:09:03.927Z</time>
      </trkpt>
      <trkpt lat="39.18471667" lon="-8.69875">
        <ele>1.0</ele>
        <time>2019-05-16T17:09:04.910Z</time>
      </trkpt>
      <trkpt lat="39.18471667" lon="-8.69875">
        <ele>1.0</ele>
        <time>2019-05-16T17:09:05.913Z</time>
      </trkpt>
      <trkpt lat="39.18477167" lon="-8.69872">
        <ele>2.0</ele>
        <time>2019-05-16T17:09:06.932Z</time>
      </trkpt>
      <trkpt lat="39.18477167" lon="-8.69872">
        <ele>2.0</ele>
        <time>2019-05-16T17:09:07.934Z</time>
      </trkpt>
      <trkpt lat="39.18482833" lon="-8.69869167">
        <ele>2.0</ele>
        <time>2019-05-16T17:09:08.915Z</time>
      </trkpt>
      <trkpt lat="39.18482833" lon="-8.69869167">
        <ele>2.0</ele>
        <time>2019-05-16T17:09:09.931Z</time>
      </trkpt>
      <trkpt lat="39.184885" lon="-8.698665">
        <ele>2.0</ele>
        <time>2019-05-16T17:09:10.916Z</time>
      </trkpt>
      <trkpt lat="39.184885" lon="-8.698665">
        <ele>2.0</ele>
        <time>2019-05-16T17:09:11.936Z</time>
      </trkpt>
      <trkpt lat="39.18493833" lon="-8.69863667">
        <ele>2.0</ele>
        <time>2019-05-16T17:09:12.898Z</time>
      </trkpt>
      <trkpt lat="39.18493833" lon="-8.69863667">
        <ele>2.0</ele>
        <time>2019-05-16T17:09:13.934Z</time>
      </trkpt>
      <trkpt lat="39.18499167" lon="-8.69860667">
        <ele>2.0</ele>
        <time>2019-05-16T17:09:14.933Z</time>
      </trkpt>
      <trkpt lat="39.18499167" lon="-8.69860667">
        <ele>2.0</ele>
        <time>2019-05-16T17:09:15.902Z</time>
      </trkpt>
      <trkpt lat="39.18504833" lon="-8.69857">
        <ele>2.0</ele>
        <time>2019-05-16T17:09:16.920Z</time>
      </trkpt>
      <trkpt lat="39.18507833" lon="-8.69855">
        <ele>2.0</ele>
        <time>2019-05-16T17:09:17.897Z</time>
      </trkpt>
      <trkpt lat="39.18507833" lon="-8.69855">
        <ele>2.0</ele>
        <time>2019-05-16T17:09:18.935Z</time>
      </trkpt>
      <trkpt lat="39.18513333" lon="-8.69851667">
        <ele>2.0</ele>
        <time>2019-05-16T17:09:19.935Z</time>
      </trkpt>
      <trkpt lat="39.18513333" lon="-8.69851667">
        <ele>2.0</ele>
        <time>2019-05-16T17:09:20.936Z</time>
      </trkpt>
      <trkpt lat="39.18519333" lon="-8.69848833">
        <ele>1.0</ele>
        <time>2019-05-16T17:09:21.931Z</time>
      </trkpt>
      <trkpt lat="39.18521833" lon="-8.69847333">
        <ele>1.0</ele>
        <time>2019-05-16T17:09:22.905Z</time>
      </trkpt>
      <trkpt lat="39.18521833" lon="-8.69847333">
        <ele>1.0</ele>
        <time>2019-05-16T17:09:23.908Z</time>
      </trkpt>
      <trkpt lat="39.185275" lon="-8.69844">
        <ele>1.0</ele>
        <time>2019-05-16T17:09:24.898Z</time>
      </trkpt>
      <trkpt lat="39.185275" lon="-8.69844">
        <ele>1.0</ele>
        <time>2019-05-16T17:09:25.934Z</time>
      </trkpt>
      <trkpt lat="39.18533333" lon="-8.69841">
        <ele>1.0</ele>
        <time>2019-05-16T17:09:26.918Z</time>
      </trkpt>
      <trkpt lat="39.18533333" lon="-8.69841">
        <ele>1.0</ele>
        <time>2019-05-16T17:09:27.927Z</time>
      </trkpt>
      <trkpt lat="39.18539167" lon="-8.698375">
        <ele>1.0</ele>
        <time>2019-05-16T17:09:28.901Z</time>
      </trkpt>
      <trkpt lat="39.18539167" lon="-8.698375">
        <ele>1.0</ele>
        <time>2019-05-16T17:09:29.932Z</time>
      </trkpt>
      <trkpt lat="39.18544667" lon="-8.698345">
        <ele>1.0</ele>
        <time>2019-05-16T17:09:30.913Z</time>
      </trkpt>
      <trkpt lat="39.18544667" lon="-8.698345">
        <ele>1.0</ele>
        <time>2019-05-16T17:09:31.900Z</time>
      </trkpt>
      <trkpt lat="39.18550333" lon="-8.698315">
        <ele>1.0</ele>
        <time>2019-05-16T17:09:32.925Z</time>
      </trkpt>
      <trkpt lat="39.18550333" lon="-8.698315">
        <ele>1.0</ele>
        <time>2019-05-16T17:09:33.915Z</time>
      </trkpt>
      <trkpt lat="39.18556" lon="-8.69828167">
        <ele>1.0</ele>
        <time>2019-05-16T17:09:34.935Z</time>
      </trkpt>
      <trkpt lat="39.18556" lon="-8.69828167">
        <ele>1.0</ele>
        <time>2019-05-16T17:09:35.908Z</time>
      </trkpt>
      <trkpt lat="39.18561333" lon="-8.69824667">
        <ele>1.0</ele>
        <time>2019-05-16T17:09:36.900Z</time>
      </trkpt>
      <trkpt lat="39.18561333" lon="-8.69824667">
        <ele>1.0</ele>
        <time>2019-05-16T17:09:37.930Z</time>
      </trkpt>
      <trkpt lat="39.18566833" lon="-8.69821333">
        <ele>1.0</ele>
        <time>2019-05-16T17:09:38.908Z</time>
      </trkpt>
      <trkpt lat="39.18566833" lon="-8.69821333">
        <ele>1.0</ele>
        <time>2019-05-16T17:09:39.933Z</time>
      </trkpt>
      <trkpt lat="39.18572167" lon="-8.69818167">
        <ele>1.0</ele>
        <time>2019-05-16T17:09:40.914Z</time>
      </trkpt>
      <trkpt lat="39.18572167" lon="-8.69818167">
        <ele>1.0</ele>
        <time>2019-05-16T17:09:41.913Z</time>
      </trkpt>
      <trkpt lat="39.18578333" lon="-8.69815167">
        <ele>1.0</ele>
        <time>2019-05-16T17:09:42.931Z</time>
      </trkpt>
      <trkpt lat="39.18578333" lon="-8.69815167">
        <ele>1.0</ele>
        <time>2019-05-16T17:09:43.918Z</time>
      </trkpt>
      <trkpt lat="39.18584333" lon="-8.69812167">
        <ele>1.0</ele>
        <time>2019-05-16T17:09:44.897Z</time>
      </trkpt>
      <trkpt lat="39.18584333" lon="-8.69812167">
        <ele>1.0</ele>
        <time>2019-05-16T17:09:45.902Z</time>
      </trkpt>
      <trkpt lat="39.18589833" lon="-8.69809">
        <ele>1.0</ele>
        <time>2019-05-16T17:09:46.897Z</time>
      </trkpt>
      <trkpt lat="39.18589833" lon="-8.69809">
        <ele>1.0</ele>
        <time>2019-05-16T17:09:47.923Z</time>
      </trkpt>
      <trkpt lat="39.18595667" lon="-8.69805167">
        <ele>1.0</ele>
        <time>2019-05-16T17:09:48.910Z</time>
      </trkpt>
      <trkpt lat="39.18595667" lon="-8.69805167">
        <ele>1.0</ele>
        <time>2019-05-16T17:09:49.911Z</time>
      </trkpt>
      <trkpt lat="39.18600833" lon="-8.69801833">
        <ele>1.0</ele>
        <time>2019-05-16T17:09:50.937Z</time>
      </trkpt>
      <trkpt lat="39.18600833" lon="-8.69801833">
        <ele>1.0</ele>
        <time>2019-05-16T17:09:51.930Z</time>
      </trkpt>
      <trkpt lat="39.18605167" lon="-8.69799">
        <ele>1.0</ele>
        <time>2019-05-16T17:09:52.915Z</time>
      </trkpt>
      <trkpt lat="39.18605167" lon="-8.69799">
        <ele>1.0</ele>
        <time>2019-05-16T17:09:53.924Z</time>
      </trkpt>
      <trkpt lat="39.18609167" lon="-8.69795833">
        <ele>2.0</ele>
        <time>2019-05-16T17:09:54.901Z</time>
      </trkpt>
      <trkpt lat="39.18611667" lon="-8.697945">
        <ele>2.0</ele>
        <time>2019-05-16T17:09:55.911Z</time>
      </trkpt>
      <trkpt lat="39.186145" lon="-8.69793167">
        <ele>2.0</ele>
        <time>2019-05-16T17:09:56.902Z</time>
      </trkpt>
      <trkpt lat="39.186145" lon="-8.69793167">
        <ele>2.0</ele>
        <time>2019-05-16T17:09:57.903Z</time>
      </trkpt>
      <trkpt lat="39.18620333" lon="-8.6979">
        <ele>2.0</ele>
        <time>2019-05-16T17:09:58.923Z</time>
      </trkpt>
      <trkpt lat="39.18623" lon="-8.69788333">
        <ele>2.0</ele>
        <time>2019-05-16T17:09:59.917Z</time>
      </trkpt>
      <trkpt lat="39.18623" lon="-8.69788333">
        <ele>2.0</ele>
        <time>2019-05-16T17:10:00.933Z</time>
      </trkpt>
      <trkpt lat="39.18628333" lon="-8.697855">
        <ele>2.0</ele>
        <time>2019-05-16T17:10:01.917Z</time>
      </trkpt>
      <trkpt lat="39.18631" lon="-8.69784">
        <ele>2.0</ele>
        <time>2019-05-16T17:10:02.922Z</time>
      </trkpt>
      <trkpt lat="39.18631" lon="-8.69784">
        <ele>2.0</ele>
        <time>2019-05-16T17:10:03.903Z</time>
      </trkpt>
      <trkpt lat="39.18636667" lon="-8.69781">
        <ele>2.0</ele>
        <time>2019-05-16T17:10:04.917Z</time>
      </trkpt>
      <trkpt lat="39.18636667" lon="-8.69781">
        <ele>2.0</ele>
        <time>2019-05-16T17:10:05.924Z</time>
      </trkpt>
      <trkpt lat="39.18642667" lon="-8.69778">
        <ele>2.0</ele>
        <time>2019-05-16T17:10:06.913Z</time>
      </trkpt>
      <trkpt lat="39.18642667" lon="-8.69778">
        <ele>2.0</ele>
        <time>2019-05-16T17:10:07.917Z</time>
      </trkpt>
      <trkpt lat="39.186485" lon="-8.69774667">
        <ele>2.0</ele>
        <time>2019-05-16T17:10:08.919Z</time>
      </trkpt>
      <trkpt lat="39.186485" lon="-8.69774667">
        <ele>2.0</ele>
        <time>2019-05-16T17:10:09.924Z</time>
      </trkpt>
      <trkpt lat="39.18654333" lon="-8.69771667">
        <ele>2.0</ele>
        <time>2019-05-16T17:10:10.911Z</time>
      </trkpt>
      <trkpt lat="39.18654333" lon="-8.69771667">
        <ele>2.0</ele>
        <time>2019-05-16T17:10:11.927Z</time>
      </trkpt>
      <trkpt lat="39.18659833" lon="-8.697685">
        <ele>2.0</ele>
        <time>2019-05-16T17:10:12.907Z</time>
      </trkpt>
      <trkpt lat="39.18659833" lon="-8.697685">
        <ele>2.0</ele>
        <time>2019-05-16T17:10:13.898Z</time>
      </trkpt>
      <trkpt lat="39.18665333" lon="-8.69765333">
        <ele>2.0</ele>
        <time>2019-05-16T17:10:14.915Z</time>
      </trkpt>
      <trkpt lat="39.18665333" lon="-8.69765333">
        <ele>2.0</ele>
        <time>2019-05-16T17:10:15.902Z</time>
      </trkpt>
      <trkpt lat="39.18671" lon="-8.69762167">
        <ele>2.0</ele>
        <time>2019-05-16T17:10:16.923Z</time>
      </trkpt>
      <trkpt lat="39.18671" lon="-8.69762167">
        <ele>2.0</ele>
        <time>2019-05-16T17:10:17.903Z</time>
      </trkpt>
      <trkpt lat="39.18676667" lon="-8.69758833">
        <ele>2.0</ele>
        <time>2019-05-16T17:10:18.905Z</time>
      </trkpt>
      <trkpt lat="39.18676667" lon="-8.69758833">
        <ele>2.0</ele>
        <time>2019-05-16T17:10:19.903Z</time>
      </trkpt>
      <trkpt lat="39.18682167" lon="-8.69755333">
        <ele>2.0</ele>
        <time>2019-05-16T17:10:20.921Z</time>
      </trkpt>
      <trkpt lat="39.18682167" lon="-8.69755333">
        <ele>2.0</ele>
        <time>2019-05-16T17:10:21.913Z</time>
      </trkpt>
      <trkpt lat="39.18687667" lon="-8.69752167">
        <ele>2.0</ele>
        <time>2019-05-16T17:10:22.940Z</time>
      </trkpt>
      <trkpt lat="39.18687667" lon="-8.69752167">
        <ele>2.0</ele>
        <time>2019-05-16T17:10:23.912Z</time>
      </trkpt>
      <trkpt lat="39.18692667" lon="-8.69749333">
        <ele>3.0</ele>
        <time>2019-05-16T17:10:24.901Z</time>
      </trkpt>
      <trkpt lat="39.18692667" lon="-8.69749333">
        <ele>3.0</ele>
        <time>2019-05-16T17:10:25.934Z</time>
      </trkpt>
      <trkpt lat="39.18697667" lon="-8.69746333">
        <ele>3.0</ele>
        <time>2019-05-16T17:10:26.912Z</time>
      </trkpt>
      <trkpt lat="39.18697667" lon="-8.69746333">
        <ele>3.0</ele>
        <time>2019-05-16T17:10:27.913Z</time>
      </trkpt>
      <trkpt lat="39.18703" lon="-8.697425">
        <ele>3.0</ele>
        <time>2019-05-16T17:10:28.933Z</time>
      </trkpt>
      <trkpt lat="39.18703" lon="-8.697425">
        <ele>3.0</ele>
        <time>2019-05-16T17:10:29.913Z</time>
      </trkpt>
      <trkpt lat="39.18708167" lon="-8.69739333">
        <ele>2.0</ele>
        <time>2019-05-16T17:10:30.935Z</time>
      </trkpt>
      <trkpt lat="39.18710667" lon="-8.697375">
        <ele>3.0</ele>
        <time>2019-05-16T17:10:31.938Z</time>
      </trkpt>
      <trkpt lat="39.187135" lon="-8.69735667">
        <ele>3.0</ele>
        <time>2019-05-16T17:10:32.910Z</time>
      </trkpt>
      <trkpt lat="39.187135" lon="-8.69735667">
        <ele>3.0</ele>
        <time>2019-05-16T17:10:33.921Z</time>
      </trkpt>
      <trkpt lat="39.18718667" lon="-8.69732667">
        <ele>3.0</ele>
        <time>2019-05-16T17:10:34.910Z</time>
      </trkpt>
      <trkpt lat="39.18718667" lon="-8.69732667">
        <ele>3.0</ele>
        <time>2019-05-16T17:10:35.897Z</time>
      </trkpt>
      <trkpt lat="39.18724" lon="-8.6973">
        <ele>3.0</ele>
        <time>2019-05-16T17:10:36.926Z</time>
      </trkpt>
      <trkpt lat="39.18724" lon="-8.6973">
        <ele>3.0</ele>
        <time>2019-05-16T17:10:37.921Z</time>
      </trkpt>
      <trkpt lat="39.187295" lon="-8.69727333">
        <ele>3.0</ele>
        <time>2019-05-16T17:10:38.901Z</time>
      </trkpt>
      <trkpt lat="39.187295" lon="-8.69727333">
        <ele>3.0</ele>
        <time>2019-05-16T17:10:39.923Z</time>
      </trkpt>
      <trkpt lat="39.187355" lon="-8.69723833">
        <ele>3.0</ele>
        <time>2019-05-16T17:10:40.899Z</time>
      </trkpt>
      <trkpt lat="39.187355" lon="-8.69723833">
        <ele>3.0</ele>
        <time>2019-05-16T17:10:41.923Z</time>
      </trkpt>
      <trkpt lat="39.18741167" lon="-8.69719833">
        <ele>3.0</ele>
        <time>2019-05-16T17:10:42.911Z</time>
      </trkpt>
      <trkpt lat="39.18741167" lon="-8.69719833">
        <ele>3.0</ele>
        <time>2019-05-16T17:10:43.907Z</time>
      </trkpt>
      <trkpt lat="39.187465" lon="-8.69716167">
        <ele>3.0</ele>
        <time>2019-05-16T17:10:44.931Z</time>
      </trkpt>
      <trkpt lat="39.187465" lon="-8.69716167">
        <ele>3.0</ele>
        <time>2019-05-16T17:10:45.923Z</time>
      </trkpt>
      <trkpt lat="39.187525" lon="-8.69712333">
        <ele>3.0</ele>
        <time>2019-05-16T17:10:46.906Z</time>
      </trkpt>
      <trkpt lat="39.187525" lon="-8.69712333">
        <ele>3.0</ele>
        <time>2019-05-16T17:10:47.923Z</time>
      </trkpt>
      <trkpt lat="39.18758167" lon="-8.69708">
        <ele>3.0</ele>
        <time>2019-05-16T17:10:48.905Z</time>
      </trkpt>
      <trkpt lat="39.18758167" lon="-8.69708">
        <ele>3.0</ele>
        <time>2019-05-16T17:10:49.928Z</time>
      </trkpt>
      <trkpt lat="39.187635" lon="-8.697035">
        <ele>2.0</ele>
        <time>2019-05-16T17:10:50.908Z</time>
      </trkpt>
      <trkpt lat="39.187635" lon="-8.697035">
        <ele>2.0</ele>
        <time>2019-05-16T17:10:51.936Z</time>
      </trkpt>
      <trkpt lat="39.18769" lon="-8.69699167">
        <ele>2.0</ele>
        <time>2019-05-16T17:10:52.937Z</time>
      </trkpt>
      <trkpt lat="39.18769" lon="-8.69699167">
        <ele>2.0</ele>
        <time>2019-05-16T17:10:53.913Z</time>
      </trkpt>
      <trkpt lat="39.18774333" lon="-8.69694667">
        <ele>2.0</ele>
        <time>2019-05-16T17:10:54.937Z</time>
      </trkpt>
      <trkpt lat="39.18774333" lon="-8.69694667">
        <ele>2.0</ele>
        <time>2019-05-16T17:10:55.932Z</time>
      </trkpt>
      <trkpt lat="39.18779833" lon="-8.69690167">
        <ele>2.0</ele>
        <time>2019-05-16T17:10:56.899Z</time>
      </trkpt>
      <trkpt lat="39.18779833" lon="-8.69690167">
        <ele>2.0</ele>
        <time>2019-05-16T17:10:57.930Z</time>
      </trkpt>
      <trkpt lat="39.18785333" lon="-8.69686">
        <ele>2.0</ele>
        <time>2019-05-16T17:10:58.916Z</time>
      </trkpt>
      <trkpt lat="39.18785333" lon="-8.69686">
        <ele>2.0</ele>
        <time>2019-05-16T17:10:59.926Z</time>
      </trkpt>
      <trkpt lat="39.18790833" lon="-8.69681167">
        <ele>2.0</ele>
        <time>2019-05-16T17:11:00.935Z</time>
      </trkpt>
      <trkpt lat="39.18790833" lon="-8.69681167">
        <ele>2.0</ele>
        <time>2019-05-16T17:11:01.919Z</time>
      </trkpt>
      <trkpt lat="39.18796333" lon="-8.69676667">
        <ele>2.0</ele>
        <time>2019-05-16T17:11:02.901Z</time>
      </trkpt>
      <trkpt lat="39.18796333" lon="-8.69676667">
        <ele>2.0</ele>
        <time>2019-05-16T17:11:03.910Z</time>
      </trkpt>
      <trkpt lat="39.188015" lon="-8.69672833">
        <ele>2.0</ele>
        <time>2019-05-16T17:11:04.933Z</time>
      </trkpt>
      <trkpt lat="39.188015" lon="-8.69672833">
        <ele>2.0</ele>
        <time>2019-05-16T17:11:05.910Z</time>
      </trkpt>
      <trkpt lat="39.18806167" lon="-8.69669">
        <ele>2.0</ele>
        <time>2019-05-16T17:11:06.935Z</time>
      </trkpt>
      <trkpt lat="39.18806167" lon="-8.69669">
        <ele>2.0</ele>
        <time>2019-05-16T17:11:07.898Z</time>
      </trkpt>
      <trkpt lat="39.18811333" lon="-8.696655">
        <ele>2.0</ele>
        <time>2019-05-16T17:11:08.916Z</time>
      </trkpt>
      <trkpt lat="39.18811333" lon="-8.696655">
        <ele>2.0</ele>
        <time>2019-05-16T17:11:09.913Z</time>
      </trkpt>
      <trkpt lat="39.18816833" lon="-8.696615">
        <ele>2.0</ele>
        <time>2019-05-16T17:11:10.932Z</time>
      </trkpt>
      <trkpt lat="39.18816833" lon="-8.696615">
        <ele>2.0</ele>
        <time>2019-05-16T17:11:11.914Z</time>
      </trkpt>
      <trkpt lat="39.188215" lon="-8.69658">
        <ele>2.0</ele>
        <time>2019-05-16T17:11:12.930Z</time>
      </trkpt>
      <trkpt lat="39.188215" lon="-8.69658">
        <ele>2.0</ele>
        <time>2019-05-16T17:11:13.936Z</time>
      </trkpt>
      <trkpt lat="39.18826333" lon="-8.69654833">
        <ele>2.0</ele>
        <time>2019-05-16T17:11:14.912Z</time>
      </trkpt>
      <trkpt lat="39.18826333" lon="-8.69654833">
        <ele>2.0</ele>
        <time>2019-05-16T17:11:15.932Z</time>
      </trkpt>
      <trkpt lat="39.18831167" lon="-8.696515">
        <ele>2.0</ele>
        <time>2019-05-16T17:11:16.921Z</time>
      </trkpt>
      <trkpt lat="39.18831167" lon="-8.696515">
        <ele>2.0</ele>
        <time>2019-05-16T17:11:17.923Z</time>
      </trkpt>
      <trkpt lat="39.188365" lon="-8.69648833">
        <ele>2.0</ele>
        <time>2019-05-16T17:11:18.906Z</time>
      </trkpt>
      <trkpt lat="39.188365" lon="-8.69648833">
        <ele>2.0</ele>
        <time>2019-05-16T17:11:19.923Z</time>
      </trkpt>
      <trkpt lat="39.18842" lon="-8.69646167">
        <ele>2.0</ele>
        <time>2019-05-16T17:11:20.940Z</time>
      </trkpt>
      <trkpt lat="39.18842" lon="-8.69646167">
        <ele>2.0</ele>
        <time>2019-05-16T17:11:21.908Z</time>
      </trkpt>
      <trkpt lat="39.188475" lon="-8.69644">
        <ele>2.0</ele>
        <time>2019-05-16T17:11:22.932Z</time>
      </trkpt>
      <trkpt lat="39.188475" lon="-8.69644">
        <ele>2.0</ele>
        <time>2019-05-16T17:11:23.923Z</time>
      </trkpt>
      <trkpt lat="39.188535" lon="-8.69642167">
        <ele>2.0</ele>
        <time>2019-05-16T17:11:24.922Z</time>
      </trkpt>
      <trkpt lat="39.188535" lon="-8.69642167">
        <ele>2.0</ele>
        <time>2019-05-16T17:11:25.903Z</time>
      </trkpt>
      <trkpt lat="39.18859167" lon="-8.696405">
        <ele>2.0</ele>
        <time>2019-05-16T17:11:26.926Z</time>
      </trkpt>
      <trkpt lat="39.18859167" lon="-8.696405">
        <ele>2.0</ele>
        <time>2019-05-16T17:11:27.903Z</time>
      </trkpt>
      <trkpt lat="39.18864667" lon="-8.69639167">
        <ele>2.0</ele>
        <time>2019-05-16T17:11:28.926Z</time>
      </trkpt>
      <trkpt lat="39.18864667" lon="-8.69639167">
        <ele>2.0</ele>
        <time>2019-05-16T17:11:29.907Z</time>
      </trkpt>
      <trkpt lat="39.18870167" lon="-8.696385">
        <ele>2.0</ele>
        <time>2019-05-16T17:11:30.906Z</time>
      </trkpt>
      <trkpt lat="39.18870167" lon="-8.696385">
        <ele>2.0</ele>
        <time>2019-05-16T17:11:31.926Z</time>
      </trkpt>
      <trkpt lat="39.18875833" lon="-8.69636833">
        <ele>2.0</ele>
        <time>2019-05-16T17:11:32.907Z</time>
      </trkpt>
      <trkpt lat="39.18875833" lon="-8.69636833">
        <ele>2.0</ele>
        <time>2019-05-16T17:11:33.912Z</time>
      </trkpt>
      <trkpt lat="39.18881167" lon="-8.69635167">
        <ele>2.0</ele>
        <time>2019-05-16T17:11:34.942Z</time>
      </trkpt>
      <trkpt lat="39.18881167" lon="-8.69635167">
        <ele>2.0</ele>
        <time>2019-05-16T17:11:35.912Z</time>
      </trkpt>
      <trkpt lat="39.18887" lon="-8.69633333">
        <ele>2.0</ele>
        <time>2019-05-16T17:11:36.936Z</time>
      </trkpt>
      <trkpt lat="39.18889833" lon="-8.69632833">
        <ele>2.0</ele>
        <time>2019-05-16T17:11:37.908Z</time>
      </trkpt>
      <trkpt lat="39.18892833" lon="-8.69632">
        <ele>2.0</ele>
        <time>2019-05-16T17:11:38.901Z</time>
      </trkpt>
      <trkpt lat="39.18892833" lon="-8.69632">
        <ele>2.0</ele>
        <time>2019-05-16T17:11:39.928Z</time>
      </trkpt>
      <trkpt lat="39.18898333" lon="-8.69630333">
        <ele>2.0</ele>
        <time>2019-05-16T17:11:40.918Z</time>
      </trkpt>
      <trkpt lat="39.18898333" lon="-8.69630333">
        <ele>2.0</ele>
        <time>2019-05-16T17:11:41.900Z</time>
      </trkpt>
      <trkpt lat="39.189035" lon="-8.69628667">
        <ele>2.0</ele>
        <time>2019-05-16T17:11:42.928Z</time>
      </trkpt>
      <trkpt lat="39.189035" lon="-8.69628667">
        <ele>2.0</ele>
        <time>2019-05-16T17:11:43.919Z</time>
      </trkpt>
      <trkpt lat="39.18908667" lon="-8.69626833">
        <ele>1.0</ele>
        <time>2019-05-16T17:11:44.897Z</time>
      </trkpt>
      <trkpt lat="39.18908667" lon="-8.69626833">
        <ele>1.0</ele>
        <time>2019-05-16T17:11:45.905Z</time>
      </trkpt>
      <trkpt lat="39.18914167" lon="-8.69625">
        <ele>1.0</ele>
        <time>2019-05-16T17:11:46.925Z</time>
      </trkpt>
      <trkpt lat="39.18914167" lon="-8.69625">
        <ele>1.0</ele>
        <time>2019-05-16T17:11:47.903Z</time>
      </trkpt>
      <trkpt lat="39.18919667" lon="-8.69623333">
        <ele>1.0</ele>
        <time>2019-05-16T17:11:48.930Z</time>
      </trkpt>
      <trkpt lat="39.18919667" lon="-8.69623333">
        <ele>1.0</ele>
        <time>2019-05-16T17:11:49.900Z</time>
      </trkpt>
      <trkpt lat="39.189255" lon="-8.69622">
        <ele>1.0</ele>
        <time>2019-05-16T17:11:50.942Z</time>
      </trkpt>
      <trkpt lat="39.189255" lon="-8.69622">
        <ele>1.0</ele>
        <time>2019-05-16T17:11:51.907Z</time>
      </trkpt>
      <trkpt lat="39.189315" lon="-8.69620333">
        <ele>1.0</ele>
        <time>2019-05-16T17:11:52.931Z</time>
      </trkpt>
      <trkpt lat="39.189315" lon="-8.69620333">
        <ele>1.0</ele>
        <time>2019-05-16T17:11:53.912Z</time>
      </trkpt>
      <trkpt lat="39.18937333" lon="-8.69618833">
        <ele>1.0</ele>
        <time>2019-05-16T17:11:54.927Z</time>
      </trkpt>
      <trkpt lat="39.18937333" lon="-8.69618833">
        <ele>1.0</ele>
        <time>2019-05-16T17:11:55.913Z</time>
      </trkpt>
      <trkpt lat="39.18943167" lon="-8.69617333">
        <ele>1.0</ele>
        <time>2019-05-16T17:11:56.934Z</time>
      </trkpt>
      <trkpt lat="39.18943167" lon="-8.69617333">
        <ele>1.0</ele>
        <time>2019-05-16T17:11:57.906Z</time>
      </trkpt>
      <trkpt lat="39.18949167" lon="-8.69616167">
        <ele>1.0</ele>
        <time>2019-05-16T17:11:58.936Z</time>
      </trkpt>
      <trkpt lat="39.18949167" lon="-8.69616167">
        <ele>1.0</ele>
        <time>2019-05-16T17:11:59.897Z</time>
      </trkpt>
      <trkpt lat="39.18955333" lon="-8.69614833">
        <ele>1.0</ele>
        <time>2019-05-16T17:12:00.915Z</time>
      </trkpt>
      <trkpt lat="39.18955333" lon="-8.69614833">
        <ele>1.0</ele>
        <time>2019-05-16T17:12:01.913Z</time>
      </trkpt>
      <trkpt lat="39.18961" lon="-8.69612667">
        <ele>1.0</ele>
        <time>2019-05-16T17:12:02.937Z</time>
      </trkpt>
      <trkpt lat="39.18961" lon="-8.69612667">
        <ele>1.0</ele>
        <time>2019-05-16T17:12:03.911Z</time>
      </trkpt>
      <trkpt lat="39.189665" lon="-8.696105">
        <ele>1.0</ele>
        <time>2019-05-16T17:12:04.937Z</time>
      </trkpt>
      <trkpt lat="39.189665" lon="-8.696105">
        <ele>1.0</ele>
        <time>2019-05-16T17:12:05.934Z</time>
      </trkpt>
      <trkpt lat="39.18971833" lon="-8.69607833">
        <ele>1.0</ele>
        <time>2019-05-16T17:12:06.914Z</time>
      </trkpt>
      <trkpt lat="39.18971833" lon="-8.69607833">
        <ele>1.0</ele>
        <time>2019-05-16T17:12:07.930Z</time>
      </trkpt>
      <trkpt lat="39.189775" lon="-8.69605333">
        <ele>1.0</ele>
        <time>2019-05-16T17:12:08.916Z</time>
      </trkpt>
      <trkpt lat="39.189775" lon="-8.69605333">
        <ele>1.0</ele>
        <time>2019-05-16T17:12:09.934Z</time>
      </trkpt>
      <trkpt lat="39.18983167" lon="-8.69602667">
        <ele>1.0</ele>
        <time>2019-05-16T17:12:10.911Z</time>
      </trkpt>
      <trkpt lat="39.18986167" lon="-8.696015">
        <ele>1.0</ele>
        <time>2019-05-16T17:12:11.925Z</time>
      </trkpt>
      <trkpt lat="39.18986167" lon="-8.696015">
        <ele>1.0</ele>
        <time>2019-05-16T17:12:12.901Z</time>
      </trkpt>
      <trkpt lat="39.18992167" lon="-8.69598333">
        <ele>1.0</ele>
        <time>2019-05-16T17:12:13.920Z</time>
      </trkpt>
      <trkpt lat="39.18995167" lon="-8.69596833">
        <ele>1.0</ele>
        <time>2019-05-16T17:12:14.930Z</time>
      </trkpt>
      <trkpt lat="39.18995167" lon="-8.69596833">
        <ele>1.0</ele>
        <time>2019-05-16T17:12:15.913Z</time>
      </trkpt>
      <trkpt lat="39.19001167" lon="-8.69593667">
        <ele>1.0</ele>
        <time>2019-05-16T17:12:16.931Z</time>
      </trkpt>
      <trkpt lat="39.19001167" lon="-8.69593667">
        <ele>1.0</ele>
        <time>2019-05-16T17:12:17.904Z</time>
      </trkpt>
      <trkpt lat="39.19007167" lon="-8.69590167">
        <ele>1.0</ele>
        <time>2019-05-16T17:12:18.918Z</time>
      </trkpt>
      <trkpt lat="39.19007167" lon="-8.69590167">
        <ele>1.0</ele>
        <time>2019-05-16T17:12:19.903Z</time>
      </trkpt>
      <trkpt lat="39.19012833" lon="-8.69587167">
        <ele>1.0</ele>
        <time>2019-05-16T17:12:20.942Z</time>
      </trkpt>
      <trkpt lat="39.19012833" lon="-8.69587167">
        <ele>1.0</ele>
        <time>2019-05-16T17:12:21.924Z</time>
      </trkpt>
      <trkpt lat="39.19017833" lon="-8.69583833">
        <ele>1.0</ele>
        <time>2019-05-16T17:12:22.923Z</time>
      </trkpt>
      <trkpt lat="39.19017833" lon="-8.69583833">
        <ele>1.0</ele>
        <time>2019-05-16T17:12:23.902Z</time>
      </trkpt>
      <trkpt lat="39.19023333" lon="-8.69581">
        <ele>1.0</ele>
        <time>2019-05-16T17:12:24.934Z</time>
      </trkpt>
      <trkpt lat="39.19023333" lon="-8.69581">
        <ele>1.0</ele>
        <time>2019-05-16T17:12:25.923Z</time>
      </trkpt>
      <trkpt lat="39.19029167" lon="-8.69578167">
        <ele>1.0</ele>
        <time>2019-05-16T17:12:26.904Z</time>
      </trkpt>
      <trkpt lat="39.19029167" lon="-8.69578167">
        <ele>1.0</ele>
        <time>2019-05-16T17:12:27.913Z</time>
      </trkpt>
      <trkpt lat="39.19034833" lon="-8.69575333">
        <ele>1.0</ele>
        <time>2019-05-16T17:12:28.938Z</time>
      </trkpt>
      <trkpt lat="39.19037667" lon="-8.69573667">
        <ele>1.0</ele>
        <time>2019-05-16T17:12:29.921Z</time>
      </trkpt>
      <trkpt lat="39.19037667" lon="-8.69573667">
        <ele>1.0</ele>
        <time>2019-05-16T17:12:30.913Z</time>
      </trkpt>
      <trkpt lat="39.19043167" lon="-8.69571">
        <ele>1.0</ele>
        <time>2019-05-16T17:12:31.935Z</time>
      </trkpt>
      <trkpt lat="39.19045833" lon="-8.69569333">
        <ele>1.0</ele>
        <time>2019-05-16T17:12:32.931Z</time>
      </trkpt>
      <trkpt lat="39.19045833" lon="-8.69569333">
        <ele>1.0</ele>
        <time>2019-05-16T17:12:33.909Z</time>
      </trkpt>
      <trkpt lat="39.19051667" lon="-8.69566">
        <ele>1.0</ele>
        <time>2019-05-16T17:12:34.921Z</time>
      </trkpt>
      <trkpt lat="39.19051667" lon="-8.69566">
        <ele>1.0</ele>
        <time>2019-05-16T17:12:35.900Z</time>
      </trkpt>
      <trkpt lat="39.19057333" lon="-8.69562667">
        <ele>1.0</ele>
        <time>2019-05-16T17:12:36.914Z</time>
      </trkpt>
      <trkpt lat="39.19057333" lon="-8.69562667">
        <ele>1.0</ele>
        <time>2019-05-16T17:12:37.903Z</time>
      </trkpt>
      <trkpt lat="39.19062833" lon="-8.69559667">
        <ele>1.0</ele>
        <time>2019-05-16T17:12:38.919Z</time>
      </trkpt>
      <trkpt lat="39.19062833" lon="-8.69559667">
        <ele>1.0</ele>
        <time>2019-05-16T17:12:39.913Z</time>
      </trkpt>
      <trkpt lat="39.19068333" lon="-8.69556667">
        <ele>1.0</ele>
        <time>2019-05-16T17:12:40.897Z</time>
      </trkpt>
      <trkpt lat="39.19068333" lon="-8.69556667">
        <ele>1.0</ele>
        <time>2019-05-16T17:12:41.902Z</time>
      </trkpt>
      <trkpt lat="39.19073667" lon="-8.69553667">
        <ele>1.0</ele>
        <time>2019-05-16T17:12:42.936Z</time>
      </trkpt>
      <trkpt lat="39.19073667" lon="-8.69553667">
        <ele>1.0</ele>
        <time>2019-05-16T17:12:43.913Z</time>
      </trkpt>
      <trkpt lat="39.19078833" lon="-8.695505">
        <ele>2.0</ele>
        <time>2019-05-16T17:12:44.901Z</time>
      </trkpt>
      <trkpt lat="39.19078833" lon="-8.695505">
        <ele>2.0</ele>
        <time>2019-05-16T17:12:45.923Z</time>
      </trkpt>
      <trkpt lat="39.19083667" lon="-8.69547333">
        <ele>2.0</ele>
        <time>2019-05-16T17:12:46.918Z</time>
      </trkpt>
      <trkpt lat="39.19083667" lon="-8.69547333">
        <ele>2.0</ele>
        <time>2019-05-16T17:12:47.913Z</time>
      </trkpt>
      <trkpt lat="39.19089167" lon="-8.69544333">
        <ele>2.0</ele>
        <time>2019-05-16T17:12:48.932Z</time>
      </trkpt>
      <trkpt lat="39.19089167" lon="-8.69544333">
        <ele>2.0</ele>
        <time>2019-05-16T17:12:49.914Z</time>
      </trkpt>
      <trkpt lat="39.19094667" lon="-8.69541">
        <ele>2.0</ele>
        <time>2019-05-16T17:12:50.933Z</time>
      </trkpt>
      <trkpt lat="39.19094667" lon="-8.69541">
        <ele>2.0</ele>
        <time>2019-05-16T17:12:51.913Z</time>
      </trkpt>
      <trkpt lat="39.19099667" lon="-8.69537167">
        <ele>2.0</ele>
        <time>2019-05-16T17:12:52.933Z</time>
      </trkpt>
      <trkpt lat="39.19099667" lon="-8.69537167">
        <ele>2.0</ele>
        <time>2019-05-16T17:12:53.927Z</time>
      </trkpt>
      <trkpt lat="39.19105167" lon="-8.69534">
        <ele>2.0</ele>
        <time>2019-05-16T17:12:54.919Z</time>
      </trkpt>
      <trkpt lat="39.19105167" lon="-8.69534">
        <ele>2.0</ele>
        <time>2019-05-16T17:12:55.907Z</time>
      </trkpt>
      <trkpt lat="39.19110833" lon="-8.69531167">
        <ele>1.0</ele>
        <time>2019-05-16T17:12:56.952Z</time>
      </trkpt>
      <trkpt lat="39.19110833" lon="-8.69531167">
        <ele>1.0</ele>
        <time>2019-05-16T17:12:57.933Z</time>
      </trkpt>
      <trkpt lat="39.191165" lon="-8.69528167">
        <ele>2.0</ele>
        <time>2019-05-16T17:12:58.913Z</time>
      </trkpt>
      <trkpt lat="39.191165" lon="-8.69528167">
        <ele>2.0</ele>
        <time>2019-05-16T17:12:59.903Z</time>
      </trkpt>
      <trkpt lat="39.19122" lon="-8.69525">
        <ele>1.0</ele>
        <time>2019-05-16T17:13:00.922Z</time>
      </trkpt>
      <trkpt lat="39.19122" lon="-8.69525">
        <ele>1.0</ele>
        <time>2019-05-16T17:13:01.923Z</time>
      </trkpt>
      <trkpt lat="39.19127167" lon="-8.69522167">
        <ele>1.0</ele>
        <time>2019-05-16T17:13:02.939Z</time>
      </trkpt>
      <trkpt lat="39.1913" lon="-8.69521">
        <ele>1.0</ele>
        <time>2019-05-16T17:13:03.900Z</time>
      </trkpt>
      <trkpt lat="39.1913" lon="-8.69521">
        <ele>1.0</ele>
        <time>2019-05-16T17:13:04.900Z</time>
      </trkpt>
      <trkpt lat="39.191355" lon="-8.695185">
        <ele>1.0</ele>
        <time>2019-05-16T17:13:05.934Z</time>
      </trkpt>
      <trkpt lat="39.191355" lon="-8.695185">
        <ele>1.0</ele>
        <time>2019-05-16T17:13:06.916Z</time>
      </trkpt>
      <trkpt lat="39.19140833" lon="-8.69516167">
        <ele>1.0</ele>
        <time>2019-05-16T17:13:07.933Z</time>
      </trkpt>
      <trkpt lat="39.19143667" lon="-8.69514833">
        <ele>1.0</ele>
        <time>2019-05-16T17:13:08.920Z</time>
      </trkpt>
      <trkpt lat="39.19143667" lon="-8.69514833">
        <ele>1.0</ele>
        <time>2019-05-16T17:13:09.923Z</time>
      </trkpt>
      <trkpt lat="39.19149333" lon="-8.69512">
        <ele>2.0</ele>
        <time>2019-05-16T17:13:10.915Z</time>
      </trkpt>
      <trkpt lat="39.19149333" lon="-8.69512">
        <ele>2.0</ele>
        <time>2019-05-16T17:13:11.897Z</time>
      </trkpt>
      <trkpt lat="39.19155" lon="-8.695095">
        <ele>1.0</ele>
        <time>2019-05-16T17:13:12.917Z</time>
      </trkpt>
      <trkpt lat="39.19155" lon="-8.695095">
        <ele>1.0</ele>
        <time>2019-05-16T17:13:13.921Z</time>
      </trkpt>
      <trkpt lat="39.191605" lon="-8.69507">
        <ele>1.0</ele>
        <time>2019-05-16T17:13:14.898Z</time>
      </trkpt>
      <trkpt lat="39.191605" lon="-8.69507">
        <ele>1.0</ele>
        <time>2019-05-16T17:13:15.899Z</time>
      </trkpt>
      <trkpt lat="39.19166333" lon="-8.69504667">
        <ele>2.0</ele>
        <time>2019-05-16T17:13:16.915Z</time>
      </trkpt>
      <trkpt lat="39.19166333" lon="-8.69504667">
        <ele>2.0</ele>
        <time>2019-05-16T17:13:17.911Z</time>
      </trkpt>
      <trkpt lat="39.19172" lon="-8.69502333">
        <ele>1.0</ele>
        <time>2019-05-16T17:13:18.902Z</time>
      </trkpt>
      <trkpt lat="39.19172" lon="-8.69502333">
        <ele>1.0</ele>
        <time>2019-05-16T17:13:19.898Z</time>
      </trkpt>
      <trkpt lat="39.191775" lon="-8.69500333">
        <ele>2.0</ele>
        <time>2019-05-16T17:13:20.970Z</time>
      </trkpt>
      <trkpt lat="39.191775" lon="-8.69500333">
        <ele>2.0</ele>
        <time>2019-05-16T17:13:21.898Z</time>
      </trkpt>
      <trkpt lat="39.19182667" lon="-8.69498">
        <ele>2.0</ele>
        <time>2019-05-16T17:13:22.922Z</time>
      </trkpt>
      <trkpt lat="39.19182667" lon="-8.69498">
        <ele>2.0</ele>
        <time>2019-05-16T17:13:23.917Z</time>
      </trkpt>
      <trkpt lat="39.19187833" lon="-8.69496">
        <ele>2.0</ele>
        <time>2019-05-16T17:13:24.936Z</time>
      </trkpt>
      <trkpt lat="39.19187833" lon="-8.69496">
        <ele>2.0</ele>
        <time>2019-05-16T17:13:25.934Z</time>
      </trkpt>
      <trkpt lat="39.19192667" lon="-8.69493667">
        <ele>2.0</ele>
        <time>2019-05-16T17:13:26.919Z</time>
      </trkpt>
      <trkpt lat="39.19192667" lon="-8.69493667">
        <ele>2.0</ele>
        <time>2019-05-16T17:13:27.930Z</time>
      </trkpt>
      <trkpt lat="39.19198" lon="-8.69491">
        <ele>2.0</ele>
        <time>2019-05-16T17:13:28.910Z</time>
      </trkpt>
      <trkpt lat="39.19198" lon="-8.69491">
        <ele>2.0</ele>
        <time>2019-05-16T17:13:29.934Z</time>
      </trkpt>
      <trkpt lat="39.19202833" lon="-8.694875">
        <ele>2.0</ele>
        <time>2019-05-16T17:13:30.920Z</time>
      </trkpt>
      <trkpt lat="39.19202833" lon="-8.694875">
        <ele>2.0</ele>
        <time>2019-05-16T17:13:31.913Z</time>
      </trkpt>
      <trkpt lat="39.19207667" lon="-8.69484167">
        <ele>2.0</ele>
        <time>2019-05-16T17:13:32.932Z</time>
      </trkpt>
      <trkpt lat="39.19207667" lon="-8.69484167">
        <ele>2.0</ele>
        <time>2019-05-16T17:13:33.913Z</time>
      </trkpt>
      <trkpt lat="39.192125" lon="-8.69480667">
        <ele>2.0</ele>
        <time>2019-05-16T17:13:34.932Z</time>
      </trkpt>
      <trkpt lat="39.192125" lon="-8.69480667">
        <ele>2.0</ele>
        <time>2019-05-16T17:13:35.898Z</time>
      </trkpt>
      <trkpt lat="39.19217" lon="-8.694765">
        <ele>2.0</ele>
        <time>2019-05-16T17:13:36.934Z</time>
      </trkpt>
      <trkpt lat="39.19217" lon="-8.694765">
        <ele>2.0</ele>
        <time>2019-05-16T17:13:37.911Z</time>
      </trkpt>
      <trkpt lat="39.19221667" lon="-8.69472">
        <ele>2.0</ele>
        <time>2019-05-16T17:13:38.928Z</time>
      </trkpt>
      <trkpt lat="39.19221667" lon="-8.69472">
        <ele>2.0</ele>
        <time>2019-05-16T17:13:39.921Z</time>
      </trkpt>
      <trkpt lat="39.19226833" lon="-8.694675">
        <ele>2.0</ele>
        <time>2019-05-16T17:13:40.930Z</time>
      </trkpt>
      <trkpt lat="39.19226833" lon="-8.694675">
        <ele>2.0</ele>
        <time>2019-05-16T17:13:41.904Z</time>
      </trkpt>
      <trkpt lat="39.19231333" lon="-8.69462667">
        <ele>2.0</ele>
        <time>2019-05-16T17:13:42.923Z</time>
      </trkpt>
      <trkpt lat="39.19231333" lon="-8.69462667">
        <ele>2.0</ele>
        <time>2019-05-16T17:13:43.933Z</time>
      </trkpt>
      <trkpt lat="39.19236167" lon="-8.69458">
        <ele>2.0</ele>
        <time>2019-05-16T17:13:44.915Z</time>
      </trkpt>
      <trkpt lat="39.19236167" lon="-8.69458">
        <ele>2.0</ele>
        <time>2019-05-16T17:13:45.936Z</time>
      </trkpt>
      <trkpt lat="39.19240667" lon="-8.69452667">
        <ele>2.0</ele>
        <time>2019-05-16T17:13:46.914Z</time>
      </trkpt>
      <trkpt lat="39.19240667" lon="-8.69452667">
        <ele>2.0</ele>
        <time>2019-05-16T17:13:47.933Z</time>
      </trkpt>
      <trkpt lat="39.19245333" lon="-8.69447833">
        <ele>2.0</ele>
        <time>2019-05-16T17:13:48.912Z</time>
      </trkpt>
      <trkpt lat="39.19245333" lon="-8.69447833">
        <ele>2.0</ele>
        <time>2019-05-16T17:13:49.923Z</time>
      </trkpt>
      <trkpt lat="39.192495" lon="-8.69443833">
        <ele>2.0</ele>
        <time>2019-05-16T17:13:50.905Z</time>
      </trkpt>
      <trkpt lat="39.192495" lon="-8.69443833">
        <ele>2.0</ele>
        <time>2019-05-16T17:13:51.933Z</time>
      </trkpt>
      <trkpt lat="39.19254167" lon="-8.69439667">
        <ele>2.0</ele>
        <time>2019-05-16T17:13:52.914Z</time>
      </trkpt>
      <trkpt lat="39.19254167" lon="-8.69439667">
        <ele>2.0</ele>
        <time>2019-05-16T17:13:53.903Z</time>
      </trkpt>
      <trkpt lat="39.19258667" lon="-8.69435">
        <ele>2.0</ele>
        <time>2019-05-16T17:13:54.928Z</time>
      </trkpt>
      <trkpt lat="39.19261167" lon="-8.69432833">
        <ele>2.0</ele>
        <time>2019-05-16T17:13:55.907Z</time>
      </trkpt>
      <trkpt lat="39.19263667" lon="-8.69430833">
        <ele>2.0</ele>
        <time>2019-05-16T17:13:56.933Z</time>
      </trkpt>
      <trkpt lat="39.19263667" lon="-8.69430833">
        <ele>2.0</ele>
        <time>2019-05-16T17:13:57.916Z</time>
      </trkpt>
      <trkpt lat="39.192685" lon="-8.69426833">
        <ele>2.0</ele>
        <time>2019-05-16T17:13:58.936Z</time>
      </trkpt>
      <trkpt lat="39.192685" lon="-8.69426833">
        <ele>2.0</ele>
        <time>2019-05-16T17:13:59.903Z</time>
      </trkpt>
      <trkpt lat="39.19273667" lon="-8.69423167">
        <ele>2.0</ele>
        <time>2019-05-16T17:14:00.917Z</time>
      </trkpt>
      <trkpt lat="39.19273667" lon="-8.69423167">
        <ele>2.0</ele>
        <time>2019-05-16T17:14:01.903Z</time>
      </trkpt>
      <trkpt lat="39.19279" lon="-8.694195">
        <ele>2.0</ele>
        <time>2019-05-16T17:14:02.932Z</time>
      </trkpt>
      <trkpt lat="39.19279" lon="-8.694195">
        <ele>2.0</ele>
        <time>2019-05-16T17:14:03.905Z</time>
      </trkpt>
      <trkpt lat="39.192845" lon="-8.69416167">
        <ele>2.0</ele>
        <time>2019-05-16T17:14:04.936Z</time>
      </trkpt>
      <trkpt lat="39.192845" lon="-8.69416167">
        <ele>2.0</ele>
        <time>2019-05-16T17:14:05.925Z</time>
      </trkpt>
      <trkpt lat="39.19289667" lon="-8.69413333">
        <ele>2.0</ele>
        <time>2019-05-16T17:14:06.914Z</time>
      </trkpt>
      <trkpt lat="39.19289667" lon="-8.69413333">
        <ele>2.0</ele>
        <time>2019-05-16T17:14:07.903Z</time>
      </trkpt>
      <trkpt lat="39.19294667" lon="-8.694105">
        <ele>2.0</ele>
        <time>2019-05-16T17:14:08.923Z</time>
      </trkpt>
      <trkpt lat="39.19294667" lon="-8.694105">
        <ele>2.0</ele>
        <time>2019-05-16T17:14:09.903Z</time>
      </trkpt>
      <trkpt lat="39.19299833" lon="-8.69407833">
        <ele>2.0</ele>
        <time>2019-05-16T17:14:10.911Z</time>
      </trkpt>
      <trkpt lat="39.19299833" lon="-8.69407833">
        <ele>2.0</ele>
        <time>2019-05-16T17:14:11.898Z</time>
      </trkpt>
      <trkpt lat="39.19305" lon="-8.69405">
        <ele>2.0</ele>
        <time>2019-05-16T17:14:12.921Z</time>
      </trkpt>
      <trkpt lat="39.19307667" lon="-8.69403333">
        <ele>2.0</ele>
        <time>2019-05-16T17:14:13.901Z</time>
      </trkpt>
      <trkpt lat="39.193105" lon="-8.69401667">
        <ele>2.0</ele>
        <time>2019-05-16T17:14:14.920Z</time>
      </trkpt>
      <trkpt lat="39.193105" lon="-8.69401667">
        <ele>2.0</ele>
        <time>2019-05-16T17:14:15.923Z</time>
      </trkpt>
      <trkpt lat="39.19316167" lon="-8.69398">
        <ele>2.0</ele>
        <time>2019-05-16T17:14:16.911Z</time>
      </trkpt>
      <trkpt lat="39.19316167" lon="-8.69398">
        <ele>2.0</ele>
        <time>2019-05-16T17:14:17.921Z</time>
      </trkpt>
      <trkpt lat="39.19322" lon="-8.69394333">
        <ele>2.0</ele>
        <time>2019-05-16T17:14:18.913Z</time>
      </trkpt>
      <trkpt lat="39.19325167" lon="-8.69392833">
        <ele>2.0</ele>
        <time>2019-05-16T17:14:19.921Z</time>
      </trkpt>
      <trkpt lat="39.19325167" lon="-8.69392833">
        <ele>2.0</ele>
        <time>2019-05-16T17:14:20.936Z</time>
      </trkpt>
      <trkpt lat="39.193315" lon="-8.69389833">
        <ele>1.0</ele>
        <time>2019-05-16T17:14:21.937Z</time>
      </trkpt>
      <trkpt lat="39.193315" lon="-8.69389833">
        <ele>1.0</ele>
        <time>2019-05-16T17:14:22.925Z</time>
      </trkpt>
      <trkpt lat="39.19337333" lon="-8.69386">
        <ele>2.0</ele>
        <time>2019-05-16T17:14:23.914Z</time>
      </trkpt>
      <trkpt lat="39.19337333" lon="-8.69386">
        <ele>2.0</ele>
        <time>2019-05-16T17:14:24.903Z</time>
      </trkpt>
      <trkpt lat="39.19343333" lon="-8.69383">
        <ele>1.0</ele>
        <time>2019-05-16T17:14:25.926Z</time>
      </trkpt>
      <trkpt lat="39.19346333" lon="-8.69382">
        <ele>1.0</ele>
        <time>2019-05-16T17:14:26.937Z</time>
      </trkpt>
      <trkpt lat="39.19346333" lon="-8.69382">
        <ele>1.0</ele>
        <time>2019-05-16T17:14:27.899Z</time>
      </trkpt>
      <trkpt lat="39.19351833" lon="-8.6938">
        <ele>1.0</ele>
        <time>2019-05-16T17:14:28.933Z</time>
      </trkpt>
      <trkpt lat="39.19354667" lon="-8.69378833">
        <ele>1.0</ele>
        <time>2019-05-16T17:14:29.923Z</time>
      </trkpt>
      <trkpt lat="39.19354667" lon="-8.69378833">
        <ele>1.0</ele>
        <time>2019-05-16T17:14:30.923Z</time>
      </trkpt>
      <trkpt lat="39.193605" lon="-8.69377333">
        <ele>1.0</ele>
        <time>2019-05-16T17:14:31.908Z</time>
      </trkpt>
      <trkpt lat="39.19363" lon="-8.693765">
        <ele>1.0</ele>
        <time>2019-05-16T17:14:32.907Z</time>
      </trkpt>
      <trkpt lat="39.19363" lon="-8.693765">
        <ele>1.0</ele>
        <time>2019-05-16T17:14:33.922Z</time>
      </trkpt>
      <trkpt lat="39.19368167" lon="-8.69374833">
        <ele>1.0</ele>
        <time>2019-05-16T17:14:34.904Z</time>
      </trkpt>
      <trkpt lat="39.19368167" lon="-8.69374833">
        <ele>1.0</ele>
        <time>2019-05-16T17:14:35.930Z</time>
      </trkpt>
      <trkpt lat="39.19373167" lon="-8.693725">
        <ele>1.0</ele>
        <time>2019-05-16T17:14:36.927Z</time>
      </trkpt>
      <trkpt lat="39.19373167" lon="-8.693725">
        <ele>1.0</ele>
        <time>2019-05-16T17:14:37.912Z</time>
      </trkpt>
      <trkpt lat="39.19377167" lon="-8.69370333">
        <ele>1.0</ele>
        <time>2019-05-16T17:14:38.933Z</time>
      </trkpt>
      <trkpt lat="39.19377167" lon="-8.69370333">
        <ele>1.0</ele>
        <time>2019-05-16T17:14:39.921Z</time>
      </trkpt>
      <trkpt lat="39.19381333" lon="-8.693675">
        <ele>1.0</ele>
        <time>2019-05-16T17:14:40.937Z</time>
      </trkpt>
      <trkpt lat="39.19381333" lon="-8.693675">
        <ele>1.0</ele>
        <time>2019-05-16T17:14:41.920Z</time>
      </trkpt>
      <trkpt lat="39.19385833" lon="-8.693645">
        <ele>2.0</ele>
        <time>2019-05-16T17:14:42.913Z</time>
      </trkpt>
      <trkpt lat="39.19385833" lon="-8.693645">
        <ele>2.0</ele>
        <time>2019-05-16T17:14:43.911Z</time>
      </trkpt>
      <trkpt lat="39.193905" lon="-8.69362">
        <ele>2.0</ele>
        <time>2019-05-16T17:14:44.935Z</time>
      </trkpt>
      <trkpt lat="39.193905" lon="-8.69362">
        <ele>2.0</ele>
        <time>2019-05-16T17:14:45.934Z</time>
      </trkpt>
      <trkpt lat="39.19395" lon="-8.69359833">
        <ele>2.0</ele>
        <time>2019-05-16T17:14:46.909Z</time>
      </trkpt>
      <trkpt lat="39.19397333" lon="-8.693585">
        <ele>2.0</ele>
        <time>2019-05-16T17:14:47.914Z</time>
      </trkpt>
      <trkpt lat="39.19397333" lon="-8.693585">
        <ele>2.0</ele>
        <time>2019-05-16T17:14:48.912Z</time>
      </trkpt>
      <trkpt lat="39.19402" lon="-8.69356">
        <ele>2.0</ele>
        <time>2019-05-16T17:14:49.931Z</time>
      </trkpt>
      <trkpt lat="39.19404333" lon="-8.69354833">
        <ele>2.0</ele>
        <time>2019-05-16T17:14:50.939Z</time>
      </trkpt>
      <trkpt lat="39.19404333" lon="-8.69354833">
        <ele>2.0</ele>
        <time>2019-05-16T17:14:51.913Z</time>
      </trkpt>
      <trkpt lat="39.19409167" lon="-8.69352667">
        <ele>3.0</ele>
        <time>2019-05-16T17:14:52.931Z</time>
      </trkpt>
      <trkpt lat="39.19409167" lon="-8.69352667">
        <ele>3.0</ele>
        <time>2019-05-16T17:14:53.913Z</time>
      </trkpt>
      <trkpt lat="39.19414" lon="-8.69350333">
        <ele>3.0</ele>
        <time>2019-05-16T17:14:54.929Z</time>
      </trkpt>
      <trkpt lat="39.19414" lon="-8.69350333">
        <ele>3.0</ele>
        <time>2019-05-16T17:14:55.934Z</time>
      </trkpt>
      <trkpt lat="39.19419" lon="-8.69348667">
        <ele>3.0</ele>
        <time>2019-05-16T17:14:56.909Z</time>
      </trkpt>
      <trkpt lat="39.19419" lon="-8.69348667">
        <ele>3.0</ele>
        <time>2019-05-16T17:14:57.912Z</time>
      </trkpt>
      <trkpt lat="39.19424" lon="-8.69346167">
        <ele>3.0</ele>
        <time>2019-05-16T17:14:58.930Z</time>
      </trkpt>
      <trkpt lat="39.19424" lon="-8.69346167">
        <ele>3.0</ele>
        <time>2019-05-16T17:14:59.917Z</time>
      </trkpt>
      <trkpt lat="39.19428833" lon="-8.69344333">
        <ele>3.0</ele>
        <time>2019-05-16T17:15:00.933Z</time>
      </trkpt>
      <trkpt lat="39.19430333" lon="-8.693435">
        <ele>3.0</ele>
        <time>2019-05-16T17:15:01.922Z</time>
      </trkpt>
      <trkpt lat="39.19431167" lon="-8.69343">
        <ele>3.0</ele>
        <time>2019-05-16T17:15:02.905Z</time>
      </trkpt>
      <trkpt lat="39.19431167" lon="-8.69343">
        <ele>3.0</ele>
        <time>2019-05-16T17:15:03.898Z</time>
      </trkpt>
      <trkpt lat="39.19431667" lon="-8.69343167">
        <ele>3.0</ele>
        <time>2019-05-16T17:15:04.914Z</time>
      </trkpt>
      <trkpt lat="39.19431667" lon="-8.69343167">
        <ele>3.0</ele>
        <time>2019-05-16T17:15:05.934Z</time>
      </trkpt>
      <trkpt lat="39.19431833" lon="-8.69343833">
        <ele>4.0</ele>
        <time>2019-05-16T17:15:06.900Z</time>
      </trkpt>
      <trkpt lat="39.19431833" lon="-8.69343833">
        <ele>4.0</ele>
        <time>2019-05-16T17:15:07.906Z</time>
      </trkpt>
      <trkpt lat="39.19431833" lon="-8.69343833">
        <ele>4.0</ele>
        <time>2019-05-16T17:15:08.916Z</time>
      </trkpt>
      <trkpt lat="39.19431833" lon="-8.69343833">
        <ele>4.0</ele>
        <time>2019-05-16T17:15:09.914Z</time>
      </trkpt>
      <trkpt lat="39.19431833" lon="-8.69343833">
        <ele>4.0</ele>
        <time>2019-05-16T17:15:10.908Z</time>
      </trkpt>
      <trkpt lat="39.19431833" lon="-8.69343833">
        <ele>4.0</ele>
        <time>2019-05-16T17:15:11.903Z</time>
      </trkpt>
      <trkpt lat="39.19431833" lon="-8.69343833">
        <ele>4.0</ele>
        <time>2019-05-16T17:15:12.908Z</time>
      </trkpt>
      <trkpt lat="39.19431833" lon="-8.69343833">
        <ele>4.0</ele>
        <time>2019-05-16T17:15:13.908Z</time>
      </trkpt>
      <trkpt lat="39.19431833" lon="-8.69343833">
        <ele>4.0</ele>
        <time>2019-05-16T17:15:14.910Z</time>
      </trkpt>
      <trkpt lat="39.19431833" lon="-8.69343833">
        <ele>4.0</ele>
        <time>2019-05-16T17:15:15.913Z</time>
      </trkpt>
      <trkpt lat="39.19431833" lon="-8.69343833">
        <ele>4.0</ele>
        <time>2019-05-16T17:15:16.908Z</time>
      </trkpt>
      <trkpt lat="39.19431833" lon="-8.69343833">
        <ele>4.0</ele>
        <time>2019-05-16T17:15:17.903Z</time>
      </trkpt>
      <trkpt lat="39.19431833" lon="-8.69343833">
        <ele>4.0</ele>
        <time>2019-05-16T17:15:18.909Z</time>
      </trkpt>
      <trkpt lat="39.19431833" lon="-8.69343833">
        <ele>4.0</ele>
        <time>2019-05-16T17:15:19.908Z</time>
      </trkpt>
      <trkpt lat="39.19431833" lon="-8.69343833">
        <ele>4.0</ele>
        <time>2019-05-16T17:15:20.900Z</time>
      </trkpt>
      <trkpt lat="39.19431833" lon="-8.69343833">
        <ele>4.0</ele>
        <time>2019-05-16T17:15:21.913Z</time>
      </trkpt>
      <trkpt lat="39.19431833" lon="-8.69343833">
        <ele>4.0</ele>
        <time>2019-05-16T17:15:22.919Z</time>
      </trkpt>
      <trkpt lat="39.19431833" lon="-8.69343833">
        <ele>4.0</ele>
        <time>2019-05-16T17:15:23.927Z</time>
      </trkpt>
      <trkpt lat="39.19431833" lon="-8.69343833">
        <ele>4.0</ele>
        <time>2019-05-16T17:15:24.913Z</time>
      </trkpt>
      <trkpt lat="39.19431833" lon="-8.69343833">
        <ele>4.0</ele>
        <time>2019-05-16T17:15:25.908Z</time>
      </trkpt>
      <trkpt lat="39.19431833" lon="-8.69343833">
        <ele>4.0</ele>
        <time>2019-05-16T17:15:26.909Z</time>
      </trkpt>
      <trkpt lat="39.19431833" lon="-8.69343833">
        <ele>4.0</ele>
        <time>2019-05-16T17:15:27.913Z</time>
      </trkpt>
      <trkpt lat="39.19431833" lon="-8.69343833">
        <ele>4.0</ele>
        <time>2019-05-16T17:15:28.905Z</time>
      </trkpt>
      <trkpt lat="39.19431833" lon="-8.69343833">
        <ele>4.0</ele>
        <time>2019-05-16T17:15:29.911Z</time>
      </trkpt>
      <trkpt lat="39.19431833" lon="-8.69343833">
        <ele>4.0</ele>
        <time>2019-05-16T17:15:30.908Z</time>
      </trkpt>
      <trkpt lat="39.19431833" lon="-8.69343833">
        <ele>4.0</ele>
        <time>2019-05-16T17:15:31.903Z</time>
      </trkpt>
      <trkpt lat="39.19431833" lon="-8.69343833">
        <ele>4.0</ele>
        <time>2019-05-16T17:15:32.909Z</time>
      </trkpt>
      <trkpt lat="39.19431833" lon="-8.69343833">
        <ele>4.0</ele>
        <time>2019-05-16T17:15:33.903Z</time>
      </trkpt>
      <trkpt lat="39.19431833" lon="-8.69343833">
        <ele>4.0</ele>
        <time>2019-05-16T17:15:34.908Z</time>
      </trkpt>
      <trkpt lat="39.19431833" lon="-8.69343833">
        <ele>4.0</ele>
        <time>2019-05-16T17:15:35.909Z</time>
      </trkpt>
      <trkpt lat="39.19431833" lon="-8.69343833">
        <ele>4.0</ele>
        <time>2019-05-16T17:15:36.903Z</time>
      </trkpt>
      <trkpt lat="39.19431833" lon="-8.69343833">
        <ele>4.0</ele>
        <time>2019-05-16T17:15:37.908Z</time>
      </trkpt>
      <trkpt lat="39.19431833" lon="-8.69343833">
        <ele>4.0</ele>
        <time>2019-05-16T17:15:38.909Z</time>
      </trkpt>
      <trkpt lat="39.19431833" lon="-8.69343833">
        <ele>4.0</ele>
        <time>2019-05-16T17:15:39.911Z</time>
      </trkpt>
      <trkpt lat="39.19431833" lon="-8.69343833">
        <ele>4.0</ele>
        <time>2019-05-16T17:15:40.905Z</time>
      </trkpt>
      <trkpt lat="39.19431833" lon="-8.69343833">
        <ele>4.0</ele>
        <time>2019-05-16T17:15:41.903Z</time>
      </trkpt>
      <trkpt lat="39.19431833" lon="-8.69343833">
        <ele>4.0</ele>
        <time>2019-05-16T17:15:42.899Z</time>
      </trkpt>
      <trkpt lat="39.19431833" lon="-8.69343833">
        <ele>4.0</ele>
        <time>2019-05-16T17:15:43.908Z</time>
      </trkpt>
      <trkpt lat="39.19431833" lon="-8.69343833">
        <ele>4.0</ele>
        <time>2019-05-16T17:15:44.920Z</time>
      </trkpt>
      <trkpt lat="39.19431833" lon="-8.69343833">
        <ele>4.0</ele>
        <time>2019-05-16T17:15:45.905Z</time>
      </trkpt>
      <trkpt lat="39.19431833" lon="-8.69343833">
        <ele>4.0</ele>
        <time>2019-05-16T17:15:46.908Z</time>
      </trkpt>
      <trkpt lat="39.19431833" lon="-8.69343833">
        <ele>4.0</ele>
        <time>2019-05-16T17:15:47.903Z</time>
      </trkpt>
      <trkpt lat="39.19431833" lon="-8.69343833">
        <ele>4.0</ele>
        <time>2019-05-16T17:15:48.907Z</time>
      </trkpt>
      <trkpt lat="39.19431833" lon="-8.69343833">
        <ele>4.0</ele>
        <time>2019-05-16T17:15:49.907Z</time>
      </trkpt>
      <trkpt lat="39.19431833" lon="-8.69343833">
        <ele>4.0</ele>
        <time>2019-05-16T17:15:50.909Z</time>
      </trkpt>
      <trkpt lat="39.19431833" lon="-8.69343833">
        <ele>4.0</ele>
        <time>2019-05-16T17:15:51.902Z</time>
      </trkpt>
      <trkpt lat="39.19432167" lon="-8.69344833">
        <ele>3.0</ele>
        <time>2019-05-16T17:15:52.908Z</time>
      </trkpt>
      <trkpt lat="39.19432333" lon="-8.693445">
        <ele>3.0</ele>
        <time>2019-05-16T17:15:53.909Z</time>
      </trkpt>
      <trkpt lat="39.19432333" lon="-8.693445">
        <ele>3.0</ele>
        <time>2019-05-16T17:15:54.903Z</time>
      </trkpt>
      <trkpt lat="39.194325" lon="-8.69344333">
        <ele>3.0</ele>
        <time>2019-05-16T17:15:55.908Z</time>
      </trkpt>
      <trkpt lat="39.194325" lon="-8.69344333">
        <ele>3.0</ele>
        <time>2019-05-16T17:15:56.909Z</time>
      </trkpt>
      <trkpt lat="39.194325" lon="-8.69344333">
        <ele>3.0</ele>
        <time>2019-05-16T17:15:57.903Z</time>
      </trkpt>
      <trkpt lat="39.194325" lon="-8.69344333">
        <ele>3.0</ele>
        <time>2019-05-16T17:15:58.909Z</time>
      </trkpt>
      <trkpt lat="39.194325" lon="-8.69344333">
        <ele>3.0</ele>
        <time>2019-05-16T17:15:59.904Z</time>
      </trkpt>
      <trkpt lat="39.194325" lon="-8.69344333">
        <ele>3.0</ele>
        <time>2019-05-16T17:16:00.908Z</time>
      </trkpt>
      <trkpt lat="39.194325" lon="-8.69344333">
        <ele>3.0</ele>
        <time>2019-05-16T17:16:01.907Z</time>
      </trkpt>
      <trkpt lat="39.194325" lon="-8.69344333">
        <ele>3.0</ele>
        <time>2019-05-16T17:16:02.916Z</time>
      </trkpt>
      <trkpt lat="39.194325" lon="-8.69344333">
        <ele>3.0</ele>
        <time>2019-05-16T17:16:03.903Z</time>
      </trkpt>
      <trkpt lat="39.194325" lon="-8.69344333">
        <ele>3.0</ele>
        <time>2019-05-16T17:16:04.908Z</time>
      </trkpt>
      <trkpt lat="39.194325" lon="-8.69344333">
        <ele>3.0</ele>
        <time>2019-05-16T17:16:05.911Z</time>
      </trkpt>
      <trkpt lat="39.194325" lon="-8.69344333">
        <ele>3.0</ele>
        <time>2019-05-16T17:16:06.905Z</time>
      </trkpt>
      <trkpt lat="39.194325" lon="-8.69344333">
        <ele>3.0</ele>
        <time>2019-05-16T17:16:07.907Z</time>
      </trkpt>
      <trkpt lat="39.194325" lon="-8.69344333">
        <ele>3.0</ele>
        <time>2019-05-16T17:16:08.910Z</time>
      </trkpt>
      <trkpt lat="39.194325" lon="-8.69344333">
        <ele>3.0</ele>
        <time>2019-05-16T17:16:09.911Z</time>
      </trkpt>
      <trkpt lat="39.194325" lon="-8.69344333">
        <ele>3.0</ele>
        <time>2019-05-16T17:16:10.905Z</time>
      </trkpt>
      <trkpt lat="39.194325" lon="-8.69344333">
        <ele>3.0</ele>
        <time>2019-05-16T17:16:11.903Z</time>
      </trkpt>
      <trkpt lat="39.194325" lon="-8.69344333">
        <ele>3.0</ele>
        <time>2019-05-16T17:16:12.911Z</time>
      </trkpt>
      <trkpt lat="39.194325" lon="-8.69344333">
        <ele>3.0</ele>
        <time>2019-05-16T17:16:13.931Z</time>
      </trkpt>
      <trkpt lat="39.194325" lon="-8.69344333">
        <ele>3.0</ele>
        <time>2019-05-16T17:16:14.902Z</time>
      </trkpt>
      <trkpt lat="39.194325" lon="-8.69344333">
        <ele>3.0</ele>
        <time>2019-05-16T17:16:15.908Z</time>
      </trkpt>
      <trkpt lat="39.194325" lon="-8.69344333">
        <ele>3.0</ele>
        <time>2019-05-16T17:16:16.908Z</time>
      </trkpt>
      <trkpt lat="39.194325" lon="-8.69344333">
        <ele>3.0</ele>
        <time>2019-05-16T17:16:17.911Z</time>
      </trkpt>
      <trkpt lat="39.194325" lon="-8.69344333">
        <ele>3.0</ele>
        <time>2019-05-16T17:16:18.908Z</time>
      </trkpt>
      <trkpt lat="39.194325" lon="-8.69344333">
        <ele>3.0</ele>
        <time>2019-05-16T17:16:19.903Z</time>
      </trkpt>
      <trkpt lat="39.194325" lon="-8.69344333">
        <ele>3.0</ele>
        <time>2019-05-16T17:16:20.912Z</time>
      </trkpt>
      <trkpt lat="39.194325" lon="-8.69344333">
        <ele>3.0</ele>
        <time>2019-05-16T17:16:21.909Z</time>
      </trkpt>
      <trkpt lat="39.194325" lon="-8.69344333">
        <ele>3.0</ele>
        <time>2019-05-16T17:16:22.916Z</time>
      </trkpt>
      <trkpt lat="39.194325" lon="-8.69344333">
        <ele>3.0</ele>
        <time>2019-05-16T17:16:23.921Z</time>
      </trkpt>
      <trkpt lat="39.194325" lon="-8.69344333">
        <ele>3.0</ele>
        <time>2019-05-16T17:16:24.907Z</time>
      </trkpt>
      <trkpt lat="39.194325" lon="-8.69344333">
        <ele>3.0</ele>
        <time>2019-05-16T17:16:25.908Z</time>
      </trkpt>
      <trkpt lat="39.194325" lon="-8.69344333">
        <ele>3.0</ele>
        <time>2019-05-16T17:16:26.909Z</time>
      </trkpt>
      <trkpt lat="39.194325" lon="-8.69344333">
        <ele>3.0</ele>
        <time>2019-05-16T17:16:27.913Z</time>
      </trkpt>
      <trkpt lat="39.194325" lon="-8.69344333">
        <ele>3.0</ele>
        <time>2019-05-16T17:16:28.910Z</time>
      </trkpt>
      <trkpt lat="39.194325" lon="-8.69344333">
        <ele>3.0</ele>
        <time>2019-05-16T17:16:29.905Z</time>
      </trkpt>
      <trkpt lat="39.194325" lon="-8.69344333">
        <ele>3.0</ele>
        <time>2019-05-16T17:16:30.907Z</time>
      </trkpt>
      <trkpt lat="39.194325" lon="-8.69344333">
        <ele>3.0</ele>
        <time>2019-05-16T17:16:31.903Z</time>
      </trkpt>
      <trkpt lat="39.194325" lon="-8.69344333">
        <ele>3.0</ele>
        <time>2019-05-16T17:16:32.911Z</time>
      </trkpt>
      <trkpt lat="39.194325" lon="-8.69344333">
        <ele>3.0</ele>
        <time>2019-05-16T17:16:33.903Z</time>
      </trkpt>
      <trkpt lat="39.194325" lon="-8.69344333">
        <ele>3.0</ele>
        <time>2019-05-16T17:16:34.908Z</time>
      </trkpt>
      <trkpt lat="39.194325" lon="-8.69344333">
        <ele>3.0</ele>
        <time>2019-05-16T17:16:35.900Z</time>
      </trkpt>
      <trkpt lat="39.194325" lon="-8.69344333">
        <ele>3.0</ele>
        <time>2019-05-16T17:16:36.908Z</time>
      </trkpt>
      <trkpt lat="39.194325" lon="-8.69344333">
        <ele>3.0</ele>
        <time>2019-05-16T17:16:37.908Z</time>
      </trkpt>
      <trkpt lat="39.194325" lon="-8.69344333">
        <ele>3.0</ele>
        <time>2019-05-16T17:16:38.905Z</time>
      </trkpt>
      <trkpt lat="39.194325" lon="-8.69344333">
        <ele>3.0</ele>
        <time>2019-05-16T17:16:39.911Z</time>
      </trkpt>
      <trkpt lat="39.194325" lon="-8.69344333">
        <ele>3.0</ele>
        <time>2019-05-16T17:16:40.903Z</time>
      </trkpt>
      <trkpt lat="39.194325" lon="-8.69344333">
        <ele>3.0</ele>
        <time>2019-05-16T17:16:41.907Z</time>
      </trkpt>
      <trkpt lat="39.194325" lon="-8.69344333">
        <ele>3.0</ele>
        <time>2019-05-16T17:16:42.903Z</time>
      </trkpt>
      <trkpt lat="39.194325" lon="-8.69344333">
        <ele>3.0</ele>
        <time>2019-05-16T17:16:43.907Z</time>
      </trkpt>
      <trkpt lat="39.194325" lon="-8.69344333">
        <ele>3.0</ele>
        <time>2019-05-16T17:16:44.910Z</time>
      </trkpt>
      <trkpt lat="39.194325" lon="-8.69344333">
        <ele>3.0</ele>
        <time>2019-05-16T17:16:45.905Z</time>
      </trkpt>
      <trkpt lat="39.194325" lon="-8.69344333">
        <ele>3.0</ele>
        <time>2019-05-16T17:16:46.909Z</time>
      </trkpt>
      <trkpt lat="39.194325" lon="-8.69344333">
        <ele>3.0</ele>
        <time>2019-05-16T17:16:47.903Z</time>
      </trkpt>
      <trkpt lat="39.194325" lon="-8.69344333">
        <ele>3.0</ele>
        <time>2019-05-16T17:16:48.907Z</time>
      </trkpt>
      <trkpt lat="39.194325" lon="-8.69344333">
        <ele>3.0</ele>
        <time>2019-05-16T17:16:49.911Z</time>
      </trkpt>
      <trkpt lat="39.194325" lon="-8.69344333">
        <ele>3.0</ele>
        <time>2019-05-16T17:16:50.909Z</time>
      </trkpt>
      <trkpt lat="39.194325" lon="-8.69344333">
        <ele>3.0</ele>
        <time>2019-05-16T17:16:51.903Z</time>
      </trkpt>
      <trkpt lat="39.194325" lon="-8.69344333">
        <ele>3.0</ele>
        <time>2019-05-16T17:16:52.908Z</time>
      </trkpt>
      <trkpt lat="39.194325" lon="-8.69344333">
        <ele>3.0</ele>
        <time>2019-05-16T17:16:53.905Z</time>
      </trkpt>
      <trkpt lat="39.194325" lon="-8.69344333">
        <ele>3.0</ele>
        <time>2019-05-16T17:16:54.908Z</time>
      </trkpt>
      <trkpt lat="39.194325" lon="-8.69344333">
        <ele>3.0</ele>
        <time>2019-05-16T17:16:55.908Z</time>
      </trkpt>
      <trkpt lat="39.194325" lon="-8.69344333">
        <ele>3.0</ele>
        <time>2019-05-16T17:16:56.910Z</time>
      </trkpt>
      <trkpt lat="39.194325" lon="-8.69344333">
        <ele>3.0</ele>
        <time>2019-05-16T17:16:57.903Z</time>
      </trkpt>
      <trkpt lat="39.194325" lon="-8.69344333">
        <ele>3.0</ele>
        <time>2019-05-16T17:16:58.908Z</time>
      </trkpt>
      <trkpt lat="39.194325" lon="-8.69344333">
        <ele>3.0</ele>
        <time>2019-05-16T17:16:59.911Z</time>
      </trkpt>
      <trkpt lat="39.194325" lon="-8.69344333">
        <ele>3.0</ele>
        <time>2019-05-16T17:17:00.906Z</time>
      </trkpt>
      <trkpt lat="39.194325" lon="-8.69344333">
        <ele>3.0</ele>
        <time>2019-05-16T17:17:01.908Z</time>
      </trkpt>
      <trkpt lat="39.194325" lon="-8.69344333">
        <ele>3.0</ele>
        <time>2019-05-16T17:17:02.910Z</time>
      </trkpt>
      <trkpt lat="39.194325" lon="-8.69344333">
        <ele>3.0</ele>
        <time>2019-05-16T17:17:03.903Z</time>
      </trkpt>
      <trkpt lat="39.194325" lon="-8.69344333">
        <ele>3.0</ele>
        <time>2019-05-16T17:17:04.908Z</time>
      </trkpt>
      <trkpt lat="39.194325" lon="-8.69344333">
        <ele>3.0</ele>
        <time>2019-05-16T17:17:05.908Z</time>
      </trkpt>
      <trkpt lat="39.194325" lon="-8.69344333">
        <ele>3.0</ele>
        <time>2019-05-16T17:17:06.918Z</time>
      </trkpt>
      <trkpt lat="39.194325" lon="-8.69344333">
        <ele>3.0</ele>
        <time>2019-05-16T17:17:07.905Z</time>
      </trkpt>
      <trkpt lat="39.194325" lon="-8.69344333">
        <ele>3.0</ele>
        <time>2019-05-16T17:17:08.910Z</time>
      </trkpt>
      <trkpt lat="39.194325" lon="-8.69344333">
        <ele>3.0</ele>
        <time>2019-05-16T17:17:09.911Z</time>
      </trkpt>
      <trkpt lat="39.194325" lon="-8.69344333">
        <ele>3.0</ele>
        <time>2019-05-16T17:17:10.908Z</time>
      </trkpt>
      <trkpt lat="39.194325" lon="-8.69344333">
        <ele>3.0</ele>
        <time>2019-05-16T17:17:11.903Z</time>
      </trkpt>
      <trkpt lat="39.194325" lon="-8.69344333">
        <ele>3.0</ele>
        <time>2019-05-16T17:17:12.907Z</time>
      </trkpt>
      <trkpt lat="39.194325" lon="-8.69344333">
        <ele>3.0</ele>
        <time>2019-05-16T17:17:13.903Z</time>
      </trkpt>
      <trkpt lat="39.194325" lon="-8.69344333">
        <ele>3.0</ele>
        <time>2019-05-16T17:17:14.909Z</time>
      </trkpt>
      <trkpt lat="39.194325" lon="-8.69344333">
        <ele>3.0</ele>
        <time>2019-05-16T17:17:15.908Z</time>
      </trkpt>
      <trkpt lat="39.194325" lon="-8.69344333">
        <ele>3.0</ele>
        <time>2019-05-16T17:17:16.903Z</time>
      </trkpt>
      <trkpt lat="39.194325" lon="-8.69344333">
        <ele>3.0</ele>
        <time>2019-05-16T17:17:17.907Z</time>
      </trkpt>
      <trkpt lat="39.194325" lon="-8.69344333">
        <ele>3.0</ele>
        <time>2019-05-16T17:17:18.903Z</time>
      </trkpt>
      <trkpt lat="39.194325" lon="-8.69344333">
        <ele>3.0</ele>
        <time>2019-05-16T17:17:19.912Z</time>
      </trkpt>
      <trkpt lat="39.194325" lon="-8.69344333">
        <ele>3.0</ele>
        <time>2019-05-16T17:17:20.921Z</time>
      </trkpt>
      <trkpt lat="39.194325" lon="-8.69344333">
        <ele>3.0</ele>
        <time>2019-05-16T17:17:21.935Z</time>
      </trkpt>
      <trkpt lat="39.194325" lon="-8.69344333">
        <ele>3.0</ele>
        <time>2019-05-16T17:17:22.902Z</time>
      </trkpt>
      <trkpt lat="39.194325" lon="-8.69344333">
        <ele>3.0</ele>
        <time>2019-05-16T17:17:23.908Z</time>
      </trkpt>
      <trkpt lat="39.194325" lon="-8.69344333">
        <ele>3.0</ele>
        <time>2019-05-16T17:17:24.908Z</time>
      </trkpt>
      <trkpt lat="39.194325" lon="-8.69344333">
        <ele>3.0</ele>
        <time>2019-05-16T17:17:25.903Z</time>
      </trkpt>
      <trkpt lat="39.194325" lon="-8.69344333">
        <ele>3.0</ele>
        <time>2019-05-16T17:17:26.909Z</time>
      </trkpt>
      <trkpt lat="39.194325" lon="-8.69344333">
        <ele>3.0</ele>
        <time>2019-05-16T17:17:27.913Z</time>
      </trkpt>
      <trkpt lat="39.194325" lon="-8.69344333">
        <ele>3.0</ele>
        <time>2019-05-16T17:17:28.909Z</time>
      </trkpt>
      <trkpt lat="39.194325" lon="-8.69344333">
        <ele>3.0</ele>
        <time>2019-05-16T17:17:29.911Z</time>
      </trkpt>
      <trkpt lat="39.194325" lon="-8.69344333">
        <ele>3.0</ele>
        <time>2019-05-16T17:17:30.912Z</time>
      </trkpt>
      <trkpt lat="39.194325" lon="-8.69344333">
        <ele>3.0</ele>
        <time>2019-05-16T17:17:31.908Z</time>
      </trkpt>
      <trkpt lat="39.194325" lon="-8.69344333">
        <ele>3.0</ele>
        <time>2019-05-16T17:17:32.910Z</time>
      </trkpt>
      <trkpt lat="39.194325" lon="-8.69344333">
        <ele>3.0</ele>
        <time>2019-05-16T17:17:33.911Z</time>
      </trkpt>
      <trkpt lat="39.194325" lon="-8.69344333">
        <ele>3.0</ele>
        <time>2019-05-16T17:17:34.924Z</time>
      </trkpt>
      <trkpt lat="39.194325" lon="-8.69344333">
        <ele>3.0</ele>
        <time>2019-05-16T17:17:35.930Z</time>
      </trkpt>
      <trkpt lat="39.194325" lon="-8.69344333">
        <ele>3.0</ele>
        <time>2019-05-16T17:17:36.932Z</time>
      </trkpt>
      <trkpt lat="39.194325" lon="-8.69344333">
        <ele>3.0</ele>
        <time>2019-05-16T17:17:37.925Z</time>
      </trkpt>
      <trkpt lat="39.194325" lon="-8.69344333">
        <ele>3.0</ele>
        <time>2019-05-16T17:17:38.920Z</time>
      </trkpt>
      <trkpt lat="39.194325" lon="-8.69344333">
        <ele>3.0</ele>
        <time>2019-05-16T17:17:39.902Z</time>
      </trkpt>
      <trkpt lat="39.194325" lon="-8.69344333">
        <ele>3.0</ele>
        <time>2019-05-16T17:17:40.921Z</time>
      </trkpt>
      <trkpt lat="39.194325" lon="-8.69344333">
        <ele>3.0</ele>
        <time>2019-05-16T17:17:41.902Z</time>
      </trkpt>
      <trkpt lat="39.194325" lon="-8.69344333">
        <ele>3.0</ele>
        <time>2019-05-16T17:17:42.922Z</time>
      </trkpt>
      <trkpt lat="39.194325" lon="-8.69344333">
        <ele>3.0</ele>
        <time>2019-05-16T17:17:43.902Z</time>
      </trkpt>
      <trkpt lat="39.194325" lon="-8.69344333">
        <ele>3.0</ele>
        <time>2019-05-16T17:17:44.923Z</time>
      </trkpt>
      <trkpt lat="39.194325" lon="-8.69344333">
        <ele>3.0</ele>
        <time>2019-05-16T17:17:45.911Z</time>
      </trkpt>
      <trkpt lat="39.194325" lon="-8.69344333">
        <ele>3.0</ele>
        <time>2019-05-16T17:17:46.900Z</time>
      </trkpt>
      <trkpt lat="39.194325" lon="-8.69344333">
        <ele>3.0</ele>
        <time>2019-05-16T17:17:47.920Z</time>
      </trkpt>
      <trkpt lat="39.194325" lon="-8.69344333">
        <ele>3.0</ele>
        <time>2019-05-16T17:17:48.900Z</time>
      </trkpt>
      <trkpt lat="39.194325" lon="-8.69344333">
        <ele>3.0</ele>
        <time>2019-05-16T17:17:49.920Z</time>
      </trkpt>
      <trkpt lat="39.194325" lon="-8.69344333">
        <ele>3.0</ele>
        <time>2019-05-16T17:17:50.926Z</time>
      </trkpt>
      <trkpt lat="39.194325" lon="-8.69344333">
        <ele>3.0</ele>
        <time>2019-05-16T17:17:51.917Z</time>
      </trkpt>
      <trkpt lat="39.194325" lon="-8.69344333">
        <ele>3.0</ele>
        <time>2019-05-16T17:17:52.908Z</time>
      </trkpt>
      <trkpt lat="39.194325" lon="-8.69344333">
        <ele>3.0</ele>
        <time>2019-05-16T17:17:53.903Z</time>
      </trkpt>
      <trkpt lat="39.194325" lon="-8.69344333">
        <ele>3.0</ele>
        <time>2019-05-16T17:17:54.907Z</time>
      </trkpt>
      <trkpt lat="39.194325" lon="-8.69344333">
        <ele>3.0</ele>
        <time>2019-05-16T17:17:55.903Z</time>
      </trkpt>
      <trkpt lat="39.194325" lon="-8.69344333">
        <ele>3.0</ele>
        <time>2019-05-16T17:17:56.929Z</time>
      </trkpt>
      <trkpt lat="39.194325" lon="-8.69344333">
        <ele>3.0</ele>
        <time>2019-05-16T17:17:57.921Z</time>
      </trkpt>
      <trkpt lat="39.194325" lon="-8.69344333">
        <ele>3.0</ele>
        <time>2019-05-16T17:17:58.909Z</time>
      </trkpt>
      <trkpt lat="39.194325" lon="-8.69344333">
        <ele>3.0</ele>
        <time>2019-05-16T17:17:59.903Z</time>
      </trkpt>
      <trkpt lat="39.194325" lon="-8.69344333">
        <ele>3.0</ele>
        <time>2019-05-16T17:18:00.907Z</time>
      </trkpt>
      <trkpt lat="39.194325" lon="-8.69344333">
        <ele>3.0</ele>
        <time>2019-05-16T17:18:01.914Z</time>
      </trkpt>
      <trkpt lat="39.194325" lon="-8.69344333">
        <ele>3.0</ele>
        <time>2019-05-16T17:18:02.910Z</time>
      </trkpt>
      <trkpt lat="39.194325" lon="-8.69344333">
        <ele>3.0</ele>
        <time>2019-05-16T17:18:03.901Z</time>
      </trkpt>
      <trkpt lat="39.194325" lon="-8.69344333">
        <ele>3.0</ele>
        <time>2019-05-16T17:18:04.928Z</time>
      </trkpt>
      <trkpt lat="39.194325" lon="-8.69344333">
        <ele>3.0</ele>
        <time>2019-05-16T17:18:05.916Z</time>
      </trkpt>
      <trkpt lat="39.194325" lon="-8.69344333">
        <ele>3.0</ele>
        <time>2019-05-16T17:18:06.903Z</time>
      </trkpt>
      <trkpt lat="39.194325" lon="-8.69344333">
        <ele>3.0</ele>
        <time>2019-05-16T17:18:07.902Z</time>
      </trkpt>
      <trkpt lat="39.194325" lon="-8.69344333">
        <ele>3.0</ele>
        <time>2019-05-16T17:18:08.923Z</time>
      </trkpt>
      <trkpt lat="39.194325" lon="-8.69344333">
        <ele>3.0</ele>
        <time>2019-05-16T17:18:09.909Z</time>
      </trkpt>
      <trkpt lat="39.194325" lon="-8.69344333">
        <ele>3.0</ele>
        <time>2019-05-16T17:18:10.921Z</time>
      </trkpt>
      <trkpt lat="39.194325" lon="-8.69344333">
        <ele>3.0</ele>
        <time>2019-05-16T17:18:11.907Z</time>
      </trkpt>
      <trkpt lat="39.194325" lon="-8.69344333">
        <ele>3.0</ele>
        <time>2019-05-16T17:18:12.911Z</time>
      </trkpt>
      <trkpt lat="39.194325" lon="-8.69344333">
        <ele>3.0</ele>
        <time>2019-05-16T17:18:13.904Z</time>
      </trkpt>
      <trkpt lat="39.194325" lon="-8.69344333">
        <ele>3.0</ele>
        <time>2019-05-16T17:18:14.910Z</time>
      </trkpt>
      <trkpt lat="39.194325" lon="-8.69344333">
        <ele>3.0</ele>
        <time>2019-05-16T17:18:15.904Z</time>
      </trkpt>
      <trkpt lat="39.194325" lon="-8.69344333">
        <ele>3.0</ele>
        <time>2019-05-16T17:18:16.908Z</time>
      </trkpt>
      <trkpt lat="39.194325" lon="-8.69344333">
        <ele>3.0</ele>
        <time>2019-05-16T17:18:17.903Z</time>
      </trkpt>
      <trkpt lat="39.194325" lon="-8.69344333">
        <ele>3.0</ele>
        <time>2019-05-16T17:18:18.911Z</time>
      </trkpt>
      <trkpt lat="39.194325" lon="-8.69344333">
        <ele>3.0</ele>
        <time>2019-05-16T17:18:19.903Z</time>
      </trkpt>
      <trkpt lat="39.194325" lon="-8.69344333">
        <ele>3.0</ele>
        <time>2019-05-16T17:18:20.903Z</time>
      </trkpt>
      <trkpt lat="39.194325" lon="-8.69344333">
        <ele>3.0</ele>
        <time>2019-05-16T17:18:21.897Z</time>
      </trkpt>
      <trkpt lat="39.194325" lon="-8.69344333">
        <ele>3.0</ele>
        <time>2019-05-16T17:18:22.904Z</time>
      </trkpt>
      <trkpt lat="39.194325" lon="-8.69344333">
        <ele>3.0</ele>
        <time>2019-05-16T17:18:23.915Z</time>
      </trkpt>
      <trkpt lat="39.194325" lon="-8.69344333">
        <ele>3.0</ele>
        <time>2019-05-16T17:18:24.903Z</time>
      </trkpt>
      <trkpt lat="39.194325" lon="-8.69344333">
        <ele>3.0</ele>
        <time>2019-05-16T17:18:25.908Z</time>
      </trkpt>
      <trkpt lat="39.194325" lon="-8.69344333">
        <ele>3.0</ele>
        <time>2019-05-16T17:18:26.910Z</time>
      </trkpt>
      <trkpt lat="39.194325" lon="-8.69344333">
        <ele>3.0</ele>
        <time>2019-05-16T17:18:27.900Z</time>
      </trkpt>
      <trkpt lat="39.194325" lon="-8.69344333">
        <ele>3.0</ele>
        <time>2019-05-16T17:18:28.900Z</time>
      </trkpt>
      <trkpt lat="39.194325" lon="-8.69344333">
        <ele>3.0</ele>
        <time>2019-05-16T17:18:29.911Z</time>
      </trkpt>
      <trkpt lat="39.194325" lon="-8.69344333">
        <ele>3.0</ele>
        <time>2019-05-16T17:18:30.920Z</time>
      </trkpt>
      <trkpt lat="39.194325" lon="-8.69344333">
        <ele>3.0</ele>
        <time>2019-05-16T17:18:31.907Z</time>
      </trkpt>
      <trkpt lat="39.194325" lon="-8.69344333">
        <ele>3.0</ele>
        <time>2019-05-16T17:18:32.922Z</time>
      </trkpt>
      <trkpt lat="39.194325" lon="-8.69344333">
        <ele>3.0</ele>
        <time>2019-05-16T17:18:33.939Z</time>
      </trkpt>
      <trkpt lat="39.194325" lon="-8.69344333">
        <ele>3.0</ele>
        <time>2019-05-16T17:18:34.914Z</time>
      </trkpt>
      <trkpt lat="39.194325" lon="-8.69344333">
        <ele>3.0</ele>
        <time>2019-05-16T17:18:35.908Z</time>
      </trkpt>
      <trkpt lat="39.194325" lon="-8.69344333">
        <ele>3.0</ele>
        <time>2019-05-16T17:18:36.903Z</time>
      </trkpt>
      <trkpt lat="39.194325" lon="-8.69344333">
        <ele>3.0</ele>
        <time>2019-05-16T17:18:37.905Z</time>
      </trkpt>
      <trkpt lat="39.194325" lon="-8.69344333">
        <ele>3.0</ele>
        <time>2019-05-16T17:18:38.911Z</time>
      </trkpt>
      <trkpt lat="39.194325" lon="-8.69344333">
        <ele>3.0</ele>
        <time>2019-05-16T17:18:39.912Z</time>
      </trkpt>
      <trkpt lat="39.194325" lon="-8.69344333">
        <ele>3.0</ele>
        <time>2019-05-16T17:18:40.908Z</time>
      </trkpt>
      <trkpt lat="39.194325" lon="-8.69344333">
        <ele>3.0</ele>
        <time>2019-05-16T17:18:41.908Z</time>
      </trkpt>
      <trkpt lat="39.194325" lon="-8.69344333">
        <ele>3.0</ele>
        <time>2019-05-16T17:18:42.903Z</time>
      </trkpt>
      <trkpt lat="39.194325" lon="-8.69344333">
        <ele>3.0</ele>
        <time>2019-05-16T17:18:43.907Z</time>
      </trkpt>
      <trkpt lat="39.194345" lon="-8.693445">
        <ele>5.0</ele>
        <time>2019-05-16T17:18:44.911Z</time>
      </trkpt>
      <trkpt lat="39.194345" lon="-8.693445">
        <ele>5.0</ele>
        <time>2019-05-16T17:18:45.903Z</time>
      </trkpt>
      <trkpt lat="39.19434833" lon="-8.693445">
        <ele>5.0</ele>
        <time>2019-05-16T17:18:46.906Z</time>
      </trkpt>
      <trkpt lat="39.19434833" lon="-8.693445">
        <ele>5.0</ele>
        <time>2019-05-16T17:18:47.903Z</time>
      </trkpt>
      <trkpt lat="39.19434833" lon="-8.69344667">
        <ele>5.0</ele>
        <time>2019-05-16T17:18:48.908Z</time>
      </trkpt>
      <trkpt lat="39.19434833" lon="-8.69344667">
        <ele>5.0</ele>
        <time>2019-05-16T17:18:49.912Z</time>
      </trkpt>
      <trkpt lat="39.19434833" lon="-8.69344667">
        <ele>5.0</ele>
        <time>2019-05-16T17:18:50.910Z</time>
      </trkpt>
      <trkpt lat="39.19434833" lon="-8.69344667">
        <ele>5.0</ele>
        <time>2019-05-16T17:18:51.903Z</time>
      </trkpt>
      <trkpt lat="39.19434833" lon="-8.69344667">
        <ele>5.0</ele>
        <time>2019-05-16T17:18:52.906Z</time>
      </trkpt>
      <trkpt lat="39.19434833" lon="-8.69344667">
        <ele>5.0</ele>
        <time>2019-05-16T17:18:53.903Z</time>
      </trkpt>
      <trkpt lat="39.19434833" lon="-8.69344667">
        <ele>5.0</ele>
        <time>2019-05-16T17:18:54.908Z</time>
      </trkpt>
      <trkpt lat="39.19434833" lon="-8.69344667">
        <ele>5.0</ele>
        <time>2019-05-16T17:18:55.900Z</time>
      </trkpt>
      <trkpt lat="39.19437833" lon="-8.69343167">
        <ele>5.0</ele>
        <time>2019-05-16T17:18:56.908Z</time>
      </trkpt>
      <trkpt lat="39.19437833" lon="-8.69343167">
        <ele>5.0</ele>
        <time>2019-05-16T17:18:57.904Z</time>
      </trkpt>
      <trkpt lat="39.19441833" lon="-8.693415">
        <ele>5.0</ele>
        <time>2019-05-16T17:18:58.908Z</time>
      </trkpt>
      <trkpt lat="39.19443833" lon="-8.6934">
        <ele>5.0</ele>
        <time>2019-05-16T17:18:59.909Z</time>
      </trkpt>
      <trkpt lat="39.19443833" lon="-8.6934">
        <ele>5.0</ele>
        <time>2019-05-16T17:19:00.903Z</time>
      </trkpt>
      <trkpt lat="39.19448833" lon="-8.69336667">
        <ele>5.0</ele>
        <time>2019-05-16T17:19:01.910Z</time>
      </trkpt>
      <trkpt lat="39.194515" lon="-8.693355">
        <ele>5.0</ele>
        <time>2019-05-16T17:19:02.918Z</time>
      </trkpt>
      <trkpt lat="39.194515" lon="-8.693355">
        <ele>5.0</ele>
        <time>2019-05-16T17:19:03.918Z</time>
      </trkpt>
      <trkpt lat="39.19455833" lon="-8.69333">
        <ele>5.0</ele>
        <time>2019-05-16T17:19:04.932Z</time>
      </trkpt>
      <trkpt lat="39.19455833" lon="-8.69333">
        <ele>5.0</ele>
        <time>2019-05-16T17:19:05.905Z</time>
      </trkpt>
      <trkpt lat="39.1946" lon="-8.69330667">
        <ele>5.0</ele>
        <time>2019-05-16T17:19:06.918Z</time>
      </trkpt>
      <trkpt lat="39.1946" lon="-8.69330667">
        <ele>5.0</ele>
        <time>2019-05-16T17:19:07.923Z</time>
      </trkpt>
      <trkpt lat="39.19464333" lon="-8.69327667">
        <ele>6.0</ele>
        <time>2019-05-16T17:19:08.908Z</time>
      </trkpt>
      <trkpt lat="39.19464333" lon="-8.69327667">
        <ele>6.0</ele>
        <time>2019-05-16T17:19:09.909Z</time>
      </trkpt>
      <trkpt lat="39.19469333" lon="-8.69324667">
        <ele>6.0</ele>
        <time>2019-05-16T17:19:10.934Z</time>
      </trkpt>
      <trkpt lat="39.19469333" lon="-8.69324667">
        <ele>6.0</ele>
        <time>2019-05-16T17:19:11.912Z</time>
      </trkpt>
      <trkpt lat="39.194745" lon="-8.69322167">
        <ele>6.0</ele>
        <time>2019-05-16T17:19:12.939Z</time>
      </trkpt>
      <trkpt lat="39.194745" lon="-8.69322167">
        <ele>6.0</ele>
        <time>2019-05-16T17:19:13.903Z</time>
      </trkpt>
      <trkpt lat="39.19479333" lon="-8.69319667">
        <ele>6.0</ele>
        <time>2019-05-16T17:19:14.932Z</time>
      </trkpt>
      <trkpt lat="39.19479333" lon="-8.69319667">
        <ele>6.0</ele>
        <time>2019-05-16T17:19:15.918Z</time>
      </trkpt>
      <trkpt lat="39.19484" lon="-8.69316833">
        <ele>6.0</ele>
        <time>2019-05-16T17:19:16.897Z</time>
      </trkpt>
      <trkpt lat="39.19484" lon="-8.69316833">
        <ele>6.0</ele>
        <time>2019-05-16T17:19:17.913Z</time>
      </trkpt>
      <trkpt lat="39.19488667" lon="-8.69314667">
        <ele>6.0</ele>
        <time>2019-05-16T17:19:18.936Z</time>
      </trkpt>
      <trkpt lat="39.19488667" lon="-8.69314667">
        <ele>6.0</ele>
        <time>2019-05-16T17:19:19.926Z</time>
      </trkpt>
      <trkpt lat="39.19493667" lon="-8.693125">
        <ele>6.0</ele>
        <time>2019-05-16T17:19:20.939Z</time>
      </trkpt>
      <trkpt lat="39.19493667" lon="-8.693125">
        <ele>6.0</ele>
        <time>2019-05-16T17:19:21.921Z</time>
      </trkpt>
      <trkpt lat="39.19498833" lon="-8.6931">
        <ele>6.0</ele>
        <time>2019-05-16T17:19:22.919Z</time>
      </trkpt>
      <trkpt lat="39.19498833" lon="-8.6931">
        <ele>6.0</ele>
        <time>2019-05-16T17:19:23.935Z</time>
      </trkpt>
      <trkpt lat="39.19504167" lon="-8.693075">
        <ele>6.0</ele>
        <time>2019-05-16T17:19:24.912Z</time>
      </trkpt>
      <trkpt lat="39.19504167" lon="-8.693075">
        <ele>6.0</ele>
        <time>2019-05-16T17:19:25.904Z</time>
      </trkpt>
      <trkpt lat="39.19509333" lon="-8.69304333">
        <ele>6.0</ele>
        <time>2019-05-16T17:19:26.912Z</time>
      </trkpt>
      <trkpt lat="39.19509333" lon="-8.69304333">
        <ele>6.0</ele>
        <time>2019-05-16T17:19:27.909Z</time>
      </trkpt>
      <trkpt lat="39.19514667" lon="-8.69301167">
        <ele>6.0</ele>
        <time>2019-05-16T17:19:28.924Z</time>
      </trkpt>
      <trkpt lat="39.19514667" lon="-8.69301167">
        <ele>6.0</ele>
        <time>2019-05-16T17:19:29.913Z</time>
      </trkpt>
      <trkpt lat="39.1952" lon="-8.692985">
        <ele>6.0</ele>
        <time>2019-05-16T17:19:30.936Z</time>
      </trkpt>
      <trkpt lat="39.1952" lon="-8.692985">
        <ele>6.0</ele>
        <time>2019-05-16T17:19:31.922Z</time>
      </trkpt>
      <trkpt lat="39.19525333" lon="-8.69295833">
        <ele>6.0</ele>
        <time>2019-05-16T17:19:32.942Z</time>
      </trkpt>
      <trkpt lat="39.19525333" lon="-8.69295833">
        <ele>6.0</ele>
        <time>2019-05-16T17:19:33.916Z</time>
      </trkpt>
      <trkpt lat="39.195305" lon="-8.692925">
        <ele>6.0</ele>
        <time>2019-05-16T17:19:34.903Z</time>
      </trkpt>
      <trkpt lat="39.19533167" lon="-8.69291">
        <ele>6.0</ele>
        <time>2019-05-16T17:19:35.897Z</time>
      </trkpt>
      <trkpt lat="39.19533167" lon="-8.69291">
        <ele>6.0</ele>
        <time>2019-05-16T17:19:36.923Z</time>
      </trkpt>
      <trkpt lat="39.19539" lon="-8.69288333">
        <ele>6.0</ele>
        <time>2019-05-16T17:19:37.911Z</time>
      </trkpt>
      <trkpt lat="39.195415" lon="-8.69286833">
        <ele>6.0</ele>
        <time>2019-05-16T17:19:38.935Z</time>
      </trkpt>
      <trkpt lat="39.195415" lon="-8.69286833">
        <ele>6.0</ele>
        <time>2019-05-16T17:19:39.929Z</time>
      </trkpt>
      <trkpt lat="39.19546" lon="-8.69284167">
        <ele>6.0</ele>
        <time>2019-05-16T17:19:40.908Z</time>
      </trkpt>
      <trkpt lat="39.19546" lon="-8.69284167">
        <ele>6.0</ele>
        <time>2019-05-16T17:19:41.902Z</time>
      </trkpt>
      <trkpt lat="39.19550667" lon="-8.69281667">
        <ele>6.0</ele>
        <time>2019-05-16T17:19:42.918Z</time>
      </trkpt>
      <trkpt lat="39.19550667" lon="-8.69281667">
        <ele>6.0</ele>
        <time>2019-05-16T17:19:43.921Z</time>
      </trkpt>
      <trkpt lat="39.19555333" lon="-8.69279167">
        <ele>6.0</ele>
        <time>2019-05-16T17:19:44.901Z</time>
      </trkpt>
      <trkpt lat="39.19557833" lon="-8.69277667">
        <ele>6.0</ele>
        <time>2019-05-16T17:19:45.914Z</time>
      </trkpt>
      <trkpt lat="39.19557833" lon="-8.69277667">
        <ele>6.0</ele>
        <time>2019-05-16T17:19:46.907Z</time>
      </trkpt>
      <trkpt lat="39.195625" lon="-8.69275">
        <ele>6.0</ele>
        <time>2019-05-16T17:19:47.931Z</time>
      </trkpt>
      <trkpt lat="39.195625" lon="-8.69275">
        <ele>6.0</ele>
        <time>2019-05-16T17:19:48.919Z</time>
      </trkpt>
      <trkpt lat="39.19568" lon="-8.69272333">
        <ele>5.0</ele>
        <time>2019-05-16T17:19:49.934Z</time>
      </trkpt>
      <trkpt lat="39.19570667" lon="-8.69271">
        <ele>6.0</ele>
        <time>2019-05-16T17:19:50.937Z</time>
      </trkpt>
      <trkpt lat="39.19570667" lon="-8.69271">
        <ele>6.0</ele>
        <time>2019-05-16T17:19:51.923Z</time>
      </trkpt>
      <trkpt lat="39.19575833" lon="-8.69268">
        <ele>6.0</ele>
        <time>2019-05-16T17:19:52.901Z</time>
      </trkpt>
      <trkpt lat="39.19575833" lon="-8.69268">
        <ele>6.0</ele>
        <time>2019-05-16T17:19:53.928Z</time>
      </trkpt>
      <trkpt lat="39.19580333" lon="-8.69265167">
        <ele>6.0</ele>
        <time>2019-05-16T17:19:54.908Z</time>
      </trkpt>
      <trkpt lat="39.19580333" lon="-8.69265167">
        <ele>6.0</ele>
        <time>2019-05-16T17:19:55.923Z</time>
      </trkpt>
      <trkpt lat="39.19585167" lon="-8.69262333">
        <ele>6.0</ele>
        <time>2019-05-16T17:19:56.939Z</time>
      </trkpt>
      <trkpt lat="39.19585167" lon="-8.69262333">
        <ele>6.0</ele>
        <time>2019-05-16T17:19:57.910Z</time>
      </trkpt>
      <trkpt lat="39.19590333" lon="-8.69259333">
        <ele>6.0</ele>
        <time>2019-05-16T17:19:58.927Z</time>
      </trkpt>
      <trkpt lat="39.19590333" lon="-8.69259333">
        <ele>6.0</ele>
        <time>2019-05-16T17:19:59.920Z</time>
      </trkpt>
      <trkpt lat="39.195955" lon="-8.69256">
        <ele>6.0</ele>
        <time>2019-05-16T17:20:00.911Z</time>
      </trkpt>
      <trkpt lat="39.195955" lon="-8.69256">
        <ele>6.0</ele>
        <time>2019-05-16T17:20:01.897Z</time>
      </trkpt>
      <trkpt lat="39.19601" lon="-8.69253333">
        <ele>6.0</ele>
        <time>2019-05-16T17:20:02.915Z</time>
      </trkpt>
      <trkpt lat="39.19601" lon="-8.69253333">
        <ele>6.0</ele>
        <time>2019-05-16T17:20:03.897Z</time>
      </trkpt>
      <trkpt lat="39.19606667" lon="-8.69249833">
        <ele>6.0</ele>
        <time>2019-05-16T17:20:04.923Z</time>
      </trkpt>
      <trkpt lat="39.19606667" lon="-8.69249833">
        <ele>6.0</ele>
        <time>2019-05-16T17:20:05.902Z</time>
      </trkpt>
      <trkpt lat="39.19612" lon="-8.69247">
        <ele>6.0</ele>
        <time>2019-05-16T17:20:06.923Z</time>
      </trkpt>
      <trkpt lat="39.19612" lon="-8.69247">
        <ele>6.0</ele>
        <time>2019-05-16T17:20:07.899Z</time>
      </trkpt>
      <trkpt lat="39.196175" lon="-8.69243833">
        <ele>6.0</ele>
        <time>2019-05-16T17:20:08.921Z</time>
      </trkpt>
      <trkpt lat="39.196175" lon="-8.69243833">
        <ele>6.0</ele>
        <time>2019-05-16T17:20:09.912Z</time>
      </trkpt>
      <trkpt lat="39.19623333" lon="-8.69240667">
        <ele>6.0</ele>
        <time>2019-05-16T17:20:10.935Z</time>
      </trkpt>
      <trkpt lat="39.19623333" lon="-8.69240667">
        <ele>6.0</ele>
        <time>2019-05-16T17:20:11.924Z</time>
      </trkpt>
      <trkpt lat="39.19628667" lon="-8.69237333">
        <ele>6.0</ele>
        <time>2019-05-16T17:20:12.910Z</time>
      </trkpt>
      <trkpt lat="39.19628667" lon="-8.69237333">
        <ele>6.0</ele>
        <time>2019-05-16T17:20:13.906Z</time>
      </trkpt>
      <trkpt lat="39.19634" lon="-8.692345">
        <ele>6.0</ele>
        <time>2019-05-16T17:20:14.924Z</time>
      </trkpt>
      <trkpt lat="39.19634" lon="-8.692345">
        <ele>6.0</ele>
        <time>2019-05-16T17:20:15.921Z</time>
      </trkpt>
      <trkpt lat="39.19639" lon="-8.69230833">
        <ele>6.0</ele>
        <time>2019-05-16T17:20:16.901Z</time>
      </trkpt>
      <trkpt lat="39.19639" lon="-8.69230833">
        <ele>6.0</ele>
        <time>2019-05-16T17:20:17.935Z</time>
      </trkpt>
      <trkpt lat="39.19644833" lon="-8.69227333">
        <ele>6.0</ele>
        <time>2019-05-16T17:20:18.911Z</time>
      </trkpt>
      <trkpt lat="39.19644833" lon="-8.69227333">
        <ele>6.0</ele>
        <time>2019-05-16T17:20:19.933Z</time>
      </trkpt>
      <trkpt lat="39.196505" lon="-8.69223167">
        <ele>6.0</ele>
        <time>2019-05-16T17:20:20.908Z</time>
      </trkpt>
      <trkpt lat="39.196505" lon="-8.69223167">
        <ele>6.0</ele>
        <time>2019-05-16T17:20:21.931Z</time>
      </trkpt>
      <trkpt lat="39.19655833" lon="-8.692195">
        <ele>6.0</ele>
        <time>2019-05-16T17:20:22.912Z</time>
      </trkpt>
      <trkpt lat="39.19655833" lon="-8.692195">
        <ele>6.0</ele>
        <time>2019-05-16T17:20:23.904Z</time>
      </trkpt>
      <trkpt lat="39.19660833" lon="-8.69216333">
        <ele>6.0</ele>
        <time>2019-05-16T17:20:24.921Z</time>
      </trkpt>
      <trkpt lat="39.19660833" lon="-8.69216333">
        <ele>6.0</ele>
        <time>2019-05-16T17:20:25.903Z</time>
      </trkpt>
      <trkpt lat="39.19666" lon="-8.69213">
        <ele>6.0</ele>
        <time>2019-05-16T17:20:26.922Z</time>
      </trkpt>
      <trkpt lat="39.19666" lon="-8.69213">
        <ele>6.0</ele>
        <time>2019-05-16T17:20:27.903Z</time>
      </trkpt>
      <trkpt lat="39.196715" lon="-8.69209667">
        <ele>6.0</ele>
        <time>2019-05-16T17:20:28.920Z</time>
      </trkpt>
      <trkpt lat="39.196715" lon="-8.69209667">
        <ele>6.0</ele>
        <time>2019-05-16T17:20:29.906Z</time>
      </trkpt>
      <trkpt lat="39.19676667" lon="-8.69206667">
        <ele>6.0</ele>
        <time>2019-05-16T17:20:30.919Z</time>
      </trkpt>
      <trkpt lat="39.19676667" lon="-8.69206667">
        <ele>6.0</ele>
        <time>2019-05-16T17:20:31.898Z</time>
      </trkpt>
      <trkpt lat="39.19682" lon="-8.69203">
        <ele>5.0</ele>
        <time>2019-05-16T17:20:32.922Z</time>
      </trkpt>
      <trkpt lat="39.19682" lon="-8.69203">
        <ele>5.0</ele>
        <time>2019-05-16T17:20:33.911Z</time>
      </trkpt>
      <trkpt lat="39.19687667" lon="-8.69199833">
        <ele>5.0</ele>
        <time>2019-05-16T17:20:34.901Z</time>
      </trkpt>
      <trkpt lat="39.19687667" lon="-8.69199833">
        <ele>5.0</ele>
        <time>2019-05-16T17:20:35.899Z</time>
      </trkpt>
      <trkpt lat="39.19693" lon="-8.69196333">
        <ele>5.0</ele>
        <time>2019-05-16T17:20:36.919Z</time>
      </trkpt>
      <trkpt lat="39.19693" lon="-8.69196333">
        <ele>5.0</ele>
        <time>2019-05-16T17:20:37.913Z</time>
      </trkpt>
      <trkpt lat="39.19698167" lon="-8.69193667">
        <ele>5.0</ele>
        <time>2019-05-16T17:20:38.902Z</time>
      </trkpt>
      <trkpt lat="39.19698167" lon="-8.69193667">
        <ele>5.0</ele>
        <time>2019-05-16T17:20:39.918Z</time>
      </trkpt>
      <trkpt lat="39.19703333" lon="-8.691905">
        <ele>5.0</ele>
        <time>2019-05-16T17:20:40.898Z</time>
      </trkpt>
      <trkpt lat="39.19703333" lon="-8.691905">
        <ele>5.0</ele>
        <time>2019-05-16T17:20:41.923Z</time>
      </trkpt>
      <trkpt lat="39.19709" lon="-8.69187167">
        <ele>5.0</ele>
        <time>2019-05-16T17:20:42.915Z</time>
      </trkpt>
      <trkpt lat="39.19709" lon="-8.69187167">
        <ele>5.0</ele>
        <time>2019-05-16T17:20:43.935Z</time>
      </trkpt>
      <trkpt lat="39.19714667" lon="-8.691835">
        <ele>6.0</ele>
        <time>2019-05-16T17:20:44.916Z</time>
      </trkpt>
      <trkpt lat="39.19714667" lon="-8.691835">
        <ele>6.0</ele>
        <time>2019-05-16T17:20:45.913Z</time>
      </trkpt>
      <trkpt lat="39.19720333" lon="-8.69180167">
        <ele>6.0</ele>
        <time>2019-05-16T17:20:46.931Z</time>
      </trkpt>
      <trkpt lat="39.19720333" lon="-8.69180167">
        <ele>6.0</ele>
        <time>2019-05-16T17:20:47.919Z</time>
      </trkpt>
      <trkpt lat="39.197255" lon="-8.69177">
        <ele>6.0</ele>
        <time>2019-05-16T17:20:48.900Z</time>
      </trkpt>
      <trkpt lat="39.197255" lon="-8.69177">
        <ele>6.0</ele>
        <time>2019-05-16T17:20:49.933Z</time>
      </trkpt>
      <trkpt lat="39.19731167" lon="-8.69173667">
        <ele>5.0</ele>
        <time>2019-05-16T17:20:50.909Z</time>
      </trkpt>
      <trkpt lat="39.19731167" lon="-8.69173667">
        <ele>5.0</ele>
        <time>2019-05-16T17:20:51.921Z</time>
      </trkpt>
      <trkpt lat="39.19737333" lon="-8.69170333">
        <ele>5.0</ele>
        <time>2019-05-16T17:20:52.938Z</time>
      </trkpt>
      <trkpt lat="39.19737333" lon="-8.69170333">
        <ele>5.0</ele>
        <time>2019-05-16T17:20:53.903Z</time>
      </trkpt>
      <trkpt lat="39.19743333" lon="-8.691665">
        <ele>5.0</ele>
        <time>2019-05-16T17:20:54.929Z</time>
      </trkpt>
      <trkpt lat="39.19743333" lon="-8.691665">
        <ele>5.0</ele>
        <time>2019-05-16T17:20:55.902Z</time>
      </trkpt>
      <trkpt lat="39.19749333" lon="-8.691625">
        <ele>5.0</ele>
        <time>2019-05-16T17:20:56.918Z</time>
      </trkpt>
      <trkpt lat="39.19749333" lon="-8.691625">
        <ele>5.0</ele>
        <time>2019-05-16T17:20:57.919Z</time>
      </trkpt>
      <trkpt lat="39.197555" lon="-8.69158667">
        <ele>5.0</ele>
        <time>2019-05-16T17:20:58.902Z</time>
      </trkpt>
      <trkpt lat="39.197555" lon="-8.69158667">
        <ele>5.0</ele>
        <time>2019-05-16T17:20:59.935Z</time>
      </trkpt>
      <trkpt lat="39.197615" lon="-8.69155167">
        <ele>5.0</ele>
        <time>2019-05-16T17:21:00.920Z</time>
      </trkpt>
      <trkpt lat="39.197615" lon="-8.69155167">
        <ele>5.0</ele>
        <time>2019-05-16T17:21:01.904Z</time>
      </trkpt>
      <trkpt lat="39.19767333" lon="-8.69150833">
        <ele>5.0</ele>
        <time>2019-05-16T17:21:02.920Z</time>
      </trkpt>
      <trkpt lat="39.19767333" lon="-8.69150833">
        <ele>5.0</ele>
        <time>2019-05-16T17:21:03.912Z</time>
      </trkpt>
      <trkpt lat="39.19773333" lon="-8.69147">
        <ele>5.0</ele>
        <time>2019-05-16T17:21:04.927Z</time>
      </trkpt>
      <trkpt lat="39.19773333" lon="-8.69147">
        <ele>5.0</ele>
        <time>2019-05-16T17:21:05.934Z</time>
      </trkpt>
      <trkpt lat="39.19779167" lon="-8.69143333">
        <ele>5.0</ele>
        <time>2019-05-16T17:21:06.921Z</time>
      </trkpt>
      <trkpt lat="39.19779167" lon="-8.69143333">
        <ele>5.0</ele>
        <time>2019-05-16T17:21:07.901Z</time>
      </trkpt>
      <trkpt lat="39.19785" lon="-8.69139333">
        <ele>5.0</ele>
        <time>2019-05-16T17:21:08.931Z</time>
      </trkpt>
      <trkpt lat="39.19785" lon="-8.69139333">
        <ele>5.0</ele>
        <time>2019-05-16T17:21:09.923Z</time>
      </trkpt>
      <trkpt lat="39.19791333" lon="-8.69135333">
        <ele>4.0</ele>
        <time>2019-05-16T17:21:10.921Z</time>
      </trkpt>
      <trkpt lat="39.19791333" lon="-8.69135333">
        <ele>4.0</ele>
        <time>2019-05-16T17:21:11.899Z</time>
      </trkpt>
      <trkpt lat="39.197975" lon="-8.69131167">
        <ele>4.0</ele>
        <time>2019-05-16T17:21:12.920Z</time>
      </trkpt>
      <trkpt lat="39.197975" lon="-8.69131167">
        <ele>4.0</ele>
        <time>2019-05-16T17:21:13.928Z</time>
      </trkpt>
      <trkpt lat="39.19803833" lon="-8.69127">
        <ele>4.0</ele>
        <time>2019-05-16T17:21:14.926Z</time>
      </trkpt>
      <trkpt lat="39.19803833" lon="-8.69127">
        <ele>4.0</ele>
        <time>2019-05-16T17:21:15.900Z</time>
      </trkpt>
      <trkpt lat="39.19810167" lon="-8.69123167">
        <ele>4.0</ele>
        <time>2019-05-16T17:21:16.919Z</time>
      </trkpt>
      <trkpt lat="39.19810167" lon="-8.69123167">
        <ele>4.0</ele>
        <time>2019-05-16T17:21:17.903Z</time>
      </trkpt>
      <trkpt lat="39.19816167" lon="-8.69119">
        <ele>4.0</ele>
        <time>2019-05-16T17:21:18.921Z</time>
      </trkpt>
      <trkpt lat="39.19816167" lon="-8.69119">
        <ele>4.0</ele>
        <time>2019-05-16T17:21:19.907Z</time>
      </trkpt>
      <trkpt lat="39.19822333" lon="-8.69115333">
        <ele>4.0</ele>
        <time>2019-05-16T17:21:20.914Z</time>
      </trkpt>
      <trkpt lat="39.19822333" lon="-8.69115333">
        <ele>4.0</ele>
        <time>2019-05-16T17:21:21.920Z</time>
      </trkpt>
      <trkpt lat="39.19828333" lon="-8.69111333">
        <ele>4.0</ele>
        <time>2019-05-16T17:21:22.939Z</time>
      </trkpt>
      <trkpt lat="39.19828333" lon="-8.69111333">
        <ele>4.0</ele>
        <time>2019-05-16T17:21:23.903Z</time>
      </trkpt>
      <trkpt lat="39.198345" lon="-8.691085">
        <ele>4.0</ele>
        <time>2019-05-16T17:21:24.924Z</time>
      </trkpt>
      <trkpt lat="39.198345" lon="-8.691085">
        <ele>4.0</ele>
        <time>2019-05-16T17:21:25.906Z</time>
      </trkpt>
      <trkpt lat="39.19840167" lon="-8.69106">
        <ele>4.0</ele>
        <time>2019-05-16T17:21:26.931Z</time>
      </trkpt>
      <trkpt lat="39.19840167" lon="-8.69106">
        <ele>4.0</ele>
        <time>2019-05-16T17:21:27.920Z</time>
      </trkpt>
      <trkpt lat="39.19846" lon="-8.69103167">
        <ele>4.0</ele>
        <time>2019-05-16T17:21:28.940Z</time>
      </trkpt>
      <trkpt lat="39.19846" lon="-8.69103167">
        <ele>4.0</ele>
        <time>2019-05-16T17:21:29.929Z</time>
      </trkpt>
      <trkpt lat="39.198515" lon="-8.69100833">
        <ele>4.0</ele>
        <time>2019-05-16T17:21:30.906Z</time>
      </trkpt>
      <trkpt lat="39.198515" lon="-8.69100833">
        <ele>4.0</ele>
        <time>2019-05-16T17:21:31.924Z</time>
      </trkpt>
      <trkpt lat="39.19857333" lon="-8.69097667">
        <ele>4.0</ele>
        <time>2019-05-16T17:21:32.897Z</time>
      </trkpt>
      <trkpt lat="39.19857333" lon="-8.69097667">
        <ele>4.0</ele>
        <time>2019-05-16T17:21:33.915Z</time>
      </trkpt>
      <trkpt lat="39.19863333" lon="-8.69095333">
        <ele>4.0</ele>
        <time>2019-05-16T17:21:34.934Z</time>
      </trkpt>
      <trkpt lat="39.19863333" lon="-8.69095333">
        <ele>4.0</ele>
        <time>2019-05-16T17:21:35.906Z</time>
      </trkpt>
      <trkpt lat="39.19868167" lon="-8.69093">
        <ele>4.0</ele>
        <time>2019-05-16T17:21:36.938Z</time>
      </trkpt>
      <trkpt lat="39.19868167" lon="-8.69093">
        <ele>4.0</ele>
        <time>2019-05-16T17:21:37.923Z</time>
      </trkpt>
      <trkpt lat="39.19873167" lon="-8.69091">
        <ele>4.0</ele>
        <time>2019-05-16T17:21:38.905Z</time>
      </trkpt>
      <trkpt lat="39.19873167" lon="-8.69091">
        <ele>4.0</ele>
        <time>2019-05-16T17:21:39.926Z</time>
      </trkpt>
      <trkpt lat="39.19879" lon="-8.69088333">
        <ele>4.0</ele>
        <time>2019-05-16T17:21:40.899Z</time>
      </trkpt>
      <trkpt lat="39.19879" lon="-8.69088333">
        <ele>4.0</ele>
        <time>2019-05-16T17:21:41.923Z</time>
      </trkpt>
      <trkpt lat="39.19884667" lon="-8.690855">
        <ele>4.0</ele>
        <time>2019-05-16T17:21:42.927Z</time>
      </trkpt>
      <trkpt lat="39.19884667" lon="-8.690855">
        <ele>4.0</ele>
        <time>2019-05-16T17:21:43.901Z</time>
      </trkpt>
      <trkpt lat="39.198905" lon="-8.69083">
        <ele>4.0</ele>
        <time>2019-05-16T17:21:44.921Z</time>
      </trkpt>
      <trkpt lat="39.198905" lon="-8.69083">
        <ele>4.0</ele>
        <time>2019-05-16T17:21:45.918Z</time>
      </trkpt>
      <trkpt lat="39.198965" lon="-8.690805">
        <ele>4.0</ele>
        <time>2019-05-16T17:21:46.936Z</time>
      </trkpt>
      <trkpt lat="39.198965" lon="-8.690805">
        <ele>4.0</ele>
        <time>2019-05-16T17:21:47.919Z</time>
      </trkpt>
      <trkpt lat="39.19901833" lon="-8.69077167">
        <ele>4.0</ele>
        <time>2019-05-16T17:21:48.902Z</time>
      </trkpt>
      <trkpt lat="39.19901833" lon="-8.69077167">
        <ele>4.0</ele>
        <time>2019-05-16T17:21:49.913Z</time>
      </trkpt>
      <trkpt lat="39.19907167" lon="-8.690735">
        <ele>4.0</ele>
        <time>2019-05-16T17:21:50.921Z</time>
      </trkpt>
      <trkpt lat="39.19907167" lon="-8.690735">
        <ele>4.0</ele>
        <time>2019-05-16T17:21:51.913Z</time>
      </trkpt>
      <trkpt lat="39.19912833" lon="-8.690705">
        <ele>5.0</ele>
        <time>2019-05-16T17:21:52.931Z</time>
      </trkpt>
      <trkpt lat="39.19912833" lon="-8.690705">
        <ele>5.0</ele>
        <time>2019-05-16T17:21:53.912Z</time>
      </trkpt>
      <trkpt lat="39.199185" lon="-8.69066833">
        <ele>5.0</ele>
        <time>2019-05-16T17:21:54.936Z</time>
      </trkpt>
      <trkpt lat="39.199185" lon="-8.69066833">
        <ele>5.0</ele>
        <time>2019-05-16T17:21:55.899Z</time>
      </trkpt>
      <trkpt lat="39.19924167" lon="-8.69063667">
        <ele>5.0</ele>
        <time>2019-05-16T17:21:56.937Z</time>
      </trkpt>
      <trkpt lat="39.19924167" lon="-8.69063667">
        <ele>5.0</ele>
        <time>2019-05-16T17:21:57.923Z</time>
      </trkpt>
      <trkpt lat="39.19929667" lon="-8.69060333">
        <ele>5.0</ele>
        <time>2019-05-16T17:21:58.916Z</time>
      </trkpt>
      <trkpt lat="39.19932667" lon="-8.69058">
        <ele>5.0</ele>
        <time>2019-05-16T17:21:59.931Z</time>
      </trkpt>
      <trkpt lat="39.19932667" lon="-8.69058">
        <ele>5.0</ele>
        <time>2019-05-16T17:22:00.911Z</time>
      </trkpt>
      <trkpt lat="39.19938" lon="-8.690535">
        <ele>5.0</ele>
        <time>2019-05-16T17:22:01.935Z</time>
      </trkpt>
      <trkpt lat="39.19940667" lon="-8.69051333">
        <ele>5.0</ele>
        <time>2019-05-16T17:22:02.924Z</time>
      </trkpt>
      <trkpt lat="39.19940667" lon="-8.69051333">
        <ele>5.0</ele>
        <time>2019-05-16T17:22:03.911Z</time>
      </trkpt>
      <trkpt lat="39.19945667" lon="-8.69047">
        <ele>5.0</ele>
        <time>2019-05-16T17:22:04.928Z</time>
      </trkpt>
      <trkpt lat="39.19945667" lon="-8.69047">
        <ele>5.0</ele>
        <time>2019-05-16T17:22:05.913Z</time>
      </trkpt>
      <trkpt lat="39.19950833" lon="-8.690425">
        <ele>5.0</ele>
        <time>2019-05-16T17:22:06.922Z</time>
      </trkpt>
      <trkpt lat="39.19950833" lon="-8.690425">
        <ele>5.0</ele>
        <time>2019-05-16T17:22:07.923Z</time>
      </trkpt>
      <trkpt lat="39.19955833" lon="-8.69037333">
        <ele>5.0</ele>
        <time>2019-05-16T17:22:08.898Z</time>
      </trkpt>
      <trkpt lat="39.19955833" lon="-8.69037333">
        <ele>5.0</ele>
        <time>2019-05-16T17:22:09.916Z</time>
      </trkpt>
      <trkpt lat="39.19961" lon="-8.69031833">
        <ele>5.0</ele>
        <time>2019-05-16T17:22:10.940Z</time>
      </trkpt>
      <trkpt lat="39.19961" lon="-8.69031833">
        <ele>5.0</ele>
        <time>2019-05-16T17:22:11.932Z</time>
      </trkpt>
      <trkpt lat="39.19965833" lon="-8.69027">
        <ele>4.0</ele>
        <time>2019-05-16T17:22:12.931Z</time>
      </trkpt>
      <trkpt lat="39.19965833" lon="-8.69027">
        <ele>4.0</ele>
        <time>2019-05-16T17:22:13.903Z</time>
      </trkpt>
      <trkpt lat="39.19970833" lon="-8.690215">
        <ele>5.0</ele>
        <time>2019-05-16T17:22:14.926Z</time>
      </trkpt>
      <trkpt lat="39.19970833" lon="-8.690215">
        <ele>5.0</ele>
        <time>2019-05-16T17:22:15.927Z</time>
      </trkpt>
      <trkpt lat="39.19975833" lon="-8.690155">
        <ele>5.0</ele>
        <time>2019-05-16T17:22:16.902Z</time>
      </trkpt>
      <trkpt lat="39.19975833" lon="-8.690155">
        <ele>5.0</ele>
        <time>2019-05-16T17:22:17.903Z</time>
      </trkpt>
      <trkpt lat="39.1998" lon="-8.69009333">
        <ele>5.0</ele>
        <time>2019-05-16T17:22:18.925Z</time>
      </trkpt>
      <trkpt lat="39.1998" lon="-8.69009333">
        <ele>5.0</ele>
        <time>2019-05-16T17:22:19.923Z</time>
      </trkpt>
      <trkpt lat="39.19984167" lon="-8.69003667">
        <ele>5.0</ele>
        <time>2019-05-16T17:22:20.964Z</time>
      </trkpt>
      <trkpt lat="39.19984167" lon="-8.69003667">
        <ele>5.0</ele>
        <time>2019-05-16T17:22:21.920Z</time>
      </trkpt>
      <trkpt lat="39.19988833" lon="-8.68997667">
        <ele>5.0</ele>
        <time>2019-05-16T17:22:22.936Z</time>
      </trkpt>
      <trkpt lat="39.19988833" lon="-8.68997667">
        <ele>5.0</ele>
        <time>2019-05-16T17:22:23.913Z</time>
      </trkpt>
      <trkpt lat="39.19993667" lon="-8.68991333">
        <ele>5.0</ele>
        <time>2019-05-16T17:22:24.931Z</time>
      </trkpt>
      <trkpt lat="39.19993667" lon="-8.68991333">
        <ele>5.0</ele>
        <time>2019-05-16T17:22:25.936Z</time>
      </trkpt>
      <trkpt lat="39.19998833" lon="-8.68985">
        <ele>5.0</ele>
        <time>2019-05-16T17:22:26.921Z</time>
      </trkpt>
      <trkpt lat="39.19998833" lon="-8.68985">
        <ele>5.0</ele>
        <time>2019-05-16T17:22:27.923Z</time>
      </trkpt>
      <trkpt lat="39.20004333" lon="-8.68979167">
        <ele>5.0</ele>
        <time>2019-05-16T17:22:28.920Z</time>
      </trkpt>
      <trkpt lat="39.20004333" lon="-8.68979167">
        <ele>5.0</ele>
        <time>2019-05-16T17:22:29.918Z</time>
      </trkpt>
      <trkpt lat="39.20009667" lon="-8.68972833">
        <ele>5.0</ele>
        <time>2019-05-16T17:22:30.897Z</time>
      </trkpt>
      <trkpt lat="39.20009667" lon="-8.68972833">
        <ele>5.0</ele>
        <time>2019-05-16T17:22:31.897Z</time>
      </trkpt>
      <trkpt lat="39.20015" lon="-8.68967167">
        <ele>5.0</ele>
        <time>2019-05-16T17:22:32.921Z</time>
      </trkpt>
      <trkpt lat="39.20015" lon="-8.68967167">
        <ele>5.0</ele>
        <time>2019-05-16T17:22:33.913Z</time>
      </trkpt>
      <trkpt lat="39.20019833" lon="-8.68961667">
        <ele>5.0</ele>
        <time>2019-05-16T17:22:34.940Z</time>
      </trkpt>
      <trkpt lat="39.20019833" lon="-8.68961667">
        <ele>5.0</ele>
        <time>2019-05-16T17:22:35.900Z</time>
      </trkpt>
      <trkpt lat="39.20024833" lon="-8.68956">
        <ele>5.0</ele>
        <time>2019-05-16T17:22:36.932Z</time>
      </trkpt>
      <trkpt lat="39.20024833" lon="-8.68956">
        <ele>5.0</ele>
        <time>2019-05-16T17:22:37.932Z</time>
      </trkpt>
      <trkpt lat="39.20029667" lon="-8.68949833">
        <ele>5.0</ele>
        <time>2019-05-16T17:22:38.909Z</time>
      </trkpt>
      <trkpt lat="39.20029667" lon="-8.68949833">
        <ele>5.0</ele>
        <time>2019-05-16T17:22:39.920Z</time>
      </trkpt>
      <trkpt lat="39.20034667" lon="-8.689435">
        <ele>5.0</ele>
        <time>2019-05-16T17:22:40.937Z</time>
      </trkpt>
      <trkpt lat="39.20034667" lon="-8.689435">
        <ele>5.0</ele>
        <time>2019-05-16T17:22:41.920Z</time>
      </trkpt>
      <trkpt lat="39.20039667" lon="-8.68936667">
        <ele>5.0</ele>
        <time>2019-05-16T17:22:42.899Z</time>
      </trkpt>
      <trkpt lat="39.20042167" lon="-8.68933167">
        <ele>5.0</ele>
        <time>2019-05-16T17:22:43.903Z</time>
      </trkpt>
      <trkpt lat="39.20044667" lon="-8.68929833">
        <ele>5.0</ele>
        <time>2019-05-16T17:22:44.922Z</time>
      </trkpt>
      <trkpt lat="39.20044667" lon="-8.68929833">
        <ele>5.0</ele>
        <time>2019-05-16T17:22:45.909Z</time>
      </trkpt>
      <trkpt lat="39.20049667" lon="-8.68923667">
        <ele>5.0</ele>
        <time>2019-05-16T17:22:46.926Z</time>
      </trkpt>
      <trkpt lat="39.20049667" lon="-8.68923667">
        <ele>5.0</ele>
        <time>2019-05-16T17:22:47.935Z</time>
      </trkpt>
      <trkpt lat="39.20054" lon="-8.68917833">
        <ele>5.0</ele>
        <time>2019-05-16T17:22:48.908Z</time>
      </trkpt>
      <trkpt lat="39.20054" lon="-8.68917833">
        <ele>5.0</ele>
        <time>2019-05-16T17:22:49.898Z</time>
      </trkpt>
      <trkpt lat="39.20059667" lon="-8.689115">
        <ele>5.0</ele>
        <time>2019-05-16T17:22:50.915Z</time>
      </trkpt>
      <trkpt lat="39.20059667" lon="-8.689115">
        <ele>5.0</ele>
        <time>2019-05-16T17:22:51.914Z</time>
      </trkpt>
      <trkpt lat="39.20064833" lon="-8.68905333">
        <ele>5.0</ele>
        <time>2019-05-16T17:22:52.929Z</time>
      </trkpt>
      <trkpt lat="39.20064833" lon="-8.68905333">
        <ele>5.0</ele>
        <time>2019-05-16T17:22:53.905Z</time>
      </trkpt>
      <trkpt lat="39.20069833" lon="-8.68899333">
        <ele>5.0</ele>
        <time>2019-05-16T17:22:54.931Z</time>
      </trkpt>
      <trkpt lat="39.20069833" lon="-8.68899333">
        <ele>5.0</ele>
        <time>2019-05-16T17:22:55.902Z</time>
      </trkpt>
      <trkpt lat="39.20075" lon="-8.68893333">
        <ele>5.0</ele>
        <time>2019-05-16T17:22:56.897Z</time>
      </trkpt>
      <trkpt lat="39.20075" lon="-8.68893333">
        <ele>5.0</ele>
        <time>2019-05-16T17:22:57.927Z</time>
      </trkpt>
      <trkpt lat="39.20079833" lon="-8.68887">
        <ele>5.0</ele>
        <time>2019-05-16T17:22:58.921Z</time>
      </trkpt>
      <trkpt lat="39.20079833" lon="-8.68887">
        <ele>5.0</ele>
        <time>2019-05-16T17:22:59.920Z</time>
      </trkpt>
      <trkpt lat="39.20085" lon="-8.688815">
        <ele>5.0</ele>
        <time>2019-05-16T17:23:00.897Z</time>
      </trkpt>
      <trkpt lat="39.20085" lon="-8.688815">
        <ele>5.0</ele>
        <time>2019-05-16T17:23:01.926Z</time>
      </trkpt>
      <trkpt lat="39.20089833" lon="-8.68876833">
        <ele>5.0</ele>
        <time>2019-05-16T17:23:02.913Z</time>
      </trkpt>
      <trkpt lat="39.20089833" lon="-8.68876833">
        <ele>5.0</ele>
        <time>2019-05-16T17:23:03.899Z</time>
      </trkpt>
      <trkpt lat="39.20094" lon="-8.68871667">
        <ele>5.0</ele>
        <time>2019-05-16T17:23:04.917Z</time>
      </trkpt>
      <trkpt lat="39.20094" lon="-8.68871667">
        <ele>5.0</ele>
        <time>2019-05-16T17:23:05.903Z</time>
      </trkpt>
      <trkpt lat="39.20098167" lon="-8.68867">
        <ele>5.0</ele>
        <time>2019-05-16T17:23:06.933Z</time>
      </trkpt>
      <trkpt lat="39.20098167" lon="-8.68867">
        <ele>5.0</ele>
        <time>2019-05-16T17:23:07.920Z</time>
      </trkpt>
      <trkpt lat="39.20102167" lon="-8.68862833">
        <ele>5.0</ele>
        <time>2019-05-16T17:23:08.901Z</time>
      </trkpt>
      <trkpt lat="39.20102167" lon="-8.68862833">
        <ele>5.0</ele>
        <time>2019-05-16T17:23:09.924Z</time>
      </trkpt>
      <trkpt lat="39.20108" lon="-8.68857">
        <ele>5.0</ele>
        <time>2019-05-16T17:23:10.911Z</time>
      </trkpt>
      <trkpt lat="39.20108" lon="-8.68857">
        <ele>5.0</ele>
        <time>2019-05-16T17:23:11.898Z</time>
      </trkpt>
      <trkpt lat="39.20114333" lon="-8.68850833">
        <ele>5.0</ele>
        <time>2019-05-16T17:23:12.921Z</time>
      </trkpt>
      <trkpt lat="39.20114333" lon="-8.68850833">
        <ele>5.0</ele>
        <time>2019-05-16T17:23:13.903Z</time>
      </trkpt>
      <trkpt lat="39.2012" lon="-8.688445">
        <ele>5.0</ele>
        <time>2019-05-16T17:23:14.918Z</time>
      </trkpt>
      <trkpt lat="39.2012" lon="-8.688445">
        <ele>5.0</ele>
        <time>2019-05-16T17:23:15.902Z</time>
      </trkpt>
      <trkpt lat="39.201255" lon="-8.68838167">
        <ele>5.0</ele>
        <time>2019-05-16T17:23:16.923Z</time>
      </trkpt>
      <trkpt lat="39.20128167" lon="-8.68835167">
        <ele>5.0</ele>
        <time>2019-05-16T17:23:17.931Z</time>
      </trkpt>
      <trkpt lat="39.20128167" lon="-8.68835167">
        <ele>5.0</ele>
        <time>2019-05-16T17:23:18.916Z</time>
      </trkpt>
      <trkpt lat="39.20133" lon="-8.68829333">
        <ele>5.0</ele>
        <time>2019-05-16T17:23:19.900Z</time>
      </trkpt>
      <trkpt lat="39.20133" lon="-8.68829333">
        <ele>5.0</ele>
        <time>2019-05-16T17:23:20.913Z</time>
      </trkpt>
      <trkpt lat="39.20137667" lon="-8.68823333">
        <ele>5.0</ele>
        <time>2019-05-16T17:23:21.917Z</time>
      </trkpt>
      <trkpt lat="39.2014" lon="-8.68820667">
        <ele>5.0</ele>
        <time>2019-05-16T17:23:22.898Z</time>
      </trkpt>
      <trkpt lat="39.2014" lon="-8.68820667">
        <ele>5.0</ele>
        <time>2019-05-16T17:23:23.908Z</time>
      </trkpt>
      <trkpt lat="39.20144" lon="-8.68814333">
        <ele>5.0</ele>
        <time>2019-05-16T17:23:24.935Z</time>
      </trkpt>
      <trkpt lat="39.20144" lon="-8.68814333">
        <ele>5.0</ele>
        <time>2019-05-16T17:23:25.903Z</time>
      </trkpt>
      <trkpt lat="39.20145167" lon="-8.68807333">
        <ele>5.0</ele>
        <time>2019-05-16T17:23:26.925Z</time>
      </trkpt>
      <trkpt lat="39.20144667" lon="-8.68803833">
        <ele>5.0</ele>
        <time>2019-05-16T17:23:27.923Z</time>
      </trkpt>
      <trkpt lat="39.20144667" lon="-8.68803833">
        <ele>5.0</ele>
        <time>2019-05-16T17:23:28.913Z</time>
      </trkpt>
      <trkpt lat="39.20142333" lon="-8.68797167">
        <ele>5.0</ele>
        <time>2019-05-16T17:23:29.933Z</time>
      </trkpt>
      <trkpt lat="39.20142333" lon="-8.68797167">
        <ele>5.0</ele>
        <time>2019-05-16T17:23:30.913Z</time>
      </trkpt>
      <trkpt lat="39.20138667" lon="-8.68792167">
        <ele>5.0</ele>
        <time>2019-05-16T17:23:31.935Z</time>
      </trkpt>
      <trkpt lat="39.20136833" lon="-8.68790167">
        <ele>5.0</ele>
        <time>2019-05-16T17:23:32.934Z</time>
      </trkpt>
      <trkpt lat="39.20136833" lon="-8.68790167">
        <ele>5.0</ele>
        <time>2019-05-16T17:23:33.913Z</time>
      </trkpt>
      <trkpt lat="39.20133667" lon="-8.68785833">
        <ele>5.0</ele>
        <time>2019-05-16T17:23:34.897Z</time>
      </trkpt>
      <trkpt lat="39.20133667" lon="-8.68785833">
        <ele>5.0</ele>
        <time>2019-05-16T17:23:35.930Z</time>
      </trkpt>
      <trkpt lat="39.20130833" lon="-8.687815">
        <ele>5.0</ele>
        <time>2019-05-16T17:23:36.915Z</time>
      </trkpt>
      <trkpt lat="39.201295" lon="-8.68779667">
        <ele>5.0</ele>
        <time>2019-05-16T17:23:37.914Z</time>
      </trkpt>
      <trkpt lat="39.20128167" lon="-8.687775">
        <ele>5.0</ele>
        <time>2019-05-16T17:23:38.921Z</time>
      </trkpt>
      <trkpt lat="39.20128167" lon="-8.687775">
        <ele>5.0</ele>
        <time>2019-05-16T17:23:39.900Z</time>
      </trkpt>
      <trkpt lat="39.201245" lon="-8.68772167">
        <ele>5.0</ele>
        <time>2019-05-16T17:23:40.926Z</time>
      </trkpt>
      <trkpt lat="39.201245" lon="-8.68772167">
        <ele>5.0</ele>
        <time>2019-05-16T17:23:41.936Z</time>
      </trkpt>
      <trkpt lat="39.20121" lon="-8.68766167">
        <ele>5.0</ele>
        <time>2019-05-16T17:23:42.919Z</time>
      </trkpt>
      <trkpt lat="39.201195" lon="-8.68763333">
        <ele>5.0</ele>
        <time>2019-05-16T17:23:43.914Z</time>
      </trkpt>
      <trkpt lat="39.20118" lon="-8.68760833">
        <ele>5.0</ele>
        <time>2019-05-16T17:23:44.932Z</time>
      </trkpt>
      <trkpt lat="39.20118" lon="-8.68760833">
        <ele>5.0</ele>
        <time>2019-05-16T17:23:45.900Z</time>
      </trkpt>
      <trkpt lat="39.20114833" lon="-8.68755667">
        <ele>5.0</ele>
        <time>2019-05-16T17:23:46.924Z</time>
      </trkpt>
      <trkpt lat="39.20114833" lon="-8.68755667">
        <ele>5.0</ele>
        <time>2019-05-16T17:23:47.909Z</time>
      </trkpt>
      <trkpt lat="39.20110667" lon="-8.68749667">
        <ele>5.0</ele>
        <time>2019-05-16T17:23:48.917Z</time>
      </trkpt>
      <trkpt lat="39.20110667" lon="-8.68749667">
        <ele>5.0</ele>
        <time>2019-05-16T17:23:49.918Z</time>
      </trkpt>
      <trkpt lat="39.20106833" lon="-8.68743833">
        <ele>5.0</ele>
        <time>2019-05-16T17:23:50.915Z</time>
      </trkpt>
      <trkpt lat="39.20106833" lon="-8.68743833">
        <ele>5.0</ele>
        <time>2019-05-16T17:23:51.934Z</time>
      </trkpt>
      <trkpt lat="39.201025" lon="-8.68739333">
        <ele>5.0</ele>
        <time>2019-05-16T17:23:52.911Z</time>
      </trkpt>
      <trkpt lat="39.201025" lon="-8.68739333">
        <ele>5.0</ele>
        <time>2019-05-16T17:23:53.913Z</time>
      </trkpt>
      <trkpt lat="39.201" lon="-8.68734167">
        <ele>5.0</ele>
        <time>2019-05-16T17:23:54.899Z</time>
      </trkpt>
      <trkpt lat="39.201" lon="-8.68734167">
        <ele>5.0</ele>
        <time>2019-05-16T17:23:55.911Z</time>
      </trkpt>
      <trkpt lat="39.20097333" lon="-8.68728167">
        <ele>6.0</ele>
        <time>2019-05-16T17:23:56.934Z</time>
      </trkpt>
      <trkpt lat="39.20097333" lon="-8.68728167">
        <ele>6.0</ele>
        <time>2019-05-16T17:23:57.914Z</time>
      </trkpt>
      <trkpt lat="39.20094333" lon="-8.68721167">
        <ele>6.0</ele>
        <time>2019-05-16T17:23:58.935Z</time>
      </trkpt>
      <trkpt lat="39.20094333" lon="-8.68721167">
        <ele>6.0</ele>
        <time>2019-05-16T17:23:59.903Z</time>
      </trkpt>
      <trkpt lat="39.20093" lon="-8.68715">
        <ele>6.0</ele>
        <time>2019-05-16T17:24:00.899Z</time>
      </trkpt>
      <trkpt lat="39.20093" lon="-8.68715">
        <ele>6.0</ele>
        <time>2019-05-16T17:24:01.912Z</time>
      </trkpt>
      <trkpt lat="39.20093" lon="-8.68710833">
        <ele>6.0</ele>
        <time>2019-05-16T17:24:02.941Z</time>
      </trkpt>
      <trkpt lat="39.20093" lon="-8.68710833">
        <ele>6.0</ele>
        <time>2019-05-16T17:24:03.899Z</time>
      </trkpt>
      <trkpt lat="39.20092333" lon="-8.6871">
        <ele>7.0</ele>
        <time>2019-05-16T17:24:04.914Z</time>
      </trkpt>
      <trkpt lat="39.20092333" lon="-8.6871">
        <ele>7.0</ele>
        <time>2019-05-16T17:24:05.902Z</time>
      </trkpt>
      <trkpt lat="39.20092167" lon="-8.68710333">
        <ele>6.0</ele>
        <time>2019-05-16T17:24:06.923Z</time>
      </trkpt>
      <trkpt lat="39.20092167" lon="-8.68710333">
        <ele>6.0</ele>
        <time>2019-05-16T17:24:07.904Z</time>
      </trkpt>
      <trkpt lat="39.20092167" lon="-8.68710333">
        <ele>6.0</ele>
        <time>2019-05-16T17:24:08.910Z</time>
      </trkpt>
      <trkpt lat="39.20092167" lon="-8.68710333">
        <ele>6.0</ele>
        <time>2019-05-16T17:24:09.917Z</time>
      </trkpt>
      <trkpt lat="39.20092167" lon="-8.68710333">
        <ele>6.0</ele>
        <time>2019-05-16T17:24:10.923Z</time>
      </trkpt>
      <trkpt lat="39.20092167" lon="-8.68710333">
        <ele>6.0</ele>
        <time>2019-05-16T17:24:11.922Z</time>
      </trkpt>
      <trkpt lat="39.20092167" lon="-8.68710333">
        <ele>6.0</ele>
        <time>2019-05-16T17:24:12.907Z</time>
      </trkpt>
      <trkpt lat="39.20094833" lon="-8.68707667">
        <ele>7.0</ele>
        <time>2019-05-16T17:24:13.909Z</time>
      </trkpt>
      <trkpt lat="39.20094833" lon="-8.68707667">
        <ele>7.0</ele>
        <time>2019-05-16T17:24:14.906Z</time>
      </trkpt>
      <trkpt lat="39.20099" lon="-8.68707333">
        <ele>7.0</ele>
        <time>2019-05-16T17:24:15.908Z</time>
      </trkpt>
      <trkpt lat="39.20099" lon="-8.68707333">
        <ele>7.0</ele>
        <time>2019-05-16T17:24:16.904Z</time>
      </trkpt>
      <trkpt lat="39.20102667" lon="-8.68709167">
        <ele>6.0</ele>
        <time>2019-05-16T17:24:17.909Z</time>
      </trkpt>
      <trkpt lat="39.20104167" lon="-8.687095">
        <ele>6.0</ele>
        <time>2019-05-16T17:24:18.909Z</time>
      </trkpt>
      <trkpt lat="39.20104167" lon="-8.687095">
        <ele>6.0</ele>
        <time>2019-05-16T17:24:19.904Z</time>
      </trkpt>
      <trkpt lat="39.201075" lon="-8.68709833">
        <ele>6.0</ele>
        <time>2019-05-16T17:24:20.898Z</time>
      </trkpt>
      <trkpt lat="39.201075" lon="-8.68709833">
        <ele>6.0</ele>
        <time>2019-05-16T17:24:21.902Z</time>
      </trkpt>
      <trkpt lat="39.20110667" lon="-8.68711">
        <ele>6.0</ele>
        <time>2019-05-16T17:24:22.924Z</time>
      </trkpt>
      <trkpt lat="39.20110667" lon="-8.68711">
        <ele>6.0</ele>
        <time>2019-05-16T17:24:23.909Z</time>
      </trkpt>
      <trkpt lat="39.20113333" lon="-8.68711667">
        <ele>6.0</ele>
        <time>2019-05-16T17:24:24.924Z</time>
      </trkpt>
      <trkpt lat="39.20114667" lon="-8.68712">
        <ele>6.0</ele>
        <time>2019-05-16T17:24:25.944Z</time>
      </trkpt>
      <trkpt lat="39.201165" lon="-8.687125">
        <ele>6.0</ele>
        <time>2019-05-16T17:24:26.908Z</time>
      </trkpt>
      <trkpt lat="39.201165" lon="-8.687125">
        <ele>6.0</ele>
        <time>2019-05-16T17:24:27.913Z</time>
      </trkpt>
      <trkpt lat="39.20120333" lon="-8.68713667">
        <ele>7.0</ele>
        <time>2019-05-16T17:24:28.901Z</time>
      </trkpt>
      <trkpt lat="39.20120333" lon="-8.68713667">
        <ele>7.0</ele>
        <time>2019-05-16T17:24:29.903Z</time>
      </trkpt>
      <trkpt lat="39.201255" lon="-8.68715167">
        <ele>6.0</ele>
        <time>2019-05-16T17:24:30.933Z</time>
      </trkpt>
      <trkpt lat="39.201255" lon="-8.68715167">
        <ele>6.0</ele>
        <time>2019-05-16T17:24:31.923Z</time>
      </trkpt>
      <trkpt lat="39.201325" lon="-8.68716667">
        <ele>6.0</ele>
        <time>2019-05-16T17:24:32.898Z</time>
      </trkpt>
      <trkpt lat="39.201325" lon="-8.68716667">
        <ele>6.0</ele>
        <time>2019-05-16T17:24:33.923Z</time>
      </trkpt>
      <trkpt lat="39.2014" lon="-8.68718167">
        <ele>6.0</ele>
        <time>2019-05-16T17:24:34.912Z</time>
      </trkpt>
      <trkpt lat="39.2014" lon="-8.68718167">
        <ele>6.0</ele>
        <time>2019-05-16T17:24:35.935Z</time>
      </trkpt>
      <trkpt lat="39.20146833" lon="-8.6872">
        <ele>6.0</ele>
        <time>2019-05-16T17:24:36.900Z</time>
      </trkpt>
      <trkpt lat="39.20146833" lon="-8.6872">
        <ele>6.0</ele>
        <time>2019-05-16T17:24:37.899Z</time>
      </trkpt>
      <trkpt lat="39.20154" lon="-8.687215">
        <ele>6.0</ele>
        <time>2019-05-16T17:24:38.922Z</time>
      </trkpt>
      <trkpt lat="39.20154" lon="-8.687215">
        <ele>6.0</ele>
        <time>2019-05-16T17:24:39.898Z</time>
      </trkpt>
      <trkpt lat="39.20161" lon="-8.68722833">
        <ele>6.0</ele>
        <time>2019-05-16T17:24:40.913Z</time>
      </trkpt>
      <trkpt lat="39.20161" lon="-8.68722833">
        <ele>6.0</ele>
        <time>2019-05-16T17:24:41.912Z</time>
      </trkpt>
      <trkpt lat="39.201675" lon="-8.68724167">
        <ele>6.0</ele>
        <time>2019-05-16T17:24:42.927Z</time>
      </trkpt>
      <trkpt lat="39.201675" lon="-8.68724167">
        <ele>6.0</ele>
        <time>2019-05-16T17:24:43.913Z</time>
      </trkpt>
      <trkpt lat="39.201735" lon="-8.68724833">
        <ele>6.0</ele>
        <time>2019-05-16T17:24:44.938Z</time>
      </trkpt>
      <trkpt lat="39.201735" lon="-8.68724833">
        <ele>6.0</ele>
        <time>2019-05-16T17:24:45.936Z</time>
      </trkpt>
      <trkpt lat="39.20179" lon="-8.687255">
        <ele>6.0</ele>
        <time>2019-05-16T17:24:46.910Z</time>
      </trkpt>
      <trkpt lat="39.20179" lon="-8.687255">
        <ele>6.0</ele>
        <time>2019-05-16T17:24:47.935Z</time>
      </trkpt>
      <trkpt lat="39.20184333" lon="-8.68725667">
        <ele>6.0</ele>
        <time>2019-05-16T17:24:48.921Z</time>
      </trkpt>
      <trkpt lat="39.20187167" lon="-8.68725833">
        <ele>6.0</ele>
        <time>2019-05-16T17:24:49.918Z</time>
      </trkpt>
      <trkpt lat="39.2019" lon="-8.68726">
        <ele>6.0</ele>
        <time>2019-05-16T17:24:50.921Z</time>
      </trkpt>
      <trkpt lat="39.2019" lon="-8.68726">
        <ele>6.0</ele>
        <time>2019-05-16T17:24:51.901Z</time>
      </trkpt>
      <trkpt lat="39.20196" lon="-8.68726667">
        <ele>6.0</ele>
        <time>2019-05-16T17:24:52.927Z</time>
      </trkpt>
      <trkpt lat="39.20196" lon="-8.68726667">
        <ele>6.0</ele>
        <time>2019-05-16T17:24:53.932Z</time>
      </trkpt>
      <trkpt lat="39.20202667" lon="-8.68727">
        <ele>6.0</ele>
        <time>2019-05-16T17:24:55.028Z</time>
      </trkpt>
      <trkpt lat="39.20202667" lon="-8.68727">
        <ele>6.0</ele>
        <time>2019-05-16T17:24:55.916Z</time>
      </trkpt>
      <trkpt lat="39.20209167" lon="-8.68727333">
        <ele>6.0</ele>
        <time>2019-05-16T17:24:56.934Z</time>
      </trkpt>
      <trkpt lat="39.20209167" lon="-8.68727333">
        <ele>6.0</ele>
        <time>2019-05-16T17:24:57.927Z</time>
      </trkpt>
      <trkpt lat="39.20216167" lon="-8.68727667">
        <ele>6.0</ele>
        <time>2019-05-16T17:24:58.909Z</time>
      </trkpt>
      <trkpt lat="39.20216167" lon="-8.68727667">
        <ele>6.0</ele>
        <time>2019-05-16T17:24:59.905Z</time>
      </trkpt>
      <trkpt lat="39.20223333" lon="-8.68728167">
        <ele>6.0</ele>
        <time>2019-05-16T17:25:00.937Z</time>
      </trkpt>
      <trkpt lat="39.20226833" lon="-8.68728333">
        <ele>6.0</ele>
        <time>2019-05-16T17:25:01.911Z</time>
      </trkpt>
      <trkpt lat="39.20230333" lon="-8.68728333">
        <ele>7.0</ele>
        <time>2019-05-16T17:25:02.917Z</time>
      </trkpt>
      <trkpt lat="39.20230333" lon="-8.68728333">
        <ele>7.0</ele>
        <time>2019-05-16T17:25:03.908Z</time>
      </trkpt>
      <trkpt lat="39.20237333" lon="-8.68728333">
        <ele>7.0</ele>
        <time>2019-05-16T17:25:04.941Z</time>
      </trkpt>
      <trkpt lat="39.20237333" lon="-8.68728333">
        <ele>7.0</ele>
        <time>2019-05-16T17:25:05.909Z</time>
      </trkpt>
      <trkpt lat="39.20244333" lon="-8.68728667">
        <ele>7.0</ele>
        <time>2019-05-16T17:25:06.934Z</time>
      </trkpt>
      <trkpt lat="39.20244333" lon="-8.68728667">
        <ele>7.0</ele>
        <time>2019-05-16T17:25:07.917Z</time>
      </trkpt>
      <trkpt lat="39.20251167" lon="-8.68729167">
        <ele>8.0</ele>
        <time>2019-05-16T17:25:08.916Z</time>
      </trkpt>
      <trkpt lat="39.20251167" lon="-8.68729167">
        <ele>8.0</ele>
        <time>2019-05-16T17:25:09.902Z</time>
      </trkpt>
      <trkpt lat="39.20257833" lon="-8.68728833">
        <ele>9.0</ele>
        <time>2019-05-16T17:25:10.929Z</time>
      </trkpt>
      <trkpt lat="39.20261167" lon="-8.68729">
        <ele>9.0</ele>
        <time>2019-05-16T17:25:11.931Z</time>
      </trkpt>
      <trkpt lat="39.20261167" lon="-8.68729">
        <ele>9.0</ele>
        <time>2019-05-16T17:25:12.914Z</time>
      </trkpt>
      <trkpt lat="39.20268333" lon="-8.687295">
        <ele>10.0</ele>
        <time>2019-05-16T17:25:13.899Z</time>
      </trkpt>
      <trkpt lat="39.20271667" lon="-8.6873">
        <ele>10.0</ele>
        <time>2019-05-16T17:25:14.903Z</time>
      </trkpt>
      <trkpt lat="39.20271667" lon="-8.6873">
        <ele>10.0</ele>
        <time>2019-05-16T17:25:15.913Z</time>
      </trkpt>
      <trkpt lat="39.20278333" lon="-8.68730833">
        <ele>10.0</ele>
        <time>2019-05-16T17:25:16.897Z</time>
      </trkpt>
      <trkpt lat="39.20278333" lon="-8.68730833">
        <ele>10.0</ele>
        <time>2019-05-16T17:25:17.933Z</time>
      </trkpt>
      <trkpt lat="39.20285167" lon="-8.68731833">
        <ele>10.0</ele>
        <time>2019-05-16T17:25:18.914Z</time>
      </trkpt>
      <trkpt lat="39.20285167" lon="-8.68731833">
        <ele>10.0</ele>
        <time>2019-05-16T17:25:19.910Z</time>
      </trkpt>
      <trkpt lat="39.20291667" lon="-8.68731833">
        <ele>10.0</ele>
        <time>2019-05-16T17:25:20.936Z</time>
      </trkpt>
      <trkpt lat="39.20291667" lon="-8.68731833">
        <ele>10.0</ele>
        <time>2019-05-16T17:25:21.913Z</time>
      </trkpt>
      <trkpt lat="39.20297667" lon="-8.68732333">
        <ele>10.0</ele>
        <time>2019-05-16T17:25:22.897Z</time>
      </trkpt>
      <trkpt lat="39.20297667" lon="-8.68732333">
        <ele>10.0</ele>
        <time>2019-05-16T17:25:23.913Z</time>
      </trkpt>
      <trkpt lat="39.203045" lon="-8.68732167">
        <ele>10.0</ele>
        <time>2019-05-16T17:25:24.934Z</time>
      </trkpt>
      <trkpt lat="39.20307833" lon="-8.68732">
        <ele>10.0</ele>
        <time>2019-05-16T17:25:25.901Z</time>
      </trkpt>
      <trkpt lat="39.20311167" lon="-8.68731833">
        <ele>10.0</ele>
        <time>2019-05-16T17:25:26.936Z</time>
      </trkpt>
      <trkpt lat="39.20311167" lon="-8.68731833">
        <ele>10.0</ele>
        <time>2019-05-16T17:25:27.934Z</time>
      </trkpt>
      <trkpt lat="39.20317833" lon="-8.68732167">
        <ele>10.0</ele>
        <time>2019-05-16T17:25:28.919Z</time>
      </trkpt>
      <trkpt lat="39.20317833" lon="-8.68732167">
        <ele>10.0</ele>
        <time>2019-05-16T17:25:29.901Z</time>
      </trkpt>
      <trkpt lat="39.20325" lon="-8.687325">
        <ele>10.0</ele>
        <time>2019-05-16T17:25:30.930Z</time>
      </trkpt>
      <trkpt lat="39.20325" lon="-8.687325">
        <ele>10.0</ele>
        <time>2019-05-16T17:25:31.932Z</time>
      </trkpt>
      <trkpt lat="39.20331833" lon="-8.68732833">
        <ele>11.0</ele>
        <time>2019-05-16T17:25:32.909Z</time>
      </trkpt>
      <trkpt lat="39.20331833" lon="-8.68732833">
        <ele>11.0</ele>
        <time>2019-05-16T17:25:33.903Z</time>
      </trkpt>
      <trkpt lat="39.20338833" lon="-8.68733333">
        <ele>12.0</ele>
        <time>2019-05-16T17:25:34.901Z</time>
      </trkpt>
      <trkpt lat="39.20338833" lon="-8.68733333">
        <ele>12.0</ele>
        <time>2019-05-16T17:25:35.912Z</time>
      </trkpt>
      <trkpt lat="39.20346167" lon="-8.68733833">
        <ele>11.0</ele>
        <time>2019-05-16T17:25:36.933Z</time>
      </trkpt>
      <trkpt lat="39.20346167" lon="-8.68733833">
        <ele>11.0</ele>
        <time>2019-05-16T17:25:37.936Z</time>
      </trkpt>
      <trkpt lat="39.20353333" lon="-8.68734167">
        <ele>11.0</ele>
        <time>2019-05-16T17:25:38.912Z</time>
      </trkpt>
      <trkpt lat="39.20353333" lon="-8.68734167">
        <ele>11.0</ele>
        <time>2019-05-16T17:25:39.913Z</time>
      </trkpt>
      <trkpt lat="39.20360667" lon="-8.68734333">
        <ele>11.0</ele>
        <time>2019-05-16T17:25:40.930Z</time>
      </trkpt>
      <trkpt lat="39.20360667" lon="-8.68734333">
        <ele>11.0</ele>
        <time>2019-05-16T17:25:41.927Z</time>
      </trkpt>
      <trkpt lat="39.20368167" lon="-8.687345">
        <ele>11.0</ele>
        <time>2019-05-16T17:25:42.917Z</time>
      </trkpt>
      <trkpt lat="39.20372" lon="-8.687345">
        <ele>11.0</ele>
        <time>2019-05-16T17:25:43.928Z</time>
      </trkpt>
      <trkpt lat="39.203755" lon="-8.68734333">
        <ele>11.0</ele>
        <time>2019-05-16T17:25:44.898Z</time>
      </trkpt>
      <trkpt lat="39.203755" lon="-8.68734333">
        <ele>11.0</ele>
        <time>2019-05-16T17:25:45.917Z</time>
      </trkpt>
      <trkpt lat="39.20382667" lon="-8.687335">
        <ele>11.0</ele>
        <time>2019-05-16T17:25:46.936Z</time>
      </trkpt>
      <trkpt lat="39.20382667" lon="-8.687335">
        <ele>11.0</ele>
        <time>2019-05-16T17:25:47.918Z</time>
      </trkpt>
      <trkpt lat="39.2039" lon="-8.68731833">
        <ele>11.0</ele>
        <time>2019-05-16T17:25:48.932Z</time>
      </trkpt>
      <trkpt lat="39.2039" lon="-8.68731833">
        <ele>11.0</ele>
        <time>2019-05-16T17:25:49.923Z</time>
      </trkpt>
      <trkpt lat="39.20397333" lon="-8.68729833">
        <ele>11.0</ele>
        <time>2019-05-16T17:25:50.901Z</time>
      </trkpt>
      <trkpt lat="39.20397333" lon="-8.68729833">
        <ele>11.0</ele>
        <time>2019-05-16T17:25:51.909Z</time>
      </trkpt>
      <trkpt lat="39.20404333" lon="-8.68727">
        <ele>11.0</ele>
        <time>2019-05-16T17:25:52.939Z</time>
      </trkpt>
      <trkpt lat="39.20404333" lon="-8.68727">
        <ele>11.0</ele>
        <time>2019-05-16T17:25:53.900Z</time>
      </trkpt>
      <trkpt lat="39.204115" lon="-8.68723667">
        <ele>10.0</ele>
        <time>2019-05-16T17:25:54.918Z</time>
      </trkpt>
      <trkpt lat="39.204115" lon="-8.68723667">
        <ele>10.0</ele>
        <time>2019-05-16T17:25:55.911Z</time>
      </trkpt>
      <trkpt lat="39.204185" lon="-8.68720333">
        <ele>10.0</ele>
        <time>2019-05-16T17:25:56.932Z</time>
      </trkpt>
      <trkpt lat="39.204185" lon="-8.68720333">
        <ele>10.0</ele>
        <time>2019-05-16T17:25:57.928Z</time>
      </trkpt>
      <trkpt lat="39.20425667" lon="-8.68717167">
        <ele>10.0</ele>
        <time>2019-05-16T17:25:58.910Z</time>
      </trkpt>
      <trkpt lat="39.20425667" lon="-8.68717167">
        <ele>10.0</ele>
        <time>2019-05-16T17:25:59.898Z</time>
      </trkpt>
      <trkpt lat="39.20432833" lon="-8.68714">
        <ele>10.0</ele>
        <time>2019-05-16T17:26:00.916Z</time>
      </trkpt>
      <trkpt lat="39.20432833" lon="-8.68714">
        <ele>10.0</ele>
        <time>2019-05-16T17:26:01.935Z</time>
      </trkpt>
      <trkpt lat="39.2044" lon="-8.68711">
        <ele>11.0</ele>
        <time>2019-05-16T17:26:02.917Z</time>
      </trkpt>
      <trkpt lat="39.2044" lon="-8.68711">
        <ele>11.0</ele>
        <time>2019-05-16T17:26:03.909Z</time>
      </trkpt>
      <trkpt lat="39.20447" lon="-8.68708">
        <ele>11.0</ele>
        <time>2019-05-16T17:26:04.926Z</time>
      </trkpt>
      <trkpt lat="39.20450667" lon="-8.687065">
        <ele>11.0</ele>
        <time>2019-05-16T17:26:05.928Z</time>
      </trkpt>
      <trkpt lat="39.20450667" lon="-8.687065">
        <ele>11.0</ele>
        <time>2019-05-16T17:26:06.902Z</time>
      </trkpt>
      <trkpt lat="39.20457667" lon="-8.687035">
        <ele>11.0</ele>
        <time>2019-05-16T17:26:07.919Z</time>
      </trkpt>
      <trkpt lat="39.20461333" lon="-8.68702">
        <ele>10.0</ele>
        <time>2019-05-16T17:26:08.915Z</time>
      </trkpt>
      <trkpt lat="39.20461333" lon="-8.68702">
        <ele>10.0</ele>
        <time>2019-05-16T17:26:09.905Z</time>
      </trkpt>
      <trkpt lat="39.204685" lon="-8.68698833">
        <ele>10.0</ele>
        <time>2019-05-16T17:26:10.925Z</time>
      </trkpt>
      <trkpt lat="39.204685" lon="-8.68698833">
        <ele>10.0</ele>
        <time>2019-05-16T17:26:11.913Z</time>
      </trkpt>
      <trkpt lat="39.20475667" lon="-8.68696">
        <ele>10.0</ele>
        <time>2019-05-16T17:26:12.927Z</time>
      </trkpt>
      <trkpt lat="39.20475667" lon="-8.68696">
        <ele>10.0</ele>
        <time>2019-05-16T17:26:13.923Z</time>
      </trkpt>
      <trkpt lat="39.20482833" lon="-8.68693">
        <ele>10.0</ele>
        <time>2019-05-16T17:26:14.901Z</time>
      </trkpt>
      <trkpt lat="39.20482833" lon="-8.68693">
        <ele>10.0</ele>
        <time>2019-05-16T17:26:15.924Z</time>
      </trkpt>
      <trkpt lat="39.20489667" lon="-8.68689833">
        <ele>10.0</ele>
        <time>2019-05-16T17:26:16.909Z</time>
      </trkpt>
      <trkpt lat="39.20489667" lon="-8.68689833">
        <ele>10.0</ele>
        <time>2019-05-16T17:26:17.903Z</time>
      </trkpt>
      <trkpt lat="39.20496833" lon="-8.68686667">
        <ele>10.0</ele>
        <time>2019-05-16T17:26:18.925Z</time>
      </trkpt>
      <trkpt lat="39.20500333" lon="-8.68685167">
        <ele>10.0</ele>
        <time>2019-05-16T17:26:19.915Z</time>
      </trkpt>
      <trkpt lat="39.20500333" lon="-8.68685167">
        <ele>10.0</ele>
        <time>2019-05-16T17:26:20.930Z</time>
      </trkpt>
      <trkpt lat="39.20507667" lon="-8.68682">
        <ele>10.0</ele>
        <time>2019-05-16T17:26:21.919Z</time>
      </trkpt>
      <trkpt lat="39.20507667" lon="-8.68682">
        <ele>10.0</ele>
        <time>2019-05-16T17:26:22.930Z</time>
      </trkpt>
      <trkpt lat="39.20514833" lon="-8.68678833">
        <ele>10.0</ele>
        <time>2019-05-16T17:26:23.922Z</time>
      </trkpt>
      <trkpt lat="39.20514833" lon="-8.68678833">
        <ele>10.0</ele>
        <time>2019-05-16T17:26:24.902Z</time>
      </trkpt>
      <trkpt lat="39.20521833" lon="-8.68675667">
        <ele>10.0</ele>
        <time>2019-05-16T17:26:25.923Z</time>
      </trkpt>
      <trkpt lat="39.20525333" lon="-8.68674167">
        <ele>10.0</ele>
        <time>2019-05-16T17:26:26.913Z</time>
      </trkpt>
      <trkpt lat="39.20525333" lon="-8.68674167">
        <ele>10.0</ele>
        <time>2019-05-16T17:26:27.905Z</time>
      </trkpt>
      <trkpt lat="39.205325" lon="-8.68670833">
        <ele>10.0</ele>
        <time>2019-05-16T17:26:28.936Z</time>
      </trkpt>
      <trkpt lat="39.205325" lon="-8.68670833">
        <ele>10.0</ele>
        <time>2019-05-16T17:26:29.924Z</time>
      </trkpt>
      <trkpt lat="39.20539833" lon="-8.68667667">
        <ele>10.0</ele>
        <time>2019-05-16T17:26:30.912Z</time>
      </trkpt>
      <trkpt lat="39.20543333" lon="-8.68666167">
        <ele>10.0</ele>
        <time>2019-05-16T17:26:31.935Z</time>
      </trkpt>
      <trkpt lat="39.20546833" lon="-8.68664667">
        <ele>10.0</ele>
        <time>2019-05-16T17:26:32.935Z</time>
      </trkpt>
      <trkpt lat="39.20546833" lon="-8.68664667">
        <ele>10.0</ele>
        <time>2019-05-16T17:26:33.923Z</time>
      </trkpt>
      <trkpt lat="39.20553333" lon="-8.68662167">
        <ele>10.0</ele>
        <time>2019-05-16T17:26:34.905Z</time>
      </trkpt>
      <trkpt lat="39.20553333" lon="-8.68662167">
        <ele>10.0</ele>
        <time>2019-05-16T17:26:35.898Z</time>
      </trkpt>
      <trkpt lat="39.2056" lon="-8.68659167">
        <ele>10.0</ele>
        <time>2019-05-16T17:26:36.913Z</time>
      </trkpt>
      <trkpt lat="39.2056" lon="-8.68659167">
        <ele>10.0</ele>
        <time>2019-05-16T17:26:37.897Z</time>
      </trkpt>
      <trkpt lat="39.20566833" lon="-8.686565">
        <ele>10.0</ele>
        <time>2019-05-16T17:26:38.927Z</time>
      </trkpt>
      <trkpt lat="39.20566833" lon="-8.686565">
        <ele>10.0</ele>
        <time>2019-05-16T17:26:39.901Z</time>
      </trkpt>
      <trkpt lat="39.20574" lon="-8.68653333">
        <ele>10.0</ele>
        <time>2019-05-16T17:26:40.923Z</time>
      </trkpt>
      <trkpt lat="39.20574" lon="-8.68653333">
        <ele>10.0</ele>
        <time>2019-05-16T17:26:41.898Z</time>
      </trkpt>
      <trkpt lat="39.20581333" lon="-8.6865">
        <ele>9.0</ele>
        <time>2019-05-16T17:26:42.931Z</time>
      </trkpt>
      <trkpt lat="39.20581333" lon="-8.6865">
        <ele>9.0</ele>
        <time>2019-05-16T17:26:43.929Z</time>
      </trkpt>
      <trkpt lat="39.205885" lon="-8.68646833">
        <ele>10.0</ele>
        <time>2019-05-16T17:26:44.916Z</time>
      </trkpt>
      <trkpt lat="39.205885" lon="-8.68646833">
        <ele>10.0</ele>
        <time>2019-05-16T17:26:45.909Z</time>
      </trkpt>
      <trkpt lat="39.205955" lon="-8.68643833">
        <ele>10.0</ele>
        <time>2019-05-16T17:26:46.936Z</time>
      </trkpt>
      <trkpt lat="39.205955" lon="-8.68643833">
        <ele>10.0</ele>
        <time>2019-05-16T17:26:47.924Z</time>
      </trkpt>
      <trkpt lat="39.20602667" lon="-8.68640833">
        <ele>10.0</ele>
        <time>2019-05-16T17:26:48.918Z</time>
      </trkpt>
      <trkpt lat="39.20606333" lon="-8.68639333">
        <ele>10.0</ele>
        <time>2019-05-16T17:26:49.922Z</time>
      </trkpt>
      <trkpt lat="39.20610167" lon="-8.68637667">
        <ele>10.0</ele>
        <time>2019-05-16T17:26:50.908Z</time>
      </trkpt>
      <trkpt lat="39.20610167" lon="-8.68637667">
        <ele>10.0</ele>
        <time>2019-05-16T17:26:51.921Z</time>
      </trkpt>
      <trkpt lat="39.20617333" lon="-8.686345">
        <ele>9.0</ele>
        <time>2019-05-16T17:26:52.897Z</time>
      </trkpt>
      <trkpt lat="39.20617333" lon="-8.686345">
        <ele>9.0</ele>
        <time>2019-05-16T17:26:53.913Z</time>
      </trkpt>
      <trkpt lat="39.20624833" lon="-8.68631333">
        <ele>9.0</ele>
        <time>2019-05-16T17:26:54.941Z</time>
      </trkpt>
      <trkpt lat="39.20624833" lon="-8.68631333">
        <ele>9.0</ele>
        <time>2019-05-16T17:26:55.913Z</time>
      </trkpt>
      <trkpt lat="39.20632" lon="-8.68628">
        <ele>9.0</ele>
        <time>2019-05-16T17:26:57.020Z</time>
      </trkpt>
      <trkpt lat="39.20632" lon="-8.68628">
        <ele>9.0</ele>
        <time>2019-05-16T17:26:57.903Z</time>
      </trkpt>
      <trkpt lat="39.20639333" lon="-8.68624833">
        <ele>9.0</ele>
        <time>2019-05-16T17:26:58.897Z</time>
      </trkpt>
      <trkpt lat="39.20642833" lon="-8.68623333">
        <ele>9.0</ele>
        <time>2019-05-16T17:26:59.917Z</time>
      </trkpt>
      <trkpt lat="39.206465" lon="-8.68621833">
        <ele>9.0</ele>
        <time>2019-05-16T17:27:00.933Z</time>
      </trkpt>
      <trkpt lat="39.206465" lon="-8.68621833">
        <ele>9.0</ele>
        <time>2019-05-16T17:27:01.913Z</time>
      </trkpt>
      <trkpt lat="39.20654" lon="-8.68619">
        <ele>9.0</ele>
        <time>2019-05-16T17:27:02.906Z</time>
      </trkpt>
      <trkpt lat="39.20654" lon="-8.68619">
        <ele>9.0</ele>
        <time>2019-05-16T17:27:03.930Z</time>
      </trkpt>
      <trkpt lat="39.20661333" lon="-8.68615667">
        <ele>9.0</ele>
        <time>2019-05-16T17:27:04.921Z</time>
      </trkpt>
      <trkpt lat="39.20661333" lon="-8.68615667">
        <ele>9.0</ele>
        <time>2019-05-16T17:27:05.904Z</time>
      </trkpt>
      <trkpt lat="39.20669" lon="-8.68612333">
        <ele>9.0</ele>
        <time>2019-05-16T17:27:06.897Z</time>
      </trkpt>
      <trkpt lat="39.20669" lon="-8.68612333">
        <ele>9.0</ele>
        <time>2019-05-16T17:27:07.917Z</time>
      </trkpt>
      <trkpt lat="39.20676667" lon="-8.68608667">
        <ele>8.0</ele>
        <time>2019-05-16T17:27:08.902Z</time>
      </trkpt>
      <trkpt lat="39.20680667" lon="-8.68606833">
        <ele>8.0</ele>
        <time>2019-05-16T17:27:09.909Z</time>
      </trkpt>
      <trkpt lat="39.20684333" lon="-8.68605167">
        <ele>8.0</ele>
        <time>2019-05-16T17:27:10.900Z</time>
      </trkpt>
      <trkpt lat="39.20684333" lon="-8.68605167">
        <ele>8.0</ele>
        <time>2019-05-16T17:27:11.904Z</time>
      </trkpt>
      <trkpt lat="39.20691833" lon="-8.68601833">
        <ele>8.0</ele>
        <time>2019-05-16T17:27:12.920Z</time>
      </trkpt>
      <trkpt lat="39.20691833" lon="-8.68601833">
        <ele>8.0</ele>
        <time>2019-05-16T17:27:13.914Z</time>
      </trkpt>
      <trkpt lat="39.20699333" lon="-8.68598333">
        <ele>8.0</ele>
        <time>2019-05-16T17:27:14.936Z</time>
      </trkpt>
      <trkpt lat="39.20699333" lon="-8.68598333">
        <ele>8.0</ele>
        <time>2019-05-16T17:27:15.927Z</time>
      </trkpt>
      <trkpt lat="39.20706833" lon="-8.68595">
        <ele>8.0</ele>
        <time>2019-05-16T17:27:16.904Z</time>
      </trkpt>
      <trkpt lat="39.20710667" lon="-8.685935">
        <ele>8.0</ele>
        <time>2019-05-16T17:27:17.923Z</time>
      </trkpt>
      <trkpt lat="39.20710667" lon="-8.685935">
        <ele>8.0</ele>
        <time>2019-05-16T17:27:18.923Z</time>
      </trkpt>
      <trkpt lat="39.207175" lon="-8.68590333">
        <ele>8.0</ele>
        <time>2019-05-16T17:27:19.936Z</time>
      </trkpt>
      <trkpt lat="39.20721167" lon="-8.68588667">
        <ele>8.0</ele>
        <time>2019-05-16T17:27:20.911Z</time>
      </trkpt>
      <trkpt lat="39.20721167" lon="-8.68588667">
        <ele>8.0</ele>
        <time>2019-05-16T17:27:21.909Z</time>
      </trkpt>
      <trkpt lat="39.20728667" lon="-8.68585667">
        <ele>7.0</ele>
        <time>2019-05-16T17:27:22.911Z</time>
      </trkpt>
      <trkpt lat="39.20728667" lon="-8.68585667">
        <ele>7.0</ele>
        <time>2019-05-16T17:27:23.914Z</time>
      </trkpt>
      <trkpt lat="39.20736167" lon="-8.68582333">
        <ele>7.0</ele>
        <time>2019-05-16T17:27:24.905Z</time>
      </trkpt>
      <trkpt lat="39.20736167" lon="-8.68582333">
        <ele>7.0</ele>
        <time>2019-05-16T17:27:25.926Z</time>
      </trkpt>
      <trkpt lat="39.20743667" lon="-8.68579167">
        <ele>7.0</ele>
        <time>2019-05-16T17:27:26.910Z</time>
      </trkpt>
      <trkpt lat="39.20743667" lon="-8.68579167">
        <ele>7.0</ele>
        <time>2019-05-16T17:27:27.919Z</time>
      </trkpt>
      <trkpt lat="39.20751" lon="-8.68575833">
        <ele>7.0</ele>
        <time>2019-05-16T17:27:28.900Z</time>
      </trkpt>
      <trkpt lat="39.20751" lon="-8.68575833">
        <ele>7.0</ele>
        <time>2019-05-16T17:27:29.930Z</time>
      </trkpt>
      <trkpt lat="39.20758333" lon="-8.68572667">
        <ele>7.0</ele>
        <time>2019-05-16T17:27:30.921Z</time>
      </trkpt>
      <trkpt lat="39.20762" lon="-8.68570833">
        <ele>7.0</ele>
        <time>2019-05-16T17:27:31.898Z</time>
      </trkpt>
      <trkpt lat="39.20762" lon="-8.68570833">
        <ele>7.0</ele>
        <time>2019-05-16T17:27:32.926Z</time>
      </trkpt>
      <trkpt lat="39.20769333" lon="-8.685675">
        <ele>7.0</ele>
        <time>2019-05-16T17:27:33.927Z</time>
      </trkpt>
      <trkpt lat="39.20769333" lon="-8.685675">
        <ele>7.0</ele>
        <time>2019-05-16T17:27:34.903Z</time>
      </trkpt>
      <trkpt lat="39.20776667" lon="-8.68564167">
        <ele>7.0</ele>
        <time>2019-05-16T17:27:35.928Z</time>
      </trkpt>
      <trkpt lat="39.207805" lon="-8.685625">
        <ele>7.0</ele>
        <time>2019-05-16T17:27:36.923Z</time>
      </trkpt>
      <trkpt lat="39.207805" lon="-8.685625">
        <ele>7.0</ele>
        <time>2019-05-16T17:27:37.914Z</time>
      </trkpt>
      <trkpt lat="39.20787833" lon="-8.685595">
        <ele>7.0</ele>
        <time>2019-05-16T17:27:38.936Z</time>
      </trkpt>
      <trkpt lat="39.20787833" lon="-8.685595">
        <ele>7.0</ele>
        <time>2019-05-16T17:27:39.899Z</time>
      </trkpt>
      <trkpt lat="39.20795167" lon="-8.68556167">
        <ele>7.0</ele>
        <time>2019-05-16T17:27:40.921Z</time>
      </trkpt>
      <trkpt lat="39.20795167" lon="-8.68556167">
        <ele>7.0</ele>
        <time>2019-05-16T17:27:41.923Z</time>
      </trkpt>
      <trkpt lat="39.20802333" lon="-8.68552833">
        <ele>7.0</ele>
        <time>2019-05-16T17:27:42.900Z</time>
      </trkpt>
      <trkpt lat="39.20802333" lon="-8.68552833">
        <ele>7.0</ele>
        <time>2019-05-16T17:27:43.897Z</time>
      </trkpt>
      <trkpt lat="39.20809833" lon="-8.685495">
        <ele>7.0</ele>
        <time>2019-05-16T17:27:44.922Z</time>
      </trkpt>
      <trkpt lat="39.20809833" lon="-8.685495">
        <ele>7.0</ele>
        <time>2019-05-16T17:27:45.911Z</time>
      </trkpt>
      <trkpt lat="39.20817167" lon="-8.68546333">
        <ele>6.0</ele>
        <time>2019-05-16T17:27:46.931Z</time>
      </trkpt>
      <trkpt lat="39.20817167" lon="-8.68546333">
        <ele>6.0</ele>
        <time>2019-05-16T17:27:47.920Z</time>
      </trkpt>
      <trkpt lat="39.20824833" lon="-8.68543167">
        <ele>6.0</ele>
        <time>2019-05-16T17:27:48.911Z</time>
      </trkpt>
      <trkpt lat="39.208285" lon="-8.685415">
        <ele>6.0</ele>
        <time>2019-05-16T17:27:49.901Z</time>
      </trkpt>
      <trkpt lat="39.20832333" lon="-8.6854">
        <ele>6.0</ele>
        <time>2019-05-16T17:27:50.922Z</time>
      </trkpt>
      <trkpt lat="39.20832333" lon="-8.6854">
        <ele>6.0</ele>
        <time>2019-05-16T17:27:51.899Z</time>
      </trkpt>
      <trkpt lat="39.20840167" lon="-8.68536833">
        <ele>6.0</ele>
        <time>2019-05-16T17:27:52.917Z</time>
      </trkpt>
      <trkpt lat="39.20840167" lon="-8.68536833">
        <ele>6.0</ele>
        <time>2019-05-16T17:27:53.906Z</time>
      </trkpt>
      <trkpt lat="39.20847667" lon="-8.68533667">
        <ele>6.0</ele>
        <time>2019-05-16T17:27:54.907Z</time>
      </trkpt>
      <trkpt lat="39.20847667" lon="-8.68533667">
        <ele>6.0</ele>
        <time>2019-05-16T17:27:55.923Z</time>
      </trkpt>
      <trkpt lat="39.20855167" lon="-8.68530333">
        <ele>6.0</ele>
        <time>2019-05-16T17:27:56.905Z</time>
      </trkpt>
      <trkpt lat="39.20855167" lon="-8.68530333">
        <ele>6.0</ele>
        <time>2019-05-16T17:27:57.922Z</time>
      </trkpt>
      <trkpt lat="39.208625" lon="-8.68527">
        <ele>6.0</ele>
        <time>2019-05-16T17:27:58.901Z</time>
      </trkpt>
      <trkpt lat="39.208625" lon="-8.68527">
        <ele>6.0</ele>
        <time>2019-05-16T17:27:59.929Z</time>
      </trkpt>
      <trkpt lat="39.20870167" lon="-8.685235">
        <ele>6.0</ele>
        <time>2019-05-16T17:28:00.912Z</time>
      </trkpt>
      <trkpt lat="39.20870167" lon="-8.685235">
        <ele>6.0</ele>
        <time>2019-05-16T17:28:01.928Z</time>
      </trkpt>
      <trkpt lat="39.20878" lon="-8.68520167">
        <ele>6.0</ele>
        <time>2019-05-16T17:28:02.911Z</time>
      </trkpt>
      <trkpt lat="39.20878" lon="-8.68520167">
        <ele>6.0</ele>
        <time>2019-05-16T17:28:03.909Z</time>
      </trkpt>
      <trkpt lat="39.20885667" lon="-8.68516667">
        <ele>6.0</ele>
        <time>2019-05-16T17:28:04.920Z</time>
      </trkpt>
      <trkpt lat="39.20885667" lon="-8.68516667">
        <ele>6.0</ele>
        <time>2019-05-16T17:28:05.935Z</time>
      </trkpt>
      <trkpt lat="39.20893" lon="-8.68513333">
        <ele>6.0</ele>
        <time>2019-05-16T17:28:06.910Z</time>
      </trkpt>
      <trkpt lat="39.20893" lon="-8.68513333">
        <ele>6.0</ele>
        <time>2019-05-16T17:28:07.927Z</time>
      </trkpt>
      <trkpt lat="39.20900167" lon="-8.68510333">
        <ele>6.0</ele>
        <time>2019-05-16T17:28:08.903Z</time>
      </trkpt>
      <trkpt lat="39.20900167" lon="-8.68510333">
        <ele>6.0</ele>
        <time>2019-05-16T17:28:09.936Z</time>
      </trkpt>
      <trkpt lat="39.209075" lon="-8.68507333">
        <ele>6.0</ele>
        <time>2019-05-16T17:28:10.917Z</time>
      </trkpt>
      <trkpt lat="39.209075" lon="-8.68507333">
        <ele>6.0</ele>
        <time>2019-05-16T17:28:11.936Z</time>
      </trkpt>
      <trkpt lat="39.209145" lon="-8.68504167">
        <ele>6.0</ele>
        <time>2019-05-16T17:28:12.919Z</time>
      </trkpt>
      <trkpt lat="39.209145" lon="-8.68504167">
        <ele>6.0</ele>
        <time>2019-05-16T17:28:13.904Z</time>
      </trkpt>
      <trkpt lat="39.20921667" lon="-8.68500833">
        <ele>6.0</ele>
        <time>2019-05-16T17:28:14.923Z</time>
      </trkpt>
      <trkpt lat="39.20921667" lon="-8.68500833">
        <ele>6.0</ele>
        <time>2019-05-16T17:28:15.911Z</time>
      </trkpt>
      <trkpt lat="39.20928833" lon="-8.68497833">
        <ele>6.0</ele>
        <time>2019-05-16T17:28:16.933Z</time>
      </trkpt>
      <trkpt lat="39.20928833" lon="-8.68497833">
        <ele>6.0</ele>
        <time>2019-05-16T17:28:17.929Z</time>
      </trkpt>
      <trkpt lat="39.20936167" lon="-8.68494833">
        <ele>6.0</ele>
        <time>2019-05-16T17:28:18.919Z</time>
      </trkpt>
      <trkpt lat="39.20936167" lon="-8.68494833">
        <ele>6.0</ele>
        <time>2019-05-16T17:28:19.922Z</time>
      </trkpt>
      <trkpt lat="39.20943167" lon="-8.68491667">
        <ele>6.0</ele>
        <time>2019-05-16T17:28:20.920Z</time>
      </trkpt>
      <trkpt lat="39.20943167" lon="-8.68491667">
        <ele>6.0</ele>
        <time>2019-05-16T17:28:21.936Z</time>
      </trkpt>
      <trkpt lat="39.2095" lon="-8.68488833">
        <ele>6.0</ele>
        <time>2019-05-16T17:28:22.913Z</time>
      </trkpt>
      <trkpt lat="39.2095" lon="-8.68488833">
        <ele>6.0</ele>
        <time>2019-05-16T17:28:23.928Z</time>
      </trkpt>
      <trkpt lat="39.20956167" lon="-8.68486167">
        <ele>6.0</ele>
        <time>2019-05-16T17:28:24.919Z</time>
      </trkpt>
      <trkpt lat="39.20959667" lon="-8.684845">
        <ele>6.0</ele>
        <time>2019-05-16T17:28:25.897Z</time>
      </trkpt>
      <trkpt lat="39.20963" lon="-8.68483">
        <ele>7.0</ele>
        <time>2019-05-16T17:28:26.901Z</time>
      </trkpt>
      <trkpt lat="39.20963" lon="-8.68483">
        <ele>7.0</ele>
        <time>2019-05-16T17:28:27.925Z</time>
      </trkpt>
      <trkpt lat="39.209695" lon="-8.68480333">
        <ele>7.0</ele>
        <time>2019-05-16T17:28:28.911Z</time>
      </trkpt>
      <trkpt lat="39.209695" lon="-8.68480333">
        <ele>7.0</ele>
        <time>2019-05-16T17:28:29.897Z</time>
      </trkpt>
      <trkpt lat="39.209765" lon="-8.68477167">
        <ele>6.0</ele>
        <time>2019-05-16T17:28:30.931Z</time>
      </trkpt>
      <trkpt lat="39.209765" lon="-8.68477167">
        <ele>6.0</ele>
        <time>2019-05-16T17:28:31.917Z</time>
      </trkpt>
      <trkpt lat="39.209835" lon="-8.68474167">
        <ele>7.0</ele>
        <time>2019-05-16T17:28:32.935Z</time>
      </trkpt>
      <trkpt lat="39.209835" lon="-8.68474167">
        <ele>7.0</ele>
        <time>2019-05-16T17:28:33.934Z</time>
      </trkpt>
      <trkpt lat="39.20991" lon="-8.68471167">
        <ele>7.0</ele>
        <time>2019-05-16T17:28:34.913Z</time>
      </trkpt>
      <trkpt lat="39.20991" lon="-8.68471167">
        <ele>7.0</ele>
        <time>2019-05-16T17:28:35.909Z</time>
      </trkpt>
      <trkpt lat="39.209985" lon="-8.68467833">
        <ele>6.0</ele>
        <time>2019-05-16T17:28:36.925Z</time>
      </trkpt>
      <trkpt lat="39.21002333" lon="-8.68465833">
        <ele>7.0</ele>
        <time>2019-05-16T17:28:37.919Z</time>
      </trkpt>
      <trkpt lat="39.21002333" lon="-8.68465833">
        <ele>7.0</ele>
        <time>2019-05-16T17:28:38.923Z</time>
      </trkpt>
      <trkpt lat="39.2101" lon="-8.68462167">
        <ele>7.0</ele>
        <time>2019-05-16T17:28:39.911Z</time>
      </trkpt>
      <trkpt lat="39.21013667" lon="-8.68460333">
        <ele>7.0</ele>
        <time>2019-05-16T17:28:40.920Z</time>
      </trkpt>
      <trkpt lat="39.21013667" lon="-8.68460333">
        <ele>7.0</ele>
        <time>2019-05-16T17:28:41.913Z</time>
      </trkpt>
      <trkpt lat="39.21020667" lon="-8.68454833">
        <ele>7.0</ele>
        <time>2019-05-16T17:28:42.925Z</time>
      </trkpt>
      <trkpt lat="39.21020667" lon="-8.68454833">
        <ele>7.0</ele>
        <time>2019-05-16T17:28:43.933Z</time>
      </trkpt>
      <trkpt lat="39.21026833" lon="-8.68448167">
        <ele>7.0</ele>
        <time>2019-05-16T17:28:44.913Z</time>
      </trkpt>
      <trkpt lat="39.21026833" lon="-8.68448167">
        <ele>7.0</ele>
        <time>2019-05-16T17:28:45.936Z</time>
      </trkpt>
      <trkpt lat="39.21032667" lon="-8.68441">
        <ele>7.0</ele>
        <time>2019-05-16T17:28:46.916Z</time>
      </trkpt>
      <trkpt lat="39.21032667" lon="-8.68441">
        <ele>7.0</ele>
        <time>2019-05-16T17:28:47.912Z</time>
      </trkpt>
      <trkpt lat="39.210385" lon="-8.68433667">
        <ele>7.0</ele>
        <time>2019-05-16T17:28:49.021Z</time>
      </trkpt>
      <trkpt lat="39.210385" lon="-8.68433667">
        <ele>7.0</ele>
        <time>2019-05-16T17:28:49.917Z</time>
      </trkpt>
      <trkpt lat="39.21044167" lon="-8.684265">
        <ele>7.0</ele>
        <time>2019-05-16T17:28:50.899Z</time>
      </trkpt>
      <trkpt lat="39.21044167" lon="-8.684265">
        <ele>7.0</ele>
        <time>2019-05-16T17:28:51.903Z</time>
      </trkpt>
      <trkpt lat="39.21049833" lon="-8.68418833">
        <ele>7.0</ele>
        <time>2019-05-16T17:28:52.920Z</time>
      </trkpt>
      <trkpt lat="39.21049833" lon="-8.68418833">
        <ele>7.0</ele>
        <time>2019-05-16T17:28:53.927Z</time>
      </trkpt>
      <trkpt lat="39.21055667" lon="-8.68411333">
        <ele>8.0</ele>
        <time>2019-05-16T17:28:54.923Z</time>
      </trkpt>
      <trkpt lat="39.21055667" lon="-8.68411333">
        <ele>8.0</ele>
        <time>2019-05-16T17:28:55.927Z</time>
      </trkpt>
      <trkpt lat="39.21061333" lon="-8.68403833">
        <ele>8.0</ele>
        <time>2019-05-16T17:28:56.921Z</time>
      </trkpt>
      <trkpt lat="39.21061333" lon="-8.68403833">
        <ele>8.0</ele>
        <time>2019-05-16T17:28:57.908Z</time>
      </trkpt>
      <trkpt lat="39.21067" lon="-8.68396667">
        <ele>8.0</ele>
        <time>2019-05-16T17:28:58.924Z</time>
      </trkpt>
      <trkpt lat="39.21069833" lon="-8.68393167">
        <ele>8.0</ele>
        <time>2019-05-16T17:28:59.911Z</time>
      </trkpt>
      <trkpt lat="39.21069833" lon="-8.68393167">
        <ele>8.0</ele>
        <time>2019-05-16T17:29:00.902Z</time>
      </trkpt>
      <trkpt lat="39.21075333" lon="-8.68385833">
        <ele>8.0</ele>
        <time>2019-05-16T17:29:01.934Z</time>
      </trkpt>
      <trkpt lat="39.21075333" lon="-8.68385833">
        <ele>8.0</ele>
        <time>2019-05-16T17:29:02.933Z</time>
      </trkpt>
      <trkpt lat="39.21081" lon="-8.683785">
        <ele>8.0</ele>
        <time>2019-05-16T17:29:03.910Z</time>
      </trkpt>
      <trkpt lat="39.21081" lon="-8.683785">
        <ele>8.0</ele>
        <time>2019-05-16T17:29:04.935Z</time>
      </trkpt>
      <trkpt lat="39.21086833" lon="-8.683715">
        <ele>7.0</ele>
        <time>2019-05-16T17:29:05.920Z</time>
      </trkpt>
      <trkpt lat="39.21086833" lon="-8.683715">
        <ele>7.0</ele>
        <time>2019-05-16T17:29:06.898Z</time>
      </trkpt>
      <trkpt lat="39.210925" lon="-8.683645">
        <ele>7.0</ele>
        <time>2019-05-16T17:29:07.926Z</time>
      </trkpt>
      <trkpt lat="39.21095333" lon="-8.68360833">
        <ele>7.0</ele>
        <time>2019-05-16T17:29:08.930Z</time>
      </trkpt>
      <trkpt lat="39.21095333" lon="-8.68360833">
        <ele>7.0</ele>
        <time>2019-05-16T17:29:09.909Z</time>
      </trkpt>
      <trkpt lat="39.21100833" lon="-8.68353833">
        <ele>7.0</ele>
        <time>2019-05-16T17:29:10.904Z</time>
      </trkpt>
      <trkpt lat="39.21100833" lon="-8.68353833">
        <ele>7.0</ele>
        <time>2019-05-16T17:29:11.919Z</time>
      </trkpt>
      <trkpt lat="39.21106167" lon="-8.68347">
        <ele>7.0</ele>
        <time>2019-05-16T17:29:12.897Z</time>
      </trkpt>
      <trkpt lat="39.21106167" lon="-8.68347">
        <ele>7.0</ele>
        <time>2019-05-16T17:29:13.898Z</time>
      </trkpt>
      <trkpt lat="39.21111833" lon="-8.68340167">
        <ele>7.0</ele>
        <time>2019-05-16T17:29:14.925Z</time>
      </trkpt>
      <trkpt lat="39.21111833" lon="-8.68340167">
        <ele>7.0</ele>
        <time>2019-05-16T17:29:15.936Z</time>
      </trkpt>
      <trkpt lat="39.211175" lon="-8.68333167">
        <ele>7.0</ele>
        <time>2019-05-16T17:29:16.930Z</time>
      </trkpt>
      <trkpt lat="39.211175" lon="-8.68333167">
        <ele>7.0</ele>
        <time>2019-05-16T17:29:17.936Z</time>
      </trkpt>
      <trkpt lat="39.21123" lon="-8.68326167">
        <ele>7.0</ele>
        <time>2019-05-16T17:29:18.911Z</time>
      </trkpt>
      <trkpt lat="39.21125667" lon="-8.68322667">
        <ele>7.0</ele>
        <time>2019-05-16T17:29:19.924Z</time>
      </trkpt>
      <trkpt lat="39.21125667" lon="-8.68322667">
        <ele>7.0</ele>
        <time>2019-05-16T17:29:20.913Z</time>
      </trkpt>
      <trkpt lat="39.21131167" lon="-8.68315667">
        <ele>7.0</ele>
        <time>2019-05-16T17:29:21.914Z</time>
      </trkpt>
      <trkpt lat="39.21131167" lon="-8.68315667">
        <ele>7.0</ele>
        <time>2019-05-16T17:29:22.923Z</time>
      </trkpt>
      <trkpt lat="39.211365" lon="-8.68309">
        <ele>7.0</ele>
        <time>2019-05-16T17:29:23.903Z</time>
      </trkpt>
      <trkpt lat="39.211365" lon="-8.68309">
        <ele>7.0</ele>
        <time>2019-05-16T17:29:24.922Z</time>
      </trkpt>
      <trkpt lat="39.21142167" lon="-8.68302667">
        <ele>7.0</ele>
        <time>2019-05-16T17:29:25.941Z</time>
      </trkpt>
      <trkpt lat="39.21145167" lon="-8.68299667">
        <ele>7.0</ele>
        <time>2019-05-16T17:29:26.904Z</time>
      </trkpt>
      <trkpt lat="39.21145167" lon="-8.68299667">
        <ele>7.0</ele>
        <time>2019-05-16T17:29:27.936Z</time>
      </trkpt>
      <trkpt lat="39.21151" lon="-8.68293833">
        <ele>7.0</ele>
        <time>2019-05-16T17:29:28.916Z</time>
      </trkpt>
      <trkpt lat="39.21151" lon="-8.68293833">
        <ele>7.0</ele>
        <time>2019-05-16T17:29:29.913Z</time>
      </trkpt>
      <trkpt lat="39.21156833" lon="-8.68288">
        <ele>7.0</ele>
        <time>2019-05-16T17:29:30.934Z</time>
      </trkpt>
      <trkpt lat="39.21156833" lon="-8.68288">
        <ele>7.0</ele>
        <time>2019-05-16T17:29:31.906Z</time>
      </trkpt>
      <trkpt lat="39.21162833" lon="-8.68282667">
        <ele>7.0</ele>
        <time>2019-05-16T17:29:32.937Z</time>
      </trkpt>
      <trkpt lat="39.21162833" lon="-8.68282667">
        <ele>7.0</ele>
        <time>2019-05-16T17:29:33.903Z</time>
      </trkpt>
      <trkpt lat="39.21168833" lon="-8.68277667">
        <ele>7.0</ele>
        <time>2019-05-16T17:29:34.909Z</time>
      </trkpt>
      <trkpt lat="39.21168833" lon="-8.68277667">
        <ele>7.0</ele>
        <time>2019-05-16T17:29:35.912Z</time>
      </trkpt>
      <trkpt lat="39.21175" lon="-8.68272667">
        <ele>7.0</ele>
        <time>2019-05-16T17:29:36.935Z</time>
      </trkpt>
      <trkpt lat="39.21175" lon="-8.68272667">
        <ele>7.0</ele>
        <time>2019-05-16T17:29:37.918Z</time>
      </trkpt>
      <trkpt lat="39.21181167" lon="-8.68267833">
        <ele>7.0</ele>
        <time>2019-05-16T17:29:38.900Z</time>
      </trkpt>
      <trkpt lat="39.21181167" lon="-8.68267833">
        <ele>7.0</ele>
        <time>2019-05-16T17:29:39.936Z</time>
      </trkpt>
      <trkpt lat="39.211875" lon="-8.68263167">
        <ele>7.0</ele>
        <time>2019-05-16T17:29:40.931Z</time>
      </trkpt>
      <trkpt lat="39.211875" lon="-8.68263167">
        <ele>7.0</ele>
        <time>2019-05-16T17:29:41.899Z</time>
      </trkpt>
      <trkpt lat="39.21193333" lon="-8.68259">
        <ele>7.0</ele>
        <time>2019-05-16T17:29:42.920Z</time>
      </trkpt>
      <trkpt lat="39.21193333" lon="-8.68259">
        <ele>7.0</ele>
        <time>2019-05-16T17:29:43.928Z</time>
      </trkpt>
      <trkpt lat="39.211985" lon="-8.68254667">
        <ele>7.0</ele>
        <time>2019-05-16T17:29:44.912Z</time>
      </trkpt>
      <trkpt lat="39.211985" lon="-8.68254667">
        <ele>7.0</ele>
        <time>2019-05-16T17:29:45.912Z</time>
      </trkpt>
      <trkpt lat="39.21203667" lon="-8.68250833">
        <ele>6.0</ele>
        <time>2019-05-16T17:29:46.934Z</time>
      </trkpt>
      <trkpt lat="39.21203667" lon="-8.68250833">
        <ele>6.0</ele>
        <time>2019-05-16T17:29:47.920Z</time>
      </trkpt>
      <trkpt lat="39.21209167" lon="-8.682465">
        <ele>7.0</ele>
        <time>2019-05-16T17:29:48.934Z</time>
      </trkpt>
      <trkpt lat="39.21212" lon="-8.68244167">
        <ele>7.0</ele>
        <time>2019-05-16T17:29:49.914Z</time>
      </trkpt>
      <trkpt lat="39.21214833" lon="-8.68242">
        <ele>7.0</ele>
        <time>2019-05-16T17:29:50.898Z</time>
      </trkpt>
      <trkpt lat="39.21214833" lon="-8.68242">
        <ele>7.0</ele>
        <time>2019-05-16T17:29:51.910Z</time>
      </trkpt>
      <trkpt lat="39.21220667" lon="-8.682375">
        <ele>7.0</ele>
        <time>2019-05-16T17:29:52.929Z</time>
      </trkpt>
      <trkpt lat="39.21220667" lon="-8.682375">
        <ele>7.0</ele>
        <time>2019-05-16T17:29:53.912Z</time>
      </trkpt>
      <trkpt lat="39.21226333" lon="-8.68233">
        <ele>6.0</ele>
        <time>2019-05-16T17:29:54.901Z</time>
      </trkpt>
      <trkpt lat="39.21226333" lon="-8.68233">
        <ele>6.0</ele>
        <time>2019-05-16T17:29:55.904Z</time>
      </trkpt>
      <trkpt lat="39.21232167" lon="-8.68228333">
        <ele>6.0</ele>
        <time>2019-05-16T17:29:56.919Z</time>
      </trkpt>
      <trkpt lat="39.21232167" lon="-8.68228333">
        <ele>6.0</ele>
        <time>2019-05-16T17:29:57.925Z</time>
      </trkpt>
      <trkpt lat="39.21238167" lon="-8.68223667">
        <ele>6.0</ele>
        <time>2019-05-16T17:29:58.897Z</time>
      </trkpt>
      <trkpt lat="39.21238167" lon="-8.68223667">
        <ele>6.0</ele>
        <time>2019-05-16T17:29:59.923Z</time>
      </trkpt>
      <trkpt lat="39.21244167" lon="-8.68219167">
        <ele>6.0</ele>
        <time>2019-05-16T17:30:00.905Z</time>
      </trkpt>
      <trkpt lat="39.21244167" lon="-8.68219167">
        <ele>6.0</ele>
        <time>2019-05-16T17:30:01.906Z</time>
      </trkpt>
      <trkpt lat="39.212505" lon="-8.68214667">
        <ele>6.0</ele>
        <time>2019-05-16T17:30:02.929Z</time>
      </trkpt>
      <trkpt lat="39.212505" lon="-8.68214667">
        <ele>6.0</ele>
        <time>2019-05-16T17:30:03.911Z</time>
      </trkpt>
      <trkpt lat="39.21257" lon="-8.68210333">
        <ele>6.0</ele>
        <time>2019-05-16T17:30:04.931Z</time>
      </trkpt>
      <trkpt lat="39.21257" lon="-8.68210333">
        <ele>6.0</ele>
        <time>2019-05-16T17:30:05.923Z</time>
      </trkpt>
      <trkpt lat="39.212635" lon="-8.682055">
        <ele>6.0</ele>
        <time>2019-05-16T17:30:06.910Z</time>
      </trkpt>
      <trkpt lat="39.212635" lon="-8.682055">
        <ele>6.0</ele>
        <time>2019-05-16T17:30:07.933Z</time>
      </trkpt>
      <trkpt lat="39.21270833" lon="-8.68201667">
        <ele>6.0</ele>
        <time>2019-05-16T17:30:08.936Z</time>
      </trkpt>
      <trkpt lat="39.21270833" lon="-8.68201667">
        <ele>6.0</ele>
        <time>2019-05-16T17:30:09.923Z</time>
      </trkpt>
      <trkpt lat="39.21278667" lon="-8.68199833">
        <ele>6.0</ele>
        <time>2019-05-16T17:30:10.902Z</time>
      </trkpt>
      <trkpt lat="39.21278667" lon="-8.68199833">
        <ele>6.0</ele>
        <time>2019-05-16T17:30:11.903Z</time>
      </trkpt>
      <trkpt lat="39.21286833" lon="-8.68199">
        <ele>6.0</ele>
        <time>2019-05-16T17:30:12.929Z</time>
      </trkpt>
      <trkpt lat="39.21286833" lon="-8.68199">
        <ele>6.0</ele>
        <time>2019-05-16T17:30:13.905Z</time>
      </trkpt>
      <trkpt lat="39.21294833" lon="-8.68199833">
        <ele>6.0</ele>
        <time>2019-05-16T17:30:14.934Z</time>
      </trkpt>
      <trkpt lat="39.21294833" lon="-8.68199833">
        <ele>6.0</ele>
        <time>2019-05-16T17:30:15.929Z</time>
      </trkpt>
      <trkpt lat="39.213025" lon="-8.68202167">
        <ele>6.0</ele>
        <time>2019-05-16T17:30:16.911Z</time>
      </trkpt>
      <trkpt lat="39.213025" lon="-8.68202167">
        <ele>6.0</ele>
        <time>2019-05-16T17:30:17.925Z</time>
      </trkpt>
      <trkpt lat="39.2131" lon="-8.682055">
        <ele>6.0</ele>
        <time>2019-05-16T17:30:18.912Z</time>
      </trkpt>
      <trkpt lat="39.2131" lon="-8.682055">
        <ele>6.0</ele>
        <time>2019-05-16T17:30:19.917Z</time>
      </trkpt>
      <trkpt lat="39.21317167" lon="-8.68208833">
        <ele>5.0</ele>
        <time>2019-05-16T17:30:20.947Z</time>
      </trkpt>
      <trkpt lat="39.21317167" lon="-8.68208833">
        <ele>5.0</ele>
        <time>2019-05-16T17:30:21.934Z</time>
      </trkpt>
      <trkpt lat="39.21323667" lon="-8.68212833">
        <ele>5.0</ele>
        <time>2019-05-16T17:30:22.922Z</time>
      </trkpt>
      <trkpt lat="39.21326667" lon="-8.68215">
        <ele>5.0</ele>
        <time>2019-05-16T17:30:23.926Z</time>
      </trkpt>
      <trkpt lat="39.21326667" lon="-8.68215">
        <ele>5.0</ele>
        <time>2019-05-16T17:30:24.903Z</time>
      </trkpt>
      <trkpt lat="39.21332667" lon="-8.682195">
        <ele>6.0</ele>
        <time>2019-05-16T17:30:25.931Z</time>
      </trkpt>
      <trkpt lat="39.213355" lon="-8.68221667">
        <ele>6.0</ele>
        <time>2019-05-16T17:30:26.915Z</time>
      </trkpt>
      <trkpt lat="39.213355" lon="-8.68221667">
        <ele>6.0</ele>
        <time>2019-05-16T17:30:27.901Z</time>
      </trkpt>
      <trkpt lat="39.21341" lon="-8.68226333">
        <ele>6.0</ele>
        <time>2019-05-16T17:30:28.927Z</time>
      </trkpt>
      <trkpt lat="39.21341" lon="-8.68226333">
        <ele>6.0</ele>
        <time>2019-05-16T17:30:29.916Z</time>
      </trkpt>
      <trkpt lat="39.213475" lon="-8.68231333">
        <ele>6.0</ele>
        <time>2019-05-16T17:30:30.901Z</time>
      </trkpt>
      <trkpt lat="39.21351167" lon="-8.68233833">
        <ele>5.0</ele>
        <time>2019-05-16T17:30:31.901Z</time>
      </trkpt>
      <trkpt lat="39.21354833" lon="-8.68236333">
        <ele>5.0</ele>
        <time>2019-05-16T17:30:32.932Z</time>
      </trkpt>
      <trkpt lat="39.21354833" lon="-8.68236333">
        <ele>5.0</ele>
        <time>2019-05-16T17:30:33.922Z</time>
      </trkpt>
      <trkpt lat="39.213615" lon="-8.68241">
        <ele>5.0</ele>
        <time>2019-05-16T17:30:34.908Z</time>
      </trkpt>
      <trkpt lat="39.213615" lon="-8.68241">
        <ele>5.0</ele>
        <time>2019-05-16T17:30:35.902Z</time>
      </trkpt>
      <trkpt lat="39.21367333" lon="-8.682455">
        <ele>5.0</ele>
        <time>2019-05-16T17:30:36.930Z</time>
      </trkpt>
      <trkpt lat="39.21367333" lon="-8.682455">
        <ele>5.0</ele>
        <time>2019-05-16T17:30:37.926Z</time>
      </trkpt>
      <trkpt lat="39.21372667" lon="-8.68249667">
        <ele>5.0</ele>
        <time>2019-05-16T17:30:38.913Z</time>
      </trkpt>
      <trkpt lat="39.21375" lon="-8.68251667">
        <ele>5.0</ele>
        <time>2019-05-16T17:30:39.926Z</time>
      </trkpt>
      <trkpt lat="39.21375" lon="-8.68251667">
        <ele>5.0</ele>
        <time>2019-05-16T17:30:40.914Z</time>
      </trkpt>
      <trkpt lat="39.21379667" lon="-8.68254833">
        <ele>6.0</ele>
        <time>2019-05-16T17:30:41.930Z</time>
      </trkpt>
      <trkpt lat="39.21379667" lon="-8.68254833">
        <ele>6.0</ele>
        <time>2019-05-16T17:30:42.929Z</time>
      </trkpt>
      <trkpt lat="39.21384667" lon="-8.68257833">
        <ele>6.0</ele>
        <time>2019-05-16T17:30:43.934Z</time>
      </trkpt>
      <trkpt lat="39.21387167" lon="-8.682595">
        <ele>6.0</ele>
        <time>2019-05-16T17:30:44.928Z</time>
      </trkpt>
      <trkpt lat="39.21387167" lon="-8.682595">
        <ele>6.0</ele>
        <time>2019-05-16T17:30:45.919Z</time>
      </trkpt>
      <trkpt lat="39.21392167" lon="-8.68263333">
        <ele>6.0</ele>
        <time>2019-05-16T17:30:46.919Z</time>
      </trkpt>
      <trkpt lat="39.21392167" lon="-8.68263333">
        <ele>6.0</ele>
        <time>2019-05-16T17:30:47.918Z</time>
      </trkpt>
      <trkpt lat="39.21397333" lon="-8.68267333">
        <ele>6.0</ele>
        <time>2019-05-16T17:30:48.940Z</time>
      </trkpt>
      <trkpt lat="39.21397333" lon="-8.68267333">
        <ele>6.0</ele>
        <time>2019-05-16T17:30:49.933Z</time>
      </trkpt>
      <trkpt lat="39.214025" lon="-8.68271167">
        <ele>6.0</ele>
        <time>2019-05-16T17:30:50.901Z</time>
      </trkpt>
      <trkpt lat="39.214025" lon="-8.68271167">
        <ele>6.0</ele>
        <time>2019-05-16T17:30:51.923Z</time>
      </trkpt>
      <trkpt lat="39.21407667" lon="-8.68275333">
        <ele>5.0</ele>
        <time>2019-05-16T17:30:52.902Z</time>
      </trkpt>
      <trkpt lat="39.21407667" lon="-8.68275333">
        <ele>5.0</ele>
        <time>2019-05-16T17:30:53.918Z</time>
      </trkpt>
      <trkpt lat="39.21413" lon="-8.68279167">
        <ele>5.0</ele>
        <time>2019-05-16T17:30:54.909Z</time>
      </trkpt>
      <trkpt lat="39.21413" lon="-8.68279167">
        <ele>5.0</ele>
        <time>2019-05-16T17:30:55.935Z</time>
      </trkpt>
      <trkpt lat="39.21417833" lon="-8.68282833">
        <ele>5.0</ele>
        <time>2019-05-16T17:30:56.921Z</time>
      </trkpt>
      <trkpt lat="39.21417833" lon="-8.68282833">
        <ele>5.0</ele>
        <time>2019-05-16T17:30:57.910Z</time>
      </trkpt>
      <trkpt lat="39.214225" lon="-8.682855">
        <ele>5.0</ele>
        <time>2019-05-16T17:30:58.931Z</time>
      </trkpt>
      <trkpt lat="39.214225" lon="-8.682855">
        <ele>5.0</ele>
        <time>2019-05-16T17:30:59.908Z</time>
      </trkpt>
      <trkpt lat="39.214275" lon="-8.68288333">
        <ele>4.0</ele>
        <time>2019-05-16T17:31:00.901Z</time>
      </trkpt>
      <trkpt lat="39.214275" lon="-8.68288333">
        <ele>4.0</ele>
        <time>2019-05-16T17:31:01.918Z</time>
      </trkpt>
      <trkpt lat="39.21432667" lon="-8.682905">
        <ele>4.0</ele>
        <time>2019-05-16T17:31:02.909Z</time>
      </trkpt>
      <trkpt lat="39.21432667" lon="-8.682905">
        <ele>4.0</ele>
        <time>2019-05-16T17:31:03.922Z</time>
      </trkpt>
      <trkpt lat="39.21438333" lon="-8.68291167">
        <ele>4.0</ele>
        <time>2019-05-16T17:31:04.911Z</time>
      </trkpt>
      <trkpt lat="39.21438333" lon="-8.68291167">
        <ele>4.0</ele>
        <time>2019-05-16T17:31:05.927Z</time>
      </trkpt>
      <trkpt lat="39.21443167" lon="-8.68291333">
        <ele>4.0</ele>
        <time>2019-05-16T17:31:06.911Z</time>
      </trkpt>
      <trkpt lat="39.21445333" lon="-8.68291">
        <ele>5.0</ele>
        <time>2019-05-16T17:31:07.912Z</time>
      </trkpt>
      <trkpt lat="39.21448" lon="-8.68291">
        <ele>5.0</ele>
        <time>2019-05-16T17:31:08.909Z</time>
      </trkpt>
      <trkpt lat="39.21448" lon="-8.68291">
        <ele>5.0</ele>
        <time>2019-05-16T17:31:09.897Z</time>
      </trkpt>
      <trkpt lat="39.21453667" lon="-8.68291167">
        <ele>5.0</ele>
        <time>2019-05-16T17:31:10.938Z</time>
      </trkpt>
      <trkpt lat="39.214565" lon="-8.68291">
        <ele>5.0</ele>
        <time>2019-05-16T17:31:11.911Z</time>
      </trkpt>
      <trkpt lat="39.214565" lon="-8.68291">
        <ele>5.0</ele>
        <time>2019-05-16T17:31:12.922Z</time>
      </trkpt>
      <trkpt lat="39.21462" lon="-8.68291167">
        <ele>5.0</ele>
        <time>2019-05-16T17:31:13.897Z</time>
      </trkpt>
      <trkpt lat="39.21464833" lon="-8.68291">
        <ele>5.0</ele>
        <time>2019-05-16T17:31:14.916Z</time>
      </trkpt>
      <trkpt lat="39.21464833" lon="-8.68291">
        <ele>5.0</ele>
        <time>2019-05-16T17:31:15.914Z</time>
      </trkpt>
      <trkpt lat="39.21470667" lon="-8.68290667">
        <ele>5.0</ele>
        <time>2019-05-16T17:31:16.926Z</time>
      </trkpt>
      <trkpt lat="39.21470667" lon="-8.68290667">
        <ele>5.0</ele>
        <time>2019-05-16T17:31:17.903Z</time>
      </trkpt>
      <trkpt lat="39.21476667" lon="-8.68291">
        <ele>5.0</ele>
        <time>2019-05-16T17:31:18.986Z</time>
      </trkpt>
      <trkpt lat="39.21476667" lon="-8.68291">
        <ele>5.0</ele>
        <time>2019-05-16T17:31:19.933Z</time>
      </trkpt>
      <trkpt lat="39.214825" lon="-8.68290833">
        <ele>6.0</ele>
        <time>2019-05-16T17:31:20.925Z</time>
      </trkpt>
      <trkpt lat="39.214825" lon="-8.68290833">
        <ele>6.0</ele>
        <time>2019-05-16T17:31:21.902Z</time>
      </trkpt>
      <trkpt lat="39.21488333" lon="-8.68290333">
        <ele>6.0</ele>
        <time>2019-05-16T17:31:22.908Z</time>
      </trkpt>
      <trkpt lat="39.21488333" lon="-8.68290333">
        <ele>6.0</ele>
        <time>2019-05-16T17:31:23.899Z</time>
      </trkpt>
      <trkpt lat="39.21494333" lon="-8.6829">
        <ele>6.0</ele>
        <time>2019-05-16T17:31:24.920Z</time>
      </trkpt>
      <trkpt lat="39.214975" lon="-8.68290167">
        <ele>6.0</ele>
        <time>2019-05-16T17:31:25.924Z</time>
      </trkpt>
      <trkpt lat="39.21501" lon="-8.68290167">
        <ele>6.0</ele>
        <time>2019-05-16T17:31:26.921Z</time>
      </trkpt>
      <trkpt lat="39.21501" lon="-8.68290167">
        <ele>6.0</ele>
        <time>2019-05-16T17:31:27.903Z</time>
      </trkpt>
      <trkpt lat="39.21509167" lon="-8.68289667">
        <ele>7.0</ele>
        <time>2019-05-16T17:31:28.916Z</time>
      </trkpt>
      <trkpt lat="39.21509167" lon="-8.68289667">
        <ele>7.0</ele>
        <time>2019-05-16T17:31:29.921Z</time>
      </trkpt>
      <trkpt lat="39.21516667" lon="-8.68289667">
        <ele>7.0</ele>
        <time>2019-05-16T17:31:30.940Z</time>
      </trkpt>
      <trkpt lat="39.21516667" lon="-8.68289667">
        <ele>7.0</ele>
        <time>2019-05-16T17:31:31.920Z</time>
      </trkpt>
      <trkpt lat="39.21523167" lon="-8.6829">
        <ele>7.0</ele>
        <time>2019-05-16T17:31:32.937Z</time>
      </trkpt>
      <trkpt lat="39.21523167" lon="-8.6829">
        <ele>7.0</ele>
        <time>2019-05-16T17:31:33.929Z</time>
      </trkpt>
      <trkpt lat="39.21529" lon="-8.68290833">
        <ele>8.0</ele>
        <time>2019-05-16T17:31:34.908Z</time>
      </trkpt>
      <trkpt lat="39.21529" lon="-8.68290833">
        <ele>8.0</ele>
        <time>2019-05-16T17:31:35.898Z</time>
      </trkpt>
      <trkpt lat="39.21533833" lon="-8.68291333">
        <ele>8.0</ele>
        <time>2019-05-16T17:31:36.926Z</time>
      </trkpt>
      <trkpt lat="39.21536" lon="-8.68291667">
        <ele>9.0</ele>
        <time>2019-05-16T17:31:37.934Z</time>
      </trkpt>
      <trkpt lat="39.21538667" lon="-8.682925">
        <ele>9.0</ele>
        <time>2019-05-16T17:31:38.918Z</time>
      </trkpt>
      <trkpt lat="39.21538667" lon="-8.682925">
        <ele>9.0</ele>
        <time>2019-05-16T17:31:39.926Z</time>
      </trkpt>
      <trkpt lat="39.21544167" lon="-8.68293667">
        <ele>10.0</ele>
        <time>2019-05-16T17:31:40.914Z</time>
      </trkpt>
      <trkpt lat="39.21544167" lon="-8.68293667">
        <ele>10.0</ele>
        <time>2019-05-16T17:31:41.934Z</time>
      </trkpt>
      <trkpt lat="39.2155" lon="-8.68294667">
        <ele>10.0</ele>
        <time>2019-05-16T17:31:42.916Z</time>
      </trkpt>
      <trkpt lat="39.2155" lon="-8.68294667">
        <ele>10.0</ele>
        <time>2019-05-16T17:31:43.923Z</time>
      </trkpt>
      <trkpt lat="39.21555167" lon="-8.68295833">
        <ele>11.0</ele>
        <time>2019-05-16T17:31:44.910Z</time>
      </trkpt>
      <trkpt lat="39.21555167" lon="-8.68295833">
        <ele>11.0</ele>
        <time>2019-05-16T17:31:45.915Z</time>
      </trkpt>
      <trkpt lat="39.21560833" lon="-8.68297">
        <ele>11.0</ele>
        <time>2019-05-16T17:31:46.899Z</time>
      </trkpt>
      <trkpt lat="39.21563833" lon="-8.682975">
        <ele>11.0</ele>
        <time>2019-05-16T17:31:47.934Z</time>
      </trkpt>
      <trkpt lat="39.21563833" lon="-8.682975">
        <ele>11.0</ele>
        <time>2019-05-16T17:31:48.927Z</time>
      </trkpt>
      <trkpt lat="39.21570167" lon="-8.682985">
        <ele>11.0</ele>
        <time>2019-05-16T17:31:49.927Z</time>
      </trkpt>
      <trkpt lat="39.21573333" lon="-8.68299167">
        <ele>11.0</ele>
        <time>2019-05-16T17:31:50.936Z</time>
      </trkpt>
      <trkpt lat="39.21573333" lon="-8.68299167">
        <ele>11.0</ele>
        <time>2019-05-16T17:31:51.912Z</time>
      </trkpt>
      <trkpt lat="39.2158" lon="-8.683005">
        <ele>11.0</ele>
        <time>2019-05-16T17:31:52.939Z</time>
      </trkpt>
      <trkpt lat="39.2158" lon="-8.683005">
        <ele>11.0</ele>
        <time>2019-05-16T17:31:53.921Z</time>
      </trkpt>
      <trkpt lat="39.215865" lon="-8.68301833">
        <ele>10.0</ele>
        <time>2019-05-16T17:31:54.901Z</time>
      </trkpt>
      <trkpt lat="39.215865" lon="-8.68301833">
        <ele>10.0</ele>
        <time>2019-05-16T17:31:55.919Z</time>
      </trkpt>
      <trkpt lat="39.21593" lon="-8.68302833">
        <ele>10.0</ele>
        <time>2019-05-16T17:31:56.936Z</time>
      </trkpt>
      <trkpt lat="39.21593" lon="-8.68302833">
        <ele>10.0</ele>
        <time>2019-05-16T17:31:57.933Z</time>
      </trkpt>
      <trkpt lat="39.216" lon="-8.68304">
        <ele>10.0</ele>
        <time>2019-05-16T17:31:58.928Z</time>
      </trkpt>
      <trkpt lat="39.216" lon="-8.68304">
        <ele>10.0</ele>
        <time>2019-05-16T17:31:59.926Z</time>
      </trkpt>
      <trkpt lat="39.21606667" lon="-8.68305333">
        <ele>10.0</ele>
        <time>2019-05-16T17:32:00.916Z</time>
      </trkpt>
      <trkpt lat="39.21606667" lon="-8.68305333">
        <ele>10.0</ele>
        <time>2019-05-16T17:32:01.903Z</time>
      </trkpt>
      <trkpt lat="39.216135" lon="-8.68306167">
        <ele>10.0</ele>
        <time>2019-05-16T17:32:02.931Z</time>
      </trkpt>
      <trkpt lat="39.216135" lon="-8.68306167">
        <ele>10.0</ele>
        <time>2019-05-16T17:32:03.903Z</time>
      </trkpt>
      <trkpt lat="39.216205" lon="-8.683065">
        <ele>10.0</ele>
        <time>2019-05-16T17:32:04.911Z</time>
      </trkpt>
      <trkpt lat="39.216205" lon="-8.683065">
        <ele>10.0</ele>
        <time>2019-05-16T17:32:05.923Z</time>
      </trkpt>
      <trkpt lat="39.21626833" lon="-8.68306333">
        <ele>9.0</ele>
        <time>2019-05-16T17:32:06.909Z</time>
      </trkpt>
      <trkpt lat="39.21626833" lon="-8.68306333">
        <ele>9.0</ele>
        <time>2019-05-16T17:32:07.923Z</time>
      </trkpt>
      <trkpt lat="39.21634167" lon="-8.683065">
        <ele>10.0</ele>
        <time>2019-05-16T17:32:08.900Z</time>
      </trkpt>
      <trkpt lat="39.21634167" lon="-8.683065">
        <ele>10.0</ele>
        <time>2019-05-16T17:32:09.898Z</time>
      </trkpt>
      <trkpt lat="39.216415" lon="-8.68306">
        <ele>10.0</ele>
        <time>2019-05-16T17:32:10.937Z</time>
      </trkpt>
      <trkpt lat="39.216415" lon="-8.68306">
        <ele>10.0</ele>
        <time>2019-05-16T17:32:11.903Z</time>
      </trkpt>
      <trkpt lat="39.216475" lon="-8.68304833">
        <ele>10.0</ele>
        <time>2019-05-16T17:32:12.919Z</time>
      </trkpt>
      <trkpt lat="39.216475" lon="-8.68304833">
        <ele>10.0</ele>
        <time>2019-05-16T17:32:13.929Z</time>
      </trkpt>
      <trkpt lat="39.21652667" lon="-8.68303333">
        <ele>10.0</ele>
        <time>2019-05-16T17:32:14.911Z</time>
      </trkpt>
      <trkpt lat="39.21652667" lon="-8.68303333">
        <ele>10.0</ele>
        <time>2019-05-16T17:32:15.915Z</time>
      </trkpt>
      <trkpt lat="39.21657833" lon="-8.68301667">
        <ele>11.0</ele>
        <time>2019-05-16T17:32:16.936Z</time>
      </trkpt>
      <trkpt lat="39.21657833" lon="-8.68301667">
        <ele>11.0</ele>
        <time>2019-05-16T17:32:17.922Z</time>
      </trkpt>
      <trkpt lat="39.21664333" lon="-8.68299667">
        <ele>11.0</ele>
        <time>2019-05-16T17:32:18.913Z</time>
      </trkpt>
      <trkpt lat="39.21667" lon="-8.68299">
        <ele>11.0</ele>
        <time>2019-05-16T17:32:19.923Z</time>
      </trkpt>
      <trkpt lat="39.21667" lon="-8.68299">
        <ele>11.0</ele>
        <time>2019-05-16T17:32:20.901Z</time>
      </trkpt>
      <trkpt lat="39.21672667" lon="-8.68297">
        <ele>12.0</ele>
        <time>2019-05-16T17:32:21.903Z</time>
      </trkpt>
      <trkpt lat="39.21675833" lon="-8.68296">
        <ele>12.0</ele>
        <time>2019-05-16T17:32:22.911Z</time>
      </trkpt>
      <trkpt lat="39.21675833" lon="-8.68296">
        <ele>12.0</ele>
        <time>2019-05-16T17:32:23.904Z</time>
      </trkpt>
      <trkpt lat="39.216825" lon="-8.68293167">
        <ele>12.0</ele>
        <time>2019-05-16T17:32:24.925Z</time>
      </trkpt>
      <trkpt lat="39.216825" lon="-8.68293167">
        <ele>12.0</ele>
        <time>2019-05-16T17:32:25.921Z</time>
      </trkpt>
      <trkpt lat="39.21688667" lon="-8.682905">
        <ele>12.0</ele>
        <time>2019-05-16T17:32:26.900Z</time>
      </trkpt>
      <trkpt lat="39.21688667" lon="-8.682905">
        <ele>12.0</ele>
        <time>2019-05-16T17:32:27.907Z</time>
      </trkpt>
      <trkpt lat="39.21694667" lon="-8.68287333">
        <ele>13.0</ele>
        <time>2019-05-16T17:32:28.939Z</time>
      </trkpt>
      <trkpt lat="39.21694667" lon="-8.68287333">
        <ele>13.0</ele>
        <time>2019-05-16T17:32:29.936Z</time>
      </trkpt>
      <trkpt lat="39.217005" lon="-8.682835">
        <ele>13.0</ele>
        <time>2019-05-16T17:32:30.912Z</time>
      </trkpt>
      <trkpt lat="39.217005" lon="-8.682835">
        <ele>13.0</ele>
        <time>2019-05-16T17:32:31.903Z</time>
      </trkpt>
      <trkpt lat="39.21705667" lon="-8.6828">
        <ele>13.0</ele>
        <time>2019-05-16T17:32:32.906Z</time>
      </trkpt>
      <trkpt lat="39.21705667" lon="-8.6828">
        <ele>13.0</ele>
        <time>2019-05-16T17:32:33.906Z</time>
      </trkpt>
      <trkpt lat="39.21710833" lon="-8.682765">
        <ele>14.0</ele>
        <time>2019-05-16T17:32:34.932Z</time>
      </trkpt>
      <trkpt lat="39.21710833" lon="-8.682765">
        <ele>14.0</ele>
        <time>2019-05-16T17:32:35.913Z</time>
      </trkpt>
      <trkpt lat="39.21716333" lon="-8.68272167">
        <ele>13.0</ele>
        <time>2019-05-16T17:32:36.931Z</time>
      </trkpt>
      <trkpt lat="39.21719167" lon="-8.6827">
        <ele>13.0</ele>
        <time>2019-05-16T17:32:37.904Z</time>
      </trkpt>
      <trkpt lat="39.21722" lon="-8.68267667">
        <ele>13.0</ele>
        <time>2019-05-16T17:32:38.931Z</time>
      </trkpt>
      <trkpt lat="39.21722" lon="-8.68267667">
        <ele>13.0</ele>
        <time>2019-05-16T17:32:39.913Z</time>
      </trkpt>
      <trkpt lat="39.217285" lon="-8.68262667">
        <ele>13.0</ele>
        <time>2019-05-16T17:32:40.938Z</time>
      </trkpt>
      <trkpt lat="39.21731667" lon="-8.682605">
        <ele>13.0</ele>
        <time>2019-05-16T17:32:41.900Z</time>
      </trkpt>
      <trkpt lat="39.21731667" lon="-8.682605">
        <ele>13.0</ele>
        <time>2019-05-16T17:32:42.907Z</time>
      </trkpt>
      <trkpt lat="39.21737333" lon="-8.68255667">
        <ele>13.0</ele>
        <time>2019-05-16T17:32:43.933Z</time>
      </trkpt>
      <trkpt lat="39.2174" lon="-8.68253333">
        <ele>13.0</ele>
        <time>2019-05-16T17:32:44.907Z</time>
      </trkpt>
      <trkpt lat="39.2174" lon="-8.68253333">
        <ele>13.0</ele>
        <time>2019-05-16T17:32:45.901Z</time>
      </trkpt>
      <trkpt lat="39.21745167" lon="-8.68249333">
        <ele>13.0</ele>
        <time>2019-05-16T17:32:46.928Z</time>
      </trkpt>
      <trkpt lat="39.21745167" lon="-8.68249333">
        <ele>13.0</ele>
        <time>2019-05-16T17:32:47.900Z</time>
      </trkpt>
      <trkpt lat="39.21749833" lon="-8.68245833">
        <ele>13.0</ele>
        <time>2019-05-16T17:32:48.920Z</time>
      </trkpt>
      <trkpt lat="39.21749833" lon="-8.68245833">
        <ele>13.0</ele>
        <time>2019-05-16T17:32:49.899Z</time>
      </trkpt>
      <trkpt lat="39.21754333" lon="-8.68241833">
        <ele>13.0</ele>
        <time>2019-05-16T17:32:50.924Z</time>
      </trkpt>
      <trkpt lat="39.21754333" lon="-8.68241833">
        <ele>13.0</ele>
        <time>2019-05-16T17:32:51.903Z</time>
      </trkpt>
      <trkpt lat="39.21759333" lon="-8.68238667">
        <ele>13.0</ele>
        <time>2019-05-16T17:32:52.926Z</time>
      </trkpt>
      <trkpt lat="39.21759333" lon="-8.68238667">
        <ele>13.0</ele>
        <time>2019-05-16T17:32:53.897Z</time>
      </trkpt>
      <trkpt lat="39.21764167" lon="-8.68235667">
        <ele>14.0</ele>
        <time>2019-05-16T17:32:54.931Z</time>
      </trkpt>
      <trkpt lat="39.21764167" lon="-8.68235667">
        <ele>14.0</ele>
        <time>2019-05-16T17:32:55.923Z</time>
      </trkpt>
      <trkpt lat="39.21769833" lon="-8.682325">
        <ele>14.0</ele>
        <time>2019-05-16T17:32:56.903Z</time>
      </trkpt>
      <trkpt lat="39.21769833" lon="-8.682325">
        <ele>14.0</ele>
        <time>2019-05-16T17:32:57.897Z</time>
      </trkpt>
      <trkpt lat="39.21774333" lon="-8.68229833">
        <ele>15.0</ele>
        <time>2019-05-16T17:32:58.935Z</time>
      </trkpt>
      <trkpt lat="39.21776" lon="-8.682285">
        <ele>15.0</ele>
        <time>2019-05-16T17:32:59.929Z</time>
      </trkpt>
      <trkpt lat="39.21776" lon="-8.682285">
        <ele>15.0</ele>
        <time>2019-05-16T17:33:00.907Z</time>
      </trkpt>
      <trkpt lat="39.21777833" lon="-8.68226">
        <ele>15.0</ele>
        <time>2019-05-16T17:33:01.908Z</time>
      </trkpt>
      <trkpt lat="39.21778333" lon="-8.68225167">
        <ele>15.0</ele>
        <time>2019-05-16T17:33:02.930Z</time>
      </trkpt>
      <trkpt lat="39.21778333" lon="-8.68225167">
        <ele>15.0</ele>
        <time>2019-05-16T17:33:03.912Z</time>
      </trkpt>
      <trkpt lat="39.21778833" lon="-8.68225">
        <ele>15.0</ele>
        <time>2019-05-16T17:33:04.929Z</time>
      </trkpt>
      <trkpt lat="39.21778833" lon="-8.68225">
        <ele>15.0</ele>
        <time>2019-05-16T17:33:05.923Z</time>
      </trkpt>
      <trkpt lat="39.21779" lon="-8.68225">
        <ele>15.0</ele>
        <time>2019-05-16T17:33:06.929Z</time>
      </trkpt>
      <trkpt lat="39.21779" lon="-8.68225">
        <ele>15.0</ele>
        <time>2019-05-16T17:33:07.937Z</time>
      </trkpt>
      <trkpt lat="39.21779" lon="-8.68225">
        <ele>15.0</ele>
        <time>2019-05-16T17:33:08.923Z</time>
      </trkpt>
      <trkpt lat="39.21779" lon="-8.68225">
        <ele>15.0</ele>
        <time>2019-05-16T17:33:09.911Z</time>
      </trkpt>
      <trkpt lat="39.21779" lon="-8.68225">
        <ele>15.0</ele>
        <time>2019-05-16T17:33:10.910Z</time>
      </trkpt>
      <trkpt lat="39.21779" lon="-8.68225">
        <ele>15.0</ele>
        <time>2019-05-16T17:33:11.911Z</time>
      </trkpt>
      <trkpt lat="39.21779" lon="-8.68225">
        <ele>15.0</ele>
        <time>2019-05-16T17:33:12.908Z</time>
      </trkpt>
      <trkpt lat="39.21779" lon="-8.68225">
        <ele>15.0</ele>
        <time>2019-05-16T17:33:13.911Z</time>
      </trkpt>
      <trkpt lat="39.21779" lon="-8.68225">
        <ele>15.0</ele>
        <time>2019-05-16T17:33:14.908Z</time>
      </trkpt>
      <trkpt lat="39.21779" lon="-8.68225">
        <ele>15.0</ele>
        <time>2019-05-16T17:33:15.923Z</time>
      </trkpt>
      <trkpt lat="39.21779" lon="-8.68225">
        <ele>15.0</ele>
        <time>2019-05-16T17:33:16.909Z</time>
      </trkpt>
      <trkpt lat="39.21779" lon="-8.68225">
        <ele>15.0</ele>
        <time>2019-05-16T17:33:17.910Z</time>
      </trkpt>
      <trkpt lat="39.21779" lon="-8.68225">
        <ele>15.0</ele>
        <time>2019-05-16T17:33:18.912Z</time>
      </trkpt>
      <trkpt lat="39.21779" lon="-8.68225">
        <ele>15.0</ele>
        <time>2019-05-16T17:33:19.910Z</time>
      </trkpt>
      <trkpt lat="39.21779" lon="-8.68225">
        <ele>15.0</ele>
        <time>2019-05-16T17:33:20.914Z</time>
      </trkpt>
      <trkpt lat="39.21779" lon="-8.68225">
        <ele>15.0</ele>
        <time>2019-05-16T17:33:21.903Z</time>
      </trkpt>
      <trkpt lat="39.21779" lon="-8.68225">
        <ele>15.0</ele>
        <time>2019-05-16T17:33:22.909Z</time>
      </trkpt>
      <trkpt lat="39.21779" lon="-8.68225">
        <ele>15.0</ele>
        <time>2019-05-16T17:33:23.911Z</time>
      </trkpt>
      <trkpt lat="39.21779" lon="-8.68225">
        <ele>15.0</ele>
        <time>2019-05-16T17:33:24.905Z</time>
      </trkpt>
      <trkpt lat="39.21781" lon="-8.68227167">
        <ele>14.0</ele>
        <time>2019-05-16T17:33:25.910Z</time>
      </trkpt>
      <trkpt lat="39.21781" lon="-8.68228">
        <ele>15.0</ele>
        <time>2019-05-16T17:33:26.926Z</time>
      </trkpt>
      <trkpt lat="39.21781" lon="-8.68228">
        <ele>15.0</ele>
        <time>2019-05-16T17:33:27.912Z</time>
      </trkpt>
      <trkpt lat="39.21780833" lon="-8.68228667">
        <ele>15.0</ele>
        <time>2019-05-16T17:33:28.908Z</time>
      </trkpt>
      <trkpt lat="39.21780833" lon="-8.68228667">
        <ele>15.0</ele>
        <time>2019-05-16T17:33:29.911Z</time>
      </trkpt>
      <trkpt lat="39.21780833" lon="-8.68228667">
        <ele>15.0</ele>
        <time>2019-05-16T17:33:30.909Z</time>
      </trkpt>
      <trkpt lat="39.21780833" lon="-8.68228667">
        <ele>15.0</ele>
        <time>2019-05-16T17:33:31.908Z</time>
      </trkpt>
      <trkpt lat="39.21780833" lon="-8.68228667">
        <ele>15.0</ele>
        <time>2019-05-16T17:33:32.907Z</time>
      </trkpt>
      <trkpt lat="39.21780833" lon="-8.68228667">
        <ele>15.0</ele>
        <time>2019-05-16T17:33:33.931Z</time>
      </trkpt>
      <trkpt lat="39.21780833" lon="-8.68228667">
        <ele>15.0</ele>
        <time>2019-05-16T17:33:34.917Z</time>
      </trkpt>
      <trkpt lat="39.21779833" lon="-8.68230667">
        <ele>16.0</ele>
        <time>2019-05-16T17:33:35.915Z</time>
      </trkpt>
      <trkpt lat="39.21779833" lon="-8.68230667">
        <ele>16.0</ele>
        <time>2019-05-16T17:33:36.909Z</time>
      </trkpt>
      <trkpt lat="39.21779833" lon="-8.68230667">
        <ele>16.0</ele>
        <time>2019-05-16T17:33:37.905Z</time>
      </trkpt>
      <trkpt lat="39.21779667" lon="-8.68230833">
        <ele>16.0</ele>
        <time>2019-05-16T17:33:38.912Z</time>
      </trkpt>
      <trkpt lat="39.21779667" lon="-8.68230833">
        <ele>16.0</ele>
        <time>2019-05-16T17:33:39.910Z</time>
      </trkpt>
      <trkpt lat="39.21779667" lon="-8.68230833">
        <ele>16.0</ele>
        <time>2019-05-16T17:33:40.906Z</time>
      </trkpt>
      <trkpt lat="39.21779667" lon="-8.68230833">
        <ele>16.0</ele>
        <time>2019-05-16T17:33:41.911Z</time>
      </trkpt>
      <trkpt lat="39.21779667" lon="-8.68230833">
        <ele>16.0</ele>
        <time>2019-05-16T17:33:42.910Z</time>
      </trkpt>
      <trkpt lat="39.21779667" lon="-8.68230833">
        <ele>16.0</ele>
        <time>2019-05-16T17:33:43.911Z</time>
      </trkpt>
      <trkpt lat="39.21779667" lon="-8.68230833">
        <ele>16.0</ele>
        <time>2019-05-16T17:33:44.907Z</time>
      </trkpt>
      <trkpt lat="39.21779667" lon="-8.68230833">
        <ele>16.0</ele>
        <time>2019-05-16T17:33:45.909Z</time>
      </trkpt>
      <trkpt lat="39.21779667" lon="-8.68230833">
        <ele>16.0</ele>
        <time>2019-05-16T17:33:46.907Z</time>
      </trkpt>
      <trkpt lat="39.21779667" lon="-8.68230833">
        <ele>16.0</ele>
        <time>2019-05-16T17:33:47.911Z</time>
      </trkpt>
      <trkpt lat="39.21779667" lon="-8.68230833">
        <ele>16.0</ele>
        <time>2019-05-16T17:33:48.908Z</time>
      </trkpt>
      <trkpt lat="39.21779667" lon="-8.68230833">
        <ele>16.0</ele>
        <time>2019-05-16T17:33:49.905Z</time>
      </trkpt>
      <trkpt lat="39.21779667" lon="-8.68230833">
        <ele>16.0</ele>
        <time>2019-05-16T17:33:50.907Z</time>
      </trkpt>
      <trkpt lat="39.21779667" lon="-8.68230833">
        <ele>16.0</ele>
        <time>2019-05-16T17:33:51.912Z</time>
      </trkpt>
      <trkpt lat="39.21779667" lon="-8.68230833">
        <ele>16.0</ele>
        <time>2019-05-16T17:33:52.905Z</time>
      </trkpt>
      <trkpt lat="39.21779667" lon="-8.68230833">
        <ele>16.0</ele>
        <time>2019-05-16T17:33:53.910Z</time>
      </trkpt>
      <trkpt lat="39.21779667" lon="-8.68230833">
        <ele>16.0</ele>
        <time>2019-05-16T17:33:54.905Z</time>
      </trkpt>
      <trkpt lat="39.21779667" lon="-8.68230833">
        <ele>16.0</ele>
        <time>2019-05-16T17:33:55.910Z</time>
      </trkpt>
      <trkpt lat="39.21779667" lon="-8.68230833">
        <ele>16.0</ele>
        <time>2019-05-16T17:33:56.907Z</time>
      </trkpt>
      <trkpt lat="39.21779667" lon="-8.68230833">
        <ele>16.0</ele>
        <time>2019-05-16T17:33:57.908Z</time>
      </trkpt>
      <trkpt lat="39.21779667" lon="-8.68230833">
        <ele>16.0</ele>
        <time>2019-05-16T17:33:58.911Z</time>
      </trkpt>
      <trkpt lat="39.21779667" lon="-8.68230833">
        <ele>16.0</ele>
        <time>2019-05-16T17:33:59.914Z</time>
      </trkpt>
      <trkpt lat="39.21779667" lon="-8.68230833">
        <ele>16.0</ele>
        <time>2019-05-16T17:34:00.911Z</time>
      </trkpt>
      <trkpt lat="39.21779667" lon="-8.68230833">
        <ele>16.0</ele>
        <time>2019-05-16T17:34:01.914Z</time>
      </trkpt>
      <trkpt lat="39.21779667" lon="-8.68230833">
        <ele>16.0</ele>
        <time>2019-05-16T17:34:02.909Z</time>
      </trkpt>
      <trkpt lat="39.21779667" lon="-8.68230833">
        <ele>16.0</ele>
        <time>2019-05-16T17:34:03.911Z</time>
      </trkpt>
      <trkpt lat="39.21779667" lon="-8.68230833">
        <ele>16.0</ele>
        <time>2019-05-16T17:34:04.905Z</time>
      </trkpt>
      <trkpt lat="39.21779667" lon="-8.68230833">
        <ele>16.0</ele>
        <time>2019-05-16T17:34:05.908Z</time>
      </trkpt>
      <trkpt lat="39.21779667" lon="-8.68230833">
        <ele>16.0</ele>
        <time>2019-05-16T17:34:06.905Z</time>
      </trkpt>
      <trkpt lat="39.21779667" lon="-8.68230833">
        <ele>16.0</ele>
        <time>2019-05-16T17:34:07.910Z</time>
      </trkpt>
      <trkpt lat="39.21779667" lon="-8.68230833">
        <ele>16.0</ele>
        <time>2019-05-16T17:34:08.912Z</time>
      </trkpt>
      <trkpt lat="39.21779667" lon="-8.68230833">
        <ele>16.0</ele>
        <time>2019-05-16T17:34:09.910Z</time>
      </trkpt>
      <trkpt lat="39.21779667" lon="-8.68230833">
        <ele>16.0</ele>
        <time>2019-05-16T17:34:10.908Z</time>
      </trkpt>
      <trkpt lat="39.21779667" lon="-8.68230833">
        <ele>16.0</ele>
        <time>2019-05-16T17:34:11.905Z</time>
      </trkpt>
      <trkpt lat="39.21779667" lon="-8.68230833">
        <ele>16.0</ele>
        <time>2019-05-16T17:34:12.909Z</time>
      </trkpt>
      <trkpt lat="39.21779667" lon="-8.68230833">
        <ele>16.0</ele>
        <time>2019-05-16T17:34:13.906Z</time>
      </trkpt>
      <trkpt lat="39.21779667" lon="-8.68230833">
        <ele>16.0</ele>
        <time>2019-05-16T17:34:14.912Z</time>
      </trkpt>
      <trkpt lat="39.21779667" lon="-8.68230833">
        <ele>16.0</ele>
        <time>2019-05-16T17:34:15.905Z</time>
      </trkpt>
      <trkpt lat="39.21779667" lon="-8.68230833">
        <ele>16.0</ele>
        <time>2019-05-16T17:34:16.910Z</time>
      </trkpt>
      <trkpt lat="39.21779667" lon="-8.68230833">
        <ele>16.0</ele>
        <time>2019-05-16T17:34:17.905Z</time>
      </trkpt>
      <trkpt lat="39.21779667" lon="-8.68230833">
        <ele>16.0</ele>
        <time>2019-05-16T17:34:18.910Z</time>
      </trkpt>
      <trkpt lat="39.21779667" lon="-8.68230833">
        <ele>16.0</ele>
        <time>2019-05-16T17:34:19.905Z</time>
      </trkpt>
      <trkpt lat="39.21779667" lon="-8.68230833">
        <ele>16.0</ele>
        <time>2019-05-16T17:34:20.914Z</time>
      </trkpt>
      <trkpt lat="39.21779667" lon="-8.68230833">
        <ele>16.0</ele>
        <time>2019-05-16T17:34:21.917Z</time>
      </trkpt>
      <trkpt lat="39.21779667" lon="-8.68230833">
        <ele>16.0</ele>
        <time>2019-05-16T17:34:22.923Z</time>
      </trkpt>
      <trkpt lat="39.21779667" lon="-8.68230833">
        <ele>16.0</ele>
        <time>2019-05-16T17:34:23.906Z</time>
      </trkpt>
      <trkpt lat="39.21779667" lon="-8.68230833">
        <ele>16.0</ele>
        <time>2019-05-16T17:34:24.910Z</time>
      </trkpt>
      <trkpt lat="39.21779667" lon="-8.68230833">
        <ele>16.0</ele>
        <time>2019-05-16T17:34:25.912Z</time>
      </trkpt>
      <trkpt lat="39.21779667" lon="-8.68230833">
        <ele>16.0</ele>
        <time>2019-05-16T17:34:26.908Z</time>
      </trkpt>
      <trkpt lat="39.21779667" lon="-8.68230833">
        <ele>16.0</ele>
        <time>2019-05-16T17:34:27.925Z</time>
      </trkpt>
      <trkpt lat="39.21779667" lon="-8.68230833">
        <ele>16.0</ele>
        <time>2019-05-16T17:34:28.910Z</time>
      </trkpt>
      <trkpt lat="39.21779667" lon="-8.68230833">
        <ele>16.0</ele>
        <time>2019-05-16T17:34:29.911Z</time>
      </trkpt>
      <trkpt lat="39.21779667" lon="-8.68230833">
        <ele>16.0</ele>
        <time>2019-05-16T17:34:30.915Z</time>
      </trkpt>
      <trkpt lat="39.21779667" lon="-8.68230833">
        <ele>16.0</ele>
        <time>2019-05-16T17:34:31.909Z</time>
      </trkpt>
      <trkpt lat="39.21779667" lon="-8.68230833">
        <ele>16.0</ele>
        <time>2019-05-16T17:34:32.917Z</time>
      </trkpt>
      <trkpt lat="39.21779667" lon="-8.68230833">
        <ele>16.0</ele>
        <time>2019-05-16T17:34:33.910Z</time>
      </trkpt>
      <trkpt lat="39.21779667" lon="-8.68230833">
        <ele>16.0</ele>
        <time>2019-05-16T17:34:34.911Z</time>
      </trkpt>
      <trkpt lat="39.21779667" lon="-8.68230833">
        <ele>16.0</ele>
        <time>2019-05-16T17:34:35.906Z</time>
      </trkpt>
      <trkpt lat="39.21779667" lon="-8.68230833">
        <ele>16.0</ele>
        <time>2019-05-16T17:34:36.908Z</time>
      </trkpt>
      <trkpt lat="39.21779667" lon="-8.68230833">
        <ele>16.0</ele>
        <time>2019-05-16T17:34:37.912Z</time>
      </trkpt>
      <trkpt lat="39.21779667" lon="-8.68230833">
        <ele>16.0</ele>
        <time>2019-05-16T17:34:38.907Z</time>
      </trkpt>
      <trkpt lat="39.21779667" lon="-8.68230833">
        <ele>16.0</ele>
        <time>2019-05-16T17:34:39.911Z</time>
      </trkpt>
      <trkpt lat="39.21779667" lon="-8.68230833">
        <ele>16.0</ele>
        <time>2019-05-16T17:34:40.905Z</time>
      </trkpt>
      <trkpt lat="39.21779667" lon="-8.68230833">
        <ele>16.0</ele>
        <time>2019-05-16T17:34:41.911Z</time>
      </trkpt>
      <trkpt lat="39.21779667" lon="-8.68230833">
        <ele>16.0</ele>
        <time>2019-05-16T17:34:42.927Z</time>
      </trkpt>
      <trkpt lat="39.21779667" lon="-8.68230833">
        <ele>16.0</ele>
        <time>2019-05-16T17:34:43.913Z</time>
      </trkpt>
      <trkpt lat="39.21779667" lon="-8.68230833">
        <ele>16.0</ele>
        <time>2019-05-16T17:34:44.909Z</time>
      </trkpt>
      <trkpt lat="39.21779667" lon="-8.68230833">
        <ele>16.0</ele>
        <time>2019-05-16T17:34:45.911Z</time>
      </trkpt>
      <trkpt lat="39.21779667" lon="-8.68230833">
        <ele>16.0</ele>
        <time>2019-05-16T17:34:46.905Z</time>
      </trkpt>
      <trkpt lat="39.21779667" lon="-8.68230833">
        <ele>16.0</ele>
        <time>2019-05-16T17:34:47.910Z</time>
      </trkpt>
      <trkpt lat="39.21779667" lon="-8.68230833">
        <ele>16.0</ele>
        <time>2019-05-16T17:34:48.906Z</time>
      </trkpt>
      <trkpt lat="39.21779667" lon="-8.68230833">
        <ele>16.0</ele>
        <time>2019-05-16T17:34:49.917Z</time>
      </trkpt>
      <trkpt lat="39.21779667" lon="-8.68230833">
        <ele>16.0</ele>
        <time>2019-05-16T17:34:50.913Z</time>
      </trkpt>
      <trkpt lat="39.21779667" lon="-8.68230833">
        <ele>16.0</ele>
        <time>2019-05-16T17:34:51.908Z</time>
      </trkpt>
      <trkpt lat="39.21779667" lon="-8.68230833">
        <ele>16.0</ele>
        <time>2019-05-16T17:34:52.912Z</time>
      </trkpt>
      <trkpt lat="39.21779667" lon="-8.68230833">
        <ele>16.0</ele>
        <time>2019-05-16T17:34:53.911Z</time>
      </trkpt>
      <trkpt lat="39.21779667" lon="-8.68230833">
        <ele>16.0</ele>
        <time>2019-05-16T17:34:54.906Z</time>
      </trkpt>
      <trkpt lat="39.21779667" lon="-8.68230833">
        <ele>16.0</ele>
        <time>2019-05-16T17:34:55.910Z</time>
      </trkpt>
      <trkpt lat="39.21779667" lon="-8.68230833">
        <ele>16.0</ele>
        <time>2019-05-16T17:34:56.909Z</time>
      </trkpt>
      <trkpt lat="39.21779667" lon="-8.68230833">
        <ele>16.0</ele>
        <time>2019-05-16T17:34:57.905Z</time>
      </trkpt>
      <trkpt lat="39.21779667" lon="-8.68230833">
        <ele>16.0</ele>
        <time>2019-05-16T17:34:58.908Z</time>
      </trkpt>
      <trkpt lat="39.21779667" lon="-8.68230833">
        <ele>16.0</ele>
        <time>2019-05-16T17:34:59.911Z</time>
      </trkpt>
      <trkpt lat="39.21779667" lon="-8.68230833">
        <ele>16.0</ele>
        <time>2019-05-16T17:35:00.911Z</time>
      </trkpt>
      <trkpt lat="39.21779667" lon="-8.68230833">
        <ele>16.0</ele>
        <time>2019-05-16T17:35:01.912Z</time>
      </trkpt>
      <trkpt lat="39.21779667" lon="-8.68230833">
        <ele>16.0</ele>
        <time>2019-05-16T17:35:02.911Z</time>
      </trkpt>
      <trkpt lat="39.21779667" lon="-8.68230833">
        <ele>16.0</ele>
        <time>2019-05-16T17:35:03.905Z</time>
      </trkpt>
      <trkpt lat="39.21779667" lon="-8.68230833">
        <ele>16.0</ele>
        <time>2019-05-16T17:35:04.910Z</time>
      </trkpt>
      <trkpt lat="39.21779667" lon="-8.68230833">
        <ele>16.0</ele>
        <time>2019-05-16T17:35:05.906Z</time>
      </trkpt>
      <trkpt lat="39.21779667" lon="-8.68230833">
        <ele>16.0</ele>
        <time>2019-05-16T17:35:06.919Z</time>
      </trkpt>
      <trkpt lat="39.21779667" lon="-8.68230833">
        <ele>16.0</ele>
        <time>2019-05-16T17:35:07.906Z</time>
      </trkpt>
      <trkpt lat="39.21779667" lon="-8.68230833">
        <ele>16.0</ele>
        <time>2019-05-16T17:35:08.913Z</time>
      </trkpt>
      <trkpt lat="39.21779667" lon="-8.68230833">
        <ele>16.0</ele>
        <time>2019-05-16T17:35:09.911Z</time>
      </trkpt>
      <trkpt lat="39.21779667" lon="-8.68230833">
        <ele>16.0</ele>
        <time>2019-05-16T17:35:10.908Z</time>
      </trkpt>
      <trkpt lat="39.21779667" lon="-8.68230833">
        <ele>16.0</ele>
        <time>2019-05-16T17:35:11.926Z</time>
      </trkpt>
      <trkpt lat="39.21779667" lon="-8.68230833">
        <ele>16.0</ele>
        <time>2019-05-16T17:35:12.909Z</time>
      </trkpt>
      <trkpt lat="39.21779667" lon="-8.68230833">
        <ele>16.0</ele>
        <time>2019-05-16T17:35:13.931Z</time>
      </trkpt>
      <trkpt lat="39.21779667" lon="-8.68230833">
        <ele>16.0</ele>
        <time>2019-05-16T17:35:14.917Z</time>
      </trkpt>
      <trkpt lat="39.21779667" lon="-8.68230833">
        <ele>16.0</ele>
        <time>2019-05-16T17:35:15.910Z</time>
      </trkpt>
      <trkpt lat="39.21779667" lon="-8.68230833">
        <ele>16.0</ele>
        <time>2019-05-16T17:35:16.906Z</time>
      </trkpt>
      <trkpt lat="39.21779667" lon="-8.68230833">
        <ele>16.0</ele>
        <time>2019-05-16T17:35:17.910Z</time>
      </trkpt>
      <trkpt lat="39.21779667" lon="-8.68230833">
        <ele>16.0</ele>
        <time>2019-05-16T17:35:18.910Z</time>
      </trkpt>
      <trkpt lat="39.21779667" lon="-8.68230833">
        <ele>16.0</ele>
        <time>2019-05-16T17:35:19.911Z</time>
      </trkpt>
      <trkpt lat="39.21779667" lon="-8.68230833">
        <ele>16.0</ele>
        <time>2019-05-16T17:35:20.902Z</time>
      </trkpt>
      <trkpt lat="39.21779667" lon="-8.68230833">
        <ele>16.0</ele>
        <time>2019-05-16T17:35:21.929Z</time>
      </trkpt>
      <trkpt lat="39.21779667" lon="-8.68230833">
        <ele>16.0</ele>
        <time>2019-05-16T17:35:22.908Z</time>
      </trkpt>
      <trkpt lat="39.21779667" lon="-8.68230833">
        <ele>16.0</ele>
        <time>2019-05-16T17:35:23.908Z</time>
      </trkpt>
      <trkpt lat="39.21779667" lon="-8.68230833">
        <ele>16.0</ele>
        <time>2019-05-16T17:35:24.914Z</time>
      </trkpt>
      <trkpt lat="39.21779667" lon="-8.68230833">
        <ele>16.0</ele>
        <time>2019-05-16T17:35:25.908Z</time>
      </trkpt>
      <trkpt lat="39.21779667" lon="-8.68230833">
        <ele>16.0</ele>
        <time>2019-05-16T17:35:26.912Z</time>
      </trkpt>
      <trkpt lat="39.21779667" lon="-8.68230833">
        <ele>16.0</ele>
        <time>2019-05-16T17:35:27.906Z</time>
      </trkpt>
      <trkpt lat="39.21779667" lon="-8.68230833">
        <ele>16.0</ele>
        <time>2019-05-16T17:35:28.908Z</time>
      </trkpt>
      <trkpt lat="39.21779667" lon="-8.68230833">
        <ele>16.0</ele>
        <time>2019-05-16T17:35:29.911Z</time>
      </trkpt>
      <trkpt lat="39.21779667" lon="-8.68230833">
        <ele>16.0</ele>
        <time>2019-05-16T17:35:30.909Z</time>
      </trkpt>
      <trkpt lat="39.21779667" lon="-8.68230833">
        <ele>16.0</ele>
        <time>2019-05-16T17:35:31.906Z</time>
      </trkpt>
      <trkpt lat="39.21779667" lon="-8.68230833">
        <ele>16.0</ele>
        <time>2019-05-16T17:35:32.912Z</time>
      </trkpt>
      <trkpt lat="39.21779667" lon="-8.68230833">
        <ele>16.0</ele>
        <time>2019-05-16T17:35:33.906Z</time>
      </trkpt>
      <trkpt lat="39.21779667" lon="-8.68230833">
        <ele>16.0</ele>
        <time>2019-05-16T17:35:34.915Z</time>
      </trkpt>
      <trkpt lat="39.21779667" lon="-8.68230833">
        <ele>16.0</ele>
        <time>2019-05-16T17:35:35.909Z</time>
      </trkpt>
      <trkpt lat="39.21779667" lon="-8.68230833">
        <ele>16.0</ele>
        <time>2019-05-16T17:35:36.910Z</time>
      </trkpt>
      <trkpt lat="39.21779667" lon="-8.68230833">
        <ele>16.0</ele>
        <time>2019-05-16T17:35:37.909Z</time>
      </trkpt>
      <trkpt lat="39.21779667" lon="-8.68230833">
        <ele>16.0</ele>
        <time>2019-05-16T17:35:38.915Z</time>
      </trkpt>
      <trkpt lat="39.21779667" lon="-8.68230833">
        <ele>16.0</ele>
        <time>2019-05-16T17:35:39.911Z</time>
      </trkpt>
      <trkpt lat="39.21779667" lon="-8.68230833">
        <ele>16.0</ele>
        <time>2019-05-16T17:35:40.911Z</time>
      </trkpt>
      <trkpt lat="39.21779667" lon="-8.68230833">
        <ele>16.0</ele>
        <time>2019-05-16T17:35:41.909Z</time>
      </trkpt>
      <trkpt lat="39.21779667" lon="-8.68230833">
        <ele>16.0</ele>
        <time>2019-05-16T17:35:42.906Z</time>
      </trkpt>
      <trkpt lat="39.21779667" lon="-8.68230833">
        <ele>16.0</ele>
        <time>2019-05-16T17:35:43.910Z</time>
      </trkpt>
      <trkpt lat="39.21779667" lon="-8.68230833">
        <ele>16.0</ele>
        <time>2019-05-16T17:35:44.912Z</time>
      </trkpt>
      <trkpt lat="39.21779667" lon="-8.68230833">
        <ele>16.0</ele>
        <time>2019-05-16T17:35:45.909Z</time>
      </trkpt>
      <trkpt lat="39.21779667" lon="-8.68230833">
        <ele>16.0</ele>
        <time>2019-05-16T17:35:46.910Z</time>
      </trkpt>
      <trkpt lat="39.21779667" lon="-8.68230833">
        <ele>16.0</ele>
        <time>2019-05-16T17:35:47.907Z</time>
      </trkpt>
      <trkpt lat="39.21779667" lon="-8.68230833">
        <ele>16.0</ele>
        <time>2019-05-16T17:35:48.910Z</time>
      </trkpt>
      <trkpt lat="39.21779667" lon="-8.68230833">
        <ele>16.0</ele>
        <time>2019-05-16T17:35:49.909Z</time>
      </trkpt>
      <trkpt lat="39.21779667" lon="-8.68230833">
        <ele>16.0</ele>
        <time>2019-05-16T17:35:50.907Z</time>
      </trkpt>
      <trkpt lat="39.21779667" lon="-8.68230833">
        <ele>16.0</ele>
        <time>2019-05-16T17:35:51.911Z</time>
      </trkpt>
      <trkpt lat="39.21779667" lon="-8.68230833">
        <ele>16.0</ele>
        <time>2019-05-16T17:35:52.910Z</time>
      </trkpt>
      <trkpt lat="39.21779667" lon="-8.68230833">
        <ele>16.0</ele>
        <time>2019-05-16T17:35:53.911Z</time>
      </trkpt>
      <trkpt lat="39.21779667" lon="-8.68230833">
        <ele>16.0</ele>
        <time>2019-05-16T17:35:54.906Z</time>
      </trkpt>
      <trkpt lat="39.21779667" lon="-8.68230833">
        <ele>16.0</ele>
        <time>2019-05-16T17:35:55.910Z</time>
      </trkpt>
      <trkpt lat="39.21779667" lon="-8.68230833">
        <ele>16.0</ele>
        <time>2019-05-16T17:35:56.910Z</time>
      </trkpt>
      <trkpt lat="39.21779667" lon="-8.68230833">
        <ele>16.0</ele>
        <time>2019-05-16T17:35:57.910Z</time>
      </trkpt>
      <trkpt lat="39.21779667" lon="-8.68230833">
        <ele>16.0</ele>
        <time>2019-05-16T17:35:58.910Z</time>
      </trkpt>
      <trkpt lat="39.21779667" lon="-8.68230833">
        <ele>16.0</ele>
        <time>2019-05-16T17:35:59.906Z</time>
      </trkpt>
      <trkpt lat="39.217775" lon="-8.68232167">
        <ele>16.0</ele>
        <time>2019-05-16T17:36:00.910Z</time>
      </trkpt>
      <trkpt lat="39.217765" lon="-8.68233">
        <ele>16.0</ele>
        <time>2019-05-16T17:36:01.912Z</time>
      </trkpt>
      <trkpt lat="39.21775667" lon="-8.68233667">
        <ele>16.0</ele>
        <time>2019-05-16T17:36:02.912Z</time>
      </trkpt>
      <trkpt lat="39.21775667" lon="-8.68233667">
        <ele>16.0</ele>
        <time>2019-05-16T17:36:03.906Z</time>
      </trkpt>
      <trkpt lat="39.21775167" lon="-8.68234333">
        <ele>16.0</ele>
        <time>2019-05-16T17:36:04.908Z</time>
      </trkpt>
      <trkpt lat="39.21775167" lon="-8.68234333">
        <ele>16.0</ele>
        <time>2019-05-16T17:36:05.906Z</time>
      </trkpt>
      <trkpt lat="39.21775167" lon="-8.682345">
        <ele>16.0</ele>
        <time>2019-05-16T17:36:06.921Z</time>
      </trkpt>
      <trkpt lat="39.21775167" lon="-8.682345">
        <ele>16.0</ele>
        <time>2019-05-16T17:36:07.906Z</time>
      </trkpt>
      <trkpt lat="39.21775167" lon="-8.682345">
        <ele>16.0</ele>
        <time>2019-05-16T17:36:08.912Z</time>
      </trkpt>
      <trkpt lat="39.21775167" lon="-8.682345">
        <ele>16.0</ele>
        <time>2019-05-16T17:36:09.905Z</time>
      </trkpt>
      <trkpt lat="39.21775167" lon="-8.682345">
        <ele>16.0</ele>
        <time>2019-05-16T17:36:10.908Z</time>
      </trkpt>
      <trkpt lat="39.21775167" lon="-8.682345">
        <ele>16.0</ele>
        <time>2019-05-16T17:36:11.915Z</time>
      </trkpt>
      <trkpt lat="39.21775167" lon="-8.682345">
        <ele>16.0</ele>
        <time>2019-05-16T17:36:12.908Z</time>
      </trkpt>
      <trkpt lat="39.21775167" lon="-8.682345">
        <ele>16.0</ele>
        <time>2019-05-16T17:36:13.902Z</time>
      </trkpt>
      <trkpt lat="39.21775167" lon="-8.682345">
        <ele>16.0</ele>
        <time>2019-05-16T17:36:14.912Z</time>
      </trkpt>
      <trkpt lat="39.21775167" lon="-8.682345">
        <ele>16.0</ele>
        <time>2019-05-16T17:36:15.912Z</time>
      </trkpt>
      <trkpt lat="39.21775167" lon="-8.682345">
        <ele>16.0</ele>
        <time>2019-05-16T17:36:16.905Z</time>
      </trkpt>
      <trkpt lat="39.21775167" lon="-8.682345">
        <ele>16.0</ele>
        <time>2019-05-16T17:36:17.910Z</time>
      </trkpt>
      <trkpt lat="39.21775167" lon="-8.682345">
        <ele>16.0</ele>
        <time>2019-05-16T17:36:18.906Z</time>
      </trkpt>
      <trkpt lat="39.21775167" lon="-8.682345">
        <ele>16.0</ele>
        <time>2019-05-16T17:36:19.912Z</time>
      </trkpt>
      <trkpt lat="39.21775167" lon="-8.682345">
        <ele>16.0</ele>
        <time>2019-05-16T17:36:20.908Z</time>
      </trkpt>
      <trkpt lat="39.21775167" lon="-8.682345">
        <ele>16.0</ele>
        <time>2019-05-16T17:36:21.931Z</time>
      </trkpt>
      <trkpt lat="39.21775167" lon="-8.682345">
        <ele>16.0</ele>
        <time>2019-05-16T17:36:22.902Z</time>
      </trkpt>
      <trkpt lat="39.21775167" lon="-8.682345">
        <ele>16.0</ele>
        <time>2019-05-16T17:36:23.929Z</time>
      </trkpt>
      <trkpt lat="39.21775167" lon="-8.682345">
        <ele>16.0</ele>
        <time>2019-05-16T17:36:24.916Z</time>
      </trkpt>
      <trkpt lat="39.21775167" lon="-8.682345">
        <ele>16.0</ele>
        <time>2019-05-16T17:36:25.908Z</time>
      </trkpt>
      <trkpt lat="39.21773833" lon="-8.68237833">
        <ele>15.0</ele>
        <time>2019-05-16T17:36:26.913Z</time>
      </trkpt>
      <trkpt lat="39.21773833" lon="-8.68237833">
        <ele>15.0</ele>
        <time>2019-05-16T17:36:27.906Z</time>
      </trkpt>
      <trkpt lat="39.21775667" lon="-8.68243833">
        <ele>15.0</ele>
        <time>2019-05-16T17:36:28.911Z</time>
      </trkpt>
      <trkpt lat="39.21775667" lon="-8.68243833">
        <ele>15.0</ele>
        <time>2019-05-16T17:36:29.910Z</time>
      </trkpt>
      <trkpt lat="39.21780667" lon="-8.68249333">
        <ele>14.0</ele>
        <time>2019-05-16T17:36:30.908Z</time>
      </trkpt>
      <trkpt lat="39.21780667" lon="-8.68249333">
        <ele>14.0</ele>
        <time>2019-05-16T17:36:31.906Z</time>
      </trkpt>
      <trkpt lat="39.21786333" lon="-8.68254667">
        <ele>14.0</ele>
        <time>2019-05-16T17:36:32.922Z</time>
      </trkpt>
      <trkpt lat="39.21786333" lon="-8.68254667">
        <ele>14.0</ele>
        <time>2019-05-16T17:36:33.929Z</time>
      </trkpt>
      <trkpt lat="39.21792333" lon="-8.68260667">
        <ele>14.0</ele>
        <time>2019-05-16T17:36:34.911Z</time>
      </trkpt>
      <trkpt lat="39.21792333" lon="-8.68260667">
        <ele>14.0</ele>
        <time>2019-05-16T17:36:35.935Z</time>
      </trkpt>
      <trkpt lat="39.217985" lon="-8.68266167">
        <ele>13.0</ele>
        <time>2019-05-16T17:36:36.926Z</time>
      </trkpt>
      <trkpt lat="39.217985" lon="-8.68266167">
        <ele>13.0</ele>
        <time>2019-05-16T17:36:37.897Z</time>
      </trkpt>
      <trkpt lat="39.21805" lon="-8.68270667">
        <ele>13.0</ele>
        <time>2019-05-16T17:36:38.936Z</time>
      </trkpt>
      <trkpt lat="39.21805" lon="-8.68270667">
        <ele>13.0</ele>
        <time>2019-05-16T17:36:39.922Z</time>
      </trkpt>
      <trkpt lat="39.21811833" lon="-8.68275">
        <ele>13.0</ele>
        <time>2019-05-16T17:36:40.900Z</time>
      </trkpt>
      <trkpt lat="39.21811833" lon="-8.68275">
        <ele>13.0</ele>
        <time>2019-05-16T17:36:41.903Z</time>
      </trkpt>
      <trkpt lat="39.21817333" lon="-8.68279">
        <ele>13.0</ele>
        <time>2019-05-16T17:36:42.899Z</time>
      </trkpt>
      <trkpt lat="39.21817333" lon="-8.68279">
        <ele>13.0</ele>
        <time>2019-05-16T17:36:43.914Z</time>
      </trkpt>
      <trkpt lat="39.21822833" lon="-8.68282333">
        <ele>13.0</ele>
        <time>2019-05-16T17:36:44.931Z</time>
      </trkpt>
      <trkpt lat="39.21822833" lon="-8.68282333">
        <ele>13.0</ele>
        <time>2019-05-16T17:36:45.928Z</time>
      </trkpt>
      <trkpt lat="39.21828667" lon="-8.68285833">
        <ele>12.0</ele>
        <time>2019-05-16T17:36:46.908Z</time>
      </trkpt>
      <trkpt lat="39.21828667" lon="-8.68285833">
        <ele>12.0</ele>
        <time>2019-05-16T17:36:47.923Z</time>
      </trkpt>
      <trkpt lat="39.218345" lon="-8.68289333">
        <ele>12.0</ele>
        <time>2019-05-16T17:36:48.901Z</time>
      </trkpt>
      <trkpt lat="39.218345" lon="-8.68289333">
        <ele>12.0</ele>
        <time>2019-05-16T17:36:49.907Z</time>
      </trkpt>
      <trkpt lat="39.21839833" lon="-8.68291833">
        <ele>12.0</ele>
        <time>2019-05-16T17:36:50.938Z</time>
      </trkpt>
      <trkpt lat="39.21839833" lon="-8.68291833">
        <ele>12.0</ele>
        <time>2019-05-16T17:36:51.923Z</time>
      </trkpt>
      <trkpt lat="39.218445" lon="-8.68295">
        <ele>12.0</ele>
        <time>2019-05-16T17:36:52.898Z</time>
      </trkpt>
      <trkpt lat="39.218445" lon="-8.68295">
        <ele>12.0</ele>
        <time>2019-05-16T17:36:53.913Z</time>
      </trkpt>
      <trkpt lat="39.21848833" lon="-8.68298167">
        <ele>13.0</ele>
        <time>2019-05-16T17:36:54.941Z</time>
      </trkpt>
      <trkpt lat="39.21848833" lon="-8.68298167">
        <ele>13.0</ele>
        <time>2019-05-16T17:36:55.925Z</time>
      </trkpt>
      <trkpt lat="39.21853167" lon="-8.68300667">
        <ele>13.0</ele>
        <time>2019-05-16T17:36:56.902Z</time>
      </trkpt>
      <trkpt lat="39.21853167" lon="-8.68300667">
        <ele>13.0</ele>
        <time>2019-05-16T17:36:57.923Z</time>
      </trkpt>
      <trkpt lat="39.21857167" lon="-8.683025">
        <ele>13.0</ele>
        <time>2019-05-16T17:36:58.899Z</time>
      </trkpt>
      <trkpt lat="39.21857167" lon="-8.683025">
        <ele>13.0</ele>
        <time>2019-05-16T17:36:59.920Z</time>
      </trkpt>
      <trkpt lat="39.21861333" lon="-8.68304833">
        <ele>14.0</ele>
        <time>2019-05-16T17:37:00.900Z</time>
      </trkpt>
      <trkpt lat="39.21861333" lon="-8.68304833">
        <ele>14.0</ele>
        <time>2019-05-16T17:37:01.901Z</time>
      </trkpt>
      <trkpt lat="39.218655" lon="-8.68306833">
        <ele>14.0</ele>
        <time>2019-05-16T17:37:02.917Z</time>
      </trkpt>
      <trkpt lat="39.218655" lon="-8.68306833">
        <ele>14.0</ele>
        <time>2019-05-16T17:37:03.911Z</time>
      </trkpt>
      <trkpt lat="39.21870167" lon="-8.68308667">
        <ele>15.0</ele>
        <time>2019-05-16T17:37:04.897Z</time>
      </trkpt>
      <trkpt lat="39.21870167" lon="-8.68308667">
        <ele>15.0</ele>
        <time>2019-05-16T17:37:05.923Z</time>
      </trkpt>
      <trkpt lat="39.21874833" lon="-8.68311">
        <ele>15.0</ele>
        <time>2019-05-16T17:37:06.937Z</time>
      </trkpt>
      <trkpt lat="39.21874833" lon="-8.68311">
        <ele>15.0</ele>
        <time>2019-05-16T17:37:07.927Z</time>
      </trkpt>
      <trkpt lat="39.21879833" lon="-8.68312667">
        <ele>16.0</ele>
        <time>2019-05-16T17:37:08.921Z</time>
      </trkpt>
      <trkpt lat="39.21879833" lon="-8.68312667">
        <ele>16.0</ele>
        <time>2019-05-16T17:37:09.913Z</time>
      </trkpt>
      <trkpt lat="39.21884667" lon="-8.68314167">
        <ele>16.0</ele>
        <time>2019-05-16T17:37:10.931Z</time>
      </trkpt>
      <trkpt lat="39.21884667" lon="-8.68314167">
        <ele>16.0</ele>
        <time>2019-05-16T17:37:11.913Z</time>
      </trkpt>
      <trkpt lat="39.21889333" lon="-8.68317">
        <ele>17.0</ele>
        <time>2019-05-16T17:37:12.897Z</time>
      </trkpt>
      <trkpt lat="39.21889333" lon="-8.68317">
        <ele>17.0</ele>
        <time>2019-05-16T17:37:13.903Z</time>
      </trkpt>
      <trkpt lat="39.21893667" lon="-8.68319167">
        <ele>17.0</ele>
        <time>2019-05-16T17:37:14.919Z</time>
      </trkpt>
      <trkpt lat="39.21893667" lon="-8.68319167">
        <ele>17.0</ele>
        <time>2019-05-16T17:37:15.912Z</time>
      </trkpt>
      <trkpt lat="39.218975" lon="-8.68319833">
        <ele>18.0</ele>
        <time>2019-05-16T17:37:16.927Z</time>
      </trkpt>
      <trkpt lat="39.218975" lon="-8.68319833">
        <ele>18.0</ele>
        <time>2019-05-16T17:37:17.910Z</time>
      </trkpt>
      <trkpt lat="39.219" lon="-8.68320333">
        <ele>18.0</ele>
        <time>2019-05-16T17:37:18.931Z</time>
      </trkpt>
      <trkpt lat="39.219" lon="-8.68320333">
        <ele>18.0</ele>
        <time>2019-05-16T17:37:19.934Z</time>
      </trkpt>
      <trkpt lat="39.219005" lon="-8.68320667">
        <ele>18.0</ele>
        <time>2019-05-16T17:37:20.941Z</time>
      </trkpt>
      <trkpt lat="39.219005" lon="-8.68320667">
        <ele>18.0</ele>
        <time>2019-05-16T17:37:21.920Z</time>
      </trkpt>
      <trkpt lat="39.219005" lon="-8.68320833">
        <ele>18.0</ele>
        <time>2019-05-16T17:37:22.921Z</time>
      </trkpt>
      <trkpt lat="39.219005" lon="-8.68320833">
        <ele>18.0</ele>
        <time>2019-05-16T17:37:23.905Z</time>
      </trkpt>
      <trkpt lat="39.219005" lon="-8.68320833">
        <ele>18.0</ele>
        <time>2019-05-16T17:37:24.911Z</time>
      </trkpt>
      <trkpt lat="39.219005" lon="-8.68320833">
        <ele>18.0</ele>
        <time>2019-05-16T17:37:25.918Z</time>
      </trkpt>
      <trkpt lat="39.219005" lon="-8.68320833">
        <ele>18.0</ele>
        <time>2019-05-16T17:37:26.914Z</time>
      </trkpt>
      <trkpt lat="39.219005" lon="-8.68320833">
        <ele>18.0</ele>
        <time>2019-05-16T17:37:27.906Z</time>
      </trkpt>
      <trkpt lat="39.219005" lon="-8.68320833">
        <ele>18.0</ele>
        <time>2019-05-16T17:37:28.911Z</time>
      </trkpt>
      <trkpt lat="39.219005" lon="-8.68320833">
        <ele>18.0</ele>
        <time>2019-05-16T17:37:29.921Z</time>
      </trkpt>
      <trkpt lat="39.219005" lon="-8.68320833">
        <ele>18.0</ele>
        <time>2019-05-16T17:37:30.911Z</time>
      </trkpt>
      <trkpt lat="39.219005" lon="-8.68320833">
        <ele>18.0</ele>
        <time>2019-05-16T17:37:31.906Z</time>
      </trkpt>
      <trkpt lat="39.219005" lon="-8.68320833">
        <ele>18.0</ele>
        <time>2019-05-16T17:37:32.912Z</time>
      </trkpt>
      <trkpt lat="39.219005" lon="-8.68320833">
        <ele>18.0</ele>
        <time>2019-05-16T17:37:33.913Z</time>
      </trkpt>
      <trkpt lat="39.219005" lon="-8.68320833">
        <ele>18.0</ele>
        <time>2019-05-16T17:37:34.909Z</time>
      </trkpt>
      <trkpt lat="39.219005" lon="-8.68320833">
        <ele>18.0</ele>
        <time>2019-05-16T17:37:35.910Z</time>
      </trkpt>
      <trkpt lat="39.219005" lon="-8.68320833">
        <ele>18.0</ele>
        <time>2019-05-16T17:37:36.908Z</time>
      </trkpt>
      <trkpt lat="39.219005" lon="-8.68320833">
        <ele>18.0</ele>
        <time>2019-05-16T17:37:37.910Z</time>
      </trkpt>
      <trkpt lat="39.219005" lon="-8.68320833">
        <ele>18.0</ele>
        <time>2019-05-16T17:37:38.913Z</time>
      </trkpt>
      <trkpt lat="39.219005" lon="-8.68320833">
        <ele>18.0</ele>
        <time>2019-05-16T17:37:39.906Z</time>
      </trkpt>
      <trkpt lat="39.219005" lon="-8.68320833">
        <ele>18.0</ele>
        <time>2019-05-16T17:37:40.910Z</time>
      </trkpt>
      <trkpt lat="39.219005" lon="-8.68320833">
        <ele>18.0</ele>
        <time>2019-05-16T17:37:41.910Z</time>
      </trkpt>
      <trkpt lat="39.219005" lon="-8.68320833">
        <ele>18.0</ele>
        <time>2019-05-16T17:37:42.911Z</time>
      </trkpt>
      <trkpt lat="39.219005" lon="-8.68320833">
        <ele>18.0</ele>
        <time>2019-05-16T17:37:43.906Z</time>
      </trkpt>
      <trkpt lat="39.219005" lon="-8.68320833">
        <ele>18.0</ele>
        <time>2019-05-16T17:37:44.908Z</time>
      </trkpt>
      <trkpt lat="39.219005" lon="-8.68320833">
        <ele>18.0</ele>
        <time>2019-05-16T17:37:45.912Z</time>
      </trkpt>
      <trkpt lat="39.219005" lon="-8.68320833">
        <ele>18.0</ele>
        <time>2019-05-16T17:37:46.911Z</time>
      </trkpt>
      <trkpt lat="39.219005" lon="-8.68320833">
        <ele>18.0</ele>
        <time>2019-05-16T17:37:47.905Z</time>
      </trkpt>
      <trkpt lat="39.219005" lon="-8.68320833">
        <ele>18.0</ele>
        <time>2019-05-16T17:37:48.921Z</time>
      </trkpt>
      <trkpt lat="39.219005" lon="-8.68320833">
        <ele>18.0</ele>
        <time>2019-05-16T17:37:49.908Z</time>
      </trkpt>
      <trkpt lat="39.219005" lon="-8.68320833">
        <ele>18.0</ele>
        <time>2019-05-16T17:37:50.914Z</time>
      </trkpt>
      <trkpt lat="39.219005" lon="-8.68320833">
        <ele>18.0</ele>
        <time>2019-05-16T17:37:51.909Z</time>
      </trkpt>
      <trkpt lat="39.219005" lon="-8.68320833">
        <ele>18.0</ele>
        <time>2019-05-16T17:37:52.910Z</time>
      </trkpt>
      <trkpt lat="39.219005" lon="-8.68320833">
        <ele>18.0</ele>
        <time>2019-05-16T17:37:53.906Z</time>
      </trkpt>
      <trkpt lat="39.219005" lon="-8.68320833">
        <ele>18.0</ele>
        <time>2019-05-16T17:37:54.908Z</time>
      </trkpt>
      <trkpt lat="39.219005" lon="-8.68320833">
        <ele>18.0</ele>
        <time>2019-05-16T17:37:55.911Z</time>
      </trkpt>
      <trkpt lat="39.219005" lon="-8.68320833">
        <ele>18.0</ele>
        <time>2019-05-16T17:37:56.907Z</time>
      </trkpt>
      <trkpt lat="39.219005" lon="-8.68320833">
        <ele>18.0</ele>
        <time>2019-05-16T17:37:57.910Z</time>
      </trkpt>
      <trkpt lat="39.219005" lon="-8.68320833">
        <ele>18.0</ele>
        <time>2019-05-16T17:37:58.906Z</time>
      </trkpt>
      <trkpt lat="39.219005" lon="-8.68320833">
        <ele>18.0</ele>
        <time>2019-05-16T17:37:59.915Z</time>
      </trkpt>
      <trkpt lat="39.219005" lon="-8.68320833">
        <ele>18.0</ele>
        <time>2019-05-16T17:38:00.906Z</time>
      </trkpt>
      <trkpt lat="39.219005" lon="-8.68320833">
        <ele>18.0</ele>
        <time>2019-05-16T17:38:01.912Z</time>
      </trkpt>
      <trkpt lat="39.219005" lon="-8.68320833">
        <ele>18.0</ele>
        <time>2019-05-16T17:38:02.913Z</time>
      </trkpt>
      <trkpt lat="39.219005" lon="-8.68320833">
        <ele>18.0</ele>
        <time>2019-05-16T17:38:03.906Z</time>
      </trkpt>
      <trkpt lat="39.219005" lon="-8.68320833">
        <ele>18.0</ele>
        <time>2019-05-16T17:38:04.908Z</time>
      </trkpt>
      <trkpt lat="39.219005" lon="-8.68320833">
        <ele>18.0</ele>
        <time>2019-05-16T17:38:05.908Z</time>
      </trkpt>
      <trkpt lat="39.219005" lon="-8.68320833">
        <ele>18.0</ele>
        <time>2019-05-16T17:38:06.906Z</time>
      </trkpt>
      <trkpt lat="39.219005" lon="-8.68320833">
        <ele>18.0</ele>
        <time>2019-05-16T17:38:07.910Z</time>
      </trkpt>
      <trkpt lat="39.219005" lon="-8.68320833">
        <ele>18.0</ele>
        <time>2019-05-16T17:38:08.912Z</time>
      </trkpt>
      <trkpt lat="39.21904" lon="-8.68321167">
        <ele>20.0</ele>
        <time>2019-05-16T17:38:09.910Z</time>
      </trkpt>
      <trkpt lat="39.21904" lon="-8.68321167">
        <ele>20.0</ele>
        <time>2019-05-16T17:38:10.905Z</time>
      </trkpt>
      <trkpt lat="39.21908" lon="-8.683225">
        <ele>20.0</ele>
        <time>2019-05-16T17:38:11.910Z</time>
      </trkpt>
      <trkpt lat="39.21908" lon="-8.683225">
        <ele>20.0</ele>
        <time>2019-05-16T17:38:12.905Z</time>
      </trkpt>
      <trkpt lat="39.21914" lon="-8.68324167">
        <ele>20.0</ele>
        <time>2019-05-16T17:38:13.910Z</time>
      </trkpt>
      <trkpt lat="39.21914" lon="-8.68324167">
        <ele>20.0</ele>
        <time>2019-05-16T17:38:14.906Z</time>
      </trkpt>
      <trkpt lat="39.21920667" lon="-8.68324833">
        <ele>21.0</ele>
        <time>2019-05-16T17:38:15.901Z</time>
      </trkpt>
      <trkpt lat="39.21920667" lon="-8.68324833">
        <ele>21.0</ele>
        <time>2019-05-16T17:38:16.933Z</time>
      </trkpt>
      <trkpt lat="39.21927167" lon="-8.683245">
        <ele>21.0</ele>
        <time>2019-05-16T17:38:17.911Z</time>
      </trkpt>
      <trkpt lat="39.21927167" lon="-8.683245">
        <ele>21.0</ele>
        <time>2019-05-16T17:38:18.933Z</time>
      </trkpt>
      <trkpt lat="39.21933333" lon="-8.68323167">
        <ele>21.0</ele>
        <time>2019-05-16T17:38:19.921Z</time>
      </trkpt>
      <trkpt lat="39.21933333" lon="-8.68323167">
        <ele>21.0</ele>
        <time>2019-05-16T17:38:20.931Z</time>
      </trkpt>
      <trkpt lat="39.219395" lon="-8.68321167">
        <ele>22.0</ele>
        <time>2019-05-16T17:38:21.931Z</time>
      </trkpt>
      <trkpt lat="39.21942333" lon="-8.683205">
        <ele>22.0</ele>
        <time>2019-05-16T17:38:22.897Z</time>
      </trkpt>
      <trkpt lat="39.21942333" lon="-8.683205">
        <ele>22.0</ele>
        <time>2019-05-16T17:38:23.903Z</time>
      </trkpt>
      <trkpt lat="39.21948333" lon="-8.68318667">
        <ele>22.0</ele>
        <time>2019-05-16T17:38:24.921Z</time>
      </trkpt>
      <trkpt lat="39.21948333" lon="-8.68318667">
        <ele>22.0</ele>
        <time>2019-05-16T17:38:25.932Z</time>
      </trkpt>
      <trkpt lat="39.21954" lon="-8.683165">
        <ele>23.0</ele>
        <time>2019-05-16T17:38:26.906Z</time>
      </trkpt>
      <trkpt lat="39.21954" lon="-8.683165">
        <ele>23.0</ele>
        <time>2019-05-16T17:38:27.898Z</time>
      </trkpt>
      <trkpt lat="39.21959667" lon="-8.68314">
        <ele>24.0</ele>
        <time>2019-05-16T17:38:28.912Z</time>
      </trkpt>
      <trkpt lat="39.21959667" lon="-8.68314">
        <ele>24.0</ele>
        <time>2019-05-16T17:38:29.902Z</time>
      </trkpt>
      <trkpt lat="39.21965667" lon="-8.68311167">
        <ele>24.0</ele>
        <time>2019-05-16T17:38:30.925Z</time>
      </trkpt>
      <trkpt lat="39.21965667" lon="-8.68311167">
        <ele>24.0</ele>
        <time>2019-05-16T17:38:31.913Z</time>
      </trkpt>
      <trkpt lat="39.21970667" lon="-8.68308167">
        <ele>25.0</ele>
        <time>2019-05-16T17:38:32.930Z</time>
      </trkpt>
      <trkpt lat="39.21970667" lon="-8.68308167">
        <ele>25.0</ele>
        <time>2019-05-16T17:38:33.923Z</time>
      </trkpt>
      <trkpt lat="39.21975" lon="-8.68307167">
        <ele>25.0</ele>
        <time>2019-05-16T17:38:34.901Z</time>
      </trkpt>
      <trkpt lat="39.21975" lon="-8.68307167">
        <ele>25.0</ele>
        <time>2019-05-16T17:38:35.898Z</time>
      </trkpt>
      <trkpt lat="39.21978833" lon="-8.683065">
        <ele>25.0</ele>
        <time>2019-05-16T17:38:36.913Z</time>
      </trkpt>
      <trkpt lat="39.21980833" lon="-8.68306">
        <ele>25.0</ele>
        <time>2019-05-16T17:38:37.921Z</time>
      </trkpt>
      <trkpt lat="39.21982833" lon="-8.68305333">
        <ele>25.0</ele>
        <time>2019-05-16T17:38:38.930Z</time>
      </trkpt>
      <trkpt lat="39.21982833" lon="-8.68305333">
        <ele>25.0</ele>
        <time>2019-05-16T17:38:39.903Z</time>
      </trkpt>
      <trkpt lat="39.21986833" lon="-8.68304667">
        <ele>25.0</ele>
        <time>2019-05-16T17:38:40.920Z</time>
      </trkpt>
      <trkpt lat="39.21986833" lon="-8.68304667">
        <ele>25.0</ele>
        <time>2019-05-16T17:38:41.923Z</time>
      </trkpt>
      <trkpt lat="39.21991167" lon="-8.683035">
        <ele>25.0</ele>
        <time>2019-05-16T17:38:42.911Z</time>
      </trkpt>
      <trkpt lat="39.21991167" lon="-8.683035">
        <ele>25.0</ele>
        <time>2019-05-16T17:38:43.927Z</time>
      </trkpt>
      <trkpt lat="39.219955" lon="-8.68302833">
        <ele>25.0</ele>
        <time>2019-05-16T17:38:44.911Z</time>
      </trkpt>
      <trkpt lat="39.219955" lon="-8.68302833">
        <ele>25.0</ele>
        <time>2019-05-16T17:38:45.937Z</time>
      </trkpt>
      <trkpt lat="39.21999833" lon="-8.68302167">
        <ele>25.0</ele>
        <time>2019-05-16T17:38:46.921Z</time>
      </trkpt>
      <trkpt lat="39.21999833" lon="-8.68302167">
        <ele>25.0</ele>
        <time>2019-05-16T17:38:47.913Z</time>
      </trkpt>
      <trkpt lat="39.22004167" lon="-8.68301833">
        <ele>25.0</ele>
        <time>2019-05-16T17:38:48.923Z</time>
      </trkpt>
      <trkpt lat="39.22004167" lon="-8.68301833">
        <ele>25.0</ele>
        <time>2019-05-16T17:38:49.920Z</time>
      </trkpt>
      <trkpt lat="39.220085" lon="-8.68300833">
        <ele>25.0</ele>
        <time>2019-05-16T17:38:50.904Z</time>
      </trkpt>
      <trkpt lat="39.220085" lon="-8.68300833">
        <ele>25.0</ele>
        <time>2019-05-16T17:38:51.920Z</time>
      </trkpt>
      <trkpt lat="39.22012833" lon="-8.683005">
        <ele>25.0</ele>
        <time>2019-05-16T17:38:52.931Z</time>
      </trkpt>
      <trkpt lat="39.22012833" lon="-8.683005">
        <ele>25.0</ele>
        <time>2019-05-16T17:38:53.902Z</time>
      </trkpt>
      <trkpt lat="39.22017" lon="-8.68300333">
        <ele>25.0</ele>
        <time>2019-05-16T17:38:54.937Z</time>
      </trkpt>
      <trkpt lat="39.22017" lon="-8.68300333">
        <ele>25.0</ele>
        <time>2019-05-16T17:38:55.903Z</time>
      </trkpt>
      <trkpt lat="39.22021833" lon="-8.683">
        <ele>25.0</ele>
        <time>2019-05-16T17:38:56.922Z</time>
      </trkpt>
      <trkpt lat="39.22021833" lon="-8.683">
        <ele>25.0</ele>
        <time>2019-05-16T17:38:57.902Z</time>
      </trkpt>
      <trkpt lat="39.22025833" lon="-8.683005">
        <ele>26.0</ele>
        <time>2019-05-16T17:38:58.930Z</time>
      </trkpt>
      <trkpt lat="39.22025833" lon="-8.683005">
        <ele>26.0</ele>
        <time>2019-05-16T17:38:59.913Z</time>
      </trkpt>
      <trkpt lat="39.220305" lon="-8.68301333">
        <ele>26.0</ele>
        <time>2019-05-16T17:39:00.931Z</time>
      </trkpt>
      <trkpt lat="39.220305" lon="-8.68301333">
        <ele>26.0</ele>
        <time>2019-05-16T17:39:01.923Z</time>
      </trkpt>
      <trkpt lat="39.22035667" lon="-8.68301333">
        <ele>26.0</ele>
        <time>2019-05-16T17:39:02.901Z</time>
      </trkpt>
      <trkpt lat="39.22035667" lon="-8.68301333">
        <ele>26.0</ele>
        <time>2019-05-16T17:39:03.911Z</time>
      </trkpt>
      <trkpt lat="39.22040667" lon="-8.68301167">
        <ele>26.0</ele>
        <time>2019-05-16T17:39:04.898Z</time>
      </trkpt>
      <trkpt lat="39.22040667" lon="-8.68301167">
        <ele>26.0</ele>
        <time>2019-05-16T17:39:05.923Z</time>
      </trkpt>
      <trkpt lat="39.22045667" lon="-8.68301833">
        <ele>26.0</ele>
        <time>2019-05-16T17:39:06.909Z</time>
      </trkpt>
      <trkpt lat="39.22045667" lon="-8.68301833">
        <ele>26.0</ele>
        <time>2019-05-16T17:39:07.927Z</time>
      </trkpt>
      <trkpt lat="39.22050167" lon="-8.683025">
        <ele>26.0</ele>
        <time>2019-05-16T17:39:08.927Z</time>
      </trkpt>
      <trkpt lat="39.22050167" lon="-8.683025">
        <ele>26.0</ele>
        <time>2019-05-16T17:39:09.904Z</time>
      </trkpt>
      <trkpt lat="39.22054833" lon="-8.68303833">
        <ele>26.0</ele>
        <time>2019-05-16T17:39:10.918Z</time>
      </trkpt>
      <trkpt lat="39.22054833" lon="-8.68303833">
        <ele>26.0</ele>
        <time>2019-05-16T17:39:11.935Z</time>
      </trkpt>
      <trkpt lat="39.22059333" lon="-8.68305333">
        <ele>27.0</ele>
        <time>2019-05-16T17:39:12.918Z</time>
      </trkpt>
      <trkpt lat="39.22059333" lon="-8.68305333">
        <ele>27.0</ele>
        <time>2019-05-16T17:39:13.913Z</time>
      </trkpt>
      <trkpt lat="39.22064167" lon="-8.68305833">
        <ele>27.0</ele>
        <time>2019-05-16T17:39:14.931Z</time>
      </trkpt>
      <trkpt lat="39.22064167" lon="-8.68305833">
        <ele>27.0</ele>
        <time>2019-05-16T17:39:15.906Z</time>
      </trkpt>
      <trkpt lat="39.22068" lon="-8.68307">
        <ele>27.0</ele>
        <time>2019-05-16T17:39:16.933Z</time>
      </trkpt>
      <trkpt lat="39.22068" lon="-8.68307">
        <ele>27.0</ele>
        <time>2019-05-16T17:39:17.914Z</time>
      </trkpt>
      <trkpt lat="39.22072333" lon="-8.683075">
        <ele>27.0</ele>
        <time>2019-05-16T17:39:18.937Z</time>
      </trkpt>
      <trkpt lat="39.22072333" lon="-8.683075">
        <ele>27.0</ele>
        <time>2019-05-16T17:39:19.909Z</time>
      </trkpt>
      <trkpt lat="39.22076333" lon="-8.68309167">
        <ele>27.0</ele>
        <time>2019-05-16T17:39:20.943Z</time>
      </trkpt>
      <trkpt lat="39.22076333" lon="-8.68309167">
        <ele>27.0</ele>
        <time>2019-05-16T17:39:21.922Z</time>
      </trkpt>
      <trkpt lat="39.22080833" lon="-8.68311">
        <ele>26.0</ele>
        <time>2019-05-16T17:39:22.900Z</time>
      </trkpt>
      <trkpt lat="39.22080833" lon="-8.68311">
        <ele>26.0</ele>
        <time>2019-05-16T17:39:23.922Z</time>
      </trkpt>
      <trkpt lat="39.22085667" lon="-8.68312333">
        <ele>26.0</ele>
        <time>2019-05-16T17:39:24.937Z</time>
      </trkpt>
      <trkpt lat="39.22088" lon="-8.68312833">
        <ele>26.0</ele>
        <time>2019-05-16T17:39:25.900Z</time>
      </trkpt>
      <trkpt lat="39.22090333" lon="-8.683135">
        <ele>26.0</ele>
        <time>2019-05-16T17:39:26.897Z</time>
      </trkpt>
      <trkpt lat="39.22090333" lon="-8.683135">
        <ele>26.0</ele>
        <time>2019-05-16T17:39:27.901Z</time>
      </trkpt>
      <trkpt lat="39.22094833" lon="-8.68315167">
        <ele>27.0</ele>
        <time>2019-05-16T17:39:28.935Z</time>
      </trkpt>
      <trkpt lat="39.22094833" lon="-8.68315167">
        <ele>27.0</ele>
        <time>2019-05-16T17:39:29.929Z</time>
      </trkpt>
      <trkpt lat="39.22099333" lon="-8.68317167">
        <ele>27.0</ele>
        <time>2019-05-16T17:39:30.907Z</time>
      </trkpt>
      <trkpt lat="39.22099333" lon="-8.68317167">
        <ele>27.0</ele>
        <time>2019-05-16T17:39:31.925Z</time>
      </trkpt>
      <trkpt lat="39.22104" lon="-8.68318667">
        <ele>28.0</ele>
        <time>2019-05-16T17:39:32.914Z</time>
      </trkpt>
      <trkpt lat="39.22104" lon="-8.68318667">
        <ele>28.0</ele>
        <time>2019-05-16T17:39:33.903Z</time>
      </trkpt>
      <trkpt lat="39.221085" lon="-8.6832">
        <ele>28.0</ele>
        <time>2019-05-16T17:39:34.926Z</time>
      </trkpt>
      <trkpt lat="39.221085" lon="-8.6832">
        <ele>28.0</ele>
        <time>2019-05-16T17:39:35.903Z</time>
      </trkpt>
      <trkpt lat="39.22112333" lon="-8.68322333">
        <ele>30.0</ele>
        <time>2019-05-16T17:39:36.921Z</time>
      </trkpt>
      <trkpt lat="39.22114833" lon="-8.68323167">
        <ele>29.0</ele>
        <time>2019-05-16T17:39:37.918Z</time>
      </trkpt>
      <trkpt lat="39.22116833" lon="-8.68324">
        <ele>30.0</ele>
        <time>2019-05-16T17:39:38.938Z</time>
      </trkpt>
      <trkpt lat="39.22116833" lon="-8.68324">
        <ele>30.0</ele>
        <time>2019-05-16T17:39:39.903Z</time>
      </trkpt>
      <trkpt lat="39.22120667" lon="-8.68325667">
        <ele>30.0</ele>
        <time>2019-05-16T17:39:40.921Z</time>
      </trkpt>
      <trkpt lat="39.22120667" lon="-8.68325667">
        <ele>30.0</ele>
        <time>2019-05-16T17:39:41.899Z</time>
      </trkpt>
      <trkpt lat="39.22125" lon="-8.683275">
        <ele>30.0</ele>
        <time>2019-05-16T17:39:42.921Z</time>
      </trkpt>
      <trkpt lat="39.22125" lon="-8.683275">
        <ele>30.0</ele>
        <time>2019-05-16T17:39:43.903Z</time>
      </trkpt>
      <trkpt lat="39.221295" lon="-8.68329167">
        <ele>31.0</ele>
        <time>2019-05-16T17:39:44.921Z</time>
      </trkpt>
      <trkpt lat="39.221295" lon="-8.68329167">
        <ele>31.0</ele>
        <time>2019-05-16T17:39:45.912Z</time>
      </trkpt>
      <trkpt lat="39.22134" lon="-8.68331">
        <ele>31.0</ele>
        <time>2019-05-16T17:39:46.931Z</time>
      </trkpt>
      <trkpt lat="39.22134" lon="-8.68331">
        <ele>31.0</ele>
        <time>2019-05-16T17:39:47.918Z</time>
      </trkpt>
      <trkpt lat="39.22138333" lon="-8.68332833">
        <ele>31.0</ele>
        <time>2019-05-16T17:39:48.930Z</time>
      </trkpt>
      <trkpt lat="39.221405" lon="-8.68333667">
        <ele>31.0</ele>
        <time>2019-05-16T17:39:49.909Z</time>
      </trkpt>
      <trkpt lat="39.221405" lon="-8.68333667">
        <ele>31.0</ele>
        <time>2019-05-16T17:39:50.901Z</time>
      </trkpt>
      <trkpt lat="39.22144333" lon="-8.683355">
        <ele>31.0</ele>
        <time>2019-05-16T17:39:51.921Z</time>
      </trkpt>
      <trkpt lat="39.22144333" lon="-8.683355">
        <ele>31.0</ele>
        <time>2019-05-16T17:39:52.921Z</time>
      </trkpt>
      <trkpt lat="39.22148333" lon="-8.68337">
        <ele>31.0</ele>
        <time>2019-05-16T17:39:53.906Z</time>
      </trkpt>
      <trkpt lat="39.22148333" lon="-8.68337">
        <ele>31.0</ele>
        <time>2019-05-16T17:39:54.923Z</time>
      </trkpt>
      <trkpt lat="39.22152" lon="-8.68338667">
        <ele>31.0</ele>
        <time>2019-05-16T17:39:55.907Z</time>
      </trkpt>
      <trkpt lat="39.22154" lon="-8.68339167">
        <ele>31.0</ele>
        <time>2019-05-16T17:39:56.897Z</time>
      </trkpt>
      <trkpt lat="39.22154" lon="-8.68339167">
        <ele>31.0</ele>
        <time>2019-05-16T17:39:57.933Z</time>
      </trkpt>
      <trkpt lat="39.22158167" lon="-8.68340667">
        <ele>31.0</ele>
        <time>2019-05-16T17:39:58.911Z</time>
      </trkpt>
      <trkpt lat="39.22158167" lon="-8.68340667">
        <ele>31.0</ele>
        <time>2019-05-16T17:39:59.898Z</time>
      </trkpt>
      <trkpt lat="39.22163" lon="-8.68342">
        <ele>31.0</ele>
        <time>2019-05-16T17:40:00.918Z</time>
      </trkpt>
      <trkpt lat="39.22163" lon="-8.68342">
        <ele>31.0</ele>
        <time>2019-05-16T17:40:01.918Z</time>
      </trkpt>
      <trkpt lat="39.22167833" lon="-8.683435">
        <ele>31.0</ele>
        <time>2019-05-16T17:40:02.939Z</time>
      </trkpt>
      <trkpt lat="39.22167833" lon="-8.683435">
        <ele>31.0</ele>
        <time>2019-05-16T17:40:03.928Z</time>
      </trkpt>
      <trkpt lat="39.22172167" lon="-8.68343833">
        <ele>31.0</ele>
        <time>2019-05-16T17:40:04.916Z</time>
      </trkpt>
      <trkpt lat="39.22172167" lon="-8.68343833">
        <ele>31.0</ele>
        <time>2019-05-16T17:40:05.923Z</time>
      </trkpt>
      <trkpt lat="39.22176167" lon="-8.68344667">
        <ele>31.0</ele>
        <time>2019-05-16T17:40:06.901Z</time>
      </trkpt>
      <trkpt lat="39.22178" lon="-8.68345">
        <ele>31.0</ele>
        <time>2019-05-16T17:40:07.921Z</time>
      </trkpt>
      <trkpt lat="39.22179833" lon="-8.68344667">
        <ele>31.0</ele>
        <time>2019-05-16T17:40:08.932Z</time>
      </trkpt>
      <trkpt lat="39.22179833" lon="-8.68344667">
        <ele>31.0</ele>
        <time>2019-05-16T17:40:09.928Z</time>
      </trkpt>
      <trkpt lat="39.22183667" lon="-8.683445">
        <ele>31.0</ele>
        <time>2019-05-16T17:40:10.916Z</time>
      </trkpt>
      <trkpt lat="39.22183667" lon="-8.683445">
        <ele>31.0</ele>
        <time>2019-05-16T17:40:11.903Z</time>
      </trkpt>
      <trkpt lat="39.22187667" lon="-8.68345167">
        <ele>31.0</ele>
        <time>2019-05-16T17:40:12.930Z</time>
      </trkpt>
      <trkpt lat="39.22187667" lon="-8.68345167">
        <ele>31.0</ele>
        <time>2019-05-16T17:40:13.913Z</time>
      </trkpt>
      <trkpt lat="39.22191667" lon="-8.68344833">
        <ele>32.0</ele>
        <time>2019-05-16T17:40:14.929Z</time>
      </trkpt>
      <trkpt lat="39.22191667" lon="-8.68344833">
        <ele>32.0</ele>
        <time>2019-05-16T17:40:15.900Z</time>
      </trkpt>
      <trkpt lat="39.221955" lon="-8.68344333">
        <ele>32.0</ele>
        <time>2019-05-16T17:40:16.924Z</time>
      </trkpt>
      <trkpt lat="39.221955" lon="-8.68344333">
        <ele>32.0</ele>
        <time>2019-05-16T17:40:17.912Z</time>
      </trkpt>
      <trkpt lat="39.22199" lon="-8.68344">
        <ele>32.0</ele>
        <time>2019-05-16T17:40:18.937Z</time>
      </trkpt>
      <trkpt lat="39.22199" lon="-8.68344">
        <ele>32.0</ele>
        <time>2019-05-16T17:40:19.935Z</time>
      </trkpt>
      <trkpt lat="39.22202833" lon="-8.68343167">
        <ele>32.0</ele>
        <time>2019-05-16T17:40:20.922Z</time>
      </trkpt>
      <trkpt lat="39.22202833" lon="-8.68343167">
        <ele>32.0</ele>
        <time>2019-05-16T17:40:21.932Z</time>
      </trkpt>
      <trkpt lat="39.22206667" lon="-8.68342333">
        <ele>32.0</ele>
        <time>2019-05-16T17:40:22.938Z</time>
      </trkpt>
      <trkpt lat="39.22206667" lon="-8.68342333">
        <ele>32.0</ele>
        <time>2019-05-16T17:40:23.916Z</time>
      </trkpt>
      <trkpt lat="39.222105" lon="-8.68341667">
        <ele>32.0</ele>
        <time>2019-05-16T17:40:24.938Z</time>
      </trkpt>
      <trkpt lat="39.222105" lon="-8.68341667">
        <ele>32.0</ele>
        <time>2019-05-16T17:40:25.923Z</time>
      </trkpt>
      <trkpt lat="39.22214167" lon="-8.683405">
        <ele>32.0</ele>
        <time>2019-05-16T17:40:26.899Z</time>
      </trkpt>
      <trkpt lat="39.22214167" lon="-8.683405">
        <ele>32.0</ele>
        <time>2019-05-16T17:40:27.899Z</time>
      </trkpt>
      <trkpt lat="39.22217833" lon="-8.68339333">
        <ele>32.0</ele>
        <time>2019-05-16T17:40:28.917Z</time>
      </trkpt>
      <trkpt lat="39.22217833" lon="-8.68339333">
        <ele>32.0</ele>
        <time>2019-05-16T17:40:29.902Z</time>
      </trkpt>
      <trkpt lat="39.222215" lon="-8.68338167">
        <ele>33.0</ele>
        <time>2019-05-16T17:40:30.911Z</time>
      </trkpt>
      <trkpt lat="39.222215" lon="-8.68338167">
        <ele>33.0</ele>
        <time>2019-05-16T17:40:31.911Z</time>
      </trkpt>
      <trkpt lat="39.22224833" lon="-8.68337167">
        <ele>33.0</ele>
        <time>2019-05-16T17:40:32.904Z</time>
      </trkpt>
      <trkpt lat="39.22224833" lon="-8.68337167">
        <ele>33.0</ele>
        <time>2019-05-16T17:40:33.911Z</time>
      </trkpt>
      <trkpt lat="39.222285" lon="-8.68335667">
        <ele>33.0</ele>
        <time>2019-05-16T17:40:34.941Z</time>
      </trkpt>
      <trkpt lat="39.222285" lon="-8.68335667">
        <ele>33.0</ele>
        <time>2019-05-16T17:40:35.901Z</time>
      </trkpt>
      <trkpt lat="39.22231833" lon="-8.68334167">
        <ele>33.0</ele>
        <time>2019-05-16T17:40:36.921Z</time>
      </trkpt>
      <trkpt lat="39.222335" lon="-8.68333167">
        <ele>33.0</ele>
        <time>2019-05-16T17:40:37.927Z</time>
      </trkpt>
      <trkpt lat="39.222335" lon="-8.68333167">
        <ele>33.0</ele>
        <time>2019-05-16T17:40:38.923Z</time>
      </trkpt>
      <trkpt lat="39.22237" lon="-8.68331333">
        <ele>33.0</ele>
        <time>2019-05-16T17:40:39.907Z</time>
      </trkpt>
      <trkpt lat="39.22237" lon="-8.68331333">
        <ele>33.0</ele>
        <time>2019-05-16T17:40:40.923Z</time>
      </trkpt>
      <trkpt lat="39.22240167" lon="-8.68329667">
        <ele>34.0</ele>
        <time>2019-05-16T17:40:41.911Z</time>
      </trkpt>
      <trkpt lat="39.22240167" lon="-8.68329667">
        <ele>34.0</ele>
        <time>2019-05-16T17:40:42.902Z</time>
      </trkpt>
      <trkpt lat="39.222435" lon="-8.68328">
        <ele>34.0</ele>
        <time>2019-05-16T17:40:43.925Z</time>
      </trkpt>
      <trkpt lat="39.22245167" lon="-8.68327333">
        <ele>34.0</ele>
        <time>2019-05-16T17:40:44.900Z</time>
      </trkpt>
      <trkpt lat="39.22245167" lon="-8.68327333">
        <ele>34.0</ele>
        <time>2019-05-16T17:40:45.900Z</time>
      </trkpt>
      <trkpt lat="39.22248667" lon="-8.68325833">
        <ele>34.0</ele>
        <time>2019-05-16T17:40:46.901Z</time>
      </trkpt>
      <trkpt lat="39.22248667" lon="-8.68325833">
        <ele>34.0</ele>
        <time>2019-05-16T17:40:47.922Z</time>
      </trkpt>
      <trkpt lat="39.22251833" lon="-8.68324">
        <ele>34.0</ele>
        <time>2019-05-16T17:40:48.901Z</time>
      </trkpt>
      <trkpt lat="39.22251833" lon="-8.68324">
        <ele>34.0</ele>
        <time>2019-05-16T17:40:49.907Z</time>
      </trkpt>
      <trkpt lat="39.22255333" lon="-8.68322667">
        <ele>34.0</ele>
        <time>2019-05-16T17:40:50.922Z</time>
      </trkpt>
      <trkpt lat="39.22255333" lon="-8.68322667">
        <ele>34.0</ele>
        <time>2019-05-16T17:40:51.900Z</time>
      </trkpt>
      <trkpt lat="39.222585" lon="-8.68321">
        <ele>34.0</ele>
        <time>2019-05-16T17:40:52.932Z</time>
      </trkpt>
      <trkpt lat="39.222585" lon="-8.68321">
        <ele>34.0</ele>
        <time>2019-05-16T17:40:53.935Z</time>
      </trkpt>
      <trkpt lat="39.22262" lon="-8.68319667">
        <ele>35.0</ele>
        <time>2019-05-16T17:40:54.912Z</time>
      </trkpt>
      <trkpt lat="39.22263667" lon="-8.68318667">
        <ele>35.0</ele>
        <time>2019-05-16T17:40:55.909Z</time>
      </trkpt>
      <trkpt lat="39.22263667" lon="-8.68318667">
        <ele>35.0</ele>
        <time>2019-05-16T17:40:56.915Z</time>
      </trkpt>
      <trkpt lat="39.22267167" lon="-8.68317167">
        <ele>35.0</ele>
        <time>2019-05-16T17:40:57.930Z</time>
      </trkpt>
      <trkpt lat="39.22267167" lon="-8.68317167">
        <ele>35.0</ele>
        <time>2019-05-16T17:40:58.898Z</time>
      </trkpt>
      <trkpt lat="39.22271" lon="-8.68315667">
        <ele>35.0</ele>
        <time>2019-05-16T17:40:59.922Z</time>
      </trkpt>
      <trkpt lat="39.22271" lon="-8.68315667">
        <ele>35.0</ele>
        <time>2019-05-16T17:41:00.900Z</time>
      </trkpt>
      <trkpt lat="39.22274667" lon="-8.68313833">
        <ele>35.0</ele>
        <time>2019-05-16T17:41:01.921Z</time>
      </trkpt>
      <trkpt lat="39.22274667" lon="-8.68313833">
        <ele>35.0</ele>
        <time>2019-05-16T17:41:02.912Z</time>
      </trkpt>
      <trkpt lat="39.22277833" lon="-8.683115">
        <ele>35.0</ele>
        <time>2019-05-16T17:41:03.933Z</time>
      </trkpt>
      <trkpt lat="39.222795" lon="-8.683105">
        <ele>35.0</ele>
        <time>2019-05-16T17:41:04.899Z</time>
      </trkpt>
      <trkpt lat="39.222795" lon="-8.683105">
        <ele>35.0</ele>
        <time>2019-05-16T17:41:05.934Z</time>
      </trkpt>
      <trkpt lat="39.22283" lon="-8.68308333">
        <ele>35.0</ele>
        <time>2019-05-16T17:41:06.915Z</time>
      </trkpt>
      <trkpt lat="39.22283" lon="-8.68308333">
        <ele>35.0</ele>
        <time>2019-05-16T17:41:07.923Z</time>
      </trkpt>
      <trkpt lat="39.222865" lon="-8.683065">
        <ele>35.0</ele>
        <time>2019-05-16T17:41:08.905Z</time>
      </trkpt>
      <trkpt lat="39.222865" lon="-8.683065">
        <ele>35.0</ele>
        <time>2019-05-16T17:41:09.931Z</time>
      </trkpt>
      <trkpt lat="39.22290167" lon="-8.68304833">
        <ele>35.0</ele>
        <time>2019-05-16T17:41:10.907Z</time>
      </trkpt>
      <trkpt lat="39.22290167" lon="-8.68304833">
        <ele>35.0</ele>
        <time>2019-05-16T17:41:11.912Z</time>
      </trkpt>
      <trkpt lat="39.222935" lon="-8.68303167">
        <ele>35.0</ele>
        <time>2019-05-16T17:41:12.933Z</time>
      </trkpt>
      <trkpt lat="39.222935" lon="-8.68303167">
        <ele>35.0</ele>
        <time>2019-05-16T17:41:13.898Z</time>
      </trkpt>
      <trkpt lat="39.22296833" lon="-8.68301833">
        <ele>36.0</ele>
        <time>2019-05-16T17:41:14.912Z</time>
      </trkpt>
      <trkpt lat="39.22296833" lon="-8.68301833">
        <ele>36.0</ele>
        <time>2019-05-16T17:41:15.898Z</time>
      </trkpt>
      <trkpt lat="39.223" lon="-8.68300333">
        <ele>36.0</ele>
        <time>2019-05-16T17:41:16.920Z</time>
      </trkpt>
      <trkpt lat="39.223" lon="-8.68300333">
        <ele>36.0</ele>
        <time>2019-05-16T17:41:17.912Z</time>
      </trkpt>
      <trkpt lat="39.223035" lon="-8.68298667">
        <ele>36.0</ele>
        <time>2019-05-16T17:41:18.938Z</time>
      </trkpt>
      <trkpt lat="39.223035" lon="-8.68298667">
        <ele>36.0</ele>
        <time>2019-05-16T17:41:19.924Z</time>
      </trkpt>
      <trkpt lat="39.22307167" lon="-8.68296833">
        <ele>36.0</ele>
        <time>2019-05-16T17:41:20.938Z</time>
      </trkpt>
      <trkpt lat="39.22307167" lon="-8.68296833">
        <ele>36.0</ele>
        <time>2019-05-16T17:41:21.911Z</time>
      </trkpt>
      <trkpt lat="39.22310667" lon="-8.68295">
        <ele>36.0</ele>
        <time>2019-05-16T17:41:22.931Z</time>
      </trkpt>
      <trkpt lat="39.22310667" lon="-8.68295">
        <ele>36.0</ele>
        <time>2019-05-16T17:41:23.907Z</time>
      </trkpt>
      <trkpt lat="39.22314" lon="-8.68293167">
        <ele>36.0</ele>
        <time>2019-05-16T17:41:24.933Z</time>
      </trkpt>
      <trkpt lat="39.22314" lon="-8.68293167">
        <ele>36.0</ele>
        <time>2019-05-16T17:41:25.926Z</time>
      </trkpt>
      <trkpt lat="39.22317167" lon="-8.68291167">
        <ele>36.0</ele>
        <time>2019-05-16T17:41:26.899Z</time>
      </trkpt>
      <trkpt lat="39.22317167" lon="-8.68291167">
        <ele>36.0</ele>
        <time>2019-05-16T17:41:27.933Z</time>
      </trkpt>
      <trkpt lat="39.22320667" lon="-8.68289833">
        <ele>36.0</ele>
        <time>2019-05-16T17:41:28.913Z</time>
      </trkpt>
      <trkpt lat="39.22320667" lon="-8.68289833">
        <ele>36.0</ele>
        <time>2019-05-16T17:41:29.935Z</time>
      </trkpt>
      <trkpt lat="39.22324167" lon="-8.68288333">
        <ele>37.0</ele>
        <time>2019-05-16T17:41:30.921Z</time>
      </trkpt>
      <trkpt lat="39.22326" lon="-8.68287667">
        <ele>37.0</ele>
        <time>2019-05-16T17:41:31.901Z</time>
      </trkpt>
      <trkpt lat="39.22327667" lon="-8.68286667">
        <ele>37.0</ele>
        <time>2019-05-16T17:41:32.899Z</time>
      </trkpt>
      <trkpt lat="39.22327667" lon="-8.68286667">
        <ele>37.0</ele>
        <time>2019-05-16T17:41:33.922Z</time>
      </trkpt>
      <trkpt lat="39.22330833" lon="-8.682855">
        <ele>38.0</ele>
        <time>2019-05-16T17:41:34.913Z</time>
      </trkpt>
      <trkpt lat="39.22330833" lon="-8.682855">
        <ele>38.0</ele>
        <time>2019-05-16T17:41:35.921Z</time>
      </trkpt>
      <trkpt lat="39.22334167" lon="-8.68284167">
        <ele>38.0</ele>
        <time>2019-05-16T17:41:36.906Z</time>
      </trkpt>
      <trkpt lat="39.22334167" lon="-8.68284167">
        <ele>38.0</ele>
        <time>2019-05-16T17:41:37.913Z</time>
      </trkpt>
      <trkpt lat="39.223375" lon="-8.68283">
        <ele>38.0</ele>
        <time>2019-05-16T17:41:38.921Z</time>
      </trkpt>
      <trkpt lat="39.223375" lon="-8.68283">
        <ele>38.0</ele>
        <time>2019-05-16T17:41:39.900Z</time>
      </trkpt>
      <trkpt lat="39.22340833" lon="-8.68281167">
        <ele>39.0</ele>
        <time>2019-05-16T17:41:40.920Z</time>
      </trkpt>
      <trkpt lat="39.223425" lon="-8.68280167">
        <ele>39.0</ele>
        <time>2019-05-16T17:41:41.924Z</time>
      </trkpt>
      <trkpt lat="39.223425" lon="-8.68280167">
        <ele>39.0</ele>
        <time>2019-05-16T17:41:42.900Z</time>
      </trkpt>
      <trkpt lat="39.22345833" lon="-8.68278333">
        <ele>39.0</ele>
        <time>2019-05-16T17:41:43.923Z</time>
      </trkpt>
      <trkpt lat="39.223475" lon="-8.68277333">
        <ele>40.0</ele>
        <time>2019-05-16T17:41:44.903Z</time>
      </trkpt>
      <trkpt lat="39.223475" lon="-8.68277333">
        <ele>40.0</ele>
        <time>2019-05-16T17:41:45.913Z</time>
      </trkpt>
      <trkpt lat="39.22351167" lon="-8.68275667">
        <ele>40.0</ele>
        <time>2019-05-16T17:41:46.914Z</time>
      </trkpt>
      <trkpt lat="39.22351167" lon="-8.68275667">
        <ele>40.0</ele>
        <time>2019-05-16T17:41:47.910Z</time>
      </trkpt>
      <trkpt lat="39.22354667" lon="-8.68274333">
        <ele>40.0</ele>
        <time>2019-05-16T17:41:48.934Z</time>
      </trkpt>
      <trkpt lat="39.22356333" lon="-8.682735">
        <ele>40.0</ele>
        <time>2019-05-16T17:41:49.898Z</time>
      </trkpt>
      <trkpt lat="39.22356333" lon="-8.682735">
        <ele>40.0</ele>
        <time>2019-05-16T17:41:50.903Z</time>
      </trkpt>
      <trkpt lat="39.22359833" lon="-8.68272333">
        <ele>41.0</ele>
        <time>2019-05-16T17:41:51.921Z</time>
      </trkpt>
      <trkpt lat="39.22359833" lon="-8.68272333">
        <ele>41.0</ele>
        <time>2019-05-16T17:41:52.932Z</time>
      </trkpt>
      <trkpt lat="39.22363" lon="-8.68270667">
        <ele>41.0</ele>
        <time>2019-05-16T17:41:53.911Z</time>
      </trkpt>
      <trkpt lat="39.22363" lon="-8.68270667">
        <ele>41.0</ele>
        <time>2019-05-16T17:41:54.903Z</time>
      </trkpt>
      <trkpt lat="39.22366667" lon="-8.68268833">
        <ele>42.0</ele>
        <time>2019-05-16T17:41:55.922Z</time>
      </trkpt>
      <trkpt lat="39.22366667" lon="-8.68268833">
        <ele>42.0</ele>
        <time>2019-05-16T17:41:56.915Z</time>
      </trkpt>
      <trkpt lat="39.22370167" lon="-8.68267333">
        <ele>42.0</ele>
        <time>2019-05-16T17:41:57.936Z</time>
      </trkpt>
      <trkpt lat="39.22370167" lon="-8.68267333">
        <ele>42.0</ele>
        <time>2019-05-16T17:41:58.898Z</time>
      </trkpt>
      <trkpt lat="39.22373167" lon="-8.68266167">
        <ele>43.0</ele>
        <time>2019-05-16T17:41:59.930Z</time>
      </trkpt>
      <trkpt lat="39.22373167" lon="-8.68266167">
        <ele>43.0</ele>
        <time>2019-05-16T17:42:00.923Z</time>
      </trkpt>
      <trkpt lat="39.22376333" lon="-8.68265167">
        <ele>44.0</ele>
        <time>2019-05-16T17:42:01.939Z</time>
      </trkpt>
      <trkpt lat="39.22376333" lon="-8.68265167">
        <ele>44.0</ele>
        <time>2019-05-16T17:42:02.902Z</time>
      </trkpt>
      <trkpt lat="39.22379333" lon="-8.68264">
        <ele>45.0</ele>
        <time>2019-05-16T17:42:03.916Z</time>
      </trkpt>
      <trkpt lat="39.22379333" lon="-8.68264">
        <ele>45.0</ele>
        <time>2019-05-16T17:42:04.912Z</time>
      </trkpt>
      <trkpt lat="39.22383" lon="-8.68262833">
        <ele>46.0</ele>
        <time>2019-05-16T17:42:05.932Z</time>
      </trkpt>
      <trkpt lat="39.22383" lon="-8.68262833">
        <ele>46.0</ele>
        <time>2019-05-16T17:42:06.927Z</time>
      </trkpt>
      <trkpt lat="39.22386167" lon="-8.68261333">
        <ele>46.0</ele>
        <time>2019-05-16T17:42:07.916Z</time>
      </trkpt>
      <trkpt lat="39.22387667" lon="-8.682605">
        <ele>46.0</ele>
        <time>2019-05-16T17:42:08.925Z</time>
      </trkpt>
      <trkpt lat="39.22387667" lon="-8.682605">
        <ele>46.0</ele>
        <time>2019-05-16T17:42:09.913Z</time>
      </trkpt>
      <trkpt lat="39.22391" lon="-8.68259">
        <ele>47.0</ele>
        <time>2019-05-16T17:42:10.902Z</time>
      </trkpt>
      <trkpt lat="39.22391" lon="-8.68259">
        <ele>47.0</ele>
        <time>2019-05-16T17:42:11.931Z</time>
      </trkpt>
      <trkpt lat="39.22394" lon="-8.68258">
        <ele>48.0</ele>
        <time>2019-05-16T17:42:12.913Z</time>
      </trkpt>
      <trkpt lat="39.22395667" lon="-8.68257333">
        <ele>48.0</ele>
        <time>2019-05-16T17:42:13.925Z</time>
      </trkpt>
      <trkpt lat="39.22397167" lon="-8.68256667">
        <ele>48.0</ele>
        <time>2019-05-16T17:42:14.901Z</time>
      </trkpt>
      <trkpt lat="39.22397167" lon="-8.68256667">
        <ele>48.0</ele>
        <time>2019-05-16T17:42:15.936Z</time>
      </trkpt>
      <trkpt lat="39.22400333" lon="-8.682555">
        <ele>49.0</ele>
        <time>2019-05-16T17:42:16.920Z</time>
      </trkpt>
      <trkpt lat="39.22400333" lon="-8.682555">
        <ele>49.0</ele>
        <time>2019-05-16T17:42:17.911Z</time>
      </trkpt>
      <trkpt lat="39.22403833" lon="-8.682545">
        <ele>49.0</ele>
        <time>2019-05-16T17:42:18.932Z</time>
      </trkpt>
      <trkpt lat="39.22403833" lon="-8.682545">
        <ele>49.0</ele>
        <time>2019-05-16T17:42:19.901Z</time>
      </trkpt>
      <trkpt lat="39.22407167" lon="-8.68253667">
        <ele>50.0</ele>
        <time>2019-05-16T17:42:20.926Z</time>
      </trkpt>
      <trkpt lat="39.22407167" lon="-8.68253667">
        <ele>50.0</ele>
        <time>2019-05-16T17:42:21.936Z</time>
      </trkpt>
      <trkpt lat="39.224105" lon="-8.68253">
        <ele>50.0</ele>
        <time>2019-05-16T17:42:22.931Z</time>
      </trkpt>
      <trkpt lat="39.224105" lon="-8.68253">
        <ele>50.0</ele>
        <time>2019-05-16T17:42:23.922Z</time>
      </trkpt>
      <trkpt lat="39.22414" lon="-8.68252">
        <ele>50.0</ele>
        <time>2019-05-16T17:42:24.897Z</time>
      </trkpt>
      <trkpt lat="39.22414" lon="-8.68252">
        <ele>50.0</ele>
        <time>2019-05-16T17:42:25.901Z</time>
      </trkpt>
      <trkpt lat="39.22417" lon="-8.682505">
        <ele>50.0</ele>
        <time>2019-05-16T17:42:26.927Z</time>
      </trkpt>
      <trkpt lat="39.22417" lon="-8.682505">
        <ele>50.0</ele>
        <time>2019-05-16T17:42:27.919Z</time>
      </trkpt>
      <trkpt lat="39.22420667" lon="-8.68249333">
        <ele>50.0</ele>
        <time>2019-05-16T17:42:28.908Z</time>
      </trkpt>
      <trkpt lat="39.22420667" lon="-8.68249333">
        <ele>50.0</ele>
        <time>2019-05-16T17:42:29.902Z</time>
      </trkpt>
      <trkpt lat="39.22423833" lon="-8.68248833">
        <ele>51.0</ele>
        <time>2019-05-16T17:42:30.921Z</time>
      </trkpt>
      <trkpt lat="39.22425333" lon="-8.68248833">
        <ele>51.0</ele>
        <time>2019-05-16T17:42:31.939Z</time>
      </trkpt>
      <trkpt lat="39.22427" lon="-8.68248833">
        <ele>51.0</ele>
        <time>2019-05-16T17:42:32.902Z</time>
      </trkpt>
      <trkpt lat="39.22427" lon="-8.68248833">
        <ele>51.0</ele>
        <time>2019-05-16T17:42:33.936Z</time>
      </trkpt>
      <trkpt lat="39.224295" lon="-8.68248833">
        <ele>51.0</ele>
        <time>2019-05-16T17:42:34.918Z</time>
      </trkpt>
      <trkpt lat="39.224295" lon="-8.68248833">
        <ele>51.0</ele>
        <time>2019-05-16T17:42:35.913Z</time>
      </trkpt>
      <trkpt lat="39.22433333" lon="-8.68247833">
        <ele>51.0</ele>
        <time>2019-05-16T17:42:36.931Z</time>
      </trkpt>
      <trkpt lat="39.22434833" lon="-8.682475">
        <ele>51.0</ele>
        <time>2019-05-16T17:42:37.932Z</time>
      </trkpt>
      <trkpt lat="39.22436667" lon="-8.68246833">
        <ele>51.0</ele>
        <time>2019-05-16T17:42:38.927Z</time>
      </trkpt>
      <trkpt lat="39.22436667" lon="-8.68246833">
        <ele>51.0</ele>
        <time>2019-05-16T17:42:39.923Z</time>
      </trkpt>
      <trkpt lat="39.22439667" lon="-8.68246">
        <ele>52.0</ele>
        <time>2019-05-16T17:42:40.901Z</time>
      </trkpt>
      <trkpt lat="39.22439667" lon="-8.68246">
        <ele>52.0</ele>
        <time>2019-05-16T17:42:41.923Z</time>
      </trkpt>
      <trkpt lat="39.22443" lon="-8.68245333">
        <ele>52.0</ele>
        <time>2019-05-16T17:42:42.915Z</time>
      </trkpt>
      <trkpt lat="39.22443" lon="-8.68245333">
        <ele>52.0</ele>
        <time>2019-05-16T17:42:43.902Z</time>
      </trkpt>
      <trkpt lat="39.22446167" lon="-8.682445">
        <ele>52.0</ele>
        <time>2019-05-16T17:42:44.923Z</time>
      </trkpt>
      <trkpt lat="39.22446167" lon="-8.682445">
        <ele>52.0</ele>
        <time>2019-05-16T17:42:45.920Z</time>
      </trkpt>
      <trkpt lat="39.22449167" lon="-8.68244333">
        <ele>52.0</ele>
        <time>2019-05-16T17:42:46.912Z</time>
      </trkpt>
      <trkpt lat="39.22449167" lon="-8.68244333">
        <ele>52.0</ele>
        <time>2019-05-16T17:42:47.902Z</time>
      </trkpt>
      <trkpt lat="39.224525" lon="-8.68244333">
        <ele>52.0</ele>
        <time>2019-05-16T17:42:48.928Z</time>
      </trkpt>
      <trkpt lat="39.224525" lon="-8.68244333">
        <ele>52.0</ele>
        <time>2019-05-16T17:42:49.919Z</time>
      </trkpt>
      <trkpt lat="39.22455833" lon="-8.68243833">
        <ele>52.0</ele>
        <time>2019-05-16T17:42:50.916Z</time>
      </trkpt>
      <trkpt lat="39.22455833" lon="-8.68243833">
        <ele>52.0</ele>
        <time>2019-05-16T17:42:51.901Z</time>
      </trkpt>
      <trkpt lat="39.22458833" lon="-8.68243833">
        <ele>52.0</ele>
        <time>2019-05-16T17:42:52.931Z</time>
      </trkpt>
      <trkpt lat="39.22458833" lon="-8.68243833">
        <ele>52.0</ele>
        <time>2019-05-16T17:42:53.929Z</time>
      </trkpt>
      <trkpt lat="39.22462333" lon="-8.68244667">
        <ele>52.0</ele>
        <time>2019-05-16T17:42:54.901Z</time>
      </trkpt>
      <trkpt lat="39.22462333" lon="-8.68244667">
        <ele>52.0</ele>
        <time>2019-05-16T17:42:55.916Z</time>
      </trkpt>
      <trkpt lat="39.22465667" lon="-8.68246167">
        <ele>52.0</ele>
        <time>2019-05-16T17:42:56.897Z</time>
      </trkpt>
      <trkpt lat="39.22465667" lon="-8.68246167">
        <ele>52.0</ele>
        <time>2019-05-16T17:42:57.930Z</time>
      </trkpt>
      <trkpt lat="39.224695" lon="-8.682475">
        <ele>51.0</ele>
        <time>2019-05-16T17:42:58.913Z</time>
      </trkpt>
      <trkpt lat="39.224695" lon="-8.682475">
        <ele>51.0</ele>
        <time>2019-05-16T17:42:59.921Z</time>
      </trkpt>
      <trkpt lat="39.22474167" lon="-8.68248833">
        <ele>51.0</ele>
        <time>2019-05-16T17:43:00.937Z</time>
      </trkpt>
      <trkpt lat="39.22474167" lon="-8.68248833">
        <ele>51.0</ele>
        <time>2019-05-16T17:43:01.927Z</time>
      </trkpt>
      <trkpt lat="39.22479333" lon="-8.68250833">
        <ele>51.0</ele>
        <time>2019-05-16T17:43:02.913Z</time>
      </trkpt>
      <trkpt lat="39.22479333" lon="-8.68250833">
        <ele>51.0</ele>
        <time>2019-05-16T17:43:03.900Z</time>
      </trkpt>
      <trkpt lat="39.22485167" lon="-8.68253333">
        <ele>51.0</ele>
        <time>2019-05-16T17:43:04.937Z</time>
      </trkpt>
      <trkpt lat="39.22485167" lon="-8.68253333">
        <ele>51.0</ele>
        <time>2019-05-16T17:43:05.905Z</time>
      </trkpt>
      <trkpt lat="39.22491167" lon="-8.682555">
        <ele>50.0</ele>
        <time>2019-05-16T17:43:06.897Z</time>
      </trkpt>
      <trkpt lat="39.22491167" lon="-8.682555">
        <ele>50.0</ele>
        <time>2019-05-16T17:43:07.928Z</time>
      </trkpt>
      <trkpt lat="39.22496667" lon="-8.68257667">
        <ele>50.0</ele>
        <time>2019-05-16T17:43:08.915Z</time>
      </trkpt>
      <trkpt lat="39.22496667" lon="-8.68257667">
        <ele>50.0</ele>
        <time>2019-05-16T17:43:09.897Z</time>
      </trkpt>
      <trkpt lat="39.22502" lon="-8.68259667">
        <ele>50.0</ele>
        <time>2019-05-16T17:43:10.931Z</time>
      </trkpt>
      <trkpt lat="39.22502" lon="-8.68259667">
        <ele>50.0</ele>
        <time>2019-05-16T17:43:11.936Z</time>
      </trkpt>
      <trkpt lat="39.22506833" lon="-8.68261">
        <ele>50.0</ele>
        <time>2019-05-16T17:43:12.921Z</time>
      </trkpt>
      <trkpt lat="39.22506833" lon="-8.68261">
        <ele>50.0</ele>
        <time>2019-05-16T17:43:13.918Z</time>
      </trkpt>
      <trkpt lat="39.22511167" lon="-8.68261667">
        <ele>49.0</ele>
        <time>2019-05-16T17:43:14.933Z</time>
      </trkpt>
      <trkpt lat="39.22511167" lon="-8.68261667">
        <ele>49.0</ele>
        <time>2019-05-16T17:43:15.916Z</time>
      </trkpt>
      <trkpt lat="39.225155" lon="-8.68261333">
        <ele>49.0</ele>
        <time>2019-05-16T17:43:16.931Z</time>
      </trkpt>
      <trkpt lat="39.22517833" lon="-8.68261167">
        <ele>49.0</ele>
        <time>2019-05-16T17:43:17.933Z</time>
      </trkpt>
      <trkpt lat="39.22517833" lon="-8.68261167">
        <ele>49.0</ele>
        <time>2019-05-16T17:43:18.903Z</time>
      </trkpt>
      <trkpt lat="39.22522167" lon="-8.68260667">
        <ele>49.0</ele>
        <time>2019-05-16T17:43:19.923Z</time>
      </trkpt>
      <trkpt lat="39.22522167" lon="-8.68260667">
        <ele>49.0</ele>
        <time>2019-05-16T17:43:20.936Z</time>
      </trkpt>
      <trkpt lat="39.22526167" lon="-8.682605">
        <ele>49.0</ele>
        <time>2019-05-16T17:43:21.938Z</time>
      </trkpt>
      <trkpt lat="39.22528" lon="-8.682605">
        <ele>49.0</ele>
        <time>2019-05-16T17:43:22.922Z</time>
      </trkpt>
      <trkpt lat="39.22528" lon="-8.682605">
        <ele>49.0</ele>
        <time>2019-05-16T17:43:23.898Z</time>
      </trkpt>
      <trkpt lat="39.22531" lon="-8.6826">
        <ele>50.0</ele>
        <time>2019-05-16T17:43:24.939Z</time>
      </trkpt>
      <trkpt lat="39.22531" lon="-8.6826">
        <ele>50.0</ele>
        <time>2019-05-16T17:43:25.906Z</time>
      </trkpt>
      <trkpt lat="39.22534667" lon="-8.68259167">
        <ele>51.0</ele>
        <time>2019-05-16T17:43:26.931Z</time>
      </trkpt>
      <trkpt lat="39.22534667" lon="-8.68259167">
        <ele>51.0</ele>
        <time>2019-05-16T17:43:27.923Z</time>
      </trkpt>
      <trkpt lat="39.225385" lon="-8.68258">
        <ele>51.0</ele>
        <time>2019-05-16T17:43:28.899Z</time>
      </trkpt>
      <trkpt lat="39.225385" lon="-8.68258">
        <ele>51.0</ele>
        <time>2019-05-16T17:43:29.931Z</time>
      </trkpt>
      <trkpt lat="39.22542667" lon="-8.682565">
        <ele>52.0</ele>
        <time>2019-05-16T17:43:30.906Z</time>
      </trkpt>
      <trkpt lat="39.22542667" lon="-8.682565">
        <ele>52.0</ele>
        <time>2019-05-16T17:43:31.917Z</time>
      </trkpt>
      <trkpt lat="39.22546833" lon="-8.68254833">
        <ele>52.0</ele>
        <time>2019-05-16T17:43:32.902Z</time>
      </trkpt>
      <trkpt lat="39.22546833" lon="-8.68254833">
        <ele>52.0</ele>
        <time>2019-05-16T17:43:33.923Z</time>
      </trkpt>
      <trkpt lat="39.225505" lon="-8.68252833">
        <ele>52.0</ele>
        <time>2019-05-16T17:43:34.898Z</time>
      </trkpt>
      <trkpt lat="39.22552333" lon="-8.68252">
        <ele>53.0</ele>
        <time>2019-05-16T17:43:35.923Z</time>
      </trkpt>
      <trkpt lat="39.22552333" lon="-8.68252">
        <ele>53.0</ele>
        <time>2019-05-16T17:43:36.903Z</time>
      </trkpt>
      <trkpt lat="39.22556333" lon="-8.68250833">
        <ele>53.0</ele>
        <time>2019-05-16T17:43:37.921Z</time>
      </trkpt>
      <trkpt lat="39.225585" lon="-8.68250333">
        <ele>53.0</ele>
        <time>2019-05-16T17:43:38.911Z</time>
      </trkpt>
      <trkpt lat="39.225585" lon="-8.68250333">
        <ele>53.0</ele>
        <time>2019-05-16T17:43:39.919Z</time>
      </trkpt>
      <trkpt lat="39.22562833" lon="-8.68249">
        <ele>54.0</ele>
        <time>2019-05-16T17:43:40.902Z</time>
      </trkpt>
      <trkpt lat="39.22562833" lon="-8.68249">
        <ele>54.0</ele>
        <time>2019-05-16T17:43:41.903Z</time>
      </trkpt>
      <trkpt lat="39.225675" lon="-8.682485">
        <ele>54.0</ele>
        <time>2019-05-16T17:43:42.934Z</time>
      </trkpt>
      <trkpt lat="39.225675" lon="-8.682485">
        <ele>54.0</ele>
        <time>2019-05-16T17:43:43.907Z</time>
      </trkpt>
      <trkpt lat="39.22571833" lon="-8.68248167">
        <ele>54.0</ele>
        <time>2019-05-16T17:43:44.918Z</time>
      </trkpt>
      <trkpt lat="39.22574" lon="-8.68247833">
        <ele>54.0</ele>
        <time>2019-05-16T17:43:45.927Z</time>
      </trkpt>
      <trkpt lat="39.22574" lon="-8.68247833">
        <ele>54.0</ele>
        <time>2019-05-16T17:43:46.935Z</time>
      </trkpt>
      <trkpt lat="39.22578167" lon="-8.68247667">
        <ele>55.0</ele>
        <time>2019-05-16T17:43:47.914Z</time>
      </trkpt>
      <trkpt lat="39.225805" lon="-8.68247667">
        <ele>55.0</ele>
        <time>2019-05-16T17:43:48.921Z</time>
      </trkpt>
      <trkpt lat="39.22582667" lon="-8.68247667">
        <ele>55.0</ele>
        <time>2019-05-16T17:43:49.900Z</time>
      </trkpt>
      <trkpt lat="39.22584667" lon="-8.68247333">
        <ele>55.0</ele>
        <time>2019-05-16T17:43:50.928Z</time>
      </trkpt>
      <trkpt lat="39.22584667" lon="-8.68247333">
        <ele>55.0</ele>
        <time>2019-05-16T17:43:51.914Z</time>
      </trkpt>
      <trkpt lat="39.22588833" lon="-8.68246333">
        <ele>55.0</ele>
        <time>2019-05-16T17:43:52.897Z</time>
      </trkpt>
      <trkpt lat="39.22588833" lon="-8.68246333">
        <ele>55.0</ele>
        <time>2019-05-16T17:43:53.903Z</time>
      </trkpt>
      <trkpt lat="39.22594" lon="-8.68245333">
        <ele>56.0</ele>
        <time>2019-05-16T17:43:54.928Z</time>
      </trkpt>
      <trkpt lat="39.22594" lon="-8.68245333">
        <ele>56.0</ele>
        <time>2019-05-16T17:43:55.934Z</time>
      </trkpt>
      <trkpt lat="39.22599" lon="-8.68244333">
        <ele>56.0</ele>
        <time>2019-05-16T17:43:56.910Z</time>
      </trkpt>
      <trkpt lat="39.22599" lon="-8.68244333">
        <ele>56.0</ele>
        <time>2019-05-16T17:43:57.923Z</time>
      </trkpt>
      <trkpt lat="39.22603" lon="-8.682435">
        <ele>56.0</ele>
        <time>2019-05-16T17:43:58.935Z</time>
      </trkpt>
      <trkpt lat="39.22603" lon="-8.682435">
        <ele>56.0</ele>
        <time>2019-05-16T17:43:59.931Z</time>
      </trkpt>
      <trkpt lat="39.22606833" lon="-8.68242333">
        <ele>57.0</ele>
        <time>2019-05-16T17:44:00.918Z</time>
      </trkpt>
      <trkpt lat="39.22606833" lon="-8.68242333">
        <ele>57.0</ele>
        <time>2019-05-16T17:44:01.923Z</time>
      </trkpt>
      <trkpt lat="39.22611333" lon="-8.682415">
        <ele>57.0</ele>
        <time>2019-05-16T17:44:02.897Z</time>
      </trkpt>
      <trkpt lat="39.22611333" lon="-8.682415">
        <ele>57.0</ele>
        <time>2019-05-16T17:44:03.923Z</time>
      </trkpt>
      <trkpt lat="39.22615667" lon="-8.68240333">
        <ele>58.0</ele>
        <time>2019-05-16T17:44:04.897Z</time>
      </trkpt>
      <trkpt lat="39.22615667" lon="-8.68240333">
        <ele>58.0</ele>
        <time>2019-05-16T17:44:05.899Z</time>
      </trkpt>
      <trkpt lat="39.2262" lon="-8.68239833">
        <ele>59.0</ele>
        <time>2019-05-16T17:44:06.929Z</time>
      </trkpt>
      <trkpt lat="39.2262" lon="-8.68239833">
        <ele>59.0</ele>
        <time>2019-05-16T17:44:07.897Z</time>
      </trkpt>
      <trkpt lat="39.22624167" lon="-8.682395">
        <ele>59.0</ele>
        <time>2019-05-16T17:44:08.919Z</time>
      </trkpt>
      <trkpt lat="39.22624167" lon="-8.682395">
        <ele>59.0</ele>
        <time>2019-05-16T17:44:09.905Z</time>
      </trkpt>
      <trkpt lat="39.22628833" lon="-8.68238833">
        <ele>60.0</ele>
        <time>2019-05-16T17:44:10.925Z</time>
      </trkpt>
      <trkpt lat="39.22628833" lon="-8.68238833">
        <ele>60.0</ele>
        <time>2019-05-16T17:44:11.902Z</time>
      </trkpt>
      <trkpt lat="39.22633667" lon="-8.68238667">
        <ele>61.0</ele>
        <time>2019-05-16T17:44:12.903Z</time>
      </trkpt>
      <trkpt lat="39.22633667" lon="-8.68238667">
        <ele>61.0</ele>
        <time>2019-05-16T17:44:13.905Z</time>
      </trkpt>
      <trkpt lat="39.22639167" lon="-8.68238833">
        <ele>60.0</ele>
        <time>2019-05-16T17:44:14.931Z</time>
      </trkpt>
      <trkpt lat="39.22639167" lon="-8.68238833">
        <ele>60.0</ele>
        <time>2019-05-16T17:44:15.923Z</time>
      </trkpt>
      <trkpt lat="39.22644" lon="-8.68238333">
        <ele>61.0</ele>
        <time>2019-05-16T17:44:16.939Z</time>
      </trkpt>
      <trkpt lat="39.22644" lon="-8.68238333">
        <ele>61.0</ele>
        <time>2019-05-16T17:44:17.935Z</time>
      </trkpt>
      <trkpt lat="39.22648" lon="-8.68238">
        <ele>62.0</ele>
        <time>2019-05-16T17:44:18.918Z</time>
      </trkpt>
      <trkpt lat="39.22648" lon="-8.68238">
        <ele>62.0</ele>
        <time>2019-05-16T17:44:19.935Z</time>
      </trkpt>
      <trkpt lat="39.22651833" lon="-8.68239">
        <ele>62.0</ele>
        <time>2019-05-16T17:44:20.996Z</time>
      </trkpt>
      <trkpt lat="39.22651833" lon="-8.68239">
        <ele>62.0</ele>
        <time>2019-05-16T17:44:21.898Z</time>
      </trkpt>
      <trkpt lat="39.22655667" lon="-8.68237833">
        <ele>61.0</ele>
        <time>2019-05-16T17:44:22.920Z</time>
      </trkpt>
      <trkpt lat="39.22655667" lon="-8.68237833">
        <ele>61.0</ele>
        <time>2019-05-16T17:44:23.913Z</time>
      </trkpt>
      <trkpt lat="39.22659333" lon="-8.68236667">
        <ele>62.0</ele>
        <time>2019-05-16T17:44:24.931Z</time>
      </trkpt>
      <trkpt lat="39.22659333" lon="-8.68236667">
        <ele>62.0</ele>
        <time>2019-05-16T17:44:25.929Z</time>
      </trkpt>
      <trkpt lat="39.22662667" lon="-8.68236333">
        <ele>63.0</ele>
        <time>2019-05-16T17:44:26.918Z</time>
      </trkpt>
      <trkpt lat="39.22662667" lon="-8.68236333">
        <ele>63.0</ele>
        <time>2019-05-16T17:44:27.901Z</time>
      </trkpt>
      <trkpt lat="39.22667167" lon="-8.68235667">
        <ele>62.0</ele>
        <time>2019-05-16T17:44:28.927Z</time>
      </trkpt>
      <trkpt lat="39.22667167" lon="-8.68235667">
        <ele>62.0</ele>
        <time>2019-05-16T17:44:29.925Z</time>
      </trkpt>
      <trkpt lat="39.226705" lon="-8.68235">
        <ele>62.0</ele>
        <time>2019-05-16T17:44:30.900Z</time>
      </trkpt>
      <trkpt lat="39.22672" lon="-8.68234667">
        <ele>62.0</ele>
        <time>2019-05-16T17:44:31.908Z</time>
      </trkpt>
      <trkpt lat="39.22672" lon="-8.68234667">
        <ele>62.0</ele>
        <time>2019-05-16T17:44:32.909Z</time>
      </trkpt>
      <trkpt lat="39.22675167" lon="-8.68234333">
        <ele>63.0</ele>
        <time>2019-05-16T17:44:33.926Z</time>
      </trkpt>
      <trkpt lat="39.22676667" lon="-8.68234167">
        <ele>63.0</ele>
        <time>2019-05-16T17:44:34.918Z</time>
      </trkpt>
      <trkpt lat="39.22676667" lon="-8.68234167">
        <ele>63.0</ele>
        <time>2019-05-16T17:44:35.925Z</time>
      </trkpt>
      <trkpt lat="39.226795" lon="-8.68234833">
        <ele>63.0</ele>
        <time>2019-05-16T17:44:36.900Z</time>
      </trkpt>
      <trkpt lat="39.22680167" lon="-8.68235333">
        <ele>63.0</ele>
        <time>2019-05-16T17:44:37.916Z</time>
      </trkpt>
      <trkpt lat="39.226805" lon="-8.68235167">
        <ele>63.0</ele>
        <time>2019-05-16T17:44:38.919Z</time>
      </trkpt>
      <trkpt lat="39.226805" lon="-8.68235167">
        <ele>63.0</ele>
        <time>2019-05-16T17:44:39.901Z</time>
      </trkpt>
      <trkpt lat="39.22680833" lon="-8.68235167">
        <ele>63.0</ele>
        <time>2019-05-16T17:44:40.919Z</time>
      </trkpt>
      <trkpt lat="39.22680833" lon="-8.68235167">
        <ele>63.0</ele>
        <time>2019-05-16T17:44:41.899Z</time>
      </trkpt>
      <trkpt lat="39.22680833" lon="-8.68235167">
        <ele>63.0</ele>
        <time>2019-05-16T17:44:42.905Z</time>
      </trkpt>
      <trkpt lat="39.22680833" lon="-8.68235167">
        <ele>63.0</ele>
        <time>2019-05-16T17:44:43.911Z</time>
      </trkpt>
      <trkpt lat="39.22680833" lon="-8.68235167">
        <ele>63.0</ele>
        <time>2019-05-16T17:44:44.917Z</time>
      </trkpt>
      <trkpt lat="39.22680833" lon="-8.68235167">
        <ele>63.0</ele>
        <time>2019-05-16T17:44:45.907Z</time>
      </trkpt>
      <trkpt lat="39.22680833" lon="-8.68235167">
        <ele>63.0</ele>
        <time>2019-05-16T17:44:46.914Z</time>
      </trkpt>
      <trkpt lat="39.22680833" lon="-8.68235167">
        <ele>63.0</ele>
        <time>2019-05-16T17:44:47.907Z</time>
      </trkpt>
      <trkpt lat="39.22680833" lon="-8.68235167">
        <ele>63.0</ele>
        <time>2019-05-16T17:44:48.911Z</time>
      </trkpt>
      <trkpt lat="39.22680833" lon="-8.68235167">
        <ele>63.0</ele>
        <time>2019-05-16T17:44:49.902Z</time>
      </trkpt>
      <trkpt lat="39.22680833" lon="-8.68235167">
        <ele>63.0</ele>
        <time>2019-05-16T17:44:50.921Z</time>
      </trkpt>
      <trkpt lat="39.22680833" lon="-8.68235167">
        <ele>63.0</ele>
        <time>2019-05-16T17:44:51.908Z</time>
      </trkpt>
      <trkpt lat="39.22680833" lon="-8.68235167">
        <ele>63.0</ele>
        <time>2019-05-16T17:44:52.910Z</time>
      </trkpt>
      <trkpt lat="39.22680833" lon="-8.68235167">
        <ele>63.0</ele>
        <time>2019-05-16T17:44:53.906Z</time>
      </trkpt>
      <trkpt lat="39.22680833" lon="-8.68235167">
        <ele>63.0</ele>
        <time>2019-05-16T17:44:54.913Z</time>
      </trkpt>
      <trkpt lat="39.22680833" lon="-8.68235167">
        <ele>63.0</ele>
        <time>2019-05-16T17:44:55.906Z</time>
      </trkpt>
      <trkpt lat="39.22680833" lon="-8.68235167">
        <ele>63.0</ele>
        <time>2019-05-16T17:44:56.934Z</time>
      </trkpt>
      <trkpt lat="39.22680833" lon="-8.68235167">
        <ele>63.0</ele>
        <time>2019-05-16T17:44:57.920Z</time>
      </trkpt>
      <trkpt lat="39.22680833" lon="-8.68235167">
        <ele>63.0</ele>
        <time>2019-05-16T17:44:58.911Z</time>
      </trkpt>
      <trkpt lat="39.22680833" lon="-8.68235167">
        <ele>63.0</ele>
        <time>2019-05-16T17:44:59.911Z</time>
      </trkpt>
      <trkpt lat="39.22680833" lon="-8.68235167">
        <ele>63.0</ele>
        <time>2019-05-16T17:45:00.909Z</time>
      </trkpt>
      <trkpt lat="39.22680833" lon="-8.68235167">
        <ele>63.0</ele>
        <time>2019-05-16T17:45:01.911Z</time>
      </trkpt>
      <trkpt lat="39.22680833" lon="-8.68235167">
        <ele>63.0</ele>
        <time>2019-05-16T17:45:02.913Z</time>
      </trkpt>
      <trkpt lat="39.22680833" lon="-8.68235167">
        <ele>63.0</ele>
        <time>2019-05-16T17:45:03.907Z</time>
      </trkpt>
      <trkpt lat="39.22680833" lon="-8.68235167">
        <ele>63.0</ele>
        <time>2019-05-16T17:45:04.911Z</time>
      </trkpt>
      <trkpt lat="39.22680833" lon="-8.68235167">
        <ele>63.0</ele>
        <time>2019-05-16T17:45:05.910Z</time>
      </trkpt>
      <trkpt lat="39.22680833" lon="-8.68235167">
        <ele>63.0</ele>
        <time>2019-05-16T17:45:06.912Z</time>
      </trkpt>
      <trkpt lat="39.22680833" lon="-8.68235167">
        <ele>63.0</ele>
        <time>2019-05-16T17:45:07.907Z</time>
      </trkpt>
      <trkpt lat="39.22680833" lon="-8.68235167">
        <ele>63.0</ele>
        <time>2019-05-16T17:45:08.934Z</time>
      </trkpt>
      <trkpt lat="39.22680833" lon="-8.68235167">
        <ele>63.0</ele>
        <time>2019-05-16T17:45:09.919Z</time>
      </trkpt>
      <trkpt lat="39.22680833" lon="-8.68235167">
        <ele>63.0</ele>
        <time>2019-05-16T17:45:10.908Z</time>
      </trkpt>
      <trkpt lat="39.22680833" lon="-8.68235167">
        <ele>63.0</ele>
        <time>2019-05-16T17:45:11.911Z</time>
      </trkpt>
      <trkpt lat="39.22680833" lon="-8.68235167">
        <ele>63.0</ele>
        <time>2019-05-16T17:45:12.906Z</time>
      </trkpt>
      <trkpt lat="39.22680833" lon="-8.68235167">
        <ele>63.0</ele>
        <time>2019-05-16T17:45:13.911Z</time>
      </trkpt>
      <trkpt lat="39.22680833" lon="-8.68235167">
        <ele>63.0</ele>
        <time>2019-05-16T17:45:14.913Z</time>
      </trkpt>
      <trkpt lat="39.22680833" lon="-8.68235167">
        <ele>63.0</ele>
        <time>2019-05-16T17:45:15.907Z</time>
      </trkpt>
      <trkpt lat="39.22680833" lon="-8.68235167">
        <ele>63.0</ele>
        <time>2019-05-16T17:45:16.911Z</time>
      </trkpt>
      <trkpt lat="39.22680833" lon="-8.68235167">
        <ele>63.0</ele>
        <time>2019-05-16T17:45:17.907Z</time>
      </trkpt>
      <trkpt lat="39.22680833" lon="-8.68235167">
        <ele>63.0</ele>
        <time>2019-05-16T17:45:18.912Z</time>
      </trkpt>
      <trkpt lat="39.22680833" lon="-8.68235167">
        <ele>63.0</ele>
        <time>2019-05-16T17:45:19.907Z</time>
      </trkpt>
      <trkpt lat="39.22680833" lon="-8.68235167">
        <ele>63.0</ele>
        <time>2019-05-16T17:45:20.909Z</time>
      </trkpt>
      <trkpt lat="39.22680833" lon="-8.68235167">
        <ele>63.0</ele>
        <time>2019-05-16T17:45:21.931Z</time>
      </trkpt>
      <trkpt lat="39.22680833" lon="-8.68235167">
        <ele>63.0</ele>
        <time>2019-05-16T17:45:22.901Z</time>
      </trkpt>
      <trkpt lat="39.22680833" lon="-8.68235167">
        <ele>63.0</ele>
        <time>2019-05-16T17:45:23.907Z</time>
      </trkpt>
      <trkpt lat="39.22680833" lon="-8.68235167">
        <ele>63.0</ele>
        <time>2019-05-16T17:45:24.913Z</time>
      </trkpt>
      <trkpt lat="39.22680833" lon="-8.68235167">
        <ele>63.0</ele>
        <time>2019-05-16T17:45:25.919Z</time>
      </trkpt>
      <trkpt lat="39.22680833" lon="-8.68235167">
        <ele>63.0</ele>
        <time>2019-05-16T17:45:26.913Z</time>
      </trkpt>
      <trkpt lat="39.22680833" lon="-8.68235167">
        <ele>63.0</ele>
        <time>2019-05-16T17:45:27.906Z</time>
      </trkpt>
      <trkpt lat="39.22680833" lon="-8.68235167">
        <ele>63.0</ele>
        <time>2019-05-16T17:45:28.908Z</time>
      </trkpt>
      <trkpt lat="39.22680833" lon="-8.68235167">
        <ele>63.0</ele>
        <time>2019-05-16T17:45:29.911Z</time>
      </trkpt>
      <trkpt lat="39.22680833" lon="-8.68235167">
        <ele>63.0</ele>
        <time>2019-05-16T17:45:30.907Z</time>
      </trkpt>
      <trkpt lat="39.22680833" lon="-8.68235167">
        <ele>63.0</ele>
        <time>2019-05-16T17:45:31.911Z</time>
      </trkpt>
      <trkpt lat="39.22680833" lon="-8.68235167">
        <ele>63.0</ele>
        <time>2019-05-16T17:45:32.914Z</time>
      </trkpt>
      <trkpt lat="39.22680833" lon="-8.68235167">
        <ele>63.0</ele>
        <time>2019-05-16T17:45:33.907Z</time>
      </trkpt>
      <trkpt lat="39.22680833" lon="-8.68235167">
        <ele>63.0</ele>
        <time>2019-05-16T17:45:34.906Z</time>
      </trkpt>
      <trkpt lat="39.22680833" lon="-8.68235167">
        <ele>63.0</ele>
        <time>2019-05-16T17:45:35.907Z</time>
      </trkpt>
      <trkpt lat="39.22680833" lon="-8.68235167">
        <ele>63.0</ele>
        <time>2019-05-16T17:45:36.912Z</time>
      </trkpt>
      <trkpt lat="39.22680833" lon="-8.68235167">
        <ele>63.0</ele>
        <time>2019-05-16T17:45:37.913Z</time>
      </trkpt>
      <trkpt lat="39.22680833" lon="-8.68235167">
        <ele>63.0</ele>
        <time>2019-05-16T17:45:38.903Z</time>
      </trkpt>
      <trkpt lat="39.22680833" lon="-8.68235167">
        <ele>63.0</ele>
        <time>2019-05-16T17:45:39.920Z</time>
      </trkpt>
      <trkpt lat="39.22680833" lon="-8.68235167">
        <ele>63.0</ele>
        <time>2019-05-16T17:45:40.907Z</time>
      </trkpt>
      <trkpt lat="39.22680833" lon="-8.68235167">
        <ele>63.0</ele>
        <time>2019-05-16T17:45:41.912Z</time>
      </trkpt>
      <trkpt lat="39.22680833" lon="-8.68235167">
        <ele>63.0</ele>
        <time>2019-05-16T17:45:42.907Z</time>
      </trkpt>
      <trkpt lat="39.22680833" lon="-8.68235167">
        <ele>63.0</ele>
        <time>2019-05-16T17:45:43.911Z</time>
      </trkpt>
      <trkpt lat="39.22680833" lon="-8.68235167">
        <ele>63.0</ele>
        <time>2019-05-16T17:45:44.911Z</time>
      </trkpt>
      <trkpt lat="39.22680833" lon="-8.68235167">
        <ele>63.0</ele>
        <time>2019-05-16T17:45:45.907Z</time>
      </trkpt>
      <trkpt lat="39.22680833" lon="-8.68235167">
        <ele>63.0</ele>
        <time>2019-05-16T17:45:46.912Z</time>
      </trkpt>
      <trkpt lat="39.22680833" lon="-8.68235167">
        <ele>63.0</ele>
        <time>2019-05-16T17:45:47.907Z</time>
      </trkpt>
      <trkpt lat="39.22680833" lon="-8.68235167">
        <ele>63.0</ele>
        <time>2019-05-16T17:45:48.912Z</time>
      </trkpt>
      <trkpt lat="39.22680833" lon="-8.68235167">
        <ele>63.0</ele>
        <time>2019-05-16T17:45:49.910Z</time>
      </trkpt>
      <trkpt lat="39.22680833" lon="-8.68235167">
        <ele>63.0</ele>
        <time>2019-05-16T17:45:50.911Z</time>
      </trkpt>
      <trkpt lat="39.22680833" lon="-8.68235167">
        <ele>63.0</ele>
        <time>2019-05-16T17:45:51.907Z</time>
      </trkpt>
      <trkpt lat="39.22680833" lon="-8.68235167">
        <ele>63.0</ele>
        <time>2019-05-16T17:45:52.913Z</time>
      </trkpt>
      <trkpt lat="39.22680833" lon="-8.68235167">
        <ele>63.0</ele>
        <time>2019-05-16T17:45:53.907Z</time>
      </trkpt>
      <trkpt lat="39.22680833" lon="-8.68235167">
        <ele>63.0</ele>
        <time>2019-05-16T17:45:54.912Z</time>
      </trkpt>
      <trkpt lat="39.22680833" lon="-8.68235167">
        <ele>63.0</ele>
        <time>2019-05-16T17:45:55.907Z</time>
      </trkpt>
      <trkpt lat="39.22680833" lon="-8.68235167">
        <ele>63.0</ele>
        <time>2019-05-16T17:45:56.911Z</time>
      </trkpt>
      <trkpt lat="39.22680833" lon="-8.68235167">
        <ele>63.0</ele>
        <time>2019-05-16T17:45:57.912Z</time>
      </trkpt>
      <trkpt lat="39.22680833" lon="-8.68235167">
        <ele>63.0</ele>
        <time>2019-05-16T17:45:58.907Z</time>
      </trkpt>
      <trkpt lat="39.22680833" lon="-8.68235167">
        <ele>63.0</ele>
        <time>2019-05-16T17:45:59.920Z</time>
      </trkpt>
      <trkpt lat="39.22680833" lon="-8.68235167">
        <ele>63.0</ele>
        <time>2019-05-16T17:46:00.908Z</time>
      </trkpt>
      <trkpt lat="39.22680833" lon="-8.68235167">
        <ele>63.0</ele>
        <time>2019-05-16T17:46:01.912Z</time>
      </trkpt>
      <trkpt lat="39.22680833" lon="-8.68235167">
        <ele>63.0</ele>
        <time>2019-05-16T17:46:02.913Z</time>
      </trkpt>
      <trkpt lat="39.22680833" lon="-8.68235167">
        <ele>63.0</ele>
        <time>2019-05-16T17:46:03.907Z</time>
      </trkpt>
      <trkpt lat="39.22680833" lon="-8.68235167">
        <ele>63.0</ele>
        <time>2019-05-16T17:46:04.909Z</time>
      </trkpt>
      <trkpt lat="39.22680833" lon="-8.68235167">
        <ele>63.0</ele>
        <time>2019-05-16T17:46:05.907Z</time>
      </trkpt>
      <trkpt lat="39.22680833" lon="-8.68235167">
        <ele>63.0</ele>
        <time>2019-05-16T17:46:06.912Z</time>
      </trkpt>
      <trkpt lat="39.22680833" lon="-8.68235167">
        <ele>63.0</ele>
        <time>2019-05-16T17:46:07.907Z</time>
      </trkpt>
      <trkpt lat="39.22680833" lon="-8.68235167">
        <ele>63.0</ele>
        <time>2019-05-16T17:46:08.914Z</time>
      </trkpt>
      <trkpt lat="39.22680833" lon="-8.68235167">
        <ele>63.0</ele>
        <time>2019-05-16T17:46:09.907Z</time>
      </trkpt>
      <trkpt lat="39.22680833" lon="-8.68235167">
        <ele>63.0</ele>
        <time>2019-05-16T17:46:10.913Z</time>
      </trkpt>
      <trkpt lat="39.22680833" lon="-8.68235167">
        <ele>63.0</ele>
        <time>2019-05-16T17:46:11.906Z</time>
      </trkpt>
      <trkpt lat="39.22680833" lon="-8.68235167">
        <ele>63.0</ele>
        <time>2019-05-16T17:46:12.911Z</time>
      </trkpt>
      <trkpt lat="39.22680833" lon="-8.68235167">
        <ele>63.0</ele>
        <time>2019-05-16T17:46:13.907Z</time>
      </trkpt>
      <trkpt lat="39.22680833" lon="-8.68235167">
        <ele>63.0</ele>
        <time>2019-05-16T17:46:14.913Z</time>
      </trkpt>
      <trkpt lat="39.22680833" lon="-8.68235167">
        <ele>63.0</ele>
        <time>2019-05-16T17:46:15.908Z</time>
      </trkpt>
      <trkpt lat="39.22680833" lon="-8.68235167">
        <ele>63.0</ele>
        <time>2019-05-16T17:46:16.911Z</time>
      </trkpt>
      <trkpt lat="39.22680833" lon="-8.68235167">
        <ele>63.0</ele>
        <time>2019-05-16T17:46:17.910Z</time>
      </trkpt>
      <trkpt lat="39.22680833" lon="-8.68235167">
        <ele>63.0</ele>
        <time>2019-05-16T17:46:18.918Z</time>
      </trkpt>
      <trkpt lat="39.22680833" lon="-8.68235167">
        <ele>63.0</ele>
        <time>2019-05-16T17:46:19.923Z</time>
      </trkpt>
      <trkpt lat="39.22680833" lon="-8.68235167">
        <ele>63.0</ele>
        <time>2019-05-16T17:46:20.911Z</time>
      </trkpt>
      <trkpt lat="39.22680833" lon="-8.68235167">
        <ele>63.0</ele>
        <time>2019-05-16T17:46:21.920Z</time>
      </trkpt>
      <trkpt lat="39.22680833" lon="-8.68235167">
        <ele>63.0</ele>
        <time>2019-05-16T17:46:22.931Z</time>
      </trkpt>
      <trkpt lat="39.22680833" lon="-8.68235167">
        <ele>63.0</ele>
        <time>2019-05-16T17:46:23.917Z</time>
      </trkpt>
      <trkpt lat="39.22680833" lon="-8.68235167">
        <ele>63.0</ele>
        <time>2019-05-16T17:46:24.906Z</time>
      </trkpt>
      <trkpt lat="39.22680833" lon="-8.68235167">
        <ele>63.0</ele>
        <time>2019-05-16T17:46:25.913Z</time>
      </trkpt>
      <trkpt lat="39.22680833" lon="-8.68235167">
        <ele>63.0</ele>
        <time>2019-05-16T17:46:26.898Z</time>
      </trkpt>
      <trkpt lat="39.22680833" lon="-8.68235167">
        <ele>63.0</ele>
        <time>2019-05-16T17:46:27.906Z</time>
      </trkpt>
      <trkpt lat="39.22680833" lon="-8.68235167">
        <ele>63.0</ele>
        <time>2019-05-16T17:46:28.912Z</time>
      </trkpt>
      <trkpt lat="39.22680833" lon="-8.68235167">
        <ele>63.0</ele>
        <time>2019-05-16T17:46:29.897Z</time>
      </trkpt>
      <trkpt lat="39.22680833" lon="-8.68235167">
        <ele>63.0</ele>
        <time>2019-05-16T17:46:30.911Z</time>
      </trkpt>
      <trkpt lat="39.22680833" lon="-8.68235167">
        <ele>63.0</ele>
        <time>2019-05-16T17:46:31.912Z</time>
      </trkpt>
      <trkpt lat="39.22680833" lon="-8.68235167">
        <ele>63.0</ele>
        <time>2019-05-16T17:46:32.913Z</time>
      </trkpt>
      <trkpt lat="39.22680833" lon="-8.68235167">
        <ele>63.0</ele>
        <time>2019-05-16T17:46:33.907Z</time>
      </trkpt>
      <trkpt lat="39.22680833" lon="-8.68235167">
        <ele>63.0</ele>
        <time>2019-05-16T17:46:34.912Z</time>
      </trkpt>
      <trkpt lat="39.22680833" lon="-8.68235167">
        <ele>63.0</ele>
        <time>2019-05-16T17:46:35.907Z</time>
      </trkpt>
      <trkpt lat="39.22680833" lon="-8.68235167">
        <ele>63.0</ele>
        <time>2019-05-16T17:46:36.912Z</time>
      </trkpt>
      <trkpt lat="39.22680833" lon="-8.68235167">
        <ele>63.0</ele>
        <time>2019-05-16T17:46:37.907Z</time>
      </trkpt>
      <trkpt lat="39.22681833" lon="-8.68237">
        <ele>61.0</ele>
        <time>2019-05-16T17:46:38.911Z</time>
      </trkpt>
      <trkpt lat="39.22681833" lon="-8.68237">
        <ele>61.0</ele>
        <time>2019-05-16T17:46:39.907Z</time>
      </trkpt>
      <trkpt lat="39.22682833" lon="-8.68237833">
        <ele>61.0</ele>
        <time>2019-05-16T17:46:40.909Z</time>
      </trkpt>
      <trkpt lat="39.22682833" lon="-8.68237833">
        <ele>61.0</ele>
        <time>2019-05-16T17:46:41.913Z</time>
      </trkpt>
      <trkpt lat="39.22685" lon="-8.68239167">
        <ele>61.0</ele>
        <time>2019-05-16T17:46:42.912Z</time>
      </trkpt>
      <trkpt lat="39.22685" lon="-8.68239167">
        <ele>61.0</ele>
        <time>2019-05-16T17:46:43.907Z</time>
      </trkpt>
      <trkpt lat="39.22689333" lon="-8.68241667">
        <ele>60.0</ele>
        <time>2019-05-16T17:46:44.914Z</time>
      </trkpt>
      <trkpt lat="39.22689333" lon="-8.68241667">
        <ele>60.0</ele>
        <time>2019-05-16T17:46:45.910Z</time>
      </trkpt>
      <trkpt lat="39.22694167" lon="-8.68244833">
        <ele>59.0</ele>
        <time>2019-05-16T17:46:46.920Z</time>
      </trkpt>
      <trkpt lat="39.22694167" lon="-8.68244833">
        <ele>59.0</ele>
        <time>2019-05-16T17:46:47.922Z</time>
      </trkpt>
      <trkpt lat="39.22699333" lon="-8.68248667">
        <ele>59.0</ele>
        <time>2019-05-16T17:46:48.900Z</time>
      </trkpt>
      <trkpt lat="39.22701667" lon="-8.68251167">
        <ele>59.0</ele>
        <time>2019-05-16T17:46:49.902Z</time>
      </trkpt>
      <trkpt lat="39.22701667" lon="-8.68251167">
        <ele>59.0</ele>
        <time>2019-05-16T17:46:50.933Z</time>
      </trkpt>
      <trkpt lat="39.22707" lon="-8.68256">
        <ele>58.0</ele>
        <time>2019-05-16T17:46:51.912Z</time>
      </trkpt>
      <trkpt lat="39.22707" lon="-8.68256">
        <ele>58.0</ele>
        <time>2019-05-16T17:46:52.903Z</time>
      </trkpt>
      <trkpt lat="39.22712" lon="-8.682605">
        <ele>58.0</ele>
        <time>2019-05-16T17:46:53.924Z</time>
      </trkpt>
      <trkpt lat="39.22714333" lon="-8.68262333">
        <ele>58.0</ele>
        <time>2019-05-16T17:46:54.903Z</time>
      </trkpt>
      <trkpt lat="39.22714333" lon="-8.68262333">
        <ele>58.0</ele>
        <time>2019-05-16T17:46:55.901Z</time>
      </trkpt>
      <trkpt lat="39.22718667" lon="-8.68266667">
        <ele>57.0</ele>
        <time>2019-05-16T17:46:56.922Z</time>
      </trkpt>
      <trkpt lat="39.22718667" lon="-8.68266667">
        <ele>57.0</ele>
        <time>2019-05-16T17:46:57.909Z</time>
      </trkpt>
      <trkpt lat="39.22723167" lon="-8.682715">
        <ele>57.0</ele>
        <time>2019-05-16T17:46:58.905Z</time>
      </trkpt>
      <trkpt lat="39.22723167" lon="-8.682715">
        <ele>57.0</ele>
        <time>2019-05-16T17:46:59.901Z</time>
      </trkpt>
      <trkpt lat="39.22727833" lon="-8.68276833">
        <ele>57.0</ele>
        <time>2019-05-16T17:47:00.924Z</time>
      </trkpt>
      <trkpt lat="39.22730333" lon="-8.682795">
        <ele>57.0</ele>
        <time>2019-05-16T17:47:01.921Z</time>
      </trkpt>
      <trkpt lat="39.22730333" lon="-8.682795">
        <ele>57.0</ele>
        <time>2019-05-16T17:47:02.903Z</time>
      </trkpt>
      <trkpt lat="39.22735333" lon="-8.68285167">
        <ele>57.0</ele>
        <time>2019-05-16T17:47:03.934Z</time>
      </trkpt>
      <trkpt lat="39.22737833" lon="-8.68288333">
        <ele>57.0</ele>
        <time>2019-05-16T17:47:04.931Z</time>
      </trkpt>
      <trkpt lat="39.22737833" lon="-8.68288333">
        <ele>57.0</ele>
        <time>2019-05-16T17:47:05.902Z</time>
      </trkpt>
      <trkpt lat="39.22742833" lon="-8.68294667">
        <ele>58.0</ele>
        <time>2019-05-16T17:47:06.918Z</time>
      </trkpt>
      <trkpt lat="39.22742833" lon="-8.68294667">
        <ele>58.0</ele>
        <time>2019-05-16T17:47:07.903Z</time>
      </trkpt>
      <trkpt lat="39.22748" lon="-8.683005">
        <ele>58.0</ele>
        <time>2019-05-16T17:47:08.916Z</time>
      </trkpt>
      <trkpt lat="39.22748" lon="-8.683005">
        <ele>58.0</ele>
        <time>2019-05-16T17:47:09.923Z</time>
      </trkpt>
      <trkpt lat="39.227535" lon="-8.683055">
        <ele>58.0</ele>
        <time>2019-05-16T17:47:10.901Z</time>
      </trkpt>
      <trkpt lat="39.227535" lon="-8.683055">
        <ele>58.0</ele>
        <time>2019-05-16T17:47:11.922Z</time>
      </trkpt>
      <trkpt lat="39.22758333" lon="-8.68310333">
        <ele>58.0</ele>
        <time>2019-05-16T17:47:12.910Z</time>
      </trkpt>
      <trkpt lat="39.22758333" lon="-8.68310333">
        <ele>58.0</ele>
        <time>2019-05-16T17:47:13.905Z</time>
      </trkpt>
      <trkpt lat="39.22763333" lon="-8.68314667">
        <ele>58.0</ele>
        <time>2019-05-16T17:47:14.930Z</time>
      </trkpt>
      <trkpt lat="39.22763333" lon="-8.68314667">
        <ele>58.0</ele>
        <time>2019-05-16T17:47:15.915Z</time>
      </trkpt>
      <trkpt lat="39.22767833" lon="-8.68319167">
        <ele>58.0</ele>
        <time>2019-05-16T17:47:16.934Z</time>
      </trkpt>
      <trkpt lat="39.22767833" lon="-8.68319167">
        <ele>58.0</ele>
        <time>2019-05-16T17:47:17.910Z</time>
      </trkpt>
      <trkpt lat="39.22772167" lon="-8.68323167">
        <ele>58.0</ele>
        <time>2019-05-16T17:47:18.932Z</time>
      </trkpt>
      <trkpt lat="39.22772167" lon="-8.68323167">
        <ele>58.0</ele>
        <time>2019-05-16T17:47:19.901Z</time>
      </trkpt>
      <trkpt lat="39.22777333" lon="-8.68328167">
        <ele>58.0</ele>
        <time>2019-05-16T17:47:20.920Z</time>
      </trkpt>
      <trkpt lat="39.22777333" lon="-8.68328167">
        <ele>58.0</ele>
        <time>2019-05-16T17:47:21.910Z</time>
      </trkpt>
      <trkpt lat="39.22783167" lon="-8.68333167">
        <ele>59.0</ele>
        <time>2019-05-16T17:47:22.899Z</time>
      </trkpt>
      <trkpt lat="39.22783167" lon="-8.68333167">
        <ele>59.0</ele>
        <time>2019-05-16T17:47:23.934Z</time>
      </trkpt>
      <trkpt lat="39.22790333" lon="-8.68337667">
        <ele>59.0</ele>
        <time>2019-05-16T17:47:24.916Z</time>
      </trkpt>
      <trkpt lat="39.22793333" lon="-8.68339667">
        <ele>59.0</ele>
        <time>2019-05-16T17:47:25.911Z</time>
      </trkpt>
      <trkpt lat="39.22796333" lon="-8.683415">
        <ele>59.0</ele>
        <time>2019-05-16T17:47:26.908Z</time>
      </trkpt>
      <trkpt lat="39.22796333" lon="-8.683415">
        <ele>59.0</ele>
        <time>2019-05-16T17:47:27.930Z</time>
      </trkpt>
      <trkpt lat="39.22801833" lon="-8.68345">
        <ele>59.0</ele>
        <time>2019-05-16T17:47:28.922Z</time>
      </trkpt>
      <trkpt lat="39.22801833" lon="-8.68345">
        <ele>59.0</ele>
        <time>2019-05-16T17:47:29.923Z</time>
      </trkpt>
      <trkpt lat="39.228065" lon="-8.68347833">
        <ele>60.0</ele>
        <time>2019-05-16T17:47:30.902Z</time>
      </trkpt>
      <trkpt lat="39.228085" lon="-8.68349333">
        <ele>60.0</ele>
        <time>2019-05-16T17:47:31.933Z</time>
      </trkpt>
      <trkpt lat="39.228085" lon="-8.68349333">
        <ele>60.0</ele>
        <time>2019-05-16T17:47:32.920Z</time>
      </trkpt>
      <trkpt lat="39.22812333" lon="-8.68352167">
        <ele>61.0</ele>
        <time>2019-05-16T17:47:33.936Z</time>
      </trkpt>
      <trkpt lat="39.22812333" lon="-8.68352167">
        <ele>61.0</ele>
        <time>2019-05-16T17:47:34.902Z</time>
      </trkpt>
      <trkpt lat="39.22816167" lon="-8.683545">
        <ele>61.0</ele>
        <time>2019-05-16T17:47:35.927Z</time>
      </trkpt>
      <trkpt lat="39.22818" lon="-8.683555">
        <ele>61.0</ele>
        <time>2019-05-16T17:47:36.926Z</time>
      </trkpt>
      <trkpt lat="39.22818" lon="-8.683555">
        <ele>61.0</ele>
        <time>2019-05-16T17:47:37.923Z</time>
      </trkpt>
      <trkpt lat="39.22821833" lon="-8.68357833">
        <ele>61.0</ele>
        <time>2019-05-16T17:47:38.905Z</time>
      </trkpt>
      <trkpt lat="39.22821833" lon="-8.68357833">
        <ele>61.0</ele>
        <time>2019-05-16T17:47:39.925Z</time>
      </trkpt>
      <trkpt lat="39.22825167" lon="-8.68360333">
        <ele>62.0</ele>
        <time>2019-05-16T17:47:40.908Z</time>
      </trkpt>
      <trkpt lat="39.22825167" lon="-8.68360333">
        <ele>62.0</ele>
        <time>2019-05-16T17:47:41.898Z</time>
      </trkpt>
      <trkpt lat="39.22829" lon="-8.68362333">
        <ele>62.0</ele>
        <time>2019-05-16T17:47:42.926Z</time>
      </trkpt>
      <trkpt lat="39.22829" lon="-8.68362333">
        <ele>62.0</ele>
        <time>2019-05-16T17:47:43.901Z</time>
      </trkpt>
      <trkpt lat="39.228325" lon="-8.68364833">
        <ele>62.0</ele>
        <time>2019-05-16T17:47:44.941Z</time>
      </trkpt>
      <trkpt lat="39.228325" lon="-8.68364833">
        <ele>62.0</ele>
        <time>2019-05-16T17:47:45.923Z</time>
      </trkpt>
      <trkpt lat="39.22836" lon="-8.68367667">
        <ele>62.0</ele>
        <time>2019-05-16T17:47:46.898Z</time>
      </trkpt>
      <trkpt lat="39.22836" lon="-8.68367667">
        <ele>62.0</ele>
        <time>2019-05-16T17:47:47.901Z</time>
      </trkpt>
      <trkpt lat="39.22839167" lon="-8.68370333">
        <ele>63.0</ele>
        <time>2019-05-16T17:47:48.921Z</time>
      </trkpt>
      <trkpt lat="39.22839167" lon="-8.68370333">
        <ele>63.0</ele>
        <time>2019-05-16T17:47:49.901Z</time>
      </trkpt>
      <trkpt lat="39.22841833" lon="-8.68373667">
        <ele>63.0</ele>
        <time>2019-05-16T17:47:50.920Z</time>
      </trkpt>
      <trkpt lat="39.22841833" lon="-8.68373667">
        <ele>63.0</ele>
        <time>2019-05-16T17:47:51.913Z</time>
      </trkpt>
      <trkpt lat="39.22844667" lon="-8.68376667">
        <ele>63.0</ele>
        <time>2019-05-16T17:47:52.936Z</time>
      </trkpt>
      <trkpt lat="39.22844667" lon="-8.68376667">
        <ele>63.0</ele>
        <time>2019-05-16T17:47:53.906Z</time>
      </trkpt>
      <trkpt lat="39.22847" lon="-8.683795">
        <ele>64.0</ele>
        <time>2019-05-16T17:47:54.931Z</time>
      </trkpt>
      <trkpt lat="39.22847" lon="-8.683795">
        <ele>64.0</ele>
        <time>2019-05-16T17:47:55.901Z</time>
      </trkpt>
      <trkpt lat="39.22849333" lon="-8.68381833">
        <ele>64.0</ele>
        <time>2019-05-16T17:47:56.924Z</time>
      </trkpt>
      <trkpt lat="39.22849333" lon="-8.68381833">
        <ele>64.0</ele>
        <time>2019-05-16T17:47:57.907Z</time>
      </trkpt>
      <trkpt lat="39.22852" lon="-8.68385">
        <ele>65.0</ele>
        <time>2019-05-16T17:47:58.914Z</time>
      </trkpt>
      <trkpt lat="39.22852" lon="-8.68385">
        <ele>65.0</ele>
        <time>2019-05-16T17:47:59.905Z</time>
      </trkpt>
      <trkpt lat="39.228545" lon="-8.68388667">
        <ele>65.0</ele>
        <time>2019-05-16T17:48:00.931Z</time>
      </trkpt>
      <trkpt lat="39.228545" lon="-8.68388667">
        <ele>65.0</ele>
        <time>2019-05-16T17:48:01.904Z</time>
      </trkpt>
      <trkpt lat="39.22857" lon="-8.68391667">
        <ele>65.0</ele>
        <time>2019-05-16T17:48:02.925Z</time>
      </trkpt>
      <trkpt lat="39.22857" lon="-8.68391667">
        <ele>65.0</ele>
        <time>2019-05-16T17:48:03.927Z</time>
      </trkpt>
      <trkpt lat="39.228595" lon="-8.68394833">
        <ele>66.0</ele>
        <time>2019-05-16T17:48:04.915Z</time>
      </trkpt>
      <trkpt lat="39.228595" lon="-8.68394833">
        <ele>66.0</ele>
        <time>2019-05-16T17:48:05.903Z</time>
      </trkpt>
      <trkpt lat="39.22863167" lon="-8.683985">
        <ele>66.0</ele>
        <time>2019-05-16T17:48:06.934Z</time>
      </trkpt>
      <trkpt lat="39.22864833" lon="-8.68400667">
        <ele>66.0</ele>
        <time>2019-05-16T17:48:07.919Z</time>
      </trkpt>
      <trkpt lat="39.22866167" lon="-8.68402833">
        <ele>67.0</ele>
        <time>2019-05-16T17:48:08.897Z</time>
      </trkpt>
      <trkpt lat="39.22866167" lon="-8.68402833">
        <ele>67.0</ele>
        <time>2019-05-16T17:48:09.913Z</time>
      </trkpt>
      <trkpt lat="39.22869167" lon="-8.68407167">
        <ele>68.0</ele>
        <time>2019-05-16T17:48:10.931Z</time>
      </trkpt>
      <trkpt lat="39.22869167" lon="-8.68407167">
        <ele>68.0</ele>
        <time>2019-05-16T17:48:11.899Z</time>
      </trkpt>
      <trkpt lat="39.22871333" lon="-8.68411333">
        <ele>68.0</ele>
        <time>2019-05-16T17:48:12.928Z</time>
      </trkpt>
      <trkpt lat="39.22871333" lon="-8.68411333">
        <ele>68.0</ele>
        <time>2019-05-16T17:48:13.917Z</time>
      </trkpt>
      <trkpt lat="39.22874" lon="-8.68415167">
        <ele>69.0</ele>
        <time>2019-05-16T17:48:14.899Z</time>
      </trkpt>
      <trkpt lat="39.22874" lon="-8.68415167">
        <ele>69.0</ele>
        <time>2019-05-16T17:48:15.935Z</time>
      </trkpt>
      <trkpt lat="39.22876167" lon="-8.68418667">
        <ele>69.0</ele>
        <time>2019-05-16T17:48:16.928Z</time>
      </trkpt>
      <trkpt lat="39.22876167" lon="-8.68418667">
        <ele>69.0</ele>
        <time>2019-05-16T17:48:17.907Z</time>
      </trkpt>
      <trkpt lat="39.22879333" lon="-8.684215">
        <ele>70.0</ele>
        <time>2019-05-16T17:48:18.928Z</time>
      </trkpt>
      <trkpt lat="39.22879333" lon="-8.684215">
        <ele>70.0</ele>
        <time>2019-05-16T17:48:19.927Z</time>
      </trkpt>
      <trkpt lat="39.22881333" lon="-8.68427">
        <ele>70.0</ele>
        <time>2019-05-16T17:48:20.904Z</time>
      </trkpt>
      <trkpt lat="39.22881333" lon="-8.68427">
        <ele>70.0</ele>
        <time>2019-05-16T17:48:21.902Z</time>
      </trkpt>
      <trkpt lat="39.22884167" lon="-8.68432">
        <ele>71.0</ele>
        <time>2019-05-16T17:48:22.927Z</time>
      </trkpt>
      <trkpt lat="39.22884167" lon="-8.68432">
        <ele>71.0</ele>
        <time>2019-05-16T17:48:23.912Z</time>
      </trkpt>
      <trkpt lat="39.22885167" lon="-8.68438167">
        <ele>72.0</ele>
        <time>2019-05-16T17:48:24.912Z</time>
      </trkpt>
      <trkpt lat="39.22885167" lon="-8.68438167">
        <ele>72.0</ele>
        <time>2019-05-16T17:48:25.936Z</time>
      </trkpt>
      <trkpt lat="39.22886833" lon="-8.684425">
        <ele>73.0</ele>
        <time>2019-05-16T17:48:26.911Z</time>
      </trkpt>
      <trkpt lat="39.22886833" lon="-8.684425">
        <ele>73.0</ele>
        <time>2019-05-16T17:48:27.923Z</time>
      </trkpt>
      <trkpt lat="39.2289" lon="-8.68446333">
        <ele>73.0</ele>
        <time>2019-05-16T17:48:28.902Z</time>
      </trkpt>
      <trkpt lat="39.2289" lon="-8.68446333">
        <ele>73.0</ele>
        <time>2019-05-16T17:48:29.901Z</time>
      </trkpt>
      <trkpt lat="39.22892333" lon="-8.68450833">
        <ele>74.0</ele>
        <time>2019-05-16T17:48:30.922Z</time>
      </trkpt>
      <trkpt lat="39.22892333" lon="-8.68450833">
        <ele>74.0</ele>
        <time>2019-05-16T17:48:31.924Z</time>
      </trkpt>
      <trkpt lat="39.22894833" lon="-8.68455167">
        <ele>75.0</ele>
        <time>2019-05-16T17:48:32.911Z</time>
      </trkpt>
      <trkpt lat="39.22894833" lon="-8.68455167">
        <ele>75.0</ele>
        <time>2019-05-16T17:48:33.933Z</time>
      </trkpt>
      <trkpt lat="39.22896667" lon="-8.68459667">
        <ele>76.0</ele>
        <time>2019-05-16T17:48:34.911Z</time>
      </trkpt>
      <trkpt lat="39.22896667" lon="-8.68459667">
        <ele>76.0</ele>
        <time>2019-05-16T17:48:35.919Z</time>
      </trkpt>
      <trkpt lat="39.22899167" lon="-8.68464167">
        <ele>76.0</ele>
        <time>2019-05-16T17:48:36.933Z</time>
      </trkpt>
      <trkpt lat="39.22899833" lon="-8.68467">
        <ele>77.0</ele>
        <time>2019-05-16T17:48:37.902Z</time>
      </trkpt>
      <trkpt lat="39.22900667" lon="-8.68469833">
        <ele>78.0</ele>
        <time>2019-05-16T17:48:38.899Z</time>
      </trkpt>
      <trkpt lat="39.22900667" lon="-8.68469833">
        <ele>78.0</ele>
        <time>2019-05-16T17:48:39.908Z</time>
      </trkpt>
      <trkpt lat="39.22902667" lon="-8.684745">
        <ele>78.0</ele>
        <time>2019-05-16T17:48:40.935Z</time>
      </trkpt>
      <trkpt lat="39.22902667" lon="-8.684745">
        <ele>78.0</ele>
        <time>2019-05-16T17:48:41.925Z</time>
      </trkpt>
      <trkpt lat="39.229055" lon="-8.68479">
        <ele>79.0</ele>
        <time>2019-05-16T17:48:42.906Z</time>
      </trkpt>
      <trkpt lat="39.229055" lon="-8.68479">
        <ele>79.0</ele>
        <time>2019-05-16T17:48:43.932Z</time>
      </trkpt>
      <trkpt lat="39.22908" lon="-8.68483333">
        <ele>79.0</ele>
        <time>2019-05-16T17:48:44.914Z</time>
      </trkpt>
      <trkpt lat="39.22908" lon="-8.68483333">
        <ele>79.0</ele>
        <time>2019-05-16T17:48:45.913Z</time>
      </trkpt>
      <trkpt lat="39.22908833" lon="-8.68487">
        <ele>79.0</ele>
        <time>2019-05-16T17:48:46.931Z</time>
      </trkpt>
      <trkpt lat="39.22908833" lon="-8.68487">
        <ele>79.0</ele>
        <time>2019-05-16T17:48:47.900Z</time>
      </trkpt>
      <trkpt lat="39.22909333" lon="-8.684905">
        <ele>80.0</ele>
        <time>2019-05-16T17:48:48.928Z</time>
      </trkpt>
      <trkpt lat="39.22909333" lon="-8.684905">
        <ele>80.0</ele>
        <time>2019-05-16T17:48:49.913Z</time>
      </trkpt>
      <trkpt lat="39.22909167" lon="-8.68494333">
        <ele>80.0</ele>
        <time>2019-05-16T17:48:50.904Z</time>
      </trkpt>
      <trkpt lat="39.22909167" lon="-8.68494333">
        <ele>80.0</ele>
        <time>2019-05-16T17:48:51.935Z</time>
      </trkpt>
      <trkpt lat="39.22907333" lon="-8.684975">
        <ele>80.0</ele>
        <time>2019-05-16T17:48:52.911Z</time>
      </trkpt>
      <trkpt lat="39.22907333" lon="-8.684975">
        <ele>80.0</ele>
        <time>2019-05-16T17:48:53.904Z</time>
      </trkpt>
      <trkpt lat="39.229055" lon="-8.68499167">
        <ele>81.0</ele>
        <time>2019-05-16T17:48:54.901Z</time>
      </trkpt>
      <trkpt lat="39.229055" lon="-8.68499167">
        <ele>81.0</ele>
        <time>2019-05-16T17:48:55.926Z</time>
      </trkpt>
      <trkpt lat="39.22905" lon="-8.68499667">
        <ele>81.0</ele>
        <time>2019-05-16T17:48:56.932Z</time>
      </trkpt>
      <trkpt lat="39.22905" lon="-8.68499667">
        <ele>81.0</ele>
        <time>2019-05-16T17:48:57.910Z</time>
      </trkpt>
      <trkpt lat="39.22905167" lon="-8.68499667">
        <ele>81.0</ele>
        <time>2019-05-16T17:48:58.921Z</time>
      </trkpt>
      <trkpt lat="39.22905167" lon="-8.68499667">
        <ele>81.0</ele>
        <time>2019-05-16T17:48:59.928Z</time>
      </trkpt>
      <trkpt lat="39.22905167" lon="-8.68499667">
        <ele>81.0</ele>
        <time>2019-05-16T17:49:00.900Z</time>
      </trkpt>
      <trkpt lat="39.22905167" lon="-8.68499667">
        <ele>81.0</ele>
        <time>2019-05-16T17:49:01.908Z</time>
      </trkpt>
      <trkpt lat="39.22905167" lon="-8.68499667">
        <ele>81.0</ele>
        <time>2019-05-16T17:49:02.915Z</time>
      </trkpt>
      <trkpt lat="39.22905167" lon="-8.68499667">
        <ele>81.0</ele>
        <time>2019-05-16T17:49:03.909Z</time>
      </trkpt>
      <trkpt lat="39.22905167" lon="-8.68499667">
        <ele>81.0</ele>
        <time>2019-05-16T17:49:04.912Z</time>
      </trkpt>
      <trkpt lat="39.22905167" lon="-8.68499667">
        <ele>81.0</ele>
        <time>2019-05-16T17:49:05.926Z</time>
      </trkpt>
      <trkpt lat="39.22905167" lon="-8.68499667">
        <ele>81.0</ele>
        <time>2019-05-16T17:49:06.915Z</time>
      </trkpt>
      <trkpt lat="39.22905167" lon="-8.68499667">
        <ele>81.0</ele>
        <time>2019-05-16T17:49:07.908Z</time>
      </trkpt>
      <trkpt lat="39.22905167" lon="-8.68499667">
        <ele>81.0</ele>
        <time>2019-05-16T17:49:08.914Z</time>
      </trkpt>
      <trkpt lat="39.22905167" lon="-8.68499667">
        <ele>81.0</ele>
        <time>2019-05-16T17:49:09.915Z</time>
      </trkpt>
      <trkpt lat="39.22905167" lon="-8.68499667">
        <ele>81.0</ele>
        <time>2019-05-16T17:49:10.906Z</time>
      </trkpt>
      <trkpt lat="39.22905167" lon="-8.68499667">
        <ele>81.0</ele>
        <time>2019-05-16T17:49:11.912Z</time>
      </trkpt>
      <trkpt lat="39.22905167" lon="-8.68499667">
        <ele>81.0</ele>
        <time>2019-05-16T17:49:12.908Z</time>
      </trkpt>
      <trkpt lat="39.22905167" lon="-8.68499667">
        <ele>81.0</ele>
        <time>2019-05-16T17:49:13.912Z</time>
      </trkpt>
      <trkpt lat="39.22905167" lon="-8.68499667">
        <ele>81.0</ele>
        <time>2019-05-16T17:49:14.914Z</time>
      </trkpt>
      <trkpt lat="39.22905167" lon="-8.68499667">
        <ele>81.0</ele>
        <time>2019-05-16T17:49:15.910Z</time>
      </trkpt>
      <trkpt lat="39.22905167" lon="-8.68499667">
        <ele>81.0</ele>
        <time>2019-05-16T17:49:16.912Z</time>
      </trkpt>
      <trkpt lat="39.22905167" lon="-8.68499667">
        <ele>81.0</ele>
        <time>2019-05-16T17:49:17.907Z</time>
      </trkpt>
      <trkpt lat="39.22905167" lon="-8.68499667">
        <ele>81.0</ele>
        <time>2019-05-16T17:49:18.910Z</time>
      </trkpt>
      <trkpt lat="39.22905167" lon="-8.68499667">
        <ele>81.0</ele>
        <time>2019-05-16T17:49:19.907Z</time>
      </trkpt>
      <trkpt lat="39.22905167" lon="-8.68499667">
        <ele>81.0</ele>
        <time>2019-05-16T17:49:20.912Z</time>
      </trkpt>
      <trkpt lat="39.22905167" lon="-8.68499667">
        <ele>81.0</ele>
        <time>2019-05-16T17:49:21.928Z</time>
      </trkpt>
      <trkpt lat="39.22905167" lon="-8.68499667">
        <ele>81.0</ele>
        <time>2019-05-16T17:49:22.902Z</time>
      </trkpt>
      <trkpt lat="39.22905167" lon="-8.68499667">
        <ele>81.0</ele>
        <time>2019-05-16T17:49:23.902Z</time>
      </trkpt>
      <trkpt lat="39.22905167" lon="-8.68499667">
        <ele>81.0</ele>
        <time>2019-05-16T17:49:24.908Z</time>
      </trkpt>
      <trkpt lat="39.22905167" lon="-8.68499667">
        <ele>81.0</ele>
        <time>2019-05-16T17:49:25.913Z</time>
      </trkpt>
      <trkpt lat="39.22905167" lon="-8.68499667">
        <ele>81.0</ele>
        <time>2019-05-16T17:49:26.915Z</time>
      </trkpt>
      <trkpt lat="39.22905167" lon="-8.68499667">
        <ele>81.0</ele>
        <time>2019-05-16T17:49:27.911Z</time>
      </trkpt>
      <trkpt lat="39.22905167" lon="-8.68499667">
        <ele>81.0</ele>
        <time>2019-05-16T17:49:28.908Z</time>
      </trkpt>
      <trkpt lat="39.22905167" lon="-8.68499667">
        <ele>81.0</ele>
        <time>2019-05-16T17:49:29.912Z</time>
      </trkpt>
      <trkpt lat="39.22905167" lon="-8.68499667">
        <ele>81.0</ele>
        <time>2019-05-16T17:49:30.902Z</time>
      </trkpt>
      <trkpt lat="39.22905167" lon="-8.68499667">
        <ele>81.0</ele>
        <time>2019-05-16T17:49:31.932Z</time>
      </trkpt>
      <trkpt lat="39.22905167" lon="-8.68499667">
        <ele>81.0</ele>
        <time>2019-05-16T17:49:32.919Z</time>
      </trkpt>
      <trkpt lat="39.22905167" lon="-8.68499667">
        <ele>81.0</ele>
        <time>2019-05-16T17:49:33.908Z</time>
      </trkpt>
      <trkpt lat="39.22905167" lon="-8.68499667">
        <ele>81.0</ele>
        <time>2019-05-16T17:49:34.912Z</time>
      </trkpt>
      <trkpt lat="39.22905167" lon="-8.68499667">
        <ele>81.0</ele>
        <time>2019-05-16T17:49:35.908Z</time>
      </trkpt>
      <trkpt lat="39.22905167" lon="-8.68499667">
        <ele>81.0</ele>
        <time>2019-05-16T17:49:36.910Z</time>
      </trkpt>
      <trkpt lat="39.22905167" lon="-8.68499667">
        <ele>81.0</ele>
        <time>2019-05-16T17:49:37.908Z</time>
      </trkpt>
      <trkpt lat="39.22905167" lon="-8.68499667">
        <ele>81.0</ele>
        <time>2019-05-16T17:49:38.915Z</time>
      </trkpt>
      <trkpt lat="39.22905167" lon="-8.68499667">
        <ele>81.0</ele>
        <time>2019-05-16T17:49:39.908Z</time>
      </trkpt>
      <trkpt lat="39.22905167" lon="-8.68499667">
        <ele>81.0</ele>
        <time>2019-05-16T17:49:40.917Z</time>
      </trkpt>
      <trkpt lat="39.22905167" lon="-8.68499667">
        <ele>81.0</ele>
        <time>2019-05-16T17:49:41.913Z</time>
      </trkpt>
      <trkpt lat="39.22905167" lon="-8.68499667">
        <ele>81.0</ele>
        <time>2019-05-16T17:49:42.908Z</time>
      </trkpt>
      <trkpt lat="39.22905167" lon="-8.68499667">
        <ele>81.0</ele>
        <time>2019-05-16T17:49:43.912Z</time>
      </trkpt>
      <trkpt lat="39.22905167" lon="-8.68499667">
        <ele>81.0</ele>
        <time>2019-05-16T17:49:44.913Z</time>
      </trkpt>
      <trkpt lat="39.22905167" lon="-8.68499667">
        <ele>81.0</ele>
        <time>2019-05-16T17:49:45.908Z</time>
      </trkpt>
      <trkpt lat="39.22905167" lon="-8.68499667">
        <ele>81.0</ele>
        <time>2019-05-16T17:49:46.912Z</time>
      </trkpt>
      <trkpt lat="39.22905167" lon="-8.68499667">
        <ele>81.0</ele>
        <time>2019-05-16T17:49:47.908Z</time>
      </trkpt>
      <trkpt lat="39.22905167" lon="-8.68499667">
        <ele>81.0</ele>
        <time>2019-05-16T17:49:48.916Z</time>
      </trkpt>
      <trkpt lat="39.22905167" lon="-8.68499667">
        <ele>81.0</ele>
        <time>2019-05-16T17:49:49.914Z</time>
      </trkpt>
      <trkpt lat="39.22905167" lon="-8.68499667">
        <ele>81.0</ele>
        <time>2019-05-16T17:49:50.914Z</time>
      </trkpt>
      <trkpt lat="39.22905167" lon="-8.68499667">
        <ele>81.0</ele>
        <time>2019-05-16T17:49:51.907Z</time>
      </trkpt>
      <trkpt lat="39.22905167" lon="-8.68499667">
        <ele>81.0</ele>
        <time>2019-05-16T17:49:52.913Z</time>
      </trkpt>
      <trkpt lat="39.22905167" lon="-8.68499667">
        <ele>81.0</ele>
        <time>2019-05-16T17:49:53.907Z</time>
      </trkpt>
      <trkpt lat="39.22905167" lon="-8.68499667">
        <ele>81.0</ele>
        <time>2019-05-16T17:49:54.912Z</time>
      </trkpt>
      <trkpt lat="39.22905167" lon="-8.68499667">
        <ele>81.0</ele>
        <time>2019-05-16T17:49:55.907Z</time>
      </trkpt>
      <trkpt lat="39.22905167" lon="-8.68499667">
        <ele>81.0</ele>
        <time>2019-05-16T17:49:56.912Z</time>
      </trkpt>
      <trkpt lat="39.22905167" lon="-8.68499667">
        <ele>81.0</ele>
        <time>2019-05-16T17:49:57.907Z</time>
      </trkpt>
      <trkpt lat="39.22905167" lon="-8.68499667">
        <ele>81.0</ele>
        <time>2019-05-16T17:49:58.913Z</time>
      </trkpt>
      <trkpt lat="39.22905167" lon="-8.68499667">
        <ele>81.0</ele>
        <time>2019-05-16T17:49:59.907Z</time>
      </trkpt>
      <trkpt lat="39.22905167" lon="-8.68499667">
        <ele>81.0</ele>
        <time>2019-05-16T17:50:00.912Z</time>
      </trkpt>
      <trkpt lat="39.22905167" lon="-8.68499667">
        <ele>81.0</ele>
        <time>2019-05-16T17:50:01.909Z</time>
      </trkpt>
      <trkpt lat="39.22905167" lon="-8.68499667">
        <ele>81.0</ele>
        <time>2019-05-16T17:50:02.928Z</time>
      </trkpt>
      <trkpt lat="39.22905167" lon="-8.68499667">
        <ele>81.0</ele>
        <time>2019-05-16T17:50:03.927Z</time>
      </trkpt>
      <trkpt lat="39.22905167" lon="-8.68499667">
        <ele>81.0</ele>
        <time>2019-05-16T17:50:04.914Z</time>
      </trkpt>
      <trkpt lat="39.22905167" lon="-8.68499667">
        <ele>81.0</ele>
        <time>2019-05-16T17:50:05.911Z</time>
      </trkpt>
      <trkpt lat="39.22905167" lon="-8.68499667">
        <ele>81.0</ele>
        <time>2019-05-16T17:50:06.912Z</time>
      </trkpt>
      <trkpt lat="39.22905167" lon="-8.68499667">
        <ele>81.0</ele>
        <time>2019-05-16T17:50:07.907Z</time>
      </trkpt>
      <trkpt lat="39.22905167" lon="-8.68499667">
        <ele>81.0</ele>
        <time>2019-05-16T17:50:08.915Z</time>
      </trkpt>
      <trkpt lat="39.22905167" lon="-8.68499667">
        <ele>81.0</ele>
        <time>2019-05-16T17:50:09.913Z</time>
      </trkpt>
      <trkpt lat="39.22905167" lon="-8.68499667">
        <ele>81.0</ele>
        <time>2019-05-16T17:50:10.911Z</time>
      </trkpt>
      <trkpt lat="39.22905167" lon="-8.68499667">
        <ele>81.0</ele>
        <time>2019-05-16T17:50:11.907Z</time>
      </trkpt>
      <trkpt lat="39.22905167" lon="-8.68499667">
        <ele>81.0</ele>
        <time>2019-05-16T17:50:12.910Z</time>
      </trkpt>
      <trkpt lat="39.22905167" lon="-8.68499667">
        <ele>81.0</ele>
        <time>2019-05-16T17:50:13.907Z</time>
      </trkpt>
      <trkpt lat="39.22905167" lon="-8.68499667">
        <ele>81.0</ele>
        <time>2019-05-16T17:50:14.914Z</time>
      </trkpt>
      <trkpt lat="39.22905167" lon="-8.68499667">
        <ele>81.0</ele>
        <time>2019-05-16T17:50:15.907Z</time>
      </trkpt>
      <trkpt lat="39.22905167" lon="-8.68499667">
        <ele>81.0</ele>
        <time>2019-05-16T17:50:16.911Z</time>
      </trkpt>
      <trkpt lat="39.22905167" lon="-8.68499667">
        <ele>81.0</ele>
        <time>2019-05-16T17:50:17.908Z</time>
      </trkpt>
      <trkpt lat="39.22905167" lon="-8.68499667">
        <ele>81.0</ele>
        <time>2019-05-16T17:50:18.912Z</time>
      </trkpt>
      <trkpt lat="39.22905167" lon="-8.68499667">
        <ele>81.0</ele>
        <time>2019-05-16T17:50:19.907Z</time>
      </trkpt>
      <trkpt lat="39.22905167" lon="-8.68499667">
        <ele>81.0</ele>
        <time>2019-05-16T17:50:20.931Z</time>
      </trkpt>
      <trkpt lat="39.22905167" lon="-8.68499667">
        <ele>81.0</ele>
        <time>2019-05-16T17:50:21.918Z</time>
      </trkpt>
      <trkpt lat="39.22905167" lon="-8.68499667">
        <ele>81.0</ele>
        <time>2019-05-16T17:50:22.925Z</time>
      </trkpt>
      <trkpt lat="39.22905167" lon="-8.68499667">
        <ele>81.0</ele>
        <time>2019-05-16T17:50:23.915Z</time>
      </trkpt>
      <trkpt lat="39.22905167" lon="-8.68499667">
        <ele>81.0</ele>
        <time>2019-05-16T17:50:24.908Z</time>
      </trkpt>
      <trkpt lat="39.22905167" lon="-8.68499667">
        <ele>81.0</ele>
        <time>2019-05-16T17:50:25.913Z</time>
      </trkpt>
      <trkpt lat="39.22905167" lon="-8.68499667">
        <ele>81.0</ele>
        <time>2019-05-16T17:50:26.915Z</time>
      </trkpt>
      <trkpt lat="39.22905167" lon="-8.68499667">
        <ele>81.0</ele>
        <time>2019-05-16T17:50:27.917Z</time>
      </trkpt>
      <trkpt lat="39.22905167" lon="-8.68499667">
        <ele>81.0</ele>
        <time>2019-05-16T17:50:28.912Z</time>
      </trkpt>
      <trkpt lat="39.22905167" lon="-8.68499667">
        <ele>81.0</ele>
        <time>2019-05-16T17:50:29.908Z</time>
      </trkpt>
      <trkpt lat="39.22905167" lon="-8.68499667">
        <ele>81.0</ele>
        <time>2019-05-16T17:50:30.910Z</time>
      </trkpt>
      <trkpt lat="39.22905167" lon="-8.68499667">
        <ele>81.0</ele>
        <time>2019-05-16T17:50:31.910Z</time>
      </trkpt>
      <trkpt lat="39.22905167" lon="-8.68499667">
        <ele>81.0</ele>
        <time>2019-05-16T17:50:32.915Z</time>
      </trkpt>
      <trkpt lat="39.22905167" lon="-8.68499667">
        <ele>81.0</ele>
        <time>2019-05-16T17:50:33.908Z</time>
      </trkpt>
      <trkpt lat="39.22905167" lon="-8.68499667">
        <ele>81.0</ele>
        <time>2019-05-16T17:50:34.914Z</time>
      </trkpt>
      <trkpt lat="39.22905167" lon="-8.68499667">
        <ele>81.0</ele>
        <time>2019-05-16T17:50:35.909Z</time>
      </trkpt>
      <trkpt lat="39.22905167" lon="-8.68499667">
        <ele>81.0</ele>
        <time>2019-05-16T17:50:36.912Z</time>
      </trkpt>
      <trkpt lat="39.22905167" lon="-8.68499667">
        <ele>81.0</ele>
        <time>2019-05-16T17:50:37.908Z</time>
      </trkpt>
      <trkpt lat="39.22905167" lon="-8.68499667">
        <ele>81.0</ele>
        <time>2019-05-16T17:50:38.915Z</time>
      </trkpt>
      <trkpt lat="39.22905167" lon="-8.68499667">
        <ele>81.0</ele>
        <time>2019-05-16T17:50:39.907Z</time>
      </trkpt>
      <trkpt lat="39.22905167" lon="-8.68499667">
        <ele>81.0</ele>
        <time>2019-05-16T17:50:40.912Z</time>
      </trkpt>
      <trkpt lat="39.22905167" lon="-8.68499667">
        <ele>81.0</ele>
        <time>2019-05-16T17:50:41.908Z</time>
      </trkpt>
      <trkpt lat="39.22905167" lon="-8.68499667">
        <ele>81.0</ele>
        <time>2019-05-16T17:50:42.912Z</time>
      </trkpt>
      <trkpt lat="39.22905167" lon="-8.68499667">
        <ele>81.0</ele>
        <time>2019-05-16T17:50:43.913Z</time>
      </trkpt>
      <trkpt lat="39.22905167" lon="-8.68499667">
        <ele>81.0</ele>
        <time>2019-05-16T17:50:44.908Z</time>
      </trkpt>
      <trkpt lat="39.22905167" lon="-8.68499667">
        <ele>81.0</ele>
        <time>2019-05-16T17:50:45.912Z</time>
      </trkpt>
      <trkpt lat="39.22905167" lon="-8.68499667">
        <ele>81.0</ele>
        <time>2019-05-16T17:50:46.910Z</time>
      </trkpt>
      <trkpt lat="39.22905167" lon="-8.68499667">
        <ele>81.0</ele>
        <time>2019-05-16T17:50:47.912Z</time>
      </trkpt>
      <trkpt lat="39.22905167" lon="-8.68499667">
        <ele>81.0</ele>
        <time>2019-05-16T17:50:48.908Z</time>
      </trkpt>
      <trkpt lat="39.22905167" lon="-8.68499667">
        <ele>81.0</ele>
        <time>2019-05-16T17:50:49.922Z</time>
      </trkpt>
      <trkpt lat="39.22905167" lon="-8.68499667">
        <ele>81.0</ele>
        <time>2019-05-16T17:50:50.916Z</time>
      </trkpt>
      <trkpt lat="39.22905167" lon="-8.68499667">
        <ele>81.0</ele>
        <time>2019-05-16T17:50:51.910Z</time>
      </trkpt>
      <trkpt lat="39.22905167" lon="-8.68499667">
        <ele>81.0</ele>
        <time>2019-05-16T17:50:52.912Z</time>
      </trkpt>
      <trkpt lat="39.22905167" lon="-8.68499667">
        <ele>81.0</ele>
        <time>2019-05-16T17:50:53.907Z</time>
      </trkpt>
      <trkpt lat="39.22905167" lon="-8.68499667">
        <ele>81.0</ele>
        <time>2019-05-16T17:50:54.910Z</time>
      </trkpt>
      <trkpt lat="39.22905167" lon="-8.68499667">
        <ele>81.0</ele>
        <time>2019-05-16T17:50:55.913Z</time>
      </trkpt>
      <trkpt lat="39.22905167" lon="-8.68499667">
        <ele>81.0</ele>
        <time>2019-05-16T17:50:56.910Z</time>
      </trkpt>
      <trkpt lat="39.22905167" lon="-8.68499667">
        <ele>81.0</ele>
        <time>2019-05-16T17:50:57.912Z</time>
      </trkpt>
      <trkpt lat="39.22905167" lon="-8.68499667">
        <ele>81.0</ele>
        <time>2019-05-16T17:50:58.912Z</time>
      </trkpt>
      <trkpt lat="39.22905167" lon="-8.68499667">
        <ele>81.0</ele>
        <time>2019-05-16T17:50:59.908Z</time>
      </trkpt>
      <trkpt lat="39.22905167" lon="-8.68499667">
        <ele>81.0</ele>
        <time>2019-05-16T17:51:00.909Z</time>
      </trkpt>
      <trkpt lat="39.22905167" lon="-8.68499667">
        <ele>81.0</ele>
        <time>2019-05-16T17:51:01.913Z</time>
      </trkpt>
      <trkpt lat="39.22905167" lon="-8.68499667">
        <ele>81.0</ele>
        <time>2019-05-16T17:51:02.919Z</time>
      </trkpt>
      <trkpt lat="39.22905167" lon="-8.68499667">
        <ele>81.0</ele>
        <time>2019-05-16T17:51:03.909Z</time>
      </trkpt>
      <trkpt lat="39.22905167" lon="-8.68499667">
        <ele>81.0</ele>
        <time>2019-05-16T17:51:04.925Z</time>
      </trkpt>
      <trkpt lat="39.22905167" lon="-8.68499667">
        <ele>81.0</ele>
        <time>2019-05-16T17:51:05.911Z</time>
      </trkpt>
      <trkpt lat="39.22905167" lon="-8.68499667">
        <ele>81.0</ele>
        <time>2019-05-16T17:51:06.923Z</time>
      </trkpt>
      <trkpt lat="39.22905167" lon="-8.68499667">
        <ele>81.0</ele>
        <time>2019-05-16T17:51:07.910Z</time>
      </trkpt>
      <trkpt lat="39.229005" lon="-8.68497833">
        <ele>83.0</ele>
        <time>2019-05-16T17:51:08.914Z</time>
      </trkpt>
      <trkpt lat="39.229005" lon="-8.68497833">
        <ele>83.0</ele>
        <time>2019-05-16T17:51:09.908Z</time>
      </trkpt>
      <trkpt lat="39.22898" lon="-8.68499">
        <ele>83.0</ele>
        <time>2019-05-16T17:51:10.912Z</time>
      </trkpt>
      <trkpt lat="39.22897167" lon="-8.685005">
        <ele>83.0</ele>
        <time>2019-05-16T17:51:11.910Z</time>
      </trkpt>
      <trkpt lat="39.22897167" lon="-8.685005">
        <ele>83.0</ele>
        <time>2019-05-16T17:51:12.908Z</time>
      </trkpt>
      <trkpt lat="39.22896167" lon="-8.68503">
        <ele>83.0</ele>
        <time>2019-05-16T17:51:13.906Z</time>
      </trkpt>
      <trkpt lat="39.22895667" lon="-8.68504167">
        <ele>83.0</ele>
        <time>2019-05-16T17:51:14.912Z</time>
      </trkpt>
      <trkpt lat="39.22895667" lon="-8.68504167">
        <ele>83.0</ele>
        <time>2019-05-16T17:51:15.911Z</time>
      </trkpt>
      <trkpt lat="39.22895167" lon="-8.68505833">
        <ele>83.0</ele>
        <time>2019-05-16T17:51:16.941Z</time>
      </trkpt>
      <trkpt lat="39.228945" lon="-8.68506833">
        <ele>83.0</ele>
        <time>2019-05-16T17:51:17.905Z</time>
      </trkpt>
      <trkpt lat="39.228945" lon="-8.68506833">
        <ele>83.0</ele>
        <time>2019-05-16T17:51:18.929Z</time>
      </trkpt>
      <trkpt lat="39.22893167" lon="-8.685095">
        <ele>84.0</ele>
        <time>2019-05-16T17:51:19.917Z</time>
      </trkpt>
      <trkpt lat="39.228925" lon="-8.68511333">
        <ele>84.0</ele>
        <time>2019-05-16T17:51:20.920Z</time>
      </trkpt>
      <trkpt lat="39.228925" lon="-8.68511333">
        <ele>84.0</ele>
        <time>2019-05-16T17:51:21.930Z</time>
      </trkpt>
      <trkpt lat="39.22891167" lon="-8.685145">
        <ele>84.0</ele>
        <time>2019-05-16T17:51:22.911Z</time>
      </trkpt>
      <trkpt lat="39.22891167" lon="-8.685145">
        <ele>84.0</ele>
        <time>2019-05-16T17:51:23.909Z</time>
      </trkpt>
      <trkpt lat="39.22889833" lon="-8.68518">
        <ele>84.0</ele>
        <time>2019-05-16T17:51:24.932Z</time>
      </trkpt>
      <trkpt lat="39.22889833" lon="-8.68518">
        <ele>84.0</ele>
        <time>2019-05-16T17:51:25.905Z</time>
      </trkpt>
      <trkpt lat="39.22888" lon="-8.68520833">
        <ele>84.0</ele>
        <time>2019-05-16T17:51:26.927Z</time>
      </trkpt>
      <trkpt lat="39.22888" lon="-8.68520833">
        <ele>84.0</ele>
        <time>2019-05-16T17:51:27.923Z</time>
      </trkpt>
      <trkpt lat="39.22886167" lon="-8.68523833">
        <ele>84.0</ele>
        <time>2019-05-16T17:51:28.897Z</time>
      </trkpt>
      <trkpt lat="39.22885333" lon="-8.68524833">
        <ele>85.0</ele>
        <time>2019-05-16T17:51:29.920Z</time>
      </trkpt>
      <trkpt lat="39.22885333" lon="-8.68524833">
        <ele>85.0</ele>
        <time>2019-05-16T17:51:30.905Z</time>
      </trkpt>
      <trkpt lat="39.228825" lon="-8.685265">
        <ele>85.0</ele>
        <time>2019-05-16T17:51:31.916Z</time>
      </trkpt>
      <trkpt lat="39.22881333" lon="-8.68528">
        <ele>85.0</ele>
        <time>2019-05-16T17:51:32.911Z</time>
      </trkpt>
      <trkpt lat="39.22881333" lon="-8.68528">
        <ele>85.0</ele>
        <time>2019-05-16T17:51:33.927Z</time>
      </trkpt>
      <trkpt lat="39.22879333" lon="-8.68530333">
        <ele>85.0</ele>
        <time>2019-05-16T17:51:34.906Z</time>
      </trkpt>
      <trkpt lat="39.22879333" lon="-8.68530333">
        <ele>85.0</ele>
        <time>2019-05-16T17:51:35.927Z</time>
      </trkpt>
      <trkpt lat="39.22878667" lon="-8.685335">
        <ele>85.0</ele>
        <time>2019-05-16T17:51:36.933Z</time>
      </trkpt>
      <trkpt lat="39.22878667" lon="-8.685335">
        <ele>85.0</ele>
        <time>2019-05-16T17:51:37.928Z</time>
      </trkpt>
      <trkpt lat="39.22877833" lon="-8.68536833">
        <ele>85.0</ele>
        <time>2019-05-16T17:51:38.913Z</time>
      </trkpt>
      <trkpt lat="39.22877833" lon="-8.68536833">
        <ele>85.0</ele>
        <time>2019-05-16T17:51:39.902Z</time>
      </trkpt>
      <trkpt lat="39.22876" lon="-8.68539667">
        <ele>86.0</ele>
        <time>2019-05-16T17:51:40.901Z</time>
      </trkpt>
      <trkpt lat="39.22876" lon="-8.68539667">
        <ele>86.0</ele>
        <time>2019-05-16T17:51:41.921Z</time>
      </trkpt>
      <trkpt lat="39.22875" lon="-8.68544">
        <ele>86.0</ele>
        <time>2019-05-16T17:51:42.934Z</time>
      </trkpt>
      <trkpt lat="39.22875" lon="-8.68544">
        <ele>86.0</ele>
        <time>2019-05-16T17:51:43.914Z</time>
      </trkpt>
      <trkpt lat="39.22873167" lon="-8.685465">
        <ele>87.0</ele>
        <time>2019-05-16T17:51:44.921Z</time>
      </trkpt>
      <trkpt lat="39.22873167" lon="-8.685465">
        <ele>87.0</ele>
        <time>2019-05-16T17:51:45.922Z</time>
      </trkpt>
      <trkpt lat="39.228725" lon="-8.685495">
        <ele>87.0</ele>
        <time>2019-05-16T17:51:46.901Z</time>
      </trkpt>
      <trkpt lat="39.228725" lon="-8.685495">
        <ele>87.0</ele>
        <time>2019-05-16T17:51:47.936Z</time>
      </trkpt>
      <trkpt lat="39.22872" lon="-8.68552667">
        <ele>87.0</ele>
        <time>2019-05-16T17:51:48.920Z</time>
      </trkpt>
      <trkpt lat="39.22870833" lon="-8.685545">
        <ele>87.0</ele>
        <time>2019-05-16T17:51:49.907Z</time>
      </trkpt>
      <trkpt lat="39.22869833" lon="-8.68555833">
        <ele>87.0</ele>
        <time>2019-05-16T17:51:50.918Z</time>
      </trkpt>
      <trkpt lat="39.22869833" lon="-8.68555833">
        <ele>87.0</ele>
        <time>2019-05-16T17:51:51.924Z</time>
      </trkpt>
      <trkpt lat="39.22868" lon="-8.68559">
        <ele>88.0</ele>
        <time>2019-05-16T17:51:52.903Z</time>
      </trkpt>
      <trkpt lat="39.22868" lon="-8.68559">
        <ele>88.0</ele>
        <time>2019-05-16T17:51:53.924Z</time>
      </trkpt>
      <trkpt lat="39.22866" lon="-8.68563">
        <ele>88.0</ele>
        <time>2019-05-16T17:51:54.933Z</time>
      </trkpt>
      <trkpt lat="39.22865" lon="-8.68564833">
        <ele>88.0</ele>
        <time>2019-05-16T17:51:55.916Z</time>
      </trkpt>
      <trkpt lat="39.22865" lon="-8.68564833">
        <ele>88.0</ele>
        <time>2019-05-16T17:51:56.897Z</time>
      </trkpt>
      <trkpt lat="39.22863" lon="-8.68568833">
        <ele>89.0</ele>
        <time>2019-05-16T17:51:57.919Z</time>
      </trkpt>
      <trkpt lat="39.22863" lon="-8.68568833">
        <ele>89.0</ele>
        <time>2019-05-16T17:51:58.901Z</time>
      </trkpt>
      <trkpt lat="39.22860667" lon="-8.68570667">
        <ele>89.0</ele>
        <time>2019-05-16T17:51:59.928Z</time>
      </trkpt>
      <trkpt lat="39.22860667" lon="-8.68570667">
        <ele>89.0</ele>
        <time>2019-05-16T17:52:00.906Z</time>
      </trkpt>
      <trkpt lat="39.22858" lon="-8.68574667">
        <ele>90.0</ele>
        <time>2019-05-16T17:52:01.926Z</time>
      </trkpt>
      <trkpt lat="39.22857" lon="-8.685765">
        <ele>90.0</ele>
        <time>2019-05-16T17:52:02.907Z</time>
      </trkpt>
      <trkpt lat="39.22857" lon="-8.685765">
        <ele>90.0</ele>
        <time>2019-05-16T17:52:03.936Z</time>
      </trkpt>
      <trkpt lat="39.22854667" lon="-8.68580167">
        <ele>91.0</ele>
        <time>2019-05-16T17:52:04.911Z</time>
      </trkpt>
      <trkpt lat="39.22854667" lon="-8.68580167">
        <ele>91.0</ele>
        <time>2019-05-16T17:52:05.926Z</time>
      </trkpt>
      <trkpt lat="39.228535" lon="-8.68584">
        <ele>91.0</ele>
        <time>2019-05-16T17:52:06.932Z</time>
      </trkpt>
      <trkpt lat="39.228535" lon="-8.68584">
        <ele>91.0</ele>
        <time>2019-05-16T17:52:07.897Z</time>
      </trkpt>
      <trkpt lat="39.228515" lon="-8.68588">
        <ele>91.0</ele>
        <time>2019-05-16T17:52:08.917Z</time>
      </trkpt>
      <trkpt lat="39.228515" lon="-8.68588">
        <ele>91.0</ele>
        <time>2019-05-16T17:52:09.901Z</time>
      </trkpt>
      <trkpt lat="39.22849833" lon="-8.68592167">
        <ele>92.0</ele>
        <time>2019-05-16T17:52:10.930Z</time>
      </trkpt>
      <trkpt lat="39.22849833" lon="-8.68592167">
        <ele>92.0</ele>
        <time>2019-05-16T17:52:11.913Z</time>
      </trkpt>
      <trkpt lat="39.22847833" lon="-8.68596667">
        <ele>93.0</ele>
        <time>2019-05-16T17:52:12.912Z</time>
      </trkpt>
      <trkpt lat="39.22847833" lon="-8.68596667">
        <ele>93.0</ele>
        <time>2019-05-16T17:52:13.913Z</time>
      </trkpt>
      <trkpt lat="39.22845" lon="-8.68601">
        <ele>93.0</ele>
        <time>2019-05-16T17:52:14.927Z</time>
      </trkpt>
      <trkpt lat="39.22845" lon="-8.68601">
        <ele>93.0</ele>
        <time>2019-05-16T17:52:15.903Z</time>
      </trkpt>
      <trkpt lat="39.22842833" lon="-8.68604833">
        <ele>93.0</ele>
        <time>2019-05-16T17:52:16.935Z</time>
      </trkpt>
      <trkpt lat="39.22842833" lon="-8.68604833">
        <ele>93.0</ele>
        <time>2019-05-16T17:52:17.914Z</time>
      </trkpt>
      <trkpt lat="39.22840833" lon="-8.68609">
        <ele>94.0</ele>
        <time>2019-05-16T17:52:18.919Z</time>
      </trkpt>
      <trkpt lat="39.22840833" lon="-8.68609">
        <ele>94.0</ele>
        <time>2019-05-16T17:52:19.916Z</time>
      </trkpt>
      <trkpt lat="39.22839333" lon="-8.68612">
        <ele>94.0</ele>
        <time>2019-05-16T17:52:20.927Z</time>
      </trkpt>
      <trkpt lat="39.22839333" lon="-8.68612">
        <ele>94.0</ele>
        <time>2019-05-16T17:52:21.912Z</time>
      </trkpt>
      <trkpt lat="39.22837167" lon="-8.68614667">
        <ele>94.0</ele>
        <time>2019-05-16T17:52:22.924Z</time>
      </trkpt>
      <trkpt lat="39.22837167" lon="-8.68614667">
        <ele>94.0</ele>
        <time>2019-05-16T17:52:23.899Z</time>
      </trkpt>
      <trkpt lat="39.22835333" lon="-8.68617">
        <ele>94.0</ele>
        <time>2019-05-16T17:52:24.901Z</time>
      </trkpt>
      <trkpt lat="39.22835333" lon="-8.68617">
        <ele>94.0</ele>
        <time>2019-05-16T17:52:25.916Z</time>
      </trkpt>
      <trkpt lat="39.22834167" lon="-8.686205">
        <ele>95.0</ele>
        <time>2019-05-16T17:52:26.906Z</time>
      </trkpt>
      <trkpt lat="39.22834167" lon="-8.686205">
        <ele>95.0</ele>
        <time>2019-05-16T17:52:27.925Z</time>
      </trkpt>
      <trkpt lat="39.22831833" lon="-8.68624667">
        <ele>95.0</ele>
        <time>2019-05-16T17:52:28.931Z</time>
      </trkpt>
      <trkpt lat="39.22831833" lon="-8.68624667">
        <ele>95.0</ele>
        <time>2019-05-16T17:52:29.913Z</time>
      </trkpt>
      <trkpt lat="39.228305" lon="-8.68628167">
        <ele>95.0</ele>
        <time>2019-05-16T17:52:30.922Z</time>
      </trkpt>
      <trkpt lat="39.228305" lon="-8.68628167">
        <ele>95.0</ele>
        <time>2019-05-16T17:52:31.898Z</time>
      </trkpt>
      <trkpt lat="39.22829" lon="-8.686315">
        <ele>96.0</ele>
        <time>2019-05-16T17:52:32.908Z</time>
      </trkpt>
      <trkpt lat="39.22829" lon="-8.686315">
        <ele>96.0</ele>
        <time>2019-05-16T17:52:33.930Z</time>
      </trkpt>
      <trkpt lat="39.22827" lon="-8.68635167">
        <ele>96.0</ele>
        <time>2019-05-16T17:52:34.923Z</time>
      </trkpt>
      <trkpt lat="39.22827" lon="-8.68635167">
        <ele>96.0</ele>
        <time>2019-05-16T17:52:35.906Z</time>
      </trkpt>
      <trkpt lat="39.22824167" lon="-8.686385">
        <ele>97.0</ele>
        <time>2019-05-16T17:52:36.917Z</time>
      </trkpt>
      <trkpt lat="39.22824167" lon="-8.686385">
        <ele>97.0</ele>
        <time>2019-05-16T17:52:37.913Z</time>
      </trkpt>
      <trkpt lat="39.22821333" lon="-8.686415">
        <ele>98.0</ele>
        <time>2019-05-16T17:52:38.932Z</time>
      </trkpt>
      <trkpt lat="39.22821333" lon="-8.686415">
        <ele>98.0</ele>
        <time>2019-05-16T17:52:39.911Z</time>
      </trkpt>
      <trkpt lat="39.22818833" lon="-8.68644167">
        <ele>99.0</ele>
        <time>2019-05-16T17:52:40.923Z</time>
      </trkpt>
      <trkpt lat="39.22818833" lon="-8.68644167">
        <ele>99.0</ele>
        <time>2019-05-16T17:52:41.914Z</time>
      </trkpt>
      <trkpt lat="39.22816333" lon="-8.68647333">
        <ele>100.0</ele>
        <time>2019-05-16T17:52:42.925Z</time>
      </trkpt>
      <trkpt lat="39.22816333" lon="-8.68647333">
        <ele>100.0</ele>
        <time>2019-05-16T17:52:43.906Z</time>
      </trkpt>
      <trkpt lat="39.22813667" lon="-8.68652333">
        <ele>101.0</ele>
        <time>2019-05-16T17:52:44.915Z</time>
      </trkpt>
      <trkpt lat="39.22813667" lon="-8.68652333">
        <ele>101.0</ele>
        <time>2019-05-16T17:52:45.926Z</time>
      </trkpt>
      <trkpt lat="39.22811333" lon="-8.68656167">
        <ele>102.0</ele>
        <time>2019-05-16T17:52:46.932Z</time>
      </trkpt>
      <trkpt lat="39.22811333" lon="-8.68656167">
        <ele>102.0</ele>
        <time>2019-05-16T17:52:47.923Z</time>
      </trkpt>
      <trkpt lat="39.22809667" lon="-8.686605">
        <ele>102.0</ele>
        <time>2019-05-16T17:52:48.923Z</time>
      </trkpt>
      <trkpt lat="39.22809667" lon="-8.686605">
        <ele>102.0</ele>
        <time>2019-05-16T17:52:49.929Z</time>
      </trkpt>
      <trkpt lat="39.22809667" lon="-8.68661333">
        <ele>103.0</ele>
        <time>2019-05-16T17:52:50.932Z</time>
      </trkpt>
      <trkpt lat="39.22809667" lon="-8.68661333">
        <ele>103.0</ele>
        <time>2019-05-16T17:52:51.906Z</time>
      </trkpt>
      <trkpt lat="39.22809667" lon="-8.68661167">
        <ele>103.0</ele>
        <time>2019-05-16T17:52:52.908Z</time>
      </trkpt>
      <trkpt lat="39.22809667" lon="-8.68661167">
        <ele>103.0</ele>
        <time>2019-05-16T17:52:53.908Z</time>
      </trkpt>
      <trkpt lat="39.22809667" lon="-8.68661167">
        <ele>103.0</ele>
        <time>2019-05-16T17:52:54.914Z</time>
      </trkpt>
      <trkpt lat="39.22809667" lon="-8.68661167">
        <ele>103.0</ele>
        <time>2019-05-16T17:52:55.927Z</time>
      </trkpt>
      <trkpt lat="39.22809667" lon="-8.68661167">
        <ele>103.0</ele>
        <time>2019-05-16T17:52:56.915Z</time>
      </trkpt>
      <trkpt lat="39.22809667" lon="-8.68661167">
        <ele>103.0</ele>
        <time>2019-05-16T17:52:57.907Z</time>
      </trkpt>
      <trkpt lat="39.22808167" lon="-8.68664167">
        <ele>104.0</ele>
        <time>2019-05-16T17:52:58.911Z</time>
      </trkpt>
      <trkpt lat="39.22808167" lon="-8.68664167">
        <ele>104.0</ele>
        <time>2019-05-16T17:52:59.907Z</time>
      </trkpt>
      <trkpt lat="39.22808167" lon="-8.68666167">
        <ele>104.0</ele>
        <time>2019-05-16T17:53:00.911Z</time>
      </trkpt>
      <trkpt lat="39.22808167" lon="-8.68666167">
        <ele>104.0</ele>
        <time>2019-05-16T17:53:01.907Z</time>
      </trkpt>
      <trkpt lat="39.22808667" lon="-8.68667833">
        <ele>104.0</ele>
        <time>2019-05-16T17:53:02.933Z</time>
      </trkpt>
      <trkpt lat="39.22808667" lon="-8.68667833">
        <ele>104.0</ele>
        <time>2019-05-16T17:53:03.918Z</time>
      </trkpt>
      <trkpt lat="39.22809333" lon="-8.68669833">
        <ele>104.0</ele>
        <time>2019-05-16T17:53:04.912Z</time>
      </trkpt>
      <trkpt lat="39.22809333" lon="-8.68669833">
        <ele>104.0</ele>
        <time>2019-05-16T17:53:05.907Z</time>
      </trkpt>
      <trkpt lat="39.228095" lon="-8.686705">
        <ele>105.0</ele>
        <time>2019-05-16T17:53:06.931Z</time>
      </trkpt>
      <trkpt lat="39.228095" lon="-8.686705">
        <ele>105.0</ele>
        <time>2019-05-16T17:53:07.902Z</time>
      </trkpt>
      <trkpt lat="39.228095" lon="-8.686705">
        <ele>105.0</ele>
        <time>2019-05-16T17:53:08.916Z</time>
      </trkpt>
      <trkpt lat="39.228095" lon="-8.686705">
        <ele>105.0</ele>
        <time>2019-05-16T17:53:09.935Z</time>
      </trkpt>
      <trkpt lat="39.228095" lon="-8.686705">
        <ele>105.0</ele>
        <time>2019-05-16T17:53:10.920Z</time>
      </trkpt>
      <trkpt lat="39.228095" lon="-8.686705">
        <ele>105.0</ele>
        <time>2019-05-16T17:53:11.907Z</time>
      </trkpt>
      <trkpt lat="39.228095" lon="-8.686705">
        <ele>105.0</ele>
        <time>2019-05-16T17:53:12.911Z</time>
      </trkpt>
      <trkpt lat="39.228095" lon="-8.686705">
        <ele>105.0</ele>
        <time>2019-05-16T17:53:13.917Z</time>
      </trkpt>
      <trkpt lat="39.228095" lon="-8.686705">
        <ele>105.0</ele>
        <time>2019-05-16T17:53:14.914Z</time>
      </trkpt>
      <trkpt lat="39.228095" lon="-8.686705">
        <ele>105.0</ele>
        <time>2019-05-16T17:53:15.909Z</time>
      </trkpt>
      <trkpt lat="39.228095" lon="-8.686705">
        <ele>105.0</ele>
        <time>2019-05-16T17:53:16.911Z</time>
      </trkpt>
      <trkpt lat="39.228095" lon="-8.686705">
        <ele>105.0</ele>
        <time>2019-05-16T17:53:17.907Z</time>
      </trkpt>
      <trkpt lat="39.228095" lon="-8.686705">
        <ele>105.0</ele>
        <time>2019-05-16T17:53:18.911Z</time>
      </trkpt>
      <trkpt lat="39.228095" lon="-8.686705">
        <ele>105.0</ele>
        <time>2019-05-16T17:53:19.907Z</time>
      </trkpt>
      <trkpt lat="39.228095" lon="-8.686705">
        <ele>105.0</ele>
        <time>2019-05-16T17:53:20.902Z</time>
      </trkpt>
      <trkpt lat="39.228095" lon="-8.686705">
        <ele>105.0</ele>
        <time>2019-05-16T17:53:21.914Z</time>
      </trkpt>
      <trkpt lat="39.228095" lon="-8.686705">
        <ele>105.0</ele>
        <time>2019-05-16T17:53:22.921Z</time>
      </trkpt>
      <trkpt lat="39.228095" lon="-8.686705">
        <ele>105.0</ele>
        <time>2019-05-16T17:53:23.909Z</time>
      </trkpt>
      <trkpt lat="39.228095" lon="-8.686705">
        <ele>105.0</ele>
        <time>2019-05-16T17:53:24.910Z</time>
      </trkpt>
      <trkpt lat="39.228095" lon="-8.686705">
        <ele>105.0</ele>
        <time>2019-05-16T17:53:25.926Z</time>
      </trkpt>
      <trkpt lat="39.228095" lon="-8.686705">
        <ele>105.0</ele>
        <time>2019-05-16T17:53:26.912Z</time>
      </trkpt>
      <trkpt lat="39.228095" lon="-8.686705">
        <ele>105.0</ele>
        <time>2019-05-16T17:53:27.912Z</time>
      </trkpt>
      <trkpt lat="39.228095" lon="-8.686705">
        <ele>105.0</ele>
        <time>2019-05-16T17:53:28.907Z</time>
      </trkpt>
      <trkpt lat="39.228095" lon="-8.686705">
        <ele>105.0</ele>
        <time>2019-05-16T17:53:29.912Z</time>
      </trkpt>
      <trkpt lat="39.228095" lon="-8.686705">
        <ele>105.0</ele>
        <time>2019-05-16T17:53:30.909Z</time>
      </trkpt>
      <trkpt lat="39.228095" lon="-8.686705">
        <ele>105.0</ele>
        <time>2019-05-16T17:53:31.912Z</time>
      </trkpt>
      <trkpt lat="39.228095" lon="-8.686705">
        <ele>105.0</ele>
        <time>2019-05-16T17:53:32.913Z</time>
      </trkpt>
      <trkpt lat="39.228095" lon="-8.686705">
        <ele>105.0</ele>
        <time>2019-05-16T17:53:33.912Z</time>
      </trkpt>
      <trkpt lat="39.228095" lon="-8.686705">
        <ele>105.0</ele>
        <time>2019-05-16T17:53:34.909Z</time>
      </trkpt>
      <trkpt lat="39.228095" lon="-8.686705">
        <ele>105.0</ele>
        <time>2019-05-16T17:53:35.913Z</time>
      </trkpt>
      <trkpt lat="39.228095" lon="-8.686705">
        <ele>105.0</ele>
        <time>2019-05-16T17:53:36.907Z</time>
      </trkpt>
      <trkpt lat="39.228095" lon="-8.686705">
        <ele>105.0</ele>
        <time>2019-05-16T17:53:37.912Z</time>
      </trkpt>
      <trkpt lat="39.228095" lon="-8.686705">
        <ele>105.0</ele>
        <time>2019-05-16T17:53:38.915Z</time>
      </trkpt>
      <trkpt lat="39.228095" lon="-8.686705">
        <ele>105.0</ele>
        <time>2019-05-16T17:53:39.907Z</time>
      </trkpt>
      <trkpt lat="39.228095" lon="-8.686705">
        <ele>105.0</ele>
        <time>2019-05-16T17:53:40.925Z</time>
      </trkpt>
      <trkpt lat="39.228095" lon="-8.686705">
        <ele>105.0</ele>
        <time>2019-05-16T17:53:41.911Z</time>
      </trkpt>
      <trkpt lat="39.228095" lon="-8.686705">
        <ele>105.0</ele>
        <time>2019-05-16T17:53:42.911Z</time>
      </trkpt>
      <trkpt lat="39.228095" lon="-8.686705">
        <ele>105.0</ele>
        <time>2019-05-16T17:53:43.911Z</time>
      </trkpt>
      <trkpt lat="39.228095" lon="-8.686705">
        <ele>105.0</ele>
        <time>2019-05-16T17:53:44.909Z</time>
      </trkpt>
      <trkpt lat="39.228095" lon="-8.686705">
        <ele>105.0</ele>
        <time>2019-05-16T17:53:45.912Z</time>
      </trkpt>
      <trkpt lat="39.228095" lon="-8.686705">
        <ele>105.0</ele>
        <time>2019-05-16T17:53:46.907Z</time>
      </trkpt>
      <trkpt lat="39.228095" lon="-8.686705">
        <ele>105.0</ele>
        <time>2019-05-16T17:53:47.917Z</time>
      </trkpt>
      <trkpt lat="39.228095" lon="-8.686705">
        <ele>105.0</ele>
        <time>2019-05-16T17:53:48.907Z</time>
      </trkpt>
      <trkpt lat="39.228095" lon="-8.686705">
        <ele>105.0</ele>
        <time>2019-05-16T17:53:49.912Z</time>
      </trkpt>
      <trkpt lat="39.228095" lon="-8.686705">
        <ele>105.0</ele>
        <time>2019-05-16T17:53:50.915Z</time>
      </trkpt>
      <trkpt lat="39.228095" lon="-8.686705">
        <ele>105.0</ele>
        <time>2019-05-16T17:53:51.909Z</time>
      </trkpt>
      <trkpt lat="39.228095" lon="-8.686705">
        <ele>105.0</ele>
        <time>2019-05-16T17:53:52.915Z</time>
      </trkpt>
      <trkpt lat="39.228095" lon="-8.686705">
        <ele>105.0</ele>
        <time>2019-05-16T17:53:53.907Z</time>
      </trkpt>
      <trkpt lat="39.228095" lon="-8.686705">
        <ele>105.0</ele>
        <time>2019-05-16T17:53:54.911Z</time>
      </trkpt>
      <trkpt lat="39.228095" lon="-8.686705">
        <ele>105.0</ele>
        <time>2019-05-16T17:53:55.907Z</time>
      </trkpt>
      <trkpt lat="39.228095" lon="-8.686705">
        <ele>105.0</ele>
        <time>2019-05-16T17:53:56.934Z</time>
      </trkpt>
      <trkpt lat="39.228095" lon="-8.686705">
        <ele>105.0</ele>
        <time>2019-05-16T17:53:57.917Z</time>
      </trkpt>
      <trkpt lat="39.228095" lon="-8.686705">
        <ele>105.0</ele>
        <time>2019-05-16T17:53:58.909Z</time>
      </trkpt>
      <trkpt lat="39.228095" lon="-8.686705">
        <ele>105.0</ele>
        <time>2019-05-16T17:53:59.907Z</time>
      </trkpt>
      <trkpt lat="39.228095" lon="-8.686705">
        <ele>105.0</ele>
        <time>2019-05-16T17:54:00.931Z</time>
      </trkpt>
      <trkpt lat="39.228095" lon="-8.686705">
        <ele>105.0</ele>
        <time>2019-05-16T17:54:01.916Z</time>
      </trkpt>
      <trkpt lat="39.228095" lon="-8.686705">
        <ele>105.0</ele>
        <time>2019-05-16T17:54:02.915Z</time>
      </trkpt>
      <trkpt lat="39.228095" lon="-8.686705">
        <ele>105.0</ele>
        <time>2019-05-16T17:54:03.906Z</time>
      </trkpt>
      <trkpt lat="39.228095" lon="-8.686705">
        <ele>105.0</ele>
        <time>2019-05-16T17:54:04.911Z</time>
      </trkpt>
      <trkpt lat="39.228095" lon="-8.686705">
        <ele>105.0</ele>
        <time>2019-05-16T17:54:05.907Z</time>
      </trkpt>
      <trkpt lat="39.22808833" lon="-8.68672167">
        <ele>108.0</ele>
        <time>2019-05-16T17:54:06.912Z</time>
      </trkpt>
      <trkpt lat="39.22808833" lon="-8.68672167">
        <ele>108.0</ele>
        <time>2019-05-16T17:54:07.907Z</time>
      </trkpt>
      <trkpt lat="39.22808667" lon="-8.68672667">
        <ele>108.0</ele>
        <time>2019-05-16T17:54:08.915Z</time>
      </trkpt>
      <trkpt lat="39.22808667" lon="-8.68672667">
        <ele>108.0</ele>
        <time>2019-05-16T17:54:09.909Z</time>
      </trkpt>
      <trkpt lat="39.22808667" lon="-8.68672667">
        <ele>108.0</ele>
        <time>2019-05-16T17:54:10.927Z</time>
      </trkpt>
      <trkpt lat="39.22808667" lon="-8.68672667">
        <ele>108.0</ele>
        <time>2019-05-16T17:54:11.912Z</time>
      </trkpt>
      <trkpt lat="39.22809167" lon="-8.68674167">
        <ele>108.0</ele>
        <time>2019-05-16T17:54:12.913Z</time>
      </trkpt>
      <trkpt lat="39.22809167" lon="-8.68674167">
        <ele>108.0</ele>
        <time>2019-05-16T17:54:13.907Z</time>
      </trkpt>
      <trkpt lat="39.22811167" lon="-8.68676">
        <ele>108.0</ele>
        <time>2019-05-16T17:54:14.915Z</time>
      </trkpt>
      <trkpt lat="39.22811167" lon="-8.68676">
        <ele>108.0</ele>
        <time>2019-05-16T17:54:15.907Z</time>
      </trkpt>
      <trkpt lat="39.22813833" lon="-8.686775">
        <ele>108.0</ele>
        <time>2019-05-16T17:54:16.901Z</time>
      </trkpt>
      <trkpt lat="39.22813833" lon="-8.686775">
        <ele>108.0</ele>
        <time>2019-05-16T17:54:17.905Z</time>
      </trkpt>
      <trkpt lat="39.228175" lon="-8.68678833">
        <ele>108.0</ele>
        <time>2019-05-16T17:54:18.916Z</time>
      </trkpt>
      <trkpt lat="39.228175" lon="-8.68678833">
        <ele>108.0</ele>
        <time>2019-05-16T17:54:19.898Z</time>
      </trkpt>
      <trkpt lat="39.22820667" lon="-8.68678833">
        <ele>109.0</ele>
        <time>2019-05-16T17:54:20.931Z</time>
      </trkpt>
      <trkpt lat="39.22820667" lon="-8.68678833">
        <ele>109.0</ele>
        <time>2019-05-16T17:54:21.903Z</time>
      </trkpt>
      <trkpt lat="39.22823667" lon="-8.68679167">
        <ele>109.0</ele>
        <time>2019-05-16T17:54:22.920Z</time>
      </trkpt>
      <trkpt lat="39.22823667" lon="-8.68679167">
        <ele>109.0</ele>
        <time>2019-05-16T17:54:23.910Z</time>
      </trkpt>
      <trkpt lat="39.22827" lon="-8.68679833">
        <ele>109.0</ele>
        <time>2019-05-16T17:54:24.926Z</time>
      </trkpt>
      <trkpt lat="39.22827" lon="-8.68679833">
        <ele>109.0</ele>
        <time>2019-05-16T17:54:25.902Z</time>
      </trkpt>
      <trkpt lat="39.22830667" lon="-8.6868">
        <ele>110.0</ele>
        <time>2019-05-16T17:54:26.919Z</time>
      </trkpt>
      <trkpt lat="39.22830667" lon="-8.6868">
        <ele>110.0</ele>
        <time>2019-05-16T17:54:27.921Z</time>
      </trkpt>
      <trkpt lat="39.22834167" lon="-8.68681333">
        <ele>110.0</ele>
        <time>2019-05-16T17:54:28.921Z</time>
      </trkpt>
      <trkpt lat="39.22834167" lon="-8.68681333">
        <ele>110.0</ele>
        <time>2019-05-16T17:54:29.936Z</time>
      </trkpt>
      <trkpt lat="39.22837333" lon="-8.686825">
        <ele>110.0</ele>
        <time>2019-05-16T17:54:30.927Z</time>
      </trkpt>
      <trkpt lat="39.22837333" lon="-8.686825">
        <ele>110.0</ele>
        <time>2019-05-16T17:54:31.908Z</time>
      </trkpt>
      <trkpt lat="39.22841" lon="-8.68683167">
        <ele>110.0</ele>
        <time>2019-05-16T17:54:32.921Z</time>
      </trkpt>
      <trkpt lat="39.22841" lon="-8.68683167">
        <ele>110.0</ele>
        <time>2019-05-16T17:54:33.906Z</time>
      </trkpt>
      <trkpt lat="39.228445" lon="-8.68684333">
        <ele>110.0</ele>
        <time>2019-05-16T17:54:34.932Z</time>
      </trkpt>
      <trkpt lat="39.228445" lon="-8.68684333">
        <ele>110.0</ele>
        <time>2019-05-16T17:54:35.915Z</time>
      </trkpt>
      <trkpt lat="39.228475" lon="-8.68684667">
        <ele>110.0</ele>
        <time>2019-05-16T17:54:36.908Z</time>
      </trkpt>
      <trkpt lat="39.228475" lon="-8.68684667">
        <ele>110.0</ele>
        <time>2019-05-16T17:54:37.903Z</time>
      </trkpt>
      <trkpt lat="39.22851167" lon="-8.68684333">
        <ele>110.0</ele>
        <time>2019-05-16T17:54:38.931Z</time>
      </trkpt>
      <trkpt lat="39.22851167" lon="-8.68684333">
        <ele>110.0</ele>
        <time>2019-05-16T17:54:39.915Z</time>
      </trkpt>
      <trkpt lat="39.22854833" lon="-8.68686">
        <ele>110.0</ele>
        <time>2019-05-16T17:54:40.931Z</time>
      </trkpt>
      <trkpt lat="39.22854833" lon="-8.68686">
        <ele>110.0</ele>
        <time>2019-05-16T17:54:41.921Z</time>
      </trkpt>
      <trkpt lat="39.22857667" lon="-8.68689167">
        <ele>110.0</ele>
        <time>2019-05-16T17:54:42.937Z</time>
      </trkpt>
      <trkpt lat="39.22857667" lon="-8.68689167">
        <ele>110.0</ele>
        <time>2019-05-16T17:54:43.921Z</time>
      </trkpt>
      <trkpt lat="39.2286" lon="-8.68692333">
        <ele>110.0</ele>
        <time>2019-05-16T17:54:44.932Z</time>
      </trkpt>
      <trkpt lat="39.2286" lon="-8.68692333">
        <ele>110.0</ele>
        <time>2019-05-16T17:54:45.916Z</time>
      </trkpt>
      <trkpt lat="39.22861" lon="-8.68696">
        <ele>110.0</ele>
        <time>2019-05-16T17:54:46.926Z</time>
      </trkpt>
      <trkpt lat="39.22861333" lon="-8.68697667">
        <ele>110.0</ele>
        <time>2019-05-16T17:54:47.935Z</time>
      </trkpt>
      <trkpt lat="39.22861333" lon="-8.68697667">
        <ele>110.0</ele>
        <time>2019-05-16T17:54:48.914Z</time>
      </trkpt>
      <trkpt lat="39.22862" lon="-8.68701333">
        <ele>110.0</ele>
        <time>2019-05-16T17:54:49.930Z</time>
      </trkpt>
      <trkpt lat="39.228625" lon="-8.68703333">
        <ele>110.0</ele>
        <time>2019-05-16T17:54:50.921Z</time>
      </trkpt>
      <trkpt lat="39.228625" lon="-8.68703333">
        <ele>110.0</ele>
        <time>2019-05-16T17:54:51.901Z</time>
      </trkpt>
      <trkpt lat="39.22863333" lon="-8.68707333">
        <ele>110.0</ele>
        <time>2019-05-16T17:54:52.917Z</time>
      </trkpt>
      <trkpt lat="39.22863333" lon="-8.68707333">
        <ele>110.0</ele>
        <time>2019-05-16T17:54:53.908Z</time>
      </trkpt>
      <trkpt lat="39.22864167" lon="-8.68711167">
        <ele>109.0</ele>
        <time>2019-05-16T17:54:54.911Z</time>
      </trkpt>
      <trkpt lat="39.22864667" lon="-8.68713">
        <ele>109.0</ele>
        <time>2019-05-16T17:54:55.914Z</time>
      </trkpt>
      <trkpt lat="39.22865833" lon="-8.68714667">
        <ele>109.0</ele>
        <time>2019-05-16T17:54:56.901Z</time>
      </trkpt>
      <trkpt lat="39.22865833" lon="-8.68714667">
        <ele>109.0</ele>
        <time>2019-05-16T17:54:57.919Z</time>
      </trkpt>
      <trkpt lat="39.22868" lon="-8.68718667">
        <ele>109.0</ele>
        <time>2019-05-16T17:54:58.928Z</time>
      </trkpt>
      <trkpt lat="39.22868" lon="-8.68718667">
        <ele>109.0</ele>
        <time>2019-05-16T17:54:59.908Z</time>
      </trkpt>
      <trkpt lat="39.22870833" lon="-8.68722">
        <ele>109.0</ele>
        <time>2019-05-16T17:55:00.901Z</time>
      </trkpt>
      <trkpt lat="39.22870833" lon="-8.68722">
        <ele>109.0</ele>
        <time>2019-05-16T17:55:01.915Z</time>
      </trkpt>
      <trkpt lat="39.22874333" lon="-8.68723833">
        <ele>109.0</ele>
        <time>2019-05-16T17:55:02.933Z</time>
      </trkpt>
      <trkpt lat="39.22874333" lon="-8.68723833">
        <ele>109.0</ele>
        <time>2019-05-16T17:55:03.912Z</time>
      </trkpt>
      <trkpt lat="39.22877667" lon="-8.687245">
        <ele>109.0</ele>
        <time>2019-05-16T17:55:04.920Z</time>
      </trkpt>
      <trkpt lat="39.22877667" lon="-8.687245">
        <ele>109.0</ele>
        <time>2019-05-16T17:55:05.926Z</time>
      </trkpt>
      <trkpt lat="39.228815" lon="-8.68725667">
        <ele>108.0</ele>
        <time>2019-05-16T17:55:06.929Z</time>
      </trkpt>
      <trkpt lat="39.228815" lon="-8.68725667">
        <ele>108.0</ele>
        <time>2019-05-16T17:55:07.899Z</time>
      </trkpt>
      <trkpt lat="39.22885333" lon="-8.68726667">
        <ele>108.0</ele>
        <time>2019-05-16T17:55:08.916Z</time>
      </trkpt>
      <trkpt lat="39.22885333" lon="-8.68726667">
        <ele>108.0</ele>
        <time>2019-05-16T17:55:09.897Z</time>
      </trkpt>
      <trkpt lat="39.228895" lon="-8.687275">
        <ele>108.0</ele>
        <time>2019-05-16T17:55:10.909Z</time>
      </trkpt>
      <trkpt lat="39.228895" lon="-8.687275">
        <ele>108.0</ele>
        <time>2019-05-16T17:55:11.929Z</time>
      </trkpt>
      <trkpt lat="39.22893667" lon="-8.68728667">
        <ele>108.0</ele>
        <time>2019-05-16T17:55:12.932Z</time>
      </trkpt>
      <trkpt lat="39.22893667" lon="-8.68728667">
        <ele>108.0</ele>
        <time>2019-05-16T17:55:13.907Z</time>
      </trkpt>
      <trkpt lat="39.22897333" lon="-8.6873">
        <ele>108.0</ele>
        <time>2019-05-16T17:55:14.919Z</time>
      </trkpt>
      <trkpt lat="39.22897333" lon="-8.6873">
        <ele>108.0</ele>
        <time>2019-05-16T17:55:15.936Z</time>
      </trkpt>
      <trkpt lat="39.22901833" lon="-8.68730833">
        <ele>108.0</ele>
        <time>2019-05-16T17:55:16.940Z</time>
      </trkpt>
      <trkpt lat="39.22901833" lon="-8.68730833">
        <ele>108.0</ele>
        <time>2019-05-16T17:55:17.928Z</time>
      </trkpt>
      <trkpt lat="39.22906167" lon="-8.687325">
        <ele>108.0</ele>
        <time>2019-05-16T17:55:18.907Z</time>
      </trkpt>
      <trkpt lat="39.22906167" lon="-8.687325">
        <ele>108.0</ele>
        <time>2019-05-16T17:55:19.933Z</time>
      </trkpt>
      <trkpt lat="39.2291" lon="-8.687345">
        <ele>109.0</ele>
        <time>2019-05-16T17:55:20.918Z</time>
      </trkpt>
      <trkpt lat="39.2291" lon="-8.687345">
        <ele>109.0</ele>
        <time>2019-05-16T17:55:21.925Z</time>
      </trkpt>
      <trkpt lat="39.22913833" lon="-8.68736667">
        <ele>109.0</ele>
        <time>2019-05-16T17:55:22.897Z</time>
      </trkpt>
      <trkpt lat="39.22913833" lon="-8.68736667">
        <ele>109.0</ele>
        <time>2019-05-16T17:55:23.918Z</time>
      </trkpt>
      <trkpt lat="39.22917833" lon="-8.687385">
        <ele>109.0</ele>
        <time>2019-05-16T17:55:24.932Z</time>
      </trkpt>
      <trkpt lat="39.22917833" lon="-8.687385">
        <ele>109.0</ele>
        <time>2019-05-16T17:55:25.902Z</time>
      </trkpt>
      <trkpt lat="39.22922167" lon="-8.68740167">
        <ele>110.0</ele>
        <time>2019-05-16T17:55:26.919Z</time>
      </trkpt>
      <trkpt lat="39.22922167" lon="-8.68740167">
        <ele>110.0</ele>
        <time>2019-05-16T17:55:27.907Z</time>
      </trkpt>
      <trkpt lat="39.229265" lon="-8.68742">
        <ele>110.0</ele>
        <time>2019-05-16T17:55:28.932Z</time>
      </trkpt>
      <trkpt lat="39.229265" lon="-8.68742">
        <ele>110.0</ele>
        <time>2019-05-16T17:55:29.916Z</time>
      </trkpt>
      <trkpt lat="39.22931" lon="-8.687435">
        <ele>110.0</ele>
        <time>2019-05-16T17:55:30.927Z</time>
      </trkpt>
      <trkpt lat="39.22931" lon="-8.687435">
        <ele>110.0</ele>
        <time>2019-05-16T17:55:31.907Z</time>
      </trkpt>
      <trkpt lat="39.22935333" lon="-8.68745">
        <ele>110.0</ele>
        <time>2019-05-16T17:55:32.933Z</time>
      </trkpt>
      <trkpt lat="39.22935333" lon="-8.68745">
        <ele>110.0</ele>
        <time>2019-05-16T17:55:33.913Z</time>
      </trkpt>
      <trkpt lat="39.22939833" lon="-8.68746167">
        <ele>110.0</ele>
        <time>2019-05-16T17:55:34.932Z</time>
      </trkpt>
      <trkpt lat="39.22939833" lon="-8.68746167">
        <ele>110.0</ele>
        <time>2019-05-16T17:55:35.911Z</time>
      </trkpt>
      <trkpt lat="39.229435" lon="-8.68747167">
        <ele>110.0</ele>
        <time>2019-05-16T17:55:36.929Z</time>
      </trkpt>
      <trkpt lat="39.229435" lon="-8.68747167">
        <ele>110.0</ele>
        <time>2019-05-16T17:55:37.922Z</time>
      </trkpt>
      <trkpt lat="39.22947333" lon="-8.68748333">
        <ele>110.0</ele>
        <time>2019-05-16T17:55:38.929Z</time>
      </trkpt>
      <trkpt lat="39.22947333" lon="-8.68748333">
        <ele>110.0</ele>
        <time>2019-05-16T17:55:39.911Z</time>
      </trkpt>
      <trkpt lat="39.229505" lon="-8.68749333">
        <ele>111.0</ele>
        <time>2019-05-16T17:55:40.928Z</time>
      </trkpt>
      <trkpt lat="39.229505" lon="-8.68749333">
        <ele>111.0</ele>
        <time>2019-05-16T17:55:41.909Z</time>
      </trkpt>
      <trkpt lat="39.22952833" lon="-8.68750333">
        <ele>111.0</ele>
        <time>2019-05-16T17:55:42.922Z</time>
      </trkpt>
      <trkpt lat="39.22952833" lon="-8.68750333">
        <ele>111.0</ele>
        <time>2019-05-16T17:55:43.904Z</time>
      </trkpt>
      <trkpt lat="39.22955" lon="-8.68751167">
        <ele>111.0</ele>
        <time>2019-05-16T17:55:44.907Z</time>
      </trkpt>
      <trkpt lat="39.22955" lon="-8.68751167">
        <ele>111.0</ele>
        <time>2019-05-16T17:55:45.901Z</time>
      </trkpt>
      <trkpt lat="39.229575" lon="-8.68751833">
        <ele>111.0</ele>
        <time>2019-05-16T17:55:46.925Z</time>
      </trkpt>
      <trkpt lat="39.229575" lon="-8.68751833">
        <ele>111.0</ele>
        <time>2019-05-16T17:55:47.917Z</time>
      </trkpt>
      <trkpt lat="39.22959667" lon="-8.68752667">
        <ele>112.0</ele>
        <time>2019-05-16T17:55:48.898Z</time>
      </trkpt>
      <trkpt lat="39.22959667" lon="-8.68752667">
        <ele>112.0</ele>
        <time>2019-05-16T17:55:49.904Z</time>
      </trkpt>
      <trkpt lat="39.22962333" lon="-8.68753833">
        <ele>112.0</ele>
        <time>2019-05-16T17:55:50.921Z</time>
      </trkpt>
      <trkpt lat="39.22962333" lon="-8.68753833">
        <ele>112.0</ele>
        <time>2019-05-16T17:55:51.907Z</time>
      </trkpt>
      <trkpt lat="39.22965833" lon="-8.68754667">
        <ele>112.0</ele>
        <time>2019-05-16T17:55:52.923Z</time>
      </trkpt>
      <trkpt lat="39.22965833" lon="-8.68754667">
        <ele>112.0</ele>
        <time>2019-05-16T17:55:53.929Z</time>
      </trkpt>
      <trkpt lat="39.22969833" lon="-8.68755167">
        <ele>112.0</ele>
        <time>2019-05-16T17:55:54.906Z</time>
      </trkpt>
      <trkpt lat="39.22969833" lon="-8.68755167">
        <ele>112.0</ele>
        <time>2019-05-16T17:55:55.928Z</time>
      </trkpt>
      <trkpt lat="39.22974" lon="-8.687555">
        <ele>113.0</ele>
        <time>2019-05-16T17:55:56.920Z</time>
      </trkpt>
      <trkpt lat="39.22974" lon="-8.687555">
        <ele>113.0</ele>
        <time>2019-05-16T17:55:57.907Z</time>
      </trkpt>
      <trkpt lat="39.22978667" lon="-8.68753333">
        <ele>112.0</ele>
        <time>2019-05-16T17:55:58.939Z</time>
      </trkpt>
      <trkpt lat="39.22978667" lon="-8.68753333">
        <ele>112.0</ele>
        <time>2019-05-16T17:55:59.908Z</time>
      </trkpt>
      <trkpt lat="39.22982667" lon="-8.68753667">
        <ele>113.0</ele>
        <time>2019-05-16T17:56:00.920Z</time>
      </trkpt>
      <trkpt lat="39.22982667" lon="-8.68753667">
        <ele>113.0</ele>
        <time>2019-05-16T17:56:01.902Z</time>
      </trkpt>
      <trkpt lat="39.22986167" lon="-8.68754167">
        <ele>112.0</ele>
        <time>2019-05-16T17:56:02.920Z</time>
      </trkpt>
      <trkpt lat="39.22986167" lon="-8.68754167">
        <ele>112.0</ele>
        <time>2019-05-16T17:56:03.935Z</time>
      </trkpt>
      <trkpt lat="39.2299" lon="-8.68754833">
        <ele>112.0</ele>
        <time>2019-05-16T17:56:04.925Z</time>
      </trkpt>
      <trkpt lat="39.22992" lon="-8.687555">
        <ele>112.0</ele>
        <time>2019-05-16T17:56:05.908Z</time>
      </trkpt>
      <trkpt lat="39.22992" lon="-8.687555">
        <ele>112.0</ele>
        <time>2019-05-16T17:56:06.929Z</time>
      </trkpt>
      <trkpt lat="39.22996167" lon="-8.68755667">
        <ele>112.0</ele>
        <time>2019-05-16T17:56:07.920Z</time>
      </trkpt>
      <trkpt lat="39.229985" lon="-8.68755667">
        <ele>111.0</ele>
        <time>2019-05-16T17:56:08.908Z</time>
      </trkpt>
      <trkpt lat="39.229985" lon="-8.68755667">
        <ele>111.0</ele>
        <time>2019-05-16T17:56:09.930Z</time>
      </trkpt>
      <trkpt lat="39.23003167" lon="-8.68755667">
        <ele>111.0</ele>
        <time>2019-05-16T17:56:10.906Z</time>
      </trkpt>
      <trkpt lat="39.23003167" lon="-8.68755667">
        <ele>111.0</ele>
        <time>2019-05-16T17:56:11.931Z</time>
      </trkpt>
      <trkpt lat="39.23007833" lon="-8.68754167">
        <ele>110.0</ele>
        <time>2019-05-16T17:56:12.909Z</time>
      </trkpt>
      <trkpt lat="39.23007833" lon="-8.68754167">
        <ele>110.0</ele>
        <time>2019-05-16T17:56:13.915Z</time>
      </trkpt>
      <trkpt lat="39.23012" lon="-8.68752">
        <ele>110.0</ele>
        <time>2019-05-16T17:56:14.927Z</time>
      </trkpt>
      <trkpt lat="39.23012" lon="-8.68752">
        <ele>110.0</ele>
        <time>2019-05-16T17:56:15.907Z</time>
      </trkpt>
      <trkpt lat="39.23015833" lon="-8.68749667">
        <ele>109.0</ele>
        <time>2019-05-16T17:56:16.931Z</time>
      </trkpt>
      <trkpt lat="39.23015833" lon="-8.68749667">
        <ele>109.0</ele>
        <time>2019-05-16T17:56:17.914Z</time>
      </trkpt>
      <trkpt lat="39.23019167" lon="-8.68747333">
        <ele>109.0</ele>
        <time>2019-05-16T17:56:18.924Z</time>
      </trkpt>
      <trkpt lat="39.23019167" lon="-8.68747333">
        <ele>109.0</ele>
        <time>2019-05-16T17:56:19.930Z</time>
      </trkpt>
      <trkpt lat="39.23023333" lon="-8.68745">
        <ele>108.0</ele>
        <time>2019-05-16T17:56:20.911Z</time>
      </trkpt>
      <trkpt lat="39.23023333" lon="-8.68745">
        <ele>108.0</ele>
        <time>2019-05-16T17:56:21.899Z</time>
      </trkpt>
      <trkpt lat="39.23028167" lon="-8.687415">
        <ele>108.0</ele>
        <time>2019-05-16T17:56:22.925Z</time>
      </trkpt>
      <trkpt lat="39.23028167" lon="-8.687415">
        <ele>108.0</ele>
        <time>2019-05-16T17:56:23.910Z</time>
      </trkpt>
      <trkpt lat="39.23032833" lon="-8.68738833">
        <ele>107.0</ele>
        <time>2019-05-16T17:56:24.923Z</time>
      </trkpt>
      <trkpt lat="39.23032833" lon="-8.68738833">
        <ele>107.0</ele>
        <time>2019-05-16T17:56:25.931Z</time>
      </trkpt>
      <trkpt lat="39.23037167" lon="-8.68736833">
        <ele>107.0</ele>
        <time>2019-05-16T17:56:26.906Z</time>
      </trkpt>
      <trkpt lat="39.23037167" lon="-8.68736833">
        <ele>107.0</ele>
        <time>2019-05-16T17:56:27.909Z</time>
      </trkpt>
      <trkpt lat="39.230415" lon="-8.68735667">
        <ele>106.0</ele>
        <time>2019-05-16T17:56:28.920Z</time>
      </trkpt>
      <trkpt lat="39.230415" lon="-8.68735667">
        <ele>106.0</ele>
        <time>2019-05-16T17:56:29.902Z</time>
      </trkpt>
      <trkpt lat="39.23046833" lon="-8.68732">
        <ele>106.0</ele>
        <time>2019-05-16T17:56:30.923Z</time>
      </trkpt>
      <trkpt lat="39.23046833" lon="-8.68732">
        <ele>106.0</ele>
        <time>2019-05-16T17:56:31.902Z</time>
      </trkpt>
      <trkpt lat="39.23051667" lon="-8.68728167">
        <ele>106.0</ele>
        <time>2019-05-16T17:56:32.921Z</time>
      </trkpt>
      <trkpt lat="39.23051667" lon="-8.68728167">
        <ele>106.0</ele>
        <time>2019-05-16T17:56:33.909Z</time>
      </trkpt>
      <trkpt lat="39.23056667" lon="-8.687255">
        <ele>106.0</ele>
        <time>2019-05-16T17:56:34.919Z</time>
      </trkpt>
      <trkpt lat="39.23056667" lon="-8.687255">
        <ele>106.0</ele>
        <time>2019-05-16T17:56:35.928Z</time>
      </trkpt>
      <trkpt lat="39.23061" lon="-8.68723833">
        <ele>105.0</ele>
        <time>2019-05-16T17:56:36.907Z</time>
      </trkpt>
      <trkpt lat="39.23062833" lon="-8.68722333">
        <ele>105.0</ele>
        <time>2019-05-16T17:56:37.935Z</time>
      </trkpt>
      <trkpt lat="39.23062833" lon="-8.68722333">
        <ele>105.0</ele>
        <time>2019-05-16T17:56:38.917Z</time>
      </trkpt>
      <trkpt lat="39.23067333" lon="-8.68717333">
        <ele>105.0</ele>
        <time>2019-05-16T17:56:39.929Z</time>
      </trkpt>
      <trkpt lat="39.23067333" lon="-8.68717333">
        <ele>105.0</ele>
        <time>2019-05-16T17:56:40.909Z</time>
      </trkpt>
      <trkpt lat="39.23071" lon="-8.68717">
        <ele>104.0</ele>
        <time>2019-05-16T17:56:41.900Z</time>
      </trkpt>
      <trkpt lat="39.23071" lon="-8.68717">
        <ele>104.0</ele>
        <time>2019-05-16T17:56:42.920Z</time>
      </trkpt>
      <trkpt lat="39.23074833" lon="-8.68715333">
        <ele>104.0</ele>
        <time>2019-05-16T17:56:43.935Z</time>
      </trkpt>
      <trkpt lat="39.23077333" lon="-8.68715333">
        <ele>104.0</ele>
        <time>2019-05-16T17:56:44.927Z</time>
      </trkpt>
      <trkpt lat="39.23077333" lon="-8.68715333">
        <ele>104.0</ele>
        <time>2019-05-16T17:56:45.907Z</time>
      </trkpt>
      <trkpt lat="39.23081833" lon="-8.68714">
        <ele>104.0</ele>
        <time>2019-05-16T17:56:46.901Z</time>
      </trkpt>
      <trkpt lat="39.23084833" lon="-8.68712667">
        <ele>104.0</ele>
        <time>2019-05-16T17:56:47.916Z</time>
      </trkpt>
      <trkpt lat="39.23084833" lon="-8.68712667">
        <ele>104.0</ele>
        <time>2019-05-16T17:56:48.901Z</time>
      </trkpt>
      <trkpt lat="39.230895" lon="-8.68710167">
        <ele>104.0</ele>
        <time>2019-05-16T17:56:49.922Z</time>
      </trkpt>
      <trkpt lat="39.23091833" lon="-8.68708333">
        <ele>104.0</ele>
        <time>2019-05-16T17:56:50.907Z</time>
      </trkpt>
      <trkpt lat="39.23091833" lon="-8.68708333">
        <ele>104.0</ele>
        <time>2019-05-16T17:56:51.927Z</time>
      </trkpt>
      <trkpt lat="39.23097333" lon="-8.68705333">
        <ele>104.0</ele>
        <time>2019-05-16T17:56:52.911Z</time>
      </trkpt>
      <trkpt lat="39.23097333" lon="-8.68705333">
        <ele>104.0</ele>
        <time>2019-05-16T17:56:53.932Z</time>
      </trkpt>
      <trkpt lat="39.23100667" lon="-8.68703667">
        <ele>104.0</ele>
        <time>2019-05-16T17:56:54.921Z</time>
      </trkpt>
      <trkpt lat="39.23100667" lon="-8.68703667">
        <ele>104.0</ele>
        <time>2019-05-16T17:56:55.930Z</time>
      </trkpt>
      <trkpt lat="39.23104833" lon="-8.68700833">
        <ele>104.0</ele>
        <time>2019-05-16T17:56:56.918Z</time>
      </trkpt>
      <trkpt lat="39.23104833" lon="-8.68700833">
        <ele>104.0</ele>
        <time>2019-05-16T17:56:57.935Z</time>
      </trkpt>
      <trkpt lat="39.23109" lon="-8.68697833">
        <ele>104.0</ele>
        <time>2019-05-16T17:56:58.910Z</time>
      </trkpt>
      <trkpt lat="39.23109" lon="-8.68697833">
        <ele>104.0</ele>
        <time>2019-05-16T17:56:59.929Z</time>
      </trkpt>
      <trkpt lat="39.231135" lon="-8.68695">
        <ele>104.0</ele>
        <time>2019-05-16T17:57:00.898Z</time>
      </trkpt>
      <trkpt lat="39.231135" lon="-8.68695">
        <ele>104.0</ele>
        <time>2019-05-16T17:57:01.904Z</time>
      </trkpt>
      <trkpt lat="39.231185" lon="-8.68693">
        <ele>104.0</ele>
        <time>2019-05-16T17:57:02.920Z</time>
      </trkpt>
      <trkpt lat="39.231185" lon="-8.68693">
        <ele>104.0</ele>
        <time>2019-05-16T17:57:03.902Z</time>
      </trkpt>
      <trkpt lat="39.23124" lon="-8.68692833">
        <ele>105.0</ele>
        <time>2019-05-16T17:57:04.920Z</time>
      </trkpt>
      <trkpt lat="39.23124" lon="-8.68692833">
        <ele>105.0</ele>
        <time>2019-05-16T17:57:05.898Z</time>
      </trkpt>
      <trkpt lat="39.23128667" lon="-8.68692333">
        <ele>105.0</ele>
        <time>2019-05-16T17:57:06.931Z</time>
      </trkpt>
      <trkpt lat="39.23128667" lon="-8.68692333">
        <ele>105.0</ele>
        <time>2019-05-16T17:57:07.914Z</time>
      </trkpt>
      <trkpt lat="39.23133833" lon="-8.68692333">
        <ele>106.0</ele>
        <time>2019-05-16T17:57:08.931Z</time>
      </trkpt>
      <trkpt lat="39.231365" lon="-8.686925">
        <ele>106.0</ele>
        <time>2019-05-16T17:57:09.926Z</time>
      </trkpt>
      <trkpt lat="39.231365" lon="-8.686925">
        <ele>106.0</ele>
        <time>2019-05-16T17:57:10.909Z</time>
      </trkpt>
      <trkpt lat="39.23142" lon="-8.686915">
        <ele>106.0</ele>
        <time>2019-05-16T17:57:11.900Z</time>
      </trkpt>
      <trkpt lat="39.23142" lon="-8.686915">
        <ele>106.0</ele>
        <time>2019-05-16T17:57:12.929Z</time>
      </trkpt>
      <trkpt lat="39.23146833" lon="-8.686905">
        <ele>107.0</ele>
        <time>2019-05-16T17:57:13.910Z</time>
      </trkpt>
      <trkpt lat="39.231495" lon="-8.686895">
        <ele>107.0</ele>
        <time>2019-05-16T17:57:14.897Z</time>
      </trkpt>
      <trkpt lat="39.231495" lon="-8.686895">
        <ele>107.0</ele>
        <time>2019-05-16T17:57:15.917Z</time>
      </trkpt>
      <trkpt lat="39.23153667" lon="-8.68687333">
        <ele>107.0</ele>
        <time>2019-05-16T17:57:16.911Z</time>
      </trkpt>
      <trkpt lat="39.23153667" lon="-8.68687333">
        <ele>107.0</ele>
        <time>2019-05-16T17:57:17.928Z</time>
      </trkpt>
      <trkpt lat="39.23157667" lon="-8.68685667">
        <ele>107.0</ele>
        <time>2019-05-16T17:57:18.913Z</time>
      </trkpt>
      <trkpt lat="39.23157667" lon="-8.68685667">
        <ele>107.0</ele>
        <time>2019-05-16T17:57:19.922Z</time>
      </trkpt>
      <trkpt lat="39.23162" lon="-8.686835">
        <ele>107.0</ele>
        <time>2019-05-16T17:57:20.941Z</time>
      </trkpt>
      <trkpt lat="39.23162" lon="-8.686835">
        <ele>107.0</ele>
        <time>2019-05-16T17:57:21.923Z</time>
      </trkpt>
      <trkpt lat="39.231675" lon="-8.68681667">
        <ele>108.0</ele>
        <time>2019-05-16T17:57:22.898Z</time>
      </trkpt>
      <trkpt lat="39.231675" lon="-8.68681667">
        <ele>108.0</ele>
        <time>2019-05-16T17:57:23.921Z</time>
      </trkpt>
      <trkpt lat="39.23173" lon="-8.68678833">
        <ele>108.0</ele>
        <time>2019-05-16T17:57:24.930Z</time>
      </trkpt>
      <trkpt lat="39.23173" lon="-8.68678833">
        <ele>108.0</ele>
        <time>2019-05-16T17:57:25.910Z</time>
      </trkpt>
      <trkpt lat="39.23178" lon="-8.68676833">
        <ele>109.0</ele>
        <time>2019-05-16T17:57:26.922Z</time>
      </trkpt>
      <trkpt lat="39.23178" lon="-8.68676833">
        <ele>109.0</ele>
        <time>2019-05-16T17:57:27.910Z</time>
      </trkpt>
      <trkpt lat="39.23184167" lon="-8.68674667">
        <ele>108.0</ele>
        <time>2019-05-16T17:57:28.929Z</time>
      </trkpt>
      <trkpt lat="39.23184167" lon="-8.68674667">
        <ele>108.0</ele>
        <time>2019-05-16T17:57:29.912Z</time>
      </trkpt>
      <trkpt lat="39.23189333" lon="-8.68673167">
        <ele>108.0</ele>
        <time>2019-05-16T17:57:30.921Z</time>
      </trkpt>
      <trkpt lat="39.23189333" lon="-8.68673167">
        <ele>108.0</ele>
        <time>2019-05-16T17:57:31.902Z</time>
      </trkpt>
      <trkpt lat="39.23193833" lon="-8.68671833">
        <ele>108.0</ele>
        <time>2019-05-16T17:57:32.941Z</time>
      </trkpt>
      <trkpt lat="39.23193833" lon="-8.68671833">
        <ele>108.0</ele>
        <time>2019-05-16T17:57:33.917Z</time>
      </trkpt>
      <trkpt lat="39.231985" lon="-8.68670667">
        <ele>109.0</ele>
        <time>2019-05-16T17:57:34.936Z</time>
      </trkpt>
      <trkpt lat="39.231985" lon="-8.68670667">
        <ele>109.0</ele>
        <time>2019-05-16T17:57:35.915Z</time>
      </trkpt>
      <trkpt lat="39.23203167" lon="-8.686695">
        <ele>108.0</ele>
        <time>2019-05-16T17:57:36.903Z</time>
      </trkpt>
      <trkpt lat="39.23203167" lon="-8.686695">
        <ele>108.0</ele>
        <time>2019-05-16T17:57:37.910Z</time>
      </trkpt>
      <trkpt lat="39.232075" lon="-8.68667667">
        <ele>109.0</ele>
        <time>2019-05-16T17:57:38.923Z</time>
      </trkpt>
      <trkpt lat="39.232075" lon="-8.68667667">
        <ele>109.0</ele>
        <time>2019-05-16T17:57:39.905Z</time>
      </trkpt>
      <trkpt lat="39.232115" lon="-8.68665833">
        <ele>109.0</ele>
        <time>2019-05-16T17:57:40.917Z</time>
      </trkpt>
      <trkpt lat="39.23213333" lon="-8.68665">
        <ele>109.0</ele>
        <time>2019-05-16T17:57:41.932Z</time>
      </trkpt>
      <trkpt lat="39.23214667" lon="-8.68663833">
        <ele>109.0</ele>
        <time>2019-05-16T17:57:42.916Z</time>
      </trkpt>
      <trkpt lat="39.23214667" lon="-8.68663833">
        <ele>109.0</ele>
        <time>2019-05-16T17:57:43.899Z</time>
      </trkpt>
      <trkpt lat="39.232175" lon="-8.68661">
        <ele>109.0</ele>
        <time>2019-05-16T17:57:44.914Z</time>
      </trkpt>
      <trkpt lat="39.232175" lon="-8.68661">
        <ele>109.0</ele>
        <time>2019-05-16T17:57:45.932Z</time>
      </trkpt>
      <trkpt lat="39.232205" lon="-8.686585">
        <ele>109.0</ele>
        <time>2019-05-16T17:57:46.940Z</time>
      </trkpt>
      <trkpt lat="39.232205" lon="-8.686585">
        <ele>109.0</ele>
        <time>2019-05-16T17:57:47.897Z</time>
      </trkpt>
      <trkpt lat="39.23223833" lon="-8.686625">
        <ele>108.0</ele>
        <time>2019-05-16T17:57:48.909Z</time>
      </trkpt>
      <trkpt lat="39.23223833" lon="-8.686625">
        <ele>108.0</ele>
        <time>2019-05-16T17:57:49.930Z</time>
      </trkpt>
      <trkpt lat="39.23224167" lon="-8.68663167">
        <ele>108.0</ele>
        <time>2019-05-16T17:57:50.936Z</time>
      </trkpt>
      <trkpt lat="39.23224167" lon="-8.68663167">
        <ele>108.0</ele>
        <time>2019-05-16T17:57:51.917Z</time>
      </trkpt>
      <trkpt lat="39.23224333" lon="-8.68663167">
        <ele>108.0</ele>
        <time>2019-05-16T17:57:52.925Z</time>
      </trkpt>
      <trkpt lat="39.23224333" lon="-8.68663167">
        <ele>108.0</ele>
        <time>2019-05-16T17:57:53.908Z</time>
      </trkpt>
      <trkpt lat="39.232285" lon="-8.68663">
        <ele>109.0</ele>
        <time>2019-05-16T17:57:54.934Z</time>
      </trkpt>
      <trkpt lat="39.232285" lon="-8.68663">
        <ele>109.0</ele>
        <time>2019-05-16T17:57:55.920Z</time>
      </trkpt>
      <trkpt lat="39.23230833" lon="-8.68665">
        <ele>110.0</ele>
        <time>2019-05-16T17:57:56.930Z</time>
      </trkpt>
      <trkpt lat="39.23230833" lon="-8.68665">
        <ele>110.0</ele>
        <time>2019-05-16T17:57:57.912Z</time>
      </trkpt>
      <trkpt lat="39.23233" lon="-8.68665667">
        <ele>111.0</ele>
        <time>2019-05-16T17:57:58.923Z</time>
      </trkpt>
      <trkpt lat="39.23233" lon="-8.68665667">
        <ele>111.0</ele>
        <time>2019-05-16T17:57:59.905Z</time>
      </trkpt>
      <trkpt lat="39.23234" lon="-8.686645">
        <ele>111.0</ele>
        <time>2019-05-16T17:58:00.926Z</time>
      </trkpt>
      <trkpt lat="39.23234" lon="-8.686645">
        <ele>111.0</ele>
        <time>2019-05-16T17:58:01.909Z</time>
      </trkpt>
      <trkpt lat="39.23234" lon="-8.68664">
        <ele>111.0</ele>
        <time>2019-05-16T17:58:02.931Z</time>
      </trkpt>
      <trkpt lat="39.23234" lon="-8.68663667">
        <ele>111.0</ele>
        <time>2019-05-16T17:58:03.908Z</time>
      </trkpt>
      <trkpt lat="39.23234" lon="-8.68663667">
        <ele>111.0</ele>
        <time>2019-05-16T17:58:04.929Z</time>
      </trkpt>
      <trkpt lat="39.23234" lon="-8.68663667">
        <ele>111.0</ele>
        <time>2019-05-16T17:58:05.904Z</time>
      </trkpt>
      <trkpt lat="39.23234" lon="-8.68663667">
        <ele>111.0</ele>
        <time>2019-05-16T17:58:06.910Z</time>
      </trkpt>
      <trkpt lat="39.23234" lon="-8.68663667">
        <ele>111.0</ele>
        <time>2019-05-16T17:58:07.916Z</time>
      </trkpt>
      <trkpt lat="39.23234" lon="-8.68663667">
        <ele>111.0</ele>
        <time>2019-05-16T17:58:08.922Z</time>
      </trkpt>
      <trkpt lat="39.23234" lon="-8.68663667">
        <ele>111.0</ele>
        <time>2019-05-16T17:58:09.915Z</time>
      </trkpt>
      <trkpt lat="39.23234" lon="-8.68663667">
        <ele>111.0</ele>
        <time>2019-05-16T17:58:10.912Z</time>
      </trkpt>
      <trkpt lat="39.23234" lon="-8.68663667">
        <ele>111.0</ele>
        <time>2019-05-16T17:58:11.917Z</time>
      </trkpt>
      <trkpt lat="39.23234" lon="-8.68663667">
        <ele>111.0</ele>
        <time>2019-05-16T17:58:12.910Z</time>
      </trkpt>
      <trkpt lat="39.23234" lon="-8.68663667">
        <ele>111.0</ele>
        <time>2019-05-16T17:58:13.907Z</time>
      </trkpt>
      <trkpt lat="39.23234" lon="-8.68663667">
        <ele>111.0</ele>
        <time>2019-05-16T17:58:14.921Z</time>
      </trkpt>
      <trkpt lat="39.23234" lon="-8.68663667">
        <ele>111.0</ele>
        <time>2019-05-16T17:58:15.907Z</time>
      </trkpt>
      <trkpt lat="39.23234" lon="-8.68663667">
        <ele>111.0</ele>
        <time>2019-05-16T17:58:16.912Z</time>
      </trkpt>
      <trkpt lat="39.23234" lon="-8.68663667">
        <ele>111.0</ele>
        <time>2019-05-16T17:58:17.907Z</time>
      </trkpt>
      <trkpt lat="39.23236167" lon="-8.68660333">
        <ele>108.0</ele>
        <time>2019-05-16T17:58:18.912Z</time>
      </trkpt>
      <trkpt lat="39.23236167" lon="-8.68660333">
        <ele>108.0</ele>
        <time>2019-05-16T17:58:19.909Z</time>
      </trkpt>
      <trkpt lat="39.23238167" lon="-8.68658833">
        <ele>108.0</ele>
        <time>2019-05-16T17:58:20.918Z</time>
      </trkpt>
      <trkpt lat="39.23238167" lon="-8.68658833">
        <ele>108.0</ele>
        <time>2019-05-16T17:58:21.928Z</time>
      </trkpt>
      <trkpt lat="39.23241" lon="-8.686575">
        <ele>107.0</ele>
        <time>2019-05-16T17:58:22.916Z</time>
      </trkpt>
      <trkpt lat="39.23241" lon="-8.686575">
        <ele>107.0</ele>
        <time>2019-05-16T17:58:23.899Z</time>
      </trkpt>
      <trkpt lat="39.23244167" lon="-8.68655">
        <ele>107.0</ele>
        <time>2019-05-16T17:58:24.921Z</time>
      </trkpt>
      <trkpt lat="39.23244167" lon="-8.68655">
        <ele>107.0</ele>
        <time>2019-05-16T17:58:25.903Z</time>
      </trkpt>
      <trkpt lat="39.232475" lon="-8.68652167">
        <ele>107.0</ele>
        <time>2019-05-16T17:58:26.899Z</time>
      </trkpt>
      <trkpt lat="39.232475" lon="-8.68652167">
        <ele>107.0</ele>
        <time>2019-05-16T17:58:27.924Z</time>
      </trkpt>
      <trkpt lat="39.232505" lon="-8.68649667">
        <ele>107.0</ele>
        <time>2019-05-16T17:58:28.906Z</time>
      </trkpt>
      <trkpt lat="39.232505" lon="-8.68649667">
        <ele>107.0</ele>
        <time>2019-05-16T17:58:29.926Z</time>
      </trkpt>
      <trkpt lat="39.23253333" lon="-8.68647833">
        <ele>107.0</ele>
        <time>2019-05-16T17:58:30.931Z</time>
      </trkpt>
      <trkpt lat="39.23253333" lon="-8.68647833">
        <ele>107.0</ele>
        <time>2019-05-16T17:58:31.899Z</time>
      </trkpt>
      <trkpt lat="39.232575" lon="-8.68645667">
        <ele>107.0</ele>
        <time>2019-05-16T17:58:32.931Z</time>
      </trkpt>
      <trkpt lat="39.232575" lon="-8.68645667">
        <ele>107.0</ele>
        <time>2019-05-16T17:58:33.912Z</time>
      </trkpt>
      <trkpt lat="39.23261" lon="-8.68645667">
        <ele>107.0</ele>
        <time>2019-05-16T17:58:34.935Z</time>
      </trkpt>
      <trkpt lat="39.23261" lon="-8.68645667">
        <ele>107.0</ele>
        <time>2019-05-16T17:58:35.905Z</time>
      </trkpt>
      <trkpt lat="39.23264167" lon="-8.68645833">
        <ele>107.0</ele>
        <time>2019-05-16T17:58:36.928Z</time>
      </trkpt>
      <trkpt lat="39.23264167" lon="-8.68645833">
        <ele>107.0</ele>
        <time>2019-05-16T17:58:37.910Z</time>
      </trkpt>
      <trkpt lat="39.23268" lon="-8.68644833">
        <ele>107.0</ele>
        <time>2019-05-16T17:58:38.918Z</time>
      </trkpt>
      <trkpt lat="39.23268" lon="-8.68644833">
        <ele>107.0</ele>
        <time>2019-05-16T17:58:39.902Z</time>
      </trkpt>
      <trkpt lat="39.232715" lon="-8.68644">
        <ele>107.0</ele>
        <time>2019-05-16T17:58:40.928Z</time>
      </trkpt>
      <trkpt lat="39.232715" lon="-8.68644">
        <ele>107.0</ele>
        <time>2019-05-16T17:58:41.907Z</time>
      </trkpt>
      <trkpt lat="39.23275167" lon="-8.68642833">
        <ele>107.0</ele>
        <time>2019-05-16T17:58:42.925Z</time>
      </trkpt>
      <trkpt lat="39.23275167" lon="-8.68642833">
        <ele>107.0</ele>
        <time>2019-05-16T17:58:43.904Z</time>
      </trkpt>
      <trkpt lat="39.23279167" lon="-8.68641">
        <ele>107.0</ele>
        <time>2019-05-16T17:58:44.918Z</time>
      </trkpt>
      <trkpt lat="39.23279167" lon="-8.68641">
        <ele>107.0</ele>
        <time>2019-05-16T17:58:45.904Z</time>
      </trkpt>
      <trkpt lat="39.23283333" lon="-8.68638333">
        <ele>107.0</ele>
        <time>2019-05-16T17:58:46.901Z</time>
      </trkpt>
      <trkpt lat="39.23283333" lon="-8.68638333">
        <ele>107.0</ele>
        <time>2019-05-16T17:58:47.902Z</time>
      </trkpt>
      <trkpt lat="39.23287333" lon="-8.68636">
        <ele>107.0</ele>
        <time>2019-05-16T17:58:48.917Z</time>
      </trkpt>
      <trkpt lat="39.23287333" lon="-8.68636">
        <ele>107.0</ele>
        <time>2019-05-16T17:58:49.902Z</time>
      </trkpt>
      <trkpt lat="39.23290833" lon="-8.686335">
        <ele>107.0</ele>
        <time>2019-05-16T17:58:50.939Z</time>
      </trkpt>
      <trkpt lat="39.23290833" lon="-8.686335">
        <ele>107.0</ele>
        <time>2019-05-16T17:58:51.923Z</time>
      </trkpt>
      <trkpt lat="39.23294667" lon="-8.68631167">
        <ele>108.0</ele>
        <time>2019-05-16T17:58:52.936Z</time>
      </trkpt>
      <trkpt lat="39.23294667" lon="-8.68631167">
        <ele>108.0</ele>
        <time>2019-05-16T17:58:53.918Z</time>
      </trkpt>
      <trkpt lat="39.23299167" lon="-8.68629833">
        <ele>108.0</ele>
        <time>2019-05-16T17:58:54.932Z</time>
      </trkpt>
      <trkpt lat="39.23299167" lon="-8.68629833">
        <ele>108.0</ele>
        <time>2019-05-16T17:58:55.919Z</time>
      </trkpt>
      <trkpt lat="39.23303833" lon="-8.686295">
        <ele>108.0</ele>
        <time>2019-05-16T17:58:56.930Z</time>
      </trkpt>
      <trkpt lat="39.23303833" lon="-8.686295">
        <ele>108.0</ele>
        <time>2019-05-16T17:58:57.919Z</time>
      </trkpt>
      <trkpt lat="39.23307667" lon="-8.68628167">
        <ele>108.0</ele>
        <time>2019-05-16T17:58:58.930Z</time>
      </trkpt>
      <trkpt lat="39.23307667" lon="-8.68628167">
        <ele>108.0</ele>
        <time>2019-05-16T17:58:59.899Z</time>
      </trkpt>
      <trkpt lat="39.23311167" lon="-8.68626167">
        <ele>108.0</ele>
        <time>2019-05-16T17:59:00.919Z</time>
      </trkpt>
      <trkpt lat="39.23311167" lon="-8.68626167">
        <ele>108.0</ele>
        <time>2019-05-16T17:59:01.902Z</time>
      </trkpt>
      <trkpt lat="39.23315167" lon="-8.68624333">
        <ele>108.0</ele>
        <time>2019-05-16T17:59:02.928Z</time>
      </trkpt>
      <trkpt lat="39.23315167" lon="-8.68624333">
        <ele>108.0</ele>
        <time>2019-05-16T17:59:03.909Z</time>
      </trkpt>
      <trkpt lat="39.23318833" lon="-8.68622833">
        <ele>107.0</ele>
        <time>2019-05-16T17:59:04.898Z</time>
      </trkpt>
      <trkpt lat="39.23318833" lon="-8.68622833">
        <ele>107.0</ele>
        <time>2019-05-16T17:59:05.923Z</time>
      </trkpt>
      <trkpt lat="39.23322833" lon="-8.68620167">
        <ele>107.0</ele>
        <time>2019-05-16T17:59:06.897Z</time>
      </trkpt>
      <trkpt lat="39.23324833" lon="-8.686185">
        <ele>107.0</ele>
        <time>2019-05-16T17:59:07.940Z</time>
      </trkpt>
      <trkpt lat="39.23324833" lon="-8.686185">
        <ele>107.0</ele>
        <time>2019-05-16T17:59:08.910Z</time>
      </trkpt>
      <trkpt lat="39.23328" lon="-8.68623833">
        <ele>108.0</ele>
        <time>2019-05-16T17:59:09.926Z</time>
      </trkpt>
      <trkpt lat="39.23329833" lon="-8.68623">
        <ele>108.0</ele>
        <time>2019-05-16T17:59:10.914Z</time>
      </trkpt>
      <trkpt lat="39.23329833" lon="-8.68623">
        <ele>108.0</ele>
        <time>2019-05-16T17:59:11.899Z</time>
      </trkpt>
      <trkpt lat="39.233335" lon="-8.68616833">
        <ele>108.0</ele>
        <time>2019-05-16T17:59:12.931Z</time>
      </trkpt>
      <trkpt lat="39.233335" lon="-8.68616833">
        <ele>108.0</ele>
        <time>2019-05-16T17:59:13.897Z</time>
      </trkpt>
      <trkpt lat="39.233365" lon="-8.68611333">
        <ele>108.0</ele>
        <time>2019-05-16T17:59:14.907Z</time>
      </trkpt>
      <trkpt lat="39.233365" lon="-8.68611333">
        <ele>108.0</ele>
        <time>2019-05-16T17:59:15.931Z</time>
      </trkpt>
      <trkpt lat="39.23340333" lon="-8.68606333">
        <ele>107.0</ele>
        <time>2019-05-16T17:59:16.909Z</time>
      </trkpt>
      <trkpt lat="39.23342167" lon="-8.68603833">
        <ele>107.0</ele>
        <time>2019-05-16T17:59:17.913Z</time>
      </trkpt>
      <trkpt lat="39.23342167" lon="-8.68603833">
        <ele>107.0</ele>
        <time>2019-05-16T17:59:18.927Z</time>
      </trkpt>
      <trkpt lat="39.23346" lon="-8.68598167">
        <ele>107.0</ele>
        <time>2019-05-16T17:59:19.911Z</time>
      </trkpt>
      <trkpt lat="39.23348333" lon="-8.68596333">
        <ele>107.0</ele>
        <time>2019-05-16T17:59:20.901Z</time>
      </trkpt>
      <trkpt lat="39.23348333" lon="-8.68596333">
        <ele>107.0</ele>
        <time>2019-05-16T17:59:21.913Z</time>
      </trkpt>
      <trkpt lat="39.23351667" lon="-8.68591333">
        <ele>107.0</ele>
        <time>2019-05-16T17:59:22.926Z</time>
      </trkpt>
      <trkpt lat="39.233515" lon="-8.685885">
        <ele>107.0</ele>
        <time>2019-05-16T17:59:23.917Z</time>
      </trkpt>
      <trkpt lat="39.233515" lon="-8.685885">
        <ele>107.0</ele>
        <time>2019-05-16T17:59:24.897Z</time>
      </trkpt>
      <trkpt lat="39.23350333" lon="-8.68582667">
        <ele>107.0</ele>
        <time>2019-05-16T17:59:25.905Z</time>
      </trkpt>
      <trkpt lat="39.23352333" lon="-8.68580333">
        <ele>107.0</ele>
        <time>2019-05-16T17:59:26.929Z</time>
      </trkpt>
      <trkpt lat="39.23352333" lon="-8.68580333">
        <ele>107.0</ele>
        <time>2019-05-16T17:59:27.913Z</time>
      </trkpt>
      <trkpt lat="39.23351833" lon="-8.68574833">
        <ele>107.0</ele>
        <time>2019-05-16T17:59:28.922Z</time>
      </trkpt>
      <trkpt lat="39.23351833" lon="-8.68574833">
        <ele>107.0</ele>
        <time>2019-05-16T17:59:29.911Z</time>
      </trkpt>
      <trkpt lat="39.23354167" lon="-8.68570333">
        <ele>106.0</ele>
        <time>2019-05-16T17:59:30.897Z</time>
      </trkpt>
      <trkpt lat="39.23354167" lon="-8.68570333">
        <ele>106.0</ele>
        <time>2019-05-16T17:59:31.899Z</time>
      </trkpt>
      <trkpt lat="39.23359333" lon="-8.68568333">
        <ele>107.0</ele>
        <time>2019-05-16T17:59:32.900Z</time>
      </trkpt>
      <trkpt lat="39.23359333" lon="-8.68568333">
        <ele>107.0</ele>
        <time>2019-05-16T17:59:33.912Z</time>
      </trkpt>
      <trkpt lat="39.23364167" lon="-8.68566833">
        <ele>107.0</ele>
        <time>2019-05-16T17:59:34.930Z</time>
      </trkpt>
      <trkpt lat="39.23364167" lon="-8.68566833">
        <ele>107.0</ele>
        <time>2019-05-16T17:59:35.933Z</time>
      </trkpt>
      <trkpt lat="39.233685" lon="-8.68563333">
        <ele>107.0</ele>
        <time>2019-05-16T17:59:36.903Z</time>
      </trkpt>
      <trkpt lat="39.233685" lon="-8.68563333">
        <ele>107.0</ele>
        <time>2019-05-16T17:59:37.902Z</time>
      </trkpt>
      <trkpt lat="39.23372667" lon="-8.68559167">
        <ele>107.0</ele>
        <time>2019-05-16T17:59:38.924Z</time>
      </trkpt>
      <trkpt lat="39.23372667" lon="-8.68559167">
        <ele>107.0</ele>
        <time>2019-05-16T17:59:39.903Z</time>
      </trkpt>
      <trkpt lat="39.23376167" lon="-8.68553833">
        <ele>106.0</ele>
        <time>2019-05-16T17:59:40.901Z</time>
      </trkpt>
      <trkpt lat="39.23376167" lon="-8.68553833">
        <ele>106.0</ele>
        <time>2019-05-16T17:59:41.933Z</time>
      </trkpt>
      <trkpt lat="39.23379667" lon="-8.68548333">
        <ele>106.0</ele>
        <time>2019-05-16T17:59:42.908Z</time>
      </trkpt>
      <trkpt lat="39.23379667" lon="-8.68548333">
        <ele>106.0</ele>
        <time>2019-05-16T17:59:43.909Z</time>
      </trkpt>
      <trkpt lat="39.23383167" lon="-8.685425">
        <ele>106.0</ele>
        <time>2019-05-16T17:59:44.941Z</time>
      </trkpt>
      <trkpt lat="39.23383167" lon="-8.685425">
        <ele>106.0</ele>
        <time>2019-05-16T17:59:45.902Z</time>
      </trkpt>
      <trkpt lat="39.23386333" lon="-8.68538667">
        <ele>106.0</ele>
        <time>2019-05-16T17:59:46.928Z</time>
      </trkpt>
      <trkpt lat="39.23386333" lon="-8.68538667">
        <ele>106.0</ele>
        <time>2019-05-16T17:59:47.912Z</time>
      </trkpt>
      <trkpt lat="39.23390333" lon="-8.68535833">
        <ele>106.0</ele>
        <time>2019-05-16T17:59:48.925Z</time>
      </trkpt>
      <trkpt lat="39.23393" lon="-8.68535333">
        <ele>106.0</ele>
        <time>2019-05-16T17:59:49.897Z</time>
      </trkpt>
      <trkpt lat="39.23395333" lon="-8.68535167">
        <ele>106.0</ele>
        <time>2019-05-16T17:59:50.902Z</time>
      </trkpt>
      <trkpt lat="39.23395333" lon="-8.68535167">
        <ele>106.0</ele>
        <time>2019-05-16T17:59:51.931Z</time>
      </trkpt>
      <trkpt lat="39.23399333" lon="-8.685365">
        <ele>106.0</ele>
        <time>2019-05-16T17:59:52.916Z</time>
      </trkpt>
      <trkpt lat="39.23399333" lon="-8.685365">
        <ele>106.0</ele>
        <time>2019-05-16T17:59:53.918Z</time>
      </trkpt>
      <trkpt lat="39.23401333" lon="-8.68538667">
        <ele>106.0</ele>
        <time>2019-05-16T17:59:54.911Z</time>
      </trkpt>
      <trkpt lat="39.23401333" lon="-8.68538667">
        <ele>106.0</ele>
        <time>2019-05-16T17:59:55.925Z</time>
      </trkpt>
      <trkpt lat="39.234035" lon="-8.68541833">
        <ele>106.0</ele>
        <time>2019-05-16T17:59:56.898Z</time>
      </trkpt>
      <trkpt lat="39.234035" lon="-8.68541833">
        <ele>106.0</ele>
        <time>2019-05-16T17:59:57.935Z</time>
      </trkpt>
      <trkpt lat="39.23404667" lon="-8.68546167">
        <ele>106.0</ele>
        <time>2019-05-16T17:59:58.915Z</time>
      </trkpt>
      <trkpt lat="39.23404667" lon="-8.68546167">
        <ele>106.0</ele>
        <time>2019-05-16T17:59:59.915Z</time>
      </trkpt>
      <trkpt lat="39.23406" lon="-8.68550167">
        <ele>105.0</ele>
        <time>2019-05-16T18:00:00.899Z</time>
      </trkpt>
      <trkpt lat="39.23406833" lon="-8.68552">
        <ele>105.0</ele>
        <time>2019-05-16T18:00:01.898Z</time>
      </trkpt>
      <trkpt lat="39.23407333" lon="-8.68553667">
        <ele>105.0</ele>
        <time>2019-05-16T18:00:02.915Z</time>
      </trkpt>
      <trkpt lat="39.23407333" lon="-8.68553667">
        <ele>105.0</ele>
        <time>2019-05-16T18:00:03.902Z</time>
      </trkpt>
      <trkpt lat="39.23408833" lon="-8.685565">
        <ele>105.0</ele>
        <time>2019-05-16T18:00:04.916Z</time>
      </trkpt>
      <trkpt lat="39.23408833" lon="-8.685565">
        <ele>105.0</ele>
        <time>2019-05-16T18:00:05.936Z</time>
      </trkpt>
      <trkpt lat="39.23411167" lon="-8.685585">
        <ele>105.0</ele>
        <time>2019-05-16T18:00:06.921Z</time>
      </trkpt>
      <trkpt lat="39.23411167" lon="-8.685585">
        <ele>105.0</ele>
        <time>2019-05-16T18:00:07.919Z</time>
      </trkpt>
      <trkpt lat="39.23413833" lon="-8.68561167">
        <ele>106.0</ele>
        <time>2019-05-16T18:00:08.901Z</time>
      </trkpt>
      <trkpt lat="39.23413833" lon="-8.68561167">
        <ele>106.0</ele>
        <time>2019-05-16T18:00:09.897Z</time>
      </trkpt>
      <trkpt lat="39.23416667" lon="-8.68564">
        <ele>106.0</ele>
        <time>2019-05-16T18:00:10.926Z</time>
      </trkpt>
      <trkpt lat="39.23416667" lon="-8.68564">
        <ele>106.0</ele>
        <time>2019-05-16T18:00:11.913Z</time>
      </trkpt>
      <trkpt lat="39.23419333" lon="-8.685675">
        <ele>106.0</ele>
        <time>2019-05-16T18:00:12.904Z</time>
      </trkpt>
      <trkpt lat="39.23419333" lon="-8.685675">
        <ele>106.0</ele>
        <time>2019-05-16T18:00:13.903Z</time>
      </trkpt>
      <trkpt lat="39.23421833" lon="-8.68571167">
        <ele>106.0</ele>
        <time>2019-05-16T18:00:14.920Z</time>
      </trkpt>
      <trkpt lat="39.23421833" lon="-8.68571167">
        <ele>106.0</ele>
        <time>2019-05-16T18:00:15.933Z</time>
      </trkpt>
      <trkpt lat="39.23424833" lon="-8.68572667">
        <ele>106.0</ele>
        <time>2019-05-16T18:00:16.921Z</time>
      </trkpt>
      <trkpt lat="39.23424833" lon="-8.68572667">
        <ele>106.0</ele>
        <time>2019-05-16T18:00:17.933Z</time>
      </trkpt>
      <trkpt lat="39.23429167" lon="-8.68573">
        <ele>106.0</ele>
        <time>2019-05-16T18:00:18.912Z</time>
      </trkpt>
      <trkpt lat="39.23429167" lon="-8.68573">
        <ele>106.0</ele>
        <time>2019-05-16T18:00:19.899Z</time>
      </trkpt>
      <trkpt lat="39.23433333" lon="-8.685745">
        <ele>107.0</ele>
        <time>2019-05-16T18:00:20.921Z</time>
      </trkpt>
      <trkpt lat="39.234355" lon="-8.68575667">
        <ele>107.0</ele>
        <time>2019-05-16T18:00:21.897Z</time>
      </trkpt>
      <trkpt lat="39.23437833" lon="-8.685765">
        <ele>107.0</ele>
        <time>2019-05-16T18:00:22.932Z</time>
      </trkpt>
      <trkpt lat="39.23437833" lon="-8.685765">
        <ele>107.0</ele>
        <time>2019-05-16T18:00:23.899Z</time>
      </trkpt>
      <trkpt lat="39.23442" lon="-8.685775">
        <ele>107.0</ele>
        <time>2019-05-16T18:00:24.917Z</time>
      </trkpt>
      <trkpt lat="39.23442" lon="-8.685775">
        <ele>107.0</ele>
        <time>2019-05-16T18:00:25.899Z</time>
      </trkpt>
      <trkpt lat="39.23446" lon="-8.68579333">
        <ele>107.0</ele>
        <time>2019-05-16T18:00:26.931Z</time>
      </trkpt>
      <trkpt lat="39.23446" lon="-8.68579333">
        <ele>107.0</ele>
        <time>2019-05-16T18:00:27.927Z</time>
      </trkpt>
      <trkpt lat="39.234485" lon="-8.68581833">
        <ele>107.0</ele>
        <time>2019-05-16T18:00:28.906Z</time>
      </trkpt>
      <trkpt lat="39.234485" lon="-8.68581833">
        <ele>107.0</ele>
        <time>2019-05-16T18:00:29.933Z</time>
      </trkpt>
      <trkpt lat="39.23451667" lon="-8.685825">
        <ele>106.0</ele>
        <time>2019-05-16T18:00:30.910Z</time>
      </trkpt>
      <trkpt lat="39.23451667" lon="-8.685825">
        <ele>106.0</ele>
        <time>2019-05-16T18:00:31.932Z</time>
      </trkpt>
      <trkpt lat="39.23456" lon="-8.68582667">
        <ele>106.0</ele>
        <time>2019-05-16T18:00:32.921Z</time>
      </trkpt>
      <trkpt lat="39.23456" lon="-8.68582667">
        <ele>106.0</ele>
        <time>2019-05-16T18:00:33.930Z</time>
      </trkpt>
      <trkpt lat="39.2346" lon="-8.68583167">
        <ele>106.0</ele>
        <time>2019-05-16T18:00:34.903Z</time>
      </trkpt>
      <trkpt lat="39.2346" lon="-8.68583167">
        <ele>106.0</ele>
        <time>2019-05-16T18:00:35.927Z</time>
      </trkpt>
      <trkpt lat="39.234635" lon="-8.68583667">
        <ele>106.0</ele>
        <time>2019-05-16T18:00:36.940Z</time>
      </trkpt>
      <trkpt lat="39.234635" lon="-8.68583667">
        <ele>106.0</ele>
        <time>2019-05-16T18:00:37.923Z</time>
      </trkpt>
      <trkpt lat="39.23468167" lon="-8.68584833">
        <ele>106.0</ele>
        <time>2019-05-16T18:00:38.899Z</time>
      </trkpt>
      <trkpt lat="39.23468167" lon="-8.68584833">
        <ele>106.0</ele>
        <time>2019-05-16T18:00:39.920Z</time>
      </trkpt>
      <trkpt lat="39.23472" lon="-8.685865">
        <ele>106.0</ele>
        <time>2019-05-16T18:00:40.927Z</time>
      </trkpt>
      <trkpt lat="39.23472" lon="-8.685865">
        <ele>106.0</ele>
        <time>2019-05-16T18:00:41.902Z</time>
      </trkpt>
      <trkpt lat="39.23476167" lon="-8.68588667">
        <ele>107.0</ele>
        <time>2019-05-16T18:00:42.918Z</time>
      </trkpt>
      <trkpt lat="39.23476167" lon="-8.68588667">
        <ele>107.0</ele>
        <time>2019-05-16T18:00:43.899Z</time>
      </trkpt>
      <trkpt lat="39.234815" lon="-8.68589667">
        <ele>107.0</ele>
        <time>2019-05-16T18:00:44.916Z</time>
      </trkpt>
      <trkpt lat="39.234815" lon="-8.68589667">
        <ele>107.0</ele>
        <time>2019-05-16T18:00:45.899Z</time>
      </trkpt>
      <trkpt lat="39.23486667" lon="-8.68591">
        <ele>108.0</ele>
        <time>2019-05-16T18:00:46.938Z</time>
      </trkpt>
      <trkpt lat="39.23486667" lon="-8.68591">
        <ele>108.0</ele>
        <time>2019-05-16T18:00:47.930Z</time>
      </trkpt>
      <trkpt lat="39.23490833" lon="-8.68591833">
        <ele>108.0</ele>
        <time>2019-05-16T18:00:48.916Z</time>
      </trkpt>
      <trkpt lat="39.23490833" lon="-8.68591833">
        <ele>108.0</ele>
        <time>2019-05-16T18:00:49.899Z</time>
      </trkpt>
      <trkpt lat="39.23495" lon="-8.685935">
        <ele>107.0</ele>
        <time>2019-05-16T18:00:50.900Z</time>
      </trkpt>
      <trkpt lat="39.23495" lon="-8.685935">
        <ele>107.0</ele>
        <time>2019-05-16T18:00:51.924Z</time>
      </trkpt>
      <trkpt lat="39.234995" lon="-8.68594667">
        <ele>107.0</ele>
        <time>2019-05-16T18:00:52.917Z</time>
      </trkpt>
      <trkpt lat="39.23501667" lon="-8.68596">
        <ele>107.0</ele>
        <time>2019-05-16T18:00:53.907Z</time>
      </trkpt>
      <trkpt lat="39.23501667" lon="-8.68596">
        <ele>107.0</ele>
        <time>2019-05-16T18:00:54.927Z</time>
      </trkpt>
      <trkpt lat="39.23505167" lon="-8.685985">
        <ele>107.0</ele>
        <time>2019-05-16T18:00:55.918Z</time>
      </trkpt>
      <trkpt lat="39.235065" lon="-8.685985">
        <ele>107.0</ele>
        <time>2019-05-16T18:00:56.919Z</time>
      </trkpt>
      <trkpt lat="39.235065" lon="-8.685985">
        <ele>107.0</ele>
        <time>2019-05-16T18:00:57.902Z</time>
      </trkpt>
      <trkpt lat="39.23507167" lon="-8.68598">
        <ele>106.0</ele>
        <time>2019-05-16T18:00:58.922Z</time>
      </trkpt>
      <trkpt lat="39.23507167" lon="-8.68598">
        <ele>106.0</ele>
        <time>2019-05-16T18:00:59.901Z</time>
      </trkpt>
      <trkpt lat="39.23507167" lon="-8.68598">
        <ele>106.0</ele>
        <time>2019-05-16T18:01:00.917Z</time>
      </trkpt>
      <trkpt lat="39.23507167" lon="-8.68598">
        <ele>106.0</ele>
        <time>2019-05-16T18:01:01.899Z</time>
      </trkpt>
      <trkpt lat="39.23507167" lon="-8.68598">
        <ele>106.0</ele>
        <time>2019-05-16T18:01:02.909Z</time>
      </trkpt>
      <trkpt lat="39.23507167" lon="-8.68598">
        <ele>106.0</ele>
        <time>2019-05-16T18:01:03.915Z</time>
      </trkpt>
      <trkpt lat="39.235055" lon="-8.68596833">
        <ele>107.0</ele>
        <time>2019-05-16T18:01:04.913Z</time>
      </trkpt>
      <trkpt lat="39.235055" lon="-8.68596833">
        <ele>107.0</ele>
        <time>2019-05-16T18:01:05.908Z</time>
      </trkpt>
      <trkpt lat="39.23504667" lon="-8.68597667">
        <ele>107.0</ele>
        <time>2019-05-16T18:01:06.936Z</time>
      </trkpt>
      <trkpt lat="39.23504667" lon="-8.68597667">
        <ele>107.0</ele>
        <time>2019-05-16T18:01:07.920Z</time>
      </trkpt>
      <trkpt lat="39.23503333" lon="-8.685985">
        <ele>107.0</ele>
        <time>2019-05-16T18:01:08.915Z</time>
      </trkpt>
      <trkpt lat="39.23503333" lon="-8.685985">
        <ele>107.0</ele>
        <time>2019-05-16T18:01:09.914Z</time>
      </trkpt>
      <trkpt lat="39.23503333" lon="-8.685985">
        <ele>107.0</ele>
        <time>2019-05-16T18:01:10.908Z</time>
      </trkpt>
      <trkpt lat="39.23503333" lon="-8.685985">
        <ele>107.0</ele>
        <time>2019-05-16T18:01:11.913Z</time>
      </trkpt>
      <trkpt lat="39.23503333" lon="-8.685985">
        <ele>107.0</ele>
        <time>2019-05-16T18:01:12.907Z</time>
      </trkpt>
      <trkpt lat="39.23503333" lon="-8.685985">
        <ele>107.0</ele>
        <time>2019-05-16T18:01:13.913Z</time>
      </trkpt>
      <trkpt lat="39.23503333" lon="-8.685985">
        <ele>107.0</ele>
        <time>2019-05-16T18:01:14.915Z</time>
      </trkpt>
      <trkpt lat="39.23503333" lon="-8.685985">
        <ele>107.0</ele>
        <time>2019-05-16T18:01:15.913Z</time>
      </trkpt>
      <trkpt lat="39.23503333" lon="-8.685985">
        <ele>107.0</ele>
        <time>2019-05-16T18:01:16.908Z</time>
      </trkpt>
      <trkpt lat="39.23503333" lon="-8.685985">
        <ele>107.0</ele>
        <time>2019-05-16T18:01:17.912Z</time>
      </trkpt>
      <trkpt lat="39.23503333" lon="-8.685985">
        <ele>107.0</ele>
        <time>2019-05-16T18:01:18.907Z</time>
      </trkpt>
      <trkpt lat="39.23503333" lon="-8.685985">
        <ele>107.0</ele>
        <time>2019-05-16T18:01:19.912Z</time>
      </trkpt>
      <trkpt lat="39.23503333" lon="-8.685985">
        <ele>107.0</ele>
        <time>2019-05-16T18:01:20.914Z</time>
      </trkpt>
      <trkpt lat="39.23503333" lon="-8.685985">
        <ele>107.0</ele>
        <time>2019-05-16T18:01:21.929Z</time>
      </trkpt>
      <trkpt lat="39.23503333" lon="-8.685985">
        <ele>107.0</ele>
        <time>2019-05-16T18:01:22.904Z</time>
      </trkpt>
      <trkpt lat="39.23503333" lon="-8.685985">
        <ele>107.0</ele>
        <time>2019-05-16T18:01:23.928Z</time>
      </trkpt>
      <trkpt lat="39.23503333" lon="-8.685985">
        <ele>107.0</ele>
        <time>2019-05-16T18:01:24.913Z</time>
      </trkpt>
      <trkpt lat="39.23503333" lon="-8.685985">
        <ele>107.0</ele>
        <time>2019-05-16T18:01:25.927Z</time>
      </trkpt>
      <trkpt lat="39.23503333" lon="-8.685985">
        <ele>107.0</ele>
        <time>2019-05-16T18:01:26.915Z</time>
      </trkpt>
      <trkpt lat="39.23503333" lon="-8.685985">
        <ele>107.0</ele>
        <time>2019-05-16T18:01:27.908Z</time>
      </trkpt>
      <trkpt lat="39.23503333" lon="-8.685985">
        <ele>107.0</ele>
        <time>2019-05-16T18:01:28.910Z</time>
      </trkpt>
      <trkpt lat="39.23503333" lon="-8.685985">
        <ele>107.0</ele>
        <time>2019-05-16T18:01:29.907Z</time>
      </trkpt>
      <trkpt lat="39.23503333" lon="-8.685985">
        <ele>107.0</ele>
        <time>2019-05-16T18:01:30.914Z</time>
      </trkpt>
      <trkpt lat="39.23503333" lon="-8.685985">
        <ele>107.0</ele>
        <time>2019-05-16T18:01:31.908Z</time>
      </trkpt>
      <trkpt lat="39.23503333" lon="-8.685985">
        <ele>107.0</ele>
        <time>2019-05-16T18:01:32.914Z</time>
      </trkpt>
      <trkpt lat="39.23503333" lon="-8.685985">
        <ele>107.0</ele>
        <time>2019-05-16T18:01:33.908Z</time>
      </trkpt>
      <trkpt lat="39.23503333" lon="-8.685985">
        <ele>107.0</ele>
        <time>2019-05-16T18:01:34.913Z</time>
      </trkpt>
      <trkpt lat="39.23503333" lon="-8.685985">
        <ele>107.0</ele>
        <time>2019-05-16T18:01:35.908Z</time>
      </trkpt>
      <trkpt lat="39.23503333" lon="-8.685985">
        <ele>107.0</ele>
        <time>2019-05-16T18:01:36.912Z</time>
      </trkpt>
      <trkpt lat="39.23503333" lon="-8.685985">
        <ele>107.0</ele>
        <time>2019-05-16T18:01:37.913Z</time>
      </trkpt>
      <trkpt lat="39.23503333" lon="-8.685985">
        <ele>107.0</ele>
        <time>2019-05-16T18:01:38.915Z</time>
      </trkpt>
      <trkpt lat="39.23503333" lon="-8.685985">
        <ele>107.0</ele>
        <time>2019-05-16T18:01:39.908Z</time>
      </trkpt>
      <trkpt lat="39.23503333" lon="-8.685985">
        <ele>107.0</ele>
        <time>2019-05-16T18:01:40.913Z</time>
      </trkpt>
      <trkpt lat="39.23503333" lon="-8.685985">
        <ele>107.0</ele>
        <time>2019-05-16T18:01:41.910Z</time>
      </trkpt>
      <trkpt lat="39.23503333" lon="-8.685985">
        <ele>107.0</ele>
        <time>2019-05-16T18:01:42.913Z</time>
      </trkpt>
      <trkpt lat="39.23503333" lon="-8.685985">
        <ele>107.0</ele>
        <time>2019-05-16T18:01:43.908Z</time>
      </trkpt>
      <trkpt lat="39.23503333" lon="-8.685985">
        <ele>107.0</ele>
        <time>2019-05-16T18:01:44.915Z</time>
      </trkpt>
      <trkpt lat="39.23503333" lon="-8.685985">
        <ele>107.0</ele>
        <time>2019-05-16T18:01:45.910Z</time>
      </trkpt>
      <trkpt lat="39.23503333" lon="-8.685985">
        <ele>107.0</ele>
        <time>2019-05-16T18:01:46.905Z</time>
      </trkpt>
      <trkpt lat="39.23503333" lon="-8.685985">
        <ele>107.0</ele>
        <time>2019-05-16T18:01:47.908Z</time>
      </trkpt>
      <trkpt lat="39.23503333" lon="-8.685985">
        <ele>107.0</ele>
        <time>2019-05-16T18:01:48.912Z</time>
      </trkpt>
      <trkpt lat="39.23503333" lon="-8.685985">
        <ele>107.0</ele>
        <time>2019-05-16T18:01:49.913Z</time>
      </trkpt>
      <trkpt lat="39.23503333" lon="-8.685985">
        <ele>107.0</ele>
        <time>2019-05-16T18:01:50.935Z</time>
      </trkpt>
      <trkpt lat="39.23503333" lon="-8.685985">
        <ele>107.0</ele>
        <time>2019-05-16T18:01:51.920Z</time>
      </trkpt>
      <trkpt lat="39.23503333" lon="-8.685985">
        <ele>107.0</ele>
        <time>2019-05-16T18:01:52.908Z</time>
      </trkpt>
      <trkpt lat="39.23503333" lon="-8.685985">
        <ele>107.0</ele>
        <time>2019-05-16T18:01:53.912Z</time>
      </trkpt>
      <trkpt lat="39.23503333" lon="-8.685985">
        <ele>107.0</ele>
        <time>2019-05-16T18:01:54.907Z</time>
      </trkpt>
      <trkpt lat="39.23503333" lon="-8.685985">
        <ele>107.0</ele>
        <time>2019-05-16T18:01:55.932Z</time>
      </trkpt>
      <trkpt lat="39.23503333" lon="-8.685985">
        <ele>107.0</ele>
        <time>2019-05-16T18:01:56.899Z</time>
      </trkpt>
      <trkpt lat="39.23503333" lon="-8.685985">
        <ele>107.0</ele>
        <time>2019-05-16T18:01:57.924Z</time>
      </trkpt>
      <trkpt lat="39.23503333" lon="-8.685985">
        <ele>107.0</ele>
        <time>2019-05-16T18:01:58.910Z</time>
      </trkpt>
      <trkpt lat="39.23503333" lon="-8.685985">
        <ele>107.0</ele>
        <time>2019-05-16T18:01:59.912Z</time>
      </trkpt>
      <trkpt lat="39.23503333" lon="-8.685985">
        <ele>107.0</ele>
        <time>2019-05-16T18:02:00.912Z</time>
      </trkpt>
      <trkpt lat="39.23503333" lon="-8.685985">
        <ele>107.0</ele>
        <time>2019-05-16T18:02:01.911Z</time>
      </trkpt>
      <trkpt lat="39.23501" lon="-8.68596667">
        <ele>106.0</ele>
        <time>2019-05-16T18:02:02.930Z</time>
      </trkpt>
      <trkpt lat="39.23501" lon="-8.68596667">
        <ele>106.0</ele>
        <time>2019-05-16T18:02:03.916Z</time>
      </trkpt>
      <trkpt lat="39.234985" lon="-8.68596">
        <ele>106.0</ele>
        <time>2019-05-16T18:02:04.913Z</time>
      </trkpt>
      <trkpt lat="39.234985" lon="-8.68596">
        <ele>106.0</ele>
        <time>2019-05-16T18:02:05.907Z</time>
      </trkpt>
      <trkpt lat="39.234945" lon="-8.68595667">
        <ele>106.0</ele>
        <time>2019-05-16T18:02:06.933Z</time>
      </trkpt>
      <trkpt lat="39.234945" lon="-8.68595667">
        <ele>106.0</ele>
        <time>2019-05-16T18:02:07.915Z</time>
      </trkpt>
      <trkpt lat="39.234905" lon="-8.68594833">
        <ele>106.0</ele>
        <time>2019-05-16T18:02:08.936Z</time>
      </trkpt>
      <trkpt lat="39.234905" lon="-8.68594833">
        <ele>106.0</ele>
        <time>2019-05-16T18:02:09.912Z</time>
      </trkpt>
      <trkpt lat="39.23487" lon="-8.68592833">
        <ele>106.0</ele>
        <time>2019-05-16T18:02:10.926Z</time>
      </trkpt>
      <trkpt lat="39.23487" lon="-8.68592833">
        <ele>106.0</ele>
        <time>2019-05-16T18:02:11.918Z</time>
      </trkpt>
      <trkpt lat="39.23482667" lon="-8.68590667">
        <ele>106.0</ele>
        <time>2019-05-16T18:02:12.929Z</time>
      </trkpt>
      <trkpt lat="39.23482667" lon="-8.68590667">
        <ele>106.0</ele>
        <time>2019-05-16T18:02:13.904Z</time>
      </trkpt>
      <trkpt lat="39.23478" lon="-8.685895">
        <ele>106.0</ele>
        <time>2019-05-16T18:02:14.928Z</time>
      </trkpt>
      <trkpt lat="39.23478" lon="-8.685895">
        <ele>106.0</ele>
        <time>2019-05-16T18:02:15.908Z</time>
      </trkpt>
      <trkpt lat="39.23473833" lon="-8.68588167">
        <ele>106.0</ele>
        <time>2019-05-16T18:02:16.931Z</time>
      </trkpt>
      <trkpt lat="39.23473833" lon="-8.68588167">
        <ele>106.0</ele>
        <time>2019-05-16T18:02:17.913Z</time>
      </trkpt>
      <trkpt lat="39.23470667" lon="-8.68585833">
        <ele>106.0</ele>
        <time>2019-05-16T18:02:18.925Z</time>
      </trkpt>
      <trkpt lat="39.23470667" lon="-8.68585833">
        <ele>106.0</ele>
        <time>2019-05-16T18:02:19.936Z</time>
      </trkpt>
      <trkpt lat="39.234685" lon="-8.68582667">
        <ele>106.0</ele>
        <time>2019-05-16T18:02:20.941Z</time>
      </trkpt>
      <trkpt lat="39.234685" lon="-8.68582667">
        <ele>106.0</ele>
        <time>2019-05-16T18:02:21.912Z</time>
      </trkpt>
      <trkpt lat="39.234695" lon="-8.68579333">
        <ele>107.0</ele>
        <time>2019-05-16T18:02:22.926Z</time>
      </trkpt>
      <trkpt lat="39.23470333" lon="-8.68577833">
        <ele>107.0</ele>
        <time>2019-05-16T18:02:23.917Z</time>
      </trkpt>
      <trkpt lat="39.23470333" lon="-8.68577833">
        <ele>107.0</ele>
        <time>2019-05-16T18:02:24.902Z</time>
      </trkpt>
      <trkpt lat="39.23473" lon="-8.68574333">
        <ele>108.0</ele>
        <time>2019-05-16T18:02:25.901Z</time>
      </trkpt>
      <trkpt lat="39.23474667" lon="-8.68572167">
        <ele>108.0</ele>
        <time>2019-05-16T18:02:26.915Z</time>
      </trkpt>
      <trkpt lat="39.23474667" lon="-8.68572167">
        <ele>108.0</ele>
        <time>2019-05-16T18:02:27.924Z</time>
      </trkpt>
      <trkpt lat="39.234775" lon="-8.68568">
        <ele>108.0</ele>
        <time>2019-05-16T18:02:28.936Z</time>
      </trkpt>
      <trkpt lat="39.23478833" lon="-8.68566333">
        <ele>108.0</ele>
        <time>2019-05-16T18:02:29.926Z</time>
      </trkpt>
      <trkpt lat="39.23478833" lon="-8.68566333">
        <ele>108.0</ele>
        <time>2019-05-16T18:02:30.906Z</time>
      </trkpt>
      <trkpt lat="39.23481333" lon="-8.68561667">
        <ele>109.0</ele>
        <time>2019-05-16T18:02:31.918Z</time>
      </trkpt>
      <trkpt lat="39.23482833" lon="-8.6856">
        <ele>109.0</ele>
        <time>2019-05-16T18:02:32.903Z</time>
      </trkpt>
      <trkpt lat="39.23482833" lon="-8.6856">
        <ele>109.0</ele>
        <time>2019-05-16T18:02:33.924Z</time>
      </trkpt>
      <trkpt lat="39.23485" lon="-8.68556">
        <ele>109.0</ele>
        <time>2019-05-16T18:02:34.898Z</time>
      </trkpt>
      <trkpt lat="39.23485" lon="-8.68556">
        <ele>109.0</ele>
        <time>2019-05-16T18:02:35.921Z</time>
      </trkpt>
      <trkpt lat="39.23487333" lon="-8.68552833">
        <ele>109.0</ele>
        <time>2019-05-16T18:02:36.910Z</time>
      </trkpt>
      <trkpt lat="39.23488333" lon="-8.6855">
        <ele>109.0</ele>
        <time>2019-05-16T18:02:37.929Z</time>
      </trkpt>
      <trkpt lat="39.23489167" lon="-8.68546833">
        <ele>109.0</ele>
        <time>2019-05-16T18:02:38.920Z</time>
      </trkpt>
      <trkpt lat="39.23489167" lon="-8.68546833">
        <ele>109.0</ele>
        <time>2019-05-16T18:02:39.902Z</time>
      </trkpt>
      <trkpt lat="39.23491667" lon="-8.68541167">
        <ele>109.0</ele>
        <time>2019-05-16T18:02:40.918Z</time>
      </trkpt>
      <trkpt lat="39.23491667" lon="-8.68541167">
        <ele>109.0</ele>
        <time>2019-05-16T18:02:41.913Z</time>
      </trkpt>
      <trkpt lat="39.23495167" lon="-8.685365">
        <ele>110.0</ele>
        <time>2019-05-16T18:02:42.932Z</time>
      </trkpt>
      <trkpt lat="39.23496833" lon="-8.68534167">
        <ele>111.0</ele>
        <time>2019-05-16T18:02:43.903Z</time>
      </trkpt>
      <trkpt lat="39.23496833" lon="-8.68534167">
        <ele>111.0</ele>
        <time>2019-05-16T18:02:44.913Z</time>
      </trkpt>
      <trkpt lat="39.235" lon="-8.68529167">
        <ele>111.0</ele>
        <time>2019-05-16T18:02:45.931Z</time>
      </trkpt>
      <trkpt lat="39.235" lon="-8.68529167">
        <ele>111.0</ele>
        <time>2019-05-16T18:02:46.933Z</time>
      </trkpt>
      <trkpt lat="39.23502333" lon="-8.685255">
        <ele>111.0</ele>
        <time>2019-05-16T18:02:47.911Z</time>
      </trkpt>
      <trkpt lat="39.23502667" lon="-8.68523833">
        <ele>111.0</ele>
        <time>2019-05-16T18:02:48.916Z</time>
      </trkpt>
      <trkpt lat="39.23502667" lon="-8.68523833">
        <ele>111.0</ele>
        <time>2019-05-16T18:02:49.908Z</time>
      </trkpt>
      <trkpt lat="39.23503833" lon="-8.68520667">
        <ele>111.0</ele>
        <time>2019-05-16T18:02:50.921Z</time>
      </trkpt>
      <trkpt lat="39.23503833" lon="-8.68520667">
        <ele>111.0</ele>
        <time>2019-05-16T18:02:51.902Z</time>
      </trkpt>
      <trkpt lat="39.23506167" lon="-8.68517167">
        <ele>111.0</ele>
        <time>2019-05-16T18:02:52.938Z</time>
      </trkpt>
      <trkpt lat="39.23507667" lon="-8.68515167">
        <ele>111.0</ele>
        <time>2019-05-16T18:02:53.930Z</time>
      </trkpt>
      <trkpt lat="39.23507667" lon="-8.68515167">
        <ele>111.0</ele>
        <time>2019-05-16T18:02:54.906Z</time>
      </trkpt>
      <trkpt lat="39.23510667" lon="-8.68511">
        <ele>111.0</ele>
        <time>2019-05-16T18:02:55.939Z</time>
      </trkpt>
      <trkpt lat="39.23512167" lon="-8.68508833">
        <ele>111.0</ele>
        <time>2019-05-16T18:02:56.913Z</time>
      </trkpt>
      <trkpt lat="39.23512167" lon="-8.68508833">
        <ele>111.0</ele>
        <time>2019-05-16T18:02:57.913Z</time>
      </trkpt>
      <trkpt lat="39.23515167" lon="-8.68504">
        <ele>112.0</ele>
        <time>2019-05-16T18:02:58.900Z</time>
      </trkpt>
      <trkpt lat="39.23515167" lon="-8.68504">
        <ele>112.0</ele>
        <time>2019-05-16T18:02:59.900Z</time>
      </trkpt>
      <trkpt lat="39.23518" lon="-8.684995">
        <ele>112.0</ele>
        <time>2019-05-16T18:03:00.921Z</time>
      </trkpt>
      <trkpt lat="39.23520167" lon="-8.68497167">
        <ele>112.0</ele>
        <time>2019-05-16T18:03:01.909Z</time>
      </trkpt>
      <trkpt lat="39.23522167" lon="-8.68495">
        <ele>112.0</ele>
        <time>2019-05-16T18:03:02.921Z</time>
      </trkpt>
      <trkpt lat="39.23522167" lon="-8.68495">
        <ele>112.0</ele>
        <time>2019-05-16T18:03:03.910Z</time>
      </trkpt>
      <trkpt lat="39.23525833" lon="-8.68491333">
        <ele>113.0</ele>
        <time>2019-05-16T18:03:04.935Z</time>
      </trkpt>
      <trkpt lat="39.23525833" lon="-8.68491333">
        <ele>113.0</ele>
        <time>2019-05-16T18:03:05.898Z</time>
      </trkpt>
      <trkpt lat="39.235295" lon="-8.684895">
        <ele>113.0</ele>
        <time>2019-05-16T18:03:06.917Z</time>
      </trkpt>
      <trkpt lat="39.235295" lon="-8.684895">
        <ele>113.0</ele>
        <time>2019-05-16T18:03:07.902Z</time>
      </trkpt>
      <trkpt lat="39.23532333" lon="-8.68488">
        <ele>113.0</ele>
        <time>2019-05-16T18:03:08.919Z</time>
      </trkpt>
      <trkpt lat="39.23532333" lon="-8.68488">
        <ele>113.0</ele>
        <time>2019-05-16T18:03:09.900Z</time>
      </trkpt>
      <trkpt lat="39.23535167" lon="-8.68485167">
        <ele>113.0</ele>
        <time>2019-05-16T18:03:10.913Z</time>
      </trkpt>
      <trkpt lat="39.23535167" lon="-8.68485167">
        <ele>113.0</ele>
        <time>2019-05-16T18:03:11.900Z</time>
      </trkpt>
      <trkpt lat="39.23537167" lon="-8.68481833">
        <ele>114.0</ele>
        <time>2019-05-16T18:03:12.933Z</time>
      </trkpt>
      <trkpt lat="39.23537167" lon="-8.68481833">
        <ele>114.0</ele>
        <time>2019-05-16T18:03:13.933Z</time>
      </trkpt>
      <trkpt lat="39.23538833" lon="-8.684795">
        <ele>114.0</ele>
        <time>2019-05-16T18:03:14.931Z</time>
      </trkpt>
      <trkpt lat="39.23538833" lon="-8.684795">
        <ele>114.0</ele>
        <time>2019-05-16T18:03:15.913Z</time>
      </trkpt>
      <trkpt lat="39.23540667" lon="-8.68476667">
        <ele>115.0</ele>
        <time>2019-05-16T18:03:16.898Z</time>
      </trkpt>
      <trkpt lat="39.23540667" lon="-8.68476667">
        <ele>115.0</ele>
        <time>2019-05-16T18:03:17.933Z</time>
      </trkpt>
      <trkpt lat="39.23542167" lon="-8.68475833">
        <ele>115.0</ele>
        <time>2019-05-16T18:03:18.906Z</time>
      </trkpt>
      <trkpt lat="39.23542167" lon="-8.68475833">
        <ele>115.0</ele>
        <time>2019-05-16T18:03:19.905Z</time>
      </trkpt>
      <trkpt lat="39.23542833" lon="-8.68475833">
        <ele>115.0</ele>
        <time>2019-05-16T18:03:20.960Z</time>
      </trkpt>
      <trkpt lat="39.23542833" lon="-8.68475833">
        <ele>115.0</ele>
        <time>2019-05-16T18:03:21.924Z</time>
      </trkpt>
      <trkpt lat="39.23542833" lon="-8.68475833">
        <ele>115.0</ele>
        <time>2019-05-16T18:03:22.930Z</time>
      </trkpt>
      <trkpt lat="39.23542833" lon="-8.68475833">
        <ele>115.0</ele>
        <time>2019-05-16T18:03:23.902Z</time>
      </trkpt>
      <trkpt lat="39.23542833" lon="-8.68475833">
        <ele>115.0</ele>
        <time>2019-05-16T18:03:24.921Z</time>
      </trkpt>
      <trkpt lat="39.23542833" lon="-8.68475833">
        <ele>115.0</ele>
        <time>2019-05-16T18:03:25.908Z</time>
      </trkpt>
      <trkpt lat="39.23542833" lon="-8.68475833">
        <ele>115.0</ele>
        <time>2019-05-16T18:03:26.915Z</time>
      </trkpt>
      <trkpt lat="39.23542833" lon="-8.68475833">
        <ele>115.0</ele>
        <time>2019-05-16T18:03:27.908Z</time>
      </trkpt>
      <trkpt lat="39.23542833" lon="-8.68475833">
        <ele>115.0</ele>
        <time>2019-05-16T18:03:28.910Z</time>
      </trkpt>
      <trkpt lat="39.23542833" lon="-8.68475833">
        <ele>115.0</ele>
        <time>2019-05-16T18:03:29.909Z</time>
      </trkpt>
      <trkpt lat="39.23542833" lon="-8.68475833">
        <ele>115.0</ele>
        <time>2019-05-16T18:03:30.915Z</time>
      </trkpt>
      <trkpt lat="39.23542833" lon="-8.68475833">
        <ele>115.0</ele>
        <time>2019-05-16T18:03:31.909Z</time>
      </trkpt>
      <trkpt lat="39.23542833" lon="-8.68475833">
        <ele>115.0</ele>
        <time>2019-05-16T18:03:32.912Z</time>
      </trkpt>
      <trkpt lat="39.23542833" lon="-8.68475833">
        <ele>115.0</ele>
        <time>2019-05-16T18:03:33.913Z</time>
      </trkpt>
      <trkpt lat="39.23542833" lon="-8.68475833">
        <ele>115.0</ele>
        <time>2019-05-16T18:03:34.908Z</time>
      </trkpt>
      <trkpt lat="39.23542833" lon="-8.68475833">
        <ele>115.0</ele>
        <time>2019-05-16T18:03:35.914Z</time>
      </trkpt>
      <trkpt lat="39.23542833" lon="-8.68475833">
        <ele>115.0</ele>
        <time>2019-05-16T18:03:36.908Z</time>
      </trkpt>
      <trkpt lat="39.23542833" lon="-8.68475833">
        <ele>115.0</ele>
        <time>2019-05-16T18:03:37.906Z</time>
      </trkpt>
      <trkpt lat="39.23542833" lon="-8.68475833">
        <ele>115.0</ele>
        <time>2019-05-16T18:03:38.915Z</time>
      </trkpt>
      <trkpt lat="39.23542833" lon="-8.68475833">
        <ele>115.0</ele>
        <time>2019-05-16T18:03:39.921Z</time>
      </trkpt>
      <trkpt lat="39.23542833" lon="-8.68475833">
        <ele>115.0</ele>
        <time>2019-05-16T18:03:40.911Z</time>
      </trkpt>
      <trkpt lat="39.23542833" lon="-8.68475833">
        <ele>115.0</ele>
        <time>2019-05-16T18:03:41.908Z</time>
      </trkpt>
      <trkpt lat="39.23542833" lon="-8.68475833">
        <ele>115.0</ele>
        <time>2019-05-16T18:03:42.927Z</time>
      </trkpt>
      <trkpt lat="39.23542833" lon="-8.68475833">
        <ele>115.0</ele>
        <time>2019-05-16T18:03:43.913Z</time>
      </trkpt>
      <trkpt lat="39.23542833" lon="-8.68475833">
        <ele>115.0</ele>
        <time>2019-05-16T18:03:44.915Z</time>
      </trkpt>
      <trkpt lat="39.23542833" lon="-8.68475833">
        <ele>115.0</ele>
        <time>2019-05-16T18:03:45.908Z</time>
      </trkpt>
      <trkpt lat="39.23542833" lon="-8.68475833">
        <ele>115.0</ele>
        <time>2019-05-16T18:03:46.913Z</time>
      </trkpt>
      <trkpt lat="39.23542833" lon="-8.68475833">
        <ele>115.0</ele>
        <time>2019-05-16T18:03:47.918Z</time>
      </trkpt>
      <trkpt lat="39.23542833" lon="-8.68475833">
        <ele>115.0</ele>
        <time>2019-05-16T18:03:48.913Z</time>
      </trkpt>
      <trkpt lat="39.23542833" lon="-8.68475833">
        <ele>115.0</ele>
        <time>2019-05-16T18:03:49.911Z</time>
      </trkpt>
      <trkpt lat="39.235415" lon="-8.6848">
        <ele>115.0</ele>
        <time>2019-05-16T18:03:50.915Z</time>
      </trkpt>
      <trkpt lat="39.235415" lon="-8.6848">
        <ele>115.0</ele>
        <time>2019-05-16T18:03:51.908Z</time>
      </trkpt>
      <trkpt lat="39.23538833" lon="-8.68483">
        <ele>114.0</ele>
        <time>2019-05-16T18:03:52.913Z</time>
      </trkpt>
      <trkpt lat="39.23538833" lon="-8.68483">
        <ele>114.0</ele>
        <time>2019-05-16T18:03:53.908Z</time>
      </trkpt>
      <trkpt lat="39.23535" lon="-8.684865">
        <ele>114.0</ele>
        <time>2019-05-16T18:03:54.913Z</time>
      </trkpt>
      <trkpt lat="39.23535" lon="-8.684865">
        <ele>114.0</ele>
        <time>2019-05-16T18:03:55.908Z</time>
      </trkpt>
      <trkpt lat="39.23531" lon="-8.68490833">
        <ele>114.0</ele>
        <time>2019-05-16T18:03:56.897Z</time>
      </trkpt>
      <trkpt lat="39.23531" lon="-8.68490833">
        <ele>114.0</ele>
        <time>2019-05-16T18:03:57.900Z</time>
      </trkpt>
      <trkpt lat="39.23526667" lon="-8.68495667">
        <ele>113.0</ele>
        <time>2019-05-16T18:03:58.919Z</time>
      </trkpt>
      <trkpt lat="39.23526667" lon="-8.68495667">
        <ele>113.0</ele>
        <time>2019-05-16T18:03:59.927Z</time>
      </trkpt>
      <trkpt lat="39.23523167" lon="-8.685015">
        <ele>113.0</ele>
        <time>2019-05-16T18:04:00.908Z</time>
      </trkpt>
      <trkpt lat="39.23523167" lon="-8.685015">
        <ele>113.0</ele>
        <time>2019-05-16T18:04:01.927Z</time>
      </trkpt>
      <trkpt lat="39.23521" lon="-8.68505">
        <ele>113.0</ele>
        <time>2019-05-16T18:04:02.901Z</time>
      </trkpt>
      <trkpt lat="39.23521" lon="-8.68505">
        <ele>113.0</ele>
        <time>2019-05-16T18:04:03.916Z</time>
      </trkpt>
      <trkpt lat="39.23520333" lon="-8.685095">
        <ele>113.0</ele>
        <time>2019-05-16T18:04:04.898Z</time>
      </trkpt>
      <trkpt lat="39.23519667" lon="-8.68509667">
        <ele>114.0</ele>
        <time>2019-05-16T18:04:05.909Z</time>
      </trkpt>
      <trkpt lat="39.23519667" lon="-8.68509667">
        <ele>114.0</ele>
        <time>2019-05-16T18:04:06.933Z</time>
      </trkpt>
      <trkpt lat="39.235195" lon="-8.68510333">
        <ele>114.0</ele>
        <time>2019-05-16T18:04:07.927Z</time>
      </trkpt>
      <trkpt lat="39.235195" lon="-8.68510333">
        <ele>114.0</ele>
        <time>2019-05-16T18:04:08.917Z</time>
      </trkpt>
      <trkpt lat="39.235195" lon="-8.68510333">
        <ele>114.0</ele>
        <time>2019-05-16T18:04:09.923Z</time>
      </trkpt>
      <trkpt lat="39.235195" lon="-8.68510333">
        <ele>114.0</ele>
        <time>2019-05-16T18:04:10.929Z</time>
      </trkpt>
      <trkpt lat="39.235195" lon="-8.68510333">
        <ele>114.0</ele>
        <time>2019-05-16T18:04:11.936Z</time>
      </trkpt>
      <trkpt lat="39.235195" lon="-8.68510333">
        <ele>114.0</ele>
        <time>2019-05-16T18:04:12.904Z</time>
      </trkpt>
      <trkpt lat="39.235195" lon="-8.68510333">
        <ele>114.0</ele>
        <time>2019-05-16T18:04:13.910Z</time>
      </trkpt>
      <trkpt lat="39.235195" lon="-8.68510333">
        <ele>114.0</ele>
        <time>2019-05-16T18:04:14.916Z</time>
      </trkpt>
      <trkpt lat="39.235195" lon="-8.68510333">
        <ele>114.0</ele>
        <time>2019-05-16T18:04:15.908Z</time>
      </trkpt>
      <trkpt lat="39.235195" lon="-8.68510333">
        <ele>114.0</ele>
        <time>2019-05-16T18:04:16.913Z</time>
      </trkpt>
      <trkpt lat="39.235195" lon="-8.68510333">
        <ele>114.0</ele>
        <time>2019-05-16T18:04:17.908Z</time>
      </trkpt>
      <trkpt lat="39.235195" lon="-8.68510333">
        <ele>114.0</ele>
        <time>2019-05-16T18:04:18.913Z</time>
      </trkpt>
      <trkpt lat="39.235195" lon="-8.68510333">
        <ele>114.0</ele>
        <time>2019-05-16T18:04:19.908Z</time>
      </trkpt>
      <trkpt lat="39.235195" lon="-8.68510333">
        <ele>114.0</ele>
        <time>2019-05-16T18:04:20.923Z</time>
      </trkpt>
      <trkpt lat="39.235195" lon="-8.68510333">
        <ele>114.0</ele>
        <time>2019-05-16T18:04:21.899Z</time>
      </trkpt>
      <trkpt lat="39.23519" lon="-8.68515333">
        <ele>115.0</ele>
        <time>2019-05-16T18:04:22.906Z</time>
      </trkpt>
      <trkpt lat="39.23519" lon="-8.68515333">
        <ele>115.0</ele>
        <time>2019-05-16T18:04:23.912Z</time>
      </trkpt>
      <trkpt lat="39.23520667" lon="-8.68515333">
        <ele>115.0</ele>
        <time>2019-05-16T18:04:24.911Z</time>
      </trkpt>
      <trkpt lat="39.23520667" lon="-8.68515333">
        <ele>115.0</ele>
        <time>2019-05-16T18:04:25.928Z</time>
      </trkpt>
      <trkpt lat="39.235225" lon="-8.685155">
        <ele>115.0</ele>
        <time>2019-05-16T18:04:26.916Z</time>
      </trkpt>
      <trkpt lat="39.235225" lon="-8.685155">
        <ele>115.0</ele>
        <time>2019-05-16T18:04:27.908Z</time>
      </trkpt>
      <trkpt lat="39.23525833" lon="-8.68514333">
        <ele>115.0</ele>
        <time>2019-05-16T18:04:28.914Z</time>
      </trkpt>
      <trkpt lat="39.23525833" lon="-8.68514333">
        <ele>115.0</ele>
        <time>2019-05-16T18:04:29.910Z</time>
      </trkpt>
      <trkpt lat="39.23529667" lon="-8.68514">
        <ele>115.0</ele>
        <time>2019-05-16T18:04:30.910Z</time>
      </trkpt>
      <trkpt lat="39.23529667" lon="-8.68514">
        <ele>115.0</ele>
        <time>2019-05-16T18:04:31.907Z</time>
      </trkpt>
      <trkpt lat="39.23534167" lon="-8.68513333">
        <ele>115.0</ele>
        <time>2019-05-16T18:04:32.942Z</time>
      </trkpt>
      <trkpt lat="39.23534167" lon="-8.68513333">
        <ele>115.0</ele>
        <time>2019-05-16T18:04:33.920Z</time>
      </trkpt>
      <trkpt lat="39.23539" lon="-8.685135">
        <ele>115.0</ele>
        <time>2019-05-16T18:04:34.905Z</time>
      </trkpt>
      <trkpt lat="39.23539" lon="-8.685135">
        <ele>115.0</ele>
        <time>2019-05-16T18:04:35.902Z</time>
      </trkpt>
      <trkpt lat="39.23543167" lon="-8.685125">
        <ele>115.0</ele>
        <time>2019-05-16T18:04:36.916Z</time>
      </trkpt>
      <trkpt lat="39.23544333" lon="-8.68512167">
        <ele>115.0</ele>
        <time>2019-05-16T18:04:37.913Z</time>
      </trkpt>
      <trkpt lat="39.23544333" lon="-8.68512167">
        <ele>115.0</ele>
        <time>2019-05-16T18:04:38.933Z</time>
      </trkpt>
      <trkpt lat="39.23548" lon="-8.68511833">
        <ele>115.0</ele>
        <time>2019-05-16T18:04:39.926Z</time>
      </trkpt>
      <trkpt lat="39.23548" lon="-8.68511833">
        <ele>115.0</ele>
        <time>2019-05-16T18:04:40.923Z</time>
      </trkpt>
      <trkpt lat="39.23549833" lon="-8.68512">
        <ele>114.0</ele>
        <time>2019-05-16T18:04:41.915Z</time>
      </trkpt>
      <trkpt lat="39.23549833" lon="-8.68512">
        <ele>114.0</ele>
        <time>2019-05-16T18:04:42.917Z</time>
      </trkpt>
      <trkpt lat="39.235505" lon="-8.68512167">
        <ele>114.0</ele>
        <time>2019-05-16T18:04:43.901Z</time>
      </trkpt>
      <trkpt lat="39.23550833" lon="-8.685125">
        <ele>114.0</ele>
        <time>2019-05-16T18:04:44.915Z</time>
      </trkpt>
      <trkpt lat="39.23550833" lon="-8.685125">
        <ele>114.0</ele>
        <time>2019-05-16T18:04:45.909Z</time>
      </trkpt>
      <trkpt lat="39.23550833" lon="-8.685125">
        <ele>114.0</ele>
        <time>2019-05-16T18:04:46.935Z</time>
      </trkpt>
      <trkpt lat="39.23550833" lon="-8.685125">
        <ele>114.0</ele>
        <time>2019-05-16T18:04:47.902Z</time>
      </trkpt>
      <trkpt lat="39.23553333" lon="-8.68512833">
        <ele>114.0</ele>
        <time>2019-05-16T18:04:48.908Z</time>
      </trkpt>
      <trkpt lat="39.23553833" lon="-8.68512833">
        <ele>114.0</ele>
        <time>2019-05-16T18:04:49.914Z</time>
      </trkpt>
      <trkpt lat="39.23553833" lon="-8.68512833">
        <ele>114.0</ele>
        <time>2019-05-16T18:04:50.920Z</time>
      </trkpt>
      <trkpt lat="39.23554833" lon="-8.685125">
        <ele>114.0</ele>
        <time>2019-05-16T18:04:51.905Z</time>
      </trkpt>
      <trkpt lat="39.23554833" lon="-8.685125">
        <ele>114.0</ele>
        <time>2019-05-16T18:04:52.908Z</time>
      </trkpt>
      <trkpt lat="39.23555833" lon="-8.68513333">
        <ele>114.0</ele>
        <time>2019-05-16T18:04:53.912Z</time>
      </trkpt>
      <trkpt lat="39.23555833" lon="-8.68513333">
        <ele>114.0</ele>
        <time>2019-05-16T18:04:54.908Z</time>
      </trkpt>
      <trkpt lat="39.23618" lon="-8.68351667">
        <ele>106.0</ele>
        <time>2019-05-17T08:25:09.167Z</time>
      </trkpt>
      <trkpt lat="39.23618" lon="-8.68351667">
        <ele>106.0</ele>
        <time>2019-05-17T08:25:10.161Z</time>
      </trkpt>
      <trkpt lat="39.23618" lon="-8.68351667">
        <ele>106.0</ele>
        <time>2019-05-17T08:25:11.179Z</time>
      </trkpt>
      <trkpt lat="39.23618" lon="-8.68351667">
        <ele>106.0</ele>
        <time>2019-05-17T08:25:12.187Z</time>
      </trkpt>
      <trkpt lat="39.23618" lon="-8.68351667">
        <ele>106.0</ele>
        <time>2019-05-17T08:25:13.169Z</time>
      </trkpt>
      <trkpt lat="39.23618" lon="-8.68351667">
        <ele>106.0</ele>
        <time>2019-05-17T08:25:14.182Z</time>
      </trkpt>
      <trkpt lat="39.23618" lon="-8.68351667">
        <ele>106.0</ele>
        <time>2019-05-17T08:25:15.150Z</time>
      </trkpt>
      <trkpt lat="39.23618" lon="-8.68351667">
        <ele>106.0</ele>
        <time>2019-05-17T08:25:16.176Z</time>
      </trkpt>
      <trkpt lat="39.23618" lon="-8.68351667">
        <ele>106.0</ele>
        <time>2019-05-17T08:25:17.186Z</time>
      </trkpt>
      <trkpt lat="39.23618" lon="-8.68351667">
        <ele>106.0</ele>
        <time>2019-05-17T08:25:18.193Z</time>
      </trkpt>
      <trkpt lat="39.23618" lon="-8.68351667">
        <ele>106.0</ele>
        <time>2019-05-17T08:25:19.177Z</time>
      </trkpt>
      <trkpt lat="39.23618" lon="-8.68351667">
        <ele>106.0</ele>
        <time>2019-05-17T08:25:20.170Z</time>
      </trkpt>
      <trkpt lat="39.23618" lon="-8.68351667">
        <ele>106.0</ele>
        <time>2019-05-17T08:25:21.165Z</time>
      </trkpt>
      <trkpt lat="39.23618" lon="-8.68351667">
        <ele>106.0</ele>
        <time>2019-05-17T08:25:22.181Z</time>
      </trkpt>
      <trkpt lat="39.23618" lon="-8.68351667">
        <ele>106.0</ele>
        <time>2019-05-17T08:25:23.154Z</time>
      </trkpt>
      <trkpt lat="39.23618" lon="-8.68351667">
        <ele>106.0</ele>
        <time>2019-05-17T08:25:24.192Z</time>
      </trkpt>
      <trkpt lat="39.23618" lon="-8.68351667">
        <ele>106.0</ele>
        <time>2019-05-17T08:25:25.154Z</time>
      </trkpt>
      <trkpt lat="39.23618" lon="-8.68351667">
        <ele>106.0</ele>
        <time>2019-05-17T08:25:26.175Z</time>
      </trkpt>
      <trkpt lat="39.23618" lon="-8.68351667">
        <ele>106.0</ele>
        <time>2019-05-17T08:25:27.166Z</time>
      </trkpt>
      <trkpt lat="39.23618" lon="-8.68351667">
        <ele>106.0</ele>
        <time>2019-05-17T08:25:28.161Z</time>
      </trkpt>
      <trkpt lat="39.23618" lon="-8.68351667">
        <ele>106.0</ele>
        <time>2019-05-17T08:25:29.154Z</time>
      </trkpt>
      <trkpt lat="39.23618" lon="-8.68351667">
        <ele>106.0</ele>
        <time>2019-05-17T08:25:30.164Z</time>
      </trkpt>
      <trkpt lat="39.23618" lon="-8.68351667">
        <ele>106.0</ele>
        <time>2019-05-17T08:25:31.177Z</time>
      </trkpt>
      <trkpt lat="39.23618" lon="-8.68351667">
        <ele>106.0</ele>
        <time>2019-05-17T08:25:32.154Z</time>
      </trkpt>
      <trkpt lat="39.23618" lon="-8.68351667">
        <ele>106.0</ele>
        <time>2019-05-17T08:25:33.166Z</time>
      </trkpt>
      <trkpt lat="39.23618" lon="-8.68351667">
        <ele>106.0</ele>
        <time>2019-05-17T08:25:34.176Z</time>
      </trkpt>
      <trkpt lat="39.23618" lon="-8.68351667">
        <ele>106.0</ele>
        <time>2019-05-17T08:25:35.162Z</time>
      </trkpt>
      <trkpt lat="39.23618" lon="-8.68351667">
        <ele>106.0</ele>
        <time>2019-05-17T08:25:36.168Z</time>
      </trkpt>
      <trkpt lat="39.23618" lon="-8.68351667">
        <ele>106.0</ele>
        <time>2019-05-17T08:25:37.191Z</time>
      </trkpt>
      <trkpt lat="39.23618" lon="-8.68351667">
        <ele>106.0</ele>
        <time>2019-05-17T08:25:38.160Z</time>
      </trkpt>
      <trkpt lat="39.23618" lon="-8.68351667">
        <ele>106.0</ele>
        <time>2019-05-17T08:25:39.164Z</time>
      </trkpt>
      <trkpt lat="39.23618" lon="-8.68351667">
        <ele>106.0</ele>
        <time>2019-05-17T08:25:40.164Z</time>
      </trkpt>
      <trkpt lat="39.23618" lon="-8.68351667">
        <ele>106.0</ele>
        <time>2019-05-17T08:25:41.165Z</time>
      </trkpt>
      <trkpt lat="39.23618" lon="-8.68351667">
        <ele>106.0</ele>
        <time>2019-05-17T08:25:42.170Z</time>
      </trkpt>
      <trkpt lat="39.23618" lon="-8.68351667">
        <ele>106.0</ele>
        <time>2019-05-17T08:25:43.161Z</time>
      </trkpt>
      <trkpt lat="39.23618" lon="-8.68351667">
        <ele>106.0</ele>
        <time>2019-05-17T08:25:44.166Z</time>
      </trkpt>
      <trkpt lat="39.23618" lon="-8.68351667">
        <ele>106.0</ele>
        <time>2019-05-17T08:25:45.163Z</time>
      </trkpt>
      <trkpt lat="39.23618" lon="-8.68351667">
        <ele>106.0</ele>
        <time>2019-05-17T08:25:46.160Z</time>
      </trkpt>
      <trkpt lat="39.23618" lon="-8.68351667">
        <ele>106.0</ele>
        <time>2019-05-17T08:25:47.162Z</time>
      </trkpt>
      <trkpt lat="39.23618" lon="-8.68351667">
        <ele>106.0</ele>
        <time>2019-05-17T08:25:48.160Z</time>
      </trkpt>
      <trkpt lat="39.23618" lon="-8.68351667">
        <ele>106.0</ele>
        <time>2019-05-17T08:25:49.186Z</time>
      </trkpt>
      <trkpt lat="39.23618" lon="-8.68351667">
        <ele>106.0</ele>
        <time>2019-05-17T08:25:50.170Z</time>
      </trkpt>
      <trkpt lat="39.23618" lon="-8.68351667">
        <ele>106.0</ele>
        <time>2019-05-17T08:25:51.165Z</time>
      </trkpt>
      <trkpt lat="39.23618" lon="-8.68351667">
        <ele>106.0</ele>
        <time>2019-05-17T08:25:52.166Z</time>
      </trkpt>
      <trkpt lat="39.23618" lon="-8.68351667">
        <ele>106.0</ele>
        <time>2019-05-17T08:25:53.162Z</time>
      </trkpt>
      <trkpt lat="39.23618" lon="-8.68351667">
        <ele>106.0</ele>
        <time>2019-05-17T08:25:54.162Z</time>
      </trkpt>
      <trkpt lat="39.23618" lon="-8.68351667">
        <ele>106.0</ele>
        <time>2019-05-17T08:25:55.162Z</time>
      </trkpt>
      <trkpt lat="39.23618" lon="-8.68351667">
        <ele>106.0</ele>
        <time>2019-05-17T08:25:56.165Z</time>
      </trkpt>
      <trkpt lat="39.23618" lon="-8.68351667">
        <ele>106.0</ele>
        <time>2019-05-17T08:25:57.160Z</time>
      </trkpt>
      <trkpt lat="39.23620833" lon="-8.68351667">
        <ele>112.0</ele>
        <time>2019-05-17T08:25:58.166Z</time>
      </trkpt>
      <trkpt lat="39.23622167" lon="-8.68353">
        <ele>112.0</ele>
        <time>2019-05-17T08:25:59.171Z</time>
      </trkpt>
      <trkpt lat="39.23622167" lon="-8.68353">
        <ele>112.0</ele>
        <time>2019-05-17T08:26:00.185Z</time>
      </trkpt>
      <trkpt lat="39.23625" lon="-8.68357833">
        <ele>112.0</ele>
        <time>2019-05-17T08:26:01.183Z</time>
      </trkpt>
      <trkpt lat="39.23625" lon="-8.68357833">
        <ele>112.0</ele>
        <time>2019-05-17T08:26:02.157Z</time>
      </trkpt>
      <trkpt lat="39.23626167" lon="-8.68362333">
        <ele>111.0</ele>
        <time>2019-05-17T08:26:03.170Z</time>
      </trkpt>
      <trkpt lat="39.23626167" lon="-8.68362333">
        <ele>111.0</ele>
        <time>2019-05-17T08:26:04.180Z</time>
      </trkpt>
      <trkpt lat="39.23628167" lon="-8.68367833">
        <ele>110.0</ele>
        <time>2019-05-17T08:26:05.275Z</time>
      </trkpt>
      <trkpt lat="39.23628167" lon="-8.68367833">
        <ele>110.0</ele>
        <time>2019-05-17T08:26:06.213Z</time>
      </trkpt>
      <trkpt lat="39.23630333" lon="-8.68372667">
        <ele>110.0</ele>
        <time>2019-05-17T08:26:07.188Z</time>
      </trkpt>
      <trkpt lat="39.23630333" lon="-8.68372667">
        <ele>110.0</ele>
        <time>2019-05-17T08:26:08.180Z</time>
      </trkpt>
      <trkpt lat="39.23632333" lon="-8.68374833">
        <ele>109.0</ele>
        <time>2019-05-17T08:26:09.163Z</time>
      </trkpt>
      <trkpt lat="39.23632333" lon="-8.68374833">
        <ele>109.0</ele>
        <time>2019-05-17T08:26:10.186Z</time>
      </trkpt>
      <trkpt lat="39.23635" lon="-8.68378667">
        <ele>108.0</ele>
        <time>2019-05-17T08:26:11.164Z</time>
      </trkpt>
      <trkpt lat="39.23635833" lon="-8.68381667">
        <ele>108.0</ele>
        <time>2019-05-17T08:26:12.177Z</time>
      </trkpt>
      <trkpt lat="39.23635833" lon="-8.68381667">
        <ele>108.0</ele>
        <time>2019-05-17T08:26:13.154Z</time>
      </trkpt>
      <trkpt lat="39.23637333" lon="-8.68386167">
        <ele>108.0</ele>
        <time>2019-05-17T08:26:14.170Z</time>
      </trkpt>
      <trkpt lat="39.23637333" lon="-8.68386167">
        <ele>108.0</ele>
        <time>2019-05-17T08:26:15.179Z</time>
      </trkpt>
      <trkpt lat="39.23640667" lon="-8.68389833">
        <ele>107.0</ele>
        <time>2019-05-17T08:26:16.152Z</time>
      </trkpt>
      <trkpt lat="39.23640667" lon="-8.68389833">
        <ele>107.0</ele>
        <time>2019-05-17T08:26:17.179Z</time>
      </trkpt>
      <trkpt lat="39.23643333" lon="-8.683925">
        <ele>107.0</ele>
        <time>2019-05-17T08:26:18.189Z</time>
      </trkpt>
      <trkpt lat="39.23643333" lon="-8.683925">
        <ele>107.0</ele>
        <time>2019-05-17T08:26:19.157Z</time>
      </trkpt>
      <trkpt lat="39.236475" lon="-8.68395167">
        <ele>107.0</ele>
        <time>2019-05-17T08:26:20.176Z</time>
      </trkpt>
      <trkpt lat="39.236475" lon="-8.68395167">
        <ele>107.0</ele>
        <time>2019-05-17T08:26:21.186Z</time>
      </trkpt>
      <trkpt lat="39.2365" lon="-8.68401667">
        <ele>107.0</ele>
        <time>2019-05-17T08:26:22.167Z</time>
      </trkpt>
      <trkpt lat="39.23651667" lon="-8.684045">
        <ele>108.0</ele>
        <time>2019-05-17T08:26:23.185Z</time>
      </trkpt>
      <trkpt lat="39.23652833" lon="-8.68407167">
        <ele>108.0</ele>
        <time>2019-05-17T08:26:24.177Z</time>
      </trkpt>
      <trkpt lat="39.23652833" lon="-8.68407167">
        <ele>108.0</ele>
        <time>2019-05-17T08:26:25.152Z</time>
      </trkpt>
      <trkpt lat="39.23655333" lon="-8.68411833">
        <ele>108.0</ele>
        <time>2019-05-17T08:26:26.169Z</time>
      </trkpt>
      <trkpt lat="39.23655333" lon="-8.68411833">
        <ele>108.0</ele>
        <time>2019-05-17T08:26:27.186Z</time>
      </trkpt>
      <trkpt lat="39.23657667" lon="-8.68417167">
        <ele>108.0</ele>
        <time>2019-05-17T08:26:28.171Z</time>
      </trkpt>
      <trkpt lat="39.23657667" lon="-8.68417167">
        <ele>108.0</ele>
        <time>2019-05-17T08:26:29.160Z</time>
      </trkpt>
      <trkpt lat="39.23661167" lon="-8.68423">
        <ele>108.0</ele>
        <time>2019-05-17T08:26:30.173Z</time>
      </trkpt>
      <trkpt lat="39.23661167" lon="-8.68423">
        <ele>108.0</ele>
        <time>2019-05-17T08:26:31.167Z</time>
      </trkpt>
      <trkpt lat="39.23664" lon="-8.68428667">
        <ele>108.0</ele>
        <time>2019-05-17T08:26:32.158Z</time>
      </trkpt>
      <trkpt lat="39.23664" lon="-8.68428667">
        <ele>108.0</ele>
        <time>2019-05-17T08:26:33.158Z</time>
      </trkpt>
      <trkpt lat="39.236675" lon="-8.68433">
        <ele>108.0</ele>
        <time>2019-05-17T08:26:34.178Z</time>
      </trkpt>
      <trkpt lat="39.236675" lon="-8.68433">
        <ele>108.0</ele>
        <time>2019-05-17T08:26:35.154Z</time>
      </trkpt>
      <trkpt lat="39.236705" lon="-8.684365">
        <ele>107.0</ele>
        <time>2019-05-17T08:26:36.166Z</time>
      </trkpt>
      <trkpt lat="39.236705" lon="-8.684365">
        <ele>107.0</ele>
        <time>2019-05-17T08:26:37.161Z</time>
      </trkpt>
      <trkpt lat="39.23673167" lon="-8.6844">
        <ele>106.0</ele>
        <time>2019-05-17T08:26:38.155Z</time>
      </trkpt>
      <trkpt lat="39.23674333" lon="-8.68441667">
        <ele>106.0</ele>
        <time>2019-05-17T08:26:39.175Z</time>
      </trkpt>
      <trkpt lat="39.23674333" lon="-8.68441667">
        <ele>106.0</ele>
        <time>2019-05-17T08:26:40.158Z</time>
      </trkpt>
      <trkpt lat="39.23676667" lon="-8.68445333">
        <ele>105.0</ele>
        <time>2019-05-17T08:26:41.162Z</time>
      </trkpt>
      <trkpt lat="39.23677667" lon="-8.68447667">
        <ele>105.0</ele>
        <time>2019-05-17T08:26:42.161Z</time>
      </trkpt>
      <trkpt lat="39.23677667" lon="-8.68447667">
        <ele>105.0</ele>
        <time>2019-05-17T08:26:43.177Z</time>
      </trkpt>
      <trkpt lat="39.23679667" lon="-8.68451333">
        <ele>104.0</ele>
        <time>2019-05-17T08:26:44.160Z</time>
      </trkpt>
      <trkpt lat="39.23679667" lon="-8.68451333">
        <ele>104.0</ele>
        <time>2019-05-17T08:26:45.167Z</time>
      </trkpt>
      <trkpt lat="39.23680833" lon="-8.68457333">
        <ele>103.0</ele>
        <time>2019-05-17T08:26:46.182Z</time>
      </trkpt>
      <trkpt lat="39.23681833" lon="-8.68459667">
        <ele>102.0</ele>
        <time>2019-05-17T08:26:47.162Z</time>
      </trkpt>
      <trkpt lat="39.23681833" lon="-8.68459667">
        <ele>102.0</ele>
        <time>2019-05-17T08:26:48.179Z</time>
      </trkpt>
      <trkpt lat="39.23684833" lon="-8.68462667">
        <ele>102.0</ele>
        <time>2019-05-17T08:26:49.154Z</time>
      </trkpt>
      <trkpt lat="39.23684833" lon="-8.68462667">
        <ele>102.0</ele>
        <time>2019-05-17T08:26:50.169Z</time>
      </trkpt>
      <trkpt lat="39.23687167" lon="-8.68466333">
        <ele>101.0</ele>
        <time>2019-05-17T08:26:51.183Z</time>
      </trkpt>
      <trkpt lat="39.236895" lon="-8.68467667">
        <ele>101.0</ele>
        <time>2019-05-17T08:26:52.181Z</time>
      </trkpt>
      <trkpt lat="39.236895" lon="-8.68467667">
        <ele>101.0</ele>
        <time>2019-05-17T08:26:53.157Z</time>
      </trkpt>
      <trkpt lat="39.236955" lon="-8.68468667">
        <ele>101.0</ele>
        <time>2019-05-17T08:26:54.176Z</time>
      </trkpt>
      <trkpt lat="39.236955" lon="-8.68468667">
        <ele>101.0</ele>
        <time>2019-05-17T08:26:55.168Z</time>
      </trkpt>
      <trkpt lat="39.236985" lon="-8.68472667">
        <ele>100.0</ele>
        <time>2019-05-17T08:26:56.166Z</time>
      </trkpt>
      <trkpt lat="39.236985" lon="-8.68472667">
        <ele>100.0</ele>
        <time>2019-05-17T08:26:57.173Z</time>
      </trkpt>
      <trkpt lat="39.23700167" lon="-8.68480333">
        <ele>101.0</ele>
        <time>2019-05-17T08:26:58.184Z</time>
      </trkpt>
      <trkpt lat="39.23700833" lon="-8.68483833">
        <ele>102.0</ele>
        <time>2019-05-17T08:26:59.162Z</time>
      </trkpt>
      <trkpt lat="39.23700833" lon="-8.68485833">
        <ele>102.0</ele>
        <time>2019-05-17T08:27:00.180Z</time>
      </trkpt>
      <trkpt lat="39.23700833" lon="-8.68485833">
        <ele>102.0</ele>
        <time>2019-05-17T08:27:01.151Z</time>
      </trkpt>
      <trkpt lat="39.236995" lon="-8.68488167">
        <ele>103.0</ele>
        <time>2019-05-17T08:27:02.162Z</time>
      </trkpt>
      <trkpt lat="39.236995" lon="-8.68488167">
        <ele>103.0</ele>
        <time>2019-05-17T08:27:03.170Z</time>
      </trkpt>
      <trkpt lat="39.23696833" lon="-8.684905">
        <ele>105.0</ele>
        <time>2019-05-17T08:27:04.185Z</time>
      </trkpt>
      <trkpt lat="39.236955" lon="-8.68492667">
        <ele>106.0</ele>
        <time>2019-05-17T08:27:05.163Z</time>
      </trkpt>
      <trkpt lat="39.236955" lon="-8.68492667">
        <ele>106.0</ele>
        <time>2019-05-17T08:27:06.183Z</time>
      </trkpt>
      <trkpt lat="39.23693333" lon="-8.68497667">
        <ele>107.0</ele>
        <time>2019-05-17T08:27:07.160Z</time>
      </trkpt>
      <trkpt lat="39.23693333" lon="-8.68497667">
        <ele>107.0</ele>
        <time>2019-05-17T08:27:08.176Z</time>
      </trkpt>
      <trkpt lat="39.23692333" lon="-8.685015">
        <ele>108.0</ele>
        <time>2019-05-17T08:27:09.157Z</time>
      </trkpt>
      <trkpt lat="39.23692333" lon="-8.685015">
        <ele>108.0</ele>
        <time>2019-05-17T08:27:10.165Z</time>
      </trkpt>
      <trkpt lat="39.23691333" lon="-8.68505667">
        <ele>108.0</ele>
        <time>2019-05-17T08:27:11.188Z</time>
      </trkpt>
      <trkpt lat="39.23691333" lon="-8.68505667">
        <ele>108.0</ele>
        <time>2019-05-17T08:27:12.152Z</time>
      </trkpt>
      <trkpt lat="39.23689" lon="-8.68508667">
        <ele>108.0</ele>
        <time>2019-05-17T08:27:13.176Z</time>
      </trkpt>
      <trkpt lat="39.23689" lon="-8.68508667">
        <ele>108.0</ele>
        <time>2019-05-17T08:27:14.185Z</time>
      </trkpt>
      <trkpt lat="39.23686167" lon="-8.68508667">
        <ele>109.0</ele>
        <time>2019-05-17T08:27:15.169Z</time>
      </trkpt>
      <trkpt lat="39.23686167" lon="-8.68508667">
        <ele>109.0</ele>
        <time>2019-05-17T08:27:16.154Z</time>
      </trkpt>
      <trkpt lat="39.23685667" lon="-8.68507667">
        <ele>109.0</ele>
        <time>2019-05-17T08:27:17.166Z</time>
      </trkpt>
      <trkpt lat="39.23686" lon="-8.68507167">
        <ele>109.0</ele>
        <time>2019-05-17T08:27:18.150Z</time>
      </trkpt>
      <trkpt lat="39.23686" lon="-8.68507167">
        <ele>109.0</ele>
        <time>2019-05-17T08:27:19.177Z</time>
      </trkpt>
      <trkpt lat="39.23687167" lon="-8.68506">
        <ele>109.0</ele>
        <time>2019-05-17T08:27:20.161Z</time>
      </trkpt>
      <trkpt lat="39.23687167" lon="-8.68506">
        <ele>109.0</ele>
        <time>2019-05-17T08:27:21.174Z</time>
      </trkpt>
      <trkpt lat="39.23688833" lon="-8.68505833">
        <ele>110.0</ele>
        <time>2019-05-17T08:27:22.185Z</time>
      </trkpt>
      <trkpt lat="39.23688833" lon="-8.68505833">
        <ele>110.0</ele>
        <time>2019-05-17T08:27:23.158Z</time>
      </trkpt>
      <trkpt lat="39.23690833" lon="-8.68505333">
        <ele>110.0</ele>
        <time>2019-05-17T08:27:24.167Z</time>
      </trkpt>
      <trkpt lat="39.23690833" lon="-8.68505333">
        <ele>110.0</ele>
        <time>2019-05-17T08:27:25.173Z</time>
      </trkpt>
      <trkpt lat="39.236915" lon="-8.68504833">
        <ele>110.0</ele>
        <time>2019-05-17T08:27:26.181Z</time>
      </trkpt>
      <trkpt lat="39.236915" lon="-8.68504833">
        <ele>110.0</ele>
        <time>2019-05-17T08:27:27.172Z</time>
      </trkpt>
      <trkpt lat="39.23692" lon="-8.68505167">
        <ele>110.0</ele>
        <time>2019-05-17T08:27:28.181Z</time>
      </trkpt>
      <trkpt lat="39.23692" lon="-8.68505167">
        <ele>110.0</ele>
        <time>2019-05-17T08:27:29.155Z</time>
      </trkpt>
      <trkpt lat="39.23692" lon="-8.68505167">
        <ele>110.0</ele>
        <time>2019-05-17T08:27:30.171Z</time>
      </trkpt>
      <trkpt lat="39.23692" lon="-8.68505167">
        <ele>110.0</ele>
        <time>2019-05-17T08:27:31.160Z</time>
      </trkpt>
      <trkpt lat="39.23692" lon="-8.68505167">
        <ele>110.0</ele>
        <time>2019-05-17T08:27:32.170Z</time>
      </trkpt>
      <trkpt lat="39.23692" lon="-8.68505167">
        <ele>110.0</ele>
        <time>2019-05-17T08:27:33.172Z</time>
      </trkpt>
      <trkpt lat="39.23692" lon="-8.68505167">
        <ele>110.0</ele>
        <time>2019-05-17T08:27:34.179Z</time>
      </trkpt>
      <trkpt lat="39.23692" lon="-8.68505167">
        <ele>110.0</ele>
        <time>2019-05-17T08:27:35.186Z</time>
      </trkpt>
      <trkpt lat="39.23692" lon="-8.68505167">
        <ele>110.0</ele>
        <time>2019-05-17T08:27:36.170Z</time>
      </trkpt>
      <trkpt lat="39.23692" lon="-8.68505167">
        <ele>110.0</ele>
        <time>2019-05-17T08:27:37.160Z</time>
      </trkpt>
      <trkpt lat="39.23692" lon="-8.68505167">
        <ele>110.0</ele>
        <time>2019-05-17T08:27:38.165Z</time>
      </trkpt>
      <trkpt lat="39.23692" lon="-8.68505167">
        <ele>110.0</ele>
        <time>2019-05-17T08:27:39.163Z</time>
      </trkpt>
      <trkpt lat="39.23692" lon="-8.68505167">
        <ele>110.0</ele>
        <time>2019-05-17T08:27:40.163Z</time>
      </trkpt>
      <trkpt lat="39.23692" lon="-8.68505167">
        <ele>110.0</ele>
        <time>2019-05-17T08:27:41.160Z</time>
      </trkpt>
      <trkpt lat="39.23692" lon="-8.68505167">
        <ele>110.0</ele>
        <time>2019-05-17T08:27:42.169Z</time>
      </trkpt>
      <trkpt lat="39.23692" lon="-8.68505167">
        <ele>110.0</ele>
        <time>2019-05-17T08:27:43.160Z</time>
      </trkpt>
      <trkpt lat="39.23692" lon="-8.68505167">
        <ele>110.0</ele>
        <time>2019-05-17T08:27:44.163Z</time>
      </trkpt>
      <trkpt lat="39.23692" lon="-8.68505167">
        <ele>110.0</ele>
        <time>2019-05-17T08:27:45.161Z</time>
      </trkpt>
      <trkpt lat="39.23692" lon="-8.68505167">
        <ele>110.0</ele>
        <time>2019-05-17T08:27:46.166Z</time>
      </trkpt>
      <trkpt lat="39.23692" lon="-8.68505167">
        <ele>110.0</ele>
        <time>2019-05-17T08:27:47.160Z</time>
      </trkpt>
      <trkpt lat="39.23692" lon="-8.68505167">
        <ele>110.0</ele>
        <time>2019-05-17T08:27:48.166Z</time>
      </trkpt>
      <trkpt lat="39.23692" lon="-8.68505167">
        <ele>110.0</ele>
        <time>2019-05-17T08:27:49.163Z</time>
      </trkpt>
      <trkpt lat="39.23692" lon="-8.68505167">
        <ele>110.0</ele>
        <time>2019-05-17T08:27:50.165Z</time>
      </trkpt>
      <trkpt lat="39.23692" lon="-8.68505167">
        <ele>110.0</ele>
        <time>2019-05-17T08:27:51.161Z</time>
      </trkpt>
      <trkpt lat="39.23692" lon="-8.68505167">
        <ele>110.0</ele>
        <time>2019-05-17T08:27:52.167Z</time>
      </trkpt>
      <trkpt lat="39.23692" lon="-8.68505167">
        <ele>110.0</ele>
        <time>2019-05-17T08:27:53.160Z</time>
      </trkpt>
      <trkpt lat="39.23692" lon="-8.68505167">
        <ele>110.0</ele>
        <time>2019-05-17T08:27:54.187Z</time>
      </trkpt>
      <trkpt lat="39.23692" lon="-8.68505167">
        <ele>110.0</ele>
        <time>2019-05-17T08:27:55.174Z</time>
      </trkpt>
      <trkpt lat="39.23692" lon="-8.68505167">
        <ele>110.0</ele>
        <time>2019-05-17T08:27:56.165Z</time>
      </trkpt>
      <trkpt lat="39.23692" lon="-8.68505167">
        <ele>110.0</ele>
        <time>2019-05-17T08:27:57.161Z</time>
      </trkpt>
      <trkpt lat="39.23692" lon="-8.68505167">
        <ele>110.0</ele>
        <time>2019-05-17T08:27:58.165Z</time>
      </trkpt>
      <trkpt lat="39.23692" lon="-8.68505167">
        <ele>110.0</ele>
        <time>2019-05-17T08:27:59.161Z</time>
      </trkpt>
      <trkpt lat="39.23692" lon="-8.68505167">
        <ele>110.0</ele>
        <time>2019-05-17T08:28:00.178Z</time>
      </trkpt>
      <trkpt lat="39.23692" lon="-8.68505167">
        <ele>110.0</ele>
        <time>2019-05-17T08:28:01.161Z</time>
      </trkpt>
      <trkpt lat="39.23692" lon="-8.68505167">
        <ele>110.0</ele>
        <time>2019-05-17T08:28:02.166Z</time>
      </trkpt>
      <trkpt lat="39.23692" lon="-8.68505167">
        <ele>110.0</ele>
        <time>2019-05-17T08:28:03.161Z</time>
      </trkpt>
      <trkpt lat="39.23692" lon="-8.68505167">
        <ele>110.0</ele>
        <time>2019-05-17T08:28:04.165Z</time>
      </trkpt>
      <trkpt lat="39.23692" lon="-8.68505167">
        <ele>110.0</ele>
        <time>2019-05-17T08:28:05.160Z</time>
      </trkpt>
      <trkpt lat="39.23692" lon="-8.68505167">
        <ele>110.0</ele>
        <time>2019-05-17T08:28:06.168Z</time>
      </trkpt>
      <trkpt lat="39.23692" lon="-8.68505167">
        <ele>110.0</ele>
        <time>2019-05-17T08:28:07.160Z</time>
      </trkpt>
      <trkpt lat="39.23692" lon="-8.68505167">
        <ele>110.0</ele>
        <time>2019-05-17T08:28:08.163Z</time>
      </trkpt>
      <trkpt lat="39.23692" lon="-8.68505167">
        <ele>110.0</ele>
        <time>2019-05-17T08:28:09.173Z</time>
      </trkpt>
      <trkpt lat="39.23692" lon="-8.68505167">
        <ele>110.0</ele>
        <time>2019-05-17T08:28:10.160Z</time>
      </trkpt>
      <trkpt lat="39.23692" lon="-8.68505167">
        <ele>110.0</ele>
        <time>2019-05-17T08:28:11.166Z</time>
      </trkpt>
      <trkpt lat="39.23692" lon="-8.68505167">
        <ele>110.0</ele>
        <time>2019-05-17T08:28:12.168Z</time>
      </trkpt>
      <trkpt lat="39.23692" lon="-8.68505167">
        <ele>110.0</ele>
        <time>2019-05-17T08:28:13.165Z</time>
      </trkpt>
      <trkpt lat="39.23692" lon="-8.68505167">
        <ele>110.0</ele>
        <time>2019-05-17T08:28:14.160Z</time>
      </trkpt>
      <trkpt lat="39.23692" lon="-8.68505167">
        <ele>110.0</ele>
        <time>2019-05-17T08:28:15.165Z</time>
      </trkpt>
      <trkpt lat="39.23692" lon="-8.68505167">
        <ele>110.0</ele>
        <time>2019-05-17T08:28:16.151Z</time>
      </trkpt>
      <trkpt lat="39.23692" lon="-8.68505167">
        <ele>110.0</ele>
        <time>2019-05-17T08:28:17.158Z</time>
      </trkpt>
      <trkpt lat="39.23692" lon="-8.68505167">
        <ele>110.0</ele>
        <time>2019-05-17T08:28:18.200Z</time>
      </trkpt>
      <trkpt lat="39.23692" lon="-8.68505167">
        <ele>110.0</ele>
        <time>2019-05-17T08:28:19.190Z</time>
      </trkpt>
      <trkpt lat="39.23692" lon="-8.68505167">
        <ele>110.0</ele>
        <time>2019-05-17T08:28:20.160Z</time>
      </trkpt>
      <trkpt lat="39.23692" lon="-8.68505167">
        <ele>110.0</ele>
        <time>2019-05-17T08:28:21.167Z</time>
      </trkpt>
      <trkpt lat="39.23692" lon="-8.68505167">
        <ele>110.0</ele>
        <time>2019-05-17T08:28:22.173Z</time>
      </trkpt>
      <trkpt lat="39.23692" lon="-8.68505167">
        <ele>110.0</ele>
        <time>2019-05-17T08:28:23.180Z</time>
      </trkpt>
      <trkpt lat="39.23692" lon="-8.68505167">
        <ele>110.0</ele>
        <time>2019-05-17T08:28:24.170Z</time>
      </trkpt>
      <trkpt lat="39.23692" lon="-8.68505167">
        <ele>110.0</ele>
        <time>2019-05-17T08:28:25.162Z</time>
      </trkpt>
      <trkpt lat="39.23692" lon="-8.68504">
        <ele>109.0</ele>
        <time>2019-05-17T08:28:26.165Z</time>
      </trkpt>
      <trkpt lat="39.23692" lon="-8.68504">
        <ele>109.0</ele>
        <time>2019-05-17T08:28:27.161Z</time>
      </trkpt>
      <trkpt lat="39.23689167" lon="-8.68501667">
        <ele>109.0</ele>
        <time>2019-05-17T08:28:28.167Z</time>
      </trkpt>
      <trkpt lat="39.23689167" lon="-8.68501667">
        <ele>109.0</ele>
        <time>2019-05-17T08:28:29.158Z</time>
      </trkpt>
      <trkpt lat="39.23686" lon="-8.68502167">
        <ele>109.0</ele>
        <time>2019-05-17T08:28:30.162Z</time>
      </trkpt>
      <trkpt lat="39.23686" lon="-8.68502167">
        <ele>109.0</ele>
        <time>2019-05-17T08:28:31.155Z</time>
      </trkpt>
      <trkpt lat="39.236835" lon="-8.68505667">
        <ele>108.0</ele>
        <time>2019-05-17T08:28:32.163Z</time>
      </trkpt>
      <trkpt lat="39.236835" lon="-8.68505667">
        <ele>108.0</ele>
        <time>2019-05-17T08:28:33.180Z</time>
      </trkpt>
      <trkpt lat="39.23680833" lon="-8.68509">
        <ele>108.0</ele>
        <time>2019-05-17T08:28:34.183Z</time>
      </trkpt>
      <trkpt lat="39.23680833" lon="-8.68509">
        <ele>108.0</ele>
        <time>2019-05-17T08:28:35.169Z</time>
      </trkpt>
      <trkpt lat="39.23677167" lon="-8.685105">
        <ele>107.0</ele>
        <time>2019-05-17T08:28:36.176Z</time>
      </trkpt>
      <trkpt lat="39.23677167" lon="-8.685105">
        <ele>107.0</ele>
        <time>2019-05-17T08:28:37.157Z</time>
      </trkpt>
      <trkpt lat="39.23673833" lon="-8.68510167">
        <ele>108.0</ele>
        <time>2019-05-17T08:28:38.156Z</time>
      </trkpt>
      <trkpt lat="39.23672333" lon="-8.685095">
        <ele>108.0</ele>
        <time>2019-05-17T08:28:39.161Z</time>
      </trkpt>
      <trkpt lat="39.23672333" lon="-8.685095">
        <ele>108.0</ele>
        <time>2019-05-17T08:28:40.181Z</time>
      </trkpt>
      <trkpt lat="39.236695" lon="-8.685085">
        <ele>108.0</ele>
        <time>2019-05-17T08:28:41.153Z</time>
      </trkpt>
      <trkpt lat="39.23668" lon="-8.68508">
        <ele>108.0</ele>
        <time>2019-05-17T08:28:42.179Z</time>
      </trkpt>
      <trkpt lat="39.23668" lon="-8.68508">
        <ele>108.0</ele>
        <time>2019-05-17T08:28:43.156Z</time>
      </trkpt>
      <trkpt lat="39.23664833" lon="-8.68506667">
        <ele>108.0</ele>
        <time>2019-05-17T08:28:44.165Z</time>
      </trkpt>
      <trkpt lat="39.23664833" lon="-8.68506667">
        <ele>108.0</ele>
        <time>2019-05-17T08:28:45.153Z</time>
      </trkpt>
      <trkpt lat="39.23661667" lon="-8.68505667">
        <ele>108.0</ele>
        <time>2019-05-17T08:28:46.162Z</time>
      </trkpt>
      <trkpt lat="39.23661667" lon="-8.68505667">
        <ele>108.0</ele>
        <time>2019-05-17T08:28:47.177Z</time>
      </trkpt>
      <trkpt lat="39.23658167" lon="-8.68504833">
        <ele>108.0</ele>
        <time>2019-05-17T08:28:48.172Z</time>
      </trkpt>
      <trkpt lat="39.23658167" lon="-8.68504833">
        <ele>108.0</ele>
        <time>2019-05-17T08:28:49.189Z</time>
      </trkpt>
      <trkpt lat="39.236545" lon="-8.68504333">
        <ele>108.0</ele>
        <time>2019-05-17T08:28:50.157Z</time>
      </trkpt>
      <trkpt lat="39.236545" lon="-8.68504333">
        <ele>108.0</ele>
        <time>2019-05-17T08:28:51.174Z</time>
      </trkpt>
      <trkpt lat="39.23651" lon="-8.68503833">
        <ele>108.0</ele>
        <time>2019-05-17T08:28:52.185Z</time>
      </trkpt>
      <trkpt lat="39.23651" lon="-8.68503833">
        <ele>108.0</ele>
        <time>2019-05-17T08:28:53.155Z</time>
      </trkpt>
      <trkpt lat="39.23647333" lon="-8.68503167">
        <ele>108.0</ele>
        <time>2019-05-17T08:28:54.187Z</time>
      </trkpt>
      <trkpt lat="39.23647333" lon="-8.68503167">
        <ele>108.0</ele>
        <time>2019-05-17T08:28:55.159Z</time>
      </trkpt>
      <trkpt lat="39.23644167" lon="-8.68501333">
        <ele>107.0</ele>
        <time>2019-05-17T08:28:56.169Z</time>
      </trkpt>
      <trkpt lat="39.23644167" lon="-8.68501333">
        <ele>107.0</ele>
        <time>2019-05-17T08:28:57.182Z</time>
      </trkpt>
      <trkpt lat="39.236415" lon="-8.685005">
        <ele>107.0</ele>
        <time>2019-05-17T08:28:58.166Z</time>
      </trkpt>
      <trkpt lat="39.236415" lon="-8.685005">
        <ele>107.0</ele>
        <time>2019-05-17T08:28:59.187Z</time>
      </trkpt>
      <trkpt lat="39.23639167" lon="-8.685005">
        <ele>107.0</ele>
        <time>2019-05-17T08:29:00.215Z</time>
      </trkpt>
      <trkpt lat="39.23639167" lon="-8.685005">
        <ele>107.0</ele>
        <time>2019-05-17T08:29:01.172Z</time>
      </trkpt>
      <trkpt lat="39.23636833" lon="-8.68501333">
        <ele>107.0</ele>
        <time>2019-05-17T08:29:02.158Z</time>
      </trkpt>
      <trkpt lat="39.23636833" lon="-8.68501333">
        <ele>107.0</ele>
        <time>2019-05-17T08:29:03.174Z</time>
      </trkpt>
      <trkpt lat="39.23633833" lon="-8.68501">
        <ele>107.0</ele>
        <time>2019-05-17T08:29:04.155Z</time>
      </trkpt>
      <trkpt lat="39.23633833" lon="-8.68501">
        <ele>107.0</ele>
        <time>2019-05-17T08:29:05.173Z</time>
      </trkpt>
      <trkpt lat="39.23630667" lon="-8.68501">
        <ele>107.0</ele>
        <time>2019-05-17T08:29:06.188Z</time>
      </trkpt>
      <trkpt lat="39.23630667" lon="-8.68501">
        <ele>107.0</ele>
        <time>2019-05-17T08:29:07.158Z</time>
      </trkpt>
      <trkpt lat="39.23627833" lon="-8.68500667">
        <ele>107.0</ele>
        <time>2019-05-17T08:29:08.166Z</time>
      </trkpt>
      <trkpt lat="39.23627833" lon="-8.68500667">
        <ele>107.0</ele>
        <time>2019-05-17T08:29:09.166Z</time>
      </trkpt>
      <trkpt lat="39.23625" lon="-8.68501333">
        <ele>106.0</ele>
        <time>2019-05-17T08:29:10.166Z</time>
      </trkpt>
      <trkpt lat="39.23625" lon="-8.68501333">
        <ele>106.0</ele>
        <time>2019-05-17T08:29:11.169Z</time>
      </trkpt>
      <trkpt lat="39.23622833" lon="-8.68502">
        <ele>106.0</ele>
        <time>2019-05-17T08:29:12.182Z</time>
      </trkpt>
      <trkpt lat="39.23622833" lon="-8.68502">
        <ele>106.0</ele>
        <time>2019-05-17T08:29:13.151Z</time>
      </trkpt>
      <trkpt lat="39.236195" lon="-8.685005">
        <ele>107.0</ele>
        <time>2019-05-17T08:29:14.159Z</time>
      </trkpt>
      <trkpt lat="39.236195" lon="-8.685005">
        <ele>107.0</ele>
        <time>2019-05-17T08:29:15.171Z</time>
      </trkpt>
      <trkpt lat="39.23616167" lon="-8.684995">
        <ele>106.0</ele>
        <time>2019-05-17T08:29:16.170Z</time>
      </trkpt>
      <trkpt lat="39.23616167" lon="-8.684995">
        <ele>106.0</ele>
        <time>2019-05-17T08:29:17.167Z</time>
      </trkpt>
      <trkpt lat="39.236125" lon="-8.68498667">
        <ele>106.0</ele>
        <time>2019-05-17T08:29:18.177Z</time>
      </trkpt>
      <trkpt lat="39.236125" lon="-8.68498667">
        <ele>106.0</ele>
        <time>2019-05-17T08:29:19.184Z</time>
      </trkpt>
      <trkpt lat="39.23608667" lon="-8.68497167">
        <ele>106.0</ele>
        <time>2019-05-17T08:29:20.188Z</time>
      </trkpt>
      <trkpt lat="39.23606667" lon="-8.68496667">
        <ele>105.0</ele>
        <time>2019-05-17T08:29:21.177Z</time>
      </trkpt>
      <trkpt lat="39.23606667" lon="-8.68496667">
        <ele>105.0</ele>
        <time>2019-05-17T08:29:22.151Z</time>
      </trkpt>
      <trkpt lat="39.23602833" lon="-8.68495167">
        <ele>104.0</ele>
        <time>2019-05-17T08:29:23.163Z</time>
      </trkpt>
      <trkpt lat="39.23601333" lon="-8.68493333">
        <ele>104.0</ele>
        <time>2019-05-17T08:29:24.162Z</time>
      </trkpt>
      <trkpt lat="39.23601333" lon="-8.68493333">
        <ele>104.0</ele>
        <time>2019-05-17T08:29:25.187Z</time>
      </trkpt>
      <trkpt lat="39.235985" lon="-8.68491">
        <ele>104.0</ele>
        <time>2019-05-17T08:29:26.160Z</time>
      </trkpt>
      <trkpt lat="39.235985" lon="-8.68491">
        <ele>104.0</ele>
        <time>2019-05-17T08:29:27.180Z</time>
      </trkpt>
      <trkpt lat="39.235955" lon="-8.684885">
        <ele>105.0</ele>
        <time>2019-05-17T08:29:28.171Z</time>
      </trkpt>
      <trkpt lat="39.23594167" lon="-8.68487333">
        <ele>105.0</ele>
        <time>2019-05-17T08:29:29.164Z</time>
      </trkpt>
      <trkpt lat="39.23593167" lon="-8.68486167">
        <ele>105.0</ele>
        <time>2019-05-17T08:29:30.180Z</time>
      </trkpt>
      <trkpt lat="39.23593167" lon="-8.68486167">
        <ele>105.0</ele>
        <time>2019-05-17T08:29:31.152Z</time>
      </trkpt>
      <trkpt lat="39.23591167" lon="-8.68483833">
        <ele>105.0</ele>
        <time>2019-05-17T08:29:32.163Z</time>
      </trkpt>
      <trkpt lat="39.23591167" lon="-8.68483833">
        <ele>105.0</ele>
        <time>2019-05-17T08:29:33.170Z</time>
      </trkpt>
      <trkpt lat="39.23588167" lon="-8.68483167">
        <ele>104.0</ele>
        <time>2019-05-17T08:29:34.180Z</time>
      </trkpt>
      <trkpt lat="39.235855" lon="-8.68484833">
        <ele>106.0</ele>
        <time>2019-05-17T08:29:35.175Z</time>
      </trkpt>
      <trkpt lat="39.235855" lon="-8.68484833">
        <ele>106.0</ele>
        <time>2019-05-17T08:29:36.187Z</time>
      </trkpt>
      <trkpt lat="39.23583167" lon="-8.68483833">
        <ele>105.0</ele>
        <time>2019-05-17T08:29:37.158Z</time>
      </trkpt>
      <trkpt lat="39.23583167" lon="-8.68483833">
        <ele>105.0</ele>
        <time>2019-05-17T08:29:38.167Z</time>
      </trkpt>
      <trkpt lat="39.23581333" lon="-8.68482833">
        <ele>106.0</ele>
        <time>2019-05-17T08:29:39.181Z</time>
      </trkpt>
      <trkpt lat="39.23581333" lon="-8.68482833">
        <ele>106.0</ele>
        <time>2019-05-17T08:29:40.153Z</time>
      </trkpt>
      <trkpt lat="39.23580667" lon="-8.68480667">
        <ele>105.0</ele>
        <time>2019-05-17T08:29:41.164Z</time>
      </trkpt>
      <trkpt lat="39.23580167" lon="-8.68480167">
        <ele>105.0</ele>
        <time>2019-05-17T08:29:42.167Z</time>
      </trkpt>
      <trkpt lat="39.23580167" lon="-8.68480167">
        <ele>105.0</ele>
        <time>2019-05-17T08:29:43.156Z</time>
      </trkpt>
      <trkpt lat="39.23579" lon="-8.68479167">
        <ele>105.0</ele>
        <time>2019-05-17T08:29:44.177Z</time>
      </trkpt>
      <trkpt lat="39.23579" lon="-8.68479167">
        <ele>105.0</ele>
        <time>2019-05-17T08:29:45.181Z</time>
      </trkpt>
      <trkpt lat="39.23577833" lon="-8.68477667">
        <ele>105.0</ele>
        <time>2019-05-17T08:29:46.160Z</time>
      </trkpt>
      <trkpt lat="39.23577833" lon="-8.68477667">
        <ele>105.0</ele>
        <time>2019-05-17T08:29:47.170Z</time>
      </trkpt>
      <trkpt lat="39.235765" lon="-8.68476">
        <ele>105.0</ele>
        <time>2019-05-17T08:29:48.179Z</time>
      </trkpt>
      <trkpt lat="39.235765" lon="-8.68476">
        <ele>105.0</ele>
        <time>2019-05-17T08:29:49.161Z</time>
      </trkpt>
      <trkpt lat="39.23573667" lon="-8.68473667">
        <ele>105.0</ele>
        <time>2019-05-17T08:29:50.161Z</time>
      </trkpt>
      <trkpt lat="39.23573667" lon="-8.68473667">
        <ele>105.0</ele>
        <time>2019-05-17T08:29:51.178Z</time>
      </trkpt>
      <trkpt lat="39.23570167" lon="-8.68470167">
        <ele>104.0</ele>
        <time>2019-05-17T08:29:52.150Z</time>
      </trkpt>
      <trkpt lat="39.23570167" lon="-8.68470167">
        <ele>104.0</ele>
        <time>2019-05-17T08:29:53.167Z</time>
      </trkpt>
      <trkpt lat="39.23566167" lon="-8.68465833">
        <ele>105.0</ele>
        <time>2019-05-17T08:29:54.183Z</time>
      </trkpt>
      <trkpt lat="39.23566167" lon="-8.68465833">
        <ele>105.0</ele>
        <time>2019-05-17T08:29:55.159Z</time>
      </trkpt>
      <trkpt lat="39.23563833" lon="-8.68465667">
        <ele>105.0</ele>
        <time>2019-05-17T08:29:56.154Z</time>
      </trkpt>
      <trkpt lat="39.23563833" lon="-8.68465667">
        <ele>105.0</ele>
        <time>2019-05-17T08:29:57.179Z</time>
      </trkpt>
      <trkpt lat="39.23562" lon="-8.68465833">
        <ele>106.0</ele>
        <time>2019-05-17T08:29:58.187Z</time>
      </trkpt>
      <trkpt lat="39.23562" lon="-8.68465833">
        <ele>106.0</ele>
        <time>2019-05-17T08:29:59.161Z</time>
      </trkpt>
      <trkpt lat="39.2356" lon="-8.68468">
        <ele>107.0</ele>
        <time>2019-05-17T08:30:00.176Z</time>
      </trkpt>
      <trkpt lat="39.235585" lon="-8.68469833">
        <ele>107.0</ele>
        <time>2019-05-17T08:30:01.155Z</time>
      </trkpt>
      <trkpt lat="39.235585" lon="-8.68469833">
        <ele>107.0</ele>
        <time>2019-05-17T08:30:02.178Z</time>
      </trkpt>
      <trkpt lat="39.23555667" lon="-8.68472833">
        <ele>107.0</ele>
        <time>2019-05-17T08:30:03.190Z</time>
      </trkpt>
      <trkpt lat="39.23555667" lon="-8.68472833">
        <ele>107.0</ele>
        <time>2019-05-17T08:30:04.160Z</time>
      </trkpt>
      <trkpt lat="39.23551167" lon="-8.68475167">
        <ele>107.0</ele>
        <time>2019-05-17T08:30:05.173Z</time>
      </trkpt>
      <trkpt lat="39.23549167" lon="-8.68476667">
        <ele>107.0</ele>
        <time>2019-05-17T08:30:06.158Z</time>
      </trkpt>
      <trkpt lat="39.23549167" lon="-8.68476667">
        <ele>107.0</ele>
        <time>2019-05-17T08:30:07.173Z</time>
      </trkpt>
      <trkpt lat="39.23546333" lon="-8.68479167">
        <ele>107.0</ele>
        <time>2019-05-17T08:30:08.181Z</time>
      </trkpt>
      <trkpt lat="39.23546333" lon="-8.68479167">
        <ele>107.0</ele>
        <time>2019-05-17T08:30:09.168Z</time>
      </trkpt>
      <trkpt lat="39.23544" lon="-8.6848">
        <ele>106.0</ele>
        <time>2019-05-17T08:30:10.185Z</time>
      </trkpt>
      <trkpt lat="39.23543" lon="-8.68481">
        <ele>105.0</ele>
        <time>2019-05-17T08:30:11.160Z</time>
      </trkpt>
      <trkpt lat="39.23541333" lon="-8.68482333">
        <ele>105.0</ele>
        <time>2019-05-17T08:30:12.172Z</time>
      </trkpt>
      <trkpt lat="39.23541333" lon="-8.68482333">
        <ele>105.0</ele>
        <time>2019-05-17T08:30:13.186Z</time>
      </trkpt>
      <trkpt lat="39.23537833" lon="-8.684855">
        <ele>105.0</ele>
        <time>2019-05-17T08:30:14.160Z</time>
      </trkpt>
      <trkpt lat="39.23537833" lon="-8.684855">
        <ele>105.0</ele>
        <time>2019-05-17T08:30:15.169Z</time>
      </trkpt>
      <trkpt lat="39.235345" lon="-8.684895">
        <ele>105.0</ele>
        <time>2019-05-17T08:30:16.179Z</time>
      </trkpt>
      <trkpt lat="39.235345" lon="-8.684895">
        <ele>105.0</ele>
        <time>2019-05-17T08:30:17.154Z</time>
      </trkpt>
      <trkpt lat="39.235315" lon="-8.684925">
        <ele>106.0</ele>
        <time>2019-05-17T08:30:18.175Z</time>
      </trkpt>
      <trkpt lat="39.235315" lon="-8.684925">
        <ele>106.0</ele>
        <time>2019-05-17T08:30:19.153Z</time>
      </trkpt>
      <trkpt lat="39.23528167" lon="-8.68495333">
        <ele>107.0</ele>
        <time>2019-05-17T08:30:20.163Z</time>
      </trkpt>
      <trkpt lat="39.23526667" lon="-8.68496833">
        <ele>107.0</ele>
        <time>2019-05-17T08:30:21.167Z</time>
      </trkpt>
      <trkpt lat="39.23526667" lon="-8.68496833">
        <ele>107.0</ele>
        <time>2019-05-17T08:30:22.179Z</time>
      </trkpt>
      <trkpt lat="39.23523667" lon="-8.68501">
        <ele>108.0</ele>
        <time>2019-05-17T08:30:23.185Z</time>
      </trkpt>
      <trkpt lat="39.23521167" lon="-8.68501833">
        <ele>108.0</ele>
        <time>2019-05-17T08:30:24.158Z</time>
      </trkpt>
      <trkpt lat="39.23521167" lon="-8.68501833">
        <ele>108.0</ele>
        <time>2019-05-17T08:30:25.167Z</time>
      </trkpt>
      <trkpt lat="39.235185" lon="-8.68505333">
        <ele>108.0</ele>
        <time>2019-05-17T08:30:26.163Z</time>
      </trkpt>
      <trkpt lat="39.23518333" lon="-8.68508">
        <ele>108.0</ele>
        <time>2019-05-17T08:30:27.150Z</time>
      </trkpt>
      <trkpt lat="39.23518333" lon="-8.68508">
        <ele>108.0</ele>
        <time>2019-05-17T08:30:28.161Z</time>
      </trkpt>
      <trkpt lat="39.23517167" lon="-8.685135">
        <ele>109.0</ele>
        <time>2019-05-17T08:30:29.177Z</time>
      </trkpt>
      <trkpt lat="39.235155" lon="-8.685155">
        <ele>109.0</ele>
        <time>2019-05-17T08:30:30.166Z</time>
      </trkpt>
      <trkpt lat="39.235155" lon="-8.685155">
        <ele>109.0</ele>
        <time>2019-05-17T08:30:31.160Z</time>
      </trkpt>
      <trkpt lat="39.23511333" lon="-8.6852">
        <ele>110.0</ele>
        <time>2019-05-17T08:30:32.170Z</time>
      </trkpt>
      <trkpt lat="39.23511333" lon="-8.6852">
        <ele>110.0</ele>
        <time>2019-05-17T08:30:33.181Z</time>
      </trkpt>
      <trkpt lat="39.23507333" lon="-8.68525167">
        <ele>109.0</ele>
        <time>2019-05-17T08:30:34.167Z</time>
      </trkpt>
      <trkpt lat="39.23507333" lon="-8.68525167">
        <ele>109.0</ele>
        <time>2019-05-17T08:30:35.176Z</time>
      </trkpt>
      <trkpt lat="39.23502833" lon="-8.68530667">
        <ele>109.0</ele>
        <time>2019-05-17T08:30:36.155Z</time>
      </trkpt>
      <trkpt lat="39.23502833" lon="-8.68530667">
        <ele>109.0</ele>
        <time>2019-05-17T08:30:37.153Z</time>
      </trkpt>
      <trkpt lat="39.23498167" lon="-8.68536">
        <ele>109.0</ele>
        <time>2019-05-17T08:30:38.160Z</time>
      </trkpt>
      <trkpt lat="39.23496167" lon="-8.68539167">
        <ele>109.0</ele>
        <time>2019-05-17T08:30:39.180Z</time>
      </trkpt>
      <trkpt lat="39.23496167" lon="-8.68539167">
        <ele>109.0</ele>
        <time>2019-05-17T08:30:40.153Z</time>
      </trkpt>
      <trkpt lat="39.23492667" lon="-8.685455">
        <ele>108.0</ele>
        <time>2019-05-17T08:30:41.166Z</time>
      </trkpt>
      <trkpt lat="39.23491" lon="-8.68548667">
        <ele>108.0</ele>
        <time>2019-05-17T08:30:42.178Z</time>
      </trkpt>
      <trkpt lat="39.23491" lon="-8.68548667">
        <ele>108.0</ele>
        <time>2019-05-17T08:30:43.184Z</time>
      </trkpt>
      <trkpt lat="39.234875" lon="-8.68555">
        <ele>108.0</ele>
        <time>2019-05-17T08:30:44.151Z</time>
      </trkpt>
      <trkpt lat="39.234875" lon="-8.68555">
        <ele>108.0</ele>
        <time>2019-05-17T08:30:45.163Z</time>
      </trkpt>
      <trkpt lat="39.23484333" lon="-8.68561833">
        <ele>107.0</ele>
        <time>2019-05-17T08:30:46.175Z</time>
      </trkpt>
      <trkpt lat="39.23484333" lon="-8.68561833">
        <ele>107.0</ele>
        <time>2019-05-17T08:30:47.185Z</time>
      </trkpt>
      <trkpt lat="39.23481" lon="-8.685685">
        <ele>107.0</ele>
        <time>2019-05-17T08:30:48.153Z</time>
      </trkpt>
      <trkpt lat="39.23481" lon="-8.685685">
        <ele>107.0</ele>
        <time>2019-05-17T08:30:49.169Z</time>
      </trkpt>
      <trkpt lat="39.23477333" lon="-8.685745">
        <ele>106.0</ele>
        <time>2019-05-17T08:30:50.183Z</time>
      </trkpt>
      <trkpt lat="39.23477333" lon="-8.685745">
        <ele>106.0</ele>
        <time>2019-05-17T08:30:51.153Z</time>
      </trkpt>
      <trkpt lat="39.23476" lon="-8.68578167">
        <ele>106.0</ele>
        <time>2019-05-17T08:30:52.173Z</time>
      </trkpt>
      <trkpt lat="39.23476" lon="-8.68578167">
        <ele>106.0</ele>
        <time>2019-05-17T08:30:53.157Z</time>
      </trkpt>
      <trkpt lat="39.23474833" lon="-8.68579167">
        <ele>106.0</ele>
        <time>2019-05-17T08:30:54.166Z</time>
      </trkpt>
      <trkpt lat="39.23474833" lon="-8.68579167">
        <ele>106.0</ele>
        <time>2019-05-17T08:30:55.179Z</time>
      </trkpt>
      <trkpt lat="39.23473667" lon="-8.68580167">
        <ele>106.0</ele>
        <time>2019-05-17T08:30:56.151Z</time>
      </trkpt>
      <trkpt lat="39.23473667" lon="-8.68580167">
        <ele>106.0</ele>
        <time>2019-05-17T08:30:57.168Z</time>
      </trkpt>
      <trkpt lat="39.23471" lon="-8.685795">
        <ele>106.0</ele>
        <time>2019-05-17T08:30:58.167Z</time>
      </trkpt>
      <trkpt lat="39.23471" lon="-8.685795">
        <ele>106.0</ele>
        <time>2019-05-17T08:30:59.163Z</time>
      </trkpt>
      <trkpt lat="39.234685" lon="-8.68579833">
        <ele>106.0</ele>
        <time>2019-05-17T08:31:00.170Z</time>
      </trkpt>
      <trkpt lat="39.234685" lon="-8.68579833">
        <ele>106.0</ele>
        <time>2019-05-17T08:31:01.176Z</time>
      </trkpt>
      <trkpt lat="39.23465667" lon="-8.68581">
        <ele>106.0</ele>
        <time>2019-05-17T08:31:02.157Z</time>
      </trkpt>
      <trkpt lat="39.23465667" lon="-8.68581">
        <ele>106.0</ele>
        <time>2019-05-17T08:31:03.183Z</time>
      </trkpt>
      <trkpt lat="39.23461333" lon="-8.68581667">
        <ele>106.0</ele>
        <time>2019-05-17T08:31:04.156Z</time>
      </trkpt>
      <trkpt lat="39.23461333" lon="-8.68581667">
        <ele>106.0</ele>
        <time>2019-05-17T08:31:05.178Z</time>
      </trkpt>
      <trkpt lat="39.23456833" lon="-8.685795">
        <ele>106.0</ele>
        <time>2019-05-17T08:31:06.151Z</time>
      </trkpt>
      <trkpt lat="39.23456833" lon="-8.685795">
        <ele>106.0</ele>
        <time>2019-05-17T08:31:07.167Z</time>
      </trkpt>
      <trkpt lat="39.23453833" lon="-8.68577833">
        <ele>107.0</ele>
        <time>2019-05-17T08:31:08.183Z</time>
      </trkpt>
      <trkpt lat="39.23453833" lon="-8.68577833">
        <ele>107.0</ele>
        <time>2019-05-17T08:31:09.156Z</time>
      </trkpt>
      <trkpt lat="39.23453167" lon="-8.68577667">
        <ele>106.0</ele>
        <time>2019-05-17T08:31:10.168Z</time>
      </trkpt>
      <trkpt lat="39.23453167" lon="-8.68577667">
        <ele>106.0</ele>
        <time>2019-05-17T08:31:11.173Z</time>
      </trkpt>
      <trkpt lat="39.23453167" lon="-8.68577667">
        <ele>106.0</ele>
        <time>2019-05-17T08:31:12.164Z</time>
      </trkpt>
      <trkpt lat="39.23453167" lon="-8.68577667">
        <ele>106.0</ele>
        <time>2019-05-17T08:31:13.177Z</time>
      </trkpt>
      <trkpt lat="39.23453167" lon="-8.68577667">
        <ele>106.0</ele>
        <time>2019-05-17T08:31:14.164Z</time>
      </trkpt>
      <trkpt lat="39.2345" lon="-8.68576167">
        <ele>107.0</ele>
        <time>2019-05-17T08:31:15.166Z</time>
      </trkpt>
      <trkpt lat="39.2345" lon="-8.68576167">
        <ele>107.0</ele>
        <time>2019-05-17T08:31:16.161Z</time>
      </trkpt>
      <trkpt lat="39.23446167" lon="-8.68576">
        <ele>106.0</ele>
        <time>2019-05-17T08:31:17.182Z</time>
      </trkpt>
      <trkpt lat="39.23443833" lon="-8.68576">
        <ele>106.0</ele>
        <time>2019-05-17T08:31:18.167Z</time>
      </trkpt>
      <trkpt lat="39.23443833" lon="-8.68576">
        <ele>106.0</ele>
        <time>2019-05-17T08:31:19.166Z</time>
      </trkpt>
      <trkpt lat="39.23439667" lon="-8.685745">
        <ele>105.0</ele>
        <time>2019-05-17T08:31:20.185Z</time>
      </trkpt>
      <trkpt lat="39.23439667" lon="-8.685745">
        <ele>105.0</ele>
        <time>2019-05-17T08:31:21.179Z</time>
      </trkpt>
      <trkpt lat="39.23436" lon="-8.68571833">
        <ele>105.0</ele>
        <time>2019-05-17T08:31:22.152Z</time>
      </trkpt>
      <trkpt lat="39.23436" lon="-8.68571833">
        <ele>105.0</ele>
        <time>2019-05-17T08:31:23.162Z</time>
      </trkpt>
      <trkpt lat="39.23432" lon="-8.68568667">
        <ele>105.0</ele>
        <time>2019-05-17T08:31:24.172Z</time>
      </trkpt>
      <trkpt lat="39.23432" lon="-8.68568667">
        <ele>105.0</ele>
        <time>2019-05-17T08:31:25.189Z</time>
      </trkpt>
      <trkpt lat="39.23427667" lon="-8.68565167">
        <ele>105.0</ele>
        <time>2019-05-17T08:31:26.166Z</time>
      </trkpt>
      <trkpt lat="39.23427667" lon="-8.68565167">
        <ele>105.0</ele>
        <time>2019-05-17T08:31:27.159Z</time>
      </trkpt>
      <trkpt lat="39.23422833" lon="-8.68561333">
        <ele>105.0</ele>
        <time>2019-05-17T08:31:28.175Z</time>
      </trkpt>
      <trkpt lat="39.23422833" lon="-8.68561333">
        <ele>105.0</ele>
        <time>2019-05-17T08:31:29.155Z</time>
      </trkpt>
      <trkpt lat="39.23418" lon="-8.68556833">
        <ele>104.0</ele>
        <time>2019-05-17T08:31:30.164Z</time>
      </trkpt>
      <trkpt lat="39.23418" lon="-8.68556833">
        <ele>104.0</ele>
        <time>2019-05-17T08:31:31.179Z</time>
      </trkpt>
      <trkpt lat="39.23414" lon="-8.68551833">
        <ele>104.0</ele>
        <time>2019-05-17T08:31:32.175Z</time>
      </trkpt>
      <trkpt lat="39.23414" lon="-8.68551833">
        <ele>104.0</ele>
        <time>2019-05-17T08:31:33.181Z</time>
      </trkpt>
      <trkpt lat="39.23409833" lon="-8.685475">
        <ele>103.0</ele>
        <time>2019-05-17T08:31:34.164Z</time>
      </trkpt>
      <trkpt lat="39.23409833" lon="-8.685475">
        <ele>103.0</ele>
        <time>2019-05-17T08:31:35.183Z</time>
      </trkpt>
      <trkpt lat="39.234055" lon="-8.68543833">
        <ele>102.0</ele>
        <time>2019-05-17T08:31:36.176Z</time>
      </trkpt>
      <trkpt lat="39.234055" lon="-8.68543833">
        <ele>102.0</ele>
        <time>2019-05-17T08:31:37.160Z</time>
      </trkpt>
      <trkpt lat="39.234015" lon="-8.68539333">
        <ele>102.0</ele>
        <time>2019-05-17T08:31:38.169Z</time>
      </trkpt>
      <trkpt lat="39.234015" lon="-8.68539333">
        <ele>102.0</ele>
        <time>2019-05-17T08:31:39.184Z</time>
      </trkpt>
      <trkpt lat="39.23398" lon="-8.68533333">
        <ele>102.0</ele>
        <time>2019-05-17T08:31:40.160Z</time>
      </trkpt>
      <trkpt lat="39.23398" lon="-8.68533333">
        <ele>102.0</ele>
        <time>2019-05-17T08:31:41.168Z</time>
      </trkpt>
      <trkpt lat="39.23395667" lon="-8.68528833">
        <ele>101.0</ele>
        <time>2019-05-17T08:31:42.178Z</time>
      </trkpt>
      <trkpt lat="39.23395667" lon="-8.68528833">
        <ele>101.0</ele>
        <time>2019-05-17T08:31:43.161Z</time>
      </trkpt>
      <trkpt lat="39.23392667" lon="-8.68527">
        <ele>102.0</ele>
        <time>2019-05-17T08:31:44.175Z</time>
      </trkpt>
      <trkpt lat="39.23392667" lon="-8.68527">
        <ele>102.0</ele>
        <time>2019-05-17T08:31:45.155Z</time>
      </trkpt>
      <trkpt lat="39.23389167" lon="-8.68527333">
        <ele>102.0</ele>
        <time>2019-05-17T08:31:46.166Z</time>
      </trkpt>
      <trkpt lat="39.233875" lon="-8.685275">
        <ele>102.0</ele>
        <time>2019-05-17T08:31:47.156Z</time>
      </trkpt>
      <trkpt lat="39.23385833" lon="-8.68527667">
        <ele>102.0</ele>
        <time>2019-05-17T08:31:48.182Z</time>
      </trkpt>
      <trkpt lat="39.23385833" lon="-8.68527667">
        <ele>102.0</ele>
        <time>2019-05-17T08:31:49.157Z</time>
      </trkpt>
      <trkpt lat="39.23382" lon="-8.68527833">
        <ele>102.0</ele>
        <time>2019-05-17T08:31:50.173Z</time>
      </trkpt>
      <trkpt lat="39.23382" lon="-8.68527833">
        <ele>102.0</ele>
        <time>2019-05-17T08:31:51.182Z</time>
      </trkpt>
      <trkpt lat="39.23378333" lon="-8.68526667">
        <ele>102.0</ele>
        <time>2019-05-17T08:31:52.165Z</time>
      </trkpt>
      <trkpt lat="39.23378333" lon="-8.68526667">
        <ele>102.0</ele>
        <time>2019-05-17T08:31:53.186Z</time>
      </trkpt>
      <trkpt lat="39.23376833" lon="-8.68523667">
        <ele>102.0</ele>
        <time>2019-05-17T08:31:54.167Z</time>
      </trkpt>
      <trkpt lat="39.23376833" lon="-8.68523667">
        <ele>102.0</ele>
        <time>2019-05-17T08:31:55.178Z</time>
      </trkpt>
      <trkpt lat="39.23375667" lon="-8.68519333">
        <ele>102.0</ele>
        <time>2019-05-17T08:31:56.187Z</time>
      </trkpt>
      <trkpt lat="39.23375667" lon="-8.68519333">
        <ele>102.0</ele>
        <time>2019-05-17T08:31:57.162Z</time>
      </trkpt>
      <trkpt lat="39.23372167" lon="-8.68513833">
        <ele>102.0</ele>
        <time>2019-05-17T08:31:58.186Z</time>
      </trkpt>
      <trkpt lat="39.23372167" lon="-8.68513833">
        <ele>102.0</ele>
        <time>2019-05-17T08:31:59.169Z</time>
      </trkpt>
      <trkpt lat="39.23368" lon="-8.68507333">
        <ele>102.0</ele>
        <time>2019-05-17T08:32:00.179Z</time>
      </trkpt>
      <trkpt lat="39.23368" lon="-8.68507333">
        <ele>102.0</ele>
        <time>2019-05-17T08:32:01.158Z</time>
      </trkpt>
      <trkpt lat="39.23364833" lon="-8.685005">
        <ele>103.0</ele>
        <time>2019-05-17T08:32:02.171Z</time>
      </trkpt>
      <trkpt lat="39.23364833" lon="-8.685005">
        <ele>103.0</ele>
        <time>2019-05-17T08:32:03.151Z</time>
      </trkpt>
      <trkpt lat="39.23361333" lon="-8.68492833">
        <ele>103.0</ele>
        <time>2019-05-17T08:32:04.153Z</time>
      </trkpt>
      <trkpt lat="39.23361333" lon="-8.68492833">
        <ele>103.0</ele>
        <time>2019-05-17T08:32:05.187Z</time>
      </trkpt>
      <trkpt lat="39.23357" lon="-8.68485333">
        <ele>105.0</ele>
        <time>2019-05-17T08:32:06.155Z</time>
      </trkpt>
      <trkpt lat="39.23357" lon="-8.68485333">
        <ele>105.0</ele>
        <time>2019-05-17T08:32:07.163Z</time>
      </trkpt>
      <trkpt lat="39.23354167" lon="-8.68478">
        <ele>105.0</ele>
        <time>2019-05-17T08:32:08.173Z</time>
      </trkpt>
      <trkpt lat="39.23354167" lon="-8.68478">
        <ele>105.0</ele>
        <time>2019-05-17T08:32:09.169Z</time>
      </trkpt>
      <trkpt lat="39.23351167" lon="-8.68475167">
        <ele>107.0</ele>
        <time>2019-05-17T08:32:10.179Z</time>
      </trkpt>
      <trkpt lat="39.23351167" lon="-8.68475167">
        <ele>107.0</ele>
        <time>2019-05-17T08:32:11.162Z</time>
      </trkpt>
      <trkpt lat="39.23349333" lon="-8.68473667">
        <ele>108.0</ele>
        <time>2019-05-17T08:32:12.174Z</time>
      </trkpt>
      <trkpt lat="39.23349333" lon="-8.68473667">
        <ele>108.0</ele>
        <time>2019-05-17T08:32:13.168Z</time>
      </trkpt>
      <trkpt lat="39.23350667" lon="-8.68472333">
        <ele>109.0</ele>
        <time>2019-05-17T08:32:14.175Z</time>
      </trkpt>
      <trkpt lat="39.23350667" lon="-8.68472333">
        <ele>109.0</ele>
        <time>2019-05-17T08:32:15.181Z</time>
      </trkpt>
      <trkpt lat="39.23350667" lon="-8.68472333">
        <ele>109.0</ele>
        <time>2019-05-17T08:32:16.186Z</time>
      </trkpt>
      <trkpt lat="39.23350667" lon="-8.68472333">
        <ele>109.0</ele>
        <time>2019-05-17T08:32:17.165Z</time>
      </trkpt>
      <trkpt lat="39.23350667" lon="-8.68472333">
        <ele>109.0</ele>
        <time>2019-05-17T08:32:18.169Z</time>
      </trkpt>
      <trkpt lat="39.23350667" lon="-8.68472333">
        <ele>109.0</ele>
        <time>2019-05-17T08:32:19.161Z</time>
      </trkpt>
      <trkpt lat="39.23350667" lon="-8.68472333">
        <ele>109.0</ele>
        <time>2019-05-17T08:32:20.166Z</time>
      </trkpt>
      <trkpt lat="39.23350667" lon="-8.68472333">
        <ele>109.0</ele>
        <time>2019-05-17T08:32:21.161Z</time>
      </trkpt>
      <trkpt lat="39.23350667" lon="-8.68472333">
        <ele>109.0</ele>
        <time>2019-05-17T08:32:22.178Z</time>
      </trkpt>
      <trkpt lat="39.23350667" lon="-8.68472333">
        <ele>109.0</ele>
        <time>2019-05-17T08:32:23.161Z</time>
      </trkpt>
      <trkpt lat="39.23350667" lon="-8.68472333">
        <ele>109.0</ele>
        <time>2019-05-17T08:32:24.188Z</time>
      </trkpt>
      <trkpt lat="39.23350667" lon="-8.68472333">
        <ele>109.0</ele>
        <time>2019-05-17T08:32:25.167Z</time>
      </trkpt>
      <trkpt lat="39.23350667" lon="-8.68472333">
        <ele>109.0</ele>
        <time>2019-05-17T08:32:26.166Z</time>
      </trkpt>
      <trkpt lat="39.23350667" lon="-8.68472333">
        <ele>109.0</ele>
        <time>2019-05-17T08:32:27.161Z</time>
      </trkpt>
      <trkpt lat="39.23350667" lon="-8.68472333">
        <ele>109.0</ele>
        <time>2019-05-17T08:32:28.163Z</time>
      </trkpt>
      <trkpt lat="39.23350667" lon="-8.68472333">
        <ele>109.0</ele>
        <time>2019-05-17T08:32:29.188Z</time>
      </trkpt>
      <trkpt lat="39.23350667" lon="-8.68472333">
        <ele>109.0</ele>
        <time>2019-05-17T08:32:30.171Z</time>
      </trkpt>
      <trkpt lat="39.23350667" lon="-8.68472333">
        <ele>109.0</ele>
        <time>2019-05-17T08:32:31.161Z</time>
      </trkpt>
      <trkpt lat="39.23350667" lon="-8.68472333">
        <ele>109.0</ele>
        <time>2019-05-17T08:32:32.166Z</time>
      </trkpt>
      <trkpt lat="39.23350667" lon="-8.68472333">
        <ele>109.0</ele>
        <time>2019-05-17T08:32:33.161Z</time>
      </trkpt>
      <trkpt lat="39.23350667" lon="-8.68472333">
        <ele>109.0</ele>
        <time>2019-05-17T08:32:34.186Z</time>
      </trkpt>
      <trkpt lat="39.23350667" lon="-8.68472333">
        <ele>109.0</ele>
        <time>2019-05-17T08:32:35.168Z</time>
      </trkpt>
      <trkpt lat="39.23350667" lon="-8.68472333">
        <ele>109.0</ele>
        <time>2019-05-17T08:32:36.165Z</time>
      </trkpt>
      <trkpt lat="39.23350667" lon="-8.68472333">
        <ele>109.0</ele>
        <time>2019-05-17T08:32:37.161Z</time>
      </trkpt>
      <trkpt lat="39.23350667" lon="-8.68472333">
        <ele>109.0</ele>
        <time>2019-05-17T08:32:38.163Z</time>
      </trkpt>
      <trkpt lat="39.23350667" lon="-8.68472333">
        <ele>109.0</ele>
        <time>2019-05-17T08:32:39.185Z</time>
      </trkpt>
      <trkpt lat="39.23350667" lon="-8.68472333">
        <ele>109.0</ele>
        <time>2019-05-17T08:32:40.168Z</time>
      </trkpt>
      <trkpt lat="39.23350667" lon="-8.68472333">
        <ele>109.0</ele>
        <time>2019-05-17T08:32:41.161Z</time>
      </trkpt>
      <trkpt lat="39.23350667" lon="-8.68472333">
        <ele>109.0</ele>
        <time>2019-05-17T08:32:42.183Z</time>
      </trkpt>
      <trkpt lat="39.23350667" lon="-8.68472333">
        <ele>109.0</ele>
        <time>2019-05-17T08:32:43.164Z</time>
      </trkpt>
      <trkpt lat="39.23359167" lon="-8.68467833">
        <ele>118.0</ele>
        <time>2019-05-17T08:32:44.167Z</time>
      </trkpt>
      <trkpt lat="39.23359167" lon="-8.68467833">
        <ele>118.0</ele>
        <time>2019-05-17T08:32:45.161Z</time>
      </trkpt>
      <trkpt lat="39.23359833" lon="-8.68467333">
        <ele>118.0</ele>
        <time>2019-05-17T08:32:46.165Z</time>
      </trkpt>
      <trkpt lat="39.23360167" lon="-8.684675">
        <ele>118.0</ele>
        <time>2019-05-17T08:32:47.182Z</time>
      </trkpt>
      <trkpt lat="39.23361" lon="-8.68467667">
        <ele>118.0</ele>
        <time>2019-05-17T08:32:48.172Z</time>
      </trkpt>
      <trkpt lat="39.23361" lon="-8.68467667">
        <ele>118.0</ele>
        <time>2019-05-17T08:32:49.161Z</time>
      </trkpt>
      <trkpt lat="39.23361833" lon="-8.68467667">
        <ele>117.0</ele>
        <time>2019-05-17T08:32:50.169Z</time>
      </trkpt>
      <trkpt lat="39.23361833" lon="-8.68467667">
        <ele>117.0</ele>
        <time>2019-05-17T08:32:51.161Z</time>
      </trkpt>
      <trkpt lat="39.23362" lon="-8.68468167">
        <ele>117.0</ele>
        <time>2019-05-17T08:32:52.156Z</time>
      </trkpt>
      <trkpt lat="39.23362" lon="-8.68468167">
        <ele>117.0</ele>
        <time>2019-05-17T08:32:53.180Z</time>
      </trkpt>
      <trkpt lat="39.23362" lon="-8.68469">
        <ele>116.0</ele>
        <time>2019-05-17T08:32:54.169Z</time>
      </trkpt>
      <trkpt lat="39.23360833" lon="-8.68470167">
        <ele>116.0</ele>
        <time>2019-05-17T08:32:55.167Z</time>
      </trkpt>
      <trkpt lat="39.23359833" lon="-8.684715">
        <ele>116.0</ele>
        <time>2019-05-17T08:32:56.168Z</time>
      </trkpt>
      <trkpt lat="39.23359833" lon="-8.684715">
        <ele>116.0</ele>
        <time>2019-05-17T08:32:57.186Z</time>
      </trkpt>
      <trkpt lat="39.23358833" lon="-8.684725">
        <ele>117.0</ele>
        <time>2019-05-17T08:32:58.167Z</time>
      </trkpt>
      <trkpt lat="39.23358833" lon="-8.684725">
        <ele>117.0</ele>
        <time>2019-05-17T08:32:59.163Z</time>
      </trkpt>
      <trkpt lat="39.23358833" lon="-8.684725">
        <ele>117.0</ele>
        <time>2019-05-17T08:33:00.172Z</time>
      </trkpt>
      <trkpt lat="39.23358833" lon="-8.684725">
        <ele>117.0</ele>
        <time>2019-05-17T08:33:01.162Z</time>
      </trkpt>
      <trkpt lat="39.23358833" lon="-8.684725">
        <ele>117.0</ele>
        <time>2019-05-17T08:33:02.186Z</time>
      </trkpt>
      <trkpt lat="39.23358833" lon="-8.684725">
        <ele>117.0</ele>
        <time>2019-05-17T08:33:03.169Z</time>
      </trkpt>
      <trkpt lat="39.23356333" lon="-8.68476">
        <ele>116.0</ele>
        <time>2019-05-17T08:33:04.167Z</time>
      </trkpt>
      <trkpt lat="39.233575" lon="-8.68477167">
        <ele>116.0</ele>
        <time>2019-05-17T08:33:05.167Z</time>
      </trkpt>
      <trkpt lat="39.233585" lon="-8.68478167">
        <ele>115.0</ele>
        <time>2019-05-17T08:33:06.170Z</time>
      </trkpt>
      <trkpt lat="39.233585" lon="-8.68478167">
        <ele>115.0</ele>
        <time>2019-05-17T08:33:07.161Z</time>
      </trkpt>
      <trkpt lat="39.23362" lon="-8.684815">
        <ele>114.0</ele>
        <time>2019-05-17T08:33:08.164Z</time>
      </trkpt>
      <trkpt lat="39.23363333" lon="-8.68484833">
        <ele>114.0</ele>
        <time>2019-05-17T08:33:09.208Z</time>
      </trkpt>
      <trkpt lat="39.23363333" lon="-8.68484833">
        <ele>114.0</ele>
        <time>2019-05-17T08:33:10.151Z</time>
      </trkpt>
      <trkpt lat="39.23366" lon="-8.68491833">
        <ele>114.0</ele>
        <time>2019-05-17T08:33:11.167Z</time>
      </trkpt>
      <trkpt lat="39.23367833" lon="-8.68496">
        <ele>114.0</ele>
        <time>2019-05-17T08:33:12.179Z</time>
      </trkpt>
      <trkpt lat="39.23367833" lon="-8.68496">
        <ele>114.0</ele>
        <time>2019-05-17T08:33:13.187Z</time>
      </trkpt>
      <trkpt lat="39.233705" lon="-8.68503">
        <ele>113.0</ele>
        <time>2019-05-17T08:33:14.158Z</time>
      </trkpt>
      <trkpt lat="39.233705" lon="-8.68503">
        <ele>113.0</ele>
        <time>2019-05-17T08:33:15.167Z</time>
      </trkpt>
      <trkpt lat="39.23373" lon="-8.68505167">
        <ele>111.0</ele>
        <time>2019-05-17T08:33:16.180Z</time>
      </trkpt>
      <trkpt lat="39.23373" lon="-8.68505167">
        <ele>111.0</ele>
        <time>2019-05-17T08:33:17.157Z</time>
      </trkpt>
      <trkpt lat="39.23374667" lon="-8.685085">
        <ele>113.0</ele>
        <time>2019-05-17T08:33:18.175Z</time>
      </trkpt>
      <trkpt lat="39.23374667" lon="-8.685085">
        <ele>113.0</ele>
        <time>2019-05-17T08:33:19.153Z</time>
      </trkpt>
      <trkpt lat="39.23377167" lon="-8.68506333">
        <ele>113.0</ele>
        <time>2019-05-17T08:33:20.165Z</time>
      </trkpt>
      <trkpt lat="39.23377167" lon="-8.68506333">
        <ele>113.0</ele>
        <time>2019-05-17T08:33:21.178Z</time>
      </trkpt>
      <trkpt lat="39.233805" lon="-8.68502333">
        <ele>112.0</ele>
        <time>2019-05-17T08:33:22.169Z</time>
      </trkpt>
      <trkpt lat="39.233805" lon="-8.68502333">
        <ele>112.0</ele>
        <time>2019-05-17T08:33:23.174Z</time>
      </trkpt>
      <trkpt lat="39.233835" lon="-8.68497167">
        <ele>111.0</ele>
        <time>2019-05-17T08:33:24.182Z</time>
      </trkpt>
      <trkpt lat="39.233835" lon="-8.68497167">
        <ele>111.0</ele>
        <time>2019-05-17T08:33:25.153Z</time>
      </trkpt>
      <trkpt lat="39.23386333" lon="-8.68491">
        <ele>112.0</ele>
        <time>2019-05-17T08:33:26.161Z</time>
      </trkpt>
      <trkpt lat="39.23386333" lon="-8.68491">
        <ele>112.0</ele>
        <time>2019-05-17T08:33:27.170Z</time>
      </trkpt>
      <trkpt lat="39.23388833" lon="-8.68485667">
        <ele>112.0</ele>
        <time>2019-05-17T08:33:28.159Z</time>
      </trkpt>
      <trkpt lat="39.23388833" lon="-8.68485667">
        <ele>112.0</ele>
        <time>2019-05-17T08:33:29.185Z</time>
      </trkpt>
      <trkpt lat="39.23391" lon="-8.68480167">
        <ele>112.0</ele>
        <time>2019-05-17T08:33:30.160Z</time>
      </trkpt>
      <trkpt lat="39.23391" lon="-8.68480167">
        <ele>112.0</ele>
        <time>2019-05-17T08:33:31.167Z</time>
      </trkpt>
      <trkpt lat="39.23392" lon="-8.68474667">
        <ele>110.0</ele>
        <time>2019-05-17T08:33:32.188Z</time>
      </trkpt>
      <trkpt lat="39.23392" lon="-8.68474667">
        <ele>110.0</ele>
        <time>2019-05-17T08:33:33.156Z</time>
      </trkpt>
      <trkpt lat="39.23393667" lon="-8.684695">
        <ele>109.0</ele>
        <time>2019-05-17T08:33:34.165Z</time>
      </trkpt>
      <trkpt lat="39.23393667" lon="-8.684695">
        <ele>109.0</ele>
        <time>2019-05-17T08:33:35.181Z</time>
      </trkpt>
      <trkpt lat="39.23395333" lon="-8.68464167">
        <ele>109.0</ele>
        <time>2019-05-17T08:33:36.161Z</time>
      </trkpt>
      <trkpt lat="39.23395333" lon="-8.68464167">
        <ele>109.0</ele>
        <time>2019-05-17T08:33:37.156Z</time>
      </trkpt>
      <trkpt lat="39.23397667" lon="-8.68458833">
        <ele>109.0</ele>
        <time>2019-05-17T08:33:38.189Z</time>
      </trkpt>
      <trkpt lat="39.23397667" lon="-8.68458833">
        <ele>109.0</ele>
        <time>2019-05-17T08:33:39.163Z</time>
      </trkpt>
      <trkpt lat="39.23400667" lon="-8.68454">
        <ele>108.0</ele>
        <time>2019-05-17T08:33:40.169Z</time>
      </trkpt>
      <trkpt lat="39.23400667" lon="-8.68454">
        <ele>108.0</ele>
        <time>2019-05-17T08:33:41.161Z</time>
      </trkpt>
      <trkpt lat="39.234025" lon="-8.68449333">
        <ele>108.0</ele>
        <time>2019-05-17T08:33:42.178Z</time>
      </trkpt>
      <trkpt lat="39.234025" lon="-8.68449333">
        <ele>108.0</ele>
        <time>2019-05-17T08:33:43.178Z</time>
      </trkpt>
      <trkpt lat="39.23405333" lon="-8.68444833">
        <ele>107.0</ele>
        <time>2019-05-17T08:33:44.187Z</time>
      </trkpt>
      <trkpt lat="39.23405333" lon="-8.68444833">
        <ele>107.0</ele>
        <time>2019-05-17T08:33:45.156Z</time>
      </trkpt>
      <trkpt lat="39.23408" lon="-8.68439">
        <ele>107.0</ele>
        <time>2019-05-17T08:33:46.170Z</time>
      </trkpt>
      <trkpt lat="39.23408" lon="-8.68439">
        <ele>107.0</ele>
        <time>2019-05-17T08:33:47.156Z</time>
      </trkpt>
      <trkpt lat="39.2341" lon="-8.68433167">
        <ele>107.0</ele>
        <time>2019-05-17T08:33:48.234Z</time>
      </trkpt>
      <trkpt lat="39.2341" lon="-8.68433167">
        <ele>107.0</ele>
        <time>2019-05-17T08:33:49.160Z</time>
      </trkpt>
      <trkpt lat="39.23412333" lon="-8.68429167">
        <ele>108.0</ele>
        <time>2019-05-17T08:33:50.168Z</time>
      </trkpt>
      <trkpt lat="39.23413167" lon="-8.68427833">
        <ele>108.0</ele>
        <time>2019-05-17T08:33:51.189Z</time>
      </trkpt>
      <trkpt lat="39.23413167" lon="-8.68427833">
        <ele>108.0</ele>
        <time>2019-05-17T08:33:52.159Z</time>
      </trkpt>
      <trkpt lat="39.234145" lon="-8.684245">
        <ele>107.0</ele>
        <time>2019-05-17T08:33:53.177Z</time>
      </trkpt>
      <trkpt lat="39.23415167" lon="-8.68422667">
        <ele>106.0</ele>
        <time>2019-05-17T08:33:54.161Z</time>
      </trkpt>
      <trkpt lat="39.23415167" lon="-8.68422667">
        <ele>106.0</ele>
        <time>2019-05-17T08:33:55.173Z</time>
      </trkpt>
      <trkpt lat="39.234165" lon="-8.684195">
        <ele>106.0</ele>
        <time>2019-05-17T08:33:56.188Z</time>
      </trkpt>
      <trkpt lat="39.234165" lon="-8.684195">
        <ele>106.0</ele>
        <time>2019-05-17T08:33:57.158Z</time>
      </trkpt>
      <trkpt lat="39.23417667" lon="-8.684155">
        <ele>105.0</ele>
        <time>2019-05-17T08:33:58.173Z</time>
      </trkpt>
      <trkpt lat="39.23417667" lon="-8.684155">
        <ele>105.0</ele>
        <time>2019-05-17T08:33:59.158Z</time>
      </trkpt>
      <trkpt lat="39.23418833" lon="-8.68411">
        <ele>105.0</ele>
        <time>2019-05-17T08:34:00.171Z</time>
      </trkpt>
      <trkpt lat="39.234195" lon="-8.68409">
        <ele>105.0</ele>
        <time>2019-05-17T08:34:01.189Z</time>
      </trkpt>
      <trkpt lat="39.234195" lon="-8.68409">
        <ele>105.0</ele>
        <time>2019-05-17T08:34:02.180Z</time>
      </trkpt>
      <trkpt lat="39.23421" lon="-8.684055">
        <ele>105.0</ele>
        <time>2019-05-17T08:34:03.187Z</time>
      </trkpt>
      <trkpt lat="39.23421" lon="-8.684055">
        <ele>105.0</ele>
        <time>2019-05-17T08:34:04.161Z</time>
      </trkpt>
      <trkpt lat="39.23422833" lon="-8.68401167">
        <ele>105.0</ele>
        <time>2019-05-17T08:34:05.173Z</time>
      </trkpt>
      <trkpt lat="39.23424167" lon="-8.68399167">
        <ele>105.0</ele>
        <time>2019-05-17T08:34:06.154Z</time>
      </trkpt>
      <trkpt lat="39.23424167" lon="-8.68399167">
        <ele>105.0</ele>
        <time>2019-05-17T08:34:07.182Z</time>
      </trkpt>
      <trkpt lat="39.23426833" lon="-8.68396167">
        <ele>106.0</ele>
        <time>2019-05-17T08:34:08.158Z</time>
      </trkpt>
      <trkpt lat="39.23426833" lon="-8.68396167">
        <ele>106.0</ele>
        <time>2019-05-17T08:34:09.167Z</time>
      </trkpt>
      <trkpt lat="39.23429333" lon="-8.68393667">
        <ele>106.0</ele>
        <time>2019-05-17T08:34:10.180Z</time>
      </trkpt>
      <trkpt lat="39.2343" lon="-8.68391833">
        <ele>106.0</ele>
        <time>2019-05-17T08:34:11.162Z</time>
      </trkpt>
      <trkpt lat="39.234305" lon="-8.68388833">
        <ele>106.0</ele>
        <time>2019-05-17T08:34:12.152Z</time>
      </trkpt>
      <trkpt lat="39.234305" lon="-8.68388833">
        <ele>106.0</ele>
        <time>2019-05-17T08:34:13.181Z</time>
      </trkpt>
      <trkpt lat="39.23432167" lon="-8.68383">
        <ele>105.0</ele>
        <time>2019-05-17T08:34:14.151Z</time>
      </trkpt>
      <trkpt lat="39.23433" lon="-8.683805">
        <ele>105.0</ele>
        <time>2019-05-17T08:34:15.173Z</time>
      </trkpt>
      <trkpt lat="39.23433" lon="-8.683805">
        <ele>105.0</ele>
        <time>2019-05-17T08:34:16.150Z</time>
      </trkpt>
      <trkpt lat="39.23434167" lon="-8.68375667">
        <ele>105.0</ele>
        <time>2019-05-17T08:34:17.172Z</time>
      </trkpt>
      <trkpt lat="39.23435" lon="-8.68373167">
        <ele>105.0</ele>
        <time>2019-05-17T08:34:18.186Z</time>
      </trkpt>
      <trkpt lat="39.23435833" lon="-8.68370833">
        <ele>105.0</ele>
        <time>2019-05-17T08:34:19.168Z</time>
      </trkpt>
      <trkpt lat="39.23435833" lon="-8.68370833">
        <ele>105.0</ele>
        <time>2019-05-17T08:34:20.178Z</time>
      </trkpt>
      <trkpt lat="39.23436667" lon="-8.68366">
        <ele>105.0</ele>
        <time>2019-05-17T08:34:21.151Z</time>
      </trkpt>
      <trkpt lat="39.23436667" lon="-8.68366">
        <ele>105.0</ele>
        <time>2019-05-17T08:34:22.173Z</time>
      </trkpt>
      <trkpt lat="39.234365" lon="-8.68360667">
        <ele>104.0</ele>
        <time>2019-05-17T08:34:23.153Z</time>
      </trkpt>
      <trkpt lat="39.23436333" lon="-8.68357667">
        <ele>104.0</ele>
        <time>2019-05-17T08:34:24.176Z</time>
      </trkpt>
      <trkpt lat="39.23436333" lon="-8.68357667">
        <ele>104.0</ele>
        <time>2019-05-17T08:34:25.150Z</time>
      </trkpt>
      <trkpt lat="39.23436333" lon="-8.68353167">
        <ele>104.0</ele>
        <time>2019-05-17T08:34:26.157Z</time>
      </trkpt>
      <trkpt lat="39.23436333" lon="-8.68353167">
        <ele>104.0</ele>
        <time>2019-05-17T08:34:27.178Z</time>
      </trkpt>
      <trkpt lat="39.234365" lon="-8.68350333">
        <ele>104.0</ele>
        <time>2019-05-17T08:34:28.187Z</time>
      </trkpt>
      <trkpt lat="39.23436833" lon="-8.68349">
        <ele>104.0</ele>
        <time>2019-05-17T08:34:29.157Z</time>
      </trkpt>
      <trkpt lat="39.23437333" lon="-8.68347333">
        <ele>104.0</ele>
        <time>2019-05-17T08:34:30.181Z</time>
      </trkpt>
      <trkpt lat="39.23437333" lon="-8.68347333">
        <ele>104.0</ele>
        <time>2019-05-17T08:34:31.166Z</time>
      </trkpt>
      <trkpt lat="39.23439333" lon="-8.68344167">
        <ele>104.0</ele>
        <time>2019-05-17T08:34:32.180Z</time>
      </trkpt>
      <trkpt lat="39.23439333" lon="-8.68344167">
        <ele>104.0</ele>
        <time>2019-05-17T08:34:33.154Z</time>
      </trkpt>
      <trkpt lat="39.23441667" lon="-8.683415">
        <ele>103.0</ele>
        <time>2019-05-17T08:34:34.167Z</time>
      </trkpt>
      <trkpt lat="39.23441667" lon="-8.683415">
        <ele>103.0</ele>
        <time>2019-05-17T08:34:35.176Z</time>
      </trkpt>
      <trkpt lat="39.23443" lon="-8.68338833">
        <ele>103.0</ele>
        <time>2019-05-17T08:34:36.187Z</time>
      </trkpt>
      <trkpt lat="39.23443" lon="-8.68338833">
        <ele>103.0</ele>
        <time>2019-05-17T08:34:37.163Z</time>
      </trkpt>
      <trkpt lat="39.23444833" lon="-8.683355">
        <ele>104.0</ele>
        <time>2019-05-17T08:34:38.183Z</time>
      </trkpt>
      <trkpt lat="39.23444833" lon="-8.683355">
        <ele>104.0</ele>
        <time>2019-05-17T08:34:39.175Z</time>
      </trkpt>
      <trkpt lat="39.234465" lon="-8.68332333">
        <ele>103.0</ele>
        <time>2019-05-17T08:34:40.182Z</time>
      </trkpt>
      <trkpt lat="39.234465" lon="-8.68332333">
        <ele>103.0</ele>
        <time>2019-05-17T08:34:41.162Z</time>
      </trkpt>
      <trkpt lat="39.23448333" lon="-8.68328667">
        <ele>103.0</ele>
        <time>2019-05-17T08:34:42.175Z</time>
      </trkpt>
      <trkpt lat="39.23448333" lon="-8.68328667">
        <ele>103.0</ele>
        <time>2019-05-17T08:34:43.155Z</time>
      </trkpt>
      <trkpt lat="39.23448833" lon="-8.68325333">
        <ele>103.0</ele>
        <time>2019-05-17T08:34:44.166Z</time>
      </trkpt>
      <trkpt lat="39.23448833" lon="-8.68325333">
        <ele>103.0</ele>
        <time>2019-05-17T08:34:45.151Z</time>
      </trkpt>
      <trkpt lat="39.23450167" lon="-8.68322">
        <ele>103.0</ele>
        <time>2019-05-17T08:34:46.167Z</time>
      </trkpt>
      <trkpt lat="39.23450167" lon="-8.68322">
        <ele>103.0</ele>
        <time>2019-05-17T08:34:47.173Z</time>
      </trkpt>
      <trkpt lat="39.23451333" lon="-8.68318333">
        <ele>103.0</ele>
        <time>2019-05-17T08:34:48.184Z</time>
      </trkpt>
      <trkpt lat="39.23451333" lon="-8.68318333">
        <ele>103.0</ele>
        <time>2019-05-17T08:34:49.159Z</time>
      </trkpt>
      <trkpt lat="39.23452167" lon="-8.68315167">
        <ele>102.0</ele>
        <time>2019-05-17T08:34:50.172Z</time>
      </trkpt>
      <trkpt lat="39.23452167" lon="-8.68315167">
        <ele>102.0</ele>
        <time>2019-05-17T08:34:51.161Z</time>
      </trkpt>
      <trkpt lat="39.23453" lon="-8.68312">
        <ele>102.0</ele>
        <time>2019-05-17T08:34:52.173Z</time>
      </trkpt>
      <trkpt lat="39.23453" lon="-8.68312">
        <ele>102.0</ele>
        <time>2019-05-17T08:34:53.165Z</time>
      </trkpt>
      <trkpt lat="39.23454333" lon="-8.68308167">
        <ele>101.0</ele>
        <time>2019-05-17T08:34:54.179Z</time>
      </trkpt>
      <trkpt lat="39.23454333" lon="-8.68308167">
        <ele>101.0</ele>
        <time>2019-05-17T08:34:55.163Z</time>
      </trkpt>
      <trkpt lat="39.23456" lon="-8.68305167">
        <ele>100.0</ele>
        <time>2019-05-17T08:34:56.170Z</time>
      </trkpt>
      <trkpt lat="39.23456" lon="-8.68305167">
        <ele>100.0</ele>
        <time>2019-05-17T08:34:57.166Z</time>
      </trkpt>
      <trkpt lat="39.234575" lon="-8.68301833">
        <ele>100.0</ele>
        <time>2019-05-17T08:34:58.181Z</time>
      </trkpt>
      <trkpt lat="39.23458333" lon="-8.68299833">
        <ele>100.0</ele>
        <time>2019-05-17T08:34:59.167Z</time>
      </trkpt>
      <trkpt lat="39.23460667" lon="-8.68298833">
        <ele>100.0</ele>
        <time>2019-05-17T08:35:00.188Z</time>
      </trkpt>
      <trkpt lat="39.23460667" lon="-8.68298833">
        <ele>100.0</ele>
        <time>2019-05-17T08:35:01.158Z</time>
      </trkpt>
      <trkpt lat="39.23463333" lon="-8.68294">
        <ele>99.0</ele>
        <time>2019-05-17T08:35:02.168Z</time>
      </trkpt>
      <trkpt lat="39.23463333" lon="-8.68294">
        <ele>99.0</ele>
        <time>2019-05-17T08:35:03.178Z</time>
      </trkpt>
      <trkpt lat="39.23465833" lon="-8.68289167">
        <ele>100.0</ele>
        <time>2019-05-17T08:35:04.159Z</time>
      </trkpt>
      <trkpt lat="39.23465833" lon="-8.68289167">
        <ele>100.0</ele>
        <time>2019-05-17T08:35:05.150Z</time>
      </trkpt>
      <trkpt lat="39.234675" lon="-8.682845">
        <ele>100.0</ele>
        <time>2019-05-17T08:35:06.163Z</time>
      </trkpt>
      <trkpt lat="39.234675" lon="-8.682845">
        <ele>100.0</ele>
        <time>2019-05-17T08:35:07.181Z</time>
      </trkpt>
      <trkpt lat="39.23468833" lon="-8.68279333">
        <ele>100.0</ele>
        <time>2019-05-17T08:35:08.188Z</time>
      </trkpt>
      <trkpt lat="39.23468833" lon="-8.68279333">
        <ele>100.0</ele>
        <time>2019-05-17T08:35:09.156Z</time>
      </trkpt>
      <trkpt lat="39.23471" lon="-8.68274667">
        <ele>101.0</ele>
        <time>2019-05-17T08:35:10.170Z</time>
      </trkpt>
      <trkpt lat="39.23471" lon="-8.68274667">
        <ele>101.0</ele>
        <time>2019-05-17T08:35:11.174Z</time>
      </trkpt>
      <trkpt lat="39.23473" lon="-8.68269">
        <ele>102.0</ele>
        <time>2019-05-17T08:35:12.187Z</time>
      </trkpt>
      <trkpt lat="39.23473" lon="-8.68269">
        <ele>102.0</ele>
        <time>2019-05-17T08:35:13.155Z</time>
      </trkpt>
      <trkpt lat="39.23475833" lon="-8.68264833">
        <ele>104.0</ele>
        <time>2019-05-17T08:35:14.177Z</time>
      </trkpt>
      <trkpt lat="39.23475833" lon="-8.68264833">
        <ele>104.0</ele>
        <time>2019-05-17T08:35:15.164Z</time>
      </trkpt>
      <trkpt lat="39.23478667" lon="-8.682605">
        <ele>105.0</ele>
        <time>2019-05-17T08:35:16.178Z</time>
      </trkpt>
      <trkpt lat="39.23478667" lon="-8.682605">
        <ele>105.0</ele>
        <time>2019-05-17T08:35:17.153Z</time>
      </trkpt>
      <trkpt lat="39.23481667" lon="-8.68256333">
        <ele>105.0</ele>
        <time>2019-05-17T08:35:18.160Z</time>
      </trkpt>
      <trkpt lat="39.23481667" lon="-8.68256333">
        <ele>105.0</ele>
        <time>2019-05-17T08:35:19.153Z</time>
      </trkpt>
      <trkpt lat="39.23483667" lon="-8.682515">
        <ele>105.0</ele>
        <time>2019-05-17T08:35:20.167Z</time>
      </trkpt>
      <trkpt lat="39.23483667" lon="-8.682515">
        <ele>105.0</ele>
        <time>2019-05-17T08:35:21.175Z</time>
      </trkpt>
      <trkpt lat="39.23485667" lon="-8.68246667">
        <ele>104.0</ele>
        <time>2019-05-17T08:35:22.153Z</time>
      </trkpt>
      <trkpt lat="39.23485667" lon="-8.68246667">
        <ele>104.0</ele>
        <time>2019-05-17T08:35:23.169Z</time>
      </trkpt>
      <trkpt lat="39.23487333" lon="-8.68241667">
        <ele>105.0</ele>
        <time>2019-05-17T08:35:24.186Z</time>
      </trkpt>
      <trkpt lat="39.23487333" lon="-8.68241667">
        <ele>105.0</ele>
        <time>2019-05-17T08:35:25.179Z</time>
      </trkpt>
      <trkpt lat="39.234895" lon="-8.68237167">
        <ele>105.0</ele>
        <time>2019-05-17T08:35:26.189Z</time>
      </trkpt>
      <trkpt lat="39.23490667" lon="-8.68235167">
        <ele>105.0</ele>
        <time>2019-05-17T08:35:27.170Z</time>
      </trkpt>
      <trkpt lat="39.23490667" lon="-8.68235167">
        <ele>105.0</ele>
        <time>2019-05-17T08:35:28.181Z</time>
      </trkpt>
      <trkpt lat="39.23491833" lon="-8.68230333">
        <ele>105.0</ele>
        <time>2019-05-17T08:35:29.189Z</time>
      </trkpt>
      <trkpt lat="39.23492333" lon="-8.68228">
        <ele>105.0</ele>
        <time>2019-05-17T08:35:30.169Z</time>
      </trkpt>
      <trkpt lat="39.23492333" lon="-8.68228">
        <ele>105.0</ele>
        <time>2019-05-17T08:35:31.188Z</time>
      </trkpt>
      <trkpt lat="39.23493167" lon="-8.68222667">
        <ele>105.0</ele>
        <time>2019-05-17T08:35:32.161Z</time>
      </trkpt>
      <trkpt lat="39.23493167" lon="-8.68222667">
        <ele>105.0</ele>
        <time>2019-05-17T08:35:33.168Z</time>
      </trkpt>
      <trkpt lat="39.23493" lon="-8.68217167">
        <ele>104.0</ele>
        <time>2019-05-17T08:35:34.167Z</time>
      </trkpt>
      <trkpt lat="39.23493333" lon="-8.68214833">
        <ele>104.0</ele>
        <time>2019-05-17T08:35:35.158Z</time>
      </trkpt>
      <trkpt lat="39.23493333" lon="-8.68214833">
        <ele>104.0</ele>
        <time>2019-05-17T08:35:36.167Z</time>
      </trkpt>
      <trkpt lat="39.23494333" lon="-8.682105">
        <ele>104.0</ele>
        <time>2019-05-17T08:35:37.176Z</time>
      </trkpt>
      <trkpt lat="39.23494333" lon="-8.682105">
        <ele>104.0</ele>
        <time>2019-05-17T08:35:38.187Z</time>
      </trkpt>
      <trkpt lat="39.23496333" lon="-8.68206333">
        <ele>103.0</ele>
        <time>2019-05-17T08:35:39.187Z</time>
      </trkpt>
      <trkpt lat="39.23496333" lon="-8.68206333">
        <ele>103.0</ele>
        <time>2019-05-17T08:35:40.153Z</time>
      </trkpt>
      <trkpt lat="39.23497167" lon="-8.68200333">
        <ele>103.0</ele>
        <time>2019-05-17T08:35:41.167Z</time>
      </trkpt>
      <trkpt lat="39.23497333" lon="-8.681965">
        <ele>103.0</ele>
        <time>2019-05-17T08:35:42.177Z</time>
      </trkpt>
      <trkpt lat="39.23497333" lon="-8.681965">
        <ele>103.0</ele>
        <time>2019-05-17T08:35:43.153Z</time>
      </trkpt>
      <trkpt lat="39.23497833" lon="-8.68189167">
        <ele>103.0</ele>
        <time>2019-05-17T08:35:44.166Z</time>
      </trkpt>
      <trkpt lat="39.23497833" lon="-8.68189167">
        <ele>103.0</ele>
        <time>2019-05-17T08:35:45.180Z</time>
      </trkpt>
      <trkpt lat="39.234995" lon="-8.68184">
        <ele>103.0</ele>
        <time>2019-05-17T08:35:46.154Z</time>
      </trkpt>
      <trkpt lat="39.234995" lon="-8.68184">
        <ele>103.0</ele>
        <time>2019-05-17T08:35:47.160Z</time>
      </trkpt>
      <trkpt lat="39.23500167" lon="-8.68179167">
        <ele>104.0</ele>
        <time>2019-05-17T08:35:48.172Z</time>
      </trkpt>
      <trkpt lat="39.23500167" lon="-8.68179167">
        <ele>104.0</ele>
        <time>2019-05-17T08:35:49.154Z</time>
      </trkpt>
      <trkpt lat="39.23500667" lon="-8.68174667">
        <ele>104.0</ele>
        <time>2019-05-17T08:35:50.165Z</time>
      </trkpt>
      <trkpt lat="39.23500667" lon="-8.68174667">
        <ele>104.0</ele>
        <time>2019-05-17T08:35:51.177Z</time>
      </trkpt>
      <trkpt lat="39.23497" lon="-8.68166">
        <ele>105.0</ele>
        <time>2019-05-17T08:35:52.166Z</time>
      </trkpt>
      <trkpt lat="39.23497" lon="-8.68166">
        <ele>105.0</ele>
        <time>2019-05-17T08:35:53.175Z</time>
      </trkpt>
      <trkpt lat="39.23499" lon="-8.68162167">
        <ele>105.0</ele>
        <time>2019-05-17T08:35:54.159Z</time>
      </trkpt>
      <trkpt lat="39.23499" lon="-8.68162167">
        <ele>105.0</ele>
        <time>2019-05-17T08:35:55.171Z</time>
      </trkpt>
      <trkpt lat="39.23502167" lon="-8.68158667">
        <ele>104.0</ele>
        <time>2019-05-17T08:35:56.182Z</time>
      </trkpt>
      <trkpt lat="39.23502167" lon="-8.68158667">
        <ele>104.0</ele>
        <time>2019-05-17T08:35:57.157Z</time>
      </trkpt>
      <trkpt lat="39.23504833" lon="-8.68155333">
        <ele>104.0</ele>
        <time>2019-05-17T08:35:58.157Z</time>
      </trkpt>
      <trkpt lat="39.23506667" lon="-8.68153833">
        <ele>104.0</ele>
        <time>2019-05-17T08:35:59.159Z</time>
      </trkpt>
      <trkpt lat="39.23508167" lon="-8.68152333">
        <ele>104.0</ele>
        <time>2019-05-17T08:36:00.185Z</time>
      </trkpt>
      <trkpt lat="39.23508167" lon="-8.68152333">
        <ele>104.0</ele>
        <time>2019-05-17T08:36:01.154Z</time>
      </trkpt>
      <trkpt lat="39.23509" lon="-8.681485">
        <ele>104.0</ele>
        <time>2019-05-17T08:36:02.171Z</time>
      </trkpt>
      <trkpt lat="39.23509" lon="-8.681485">
        <ele>104.0</ele>
        <time>2019-05-17T08:36:03.180Z</time>
      </trkpt>
      <trkpt lat="39.23508833" lon="-8.68146">
        <ele>105.0</ele>
        <time>2019-05-17T08:36:04.159Z</time>
      </trkpt>
      <trkpt lat="39.23508833" lon="-8.68146">
        <ele>105.0</ele>
        <time>2019-05-17T08:36:05.167Z</time>
      </trkpt>
      <trkpt lat="39.235095" lon="-8.68146167">
        <ele>105.0</ele>
        <time>2019-05-17T08:36:06.165Z</time>
      </trkpt>
      <trkpt lat="39.235095" lon="-8.68146167">
        <ele>105.0</ele>
        <time>2019-05-17T08:36:07.159Z</time>
      </trkpt>
      <trkpt lat="39.235095" lon="-8.68146167">
        <ele>105.0</ele>
        <time>2019-05-17T08:36:08.165Z</time>
      </trkpt>
      <trkpt lat="39.235095" lon="-8.68146167">
        <ele>105.0</ele>
        <time>2019-05-17T08:36:09.187Z</time>
      </trkpt>
      <trkpt lat="39.23515333" lon="-8.68145667">
        <ele>106.0</ele>
        <time>2019-05-17T08:36:10.166Z</time>
      </trkpt>
      <trkpt lat="39.235165" lon="-8.68143333">
        <ele>106.0</ele>
        <time>2019-05-17T08:36:11.167Z</time>
      </trkpt>
      <trkpt lat="39.235175" lon="-8.68141167">
        <ele>107.0</ele>
        <time>2019-05-17T08:36:12.168Z</time>
      </trkpt>
      <trkpt lat="39.235175" lon="-8.68141167">
        <ele>107.0</ele>
        <time>2019-05-17T08:36:13.184Z</time>
      </trkpt>
      <trkpt lat="39.23519167" lon="-8.68136333">
        <ele>107.0</ele>
        <time>2019-05-17T08:36:14.156Z</time>
      </trkpt>
      <trkpt lat="39.23519167" lon="-8.68136333">
        <ele>107.0</ele>
        <time>2019-05-17T08:36:15.160Z</time>
      </trkpt>
      <trkpt lat="39.235205" lon="-8.68132167">
        <ele>106.0</ele>
        <time>2019-05-17T08:36:16.174Z</time>
      </trkpt>
      <trkpt lat="39.235205" lon="-8.68132167">
        <ele>106.0</ele>
        <time>2019-05-17T08:36:17.185Z</time>
      </trkpt>
      <trkpt lat="39.23521833" lon="-8.68130667">
        <ele>107.0</ele>
        <time>2019-05-17T08:36:18.168Z</time>
      </trkpt>
      <trkpt lat="39.23521833" lon="-8.68130667">
        <ele>107.0</ele>
        <time>2019-05-17T08:36:19.167Z</time>
      </trkpt>
      <trkpt lat="39.23522333" lon="-8.681295">
        <ele>107.0</ele>
        <time>2019-05-17T08:36:20.174Z</time>
      </trkpt>
      <trkpt lat="39.23522333" lon="-8.681295">
        <ele>107.0</ele>
        <time>2019-05-17T08:36:21.163Z</time>
      </trkpt>
      <trkpt lat="39.23523" lon="-8.68126667">
        <ele>107.0</ele>
        <time>2019-05-17T08:36:22.176Z</time>
      </trkpt>
      <trkpt lat="39.23523" lon="-8.68126667">
        <ele>107.0</ele>
        <time>2019-05-17T08:36:23.153Z</time>
      </trkpt>
      <trkpt lat="39.23524" lon="-8.68123333">
        <ele>108.0</ele>
        <time>2019-05-17T08:36:24.176Z</time>
      </trkpt>
      <trkpt lat="39.23524" lon="-8.68123333">
        <ele>108.0</ele>
        <time>2019-05-17T08:36:25.185Z</time>
      </trkpt>
      <trkpt lat="39.23525167" lon="-8.68118833">
        <ele>108.0</ele>
        <time>2019-05-17T08:36:26.158Z</time>
      </trkpt>
      <trkpt lat="39.23525167" lon="-8.68118833">
        <ele>108.0</ele>
        <time>2019-05-17T08:36:27.171Z</time>
      </trkpt>
      <trkpt lat="39.23526167" lon="-8.681145">
        <ele>108.0</ele>
        <time>2019-05-17T08:36:28.162Z</time>
      </trkpt>
      <trkpt lat="39.23526167" lon="-8.681145">
        <ele>108.0</ele>
        <time>2019-05-17T08:36:29.174Z</time>
      </trkpt>
      <trkpt lat="39.23527167" lon="-8.68111833">
        <ele>108.0</ele>
        <time>2019-05-17T08:36:30.182Z</time>
      </trkpt>
      <trkpt lat="39.23527167" lon="-8.68111833">
        <ele>108.0</ele>
        <time>2019-05-17T08:36:31.170Z</time>
      </trkpt>
      <trkpt lat="39.235265" lon="-8.68108333">
        <ele>108.0</ele>
        <time>2019-05-17T08:36:32.179Z</time>
      </trkpt>
      <trkpt lat="39.235265" lon="-8.68108333">
        <ele>108.0</ele>
        <time>2019-05-17T08:36:33.153Z</time>
      </trkpt>
      <trkpt lat="39.23526167" lon="-8.68104167">
        <ele>108.0</ele>
        <time>2019-05-17T08:36:34.166Z</time>
      </trkpt>
      <trkpt lat="39.23526167" lon="-8.68104167">
        <ele>108.0</ele>
        <time>2019-05-17T08:36:35.178Z</time>
      </trkpt>
      <trkpt lat="39.23527333" lon="-8.68100333">
        <ele>107.0</ele>
        <time>2019-05-17T08:36:36.150Z</time>
      </trkpt>
      <trkpt lat="39.23527333" lon="-8.68100333">
        <ele>107.0</ele>
        <time>2019-05-17T08:36:37.171Z</time>
      </trkpt>
      <trkpt lat="39.23528667" lon="-8.68096167">
        <ele>107.0</ele>
        <time>2019-05-17T08:36:38.180Z</time>
      </trkpt>
      <trkpt lat="39.23528667" lon="-8.68096167">
        <ele>107.0</ele>
        <time>2019-05-17T08:36:39.150Z</time>
      </trkpt>
      <trkpt lat="39.235305" lon="-8.680935">
        <ele>107.0</ele>
        <time>2019-05-17T08:36:40.160Z</time>
      </trkpt>
      <trkpt lat="39.235305" lon="-8.680935">
        <ele>107.0</ele>
        <time>2019-05-17T08:36:41.187Z</time>
      </trkpt>
      <trkpt lat="39.23531667" lon="-8.68093333">
        <ele>107.0</ele>
        <time>2019-05-17T08:36:42.170Z</time>
      </trkpt>
      <trkpt lat="39.23531667" lon="-8.68093333">
        <ele>107.0</ele>
        <time>2019-05-17T08:36:43.161Z</time>
      </trkpt>
      <trkpt lat="39.23531667" lon="-8.68093333">
        <ele>107.0</ele>
        <time>2019-05-17T08:36:44.188Z</time>
      </trkpt>
      <trkpt lat="39.23531667" lon="-8.68093333">
        <ele>107.0</ele>
        <time>2019-05-17T08:36:45.177Z</time>
      </trkpt>
      <trkpt lat="39.23531667" lon="-8.68093333">
        <ele>107.0</ele>
        <time>2019-05-17T08:36:46.169Z</time>
      </trkpt>
      <trkpt lat="39.23531667" lon="-8.68093333">
        <ele>107.0</ele>
        <time>2019-05-17T08:36:47.162Z</time>
      </trkpt>
      <trkpt lat="39.23535667" lon="-8.68091333">
        <ele>108.0</ele>
        <time>2019-05-17T08:36:48.166Z</time>
      </trkpt>
      <trkpt lat="39.23535667" lon="-8.68091333">
        <ele>108.0</ele>
        <time>2019-05-17T08:36:49.162Z</time>
      </trkpt>
      <trkpt lat="39.23535833" lon="-8.68090167">
        <ele>109.0</ele>
        <time>2019-05-17T08:36:50.205Z</time>
      </trkpt>
      <trkpt lat="39.23535833" lon="-8.680895">
        <ele>109.0</ele>
        <time>2019-05-17T08:36:51.182Z</time>
      </trkpt>
      <trkpt lat="39.23535833" lon="-8.680895">
        <ele>109.0</ele>
        <time>2019-05-17T08:36:52.158Z</time>
      </trkpt>
      <trkpt lat="39.23536167" lon="-8.68088167">
        <ele>109.0</ele>
        <time>2019-05-17T08:36:53.167Z</time>
      </trkpt>
      <trkpt lat="39.23536333" lon="-8.68087167">
        <ele>109.0</ele>
        <time>2019-05-17T08:36:54.158Z</time>
      </trkpt>
      <trkpt lat="39.23536333" lon="-8.68087167">
        <ele>109.0</ele>
        <time>2019-05-17T08:36:55.177Z</time>
      </trkpt>
      <trkpt lat="39.23536333" lon="-8.68085333">
        <ele>110.0</ele>
        <time>2019-05-17T08:36:56.187Z</time>
      </trkpt>
      <trkpt lat="39.23536667" lon="-8.68085167">
        <ele>110.0</ele>
        <time>2019-05-17T08:36:57.163Z</time>
      </trkpt>
      <trkpt lat="39.23536667" lon="-8.68085167">
        <ele>110.0</ele>
        <time>2019-05-17T08:36:58.177Z</time>
      </trkpt>
      <trkpt lat="39.23537167" lon="-8.68085333">
        <ele>110.0</ele>
        <time>2019-05-17T08:36:59.183Z</time>
      </trkpt>
      <trkpt lat="39.23537167" lon="-8.68085333">
        <ele>110.0</ele>
        <time>2019-05-17T08:37:00.187Z</time>
      </trkpt>
      <trkpt lat="39.23537167" lon="-8.68085333">
        <ele>110.0</ele>
        <time>2019-05-17T08:37:01.156Z</time>
      </trkpt>
      <trkpt lat="39.23539667" lon="-8.68084167">
        <ele>111.0</ele>
        <time>2019-05-17T08:37:02.173Z</time>
      </trkpt>
      <trkpt lat="39.23540333" lon="-8.68083167">
        <ele>111.0</ele>
        <time>2019-05-17T08:37:03.187Z</time>
      </trkpt>
      <trkpt lat="39.23540333" lon="-8.68083167">
        <ele>111.0</ele>
        <time>2019-05-17T08:37:04.158Z</time>
      </trkpt>
      <trkpt lat="39.23541333" lon="-8.68081333">
        <ele>110.0</ele>
        <time>2019-05-17T08:37:05.180Z</time>
      </trkpt>
      <trkpt lat="39.235415" lon="-8.68080667">
        <ele>111.0</ele>
        <time>2019-05-17T08:37:06.178Z</time>
      </trkpt>
      <trkpt lat="39.235415" lon="-8.68080667">
        <ele>111.0</ele>
        <time>2019-05-17T08:37:07.158Z</time>
      </trkpt>
      <trkpt lat="39.23542" lon="-8.68080333">
        <ele>111.0</ele>
        <time>2019-05-17T08:37:08.167Z</time>
      </trkpt>
      <trkpt lat="39.23542" lon="-8.68080333">
        <ele>111.0</ele>
        <time>2019-05-17T08:37:09.150Z</time>
      </trkpt>
      <trkpt lat="39.23542" lon="-8.68080333">
        <ele>111.0</ele>
        <time>2019-05-17T08:37:10.186Z</time>
      </trkpt>
      <trkpt lat="39.23542" lon="-8.68080333">
        <ele>111.0</ele>
        <time>2019-05-17T08:37:11.156Z</time>
      </trkpt>
      <trkpt lat="39.23542" lon="-8.68080333">
        <ele>111.0</ele>
        <time>2019-05-17T08:37:12.183Z</time>
      </trkpt>
      <trkpt lat="39.23542" lon="-8.68080333">
        <ele>111.0</ele>
        <time>2019-05-17T08:37:13.174Z</time>
      </trkpt>
      <trkpt lat="39.23542" lon="-8.68080333">
        <ele>111.0</ele>
        <time>2019-05-17T08:37:14.180Z</time>
      </trkpt>
      <trkpt lat="39.23542" lon="-8.68080333">
        <ele>111.0</ele>
        <time>2019-05-17T08:37:15.186Z</time>
      </trkpt>
      <trkpt lat="39.23542" lon="-8.68080333">
        <ele>111.0</ele>
        <time>2019-05-17T08:37:16.171Z</time>
      </trkpt>
      <trkpt lat="39.23542" lon="-8.68080333">
        <ele>111.0</ele>
        <time>2019-05-17T08:37:17.167Z</time>
      </trkpt>
      <trkpt lat="39.23542" lon="-8.68080333">
        <ele>111.0</ele>
        <time>2019-05-17T08:37:18.170Z</time>
      </trkpt>
      <trkpt lat="39.23542" lon="-8.68080333">
        <ele>111.0</ele>
        <time>2019-05-17T08:37:19.164Z</time>
      </trkpt>
      <trkpt lat="39.23542" lon="-8.68080333">
        <ele>111.0</ele>
        <time>2019-05-17T08:37:20.167Z</time>
      </trkpt>
      <trkpt lat="39.23542" lon="-8.68080333">
        <ele>111.0</ele>
        <time>2019-05-17T08:37:21.162Z</time>
      </trkpt>
      <trkpt lat="39.23542" lon="-8.68080333">
        <ele>111.0</ele>
        <time>2019-05-17T08:37:22.168Z</time>
      </trkpt>
      <trkpt lat="39.23542" lon="-8.68080333">
        <ele>111.0</ele>
        <time>2019-05-17T08:37:23.161Z</time>
      </trkpt>
      <trkpt lat="39.23542" lon="-8.68080333">
        <ele>111.0</ele>
        <time>2019-05-17T08:37:24.189Z</time>
      </trkpt>
      <trkpt lat="39.23542" lon="-8.68080333">
        <ele>111.0</ele>
        <time>2019-05-17T08:37:25.173Z</time>
      </trkpt>
      <trkpt lat="39.23546333" lon="-8.68077667">
        <ele>110.0</ele>
        <time>2019-05-17T08:37:26.168Z</time>
      </trkpt>
      <trkpt lat="39.23546333" lon="-8.68077667">
        <ele>110.0</ele>
        <time>2019-05-17T08:37:27.166Z</time>
      </trkpt>
      <trkpt lat="39.23547833" lon="-8.680745">
        <ele>110.0</ele>
        <time>2019-05-17T08:37:28.194Z</time>
      </trkpt>
      <trkpt lat="39.23547833" lon="-8.680745">
        <ele>110.0</ele>
        <time>2019-05-17T08:37:29.151Z</time>
      </trkpt>
      <trkpt lat="39.23548833" lon="-8.680705">
        <ele>110.0</ele>
        <time>2019-05-17T08:37:30.161Z</time>
      </trkpt>
      <trkpt lat="39.23548833" lon="-8.680705">
        <ele>110.0</ele>
        <time>2019-05-17T08:37:31.180Z</time>
      </trkpt>
      <trkpt lat="39.23549167" lon="-8.68066333">
        <ele>109.0</ele>
        <time>2019-05-17T08:37:32.177Z</time>
      </trkpt>
      <trkpt lat="39.23549167" lon="-8.68066333">
        <ele>109.0</ele>
        <time>2019-05-17T08:37:33.158Z</time>
      </trkpt>
      <trkpt lat="39.23548667" lon="-8.68061167">
        <ele>109.0</ele>
        <time>2019-05-17T08:37:34.170Z</time>
      </trkpt>
      <trkpt lat="39.23548167" lon="-8.68059">
        <ele>109.0</ele>
        <time>2019-05-17T08:37:35.176Z</time>
      </trkpt>
      <trkpt lat="39.23548" lon="-8.68057">
        <ele>108.0</ele>
        <time>2019-05-17T08:37:36.177Z</time>
      </trkpt>
      <trkpt lat="39.23548" lon="-8.68057">
        <ele>108.0</ele>
        <time>2019-05-17T08:37:37.187Z</time>
      </trkpt>
      <trkpt lat="39.23548833" lon="-8.680525">
        <ele>107.0</ele>
        <time>2019-05-17T08:37:38.156Z</time>
      </trkpt>
      <trkpt lat="39.23548833" lon="-8.680525">
        <ele>107.0</ele>
        <time>2019-05-17T08:37:39.164Z</time>
      </trkpt>
      <trkpt lat="39.235495" lon="-8.68046333">
        <ele>107.0</ele>
        <time>2019-05-17T08:37:40.178Z</time>
      </trkpt>
      <trkpt lat="39.235495" lon="-8.68046333">
        <ele>107.0</ele>
        <time>2019-05-17T08:37:41.158Z</time>
      </trkpt>
      <trkpt lat="39.2355" lon="-8.68040167">
        <ele>107.0</ele>
        <time>2019-05-17T08:37:42.176Z</time>
      </trkpt>
      <trkpt lat="39.2355" lon="-8.68040167">
        <ele>107.0</ele>
        <time>2019-05-17T08:37:43.158Z</time>
      </trkpt>
      <trkpt lat="39.23550167" lon="-8.680345">
        <ele>106.0</ele>
        <time>2019-05-17T08:37:44.170Z</time>
      </trkpt>
      <trkpt lat="39.23550167" lon="-8.680345">
        <ele>106.0</ele>
        <time>2019-05-17T08:37:45.186Z</time>
      </trkpt>
      <trkpt lat="39.23549833" lon="-8.68029167">
        <ele>106.0</ele>
        <time>2019-05-17T08:37:46.161Z</time>
      </trkpt>
      <trkpt lat="39.23549833" lon="-8.68029167">
        <ele>106.0</ele>
        <time>2019-05-17T08:37:47.159Z</time>
      </trkpt>
      <trkpt lat="39.2355" lon="-8.680245">
        <ele>106.0</ele>
        <time>2019-05-17T08:37:48.169Z</time>
      </trkpt>
      <trkpt lat="39.2355" lon="-8.680245">
        <ele>106.0</ele>
        <time>2019-05-17T08:37:49.150Z</time>
      </trkpt>
      <trkpt lat="39.235515" lon="-8.6802">
        <ele>106.0</ele>
        <time>2019-05-17T08:37:50.157Z</time>
      </trkpt>
      <trkpt lat="39.235515" lon="-8.6802">
        <ele>106.0</ele>
        <time>2019-05-17T08:37:51.187Z</time>
      </trkpt>
      <trkpt lat="39.23554667" lon="-8.68016833">
        <ele>107.0</ele>
        <time>2019-05-17T08:37:52.166Z</time>
      </trkpt>
      <trkpt lat="39.23554667" lon="-8.68016833">
        <ele>107.0</ele>
        <time>2019-05-17T08:37:53.153Z</time>
      </trkpt>
      <trkpt lat="39.23556167" lon="-8.68013">
        <ele>108.0</ele>
        <time>2019-05-17T08:37:54.166Z</time>
      </trkpt>
      <trkpt lat="39.23556167" lon="-8.68013">
        <ele>108.0</ele>
        <time>2019-05-17T08:37:55.162Z</time>
      </trkpt>
      <trkpt lat="39.23556333" lon="-8.68007667">
        <ele>110.0</ele>
        <time>2019-05-17T08:37:56.188Z</time>
      </trkpt>
      <trkpt lat="39.23556333" lon="-8.68007667">
        <ele>110.0</ele>
        <time>2019-05-17T08:37:57.175Z</time>
      </trkpt>
      <trkpt lat="39.235585" lon="-8.68002333">
        <ele>110.0</ele>
        <time>2019-05-17T08:37:58.184Z</time>
      </trkpt>
      <trkpt lat="39.235585" lon="-8.68002333">
        <ele>110.0</ele>
        <time>2019-05-17T08:37:59.154Z</time>
      </trkpt>
      <trkpt lat="39.235595" lon="-8.67998">
        <ele>111.0</ele>
        <time>2019-05-17T08:38:00.164Z</time>
      </trkpt>
      <trkpt lat="39.235595" lon="-8.67998">
        <ele>111.0</ele>
        <time>2019-05-17T08:38:01.179Z</time>
      </trkpt>
      <trkpt lat="39.23561167" lon="-8.67994">
        <ele>112.0</ele>
        <time>2019-05-17T08:38:02.161Z</time>
      </trkpt>
      <trkpt lat="39.23561167" lon="-8.67994">
        <ele>112.0</ele>
        <time>2019-05-17T08:38:03.164Z</time>
      </trkpt>
      <trkpt lat="39.23560667" lon="-8.67988667">
        <ele>113.0</ele>
        <time>2019-05-17T08:38:04.176Z</time>
      </trkpt>
      <trkpt lat="39.23560667" lon="-8.67986333">
        <ele>113.0</ele>
        <time>2019-05-17T08:38:05.167Z</time>
      </trkpt>
      <trkpt lat="39.23560667" lon="-8.67986333">
        <ele>113.0</ele>
        <time>2019-05-17T08:38:06.150Z</time>
      </trkpt>
      <trkpt lat="39.23562167" lon="-8.67981667">
        <ele>114.0</ele>
        <time>2019-05-17T08:38:07.159Z</time>
      </trkpt>
      <trkpt lat="39.23562167" lon="-8.67981667">
        <ele>114.0</ele>
        <time>2019-05-17T08:38:08.172Z</time>
      </trkpt>
      <trkpt lat="39.23564667" lon="-8.679775">
        <ele>114.0</ele>
        <time>2019-05-17T08:38:09.152Z</time>
      </trkpt>
      <trkpt lat="39.23564667" lon="-8.679775">
        <ele>114.0</ele>
        <time>2019-05-17T08:38:10.184Z</time>
      </trkpt>
      <trkpt lat="39.23567667" lon="-8.679735">
        <ele>114.0</ele>
        <time>2019-05-17T08:38:11.163Z</time>
      </trkpt>
      <trkpt lat="39.23568" lon="-8.67970833">
        <ele>115.0</ele>
        <time>2019-05-17T08:38:12.151Z</time>
      </trkpt>
      <trkpt lat="39.23568" lon="-8.67970833">
        <ele>115.0</ele>
        <time>2019-05-17T08:38:13.161Z</time>
      </trkpt>
      <trkpt lat="39.235695" lon="-8.679655">
        <ele>115.0</ele>
        <time>2019-05-17T08:38:14.177Z</time>
      </trkpt>
      <trkpt lat="39.235695" lon="-8.679655">
        <ele>115.0</ele>
        <time>2019-05-17T08:38:15.185Z</time>
      </trkpt>
      <trkpt lat="39.23570833" lon="-8.67961333">
        <ele>116.0</ele>
        <time>2019-05-17T08:38:16.161Z</time>
      </trkpt>
      <trkpt lat="39.23570833" lon="-8.67961333">
        <ele>116.0</ele>
        <time>2019-05-17T08:38:17.168Z</time>
      </trkpt>
      <trkpt lat="39.23572" lon="-8.67956333">
        <ele>115.0</ele>
        <time>2019-05-17T08:38:18.176Z</time>
      </trkpt>
      <trkpt lat="39.23572" lon="-8.67956333">
        <ele>115.0</ele>
        <time>2019-05-17T08:38:19.188Z</time>
      </trkpt>
      <trkpt lat="39.23572" lon="-8.679505">
        <ele>115.0</ele>
        <time>2019-05-17T08:38:20.175Z</time>
      </trkpt>
      <trkpt lat="39.23572" lon="-8.679505">
        <ele>115.0</ele>
        <time>2019-05-17T08:38:21.177Z</time>
      </trkpt>
      <trkpt lat="39.23572333" lon="-8.67944333">
        <ele>115.0</ele>
        <time>2019-05-17T08:38:22.189Z</time>
      </trkpt>
      <trkpt lat="39.23572333" lon="-8.67944333">
        <ele>115.0</ele>
        <time>2019-05-17T08:38:23.159Z</time>
      </trkpt>
      <trkpt lat="39.23573" lon="-8.67938">
        <ele>114.0</ele>
        <time>2019-05-17T08:38:24.171Z</time>
      </trkpt>
      <trkpt lat="39.23573" lon="-8.67938">
        <ele>114.0</ele>
        <time>2019-05-17T08:38:25.183Z</time>
      </trkpt>
      <trkpt lat="39.23572833" lon="-8.67930667">
        <ele>115.0</ele>
        <time>2019-05-17T08:38:26.161Z</time>
      </trkpt>
      <trkpt lat="39.23572833" lon="-8.67930667">
        <ele>115.0</ele>
        <time>2019-05-17T08:38:27.173Z</time>
      </trkpt>
      <trkpt lat="39.23572333" lon="-8.67923667">
        <ele>115.0</ele>
        <time>2019-05-17T08:38:28.172Z</time>
      </trkpt>
      <trkpt lat="39.23572333" lon="-8.67923667">
        <ele>115.0</ele>
        <time>2019-05-17T08:38:29.185Z</time>
      </trkpt>
      <trkpt lat="39.23572" lon="-8.67917833">
        <ele>116.0</ele>
        <time>2019-05-17T08:38:30.162Z</time>
      </trkpt>
      <trkpt lat="39.23572" lon="-8.67917833">
        <ele>116.0</ele>
        <time>2019-05-17T08:38:31.176Z</time>
      </trkpt>
      <trkpt lat="39.23571" lon="-8.67912333">
        <ele>116.0</ele>
        <time>2019-05-17T08:38:32.186Z</time>
      </trkpt>
      <trkpt lat="39.23571" lon="-8.67912333">
        <ele>116.0</ele>
        <time>2019-05-17T08:38:33.158Z</time>
      </trkpt>
      <trkpt lat="39.23568833" lon="-8.67907833">
        <ele>116.0</ele>
        <time>2019-05-17T08:38:34.163Z</time>
      </trkpt>
      <trkpt lat="39.23568833" lon="-8.67907833">
        <ele>116.0</ele>
        <time>2019-05-17T08:38:35.179Z</time>
      </trkpt>
      <trkpt lat="39.23566333" lon="-8.67903833">
        <ele>117.0</ele>
        <time>2019-05-17T08:38:36.186Z</time>
      </trkpt>
      <trkpt lat="39.23566333" lon="-8.67903833">
        <ele>117.0</ele>
        <time>2019-05-17T08:38:37.158Z</time>
      </trkpt>
      <trkpt lat="39.23564333" lon="-8.67900167">
        <ele>118.0</ele>
        <time>2019-05-17T08:38:38.194Z</time>
      </trkpt>
      <trkpt lat="39.23564" lon="-8.678985">
        <ele>118.0</ele>
        <time>2019-05-17T08:38:39.171Z</time>
      </trkpt>
      <trkpt lat="39.23564" lon="-8.678985">
        <ele>118.0</ele>
        <time>2019-05-17T08:38:40.183Z</time>
      </trkpt>
      <trkpt lat="39.23563333" lon="-8.67895833">
        <ele>119.0</ele>
        <time>2019-05-17T08:38:41.159Z</time>
      </trkpt>
      <trkpt lat="39.23562167" lon="-8.67893833">
        <ele>119.0</ele>
        <time>2019-05-17T08:38:42.177Z</time>
      </trkpt>
      <trkpt lat="39.23562167" lon="-8.67893833">
        <ele>119.0</ele>
        <time>2019-05-17T08:38:43.167Z</time>
      </trkpt>
      <trkpt lat="39.235595" lon="-8.67889333">
        <ele>119.0</ele>
        <time>2019-05-17T08:38:44.181Z</time>
      </trkpt>
      <trkpt lat="39.235595" lon="-8.67889333">
        <ele>119.0</ele>
        <time>2019-05-17T08:38:45.152Z</time>
      </trkpt>
      <trkpt lat="39.23556833" lon="-8.67884333">
        <ele>120.0</ele>
        <time>2019-05-17T08:38:46.164Z</time>
      </trkpt>
      <trkpt lat="39.23556833" lon="-8.67884333">
        <ele>120.0</ele>
        <time>2019-05-17T08:38:47.174Z</time>
      </trkpt>
      <trkpt lat="39.23554667" lon="-8.67879667">
        <ele>121.0</ele>
        <time>2019-05-17T08:38:48.186Z</time>
      </trkpt>
      <trkpt lat="39.23554667" lon="-8.67879667">
        <ele>121.0</ele>
        <time>2019-05-17T08:38:49.156Z</time>
      </trkpt>
      <trkpt lat="39.23553333" lon="-8.67875667">
        <ele>122.0</ele>
        <time>2019-05-17T08:38:50.168Z</time>
      </trkpt>
      <trkpt lat="39.23553333" lon="-8.67875667">
        <ele>122.0</ele>
        <time>2019-05-17T08:38:51.174Z</time>
      </trkpt>
      <trkpt lat="39.23550167" lon="-8.67870333">
        <ele>123.0</ele>
        <time>2019-05-17T08:38:52.180Z</time>
      </trkpt>
      <trkpt lat="39.23550167" lon="-8.67870333">
        <ele>123.0</ele>
        <time>2019-05-17T08:38:53.190Z</time>
      </trkpt>
      <trkpt lat="39.23546667" lon="-8.67865">
        <ele>122.0</ele>
        <time>2019-05-17T08:38:54.159Z</time>
      </trkpt>
      <trkpt lat="39.23546667" lon="-8.67865">
        <ele>122.0</ele>
        <time>2019-05-17T08:38:55.166Z</time>
      </trkpt>
      <trkpt lat="39.23542667" lon="-8.678605">
        <ele>121.0</ele>
        <time>2019-05-17T08:38:56.179Z</time>
      </trkpt>
      <trkpt lat="39.23542667" lon="-8.678605">
        <ele>121.0</ele>
        <time>2019-05-17T08:38:57.151Z</time>
      </trkpt>
      <trkpt lat="39.23539167" lon="-8.67855667">
        <ele>120.0</ele>
        <time>2019-05-17T08:38:58.165Z</time>
      </trkpt>
      <trkpt lat="39.23539167" lon="-8.67855667">
        <ele>120.0</ele>
        <time>2019-05-17T08:38:59.186Z</time>
      </trkpt>
      <trkpt lat="39.23536667" lon="-8.67850833">
        <ele>119.0</ele>
        <time>2019-05-17T08:39:00.156Z</time>
      </trkpt>
      <trkpt lat="39.23536667" lon="-8.67850833">
        <ele>119.0</ele>
        <time>2019-05-17T08:39:01.174Z</time>
      </trkpt>
      <trkpt lat="39.235345" lon="-8.67845667">
        <ele>119.0</ele>
        <time>2019-05-17T08:39:02.156Z</time>
      </trkpt>
      <trkpt lat="39.235345" lon="-8.67845667">
        <ele>119.0</ele>
        <time>2019-05-17T08:39:03.169Z</time>
      </trkpt>
      <trkpt lat="39.23529833" lon="-8.67839833">
        <ele>118.0</ele>
        <time>2019-05-17T08:39:04.182Z</time>
      </trkpt>
      <trkpt lat="39.23529833" lon="-8.67839833">
        <ele>118.0</ele>
        <time>2019-05-17T08:39:05.154Z</time>
      </trkpt>
      <trkpt lat="39.23525167" lon="-8.67834167">
        <ele>116.0</ele>
        <time>2019-05-17T08:39:06.164Z</time>
      </trkpt>
      <trkpt lat="39.23525167" lon="-8.67834167">
        <ele>116.0</ele>
        <time>2019-05-17T08:39:07.178Z</time>
      </trkpt>
      <trkpt lat="39.235215" lon="-8.67828">
        <ele>115.0</ele>
        <time>2019-05-17T08:39:08.154Z</time>
      </trkpt>
      <trkpt lat="39.2352" lon="-8.67825833">
        <ele>114.0</ele>
        <time>2019-05-17T08:39:09.161Z</time>
      </trkpt>
      <trkpt lat="39.2352" lon="-8.67825833">
        <ele>114.0</ele>
        <time>2019-05-17T08:39:10.171Z</time>
      </trkpt>
      <trkpt lat="39.23517167" lon="-8.678215">
        <ele>113.0</ele>
        <time>2019-05-17T08:39:11.183Z</time>
      </trkpt>
      <trkpt lat="39.235155" lon="-8.67819333">
        <ele>112.0</ele>
        <time>2019-05-17T08:39:12.175Z</time>
      </trkpt>
      <trkpt lat="39.235155" lon="-8.67819333">
        <ele>112.0</ele>
        <time>2019-05-17T08:39:13.184Z</time>
      </trkpt>
      <trkpt lat="39.23513" lon="-8.67814833">
        <ele>112.0</ele>
        <time>2019-05-17T08:39:14.159Z</time>
      </trkpt>
      <trkpt lat="39.23513" lon="-8.67814833">
        <ele>112.0</ele>
        <time>2019-05-17T08:39:15.173Z</time>
      </trkpt>
      <trkpt lat="39.2351" lon="-8.67810333">
        <ele>112.0</ele>
        <time>2019-05-17T08:39:16.182Z</time>
      </trkpt>
      <trkpt lat="39.2351" lon="-8.67810333">
        <ele>112.0</ele>
        <time>2019-05-17T08:39:17.157Z</time>
      </trkpt>
      <trkpt lat="39.23507" lon="-8.67805833">
        <ele>112.0</ele>
        <time>2019-05-17T08:39:18.178Z</time>
      </trkpt>
      <trkpt lat="39.23507" lon="-8.67805833">
        <ele>112.0</ele>
        <time>2019-05-17T08:39:19.173Z</time>
      </trkpt>
      <trkpt lat="39.23503833" lon="-8.67802">
        <ele>112.0</ele>
        <time>2019-05-17T08:39:20.182Z</time>
      </trkpt>
      <trkpt lat="39.23503833" lon="-8.67802">
        <ele>112.0</ele>
        <time>2019-05-17T08:39:21.188Z</time>
      </trkpt>
      <trkpt lat="39.235015" lon="-8.67797667">
        <ele>112.0</ele>
        <time>2019-05-17T08:39:22.155Z</time>
      </trkpt>
      <trkpt lat="39.235015" lon="-8.67797667">
        <ele>112.0</ele>
        <time>2019-05-17T08:39:23.168Z</time>
      </trkpt>
      <trkpt lat="39.23498167" lon="-8.67792667">
        <ele>112.0</ele>
        <time>2019-05-17T08:39:24.156Z</time>
      </trkpt>
      <trkpt lat="39.23498167" lon="-8.67792667">
        <ele>112.0</ele>
        <time>2019-05-17T08:39:25.182Z</time>
      </trkpt>
      <trkpt lat="39.23496667" lon="-8.677885">
        <ele>113.0</ele>
        <time>2019-05-17T08:39:26.171Z</time>
      </trkpt>
      <trkpt lat="39.23496667" lon="-8.677885">
        <ele>113.0</ele>
        <time>2019-05-17T08:39:27.182Z</time>
      </trkpt>
      <trkpt lat="39.23494333" lon="-8.67784167">
        <ele>113.0</ele>
        <time>2019-05-17T08:39:28.151Z</time>
      </trkpt>
      <trkpt lat="39.23494333" lon="-8.67784167">
        <ele>113.0</ele>
        <time>2019-05-17T08:39:29.158Z</time>
      </trkpt>
      <trkpt lat="39.23492167" lon="-8.67779833">
        <ele>113.0</ele>
        <time>2019-05-17T08:39:30.163Z</time>
      </trkpt>
      <trkpt lat="39.23492167" lon="-8.67779833">
        <ele>113.0</ele>
        <time>2019-05-17T08:39:31.178Z</time>
      </trkpt>
      <trkpt lat="39.23489" lon="-8.67774333">
        <ele>112.0</ele>
        <time>2019-05-17T08:39:32.185Z</time>
      </trkpt>
      <trkpt lat="39.23489" lon="-8.67774333">
        <ele>112.0</ele>
        <time>2019-05-17T08:39:33.162Z</time>
      </trkpt>
      <trkpt lat="39.234845" lon="-8.67768333">
        <ele>113.0</ele>
        <time>2019-05-17T08:39:34.161Z</time>
      </trkpt>
      <trkpt lat="39.234845" lon="-8.67768333">
        <ele>113.0</ele>
        <time>2019-05-17T08:39:35.155Z</time>
      </trkpt>
      <trkpt lat="39.23481333" lon="-8.67763167">
        <ele>113.0</ele>
        <time>2019-05-17T08:39:36.175Z</time>
      </trkpt>
      <trkpt lat="39.23481333" lon="-8.67763167">
        <ele>113.0</ele>
        <time>2019-05-17T08:39:37.183Z</time>
      </trkpt>
      <trkpt lat="39.23478" lon="-8.67758">
        <ele>112.0</ele>
        <time>2019-05-17T08:39:38.160Z</time>
      </trkpt>
      <trkpt lat="39.23476167" lon="-8.67755">
        <ele>112.0</ele>
        <time>2019-05-17T08:39:39.188Z</time>
      </trkpt>
      <trkpt lat="39.23476167" lon="-8.67755">
        <ele>112.0</ele>
        <time>2019-05-17T08:39:40.176Z</time>
      </trkpt>
      <trkpt lat="39.234735" lon="-8.6775">
        <ele>112.0</ele>
        <time>2019-05-17T08:39:41.185Z</time>
      </trkpt>
      <trkpt lat="39.23471833" lon="-8.677475">
        <ele>112.0</ele>
        <time>2019-05-17T08:39:42.166Z</time>
      </trkpt>
      <trkpt lat="39.23471833" lon="-8.677475">
        <ele>112.0</ele>
        <time>2019-05-17T08:39:43.178Z</time>
      </trkpt>
      <trkpt lat="39.23467333" lon="-8.67742333">
        <ele>111.0</ele>
        <time>2019-05-17T08:39:44.187Z</time>
      </trkpt>
      <trkpt lat="39.23467333" lon="-8.67742333">
        <ele>111.0</ele>
        <time>2019-05-17T08:39:45.172Z</time>
      </trkpt>
      <trkpt lat="39.23464333" lon="-8.67736">
        <ele>112.0</ele>
        <time>2019-05-17T08:39:46.192Z</time>
      </trkpt>
      <trkpt lat="39.23462667" lon="-8.67733333">
        <ele>112.0</ele>
        <time>2019-05-17T08:39:47.180Z</time>
      </trkpt>
      <trkpt lat="39.23461" lon="-8.67730833">
        <ele>112.0</ele>
        <time>2019-05-17T08:39:48.165Z</time>
      </trkpt>
      <trkpt lat="39.23461" lon="-8.67730833">
        <ele>112.0</ele>
        <time>2019-05-17T08:39:49.178Z</time>
      </trkpt>
      <trkpt lat="39.23458167" lon="-8.67725833">
        <ele>112.0</ele>
        <time>2019-05-17T08:39:50.150Z</time>
      </trkpt>
      <trkpt lat="39.23458167" lon="-8.67725833">
        <ele>112.0</ele>
        <time>2019-05-17T08:39:51.178Z</time>
      </trkpt>
      <trkpt lat="39.23454667" lon="-8.67720833">
        <ele>112.0</ele>
        <time>2019-05-17T08:39:52.187Z</time>
      </trkpt>
      <trkpt lat="39.23454667" lon="-8.67720833">
        <ele>112.0</ele>
        <time>2019-05-17T08:39:53.159Z</time>
      </trkpt>
      <trkpt lat="39.23451833" lon="-8.67716333">
        <ele>112.0</ele>
        <time>2019-05-17T08:39:54.178Z</time>
      </trkpt>
      <trkpt lat="39.23451833" lon="-8.67716333">
        <ele>112.0</ele>
        <time>2019-05-17T08:39:55.156Z</time>
      </trkpt>
      <trkpt lat="39.23449667" lon="-8.677115">
        <ele>113.0</ele>
        <time>2019-05-17T08:39:56.172Z</time>
      </trkpt>
      <trkpt lat="39.23449667" lon="-8.677115">
        <ele>113.0</ele>
        <time>2019-05-17T08:39:57.182Z</time>
      </trkpt>
      <trkpt lat="39.234455" lon="-8.67706333">
        <ele>112.0</ele>
        <time>2019-05-17T08:39:58.154Z</time>
      </trkpt>
      <trkpt lat="39.234455" lon="-8.67706333">
        <ele>112.0</ele>
        <time>2019-05-17T08:39:59.177Z</time>
      </trkpt>
      <trkpt lat="39.23441833" lon="-8.67701167">
        <ele>112.0</ele>
        <time>2019-05-17T08:40:00.184Z</time>
      </trkpt>
      <trkpt lat="39.23441833" lon="-8.67701167">
        <ele>112.0</ele>
        <time>2019-05-17T08:40:01.156Z</time>
      </trkpt>
      <trkpt lat="39.23438333" lon="-8.676955">
        <ele>112.0</ele>
        <time>2019-05-17T08:40:02.169Z</time>
      </trkpt>
      <trkpt lat="39.23438333" lon="-8.676955">
        <ele>112.0</ele>
        <time>2019-05-17T08:40:03.181Z</time>
      </trkpt>
      <trkpt lat="39.23437667" lon="-8.67689">
        <ele>112.0</ele>
        <time>2019-05-17T08:40:04.175Z</time>
      </trkpt>
      <trkpt lat="39.23437667" lon="-8.67689">
        <ele>112.0</ele>
        <time>2019-05-17T08:40:05.151Z</time>
      </trkpt>
      <trkpt lat="39.23438833" lon="-8.67683667">
        <ele>112.0</ele>
        <time>2019-05-17T08:40:06.163Z</time>
      </trkpt>
      <trkpt lat="39.23438833" lon="-8.67683667">
        <ele>112.0</ele>
        <time>2019-05-17T08:40:07.175Z</time>
      </trkpt>
      <trkpt lat="39.23441833" lon="-8.67680167">
        <ele>112.0</ele>
        <time>2019-05-17T08:40:08.151Z</time>
      </trkpt>
      <trkpt lat="39.23441833" lon="-8.67680167">
        <ele>112.0</ele>
        <time>2019-05-17T08:40:09.170Z</time>
      </trkpt>
      <trkpt lat="39.23445333" lon="-8.676775">
        <ele>111.0</ele>
        <time>2019-05-17T08:40:10.182Z</time>
      </trkpt>
      <trkpt lat="39.23445333" lon="-8.676775">
        <ele>111.0</ele>
        <time>2019-05-17T08:40:11.162Z</time>
      </trkpt>
      <trkpt lat="39.23448167" lon="-8.67673667">
        <ele>112.0</ele>
        <time>2019-05-17T08:40:12.156Z</time>
      </trkpt>
      <trkpt lat="39.23448167" lon="-8.67673667">
        <ele>112.0</ele>
        <time>2019-05-17T08:40:13.170Z</time>
      </trkpt>
      <trkpt lat="39.23451333" lon="-8.67670167">
        <ele>112.0</ele>
        <time>2019-05-17T08:40:14.184Z</time>
      </trkpt>
      <trkpt lat="39.23453" lon="-8.676685">
        <ele>112.0</ele>
        <time>2019-05-17T08:40:15.176Z</time>
      </trkpt>
      <trkpt lat="39.23453" lon="-8.676685">
        <ele>112.0</ele>
        <time>2019-05-17T08:40:16.184Z</time>
      </trkpt>
      <trkpt lat="39.234565" lon="-8.676645">
        <ele>112.0</ele>
        <time>2019-05-17T08:40:17.164Z</time>
      </trkpt>
      <trkpt lat="39.23458167" lon="-8.67662333">
        <ele>112.0</ele>
        <time>2019-05-17T08:40:18.180Z</time>
      </trkpt>
      <trkpt lat="39.23458167" lon="-8.67662333">
        <ele>112.0</ele>
        <time>2019-05-17T08:40:19.187Z</time>
      </trkpt>
      <trkpt lat="39.234615" lon="-8.67658167">
        <ele>111.0</ele>
        <time>2019-05-17T08:40:20.154Z</time>
      </trkpt>
      <trkpt lat="39.234615" lon="-8.67658167">
        <ele>111.0</ele>
        <time>2019-05-17T08:40:21.163Z</time>
      </trkpt>
      <trkpt lat="39.23465" lon="-8.67653333">
        <ele>111.0</ele>
        <time>2019-05-17T08:40:22.169Z</time>
      </trkpt>
      <trkpt lat="39.23465" lon="-8.67653333">
        <ele>111.0</ele>
        <time>2019-05-17T08:40:23.179Z</time>
      </trkpt>
      <trkpt lat="39.23466667" lon="-8.67646667">
        <ele>112.0</ele>
        <time>2019-05-17T08:40:24.173Z</time>
      </trkpt>
      <trkpt lat="39.23466667" lon="-8.67646667">
        <ele>112.0</ele>
        <time>2019-05-17T08:40:25.162Z</time>
      </trkpt>
      <trkpt lat="39.23466667" lon="-8.67640667">
        <ele>114.0</ele>
        <time>2019-05-17T08:40:26.170Z</time>
      </trkpt>
      <trkpt lat="39.23467833" lon="-8.676395">
        <ele>115.0</ele>
        <time>2019-05-17T08:40:27.186Z</time>
      </trkpt>
      <trkpt lat="39.23467833" lon="-8.676395">
        <ele>115.0</ele>
        <time>2019-05-17T08:40:28.172Z</time>
      </trkpt>
      <trkpt lat="39.23473167" lon="-8.67639333">
        <ele>116.0</ele>
        <time>2019-05-17T08:40:29.169Z</time>
      </trkpt>
      <trkpt lat="39.23475167" lon="-8.67638667">
        <ele>117.0</ele>
        <time>2019-05-17T08:40:30.175Z</time>
      </trkpt>
      <trkpt lat="39.23475167" lon="-8.67638667">
        <ele>117.0</ele>
        <time>2019-05-17T08:40:31.163Z</time>
      </trkpt>
      <trkpt lat="39.23477667" lon="-8.67635">
        <ele>117.0</ele>
        <time>2019-05-17T08:40:32.172Z</time>
      </trkpt>
      <trkpt lat="39.23477667" lon="-8.67635">
        <ele>117.0</ele>
        <time>2019-05-17T08:40:33.163Z</time>
      </trkpt>
      <trkpt lat="39.23480667" lon="-8.67632">
        <ele>116.0</ele>
        <time>2019-05-17T08:40:34.169Z</time>
      </trkpt>
      <trkpt lat="39.23481667" lon="-8.67629667">
        <ele>117.0</ele>
        <time>2019-05-17T08:40:35.168Z</time>
      </trkpt>
      <trkpt lat="39.23481667" lon="-8.67629667">
        <ele>117.0</ele>
        <time>2019-05-17T08:40:36.162Z</time>
      </trkpt>
      <trkpt lat="39.234855" lon="-8.67629833">
        <ele>115.0</ele>
        <time>2019-05-17T08:40:37.167Z</time>
      </trkpt>
      <trkpt lat="39.234855" lon="-8.67629833">
        <ele>115.0</ele>
        <time>2019-05-17T08:40:38.161Z</time>
      </trkpt>
      <trkpt lat="39.23489833" lon="-8.67631333">
        <ele>115.0</ele>
        <time>2019-05-17T08:40:39.188Z</time>
      </trkpt>
      <trkpt lat="39.23489833" lon="-8.67631333">
        <ele>115.0</ele>
        <time>2019-05-17T08:40:40.172Z</time>
      </trkpt>
      <trkpt lat="39.23491167" lon="-8.67636167">
        <ele>113.0</ele>
        <time>2019-05-17T08:40:41.171Z</time>
      </trkpt>
      <trkpt lat="39.234905" lon="-8.676365">
        <ele>112.0</ele>
        <time>2019-05-17T08:40:42.170Z</time>
      </trkpt>
      <trkpt lat="39.234905" lon="-8.676365">
        <ele>112.0</ele>
        <time>2019-05-17T08:40:43.163Z</time>
      </trkpt>
      <trkpt lat="39.23489833" lon="-8.67636">
        <ele>111.0</ele>
        <time>2019-05-17T08:40:44.169Z</time>
      </trkpt>
      <trkpt lat="39.23489833" lon="-8.67636">
        <ele>111.0</ele>
        <time>2019-05-17T08:40:45.162Z</time>
      </trkpt>
      <trkpt lat="39.23488667" lon="-8.67636333">
        <ele>111.0</ele>
        <time>2019-05-17T08:40:46.150Z</time>
      </trkpt>
      <trkpt lat="39.23488333" lon="-8.67637333">
        <ele>111.0</ele>
        <time>2019-05-17T08:40:47.158Z</time>
      </trkpt>
      <trkpt lat="39.23487833" lon="-8.67638333">
        <ele>111.0</ele>
        <time>2019-05-17T08:40:48.171Z</time>
      </trkpt>
      <trkpt lat="39.23487833" lon="-8.67638333">
        <ele>111.0</ele>
        <time>2019-05-17T08:40:49.163Z</time>
      </trkpt>
      <trkpt lat="39.23485833" lon="-8.67640833">
        <ele>110.0</ele>
        <time>2019-05-17T08:40:50.168Z</time>
      </trkpt>
      <trkpt lat="39.23485833" lon="-8.67640833">
        <ele>110.0</ele>
        <time>2019-05-17T08:40:51.163Z</time>
      </trkpt>
      <trkpt lat="39.23484333" lon="-8.67644167">
        <ele>110.0</ele>
        <time>2019-05-17T08:40:52.172Z</time>
      </trkpt>
      <trkpt lat="39.23484333" lon="-8.67644167">
        <ele>110.0</ele>
        <time>2019-05-17T08:40:53.162Z</time>
      </trkpt>
      <trkpt lat="39.23482" lon="-8.67645">
        <ele>110.0</ele>
        <time>2019-05-17T08:40:54.186Z</time>
      </trkpt>
      <trkpt lat="39.23482" lon="-8.67645">
        <ele>110.0</ele>
        <time>2019-05-17T08:40:55.171Z</time>
      </trkpt>
      <trkpt lat="39.23479167" lon="-8.67643667">
        <ele>110.0</ele>
        <time>2019-05-17T08:40:56.170Z</time>
      </trkpt>
      <trkpt lat="39.23479167" lon="-8.67643667">
        <ele>110.0</ele>
        <time>2019-05-17T08:40:57.162Z</time>
      </trkpt>
      <trkpt lat="39.23475833" lon="-8.67643667">
        <ele>109.0</ele>
        <time>2019-05-17T08:40:58.168Z</time>
      </trkpt>
      <trkpt lat="39.23475833" lon="-8.67643667">
        <ele>109.0</ele>
        <time>2019-05-17T08:40:59.162Z</time>
      </trkpt>
      <trkpt lat="39.23472667" lon="-8.67646167">
        <ele>109.0</ele>
        <time>2019-05-17T08:41:00.151Z</time>
      </trkpt>
      <trkpt lat="39.23472667" lon="-8.67646167">
        <ele>109.0</ele>
        <time>2019-05-17T08:41:01.173Z</time>
      </trkpt>
      <trkpt lat="39.23471" lon="-8.67650333">
        <ele>109.0</ele>
        <time>2019-05-17T08:41:02.168Z</time>
      </trkpt>
      <trkpt lat="39.23471" lon="-8.67650333">
        <ele>109.0</ele>
        <time>2019-05-17T08:41:03.162Z</time>
      </trkpt>
      <trkpt lat="39.23468833" lon="-8.67655167">
        <ele>108.0</ele>
        <time>2019-05-17T08:41:04.155Z</time>
      </trkpt>
      <trkpt lat="39.23468833" lon="-8.67655167">
        <ele>108.0</ele>
        <time>2019-05-17T08:41:05.179Z</time>
      </trkpt>
      <trkpt lat="39.23465833" lon="-8.67659667">
        <ele>108.0</ele>
        <time>2019-05-17T08:41:06.177Z</time>
      </trkpt>
      <trkpt lat="39.23465833" lon="-8.67659667">
        <ele>108.0</ele>
        <time>2019-05-17T08:41:07.169Z</time>
      </trkpt>
      <trkpt lat="39.23463167" lon="-8.67664">
        <ele>108.0</ele>
        <time>2019-05-17T08:41:08.170Z</time>
      </trkpt>
      <trkpt lat="39.234615" lon="-8.67666167">
        <ele>108.0</ele>
        <time>2019-05-17T08:41:09.171Z</time>
      </trkpt>
      <trkpt lat="39.23459667" lon="-8.67668">
        <ele>108.0</ele>
        <time>2019-05-17T08:41:10.167Z</time>
      </trkpt>
      <trkpt lat="39.23459667" lon="-8.67668">
        <ele>108.0</ele>
        <time>2019-05-17T08:41:11.186Z</time>
      </trkpt>
      <trkpt lat="39.23456" lon="-8.67671667">
        <ele>107.0</ele>
        <time>2019-05-17T08:41:12.274Z</time>
      </trkpt>
      <trkpt lat="39.23456" lon="-8.67671667">
        <ele>107.0</ele>
        <time>2019-05-17T08:41:13.167Z</time>
      </trkpt>
      <trkpt lat="39.234525" lon="-8.67674667">
        <ele>106.0</ele>
        <time>2019-05-17T08:41:14.177Z</time>
      </trkpt>
      <trkpt lat="39.234525" lon="-8.67674667">
        <ele>106.0</ele>
        <time>2019-05-17T08:41:15.186Z</time>
      </trkpt>
      <trkpt lat="39.234505" lon="-8.676765">
        <ele>107.0</ele>
        <time>2019-05-17T08:41:16.161Z</time>
      </trkpt>
      <trkpt lat="39.234505" lon="-8.676765">
        <ele>107.0</ele>
        <time>2019-05-17T08:41:17.179Z</time>
      </trkpt>
      <trkpt lat="39.23450667" lon="-8.67678333">
        <ele>107.0</ele>
        <time>2019-05-17T08:41:18.150Z</time>
      </trkpt>
      <trkpt lat="39.23450667" lon="-8.67678333">
        <ele>107.0</ele>
        <time>2019-05-17T08:41:19.160Z</time>
      </trkpt>
      <trkpt lat="39.23452333" lon="-8.67680833">
        <ele>107.0</ele>
        <time>2019-05-17T08:41:20.156Z</time>
      </trkpt>
      <trkpt lat="39.23453" lon="-8.67682833">
        <ele>107.0</ele>
        <time>2019-05-17T08:41:21.188Z</time>
      </trkpt>
      <trkpt lat="39.23453" lon="-8.67682833">
        <ele>107.0</ele>
        <time>2019-05-17T08:41:22.171Z</time>
      </trkpt>
      <trkpt lat="39.23454667" lon="-8.67686333">
        <ele>106.0</ele>
        <time>2019-05-17T08:41:23.181Z</time>
      </trkpt>
      <trkpt lat="39.23456" lon="-8.67688167">
        <ele>106.0</ele>
        <time>2019-05-17T08:41:24.162Z</time>
      </trkpt>
      <trkpt lat="39.23456" lon="-8.67688167">
        <ele>106.0</ele>
        <time>2019-05-17T08:41:25.171Z</time>
      </trkpt>
      <trkpt lat="39.234585" lon="-8.67693">
        <ele>105.0</ele>
        <time>2019-05-17T08:41:26.179Z</time>
      </trkpt>
      <trkpt lat="39.234585" lon="-8.67693">
        <ele>105.0</ele>
        <time>2019-05-17T08:41:27.167Z</time>
      </trkpt>
      <trkpt lat="39.23461333" lon="-8.67697333">
        <ele>104.0</ele>
        <time>2019-05-17T08:41:28.181Z</time>
      </trkpt>
      <trkpt lat="39.23461333" lon="-8.67697333">
        <ele>104.0</ele>
        <time>2019-05-17T08:41:29.157Z</time>
      </trkpt>
      <trkpt lat="39.23463667" lon="-8.67701">
        <ele>104.0</ele>
        <time>2019-05-17T08:41:30.171Z</time>
      </trkpt>
      <trkpt lat="39.23463667" lon="-8.67701">
        <ele>104.0</ele>
        <time>2019-05-17T08:41:31.176Z</time>
      </trkpt>
      <trkpt lat="39.23466667" lon="-8.677045">
        <ele>104.0</ele>
        <time>2019-05-17T08:41:32.183Z</time>
      </trkpt>
      <trkpt lat="39.23466667" lon="-8.677045">
        <ele>104.0</ele>
        <time>2019-05-17T08:41:33.155Z</time>
      </trkpt>
      <trkpt lat="39.23468667" lon="-8.67705">
        <ele>104.0</ele>
        <time>2019-05-17T08:41:34.176Z</time>
      </trkpt>
      <trkpt lat="39.23468667" lon="-8.67705">
        <ele>104.0</ele>
        <time>2019-05-17T08:41:35.154Z</time>
      </trkpt>
      <trkpt lat="39.234705" lon="-8.67704833">
        <ele>104.0</ele>
        <time>2019-05-17T08:41:36.189Z</time>
      </trkpt>
      <trkpt lat="39.234705" lon="-8.67704833">
        <ele>104.0</ele>
        <time>2019-05-17T08:41:37.182Z</time>
      </trkpt>
      <trkpt lat="39.23472667" lon="-8.67705833">
        <ele>105.0</ele>
        <time>2019-05-17T08:41:38.167Z</time>
      </trkpt>
      <trkpt lat="39.23472667" lon="-8.67705833">
        <ele>105.0</ele>
        <time>2019-05-17T08:41:39.157Z</time>
      </trkpt>
      <trkpt lat="39.23475167" lon="-8.67708333">
        <ele>106.0</ele>
        <time>2019-05-17T08:41:40.171Z</time>
      </trkpt>
      <trkpt lat="39.23475167" lon="-8.67708333">
        <ele>106.0</ele>
        <time>2019-05-17T08:41:41.168Z</time>
      </trkpt>
      <trkpt lat="39.23476833" lon="-8.677085">
        <ele>107.0</ele>
        <time>2019-05-17T08:41:42.181Z</time>
      </trkpt>
      <trkpt lat="39.23476833" lon="-8.677085">
        <ele>107.0</ele>
        <time>2019-05-17T08:41:43.154Z</time>
      </trkpt>
      <trkpt lat="39.23479833" lon="-8.67710833">
        <ele>108.0</ele>
        <time>2019-05-17T08:41:44.176Z</time>
      </trkpt>
      <trkpt lat="39.23479833" lon="-8.67710833">
        <ele>108.0</ele>
        <time>2019-05-17T08:41:45.182Z</time>
      </trkpt>
      <trkpt lat="39.23482833" lon="-8.67712667">
        <ele>108.0</ele>
        <time>2019-05-17T08:41:46.158Z</time>
      </trkpt>
      <trkpt lat="39.23482833" lon="-8.67712667">
        <ele>108.0</ele>
        <time>2019-05-17T08:41:47.169Z</time>
      </trkpt>
      <trkpt lat="39.23484" lon="-8.677135">
        <ele>108.0</ele>
        <time>2019-05-17T08:41:48.181Z</time>
      </trkpt>
      <trkpt lat="39.23484" lon="-8.677135">
        <ele>108.0</ele>
        <time>2019-05-17T08:41:49.161Z</time>
      </trkpt>
      <trkpt lat="39.23484667" lon="-8.67714333">
        <ele>107.0</ele>
        <time>2019-05-17T08:41:50.176Z</time>
      </trkpt>
      <trkpt lat="39.23484667" lon="-8.67714333">
        <ele>107.0</ele>
        <time>2019-05-17T08:41:51.189Z</time>
      </trkpt>
      <trkpt lat="39.23484667" lon="-8.67714333">
        <ele>107.0</ele>
        <time>2019-05-17T08:41:52.159Z</time>
      </trkpt>
      <trkpt lat="39.23484667" lon="-8.67714333">
        <ele>107.0</ele>
        <time>2019-05-17T08:41:53.170Z</time>
      </trkpt>
      <trkpt lat="39.23484667" lon="-8.67714333">
        <ele>107.0</ele>
        <time>2019-05-17T08:41:54.184Z</time>
      </trkpt>
      <trkpt lat="39.23484667" lon="-8.67714333">
        <ele>107.0</ele>
        <time>2019-05-17T08:41:55.155Z</time>
      </trkpt>
      <trkpt lat="39.23484667" lon="-8.67714333">
        <ele>107.0</ele>
        <time>2019-05-17T08:41:56.161Z</time>
      </trkpt>
      <trkpt lat="39.23484667" lon="-8.67714333">
        <ele>107.0</ele>
        <time>2019-05-17T08:41:57.186Z</time>
      </trkpt>
      <trkpt lat="39.23484667" lon="-8.67714333">
        <ele>107.0</ele>
        <time>2019-05-17T08:41:58.182Z</time>
      </trkpt>
      <trkpt lat="39.23484667" lon="-8.67714333">
        <ele>107.0</ele>
        <time>2019-05-17T08:41:59.166Z</time>
      </trkpt>
      <trkpt lat="39.23484667" lon="-8.67714333">
        <ele>107.0</ele>
        <time>2019-05-17T08:42:00.183Z</time>
      </trkpt>
      <trkpt lat="39.23484667" lon="-8.67714333">
        <ele>107.0</ele>
        <time>2019-05-17T08:42:01.166Z</time>
      </trkpt>
      <trkpt lat="39.23484667" lon="-8.67714333">
        <ele>107.0</ele>
        <time>2019-05-17T08:42:02.169Z</time>
      </trkpt>
      <trkpt lat="39.23484667" lon="-8.67714333">
        <ele>107.0</ele>
        <time>2019-05-17T08:42:03.165Z</time>
      </trkpt>
      <trkpt lat="39.23484667" lon="-8.67714333">
        <ele>107.0</ele>
        <time>2019-05-17T08:42:04.167Z</time>
      </trkpt>
      <trkpt lat="39.23484667" lon="-8.67714333">
        <ele>107.0</ele>
        <time>2019-05-17T08:42:05.167Z</time>
      </trkpt>
      <trkpt lat="39.23484667" lon="-8.67714333">
        <ele>107.0</ele>
        <time>2019-05-17T08:42:06.170Z</time>
      </trkpt>
      <trkpt lat="39.23484667" lon="-8.67714333">
        <ele>107.0</ele>
        <time>2019-05-17T08:42:07.160Z</time>
      </trkpt>
      <trkpt lat="39.23484667" lon="-8.67714333">
        <ele>107.0</ele>
        <time>2019-05-17T08:42:08.183Z</time>
      </trkpt>
      <trkpt lat="39.23484667" lon="-8.67714333">
        <ele>107.0</ele>
        <time>2019-05-17T08:42:09.188Z</time>
      </trkpt>
      <trkpt lat="39.23484667" lon="-8.67714333">
        <ele>107.0</ele>
        <time>2019-05-17T08:42:10.179Z</time>
      </trkpt>
      <trkpt lat="39.23484667" lon="-8.67714333">
        <ele>107.0</ele>
        <time>2019-05-17T08:42:11.163Z</time>
      </trkpt>
      <trkpt lat="39.23484667" lon="-8.67714333">
        <ele>107.0</ele>
        <time>2019-05-17T08:42:12.171Z</time>
      </trkpt>
      <trkpt lat="39.23484667" lon="-8.67714333">
        <ele>107.0</ele>
        <time>2019-05-17T08:42:13.163Z</time>
      </trkpt>
      <trkpt lat="39.23484667" lon="-8.67714333">
        <ele>107.0</ele>
        <time>2019-05-17T08:42:14.157Z</time>
      </trkpt>
      <trkpt lat="39.23484667" lon="-8.67714333">
        <ele>107.0</ele>
        <time>2019-05-17T08:42:15.162Z</time>
      </trkpt>
      <trkpt lat="39.23484667" lon="-8.67714333">
        <ele>107.0</ele>
        <time>2019-05-17T08:42:16.168Z</time>
      </trkpt>
      <trkpt lat="39.23484667" lon="-8.67714333">
        <ele>107.0</ele>
        <time>2019-05-17T08:42:17.169Z</time>
      </trkpt>
      <trkpt lat="39.23484667" lon="-8.67714333">
        <ele>107.0</ele>
        <time>2019-05-17T08:42:18.170Z</time>
      </trkpt>
      <trkpt lat="39.23484667" lon="-8.67714333">
        <ele>107.0</ele>
        <time>2019-05-17T08:42:19.165Z</time>
      </trkpt>
      <trkpt lat="39.23484667" lon="-8.67714333">
        <ele>107.0</ele>
        <time>2019-05-17T08:42:20.167Z</time>
      </trkpt>
      <trkpt lat="39.23484667" lon="-8.67714333">
        <ele>107.0</ele>
        <time>2019-05-17T08:42:21.162Z</time>
      </trkpt>
      <trkpt lat="39.23484667" lon="-8.67714333">
        <ele>107.0</ele>
        <time>2019-05-17T08:42:22.165Z</time>
      </trkpt>
      <trkpt lat="39.23484667" lon="-8.67714333">
        <ele>107.0</ele>
        <time>2019-05-17T08:42:23.167Z</time>
      </trkpt>
      <trkpt lat="39.23484667" lon="-8.67714333">
        <ele>107.0</ele>
        <time>2019-05-17T08:42:24.170Z</time>
      </trkpt>
      <trkpt lat="39.23484667" lon="-8.67714333">
        <ele>107.0</ele>
        <time>2019-05-17T08:42:25.164Z</time>
      </trkpt>
      <trkpt lat="39.23484667" lon="-8.67714333">
        <ele>107.0</ele>
        <time>2019-05-17T08:42:26.168Z</time>
      </trkpt>
      <trkpt lat="39.23484667" lon="-8.67714333">
        <ele>107.0</ele>
        <time>2019-05-17T08:42:27.162Z</time>
      </trkpt>
      <trkpt lat="39.23484667" lon="-8.67714333">
        <ele>107.0</ele>
        <time>2019-05-17T08:42:28.163Z</time>
      </trkpt>
      <trkpt lat="39.23484667" lon="-8.67714333">
        <ele>107.0</ele>
        <time>2019-05-17T08:42:29.187Z</time>
      </trkpt>
      <trkpt lat="39.23484667" lon="-8.67714333">
        <ele>107.0</ele>
        <time>2019-05-17T08:42:30.171Z</time>
      </trkpt>
      <trkpt lat="39.23484667" lon="-8.67714333">
        <ele>107.0</ele>
        <time>2019-05-17T08:42:31.162Z</time>
      </trkpt>
      <trkpt lat="39.23484667" lon="-8.67714333">
        <ele>107.0</ele>
        <time>2019-05-17T08:42:32.167Z</time>
      </trkpt>
      <trkpt lat="39.23484667" lon="-8.67714333">
        <ele>107.0</ele>
        <time>2019-05-17T08:42:33.162Z</time>
      </trkpt>
      <trkpt lat="39.23484667" lon="-8.67714333">
        <ele>107.0</ele>
        <time>2019-05-17T08:42:34.179Z</time>
      </trkpt>
      <trkpt lat="39.23484667" lon="-8.67714333">
        <ele>107.0</ele>
        <time>2019-05-17T08:42:35.164Z</time>
      </trkpt>
      <trkpt lat="39.23484667" lon="-8.67714333">
        <ele>107.0</ele>
        <time>2019-05-17T08:42:36.169Z</time>
      </trkpt>
      <trkpt lat="39.23484667" lon="-8.67714333">
        <ele>107.0</ele>
        <time>2019-05-17T08:42:37.162Z</time>
      </trkpt>
      <trkpt lat="39.23484667" lon="-8.67714333">
        <ele>107.0</ele>
        <time>2019-05-17T08:42:38.165Z</time>
      </trkpt>
      <trkpt lat="39.23484667" lon="-8.67714333">
        <ele>107.0</ele>
        <time>2019-05-17T08:42:39.189Z</time>
      </trkpt>
      <trkpt lat="39.23484667" lon="-8.67714333">
        <ele>107.0</ele>
        <time>2019-05-17T08:42:40.171Z</time>
      </trkpt>
      <trkpt lat="39.23484667" lon="-8.67714333">
        <ele>107.0</ele>
        <time>2019-05-17T08:42:41.167Z</time>
      </trkpt>
      <trkpt lat="39.23484667" lon="-8.67714333">
        <ele>107.0</ele>
        <time>2019-05-17T08:42:42.170Z</time>
      </trkpt>
      <trkpt lat="39.23484667" lon="-8.67714333">
        <ele>107.0</ele>
        <time>2019-05-17T08:42:43.162Z</time>
      </trkpt>
      <trkpt lat="39.23484667" lon="-8.67714333">
        <ele>107.0</ele>
        <time>2019-05-17T08:42:44.186Z</time>
      </trkpt>
      <trkpt lat="39.23484667" lon="-8.67714333">
        <ele>107.0</ele>
        <time>2019-05-17T08:42:45.170Z</time>
      </trkpt>
      <trkpt lat="39.23484667" lon="-8.67714333">
        <ele>107.0</ele>
        <time>2019-05-17T08:42:46.168Z</time>
      </trkpt>
      <trkpt lat="39.23484667" lon="-8.67714333">
        <ele>107.0</ele>
        <time>2019-05-17T08:42:47.187Z</time>
      </trkpt>
      <trkpt lat="39.23484667" lon="-8.67714333">
        <ele>107.0</ele>
        <time>2019-05-17T08:42:48.172Z</time>
      </trkpt>
      <trkpt lat="39.23484667" lon="-8.67714333">
        <ele>107.0</ele>
        <time>2019-05-17T08:42:49.162Z</time>
      </trkpt>
      <trkpt lat="39.23484667" lon="-8.67714333">
        <ele>107.0</ele>
        <time>2019-05-17T08:42:50.168Z</time>
      </trkpt>
      <trkpt lat="39.23484667" lon="-8.67714333">
        <ele>107.0</ele>
        <time>2019-05-17T08:42:51.168Z</time>
      </trkpt>
      <trkpt lat="39.23484667" lon="-8.67714333">
        <ele>107.0</ele>
        <time>2019-05-17T08:42:52.167Z</time>
      </trkpt>
      <trkpt lat="39.23484667" lon="-8.67714333">
        <ele>107.0</ele>
        <time>2019-05-17T08:42:53.162Z</time>
      </trkpt>
      <trkpt lat="39.23484667" lon="-8.67714333">
        <ele>107.0</ele>
        <time>2019-05-17T08:42:54.166Z</time>
      </trkpt>
      <trkpt lat="39.23484667" lon="-8.67714333">
        <ele>107.0</ele>
        <time>2019-05-17T08:42:55.164Z</time>
      </trkpt>
      <trkpt lat="39.23484667" lon="-8.67714333">
        <ele>107.0</ele>
        <time>2019-05-17T08:42:56.167Z</time>
      </trkpt>
      <trkpt lat="39.23484667" lon="-8.67714333">
        <ele>107.0</ele>
        <time>2019-05-17T08:42:57.162Z</time>
      </trkpt>
      <trkpt lat="39.23484667" lon="-8.67714333">
        <ele>107.0</ele>
        <time>2019-05-17T08:42:58.167Z</time>
      </trkpt>
      <trkpt lat="39.234865" lon="-8.67725833">
        <ele>101.0</ele>
        <time>2019-05-17T08:42:59.187Z</time>
      </trkpt>
      <trkpt lat="39.234865" lon="-8.67725833">
        <ele>101.0</ele>
        <time>2019-05-17T08:43:00.182Z</time>
      </trkpt>
      <trkpt lat="39.23486333" lon="-8.67726">
        <ele>101.0</ele>
        <time>2019-05-17T08:43:01.159Z</time>
      </trkpt>
      <trkpt lat="39.23486333" lon="-8.67726">
        <ele>101.0</ele>
        <time>2019-05-17T08:43:02.154Z</time>
      </trkpt>
      <trkpt lat="39.23486333" lon="-8.67726167">
        <ele>101.0</ele>
        <time>2019-05-17T08:43:03.170Z</time>
      </trkpt>
      <trkpt lat="39.23486333" lon="-8.67726167">
        <ele>101.0</ele>
        <time>2019-05-17T08:43:04.178Z</time>
      </trkpt>
      <trkpt lat="39.23486333" lon="-8.67726167">
        <ele>101.0</ele>
        <time>2019-05-17T08:43:05.190Z</time>
      </trkpt>
      <trkpt lat="39.23486333" lon="-8.67726167">
        <ele>101.0</ele>
        <time>2019-05-17T08:43:06.177Z</time>
      </trkpt>
      <trkpt lat="39.23486333" lon="-8.67726167">
        <ele>101.0</ele>
        <time>2019-05-17T08:43:07.160Z</time>
      </trkpt>
      <trkpt lat="39.23486333" lon="-8.67726167">
        <ele>101.0</ele>
        <time>2019-05-17T08:43:08.166Z</time>
      </trkpt>
      <trkpt lat="39.23486333" lon="-8.67726167">
        <ele>101.0</ele>
        <time>2019-05-17T08:43:09.188Z</time>
      </trkpt>
      <trkpt lat="39.23486333" lon="-8.67726167">
        <ele>101.0</ele>
        <time>2019-05-17T08:43:10.173Z</time>
      </trkpt>
      <trkpt lat="39.23486333" lon="-8.67726167">
        <ele>101.0</ele>
        <time>2019-05-17T08:43:11.162Z</time>
      </trkpt>
      <trkpt lat="39.23486333" lon="-8.67726167">
        <ele>101.0</ele>
        <time>2019-05-17T08:43:12.170Z</time>
      </trkpt>
      <trkpt lat="39.23486333" lon="-8.67726167">
        <ele>101.0</ele>
        <time>2019-05-17T08:43:13.162Z</time>
      </trkpt>
      <trkpt lat="39.234855" lon="-8.67723333">
        <ele>100.0</ele>
        <time>2019-05-17T08:43:14.188Z</time>
      </trkpt>
      <trkpt lat="39.234855" lon="-8.67723333">
        <ele>100.0</ele>
        <time>2019-05-17T08:43:15.182Z</time>
      </trkpt>
      <trkpt lat="39.23486" lon="-8.67719833">
        <ele>99.0</ele>
        <time>2019-05-17T08:43:16.168Z</time>
      </trkpt>
      <trkpt lat="39.23486" lon="-8.67719833">
        <ele>99.0</ele>
        <time>2019-05-17T08:43:17.162Z</time>
      </trkpt>
      <trkpt lat="39.2349" lon="-8.677145">
        <ele>100.0</ele>
        <time>2019-05-17T08:43:18.170Z</time>
      </trkpt>
      <trkpt lat="39.234915" lon="-8.67712167">
        <ele>100.0</ele>
        <time>2019-05-17T08:43:19.194Z</time>
      </trkpt>
      <trkpt lat="39.234915" lon="-8.67712167">
        <ele>100.0</ele>
        <time>2019-05-17T08:43:20.154Z</time>
      </trkpt>
      <trkpt lat="39.23494833" lon="-8.677075">
        <ele>100.0</ele>
        <time>2019-05-17T08:43:21.166Z</time>
      </trkpt>
      <trkpt lat="39.23494833" lon="-8.677075">
        <ele>100.0</ele>
        <time>2019-05-17T08:43:22.177Z</time>
      </trkpt>
      <trkpt lat="39.23498" lon="-8.67704167">
        <ele>100.0</ele>
        <time>2019-05-17T08:43:23.189Z</time>
      </trkpt>
      <trkpt lat="39.23498" lon="-8.67704167">
        <ele>100.0</ele>
        <time>2019-05-17T08:43:24.163Z</time>
      </trkpt>
      <trkpt lat="39.23501" lon="-8.677015">
        <ele>100.0</ele>
        <time>2019-05-17T08:43:25.150Z</time>
      </trkpt>
      <trkpt lat="39.23501" lon="-8.677015">
        <ele>100.0</ele>
        <time>2019-05-17T08:43:26.155Z</time>
      </trkpt>
      <trkpt lat="39.23504333" lon="-8.67698167">
        <ele>100.0</ele>
        <time>2019-05-17T08:43:27.170Z</time>
      </trkpt>
      <trkpt lat="39.23504333" lon="-8.67698167">
        <ele>100.0</ele>
        <time>2019-05-17T08:43:28.177Z</time>
      </trkpt>
      <trkpt lat="39.23507333" lon="-8.67695">
        <ele>99.0</ele>
        <time>2019-05-17T08:43:29.192Z</time>
      </trkpt>
      <trkpt lat="39.235085" lon="-8.676935">
        <ele>99.0</ele>
        <time>2019-05-17T08:43:30.168Z</time>
      </trkpt>
      <trkpt lat="39.235085" lon="-8.676935">
        <ele>99.0</ele>
        <time>2019-05-17T08:43:31.178Z</time>
      </trkpt>
      <trkpt lat="39.23511167" lon="-8.67690333">
        <ele>98.0</ele>
        <time>2019-05-17T08:43:32.165Z</time>
      </trkpt>
      <trkpt lat="39.23511167" lon="-8.67690333">
        <ele>98.0</ele>
        <time>2019-05-17T08:43:33.178Z</time>
      </trkpt>
      <trkpt lat="39.235135" lon="-8.67687333">
        <ele>97.0</ele>
        <time>2019-05-17T08:43:34.189Z</time>
      </trkpt>
      <trkpt lat="39.23515167" lon="-8.67685667">
        <ele>97.0</ele>
        <time>2019-05-17T08:43:35.176Z</time>
      </trkpt>
      <trkpt lat="39.23516667" lon="-8.67684167">
        <ele>96.0</ele>
        <time>2019-05-17T08:43:36.180Z</time>
      </trkpt>
      <trkpt lat="39.23516667" lon="-8.67684167">
        <ele>96.0</ele>
        <time>2019-05-17T08:43:37.157Z</time>
      </trkpt>
      <trkpt lat="39.23519" lon="-8.67681">
        <ele>95.0</ele>
        <time>2019-05-17T08:43:38.168Z</time>
      </trkpt>
      <trkpt lat="39.23519" lon="-8.67681">
        <ele>95.0</ele>
        <time>2019-05-17T08:43:39.188Z</time>
      </trkpt>
      <trkpt lat="39.23521" lon="-8.67677667">
        <ele>94.0</ele>
        <time>2019-05-17T08:43:40.170Z</time>
      </trkpt>
      <trkpt lat="39.23522333" lon="-8.67675667">
        <ele>94.0</ele>
        <time>2019-05-17T08:43:41.152Z</time>
      </trkpt>
      <trkpt lat="39.23524333" lon="-8.67673667">
        <ele>93.0</ele>
        <time>2019-05-17T08:43:42.175Z</time>
      </trkpt>
      <trkpt lat="39.23524333" lon="-8.67673667">
        <ele>93.0</ele>
        <time>2019-05-17T08:43:43.168Z</time>
      </trkpt>
      <trkpt lat="39.23528667" lon="-8.67669167">
        <ele>94.0</ele>
        <time>2019-05-17T08:43:44.176Z</time>
      </trkpt>
      <trkpt lat="39.23528667" lon="-8.67669167">
        <ele>94.0</ele>
        <time>2019-05-17T08:43:45.157Z</time>
      </trkpt>
      <trkpt lat="39.23531667" lon="-8.67665333">
        <ele>93.0</ele>
        <time>2019-05-17T08:43:46.172Z</time>
      </trkpt>
      <trkpt lat="39.23531667" lon="-8.67665333">
        <ele>93.0</ele>
        <time>2019-05-17T08:43:47.171Z</time>
      </trkpt>
      <trkpt lat="39.23533833" lon="-8.67661167">
        <ele>92.0</ele>
        <time>2019-05-17T08:43:48.187Z</time>
      </trkpt>
      <trkpt lat="39.23533833" lon="-8.67661167">
        <ele>92.0</ele>
        <time>2019-05-17T08:43:49.154Z</time>
      </trkpt>
      <trkpt lat="39.23536833" lon="-8.67657">
        <ele>91.0</ele>
        <time>2019-05-17T08:43:50.171Z</time>
      </trkpt>
      <trkpt lat="39.23536833" lon="-8.67657">
        <ele>91.0</ele>
        <time>2019-05-17T08:43:51.162Z</time>
      </trkpt>
      <trkpt lat="39.23539667" lon="-8.67652667">
        <ele>90.0</ele>
        <time>2019-05-17T08:43:52.180Z</time>
      </trkpt>
      <trkpt lat="39.23539667" lon="-8.67652667">
        <ele>90.0</ele>
        <time>2019-05-17T08:43:53.156Z</time>
      </trkpt>
      <trkpt lat="39.23542333" lon="-8.67649">
        <ele>90.0</ele>
        <time>2019-05-17T08:43:54.169Z</time>
      </trkpt>
      <trkpt lat="39.23542333" lon="-8.67649">
        <ele>90.0</ele>
        <time>2019-05-17T08:43:55.187Z</time>
      </trkpt>
      <trkpt lat="39.23545333" lon="-8.67644667">
        <ele>90.0</ele>
        <time>2019-05-17T08:43:56.155Z</time>
      </trkpt>
      <trkpt lat="39.23545333" lon="-8.67644667">
        <ele>90.0</ele>
        <time>2019-05-17T08:43:57.179Z</time>
      </trkpt>
      <trkpt lat="39.23548333" lon="-8.67639667">
        <ele>89.0</ele>
        <time>2019-05-17T08:43:58.171Z</time>
      </trkpt>
      <trkpt lat="39.23548333" lon="-8.67639667">
        <ele>89.0</ele>
        <time>2019-05-17T08:43:59.183Z</time>
      </trkpt>
      <trkpt lat="39.23551667" lon="-8.67634">
        <ele>89.0</ele>
        <time>2019-05-17T08:44:00.155Z</time>
      </trkpt>
      <trkpt lat="39.23552667" lon="-8.67631833">
        <ele>89.0</ele>
        <time>2019-05-17T08:44:01.185Z</time>
      </trkpt>
      <trkpt lat="39.23552667" lon="-8.67631833">
        <ele>89.0</ele>
        <time>2019-05-17T08:44:02.153Z</time>
      </trkpt>
      <trkpt lat="39.23553667" lon="-8.67630333">
        <ele>89.0</ele>
        <time>2019-05-17T08:44:03.165Z</time>
      </trkpt>
      <trkpt lat="39.23553667" lon="-8.67630333">
        <ele>89.0</ele>
        <time>2019-05-17T08:44:04.178Z</time>
      </trkpt>
      <trkpt lat="39.23554333" lon="-8.6763">
        <ele>89.0</ele>
        <time>2019-05-17T08:44:05.189Z</time>
      </trkpt>
      <trkpt lat="39.23554333" lon="-8.6763">
        <ele>89.0</ele>
        <time>2019-05-17T08:44:06.159Z</time>
      </trkpt>
      <trkpt lat="39.23554333" lon="-8.6763">
        <ele>89.0</ele>
        <time>2019-05-17T08:44:07.157Z</time>
      </trkpt>
      <trkpt lat="39.23554333" lon="-8.6763">
        <ele>89.0</ele>
        <time>2019-05-17T08:44:08.161Z</time>
      </trkpt>
      <trkpt lat="39.23554333" lon="-8.6763">
        <ele>89.0</ele>
        <time>2019-05-17T08:44:09.179Z</time>
      </trkpt>
      <trkpt lat="39.23556167" lon="-8.67628667">
        <ele>90.0</ele>
        <time>2019-05-17T08:44:10.167Z</time>
      </trkpt>
      <trkpt lat="39.23556167" lon="-8.67628667">
        <ele>90.0</ele>
        <time>2019-05-17T08:44:11.162Z</time>
      </trkpt>
      <trkpt lat="39.235565" lon="-8.67628">
        <ele>90.0</ele>
        <time>2019-05-17T08:44:12.170Z</time>
      </trkpt>
      <trkpt lat="39.235565" lon="-8.67628">
        <ele>90.0</ele>
        <time>2019-05-17T08:44:13.162Z</time>
      </trkpt>
      <trkpt lat="39.23557167" lon="-8.67627167">
        <ele>90.0</ele>
        <time>2019-05-17T08:44:14.172Z</time>
      </trkpt>
      <trkpt lat="39.23557167" lon="-8.67627167">
        <ele>90.0</ele>
        <time>2019-05-17T08:44:15.162Z</time>
      </trkpt>
      <trkpt lat="39.235575" lon="-8.67626167">
        <ele>90.0</ele>
        <time>2019-05-17T08:44:16.167Z</time>
      </trkpt>
      <trkpt lat="39.235575" lon="-8.67626167">
        <ele>90.0</ele>
        <time>2019-05-17T08:44:17.162Z</time>
      </trkpt>
      <trkpt lat="39.23558333" lon="-8.676255">
        <ele>90.0</ele>
        <time>2019-05-17T08:44:18.158Z</time>
      </trkpt>
      <trkpt lat="39.23558333" lon="-8.676255">
        <ele>90.0</ele>
        <time>2019-05-17T08:44:19.155Z</time>
      </trkpt>
      <trkpt lat="39.235585" lon="-8.67623667">
        <ele>90.0</ele>
        <time>2019-05-17T08:44:20.172Z</time>
      </trkpt>
      <trkpt lat="39.235585" lon="-8.67623667">
        <ele>90.0</ele>
        <time>2019-05-17T08:44:21.153Z</time>
      </trkpt>
      <trkpt lat="39.23558667" lon="-8.67623167">
        <ele>90.0</ele>
        <time>2019-05-17T08:44:22.164Z</time>
      </trkpt>
      <trkpt lat="39.23558667" lon="-8.67623167">
        <ele>90.0</ele>
        <time>2019-05-17T08:44:23.180Z</time>
      </trkpt>
      <trkpt lat="39.23558833" lon="-8.67622833">
        <ele>90.0</ele>
        <time>2019-05-17T08:44:24.164Z</time>
      </trkpt>
      <trkpt lat="39.23558833" lon="-8.67622833">
        <ele>90.0</ele>
        <time>2019-05-17T08:44:25.186Z</time>
      </trkpt>
      <trkpt lat="39.23559" lon="-8.67621">
        <ele>90.0</ele>
        <time>2019-05-17T08:44:26.161Z</time>
      </trkpt>
      <trkpt lat="39.23559" lon="-8.67621">
        <ele>90.0</ele>
        <time>2019-05-17T08:44:27.172Z</time>
      </trkpt>
      <trkpt lat="39.235595" lon="-8.67619833">
        <ele>90.0</ele>
        <time>2019-05-17T08:44:28.151Z</time>
      </trkpt>
      <trkpt lat="39.235595" lon="-8.67619833">
        <ele>90.0</ele>
        <time>2019-05-17T08:44:29.167Z</time>
      </trkpt>
      <trkpt lat="39.23559833" lon="-8.67618667">
        <ele>90.0</ele>
        <time>2019-05-17T08:44:30.180Z</time>
      </trkpt>
      <trkpt lat="39.2356" lon="-8.67618">
        <ele>90.0</ele>
        <time>2019-05-17T08:44:31.165Z</time>
      </trkpt>
      <trkpt lat="39.2356" lon="-8.67618">
        <ele>90.0</ele>
        <time>2019-05-17T08:44:32.182Z</time>
      </trkpt>
      <trkpt lat="39.23560333" lon="-8.676165">
        <ele>90.0</ele>
        <time>2019-05-17T08:44:33.152Z</time>
      </trkpt>
      <trkpt lat="39.23560333" lon="-8.676155">
        <ele>90.0</ele>
        <time>2019-05-17T08:44:34.169Z</time>
      </trkpt>
      <trkpt lat="39.23560333" lon="-8.676155">
        <ele>90.0</ele>
        <time>2019-05-17T08:44:35.188Z</time>
      </trkpt>
      <trkpt lat="39.23560833" lon="-8.676145">
        <ele>90.0</ele>
        <time>2019-05-17T08:44:36.155Z</time>
      </trkpt>
      <trkpt lat="39.23560833" lon="-8.676145">
        <ele>90.0</ele>
        <time>2019-05-17T08:44:37.173Z</time>
      </trkpt>
      <trkpt lat="39.23561" lon="-8.676135">
        <ele>90.0</ele>
        <time>2019-05-17T08:44:38.150Z</time>
      </trkpt>
      <trkpt lat="39.23561" lon="-8.676135">
        <ele>90.0</ele>
        <time>2019-05-17T08:44:39.160Z</time>
      </trkpt>
      <trkpt lat="39.23560833" lon="-8.67612167">
        <ele>90.0</ele>
        <time>2019-05-17T08:44:40.173Z</time>
      </trkpt>
      <trkpt lat="39.23560833" lon="-8.67612167">
        <ele>90.0</ele>
        <time>2019-05-17T08:44:41.180Z</time>
      </trkpt>
      <trkpt lat="39.23560167" lon="-8.67610667">
        <ele>90.0</ele>
        <time>2019-05-17T08:44:42.178Z</time>
      </trkpt>
      <trkpt lat="39.23560167" lon="-8.67610667">
        <ele>90.0</ele>
        <time>2019-05-17T08:44:43.179Z</time>
      </trkpt>
      <trkpt lat="39.235595" lon="-8.67609167">
        <ele>89.0</ele>
        <time>2019-05-17T08:44:44.151Z</time>
      </trkpt>
      <trkpt lat="39.235595" lon="-8.67609167">
        <ele>89.0</ele>
        <time>2019-05-17T08:44:45.173Z</time>
      </trkpt>
      <trkpt lat="39.23559167" lon="-8.676075">
        <ele>89.0</ele>
        <time>2019-05-17T08:44:46.187Z</time>
      </trkpt>
      <trkpt lat="39.23559167" lon="-8.676075">
        <ele>89.0</ele>
        <time>2019-05-17T08:44:47.159Z</time>
      </trkpt>
      <trkpt lat="39.23558833" lon="-8.67605833">
        <ele>89.0</ele>
        <time>2019-05-17T08:44:48.164Z</time>
      </trkpt>
      <trkpt lat="39.23558833" lon="-8.67605833">
        <ele>89.0</ele>
        <time>2019-05-17T08:44:49.188Z</time>
      </trkpt>
      <trkpt lat="39.23558333" lon="-8.676045">
        <ele>89.0</ele>
        <time>2019-05-17T08:44:50.157Z</time>
      </trkpt>
      <trkpt lat="39.23558333" lon="-8.676045">
        <ele>89.0</ele>
        <time>2019-05-17T08:44:51.159Z</time>
      </trkpt>
      <trkpt lat="39.23558" lon="-8.67603667">
        <ele>89.0</ele>
        <time>2019-05-17T08:44:52.166Z</time>
      </trkpt>
      <trkpt lat="39.23557833" lon="-8.67603">
        <ele>88.0</ele>
        <time>2019-05-17T08:44:53.172Z</time>
      </trkpt>
      <trkpt lat="39.23557833" lon="-8.67602333">
        <ele>88.0</ele>
        <time>2019-05-17T08:44:54.152Z</time>
      </trkpt>
      <trkpt lat="39.23557833" lon="-8.67602333">
        <ele>88.0</ele>
        <time>2019-05-17T08:44:55.160Z</time>
      </trkpt>
      <trkpt lat="39.23557833" lon="-8.67601">
        <ele>88.0</ele>
        <time>2019-05-17T08:44:56.172Z</time>
      </trkpt>
      <trkpt lat="39.23557833" lon="-8.67601">
        <ele>88.0</ele>
        <time>2019-05-17T08:44:57.152Z</time>
      </trkpt>
      <trkpt lat="39.235575" lon="-8.67600167">
        <ele>88.0</ele>
        <time>2019-05-17T08:44:58.162Z</time>
      </trkpt>
      <trkpt lat="39.235575" lon="-8.67600167">
        <ele>88.0</ele>
        <time>2019-05-17T08:44:59.170Z</time>
      </trkpt>
      <trkpt lat="39.23557667" lon="-8.67599167">
        <ele>88.0</ele>
        <time>2019-05-17T08:45:00.179Z</time>
      </trkpt>
      <trkpt lat="39.23557667" lon="-8.67599167">
        <ele>88.0</ele>
        <time>2019-05-17T08:45:01.165Z</time>
      </trkpt>
      <trkpt lat="39.23557667" lon="-8.67597833">
        <ele>88.0</ele>
        <time>2019-05-17T08:45:02.160Z</time>
      </trkpt>
      <trkpt lat="39.23557667" lon="-8.67597167">
        <ele>88.0</ele>
        <time>2019-05-17T08:45:03.150Z</time>
      </trkpt>
      <trkpt lat="39.23557667" lon="-8.67597167">
        <ele>88.0</ele>
        <time>2019-05-17T08:45:04.162Z</time>
      </trkpt>
      <trkpt lat="39.235575" lon="-8.67596">
        <ele>87.0</ele>
        <time>2019-05-17T08:45:05.175Z</time>
      </trkpt>
      <trkpt lat="39.23557333" lon="-8.675955">
        <ele>87.0</ele>
        <time>2019-05-17T08:45:06.153Z</time>
      </trkpt>
      <trkpt lat="39.23557333" lon="-8.675955">
        <ele>87.0</ele>
        <time>2019-05-17T08:45:07.161Z</time>
      </trkpt>
      <trkpt lat="39.23557333" lon="-8.67595167">
        <ele>87.0</ele>
        <time>2019-05-17T08:45:08.176Z</time>
      </trkpt>
      <trkpt lat="39.23557333" lon="-8.67595167">
        <ele>87.0</ele>
        <time>2019-05-17T08:45:09.154Z</time>
      </trkpt>
      <trkpt lat="39.23557167" lon="-8.67595">
        <ele>87.0</ele>
        <time>2019-05-17T08:45:10.182Z</time>
      </trkpt>
      <trkpt lat="39.23557167" lon="-8.67595">
        <ele>87.0</ele>
        <time>2019-05-17T08:45:11.156Z</time>
      </trkpt>
      <trkpt lat="39.23557167" lon="-8.67595">
        <ele>87.0</ele>
        <time>2019-05-17T08:45:12.172Z</time>
      </trkpt>
      <trkpt lat="39.23557167" lon="-8.67595">
        <ele>87.0</ele>
        <time>2019-05-17T08:45:13.169Z</time>
      </trkpt>
      <trkpt lat="39.23557667" lon="-8.67592">
        <ele>87.0</ele>
        <time>2019-05-17T08:45:14.175Z</time>
      </trkpt>
      <trkpt lat="39.23557667" lon="-8.67592">
        <ele>87.0</ele>
        <time>2019-05-17T08:45:15.181Z</time>
      </trkpt>
      <trkpt lat="39.235575" lon="-8.67591">
        <ele>86.0</ele>
        <time>2019-05-17T08:45:16.152Z</time>
      </trkpt>
      <trkpt lat="39.235575" lon="-8.67591">
        <ele>86.0</ele>
        <time>2019-05-17T08:45:17.158Z</time>
      </trkpt>
      <trkpt lat="39.23557667" lon="-8.67590667">
        <ele>86.0</ele>
        <time>2019-05-17T08:45:18.172Z</time>
      </trkpt>
      <trkpt lat="39.23557667" lon="-8.67590667">
        <ele>86.0</ele>
        <time>2019-05-17T08:45:19.150Z</time>
      </trkpt>
      <trkpt lat="39.23557667" lon="-8.67590667">
        <ele>86.0</ele>
        <time>2019-05-17T08:45:20.164Z</time>
      </trkpt>
      <trkpt lat="39.23557667" lon="-8.67590667">
        <ele>86.0</ele>
        <time>2019-05-17T08:45:21.187Z</time>
      </trkpt>
      <trkpt lat="39.23557667" lon="-8.67590667">
        <ele>86.0</ele>
        <time>2019-05-17T08:45:22.167Z</time>
      </trkpt>
      <trkpt lat="39.23557667" lon="-8.67590667">
        <ele>86.0</ele>
        <time>2019-05-17T08:45:23.173Z</time>
      </trkpt>
      <trkpt lat="39.23556667" lon="-8.67585333">
        <ele>86.0</ele>
        <time>2019-05-17T08:45:24.187Z</time>
      </trkpt>
      <trkpt lat="39.23556667" lon="-8.67585333">
        <ele>86.0</ele>
        <time>2019-05-17T08:45:25.170Z</time>
      </trkpt>
      <trkpt lat="39.23556333" lon="-8.67584">
        <ele>85.0</ele>
        <time>2019-05-17T08:45:26.179Z</time>
      </trkpt>
      <trkpt lat="39.23556333" lon="-8.67584">
        <ele>85.0</ele>
        <time>2019-05-17T08:45:27.168Z</time>
      </trkpt>
      <trkpt lat="39.23555667" lon="-8.67582333">
        <ele>85.0</ele>
        <time>2019-05-17T08:45:28.180Z</time>
      </trkpt>
      <trkpt lat="39.23555667" lon="-8.67582333">
        <ele>85.0</ele>
        <time>2019-05-17T08:45:29.168Z</time>
      </trkpt>
      <trkpt lat="39.23555" lon="-8.67580833">
        <ele>85.0</ele>
        <time>2019-05-17T08:45:30.178Z</time>
      </trkpt>
      <trkpt lat="39.23555" lon="-8.67580833">
        <ele>85.0</ele>
        <time>2019-05-17T08:45:31.157Z</time>
      </trkpt>
      <trkpt lat="39.23554833" lon="-8.67580167">
        <ele>85.0</ele>
        <time>2019-05-17T08:45:32.182Z</time>
      </trkpt>
      <trkpt lat="39.23554833" lon="-8.67580167">
        <ele>85.0</ele>
        <time>2019-05-17T08:45:33.175Z</time>
      </trkpt>
      <trkpt lat="39.23554833" lon="-8.67580167">
        <ele>85.0</ele>
        <time>2019-05-17T08:45:34.185Z</time>
      </trkpt>
      <trkpt lat="39.23554833" lon="-8.67580167">
        <ele>85.0</ele>
        <time>2019-05-17T08:45:35.163Z</time>
      </trkpt>
      <trkpt lat="39.23554833" lon="-8.67580167">
        <ele>85.0</ele>
        <time>2019-05-17T08:45:36.169Z</time>
      </trkpt>
      <trkpt lat="39.23554833" lon="-8.67580167">
        <ele>85.0</ele>
        <time>2019-05-17T08:45:37.175Z</time>
      </trkpt>
      <trkpt lat="39.23554833" lon="-8.67580167">
        <ele>85.0</ele>
        <time>2019-05-17T08:45:38.185Z</time>
      </trkpt>
      <trkpt lat="39.23554833" lon="-8.67580167">
        <ele>85.0</ele>
        <time>2019-05-17T08:45:39.176Z</time>
      </trkpt>
      <trkpt lat="39.23554833" lon="-8.67580167">
        <ele>85.0</ele>
        <time>2019-05-17T08:45:40.165Z</time>
      </trkpt>
      <trkpt lat="39.23550833" lon="-8.67573667">
        <ele>83.0</ele>
        <time>2019-05-17T08:45:41.182Z</time>
      </trkpt>
      <trkpt lat="39.23550333" lon="-8.67573">
        <ele>83.0</ele>
        <time>2019-05-17T08:45:42.181Z</time>
      </trkpt>
      <trkpt lat="39.2355" lon="-8.67572333">
        <ele>83.0</ele>
        <time>2019-05-17T08:45:43.164Z</time>
      </trkpt>
      <trkpt lat="39.2355" lon="-8.67572333">
        <ele>83.0</ele>
        <time>2019-05-17T08:45:44.178Z</time>
      </trkpt>
      <trkpt lat="39.23549" lon="-8.67570833">
        <ele>83.0</ele>
        <time>2019-05-17T08:45:45.184Z</time>
      </trkpt>
      <trkpt lat="39.23548833" lon="-8.67570333">
        <ele>83.0</ele>
        <time>2019-05-17T08:45:46.163Z</time>
      </trkpt>
      <trkpt lat="39.23548833" lon="-8.67570333">
        <ele>83.0</ele>
        <time>2019-05-17T08:45:47.151Z</time>
      </trkpt>
      <trkpt lat="39.23548167" lon="-8.67569833">
        <ele>82.0</ele>
        <time>2019-05-17T08:45:48.165Z</time>
      </trkpt>
      <trkpt lat="39.23548167" lon="-8.67569833">
        <ele>82.0</ele>
        <time>2019-05-17T08:45:49.181Z</time>
      </trkpt>
      <trkpt lat="39.23548167" lon="-8.67569833">
        <ele>82.0</ele>
        <time>2019-05-17T08:45:50.194Z</time>
      </trkpt>
      <trkpt lat="39.23548167" lon="-8.67569833">
        <ele>82.0</ele>
        <time>2019-05-17T08:45:51.160Z</time>
      </trkpt>
      <trkpt lat="39.23548167" lon="-8.67569833">
        <ele>82.0</ele>
        <time>2019-05-17T08:45:52.165Z</time>
      </trkpt>
      <trkpt lat="39.23548167" lon="-8.67569833">
        <ele>82.0</ele>
        <time>2019-05-17T08:45:53.184Z</time>
      </trkpt>
      <trkpt lat="39.23548167" lon="-8.67569833">
        <ele>82.0</ele>
        <time>2019-05-17T08:45:54.171Z</time>
      </trkpt>
      <trkpt lat="39.23548167" lon="-8.67569833">
        <ele>82.0</ele>
        <time>2019-05-17T08:45:55.168Z</time>
      </trkpt>
      <trkpt lat="39.23548167" lon="-8.67569833">
        <ele>82.0</ele>
        <time>2019-05-17T08:45:56.162Z</time>
      </trkpt>
      <trkpt lat="39.23548167" lon="-8.67569833">
        <ele>82.0</ele>
        <time>2019-05-17T08:45:57.169Z</time>
      </trkpt>
      <trkpt lat="39.23548167" lon="-8.67569833">
        <ele>82.0</ele>
        <time>2019-05-17T08:45:58.166Z</time>
      </trkpt>
      <trkpt lat="39.23548167" lon="-8.67569833">
        <ele>82.0</ele>
        <time>2019-05-17T08:45:59.166Z</time>
      </trkpt>
      <trkpt lat="39.23548167" lon="-8.67569833">
        <ele>82.0</ele>
        <time>2019-05-17T08:46:00.188Z</time>
      </trkpt>
      <trkpt lat="39.23548167" lon="-8.67569833">
        <ele>82.0</ele>
        <time>2019-05-17T08:46:01.169Z</time>
      </trkpt>
      <trkpt lat="39.23548167" lon="-8.67569833">
        <ele>82.0</ele>
        <time>2019-05-17T08:46:02.168Z</time>
      </trkpt>
      <trkpt lat="39.23548167" lon="-8.67569833">
        <ele>82.0</ele>
        <time>2019-05-17T08:46:03.165Z</time>
      </trkpt>
      <trkpt lat="39.23548167" lon="-8.67569833">
        <ele>82.0</ele>
        <time>2019-05-17T08:46:04.165Z</time>
      </trkpt>
      <trkpt lat="39.23548167" lon="-8.67569833">
        <ele>82.0</ele>
        <time>2019-05-17T08:46:05.168Z</time>
      </trkpt>
      <trkpt lat="39.23548167" lon="-8.67569833">
        <ele>82.0</ele>
        <time>2019-05-17T08:46:06.163Z</time>
      </trkpt>
      <trkpt lat="39.23548167" lon="-8.67569833">
        <ele>82.0</ele>
        <time>2019-05-17T08:46:07.168Z</time>
      </trkpt>
      <trkpt lat="39.23548167" lon="-8.67569833">
        <ele>82.0</ele>
        <time>2019-05-17T08:46:08.162Z</time>
      </trkpt>
      <trkpt lat="39.23548167" lon="-8.67569833">
        <ele>82.0</ele>
        <time>2019-05-17T08:46:09.169Z</time>
      </trkpt>
      <trkpt lat="39.23548167" lon="-8.67569833">
        <ele>82.0</ele>
        <time>2019-05-17T08:46:10.167Z</time>
      </trkpt>
      <trkpt lat="39.23548167" lon="-8.67569833">
        <ele>82.0</ele>
        <time>2019-05-17T08:46:11.187Z</time>
      </trkpt>
      <trkpt lat="39.23548167" lon="-8.67569833">
        <ele>82.0</ele>
        <time>2019-05-17T08:46:12.172Z</time>
      </trkpt>
      <trkpt lat="39.23548167" lon="-8.67569833">
        <ele>82.0</ele>
        <time>2019-05-17T08:46:13.163Z</time>
      </trkpt>
      <trkpt lat="39.23548167" lon="-8.67569833">
        <ele>82.0</ele>
        <time>2019-05-17T08:46:14.168Z</time>
      </trkpt>
      <trkpt lat="39.23548167" lon="-8.67569833">
        <ele>82.0</ele>
        <time>2019-05-17T08:46:15.163Z</time>
      </trkpt>
      <trkpt lat="39.23548167" lon="-8.67569833">
        <ele>82.0</ele>
        <time>2019-05-17T08:46:16.167Z</time>
      </trkpt>
      <trkpt lat="39.23548167" lon="-8.67569833">
        <ele>82.0</ele>
        <time>2019-05-17T08:46:17.162Z</time>
      </trkpt>
      <trkpt lat="39.23548167" lon="-8.67569833">
        <ele>82.0</ele>
        <time>2019-05-17T08:46:18.169Z</time>
      </trkpt>
      <trkpt lat="39.23548167" lon="-8.67569833">
        <ele>82.0</ele>
        <time>2019-05-17T08:46:19.162Z</time>
      </trkpt>
      <trkpt lat="39.23548167" lon="-8.67569833">
        <ele>82.0</ele>
        <time>2019-05-17T08:46:20.188Z</time>
      </trkpt>
      <trkpt lat="39.23548167" lon="-8.67569833">
        <ele>82.0</ele>
        <time>2019-05-17T08:46:21.174Z</time>
      </trkpt>
      <trkpt lat="39.23548167" lon="-8.67569833">
        <ele>82.0</ele>
        <time>2019-05-17T08:46:22.162Z</time>
      </trkpt>
      <trkpt lat="39.23548167" lon="-8.67569833">
        <ele>82.0</ele>
        <time>2019-05-17T08:46:23.165Z</time>
      </trkpt>
      <trkpt lat="39.23548167" lon="-8.67569833">
        <ele>82.0</ele>
        <time>2019-05-17T08:46:24.184Z</time>
      </trkpt>
      <trkpt lat="39.23548167" lon="-8.67569833">
        <ele>82.0</ele>
        <time>2019-05-17T08:46:25.169Z</time>
      </trkpt>
      <trkpt lat="39.23548167" lon="-8.67569833">
        <ele>82.0</ele>
        <time>2019-05-17T08:46:26.168Z</time>
      </trkpt>
      <trkpt lat="39.23548167" lon="-8.67569833">
        <ele>82.0</ele>
        <time>2019-05-17T08:46:27.186Z</time>
      </trkpt>
      <trkpt lat="39.23548167" lon="-8.67569833">
        <ele>82.0</ele>
        <time>2019-05-17T08:46:28.174Z</time>
      </trkpt>
      <trkpt lat="39.23548167" lon="-8.67569833">
        <ele>82.0</ele>
        <time>2019-05-17T08:46:29.165Z</time>
      </trkpt>
      <trkpt lat="39.23548167" lon="-8.67569833">
        <ele>82.0</ele>
        <time>2019-05-17T08:46:30.170Z</time>
      </trkpt>
      <trkpt lat="39.23548167" lon="-8.67569833">
        <ele>82.0</ele>
        <time>2019-05-17T08:46:31.163Z</time>
      </trkpt>
      <trkpt lat="39.23548167" lon="-8.67569833">
        <ele>82.0</ele>
        <time>2019-05-17T08:46:32.168Z</time>
      </trkpt>
      <trkpt lat="39.23548167" lon="-8.67569833">
        <ele>82.0</ele>
        <time>2019-05-17T08:46:33.162Z</time>
      </trkpt>
      <trkpt lat="39.23548167" lon="-8.67569833">
        <ele>82.0</ele>
        <time>2019-05-17T08:46:34.189Z</time>
      </trkpt>
      <trkpt lat="39.23548167" lon="-8.67569833">
        <ele>82.0</ele>
        <time>2019-05-17T08:46:35.174Z</time>
      </trkpt>
      <trkpt lat="39.23548167" lon="-8.67569833">
        <ele>82.0</ele>
        <time>2019-05-17T08:46:36.164Z</time>
      </trkpt>
      <trkpt lat="39.23548167" lon="-8.67569833">
        <ele>82.0</ele>
        <time>2019-05-17T08:46:37.170Z</time>
      </trkpt>
      <trkpt lat="39.23548167" lon="-8.67569833">
        <ele>82.0</ele>
        <time>2019-05-17T08:46:38.159Z</time>
      </trkpt>
      <trkpt lat="39.23548167" lon="-8.67569833">
        <ele>82.0</ele>
        <time>2019-05-17T08:46:39.168Z</time>
      </trkpt>
      <trkpt lat="39.23548167" lon="-8.67569833">
        <ele>82.0</ele>
        <time>2019-05-17T08:46:40.166Z</time>
      </trkpt>
      <trkpt lat="39.23548167" lon="-8.67569833">
        <ele>82.0</ele>
        <time>2019-05-17T08:46:41.168Z</time>
      </trkpt>
      <trkpt lat="39.23548167" lon="-8.67569833">
        <ele>82.0</ele>
        <time>2019-05-17T08:46:42.170Z</time>
      </trkpt>
      <trkpt lat="39.23548167" lon="-8.67569833">
        <ele>82.0</ele>
        <time>2019-05-17T08:46:43.163Z</time>
      </trkpt>
      <trkpt lat="39.23548167" lon="-8.67569833">
        <ele>82.0</ele>
        <time>2019-05-17T08:46:44.167Z</time>
      </trkpt>
      <trkpt lat="39.23548167" lon="-8.67569833">
        <ele>82.0</ele>
        <time>2019-05-17T08:46:45.163Z</time>
      </trkpt>
      <trkpt lat="39.23548167" lon="-8.67569833">
        <ele>82.0</ele>
        <time>2019-05-17T08:46:46.165Z</time>
      </trkpt>
      <trkpt lat="39.23548167" lon="-8.67569833">
        <ele>82.0</ele>
        <time>2019-05-17T08:46:47.163Z</time>
      </trkpt>
      <trkpt lat="39.23548167" lon="-8.67569833">
        <ele>82.0</ele>
        <time>2019-05-17T08:46:48.170Z</time>
      </trkpt>
      <trkpt lat="39.23548167" lon="-8.67569833">
        <ele>82.0</ele>
        <time>2019-05-17T08:46:49.163Z</time>
      </trkpt>
      <trkpt lat="39.23548167" lon="-8.67569833">
        <ele>82.0</ele>
        <time>2019-05-17T08:46:50.159Z</time>
      </trkpt>
      <trkpt lat="39.23548167" lon="-8.67569833">
        <ele>82.0</ele>
        <time>2019-05-17T08:46:51.167Z</time>
      </trkpt>
      <trkpt lat="39.23548167" lon="-8.67569833">
        <ele>82.0</ele>
        <time>2019-05-17T08:46:52.163Z</time>
      </trkpt>
      <trkpt lat="39.23548167" lon="-8.67569833">
        <ele>82.0</ele>
        <time>2019-05-17T08:46:53.168Z</time>
      </trkpt>
      <trkpt lat="39.23548167" lon="-8.67569833">
        <ele>82.0</ele>
        <time>2019-05-17T08:46:54.187Z</time>
      </trkpt>
      <trkpt lat="39.23548167" lon="-8.67569833">
        <ele>82.0</ele>
        <time>2019-05-17T08:46:55.180Z</time>
      </trkpt>
      <trkpt lat="39.23548167" lon="-8.67569833">
        <ele>82.0</ele>
        <time>2019-05-17T08:46:56.168Z</time>
      </trkpt>
      <trkpt lat="39.23548167" lon="-8.67569833">
        <ele>82.0</ele>
        <time>2019-05-17T08:46:57.162Z</time>
      </trkpt>
      <trkpt lat="39.23548167" lon="-8.67569833">
        <ele>82.0</ele>
        <time>2019-05-17T08:46:58.165Z</time>
      </trkpt>
      <trkpt lat="39.23548167" lon="-8.67569833">
        <ele>82.0</ele>
        <time>2019-05-17T08:46:59.165Z</time>
      </trkpt>
      <trkpt lat="39.23548167" lon="-8.67569833">
        <ele>82.0</ele>
        <time>2019-05-17T08:47:00.164Z</time>
      </trkpt>
      <trkpt lat="39.23548167" lon="-8.67569833">
        <ele>82.0</ele>
        <time>2019-05-17T08:47:01.170Z</time>
      </trkpt>
      <trkpt lat="39.23548167" lon="-8.67569833">
        <ele>82.0</ele>
        <time>2019-05-17T08:47:02.162Z</time>
      </trkpt>
      <trkpt lat="39.23548167" lon="-8.67569833">
        <ele>82.0</ele>
        <time>2019-05-17T08:47:03.170Z</time>
      </trkpt>
      <trkpt lat="39.23548167" lon="-8.67569833">
        <ele>82.0</ele>
        <time>2019-05-17T08:47:04.167Z</time>
      </trkpt>
      <trkpt lat="39.23548167" lon="-8.67569833">
        <ele>82.0</ele>
        <time>2019-05-17T08:47:05.182Z</time>
      </trkpt>
      <trkpt lat="39.23548167" lon="-8.67569833">
        <ele>82.0</ele>
        <time>2019-05-17T08:47:06.170Z</time>
      </trkpt>
      <trkpt lat="39.23548167" lon="-8.67569833">
        <ele>82.0</ele>
        <time>2019-05-17T08:47:07.162Z</time>
      </trkpt>
      <trkpt lat="39.23548167" lon="-8.67569833">
        <ele>82.0</ele>
        <time>2019-05-17T08:47:08.170Z</time>
      </trkpt>
      <trkpt lat="39.23548167" lon="-8.67569833">
        <ele>82.0</ele>
        <time>2019-05-17T08:47:09.170Z</time>
      </trkpt>
      <trkpt lat="39.23548167" lon="-8.67569833">
        <ele>82.0</ele>
        <time>2019-05-17T08:47:10.174Z</time>
      </trkpt>
      <trkpt lat="39.23548167" lon="-8.67569833">
        <ele>82.0</ele>
        <time>2019-05-17T08:47:11.168Z</time>
      </trkpt>
      <trkpt lat="39.23548167" lon="-8.67569833">
        <ele>82.0</ele>
        <time>2019-05-17T08:47:12.165Z</time>
      </trkpt>
      <trkpt lat="39.23548167" lon="-8.67569833">
        <ele>82.0</ele>
        <time>2019-05-17T08:47:13.167Z</time>
      </trkpt>
      <trkpt lat="39.23548167" lon="-8.67569833">
        <ele>82.0</ele>
        <time>2019-05-17T08:47:14.165Z</time>
      </trkpt>
      <trkpt lat="39.23548167" lon="-8.67569833">
        <ele>82.0</ele>
        <time>2019-05-17T08:47:15.168Z</time>
      </trkpt>
      <trkpt lat="39.23548167" lon="-8.67569833">
        <ele>82.0</ele>
        <time>2019-05-17T08:47:16.176Z</time>
      </trkpt>
      <trkpt lat="39.23543333" lon="-8.67561667">
        <ele>77.0</ele>
        <time>2019-05-17T08:47:17.168Z</time>
      </trkpt>
      <trkpt lat="39.23543167" lon="-8.67561167">
        <ele>77.0</ele>
        <time>2019-05-17T08:47:18.173Z</time>
      </trkpt>
      <trkpt lat="39.23543167" lon="-8.67561167">
        <ele>77.0</ele>
        <time>2019-05-17T08:47:19.187Z</time>
      </trkpt>
      <trkpt lat="39.235425" lon="-8.67560167">
        <ele>77.0</ele>
        <time>2019-05-17T08:47:20.161Z</time>
      </trkpt>
      <trkpt lat="39.235425" lon="-8.67560167">
        <ele>77.0</ele>
        <time>2019-05-17T08:47:21.172Z</time>
      </trkpt>
      <trkpt lat="39.235415" lon="-8.67559167">
        <ele>76.0</ele>
        <time>2019-05-17T08:47:22.184Z</time>
      </trkpt>
      <trkpt lat="39.23541333" lon="-8.67558667">
        <ele>76.0</ele>
        <time>2019-05-17T08:47:23.166Z</time>
      </trkpt>
      <trkpt lat="39.23541" lon="-8.67558">
        <ele>76.0</ele>
        <time>2019-05-17T08:47:24.154Z</time>
      </trkpt>
      <trkpt lat="39.23541" lon="-8.67558">
        <ele>76.0</ele>
        <time>2019-05-17T08:47:25.169Z</time>
      </trkpt>
      <trkpt lat="39.2354" lon="-8.67556667">
        <ele>76.0</ele>
        <time>2019-05-17T08:47:26.179Z</time>
      </trkpt>
      <trkpt lat="39.2354" lon="-8.67556667">
        <ele>76.0</ele>
        <time>2019-05-17T08:47:27.151Z</time>
      </trkpt>
      <trkpt lat="39.235395" lon="-8.67555333">
        <ele>76.0</ele>
        <time>2019-05-17T08:47:28.183Z</time>
      </trkpt>
      <trkpt lat="39.235395" lon="-8.67555333">
        <ele>76.0</ele>
        <time>2019-05-17T08:47:29.167Z</time>
      </trkpt>
      <trkpt lat="39.23538667" lon="-8.67554">
        <ele>75.0</ele>
        <time>2019-05-17T08:47:30.170Z</time>
      </trkpt>
      <trkpt lat="39.23538667" lon="-8.67554">
        <ele>75.0</ele>
        <time>2019-05-17T08:47:31.167Z</time>
      </trkpt>
      <trkpt lat="39.235375" lon="-8.67552833">
        <ele>75.0</ele>
        <time>2019-05-17T08:47:32.165Z</time>
      </trkpt>
      <trkpt lat="39.235375" lon="-8.67552833">
        <ele>75.0</ele>
        <time>2019-05-17T08:47:33.181Z</time>
      </trkpt>
      <trkpt lat="39.235365" lon="-8.67551667">
        <ele>75.0</ele>
        <time>2019-05-17T08:47:34.189Z</time>
      </trkpt>
      <trkpt lat="39.235365" lon="-8.67551667">
        <ele>75.0</ele>
        <time>2019-05-17T08:47:35.157Z</time>
      </trkpt>
      <trkpt lat="39.23535167" lon="-8.67550833">
        <ele>74.0</ele>
        <time>2019-05-17T08:47:36.170Z</time>
      </trkpt>
      <trkpt lat="39.23535167" lon="-8.67550833">
        <ele>74.0</ele>
        <time>2019-05-17T08:47:37.184Z</time>
      </trkpt>
      <trkpt lat="39.23534" lon="-8.67549667">
        <ele>74.0</ele>
        <time>2019-05-17T08:47:38.186Z</time>
      </trkpt>
      <trkpt lat="39.23534" lon="-8.67549667">
        <ele>74.0</ele>
        <time>2019-05-17T08:47:39.188Z</time>
      </trkpt>
      <trkpt lat="39.23533167" lon="-8.67548833">
        <ele>74.0</ele>
        <time>2019-05-17T08:47:40.163Z</time>
      </trkpt>
      <trkpt lat="39.23532667" lon="-8.67548167">
        <ele>74.0</ele>
        <time>2019-05-17T08:47:41.187Z</time>
      </trkpt>
      <trkpt lat="39.23532667" lon="-8.67548167">
        <ele>74.0</ele>
        <time>2019-05-17T08:47:42.166Z</time>
      </trkpt>
      <trkpt lat="39.235315" lon="-8.67547">
        <ele>73.0</ele>
        <time>2019-05-17T08:47:43.180Z</time>
      </trkpt>
      <trkpt lat="39.235315" lon="-8.67547">
        <ele>73.0</ele>
        <time>2019-05-17T08:47:44.155Z</time>
      </trkpt>
      <trkpt lat="39.235305" lon="-8.67546167">
        <ele>73.0</ele>
        <time>2019-05-17T08:47:45.177Z</time>
      </trkpt>
      <trkpt lat="39.23529833" lon="-8.67546">
        <ele>73.0</ele>
        <time>2019-05-17T08:47:46.159Z</time>
      </trkpt>
      <trkpt lat="39.23529833" lon="-8.67546">
        <ele>73.0</ele>
        <time>2019-05-17T08:47:47.167Z</time>
      </trkpt>
      <trkpt lat="39.23529" lon="-8.67545667">
        <ele>73.0</ele>
        <time>2019-05-17T08:47:48.178Z</time>
      </trkpt>
      <trkpt lat="39.23529" lon="-8.67545667">
        <ele>73.0</ele>
        <time>2019-05-17T08:47:49.186Z</time>
      </trkpt>
      <trkpt lat="39.23527667" lon="-8.67544167">
        <ele>72.0</ele>
        <time>2019-05-17T08:47:50.166Z</time>
      </trkpt>
      <trkpt lat="39.23527667" lon="-8.67544167">
        <ele>72.0</ele>
        <time>2019-05-17T08:47:51.188Z</time>
      </trkpt>
      <trkpt lat="39.23526333" lon="-8.67542833">
        <ele>72.0</ele>
        <time>2019-05-17T08:47:52.158Z</time>
      </trkpt>
      <trkpt lat="39.23525833" lon="-8.67542333">
        <ele>72.0</ele>
        <time>2019-05-17T08:47:53.172Z</time>
      </trkpt>
      <trkpt lat="39.23525333" lon="-8.67541667">
        <ele>72.0</ele>
        <time>2019-05-17T08:47:54.186Z</time>
      </trkpt>
      <trkpt lat="39.23524833" lon="-8.67540833">
        <ele>72.0</ele>
        <time>2019-05-17T08:47:55.186Z</time>
      </trkpt>
      <trkpt lat="39.23524833" lon="-8.67540833">
        <ele>72.0</ele>
        <time>2019-05-17T08:47:56.154Z</time>
      </trkpt>
      <trkpt lat="39.23523833" lon="-8.67539833">
        <ele>71.0</ele>
        <time>2019-05-17T08:47:57.166Z</time>
      </trkpt>
      <trkpt lat="39.23523833" lon="-8.67539833">
        <ele>71.0</ele>
        <time>2019-05-17T08:47:58.182Z</time>
      </trkpt>
      <trkpt lat="39.23522833" lon="-8.67538667">
        <ele>71.0</ele>
        <time>2019-05-17T08:47:59.150Z</time>
      </trkpt>
      <trkpt lat="39.235225" lon="-8.675385">
        <ele>71.0</ele>
        <time>2019-05-17T08:48:00.180Z</time>
      </trkpt>
      <trkpt lat="39.235225" lon="-8.675385">
        <ele>71.0</ele>
        <time>2019-05-17T08:48:01.164Z</time>
      </trkpt>
      <trkpt lat="39.235215" lon="-8.67538">
        <ele>71.0</ele>
        <time>2019-05-17T08:48:02.183Z</time>
      </trkpt>
      <trkpt lat="39.235215" lon="-8.67538">
        <ele>71.0</ele>
        <time>2019-05-17T08:48:03.159Z</time>
      </trkpt>
      <trkpt lat="39.23520167" lon="-8.67536667">
        <ele>71.0</ele>
        <time>2019-05-17T08:48:04.191Z</time>
      </trkpt>
      <trkpt lat="39.23520167" lon="-8.67536667">
        <ele>71.0</ele>
        <time>2019-05-17T08:48:05.161Z</time>
      </trkpt>
      <trkpt lat="39.23518667" lon="-8.67535333">
        <ele>70.0</ele>
        <time>2019-05-17T08:48:06.177Z</time>
      </trkpt>
      <trkpt lat="39.23518667" lon="-8.67535333">
        <ele>70.0</ele>
        <time>2019-05-17T08:48:07.188Z</time>
      </trkpt>
      <trkpt lat="39.23517667" lon="-8.67534167">
        <ele>70.0</ele>
        <time>2019-05-17T08:48:08.171Z</time>
      </trkpt>
      <trkpt lat="39.23517667" lon="-8.67534167">
        <ele>70.0</ele>
        <time>2019-05-17T08:48:09.171Z</time>
      </trkpt>
      <trkpt lat="39.23516833" lon="-8.67532833">
        <ele>70.0</ele>
        <time>2019-05-17T08:48:10.183Z</time>
      </trkpt>
      <trkpt lat="39.23516833" lon="-8.67532833">
        <ele>70.0</ele>
        <time>2019-05-17T08:48:11.165Z</time>
      </trkpt>
      <trkpt lat="39.23516333" lon="-8.67531333">
        <ele>69.0</ele>
        <time>2019-05-17T08:48:12.179Z</time>
      </trkpt>
      <trkpt lat="39.23516333" lon="-8.67531333">
        <ele>69.0</ele>
        <time>2019-05-17T08:48:13.168Z</time>
      </trkpt>
      <trkpt lat="39.23515667" lon="-8.67529833">
        <ele>69.0</ele>
        <time>2019-05-17T08:48:14.178Z</time>
      </trkpt>
      <trkpt lat="39.235155" lon="-8.67529167">
        <ele>69.0</ele>
        <time>2019-05-17T08:48:15.159Z</time>
      </trkpt>
      <trkpt lat="39.235155" lon="-8.67529167">
        <ele>69.0</ele>
        <time>2019-05-17T08:48:16.173Z</time>
      </trkpt>
      <trkpt lat="39.235145" lon="-8.67527833">
        <ele>68.0</ele>
        <time>2019-05-17T08:48:17.187Z</time>
      </trkpt>
      <trkpt lat="39.23514167" lon="-8.67527333">
        <ele>68.0</ele>
        <time>2019-05-17T08:48:18.174Z</time>
      </trkpt>
      <trkpt lat="39.23514167" lon="-8.67527333">
        <ele>68.0</ele>
        <time>2019-05-17T08:48:19.185Z</time>
      </trkpt>
      <trkpt lat="39.235135" lon="-8.67525833">
        <ele>68.0</ele>
        <time>2019-05-17T08:48:20.165Z</time>
      </trkpt>
      <trkpt lat="39.235135" lon="-8.67525833">
        <ele>68.0</ele>
        <time>2019-05-17T08:48:21.179Z</time>
      </trkpt>
      <trkpt lat="39.23513" lon="-8.67524833">
        <ele>68.0</ele>
        <time>2019-05-17T08:48:22.190Z</time>
      </trkpt>
      <trkpt lat="39.23513" lon="-8.67524833">
        <ele>68.0</ele>
        <time>2019-05-17T08:48:23.184Z</time>
      </trkpt>
      <trkpt lat="39.23511833" lon="-8.67523667">
        <ele>67.0</ele>
        <time>2019-05-17T08:48:24.189Z</time>
      </trkpt>
      <trkpt lat="39.23511833" lon="-8.67523667">
        <ele>67.0</ele>
        <time>2019-05-17T08:48:25.154Z</time>
      </trkpt>
      <trkpt lat="39.23511167" lon="-8.675225">
        <ele>67.0</ele>
        <time>2019-05-17T08:48:26.163Z</time>
      </trkpt>
      <trkpt lat="39.23511167" lon="-8.675225">
        <ele>67.0</ele>
        <time>2019-05-17T08:48:27.177Z</time>
      </trkpt>
      <trkpt lat="39.235105" lon="-8.67521667">
        <ele>66.0</ele>
        <time>2019-05-17T08:48:28.154Z</time>
      </trkpt>
      <trkpt lat="39.235105" lon="-8.67521667">
        <ele>66.0</ele>
        <time>2019-05-17T08:48:29.171Z</time>
      </trkpt>
      <trkpt lat="39.23509833" lon="-8.67520333">
        <ele>66.0</ele>
        <time>2019-05-17T08:48:30.164Z</time>
      </trkpt>
      <trkpt lat="39.23509833" lon="-8.67520333">
        <ele>66.0</ele>
        <time>2019-05-17T08:48:31.152Z</time>
      </trkpt>
      <trkpt lat="39.23509" lon="-8.67519167">
        <ele>66.0</ele>
        <time>2019-05-17T08:48:32.166Z</time>
      </trkpt>
      <trkpt lat="39.23509" lon="-8.67519167">
        <ele>66.0</ele>
        <time>2019-05-17T08:48:33.187Z</time>
      </trkpt>
      <trkpt lat="39.23508167" lon="-8.67518167">
        <ele>66.0</ele>
        <time>2019-05-17T08:48:34.158Z</time>
      </trkpt>
      <trkpt lat="39.23508167" lon="-8.67518167">
        <ele>66.0</ele>
        <time>2019-05-17T08:48:35.182Z</time>
      </trkpt>
      <trkpt lat="39.23507833" lon="-8.67517167">
        <ele>65.0</ele>
        <time>2019-05-17T08:48:36.186Z</time>
      </trkpt>
      <trkpt lat="39.23507833" lon="-8.67517167">
        <ele>65.0</ele>
        <time>2019-05-17T08:48:37.158Z</time>
      </trkpt>
      <trkpt lat="39.23507333" lon="-8.67516167">
        <ele>66.0</ele>
        <time>2019-05-17T08:48:38.170Z</time>
      </trkpt>
      <trkpt lat="39.23507333" lon="-8.67516167">
        <ele>66.0</ele>
        <time>2019-05-17T08:48:39.179Z</time>
      </trkpt>
      <trkpt lat="39.23506667" lon="-8.67515">
        <ele>65.0</ele>
        <time>2019-05-17T08:48:40.188Z</time>
      </trkpt>
      <trkpt lat="39.23506667" lon="-8.67515">
        <ele>65.0</ele>
        <time>2019-05-17T08:48:41.176Z</time>
      </trkpt>
      <trkpt lat="39.23505667" lon="-8.67513167">
        <ele>65.0</ele>
        <time>2019-05-17T08:48:42.186Z</time>
      </trkpt>
      <trkpt lat="39.23505667" lon="-8.67513167">
        <ele>65.0</ele>
        <time>2019-05-17T08:48:43.157Z</time>
      </trkpt>
      <trkpt lat="39.23504833" lon="-8.67511667">
        <ele>65.0</ele>
        <time>2019-05-17T08:48:44.155Z</time>
      </trkpt>
      <trkpt lat="39.23504667" lon="-8.675105">
        <ele>65.0</ele>
        <time>2019-05-17T08:48:45.156Z</time>
      </trkpt>
      <trkpt lat="39.23504667" lon="-8.675105">
        <ele>65.0</ele>
        <time>2019-05-17T08:48:46.165Z</time>
      </trkpt>
      <trkpt lat="39.23504167" lon="-8.67509333">
        <ele>65.0</ele>
        <time>2019-05-17T08:48:47.180Z</time>
      </trkpt>
      <trkpt lat="39.23504167" lon="-8.67509333">
        <ele>65.0</ele>
        <time>2019-05-17T08:48:48.158Z</time>
      </trkpt>
      <trkpt lat="39.23504" lon="-8.67508833">
        <ele>65.0</ele>
        <time>2019-05-17T08:48:49.178Z</time>
      </trkpt>
      <trkpt lat="39.23504" lon="-8.67508833">
        <ele>65.0</ele>
        <time>2019-05-17T08:48:50.172Z</time>
      </trkpt>
      <trkpt lat="39.23503833" lon="-8.67508">
        <ele>65.0</ele>
        <time>2019-05-17T08:48:51.186Z</time>
      </trkpt>
      <trkpt lat="39.23503833" lon="-8.67508">
        <ele>65.0</ele>
        <time>2019-05-17T08:48:52.173Z</time>
      </trkpt>
      <trkpt lat="39.23502833" lon="-8.67505667">
        <ele>65.0</ele>
        <time>2019-05-17T08:48:53.183Z</time>
      </trkpt>
      <trkpt lat="39.23502833" lon="-8.67505667">
        <ele>65.0</ele>
        <time>2019-05-17T08:48:54.169Z</time>
      </trkpt>
      <trkpt lat="39.235025" lon="-8.67504">
        <ele>65.0</ele>
        <time>2019-05-17T08:48:55.176Z</time>
      </trkpt>
      <trkpt lat="39.23502833" lon="-8.67503">
        <ele>65.0</ele>
        <time>2019-05-17T08:48:56.153Z</time>
      </trkpt>
      <trkpt lat="39.23502833" lon="-8.67503">
        <ele>65.0</ele>
        <time>2019-05-17T08:48:57.167Z</time>
      </trkpt>
      <trkpt lat="39.23502833" lon="-8.675015">
        <ele>65.0</ele>
        <time>2019-05-17T08:48:58.182Z</time>
      </trkpt>
      <trkpt lat="39.23502833" lon="-8.675015">
        <ele>65.0</ele>
        <time>2019-05-17T08:48:59.169Z</time>
      </trkpt>
      <trkpt lat="39.235025" lon="-8.67499667">
        <ele>65.0</ele>
        <time>2019-05-17T08:49:00.187Z</time>
      </trkpt>
      <trkpt lat="39.235025" lon="-8.67499667">
        <ele>65.0</ele>
        <time>2019-05-17T08:49:01.163Z</time>
      </trkpt>
      <trkpt lat="39.235025" lon="-8.67499667">
        <ele>65.0</ele>
        <time>2019-05-17T08:49:02.179Z</time>
      </trkpt>
      <trkpt lat="39.235025" lon="-8.67499667">
        <ele>65.0</ele>
        <time>2019-05-17T08:49:03.156Z</time>
      </trkpt>
      <trkpt lat="39.235025" lon="-8.67499667">
        <ele>65.0</ele>
        <time>2019-05-17T08:49:04.170Z</time>
      </trkpt>
      <trkpt lat="39.235025" lon="-8.67499667">
        <ele>65.0</ele>
        <time>2019-05-17T08:49:05.180Z</time>
      </trkpt>
      <trkpt lat="39.23502" lon="-8.67495667">
        <ele>64.0</ele>
        <time>2019-05-17T08:49:06.170Z</time>
      </trkpt>
      <trkpt lat="39.23502" lon="-8.67495667">
        <ele>64.0</ele>
        <time>2019-05-17T08:49:07.163Z</time>
      </trkpt>
      <trkpt lat="39.23501833" lon="-8.67494167">
        <ele>64.0</ele>
        <time>2019-05-17T08:49:08.156Z</time>
      </trkpt>
      <trkpt lat="39.23501833" lon="-8.67494167">
        <ele>64.0</ele>
        <time>2019-05-17T08:49:09.173Z</time>
      </trkpt>
      <trkpt lat="39.23501667" lon="-8.67492667">
        <ele>64.0</ele>
        <time>2019-05-17T08:49:10.179Z</time>
      </trkpt>
      <trkpt lat="39.23501667" lon="-8.67492667">
        <ele>64.0</ele>
        <time>2019-05-17T08:49:11.187Z</time>
      </trkpt>
      <trkpt lat="39.23502" lon="-8.67491667">
        <ele>64.0</ele>
        <time>2019-05-17T08:49:12.172Z</time>
      </trkpt>
      <trkpt lat="39.23502" lon="-8.67491667">
        <ele>64.0</ele>
        <time>2019-05-17T08:49:13.182Z</time>
      </trkpt>
      <trkpt lat="39.23502167" lon="-8.674905">
        <ele>63.0</ele>
        <time>2019-05-17T08:49:14.159Z</time>
      </trkpt>
      <trkpt lat="39.23502333" lon="-8.67489833">
        <ele>63.0</ele>
        <time>2019-05-17T08:49:15.165Z</time>
      </trkpt>
      <trkpt lat="39.23502333" lon="-8.67489833">
        <ele>63.0</ele>
        <time>2019-05-17T08:49:16.165Z</time>
      </trkpt>
      <trkpt lat="39.23503" lon="-8.67488167">
        <ele>63.0</ele>
        <time>2019-05-17T08:49:17.172Z</time>
      </trkpt>
      <trkpt lat="39.23503" lon="-8.67488167">
        <ele>63.0</ele>
        <time>2019-05-17T08:49:18.178Z</time>
      </trkpt>
      <trkpt lat="39.23503" lon="-8.67487333">
        <ele>63.0</ele>
        <time>2019-05-17T08:49:19.189Z</time>
      </trkpt>
      <trkpt lat="39.23503167" lon="-8.67486667">
        <ele>63.0</ele>
        <time>2019-05-17T08:49:20.159Z</time>
      </trkpt>
      <trkpt lat="39.23503167" lon="-8.67486667">
        <ele>63.0</ele>
        <time>2019-05-17T08:49:21.174Z</time>
      </trkpt>
      <trkpt lat="39.23503667" lon="-8.67485167">
        <ele>62.0</ele>
        <time>2019-05-17T08:49:22.187Z</time>
      </trkpt>
      <trkpt lat="39.23503667" lon="-8.67485167">
        <ele>62.0</ele>
        <time>2019-05-17T08:49:23.161Z</time>
      </trkpt>
      <trkpt lat="39.23504167" lon="-8.67483667">
        <ele>62.0</ele>
        <time>2019-05-17T08:49:24.172Z</time>
      </trkpt>
      <trkpt lat="39.23504167" lon="-8.67483667">
        <ele>62.0</ele>
        <time>2019-05-17T08:49:25.184Z</time>
      </trkpt>
      <trkpt lat="39.23504667" lon="-8.674825">
        <ele>62.0</ele>
        <time>2019-05-17T08:49:26.168Z</time>
      </trkpt>
      <trkpt lat="39.23504667" lon="-8.674825">
        <ele>62.0</ele>
        <time>2019-05-17T08:49:27.181Z</time>
      </trkpt>
      <trkpt lat="39.23505667" lon="-8.67481667">
        <ele>61.0</ele>
        <time>2019-05-17T08:49:28.150Z</time>
      </trkpt>
      <trkpt lat="39.23505667" lon="-8.67481667">
        <ele>61.0</ele>
        <time>2019-05-17T08:49:29.171Z</time>
      </trkpt>
      <trkpt lat="39.23506333" lon="-8.67481">
        <ele>61.0</ele>
        <time>2019-05-17T08:49:30.180Z</time>
      </trkpt>
      <trkpt lat="39.23507" lon="-8.67480833">
        <ele>61.0</ele>
        <time>2019-05-17T08:49:31.172Z</time>
      </trkpt>
      <trkpt lat="39.23507" lon="-8.67480833">
        <ele>61.0</ele>
        <time>2019-05-17T08:49:32.175Z</time>
      </trkpt>
      <trkpt lat="39.23507333" lon="-8.67479833">
        <ele>61.0</ele>
        <time>2019-05-17T08:49:33.187Z</time>
      </trkpt>
      <trkpt lat="39.235075" lon="-8.67479333">
        <ele>61.0</ele>
        <time>2019-05-17T08:49:34.163Z</time>
      </trkpt>
      <trkpt lat="39.235075" lon="-8.67479333">
        <ele>61.0</ele>
        <time>2019-05-17T08:49:35.180Z</time>
      </trkpt>
      <trkpt lat="39.23508167" lon="-8.67478167">
        <ele>61.0</ele>
        <time>2019-05-17T08:49:36.151Z</time>
      </trkpt>
      <trkpt lat="39.23508167" lon="-8.67478167">
        <ele>61.0</ele>
        <time>2019-05-17T08:49:37.162Z</time>
      </trkpt>
      <trkpt lat="39.23508833" lon="-8.674775">
        <ele>61.0</ele>
        <time>2019-05-17T08:49:38.177Z</time>
      </trkpt>
      <trkpt lat="39.23508833" lon="-8.674775">
        <ele>61.0</ele>
        <time>2019-05-17T08:49:39.186Z</time>
      </trkpt>
      <trkpt lat="39.23508833" lon="-8.674775">
        <ele>61.0</ele>
        <time>2019-05-17T08:49:40.184Z</time>
      </trkpt>
      <trkpt lat="39.23508833" lon="-8.674775">
        <ele>61.0</ele>
        <time>2019-05-17T08:49:41.170Z</time>
      </trkpt>
      <trkpt lat="39.23509833" lon="-8.67476">
        <ele>61.0</ele>
        <time>2019-05-17T08:49:42.180Z</time>
      </trkpt>
      <trkpt lat="39.23509833" lon="-8.67476">
        <ele>61.0</ele>
        <time>2019-05-17T08:49:43.188Z</time>
      </trkpt>
      <trkpt lat="39.23510167" lon="-8.67475167">
        <ele>60.0</ele>
        <time>2019-05-17T08:49:44.161Z</time>
      </trkpt>
      <trkpt lat="39.23510167" lon="-8.67475167">
        <ele>60.0</ele>
        <time>2019-05-17T08:49:45.172Z</time>
      </trkpt>
      <trkpt lat="39.23510333" lon="-8.67474833">
        <ele>60.0</ele>
        <time>2019-05-17T08:49:46.165Z</time>
      </trkpt>
      <trkpt lat="39.23510333" lon="-8.67474833">
        <ele>60.0</ele>
        <time>2019-05-17T08:49:47.159Z</time>
      </trkpt>
      <trkpt lat="39.235105" lon="-8.67473">
        <ele>60.0</ele>
        <time>2019-05-17T08:49:48.170Z</time>
      </trkpt>
      <trkpt lat="39.235105" lon="-8.67473">
        <ele>60.0</ele>
        <time>2019-05-17T08:49:49.185Z</time>
      </trkpt>
      <trkpt lat="39.2351" lon="-8.67471667">
        <ele>60.0</ele>
        <time>2019-05-17T08:49:50.158Z</time>
      </trkpt>
      <trkpt lat="39.23509667" lon="-8.67470833">
        <ele>60.0</ele>
        <time>2019-05-17T08:49:51.166Z</time>
      </trkpt>
      <trkpt lat="39.23509667" lon="-8.67470833">
        <ele>60.0</ele>
        <time>2019-05-17T08:49:52.186Z</time>
      </trkpt>
      <trkpt lat="39.23509" lon="-8.67469833">
        <ele>60.0</ele>
        <time>2019-05-17T08:49:53.169Z</time>
      </trkpt>
      <trkpt lat="39.23508667" lon="-8.67469333">
        <ele>60.0</ele>
        <time>2019-05-17T08:49:54.182Z</time>
      </trkpt>
      <trkpt lat="39.23508667" lon="-8.67469333">
        <ele>60.0</ele>
        <time>2019-05-17T08:49:55.155Z</time>
      </trkpt>
      <trkpt lat="39.23508" lon="-8.67468833">
        <ele>59.0</ele>
        <time>2019-05-17T08:49:56.165Z</time>
      </trkpt>
      <trkpt lat="39.23507667" lon="-8.674685">
        <ele>59.0</ele>
        <time>2019-05-17T08:49:57.176Z</time>
      </trkpt>
      <trkpt lat="39.23507667" lon="-8.674685">
        <ele>59.0</ele>
        <time>2019-05-17T08:49:58.159Z</time>
      </trkpt>
      <trkpt lat="39.23506" lon="-8.67467833">
        <ele>59.0</ele>
        <time>2019-05-17T08:49:59.174Z</time>
      </trkpt>
      <trkpt lat="39.235055" lon="-8.67467667">
        <ele>59.0</ele>
        <time>2019-05-17T08:50:00.194Z</time>
      </trkpt>
      <trkpt lat="39.235055" lon="-8.67467667">
        <ele>59.0</ele>
        <time>2019-05-17T08:50:01.176Z</time>
      </trkpt>
      <trkpt lat="39.23504333" lon="-8.67467">
        <ele>59.0</ele>
        <time>2019-05-17T08:50:02.188Z</time>
      </trkpt>
      <trkpt lat="39.23503833" lon="-8.67467">
        <ele>59.0</ele>
        <time>2019-05-17T08:50:03.162Z</time>
      </trkpt>
      <trkpt lat="39.23503333" lon="-8.67466833">
        <ele>59.0</ele>
        <time>2019-05-17T08:50:04.184Z</time>
      </trkpt>
      <trkpt lat="39.23503333" lon="-8.67466833">
        <ele>59.0</ele>
        <time>2019-05-17T08:50:05.158Z</time>
      </trkpt>
      <trkpt lat="39.23502333" lon="-8.674665">
        <ele>58.0</ele>
        <time>2019-05-17T08:50:06.172Z</time>
      </trkpt>
      <trkpt lat="39.23502333" lon="-8.674665">
        <ele>58.0</ele>
        <time>2019-05-17T08:50:07.183Z</time>
      </trkpt>
      <trkpt lat="39.235015" lon="-8.674665">
        <ele>58.0</ele>
        <time>2019-05-17T08:50:08.165Z</time>
      </trkpt>
      <trkpt lat="39.235015" lon="-8.674665">
        <ele>58.0</ele>
        <time>2019-05-17T08:50:09.162Z</time>
      </trkpt>
      <trkpt lat="39.235005" lon="-8.67466">
        <ele>58.0</ele>
        <time>2019-05-17T08:50:10.160Z</time>
      </trkpt>
      <trkpt lat="39.235005" lon="-8.67466">
        <ele>58.0</ele>
        <time>2019-05-17T08:50:11.184Z</time>
      </trkpt>
      <trkpt lat="39.23499167" lon="-8.67465667">
        <ele>58.0</ele>
        <time>2019-05-17T08:50:12.150Z</time>
      </trkpt>
      <trkpt lat="39.23499167" lon="-8.67465667">
        <ele>58.0</ele>
        <time>2019-05-17T08:50:13.169Z</time>
      </trkpt>
      <trkpt lat="39.23498333" lon="-8.67464833">
        <ele>57.0</ele>
        <time>2019-05-17T08:50:14.189Z</time>
      </trkpt>
      <trkpt lat="39.23498167" lon="-8.674645">
        <ele>57.0</ele>
        <time>2019-05-17T08:50:15.177Z</time>
      </trkpt>
      <trkpt lat="39.23498167" lon="-8.674645">
        <ele>57.0</ele>
        <time>2019-05-17T08:50:16.171Z</time>
      </trkpt>
      <trkpt lat="39.23497667" lon="-8.674635">
        <ele>57.0</ele>
        <time>2019-05-17T08:50:17.185Z</time>
      </trkpt>
      <trkpt lat="39.23497667" lon="-8.674635">
        <ele>57.0</ele>
        <time>2019-05-17T08:50:18.159Z</time>
      </trkpt>
      <trkpt lat="39.23497667" lon="-8.674635">
        <ele>57.0</ele>
        <time>2019-05-17T08:50:19.182Z</time>
      </trkpt>
      <trkpt lat="39.23497" lon="-8.67461833">
        <ele>56.0</ele>
        <time>2019-05-17T08:50:20.155Z</time>
      </trkpt>
      <trkpt lat="39.23496667" lon="-8.67461">
        <ele>56.0</ele>
        <time>2019-05-17T08:50:21.173Z</time>
      </trkpt>
      <trkpt lat="39.23496667" lon="-8.67461">
        <ele>56.0</ele>
        <time>2019-05-17T08:50:22.179Z</time>
      </trkpt>
      <trkpt lat="39.23496167" lon="-8.67459667">
        <ele>56.0</ele>
        <time>2019-05-17T08:50:23.150Z</time>
      </trkpt>
      <trkpt lat="39.23495667" lon="-8.67459167">
        <ele>56.0</ele>
        <time>2019-05-17T08:50:24.175Z</time>
      </trkpt>
      <trkpt lat="39.23495667" lon="-8.67459167">
        <ele>56.0</ele>
        <time>2019-05-17T08:50:25.159Z</time>
      </trkpt>
      <trkpt lat="39.23495167" lon="-8.67457833">
        <ele>55.0</ele>
        <time>2019-05-17T08:50:26.174Z</time>
      </trkpt>
      <trkpt lat="39.23495167" lon="-8.67457833">
        <ele>55.0</ele>
        <time>2019-05-17T08:50:27.184Z</time>
      </trkpt>
      <trkpt lat="39.23494667" lon="-8.674565">
        <ele>55.0</ele>
        <time>2019-05-17T08:50:28.163Z</time>
      </trkpt>
      <trkpt lat="39.23494667" lon="-8.674565">
        <ele>55.0</ele>
        <time>2019-05-17T08:50:29.178Z</time>
      </trkpt>
      <trkpt lat="39.23494" lon="-8.674555">
        <ele>55.0</ele>
        <time>2019-05-17T08:50:30.150Z</time>
      </trkpt>
      <trkpt lat="39.23494" lon="-8.674555">
        <ele>55.0</ele>
        <time>2019-05-17T08:50:31.185Z</time>
      </trkpt>
      <trkpt lat="39.23493167" lon="-8.67454667">
        <ele>55.0</ele>
        <time>2019-05-17T08:50:32.163Z</time>
      </trkpt>
      <trkpt lat="39.23493167" lon="-8.67454667">
        <ele>55.0</ele>
        <time>2019-05-17T08:50:33.179Z</time>
      </trkpt>
      <trkpt lat="39.234925" lon="-8.674535">
        <ele>54.0</ele>
        <time>2019-05-17T08:50:34.189Z</time>
      </trkpt>
      <trkpt lat="39.234925" lon="-8.674535">
        <ele>54.0</ele>
        <time>2019-05-17T08:50:35.162Z</time>
      </trkpt>
      <trkpt lat="39.23492" lon="-8.67452">
        <ele>54.0</ele>
        <time>2019-05-17T08:50:36.172Z</time>
      </trkpt>
      <trkpt lat="39.23492" lon="-8.67452">
        <ele>54.0</ele>
        <time>2019-05-17T08:50:37.157Z</time>
      </trkpt>
      <trkpt lat="39.23491667" lon="-8.67450667">
        <ele>53.0</ele>
        <time>2019-05-17T08:50:38.172Z</time>
      </trkpt>
      <trkpt lat="39.234915" lon="-8.67450167">
        <ele>53.0</ele>
        <time>2019-05-17T08:50:39.158Z</time>
      </trkpt>
      <trkpt lat="39.234915" lon="-8.67450167">
        <ele>53.0</ele>
        <time>2019-05-17T08:50:40.174Z</time>
      </trkpt>
      <trkpt lat="39.23490833" lon="-8.67449">
        <ele>53.0</ele>
        <time>2019-05-17T08:50:41.185Z</time>
      </trkpt>
      <trkpt lat="39.234905" lon="-8.67448333">
        <ele>53.0</ele>
        <time>2019-05-17T08:50:42.172Z</time>
      </trkpt>
      <trkpt lat="39.234905" lon="-8.67448333">
        <ele>53.0</ele>
        <time>2019-05-17T08:50:43.184Z</time>
      </trkpt>
      <trkpt lat="39.2349" lon="-8.67447">
        <ele>52.0</ele>
        <time>2019-05-17T08:50:44.167Z</time>
      </trkpt>
      <trkpt lat="39.2349" lon="-8.67447">
        <ele>52.0</ele>
        <time>2019-05-17T08:50:45.186Z</time>
      </trkpt>
      <trkpt lat="39.23489333" lon="-8.67445167">
        <ele>52.0</ele>
        <time>2019-05-17T08:50:46.163Z</time>
      </trkpt>
      <trkpt lat="39.23489333" lon="-8.67445167">
        <ele>52.0</ele>
        <time>2019-05-17T08:50:47.176Z</time>
      </trkpt>
      <trkpt lat="39.23488833" lon="-8.67443833">
        <ele>51.0</ele>
        <time>2019-05-17T08:50:48.181Z</time>
      </trkpt>
      <trkpt lat="39.23488833" lon="-8.67443833">
        <ele>51.0</ele>
        <time>2019-05-17T08:50:49.182Z</time>
      </trkpt>
      <trkpt lat="39.234885" lon="-8.67443">
        <ele>51.0</ele>
        <time>2019-05-17T08:50:50.151Z</time>
      </trkpt>
      <trkpt lat="39.234885" lon="-8.67443">
        <ele>51.0</ele>
        <time>2019-05-17T08:50:51.169Z</time>
      </trkpt>
      <trkpt lat="39.23488167" lon="-8.674415">
        <ele>50.0</ele>
        <time>2019-05-17T08:50:52.178Z</time>
      </trkpt>
      <trkpt lat="39.23488167" lon="-8.674415">
        <ele>50.0</ele>
        <time>2019-05-17T08:50:53.173Z</time>
      </trkpt>
      <trkpt lat="39.23488" lon="-8.67440167">
        <ele>50.0</ele>
        <time>2019-05-17T08:50:54.183Z</time>
      </trkpt>
      <trkpt lat="39.23487833" lon="-8.67439667">
        <ele>50.0</ele>
        <time>2019-05-17T08:50:55.160Z</time>
      </trkpt>
      <trkpt lat="39.23487833" lon="-8.67439667">
        <ele>50.0</ele>
        <time>2019-05-17T08:50:56.173Z</time>
      </trkpt>
      <trkpt lat="39.23487667" lon="-8.67438">
        <ele>49.0</ele>
        <time>2019-05-17T08:50:57.185Z</time>
      </trkpt>
      <trkpt lat="39.23487667" lon="-8.67438">
        <ele>49.0</ele>
        <time>2019-05-17T08:50:58.155Z</time>
      </trkpt>
      <trkpt lat="39.23488" lon="-8.674365">
        <ele>49.0</ele>
        <time>2019-05-17T08:50:59.171Z</time>
      </trkpt>
      <trkpt lat="39.23488" lon="-8.67435667">
        <ele>49.0</ele>
        <time>2019-05-17T08:51:00.229Z</time>
      </trkpt>
      <trkpt lat="39.23488" lon="-8.67435667">
        <ele>49.0</ele>
        <time>2019-05-17T08:51:01.159Z</time>
      </trkpt>
      <trkpt lat="39.234885" lon="-8.674335">
        <ele>48.0</ele>
        <time>2019-05-17T08:51:02.174Z</time>
      </trkpt>
      <trkpt lat="39.234885" lon="-8.674335">
        <ele>48.0</ele>
        <time>2019-05-17T08:51:03.173Z</time>
      </trkpt>
      <trkpt lat="39.23490167" lon="-8.67433333">
        <ele>48.0</ele>
        <time>2019-05-17T08:51:04.187Z</time>
      </trkpt>
      <trkpt lat="39.23490833" lon="-8.67433333">
        <ele>48.0</ele>
        <time>2019-05-17T08:51:05.186Z</time>
      </trkpt>
      <trkpt lat="39.234915" lon="-8.674335">
        <ele>48.0</ele>
        <time>2019-05-17T08:51:06.167Z</time>
      </trkpt>
      <trkpt lat="39.234915" lon="-8.674335">
        <ele>48.0</ele>
        <time>2019-05-17T08:51:07.181Z</time>
      </trkpt>
      <trkpt lat="39.23492667" lon="-8.67433833">
        <ele>48.0</ele>
        <time>2019-05-17T08:51:08.150Z</time>
      </trkpt>
      <trkpt lat="39.23492667" lon="-8.67433833">
        <ele>48.0</ele>
        <time>2019-05-17T08:51:09.187Z</time>
      </trkpt>
      <trkpt lat="39.23494167" lon="-8.67434">
        <ele>48.0</ele>
        <time>2019-05-17T08:51:10.188Z</time>
      </trkpt>
      <trkpt lat="39.23494167" lon="-8.67434">
        <ele>48.0</ele>
        <time>2019-05-17T08:51:11.168Z</time>
      </trkpt>
      <trkpt lat="39.23495833" lon="-8.67434167">
        <ele>47.0</ele>
        <time>2019-05-17T08:51:12.177Z</time>
      </trkpt>
      <trkpt lat="39.23495833" lon="-8.67434167">
        <ele>47.0</ele>
        <time>2019-05-17T08:51:13.153Z</time>
      </trkpt>
      <trkpt lat="39.234975" lon="-8.674345">
        <ele>47.0</ele>
        <time>2019-05-17T08:51:14.167Z</time>
      </trkpt>
      <trkpt lat="39.23498333" lon="-8.67434833">
        <ele>48.0</ele>
        <time>2019-05-17T08:51:15.176Z</time>
      </trkpt>
      <trkpt lat="39.23498333" lon="-8.67434833">
        <ele>48.0</ele>
        <time>2019-05-17T08:51:16.159Z</time>
      </trkpt>
      <trkpt lat="39.235" lon="-8.674345">
        <ele>47.0</ele>
        <time>2019-05-17T08:51:17.170Z</time>
      </trkpt>
      <trkpt lat="39.23500833" lon="-8.67434333">
        <ele>48.0</ele>
        <time>2019-05-17T08:51:18.184Z</time>
      </trkpt>
      <trkpt lat="39.23500833" lon="-8.67434333">
        <ele>48.0</ele>
        <time>2019-05-17T08:51:19.164Z</time>
      </trkpt>
      <trkpt lat="39.23502333" lon="-8.67433833">
        <ele>47.0</ele>
        <time>2019-05-17T08:51:20.175Z</time>
      </trkpt>
      <trkpt lat="39.23502333" lon="-8.67433833">
        <ele>47.0</ele>
        <time>2019-05-17T08:51:21.155Z</time>
      </trkpt>
      <trkpt lat="39.235035" lon="-8.67432833">
        <ele>46.0</ele>
        <time>2019-05-17T08:51:22.165Z</time>
      </trkpt>
      <trkpt lat="39.23504333" lon="-8.67432333">
        <ele>46.0</ele>
        <time>2019-05-17T08:51:23.180Z</time>
      </trkpt>
      <trkpt lat="39.23504333" lon="-8.67432333">
        <ele>46.0</ele>
        <time>2019-05-17T08:51:24.159Z</time>
      </trkpt>
      <trkpt lat="39.235055" lon="-8.67430833">
        <ele>46.0</ele>
        <time>2019-05-17T08:51:25.178Z</time>
      </trkpt>
      <trkpt lat="39.235055" lon="-8.67430833">
        <ele>46.0</ele>
        <time>2019-05-17T08:51:26.153Z</time>
      </trkpt>
      <trkpt lat="39.23506667" lon="-8.67429">
        <ele>45.0</ele>
        <time>2019-05-17T08:51:27.176Z</time>
      </trkpt>
      <trkpt lat="39.23506667" lon="-8.67429">
        <ele>45.0</ele>
        <time>2019-05-17T08:51:28.167Z</time>
      </trkpt>
      <trkpt lat="39.23507833" lon="-8.67426833">
        <ele>45.0</ele>
        <time>2019-05-17T08:51:29.182Z</time>
      </trkpt>
      <trkpt lat="39.23508333" lon="-8.67425667">
        <ele>45.0</ele>
        <time>2019-05-17T08:51:30.171Z</time>
      </trkpt>
      <trkpt lat="39.23508333" lon="-8.67425667">
        <ele>45.0</ele>
        <time>2019-05-17T08:51:31.151Z</time>
      </trkpt>
      <trkpt lat="39.23509167" lon="-8.674235">
        <ele>45.0</ele>
        <time>2019-05-17T08:51:32.162Z</time>
      </trkpt>
      <trkpt lat="39.23509167" lon="-8.674235">
        <ele>45.0</ele>
        <time>2019-05-17T08:51:33.187Z</time>
      </trkpt>
      <trkpt lat="39.2351" lon="-8.67422167">
        <ele>44.0</ele>
        <time>2019-05-17T08:51:34.166Z</time>
      </trkpt>
      <trkpt lat="39.23510167" lon="-8.67421333">
        <ele>44.0</ele>
        <time>2019-05-17T08:51:35.189Z</time>
      </trkpt>
      <trkpt lat="39.23510667" lon="-8.67420833">
        <ele>44.0</ele>
        <time>2019-05-17T08:51:36.159Z</time>
      </trkpt>
      <trkpt lat="39.23510667" lon="-8.67420833">
        <ele>44.0</ele>
        <time>2019-05-17T08:51:37.175Z</time>
      </trkpt>
      <trkpt lat="39.235115" lon="-8.67420167">
        <ele>44.0</ele>
        <time>2019-05-17T08:51:38.150Z</time>
      </trkpt>
      <trkpt lat="39.235115" lon="-8.67420167">
        <ele>44.0</ele>
        <time>2019-05-17T08:51:39.173Z</time>
      </trkpt>
      <trkpt lat="39.23512167" lon="-8.6742">
        <ele>44.0</ele>
        <time>2019-05-17T08:51:40.155Z</time>
      </trkpt>
      <trkpt lat="39.23512167" lon="-8.6742">
        <ele>44.0</ele>
        <time>2019-05-17T08:51:41.152Z</time>
      </trkpt>
      <trkpt lat="39.23513333" lon="-8.6742">
        <ele>44.0</ele>
        <time>2019-05-17T08:51:42.162Z</time>
      </trkpt>
      <trkpt lat="39.23513333" lon="-8.6742">
        <ele>44.0</ele>
        <time>2019-05-17T08:51:43.170Z</time>
      </trkpt>
      <trkpt lat="39.23515167" lon="-8.67420167">
        <ele>44.0</ele>
        <time>2019-05-17T08:51:44.178Z</time>
      </trkpt>
      <trkpt lat="39.23515167" lon="-8.67420167">
        <ele>44.0</ele>
        <time>2019-05-17T08:51:45.188Z</time>
      </trkpt>
      <trkpt lat="39.23516833" lon="-8.67421333">
        <ele>44.0</ele>
        <time>2019-05-17T08:51:46.162Z</time>
      </trkpt>
      <trkpt lat="39.23516833" lon="-8.67421333">
        <ele>44.0</ele>
        <time>2019-05-17T08:51:47.176Z</time>
      </trkpt>
      <trkpt lat="39.23518167" lon="-8.67422833">
        <ele>43.0</ele>
        <time>2019-05-17T08:51:48.189Z</time>
      </trkpt>
      <trkpt lat="39.23518167" lon="-8.67422833">
        <ele>43.0</ele>
        <time>2019-05-17T08:51:49.172Z</time>
      </trkpt>
      <trkpt lat="39.23520333" lon="-8.67424667">
        <ele>43.0</ele>
        <time>2019-05-17T08:51:50.182Z</time>
      </trkpt>
      <trkpt lat="39.23520333" lon="-8.67424667">
        <ele>43.0</ele>
        <time>2019-05-17T08:51:51.153Z</time>
      </trkpt>
      <trkpt lat="39.23522333" lon="-8.67426333">
        <ele>43.0</ele>
        <time>2019-05-17T08:51:52.176Z</time>
      </trkpt>
      <trkpt lat="39.23522333" lon="-8.67426333">
        <ele>43.0</ele>
        <time>2019-05-17T08:51:53.184Z</time>
      </trkpt>
      <trkpt lat="39.235235" lon="-8.67428167">
        <ele>42.0</ele>
        <time>2019-05-17T08:51:54.152Z</time>
      </trkpt>
      <trkpt lat="39.235235" lon="-8.67428167">
        <ele>42.0</ele>
        <time>2019-05-17T08:51:55.167Z</time>
      </trkpt>
      <trkpt lat="39.235245" lon="-8.67429667">
        <ele>42.0</ele>
        <time>2019-05-17T08:51:56.176Z</time>
      </trkpt>
      <trkpt lat="39.23525167" lon="-8.674305">
        <ele>42.0</ele>
        <time>2019-05-17T08:51:57.153Z</time>
      </trkpt>
      <trkpt lat="39.23525167" lon="-8.674305">
        <ele>42.0</ele>
        <time>2019-05-17T08:51:58.166Z</time>
      </trkpt>
      <trkpt lat="39.23526333" lon="-8.67432333">
        <ele>41.0</ele>
        <time>2019-05-17T08:51:59.177Z</time>
      </trkpt>
      <trkpt lat="39.23526833" lon="-8.67433">
        <ele>41.0</ele>
        <time>2019-05-17T08:52:00.156Z</time>
      </trkpt>
      <trkpt lat="39.23526833" lon="-8.67433">
        <ele>41.0</ele>
        <time>2019-05-17T08:52:01.186Z</time>
      </trkpt>
      <trkpt lat="39.23528333" lon="-8.67433333">
        <ele>40.0</ele>
        <time>2019-05-17T08:52:02.165Z</time>
      </trkpt>
      <trkpt lat="39.23528333" lon="-8.67433333">
        <ele>40.0</ele>
        <time>2019-05-17T08:52:03.177Z</time>
      </trkpt>
      <trkpt lat="39.23530667" lon="-8.67431833">
        <ele>41.0</ele>
        <time>2019-05-17T08:52:04.153Z</time>
      </trkpt>
      <trkpt lat="39.23530667" lon="-8.67431833">
        <ele>41.0</ele>
        <time>2019-05-17T08:52:05.181Z</time>
      </trkpt>
      <trkpt lat="39.23532667" lon="-8.67430833">
        <ele>40.0</ele>
        <time>2019-05-17T08:52:06.174Z</time>
      </trkpt>
      <trkpt lat="39.23532667" lon="-8.67430833">
        <ele>40.0</ele>
        <time>2019-05-17T08:52:07.155Z</time>
      </trkpt>
      <trkpt lat="39.23533833" lon="-8.674305">
        <ele>40.0</ele>
        <time>2019-05-17T08:52:08.166Z</time>
      </trkpt>
      <trkpt lat="39.23533833" lon="-8.674305">
        <ele>40.0</ele>
        <time>2019-05-17T08:52:09.162Z</time>
      </trkpt>
      <trkpt lat="39.23534" lon="-8.674305">
        <ele>40.0</ele>
        <time>2019-05-17T08:52:10.185Z</time>
      </trkpt>
      <trkpt lat="39.23534" lon="-8.674305">
        <ele>40.0</ele>
        <time>2019-05-17T08:52:11.172Z</time>
      </trkpt>
      <trkpt lat="39.23534" lon="-8.674305">
        <ele>40.0</ele>
        <time>2019-05-17T08:52:12.186Z</time>
      </trkpt>
      <trkpt lat="39.23534" lon="-8.674305">
        <ele>40.0</ele>
        <time>2019-05-17T08:52:13.159Z</time>
      </trkpt>
      <trkpt lat="39.23534" lon="-8.674305">
        <ele>40.0</ele>
        <time>2019-05-17T08:52:14.167Z</time>
      </trkpt>
      <trkpt lat="39.23534" lon="-8.674305">
        <ele>40.0</ele>
        <time>2019-05-17T08:52:15.184Z</time>
      </trkpt>
      <trkpt lat="39.23534" lon="-8.674305">
        <ele>40.0</ele>
        <time>2019-05-17T08:52:16.155Z</time>
      </trkpt>
      <trkpt lat="39.235355" lon="-8.67430833">
        <ele>40.0</ele>
        <time>2019-05-17T08:52:17.180Z</time>
      </trkpt>
      <trkpt lat="39.23536333" lon="-8.67431167">
        <ele>40.0</ele>
        <time>2019-05-17T08:52:18.171Z</time>
      </trkpt>
      <trkpt lat="39.23536333" lon="-8.67431167">
        <ele>40.0</ele>
        <time>2019-05-17T08:52:19.163Z</time>
      </trkpt>
      <trkpt lat="39.23538667" lon="-8.674305">
        <ele>40.0</ele>
        <time>2019-05-17T08:52:20.170Z</time>
      </trkpt>
      <trkpt lat="39.23538667" lon="-8.674305">
        <ele>40.0</ele>
        <time>2019-05-17T08:52:21.163Z</time>
      </trkpt>
      <trkpt lat="39.23540667" lon="-8.67429">
        <ele>40.0</ele>
        <time>2019-05-17T08:52:22.169Z</time>
      </trkpt>
      <trkpt lat="39.23540667" lon="-8.67429">
        <ele>40.0</ele>
        <time>2019-05-17T08:52:23.186Z</time>
      </trkpt>
      <trkpt lat="39.235445" lon="-8.67427">
        <ele>40.0</ele>
        <time>2019-05-17T08:52:24.162Z</time>
      </trkpt>
      <trkpt lat="39.23546667" lon="-8.67427167">
        <ele>40.0</ele>
        <time>2019-05-17T08:52:25.175Z</time>
      </trkpt>
      <trkpt lat="39.23546667" lon="-8.67427167">
        <ele>40.0</ele>
        <time>2019-05-17T08:52:26.153Z</time>
      </trkpt>
      <trkpt lat="39.23551" lon="-8.67430167">
        <ele>40.0</ele>
        <time>2019-05-17T08:52:27.161Z</time>
      </trkpt>
      <trkpt lat="39.23551" lon="-8.67430167">
        <ele>40.0</ele>
        <time>2019-05-17T08:52:28.170Z</time>
      </trkpt>
      <trkpt lat="39.23556833" lon="-8.67434167">
        <ele>40.0</ele>
        <time>2019-05-17T08:52:29.151Z</time>
      </trkpt>
      <trkpt lat="39.23556833" lon="-8.67434167">
        <ele>40.0</ele>
        <time>2019-05-17T08:52:30.186Z</time>
      </trkpt>
      <trkpt lat="39.23562333" lon="-8.67436667">
        <ele>40.0</ele>
        <time>2019-05-17T08:52:31.167Z</time>
      </trkpt>
      <trkpt lat="39.23562333" lon="-8.67436667">
        <ele>40.0</ele>
        <time>2019-05-17T08:52:32.160Z</time>
      </trkpt>
      <trkpt lat="39.23564167" lon="-8.67438167">
        <ele>40.0</ele>
        <time>2019-05-17T08:52:33.176Z</time>
      </trkpt>
      <trkpt lat="39.23564167" lon="-8.67438167">
        <ele>40.0</ele>
        <time>2019-05-17T08:52:34.156Z</time>
      </trkpt>
      <trkpt lat="39.23564333" lon="-8.67438333">
        <ele>40.0</ele>
        <time>2019-05-17T08:52:35.189Z</time>
      </trkpt>
      <trkpt lat="39.23564333" lon="-8.67438333">
        <ele>40.0</ele>
        <time>2019-05-17T08:52:36.174Z</time>
      </trkpt>
      <trkpt lat="39.23564333" lon="-8.67438333">
        <ele>40.0</ele>
        <time>2019-05-17T08:52:37.186Z</time>
      </trkpt>
      <trkpt lat="39.23564333" lon="-8.67438333">
        <ele>40.0</ele>
        <time>2019-05-17T08:52:38.161Z</time>
      </trkpt>
      <trkpt lat="39.23564333" lon="-8.67438333">
        <ele>40.0</ele>
        <time>2019-05-17T08:52:39.167Z</time>
      </trkpt>
      <trkpt lat="39.23564333" lon="-8.67438333">
        <ele>40.0</ele>
        <time>2019-05-17T08:52:40.173Z</time>
      </trkpt>
      <trkpt lat="39.23564333" lon="-8.67438333">
        <ele>40.0</ele>
        <time>2019-05-17T08:52:41.179Z</time>
      </trkpt>
      <trkpt lat="39.23564333" lon="-8.67438333">
        <ele>40.0</ele>
        <time>2019-05-17T08:52:42.171Z</time>
      </trkpt>
      <trkpt lat="39.23564333" lon="-8.67438333">
        <ele>40.0</ele>
        <time>2019-05-17T08:52:43.164Z</time>
      </trkpt>
      <trkpt lat="39.23564333" lon="-8.67438333">
        <ele>40.0</ele>
        <time>2019-05-17T08:52:44.186Z</time>
      </trkpt>
      <trkpt lat="39.23564333" lon="-8.67438333">
        <ele>40.0</ele>
        <time>2019-05-17T08:52:45.171Z</time>
      </trkpt>
      <trkpt lat="39.23564333" lon="-8.67438333">
        <ele>40.0</ele>
        <time>2019-05-17T08:52:46.170Z</time>
      </trkpt>
      <trkpt lat="39.23564333" lon="-8.67438333">
        <ele>40.0</ele>
        <time>2019-05-17T08:52:47.164Z</time>
      </trkpt>
      <trkpt lat="39.23564333" lon="-8.67438333">
        <ele>40.0</ele>
        <time>2019-05-17T08:52:48.171Z</time>
      </trkpt>
      <trkpt lat="39.23564333" lon="-8.67438333">
        <ele>40.0</ele>
        <time>2019-05-17T08:52:49.165Z</time>
      </trkpt>
      <trkpt lat="39.23564333" lon="-8.67438333">
        <ele>40.0</ele>
        <time>2019-05-17T08:52:50.170Z</time>
      </trkpt>
      <trkpt lat="39.23564333" lon="-8.67438333">
        <ele>40.0</ele>
        <time>2019-05-17T08:52:51.164Z</time>
      </trkpt>
      <trkpt lat="39.23564333" lon="-8.67438333">
        <ele>40.0</ele>
        <time>2019-05-17T08:52:52.169Z</time>
      </trkpt>
      <trkpt lat="39.23564333" lon="-8.67438333">
        <ele>40.0</ele>
        <time>2019-05-17T08:52:53.163Z</time>
      </trkpt>
      <trkpt lat="39.23564333" lon="-8.67438333">
        <ele>40.0</ele>
        <time>2019-05-17T08:52:54.152Z</time>
      </trkpt>
      <trkpt lat="39.23564333" lon="-8.67438333">
        <ele>40.0</ele>
        <time>2019-05-17T08:52:55.186Z</time>
      </trkpt>
      <trkpt lat="39.23564333" lon="-8.67438333">
        <ele>40.0</ele>
        <time>2019-05-17T08:52:56.171Z</time>
      </trkpt>
      <trkpt lat="39.23564333" lon="-8.67438333">
        <ele>40.0</ele>
        <time>2019-05-17T08:52:57.164Z</time>
      </trkpt>
      <trkpt lat="39.23564333" lon="-8.67438333">
        <ele>40.0</ele>
        <time>2019-05-17T08:52:58.169Z</time>
      </trkpt>
      <trkpt lat="39.23564333" lon="-8.67438333">
        <ele>40.0</ele>
        <time>2019-05-17T08:52:59.164Z</time>
      </trkpt>
      <trkpt lat="39.23564333" lon="-8.67438333">
        <ele>40.0</ele>
        <time>2019-05-17T08:53:00.186Z</time>
      </trkpt>
      <trkpt lat="39.23564333" lon="-8.67438333">
        <ele>40.0</ele>
        <time>2019-05-17T08:53:01.187Z</time>
      </trkpt>
      <trkpt lat="39.23564" lon="-8.67438833">
        <ele>39.0</ele>
        <time>2019-05-17T08:53:02.166Z</time>
      </trkpt>
      <trkpt lat="39.23564" lon="-8.67438833">
        <ele>39.0</ele>
        <time>2019-05-17T08:53:03.170Z</time>
      </trkpt>
      <trkpt lat="39.23564" lon="-8.67438833">
        <ele>39.0</ele>
        <time>2019-05-17T08:53:04.167Z</time>
      </trkpt>
      <trkpt lat="39.23564167" lon="-8.67438833">
        <ele>39.0</ele>
        <time>2019-05-17T08:53:05.169Z</time>
      </trkpt>
      <trkpt lat="39.23564167" lon="-8.67438833">
        <ele>39.0</ele>
        <time>2019-05-17T08:53:06.171Z</time>
      </trkpt>
      <trkpt lat="39.23564167" lon="-8.67438833">
        <ele>39.0</ele>
        <time>2019-05-17T08:53:07.164Z</time>
      </trkpt>
      <trkpt lat="39.23564167" lon="-8.67438833">
        <ele>39.0</ele>
        <time>2019-05-17T08:53:08.169Z</time>
      </trkpt>
      <trkpt lat="39.23564167" lon="-8.67438833">
        <ele>39.0</ele>
        <time>2019-05-17T08:53:09.168Z</time>
      </trkpt>
      <trkpt lat="39.23564167" lon="-8.67438833">
        <ele>39.0</ele>
        <time>2019-05-17T08:53:10.170Z</time>
      </trkpt>
      <trkpt lat="39.23564167" lon="-8.67438833">
        <ele>39.0</ele>
        <time>2019-05-17T08:53:11.164Z</time>
      </trkpt>
      <trkpt lat="39.23566667" lon="-8.67440833">
        <ele>39.0</ele>
        <time>2019-05-17T08:53:12.171Z</time>
      </trkpt>
      <trkpt lat="39.23566667" lon="-8.67440833">
        <ele>39.0</ele>
        <time>2019-05-17T08:53:13.164Z</time>
      </trkpt>
      <trkpt lat="39.235695" lon="-8.67442833">
        <ele>38.0</ele>
        <time>2019-05-17T08:53:14.189Z</time>
      </trkpt>
      <trkpt lat="39.235695" lon="-8.67442833">
        <ele>38.0</ele>
        <time>2019-05-17T08:53:15.173Z</time>
      </trkpt>
      <trkpt lat="39.23572667" lon="-8.674465">
        <ele>37.0</ele>
        <time>2019-05-17T08:53:16.169Z</time>
      </trkpt>
      <trkpt lat="39.23572667" lon="-8.674465">
        <ele>37.0</ele>
        <time>2019-05-17T08:53:17.164Z</time>
      </trkpt>
      <trkpt lat="39.23573833" lon="-8.67449333">
        <ele>37.0</ele>
        <time>2019-05-17T08:53:18.181Z</time>
      </trkpt>
      <trkpt lat="39.23573833" lon="-8.67449333">
        <ele>37.0</ele>
        <time>2019-05-17T08:53:19.182Z</time>
      </trkpt>
      <trkpt lat="39.23573833" lon="-8.674505">
        <ele>37.0</ele>
        <time>2019-05-17T08:53:20.151Z</time>
      </trkpt>
      <trkpt lat="39.23573833" lon="-8.674505">
        <ele>37.0</ele>
        <time>2019-05-17T08:53:21.171Z</time>
      </trkpt>
      <trkpt lat="39.23573833" lon="-8.674505">
        <ele>37.0</ele>
        <time>2019-05-17T08:53:22.188Z</time>
      </trkpt>
      <trkpt lat="39.23573833" lon="-8.674505">
        <ele>37.0</ele>
        <time>2019-05-17T08:53:23.181Z</time>
      </trkpt>
      <trkpt lat="39.23573833" lon="-8.674505">
        <ele>37.0</ele>
        <time>2019-05-17T08:53:24.189Z</time>
      </trkpt>
      <trkpt lat="39.23573833" lon="-8.674505">
        <ele>37.0</ele>
        <time>2019-05-17T08:53:25.157Z</time>
      </trkpt>
      <trkpt lat="39.23573833" lon="-8.674505">
        <ele>37.0</ele>
        <time>2019-05-17T08:53:26.166Z</time>
      </trkpt>
      <trkpt lat="39.23573833" lon="-8.674505">
        <ele>37.0</ele>
        <time>2019-05-17T08:53:27.172Z</time>
      </trkpt>
      <trkpt lat="39.23575833" lon="-8.67452333">
        <ele>37.0</ele>
        <time>2019-05-17T08:53:28.178Z</time>
      </trkpt>
      <trkpt lat="39.23575833" lon="-8.67452333">
        <ele>37.0</ele>
        <time>2019-05-17T08:53:29.183Z</time>
      </trkpt>
      <trkpt lat="39.23576667" lon="-8.67452667">
        <ele>37.0</ele>
        <time>2019-05-17T08:53:30.171Z</time>
      </trkpt>
      <trkpt lat="39.23576667" lon="-8.67452667">
        <ele>37.0</ele>
        <time>2019-05-17T08:53:31.176Z</time>
      </trkpt>
      <trkpt lat="39.235775" lon="-8.67453333">
        <ele>37.0</ele>
        <time>2019-05-17T08:53:32.168Z</time>
      </trkpt>
      <trkpt lat="39.235775" lon="-8.67453333">
        <ele>37.0</ele>
        <time>2019-05-17T08:53:33.164Z</time>
      </trkpt>
      <trkpt lat="39.23578333" lon="-8.67454">
        <ele>37.0</ele>
        <time>2019-05-17T08:53:34.181Z</time>
      </trkpt>
      <trkpt lat="39.23578833" lon="-8.67454333">
        <ele>37.0</ele>
        <time>2019-05-17T08:53:35.183Z</time>
      </trkpt>
      <trkpt lat="39.23579167" lon="-8.67454667">
        <ele>37.0</ele>
        <time>2019-05-17T08:53:36.163Z</time>
      </trkpt>
      <trkpt lat="39.23579167" lon="-8.67454667">
        <ele>37.0</ele>
        <time>2019-05-17T08:53:37.179Z</time>
      </trkpt>
      <trkpt lat="39.235805" lon="-8.674555">
        <ele>37.0</ele>
        <time>2019-05-17T08:53:38.151Z</time>
      </trkpt>
      <trkpt lat="39.235805" lon="-8.674555">
        <ele>37.0</ele>
        <time>2019-05-17T08:53:39.171Z</time>
      </trkpt>
      <trkpt lat="39.23582667" lon="-8.67457167">
        <ele>37.0</ele>
        <time>2019-05-17T08:53:40.183Z</time>
      </trkpt>
      <trkpt lat="39.23582667" lon="-8.67457167">
        <ele>37.0</ele>
        <time>2019-05-17T08:53:41.156Z</time>
      </trkpt>
      <trkpt lat="39.23585833" lon="-8.67458667">
        <ele>37.0</ele>
        <time>2019-05-17T08:53:42.168Z</time>
      </trkpt>
      <trkpt lat="39.23585833" lon="-8.67458667">
        <ele>37.0</ele>
        <time>2019-05-17T08:53:43.163Z</time>
      </trkpt>
      <trkpt lat="39.23589333" lon="-8.67460333">
        <ele>37.0</ele>
        <time>2019-05-17T08:53:44.180Z</time>
      </trkpt>
      <trkpt lat="39.23589333" lon="-8.67460333">
        <ele>37.0</ele>
        <time>2019-05-17T08:53:45.152Z</time>
      </trkpt>
      <trkpt lat="39.235935" lon="-8.67461833">
        <ele>37.0</ele>
        <time>2019-05-17T08:53:46.166Z</time>
      </trkpt>
      <trkpt lat="39.235935" lon="-8.67461833">
        <ele>37.0</ele>
        <time>2019-05-17T08:53:47.186Z</time>
      </trkpt>
      <trkpt lat="39.23598" lon="-8.67463333">
        <ele>38.0</ele>
        <time>2019-05-17T08:53:48.153Z</time>
      </trkpt>
      <trkpt lat="39.23598" lon="-8.67463333">
        <ele>38.0</ele>
        <time>2019-05-17T08:53:49.166Z</time>
      </trkpt>
      <trkpt lat="39.23602667" lon="-8.67464667">
        <ele>38.0</ele>
        <time>2019-05-17T08:53:50.169Z</time>
      </trkpt>
      <trkpt lat="39.23602667" lon="-8.67464667">
        <ele>38.0</ele>
        <time>2019-05-17T08:53:51.156Z</time>
      </trkpt>
      <trkpt lat="39.23608667" lon="-8.67466">
        <ele>39.0</ele>
        <time>2019-05-17T08:53:52.331Z</time>
      </trkpt>
      <trkpt lat="39.23612167" lon="-8.67467">
        <ele>40.0</ele>
        <time>2019-05-17T08:53:53.170Z</time>
      </trkpt>
      <trkpt lat="39.23612167" lon="-8.67467">
        <ele>40.0</ele>
        <time>2019-05-17T08:53:54.182Z</time>
      </trkpt>
      <trkpt lat="39.2362" lon="-8.67469">
        <ele>40.0</ele>
        <time>2019-05-17T08:53:55.177Z</time>
      </trkpt>
      <trkpt lat="39.2362" lon="-8.67469">
        <ele>40.0</ele>
        <time>2019-05-17T08:53:56.187Z</time>
      </trkpt>
      <trkpt lat="39.23628667" lon="-8.67471">
        <ele>39.0</ele>
        <time>2019-05-17T08:53:57.163Z</time>
      </trkpt>
      <trkpt lat="39.23628667" lon="-8.67471">
        <ele>39.0</ele>
        <time>2019-05-17T08:53:58.185Z</time>
      </trkpt>
      <trkpt lat="39.23637667" lon="-8.67472667">
        <ele>38.0</ele>
        <time>2019-05-17T08:53:59.158Z</time>
      </trkpt>
      <trkpt lat="39.23641833" lon="-8.67473">
        <ele>38.0</ele>
        <time>2019-05-17T08:54:00.189Z</time>
      </trkpt>
      <trkpt lat="39.23641833" lon="-8.67473">
        <ele>38.0</ele>
        <time>2019-05-17T08:54:01.162Z</time>
      </trkpt>
      <trkpt lat="39.23649667" lon="-8.67472333">
        <ele>37.0</ele>
        <time>2019-05-17T08:54:02.169Z</time>
      </trkpt>
      <trkpt lat="39.23649667" lon="-8.67472333">
        <ele>37.0</ele>
        <time>2019-05-17T08:54:03.187Z</time>
      </trkpt>
      <trkpt lat="39.23656333" lon="-8.67471167">
        <ele>36.0</ele>
        <time>2019-05-17T08:54:04.156Z</time>
      </trkpt>
      <trkpt lat="39.23658667" lon="-8.67471167">
        <ele>36.0</ele>
        <time>2019-05-17T08:54:05.172Z</time>
      </trkpt>
      <trkpt lat="39.2366" lon="-8.67471">
        <ele>36.0</ele>
        <time>2019-05-17T08:54:06.181Z</time>
      </trkpt>
      <trkpt lat="39.2366" lon="-8.67471">
        <ele>36.0</ele>
        <time>2019-05-17T08:54:07.169Z</time>
      </trkpt>
      <trkpt lat="39.23661" lon="-8.67470833">
        <ele>36.0</ele>
        <time>2019-05-17T08:54:08.178Z</time>
      </trkpt>
      <trkpt lat="39.23661" lon="-8.67470833">
        <ele>36.0</ele>
        <time>2019-05-17T08:54:09.159Z</time>
      </trkpt>
      <trkpt lat="39.23661167" lon="-8.67470667">
        <ele>35.0</ele>
        <time>2019-05-17T08:54:10.170Z</time>
      </trkpt>
      <trkpt lat="39.23661167" lon="-8.67470667">
        <ele>35.0</ele>
        <time>2019-05-17T08:54:11.182Z</time>
      </trkpt>
      <trkpt lat="39.23662333" lon="-8.6747">
        <ele>35.0</ele>
        <time>2019-05-17T08:54:12.188Z</time>
      </trkpt>
      <trkpt lat="39.23662333" lon="-8.6747">
        <ele>35.0</ele>
        <time>2019-05-17T08:54:13.154Z</time>
      </trkpt>
      <trkpt lat="39.236635" lon="-8.67469833">
        <ele>35.0</ele>
        <time>2019-05-17T08:54:14.161Z</time>
      </trkpt>
      <trkpt lat="39.236635" lon="-8.67469667">
        <ele>35.0</ele>
        <time>2019-05-17T08:54:15.170Z</time>
      </trkpt>
      <trkpt lat="39.236635" lon="-8.67469667">
        <ele>35.0</ele>
        <time>2019-05-17T08:54:16.171Z</time>
      </trkpt>
      <trkpt lat="39.236635" lon="-8.67469667">
        <ele>35.0</ele>
        <time>2019-05-17T08:54:17.151Z</time>
      </trkpt>
      <trkpt lat="39.236635" lon="-8.67469667">
        <ele>35.0</ele>
        <time>2019-05-17T08:54:18.172Z</time>
      </trkpt>
      <trkpt lat="39.236635" lon="-8.67469667">
        <ele>35.0</ele>
        <time>2019-05-17T08:54:19.165Z</time>
      </trkpt>
      <trkpt lat="39.236635" lon="-8.67469667">
        <ele>35.0</ele>
        <time>2019-05-17T08:54:20.170Z</time>
      </trkpt>
      <trkpt lat="39.236635" lon="-8.67469667">
        <ele>35.0</ele>
        <time>2019-05-17T08:54:21.165Z</time>
      </trkpt>
      <trkpt lat="39.236635" lon="-8.67469667">
        <ele>35.0</ele>
        <time>2019-05-17T08:54:22.170Z</time>
      </trkpt>
      <trkpt lat="39.236635" lon="-8.67469667">
        <ele>35.0</ele>
        <time>2019-05-17T08:54:23.165Z</time>
      </trkpt>
      <trkpt lat="39.236635" lon="-8.67469667">
        <ele>35.0</ele>
        <time>2019-05-17T08:54:24.169Z</time>
      </trkpt>
      <trkpt lat="39.236635" lon="-8.67469667">
        <ele>35.0</ele>
        <time>2019-05-17T08:54:25.165Z</time>
      </trkpt>
      <trkpt lat="39.236635" lon="-8.67469667">
        <ele>35.0</ele>
        <time>2019-05-17T08:54:26.170Z</time>
      </trkpt>
      <trkpt lat="39.236635" lon="-8.67469667">
        <ele>35.0</ele>
        <time>2019-05-17T08:54:27.165Z</time>
      </trkpt>
      <trkpt lat="39.236635" lon="-8.67469667">
        <ele>35.0</ele>
        <time>2019-05-17T08:54:28.170Z</time>
      </trkpt>
      <trkpt lat="39.236635" lon="-8.67469667">
        <ele>35.0</ele>
        <time>2019-05-17T08:54:29.167Z</time>
      </trkpt>
      <trkpt lat="39.236635" lon="-8.67469667">
        <ele>35.0</ele>
        <time>2019-05-17T08:54:30.172Z</time>
      </trkpt>
      <trkpt lat="39.236635" lon="-8.67469667">
        <ele>35.0</ele>
        <time>2019-05-17T08:54:31.164Z</time>
      </trkpt>
      <trkpt lat="39.236635" lon="-8.67469667">
        <ele>35.0</ele>
        <time>2019-05-17T08:54:32.170Z</time>
      </trkpt>
      <trkpt lat="39.236635" lon="-8.67469667">
        <ele>35.0</ele>
        <time>2019-05-17T08:54:33.165Z</time>
      </trkpt>
      <trkpt lat="39.236635" lon="-8.67469667">
        <ele>35.0</ele>
        <time>2019-05-17T08:54:34.150Z</time>
      </trkpt>
      <trkpt lat="39.236635" lon="-8.67469667">
        <ele>35.0</ele>
        <time>2019-05-17T08:54:35.168Z</time>
      </trkpt>
      <trkpt lat="39.236635" lon="-8.67469667">
        <ele>35.0</ele>
        <time>2019-05-17T08:54:36.173Z</time>
      </trkpt>
      <trkpt lat="39.236635" lon="-8.67469667">
        <ele>35.0</ele>
        <time>2019-05-17T08:54:37.165Z</time>
      </trkpt>
      <trkpt lat="39.236635" lon="-8.67469667">
        <ele>35.0</ele>
        <time>2019-05-17T08:54:38.168Z</time>
      </trkpt>
      <trkpt lat="39.236635" lon="-8.67469667">
        <ele>35.0</ele>
        <time>2019-05-17T08:54:39.171Z</time>
      </trkpt>
      <trkpt lat="39.236635" lon="-8.67469667">
        <ele>35.0</ele>
        <time>2019-05-17T08:54:40.170Z</time>
      </trkpt>
      <trkpt lat="39.236635" lon="-8.67469667">
        <ele>35.0</ele>
        <time>2019-05-17T08:54:41.165Z</time>
      </trkpt>
      <trkpt lat="39.236635" lon="-8.67469667">
        <ele>35.0</ele>
        <time>2019-05-17T08:54:42.173Z</time>
      </trkpt>
      <trkpt lat="39.236635" lon="-8.67469667">
        <ele>35.0</ele>
        <time>2019-05-17T08:54:43.164Z</time>
      </trkpt>
      <trkpt lat="39.23665333" lon="-8.67469333">
        <ele>32.0</ele>
        <time>2019-05-17T08:54:44.170Z</time>
      </trkpt>
      <trkpt lat="39.23665333" lon="-8.67469333">
        <ele>32.0</ele>
        <time>2019-05-17T08:54:45.171Z</time>
      </trkpt>
      <trkpt lat="39.23668333" lon="-8.67469">
        <ele>31.0</ele>
        <time>2019-05-17T08:54:46.171Z</time>
      </trkpt>
      <trkpt lat="39.23668333" lon="-8.67469">
        <ele>31.0</ele>
        <time>2019-05-17T08:54:47.166Z</time>
      </trkpt>
      <trkpt lat="39.2367" lon="-8.67469167">
        <ele>31.0</ele>
        <time>2019-05-17T08:54:48.173Z</time>
      </trkpt>
      <trkpt lat="39.2367" lon="-8.67469167">
        <ele>31.0</ele>
        <time>2019-05-17T08:54:49.167Z</time>
      </trkpt>
      <trkpt lat="39.23670667" lon="-8.674695">
        <ele>31.0</ele>
        <time>2019-05-17T08:54:50.165Z</time>
      </trkpt>
      <trkpt lat="39.23670667" lon="-8.674695">
        <ele>31.0</ele>
        <time>2019-05-17T08:54:51.157Z</time>
      </trkpt>
      <trkpt lat="39.23670667" lon="-8.674695">
        <ele>31.0</ele>
        <time>2019-05-17T08:54:52.169Z</time>
      </trkpt>
      <trkpt lat="39.23670833" lon="-8.674695">
        <ele>31.0</ele>
        <time>2019-05-17T08:54:53.178Z</time>
      </trkpt>
      <trkpt lat="39.23670833" lon="-8.674695">
        <ele>31.0</ele>
        <time>2019-05-17T08:54:54.164Z</time>
      </trkpt>
      <trkpt lat="39.23670833" lon="-8.674695">
        <ele>31.0</ele>
        <time>2019-05-17T08:54:55.172Z</time>
      </trkpt>
      <trkpt lat="39.23670833" lon="-8.674695">
        <ele>31.0</ele>
        <time>2019-05-17T08:54:56.178Z</time>
      </trkpt>
      <trkpt lat="39.23670833" lon="-8.674695">
        <ele>31.0</ele>
        <time>2019-05-17T08:54:57.184Z</time>
      </trkpt>
      <trkpt lat="39.23670833" lon="-8.674695">
        <ele>31.0</ele>
        <time>2019-05-17T08:54:58.166Z</time>
      </trkpt>
      <trkpt lat="39.23670833" lon="-8.674695">
        <ele>31.0</ele>
        <time>2019-05-17T08:54:59.187Z</time>
      </trkpt>
      <trkpt lat="39.23670833" lon="-8.674695">
        <ele>31.0</ele>
        <time>2019-05-17T08:55:00.179Z</time>
      </trkpt>
      <trkpt lat="39.23670833" lon="-8.674695">
        <ele>31.0</ele>
        <time>2019-05-17T08:55:01.167Z</time>
      </trkpt>
      <trkpt lat="39.23670833" lon="-8.674695">
        <ele>31.0</ele>
        <time>2019-05-17T08:55:02.176Z</time>
      </trkpt>
      <trkpt lat="39.23670833" lon="-8.674695">
        <ele>31.0</ele>
        <time>2019-05-17T08:55:03.173Z</time>
      </trkpt>
      <trkpt lat="39.23670833" lon="-8.674695">
        <ele>31.0</ele>
        <time>2019-05-17T08:55:04.168Z</time>
      </trkpt>
      <trkpt lat="39.23670833" lon="-8.674695">
        <ele>31.0</ele>
        <time>2019-05-17T08:55:05.171Z</time>
      </trkpt>
      <trkpt lat="39.23670833" lon="-8.674695">
        <ele>31.0</ele>
        <time>2019-05-17T08:55:06.175Z</time>
      </trkpt>
      <trkpt lat="39.23670833" lon="-8.674695">
        <ele>31.0</ele>
        <time>2019-05-17T08:55:07.166Z</time>
      </trkpt>
      <trkpt lat="39.23670833" lon="-8.674695">
        <ele>31.0</ele>
        <time>2019-05-17T08:55:08.171Z</time>
      </trkpt>
      <trkpt lat="39.23670833" lon="-8.674695">
        <ele>31.0</ele>
        <time>2019-05-17T08:55:09.175Z</time>
      </trkpt>
      <trkpt lat="39.23670833" lon="-8.674695">
        <ele>31.0</ele>
        <time>2019-05-17T08:55:10.169Z</time>
      </trkpt>
      <trkpt lat="39.23670833" lon="-8.674695">
        <ele>31.0</ele>
        <time>2019-05-17T08:55:11.172Z</time>
      </trkpt>
      <trkpt lat="39.23670833" lon="-8.674695">
        <ele>31.0</ele>
        <time>2019-05-17T08:55:12.168Z</time>
      </trkpt>
      <trkpt lat="39.23670833" lon="-8.674695">
        <ele>31.0</ele>
        <time>2019-05-17T08:55:13.172Z</time>
      </trkpt>
      <trkpt lat="39.23670833" lon="-8.674695">
        <ele>31.0</ele>
        <time>2019-05-17T08:55:14.165Z</time>
      </trkpt>
      <trkpt lat="39.23670833" lon="-8.674695">
        <ele>31.0</ele>
        <time>2019-05-17T08:55:15.151Z</time>
      </trkpt>
      <trkpt lat="39.23670833" lon="-8.674695">
        <ele>31.0</ele>
        <time>2019-05-17T08:55:16.186Z</time>
      </trkpt>
      <trkpt lat="39.23670833" lon="-8.674695">
        <ele>31.0</ele>
        <time>2019-05-17T08:55:17.171Z</time>
      </trkpt>
      <trkpt lat="39.23670833" lon="-8.674695">
        <ele>31.0</ele>
        <time>2019-05-17T08:55:18.174Z</time>
      </trkpt>
      <trkpt lat="39.23670833" lon="-8.674695">
        <ele>31.0</ele>
        <time>2019-05-17T08:55:19.167Z</time>
      </trkpt>
      <trkpt lat="39.23670833" lon="-8.674695">
        <ele>31.0</ele>
        <time>2019-05-17T08:55:20.172Z</time>
      </trkpt>
      <trkpt lat="39.23670833" lon="-8.674695">
        <ele>31.0</ele>
        <time>2019-05-17T08:55:21.166Z</time>
      </trkpt>
      <trkpt lat="39.23670833" lon="-8.674695">
        <ele>31.0</ele>
        <time>2019-05-17T08:55:22.171Z</time>
      </trkpt>
      <trkpt lat="39.23670833" lon="-8.674695">
        <ele>31.0</ele>
        <time>2019-05-17T08:55:23.166Z</time>
      </trkpt>
      <trkpt lat="39.23670833" lon="-8.674695">
        <ele>31.0</ele>
        <time>2019-05-17T08:55:24.173Z</time>
      </trkpt>
      <trkpt lat="39.23670833" lon="-8.674695">
        <ele>31.0</ele>
        <time>2019-05-17T08:55:25.164Z</time>
      </trkpt>
      <trkpt lat="39.23670833" lon="-8.674695">
        <ele>31.0</ele>
        <time>2019-05-17T08:55:26.171Z</time>
      </trkpt>
      <trkpt lat="39.23670833" lon="-8.674695">
        <ele>31.0</ele>
        <time>2019-05-17T08:55:27.172Z</time>
      </trkpt>
      <trkpt lat="39.23672833" lon="-8.67469833">
        <ele>29.0</ele>
        <time>2019-05-17T08:55:28.170Z</time>
      </trkpt>
      <trkpt lat="39.23672833" lon="-8.67469833">
        <ele>29.0</ele>
        <time>2019-05-17T08:55:29.166Z</time>
      </trkpt>
      <trkpt lat="39.23675667" lon="-8.67470333">
        <ele>29.0</ele>
        <time>2019-05-17T08:55:30.183Z</time>
      </trkpt>
      <trkpt lat="39.23675667" lon="-8.67470333">
        <ele>29.0</ele>
        <time>2019-05-17T08:55:31.166Z</time>
      </trkpt>
      <trkpt lat="39.23679667" lon="-8.67471167">
        <ele>29.0</ele>
        <time>2019-05-17T08:55:32.178Z</time>
      </trkpt>
      <trkpt lat="39.23679667" lon="-8.67471167">
        <ele>29.0</ele>
        <time>2019-05-17T08:55:33.189Z</time>
      </trkpt>
      <trkpt lat="39.23685" lon="-8.67473333">
        <ele>30.0</ele>
        <time>2019-05-17T08:55:34.162Z</time>
      </trkpt>
      <trkpt lat="39.23685" lon="-8.67473333">
        <ele>30.0</ele>
        <time>2019-05-17T08:55:35.177Z</time>
      </trkpt>
      <trkpt lat="39.23690333" lon="-8.67476833">
        <ele>30.0</ele>
        <time>2019-05-17T08:55:36.185Z</time>
      </trkpt>
      <trkpt lat="39.23690333" lon="-8.67476833">
        <ele>30.0</ele>
        <time>2019-05-17T08:55:37.151Z</time>
      </trkpt>
      <trkpt lat="39.23695333" lon="-8.67481833">
        <ele>30.0</ele>
        <time>2019-05-17T08:55:38.163Z</time>
      </trkpt>
      <trkpt lat="39.23695333" lon="-8.67481833">
        <ele>30.0</ele>
        <time>2019-05-17T08:55:39.160Z</time>
      </trkpt>
      <trkpt lat="39.23700167" lon="-8.67488667">
        <ele>30.0</ele>
        <time>2019-05-17T08:55:40.172Z</time>
      </trkpt>
      <trkpt lat="39.23702" lon="-8.67492667">
        <ele>29.0</ele>
        <time>2019-05-17T08:55:41.150Z</time>
      </trkpt>
      <trkpt lat="39.23702" lon="-8.67492667">
        <ele>29.0</ele>
        <time>2019-05-17T08:55:42.162Z</time>
      </trkpt>
      <trkpt lat="39.23703833" lon="-8.67500833">
        <ele>29.0</ele>
        <time>2019-05-17T08:55:43.181Z</time>
      </trkpt>
      <trkpt lat="39.23703833" lon="-8.67500833">
        <ele>29.0</ele>
        <time>2019-05-17T08:55:44.189Z</time>
      </trkpt>
      <trkpt lat="39.237045" lon="-8.67511">
        <ele>29.0</ele>
        <time>2019-05-17T08:55:45.170Z</time>
      </trkpt>
      <trkpt lat="39.237045" lon="-8.67511">
        <ele>29.0</ele>
        <time>2019-05-17T08:55:46.179Z</time>
      </trkpt>
      <trkpt lat="39.23704667" lon="-8.67520667">
        <ele>28.0</ele>
        <time>2019-05-17T08:55:47.186Z</time>
      </trkpt>
      <trkpt lat="39.23704667" lon="-8.67525">
        <ele>28.0</ele>
        <time>2019-05-17T08:55:48.166Z</time>
      </trkpt>
      <trkpt lat="39.23704667" lon="-8.67525">
        <ele>28.0</ele>
        <time>2019-05-17T08:55:49.154Z</time>
      </trkpt>
      <trkpt lat="39.23705" lon="-8.67532">
        <ele>27.0</ele>
        <time>2019-05-17T08:55:50.167Z</time>
      </trkpt>
      <trkpt lat="39.23705" lon="-8.67532">
        <ele>27.0</ele>
        <time>2019-05-17T08:55:51.174Z</time>
      </trkpt>
      <trkpt lat="39.23705" lon="-8.675385">
        <ele>26.0</ele>
        <time>2019-05-17T08:55:52.159Z</time>
      </trkpt>
      <trkpt lat="39.23705" lon="-8.675385">
        <ele>26.0</ele>
        <time>2019-05-17T08:55:53.178Z</time>
      </trkpt>
      <trkpt lat="39.23704" lon="-8.67545">
        <ele>25.0</ele>
        <time>2019-05-17T08:55:54.150Z</time>
      </trkpt>
      <trkpt lat="39.23704" lon="-8.67545">
        <ele>25.0</ele>
        <time>2019-05-17T08:55:55.164Z</time>
      </trkpt>
      <trkpt lat="39.23703833" lon="-8.67551833">
        <ele>23.0</ele>
        <time>2019-05-17T08:55:56.179Z</time>
      </trkpt>
      <trkpt lat="39.23703833" lon="-8.67551833">
        <ele>23.0</ele>
        <time>2019-05-17T08:55:57.154Z</time>
      </trkpt>
      <trkpt lat="39.23703833" lon="-8.67559167">
        <ele>22.0</ele>
        <time>2019-05-17T08:55:58.181Z</time>
      </trkpt>
      <trkpt lat="39.23703833" lon="-8.67559167">
        <ele>22.0</ele>
        <time>2019-05-17T08:55:59.153Z</time>
      </trkpt>
      <trkpt lat="39.23705" lon="-8.675675">
        <ele>22.0</ele>
        <time>2019-05-17T08:56:00.174Z</time>
      </trkpt>
      <trkpt lat="39.23705" lon="-8.675675">
        <ele>22.0</ele>
        <time>2019-05-17T08:56:01.171Z</time>
      </trkpt>
      <trkpt lat="39.23708167" lon="-8.675745">
        <ele>21.0</ele>
        <time>2019-05-17T08:56:02.186Z</time>
      </trkpt>
      <trkpt lat="39.23708167" lon="-8.675745">
        <ele>21.0</ele>
        <time>2019-05-17T08:56:03.159Z</time>
      </trkpt>
      <trkpt lat="39.23712333" lon="-8.67581">
        <ele>20.0</ele>
        <time>2019-05-17T08:56:04.153Z</time>
      </trkpt>
      <trkpt lat="39.23712333" lon="-8.67581">
        <ele>20.0</ele>
        <time>2019-05-17T08:56:05.156Z</time>
      </trkpt>
      <trkpt lat="39.23717833" lon="-8.67586333">
        <ele>19.0</ele>
        <time>2019-05-17T08:56:06.172Z</time>
      </trkpt>
      <trkpt lat="39.23717833" lon="-8.67586333">
        <ele>19.0</ele>
        <time>2019-05-17T08:56:07.174Z</time>
      </trkpt>
      <trkpt lat="39.23726333" lon="-8.67588333">
        <ele>19.0</ele>
        <time>2019-05-17T08:56:08.185Z</time>
      </trkpt>
      <trkpt lat="39.23726333" lon="-8.67588333">
        <ele>19.0</ele>
        <time>2019-05-17T08:56:09.187Z</time>
      </trkpt>
      <trkpt lat="39.23735833" lon="-8.675865">
        <ele>18.0</ele>
        <time>2019-05-17T08:56:10.173Z</time>
      </trkpt>
      <trkpt lat="39.23735833" lon="-8.675865">
        <ele>18.0</ele>
        <time>2019-05-17T08:56:11.185Z</time>
      </trkpt>
      <trkpt lat="39.23745333" lon="-8.67585">
        <ele>17.0</ele>
        <time>2019-05-17T08:56:12.156Z</time>
      </trkpt>
      <trkpt lat="39.23745333" lon="-8.67585">
        <ele>17.0</ele>
        <time>2019-05-17T08:56:13.182Z</time>
      </trkpt>
      <trkpt lat="39.23752167" lon="-8.67581333">
        <ele>17.0</ele>
        <time>2019-05-17T08:56:14.152Z</time>
      </trkpt>
      <trkpt lat="39.23752167" lon="-8.67581333">
        <ele>17.0</ele>
        <time>2019-05-17T08:56:15.165Z</time>
      </trkpt>
      <trkpt lat="39.23756833" lon="-8.67576333">
        <ele>17.0</ele>
        <time>2019-05-17T08:56:16.177Z</time>
      </trkpt>
      <trkpt lat="39.23756833" lon="-8.67576333">
        <ele>17.0</ele>
        <time>2019-05-17T08:56:17.154Z</time>
      </trkpt>
      <trkpt lat="39.23759667" lon="-8.675705">
        <ele>18.0</ele>
        <time>2019-05-17T08:56:18.169Z</time>
      </trkpt>
      <trkpt lat="39.23759667" lon="-8.675705">
        <ele>18.0</ele>
        <time>2019-05-17T08:56:19.182Z</time>
      </trkpt>
      <trkpt lat="39.237615" lon="-8.67564667">
        <ele>18.0</ele>
        <time>2019-05-17T08:56:20.190Z</time>
      </trkpt>
      <trkpt lat="39.237615" lon="-8.67564667">
        <ele>18.0</ele>
        <time>2019-05-17T08:56:21.157Z</time>
      </trkpt>
      <trkpt lat="39.237605" lon="-8.675595">
        <ele>19.0</ele>
        <time>2019-05-17T08:56:22.172Z</time>
      </trkpt>
      <trkpt lat="39.237605" lon="-8.675595">
        <ele>19.0</ele>
        <time>2019-05-17T08:56:23.183Z</time>
      </trkpt>
      <trkpt lat="39.237575" lon="-8.67556333">
        <ele>19.0</ele>
        <time>2019-05-17T08:56:24.156Z</time>
      </trkpt>
      <trkpt lat="39.237575" lon="-8.67556333">
        <ele>19.0</ele>
        <time>2019-05-17T08:56:25.171Z</time>
      </trkpt>
      <trkpt lat="39.23754833" lon="-8.67552833">
        <ele>20.0</ele>
        <time>2019-05-17T08:56:26.180Z</time>
      </trkpt>
      <trkpt lat="39.23754833" lon="-8.67552833">
        <ele>20.0</ele>
        <time>2019-05-17T08:56:27.156Z</time>
      </trkpt>
      <trkpt lat="39.23754" lon="-8.675475">
        <ele>20.0</ele>
        <time>2019-05-17T08:56:28.173Z</time>
      </trkpt>
      <trkpt lat="39.23754" lon="-8.675475">
        <ele>20.0</ele>
        <time>2019-05-17T08:56:29.171Z</time>
      </trkpt>
      <trkpt lat="39.23753167" lon="-8.67541833">
        <ele>20.0</ele>
        <time>2019-05-17T08:56:30.179Z</time>
      </trkpt>
      <trkpt lat="39.23753167" lon="-8.67541833">
        <ele>20.0</ele>
        <time>2019-05-17T08:56:31.156Z</time>
      </trkpt>
      <trkpt lat="39.23753167" lon="-8.67537667">
        <ele>20.0</ele>
        <time>2019-05-17T08:56:32.169Z</time>
      </trkpt>
      <trkpt lat="39.23753167" lon="-8.67537667">
        <ele>20.0</ele>
        <time>2019-05-17T08:56:33.180Z</time>
      </trkpt>
      <trkpt lat="39.23752" lon="-8.67532667">
        <ele>20.0</ele>
        <time>2019-05-17T08:56:34.150Z</time>
      </trkpt>
      <trkpt lat="39.23752" lon="-8.67532667">
        <ele>20.0</ele>
        <time>2019-05-17T08:56:35.163Z</time>
      </trkpt>
      <trkpt lat="39.23751667" lon="-8.67527333">
        <ele>21.0</ele>
        <time>2019-05-17T08:56:36.191Z</time>
      </trkpt>
      <trkpt lat="39.23751667" lon="-8.67527333">
        <ele>21.0</ele>
        <time>2019-05-17T08:56:37.188Z</time>
      </trkpt>
      <trkpt lat="39.23751" lon="-8.67521667">
        <ele>21.0</ele>
        <time>2019-05-17T08:56:38.162Z</time>
      </trkpt>
      <trkpt lat="39.23751" lon="-8.67518333">
        <ele>21.0</ele>
        <time>2019-05-17T08:56:39.182Z</time>
      </trkpt>
      <trkpt lat="39.23751" lon="-8.67518333">
        <ele>21.0</ele>
        <time>2019-05-17T08:56:40.151Z</time>
      </trkpt>
      <trkpt lat="39.23751333" lon="-8.67510667">
        <ele>21.0</ele>
        <time>2019-05-17T08:56:41.161Z</time>
      </trkpt>
      <trkpt lat="39.237515" lon="-8.67506667">
        <ele>21.0</ele>
        <time>2019-05-17T08:56:42.154Z</time>
      </trkpt>
      <trkpt lat="39.237515" lon="-8.67506667">
        <ele>21.0</ele>
        <time>2019-05-17T08:56:43.179Z</time>
      </trkpt>
      <trkpt lat="39.23751333" lon="-8.674995">
        <ele>21.0</ele>
        <time>2019-05-17T08:56:44.189Z</time>
      </trkpt>
      <trkpt lat="39.23751333" lon="-8.674995">
        <ele>21.0</ele>
        <time>2019-05-17T08:56:45.157Z</time>
      </trkpt>
      <trkpt lat="39.23751167" lon="-8.67493333">
        <ele>21.0</ele>
        <time>2019-05-17T08:56:46.188Z</time>
      </trkpt>
      <trkpt lat="39.23751333" lon="-8.67491">
        <ele>21.0</ele>
        <time>2019-05-17T08:56:47.165Z</time>
      </trkpt>
      <trkpt lat="39.23751167" lon="-8.67489167">
        <ele>21.0</ele>
        <time>2019-05-17T08:56:48.186Z</time>
      </trkpt>
      <trkpt lat="39.23751167" lon="-8.67489167">
        <ele>21.0</ele>
        <time>2019-05-17T08:56:49.158Z</time>
      </trkpt>
      <trkpt lat="39.237505" lon="-8.67485667">
        <ele>21.0</ele>
        <time>2019-05-17T08:56:50.192Z</time>
      </trkpt>
      <trkpt lat="39.237505" lon="-8.67485667">
        <ele>21.0</ele>
        <time>2019-05-17T08:56:51.186Z</time>
      </trkpt>
      <trkpt lat="39.23750167" lon="-8.67481833">
        <ele>21.0</ele>
        <time>2019-05-17T08:56:52.160Z</time>
      </trkpt>
      <trkpt lat="39.23750167" lon="-8.67481833">
        <ele>21.0</ele>
        <time>2019-05-17T08:56:53.170Z</time>
      </trkpt>
      <trkpt lat="39.23751333" lon="-8.67478167">
        <ele>21.0</ele>
        <time>2019-05-17T08:56:54.181Z</time>
      </trkpt>
      <trkpt lat="39.23751333" lon="-8.67478167">
        <ele>21.0</ele>
        <time>2019-05-17T08:56:55.178Z</time>
      </trkpt>
      <trkpt lat="39.23753667" lon="-8.67474">
        <ele>21.0</ele>
        <time>2019-05-17T08:56:56.188Z</time>
      </trkpt>
      <trkpt lat="39.23753667" lon="-8.67474">
        <ele>21.0</ele>
        <time>2019-05-17T08:56:57.165Z</time>
      </trkpt>
      <trkpt lat="39.23755333" lon="-8.6747">
        <ele>21.0</ele>
        <time>2019-05-17T08:56:58.151Z</time>
      </trkpt>
      <trkpt lat="39.23755333" lon="-8.6747">
        <ele>21.0</ele>
        <time>2019-05-17T08:56:59.157Z</time>
      </trkpt>
      <trkpt lat="39.23756167" lon="-8.67464667">
        <ele>21.0</ele>
        <time>2019-05-17T08:57:00.178Z</time>
      </trkpt>
      <trkpt lat="39.23756167" lon="-8.67464667">
        <ele>21.0</ele>
        <time>2019-05-17T08:57:01.160Z</time>
      </trkpt>
      <trkpt lat="39.237575" lon="-8.67459">
        <ele>21.0</ele>
        <time>2019-05-17T08:57:02.170Z</time>
      </trkpt>
      <trkpt lat="39.237575" lon="-8.67459">
        <ele>21.0</ele>
        <time>2019-05-17T08:57:03.185Z</time>
      </trkpt>
      <trkpt lat="39.23759167" lon="-8.674535">
        <ele>21.0</ele>
        <time>2019-05-17T08:57:04.153Z</time>
      </trkpt>
      <trkpt lat="39.23759167" lon="-8.674535">
        <ele>21.0</ele>
        <time>2019-05-17T08:57:05.184Z</time>
      </trkpt>
      <trkpt lat="39.23762667" lon="-8.67448167">
        <ele>20.0</ele>
        <time>2019-05-17T08:57:06.172Z</time>
      </trkpt>
      <trkpt lat="39.23762667" lon="-8.67448167">
        <ele>20.0</ele>
        <time>2019-05-17T08:57:07.155Z</time>
      </trkpt>
      <trkpt lat="39.23765" lon="-8.67442333">
        <ele>20.0</ele>
        <time>2019-05-17T08:57:08.165Z</time>
      </trkpt>
      <trkpt lat="39.23766" lon="-8.674395">
        <ele>20.0</ele>
        <time>2019-05-17T08:57:09.181Z</time>
      </trkpt>
      <trkpt lat="39.23766" lon="-8.674395">
        <ele>20.0</ele>
        <time>2019-05-17T08:57:10.174Z</time>
      </trkpt>
      <trkpt lat="39.237675" lon="-8.67435">
        <ele>20.0</ele>
        <time>2019-05-17T08:57:11.185Z</time>
      </trkpt>
      <trkpt lat="39.23768167" lon="-8.67432833">
        <ele>20.0</ele>
        <time>2019-05-17T08:57:12.166Z</time>
      </trkpt>
      <trkpt lat="39.23768167" lon="-8.67432833">
        <ele>20.0</ele>
        <time>2019-05-17T08:57:13.177Z</time>
      </trkpt>
      <trkpt lat="39.23767667" lon="-8.67428">
        <ele>20.0</ele>
        <time>2019-05-17T08:57:14.186Z</time>
      </trkpt>
      <trkpt lat="39.23768" lon="-8.67425">
        <ele>20.0</ele>
        <time>2019-05-17T08:57:15.169Z</time>
      </trkpt>
      <trkpt lat="39.23768" lon="-8.67425">
        <ele>20.0</ele>
        <time>2019-05-17T08:57:16.161Z</time>
      </trkpt>
      <trkpt lat="39.23769667" lon="-8.67421833">
        <ele>20.0</ele>
        <time>2019-05-17T08:57:17.179Z</time>
      </trkpt>
      <trkpt lat="39.23769667" lon="-8.67421833">
        <ele>20.0</ele>
        <time>2019-05-17T08:57:18.188Z</time>
      </trkpt>
      <trkpt lat="39.237715" lon="-8.67418667">
        <ele>20.0</ele>
        <time>2019-05-17T08:57:19.162Z</time>
      </trkpt>
      <trkpt lat="39.23772167" lon="-8.67416667">
        <ele>19.0</ele>
        <time>2019-05-17T08:57:20.184Z</time>
      </trkpt>
      <trkpt lat="39.23772167" lon="-8.67416667">
        <ele>19.0</ele>
        <time>2019-05-17T08:57:21.161Z</time>
      </trkpt>
      <trkpt lat="39.23774833" lon="-8.67412167">
        <ele>19.0</ele>
        <time>2019-05-17T08:57:22.174Z</time>
      </trkpt>
      <trkpt lat="39.23774833" lon="-8.67412167">
        <ele>19.0</ele>
        <time>2019-05-17T08:57:23.189Z</time>
      </trkpt>
      <trkpt lat="39.23778" lon="-8.67407333">
        <ele>19.0</ele>
        <time>2019-05-17T08:57:24.170Z</time>
      </trkpt>
      <trkpt lat="39.23778" lon="-8.67407333">
        <ele>19.0</ele>
        <time>2019-05-17T08:57:25.172Z</time>
      </trkpt>
      <trkpt lat="39.23780833" lon="-8.67401667">
        <ele>18.0</ele>
        <time>2019-05-17T08:57:26.170Z</time>
      </trkpt>
      <trkpt lat="39.23780833" lon="-8.67401667">
        <ele>18.0</ele>
        <time>2019-05-17T08:57:27.173Z</time>
      </trkpt>
      <trkpt lat="39.23784333" lon="-8.673955">
        <ele>18.0</ele>
        <time>2019-05-17T08:57:28.180Z</time>
      </trkpt>
      <trkpt lat="39.23784333" lon="-8.673955">
        <ele>18.0</ele>
        <time>2019-05-17T08:57:29.151Z</time>
      </trkpt>
      <trkpt lat="39.23787333" lon="-8.67389333">
        <ele>18.0</ele>
        <time>2019-05-17T08:57:30.168Z</time>
      </trkpt>
      <trkpt lat="39.23787333" lon="-8.67389333">
        <ele>18.0</ele>
        <time>2019-05-17T08:57:31.180Z</time>
      </trkpt>
      <trkpt lat="39.23787833" lon="-8.67382333">
        <ele>17.0</ele>
        <time>2019-05-17T08:57:32.175Z</time>
      </trkpt>
      <trkpt lat="39.23787833" lon="-8.67382333">
        <ele>17.0</ele>
        <time>2019-05-17T08:57:33.176Z</time>
      </trkpt>
      <trkpt lat="39.23788" lon="-8.67375833">
        <ele>16.0</ele>
        <time>2019-05-17T08:57:34.152Z</time>
      </trkpt>
      <trkpt lat="39.23788" lon="-8.67372167">
        <ele>16.0</ele>
        <time>2019-05-17T08:57:35.176Z</time>
      </trkpt>
      <trkpt lat="39.23788333" lon="-8.67367833">
        <ele>16.0</ele>
        <time>2019-05-17T08:57:36.162Z</time>
      </trkpt>
      <trkpt lat="39.23788333" lon="-8.67367833">
        <ele>16.0</ele>
        <time>2019-05-17T08:57:37.152Z</time>
      </trkpt>
      <trkpt lat="39.23786333" lon="-8.67359667">
        <ele>16.0</ele>
        <time>2019-05-17T08:57:38.166Z</time>
      </trkpt>
      <trkpt lat="39.23786333" lon="-8.67359667">
        <ele>16.0</ele>
        <time>2019-05-17T08:57:39.185Z</time>
      </trkpt>
      <trkpt lat="39.23787167" lon="-8.67351167">
        <ele>15.0</ele>
        <time>2019-05-17T08:57:40.159Z</time>
      </trkpt>
      <trkpt lat="39.23787167" lon="-8.67351167">
        <ele>15.0</ele>
        <time>2019-05-17T08:57:41.182Z</time>
      </trkpt>
      <trkpt lat="39.23787167" lon="-8.67342">
        <ele>15.0</ele>
        <time>2019-05-17T08:57:42.166Z</time>
      </trkpt>
      <trkpt lat="39.23787167" lon="-8.67342">
        <ele>15.0</ele>
        <time>2019-05-17T08:57:43.159Z</time>
      </trkpt>
      <trkpt lat="39.23784333" lon="-8.67334333">
        <ele>16.0</ele>
        <time>2019-05-17T08:57:44.179Z</time>
      </trkpt>
      <trkpt lat="39.23784333" lon="-8.67334333">
        <ele>16.0</ele>
        <time>2019-05-17T08:57:45.171Z</time>
      </trkpt>
      <trkpt lat="39.23783667" lon="-8.67325833">
        <ele>16.0</ele>
        <time>2019-05-17T08:57:46.185Z</time>
      </trkpt>
      <trkpt lat="39.237845" lon="-8.67322667">
        <ele>16.0</ele>
        <time>2019-05-17T08:57:47.157Z</time>
      </trkpt>
      <trkpt lat="39.23786833" lon="-8.67321">
        <ele>16.0</ele>
        <time>2019-05-17T08:57:48.175Z</time>
      </trkpt>
      <trkpt lat="39.23786833" lon="-8.67321">
        <ele>16.0</ele>
        <time>2019-05-17T08:57:49.152Z</time>
      </trkpt>
      <trkpt lat="39.23791833" lon="-8.67320333">
        <ele>15.0</ele>
        <time>2019-05-17T08:57:50.165Z</time>
      </trkpt>
      <trkpt lat="39.23793833" lon="-8.673205">
        <ele>15.0</ele>
        <time>2019-05-17T08:57:51.151Z</time>
      </trkpt>
      <trkpt lat="39.23793833" lon="-8.673205">
        <ele>15.0</ele>
        <time>2019-05-17T08:57:52.164Z</time>
      </trkpt>
      <trkpt lat="39.23797167" lon="-8.673205">
        <ele>15.0</ele>
        <time>2019-05-17T08:57:53.179Z</time>
      </trkpt>
      <trkpt lat="39.23798833" lon="-8.67320167">
        <ele>16.0</ele>
        <time>2019-05-17T08:57:54.189Z</time>
      </trkpt>
      <trkpt lat="39.23798833" lon="-8.67320167">
        <ele>16.0</ele>
        <time>2019-05-17T08:57:55.158Z</time>
      </trkpt>
      <trkpt lat="39.238015" lon="-8.673195">
        <ele>17.0</ele>
        <time>2019-05-17T08:57:56.167Z</time>
      </trkpt>
      <trkpt lat="39.23803" lon="-8.67319833">
        <ele>17.0</ele>
        <time>2019-05-17T08:57:57.153Z</time>
      </trkpt>
      <trkpt lat="39.23803" lon="-8.67319833">
        <ele>17.0</ele>
        <time>2019-05-17T08:57:58.165Z</time>
      </trkpt>
      <trkpt lat="39.23807333" lon="-8.67319">
        <ele>17.0</ele>
        <time>2019-05-17T08:57:59.174Z</time>
      </trkpt>
      <trkpt lat="39.238095" lon="-8.67317333">
        <ele>17.0</ele>
        <time>2019-05-17T08:58:00.162Z</time>
      </trkpt>
      <trkpt lat="39.238095" lon="-8.67317333">
        <ele>17.0</ele>
        <time>2019-05-17T08:58:01.176Z</time>
      </trkpt>
      <trkpt lat="39.23812667" lon="-8.67316333">
        <ele>17.0</ele>
        <time>2019-05-17T08:58:02.155Z</time>
      </trkpt>
      <trkpt lat="39.23812667" lon="-8.67316333">
        <ele>17.0</ele>
        <time>2019-05-17T08:58:03.165Z</time>
      </trkpt>
      <trkpt lat="39.23816833" lon="-8.67316">
        <ele>17.0</ele>
        <time>2019-05-17T08:58:04.175Z</time>
      </trkpt>
      <trkpt lat="39.23816833" lon="-8.67316">
        <ele>17.0</ele>
        <time>2019-05-17T08:58:05.184Z</time>
      </trkpt>
      <trkpt lat="39.23822" lon="-8.67317333">
        <ele>18.0</ele>
        <time>2019-05-17T08:58:06.154Z</time>
      </trkpt>
      <trkpt lat="39.23822" lon="-8.67317333">
        <ele>18.0</ele>
        <time>2019-05-17T08:58:07.170Z</time>
      </trkpt>
      <trkpt lat="39.23826167" lon="-8.67317833">
        <ele>19.0</ele>
        <time>2019-05-17T08:58:08.168Z</time>
      </trkpt>
      <trkpt lat="39.23827667" lon="-8.67318">
        <ele>20.0</ele>
        <time>2019-05-17T08:58:09.170Z</time>
      </trkpt>
      <trkpt lat="39.23827667" lon="-8.67318">
        <ele>20.0</ele>
        <time>2019-05-17T08:58:10.183Z</time>
      </trkpt>
      <trkpt lat="39.23830667" lon="-8.673195">
        <ele>21.0</ele>
        <time>2019-05-17T08:58:11.160Z</time>
      </trkpt>
      <trkpt lat="39.23832167" lon="-8.673215">
        <ele>21.0</ele>
        <time>2019-05-17T08:58:12.151Z</time>
      </trkpt>
      <trkpt lat="39.23832167" lon="-8.673215">
        <ele>21.0</ele>
        <time>2019-05-17T08:58:13.163Z</time>
      </trkpt>
      <trkpt lat="39.238355" lon="-8.673245">
        <ele>23.0</ele>
        <time>2019-05-17T08:58:14.174Z</time>
      </trkpt>
      <trkpt lat="39.238355" lon="-8.673245">
        <ele>23.0</ele>
        <time>2019-05-17T08:58:15.158Z</time>
      </trkpt>
      <trkpt lat="39.23840333" lon="-8.67326333">
        <ele>22.0</ele>
        <time>2019-05-17T08:58:16.173Z</time>
      </trkpt>
      <trkpt lat="39.23843" lon="-8.673275">
        <ele>22.0</ele>
        <time>2019-05-17T08:58:17.155Z</time>
      </trkpt>
      <trkpt lat="39.23846167" lon="-8.67329">
        <ele>22.0</ele>
        <time>2019-05-17T08:58:18.186Z</time>
      </trkpt>
      <trkpt lat="39.23846167" lon="-8.67329">
        <ele>22.0</ele>
        <time>2019-05-17T08:58:19.158Z</time>
      </trkpt>
      <trkpt lat="39.23851667" lon="-8.67331333">
        <ele>22.0</ele>
        <time>2019-05-17T08:58:20.174Z</time>
      </trkpt>
      <trkpt lat="39.23851667" lon="-8.67331333">
        <ele>22.0</ele>
        <time>2019-05-17T08:58:21.158Z</time>
      </trkpt>
      <trkpt lat="39.23856833" lon="-8.67334">
        <ele>22.0</ele>
        <time>2019-05-17T08:58:22.179Z</time>
      </trkpt>
      <trkpt lat="39.23859167" lon="-8.67335333">
        <ele>22.0</ele>
        <time>2019-05-17T08:58:23.163Z</time>
      </trkpt>
      <trkpt lat="39.23861333" lon="-8.67336333">
        <ele>22.0</ele>
        <time>2019-05-17T08:58:24.185Z</time>
      </trkpt>
      <trkpt lat="39.23861333" lon="-8.67336333">
        <ele>22.0</ele>
        <time>2019-05-17T08:58:25.163Z</time>
      </trkpt>
      <trkpt lat="39.23866167" lon="-8.67338167">
        <ele>21.0</ele>
        <time>2019-05-17T08:58:26.181Z</time>
      </trkpt>
      <trkpt lat="39.23866167" lon="-8.67338167">
        <ele>21.0</ele>
        <time>2019-05-17T08:58:27.155Z</time>
      </trkpt>
      <trkpt lat="39.23870833" lon="-8.67340333">
        <ele>21.0</ele>
        <time>2019-05-17T08:58:28.177Z</time>
      </trkpt>
      <trkpt lat="39.23870833" lon="-8.67340333">
        <ele>21.0</ele>
        <time>2019-05-17T08:58:29.152Z</time>
      </trkpt>
      <trkpt lat="39.23875667" lon="-8.67342333">
        <ele>21.0</ele>
        <time>2019-05-17T08:58:30.172Z</time>
      </trkpt>
      <trkpt lat="39.23875667" lon="-8.67342333">
        <ele>21.0</ele>
        <time>2019-05-17T08:58:31.161Z</time>
      </trkpt>
      <trkpt lat="39.23880333" lon="-8.67342667">
        <ele>20.0</ele>
        <time>2019-05-17T08:58:32.177Z</time>
      </trkpt>
      <trkpt lat="39.23880333" lon="-8.67342667">
        <ele>20.0</ele>
        <time>2019-05-17T08:58:33.190Z</time>
      </trkpt>
      <trkpt lat="39.23884333" lon="-8.67343667">
        <ele>20.0</ele>
        <time>2019-05-17T08:58:34.163Z</time>
      </trkpt>
      <trkpt lat="39.238865" lon="-8.67344667">
        <ele>20.0</ele>
        <time>2019-05-17T08:58:35.186Z</time>
      </trkpt>
      <trkpt lat="39.23888667" lon="-8.67345667">
        <ele>19.0</ele>
        <time>2019-05-17T08:58:36.175Z</time>
      </trkpt>
      <trkpt lat="39.23888667" lon="-8.67345667">
        <ele>19.0</ele>
        <time>2019-05-17T08:58:37.164Z</time>
      </trkpt>
      <trkpt lat="39.23893333" lon="-8.67348667">
        <ele>19.0</ele>
        <time>2019-05-17T08:58:38.175Z</time>
      </trkpt>
      <trkpt lat="39.23893333" lon="-8.67348667">
        <ele>19.0</ele>
        <time>2019-05-17T08:58:39.150Z</time>
      </trkpt>
      <trkpt lat="39.23898333" lon="-8.673525">
        <ele>18.0</ele>
        <time>2019-05-17T08:58:40.162Z</time>
      </trkpt>
      <trkpt lat="39.23898333" lon="-8.673525">
        <ele>18.0</ele>
        <time>2019-05-17T08:58:41.178Z</time>
      </trkpt>
      <trkpt lat="39.23902833" lon="-8.67357667">
        <ele>18.0</ele>
        <time>2019-05-17T08:58:42.154Z</time>
      </trkpt>
      <trkpt lat="39.23902833" lon="-8.67357667">
        <ele>18.0</ele>
        <time>2019-05-17T08:58:43.161Z</time>
      </trkpt>
      <trkpt lat="39.23906333" lon="-8.673625">
        <ele>17.0</ele>
        <time>2019-05-17T08:58:44.177Z</time>
      </trkpt>
      <trkpt lat="39.23906333" lon="-8.673625">
        <ele>17.0</ele>
        <time>2019-05-17T08:58:45.165Z</time>
      </trkpt>
      <trkpt lat="39.2391" lon="-8.673665">
        <ele>17.0</ele>
        <time>2019-05-17T08:58:46.178Z</time>
      </trkpt>
      <trkpt lat="39.2391" lon="-8.673665">
        <ele>17.0</ele>
        <time>2019-05-17T08:58:47.188Z</time>
      </trkpt>
      <trkpt lat="39.23913667" lon="-8.67369667">
        <ele>17.0</ele>
        <time>2019-05-17T08:58:48.158Z</time>
      </trkpt>
      <trkpt lat="39.23913667" lon="-8.67369667">
        <ele>17.0</ele>
        <time>2019-05-17T08:58:49.165Z</time>
      </trkpt>
      <trkpt lat="39.23917167" lon="-8.67373667">
        <ele>16.0</ele>
        <time>2019-05-17T08:58:50.182Z</time>
      </trkpt>
      <trkpt lat="39.23917167" lon="-8.67373667">
        <ele>16.0</ele>
        <time>2019-05-17T08:58:51.155Z</time>
      </trkpt>
      <trkpt lat="39.239205" lon="-8.673775">
        <ele>16.0</ele>
        <time>2019-05-17T08:58:52.167Z</time>
      </trkpt>
      <trkpt lat="39.239205" lon="-8.673775">
        <ele>16.0</ele>
        <time>2019-05-17T08:58:53.174Z</time>
      </trkpt>
      <trkpt lat="39.23924333" lon="-8.67381333">
        <ele>16.0</ele>
        <time>2019-05-17T08:58:54.190Z</time>
      </trkpt>
      <trkpt lat="39.23924333" lon="-8.67381333">
        <ele>16.0</ele>
        <time>2019-05-17T08:58:55.166Z</time>
      </trkpt>
      <trkpt lat="39.23928167" lon="-8.67385167">
        <ele>16.0</ele>
        <time>2019-05-17T08:58:56.181Z</time>
      </trkpt>
      <trkpt lat="39.23928167" lon="-8.67385167">
        <ele>16.0</ele>
        <time>2019-05-17T08:58:57.166Z</time>
      </trkpt>
      <trkpt lat="39.23932" lon="-8.67389">
        <ele>16.0</ele>
        <time>2019-05-17T08:58:58.180Z</time>
      </trkpt>
      <trkpt lat="39.23932" lon="-8.67389">
        <ele>16.0</ele>
        <time>2019-05-17T08:58:59.187Z</time>
      </trkpt>
      <trkpt lat="39.23936167" lon="-8.67393">
        <ele>15.0</ele>
        <time>2019-05-17T08:59:00.154Z</time>
      </trkpt>
      <trkpt lat="39.23936167" lon="-8.67393">
        <ele>15.0</ele>
        <time>2019-05-17T08:59:01.167Z</time>
      </trkpt>
      <trkpt lat="39.239405" lon="-8.67396667">
        <ele>15.0</ele>
        <time>2019-05-17T08:59:02.178Z</time>
      </trkpt>
      <trkpt lat="39.239405" lon="-8.67396667">
        <ele>15.0</ele>
        <time>2019-05-17T08:59:03.173Z</time>
      </trkpt>
      <trkpt lat="39.23944667" lon="-8.674005">
        <ele>15.0</ele>
        <time>2019-05-17T08:59:04.185Z</time>
      </trkpt>
      <trkpt lat="39.239465" lon="-8.67402333">
        <ele>15.0</ele>
        <time>2019-05-17T08:59:05.172Z</time>
      </trkpt>
      <trkpt lat="39.239485" lon="-8.67404167">
        <ele>15.0</ele>
        <time>2019-05-17T08:59:06.188Z</time>
      </trkpt>
      <trkpt lat="39.239485" lon="-8.67404167">
        <ele>15.0</ele>
        <time>2019-05-17T08:59:07.158Z</time>
      </trkpt>
      <trkpt lat="39.23953167" lon="-8.674065">
        <ele>14.0</ele>
        <time>2019-05-17T08:59:08.169Z</time>
      </trkpt>
      <trkpt lat="39.23953167" lon="-8.674065">
        <ele>14.0</ele>
        <time>2019-05-17T08:59:09.161Z</time>
      </trkpt>
      <trkpt lat="39.23958333" lon="-8.67408667">
        <ele>14.0</ele>
        <time>2019-05-17T08:59:10.176Z</time>
      </trkpt>
      <trkpt lat="39.23958333" lon="-8.67408667">
        <ele>14.0</ele>
        <time>2019-05-17T08:59:11.151Z</time>
      </trkpt>
      <trkpt lat="39.23963333" lon="-8.674105">
        <ele>14.0</ele>
        <time>2019-05-17T08:59:12.162Z</time>
      </trkpt>
      <trkpt lat="39.23963333" lon="-8.674105">
        <ele>14.0</ele>
        <time>2019-05-17T08:59:13.150Z</time>
      </trkpt>
      <trkpt lat="39.23968333" lon="-8.67412333">
        <ele>14.0</ele>
        <time>2019-05-17T08:59:14.166Z</time>
      </trkpt>
      <trkpt lat="39.23968333" lon="-8.67412333">
        <ele>14.0</ele>
        <time>2019-05-17T08:59:15.160Z</time>
      </trkpt>
      <trkpt lat="39.239735" lon="-8.67414333">
        <ele>14.0</ele>
        <time>2019-05-17T08:59:16.177Z</time>
      </trkpt>
      <trkpt lat="39.239735" lon="-8.67414333">
        <ele>14.0</ele>
        <time>2019-05-17T08:59:17.188Z</time>
      </trkpt>
      <trkpt lat="39.239785" lon="-8.674155">
        <ele>14.0</ele>
        <time>2019-05-17T08:59:18.158Z</time>
      </trkpt>
      <trkpt lat="39.239785" lon="-8.674155">
        <ele>14.0</ele>
        <time>2019-05-17T08:59:19.178Z</time>
      </trkpt>
      <trkpt lat="39.239835" lon="-8.674175">
        <ele>13.0</ele>
        <time>2019-05-17T08:59:20.187Z</time>
      </trkpt>
      <trkpt lat="39.239835" lon="-8.674175">
        <ele>13.0</ele>
        <time>2019-05-17T08:59:21.169Z</time>
      </trkpt>
      <trkpt lat="39.23987833" lon="-8.67417333">
        <ele>14.0</ele>
        <time>2019-05-17T08:59:22.157Z</time>
      </trkpt>
      <trkpt lat="39.23987833" lon="-8.67417333">
        <ele>14.0</ele>
        <time>2019-05-17T08:59:23.177Z</time>
      </trkpt>
      <trkpt lat="39.23991167" lon="-8.67414167">
        <ele>14.0</ele>
        <time>2019-05-17T08:59:24.184Z</time>
      </trkpt>
      <trkpt lat="39.23991167" lon="-8.67414167">
        <ele>14.0</ele>
        <time>2019-05-17T08:59:25.152Z</time>
      </trkpt>
      <trkpt lat="39.23991667" lon="-8.67410167">
        <ele>14.0</ele>
        <time>2019-05-17T08:59:26.168Z</time>
      </trkpt>
      <trkpt lat="39.23991667" lon="-8.67408">
        <ele>15.0</ele>
        <time>2019-05-17T08:59:27.150Z</time>
      </trkpt>
      <trkpt lat="39.23991667" lon="-8.67408">
        <ele>15.0</ele>
        <time>2019-05-17T08:59:28.178Z</time>
      </trkpt>
      <trkpt lat="39.23992833" lon="-8.67403333">
        <ele>15.0</ele>
        <time>2019-05-17T08:59:29.188Z</time>
      </trkpt>
      <trkpt lat="39.239935" lon="-8.67400667">
        <ele>15.0</ele>
        <time>2019-05-17T08:59:30.172Z</time>
      </trkpt>
      <trkpt lat="39.239935" lon="-8.67400667">
        <ele>15.0</ele>
        <time>2019-05-17T08:59:31.154Z</time>
      </trkpt>
      <trkpt lat="39.23995" lon="-8.67395167">
        <ele>15.0</ele>
        <time>2019-05-17T08:59:32.168Z</time>
      </trkpt>
      <trkpt lat="39.23995" lon="-8.67395167">
        <ele>15.0</ele>
        <time>2019-05-17T08:59:33.159Z</time>
      </trkpt>
      <trkpt lat="39.23996167" lon="-8.67389833">
        <ele>15.0</ele>
        <time>2019-05-17T08:59:34.170Z</time>
      </trkpt>
      <trkpt lat="39.23996833" lon="-8.67387167">
        <ele>15.0</ele>
        <time>2019-05-17T08:59:35.158Z</time>
      </trkpt>
      <trkpt lat="39.23997333" lon="-8.67384333">
        <ele>15.0</ele>
        <time>2019-05-17T08:59:36.170Z</time>
      </trkpt>
      <trkpt lat="39.23997333" lon="-8.67384333">
        <ele>15.0</ele>
        <time>2019-05-17T08:59:37.185Z</time>
      </trkpt>
      <trkpt lat="39.23997833" lon="-8.67378167">
        <ele>14.0</ele>
        <time>2019-05-17T08:59:38.157Z</time>
      </trkpt>
      <trkpt lat="39.23997833" lon="-8.67378167">
        <ele>14.0</ele>
        <time>2019-05-17T08:59:39.167Z</time>
      </trkpt>
      <trkpt lat="39.23998667" lon="-8.67372333">
        <ele>14.0</ele>
        <time>2019-05-17T08:59:40.183Z</time>
      </trkpt>
      <trkpt lat="39.23998667" lon="-8.67372333">
        <ele>14.0</ele>
        <time>2019-05-17T08:59:41.167Z</time>
      </trkpt>
      <trkpt lat="39.239995" lon="-8.67367">
        <ele>14.0</ele>
        <time>2019-05-17T08:59:42.159Z</time>
      </trkpt>
      <trkpt lat="39.239995" lon="-8.67367">
        <ele>14.0</ele>
        <time>2019-05-17T08:59:43.159Z</time>
      </trkpt>
      <trkpt lat="39.24001667" lon="-8.67362667">
        <ele>13.0</ele>
        <time>2019-05-17T08:59:44.179Z</time>
      </trkpt>
      <trkpt lat="39.24001667" lon="-8.67362667">
        <ele>13.0</ele>
        <time>2019-05-17T08:59:45.162Z</time>
      </trkpt>
      <trkpt lat="39.24003333" lon="-8.67356667">
        <ele>13.0</ele>
        <time>2019-05-17T08:59:46.172Z</time>
      </trkpt>
      <trkpt lat="39.24003333" lon="-8.67356667">
        <ele>13.0</ele>
        <time>2019-05-17T08:59:47.160Z</time>
      </trkpt>
      <trkpt lat="39.24005667" lon="-8.67350333">
        <ele>12.0</ele>
        <time>2019-05-17T08:59:48.171Z</time>
      </trkpt>
      <trkpt lat="39.24005667" lon="-8.67350333">
        <ele>12.0</ele>
        <time>2019-05-17T08:59:49.189Z</time>
      </trkpt>
      <trkpt lat="39.24008" lon="-8.67344">
        <ele>12.0</ele>
        <time>2019-05-17T08:59:50.152Z</time>
      </trkpt>
      <trkpt lat="39.24008" lon="-8.67344">
        <ele>12.0</ele>
        <time>2019-05-17T08:59:51.183Z</time>
      </trkpt>
      <trkpt lat="39.24009333" lon="-8.67338333">
        <ele>11.0</ele>
        <time>2019-05-17T08:59:52.152Z</time>
      </trkpt>
      <trkpt lat="39.24009833" lon="-8.67334667">
        <ele>11.0</ele>
        <time>2019-05-17T08:59:53.187Z</time>
      </trkpt>
      <trkpt lat="39.24011" lon="-8.67331833">
        <ele>11.0</ele>
        <time>2019-05-17T08:59:54.166Z</time>
      </trkpt>
      <trkpt lat="39.24011" lon="-8.67331833">
        <ele>11.0</ele>
        <time>2019-05-17T08:59:55.178Z</time>
      </trkpt>
      <trkpt lat="39.24013167" lon="-8.673265">
        <ele>11.0</ele>
        <time>2019-05-17T08:59:56.150Z</time>
      </trkpt>
      <trkpt lat="39.24013167" lon="-8.673265">
        <ele>11.0</ele>
        <time>2019-05-17T08:59:57.161Z</time>
      </trkpt>
      <trkpt lat="39.24016" lon="-8.67322">
        <ele>11.0</ele>
        <time>2019-05-17T08:59:58.175Z</time>
      </trkpt>
      <trkpt lat="39.24017667" lon="-8.67319667">
        <ele>10.0</ele>
        <time>2019-05-17T08:59:59.152Z</time>
      </trkpt>
      <trkpt lat="39.24019667" lon="-8.67317667">
        <ele>10.0</ele>
        <time>2019-05-17T09:00:00.170Z</time>
      </trkpt>
      <trkpt lat="39.24019667" lon="-8.67317667">
        <ele>10.0</ele>
        <time>2019-05-17T09:00:01.183Z</time>
      </trkpt>
      <trkpt lat="39.24023" lon="-8.673135">
        <ele>10.0</ele>
        <time>2019-05-17T09:00:02.152Z</time>
      </trkpt>
      <trkpt lat="39.24023" lon="-8.673135">
        <ele>10.0</ele>
        <time>2019-05-17T09:00:03.175Z</time>
      </trkpt>
      <trkpt lat="39.24026333" lon="-8.67309667">
        <ele>10.0</ele>
        <time>2019-05-17T09:00:04.168Z</time>
      </trkpt>
      <trkpt lat="39.24026333" lon="-8.67309667">
        <ele>10.0</ele>
        <time>2019-05-17T09:00:05.159Z</time>
      </trkpt>
      <trkpt lat="39.24029667" lon="-8.67305">
        <ele>10.0</ele>
        <time>2019-05-17T09:00:06.166Z</time>
      </trkpt>
      <trkpt lat="39.24029667" lon="-8.67305">
        <ele>10.0</ele>
        <time>2019-05-17T09:00:07.178Z</time>
      </trkpt>
      <trkpt lat="39.24032667" lon="-8.67300833">
        <ele>9.0</ele>
        <time>2019-05-17T09:00:08.172Z</time>
      </trkpt>
      <trkpt lat="39.24032667" lon="-8.67300833">
        <ele>9.0</ele>
        <time>2019-05-17T09:00:09.167Z</time>
      </trkpt>
      <trkpt lat="39.24035167" lon="-8.67295667">
        <ele>9.0</ele>
        <time>2019-05-17T09:00:10.181Z</time>
      </trkpt>
      <trkpt lat="39.240365" lon="-8.67292833">
        <ele>9.0</ele>
        <time>2019-05-17T09:00:11.164Z</time>
      </trkpt>
      <trkpt lat="39.24038333" lon="-8.672905">
        <ele>9.0</ele>
        <time>2019-05-17T09:00:12.150Z</time>
      </trkpt>
      <trkpt lat="39.24038333" lon="-8.672905">
        <ele>9.0</ele>
        <time>2019-05-17T09:00:13.159Z</time>
      </trkpt>
      <trkpt lat="39.240425" lon="-8.67285167">
        <ele>9.0</ele>
        <time>2019-05-17T09:00:14.179Z</time>
      </trkpt>
      <trkpt lat="39.240425" lon="-8.67285167">
        <ele>9.0</ele>
        <time>2019-05-17T09:00:15.161Z</time>
      </trkpt>
      <trkpt lat="39.24046667" lon="-8.6728">
        <ele>9.0</ele>
        <time>2019-05-17T09:00:16.172Z</time>
      </trkpt>
      <trkpt lat="39.24046667" lon="-8.6728">
        <ele>9.0</ele>
        <time>2019-05-17T09:00:17.158Z</time>
      </trkpt>
      <trkpt lat="39.240505" lon="-8.67274833">
        <ele>9.0</ele>
        <time>2019-05-17T09:00:18.166Z</time>
      </trkpt>
      <trkpt lat="39.240505" lon="-8.67274833">
        <ele>9.0</ele>
        <time>2019-05-17T09:00:19.180Z</time>
      </trkpt>
      <trkpt lat="39.24054833" lon="-8.6727">
        <ele>9.0</ele>
        <time>2019-05-17T09:00:20.150Z</time>
      </trkpt>
      <trkpt lat="39.24054833" lon="-8.6727">
        <ele>9.0</ele>
        <time>2019-05-17T09:00:21.170Z</time>
      </trkpt>
      <trkpt lat="39.24058833" lon="-8.67266333">
        <ele>9.0</ele>
        <time>2019-05-17T09:00:22.151Z</time>
      </trkpt>
      <trkpt lat="39.24058833" lon="-8.67266333">
        <ele>9.0</ele>
        <time>2019-05-17T09:00:23.165Z</time>
      </trkpt>
      <trkpt lat="39.24061833" lon="-8.67263167">
        <ele>10.0</ele>
        <time>2019-05-17T09:00:24.175Z</time>
      </trkpt>
      <trkpt lat="39.24061833" lon="-8.67263167">
        <ele>10.0</ele>
        <time>2019-05-17T09:00:25.187Z</time>
      </trkpt>
      <trkpt lat="39.24062667" lon="-8.672595">
        <ele>10.0</ele>
        <time>2019-05-17T09:00:26.188Z</time>
      </trkpt>
      <trkpt lat="39.24062667" lon="-8.672595">
        <ele>10.0</ele>
        <time>2019-05-17T09:00:27.160Z</time>
      </trkpt>
      <trkpt lat="39.24063167" lon="-8.67258667">
        <ele>10.0</ele>
        <time>2019-05-17T09:00:28.167Z</time>
      </trkpt>
      <trkpt lat="39.24063167" lon="-8.67258667">
        <ele>10.0</ele>
        <time>2019-05-17T09:00:29.188Z</time>
      </trkpt>
      <trkpt lat="39.24063167" lon="-8.67258333">
        <ele>10.0</ele>
        <time>2019-05-17T09:00:30.170Z</time>
      </trkpt>
      <trkpt lat="39.24063167" lon="-8.67258333">
        <ele>10.0</ele>
        <time>2019-05-17T09:00:31.162Z</time>
      </trkpt>
      <trkpt lat="39.24063167" lon="-8.67258333">
        <ele>10.0</ele>
        <time>2019-05-17T09:00:32.168Z</time>
      </trkpt>
      <trkpt lat="39.24063167" lon="-8.67258333">
        <ele>10.0</ele>
        <time>2019-05-17T09:00:33.173Z</time>
      </trkpt>
      <trkpt lat="39.24063167" lon="-8.67258333">
        <ele>10.0</ele>
        <time>2019-05-17T09:00:34.180Z</time>
      </trkpt>
      <trkpt lat="39.24063167" lon="-8.67258333">
        <ele>10.0</ele>
        <time>2019-05-17T09:00:35.184Z</time>
      </trkpt>
      <trkpt lat="39.24063167" lon="-8.67258333">
        <ele>10.0</ele>
        <time>2019-05-17T09:00:36.175Z</time>
      </trkpt>
      <trkpt lat="39.24063167" lon="-8.67258333">
        <ele>10.0</ele>
        <time>2019-05-17T09:00:37.168Z</time>
      </trkpt>
      <trkpt lat="39.24063167" lon="-8.67258333">
        <ele>10.0</ele>
        <time>2019-05-17T09:00:38.151Z</time>
      </trkpt>
      <trkpt lat="39.24063167" lon="-8.67258333">
        <ele>10.0</ele>
        <time>2019-05-17T09:00:39.176Z</time>
      </trkpt>
      <trkpt lat="39.24063167" lon="-8.67258333">
        <ele>10.0</ele>
        <time>2019-05-17T09:00:40.172Z</time>
      </trkpt>
      <trkpt lat="39.24063167" lon="-8.67258333">
        <ele>10.0</ele>
        <time>2019-05-17T09:00:41.167Z</time>
      </trkpt>
      <trkpt lat="39.24063167" lon="-8.67258333">
        <ele>10.0</ele>
        <time>2019-05-17T09:00:42.176Z</time>
      </trkpt>
      <trkpt lat="39.24063167" lon="-8.67258333">
        <ele>10.0</ele>
        <time>2019-05-17T09:00:43.171Z</time>
      </trkpt>
      <trkpt lat="39.24063167" lon="-8.67258333">
        <ele>10.0</ele>
        <time>2019-05-17T09:00:44.172Z</time>
      </trkpt>
      <trkpt lat="39.24063167" lon="-8.67258333">
        <ele>10.0</ele>
        <time>2019-05-17T09:00:45.167Z</time>
      </trkpt>
      <trkpt lat="39.24063167" lon="-8.67258333">
        <ele>10.0</ele>
        <time>2019-05-17T09:00:46.172Z</time>
      </trkpt>
      <trkpt lat="39.24063167" lon="-8.67258333">
        <ele>10.0</ele>
        <time>2019-05-17T09:00:47.173Z</time>
      </trkpt>
      <trkpt lat="39.24063167" lon="-8.67258333">
        <ele>10.0</ele>
        <time>2019-05-17T09:00:48.175Z</time>
      </trkpt>
      <trkpt lat="39.24063167" lon="-8.67258333">
        <ele>10.0</ele>
        <time>2019-05-17T09:00:49.168Z</time>
      </trkpt>
      <trkpt lat="39.24063167" lon="-8.67258333">
        <ele>10.0</ele>
        <time>2019-05-17T09:00:50.174Z</time>
      </trkpt>
      <trkpt lat="39.24063167" lon="-8.67258333">
        <ele>10.0</ele>
        <time>2019-05-17T09:00:51.180Z</time>
      </trkpt>
      <trkpt lat="39.24063167" lon="-8.67258333">
        <ele>10.0</ele>
        <time>2019-05-17T09:00:52.186Z</time>
      </trkpt>
      <trkpt lat="39.24063167" lon="-8.67258333">
        <ele>10.0</ele>
        <time>2019-05-17T09:00:53.152Z</time>
      </trkpt>
      <trkpt lat="39.24063167" lon="-8.67258333">
        <ele>10.0</ele>
        <time>2019-05-17T09:00:54.178Z</time>
      </trkpt>
      <trkpt lat="39.24063167" lon="-8.67258333">
        <ele>10.0</ele>
        <time>2019-05-17T09:00:55.182Z</time>
      </trkpt>
      <trkpt lat="39.24063167" lon="-8.67258333">
        <ele>10.0</ele>
        <time>2019-05-17T09:00:56.168Z</time>
      </trkpt>
      <trkpt lat="39.24063167" lon="-8.67258333">
        <ele>10.0</ele>
        <time>2019-05-17T09:00:57.172Z</time>
      </trkpt>
      <trkpt lat="39.24063167" lon="-8.67258333">
        <ele>10.0</ele>
        <time>2019-05-17T09:00:58.167Z</time>
      </trkpt>
      <trkpt lat="39.24063167" lon="-8.67258333">
        <ele>10.0</ele>
        <time>2019-05-17T09:00:59.173Z</time>
      </trkpt>
      <trkpt lat="39.24063167" lon="-8.67258333">
        <ele>10.0</ele>
        <time>2019-05-17T09:01:00.175Z</time>
      </trkpt>
      <trkpt lat="39.24063167" lon="-8.67258333">
        <ele>10.0</ele>
        <time>2019-05-17T09:01:01.167Z</time>
      </trkpt>
      <trkpt lat="39.24063167" lon="-8.67258333">
        <ele>10.0</ele>
        <time>2019-05-17T09:01:02.169Z</time>
      </trkpt>
      <trkpt lat="39.24063167" lon="-8.67258333">
        <ele>10.0</ele>
        <time>2019-05-17T09:01:03.172Z</time>
      </trkpt>
      <trkpt lat="39.24063167" lon="-8.67258333">
        <ele>10.0</ele>
        <time>2019-05-17T09:01:04.167Z</time>
      </trkpt>
      <trkpt lat="39.24063167" lon="-8.67258333">
        <ele>10.0</ele>
        <time>2019-05-17T09:01:05.176Z</time>
      </trkpt>
      <trkpt lat="39.24063167" lon="-8.67258333">
        <ele>10.0</ele>
        <time>2019-05-17T09:01:06.174Z</time>
      </trkpt>
      <trkpt lat="39.24063167" lon="-8.67258333">
        <ele>10.0</ele>
        <time>2019-05-17T09:01:07.167Z</time>
      </trkpt>
      <trkpt lat="39.24067" lon="-8.67254333">
        <ele>11.0</ele>
        <time>2019-05-17T09:01:08.172Z</time>
      </trkpt>
      <trkpt lat="39.24067" lon="-8.67254333">
        <ele>11.0</ele>
        <time>2019-05-17T09:01:09.180Z</time>
      </trkpt>
      <trkpt lat="39.240695" lon="-8.67250667">
        <ele>11.0</ele>
        <time>2019-05-17T09:01:10.171Z</time>
      </trkpt>
      <trkpt lat="39.240705" lon="-8.67248">
        <ele>11.0</ele>
        <time>2019-05-17T09:01:11.171Z</time>
      </trkpt>
      <trkpt lat="39.240715" lon="-8.67244833">
        <ele>12.0</ele>
        <time>2019-05-17T09:01:12.175Z</time>
      </trkpt>
      <trkpt lat="39.240715" lon="-8.67244833">
        <ele>12.0</ele>
        <time>2019-05-17T09:01:13.167Z</time>
      </trkpt>
      <trkpt lat="39.24073167" lon="-8.67237667">
        <ele>12.0</ele>
        <time>2019-05-17T09:01:14.176Z</time>
      </trkpt>
      <trkpt lat="39.24073167" lon="-8.67237667">
        <ele>12.0</ele>
        <time>2019-05-17T09:01:15.186Z</time>
      </trkpt>
      <trkpt lat="39.240745" lon="-8.67231167">
        <ele>12.0</ele>
        <time>2019-05-17T09:01:16.154Z</time>
      </trkpt>
      <trkpt lat="39.240745" lon="-8.67231167">
        <ele>12.0</ele>
        <time>2019-05-17T09:01:17.161Z</time>
      </trkpt>
      <trkpt lat="39.240775" lon="-8.67224">
        <ele>12.0</ele>
        <time>2019-05-17T09:01:18.168Z</time>
      </trkpt>
      <trkpt lat="39.240775" lon="-8.67224">
        <ele>12.0</ele>
        <time>2019-05-17T09:01:19.183Z</time>
      </trkpt>
      <trkpt lat="39.24081667" lon="-8.67216333">
        <ele>12.0</ele>
        <time>2019-05-17T09:01:20.152Z</time>
      </trkpt>
      <trkpt lat="39.24081667" lon="-8.67216333">
        <ele>12.0</ele>
        <time>2019-05-17T09:01:21.162Z</time>
      </trkpt>
      <trkpt lat="39.240865" lon="-8.67209667">
        <ele>12.0</ele>
        <time>2019-05-17T09:01:22.174Z</time>
      </trkpt>
      <trkpt lat="39.240865" lon="-8.67209667">
        <ele>12.0</ele>
        <time>2019-05-17T09:01:23.184Z</time>
      </trkpt>
      <trkpt lat="39.24090667" lon="-8.67203667">
        <ele>12.0</ele>
        <time>2019-05-17T09:01:24.173Z</time>
      </trkpt>
      <trkpt lat="39.24090667" lon="-8.67203667">
        <ele>12.0</ele>
        <time>2019-05-17T09:01:25.181Z</time>
      </trkpt>
      <trkpt lat="39.24093667" lon="-8.671985">
        <ele>12.0</ele>
        <time>2019-05-17T09:01:26.150Z</time>
      </trkpt>
      <trkpt lat="39.24093667" lon="-8.671985">
        <ele>12.0</ele>
        <time>2019-05-17T09:01:27.158Z</time>
      </trkpt>
      <trkpt lat="39.240965" lon="-8.671945">
        <ele>12.0</ele>
        <time>2019-05-17T09:01:28.167Z</time>
      </trkpt>
      <trkpt lat="39.240975" lon="-8.671925">
        <ele>12.0</ele>
        <time>2019-05-17T09:01:29.185Z</time>
      </trkpt>
      <trkpt lat="39.24098667" lon="-8.67191">
        <ele>12.0</ele>
        <time>2019-05-17T09:01:30.170Z</time>
      </trkpt>
      <trkpt lat="39.24098667" lon="-8.67191">
        <ele>12.0</ele>
        <time>2019-05-17T09:01:31.182Z</time>
      </trkpt>
      <trkpt lat="39.24101333" lon="-8.67187333">
        <ele>12.0</ele>
        <time>2019-05-17T09:01:32.154Z</time>
      </trkpt>
      <trkpt lat="39.24101333" lon="-8.67187333">
        <ele>12.0</ele>
        <time>2019-05-17T09:01:33.176Z</time>
      </trkpt>
      <trkpt lat="39.24104333" lon="-8.671835">
        <ele>12.0</ele>
        <time>2019-05-17T09:01:34.164Z</time>
      </trkpt>
      <trkpt lat="39.24106167" lon="-8.67181167">
        <ele>13.0</ele>
        <time>2019-05-17T09:01:35.189Z</time>
      </trkpt>
      <trkpt lat="39.241085" lon="-8.67178167">
        <ele>13.0</ele>
        <time>2019-05-17T09:01:36.161Z</time>
      </trkpt>
      <trkpt lat="39.241085" lon="-8.67178167">
        <ele>13.0</ele>
        <time>2019-05-17T09:01:37.172Z</time>
      </trkpt>
      <trkpt lat="39.24112833" lon="-8.67171333">
        <ele>12.0</ele>
        <time>2019-05-17T09:01:38.184Z</time>
      </trkpt>
      <trkpt lat="39.24112833" lon="-8.67171333">
        <ele>12.0</ele>
        <time>2019-05-17T09:01:39.167Z</time>
      </trkpt>
      <trkpt lat="39.24117" lon="-8.67163667">
        <ele>11.0</ele>
        <time>2019-05-17T09:01:40.177Z</time>
      </trkpt>
      <trkpt lat="39.24117" lon="-8.67163667">
        <ele>11.0</ele>
        <time>2019-05-17T09:01:41.168Z</time>
      </trkpt>
      <trkpt lat="39.24121833" lon="-8.67157333">
        <ele>11.0</ele>
        <time>2019-05-17T09:01:42.167Z</time>
      </trkpt>
      <trkpt lat="39.24121833" lon="-8.67157333">
        <ele>11.0</ele>
        <time>2019-05-17T09:01:43.150Z</time>
      </trkpt>
      <trkpt lat="39.24126667" lon="-8.67152">
        <ele>12.0</ele>
        <time>2019-05-17T09:01:44.167Z</time>
      </trkpt>
      <trkpt lat="39.24129167" lon="-8.67148667">
        <ele>12.0</ele>
        <time>2019-05-17T09:01:45.191Z</time>
      </trkpt>
      <trkpt lat="39.24129167" lon="-8.67148667">
        <ele>12.0</ele>
        <time>2019-05-17T09:01:46.169Z</time>
      </trkpt>
      <trkpt lat="39.24133833" lon="-8.67142333">
        <ele>12.0</ele>
        <time>2019-05-17T09:01:47.179Z</time>
      </trkpt>
      <trkpt lat="39.24136167" lon="-8.67139667">
        <ele>12.0</ele>
        <time>2019-05-17T09:01:48.169Z</time>
      </trkpt>
      <trkpt lat="39.24136167" lon="-8.67139667">
        <ele>12.0</ele>
        <time>2019-05-17T09:01:49.180Z</time>
      </trkpt>
      <trkpt lat="39.24139667" lon="-8.671345">
        <ele>12.0</ele>
        <time>2019-05-17T09:01:50.191Z</time>
      </trkpt>
      <trkpt lat="39.24139667" lon="-8.671345">
        <ele>12.0</ele>
        <time>2019-05-17T09:01:51.177Z</time>
      </trkpt>
      <trkpt lat="39.24143167" lon="-8.67127">
        <ele>12.0</ele>
        <time>2019-05-17T09:01:52.174Z</time>
      </trkpt>
      <trkpt lat="39.24143167" lon="-8.67127">
        <ele>12.0</ele>
        <time>2019-05-17T09:01:53.151Z</time>
      </trkpt>
      <trkpt lat="39.241465" lon="-8.67119167">
        <ele>12.0</ele>
        <time>2019-05-17T09:01:54.161Z</time>
      </trkpt>
      <trkpt lat="39.241465" lon="-8.67119167">
        <ele>12.0</ele>
        <time>2019-05-17T09:01:55.174Z</time>
      </trkpt>
      <trkpt lat="39.241505" lon="-8.67111833">
        <ele>12.0</ele>
        <time>2019-05-17T09:01:56.182Z</time>
      </trkpt>
      <trkpt lat="39.241505" lon="-8.67111833">
        <ele>12.0</ele>
        <time>2019-05-17T09:01:57.158Z</time>
      </trkpt>
      <trkpt lat="39.24154333" lon="-8.67105333">
        <ele>12.0</ele>
        <time>2019-05-17T09:01:58.190Z</time>
      </trkpt>
      <trkpt lat="39.24156333" lon="-8.67102333">
        <ele>12.0</ele>
        <time>2019-05-17T09:01:59.187Z</time>
      </trkpt>
      <trkpt lat="39.24158333" lon="-8.67099333">
        <ele>12.0</ele>
        <time>2019-05-17T09:02:00.166Z</time>
      </trkpt>
      <trkpt lat="39.24158333" lon="-8.67099333">
        <ele>12.0</ele>
        <time>2019-05-17T09:02:01.150Z</time>
      </trkpt>
      <trkpt lat="39.24162" lon="-8.67093">
        <ele>11.0</ele>
        <time>2019-05-17T09:02:02.163Z</time>
      </trkpt>
      <trkpt lat="39.24164" lon="-8.67089667">
        <ele>11.0</ele>
        <time>2019-05-17T09:02:03.190Z</time>
      </trkpt>
      <trkpt lat="39.24164" lon="-8.67089667">
        <ele>11.0</ele>
        <time>2019-05-17T09:02:04.187Z</time>
      </trkpt>
      <trkpt lat="39.24168167" lon="-8.670835">
        <ele>12.0</ele>
        <time>2019-05-17T09:02:05.160Z</time>
      </trkpt>
      <trkpt lat="39.241705" lon="-8.6708">
        <ele>12.0</ele>
        <time>2019-05-17T09:02:06.179Z</time>
      </trkpt>
      <trkpt lat="39.241705" lon="-8.6708">
        <ele>12.0</ele>
        <time>2019-05-17T09:02:07.188Z</time>
      </trkpt>
      <trkpt lat="39.24174833" lon="-8.67073167">
        <ele>12.0</ele>
        <time>2019-05-17T09:02:08.168Z</time>
      </trkpt>
      <trkpt lat="39.24177167" lon="-8.6707">
        <ele>12.0</ele>
        <time>2019-05-17T09:02:09.182Z</time>
      </trkpt>
      <trkpt lat="39.24177167" lon="-8.6707">
        <ele>12.0</ele>
        <time>2019-05-17T09:02:10.151Z</time>
      </trkpt>
      <trkpt lat="39.24181667" lon="-8.67063">
        <ele>11.0</ele>
        <time>2019-05-17T09:02:11.166Z</time>
      </trkpt>
      <trkpt lat="39.24183833" lon="-8.670595">
        <ele>11.0</ele>
        <time>2019-05-17T09:02:12.180Z</time>
      </trkpt>
      <trkpt lat="39.24183833" lon="-8.670595">
        <ele>11.0</ele>
        <time>2019-05-17T09:02:13.150Z</time>
      </trkpt>
      <trkpt lat="39.24187833" lon="-8.67053167">
        <ele>11.0</ele>
        <time>2019-05-17T09:02:14.164Z</time>
      </trkpt>
      <trkpt lat="39.24187833" lon="-8.67053167">
        <ele>11.0</ele>
        <time>2019-05-17T09:02:15.150Z</time>
      </trkpt>
      <trkpt lat="39.24192" lon="-8.67047">
        <ele>11.0</ele>
        <time>2019-05-17T09:02:16.158Z</time>
      </trkpt>
      <trkpt lat="39.24192" lon="-8.67047">
        <ele>11.0</ele>
        <time>2019-05-17T09:02:17.169Z</time>
      </trkpt>
      <trkpt lat="39.24196" lon="-8.67040667">
        <ele>11.0</ele>
        <time>2019-05-17T09:02:18.181Z</time>
      </trkpt>
      <trkpt lat="39.24196" lon="-8.67040667">
        <ele>11.0</ele>
        <time>2019-05-17T09:02:19.173Z</time>
      </trkpt>
      <trkpt lat="39.24200167" lon="-8.67034">
        <ele>11.0</ele>
        <time>2019-05-17T09:02:20.185Z</time>
      </trkpt>
      <trkpt lat="39.24200167" lon="-8.67034">
        <ele>11.0</ele>
        <time>2019-05-17T09:02:21.183Z</time>
      </trkpt>
      <trkpt lat="39.24204667" lon="-8.67027333">
        <ele>11.0</ele>
        <time>2019-05-17T09:02:22.176Z</time>
      </trkpt>
      <trkpt lat="39.24204667" lon="-8.67027333">
        <ele>11.0</ele>
        <time>2019-05-17T09:02:23.185Z</time>
      </trkpt>
      <trkpt lat="39.24209" lon="-8.670205">
        <ele>11.0</ele>
        <time>2019-05-17T09:02:24.157Z</time>
      </trkpt>
      <trkpt lat="39.24209" lon="-8.670205">
        <ele>11.0</ele>
        <time>2019-05-17T09:02:25.182Z</time>
      </trkpt>
      <trkpt lat="39.242135" lon="-8.67013833">
        <ele>11.0</ele>
        <time>2019-05-17T09:02:26.153Z</time>
      </trkpt>
      <trkpt lat="39.242135" lon="-8.67013833">
        <ele>11.0</ele>
        <time>2019-05-17T09:02:27.170Z</time>
      </trkpt>
      <trkpt lat="39.24217833" lon="-8.670075">
        <ele>11.0</ele>
        <time>2019-05-17T09:02:28.164Z</time>
      </trkpt>
      <trkpt lat="39.24217833" lon="-8.670075">
        <ele>11.0</ele>
        <time>2019-05-17T09:02:29.188Z</time>
      </trkpt>
      <trkpt lat="39.24222167" lon="-8.67000833">
        <ele>10.0</ele>
        <time>2019-05-17T09:02:30.177Z</time>
      </trkpt>
      <trkpt lat="39.24222167" lon="-8.67000833">
        <ele>10.0</ele>
        <time>2019-05-17T09:02:31.187Z</time>
      </trkpt>
      <trkpt lat="39.24226833" lon="-8.66994333">
        <ele>11.0</ele>
        <time>2019-05-17T09:02:32.155Z</time>
      </trkpt>
      <trkpt lat="39.24226833" lon="-8.66994333">
        <ele>11.0</ele>
        <time>2019-05-17T09:02:33.172Z</time>
      </trkpt>
      <trkpt lat="39.24231333" lon="-8.66987833">
        <ele>10.0</ele>
        <time>2019-05-17T09:02:34.182Z</time>
      </trkpt>
      <trkpt lat="39.24231333" lon="-8.66987833">
        <ele>10.0</ele>
        <time>2019-05-17T09:02:35.151Z</time>
      </trkpt>
      <trkpt lat="39.24235833" lon="-8.66981167">
        <ele>10.0</ele>
        <time>2019-05-17T09:02:36.158Z</time>
      </trkpt>
      <trkpt lat="39.24235833" lon="-8.66981167">
        <ele>10.0</ele>
        <time>2019-05-17T09:02:37.169Z</time>
      </trkpt>
      <trkpt lat="39.24240333" lon="-8.66974167">
        <ele>10.0</ele>
        <time>2019-05-17T09:02:38.186Z</time>
      </trkpt>
      <trkpt lat="39.24242667" lon="-8.669705">
        <ele>10.0</ele>
        <time>2019-05-17T09:02:39.166Z</time>
      </trkpt>
      <trkpt lat="39.24245" lon="-8.66967">
        <ele>10.0</ele>
        <time>2019-05-17T09:02:40.186Z</time>
      </trkpt>
      <trkpt lat="39.24245" lon="-8.66967">
        <ele>10.0</ele>
        <time>2019-05-17T09:02:41.159Z</time>
      </trkpt>
      <trkpt lat="39.24249667" lon="-8.6696">
        <ele>10.0</ele>
        <time>2019-05-17T09:02:42.167Z</time>
      </trkpt>
      <trkpt lat="39.24249667" lon="-8.6696">
        <ele>10.0</ele>
        <time>2019-05-17T09:02:43.178Z</time>
      </trkpt>
      <trkpt lat="39.24254333" lon="-8.66953333">
        <ele>10.0</ele>
        <time>2019-05-17T09:02:44.153Z</time>
      </trkpt>
      <trkpt lat="39.24254333" lon="-8.66953333">
        <ele>10.0</ele>
        <time>2019-05-17T09:02:45.171Z</time>
      </trkpt>
      <trkpt lat="39.24259" lon="-8.66946667">
        <ele>10.0</ele>
        <time>2019-05-17T09:02:46.151Z</time>
      </trkpt>
      <trkpt lat="39.24259" lon="-8.66946667">
        <ele>10.0</ele>
        <time>2019-05-17T09:02:47.172Z</time>
      </trkpt>
      <trkpt lat="39.242635" lon="-8.66939833">
        <ele>10.0</ele>
        <time>2019-05-17T09:02:48.151Z</time>
      </trkpt>
      <trkpt lat="39.242635" lon="-8.66939833">
        <ele>10.0</ele>
        <time>2019-05-17T09:02:49.178Z</time>
      </trkpt>
      <trkpt lat="39.24268167" lon="-8.66933167">
        <ele>10.0</ele>
        <time>2019-05-17T09:02:50.150Z</time>
      </trkpt>
      <trkpt lat="39.24270333" lon="-8.6693">
        <ele>10.0</ele>
        <time>2019-05-17T09:02:51.182Z</time>
      </trkpt>
      <trkpt lat="39.24270333" lon="-8.6693">
        <ele>10.0</ele>
        <time>2019-05-17T09:02:52.181Z</time>
      </trkpt>
      <trkpt lat="39.24274667" lon="-8.669235">
        <ele>10.0</ele>
        <time>2019-05-17T09:02:53.157Z</time>
      </trkpt>
      <trkpt lat="39.24276833" lon="-8.669205">
        <ele>10.0</ele>
        <time>2019-05-17T09:02:54.173Z</time>
      </trkpt>
      <trkpt lat="39.24276833" lon="-8.669205">
        <ele>10.0</ele>
        <time>2019-05-17T09:02:55.151Z</time>
      </trkpt>
      <trkpt lat="39.24281167" lon="-8.66914333">
        <ele>10.0</ele>
        <time>2019-05-17T09:02:56.160Z</time>
      </trkpt>
      <trkpt lat="39.24281167" lon="-8.66914333">
        <ele>10.0</ele>
        <time>2019-05-17T09:02:57.172Z</time>
      </trkpt>
      <trkpt lat="39.24285333" lon="-8.66907833">
        <ele>10.0</ele>
        <time>2019-05-17T09:02:58.186Z</time>
      </trkpt>
      <trkpt lat="39.242875" lon="-8.66904667">
        <ele>10.0</ele>
        <time>2019-05-17T09:02:59.164Z</time>
      </trkpt>
      <trkpt lat="39.242895" lon="-8.66901333">
        <ele>10.0</ele>
        <time>2019-05-17T09:03:00.179Z</time>
      </trkpt>
      <trkpt lat="39.242895" lon="-8.66901333">
        <ele>10.0</ele>
        <time>2019-05-17T09:03:01.150Z</time>
      </trkpt>
      <trkpt lat="39.24293833" lon="-8.66894667">
        <ele>10.0</ele>
        <time>2019-05-17T09:03:02.162Z</time>
      </trkpt>
      <trkpt lat="39.24293833" lon="-8.66894667">
        <ele>10.0</ele>
        <time>2019-05-17T09:03:03.171Z</time>
      </trkpt>
      <trkpt lat="39.242985" lon="-8.66888">
        <ele>10.0</ele>
        <time>2019-05-17T09:03:04.183Z</time>
      </trkpt>
      <trkpt lat="39.242985" lon="-8.66888">
        <ele>10.0</ele>
        <time>2019-05-17T09:03:05.151Z</time>
      </trkpt>
      <trkpt lat="39.24303167" lon="-8.66881333">
        <ele>10.0</ele>
        <time>2019-05-17T09:03:06.162Z</time>
      </trkpt>
      <trkpt lat="39.24303167" lon="-8.66881333">
        <ele>10.0</ele>
        <time>2019-05-17T09:03:07.179Z</time>
      </trkpt>
      <trkpt lat="39.24308" lon="-8.66874833">
        <ele>9.0</ele>
        <time>2019-05-17T09:03:08.155Z</time>
      </trkpt>
      <trkpt lat="39.24308" lon="-8.66874833">
        <ele>9.0</ele>
        <time>2019-05-17T09:03:09.163Z</time>
      </trkpt>
      <trkpt lat="39.24312667" lon="-8.66868167">
        <ele>9.0</ele>
        <time>2019-05-17T09:03:10.162Z</time>
      </trkpt>
      <trkpt lat="39.24315" lon="-8.66864667">
        <ele>9.0</ele>
        <time>2019-05-17T09:03:11.183Z</time>
      </trkpt>
      <trkpt lat="39.24317333" lon="-8.66861333">
        <ele>9.0</ele>
        <time>2019-05-17T09:03:12.160Z</time>
      </trkpt>
      <trkpt lat="39.24317333" lon="-8.66861333">
        <ele>9.0</ele>
        <time>2019-05-17T09:03:13.170Z</time>
      </trkpt>
      <trkpt lat="39.24322" lon="-8.668545">
        <ele>9.0</ele>
        <time>2019-05-17T09:03:14.184Z</time>
      </trkpt>
      <trkpt lat="39.24322" lon="-8.668545">
        <ele>9.0</ele>
        <time>2019-05-17T09:03:15.159Z</time>
      </trkpt>
      <trkpt lat="39.24326833" lon="-8.66847667">
        <ele>9.0</ele>
        <time>2019-05-17T09:03:16.174Z</time>
      </trkpt>
      <trkpt lat="39.24329167" lon="-8.66844167">
        <ele>9.0</ele>
        <time>2019-05-17T09:03:17.185Z</time>
      </trkpt>
      <trkpt lat="39.243315" lon="-8.66840833">
        <ele>9.0</ele>
        <time>2019-05-17T09:03:18.170Z</time>
      </trkpt>
      <trkpt lat="39.243315" lon="-8.66840833">
        <ele>9.0</ele>
        <time>2019-05-17T09:03:19.184Z</time>
      </trkpt>
      <trkpt lat="39.24336" lon="-8.66834">
        <ele>9.0</ele>
        <time>2019-05-17T09:03:20.151Z</time>
      </trkpt>
      <trkpt lat="39.24336" lon="-8.66834">
        <ele>9.0</ele>
        <time>2019-05-17T09:03:21.162Z</time>
      </trkpt>
      <trkpt lat="39.243405" lon="-8.66827167">
        <ele>9.0</ele>
        <time>2019-05-17T09:03:22.171Z</time>
      </trkpt>
      <trkpt lat="39.24342833" lon="-8.66823833">
        <ele>9.0</ele>
        <time>2019-05-17T09:03:23.186Z</time>
      </trkpt>
      <trkpt lat="39.24345" lon="-8.668205">
        <ele>9.0</ele>
        <time>2019-05-17T09:03:24.176Z</time>
      </trkpt>
      <trkpt lat="39.24345" lon="-8.668205">
        <ele>9.0</ele>
        <time>2019-05-17T09:03:25.189Z</time>
      </trkpt>
      <trkpt lat="39.24349667" lon="-8.66813667">
        <ele>9.0</ele>
        <time>2019-05-17T09:03:26.163Z</time>
      </trkpt>
      <trkpt lat="39.24349667" lon="-8.66813667">
        <ele>9.0</ele>
        <time>2019-05-17T09:03:27.178Z</time>
      </trkpt>
      <trkpt lat="39.24354333" lon="-8.66807">
        <ele>8.0</ele>
        <time>2019-05-17T09:03:28.185Z</time>
      </trkpt>
      <trkpt lat="39.24354333" lon="-8.66807">
        <ele>8.0</ele>
        <time>2019-05-17T09:03:29.189Z</time>
      </trkpt>
      <trkpt lat="39.24359" lon="-8.66800667">
        <ele>8.0</ele>
        <time>2019-05-17T09:03:30.157Z</time>
      </trkpt>
      <trkpt lat="39.24359" lon="-8.66800667">
        <ele>8.0</ele>
        <time>2019-05-17T09:03:31.175Z</time>
      </trkpt>
      <trkpt lat="39.243635" lon="-8.66794333">
        <ele>8.0</ele>
        <time>2019-05-17T09:03:32.162Z</time>
      </trkpt>
      <trkpt lat="39.243635" lon="-8.66794333">
        <ele>8.0</ele>
        <time>2019-05-17T09:03:33.150Z</time>
      </trkpt>
      <trkpt lat="39.24368" lon="-8.66787667">
        <ele>8.0</ele>
        <time>2019-05-17T09:03:34.159Z</time>
      </trkpt>
      <trkpt lat="39.24368" lon="-8.66787667">
        <ele>8.0</ele>
        <time>2019-05-17T09:03:35.157Z</time>
      </trkpt>
      <trkpt lat="39.24372667" lon="-8.66780833">
        <ele>8.0</ele>
        <time>2019-05-17T09:03:36.284Z</time>
      </trkpt>
      <trkpt lat="39.24372667" lon="-8.66780833">
        <ele>8.0</ele>
        <time>2019-05-17T09:03:37.169Z</time>
      </trkpt>
      <trkpt lat="39.24377" lon="-8.66774">
        <ele>8.0</ele>
        <time>2019-05-17T09:03:38.179Z</time>
      </trkpt>
      <trkpt lat="39.24377" lon="-8.66774">
        <ele>8.0</ele>
        <time>2019-05-17T09:03:39.159Z</time>
      </trkpt>
      <trkpt lat="39.24381667" lon="-8.667675">
        <ele>8.0</ele>
        <time>2019-05-17T09:03:40.177Z</time>
      </trkpt>
      <trkpt lat="39.24381667" lon="-8.667675">
        <ele>8.0</ele>
        <time>2019-05-17T09:03:41.164Z</time>
      </trkpt>
      <trkpt lat="39.24386333" lon="-8.66761167">
        <ele>8.0</ele>
        <time>2019-05-17T09:03:42.179Z</time>
      </trkpt>
      <trkpt lat="39.24386333" lon="-8.66761167">
        <ele>8.0</ele>
        <time>2019-05-17T09:03:43.189Z</time>
      </trkpt>
      <trkpt lat="39.24390667" lon="-8.667545">
        <ele>8.0</ele>
        <time>2019-05-17T09:03:44.171Z</time>
      </trkpt>
      <trkpt lat="39.24390667" lon="-8.667545">
        <ele>8.0</ele>
        <time>2019-05-17T09:03:45.167Z</time>
      </trkpt>
      <trkpt lat="39.24395" lon="-8.66747667">
        <ele>8.0</ele>
        <time>2019-05-17T09:03:46.189Z</time>
      </trkpt>
      <trkpt lat="39.24395" lon="-8.66747667">
        <ele>8.0</ele>
        <time>2019-05-17T09:03:47.162Z</time>
      </trkpt>
      <trkpt lat="39.24399667" lon="-8.66741">
        <ele>8.0</ele>
        <time>2019-05-17T09:03:48.174Z</time>
      </trkpt>
      <trkpt lat="39.24399667" lon="-8.66741">
        <ele>8.0</ele>
        <time>2019-05-17T09:03:49.162Z</time>
      </trkpt>
      <trkpt lat="39.24404167" lon="-8.66734167">
        <ele>8.0</ele>
        <time>2019-05-17T09:03:50.172Z</time>
      </trkpt>
      <trkpt lat="39.24404167" lon="-8.66734167">
        <ele>8.0</ele>
        <time>2019-05-17T09:03:51.164Z</time>
      </trkpt>
      <trkpt lat="39.24408667" lon="-8.66727333">
        <ele>8.0</ele>
        <time>2019-05-17T09:03:52.177Z</time>
      </trkpt>
      <trkpt lat="39.24408667" lon="-8.66727333">
        <ele>8.0</ele>
        <time>2019-05-17T09:03:53.171Z</time>
      </trkpt>
      <trkpt lat="39.244135" lon="-8.66720333">
        <ele>8.0</ele>
        <time>2019-05-17T09:03:54.184Z</time>
      </trkpt>
      <trkpt lat="39.244135" lon="-8.66720333">
        <ele>8.0</ele>
        <time>2019-05-17T09:03:55.153Z</time>
      </trkpt>
      <trkpt lat="39.24418333" lon="-8.66713333">
        <ele>8.0</ele>
        <time>2019-05-17T09:03:56.168Z</time>
      </trkpt>
      <trkpt lat="39.24418333" lon="-8.66713333">
        <ele>8.0</ele>
        <time>2019-05-17T09:03:57.182Z</time>
      </trkpt>
      <trkpt lat="39.24423" lon="-8.66706333">
        <ele>8.0</ele>
        <time>2019-05-17T09:03:58.183Z</time>
      </trkpt>
      <trkpt lat="39.24423" lon="-8.66706333">
        <ele>8.0</ele>
        <time>2019-05-17T09:03:59.165Z</time>
      </trkpt>
      <trkpt lat="39.24427833" lon="-8.66699667">
        <ele>8.0</ele>
        <time>2019-05-17T09:04:00.181Z</time>
      </trkpt>
      <trkpt lat="39.24427833" lon="-8.66699667">
        <ele>8.0</ele>
        <time>2019-05-17T09:04:01.161Z</time>
      </trkpt>
      <trkpt lat="39.24432333" lon="-8.66693">
        <ele>7.0</ele>
        <time>2019-05-17T09:04:02.174Z</time>
      </trkpt>
      <trkpt lat="39.24432333" lon="-8.66693">
        <ele>7.0</ele>
        <time>2019-05-17T09:04:03.158Z</time>
      </trkpt>
      <trkpt lat="39.24436833" lon="-8.66686167">
        <ele>7.0</ele>
        <time>2019-05-17T09:04:04.171Z</time>
      </trkpt>
      <trkpt lat="39.24436833" lon="-8.66686167">
        <ele>7.0</ele>
        <time>2019-05-17T09:04:05.162Z</time>
      </trkpt>
      <trkpt lat="39.24441333" lon="-8.666795">
        <ele>7.0</ele>
        <time>2019-05-17T09:04:06.174Z</time>
      </trkpt>
      <trkpt lat="39.24441333" lon="-8.666795">
        <ele>7.0</ele>
        <time>2019-05-17T09:04:07.186Z</time>
      </trkpt>
      <trkpt lat="39.24445833" lon="-8.66672667">
        <ele>7.0</ele>
        <time>2019-05-17T09:04:08.159Z</time>
      </trkpt>
      <trkpt lat="39.24445833" lon="-8.66672667">
        <ele>7.0</ele>
        <time>2019-05-17T09:04:09.166Z</time>
      </trkpt>
      <trkpt lat="39.24450333" lon="-8.66665667">
        <ele>7.0</ele>
        <time>2019-05-17T09:04:10.176Z</time>
      </trkpt>
      <trkpt lat="39.24450333" lon="-8.66665667">
        <ele>7.0</ele>
        <time>2019-05-17T09:04:11.188Z</time>
      </trkpt>
      <trkpt lat="39.24454667" lon="-8.66658833">
        <ele>7.0</ele>
        <time>2019-05-17T09:04:12.160Z</time>
      </trkpt>
      <trkpt lat="39.24454667" lon="-8.66658833">
        <ele>7.0</ele>
        <time>2019-05-17T09:04:13.180Z</time>
      </trkpt>
      <trkpt lat="39.24459" lon="-8.66652333">
        <ele>7.0</ele>
        <time>2019-05-17T09:04:14.179Z</time>
      </trkpt>
      <trkpt lat="39.24461167" lon="-8.66649333">
        <ele>7.0</ele>
        <time>2019-05-17T09:04:15.156Z</time>
      </trkpt>
      <trkpt lat="39.24461167" lon="-8.66649333">
        <ele>7.0</ele>
        <time>2019-05-17T09:04:16.184Z</time>
      </trkpt>
      <trkpt lat="39.24465667" lon="-8.66642833">
        <ele>7.0</ele>
        <time>2019-05-17T09:04:17.156Z</time>
      </trkpt>
      <trkpt lat="39.24467833" lon="-8.666395">
        <ele>7.0</ele>
        <time>2019-05-17T09:04:18.172Z</time>
      </trkpt>
      <trkpt lat="39.24467833" lon="-8.666395">
        <ele>7.0</ele>
        <time>2019-05-17T09:04:19.182Z</time>
      </trkpt>
      <trkpt lat="39.24472333" lon="-8.66632833">
        <ele>7.0</ele>
        <time>2019-05-17T09:04:20.154Z</time>
      </trkpt>
      <trkpt lat="39.24472333" lon="-8.66632833">
        <ele>7.0</ele>
        <time>2019-05-17T09:04:21.176Z</time>
      </trkpt>
      <trkpt lat="39.24477167" lon="-8.66626667">
        <ele>7.0</ele>
        <time>2019-05-17T09:04:22.166Z</time>
      </trkpt>
      <trkpt lat="39.24477167" lon="-8.66626667">
        <ele>7.0</ele>
        <time>2019-05-17T09:04:23.185Z</time>
      </trkpt>
      <trkpt lat="39.24482167" lon="-8.66621667">
        <ele>7.0</ele>
        <time>2019-05-17T09:04:24.162Z</time>
      </trkpt>
      <trkpt lat="39.24482167" lon="-8.66621667">
        <ele>7.0</ele>
        <time>2019-05-17T09:04:25.177Z</time>
      </trkpt>
      <trkpt lat="39.24487333" lon="-8.66618333">
        <ele>7.0</ele>
        <time>2019-05-17T09:04:26.187Z</time>
      </trkpt>
      <trkpt lat="39.24487333" lon="-8.66618333">
        <ele>7.0</ele>
        <time>2019-05-17T09:04:27.159Z</time>
      </trkpt>
      <trkpt lat="39.24492667" lon="-8.66618333">
        <ele>7.0</ele>
        <time>2019-05-17T09:04:28.176Z</time>
      </trkpt>
      <trkpt lat="39.24492667" lon="-8.66618333">
        <ele>7.0</ele>
        <time>2019-05-17T09:04:29.181Z</time>
      </trkpt>
      <trkpt lat="39.24497833" lon="-8.666205">
        <ele>7.0</ele>
        <time>2019-05-17T09:04:30.189Z</time>
      </trkpt>
      <trkpt lat="39.24497833" lon="-8.666205">
        <ele>7.0</ele>
        <time>2019-05-17T09:04:31.159Z</time>
      </trkpt>
      <trkpt lat="39.245025" lon="-8.66622833">
        <ele>7.0</ele>
        <time>2019-05-17T09:04:32.173Z</time>
      </trkpt>
      <trkpt lat="39.245025" lon="-8.66622833">
        <ele>7.0</ele>
        <time>2019-05-17T09:04:33.187Z</time>
      </trkpt>
      <trkpt lat="39.24507" lon="-8.666255">
        <ele>7.0</ele>
        <time>2019-05-17T09:04:34.166Z</time>
      </trkpt>
      <trkpt lat="39.24509" lon="-8.66626667">
        <ele>6.0</ele>
        <time>2019-05-17T09:04:35.153Z</time>
      </trkpt>
      <trkpt lat="39.24509" lon="-8.66626667">
        <ele>6.0</ele>
        <time>2019-05-17T09:04:36.167Z</time>
      </trkpt>
      <trkpt lat="39.24513333" lon="-8.66628167">
        <ele>6.0</ele>
        <time>2019-05-17T09:04:37.176Z</time>
      </trkpt>
      <trkpt lat="39.24513333" lon="-8.66628167">
        <ele>6.0</ele>
        <time>2019-05-17T09:04:38.150Z</time>
      </trkpt>
      <trkpt lat="39.245185" lon="-8.66629333">
        <ele>7.0</ele>
        <time>2019-05-17T09:04:39.165Z</time>
      </trkpt>
      <trkpt lat="39.245185" lon="-8.66629333">
        <ele>7.0</ele>
        <time>2019-05-17T09:04:40.183Z</time>
      </trkpt>
      <trkpt lat="39.24523667" lon="-8.666305">
        <ele>6.0</ele>
        <time>2019-05-17T09:04:41.152Z</time>
      </trkpt>
      <trkpt lat="39.24526333" lon="-8.66631333">
        <ele>6.0</ele>
        <time>2019-05-17T09:04:42.176Z</time>
      </trkpt>
      <trkpt lat="39.24526333" lon="-8.66631333">
        <ele>6.0</ele>
        <time>2019-05-17T09:04:43.174Z</time>
      </trkpt>
      <trkpt lat="39.24531333" lon="-8.66632833">
        <ele>6.0</ele>
        <time>2019-05-17T09:04:44.184Z</time>
      </trkpt>
      <trkpt lat="39.24531333" lon="-8.66632833">
        <ele>6.0</ele>
        <time>2019-05-17T09:04:45.159Z</time>
      </trkpt>
      <trkpt lat="39.24536333" lon="-8.66634333">
        <ele>6.0</ele>
        <time>2019-05-17T09:04:46.170Z</time>
      </trkpt>
      <trkpt lat="39.24538833" lon="-8.66635333">
        <ele>6.0</ele>
        <time>2019-05-17T09:04:47.165Z</time>
      </trkpt>
      <trkpt lat="39.245415" lon="-8.66636333">
        <ele>6.0</ele>
        <time>2019-05-17T09:04:48.183Z</time>
      </trkpt>
      <trkpt lat="39.245415" lon="-8.66636333">
        <ele>6.0</ele>
        <time>2019-05-17T09:04:49.151Z</time>
      </trkpt>
      <trkpt lat="39.24546667" lon="-8.66638167">
        <ele>6.0</ele>
        <time>2019-05-17T09:04:50.163Z</time>
      </trkpt>
      <trkpt lat="39.24546667" lon="-8.66638167">
        <ele>6.0</ele>
        <time>2019-05-17T09:04:51.183Z</time>
      </trkpt>
      <trkpt lat="39.24552" lon="-8.6664">
        <ele>6.0</ele>
        <time>2019-05-17T09:04:52.153Z</time>
      </trkpt>
      <trkpt lat="39.24552" lon="-8.6664">
        <ele>6.0</ele>
        <time>2019-05-17T09:04:53.165Z</time>
      </trkpt>
      <trkpt lat="39.24557667" lon="-8.66642167">
        <ele>7.0</ele>
        <time>2019-05-17T09:04:54.174Z</time>
      </trkpt>
      <trkpt lat="39.24557667" lon="-8.66642167">
        <ele>7.0</ele>
        <time>2019-05-17T09:04:55.168Z</time>
      </trkpt>
      <trkpt lat="39.24563667" lon="-8.666445">
        <ele>6.0</ele>
        <time>2019-05-17T09:04:56.159Z</time>
      </trkpt>
      <trkpt lat="39.24563667" lon="-8.666445">
        <ele>6.0</ele>
        <time>2019-05-17T09:04:57.151Z</time>
      </trkpt>
      <trkpt lat="39.24569667" lon="-8.666465">
        <ele>6.0</ele>
        <time>2019-05-17T09:04:58.163Z</time>
      </trkpt>
      <trkpt lat="39.24569667" lon="-8.666465">
        <ele>6.0</ele>
        <time>2019-05-17T09:04:59.184Z</time>
      </trkpt>
      <trkpt lat="39.24575167" lon="-8.66647833">
        <ele>6.0</ele>
        <time>2019-05-17T09:05:00.155Z</time>
      </trkpt>
      <trkpt lat="39.24575167" lon="-8.66647833">
        <ele>6.0</ele>
        <time>2019-05-17T09:05:01.168Z</time>
      </trkpt>
      <trkpt lat="39.24580667" lon="-8.666495">
        <ele>6.0</ele>
        <time>2019-05-17T09:05:02.157Z</time>
      </trkpt>
      <trkpt lat="39.24580667" lon="-8.666495">
        <ele>6.0</ele>
        <time>2019-05-17T09:05:03.187Z</time>
      </trkpt>
      <trkpt lat="39.24585833" lon="-8.66651333">
        <ele>6.0</ele>
        <time>2019-05-17T09:05:04.160Z</time>
      </trkpt>
      <trkpt lat="39.24585833" lon="-8.66651333">
        <ele>6.0</ele>
        <time>2019-05-17T09:05:05.165Z</time>
      </trkpt>
      <trkpt lat="39.24589833" lon="-8.66653333">
        <ele>6.0</ele>
        <time>2019-05-17T09:05:06.176Z</time>
      </trkpt>
      <trkpt lat="39.24589833" lon="-8.66653333">
        <ele>6.0</ele>
        <time>2019-05-17T09:05:07.190Z</time>
      </trkpt>
      <trkpt lat="39.24592833" lon="-8.66653167">
        <ele>7.0</ele>
        <time>2019-05-17T09:05:08.162Z</time>
      </trkpt>
      <trkpt lat="39.24592833" lon="-8.66653167">
        <ele>7.0</ele>
        <time>2019-05-17T09:05:09.163Z</time>
      </trkpt>
      <trkpt lat="39.245955" lon="-8.6665">
        <ele>7.0</ele>
        <time>2019-05-17T09:05:10.176Z</time>
      </trkpt>
      <trkpt lat="39.245955" lon="-8.6665">
        <ele>7.0</ele>
        <time>2019-05-17T09:05:11.160Z</time>
      </trkpt>
      <trkpt lat="39.245975" lon="-8.66646667">
        <ele>7.0</ele>
        <time>2019-05-17T09:05:12.178Z</time>
      </trkpt>
      <trkpt lat="39.245975" lon="-8.66646667">
        <ele>7.0</ele>
        <time>2019-05-17T09:05:13.168Z</time>
      </trkpt>
      <trkpt lat="39.246" lon="-8.66643667">
        <ele>7.0</ele>
        <time>2019-05-17T09:05:14.182Z</time>
      </trkpt>
      <trkpt lat="39.246" lon="-8.66643667">
        <ele>7.0</ele>
        <time>2019-05-17T09:05:15.174Z</time>
      </trkpt>
      <trkpt lat="39.24602" lon="-8.66640167">
        <ele>7.0</ele>
        <time>2019-05-17T09:05:16.183Z</time>
      </trkpt>
      <trkpt lat="39.24602" lon="-8.66640167">
        <ele>7.0</ele>
        <time>2019-05-17T09:05:17.151Z</time>
      </trkpt>
      <trkpt lat="39.24603667" lon="-8.66636333">
        <ele>7.0</ele>
        <time>2019-05-17T09:05:18.166Z</time>
      </trkpt>
      <trkpt lat="39.24603667" lon="-8.66636333">
        <ele>7.0</ele>
        <time>2019-05-17T09:05:19.181Z</time>
      </trkpt>
      <trkpt lat="39.24606167" lon="-8.66632667">
        <ele>7.0</ele>
        <time>2019-05-17T09:05:20.187Z</time>
      </trkpt>
      <trkpt lat="39.24606167" lon="-8.66632667">
        <ele>7.0</ele>
        <time>2019-05-17T09:05:21.174Z</time>
      </trkpt>
      <trkpt lat="39.24608833" lon="-8.66629333">
        <ele>7.0</ele>
        <time>2019-05-17T09:05:22.151Z</time>
      </trkpt>
      <trkpt lat="39.24608833" lon="-8.66629333">
        <ele>7.0</ele>
        <time>2019-05-17T09:05:23.160Z</time>
      </trkpt>
      <trkpt lat="39.24611833" lon="-8.666255">
        <ele>8.0</ele>
        <time>2019-05-17T09:05:24.174Z</time>
      </trkpt>
      <trkpt lat="39.24611833" lon="-8.666255">
        <ele>8.0</ele>
        <time>2019-05-17T09:05:25.152Z</time>
      </trkpt>
      <trkpt lat="39.24614833" lon="-8.66620833">
        <ele>8.0</ele>
        <time>2019-05-17T09:05:26.159Z</time>
      </trkpt>
      <trkpt lat="39.24614833" lon="-8.66620833">
        <ele>8.0</ele>
        <time>2019-05-17T09:05:27.171Z</time>
      </trkpt>
      <trkpt lat="39.24618333" lon="-8.666165">
        <ele>8.0</ele>
        <time>2019-05-17T09:05:28.180Z</time>
      </trkpt>
      <trkpt lat="39.24620333" lon="-8.66614333">
        <ele>8.0</ele>
        <time>2019-05-17T09:05:29.162Z</time>
      </trkpt>
      <trkpt lat="39.24622333" lon="-8.66612">
        <ele>8.0</ele>
        <time>2019-05-17T09:05:30.176Z</time>
      </trkpt>
      <trkpt lat="39.24622333" lon="-8.66612">
        <ele>8.0</ele>
        <time>2019-05-17T09:05:31.162Z</time>
      </trkpt>
      <trkpt lat="39.24625667" lon="-8.66607333">
        <ele>8.0</ele>
        <time>2019-05-17T09:05:32.177Z</time>
      </trkpt>
      <trkpt lat="39.24625667" lon="-8.66607333">
        <ele>8.0</ele>
        <time>2019-05-17T09:05:33.188Z</time>
      </trkpt>
      <trkpt lat="39.24629333" lon="-8.66602833">
        <ele>8.0</ele>
        <time>2019-05-17T09:05:34.182Z</time>
      </trkpt>
      <trkpt lat="39.24629333" lon="-8.66602833">
        <ele>8.0</ele>
        <time>2019-05-17T09:05:35.178Z</time>
      </trkpt>
      <trkpt lat="39.24633333" lon="-8.66598333">
        <ele>8.0</ele>
        <time>2019-05-17T09:05:36.153Z</time>
      </trkpt>
      <trkpt lat="39.24633333" lon="-8.66598333">
        <ele>8.0</ele>
        <time>2019-05-17T09:05:37.171Z</time>
      </trkpt>
      <trkpt lat="39.24637333" lon="-8.66593667">
        <ele>8.0</ele>
        <time>2019-05-17T09:05:38.152Z</time>
      </trkpt>
      <trkpt lat="39.24637333" lon="-8.66593667">
        <ele>8.0</ele>
        <time>2019-05-17T09:05:39.178Z</time>
      </trkpt>
      <trkpt lat="39.24641167" lon="-8.66589333">
        <ele>8.0</ele>
        <time>2019-05-17T09:05:40.174Z</time>
      </trkpt>
      <trkpt lat="39.24642833" lon="-8.66587167">
        <ele>8.0</ele>
        <time>2019-05-17T09:05:41.174Z</time>
      </trkpt>
      <trkpt lat="39.24644333" lon="-8.66585167">
        <ele>8.0</ele>
        <time>2019-05-17T09:05:42.186Z</time>
      </trkpt>
      <trkpt lat="39.24644333" lon="-8.66585167">
        <ele>8.0</ele>
        <time>2019-05-17T09:05:43.179Z</time>
      </trkpt>
      <trkpt lat="39.246475" lon="-8.665805">
        <ele>8.0</ele>
        <time>2019-05-17T09:05:44.189Z</time>
      </trkpt>
      <trkpt lat="39.246475" lon="-8.665805">
        <ele>8.0</ele>
        <time>2019-05-17T09:05:45.162Z</time>
      </trkpt>
      <trkpt lat="39.24650833" lon="-8.66575833">
        <ele>8.0</ele>
        <time>2019-05-17T09:05:46.173Z</time>
      </trkpt>
      <trkpt lat="39.24650833" lon="-8.66575833">
        <ele>8.0</ele>
        <time>2019-05-17T09:05:47.159Z</time>
      </trkpt>
      <trkpt lat="39.24653667" lon="-8.66570333">
        <ele>7.0</ele>
        <time>2019-05-17T09:05:48.177Z</time>
      </trkpt>
      <trkpt lat="39.24653667" lon="-8.66570333">
        <ele>7.0</ele>
        <time>2019-05-17T09:05:49.152Z</time>
      </trkpt>
      <trkpt lat="39.246565" lon="-8.66564667">
        <ele>7.0</ele>
        <time>2019-05-17T09:05:50.168Z</time>
      </trkpt>
      <trkpt lat="39.24657833" lon="-8.66562">
        <ele>7.0</ele>
        <time>2019-05-17T09:05:51.151Z</time>
      </trkpt>
      <trkpt lat="39.24657833" lon="-8.66562">
        <ele>7.0</ele>
        <time>2019-05-17T09:05:52.178Z</time>
      </trkpt>
      <trkpt lat="39.24660667" lon="-8.66557167">
        <ele>7.0</ele>
        <time>2019-05-17T09:05:53.187Z</time>
      </trkpt>
      <trkpt lat="39.24661833" lon="-8.66554667">
        <ele>7.0</ele>
        <time>2019-05-17T09:05:54.162Z</time>
      </trkpt>
      <trkpt lat="39.24661833" lon="-8.66554667">
        <ele>7.0</ele>
        <time>2019-05-17T09:05:55.174Z</time>
      </trkpt>
      <trkpt lat="39.24664167" lon="-8.66549833">
        <ele>7.0</ele>
        <time>2019-05-17T09:05:56.187Z</time>
      </trkpt>
      <trkpt lat="39.24664167" lon="-8.66549833">
        <ele>7.0</ele>
        <time>2019-05-17T09:05:57.185Z</time>
      </trkpt>
      <trkpt lat="39.246665" lon="-8.66546167">
        <ele>7.0</ele>
        <time>2019-05-17T09:05:58.154Z</time>
      </trkpt>
      <trkpt lat="39.246675" lon="-8.66544333">
        <ele>7.0</ele>
        <time>2019-05-17T09:05:59.166Z</time>
      </trkpt>
      <trkpt lat="39.24668333" lon="-8.66542">
        <ele>7.0</ele>
        <time>2019-05-17T09:06:00.184Z</time>
      </trkpt>
      <trkpt lat="39.24668333" lon="-8.66542">
        <ele>7.0</ele>
        <time>2019-05-17T09:06:01.160Z</time>
      </trkpt>
      <trkpt lat="39.24670667" lon="-8.66537333">
        <ele>7.0</ele>
        <time>2019-05-17T09:06:02.169Z</time>
      </trkpt>
      <trkpt lat="39.24670667" lon="-8.66537333">
        <ele>7.0</ele>
        <time>2019-05-17T09:06:03.182Z</time>
      </trkpt>
      <trkpt lat="39.24673833" lon="-8.66532833">
        <ele>7.0</ele>
        <time>2019-05-17T09:06:04.151Z</time>
      </trkpt>
      <trkpt lat="39.24673833" lon="-8.66532833">
        <ele>7.0</ele>
        <time>2019-05-17T09:06:05.163Z</time>
      </trkpt>
      <trkpt lat="39.24676667" lon="-8.665285">
        <ele>7.0</ele>
        <time>2019-05-17T09:06:06.175Z</time>
      </trkpt>
      <trkpt lat="39.24676667" lon="-8.665285">
        <ele>7.0</ele>
        <time>2019-05-17T09:06:07.189Z</time>
      </trkpt>
      <trkpt lat="39.24679333" lon="-8.66524">
        <ele>7.0</ele>
        <time>2019-05-17T09:06:08.165Z</time>
      </trkpt>
      <trkpt lat="39.24679333" lon="-8.66524">
        <ele>7.0</ele>
        <time>2019-05-17T09:06:09.160Z</time>
      </trkpt>
      <trkpt lat="39.24682667" lon="-8.665195">
        <ele>7.0</ele>
        <time>2019-05-17T09:06:10.166Z</time>
      </trkpt>
      <trkpt lat="39.246845" lon="-8.66517">
        <ele>7.0</ele>
        <time>2019-05-17T09:06:11.180Z</time>
      </trkpt>
      <trkpt lat="39.24686333" lon="-8.66515">
        <ele>7.0</ele>
        <time>2019-05-17T09:06:12.157Z</time>
      </trkpt>
      <trkpt lat="39.24686333" lon="-8.66515">
        <ele>7.0</ele>
        <time>2019-05-17T09:06:13.166Z</time>
      </trkpt>
      <trkpt lat="39.24689833" lon="-8.66511333">
        <ele>7.0</ele>
        <time>2019-05-17T09:06:14.189Z</time>
      </trkpt>
      <trkpt lat="39.24689833" lon="-8.66511333">
        <ele>7.0</ele>
        <time>2019-05-17T09:06:15.166Z</time>
      </trkpt>
      <trkpt lat="39.24692833" lon="-8.665075">
        <ele>7.0</ele>
        <time>2019-05-17T09:06:16.178Z</time>
      </trkpt>
      <trkpt lat="39.24692833" lon="-8.665075">
        <ele>7.0</ele>
        <time>2019-05-17T09:06:17.186Z</time>
      </trkpt>
      <trkpt lat="39.24695667" lon="-8.665025">
        <ele>7.0</ele>
        <time>2019-05-17T09:06:18.169Z</time>
      </trkpt>
      <trkpt lat="39.24696833" lon="-8.66500167">
        <ele>7.0</ele>
        <time>2019-05-17T09:06:19.158Z</time>
      </trkpt>
      <trkpt lat="39.24696833" lon="-8.66500167">
        <ele>7.0</ele>
        <time>2019-05-17T09:06:20.174Z</time>
      </trkpt>
      <trkpt lat="39.24699" lon="-8.66494833">
        <ele>8.0</ele>
        <time>2019-05-17T09:06:21.185Z</time>
      </trkpt>
      <trkpt lat="39.24699" lon="-8.66494833">
        <ele>8.0</ele>
        <time>2019-05-17T09:06:22.160Z</time>
      </trkpt>
      <trkpt lat="39.24702333" lon="-8.664895">
        <ele>8.0</ele>
        <time>2019-05-17T09:06:23.159Z</time>
      </trkpt>
      <trkpt lat="39.247045" lon="-8.66487">
        <ele>7.0</ele>
        <time>2019-05-17T09:06:24.158Z</time>
      </trkpt>
      <trkpt lat="39.247045" lon="-8.66487">
        <ele>7.0</ele>
        <time>2019-05-17T09:06:25.167Z</time>
      </trkpt>
      <trkpt lat="39.24708167" lon="-8.66482">
        <ele>8.0</ele>
        <time>2019-05-17T09:06:26.179Z</time>
      </trkpt>
      <trkpt lat="39.24708167" lon="-8.66482">
        <ele>8.0</ele>
        <time>2019-05-17T09:06:27.151Z</time>
      </trkpt>
      <trkpt lat="39.24711333" lon="-8.66477">
        <ele>8.0</ele>
        <time>2019-05-17T09:06:28.168Z</time>
      </trkpt>
      <trkpt lat="39.24711333" lon="-8.66477">
        <ele>8.0</ele>
        <time>2019-05-17T09:06:29.178Z</time>
      </trkpt>
      <trkpt lat="39.24714667" lon="-8.66472167">
        <ele>8.0</ele>
        <time>2019-05-17T09:06:30.187Z</time>
      </trkpt>
      <trkpt lat="39.24714667" lon="-8.66472167">
        <ele>8.0</ele>
        <time>2019-05-17T09:06:31.178Z</time>
      </trkpt>
      <trkpt lat="39.24717667" lon="-8.66466833">
        <ele>8.0</ele>
        <time>2019-05-17T09:06:32.189Z</time>
      </trkpt>
      <trkpt lat="39.24717667" lon="-8.66466833">
        <ele>8.0</ele>
        <time>2019-05-17T09:06:33.162Z</time>
      </trkpt>
      <trkpt lat="39.24720667" lon="-8.66462167">
        <ele>8.0</ele>
        <time>2019-05-17T09:06:34.184Z</time>
      </trkpt>
      <trkpt lat="39.24720667" lon="-8.66462167">
        <ele>8.0</ele>
        <time>2019-05-17T09:06:35.168Z</time>
      </trkpt>
      <trkpt lat="39.247235" lon="-8.66457333">
        <ele>8.0</ele>
        <time>2019-05-17T09:06:36.189Z</time>
      </trkpt>
      <trkpt lat="39.247235" lon="-8.66457333">
        <ele>8.0</ele>
        <time>2019-05-17T09:06:37.160Z</time>
      </trkpt>
      <trkpt lat="39.247265" lon="-8.66452167">
        <ele>8.0</ele>
        <time>2019-05-17T09:06:38.171Z</time>
      </trkpt>
      <trkpt lat="39.247265" lon="-8.66452167">
        <ele>8.0</ele>
        <time>2019-05-17T09:06:39.159Z</time>
      </trkpt>
      <trkpt lat="39.247295" lon="-8.66446667">
        <ele>8.0</ele>
        <time>2019-05-17T09:06:40.171Z</time>
      </trkpt>
      <trkpt lat="39.247295" lon="-8.66446667">
        <ele>8.0</ele>
        <time>2019-05-17T09:06:41.157Z</time>
      </trkpt>
      <trkpt lat="39.24733" lon="-8.66440833">
        <ele>8.0</ele>
        <time>2019-05-17T09:06:42.166Z</time>
      </trkpt>
      <trkpt lat="39.24733" lon="-8.66440833">
        <ele>8.0</ele>
        <time>2019-05-17T09:06:43.159Z</time>
      </trkpt>
      <trkpt lat="39.24736333" lon="-8.664355">
        <ele>8.0</ele>
        <time>2019-05-17T09:06:44.172Z</time>
      </trkpt>
      <trkpt lat="39.24736333" lon="-8.664355">
        <ele>8.0</ele>
        <time>2019-05-17T09:06:45.154Z</time>
      </trkpt>
      <trkpt lat="39.247395" lon="-8.66430667">
        <ele>9.0</ele>
        <time>2019-05-17T09:06:46.167Z</time>
      </trkpt>
      <trkpt lat="39.247395" lon="-8.66430667">
        <ele>9.0</ele>
        <time>2019-05-17T09:06:47.177Z</time>
      </trkpt>
      <trkpt lat="39.24741667" lon="-8.664265">
        <ele>9.0</ele>
        <time>2019-05-17T09:06:48.158Z</time>
      </trkpt>
      <trkpt lat="39.24741667" lon="-8.664265">
        <ele>9.0</ele>
        <time>2019-05-17T09:06:49.161Z</time>
      </trkpt>
      <trkpt lat="39.247435" lon="-8.66421833">
        <ele>9.0</ele>
        <time>2019-05-17T09:06:50.176Z</time>
      </trkpt>
      <trkpt lat="39.247435" lon="-8.66421833">
        <ele>9.0</ele>
        <time>2019-05-17T09:06:51.183Z</time>
      </trkpt>
      <trkpt lat="39.24745167" lon="-8.664155">
        <ele>9.0</ele>
        <time>2019-05-17T09:06:52.188Z</time>
      </trkpt>
      <trkpt lat="39.24745167" lon="-8.664155">
        <ele>9.0</ele>
        <time>2019-05-17T09:06:53.162Z</time>
      </trkpt>
      <trkpt lat="39.24747833" lon="-8.66409833">
        <ele>10.0</ele>
        <time>2019-05-17T09:06:54.172Z</time>
      </trkpt>
      <trkpt lat="39.24747833" lon="-8.66409833">
        <ele>10.0</ele>
        <time>2019-05-17T09:06:55.182Z</time>
      </trkpt>
      <trkpt lat="39.24749667" lon="-8.66404167">
        <ele>10.0</ele>
        <time>2019-05-17T09:06:56.151Z</time>
      </trkpt>
      <trkpt lat="39.24749667" lon="-8.66404167">
        <ele>10.0</ele>
        <time>2019-05-17T09:06:57.170Z</time>
      </trkpt>
      <trkpt lat="39.24751333" lon="-8.66399667">
        <ele>10.0</ele>
        <time>2019-05-17T09:06:58.181Z</time>
      </trkpt>
      <trkpt lat="39.24752333" lon="-8.66397833">
        <ele>10.0</ele>
        <time>2019-05-17T09:06:59.167Z</time>
      </trkpt>
      <trkpt lat="39.247535" lon="-8.66395833">
        <ele>10.0</ele>
        <time>2019-05-17T09:07:00.155Z</time>
      </trkpt>
      <trkpt lat="39.247535" lon="-8.66395833">
        <ele>10.0</ele>
        <time>2019-05-17T09:07:01.159Z</time>
      </trkpt>
      <trkpt lat="39.24755167" lon="-8.663935">
        <ele>10.0</ele>
        <time>2019-05-17T09:07:02.172Z</time>
      </trkpt>
      <trkpt lat="39.24755167" lon="-8.663935">
        <ele>10.0</ele>
        <time>2019-05-17T09:07:03.187Z</time>
      </trkpt>
      <trkpt lat="39.24757" lon="-8.66391667">
        <ele>10.0</ele>
        <time>2019-05-17T09:07:04.157Z</time>
      </trkpt>
      <trkpt lat="39.24757" lon="-8.66391667">
        <ele>10.0</ele>
        <time>2019-05-17T09:07:05.174Z</time>
      </trkpt>
      <trkpt lat="39.247585" lon="-8.66389">
        <ele>10.0</ele>
        <time>2019-05-17T09:07:06.186Z</time>
      </trkpt>
      <trkpt lat="39.247585" lon="-8.66389">
        <ele>10.0</ele>
        <time>2019-05-17T09:07:07.160Z</time>
      </trkpt>
      <trkpt lat="39.24759833" lon="-8.66386167">
        <ele>9.0</ele>
        <time>2019-05-17T09:07:08.171Z</time>
      </trkpt>
      <trkpt lat="39.24759833" lon="-8.66386167">
        <ele>9.0</ele>
        <time>2019-05-17T09:07:09.168Z</time>
      </trkpt>
      <trkpt lat="39.247615" lon="-8.66382167">
        <ele>9.0</ele>
        <time>2019-05-17T09:07:10.153Z</time>
      </trkpt>
      <trkpt lat="39.247615" lon="-8.66382167">
        <ele>9.0</ele>
        <time>2019-05-17T09:07:11.172Z</time>
      </trkpt>
      <trkpt lat="39.24763833" lon="-8.66378">
        <ele>9.0</ele>
        <time>2019-05-17T09:07:12.180Z</time>
      </trkpt>
      <trkpt lat="39.24763833" lon="-8.66378">
        <ele>9.0</ele>
        <time>2019-05-17T09:07:13.160Z</time>
      </trkpt>
      <trkpt lat="39.24766667" lon="-8.66373833">
        <ele>10.0</ele>
        <time>2019-05-17T09:07:14.150Z</time>
      </trkpt>
      <trkpt lat="39.24766667" lon="-8.66373833">
        <ele>10.0</ele>
        <time>2019-05-17T09:07:15.172Z</time>
      </trkpt>
      <trkpt lat="39.247695" lon="-8.66369167">
        <ele>10.0</ele>
        <time>2019-05-17T09:07:16.183Z</time>
      </trkpt>
      <trkpt lat="39.24770833" lon="-8.66366667">
        <ele>10.0</ele>
        <time>2019-05-17T09:07:17.166Z</time>
      </trkpt>
      <trkpt lat="39.24772167" lon="-8.66364">
        <ele>10.0</ele>
        <time>2019-05-17T09:07:18.179Z</time>
      </trkpt>
      <trkpt lat="39.24772167" lon="-8.66364">
        <ele>10.0</ele>
        <time>2019-05-17T09:07:19.176Z</time>
      </trkpt>
      <trkpt lat="39.247745" lon="-8.66358667">
        <ele>10.0</ele>
        <time>2019-05-17T09:07:20.188Z</time>
      </trkpt>
      <trkpt lat="39.247745" lon="-8.66358667">
        <ele>10.0</ele>
        <time>2019-05-17T09:07:21.164Z</time>
      </trkpt>
      <trkpt lat="39.247765" lon="-8.66353333">
        <ele>9.0</ele>
        <time>2019-05-17T09:07:22.178Z</time>
      </trkpt>
      <trkpt lat="39.247765" lon="-8.66353333">
        <ele>9.0</ele>
        <time>2019-05-17T09:07:23.150Z</time>
      </trkpt>
      <trkpt lat="39.24777667" lon="-8.66348167">
        <ele>9.0</ele>
        <time>2019-05-17T09:07:24.174Z</time>
      </trkpt>
      <trkpt lat="39.24777667" lon="-8.66348167">
        <ele>9.0</ele>
        <time>2019-05-17T09:07:25.165Z</time>
      </trkpt>
      <trkpt lat="39.24779667" lon="-8.66343">
        <ele>9.0</ele>
        <time>2019-05-17T09:07:26.173Z</time>
      </trkpt>
      <trkpt lat="39.24781167" lon="-8.66340667">
        <ele>9.0</ele>
        <time>2019-05-17T09:07:27.189Z</time>
      </trkpt>
      <trkpt lat="39.24782667" lon="-8.66339">
        <ele>9.0</ele>
        <time>2019-05-17T09:07:28.162Z</time>
      </trkpt>
      <trkpt lat="39.24782667" lon="-8.66339">
        <ele>9.0</ele>
        <time>2019-05-17T09:07:29.177Z</time>
      </trkpt>
      <trkpt lat="39.247855" lon="-8.66336333">
        <ele>9.0</ele>
        <time>2019-05-17T09:07:30.186Z</time>
      </trkpt>
      <trkpt lat="39.247855" lon="-8.66336333">
        <ele>9.0</ele>
        <time>2019-05-17T09:07:31.160Z</time>
      </trkpt>
      <trkpt lat="39.24788333" lon="-8.663335">
        <ele>9.0</ele>
        <time>2019-05-17T09:07:32.174Z</time>
      </trkpt>
      <trkpt lat="39.24788333" lon="-8.663335">
        <ele>9.0</ele>
        <time>2019-05-17T09:07:33.156Z</time>
      </trkpt>
      <trkpt lat="39.24791167" lon="-8.66329833">
        <ele>8.0</ele>
        <time>2019-05-17T09:07:34.151Z</time>
      </trkpt>
      <trkpt lat="39.24793" lon="-8.663285">
        <ele>8.0</ele>
        <time>2019-05-17T09:07:35.174Z</time>
      </trkpt>
      <trkpt lat="39.24794833" lon="-8.66327333">
        <ele>8.0</ele>
        <time>2019-05-17T09:07:36.186Z</time>
      </trkpt>
      <trkpt lat="39.24794833" lon="-8.66327333">
        <ele>8.0</ele>
        <time>2019-05-17T09:07:37.160Z</time>
      </trkpt>
      <trkpt lat="39.247975" lon="-8.66324667">
        <ele>8.0</ele>
        <time>2019-05-17T09:07:38.172Z</time>
      </trkpt>
      <trkpt lat="39.247975" lon="-8.66324667">
        <ele>8.0</ele>
        <time>2019-05-17T09:07:39.185Z</time>
      </trkpt>
      <trkpt lat="39.248005" lon="-8.66322167">
        <ele>8.0</ele>
        <time>2019-05-17T09:07:40.154Z</time>
      </trkpt>
      <trkpt lat="39.248005" lon="-8.66322167">
        <ele>8.0</ele>
        <time>2019-05-17T09:07:41.184Z</time>
      </trkpt>
      <trkpt lat="39.248035" lon="-8.663185">
        <ele>8.0</ele>
        <time>2019-05-17T09:07:42.156Z</time>
      </trkpt>
      <trkpt lat="39.248035" lon="-8.663185">
        <ele>8.0</ele>
        <time>2019-05-17T09:07:43.168Z</time>
      </trkpt>
      <trkpt lat="39.248065" lon="-8.66315333">
        <ele>8.0</ele>
        <time>2019-05-17T09:07:44.176Z</time>
      </trkpt>
      <trkpt lat="39.248065" lon="-8.66315333">
        <ele>8.0</ele>
        <time>2019-05-17T09:07:45.167Z</time>
      </trkpt>
      <trkpt lat="39.248095" lon="-8.66312333">
        <ele>8.0</ele>
        <time>2019-05-17T09:07:46.185Z</time>
      </trkpt>
      <trkpt lat="39.248095" lon="-8.66312333">
        <ele>8.0</ele>
        <time>2019-05-17T09:07:47.162Z</time>
      </trkpt>
      <trkpt lat="39.24811833" lon="-8.66308833">
        <ele>8.0</ele>
        <time>2019-05-17T09:07:48.175Z</time>
      </trkpt>
      <trkpt lat="39.24811833" lon="-8.66308833">
        <ele>8.0</ele>
        <time>2019-05-17T09:07:49.187Z</time>
      </trkpt>
      <trkpt lat="39.24815" lon="-8.66306">
        <ele>8.0</ele>
        <time>2019-05-17T09:07:50.159Z</time>
      </trkpt>
      <trkpt lat="39.24815" lon="-8.66306">
        <ele>8.0</ele>
        <time>2019-05-17T09:07:51.172Z</time>
      </trkpt>
      <trkpt lat="39.24818167" lon="-8.66302333">
        <ele>8.0</ele>
        <time>2019-05-17T09:07:52.186Z</time>
      </trkpt>
      <trkpt lat="39.24818167" lon="-8.66302333">
        <ele>8.0</ele>
        <time>2019-05-17T09:07:53.160Z</time>
      </trkpt>
      <trkpt lat="39.24820333" lon="-8.662985">
        <ele>9.0</ele>
        <time>2019-05-17T09:07:54.160Z</time>
      </trkpt>
      <trkpt lat="39.24820333" lon="-8.662985">
        <ele>9.0</ele>
        <time>2019-05-17T09:07:55.162Z</time>
      </trkpt>
      <trkpt lat="39.24822833" lon="-8.66295167">
        <ele>9.0</ele>
        <time>2019-05-17T09:07:56.176Z</time>
      </trkpt>
      <trkpt lat="39.24822833" lon="-8.66295167">
        <ele>9.0</ele>
        <time>2019-05-17T09:07:57.159Z</time>
      </trkpt>
      <trkpt lat="39.24825333" lon="-8.66291167">
        <ele>8.0</ele>
        <time>2019-05-17T09:07:58.170Z</time>
      </trkpt>
      <trkpt lat="39.24826667" lon="-8.66289167">
        <ele>8.0</ele>
        <time>2019-05-17T09:07:59.160Z</time>
      </trkpt>
      <trkpt lat="39.24826667" lon="-8.66289167">
        <ele>8.0</ele>
        <time>2019-05-17T09:08:00.170Z</time>
      </trkpt>
      <trkpt lat="39.24830333" lon="-8.66286">
        <ele>8.0</ele>
        <time>2019-05-17T09:08:01.180Z</time>
      </trkpt>
      <trkpt lat="39.24832167" lon="-8.66284333">
        <ele>8.0</ele>
        <time>2019-05-17T09:08:02.174Z</time>
      </trkpt>
      <trkpt lat="39.24832167" lon="-8.66284333">
        <ele>8.0</ele>
        <time>2019-05-17T09:08:03.151Z</time>
      </trkpt>
      <trkpt lat="39.248355" lon="-8.66280333">
        <ele>8.0</ele>
        <time>2019-05-17T09:08:04.166Z</time>
      </trkpt>
      <trkpt lat="39.248355" lon="-8.66280333">
        <ele>8.0</ele>
        <time>2019-05-17T09:08:05.177Z</time>
      </trkpt>
      <trkpt lat="39.24838667" lon="-8.662765">
        <ele>8.0</ele>
        <time>2019-05-17T09:08:06.188Z</time>
      </trkpt>
      <trkpt lat="39.24838667" lon="-8.662765">
        <ele>8.0</ele>
        <time>2019-05-17T09:08:07.188Z</time>
      </trkpt>
      <trkpt lat="39.24841667" lon="-8.66273333">
        <ele>8.0</ele>
        <time>2019-05-17T09:08:08.164Z</time>
      </trkpt>
      <trkpt lat="39.24841667" lon="-8.66273333">
        <ele>8.0</ele>
        <time>2019-05-17T09:08:09.153Z</time>
      </trkpt>
      <trkpt lat="39.24844833" lon="-8.66270167">
        <ele>8.0</ele>
        <time>2019-05-17T09:08:10.150Z</time>
      </trkpt>
      <trkpt lat="39.24844833" lon="-8.66270167">
        <ele>8.0</ele>
        <time>2019-05-17T09:08:11.164Z</time>
      </trkpt>
      <trkpt lat="39.24848167" lon="-8.66266667">
        <ele>8.0</ele>
        <time>2019-05-17T09:08:12.175Z</time>
      </trkpt>
      <trkpt lat="39.24848167" lon="-8.66266667">
        <ele>8.0</ele>
        <time>2019-05-17T09:08:13.184Z</time>
      </trkpt>
      <trkpt lat="39.248515" lon="-8.66263">
        <ele>8.0</ele>
        <time>2019-05-17T09:08:14.155Z</time>
      </trkpt>
      <trkpt lat="39.248515" lon="-8.66263">
        <ele>8.0</ele>
        <time>2019-05-17T09:08:15.170Z</time>
      </trkpt>
      <trkpt lat="39.24855" lon="-8.662595">
        <ele>8.0</ele>
        <time>2019-05-17T09:08:16.180Z</time>
      </trkpt>
      <trkpt lat="39.24855" lon="-8.662595">
        <ele>8.0</ele>
        <time>2019-05-17T09:08:17.159Z</time>
      </trkpt>
      <trkpt lat="39.24858333" lon="-8.66256">
        <ele>8.0</ele>
        <time>2019-05-17T09:08:18.181Z</time>
      </trkpt>
      <trkpt lat="39.24858333" lon="-8.66256">
        <ele>8.0</ele>
        <time>2019-05-17T09:08:19.153Z</time>
      </trkpt>
      <trkpt lat="39.248615" lon="-8.662525">
        <ele>8.0</ele>
        <time>2019-05-17T09:08:20.164Z</time>
      </trkpt>
      <trkpt lat="39.248615" lon="-8.662525">
        <ele>8.0</ele>
        <time>2019-05-17T09:08:21.152Z</time>
      </trkpt>
      <trkpt lat="39.24864833" lon="-8.66249667">
        <ele>8.0</ele>
        <time>2019-05-17T09:08:22.167Z</time>
      </trkpt>
      <trkpt lat="39.24864833" lon="-8.66249667">
        <ele>8.0</ele>
        <time>2019-05-17T09:08:23.186Z</time>
      </trkpt>
      <trkpt lat="39.24868167" lon="-8.66245833">
        <ele>8.0</ele>
        <time>2019-05-17T09:08:24.157Z</time>
      </trkpt>
      <trkpt lat="39.24868167" lon="-8.66245833">
        <ele>8.0</ele>
        <time>2019-05-17T09:08:25.186Z</time>
      </trkpt>
      <trkpt lat="39.24871667" lon="-8.66242167">
        <ele>8.0</ele>
        <time>2019-05-17T09:08:26.162Z</time>
      </trkpt>
      <trkpt lat="39.24871667" lon="-8.66242167">
        <ele>8.0</ele>
        <time>2019-05-17T09:08:27.172Z</time>
      </trkpt>
      <trkpt lat="39.24875" lon="-8.66237667">
        <ele>8.0</ele>
        <time>2019-05-17T09:08:28.184Z</time>
      </trkpt>
      <trkpt lat="39.24876667" lon="-8.66235167">
        <ele>8.0</ele>
        <time>2019-05-17T09:08:29.160Z</time>
      </trkpt>
      <trkpt lat="39.24876667" lon="-8.66235167">
        <ele>8.0</ele>
        <time>2019-05-17T09:08:30.183Z</time>
      </trkpt>
      <trkpt lat="39.24880167" lon="-8.66230333">
        <ele>8.0</ele>
        <time>2019-05-17T09:08:31.155Z</time>
      </trkpt>
      <trkpt lat="39.24881667" lon="-8.66227833">
        <ele>7.0</ele>
        <time>2019-05-17T09:08:32.185Z</time>
      </trkpt>
      <trkpt lat="39.24881667" lon="-8.66227833">
        <ele>7.0</ele>
        <time>2019-05-17T09:08:33.151Z</time>
      </trkpt>
      <trkpt lat="39.248845" lon="-8.66222667">
        <ele>7.0</ele>
        <time>2019-05-17T09:08:34.161Z</time>
      </trkpt>
      <trkpt lat="39.24886" lon="-8.66220333">
        <ele>7.0</ele>
        <time>2019-05-17T09:08:35.179Z</time>
      </trkpt>
      <trkpt lat="39.24887833" lon="-8.66217833">
        <ele>7.0</ele>
        <time>2019-05-17T09:08:36.171Z</time>
      </trkpt>
      <trkpt lat="39.24887833" lon="-8.66217833">
        <ele>7.0</ele>
        <time>2019-05-17T09:08:37.187Z</time>
      </trkpt>
      <trkpt lat="39.24891333" lon="-8.66212833">
        <ele>7.0</ele>
        <time>2019-05-17T09:08:38.156Z</time>
      </trkpt>
      <trkpt lat="39.24891333" lon="-8.66212833">
        <ele>7.0</ele>
        <time>2019-05-17T09:08:39.182Z</time>
      </trkpt>
      <trkpt lat="39.24894667" lon="-8.662085">
        <ele>8.0</ele>
        <time>2019-05-17T09:08:40.154Z</time>
      </trkpt>
      <trkpt lat="39.24894667" lon="-8.662085">
        <ele>8.0</ele>
        <time>2019-05-17T09:08:41.169Z</time>
      </trkpt>
      <trkpt lat="39.24897833" lon="-8.66204833">
        <ele>8.0</ele>
        <time>2019-05-17T09:08:42.181Z</time>
      </trkpt>
      <trkpt lat="39.24897833" lon="-8.66204833">
        <ele>8.0</ele>
        <time>2019-05-17T09:08:43.172Z</time>
      </trkpt>
      <trkpt lat="39.24900167" lon="-8.66200667">
        <ele>7.0</ele>
        <time>2019-05-17T09:08:44.161Z</time>
      </trkpt>
      <trkpt lat="39.24900167" lon="-8.66200667">
        <ele>7.0</ele>
        <time>2019-05-17T09:08:45.173Z</time>
      </trkpt>
      <trkpt lat="39.249025" lon="-8.66196333">
        <ele>7.0</ele>
        <time>2019-05-17T09:08:46.184Z</time>
      </trkpt>
      <trkpt lat="39.249025" lon="-8.66196333">
        <ele>7.0</ele>
        <time>2019-05-17T09:08:47.180Z</time>
      </trkpt>
      <trkpt lat="39.24905" lon="-8.66192333">
        <ele>7.0</ele>
        <time>2019-05-17T09:08:48.152Z</time>
      </trkpt>
      <trkpt lat="39.24905" lon="-8.66192333">
        <ele>7.0</ele>
        <time>2019-05-17T09:08:49.183Z</time>
      </trkpt>
      <trkpt lat="39.24907167" lon="-8.66188167">
        <ele>7.0</ele>
        <time>2019-05-17T09:08:50.151Z</time>
      </trkpt>
      <trkpt lat="39.24907167" lon="-8.66188167">
        <ele>7.0</ele>
        <time>2019-05-17T09:08:51.168Z</time>
      </trkpt>
      <trkpt lat="39.24909333" lon="-8.66184">
        <ele>7.0</ele>
        <time>2019-05-17T09:08:52.183Z</time>
      </trkpt>
      <trkpt lat="39.249105" lon="-8.661815">
        <ele>7.0</ele>
        <time>2019-05-17T09:08:53.164Z</time>
      </trkpt>
      <trkpt lat="39.24911833" lon="-8.66179">
        <ele>7.0</ele>
        <time>2019-05-17T09:08:54.182Z</time>
      </trkpt>
      <trkpt lat="39.24911833" lon="-8.66179">
        <ele>7.0</ele>
        <time>2019-05-17T09:08:55.153Z</time>
      </trkpt>
      <trkpt lat="39.24914833" lon="-8.66174167">
        <ele>7.0</ele>
        <time>2019-05-17T09:08:56.168Z</time>
      </trkpt>
      <trkpt lat="39.24914833" lon="-8.66174167">
        <ele>7.0</ele>
        <time>2019-05-17T09:08:57.179Z</time>
      </trkpt>
      <trkpt lat="39.24917667" lon="-8.6617">
        <ele>7.0</ele>
        <time>2019-05-17T09:08:58.150Z</time>
      </trkpt>
      <trkpt lat="39.24917667" lon="-8.6617">
        <ele>7.0</ele>
        <time>2019-05-17T09:08:59.162Z</time>
      </trkpt>
      <trkpt lat="39.24920833" lon="-8.66166167">
        <ele>7.0</ele>
        <time>2019-05-17T09:09:00.175Z</time>
      </trkpt>
      <trkpt lat="39.24920833" lon="-8.66166167">
        <ele>7.0</ele>
        <time>2019-05-17T09:09:01.186Z</time>
      </trkpt>
      <trkpt lat="39.24923667" lon="-8.661615">
        <ele>7.0</ele>
        <time>2019-05-17T09:09:02.160Z</time>
      </trkpt>
      <trkpt lat="39.24925333" lon="-8.66159">
        <ele>7.0</ele>
        <time>2019-05-17T09:09:03.172Z</time>
      </trkpt>
      <trkpt lat="39.24925333" lon="-8.66159">
        <ele>7.0</ele>
        <time>2019-05-17T09:09:04.188Z</time>
      </trkpt>
      <trkpt lat="39.249285" lon="-8.66154667">
        <ele>7.0</ele>
        <time>2019-05-17T09:09:05.172Z</time>
      </trkpt>
      <trkpt lat="39.2493" lon="-8.661525">
        <ele>7.0</ele>
        <time>2019-05-17T09:09:06.159Z</time>
      </trkpt>
      <trkpt lat="39.2493" lon="-8.661525">
        <ele>7.0</ele>
        <time>2019-05-17T09:09:07.177Z</time>
      </trkpt>
      <trkpt lat="39.24933167" lon="-8.66148167">
        <ele>7.0</ele>
        <time>2019-05-17T09:09:08.188Z</time>
      </trkpt>
      <trkpt lat="39.24933167" lon="-8.66148167">
        <ele>7.0</ele>
        <time>2019-05-17T09:09:09.187Z</time>
      </trkpt>
      <trkpt lat="39.24936333" lon="-8.66144">
        <ele>7.0</ele>
        <time>2019-05-17T09:09:10.167Z</time>
      </trkpt>
      <trkpt lat="39.24936333" lon="-8.66144">
        <ele>7.0</ele>
        <time>2019-05-17T09:09:11.180Z</time>
      </trkpt>
      <trkpt lat="39.24939167" lon="-8.661405">
        <ele>7.0</ele>
        <time>2019-05-17T09:09:12.150Z</time>
      </trkpt>
      <trkpt lat="39.24939167" lon="-8.661405">
        <ele>7.0</ele>
        <time>2019-05-17T09:09:13.161Z</time>
      </trkpt>
      <trkpt lat="39.24942167" lon="-8.66137">
        <ele>7.0</ele>
        <time>2019-05-17T09:09:14.186Z</time>
      </trkpt>
      <trkpt lat="39.24942167" lon="-8.66137">
        <ele>7.0</ele>
        <time>2019-05-17T09:09:15.160Z</time>
      </trkpt>
      <trkpt lat="39.24945333" lon="-8.66132833">
        <ele>7.0</ele>
        <time>2019-05-17T09:09:16.168Z</time>
      </trkpt>
      <trkpt lat="39.24945333" lon="-8.66132833">
        <ele>7.0</ele>
        <time>2019-05-17T09:09:17.177Z</time>
      </trkpt>
      <trkpt lat="39.24949" lon="-8.66128667">
        <ele>7.0</ele>
        <time>2019-05-17T09:09:18.192Z</time>
      </trkpt>
      <trkpt lat="39.24949" lon="-8.66128667">
        <ele>7.0</ele>
        <time>2019-05-17T09:09:19.172Z</time>
      </trkpt>
      <trkpt lat="39.24952167" lon="-8.66124333">
        <ele>7.0</ele>
        <time>2019-05-17T09:09:20.186Z</time>
      </trkpt>
      <trkpt lat="39.24952167" lon="-8.66124333">
        <ele>7.0</ele>
        <time>2019-05-17T09:09:21.153Z</time>
      </trkpt>
      <trkpt lat="39.24955167" lon="-8.661195">
        <ele>7.0</ele>
        <time>2019-05-17T09:09:22.163Z</time>
      </trkpt>
      <trkpt lat="39.249565" lon="-8.66117167">
        <ele>7.0</ele>
        <time>2019-05-17T09:09:23.185Z</time>
      </trkpt>
      <trkpt lat="39.24958" lon="-8.66114833">
        <ele>7.0</ele>
        <time>2019-05-17T09:09:24.171Z</time>
      </trkpt>
      <trkpt lat="39.24958" lon="-8.66114833">
        <ele>7.0</ele>
        <time>2019-05-17T09:09:25.150Z</time>
      </trkpt>
      <trkpt lat="39.24961333" lon="-8.66110333">
        <ele>7.0</ele>
        <time>2019-05-17T09:09:26.165Z</time>
      </trkpt>
      <trkpt lat="39.24961333" lon="-8.66110333">
        <ele>7.0</ele>
        <time>2019-05-17T09:09:27.181Z</time>
      </trkpt>
      <trkpt lat="39.249645" lon="-8.66105333">
        <ele>7.0</ele>
        <time>2019-05-17T09:09:28.156Z</time>
      </trkpt>
      <trkpt lat="39.249645" lon="-8.66105333">
        <ele>7.0</ele>
        <time>2019-05-17T09:09:29.168Z</time>
      </trkpt>
      <trkpt lat="39.24967833" lon="-8.66100167">
        <ele>7.0</ele>
        <time>2019-05-17T09:09:30.162Z</time>
      </trkpt>
      <trkpt lat="39.24967833" lon="-8.66100167">
        <ele>7.0</ele>
        <time>2019-05-17T09:09:31.187Z</time>
      </trkpt>
      <trkpt lat="39.24971167" lon="-8.66094833">
        <ele>7.0</ele>
        <time>2019-05-17T09:09:32.156Z</time>
      </trkpt>
      <trkpt lat="39.24971167" lon="-8.66094833">
        <ele>7.0</ele>
        <time>2019-05-17T09:09:33.164Z</time>
      </trkpt>
      <trkpt lat="39.24974667" lon="-8.660905">
        <ele>6.0</ele>
        <time>2019-05-17T09:09:34.176Z</time>
      </trkpt>
      <trkpt lat="39.24976333" lon="-8.66088667">
        <ele>6.0</ele>
        <time>2019-05-17T09:09:35.157Z</time>
      </trkpt>
      <trkpt lat="39.24976333" lon="-8.66088667">
        <ele>6.0</ele>
        <time>2019-05-17T09:09:36.175Z</time>
      </trkpt>
      <trkpt lat="39.24979667" lon="-8.66084833">
        <ele>6.0</ele>
        <time>2019-05-17T09:09:37.188Z</time>
      </trkpt>
      <trkpt lat="39.249815" lon="-8.66083">
        <ele>6.0</ele>
        <time>2019-05-17T09:09:38.165Z</time>
      </trkpt>
      <trkpt lat="39.249815" lon="-8.66083">
        <ele>6.0</ele>
        <time>2019-05-17T09:09:39.174Z</time>
      </trkpt>
      <trkpt lat="39.249855" lon="-8.660805">
        <ele>6.0</ele>
        <time>2019-05-17T09:09:40.153Z</time>
      </trkpt>
      <trkpt lat="39.249855" lon="-8.660805">
        <ele>6.0</ele>
        <time>2019-05-17T09:09:41.172Z</time>
      </trkpt>
      <trkpt lat="39.24988833" lon="-8.66076667">
        <ele>6.0</ele>
        <time>2019-05-17T09:09:42.184Z</time>
      </trkpt>
      <trkpt lat="39.24988833" lon="-8.66076667">
        <ele>6.0</ele>
        <time>2019-05-17T09:09:43.160Z</time>
      </trkpt>
      <trkpt lat="39.24992" lon="-8.660725">
        <ele>6.0</ele>
        <time>2019-05-17T09:09:44.172Z</time>
      </trkpt>
      <trkpt lat="39.24992" lon="-8.660725">
        <ele>6.0</ele>
        <time>2019-05-17T09:09:45.180Z</time>
      </trkpt>
      <trkpt lat="39.24995333" lon="-8.66068833">
        <ele>6.0</ele>
        <time>2019-05-17T09:09:46.153Z</time>
      </trkpt>
      <trkpt lat="39.24995333" lon="-8.66068833">
        <ele>6.0</ele>
        <time>2019-05-17T09:09:47.167Z</time>
      </trkpt>
      <trkpt lat="39.24998833" lon="-8.66065167">
        <ele>6.0</ele>
        <time>2019-05-17T09:09:48.180Z</time>
      </trkpt>
      <trkpt lat="39.24998833" lon="-8.66065167">
        <ele>6.0</ele>
        <time>2019-05-17T09:09:49.166Z</time>
      </trkpt>
      <trkpt lat="39.250025" lon="-8.66061167">
        <ele>6.0</ele>
        <time>2019-05-17T09:09:50.179Z</time>
      </trkpt>
      <trkpt lat="39.25004333" lon="-8.66059">
        <ele>6.0</ele>
        <time>2019-05-17T09:09:51.152Z</time>
      </trkpt>
      <trkpt lat="39.25004333" lon="-8.66059">
        <ele>6.0</ele>
        <time>2019-05-17T09:09:52.166Z</time>
      </trkpt>
      <trkpt lat="39.25008" lon="-8.66054667">
        <ele>6.0</ele>
        <time>2019-05-17T09:09:53.181Z</time>
      </trkpt>
      <trkpt lat="39.2501" lon="-8.66052333">
        <ele>6.0</ele>
        <time>2019-05-17T09:09:54.162Z</time>
      </trkpt>
      <trkpt lat="39.2501" lon="-8.66052333">
        <ele>6.0</ele>
        <time>2019-05-17T09:09:55.175Z</time>
      </trkpt>
      <trkpt lat="39.25013667" lon="-8.66047667">
        <ele>6.0</ele>
        <time>2019-05-17T09:09:56.184Z</time>
      </trkpt>
      <trkpt lat="39.25015667" lon="-8.66045833">
        <ele>6.0</ele>
        <time>2019-05-17T09:09:57.162Z</time>
      </trkpt>
      <trkpt lat="39.25015667" lon="-8.66045833">
        <ele>6.0</ele>
        <time>2019-05-17T09:09:58.183Z</time>
      </trkpt>
      <trkpt lat="39.25019167" lon="-8.66042167">
        <ele>6.0</ele>
        <time>2019-05-17T09:09:59.151Z</time>
      </trkpt>
      <trkpt lat="39.25020667" lon="-8.660405">
        <ele>6.0</ele>
        <time>2019-05-17T09:10:00.172Z</time>
      </trkpt>
      <trkpt lat="39.25020667" lon="-8.660405">
        <ele>6.0</ele>
        <time>2019-05-17T09:10:01.166Z</time>
      </trkpt>
      <trkpt lat="39.25024167" lon="-8.66036833">
        <ele>6.0</ele>
        <time>2019-05-17T09:10:02.178Z</time>
      </trkpt>
      <trkpt lat="39.25024167" lon="-8.66036833">
        <ele>6.0</ele>
        <time>2019-05-17T09:10:03.172Z</time>
      </trkpt>
      <trkpt lat="39.25027833" lon="-8.660335">
        <ele>6.0</ele>
        <time>2019-05-17T09:10:04.184Z</time>
      </trkpt>
      <trkpt lat="39.25029667" lon="-8.66031833">
        <ele>6.0</ele>
        <time>2019-05-17T09:10:05.162Z</time>
      </trkpt>
      <trkpt lat="39.25031333" lon="-8.6603">
        <ele>6.0</ele>
        <time>2019-05-17T09:10:06.176Z</time>
      </trkpt>
      <trkpt lat="39.25031333" lon="-8.6603">
        <ele>6.0</ele>
        <time>2019-05-17T09:10:07.154Z</time>
      </trkpt>
      <trkpt lat="39.25034833" lon="-8.66026667">
        <ele>6.0</ele>
        <time>2019-05-17T09:10:08.167Z</time>
      </trkpt>
      <trkpt lat="39.25034833" lon="-8.66026667">
        <ele>6.0</ele>
        <time>2019-05-17T09:10:09.176Z</time>
      </trkpt>
      <trkpt lat="39.25038667" lon="-8.66023667">
        <ele>6.0</ele>
        <time>2019-05-17T09:10:10.152Z</time>
      </trkpt>
      <trkpt lat="39.25038667" lon="-8.66023667">
        <ele>6.0</ele>
        <time>2019-05-17T09:10:11.188Z</time>
      </trkpt>
      <trkpt lat="39.25041833" lon="-8.6602">
        <ele>6.0</ele>
        <time>2019-05-17T09:10:12.162Z</time>
      </trkpt>
      <trkpt lat="39.25041833" lon="-8.6602">
        <ele>6.0</ele>
        <time>2019-05-17T09:10:13.176Z</time>
      </trkpt>
      <trkpt lat="39.25045833" lon="-8.66017333">
        <ele>6.0</ele>
        <time>2019-05-17T09:10:14.153Z</time>
      </trkpt>
      <trkpt lat="39.25045833" lon="-8.66017333">
        <ele>6.0</ele>
        <time>2019-05-17T09:10:15.168Z</time>
      </trkpt>
      <trkpt lat="39.25049667" lon="-8.66014667">
        <ele>6.0</ele>
        <time>2019-05-17T09:10:16.164Z</time>
      </trkpt>
      <trkpt lat="39.25049667" lon="-8.66014667">
        <ele>6.0</ele>
        <time>2019-05-17T09:10:17.168Z</time>
      </trkpt>
      <trkpt lat="39.25053" lon="-8.66011">
        <ele>6.0</ele>
        <time>2019-05-17T09:10:18.180Z</time>
      </trkpt>
      <trkpt lat="39.25053" lon="-8.66011">
        <ele>6.0</ele>
        <time>2019-05-17T09:10:19.150Z</time>
      </trkpt>
      <trkpt lat="39.25056333" lon="-8.66007667">
        <ele>6.0</ele>
        <time>2019-05-17T09:10:20.172Z</time>
      </trkpt>
      <trkpt lat="39.25056333" lon="-8.66007667">
        <ele>6.0</ele>
        <time>2019-05-17T09:10:21.185Z</time>
      </trkpt>
      <trkpt lat="39.250595" lon="-8.660045">
        <ele>6.0</ele>
        <time>2019-05-17T09:10:22.166Z</time>
      </trkpt>
      <trkpt lat="39.25061" lon="-8.66003">
        <ele>6.0</ele>
        <time>2019-05-17T09:10:23.189Z</time>
      </trkpt>
      <trkpt lat="39.25062333" lon="-8.66001833">
        <ele>6.0</ele>
        <time>2019-05-17T09:10:24.176Z</time>
      </trkpt>
      <trkpt lat="39.25062333" lon="-8.66001833">
        <ele>6.0</ele>
        <time>2019-05-17T09:10:25.150Z</time>
      </trkpt>
      <trkpt lat="39.25065167" lon="-8.65999">
        <ele>6.0</ele>
        <time>2019-05-17T09:10:26.175Z</time>
      </trkpt>
      <trkpt lat="39.25066667" lon="-8.659975">
        <ele>6.0</ele>
        <time>2019-05-17T09:10:27.150Z</time>
      </trkpt>
      <trkpt lat="39.25066667" lon="-8.659975">
        <ele>6.0</ele>
        <time>2019-05-17T09:10:28.184Z</time>
      </trkpt>
      <trkpt lat="39.25069833" lon="-8.65994667">
        <ele>6.0</ele>
        <time>2019-05-17T09:10:29.155Z</time>
      </trkpt>
      <trkpt lat="39.25071333" lon="-8.65993">
        <ele>6.0</ele>
        <time>2019-05-17T09:10:30.181Z</time>
      </trkpt>
      <trkpt lat="39.25071333" lon="-8.65993">
        <ele>6.0</ele>
        <time>2019-05-17T09:10:31.150Z</time>
      </trkpt>
      <trkpt lat="39.25074833" lon="-8.65989667">
        <ele>6.0</ele>
        <time>2019-05-17T09:10:32.183Z</time>
      </trkpt>
      <trkpt lat="39.25074833" lon="-8.65989667">
        <ele>6.0</ele>
        <time>2019-05-17T09:10:33.153Z</time>
      </trkpt>
      <trkpt lat="39.25077833" lon="-8.659865">
        <ele>6.0</ele>
        <time>2019-05-17T09:10:34.169Z</time>
      </trkpt>
      <trkpt lat="39.250795" lon="-8.65984667">
        <ele>6.0</ele>
        <time>2019-05-17T09:10:35.184Z</time>
      </trkpt>
      <trkpt lat="39.25081167" lon="-8.65983167">
        <ele>6.0</ele>
        <time>2019-05-17T09:10:36.157Z</time>
      </trkpt>
      <trkpt lat="39.25081167" lon="-8.65983167">
        <ele>6.0</ele>
        <time>2019-05-17T09:10:37.187Z</time>
      </trkpt>
      <trkpt lat="39.25084667" lon="-8.65979667">
        <ele>6.0</ele>
        <time>2019-05-17T09:10:38.158Z</time>
      </trkpt>
      <trkpt lat="39.25086333" lon="-8.65977833">
        <ele>6.0</ele>
        <time>2019-05-17T09:10:39.183Z</time>
      </trkpt>
      <trkpt lat="39.25086333" lon="-8.65977833">
        <ele>6.0</ele>
        <time>2019-05-17T09:10:40.160Z</time>
      </trkpt>
      <trkpt lat="39.25089833" lon="-8.65974333">
        <ele>6.0</ele>
        <time>2019-05-17T09:10:41.158Z</time>
      </trkpt>
      <trkpt lat="39.25091333" lon="-8.65972833">
        <ele>6.0</ele>
        <time>2019-05-17T09:10:42.175Z</time>
      </trkpt>
      <trkpt lat="39.25091333" lon="-8.65972833">
        <ele>6.0</ele>
        <time>2019-05-17T09:10:43.188Z</time>
      </trkpt>
      <trkpt lat="39.25094167" lon="-8.6597">
        <ele>6.0</ele>
        <time>2019-05-17T09:10:44.166Z</time>
      </trkpt>
      <trkpt lat="39.25094167" lon="-8.6597">
        <ele>6.0</ele>
        <time>2019-05-17T09:10:45.187Z</time>
      </trkpt>
      <trkpt lat="39.25096833" lon="-8.65967">
        <ele>6.0</ele>
        <time>2019-05-17T09:10:46.166Z</time>
      </trkpt>
      <trkpt lat="39.25096833" lon="-8.65967">
        <ele>6.0</ele>
        <time>2019-05-17T09:10:47.181Z</time>
      </trkpt>
      <trkpt lat="39.251" lon="-8.65964">
        <ele>6.0</ele>
        <time>2019-05-17T09:10:48.154Z</time>
      </trkpt>
      <trkpt lat="39.251" lon="-8.65964">
        <ele>6.0</ele>
        <time>2019-05-17T09:10:49.177Z</time>
      </trkpt>
      <trkpt lat="39.25103333" lon="-8.65961167">
        <ele>6.0</ele>
        <time>2019-05-17T09:10:50.150Z</time>
      </trkpt>
      <trkpt lat="39.25103333" lon="-8.65961167">
        <ele>6.0</ele>
        <time>2019-05-17T09:10:51.177Z</time>
      </trkpt>
      <trkpt lat="39.251065" lon="-8.65958">
        <ele>6.0</ele>
        <time>2019-05-17T09:10:52.185Z</time>
      </trkpt>
      <trkpt lat="39.251065" lon="-8.65958">
        <ele>6.0</ele>
        <time>2019-05-17T09:10:53.169Z</time>
      </trkpt>
      <trkpt lat="39.251095" lon="-8.65954167">
        <ele>6.0</ele>
        <time>2019-05-17T09:10:54.150Z</time>
      </trkpt>
      <trkpt lat="39.251095" lon="-8.65954167">
        <ele>6.0</ele>
        <time>2019-05-17T09:10:55.159Z</time>
      </trkpt>
      <trkpt lat="39.25112667" lon="-8.659505">
        <ele>6.0</ele>
        <time>2019-05-17T09:10:56.169Z</time>
      </trkpt>
      <trkpt lat="39.25112667" lon="-8.659505">
        <ele>6.0</ele>
        <time>2019-05-17T09:10:57.150Z</time>
      </trkpt>
      <trkpt lat="39.25115667" lon="-8.65946167">
        <ele>6.0</ele>
        <time>2019-05-17T09:10:58.162Z</time>
      </trkpt>
      <trkpt lat="39.25115667" lon="-8.65946167">
        <ele>6.0</ele>
        <time>2019-05-17T09:10:59.175Z</time>
      </trkpt>
      <trkpt lat="39.25119" lon="-8.659425">
        <ele>6.0</ele>
        <time>2019-05-17T09:11:00.188Z</time>
      </trkpt>
      <trkpt lat="39.25119" lon="-8.659425">
        <ele>6.0</ele>
        <time>2019-05-17T09:11:01.183Z</time>
      </trkpt>
      <trkpt lat="39.25122333" lon="-8.65938833">
        <ele>6.0</ele>
        <time>2019-05-17T09:11:02.152Z</time>
      </trkpt>
      <trkpt lat="39.25122333" lon="-8.65938833">
        <ele>6.0</ele>
        <time>2019-05-17T09:11:03.167Z</time>
      </trkpt>
      <trkpt lat="39.25125833" lon="-8.65935">
        <ele>6.0</ele>
        <time>2019-05-17T09:11:04.183Z</time>
      </trkpt>
      <trkpt lat="39.25125833" lon="-8.65935">
        <ele>6.0</ele>
        <time>2019-05-17T09:11:05.163Z</time>
      </trkpt>
      <trkpt lat="39.25129" lon="-8.65930833">
        <ele>6.0</ele>
        <time>2019-05-17T09:11:06.172Z</time>
      </trkpt>
      <trkpt lat="39.25129" lon="-8.65930833">
        <ele>6.0</ele>
        <time>2019-05-17T09:11:07.187Z</time>
      </trkpt>
      <trkpt lat="39.25131833" lon="-8.65926167">
        <ele>6.0</ele>
        <time>2019-05-17T09:11:08.161Z</time>
      </trkpt>
      <trkpt lat="39.25131833" lon="-8.65926167">
        <ele>6.0</ele>
        <time>2019-05-17T09:11:09.167Z</time>
      </trkpt>
      <trkpt lat="39.25135167" lon="-8.65921833">
        <ele>6.0</ele>
        <time>2019-05-17T09:11:10.167Z</time>
      </trkpt>
      <trkpt lat="39.25137" lon="-8.65919667">
        <ele>6.0</ele>
        <time>2019-05-17T09:11:11.185Z</time>
      </trkpt>
      <trkpt lat="39.25138667" lon="-8.65917667">
        <ele>6.0</ele>
        <time>2019-05-17T09:11:12.167Z</time>
      </trkpt>
      <trkpt lat="39.25138667" lon="-8.65917667">
        <ele>6.0</ele>
        <time>2019-05-17T09:11:13.150Z</time>
      </trkpt>
      <trkpt lat="39.25141833" lon="-8.65913333">
        <ele>6.0</ele>
        <time>2019-05-17T09:11:14.173Z</time>
      </trkpt>
      <trkpt lat="39.25141833" lon="-8.65913333">
        <ele>6.0</ele>
        <time>2019-05-17T09:11:15.180Z</time>
      </trkpt>
      <trkpt lat="39.25144833" lon="-8.659085">
        <ele>6.0</ele>
        <time>2019-05-17T09:11:16.152Z</time>
      </trkpt>
      <trkpt lat="39.25144833" lon="-8.659085">
        <ele>6.0</ele>
        <time>2019-05-17T09:11:17.171Z</time>
      </trkpt>
      <trkpt lat="39.25147667" lon="-8.659035">
        <ele>6.0</ele>
        <time>2019-05-17T09:11:18.180Z</time>
      </trkpt>
      <trkpt lat="39.25147667" lon="-8.659035">
        <ele>6.0</ele>
        <time>2019-05-17T09:11:19.154Z</time>
      </trkpt>
      <trkpt lat="39.251505" lon="-8.65898333">
        <ele>5.0</ele>
        <time>2019-05-17T09:11:20.155Z</time>
      </trkpt>
      <trkpt lat="39.251505" lon="-8.65898333">
        <ele>5.0</ele>
        <time>2019-05-17T09:11:21.167Z</time>
      </trkpt>
      <trkpt lat="39.25152667" lon="-8.65892667">
        <ele>5.0</ele>
        <time>2019-05-17T09:11:22.178Z</time>
      </trkpt>
      <trkpt lat="39.25153667" lon="-8.65890167">
        <ele>5.0</ele>
        <time>2019-05-17T09:11:23.164Z</time>
      </trkpt>
      <trkpt lat="39.25154667" lon="-8.658875">
        <ele>5.0</ele>
        <time>2019-05-17T09:11:24.186Z</time>
      </trkpt>
      <trkpt lat="39.25154667" lon="-8.658875">
        <ele>5.0</ele>
        <time>2019-05-17T09:11:25.163Z</time>
      </trkpt>
      <trkpt lat="39.25156667" lon="-8.65882167">
        <ele>5.0</ele>
        <time>2019-05-17T09:11:26.180Z</time>
      </trkpt>
      <trkpt lat="39.25156667" lon="-8.65882167">
        <ele>5.0</ele>
        <time>2019-05-17T09:11:27.150Z</time>
      </trkpt>
      <trkpt lat="39.25158167" lon="-8.65876667">
        <ele>5.0</ele>
        <time>2019-05-17T09:11:28.189Z</time>
      </trkpt>
      <trkpt lat="39.25158167" lon="-8.65876667">
        <ele>5.0</ele>
        <time>2019-05-17T09:11:29.177Z</time>
      </trkpt>
      <trkpt lat="39.25159833" lon="-8.65871">
        <ele>5.0</ele>
        <time>2019-05-17T09:11:30.189Z</time>
      </trkpt>
      <trkpt lat="39.25159833" lon="-8.65871">
        <ele>5.0</ele>
        <time>2019-05-17T09:11:31.174Z</time>
      </trkpt>
      <trkpt lat="39.25161333" lon="-8.65865167">
        <ele>5.0</ele>
        <time>2019-05-17T09:11:32.184Z</time>
      </trkpt>
      <trkpt lat="39.25161333" lon="-8.65865167">
        <ele>5.0</ele>
        <time>2019-05-17T09:11:33.181Z</time>
      </trkpt>
      <trkpt lat="39.25162833" lon="-8.65859">
        <ele>5.0</ele>
        <time>2019-05-17T09:11:34.189Z</time>
      </trkpt>
      <trkpt lat="39.25162833" lon="-8.65859">
        <ele>5.0</ele>
        <time>2019-05-17T09:11:35.160Z</time>
      </trkpt>
      <trkpt lat="39.25164667" lon="-8.65852833">
        <ele>5.0</ele>
        <time>2019-05-17T09:11:36.173Z</time>
      </trkpt>
      <trkpt lat="39.25165333" lon="-8.65849833">
        <ele>5.0</ele>
        <time>2019-05-17T09:11:37.153Z</time>
      </trkpt>
      <trkpt lat="39.25165333" lon="-8.65849833">
        <ele>5.0</ele>
        <time>2019-05-17T09:11:38.164Z</time>
      </trkpt>
      <trkpt lat="39.25166667" lon="-8.65844">
        <ele>5.0</ele>
        <time>2019-05-17T09:11:39.179Z</time>
      </trkpt>
      <trkpt lat="39.25166667" lon="-8.65844">
        <ele>5.0</ele>
        <time>2019-05-17T09:11:40.188Z</time>
      </trkpt>
      <trkpt lat="39.25168" lon="-8.65838">
        <ele>5.0</ele>
        <time>2019-05-17T09:11:41.174Z</time>
      </trkpt>
      <trkpt lat="39.25168" lon="-8.65838">
        <ele>5.0</ele>
        <time>2019-05-17T09:11:42.178Z</time>
      </trkpt>
      <trkpt lat="39.25169333" lon="-8.65832333">
        <ele>5.0</ele>
        <time>2019-05-17T09:11:43.189Z</time>
      </trkpt>
      <trkpt lat="39.25169833" lon="-8.65829333">
        <ele>5.0</ele>
        <time>2019-05-17T09:11:44.150Z</time>
      </trkpt>
      <trkpt lat="39.25169833" lon="-8.65829333">
        <ele>5.0</ele>
        <time>2019-05-17T09:11:45.164Z</time>
      </trkpt>
      <trkpt lat="39.25171" lon="-8.65823667">
        <ele>5.0</ele>
        <time>2019-05-17T09:11:46.180Z</time>
      </trkpt>
      <trkpt lat="39.25171" lon="-8.65823667">
        <ele>5.0</ele>
        <time>2019-05-17T09:11:47.151Z</time>
      </trkpt>
      <trkpt lat="39.25172333" lon="-8.65817833">
        <ele>5.0</ele>
        <time>2019-05-17T09:11:48.163Z</time>
      </trkpt>
      <trkpt lat="39.25172333" lon="-8.65817833">
        <ele>5.0</ele>
        <time>2019-05-17T09:11:49.181Z</time>
      </trkpt>
      <trkpt lat="39.25173833" lon="-8.65811833">
        <ele>5.0</ele>
        <time>2019-05-17T09:11:50.151Z</time>
      </trkpt>
      <trkpt lat="39.25173833" lon="-8.65811833">
        <ele>5.0</ele>
        <time>2019-05-17T09:11:51.171Z</time>
      </trkpt>
      <trkpt lat="39.25175333" lon="-8.65805667">
        <ele>5.0</ele>
        <time>2019-05-17T09:11:52.180Z</time>
      </trkpt>
      <trkpt lat="39.25175333" lon="-8.65805667">
        <ele>5.0</ele>
        <time>2019-05-17T09:11:53.153Z</time>
      </trkpt>
      <trkpt lat="39.25176667" lon="-8.65799833">
        <ele>5.0</ele>
        <time>2019-05-17T09:11:54.162Z</time>
      </trkpt>
      <trkpt lat="39.25176667" lon="-8.65799833">
        <ele>5.0</ele>
        <time>2019-05-17T09:11:55.189Z</time>
      </trkpt>
      <trkpt lat="39.25178" lon="-8.65794333">
        <ele>5.0</ele>
        <time>2019-05-17T09:11:56.162Z</time>
      </trkpt>
      <trkpt lat="39.25178" lon="-8.65794333">
        <ele>5.0</ele>
        <time>2019-05-17T09:11:57.174Z</time>
      </trkpt>
      <trkpt lat="39.25179333" lon="-8.65789">
        <ele>5.0</ele>
        <time>2019-05-17T09:11:58.167Z</time>
      </trkpt>
      <trkpt lat="39.25179333" lon="-8.65789">
        <ele>5.0</ele>
        <time>2019-05-17T09:11:59.160Z</time>
      </trkpt>
      <trkpt lat="39.25180667" lon="-8.65783833">
        <ele>5.0</ele>
        <time>2019-05-17T09:12:00.176Z</time>
      </trkpt>
      <trkpt lat="39.25180667" lon="-8.65783833">
        <ele>5.0</ele>
        <time>2019-05-17T09:12:01.186Z</time>
      </trkpt>
      <trkpt lat="39.25182" lon="-8.65778833">
        <ele>5.0</ele>
        <time>2019-05-17T09:12:02.156Z</time>
      </trkpt>
      <trkpt lat="39.25182" lon="-8.65778833">
        <ele>5.0</ele>
        <time>2019-05-17T09:12:03.172Z</time>
      </trkpt>
      <trkpt lat="39.251835" lon="-8.65773833">
        <ele>5.0</ele>
        <time>2019-05-17T09:12:04.150Z</time>
      </trkpt>
      <trkpt lat="39.25184167" lon="-8.65771333">
        <ele>5.0</ele>
        <time>2019-05-17T09:12:05.188Z</time>
      </trkpt>
      <trkpt lat="39.25184833" lon="-8.65768667">
        <ele>5.0</ele>
        <time>2019-05-17T09:12:06.151Z</time>
      </trkpt>
      <trkpt lat="39.25184833" lon="-8.65768667">
        <ele>5.0</ele>
        <time>2019-05-17T09:12:07.168Z</time>
      </trkpt>
      <trkpt lat="39.25186" lon="-8.65764167">
        <ele>5.0</ele>
        <time>2019-05-17T09:12:08.180Z</time>
      </trkpt>
      <trkpt lat="39.25186667" lon="-8.65761833">
        <ele>5.0</ele>
        <time>2019-05-17T09:12:09.166Z</time>
      </trkpt>
      <trkpt lat="39.25186667" lon="-8.65761833">
        <ele>5.0</ele>
        <time>2019-05-17T09:12:10.159Z</time>
      </trkpt>
      <trkpt lat="39.25188" lon="-8.65757">
        <ele>5.0</ele>
        <time>2019-05-17T09:12:11.177Z</time>
      </trkpt>
      <trkpt lat="39.25188667" lon="-8.657545">
        <ele>5.0</ele>
        <time>2019-05-17T09:12:12.178Z</time>
      </trkpt>
      <trkpt lat="39.25188667" lon="-8.657545">
        <ele>5.0</ele>
        <time>2019-05-17T09:12:13.151Z</time>
      </trkpt>
      <trkpt lat="39.25190167" lon="-8.65749167">
        <ele>5.0</ele>
        <time>2019-05-17T09:12:14.173Z</time>
      </trkpt>
      <trkpt lat="39.25191" lon="-8.657465">
        <ele>5.0</ele>
        <time>2019-05-17T09:12:15.185Z</time>
      </trkpt>
      <trkpt lat="39.25191" lon="-8.657465">
        <ele>5.0</ele>
        <time>2019-05-17T09:12:16.160Z</time>
      </trkpt>
      <trkpt lat="39.25192667" lon="-8.65741167">
        <ele>5.0</ele>
        <time>2019-05-17T09:12:17.170Z</time>
      </trkpt>
      <trkpt lat="39.251935" lon="-8.657385">
        <ele>5.0</ele>
        <time>2019-05-17T09:12:18.152Z</time>
      </trkpt>
      <trkpt lat="39.251935" lon="-8.657385">
        <ele>5.0</ele>
        <time>2019-05-17T09:12:19.172Z</time>
      </trkpt>
      <trkpt lat="39.25195167" lon="-8.65733">
        <ele>5.0</ele>
        <time>2019-05-17T09:12:20.182Z</time>
      </trkpt>
      <trkpt lat="39.25195167" lon="-8.65733">
        <ele>5.0</ele>
        <time>2019-05-17T09:12:21.151Z</time>
      </trkpt>
      <trkpt lat="39.25197" lon="-8.65727333">
        <ele>5.0</ele>
        <time>2019-05-17T09:12:22.164Z</time>
      </trkpt>
      <trkpt lat="39.25197" lon="-8.65727333">
        <ele>5.0</ele>
        <time>2019-05-17T09:12:23.173Z</time>
      </trkpt>
      <trkpt lat="39.25198833" lon="-8.65721667">
        <ele>5.0</ele>
        <time>2019-05-17T09:12:24.183Z</time>
      </trkpt>
      <trkpt lat="39.25198833" lon="-8.65721667">
        <ele>5.0</ele>
        <time>2019-05-17T09:12:25.189Z</time>
      </trkpt>
      <trkpt lat="39.25201" lon="-8.65716833">
        <ele>5.0</ele>
        <time>2019-05-17T09:12:26.165Z</time>
      </trkpt>
      <trkpt lat="39.25201" lon="-8.65716833">
        <ele>5.0</ele>
        <time>2019-05-17T09:12:27.163Z</time>
      </trkpt>
      <trkpt lat="39.25203" lon="-8.65711667">
        <ele>5.0</ele>
        <time>2019-05-17T09:12:28.181Z</time>
      </trkpt>
      <trkpt lat="39.25204" lon="-8.65709167">
        <ele>5.0</ele>
        <time>2019-05-17T09:12:29.169Z</time>
      </trkpt>
      <trkpt lat="39.25205" lon="-8.657065">
        <ele>5.0</ele>
        <time>2019-05-17T09:12:30.185Z</time>
      </trkpt>
      <trkpt lat="39.25205" lon="-8.657065">
        <ele>5.0</ele>
        <time>2019-05-17T09:12:31.172Z</time>
      </trkpt>
      <trkpt lat="39.25207333" lon="-8.657005">
        <ele>5.0</ele>
        <time>2019-05-17T09:12:32.187Z</time>
      </trkpt>
      <trkpt lat="39.25207333" lon="-8.657005">
        <ele>5.0</ele>
        <time>2019-05-17T09:12:33.163Z</time>
      </trkpt>
      <trkpt lat="39.2521" lon="-8.656955">
        <ele>5.0</ele>
        <time>2019-05-17T09:12:34.177Z</time>
      </trkpt>
      <trkpt lat="39.2521" lon="-8.656955">
        <ele>5.0</ele>
        <time>2019-05-17T09:12:35.185Z</time>
      </trkpt>
      <trkpt lat="39.25212333" lon="-8.65689667">
        <ele>6.0</ele>
        <time>2019-05-17T09:12:36.157Z</time>
      </trkpt>
      <trkpt lat="39.25212333" lon="-8.65689667">
        <ele>6.0</ele>
        <time>2019-05-17T09:12:37.171Z</time>
      </trkpt>
      <trkpt lat="39.25214833" lon="-8.656845">
        <ele>6.0</ele>
        <time>2019-05-17T09:12:38.190Z</time>
      </trkpt>
      <trkpt lat="39.25216" lon="-8.65682">
        <ele>6.0</ele>
        <time>2019-05-17T09:12:39.168Z</time>
      </trkpt>
      <trkpt lat="39.25216" lon="-8.65682">
        <ele>6.0</ele>
        <time>2019-05-17T09:12:40.179Z</time>
      </trkpt>
      <trkpt lat="39.25218667" lon="-8.65676833">
        <ele>6.0</ele>
        <time>2019-05-17T09:12:41.154Z</time>
      </trkpt>
      <trkpt lat="39.25219833" lon="-8.656745">
        <ele>6.0</ele>
        <time>2019-05-17T09:12:42.178Z</time>
      </trkpt>
      <trkpt lat="39.25219833" lon="-8.656745">
        <ele>6.0</ele>
        <time>2019-05-17T09:12:43.188Z</time>
      </trkpt>
      <trkpt lat="39.25222333" lon="-8.65669667">
        <ele>6.0</ele>
        <time>2019-05-17T09:12:44.165Z</time>
      </trkpt>
      <trkpt lat="39.25222333" lon="-8.65669667">
        <ele>6.0</ele>
        <time>2019-05-17T09:12:45.167Z</time>
      </trkpt>
      <trkpt lat="39.25224833" lon="-8.656645">
        <ele>7.0</ele>
        <time>2019-05-17T09:12:46.150Z</time>
      </trkpt>
      <trkpt lat="39.25226333" lon="-8.65662167">
        <ele>7.0</ele>
        <time>2019-05-17T09:12:47.190Z</time>
      </trkpt>
      <trkpt lat="39.25227667" lon="-8.656595">
        <ele>7.0</ele>
        <time>2019-05-17T09:12:48.172Z</time>
      </trkpt>
      <trkpt lat="39.25227667" lon="-8.656595">
        <ele>7.0</ele>
        <time>2019-05-17T09:12:49.181Z</time>
      </trkpt>
      <trkpt lat="39.252305" lon="-8.65654167">
        <ele>7.0</ele>
        <time>2019-05-17T09:12:50.188Z</time>
      </trkpt>
      <trkpt lat="39.252305" lon="-8.65654167">
        <ele>7.0</ele>
        <time>2019-05-17T09:12:51.170Z</time>
      </trkpt>
      <trkpt lat="39.252335" lon="-8.65649">
        <ele>7.0</ele>
        <time>2019-05-17T09:12:52.183Z</time>
      </trkpt>
      <trkpt lat="39.252335" lon="-8.65649">
        <ele>7.0</ele>
        <time>2019-05-17T09:12:53.151Z</time>
      </trkpt>
      <trkpt lat="39.25236167" lon="-8.65644333">
        <ele>8.0</ele>
        <time>2019-05-17T09:12:54.164Z</time>
      </trkpt>
      <trkpt lat="39.25236167" lon="-8.65644333">
        <ele>8.0</ele>
        <time>2019-05-17T09:12:55.167Z</time>
      </trkpt>
      <trkpt lat="39.25239" lon="-8.65640167">
        <ele>8.0</ele>
        <time>2019-05-17T09:12:56.184Z</time>
      </trkpt>
      <trkpt lat="39.25239" lon="-8.65640167">
        <ele>8.0</ele>
        <time>2019-05-17T09:12:57.164Z</time>
      </trkpt>
      <trkpt lat="39.25241667" lon="-8.65635667">
        <ele>8.0</ele>
        <time>2019-05-17T09:12:58.182Z</time>
      </trkpt>
      <trkpt lat="39.25241667" lon="-8.65635667">
        <ele>8.0</ele>
        <time>2019-05-17T09:12:59.153Z</time>
      </trkpt>
      <trkpt lat="39.252445" lon="-8.65631333">
        <ele>8.0</ele>
        <time>2019-05-17T09:13:00.181Z</time>
      </trkpt>
      <trkpt lat="39.252445" lon="-8.65631333">
        <ele>8.0</ele>
        <time>2019-05-17T09:13:01.168Z</time>
      </trkpt>
      <trkpt lat="39.25247333" lon="-8.65626833">
        <ele>8.0</ele>
        <time>2019-05-17T09:13:02.176Z</time>
      </trkpt>
      <trkpt lat="39.25247333" lon="-8.65626833">
        <ele>8.0</ele>
        <time>2019-05-17T09:13:03.160Z</time>
      </trkpt>
      <trkpt lat="39.25250167" lon="-8.65622">
        <ele>8.0</ele>
        <time>2019-05-17T09:13:04.184Z</time>
      </trkpt>
      <trkpt lat="39.25251667" lon="-8.656195">
        <ele>8.0</ele>
        <time>2019-05-17T09:13:05.170Z</time>
      </trkpt>
      <trkpt lat="39.25253167" lon="-8.65617">
        <ele>8.0</ele>
        <time>2019-05-17T09:13:06.151Z</time>
      </trkpt>
      <trkpt lat="39.25253167" lon="-8.65617">
        <ele>8.0</ele>
        <time>2019-05-17T09:13:07.169Z</time>
      </trkpt>
      <trkpt lat="39.25256167" lon="-8.65612">
        <ele>8.0</ele>
        <time>2019-05-17T09:13:08.179Z</time>
      </trkpt>
      <trkpt lat="39.25256167" lon="-8.65612">
        <ele>8.0</ele>
        <time>2019-05-17T09:13:09.183Z</time>
      </trkpt>
      <trkpt lat="39.25259667" lon="-8.65607">
        <ele>8.0</ele>
        <time>2019-05-17T09:13:10.156Z</time>
      </trkpt>
      <trkpt lat="39.25259667" lon="-8.65607">
        <ele>8.0</ele>
        <time>2019-05-17T09:13:11.169Z</time>
      </trkpt>
      <trkpt lat="39.25263333" lon="-8.65601833">
        <ele>8.0</ele>
        <time>2019-05-17T09:13:12.182Z</time>
      </trkpt>
      <trkpt lat="39.25263333" lon="-8.65601833">
        <ele>8.0</ele>
        <time>2019-05-17T09:13:13.170Z</time>
      </trkpt>
      <trkpt lat="39.25267" lon="-8.65596833">
        <ele>8.0</ele>
        <time>2019-05-17T09:13:14.188Z</time>
      </trkpt>
      <trkpt lat="39.25268667" lon="-8.65594167">
        <ele>8.0</ele>
        <time>2019-05-17T09:13:15.184Z</time>
      </trkpt>
      <trkpt lat="39.25268667" lon="-8.65594167">
        <ele>8.0</ele>
        <time>2019-05-17T09:13:16.160Z</time>
      </trkpt>
      <trkpt lat="39.25271833" lon="-8.65588833">
        <ele>8.0</ele>
        <time>2019-05-17T09:13:17.186Z</time>
      </trkpt>
      <trkpt lat="39.25271833" lon="-8.65588833">
        <ele>8.0</ele>
        <time>2019-05-17T09:13:18.156Z</time>
      </trkpt>
      <trkpt lat="39.252755" lon="-8.65583833">
        <ele>8.0</ele>
        <time>2019-05-17T09:13:19.167Z</time>
      </trkpt>
      <trkpt lat="39.25277333" lon="-8.65581333">
        <ele>8.0</ele>
        <time>2019-05-17T09:13:20.184Z</time>
      </trkpt>
      <trkpt lat="39.25277333" lon="-8.65581333">
        <ele>8.0</ele>
        <time>2019-05-17T09:13:21.159Z</time>
      </trkpt>
      <trkpt lat="39.25281" lon="-8.65576">
        <ele>8.0</ele>
        <time>2019-05-17T09:13:22.179Z</time>
      </trkpt>
      <trkpt lat="39.25281" lon="-8.65576">
        <ele>8.0</ele>
        <time>2019-05-17T09:13:23.188Z</time>
      </trkpt>
      <trkpt lat="39.25284667" lon="-8.65571167">
        <ele>8.0</ele>
        <time>2019-05-17T09:13:24.158Z</time>
      </trkpt>
      <trkpt lat="39.25284667" lon="-8.65571167">
        <ele>8.0</ele>
        <time>2019-05-17T09:13:25.172Z</time>
      </trkpt>
      <trkpt lat="39.25288" lon="-8.65566333">
        <ele>8.0</ele>
        <time>2019-05-17T09:13:26.183Z</time>
      </trkpt>
      <trkpt lat="39.25288" lon="-8.65566333">
        <ele>8.0</ele>
        <time>2019-05-17T09:13:27.153Z</time>
      </trkpt>
      <trkpt lat="39.25291667" lon="-8.655615">
        <ele>8.0</ele>
        <time>2019-05-17T09:13:28.180Z</time>
      </trkpt>
      <trkpt lat="39.25291667" lon="-8.655615">
        <ele>8.0</ele>
        <time>2019-05-17T09:13:29.166Z</time>
      </trkpt>
      <trkpt lat="39.25295333" lon="-8.65556667">
        <ele>8.0</ele>
        <time>2019-05-17T09:13:30.179Z</time>
      </trkpt>
      <trkpt lat="39.25295333" lon="-8.65556667">
        <ele>8.0</ele>
        <time>2019-05-17T09:13:31.157Z</time>
      </trkpt>
      <trkpt lat="39.25298833" lon="-8.65552">
        <ele>9.0</ele>
        <time>2019-05-17T09:13:32.166Z</time>
      </trkpt>
      <trkpt lat="39.25298833" lon="-8.65552">
        <ele>9.0</ele>
        <time>2019-05-17T09:13:33.178Z</time>
      </trkpt>
      <trkpt lat="39.25302167" lon="-8.65547">
        <ele>9.0</ele>
        <time>2019-05-17T09:13:34.188Z</time>
      </trkpt>
      <trkpt lat="39.25302167" lon="-8.65547">
        <ele>9.0</ele>
        <time>2019-05-17T09:13:35.186Z</time>
      </trkpt>
      <trkpt lat="39.253055" lon="-8.65542167">
        <ele>9.0</ele>
        <time>2019-05-17T09:13:36.154Z</time>
      </trkpt>
      <trkpt lat="39.253055" lon="-8.65542167">
        <ele>9.0</ele>
        <time>2019-05-17T09:13:37.174Z</time>
      </trkpt>
      <trkpt lat="39.25309167" lon="-8.65537333">
        <ele>8.0</ele>
        <time>2019-05-17T09:13:38.150Z</time>
      </trkpt>
      <trkpt lat="39.25309167" lon="-8.65537333">
        <ele>8.0</ele>
        <time>2019-05-17T09:13:39.153Z</time>
      </trkpt>
      <trkpt lat="39.25312833" lon="-8.65532333">
        <ele>8.0</ele>
        <time>2019-05-17T09:13:40.165Z</time>
      </trkpt>
      <trkpt lat="39.25312833" lon="-8.65532333">
        <ele>8.0</ele>
        <time>2019-05-17T09:13:41.185Z</time>
      </trkpt>
      <trkpt lat="39.25316667" lon="-8.655275">
        <ele>8.0</ele>
        <time>2019-05-17T09:13:42.155Z</time>
      </trkpt>
      <trkpt lat="39.25316667" lon="-8.655275">
        <ele>8.0</ele>
        <time>2019-05-17T09:13:43.189Z</time>
      </trkpt>
      <trkpt lat="39.25319667" lon="-8.65523">
        <ele>8.0</ele>
        <time>2019-05-17T09:13:44.158Z</time>
      </trkpt>
      <trkpt lat="39.25319667" lon="-8.65523">
        <ele>8.0</ele>
        <time>2019-05-17T09:13:45.177Z</time>
      </trkpt>
      <trkpt lat="39.25322833" lon="-8.65519333">
        <ele>8.0</ele>
        <time>2019-05-17T09:13:46.188Z</time>
      </trkpt>
      <trkpt lat="39.25324167" lon="-8.655175">
        <ele>8.0</ele>
        <time>2019-05-17T09:13:47.170Z</time>
      </trkpt>
      <trkpt lat="39.25325833" lon="-8.655155">
        <ele>8.0</ele>
        <time>2019-05-17T09:13:48.189Z</time>
      </trkpt>
      <trkpt lat="39.25325833" lon="-8.655155">
        <ele>8.0</ele>
        <time>2019-05-17T09:13:49.171Z</time>
      </trkpt>
      <trkpt lat="39.25329167" lon="-8.65512">
        <ele>8.0</ele>
        <time>2019-05-17T09:13:50.181Z</time>
      </trkpt>
      <trkpt lat="39.25330833" lon="-8.6551">
        <ele>8.0</ele>
        <time>2019-05-17T09:13:51.152Z</time>
      </trkpt>
      <trkpt lat="39.25330833" lon="-8.6551">
        <ele>8.0</ele>
        <time>2019-05-17T09:13:52.168Z</time>
      </trkpt>
      <trkpt lat="39.25334" lon="-8.65505667">
        <ele>8.0</ele>
        <time>2019-05-17T09:13:53.176Z</time>
      </trkpt>
      <trkpt lat="39.253355" lon="-8.65503333">
        <ele>8.0</ele>
        <time>2019-05-17T09:13:54.169Z</time>
      </trkpt>
      <trkpt lat="39.253355" lon="-8.65503333">
        <ele>8.0</ele>
        <time>2019-05-17T09:13:55.182Z</time>
      </trkpt>
      <trkpt lat="39.25338667" lon="-8.65499167">
        <ele>8.0</ele>
        <time>2019-05-17T09:13:56.156Z</time>
      </trkpt>
      <trkpt lat="39.25338667" lon="-8.65499167">
        <ele>8.0</ele>
        <time>2019-05-17T09:13:57.167Z</time>
      </trkpt>
      <trkpt lat="39.25341833" lon="-8.65494667">
        <ele>8.0</ele>
        <time>2019-05-17T09:13:58.179Z</time>
      </trkpt>
      <trkpt lat="39.25341833" lon="-8.65494667">
        <ele>8.0</ele>
        <time>2019-05-17T09:13:59.168Z</time>
      </trkpt>
      <trkpt lat="39.25345167" lon="-8.6549">
        <ele>8.0</ele>
        <time>2019-05-17T09:14:00.176Z</time>
      </trkpt>
      <trkpt lat="39.25345167" lon="-8.6549">
        <ele>8.0</ele>
        <time>2019-05-17T09:14:01.187Z</time>
      </trkpt>
      <trkpt lat="39.25348167" lon="-8.65486">
        <ele>8.0</ele>
        <time>2019-05-17T09:14:02.156Z</time>
      </trkpt>
      <trkpt lat="39.25348167" lon="-8.65486">
        <ele>8.0</ele>
        <time>2019-05-17T09:14:03.175Z</time>
      </trkpt>
      <trkpt lat="39.25351" lon="-8.65481833">
        <ele>8.0</ele>
        <time>2019-05-17T09:14:04.156Z</time>
      </trkpt>
      <trkpt lat="39.25351" lon="-8.65481833">
        <ele>8.0</ele>
        <time>2019-05-17T09:14:05.168Z</time>
      </trkpt>
      <trkpt lat="39.25354" lon="-8.65477667">
        <ele>8.0</ele>
        <time>2019-05-17T09:14:06.186Z</time>
      </trkpt>
      <trkpt lat="39.25354" lon="-8.65477667">
        <ele>8.0</ele>
        <time>2019-05-17T09:14:07.160Z</time>
      </trkpt>
      <trkpt lat="39.25357" lon="-8.65473667">
        <ele>7.0</ele>
        <time>2019-05-17T09:14:08.172Z</time>
      </trkpt>
      <trkpt lat="39.25357" lon="-8.65473667">
        <ele>7.0</ele>
        <time>2019-05-17T09:14:09.168Z</time>
      </trkpt>
      <trkpt lat="39.25360167" lon="-8.65470167">
        <ele>7.0</ele>
        <time>2019-05-17T09:14:10.184Z</time>
      </trkpt>
      <trkpt lat="39.25360167" lon="-8.65470167">
        <ele>7.0</ele>
        <time>2019-05-17T09:14:11.160Z</time>
      </trkpt>
      <trkpt lat="39.25363167" lon="-8.65466167">
        <ele>7.0</ele>
        <time>2019-05-17T09:14:12.176Z</time>
      </trkpt>
      <trkpt lat="39.25363167" lon="-8.65466167">
        <ele>7.0</ele>
        <time>2019-05-17T09:14:13.161Z</time>
      </trkpt>
      <trkpt lat="39.25366667" lon="-8.654625">
        <ele>7.0</ele>
        <time>2019-05-17T09:14:14.176Z</time>
      </trkpt>
      <trkpt lat="39.25366667" lon="-8.654625">
        <ele>7.0</ele>
        <time>2019-05-17T09:14:15.152Z</time>
      </trkpt>
      <trkpt lat="39.2537" lon="-8.65458">
        <ele>7.0</ele>
        <time>2019-05-17T09:14:16.166Z</time>
      </trkpt>
      <trkpt lat="39.2537" lon="-8.65458">
        <ele>7.0</ele>
        <time>2019-05-17T09:14:17.179Z</time>
      </trkpt>
      <trkpt lat="39.25373" lon="-8.65453667">
        <ele>7.0</ele>
        <time>2019-05-17T09:14:18.152Z</time>
      </trkpt>
      <trkpt lat="39.25373" lon="-8.65453667">
        <ele>7.0</ele>
        <time>2019-05-17T09:14:19.162Z</time>
      </trkpt>
      <trkpt lat="39.25375333" lon="-8.654495">
        <ele>7.0</ele>
        <time>2019-05-17T09:14:20.174Z</time>
      </trkpt>
      <trkpt lat="39.25375333" lon="-8.654495">
        <ele>7.0</ele>
        <time>2019-05-17T09:14:21.156Z</time>
      </trkpt>
      <trkpt lat="39.25378" lon="-8.65445333">
        <ele>7.0</ele>
        <time>2019-05-17T09:14:22.164Z</time>
      </trkpt>
      <trkpt lat="39.25379833" lon="-8.65444">
        <ele>7.0</ele>
        <time>2019-05-17T09:14:23.182Z</time>
      </trkpt>
      <trkpt lat="39.25379833" lon="-8.65444">
        <ele>7.0</ele>
        <time>2019-05-17T09:14:24.167Z</time>
      </trkpt>
      <trkpt lat="39.253835" lon="-8.654415">
        <ele>7.0</ele>
        <time>2019-05-17T09:14:25.175Z</time>
      </trkpt>
      <trkpt lat="39.25385333" lon="-8.65439833">
        <ele>7.0</ele>
        <time>2019-05-17T09:14:26.151Z</time>
      </trkpt>
      <trkpt lat="39.25385333" lon="-8.65439833">
        <ele>7.0</ele>
        <time>2019-05-17T09:14:27.167Z</time>
      </trkpt>
      <trkpt lat="39.25388833" lon="-8.65436">
        <ele>7.0</ele>
        <time>2019-05-17T09:14:28.175Z</time>
      </trkpt>
      <trkpt lat="39.25388833" lon="-8.65436">
        <ele>7.0</ele>
        <time>2019-05-17T09:14:29.186Z</time>
      </trkpt>
      <trkpt lat="39.25392333" lon="-8.65431667">
        <ele>7.0</ele>
        <time>2019-05-17T09:14:30.160Z</time>
      </trkpt>
      <trkpt lat="39.25392333" lon="-8.65431667">
        <ele>7.0</ele>
        <time>2019-05-17T09:14:31.183Z</time>
      </trkpt>
      <trkpt lat="39.25396167" lon="-8.65427667">
        <ele>7.0</ele>
        <time>2019-05-17T09:14:32.160Z</time>
      </trkpt>
      <trkpt lat="39.25396167" lon="-8.65427667">
        <ele>7.0</ele>
        <time>2019-05-17T09:14:33.178Z</time>
      </trkpt>
      <trkpt lat="39.25400167" lon="-8.654235">
        <ele>7.0</ele>
        <time>2019-05-17T09:14:34.179Z</time>
      </trkpt>
      <trkpt lat="39.25400167" lon="-8.654235">
        <ele>7.0</ele>
        <time>2019-05-17T09:14:35.150Z</time>
      </trkpt>
      <trkpt lat="39.25403833" lon="-8.65419333">
        <ele>7.0</ele>
        <time>2019-05-17T09:14:36.166Z</time>
      </trkpt>
      <trkpt lat="39.25403833" lon="-8.65419333">
        <ele>7.0</ele>
        <time>2019-05-17T09:14:37.184Z</time>
      </trkpt>
      <trkpt lat="39.254075" lon="-8.65415167">
        <ele>7.0</ele>
        <time>2019-05-17T09:14:38.186Z</time>
      </trkpt>
      <trkpt lat="39.254075" lon="-8.65415167">
        <ele>7.0</ele>
        <time>2019-05-17T09:14:39.153Z</time>
      </trkpt>
      <trkpt lat="39.25411167" lon="-8.65411">
        <ele>7.0</ele>
        <time>2019-05-17T09:14:40.168Z</time>
      </trkpt>
      <trkpt lat="39.25411167" lon="-8.65411">
        <ele>7.0</ele>
        <time>2019-05-17T09:14:41.175Z</time>
      </trkpt>
      <trkpt lat="39.25414833" lon="-8.65407333">
        <ele>7.0</ele>
        <time>2019-05-17T09:14:42.186Z</time>
      </trkpt>
      <trkpt lat="39.25414833" lon="-8.65407333">
        <ele>7.0</ele>
        <time>2019-05-17T09:14:43.161Z</time>
      </trkpt>
      <trkpt lat="39.254185" lon="-8.654035">
        <ele>7.0</ele>
        <time>2019-05-17T09:14:44.172Z</time>
      </trkpt>
      <trkpt lat="39.254185" lon="-8.654035">
        <ele>7.0</ele>
        <time>2019-05-17T09:14:45.154Z</time>
      </trkpt>
      <trkpt lat="39.25422" lon="-8.654">
        <ele>7.0</ele>
        <time>2019-05-17T09:14:46.174Z</time>
      </trkpt>
      <trkpt lat="39.25422" lon="-8.654">
        <ele>7.0</ele>
        <time>2019-05-17T09:14:47.170Z</time>
      </trkpt>
      <trkpt lat="39.25424833" lon="-8.65395833">
        <ele>7.0</ele>
        <time>2019-05-17T09:14:48.181Z</time>
      </trkpt>
      <trkpt lat="39.25424833" lon="-8.65395833">
        <ele>7.0</ele>
        <time>2019-05-17T09:14:49.152Z</time>
      </trkpt>
      <trkpt lat="39.25428167" lon="-8.653925">
        <ele>7.0</ele>
        <time>2019-05-17T09:14:50.164Z</time>
      </trkpt>
      <trkpt lat="39.25428167" lon="-8.653925">
        <ele>7.0</ele>
        <time>2019-05-17T09:14:51.178Z</time>
      </trkpt>
      <trkpt lat="39.25432167" lon="-8.65389">
        <ele>7.0</ele>
        <time>2019-05-17T09:14:52.175Z</time>
      </trkpt>
      <trkpt lat="39.25432167" lon="-8.65389">
        <ele>7.0</ele>
        <time>2019-05-17T09:14:53.156Z</time>
      </trkpt>
      <trkpt lat="39.25435833" lon="-8.65385">
        <ele>7.0</ele>
        <time>2019-05-17T09:14:54.166Z</time>
      </trkpt>
      <trkpt lat="39.25437667" lon="-8.65383167">
        <ele>7.0</ele>
        <time>2019-05-17T09:14:55.164Z</time>
      </trkpt>
      <trkpt lat="39.25439167" lon="-8.65381333">
        <ele>7.0</ele>
        <time>2019-05-17T09:14:56.156Z</time>
      </trkpt>
      <trkpt lat="39.25439167" lon="-8.65381333">
        <ele>7.0</ele>
        <time>2019-05-17T09:14:57.178Z</time>
      </trkpt>
      <trkpt lat="39.25442167" lon="-8.65377667">
        <ele>7.0</ele>
        <time>2019-05-17T09:14:58.187Z</time>
      </trkpt>
      <trkpt lat="39.25443833" lon="-8.65375833">
        <ele>7.0</ele>
        <time>2019-05-17T09:14:59.175Z</time>
      </trkpt>
      <trkpt lat="39.254455" lon="-8.65373833">
        <ele>7.0</ele>
        <time>2019-05-17T09:15:00.189Z</time>
      </trkpt>
      <trkpt lat="39.254455" lon="-8.65373833">
        <ele>7.0</ele>
        <time>2019-05-17T09:15:01.160Z</time>
      </trkpt>
      <trkpt lat="39.25448833" lon="-8.65369833">
        <ele>7.0</ele>
        <time>2019-05-17T09:15:02.175Z</time>
      </trkpt>
      <trkpt lat="39.25448833" lon="-8.65369833">
        <ele>7.0</ele>
        <time>2019-05-17T09:15:03.188Z</time>
      </trkpt>
      <trkpt lat="39.25452333" lon="-8.65365667">
        <ele>7.0</ele>
        <time>2019-05-17T09:15:04.164Z</time>
      </trkpt>
      <trkpt lat="39.25452333" lon="-8.65365667">
        <ele>7.0</ele>
        <time>2019-05-17T09:15:05.167Z</time>
      </trkpt>
      <trkpt lat="39.25456" lon="-8.65361167">
        <ele>7.0</ele>
        <time>2019-05-17T09:15:06.177Z</time>
      </trkpt>
      <trkpt lat="39.25456" lon="-8.65361167">
        <ele>7.0</ele>
        <time>2019-05-17T09:15:07.152Z</time>
      </trkpt>
      <trkpt lat="39.25459333" lon="-8.65357333">
        <ele>7.0</ele>
        <time>2019-05-17T09:15:08.161Z</time>
      </trkpt>
      <trkpt lat="39.25459333" lon="-8.65357333">
        <ele>7.0</ele>
        <time>2019-05-17T09:15:09.165Z</time>
      </trkpt>
      <trkpt lat="39.25462167" lon="-8.653535">
        <ele>7.0</ele>
        <time>2019-05-17T09:15:10.179Z</time>
      </trkpt>
      <trkpt lat="39.25462167" lon="-8.653535">
        <ele>7.0</ele>
        <time>2019-05-17T09:15:11.153Z</time>
      </trkpt>
      <trkpt lat="39.254655" lon="-8.65349333">
        <ele>7.0</ele>
        <time>2019-05-17T09:15:12.171Z</time>
      </trkpt>
      <trkpt lat="39.254655" lon="-8.65349333">
        <ele>7.0</ele>
        <time>2019-05-17T09:15:13.186Z</time>
      </trkpt>
      <trkpt lat="39.25468667" lon="-8.65344667">
        <ele>7.0</ele>
        <time>2019-05-17T09:15:14.188Z</time>
      </trkpt>
      <trkpt lat="39.25470333" lon="-8.653425">
        <ele>7.0</ele>
        <time>2019-05-17T09:15:15.174Z</time>
      </trkpt>
      <trkpt lat="39.25470333" lon="-8.653425">
        <ele>7.0</ele>
        <time>2019-05-17T09:15:16.186Z</time>
      </trkpt>
      <trkpt lat="39.25474167" lon="-8.65338333">
        <ele>7.0</ele>
        <time>2019-05-17T09:15:17.160Z</time>
      </trkpt>
      <trkpt lat="39.25476167" lon="-8.65336333">
        <ele>7.0</ele>
        <time>2019-05-17T09:15:18.185Z</time>
      </trkpt>
      <trkpt lat="39.25476167" lon="-8.65336333">
        <ele>7.0</ele>
        <time>2019-05-17T09:15:19.158Z</time>
      </trkpt>
      <trkpt lat="39.254805" lon="-8.65333333">
        <ele>7.0</ele>
        <time>2019-05-17T09:15:20.165Z</time>
      </trkpt>
      <trkpt lat="39.254805" lon="-8.65333333">
        <ele>7.0</ele>
        <time>2019-05-17T09:15:21.176Z</time>
      </trkpt>
      <trkpt lat="39.25484667" lon="-8.653295">
        <ele>6.0</ele>
        <time>2019-05-17T09:15:22.178Z</time>
      </trkpt>
      <trkpt lat="39.25484667" lon="-8.653295">
        <ele>6.0</ele>
        <time>2019-05-17T09:15:23.188Z</time>
      </trkpt>
      <trkpt lat="39.25488333" lon="-8.653255">
        <ele>6.0</ele>
        <time>2019-05-17T09:15:24.162Z</time>
      </trkpt>
      <trkpt lat="39.25488333" lon="-8.653255">
        <ele>6.0</ele>
        <time>2019-05-17T09:15:25.188Z</time>
      </trkpt>
      <trkpt lat="39.25491667" lon="-8.65321667">
        <ele>6.0</ele>
        <time>2019-05-17T09:15:26.176Z</time>
      </trkpt>
      <trkpt lat="39.25493333" lon="-8.65319833">
        <ele>6.0</ele>
        <time>2019-05-17T09:15:27.153Z</time>
      </trkpt>
      <trkpt lat="39.25493333" lon="-8.65319833">
        <ele>6.0</ele>
        <time>2019-05-17T09:15:28.175Z</time>
      </trkpt>
      <trkpt lat="39.25497167" lon="-8.65316">
        <ele>6.0</ele>
        <time>2019-05-17T09:15:29.150Z</time>
      </trkpt>
      <trkpt lat="39.25499" lon="-8.65314167">
        <ele>6.0</ele>
        <time>2019-05-17T09:15:30.169Z</time>
      </trkpt>
      <trkpt lat="39.25499" lon="-8.65314167">
        <ele>6.0</ele>
        <time>2019-05-17T09:15:31.183Z</time>
      </trkpt>
      <trkpt lat="39.255025" lon="-8.65309667">
        <ele>6.0</ele>
        <time>2019-05-17T09:15:32.152Z</time>
      </trkpt>
      <trkpt lat="39.255025" lon="-8.65309667">
        <ele>6.0</ele>
        <time>2019-05-17T09:15:33.170Z</time>
      </trkpt>
      <trkpt lat="39.25505667" lon="-8.65305167">
        <ele>6.0</ele>
        <time>2019-05-17T09:15:34.157Z</time>
      </trkpt>
      <trkpt lat="39.25507333" lon="-8.65303">
        <ele>6.0</ele>
        <time>2019-05-17T09:15:35.187Z</time>
      </trkpt>
      <trkpt lat="39.25507333" lon="-8.65303">
        <ele>6.0</ele>
        <time>2019-05-17T09:15:36.170Z</time>
      </trkpt>
      <trkpt lat="39.25510833" lon="-8.65299">
        <ele>6.0</ele>
        <time>2019-05-17T09:15:37.185Z</time>
      </trkpt>
      <trkpt lat="39.25512667" lon="-8.65297333">
        <ele>6.0</ele>
        <time>2019-05-17T09:15:38.171Z</time>
      </trkpt>
      <trkpt lat="39.25512667" lon="-8.65297333">
        <ele>6.0</ele>
        <time>2019-05-17T09:15:39.185Z</time>
      </trkpt>
      <trkpt lat="39.25516" lon="-8.65294833">
        <ele>6.0</ele>
        <time>2019-05-17T09:15:40.155Z</time>
      </trkpt>
      <trkpt lat="39.25517833" lon="-8.65293667">
        <ele>6.0</ele>
        <time>2019-05-17T09:15:41.154Z</time>
      </trkpt>
      <trkpt lat="39.255195" lon="-8.65292333">
        <ele>6.0</ele>
        <time>2019-05-17T09:15:42.158Z</time>
      </trkpt>
      <trkpt lat="39.255195" lon="-8.65292333">
        <ele>6.0</ele>
        <time>2019-05-17T09:15:43.176Z</time>
      </trkpt>
      <trkpt lat="39.255225" lon="-8.65288333">
        <ele>6.0</ele>
        <time>2019-05-17T09:15:44.189Z</time>
      </trkpt>
      <trkpt lat="39.255225" lon="-8.65288333">
        <ele>6.0</ele>
        <time>2019-05-17T09:15:45.165Z</time>
      </trkpt>
      <trkpt lat="39.25525167" lon="-8.65284333">
        <ele>6.0</ele>
        <time>2019-05-17T09:15:46.174Z</time>
      </trkpt>
      <trkpt lat="39.25525167" lon="-8.65284333">
        <ele>6.0</ele>
        <time>2019-05-17T09:15:47.181Z</time>
      </trkpt>
      <trkpt lat="39.25528167" lon="-8.65280167">
        <ele>6.0</ele>
        <time>2019-05-17T09:15:48.190Z</time>
      </trkpt>
      <trkpt lat="39.25528167" lon="-8.65280167">
        <ele>6.0</ele>
        <time>2019-05-17T09:15:49.164Z</time>
      </trkpt>
      <trkpt lat="39.25532" lon="-8.652765">
        <ele>6.0</ele>
        <time>2019-05-17T09:15:50.178Z</time>
      </trkpt>
      <trkpt lat="39.25532" lon="-8.652765">
        <ele>6.0</ele>
        <time>2019-05-17T09:15:51.152Z</time>
      </trkpt>
      <trkpt lat="39.25535833" lon="-8.65273167">
        <ele>6.0</ele>
        <time>2019-05-17T09:15:52.158Z</time>
      </trkpt>
      <trkpt lat="39.25535833" lon="-8.65273167">
        <ele>6.0</ele>
        <time>2019-05-17T09:15:53.182Z</time>
      </trkpt>
      <trkpt lat="39.255395" lon="-8.65269167">
        <ele>6.0</ele>
        <time>2019-05-17T09:15:54.160Z</time>
      </trkpt>
      <trkpt lat="39.255395" lon="-8.65269167">
        <ele>6.0</ele>
        <time>2019-05-17T09:15:55.173Z</time>
      </trkpt>
      <trkpt lat="39.25543333" lon="-8.65265">
        <ele>6.0</ele>
        <time>2019-05-17T09:15:56.186Z</time>
      </trkpt>
      <trkpt lat="39.25545333" lon="-8.65262833">
        <ele>6.0</ele>
        <time>2019-05-17T09:15:57.166Z</time>
      </trkpt>
      <trkpt lat="39.25545333" lon="-8.65262833">
        <ele>6.0</ele>
        <time>2019-05-17T09:15:58.179Z</time>
      </trkpt>
      <trkpt lat="39.25549167" lon="-8.65258667">
        <ele>6.0</ele>
        <time>2019-05-17T09:15:59.150Z</time>
      </trkpt>
      <trkpt lat="39.25551" lon="-8.65256167">
        <ele>6.0</ele>
        <time>2019-05-17T09:16:00.168Z</time>
      </trkpt>
      <trkpt lat="39.25551" lon="-8.65256167">
        <ele>6.0</ele>
        <time>2019-05-17T09:16:01.184Z</time>
      </trkpt>
      <trkpt lat="39.25554667" lon="-8.65251833">
        <ele>6.0</ele>
        <time>2019-05-17T09:16:02.153Z</time>
      </trkpt>
      <trkpt lat="39.25554667" lon="-8.65251833">
        <ele>6.0</ele>
        <time>2019-05-17T09:16:03.168Z</time>
      </trkpt>
      <trkpt lat="39.25558167" lon="-8.65247833">
        <ele>6.0</ele>
        <time>2019-05-17T09:16:04.180Z</time>
      </trkpt>
      <trkpt lat="39.25558167" lon="-8.65247833">
        <ele>6.0</ele>
        <time>2019-05-17T09:16:05.152Z</time>
      </trkpt>
      <trkpt lat="39.25561833" lon="-8.652435">
        <ele>6.0</ele>
        <time>2019-05-17T09:16:06.162Z</time>
      </trkpt>
      <trkpt lat="39.25561833" lon="-8.652435">
        <ele>6.0</ele>
        <time>2019-05-17T09:16:07.175Z</time>
      </trkpt>
      <trkpt lat="39.25566" lon="-8.652395">
        <ele>6.0</ele>
        <time>2019-05-17T09:16:08.151Z</time>
      </trkpt>
      <trkpt lat="39.25566" lon="-8.652395">
        <ele>6.0</ele>
        <time>2019-05-17T09:16:09.180Z</time>
      </trkpt>
      <trkpt lat="39.25569167" lon="-8.652355">
        <ele>6.0</ele>
        <time>2019-05-17T09:16:10.179Z</time>
      </trkpt>
      <trkpt lat="39.25569167" lon="-8.652355">
        <ele>6.0</ele>
        <time>2019-05-17T09:16:11.160Z</time>
      </trkpt>
      <trkpt lat="39.25572167" lon="-8.65232833">
        <ele>6.0</ele>
        <time>2019-05-17T09:16:12.172Z</time>
      </trkpt>
      <trkpt lat="39.25572167" lon="-8.65232833">
        <ele>6.0</ele>
        <time>2019-05-17T09:16:13.162Z</time>
      </trkpt>
      <trkpt lat="39.25575" lon="-8.6523">
        <ele>6.0</ele>
        <time>2019-05-17T09:16:14.175Z</time>
      </trkpt>
      <trkpt lat="39.25575" lon="-8.6523">
        <ele>6.0</ele>
        <time>2019-05-17T09:16:15.153Z</time>
      </trkpt>
      <trkpt lat="39.25578167" lon="-8.65227333">
        <ele>6.0</ele>
        <time>2019-05-17T09:16:16.166Z</time>
      </trkpt>
      <trkpt lat="39.25578167" lon="-8.65227333">
        <ele>6.0</ele>
        <time>2019-05-17T09:16:17.174Z</time>
      </trkpt>
      <trkpt lat="39.255815" lon="-8.652245">
        <ele>6.0</ele>
        <time>2019-05-17T09:16:18.186Z</time>
      </trkpt>
      <trkpt lat="39.255815" lon="-8.652245">
        <ele>6.0</ele>
        <time>2019-05-17T09:16:19.157Z</time>
      </trkpt>
      <trkpt lat="39.25584667" lon="-8.65221667">
        <ele>6.0</ele>
        <time>2019-05-17T09:16:20.171Z</time>
      </trkpt>
      <trkpt lat="39.255865" lon="-8.652205">
        <ele>6.0</ele>
        <time>2019-05-17T09:16:21.150Z</time>
      </trkpt>
      <trkpt lat="39.255865" lon="-8.652205">
        <ele>6.0</ele>
        <time>2019-05-17T09:16:22.166Z</time>
      </trkpt>
      <trkpt lat="39.25589833" lon="-8.65217333">
        <ele>6.0</ele>
        <time>2019-05-17T09:16:23.188Z</time>
      </trkpt>
      <trkpt lat="39.25591667" lon="-8.652155">
        <ele>7.0</ele>
        <time>2019-05-17T09:16:24.167Z</time>
      </trkpt>
      <trkpt lat="39.25591667" lon="-8.652155">
        <ele>7.0</ele>
        <time>2019-05-17T09:16:25.185Z</time>
      </trkpt>
      <trkpt lat="39.255955" lon="-8.65212333">
        <ele>7.0</ele>
        <time>2019-05-17T09:16:26.152Z</time>
      </trkpt>
      <trkpt lat="39.255955" lon="-8.65212333">
        <ele>7.0</ele>
        <time>2019-05-17T09:16:27.168Z</time>
      </trkpt>
      <trkpt lat="39.25599167" lon="-8.65209">
        <ele>7.0</ele>
        <time>2019-05-17T09:16:28.186Z</time>
      </trkpt>
      <trkpt lat="39.25599167" lon="-8.65209">
        <ele>7.0</ele>
        <time>2019-05-17T09:16:29.180Z</time>
      </trkpt>
      <trkpt lat="39.25603167" lon="-8.65205833">
        <ele>7.0</ele>
        <time>2019-05-17T09:16:30.188Z</time>
      </trkpt>
      <trkpt lat="39.25605" lon="-8.65204167">
        <ele>7.0</ele>
        <time>2019-05-17T09:16:31.171Z</time>
      </trkpt>
      <trkpt lat="39.25607" lon="-8.652025">
        <ele>6.0</ele>
        <time>2019-05-17T09:16:32.187Z</time>
      </trkpt>
      <trkpt lat="39.25607" lon="-8.652025">
        <ele>6.0</ele>
        <time>2019-05-17T09:16:33.154Z</time>
      </trkpt>
      <trkpt lat="39.25611167" lon="-8.65199">
        <ele>6.0</ele>
        <time>2019-05-17T09:16:34.168Z</time>
      </trkpt>
      <trkpt lat="39.25611167" lon="-8.65199">
        <ele>6.0</ele>
        <time>2019-05-17T09:16:35.183Z</time>
      </trkpt>
      <trkpt lat="39.256155" lon="-8.65195167">
        <ele>6.0</ele>
        <time>2019-05-17T09:16:36.154Z</time>
      </trkpt>
      <trkpt lat="39.256155" lon="-8.65195167">
        <ele>6.0</ele>
        <time>2019-05-17T09:16:37.168Z</time>
      </trkpt>
      <trkpt lat="39.25619833" lon="-8.65191667">
        <ele>6.0</ele>
        <time>2019-05-17T09:16:38.181Z</time>
      </trkpt>
      <trkpt lat="39.25619833" lon="-8.65191667">
        <ele>6.0</ele>
        <time>2019-05-17T09:16:39.163Z</time>
      </trkpt>
      <trkpt lat="39.25623667" lon="-8.65188667">
        <ele>6.0</ele>
        <time>2019-05-17T09:16:40.151Z</time>
      </trkpt>
      <trkpt lat="39.25623667" lon="-8.65188667">
        <ele>6.0</ele>
        <time>2019-05-17T09:16:41.157Z</time>
      </trkpt>
      <trkpt lat="39.25627667" lon="-8.651865">
        <ele>6.0</ele>
        <time>2019-05-17T09:16:42.167Z</time>
      </trkpt>
      <trkpt lat="39.25629667" lon="-8.651855">
        <ele>6.0</ele>
        <time>2019-05-17T09:16:43.189Z</time>
      </trkpt>
      <trkpt lat="39.25629667" lon="-8.651855">
        <ele>6.0</ele>
        <time>2019-05-17T09:16:44.162Z</time>
      </trkpt>
      <trkpt lat="39.25634167" lon="-8.65182667">
        <ele>6.0</ele>
        <time>2019-05-17T09:16:45.152Z</time>
      </trkpt>
      <trkpt lat="39.25634167" lon="-8.65182667">
        <ele>6.0</ele>
        <time>2019-05-17T09:16:46.172Z</time>
      </trkpt>
      <trkpt lat="39.25638667" lon="-8.65180333">
        <ele>6.0</ele>
        <time>2019-05-17T09:16:47.150Z</time>
      </trkpt>
      <trkpt lat="39.25641" lon="-8.65178833">
        <ele>6.0</ele>
        <time>2019-05-17T09:16:48.166Z</time>
      </trkpt>
      <trkpt lat="39.25641" lon="-8.65178833">
        <ele>6.0</ele>
        <time>2019-05-17T09:16:49.186Z</time>
      </trkpt>
      <trkpt lat="39.25646" lon="-8.65176167">
        <ele>6.0</ele>
        <time>2019-05-17T09:16:50.165Z</time>
      </trkpt>
      <trkpt lat="39.256485" lon="-8.65174667">
        <ele>6.0</ele>
        <time>2019-05-17T09:16:51.189Z</time>
      </trkpt>
      <trkpt lat="39.25651167" lon="-8.65173167">
        <ele>6.0</ele>
        <time>2019-05-17T09:16:52.167Z</time>
      </trkpt>
      <trkpt lat="39.25651167" lon="-8.65173167">
        <ele>6.0</ele>
        <time>2019-05-17T09:16:53.185Z</time>
      </trkpt>
      <trkpt lat="39.25656167" lon="-8.65170667">
        <ele>6.0</ele>
        <time>2019-05-17T09:16:54.156Z</time>
      </trkpt>
      <trkpt lat="39.25656167" lon="-8.65170667">
        <ele>6.0</ele>
        <time>2019-05-17T09:16:55.174Z</time>
      </trkpt>
      <trkpt lat="39.25661333" lon="-8.65167333">
        <ele>6.0</ele>
        <time>2019-05-17T09:16:56.188Z</time>
      </trkpt>
      <trkpt lat="39.25663667" lon="-8.651655">
        <ele>6.0</ele>
        <time>2019-05-17T09:16:57.176Z</time>
      </trkpt>
      <trkpt lat="39.25663667" lon="-8.651655">
        <ele>6.0</ele>
        <time>2019-05-17T09:16:58.154Z</time>
      </trkpt>
      <trkpt lat="39.25668" lon="-8.65162">
        <ele>6.0</ele>
        <time>2019-05-17T09:16:59.168Z</time>
      </trkpt>
      <trkpt lat="39.2567" lon="-8.65159833">
        <ele>6.0</ele>
        <time>2019-05-17T09:17:00.156Z</time>
      </trkpt>
      <trkpt lat="39.25671833" lon="-8.651575">
        <ele>6.0</ele>
        <time>2019-05-17T09:17:01.150Z</time>
      </trkpt>
      <trkpt lat="39.25671833" lon="-8.651575">
        <ele>6.0</ele>
        <time>2019-05-17T09:17:02.179Z</time>
      </trkpt>
      <trkpt lat="39.25675167" lon="-8.65152833">
        <ele>6.0</ele>
        <time>2019-05-17T09:17:03.150Z</time>
      </trkpt>
      <trkpt lat="39.25675167" lon="-8.65152833">
        <ele>6.0</ele>
        <time>2019-05-17T09:17:04.172Z</time>
      </trkpt>
      <trkpt lat="39.25678167" lon="-8.65148167">
        <ele>6.0</ele>
        <time>2019-05-17T09:17:05.187Z</time>
      </trkpt>
      <trkpt lat="39.25679333" lon="-8.651455">
        <ele>6.0</ele>
        <time>2019-05-17T09:17:06.158Z</time>
      </trkpt>
      <trkpt lat="39.25679333" lon="-8.651455">
        <ele>6.0</ele>
        <time>2019-05-17T09:17:07.175Z</time>
      </trkpt>
      <trkpt lat="39.25681167" lon="-8.651405">
        <ele>6.0</ele>
        <time>2019-05-17T09:17:08.154Z</time>
      </trkpt>
      <trkpt lat="39.25681167" lon="-8.651405">
        <ele>6.0</ele>
        <time>2019-05-17T09:17:09.160Z</time>
      </trkpt>
      <trkpt lat="39.25683333" lon="-8.65135333">
        <ele>6.0</ele>
        <time>2019-05-17T09:17:10.217Z</time>
      </trkpt>
      <trkpt lat="39.25683333" lon="-8.65135333">
        <ele>6.0</ele>
        <time>2019-05-17T09:17:11.151Z</time>
      </trkpt>
      <trkpt lat="39.25685833" lon="-8.65130167">
        <ele>6.0</ele>
        <time>2019-05-17T09:17:12.162Z</time>
      </trkpt>
      <trkpt lat="39.25685833" lon="-8.65130167">
        <ele>6.0</ele>
        <time>2019-05-17T09:17:13.178Z</time>
      </trkpt>
      <trkpt lat="39.25688667" lon="-8.65125167">
        <ele>6.0</ele>
        <time>2019-05-17T09:17:14.158Z</time>
      </trkpt>
      <trkpt lat="39.25688667" lon="-8.65125167">
        <ele>6.0</ele>
        <time>2019-05-17T09:17:15.172Z</time>
      </trkpt>
      <trkpt lat="39.256915" lon="-8.651195">
        <ele>6.0</ele>
        <time>2019-05-17T09:17:16.184Z</time>
      </trkpt>
      <trkpt lat="39.256915" lon="-8.651195">
        <ele>6.0</ele>
        <time>2019-05-17T09:17:17.179Z</time>
      </trkpt>
      <trkpt lat="39.25693833" lon="-8.651145">
        <ele>6.0</ele>
        <time>2019-05-17T09:17:18.188Z</time>
      </trkpt>
      <trkpt lat="39.25693833" lon="-8.651145">
        <ele>6.0</ele>
        <time>2019-05-17T09:17:19.163Z</time>
      </trkpt>
      <trkpt lat="39.25696833" lon="-8.65109667">
        <ele>6.0</ele>
        <time>2019-05-17T09:17:20.175Z</time>
      </trkpt>
      <trkpt lat="39.25696833" lon="-8.65109667">
        <ele>6.0</ele>
        <time>2019-05-17T09:17:21.150Z</time>
      </trkpt>
      <trkpt lat="39.257" lon="-8.651045">
        <ele>6.0</ele>
        <time>2019-05-17T09:17:22.152Z</time>
      </trkpt>
      <trkpt lat="39.257" lon="-8.651045">
        <ele>6.0</ele>
        <time>2019-05-17T09:17:23.162Z</time>
      </trkpt>
      <trkpt lat="39.25703333" lon="-8.65099167">
        <ele>6.0</ele>
        <time>2019-05-17T09:17:24.172Z</time>
      </trkpt>
      <trkpt lat="39.25703333" lon="-8.65099167">
        <ele>6.0</ele>
        <time>2019-05-17T09:17:25.151Z</time>
      </trkpt>
      <trkpt lat="39.25706" lon="-8.65093833">
        <ele>6.0</ele>
        <time>2019-05-17T09:17:26.173Z</time>
      </trkpt>
      <trkpt lat="39.25706" lon="-8.65093833">
        <ele>6.0</ele>
        <time>2019-05-17T09:17:27.153Z</time>
      </trkpt>
      <trkpt lat="39.25708667" lon="-8.65088833">
        <ele>6.0</ele>
        <time>2019-05-17T09:17:28.161Z</time>
      </trkpt>
      <trkpt lat="39.25708667" lon="-8.65088833">
        <ele>6.0</ele>
        <time>2019-05-17T09:17:29.174Z</time>
      </trkpt>
      <trkpt lat="39.25711" lon="-8.65084167">
        <ele>6.0</ele>
        <time>2019-05-17T09:17:30.171Z</time>
      </trkpt>
      <trkpt lat="39.25711" lon="-8.65084167">
        <ele>6.0</ele>
        <time>2019-05-17T09:17:31.154Z</time>
      </trkpt>
      <trkpt lat="39.257135" lon="-8.65078833">
        <ele>6.0</ele>
        <time>2019-05-17T09:17:32.171Z</time>
      </trkpt>
      <trkpt lat="39.257135" lon="-8.65078833">
        <ele>6.0</ele>
        <time>2019-05-17T09:17:33.184Z</time>
      </trkpt>
      <trkpt lat="39.257165" lon="-8.65073333">
        <ele>6.0</ele>
        <time>2019-05-17T09:17:34.151Z</time>
      </trkpt>
      <trkpt lat="39.25717667" lon="-8.65070667">
        <ele>6.0</ele>
        <time>2019-05-17T09:17:35.164Z</time>
      </trkpt>
      <trkpt lat="39.25719" lon="-8.65068">
        <ele>6.0</ele>
        <time>2019-05-17T09:17:36.186Z</time>
      </trkpt>
      <trkpt lat="39.25719" lon="-8.65068">
        <ele>6.0</ele>
        <time>2019-05-17T09:17:37.183Z</time>
      </trkpt>
      <trkpt lat="39.25721667" lon="-8.65063">
        <ele>6.0</ele>
        <time>2019-05-17T09:17:38.151Z</time>
      </trkpt>
      <trkpt lat="39.25721667" lon="-8.65063">
        <ele>6.0</ele>
        <time>2019-05-17T09:17:39.165Z</time>
      </trkpt>
      <trkpt lat="39.25724333" lon="-8.65057833">
        <ele>6.0</ele>
        <time>2019-05-17T09:17:40.159Z</time>
      </trkpt>
      <trkpt lat="39.25726167" lon="-8.65055667">
        <ele>6.0</ele>
        <time>2019-05-17T09:17:41.173Z</time>
      </trkpt>
      <trkpt lat="39.25726167" lon="-8.65055667">
        <ele>6.0</ele>
        <time>2019-05-17T09:17:42.153Z</time>
      </trkpt>
      <trkpt lat="39.25729167" lon="-8.65051">
        <ele>6.0</ele>
        <time>2019-05-17T09:17:43.161Z</time>
      </trkpt>
      <trkpt lat="39.257305" lon="-8.65048167">
        <ele>6.0</ele>
        <time>2019-05-17T09:17:44.159Z</time>
      </trkpt>
      <trkpt lat="39.25731667" lon="-8.65045167">
        <ele>6.0</ele>
        <time>2019-05-17T09:17:45.155Z</time>
      </trkpt>
      <trkpt lat="39.25731667" lon="-8.65045167">
        <ele>6.0</ele>
        <time>2019-05-17T09:17:46.161Z</time>
      </trkpt>
      <trkpt lat="39.25733667" lon="-8.65038833">
        <ele>6.0</ele>
        <time>2019-05-17T09:17:47.173Z</time>
      </trkpt>
      <trkpt lat="39.25733667" lon="-8.65038833">
        <ele>6.0</ele>
        <time>2019-05-17T09:17:48.154Z</time>
      </trkpt>
      <trkpt lat="39.257355" lon="-8.65032167">
        <ele>5.0</ele>
        <time>2019-05-17T09:17:49.158Z</time>
      </trkpt>
      <trkpt lat="39.257365" lon="-8.65029167">
        <ele>5.0</ele>
        <time>2019-05-17T09:17:50.178Z</time>
      </trkpt>
      <trkpt lat="39.257365" lon="-8.65029167">
        <ele>5.0</ele>
        <time>2019-05-17T09:17:51.185Z</time>
      </trkpt>
      <trkpt lat="39.25738333" lon="-8.65023667">
        <ele>5.0</ele>
        <time>2019-05-17T09:17:52.153Z</time>
      </trkpt>
      <trkpt lat="39.25739667" lon="-8.65021167">
        <ele>5.0</ele>
        <time>2019-05-17T09:17:53.167Z</time>
      </trkpt>
      <trkpt lat="39.25739667" lon="-8.65021167">
        <ele>5.0</ele>
        <time>2019-05-17T09:17:54.181Z</time>
      </trkpt>
      <trkpt lat="39.25742833" lon="-8.65016833">
        <ele>5.0</ele>
        <time>2019-05-17T09:17:55.156Z</time>
      </trkpt>
      <trkpt lat="39.25742833" lon="-8.65016833">
        <ele>5.0</ele>
        <time>2019-05-17T09:17:56.175Z</time>
      </trkpt>
      <trkpt lat="39.25745333" lon="-8.65012333">
        <ele>5.0</ele>
        <time>2019-05-17T09:17:57.165Z</time>
      </trkpt>
      <trkpt lat="39.25745333" lon="-8.65012333">
        <ele>5.0</ele>
        <time>2019-05-17T09:17:58.151Z</time>
      </trkpt>
      <trkpt lat="39.257475" lon="-8.65007333">
        <ele>5.0</ele>
        <time>2019-05-17T09:17:59.161Z</time>
      </trkpt>
      <trkpt lat="39.25748667" lon="-8.650045">
        <ele>5.0</ele>
        <time>2019-05-17T09:18:00.188Z</time>
      </trkpt>
      <trkpt lat="39.25748667" lon="-8.650045">
        <ele>5.0</ele>
        <time>2019-05-17T09:18:01.154Z</time>
      </trkpt>
      <trkpt lat="39.257515" lon="-8.64999">
        <ele>5.0</ele>
        <time>2019-05-17T09:18:02.165Z</time>
      </trkpt>
      <trkpt lat="39.257515" lon="-8.64999">
        <ele>5.0</ele>
        <time>2019-05-17T09:18:03.175Z</time>
      </trkpt>
      <trkpt lat="39.257545" lon="-8.649935">
        <ele>5.0</ele>
        <time>2019-05-17T09:18:04.187Z</time>
      </trkpt>
      <trkpt lat="39.257545" lon="-8.649935">
        <ele>5.0</ele>
        <time>2019-05-17T09:18:05.167Z</time>
      </trkpt>
      <trkpt lat="39.257575" lon="-8.649875">
        <ele>6.0</ele>
        <time>2019-05-17T09:18:06.185Z</time>
      </trkpt>
      <trkpt lat="39.25759" lon="-8.649845">
        <ele>6.0</ele>
        <time>2019-05-17T09:18:07.164Z</time>
      </trkpt>
      <trkpt lat="39.25759" lon="-8.649845">
        <ele>6.0</ele>
        <time>2019-05-17T09:18:08.189Z</time>
      </trkpt>
      <trkpt lat="39.257625" lon="-8.64979">
        <ele>6.0</ele>
        <time>2019-05-17T09:18:09.171Z</time>
      </trkpt>
      <trkpt lat="39.257625" lon="-8.64979">
        <ele>6.0</ele>
        <time>2019-05-17T09:18:10.163Z</time>
      </trkpt>
      <trkpt lat="39.25765667" lon="-8.64974">
        <ele>7.0</ele>
        <time>2019-05-17T09:18:11.184Z</time>
      </trkpt>
      <trkpt lat="39.25767167" lon="-8.64971167">
        <ele>7.0</ele>
        <time>2019-05-17T09:18:12.166Z</time>
      </trkpt>
      <trkpt lat="39.25768667" lon="-8.64968333">
        <ele>7.0</ele>
        <time>2019-05-17T09:18:13.180Z</time>
      </trkpt>
      <trkpt lat="39.25768667" lon="-8.64968333">
        <ele>7.0</ele>
        <time>2019-05-17T09:18:14.160Z</time>
      </trkpt>
      <trkpt lat="39.25771" lon="-8.64962167">
        <ele>7.0</ele>
        <time>2019-05-17T09:18:15.171Z</time>
      </trkpt>
      <trkpt lat="39.25771" lon="-8.64962167">
        <ele>7.0</ele>
        <time>2019-05-17T09:18:16.189Z</time>
      </trkpt>
      <trkpt lat="39.25774167" lon="-8.649565">
        <ele>7.0</ele>
        <time>2019-05-17T09:18:17.167Z</time>
      </trkpt>
      <trkpt lat="39.25775833" lon="-8.649535">
        <ele>7.0</ele>
        <time>2019-05-17T09:18:18.159Z</time>
      </trkpt>
      <trkpt lat="39.25775833" lon="-8.649535">
        <ele>7.0</ele>
        <time>2019-05-17T09:18:19.168Z</time>
      </trkpt>
      <trkpt lat="39.25779" lon="-8.64947667">
        <ele>7.0</ele>
        <time>2019-05-17T09:18:20.179Z</time>
      </trkpt>
      <trkpt lat="39.25779" lon="-8.64947667">
        <ele>7.0</ele>
        <time>2019-05-17T09:18:21.150Z</time>
      </trkpt>
      <trkpt lat="39.257815" lon="-8.64942667">
        <ele>8.0</ele>
        <time>2019-05-17T09:18:22.171Z</time>
      </trkpt>
      <trkpt lat="39.257815" lon="-8.64942667">
        <ele>8.0</ele>
        <time>2019-05-17T09:18:23.178Z</time>
      </trkpt>
      <trkpt lat="39.25784667" lon="-8.649385">
        <ele>8.0</ele>
        <time>2019-05-17T09:18:24.186Z</time>
      </trkpt>
      <trkpt lat="39.25784667" lon="-8.649385">
        <ele>8.0</ele>
        <time>2019-05-17T09:18:25.160Z</time>
      </trkpt>
      <trkpt lat="39.25788667" lon="-8.64935">
        <ele>8.0</ele>
        <time>2019-05-17T09:18:26.178Z</time>
      </trkpt>
      <trkpt lat="39.25788667" lon="-8.64935">
        <ele>8.0</ele>
        <time>2019-05-17T09:18:27.189Z</time>
      </trkpt>
      <trkpt lat="39.25792667" lon="-8.64930333">
        <ele>8.0</ele>
        <time>2019-05-17T09:18:28.171Z</time>
      </trkpt>
      <trkpt lat="39.25794667" lon="-8.64927333">
        <ele>8.0</ele>
        <time>2019-05-17T09:18:29.162Z</time>
      </trkpt>
      <trkpt lat="39.25796833" lon="-8.649245">
        <ele>9.0</ele>
        <time>2019-05-17T09:18:30.181Z</time>
      </trkpt>
      <trkpt lat="39.25796833" lon="-8.649245">
        <ele>9.0</ele>
        <time>2019-05-17T09:18:31.152Z</time>
      </trkpt>
      <trkpt lat="39.25800833" lon="-8.64918333">
        <ele>9.0</ele>
        <time>2019-05-17T09:18:32.162Z</time>
      </trkpt>
      <trkpt lat="39.25800833" lon="-8.64918333">
        <ele>9.0</ele>
        <time>2019-05-17T09:18:33.179Z</time>
      </trkpt>
      <trkpt lat="39.258045" lon="-8.64912833">
        <ele>9.0</ele>
        <time>2019-05-17T09:18:34.189Z</time>
      </trkpt>
      <trkpt lat="39.258065" lon="-8.649105">
        <ele>9.0</ele>
        <time>2019-05-17T09:18:35.167Z</time>
      </trkpt>
      <trkpt lat="39.258065" lon="-8.649105">
        <ele>9.0</ele>
        <time>2019-05-17T09:18:36.182Z</time>
      </trkpt>
      <trkpt lat="39.25810333" lon="-8.64906">
        <ele>9.0</ele>
        <time>2019-05-17T09:18:37.153Z</time>
      </trkpt>
      <trkpt lat="39.25810333" lon="-8.64906">
        <ele>9.0</ele>
        <time>2019-05-17T09:18:38.166Z</time>
      </trkpt>
      <trkpt lat="39.25813667" lon="-8.64901333">
        <ele>9.0</ele>
        <time>2019-05-17T09:18:39.170Z</time>
      </trkpt>
      <trkpt lat="39.25813667" lon="-8.64901333">
        <ele>9.0</ele>
        <time>2019-05-17T09:18:40.168Z</time>
      </trkpt>
      <trkpt lat="39.25817167" lon="-8.64896333">
        <ele>9.0</ele>
        <time>2019-05-17T09:18:41.189Z</time>
      </trkpt>
      <trkpt lat="39.25818833" lon="-8.64893833">
        <ele>9.0</ele>
        <time>2019-05-17T09:18:42.184Z</time>
      </trkpt>
      <trkpt lat="39.25818833" lon="-8.64893833">
        <ele>9.0</ele>
        <time>2019-05-17T09:18:43.162Z</time>
      </trkpt>
      <trkpt lat="39.25821667" lon="-8.64888833">
        <ele>9.0</ele>
        <time>2019-05-17T09:18:44.173Z</time>
      </trkpt>
      <trkpt lat="39.25821667" lon="-8.64888833">
        <ele>9.0</ele>
        <time>2019-05-17T09:18:45.182Z</time>
      </trkpt>
      <trkpt lat="39.25824833" lon="-8.64883833">
        <ele>9.0</ele>
        <time>2019-05-17T09:18:46.156Z</time>
      </trkpt>
      <trkpt lat="39.25826333" lon="-8.64881833">
        <ele>8.0</ele>
        <time>2019-05-17T09:18:47.185Z</time>
      </trkpt>
      <trkpt lat="39.25826333" lon="-8.64881833">
        <ele>8.0</ele>
        <time>2019-05-17T09:18:48.165Z</time>
      </trkpt>
      <trkpt lat="39.258295" lon="-8.64876833">
        <ele>8.0</ele>
        <time>2019-05-17T09:18:49.185Z</time>
      </trkpt>
      <trkpt lat="39.258295" lon="-8.64876833">
        <ele>8.0</ele>
        <time>2019-05-17T09:18:50.154Z</time>
      </trkpt>
      <trkpt lat="39.25833167" lon="-8.64872333">
        <ele>8.0</ele>
        <time>2019-05-17T09:18:51.166Z</time>
      </trkpt>
      <trkpt lat="39.25835" lon="-8.6487">
        <ele>8.0</ele>
        <time>2019-05-17T09:18:52.158Z</time>
      </trkpt>
      <trkpt lat="39.25835" lon="-8.6487">
        <ele>8.0</ele>
        <time>2019-05-17T09:18:53.166Z</time>
      </trkpt>
      <trkpt lat="39.258385" lon="-8.648655">
        <ele>8.0</ele>
        <time>2019-05-17T09:18:54.182Z</time>
      </trkpt>
      <trkpt lat="39.258385" lon="-8.648655">
        <ele>8.0</ele>
        <time>2019-05-17T09:18:55.154Z</time>
      </trkpt>
      <trkpt lat="39.25842" lon="-8.64860833">
        <ele>8.0</ele>
        <time>2019-05-17T09:18:56.159Z</time>
      </trkpt>
      <trkpt lat="39.25843833" lon="-8.64858333">
        <ele>8.0</ele>
        <time>2019-05-17T09:18:57.187Z</time>
      </trkpt>
      <trkpt lat="39.25843833" lon="-8.64858333">
        <ele>8.0</ele>
        <time>2019-05-17T09:18:58.164Z</time>
      </trkpt>
      <trkpt lat="39.25847167" lon="-8.64853833">
        <ele>8.0</ele>
        <time>2019-05-17T09:18:59.175Z</time>
      </trkpt>
      <trkpt lat="39.25848833" lon="-8.648515">
        <ele>8.0</ele>
        <time>2019-05-17T09:19:00.156Z</time>
      </trkpt>
      <trkpt lat="39.25848833" lon="-8.648515">
        <ele>8.0</ele>
        <time>2019-05-17T09:19:01.168Z</time>
      </trkpt>
      <trkpt lat="39.25851667" lon="-8.64847167">
        <ele>8.0</ele>
        <time>2019-05-17T09:19:02.182Z</time>
      </trkpt>
      <trkpt lat="39.25851667" lon="-8.64847167">
        <ele>8.0</ele>
        <time>2019-05-17T09:19:03.161Z</time>
      </trkpt>
      <trkpt lat="39.25854167" lon="-8.64843333">
        <ele>8.0</ele>
        <time>2019-05-17T09:19:04.151Z</time>
      </trkpt>
      <trkpt lat="39.25855333" lon="-8.648415">
        <ele>8.0</ele>
        <time>2019-05-17T09:19:05.173Z</time>
      </trkpt>
      <trkpt lat="39.25855333" lon="-8.648415">
        <ele>8.0</ele>
        <time>2019-05-17T09:19:06.159Z</time>
      </trkpt>
      <trkpt lat="39.25858" lon="-8.64838833">
        <ele>8.0</ele>
        <time>2019-05-17T09:19:07.172Z</time>
      </trkpt>
      <trkpt lat="39.25859167" lon="-8.64837167">
        <ele>8.0</ele>
        <time>2019-05-17T09:19:08.158Z</time>
      </trkpt>
      <trkpt lat="39.25859167" lon="-8.64837167">
        <ele>8.0</ele>
        <time>2019-05-17T09:19:09.164Z</time>
      </trkpt>
      <trkpt lat="39.25862333" lon="-8.64833667">
        <ele>8.0</ele>
        <time>2019-05-17T09:19:10.156Z</time>
      </trkpt>
      <trkpt lat="39.25864" lon="-8.64831833">
        <ele>8.0</ele>
        <time>2019-05-17T09:19:11.151Z</time>
      </trkpt>
      <trkpt lat="39.25865667" lon="-8.64830167">
        <ele>8.0</ele>
        <time>2019-05-17T09:19:12.169Z</time>
      </trkpt>
      <trkpt lat="39.25867667" lon="-8.64828333">
        <ele>8.0</ele>
        <time>2019-05-17T09:19:13.185Z</time>
      </trkpt>
      <trkpt lat="39.25867667" lon="-8.64828333">
        <ele>8.0</ele>
        <time>2019-05-17T09:19:14.160Z</time>
      </trkpt>
      <trkpt lat="39.258715" lon="-8.64824167">
        <ele>8.0</ele>
        <time>2019-05-17T09:19:15.170Z</time>
      </trkpt>
      <trkpt lat="39.258715" lon="-8.64824167">
        <ele>8.0</ele>
        <time>2019-05-17T09:19:16.182Z</time>
      </trkpt>
      <trkpt lat="39.258755" lon="-8.64820167">
        <ele>8.0</ele>
        <time>2019-05-17T09:19:17.160Z</time>
      </trkpt>
      <trkpt lat="39.258775" lon="-8.64818167">
        <ele>8.0</ele>
        <time>2019-05-17T09:19:18.189Z</time>
      </trkpt>
      <trkpt lat="39.258775" lon="-8.64818167">
        <ele>8.0</ele>
        <time>2019-05-17T09:19:19.161Z</time>
      </trkpt>
      <trkpt lat="39.25881333" lon="-8.64814167">
        <ele>8.0</ele>
        <time>2019-05-17T09:19:20.180Z</time>
      </trkpt>
      <trkpt lat="39.25881333" lon="-8.64814167">
        <ele>8.0</ele>
        <time>2019-05-17T09:19:21.152Z</time>
      </trkpt>
      <trkpt lat="39.25885" lon="-8.64810333">
        <ele>8.0</ele>
        <time>2019-05-17T09:19:22.184Z</time>
      </trkpt>
      <trkpt lat="39.25885" lon="-8.64810333">
        <ele>8.0</ele>
        <time>2019-05-17T09:19:23.154Z</time>
      </trkpt>
      <trkpt lat="39.25888167" lon="-8.648065">
        <ele>8.0</ele>
        <time>2019-05-17T09:19:24.164Z</time>
      </trkpt>
      <trkpt lat="39.25889667" lon="-8.648045">
        <ele>8.0</ele>
        <time>2019-05-17T09:19:25.184Z</time>
      </trkpt>
      <trkpt lat="39.25889667" lon="-8.648045">
        <ele>8.0</ele>
        <time>2019-05-17T09:19:26.163Z</time>
      </trkpt>
      <trkpt lat="39.25893" lon="-8.64800167">
        <ele>8.0</ele>
        <time>2019-05-17T09:19:27.173Z</time>
      </trkpt>
      <trkpt lat="39.25893" lon="-8.64800167">
        <ele>8.0</ele>
        <time>2019-05-17T09:19:28.184Z</time>
      </trkpt>
      <trkpt lat="39.25896333" lon="-8.64796">
        <ele>8.0</ele>
        <time>2019-05-17T09:19:29.155Z</time>
      </trkpt>
      <trkpt lat="39.25898167" lon="-8.64793833">
        <ele>8.0</ele>
        <time>2019-05-17T09:19:30.185Z</time>
      </trkpt>
      <trkpt lat="39.25898167" lon="-8.64793833">
        <ele>8.0</ele>
        <time>2019-05-17T09:19:31.162Z</time>
      </trkpt>
      <trkpt lat="39.25901667" lon="-8.64789167">
        <ele>8.0</ele>
        <time>2019-05-17T09:19:32.175Z</time>
      </trkpt>
      <trkpt lat="39.25901667" lon="-8.64789167">
        <ele>8.0</ele>
        <time>2019-05-17T09:19:33.151Z</time>
      </trkpt>
      <trkpt lat="39.25905" lon="-8.64784667">
        <ele>8.0</ele>
        <time>2019-05-17T09:19:34.161Z</time>
      </trkpt>
      <trkpt lat="39.25906667" lon="-8.647825">
        <ele>8.0</ele>
        <time>2019-05-17T09:19:35.185Z</time>
      </trkpt>
      <trkpt lat="39.25906667" lon="-8.647825">
        <ele>8.0</ele>
        <time>2019-05-17T09:19:36.165Z</time>
      </trkpt>
      <trkpt lat="39.2591" lon="-8.64778167">
        <ele>8.0</ele>
        <time>2019-05-17T09:19:37.180Z</time>
      </trkpt>
      <trkpt lat="39.2591" lon="-8.64778167">
        <ele>8.0</ele>
        <time>2019-05-17T09:19:38.151Z</time>
      </trkpt>
      <trkpt lat="39.25913667" lon="-8.64773333">
        <ele>8.0</ele>
        <time>2019-05-17T09:19:39.169Z</time>
      </trkpt>
      <trkpt lat="39.25915667" lon="-8.64770833">
        <ele>8.0</ele>
        <time>2019-05-17T09:19:40.192Z</time>
      </trkpt>
      <trkpt lat="39.25915667" lon="-8.64770833">
        <ele>8.0</ele>
        <time>2019-05-17T09:19:41.167Z</time>
      </trkpt>
      <trkpt lat="39.25919167" lon="-8.64766">
        <ele>8.0</ele>
        <time>2019-05-17T09:19:42.178Z</time>
      </trkpt>
      <trkpt lat="39.25921167" lon="-8.647635">
        <ele>8.0</ele>
        <time>2019-05-17T09:19:43.151Z</time>
      </trkpt>
      <trkpt lat="39.25921167" lon="-8.647635">
        <ele>8.0</ele>
        <time>2019-05-17T09:19:44.171Z</time>
      </trkpt>
      <trkpt lat="39.25925" lon="-8.64758333">
        <ele>8.0</ele>
        <time>2019-05-17T09:19:45.183Z</time>
      </trkpt>
      <trkpt lat="39.25925" lon="-8.64758333">
        <ele>8.0</ele>
        <time>2019-05-17T09:19:46.161Z</time>
      </trkpt>
      <trkpt lat="39.25928333" lon="-8.64753667">
        <ele>7.0</ele>
        <time>2019-05-17T09:19:47.177Z</time>
      </trkpt>
      <trkpt lat="39.25929833" lon="-8.64751833">
        <ele>7.0</ele>
        <time>2019-05-17T09:19:48.156Z</time>
      </trkpt>
      <trkpt lat="39.25929833" lon="-8.64751833">
        <ele>7.0</ele>
        <time>2019-05-17T09:19:49.170Z</time>
      </trkpt>
      <trkpt lat="39.25930667" lon="-8.64751167">
        <ele>7.0</ele>
        <time>2019-05-17T09:19:50.182Z</time>
      </trkpt>
      <trkpt lat="39.259305" lon="-8.64751333">
        <ele>7.0</ele>
        <time>2019-05-17T09:19:51.161Z</time>
      </trkpt>
      <trkpt lat="39.259305" lon="-8.64751333">
        <ele>7.0</ele>
        <time>2019-05-17T09:19:52.157Z</time>
      </trkpt>
      <trkpt lat="39.259305" lon="-8.647515">
        <ele>7.0</ele>
        <time>2019-05-17T09:19:53.174Z</time>
      </trkpt>
      <trkpt lat="39.259305" lon="-8.647515">
        <ele>7.0</ele>
        <time>2019-05-17T09:19:54.184Z</time>
      </trkpt>
      <trkpt lat="39.259305" lon="-8.647515">
        <ele>7.0</ele>
        <time>2019-05-17T09:19:55.150Z</time>
      </trkpt>
      <trkpt lat="39.259305" lon="-8.647515">
        <ele>7.0</ele>
        <time>2019-05-17T09:19:56.164Z</time>
      </trkpt>
      <trkpt lat="39.259305" lon="-8.647515">
        <ele>7.0</ele>
        <time>2019-05-17T09:19:57.170Z</time>
      </trkpt>
      <trkpt lat="39.259305" lon="-8.647515">
        <ele>7.0</ele>
        <time>2019-05-17T09:19:58.189Z</time>
      </trkpt>
      <trkpt lat="39.259305" lon="-8.647515">
        <ele>7.0</ele>
        <time>2019-05-17T09:19:59.172Z</time>
      </trkpt>
      <trkpt lat="39.259305" lon="-8.647515">
        <ele>7.0</ele>
        <time>2019-05-17T09:20:00.179Z</time>
      </trkpt>
      <trkpt lat="39.259305" lon="-8.647515">
        <ele>7.0</ele>
        <time>2019-05-17T09:20:01.174Z</time>
      </trkpt>
      <trkpt lat="39.259305" lon="-8.647515">
        <ele>7.0</ele>
        <time>2019-05-17T09:20:02.175Z</time>
      </trkpt>
      <trkpt lat="39.259305" lon="-8.647515">
        <ele>7.0</ele>
        <time>2019-05-17T09:20:03.172Z</time>
      </trkpt>
      <trkpt lat="39.259305" lon="-8.647515">
        <ele>7.0</ele>
        <time>2019-05-17T09:20:04.187Z</time>
      </trkpt>
      <trkpt lat="39.259305" lon="-8.647515">
        <ele>7.0</ele>
        <time>2019-05-17T09:20:05.174Z</time>
      </trkpt>
      <trkpt lat="39.259305" lon="-8.647515">
        <ele>7.0</ele>
        <time>2019-05-17T09:20:06.172Z</time>
      </trkpt>
      <trkpt lat="39.259305" lon="-8.647515">
        <ele>7.0</ele>
        <time>2019-05-17T09:20:07.172Z</time>
      </trkpt>
      <trkpt lat="39.259305" lon="-8.647515">
        <ele>7.0</ele>
        <time>2019-05-17T09:20:08.175Z</time>
      </trkpt>
      <trkpt lat="39.259305" lon="-8.647515">
        <ele>7.0</ele>
        <time>2019-05-17T09:20:09.163Z</time>
      </trkpt>
      <trkpt lat="39.259305" lon="-8.647515">
        <ele>7.0</ele>
        <time>2019-05-17T09:20:10.179Z</time>
      </trkpt>
      <trkpt lat="39.259305" lon="-8.647515">
        <ele>7.0</ele>
        <time>2019-05-17T09:20:11.174Z</time>
      </trkpt>
      <trkpt lat="39.259305" lon="-8.647515">
        <ele>7.0</ele>
        <time>2019-05-17T09:20:12.172Z</time>
      </trkpt>
      <trkpt lat="39.259305" lon="-8.647515">
        <ele>7.0</ele>
        <time>2019-05-17T09:20:13.174Z</time>
      </trkpt>
      <trkpt lat="39.259305" lon="-8.647515">
        <ele>7.0</ele>
        <time>2019-05-17T09:20:14.163Z</time>
      </trkpt>
      <trkpt lat="39.259305" lon="-8.647515">
        <ele>7.0</ele>
        <time>2019-05-17T09:20:15.189Z</time>
      </trkpt>
      <trkpt lat="39.259305" lon="-8.647515">
        <ele>7.0</ele>
        <time>2019-05-17T09:20:16.175Z</time>
      </trkpt>
      <trkpt lat="39.259305" lon="-8.647515">
        <ele>7.0</ele>
        <time>2019-05-17T09:20:17.174Z</time>
      </trkpt>
      <trkpt lat="39.259305" lon="-8.647515">
        <ele>7.0</ele>
        <time>2019-05-17T09:20:18.174Z</time>
      </trkpt>
      <trkpt lat="39.259305" lon="-8.647515">
        <ele>7.0</ele>
        <time>2019-05-17T09:20:19.175Z</time>
      </trkpt>
      <trkpt lat="39.259305" lon="-8.647515">
        <ele>7.0</ele>
        <time>2019-05-17T09:20:20.171Z</time>
      </trkpt>
      <trkpt lat="39.259305" lon="-8.647515">
        <ele>7.0</ele>
        <time>2019-05-17T09:20:21.175Z</time>
      </trkpt>
      <trkpt lat="39.259305" lon="-8.647515">
        <ele>7.0</ele>
        <time>2019-05-17T09:20:22.175Z</time>
      </trkpt>
      <trkpt lat="39.259305" lon="-8.647515">
        <ele>7.0</ele>
        <time>2019-05-17T09:20:23.173Z</time>
      </trkpt>
      <trkpt lat="39.259305" lon="-8.647515">
        <ele>7.0</ele>
        <time>2019-05-17T09:20:24.177Z</time>
      </trkpt>
      <trkpt lat="39.259305" lon="-8.647515">
        <ele>7.0</ele>
        <time>2019-05-17T09:20:25.175Z</time>
      </trkpt>
      <trkpt lat="39.259305" lon="-8.647515">
        <ele>7.0</ele>
        <time>2019-05-17T09:20:26.171Z</time>
      </trkpt>
      <trkpt lat="39.259305" lon="-8.647515">
        <ele>7.0</ele>
        <time>2019-05-17T09:20:27.182Z</time>
      </trkpt>
      <trkpt lat="39.259305" lon="-8.647515">
        <ele>7.0</ele>
        <time>2019-05-17T09:20:28.173Z</time>
      </trkpt>
      <trkpt lat="39.259305" lon="-8.647515">
        <ele>7.0</ele>
        <time>2019-05-17T09:20:29.175Z</time>
      </trkpt>
      <trkpt lat="39.259305" lon="-8.647515">
        <ele>7.0</ele>
        <time>2019-05-17T09:20:30.178Z</time>
      </trkpt>
      <trkpt lat="39.259305" lon="-8.647515">
        <ele>7.0</ele>
        <time>2019-05-17T09:20:31.173Z</time>
      </trkpt>
      <trkpt lat="39.259305" lon="-8.647515">
        <ele>7.0</ele>
        <time>2019-05-17T09:20:32.175Z</time>
      </trkpt>
      <trkpt lat="39.259305" lon="-8.647515">
        <ele>7.0</ele>
        <time>2019-05-17T09:20:33.175Z</time>
      </trkpt>
      <trkpt lat="39.259305" lon="-8.647515">
        <ele>7.0</ele>
        <time>2019-05-17T09:20:34.175Z</time>
      </trkpt>
      <trkpt lat="39.259305" lon="-8.647515">
        <ele>7.0</ele>
        <time>2019-05-17T09:20:35.173Z</time>
      </trkpt>
      <trkpt lat="39.259305" lon="-8.647515">
        <ele>7.0</ele>
        <time>2019-05-17T09:20:36.177Z</time>
      </trkpt>
      <trkpt lat="39.259305" lon="-8.647515">
        <ele>7.0</ele>
        <time>2019-05-17T09:20:37.177Z</time>
      </trkpt>
      <trkpt lat="39.259305" lon="-8.647515">
        <ele>7.0</ele>
        <time>2019-05-17T09:20:38.172Z</time>
      </trkpt>
      <trkpt lat="39.259305" lon="-8.647515">
        <ele>7.0</ele>
        <time>2019-05-17T09:20:39.175Z</time>
      </trkpt>
      <trkpt lat="39.259305" lon="-8.647515">
        <ele>7.0</ele>
        <time>2019-05-17T09:20:40.170Z</time>
      </trkpt>
      <trkpt lat="39.259305" lon="-8.647515">
        <ele>7.0</ele>
        <time>2019-05-17T09:20:41.174Z</time>
      </trkpt>
      <trkpt lat="39.259305" lon="-8.647515">
        <ele>7.0</ele>
        <time>2019-05-17T09:20:42.172Z</time>
      </trkpt>
      <trkpt lat="39.259305" lon="-8.647515">
        <ele>7.0</ele>
        <time>2019-05-17T09:20:43.175Z</time>
      </trkpt>
      <trkpt lat="39.259305" lon="-8.647515">
        <ele>7.0</ele>
        <time>2019-05-17T09:20:44.170Z</time>
      </trkpt>
      <trkpt lat="39.259305" lon="-8.647515">
        <ele>7.0</ele>
        <time>2019-05-17T09:20:45.175Z</time>
      </trkpt>
      <trkpt lat="39.259305" lon="-8.647515">
        <ele>7.0</ele>
        <time>2019-05-17T09:20:46.168Z</time>
      </trkpt>
      <trkpt lat="39.259305" lon="-8.647515">
        <ele>7.0</ele>
        <time>2019-05-17T09:20:47.176Z</time>
      </trkpt>
      <trkpt lat="39.259305" lon="-8.647515">
        <ele>7.0</ele>
        <time>2019-05-17T09:20:48.176Z</time>
      </trkpt>
      <trkpt lat="39.259305" lon="-8.647515">
        <ele>7.0</ele>
        <time>2019-05-17T09:20:49.173Z</time>
      </trkpt>
      <trkpt lat="39.259305" lon="-8.647515">
        <ele>7.0</ele>
        <time>2019-05-17T09:20:50.174Z</time>
      </trkpt>
      <trkpt lat="39.259305" lon="-8.647515">
        <ele>7.0</ele>
        <time>2019-05-17T09:20:51.172Z</time>
      </trkpt>
      <trkpt lat="39.259305" lon="-8.647515">
        <ele>7.0</ele>
        <time>2019-05-17T09:20:52.175Z</time>
      </trkpt>
      <trkpt lat="39.259305" lon="-8.647515">
        <ele>7.0</ele>
        <time>2019-05-17T09:20:53.173Z</time>
      </trkpt>
      <trkpt lat="39.259305" lon="-8.647515">
        <ele>7.0</ele>
        <time>2019-05-17T09:20:54.158Z</time>
      </trkpt>
      <trkpt lat="39.259305" lon="-8.647515">
        <ele>7.0</ele>
        <time>2019-05-17T09:20:55.182Z</time>
      </trkpt>
      <trkpt lat="39.259305" lon="-8.647515">
        <ele>7.0</ele>
        <time>2019-05-17T09:20:56.174Z</time>
      </trkpt>
      <trkpt lat="39.259305" lon="-8.647515">
        <ele>7.0</ele>
        <time>2019-05-17T09:20:57.152Z</time>
      </trkpt>
      <trkpt lat="39.259305" lon="-8.647515">
        <ele>7.0</ele>
        <time>2019-05-17T09:20:58.177Z</time>
      </trkpt>
      <trkpt lat="39.259305" lon="-8.647515">
        <ele>7.0</ele>
        <time>2019-05-17T09:20:59.175Z</time>
      </trkpt>
      <trkpt lat="39.259305" lon="-8.647515">
        <ele>7.0</ele>
        <time>2019-05-17T09:21:00.180Z</time>
      </trkpt>
      <trkpt lat="39.259305" lon="-8.647515">
        <ele>7.0</ele>
        <time>2019-05-17T09:21:01.175Z</time>
      </trkpt>
      <trkpt lat="39.259305" lon="-8.647515">
        <ele>7.0</ele>
        <time>2019-05-17T09:21:02.170Z</time>
      </trkpt>
      <trkpt lat="39.259305" lon="-8.647515">
        <ele>7.0</ele>
        <time>2019-05-17T09:21:03.175Z</time>
      </trkpt>
      <trkpt lat="39.259305" lon="-8.647515">
        <ele>7.0</ele>
        <time>2019-05-17T09:21:04.170Z</time>
      </trkpt>
      <trkpt lat="39.259305" lon="-8.647515">
        <ele>7.0</ele>
        <time>2019-05-17T09:21:05.175Z</time>
      </trkpt>
      <trkpt lat="39.259305" lon="-8.647515">
        <ele>7.0</ele>
        <time>2019-05-17T09:21:06.177Z</time>
      </trkpt>
      <trkpt lat="39.259305" lon="-8.647515">
        <ele>7.0</ele>
        <time>2019-05-17T09:21:07.171Z</time>
      </trkpt>
      <trkpt lat="39.259305" lon="-8.647515">
        <ele>7.0</ele>
        <time>2019-05-17T09:21:08.176Z</time>
      </trkpt>
      <trkpt lat="39.259305" lon="-8.647515">
        <ele>7.0</ele>
        <time>2019-05-17T09:21:09.176Z</time>
      </trkpt>
      <trkpt lat="39.259305" lon="-8.647515">
        <ele>7.0</ele>
        <time>2019-05-17T09:21:10.185Z</time>
      </trkpt>
      <trkpt lat="39.259305" lon="-8.647515">
        <ele>7.0</ele>
        <time>2019-05-17T09:21:11.176Z</time>
      </trkpt>
      <trkpt lat="39.259305" lon="-8.647515">
        <ele>7.0</ele>
        <time>2019-05-17T09:21:12.173Z</time>
      </trkpt>
      <trkpt lat="39.259305" lon="-8.647515">
        <ele>7.0</ele>
        <time>2019-05-17T09:21:13.175Z</time>
      </trkpt>
      <trkpt lat="39.259305" lon="-8.647515">
        <ele>7.0</ele>
        <time>2019-05-17T09:21:14.171Z</time>
      </trkpt>
      <trkpt lat="39.259305" lon="-8.647515">
        <ele>7.0</ele>
        <time>2019-05-17T09:21:15.176Z</time>
      </trkpt>
      <trkpt lat="39.259305" lon="-8.647515">
        <ele>7.0</ele>
        <time>2019-05-17T09:21:16.176Z</time>
      </trkpt>
      <trkpt lat="39.259305" lon="-8.647515">
        <ele>7.0</ele>
        <time>2019-05-17T09:21:17.174Z</time>
      </trkpt>
      <trkpt lat="39.259305" lon="-8.647515">
        <ele>7.0</ele>
        <time>2019-05-17T09:21:18.176Z</time>
      </trkpt>
      <trkpt lat="39.259305" lon="-8.647515">
        <ele>7.0</ele>
        <time>2019-05-17T09:21:19.170Z</time>
      </trkpt>
      <trkpt lat="39.259305" lon="-8.647515">
        <ele>7.0</ele>
        <time>2019-05-17T09:21:20.175Z</time>
      </trkpt>
      <trkpt lat="39.259305" lon="-8.647515">
        <ele>7.0</ele>
        <time>2019-05-17T09:21:21.176Z</time>
      </trkpt>
      <trkpt lat="39.259305" lon="-8.647515">
        <ele>7.0</ele>
        <time>2019-05-17T09:21:22.170Z</time>
      </trkpt>
      <trkpt lat="39.259305" lon="-8.647515">
        <ele>7.0</ele>
        <time>2019-05-17T09:21:23.176Z</time>
      </trkpt>
      <trkpt lat="39.259305" lon="-8.647515">
        <ele>7.0</ele>
        <time>2019-05-17T09:21:24.173Z</time>
      </trkpt>
      <trkpt lat="39.259305" lon="-8.647515">
        <ele>7.0</ele>
        <time>2019-05-17T09:21:25.176Z</time>
      </trkpt>
      <trkpt lat="39.259305" lon="-8.647515">
        <ele>7.0</ele>
        <time>2019-05-17T09:21:26.170Z</time>
      </trkpt>
      <trkpt lat="39.259305" lon="-8.647515">
        <ele>7.0</ele>
        <time>2019-05-17T09:21:27.176Z</time>
      </trkpt>
      <trkpt lat="39.259305" lon="-8.647515">
        <ele>7.0</ele>
        <time>2019-05-17T09:21:28.177Z</time>
      </trkpt>
      <trkpt lat="39.259305" lon="-8.647515">
        <ele>7.0</ele>
        <time>2019-05-17T09:21:29.176Z</time>
      </trkpt>
      <trkpt lat="39.259305" lon="-8.647515">
        <ele>7.0</ele>
        <time>2019-05-17T09:21:30.172Z</time>
      </trkpt>
      <trkpt lat="39.259305" lon="-8.647515">
        <ele>7.0</ele>
        <time>2019-05-17T09:21:31.175Z</time>
      </trkpt>
      <trkpt lat="39.259305" lon="-8.647515">
        <ele>7.0</ele>
        <time>2019-05-17T09:21:32.170Z</time>
      </trkpt>
      <trkpt lat="39.259305" lon="-8.647515">
        <ele>7.0</ele>
        <time>2019-05-17T09:21:33.175Z</time>
      </trkpt>
      <trkpt lat="39.259305" lon="-8.647515">
        <ele>7.0</ele>
        <time>2019-05-17T09:21:34.174Z</time>
      </trkpt>
      <trkpt lat="39.259305" lon="-8.647515">
        <ele>7.0</ele>
        <time>2019-05-17T09:21:35.173Z</time>
      </trkpt>
      <trkpt lat="39.259305" lon="-8.647515">
        <ele>7.0</ele>
        <time>2019-05-17T09:21:36.173Z</time>
      </trkpt>
      <trkpt lat="39.259305" lon="-8.647515">
        <ele>7.0</ele>
        <time>2019-05-17T09:21:37.177Z</time>
      </trkpt>
      <trkpt lat="39.259305" lon="-8.647515">
        <ele>7.0</ele>
        <time>2019-05-17T09:21:38.170Z</time>
      </trkpt>
      <trkpt lat="39.259305" lon="-8.647515">
        <ele>7.0</ele>
        <time>2019-05-17T09:21:39.175Z</time>
      </trkpt>
      <trkpt lat="39.259305" lon="-8.647515">
        <ele>7.0</ele>
        <time>2019-05-17T09:21:40.171Z</time>
      </trkpt>
      <trkpt lat="39.259305" lon="-8.647515">
        <ele>7.0</ele>
        <time>2019-05-17T09:21:41.175Z</time>
      </trkpt>
      <trkpt lat="39.259305" lon="-8.647515">
        <ele>7.0</ele>
        <time>2019-05-17T09:21:42.172Z</time>
      </trkpt>
      <trkpt lat="39.259305" lon="-8.647515">
        <ele>7.0</ele>
        <time>2019-05-17T09:21:43.175Z</time>
      </trkpt>
      <trkpt lat="39.259305" lon="-8.647515">
        <ele>7.0</ele>
        <time>2019-05-17T09:21:44.170Z</time>
      </trkpt>
      <trkpt lat="39.259305" lon="-8.647515">
        <ele>7.0</ele>
        <time>2019-05-17T09:21:45.175Z</time>
      </trkpt>
      <trkpt lat="39.259305" lon="-8.647515">
        <ele>7.0</ele>
        <time>2019-05-17T09:21:46.173Z</time>
      </trkpt>
      <trkpt lat="39.259305" lon="-8.647515">
        <ele>7.0</ele>
        <time>2019-05-17T09:21:47.176Z</time>
      </trkpt>
      <trkpt lat="39.259305" lon="-8.647515">
        <ele>7.0</ele>
        <time>2019-05-17T09:21:48.175Z</time>
      </trkpt>
      <trkpt lat="39.259305" lon="-8.647515">
        <ele>7.0</ele>
        <time>2019-05-17T09:21:49.177Z</time>
      </trkpt>
      <trkpt lat="39.259305" lon="-8.647515">
        <ele>7.0</ele>
        <time>2019-05-17T09:21:50.168Z</time>
      </trkpt>
      <trkpt lat="39.259305" lon="-8.647515">
        <ele>7.0</ele>
        <time>2019-05-17T09:21:51.175Z</time>
      </trkpt>
      <trkpt lat="39.259305" lon="-8.647515">
        <ele>7.0</ele>
        <time>2019-05-17T09:21:52.170Z</time>
      </trkpt>
      <trkpt lat="39.259305" lon="-8.647515">
        <ele>7.0</ele>
        <time>2019-05-17T09:21:53.174Z</time>
      </trkpt>
      <trkpt lat="39.259305" lon="-8.647515">
        <ele>7.0</ele>
        <time>2019-05-17T09:21:54.173Z</time>
      </trkpt>
      <trkpt lat="39.259305" lon="-8.647515">
        <ele>7.0</ele>
        <time>2019-05-17T09:21:55.175Z</time>
      </trkpt>
      <trkpt lat="39.259305" lon="-8.647515">
        <ele>7.0</ele>
        <time>2019-05-17T09:21:56.169Z</time>
      </trkpt>
      <trkpt lat="39.259305" lon="-8.647515">
        <ele>7.0</ele>
        <time>2019-05-17T09:21:57.176Z</time>
      </trkpt>
      <trkpt lat="39.259305" lon="-8.647515">
        <ele>7.0</ele>
        <time>2019-05-17T09:21:58.171Z</time>
      </trkpt>
      <trkpt lat="39.259305" lon="-8.647515">
        <ele>7.0</ele>
        <time>2019-05-17T09:21:59.172Z</time>
      </trkpt>
      <trkpt lat="39.259305" lon="-8.647515">
        <ele>7.0</ele>
        <time>2019-05-17T09:22:00.186Z</time>
      </trkpt>
      <trkpt lat="39.259305" lon="-8.647515">
        <ele>7.0</ele>
        <time>2019-05-17T09:22:01.176Z</time>
      </trkpt>
      <trkpt lat="39.259305" lon="-8.647515">
        <ele>7.0</ele>
        <time>2019-05-17T09:22:02.170Z</time>
      </trkpt>
      <trkpt lat="39.259305" lon="-8.647515">
        <ele>7.0</ele>
        <time>2019-05-17T09:22:03.176Z</time>
      </trkpt>
      <trkpt lat="39.259305" lon="-8.647515">
        <ele>7.0</ele>
        <time>2019-05-17T09:22:04.170Z</time>
      </trkpt>
      <trkpt lat="39.259305" lon="-8.647515">
        <ele>7.0</ele>
        <time>2019-05-17T09:22:05.166Z</time>
      </trkpt>
      <trkpt lat="39.259305" lon="-8.647515">
        <ele>7.0</ele>
        <time>2019-05-17T09:22:06.184Z</time>
      </trkpt>
      <trkpt lat="39.259305" lon="-8.647515">
        <ele>7.0</ele>
        <time>2019-05-17T09:22:07.176Z</time>
      </trkpt>
      <trkpt lat="39.259305" lon="-8.647515">
        <ele>7.0</ele>
        <time>2019-05-17T09:22:08.171Z</time>
      </trkpt>
      <trkpt lat="39.259305" lon="-8.647515">
        <ele>7.0</ele>
        <time>2019-05-17T09:22:09.188Z</time>
      </trkpt>
      <trkpt lat="39.259305" lon="-8.647515">
        <ele>7.0</ele>
        <time>2019-05-17T09:22:10.186Z</time>
      </trkpt>
      <trkpt lat="39.259305" lon="-8.647515">
        <ele>7.0</ele>
        <time>2019-05-17T09:22:11.172Z</time>
      </trkpt>
      <trkpt lat="39.259305" lon="-8.647515">
        <ele>7.0</ele>
        <time>2019-05-17T09:22:12.178Z</time>
      </trkpt>
      <trkpt lat="39.259305" lon="-8.647515">
        <ele>7.0</ele>
        <time>2019-05-17T09:22:13.186Z</time>
      </trkpt>
      <trkpt lat="39.259305" lon="-8.647515">
        <ele>7.0</ele>
        <time>2019-05-17T09:22:14.172Z</time>
      </trkpt>
      <trkpt lat="39.259305" lon="-8.647515">
        <ele>7.0</ele>
        <time>2019-05-17T09:22:15.176Z</time>
      </trkpt>
      <trkpt lat="39.259305" lon="-8.647515">
        <ele>7.0</ele>
        <time>2019-05-17T09:22:16.173Z</time>
      </trkpt>
      <trkpt lat="39.259305" lon="-8.647515">
        <ele>7.0</ele>
        <time>2019-05-17T09:22:17.176Z</time>
      </trkpt>
      <trkpt lat="39.259305" lon="-8.647515">
        <ele>7.0</ele>
        <time>2019-05-17T09:22:18.183Z</time>
      </trkpt>
      <trkpt lat="39.259305" lon="-8.647515">
        <ele>7.0</ele>
        <time>2019-05-17T09:22:19.187Z</time>
      </trkpt>
      <trkpt lat="39.259305" lon="-8.647515">
        <ele>7.0</ele>
        <time>2019-05-17T09:22:20.172Z</time>
      </trkpt>
      <trkpt lat="39.259305" lon="-8.647515">
        <ele>7.0</ele>
        <time>2019-05-17T09:22:21.175Z</time>
      </trkpt>
      <trkpt lat="39.259305" lon="-8.647515">
        <ele>7.0</ele>
        <time>2019-05-17T09:22:22.168Z</time>
      </trkpt>
      <trkpt lat="39.259305" lon="-8.647515">
        <ele>7.0</ele>
        <time>2019-05-17T09:22:23.175Z</time>
      </trkpt>
      <trkpt lat="39.259305" lon="-8.647515">
        <ele>7.0</ele>
        <time>2019-05-17T09:22:24.178Z</time>
      </trkpt>
      <trkpt lat="39.259305" lon="-8.647515">
        <ele>7.0</ele>
        <time>2019-05-17T09:22:25.175Z</time>
      </trkpt>
      <trkpt lat="39.259305" lon="-8.647515">
        <ele>7.0</ele>
        <time>2019-05-17T09:22:26.170Z</time>
      </trkpt>
      <trkpt lat="39.259305" lon="-8.647515">
        <ele>7.0</ele>
        <time>2019-05-17T09:22:27.175Z</time>
      </trkpt>
      <trkpt lat="39.259305" lon="-8.647515">
        <ele>7.0</ele>
        <time>2019-05-17T09:22:28.173Z</time>
      </trkpt>
      <trkpt lat="39.259305" lon="-8.647515">
        <ele>7.0</ele>
        <time>2019-05-17T09:22:29.176Z</time>
      </trkpt>
      <trkpt lat="39.259305" lon="-8.647515">
        <ele>7.0</ele>
        <time>2019-05-17T09:22:30.172Z</time>
      </trkpt>
      <trkpt lat="39.259305" lon="-8.647515">
        <ele>7.0</ele>
        <time>2019-05-17T09:22:31.175Z</time>
      </trkpt>
      <trkpt lat="39.259305" lon="-8.647515">
        <ele>7.0</ele>
        <time>2019-05-17T09:22:32.170Z</time>
      </trkpt>
      <trkpt lat="39.259305" lon="-8.647515">
        <ele>7.0</ele>
        <time>2019-05-17T09:22:33.175Z</time>
      </trkpt>
      <trkpt lat="39.259305" lon="-8.647515">
        <ele>7.0</ele>
        <time>2019-05-17T09:22:34.170Z</time>
      </trkpt>
      <trkpt lat="39.259305" lon="-8.647515">
        <ele>7.0</ele>
        <time>2019-05-17T09:22:35.175Z</time>
      </trkpt>
      <trkpt lat="39.259305" lon="-8.647515">
        <ele>7.0</ele>
        <time>2019-05-17T09:22:36.177Z</time>
      </trkpt>
      <trkpt lat="39.259305" lon="-8.647515">
        <ele>7.0</ele>
        <time>2019-05-17T09:22:37.170Z</time>
      </trkpt>
      <trkpt lat="39.259305" lon="-8.647515">
        <ele>7.0</ele>
        <time>2019-05-17T09:22:38.176Z</time>
      </trkpt>
      <trkpt lat="39.259305" lon="-8.647515">
        <ele>7.0</ele>
        <time>2019-05-17T09:22:39.170Z</time>
      </trkpt>
      <trkpt lat="39.259305" lon="-8.647515">
        <ele>7.0</ele>
        <time>2019-05-17T09:22:40.175Z</time>
      </trkpt>
      <trkpt lat="39.259305" lon="-8.647515">
        <ele>7.0</ele>
        <time>2019-05-17T09:22:41.175Z</time>
      </trkpt>
      <trkpt lat="39.259305" lon="-8.647515">
        <ele>7.0</ele>
        <time>2019-05-17T09:22:42.172Z</time>
      </trkpt>
      <trkpt lat="39.259305" lon="-8.647515">
        <ele>7.0</ele>
        <time>2019-05-17T09:22:43.175Z</time>
      </trkpt>
      <trkpt lat="39.259305" lon="-8.647515">
        <ele>7.0</ele>
        <time>2019-05-17T09:22:44.170Z</time>
      </trkpt>
      <trkpt lat="39.259305" lon="-8.647515">
        <ele>7.0</ele>
        <time>2019-05-17T09:22:45.175Z</time>
      </trkpt>
      <trkpt lat="39.259305" lon="-8.647515">
        <ele>7.0</ele>
        <time>2019-05-17T09:22:46.173Z</time>
      </trkpt>
      <trkpt lat="39.259305" lon="-8.647515">
        <ele>7.0</ele>
        <time>2019-05-17T09:22:47.175Z</time>
      </trkpt>
      <trkpt lat="39.259305" lon="-8.647515">
        <ele>7.0</ele>
        <time>2019-05-17T09:22:48.186Z</time>
      </trkpt>
      <trkpt lat="39.259305" lon="-8.647515">
        <ele>7.0</ele>
        <time>2019-05-17T09:22:49.177Z</time>
      </trkpt>
      <trkpt lat="39.259305" lon="-8.647515">
        <ele>7.0</ele>
        <time>2019-05-17T09:22:50.169Z</time>
      </trkpt>
      <trkpt lat="39.259305" lon="-8.647515">
        <ele>7.0</ele>
        <time>2019-05-17T09:22:51.175Z</time>
      </trkpt>
      <trkpt lat="39.259305" lon="-8.647515">
        <ele>7.0</ele>
        <time>2019-05-17T09:22:52.171Z</time>
      </trkpt>
      <trkpt lat="39.259305" lon="-8.647515">
        <ele>7.0</ele>
        <time>2019-05-17T09:22:53.175Z</time>
      </trkpt>
      <trkpt lat="39.259305" lon="-8.647515">
        <ele>7.0</ele>
        <time>2019-05-17T09:22:54.173Z</time>
      </trkpt>
      <trkpt lat="39.259305" lon="-8.647515">
        <ele>7.0</ele>
        <time>2019-05-17T09:22:55.170Z</time>
      </trkpt>
      <trkpt lat="39.259305" lon="-8.647515">
        <ele>7.0</ele>
        <time>2019-05-17T09:22:56.175Z</time>
      </trkpt>
      <trkpt lat="39.259305" lon="-8.647515">
        <ele>7.0</ele>
        <time>2019-05-17T09:22:57.170Z</time>
      </trkpt>
      <trkpt lat="39.25931" lon="-8.64747667">
        <ele>8.0</ele>
        <time>2019-05-17T09:22:58.175Z</time>
      </trkpt>
      <trkpt lat="39.25931" lon="-8.64747667">
        <ele>8.0</ele>
        <time>2019-05-17T09:22:59.171Z</time>
      </trkpt>
      <trkpt lat="39.25933333" lon="-8.64745">
        <ele>8.0</ele>
        <time>2019-05-17T09:23:00.181Z</time>
      </trkpt>
      <trkpt lat="39.25933333" lon="-8.64745">
        <ele>8.0</ele>
        <time>2019-05-17T09:23:01.174Z</time>
      </trkpt>
      <trkpt lat="39.25936333" lon="-8.64741667">
        <ele>8.0</ele>
        <time>2019-05-17T09:23:02.175Z</time>
      </trkpt>
      <trkpt lat="39.25937667" lon="-8.647395">
        <ele>8.0</ele>
        <time>2019-05-17T09:23:03.176Z</time>
      </trkpt>
      <trkpt lat="39.25937667" lon="-8.647395">
        <ele>8.0</ele>
        <time>2019-05-17T09:23:04.171Z</time>
      </trkpt>
      <trkpt lat="39.25940833" lon="-8.64735333">
        <ele>8.0</ele>
        <time>2019-05-17T09:23:05.190Z</time>
      </trkpt>
      <trkpt lat="39.259425" lon="-8.64733167">
        <ele>8.0</ele>
        <time>2019-05-17T09:23:06.179Z</time>
      </trkpt>
      <trkpt lat="39.259425" lon="-8.64733167">
        <ele>8.0</ele>
        <time>2019-05-17T09:23:07.152Z</time>
      </trkpt>
      <trkpt lat="39.25945833" lon="-8.647285">
        <ele>8.0</ele>
        <time>2019-05-17T09:23:08.179Z</time>
      </trkpt>
      <trkpt lat="39.25945833" lon="-8.647285">
        <ele>8.0</ele>
        <time>2019-05-17T09:23:09.172Z</time>
      </trkpt>
      <trkpt lat="39.25949333" lon="-8.64723833">
        <ele>8.0</ele>
        <time>2019-05-17T09:23:10.176Z</time>
      </trkpt>
      <trkpt lat="39.25951" lon="-8.647215">
        <ele>8.0</ele>
        <time>2019-05-17T09:23:11.152Z</time>
      </trkpt>
      <trkpt lat="39.25951" lon="-8.647215">
        <ele>8.0</ele>
        <time>2019-05-17T09:23:12.171Z</time>
      </trkpt>
      <trkpt lat="39.25954167" lon="-8.64717333">
        <ele>8.0</ele>
        <time>2019-05-17T09:23:13.180Z</time>
      </trkpt>
      <trkpt lat="39.25954167" lon="-8.64717333">
        <ele>8.0</ele>
        <time>2019-05-17T09:23:14.174Z</time>
      </trkpt>
      <trkpt lat="39.25957333" lon="-8.64712833">
        <ele>8.0</ele>
        <time>2019-05-17T09:23:15.161Z</time>
      </trkpt>
      <trkpt lat="39.25957333" lon="-8.64712833">
        <ele>8.0</ele>
        <time>2019-05-17T09:23:16.163Z</time>
      </trkpt>
      <trkpt lat="39.25960667" lon="-8.64708667">
        <ele>8.0</ele>
        <time>2019-05-17T09:23:17.173Z</time>
      </trkpt>
      <trkpt lat="39.25960667" lon="-8.64708667">
        <ele>8.0</ele>
        <time>2019-05-17T09:23:18.184Z</time>
      </trkpt>
      <trkpt lat="39.25963833" lon="-8.64704167">
        <ele>8.0</ele>
        <time>2019-05-17T09:23:19.156Z</time>
      </trkpt>
      <trkpt lat="39.259655" lon="-8.64701667">
        <ele>8.0</ele>
        <time>2019-05-17T09:23:20.174Z</time>
      </trkpt>
      <trkpt lat="39.259655" lon="-8.64701667">
        <ele>8.0</ele>
        <time>2019-05-17T09:23:21.185Z</time>
      </trkpt>
      <trkpt lat="39.25969167" lon="-8.646965">
        <ele>8.0</ele>
        <time>2019-05-17T09:23:22.155Z</time>
      </trkpt>
      <trkpt lat="39.25969167" lon="-8.646965">
        <ele>8.0</ele>
        <time>2019-05-17T09:23:23.167Z</time>
      </trkpt>
      <trkpt lat="39.25972667" lon="-8.64691667">
        <ele>8.0</ele>
        <time>2019-05-17T09:23:24.188Z</time>
      </trkpt>
      <trkpt lat="39.25972667" lon="-8.64691667">
        <ele>8.0</ele>
        <time>2019-05-17T09:23:25.162Z</time>
      </trkpt>
      <trkpt lat="39.25975833" lon="-8.64687333">
        <ele>8.0</ele>
        <time>2019-05-17T09:23:26.172Z</time>
      </trkpt>
      <trkpt lat="39.25977667" lon="-8.64685167">
        <ele>8.0</ele>
        <time>2019-05-17T09:23:27.156Z</time>
      </trkpt>
      <trkpt lat="39.25977667" lon="-8.64685167">
        <ele>8.0</ele>
        <time>2019-05-17T09:23:28.166Z</time>
      </trkpt>
      <trkpt lat="39.25981" lon="-8.64680667">
        <ele>8.0</ele>
        <time>2019-05-17T09:23:29.184Z</time>
      </trkpt>
      <trkpt lat="39.25982667" lon="-8.64678333">
        <ele>8.0</ele>
        <time>2019-05-17T09:23:30.176Z</time>
      </trkpt>
      <trkpt lat="39.25982667" lon="-8.64678333">
        <ele>8.0</ele>
        <time>2019-05-17T09:23:31.170Z</time>
      </trkpt>
      <trkpt lat="39.25985833" lon="-8.646735">
        <ele>8.0</ele>
        <time>2019-05-17T09:23:32.178Z</time>
      </trkpt>
      <trkpt lat="39.25987333" lon="-8.64671167">
        <ele>9.0</ele>
        <time>2019-05-17T09:23:33.159Z</time>
      </trkpt>
      <trkpt lat="39.25987333" lon="-8.64671167">
        <ele>9.0</ele>
        <time>2019-05-17T09:23:34.171Z</time>
      </trkpt>
      <trkpt lat="39.25990667" lon="-8.646665">
        <ele>9.0</ele>
        <time>2019-05-17T09:23:35.181Z</time>
      </trkpt>
      <trkpt lat="39.25992167" lon="-8.64664167">
        <ele>9.0</ele>
        <time>2019-05-17T09:23:36.171Z</time>
      </trkpt>
      <trkpt lat="39.25992167" lon="-8.64664167">
        <ele>9.0</ele>
        <time>2019-05-17T09:23:37.153Z</time>
      </trkpt>
      <trkpt lat="39.25995167" lon="-8.64659833">
        <ele>8.0</ele>
        <time>2019-05-17T09:23:38.169Z</time>
      </trkpt>
      <trkpt lat="39.25995167" lon="-8.64659833">
        <ele>8.0</ele>
        <time>2019-05-17T09:23:39.178Z</time>
      </trkpt>
      <trkpt lat="39.25998333" lon="-8.64655167">
        <ele>8.0</ele>
        <time>2019-05-17T09:23:40.150Z</time>
      </trkpt>
      <trkpt lat="39.25998333" lon="-8.64655167">
        <ele>8.0</ele>
        <time>2019-05-17T09:23:41.173Z</time>
      </trkpt>
      <trkpt lat="39.26001667" lon="-8.64650333">
        <ele>8.0</ele>
        <time>2019-05-17T09:23:42.150Z</time>
      </trkpt>
      <trkpt lat="39.26001667" lon="-8.64650333">
        <ele>8.0</ele>
        <time>2019-05-17T09:23:43.167Z</time>
      </trkpt>
      <trkpt lat="39.26005167" lon="-8.64645333">
        <ele>9.0</ele>
        <time>2019-05-17T09:23:44.176Z</time>
      </trkpt>
      <trkpt lat="39.26007167" lon="-8.646425">
        <ele>8.0</ele>
        <time>2019-05-17T09:23:45.155Z</time>
      </trkpt>
      <trkpt lat="39.26007167" lon="-8.646425">
        <ele>8.0</ele>
        <time>2019-05-17T09:23:46.178Z</time>
      </trkpt>
      <trkpt lat="39.26010667" lon="-8.64636667">
        <ele>8.0</ele>
        <time>2019-05-17T09:23:47.150Z</time>
      </trkpt>
      <trkpt lat="39.260125" lon="-8.64634167">
        <ele>8.0</ele>
        <time>2019-05-17T09:23:48.172Z</time>
      </trkpt>
      <trkpt lat="39.260125" lon="-8.64634167">
        <ele>8.0</ele>
        <time>2019-05-17T09:23:49.166Z</time>
      </trkpt>
      <trkpt lat="39.260155" lon="-8.646295">
        <ele>9.0</ele>
        <time>2019-05-17T09:23:50.180Z</time>
      </trkpt>
      <trkpt lat="39.260155" lon="-8.646295">
        <ele>9.0</ele>
        <time>2019-05-17T09:23:51.162Z</time>
      </trkpt>
      <trkpt lat="39.26018667" lon="-8.64625167">
        <ele>9.0</ele>
        <time>2019-05-17T09:23:52.163Z</time>
      </trkpt>
      <trkpt lat="39.260205" lon="-8.64622833">
        <ele>10.0</ele>
        <time>2019-05-17T09:23:53.179Z</time>
      </trkpt>
      <trkpt lat="39.260225" lon="-8.646205">
        <ele>10.0</ele>
        <time>2019-05-17T09:23:54.165Z</time>
      </trkpt>
      <trkpt lat="39.260225" lon="-8.646205">
        <ele>10.0</ele>
        <time>2019-05-17T09:23:55.181Z</time>
      </trkpt>
      <trkpt lat="39.26026167" lon="-8.646155">
        <ele>10.0</ele>
        <time>2019-05-17T09:23:56.189Z</time>
      </trkpt>
      <trkpt lat="39.26026167" lon="-8.646155">
        <ele>10.0</ele>
        <time>2019-05-17T09:23:57.162Z</time>
      </trkpt>
      <trkpt lat="39.2603" lon="-8.646105">
        <ele>10.0</ele>
        <time>2019-05-17T09:23:58.173Z</time>
      </trkpt>
      <trkpt lat="39.26031667" lon="-8.64608">
        <ele>10.0</ele>
        <time>2019-05-17T09:23:59.154Z</time>
      </trkpt>
      <trkpt lat="39.26033333" lon="-8.64605667">
        <ele>10.0</ele>
        <time>2019-05-17T09:24:00.186Z</time>
      </trkpt>
      <trkpt lat="39.26033333" lon="-8.64605667">
        <ele>10.0</ele>
        <time>2019-05-17T09:24:01.154Z</time>
      </trkpt>
      <trkpt lat="39.26036833" lon="-8.64601">
        <ele>10.0</ele>
        <time>2019-05-17T09:24:02.173Z</time>
      </trkpt>
      <trkpt lat="39.26036833" lon="-8.64601">
        <ele>10.0</ele>
        <time>2019-05-17T09:24:03.154Z</time>
      </trkpt>
      <trkpt lat="39.26040333" lon="-8.64596333">
        <ele>10.0</ele>
        <time>2019-05-17T09:24:04.168Z</time>
      </trkpt>
      <trkpt lat="39.26040333" lon="-8.64596333">
        <ele>10.0</ele>
        <time>2019-05-17T09:24:05.151Z</time>
      </trkpt>
      <trkpt lat="39.26043667" lon="-8.64591667">
        <ele>10.0</ele>
        <time>2019-05-17T09:24:06.161Z</time>
      </trkpt>
      <trkpt lat="39.26043667" lon="-8.64591667">
        <ele>10.0</ele>
        <time>2019-05-17T09:24:07.176Z</time>
      </trkpt>
      <trkpt lat="39.26047" lon="-8.64587167">
        <ele>10.0</ele>
        <time>2019-05-17T09:24:08.168Z</time>
      </trkpt>
      <trkpt lat="39.26047" lon="-8.64587167">
        <ele>10.0</ele>
        <time>2019-05-17T09:24:09.158Z</time>
      </trkpt>
      <trkpt lat="39.26050333" lon="-8.645825">
        <ele>10.0</ele>
        <time>2019-05-17T09:24:10.165Z</time>
      </trkpt>
      <trkpt lat="39.26050333" lon="-8.645825">
        <ele>10.0</ele>
        <time>2019-05-17T09:24:11.176Z</time>
      </trkpt>
      <trkpt lat="39.26053833" lon="-8.645775">
        <ele>10.0</ele>
        <time>2019-05-17T09:24:12.185Z</time>
      </trkpt>
      <trkpt lat="39.26053833" lon="-8.645775">
        <ele>10.0</ele>
        <time>2019-05-17T09:24:13.174Z</time>
      </trkpt>
      <trkpt lat="39.26057333" lon="-8.64572">
        <ele>10.0</ele>
        <time>2019-05-17T09:24:14.189Z</time>
      </trkpt>
      <trkpt lat="39.26059167" lon="-8.64569333">
        <ele>10.0</ele>
        <time>2019-05-17T09:24:15.173Z</time>
      </trkpt>
      <trkpt lat="39.26059167" lon="-8.64569333">
        <ele>10.0</ele>
        <time>2019-05-17T09:24:16.183Z</time>
      </trkpt>
      <trkpt lat="39.26063167" lon="-8.64564167">
        <ele>10.0</ele>
        <time>2019-05-17T09:24:17.153Z</time>
      </trkpt>
      <trkpt lat="39.26063167" lon="-8.64564167">
        <ele>10.0</ele>
        <time>2019-05-17T09:24:18.162Z</time>
      </trkpt>
      <trkpt lat="39.26067" lon="-8.64558667">
        <ele>10.0</ele>
        <time>2019-05-17T09:24:19.175Z</time>
      </trkpt>
      <trkpt lat="39.26069" lon="-8.64556">
        <ele>9.0</ele>
        <time>2019-05-17T09:24:20.157Z</time>
      </trkpt>
      <trkpt lat="39.26069" lon="-8.64556">
        <ele>9.0</ele>
        <time>2019-05-17T09:24:21.153Z</time>
      </trkpt>
      <trkpt lat="39.26073" lon="-8.64550667">
        <ele>9.0</ele>
        <time>2019-05-17T09:24:22.170Z</time>
      </trkpt>
      <trkpt lat="39.26073" lon="-8.64550667">
        <ele>9.0</ele>
        <time>2019-05-17T09:24:23.189Z</time>
      </trkpt>
      <trkpt lat="39.26076667" lon="-8.645455">
        <ele>9.0</ele>
        <time>2019-05-17T09:24:24.187Z</time>
      </trkpt>
      <trkpt lat="39.26076667" lon="-8.645455">
        <ele>9.0</ele>
        <time>2019-05-17T09:24:25.186Z</time>
      </trkpt>
      <trkpt lat="39.26080167" lon="-8.64540333">
        <ele>9.0</ele>
        <time>2019-05-17T09:24:26.153Z</time>
      </trkpt>
      <trkpt lat="39.26080167" lon="-8.64540333">
        <ele>9.0</ele>
        <time>2019-05-17T09:24:27.165Z</time>
      </trkpt>
      <trkpt lat="39.26083333" lon="-8.64535833">
        <ele>9.0</ele>
        <time>2019-05-17T09:24:28.175Z</time>
      </trkpt>
      <trkpt lat="39.26083333" lon="-8.64535833">
        <ele>9.0</ele>
        <time>2019-05-17T09:24:29.152Z</time>
      </trkpt>
      <trkpt lat="39.26086167" lon="-8.64531667">
        <ele>9.0</ele>
        <time>2019-05-17T09:24:30.170Z</time>
      </trkpt>
      <trkpt lat="39.26086167" lon="-8.64531667">
        <ele>9.0</ele>
        <time>2019-05-17T09:24:31.158Z</time>
      </trkpt>
      <trkpt lat="39.26088667" lon="-8.645275">
        <ele>9.0</ele>
        <time>2019-05-17T09:24:32.172Z</time>
      </trkpt>
      <trkpt lat="39.2609" lon="-8.64525167">
        <ele>9.0</ele>
        <time>2019-05-17T09:24:33.159Z</time>
      </trkpt>
      <trkpt lat="39.2609" lon="-8.64525167">
        <ele>9.0</ele>
        <time>2019-05-17T09:24:34.176Z</time>
      </trkpt>
      <trkpt lat="39.26092833" lon="-8.64521">
        <ele>9.0</ele>
        <time>2019-05-17T09:24:35.188Z</time>
      </trkpt>
      <trkpt lat="39.26092833" lon="-8.64521">
        <ele>9.0</ele>
        <time>2019-05-17T09:24:36.167Z</time>
      </trkpt>
      <trkpt lat="39.26095833" lon="-8.64516667">
        <ele>9.0</ele>
        <time>2019-05-17T09:24:37.185Z</time>
      </trkpt>
      <trkpt lat="39.26095833" lon="-8.64516667">
        <ele>9.0</ele>
        <time>2019-05-17T09:24:38.167Z</time>
      </trkpt>
      <trkpt lat="39.26099167" lon="-8.64512">
        <ele>9.0</ele>
        <time>2019-05-17T09:24:39.177Z</time>
      </trkpt>
      <trkpt lat="39.261005" lon="-8.64509667">
        <ele>9.0</ele>
        <time>2019-05-17T09:24:40.184Z</time>
      </trkpt>
      <trkpt lat="39.261005" lon="-8.64509667">
        <ele>9.0</ele>
        <time>2019-05-17T09:24:41.161Z</time>
      </trkpt>
      <trkpt lat="39.26103" lon="-8.64505">
        <ele>9.0</ele>
        <time>2019-05-17T09:24:42.173Z</time>
      </trkpt>
      <trkpt lat="39.26103" lon="-8.64505">
        <ele>9.0</ele>
        <time>2019-05-17T09:24:43.187Z</time>
      </trkpt>
      <trkpt lat="39.26106167" lon="-8.64501">
        <ele>9.0</ele>
        <time>2019-05-17T09:24:44.179Z</time>
      </trkpt>
      <trkpt lat="39.26107667" lon="-8.64499">
        <ele>9.0</ele>
        <time>2019-05-17T09:24:45.172Z</time>
      </trkpt>
      <trkpt lat="39.26107667" lon="-8.64499">
        <ele>9.0</ele>
        <time>2019-05-17T09:24:46.180Z</time>
      </trkpt>
      <trkpt lat="39.26110667" lon="-8.64495167">
        <ele>9.0</ele>
        <time>2019-05-17T09:24:47.154Z</time>
      </trkpt>
      <trkpt lat="39.26112333" lon="-8.64493333">
        <ele>9.0</ele>
        <time>2019-05-17T09:24:48.181Z</time>
      </trkpt>
      <trkpt lat="39.26112333" lon="-8.64493333">
        <ele>9.0</ele>
        <time>2019-05-17T09:24:49.188Z</time>
      </trkpt>
      <trkpt lat="39.26115" lon="-8.64489667">
        <ele>9.0</ele>
        <time>2019-05-17T09:24:50.173Z</time>
      </trkpt>
      <trkpt lat="39.26115" lon="-8.64489667">
        <ele>9.0</ele>
        <time>2019-05-17T09:24:51.171Z</time>
      </trkpt>
      <trkpt lat="39.26117667" lon="-8.64485167">
        <ele>9.0</ele>
        <time>2019-05-17T09:24:52.185Z</time>
      </trkpt>
      <trkpt lat="39.26117667" lon="-8.64485167">
        <ele>9.0</ele>
        <time>2019-05-17T09:24:53.172Z</time>
      </trkpt>
      <trkpt lat="39.26120667" lon="-8.64481">
        <ele>9.0</ele>
        <time>2019-05-17T09:24:54.183Z</time>
      </trkpt>
      <trkpt lat="39.26120667" lon="-8.64481">
        <ele>9.0</ele>
        <time>2019-05-17T09:24:55.151Z</time>
      </trkpt>
      <trkpt lat="39.26123333" lon="-8.64476833">
        <ele>9.0</ele>
        <time>2019-05-17T09:24:56.173Z</time>
      </trkpt>
      <trkpt lat="39.26123333" lon="-8.64476833">
        <ele>9.0</ele>
        <time>2019-05-17T09:24:57.150Z</time>
      </trkpt>
      <trkpt lat="39.26126167" lon="-8.644725">
        <ele>9.0</ele>
        <time>2019-05-17T09:24:58.158Z</time>
      </trkpt>
      <trkpt lat="39.261275" lon="-8.644705">
        <ele>9.0</ele>
        <time>2019-05-17T09:24:59.176Z</time>
      </trkpt>
      <trkpt lat="39.26128833" lon="-8.64468333">
        <ele>9.0</ele>
        <time>2019-05-17T09:25:00.172Z</time>
      </trkpt>
      <trkpt lat="39.26128833" lon="-8.64468333">
        <ele>9.0</ele>
        <time>2019-05-17T09:25:01.188Z</time>
      </trkpt>
      <trkpt lat="39.26131667" lon="-8.64463667">
        <ele>9.0</ele>
        <time>2019-05-17T09:25:02.156Z</time>
      </trkpt>
      <trkpt lat="39.26133333" lon="-8.64461333">
        <ele>9.0</ele>
        <time>2019-05-17T09:25:03.182Z</time>
      </trkpt>
      <trkpt lat="39.26134833" lon="-8.64459">
        <ele>9.0</ele>
        <time>2019-05-17T09:25:04.165Z</time>
      </trkpt>
      <trkpt lat="39.26134833" lon="-8.64459">
        <ele>9.0</ele>
        <time>2019-05-17T09:25:05.180Z</time>
      </trkpt>
      <trkpt lat="39.26138" lon="-8.64454167">
        <ele>9.0</ele>
        <time>2019-05-17T09:25:06.189Z</time>
      </trkpt>
      <trkpt lat="39.26138" lon="-8.64454167">
        <ele>9.0</ele>
        <time>2019-05-17T09:25:07.166Z</time>
      </trkpt>
      <trkpt lat="39.26140833" lon="-8.64449333">
        <ele>8.0</ele>
        <time>2019-05-17T09:25:08.151Z</time>
      </trkpt>
      <trkpt lat="39.26140833" lon="-8.64449333">
        <ele>8.0</ele>
        <time>2019-05-17T09:25:09.159Z</time>
      </trkpt>
      <trkpt lat="39.261435" lon="-8.64444">
        <ele>8.0</ele>
        <time>2019-05-17T09:25:10.170Z</time>
      </trkpt>
      <trkpt lat="39.261435" lon="-8.64444">
        <ele>8.0</ele>
        <time>2019-05-17T09:25:11.173Z</time>
      </trkpt>
      <trkpt lat="39.261465" lon="-8.64439">
        <ele>8.0</ele>
        <time>2019-05-17T09:25:12.185Z</time>
      </trkpt>
      <trkpt lat="39.261465" lon="-8.64439">
        <ele>8.0</ele>
        <time>2019-05-17T09:25:13.165Z</time>
      </trkpt>
      <trkpt lat="39.26149833" lon="-8.64434333">
        <ele>8.0</ele>
        <time>2019-05-17T09:25:14.178Z</time>
      </trkpt>
      <trkpt lat="39.26149833" lon="-8.64434333">
        <ele>8.0</ele>
        <time>2019-05-17T09:25:15.162Z</time>
      </trkpt>
      <trkpt lat="39.26153167" lon="-8.64429667">
        <ele>8.0</ele>
        <time>2019-05-17T09:25:16.171Z</time>
      </trkpt>
      <trkpt lat="39.26153167" lon="-8.64429667">
        <ele>8.0</ele>
        <time>2019-05-17T09:25:17.185Z</time>
      </trkpt>
      <trkpt lat="39.26156667" lon="-8.64424167">
        <ele>8.0</ele>
        <time>2019-05-17T09:25:18.155Z</time>
      </trkpt>
      <trkpt lat="39.26156667" lon="-8.64424167">
        <ele>8.0</ele>
        <time>2019-05-17T09:25:19.178Z</time>
      </trkpt>
      <trkpt lat="39.26160167" lon="-8.64419167">
        <ele>8.0</ele>
        <time>2019-05-17T09:25:20.157Z</time>
      </trkpt>
      <trkpt lat="39.26161833" lon="-8.64417">
        <ele>8.0</ele>
        <time>2019-05-17T09:25:21.152Z</time>
      </trkpt>
      <trkpt lat="39.26161833" lon="-8.64417">
        <ele>8.0</ele>
        <time>2019-05-17T09:25:22.178Z</time>
      </trkpt>
      <trkpt lat="39.26165" lon="-8.64412167">
        <ele>8.0</ele>
        <time>2019-05-17T09:25:23.187Z</time>
      </trkpt>
      <trkpt lat="39.261665" lon="-8.64409833">
        <ele>8.0</ele>
        <time>2019-05-17T09:25:24.174Z</time>
      </trkpt>
      <trkpt lat="39.261665" lon="-8.64409833">
        <ele>8.0</ele>
        <time>2019-05-17T09:25:25.154Z</time>
      </trkpt>
      <trkpt lat="39.26169667" lon="-8.64404833">
        <ele>8.0</ele>
        <time>2019-05-17T09:25:26.175Z</time>
      </trkpt>
      <trkpt lat="39.26169667" lon="-8.64404833">
        <ele>8.0</ele>
        <time>2019-05-17T09:25:27.187Z</time>
      </trkpt>
      <trkpt lat="39.26173" lon="-8.64399833">
        <ele>8.0</ele>
        <time>2019-05-17T09:25:28.156Z</time>
      </trkpt>
      <trkpt lat="39.26173" lon="-8.64399833">
        <ele>8.0</ele>
        <time>2019-05-17T09:25:29.152Z</time>
      </trkpt>
      <trkpt lat="39.26176167" lon="-8.64394833">
        <ele>8.0</ele>
        <time>2019-05-17T09:25:30.179Z</time>
      </trkpt>
      <trkpt lat="39.26176167" lon="-8.64394833">
        <ele>8.0</ele>
        <time>2019-05-17T09:25:31.161Z</time>
      </trkpt>
      <trkpt lat="39.26179167" lon="-8.643895">
        <ele>8.0</ele>
        <time>2019-05-17T09:25:32.152Z</time>
      </trkpt>
      <trkpt lat="39.26179167" lon="-8.643895">
        <ele>8.0</ele>
        <time>2019-05-17T09:25:33.188Z</time>
      </trkpt>
      <trkpt lat="39.26182167" lon="-8.64384167">
        <ele>8.0</ele>
        <time>2019-05-17T09:25:34.158Z</time>
      </trkpt>
      <trkpt lat="39.26184" lon="-8.64381833">
        <ele>8.0</ele>
        <time>2019-05-17T09:25:35.183Z</time>
      </trkpt>
      <trkpt lat="39.26185667" lon="-8.64379333">
        <ele>8.0</ele>
        <time>2019-05-17T09:25:36.172Z</time>
      </trkpt>
      <trkpt lat="39.26185667" lon="-8.64379333">
        <ele>8.0</ele>
        <time>2019-05-17T09:25:37.184Z</time>
      </trkpt>
      <trkpt lat="39.26188833" lon="-8.64374333">
        <ele>8.0</ele>
        <time>2019-05-17T09:25:38.151Z</time>
      </trkpt>
      <trkpt lat="39.26188833" lon="-8.64374333">
        <ele>8.0</ele>
        <time>2019-05-17T09:25:39.165Z</time>
      </trkpt>
      <trkpt lat="39.26192333" lon="-8.643695">
        <ele>8.0</ele>
        <time>2019-05-17T09:25:40.178Z</time>
      </trkpt>
      <trkpt lat="39.26192333" lon="-8.643695">
        <ele>8.0</ele>
        <time>2019-05-17T09:25:41.162Z</time>
      </trkpt>
      <trkpt lat="39.26196" lon="-8.64364667">
        <ele>8.0</ele>
        <time>2019-05-17T09:25:42.171Z</time>
      </trkpt>
      <trkpt lat="39.26196" lon="-8.64364667">
        <ele>8.0</ele>
        <time>2019-05-17T09:25:43.162Z</time>
      </trkpt>
      <trkpt lat="39.26199667" lon="-8.64360167">
        <ele>8.0</ele>
        <time>2019-05-17T09:25:44.163Z</time>
      </trkpt>
      <trkpt lat="39.26199667" lon="-8.64360167">
        <ele>8.0</ele>
        <time>2019-05-17T09:25:45.176Z</time>
      </trkpt>
      <trkpt lat="39.26203333" lon="-8.64355333">
        <ele>8.0</ele>
        <time>2019-05-17T09:25:46.188Z</time>
      </trkpt>
      <trkpt lat="39.26203333" lon="-8.64355333">
        <ele>8.0</ele>
        <time>2019-05-17T09:25:47.166Z</time>
      </trkpt>
      <trkpt lat="39.26206833" lon="-8.64350333">
        <ele>8.0</ele>
        <time>2019-05-17T09:25:48.184Z</time>
      </trkpt>
      <trkpt lat="39.26206833" lon="-8.64350333">
        <ele>8.0</ele>
        <time>2019-05-17T09:25:49.152Z</time>
      </trkpt>
      <trkpt lat="39.262105" lon="-8.643455">
        <ele>8.0</ele>
        <time>2019-05-17T09:25:50.154Z</time>
      </trkpt>
      <trkpt lat="39.262105" lon="-8.643455">
        <ele>8.0</ele>
        <time>2019-05-17T09:25:51.175Z</time>
      </trkpt>
      <trkpt lat="39.262135" lon="-8.64341167">
        <ele>8.0</ele>
        <time>2019-05-17T09:25:52.155Z</time>
      </trkpt>
      <trkpt lat="39.262135" lon="-8.64341167">
        <ele>8.0</ele>
        <time>2019-05-17T09:25:53.166Z</time>
      </trkpt>
      <trkpt lat="39.26216167" lon="-8.64336667">
        <ele>8.0</ele>
        <time>2019-05-17T09:25:54.179Z</time>
      </trkpt>
      <trkpt lat="39.26216167" lon="-8.64336667">
        <ele>8.0</ele>
        <time>2019-05-17T09:25:55.157Z</time>
      </trkpt>
      <trkpt lat="39.26219" lon="-8.643335">
        <ele>8.0</ele>
        <time>2019-05-17T09:25:56.169Z</time>
      </trkpt>
      <trkpt lat="39.26219" lon="-8.643335">
        <ele>8.0</ele>
        <time>2019-05-17T09:25:57.178Z</time>
      </trkpt>
      <trkpt lat="39.26219833" lon="-8.643325">
        <ele>8.0</ele>
        <time>2019-05-17T09:25:58.188Z</time>
      </trkpt>
      <trkpt lat="39.26219833" lon="-8.643325">
        <ele>8.0</ele>
        <time>2019-05-17T09:25:59.176Z</time>
      </trkpt>
      <trkpt lat="39.26219667" lon="-8.64332667">
        <ele>8.0</ele>
        <time>2019-05-17T09:26:00.187Z</time>
      </trkpt>
      <trkpt lat="39.26219667" lon="-8.64332667">
        <ele>8.0</ele>
        <time>2019-05-17T09:26:01.171Z</time>
      </trkpt>
      <trkpt lat="39.26219667" lon="-8.64332667">
        <ele>8.0</ele>
        <time>2019-05-17T09:26:02.176Z</time>
      </trkpt>
      <trkpt lat="39.26219667" lon="-8.64332667">
        <ele>8.0</ele>
        <time>2019-05-17T09:26:03.182Z</time>
      </trkpt>
      <trkpt lat="39.26219667" lon="-8.64332667">
        <ele>8.0</ele>
        <time>2019-05-17T09:26:04.189Z</time>
      </trkpt>
      <trkpt lat="39.26219667" lon="-8.64332667">
        <ele>8.0</ele>
        <time>2019-05-17T09:26:05.173Z</time>
      </trkpt>
      <trkpt lat="39.26219667" lon="-8.64332667">
        <ele>8.0</ele>
        <time>2019-05-17T09:26:06.171Z</time>
      </trkpt>
      <trkpt lat="39.26219667" lon="-8.64332667">
        <ele>8.0</ele>
        <time>2019-05-17T09:26:07.188Z</time>
      </trkpt>
      <trkpt lat="39.26219667" lon="-8.64332667">
        <ele>8.0</ele>
        <time>2019-05-17T09:26:08.177Z</time>
      </trkpt>
      <trkpt lat="39.26219667" lon="-8.64332667">
        <ele>8.0</ele>
        <time>2019-05-17T09:26:09.171Z</time>
      </trkpt>
      <trkpt lat="39.26219667" lon="-8.64332667">
        <ele>8.0</ele>
        <time>2019-05-17T09:26:10.188Z</time>
      </trkpt>
      <trkpt lat="39.26219667" lon="-8.64332667">
        <ele>8.0</ele>
        <time>2019-05-17T09:26:11.176Z</time>
      </trkpt>
      <trkpt lat="39.26219667" lon="-8.64332667">
        <ele>8.0</ele>
        <time>2019-05-17T09:26:12.176Z</time>
      </trkpt>
      <trkpt lat="39.26219667" lon="-8.64332667">
        <ele>8.0</ele>
        <time>2019-05-17T09:26:13.170Z</time>
      </trkpt>
      <trkpt lat="39.26219667" lon="-8.64332667">
        <ele>8.0</ele>
        <time>2019-05-17T09:26:14.155Z</time>
      </trkpt>
      <trkpt lat="39.26219667" lon="-8.64332667">
        <ele>8.0</ele>
        <time>2019-05-17T09:26:15.182Z</time>
      </trkpt>
      <trkpt lat="39.26219667" lon="-8.64332667">
        <ele>8.0</ele>
        <time>2019-05-17T09:26:16.176Z</time>
      </trkpt>
      <trkpt lat="39.26219667" lon="-8.64332667">
        <ele>8.0</ele>
        <time>2019-05-17T09:26:17.171Z</time>
      </trkpt>
      <trkpt lat="39.26219667" lon="-8.64332667">
        <ele>8.0</ele>
        <time>2019-05-17T09:26:18.158Z</time>
      </trkpt>
      <trkpt lat="39.26219667" lon="-8.64332667">
        <ele>8.0</ele>
        <time>2019-05-17T09:26:19.187Z</time>
      </trkpt>
      <trkpt lat="39.26219667" lon="-8.64332667">
        <ele>8.0</ele>
        <time>2019-05-17T09:26:20.178Z</time>
      </trkpt>
      <trkpt lat="39.26219667" lon="-8.64332667">
        <ele>8.0</ele>
        <time>2019-05-17T09:26:21.174Z</time>
      </trkpt>
      <trkpt lat="39.26219667" lon="-8.64332667">
        <ele>8.0</ele>
        <time>2019-05-17T09:26:22.171Z</time>
      </trkpt>
      <trkpt lat="39.26219667" lon="-8.64332667">
        <ele>8.0</ele>
        <time>2019-05-17T09:26:23.176Z</time>
      </trkpt>
      <trkpt lat="39.26219667" lon="-8.64332667">
        <ele>8.0</ele>
        <time>2019-05-17T09:26:24.179Z</time>
      </trkpt>
      <trkpt lat="39.26219667" lon="-8.64332667">
        <ele>8.0</ele>
        <time>2019-05-17T09:26:25.177Z</time>
      </trkpt>
      <trkpt lat="39.26219667" lon="-8.64332667">
        <ele>8.0</ele>
        <time>2019-05-17T09:26:26.176Z</time>
      </trkpt>
      <trkpt lat="39.26219667" lon="-8.64332667">
        <ele>8.0</ele>
        <time>2019-05-17T09:26:27.170Z</time>
      </trkpt>
      <trkpt lat="39.26219667" lon="-8.64332667">
        <ele>8.0</ele>
        <time>2019-05-17T09:26:28.155Z</time>
      </trkpt>
      <trkpt lat="39.26219667" lon="-8.64332667">
        <ele>8.0</ele>
        <time>2019-05-17T09:26:29.180Z</time>
      </trkpt>
      <trkpt lat="39.26219667" lon="-8.64332667">
        <ele>8.0</ele>
        <time>2019-05-17T09:26:30.173Z</time>
      </trkpt>
      <trkpt lat="39.26219667" lon="-8.64332667">
        <ele>8.0</ele>
        <time>2019-05-17T09:26:31.175Z</time>
      </trkpt>
      <trkpt lat="39.26219667" lon="-8.64332667">
        <ele>8.0</ele>
        <time>2019-05-17T09:26:32.175Z</time>
      </trkpt>
      <trkpt lat="39.26219667" lon="-8.64332667">
        <ele>8.0</ele>
        <time>2019-05-17T09:26:33.177Z</time>
      </trkpt>
      <trkpt lat="39.26219667" lon="-8.64332667">
        <ele>8.0</ele>
        <time>2019-05-17T09:26:34.173Z</time>
      </trkpt>
      <trkpt lat="39.26219667" lon="-8.64332667">
        <ele>8.0</ele>
        <time>2019-05-17T09:26:35.175Z</time>
      </trkpt>
      <trkpt lat="39.26219667" lon="-8.64332667">
        <ele>8.0</ele>
        <time>2019-05-17T09:26:36.178Z</time>
      </trkpt>
      <trkpt lat="39.26219667" lon="-8.64332667">
        <ele>8.0</ele>
        <time>2019-05-17T09:26:37.171Z</time>
      </trkpt>
      <trkpt lat="39.26219667" lon="-8.64332667">
        <ele>8.0</ele>
        <time>2019-05-17T09:26:38.172Z</time>
      </trkpt>
      <trkpt lat="39.26219667" lon="-8.64332667">
        <ele>8.0</ele>
        <time>2019-05-17T09:26:39.173Z</time>
      </trkpt>
      <trkpt lat="39.26219667" lon="-8.64332667">
        <ele>8.0</ele>
        <time>2019-05-17T09:26:40.176Z</time>
      </trkpt>
      <trkpt lat="39.26219667" lon="-8.64332667">
        <ele>8.0</ele>
        <time>2019-05-17T09:26:41.171Z</time>
      </trkpt>
      <trkpt lat="39.26219667" lon="-8.64332667">
        <ele>8.0</ele>
        <time>2019-05-17T09:26:42.178Z</time>
      </trkpt>
      <trkpt lat="39.26219667" lon="-8.64332667">
        <ele>8.0</ele>
        <time>2019-05-17T09:26:43.170Z</time>
      </trkpt>
      <trkpt lat="39.26219667" lon="-8.64332667">
        <ele>8.0</ele>
        <time>2019-05-17T09:26:44.175Z</time>
      </trkpt>
      <trkpt lat="39.26219667" lon="-8.64332667">
        <ele>8.0</ele>
        <time>2019-05-17T09:26:45.171Z</time>
      </trkpt>
      <trkpt lat="39.26219667" lon="-8.64332667">
        <ele>8.0</ele>
        <time>2019-05-17T09:26:46.176Z</time>
      </trkpt>
      <trkpt lat="39.26219667" lon="-8.64332667">
        <ele>8.0</ele>
        <time>2019-05-17T09:26:47.170Z</time>
      </trkpt>
      <trkpt lat="39.26219667" lon="-8.64332667">
        <ele>8.0</ele>
        <time>2019-05-17T09:26:48.157Z</time>
      </trkpt>
      <trkpt lat="39.26219667" lon="-8.64332667">
        <ele>8.0</ele>
        <time>2019-05-17T09:26:49.150Z</time>
      </trkpt>
      <trkpt lat="39.26219667" lon="-8.64332667">
        <ele>8.0</ele>
        <time>2019-05-17T09:26:50.176Z</time>
      </trkpt>
      <trkpt lat="39.26219667" lon="-8.64332667">
        <ele>8.0</ele>
        <time>2019-05-17T09:26:51.170Z</time>
      </trkpt>
      <trkpt lat="39.26219667" lon="-8.64332667">
        <ele>8.0</ele>
        <time>2019-05-17T09:26:52.175Z</time>
      </trkpt>
      <trkpt lat="39.26219667" lon="-8.64332667">
        <ele>8.0</ele>
        <time>2019-05-17T09:26:53.171Z</time>
      </trkpt>
      <trkpt lat="39.26219667" lon="-8.64332667">
        <ele>8.0</ele>
        <time>2019-05-17T09:26:54.157Z</time>
      </trkpt>
      <trkpt lat="39.26219667" lon="-8.64332667">
        <ele>8.0</ele>
        <time>2019-05-17T09:26:55.157Z</time>
      </trkpt>
      <trkpt lat="39.26219667" lon="-8.64332667">
        <ele>8.0</ele>
        <time>2019-05-17T09:26:56.182Z</time>
      </trkpt>
      <trkpt lat="39.26219667" lon="-8.64332667">
        <ele>8.0</ele>
        <time>2019-05-17T09:26:57.171Z</time>
      </trkpt>
      <trkpt lat="39.26219667" lon="-8.64332667">
        <ele>8.0</ele>
        <time>2019-05-17T09:26:58.173Z</time>
      </trkpt>
      <trkpt lat="39.26219667" lon="-8.64332667">
        <ele>8.0</ele>
        <time>2019-05-17T09:26:59.173Z</time>
      </trkpt>
      <trkpt lat="39.26219667" lon="-8.64332667">
        <ele>8.0</ele>
        <time>2019-05-17T09:27:00.181Z</time>
      </trkpt>
      <trkpt lat="39.26219667" lon="-8.64332667">
        <ele>8.0</ele>
        <time>2019-05-17T09:27:01.173Z</time>
      </trkpt>
      <trkpt lat="39.26219667" lon="-8.64332667">
        <ele>8.0</ele>
        <time>2019-05-17T09:27:02.176Z</time>
      </trkpt>
      <trkpt lat="39.26219667" lon="-8.64332667">
        <ele>8.0</ele>
        <time>2019-05-17T09:27:03.176Z</time>
      </trkpt>
      <trkpt lat="39.26219667" lon="-8.64332667">
        <ele>8.0</ele>
        <time>2019-05-17T09:27:04.171Z</time>
      </trkpt>
      <trkpt lat="39.26219667" lon="-8.64332667">
        <ele>8.0</ele>
        <time>2019-05-17T09:27:05.175Z</time>
      </trkpt>
      <trkpt lat="39.26219667" lon="-8.64332667">
        <ele>8.0</ele>
        <time>2019-05-17T09:27:06.178Z</time>
      </trkpt>
      <trkpt lat="39.26219667" lon="-8.64332667">
        <ele>8.0</ele>
        <time>2019-05-17T09:27:07.177Z</time>
      </trkpt>
      <trkpt lat="39.26219667" lon="-8.64332667">
        <ele>8.0</ele>
        <time>2019-05-17T09:27:08.171Z</time>
      </trkpt>
      <trkpt lat="39.26219667" lon="-8.64332667">
        <ele>8.0</ele>
        <time>2019-05-17T09:27:09.176Z</time>
      </trkpt>
      <trkpt lat="39.26219667" lon="-8.64332667">
        <ele>8.0</ele>
        <time>2019-05-17T09:27:10.169Z</time>
      </trkpt>
      <trkpt lat="39.26219667" lon="-8.64332667">
        <ele>8.0</ele>
        <time>2019-05-17T09:27:11.155Z</time>
      </trkpt>
      <trkpt lat="39.26219667" lon="-8.64332667">
        <ele>8.0</ele>
        <time>2019-05-17T09:27:12.150Z</time>
      </trkpt>
      <trkpt lat="39.26219667" lon="-8.64332667">
        <ele>8.0</ele>
        <time>2019-05-17T09:27:13.170Z</time>
      </trkpt>
      <trkpt lat="39.26219667" lon="-8.64332667">
        <ele>8.0</ele>
        <time>2019-05-17T09:27:14.176Z</time>
      </trkpt>
      <trkpt lat="39.26219667" lon="-8.64332667">
        <ele>8.0</ele>
        <time>2019-05-17T09:27:15.171Z</time>
      </trkpt>
      <trkpt lat="39.26219667" lon="-8.64332667">
        <ele>8.0</ele>
        <time>2019-05-17T09:27:16.173Z</time>
      </trkpt>
      <trkpt lat="39.26219667" lon="-8.64332667">
        <ele>8.0</ele>
        <time>2019-05-17T09:27:17.176Z</time>
      </trkpt>
      <trkpt lat="39.26219667" lon="-8.64332667">
        <ele>8.0</ele>
        <time>2019-05-17T09:27:18.178Z</time>
      </trkpt>
      <trkpt lat="39.26219667" lon="-8.64332667">
        <ele>8.0</ele>
        <time>2019-05-17T09:27:19.171Z</time>
      </trkpt>
      <trkpt lat="39.26219667" lon="-8.64332667">
        <ele>8.0</ele>
        <time>2019-05-17T09:27:20.174Z</time>
      </trkpt>
      <trkpt lat="39.26219667" lon="-8.64332667">
        <ele>8.0</ele>
        <time>2019-05-17T09:27:21.173Z</time>
      </trkpt>
      <trkpt lat="39.26219667" lon="-8.64332667">
        <ele>8.0</ele>
        <time>2019-05-17T09:27:22.175Z</time>
      </trkpt>
      <trkpt lat="39.26219667" lon="-8.64332667">
        <ele>8.0</ele>
        <time>2019-05-17T09:27:23.171Z</time>
      </trkpt>
      <trkpt lat="39.26219667" lon="-8.64332667">
        <ele>8.0</ele>
        <time>2019-05-17T09:27:24.157Z</time>
      </trkpt>
      <trkpt lat="39.26219667" lon="-8.64332667">
        <ele>8.0</ele>
        <time>2019-05-17T09:27:25.177Z</time>
      </trkpt>
      <trkpt lat="39.26219667" lon="-8.64332667">
        <ele>8.0</ele>
        <time>2019-05-17T09:27:26.176Z</time>
      </trkpt>
      <trkpt lat="39.26219667" lon="-8.64332667">
        <ele>8.0</ele>
        <time>2019-05-17T09:27:27.171Z</time>
      </trkpt>
      <trkpt lat="39.26219667" lon="-8.64332667">
        <ele>8.0</ele>
        <time>2019-05-17T09:27:28.175Z</time>
      </trkpt>
      <trkpt lat="39.26219667" lon="-8.64332667">
        <ele>8.0</ele>
        <time>2019-05-17T09:27:29.174Z</time>
      </trkpt>
      <trkpt lat="39.26219667" lon="-8.64332667">
        <ele>8.0</ele>
        <time>2019-05-17T09:27:30.178Z</time>
      </trkpt>
      <trkpt lat="39.26219667" lon="-8.64332667">
        <ele>8.0</ele>
        <time>2019-05-17T09:27:31.170Z</time>
      </trkpt>
      <trkpt lat="39.26219667" lon="-8.64332667">
        <ele>8.0</ele>
        <time>2019-05-17T09:27:32.175Z</time>
      </trkpt>
      <trkpt lat="39.26219667" lon="-8.64332667">
        <ele>8.0</ele>
        <time>2019-05-17T09:27:33.171Z</time>
      </trkpt>
      <trkpt lat="39.26219667" lon="-8.64332667">
        <ele>8.0</ele>
        <time>2019-05-17T09:27:34.155Z</time>
      </trkpt>
      <trkpt lat="39.26219667" lon="-8.64332667">
        <ele>8.0</ele>
        <time>2019-05-17T09:27:35.179Z</time>
      </trkpt>
      <trkpt lat="39.262215" lon="-8.64331333">
        <ele>7.0</ele>
        <time>2019-05-17T09:27:36.179Z</time>
      </trkpt>
      <trkpt lat="39.262215" lon="-8.64331333">
        <ele>7.0</ele>
        <time>2019-05-17T09:27:37.171Z</time>
      </trkpt>
      <trkpt lat="39.26224" lon="-8.64328333">
        <ele>7.0</ele>
        <time>2019-05-17T09:27:38.156Z</time>
      </trkpt>
      <trkpt lat="39.26224" lon="-8.64328333">
        <ele>7.0</ele>
        <time>2019-05-17T09:27:39.180Z</time>
      </trkpt>
      <trkpt lat="39.26227167" lon="-8.643245">
        <ele>8.0</ele>
        <time>2019-05-17T09:27:40.176Z</time>
      </trkpt>
      <trkpt lat="39.26227167" lon="-8.643245">
        <ele>8.0</ele>
        <time>2019-05-17T09:27:41.171Z</time>
      </trkpt>
      <trkpt lat="39.262305" lon="-8.643195">
        <ele>8.0</ele>
        <time>2019-05-17T09:27:42.151Z</time>
      </trkpt>
      <trkpt lat="39.262305" lon="-8.643195">
        <ele>8.0</ele>
        <time>2019-05-17T09:27:43.174Z</time>
      </trkpt>
      <trkpt lat="39.26234" lon="-8.64313833">
        <ele>8.0</ele>
        <time>2019-05-17T09:27:44.192Z</time>
      </trkpt>
      <trkpt lat="39.26234" lon="-8.64313833">
        <ele>8.0</ele>
        <time>2019-05-17T09:27:45.170Z</time>
      </trkpt>
      <trkpt lat="39.26237167" lon="-8.64308667">
        <ele>8.0</ele>
        <time>2019-05-17T09:27:46.181Z</time>
      </trkpt>
      <trkpt lat="39.26237167" lon="-8.64308667">
        <ele>8.0</ele>
        <time>2019-05-17T09:27:47.173Z</time>
      </trkpt>
      <trkpt lat="39.26240667" lon="-8.64303667">
        <ele>8.0</ele>
        <time>2019-05-17T09:27:48.182Z</time>
      </trkpt>
      <trkpt lat="39.26240667" lon="-8.64303667">
        <ele>8.0</ele>
        <time>2019-05-17T09:27:49.156Z</time>
      </trkpt>
      <trkpt lat="39.262445" lon="-8.64298167">
        <ele>7.0</ele>
        <time>2019-05-17T09:27:50.166Z</time>
      </trkpt>
      <trkpt lat="39.262445" lon="-8.64298167">
        <ele>7.0</ele>
        <time>2019-05-17T09:27:51.154Z</time>
      </trkpt>
      <trkpt lat="39.26248667" lon="-8.64293">
        <ele>7.0</ele>
        <time>2019-05-17T09:27:52.165Z</time>
      </trkpt>
      <trkpt lat="39.26248667" lon="-8.64293">
        <ele>7.0</ele>
        <time>2019-05-17T09:27:53.179Z</time>
      </trkpt>
      <trkpt lat="39.26252667" lon="-8.64287">
        <ele>7.0</ele>
        <time>2019-05-17T09:27:54.156Z</time>
      </trkpt>
      <trkpt lat="39.26252667" lon="-8.64287">
        <ele>7.0</ele>
        <time>2019-05-17T09:27:55.179Z</time>
      </trkpt>
      <trkpt lat="39.26256833" lon="-8.64281167">
        <ele>7.0</ele>
        <time>2019-05-17T09:27:56.189Z</time>
      </trkpt>
      <trkpt lat="39.26256833" lon="-8.64281167">
        <ele>7.0</ele>
        <time>2019-05-17T09:27:57.165Z</time>
      </trkpt>
      <trkpt lat="39.26260833" lon="-8.64275">
        <ele>7.0</ele>
        <time>2019-05-17T09:27:58.174Z</time>
      </trkpt>
      <trkpt lat="39.26260833" lon="-8.64275">
        <ele>7.0</ele>
        <time>2019-05-17T09:27:59.190Z</time>
      </trkpt>
      <trkpt lat="39.26264667" lon="-8.642695">
        <ele>7.0</ele>
        <time>2019-05-17T09:28:00.162Z</time>
      </trkpt>
      <trkpt lat="39.26264667" lon="-8.642695">
        <ele>7.0</ele>
        <time>2019-05-17T09:28:01.177Z</time>
      </trkpt>
      <trkpt lat="39.26267333" lon="-8.64265167">
        <ele>7.0</ele>
        <time>2019-05-17T09:28:02.185Z</time>
      </trkpt>
      <trkpt lat="39.26267333" lon="-8.64265167">
        <ele>7.0</ele>
        <time>2019-05-17T09:28:03.174Z</time>
      </trkpt>
      <trkpt lat="39.26269667" lon="-8.64260667">
        <ele>7.0</ele>
        <time>2019-05-17T09:28:04.189Z</time>
      </trkpt>
      <trkpt lat="39.26269667" lon="-8.64260667">
        <ele>7.0</ele>
        <time>2019-05-17T09:28:05.165Z</time>
      </trkpt>
      <trkpt lat="39.26273667" lon="-8.64255333">
        <ele>7.0</ele>
        <time>2019-05-17T09:28:06.177Z</time>
      </trkpt>
      <trkpt lat="39.26273667" lon="-8.64255333">
        <ele>7.0</ele>
        <time>2019-05-17T09:28:07.152Z</time>
      </trkpt>
      <trkpt lat="39.26277667" lon="-8.642495">
        <ele>7.0</ele>
        <time>2019-05-17T09:28:08.164Z</time>
      </trkpt>
      <trkpt lat="39.26277667" lon="-8.642495">
        <ele>7.0</ele>
        <time>2019-05-17T09:28:09.186Z</time>
      </trkpt>
      <trkpt lat="39.262815" lon="-8.64244">
        <ele>7.0</ele>
        <time>2019-05-17T09:28:10.165Z</time>
      </trkpt>
      <trkpt lat="39.262815" lon="-8.64244">
        <ele>7.0</ele>
        <time>2019-05-17T09:28:11.188Z</time>
      </trkpt>
      <trkpt lat="39.26284667" lon="-8.64239">
        <ele>7.0</ele>
        <time>2019-05-17T09:28:12.165Z</time>
      </trkpt>
      <trkpt lat="39.26284667" lon="-8.64239">
        <ele>7.0</ele>
        <time>2019-05-17T09:28:13.174Z</time>
      </trkpt>
      <trkpt lat="39.26287833" lon="-8.64233833">
        <ele>7.0</ele>
        <time>2019-05-17T09:28:14.184Z</time>
      </trkpt>
      <trkpt lat="39.262895" lon="-8.64231333">
        <ele>7.0</ele>
        <time>2019-05-17T09:28:15.176Z</time>
      </trkpt>
      <trkpt lat="39.262895" lon="-8.64231333">
        <ele>7.0</ele>
        <time>2019-05-17T09:28:16.182Z</time>
      </trkpt>
      <trkpt lat="39.26293" lon="-8.64226333">
        <ele>7.0</ele>
        <time>2019-05-17T09:28:17.154Z</time>
      </trkpt>
      <trkpt lat="39.26294833" lon="-8.64223833">
        <ele>7.0</ele>
        <time>2019-05-17T09:28:18.176Z</time>
      </trkpt>
      <trkpt lat="39.26294833" lon="-8.64223833">
        <ele>7.0</ele>
        <time>2019-05-17T09:28:19.187Z</time>
      </trkpt>
      <trkpt lat="39.26299" lon="-8.64218667">
        <ele>7.0</ele>
        <time>2019-05-17T09:28:20.158Z</time>
      </trkpt>
      <trkpt lat="39.26299" lon="-8.64218667">
        <ele>7.0</ele>
        <time>2019-05-17T09:28:21.179Z</time>
      </trkpt>
      <trkpt lat="39.26303" lon="-8.64213167">
        <ele>7.0</ele>
        <time>2019-05-17T09:28:22.154Z</time>
      </trkpt>
      <trkpt lat="39.26303" lon="-8.64213167">
        <ele>7.0</ele>
        <time>2019-05-17T09:28:23.165Z</time>
      </trkpt>
      <trkpt lat="39.26307" lon="-8.64207333">
        <ele>7.0</ele>
        <time>2019-05-17T09:28:24.183Z</time>
      </trkpt>
      <trkpt lat="39.26307" lon="-8.64207333">
        <ele>7.0</ele>
        <time>2019-05-17T09:28:25.159Z</time>
      </trkpt>
      <trkpt lat="39.263105" lon="-8.64201667">
        <ele>7.0</ele>
        <time>2019-05-17T09:28:26.172Z</time>
      </trkpt>
      <trkpt lat="39.263105" lon="-8.64201667">
        <ele>7.0</ele>
        <time>2019-05-17T09:28:27.151Z</time>
      </trkpt>
      <trkpt lat="39.26314167" lon="-8.64196">
        <ele>7.0</ele>
        <time>2019-05-17T09:28:28.170Z</time>
      </trkpt>
      <trkpt lat="39.26314167" lon="-8.64196">
        <ele>7.0</ele>
        <time>2019-05-17T09:28:29.163Z</time>
      </trkpt>
      <trkpt lat="39.26318167" lon="-8.64190167">
        <ele>7.0</ele>
        <time>2019-05-17T09:28:30.176Z</time>
      </trkpt>
      <trkpt lat="39.26318167" lon="-8.64190167">
        <ele>7.0</ele>
        <time>2019-05-17T09:28:31.150Z</time>
      </trkpt>
      <trkpt lat="39.26322333" lon="-8.64184167">
        <ele>7.0</ele>
        <time>2019-05-17T09:28:32.162Z</time>
      </trkpt>
      <trkpt lat="39.26322333" lon="-8.64184167">
        <ele>7.0</ele>
        <time>2019-05-17T09:28:33.151Z</time>
      </trkpt>
      <trkpt lat="39.26326833" lon="-8.64179333">
        <ele>7.0</ele>
        <time>2019-05-17T09:28:34.160Z</time>
      </trkpt>
      <trkpt lat="39.26326833" lon="-8.64179333">
        <ele>7.0</ele>
        <time>2019-05-17T09:28:35.155Z</time>
      </trkpt>
      <trkpt lat="39.26330833" lon="-8.64174">
        <ele>7.0</ele>
        <time>2019-05-17T09:28:36.157Z</time>
      </trkpt>
      <trkpt lat="39.26330833" lon="-8.64174">
        <ele>7.0</ele>
        <time>2019-05-17T09:28:37.175Z</time>
      </trkpt>
      <trkpt lat="39.26335333" lon="-8.64168333">
        <ele>7.0</ele>
        <time>2019-05-17T09:28:38.190Z</time>
      </trkpt>
      <trkpt lat="39.26335333" lon="-8.64168333">
        <ele>7.0</ele>
        <time>2019-05-17T09:28:39.156Z</time>
      </trkpt>
      <trkpt lat="39.26339333" lon="-8.64163167">
        <ele>7.0</ele>
        <time>2019-05-17T09:28:40.165Z</time>
      </trkpt>
      <trkpt lat="39.26341167" lon="-8.64160333">
        <ele>7.0</ele>
        <time>2019-05-17T09:28:41.162Z</time>
      </trkpt>
      <trkpt lat="39.26343167" lon="-8.641575">
        <ele>7.0</ele>
        <time>2019-05-17T09:28:42.176Z</time>
      </trkpt>
      <trkpt lat="39.26343167" lon="-8.641575">
        <ele>7.0</ele>
        <time>2019-05-17T09:28:43.152Z</time>
      </trkpt>
      <trkpt lat="39.26347667" lon="-8.64152">
        <ele>7.0</ele>
        <time>2019-05-17T09:28:44.166Z</time>
      </trkpt>
      <trkpt lat="39.26347667" lon="-8.64152">
        <ele>7.0</ele>
        <time>2019-05-17T09:28:45.185Z</time>
      </trkpt>
      <trkpt lat="39.26352167" lon="-8.641465">
        <ele>7.0</ele>
        <time>2019-05-17T09:28:46.161Z</time>
      </trkpt>
      <trkpt lat="39.26354667" lon="-8.64144">
        <ele>7.0</ele>
        <time>2019-05-17T09:28:47.161Z</time>
      </trkpt>
      <trkpt lat="39.26356833" lon="-8.64141167">
        <ele>7.0</ele>
        <time>2019-05-17T09:28:48.180Z</time>
      </trkpt>
      <trkpt lat="39.26356833" lon="-8.64141167">
        <ele>7.0</ele>
        <time>2019-05-17T09:28:49.155Z</time>
      </trkpt>
      <trkpt lat="39.26361167" lon="-8.64135667">
        <ele>7.0</ele>
        <time>2019-05-17T09:28:50.175Z</time>
      </trkpt>
      <trkpt lat="39.26361167" lon="-8.64135667">
        <ele>7.0</ele>
        <time>2019-05-17T09:28:51.163Z</time>
      </trkpt>
      <trkpt lat="39.26364833" lon="-8.6413">
        <ele>7.0</ele>
        <time>2019-05-17T09:28:52.181Z</time>
      </trkpt>
      <trkpt lat="39.26364833" lon="-8.6413">
        <ele>7.0</ele>
        <time>2019-05-17T09:28:53.155Z</time>
      </trkpt>
      <trkpt lat="39.26368167" lon="-8.64125">
        <ele>7.0</ele>
        <time>2019-05-17T09:28:54.174Z</time>
      </trkpt>
      <trkpt lat="39.26368167" lon="-8.64125">
        <ele>7.0</ele>
        <time>2019-05-17T09:28:55.189Z</time>
      </trkpt>
      <trkpt lat="39.26371" lon="-8.64120333">
        <ele>7.0</ele>
        <time>2019-05-17T09:28:56.157Z</time>
      </trkpt>
      <trkpt lat="39.26371" lon="-8.64120333">
        <ele>7.0</ele>
        <time>2019-05-17T09:28:57.174Z</time>
      </trkpt>
      <trkpt lat="39.26374333" lon="-8.64115833">
        <ele>8.0</ele>
        <time>2019-05-17T09:28:58.184Z</time>
      </trkpt>
      <trkpt lat="39.26374333" lon="-8.64115833">
        <ele>8.0</ele>
        <time>2019-05-17T09:28:59.153Z</time>
      </trkpt>
      <trkpt lat="39.26377333" lon="-8.64111167">
        <ele>8.0</ele>
        <time>2019-05-17T09:29:00.166Z</time>
      </trkpt>
      <trkpt lat="39.26377333" lon="-8.64111167">
        <ele>8.0</ele>
        <time>2019-05-17T09:29:01.188Z</time>
      </trkpt>
      <trkpt lat="39.263805" lon="-8.64106167">
        <ele>8.0</ele>
        <time>2019-05-17T09:29:02.164Z</time>
      </trkpt>
      <trkpt lat="39.263805" lon="-8.64106167">
        <ele>8.0</ele>
        <time>2019-05-17T09:29:03.157Z</time>
      </trkpt>
      <trkpt lat="39.26384167" lon="-8.64101">
        <ele>8.0</ele>
        <time>2019-05-17T09:29:04.169Z</time>
      </trkpt>
      <trkpt lat="39.26386167" lon="-8.64098333">
        <ele>8.0</ele>
        <time>2019-05-17T09:29:05.164Z</time>
      </trkpt>
      <trkpt lat="39.26388333" lon="-8.64095833">
        <ele>8.0</ele>
        <time>2019-05-17T09:29:06.169Z</time>
      </trkpt>
      <trkpt lat="39.26388333" lon="-8.64095833">
        <ele>8.0</ele>
        <time>2019-05-17T09:29:07.182Z</time>
      </trkpt>
      <trkpt lat="39.26392333" lon="-8.64090833">
        <ele>8.0</ele>
        <time>2019-05-17T09:29:08.152Z</time>
      </trkpt>
      <trkpt lat="39.26392333" lon="-8.64090833">
        <ele>8.0</ele>
        <time>2019-05-17T09:29:09.179Z</time>
      </trkpt>
      <trkpt lat="39.26396667" lon="-8.64086167">
        <ele>8.0</ele>
        <time>2019-05-17T09:29:10.179Z</time>
      </trkpt>
      <trkpt lat="39.26396667" lon="-8.64086167">
        <ele>8.0</ele>
        <time>2019-05-17T09:29:11.163Z</time>
      </trkpt>
      <trkpt lat="39.26400833" lon="-8.64081667">
        <ele>8.0</ele>
        <time>2019-05-17T09:29:12.175Z</time>
      </trkpt>
      <trkpt lat="39.26400833" lon="-8.64081667">
        <ele>8.0</ele>
        <time>2019-05-17T09:29:13.184Z</time>
      </trkpt>
      <trkpt lat="39.26405167" lon="-8.64077333">
        <ele>7.0</ele>
        <time>2019-05-17T09:29:14.169Z</time>
      </trkpt>
      <trkpt lat="39.26405167" lon="-8.64077333">
        <ele>7.0</ele>
        <time>2019-05-17T09:29:15.170Z</time>
      </trkpt>
      <trkpt lat="39.26409167" lon="-8.64072667">
        <ele>8.0</ele>
        <time>2019-05-17T09:29:16.185Z</time>
      </trkpt>
      <trkpt lat="39.26409167" lon="-8.64072667">
        <ele>8.0</ele>
        <time>2019-05-17T09:29:17.157Z</time>
      </trkpt>
      <trkpt lat="39.26413333" lon="-8.640675">
        <ele>8.0</ele>
        <time>2019-05-17T09:29:18.174Z</time>
      </trkpt>
      <trkpt lat="39.26413333" lon="-8.640675">
        <ele>8.0</ele>
        <time>2019-05-17T09:29:19.164Z</time>
      </trkpt>
      <trkpt lat="39.264175" lon="-8.64062833">
        <ele>7.0</ele>
        <time>2019-05-17T09:29:20.184Z</time>
      </trkpt>
      <trkpt lat="39.264175" lon="-8.64062833">
        <ele>7.0</ele>
        <time>2019-05-17T09:29:21.159Z</time>
      </trkpt>
      <trkpt lat="39.26421833" lon="-8.64058333">
        <ele>7.0</ele>
        <time>2019-05-17T09:29:22.181Z</time>
      </trkpt>
      <trkpt lat="39.26421833" lon="-8.64058333">
        <ele>7.0</ele>
        <time>2019-05-17T09:29:23.163Z</time>
      </trkpt>
      <trkpt lat="39.26426" lon="-8.64053667">
        <ele>7.0</ele>
        <time>2019-05-17T09:29:24.174Z</time>
      </trkpt>
      <trkpt lat="39.26426" lon="-8.64053667">
        <ele>7.0</ele>
        <time>2019-05-17T09:29:25.155Z</time>
      </trkpt>
      <trkpt lat="39.26429833" lon="-8.64048167">
        <ele>7.0</ele>
        <time>2019-05-17T09:29:26.168Z</time>
      </trkpt>
      <trkpt lat="39.26429833" lon="-8.64048167">
        <ele>7.0</ele>
        <time>2019-05-17T09:29:27.153Z</time>
      </trkpt>
      <trkpt lat="39.26434333" lon="-8.64043333">
        <ele>7.0</ele>
        <time>2019-05-17T09:29:28.172Z</time>
      </trkpt>
      <trkpt lat="39.26434333" lon="-8.64043333">
        <ele>7.0</ele>
        <time>2019-05-17T09:29:29.187Z</time>
      </trkpt>
      <trkpt lat="39.264385" lon="-8.64038333">
        <ele>7.0</ele>
        <time>2019-05-17T09:29:30.217Z</time>
      </trkpt>
      <trkpt lat="39.264385" lon="-8.64038333">
        <ele>7.0</ele>
        <time>2019-05-17T09:29:31.154Z</time>
      </trkpt>
      <trkpt lat="39.26442833" lon="-8.64034167">
        <ele>7.0</ele>
        <time>2019-05-17T09:29:32.167Z</time>
      </trkpt>
      <trkpt lat="39.26442833" lon="-8.64034167">
        <ele>7.0</ele>
        <time>2019-05-17T09:29:33.181Z</time>
      </trkpt>
      <trkpt lat="39.26447" lon="-8.640295">
        <ele>7.0</ele>
        <time>2019-05-17T09:29:34.155Z</time>
      </trkpt>
      <trkpt lat="39.26447" lon="-8.640295">
        <ele>7.0</ele>
        <time>2019-05-17T09:29:35.173Z</time>
      </trkpt>
      <trkpt lat="39.26451" lon="-8.64024667">
        <ele>7.0</ele>
        <time>2019-05-17T09:29:36.168Z</time>
      </trkpt>
      <trkpt lat="39.26451" lon="-8.64024667">
        <ele>7.0</ele>
        <time>2019-05-17T09:29:37.153Z</time>
      </trkpt>
      <trkpt lat="39.26455333" lon="-8.64020667">
        <ele>7.0</ele>
        <time>2019-05-17T09:29:38.176Z</time>
      </trkpt>
      <trkpt lat="39.26455333" lon="-8.64020667">
        <ele>7.0</ele>
        <time>2019-05-17T09:29:39.188Z</time>
      </trkpt>
      <trkpt lat="39.26459833" lon="-8.64017">
        <ele>7.0</ele>
        <time>2019-05-17T09:29:40.158Z</time>
      </trkpt>
      <trkpt lat="39.26459833" lon="-8.64017">
        <ele>7.0</ele>
        <time>2019-05-17T09:29:41.170Z</time>
      </trkpt>
      <trkpt lat="39.264645" lon="-8.64013333">
        <ele>7.0</ele>
        <time>2019-05-17T09:29:42.184Z</time>
      </trkpt>
      <trkpt lat="39.264645" lon="-8.64013333">
        <ele>7.0</ele>
        <time>2019-05-17T09:29:43.153Z</time>
      </trkpt>
      <trkpt lat="39.26469" lon="-8.64009667">
        <ele>7.0</ele>
        <time>2019-05-17T09:29:44.177Z</time>
      </trkpt>
      <trkpt lat="39.26469" lon="-8.64009667">
        <ele>7.0</ele>
        <time>2019-05-17T09:29:45.189Z</time>
      </trkpt>
      <trkpt lat="39.264735" lon="-8.640065">
        <ele>7.0</ele>
        <time>2019-05-17T09:29:46.161Z</time>
      </trkpt>
      <trkpt lat="39.264735" lon="-8.640065">
        <ele>7.0</ele>
        <time>2019-05-17T09:29:47.168Z</time>
      </trkpt>
      <trkpt lat="39.26478333" lon="-8.640035">
        <ele>7.0</ele>
        <time>2019-05-17T09:29:48.184Z</time>
      </trkpt>
      <trkpt lat="39.26478333" lon="-8.640035">
        <ele>7.0</ele>
        <time>2019-05-17T09:29:49.164Z</time>
      </trkpt>
      <trkpt lat="39.26483" lon="-8.63999667">
        <ele>6.0</ele>
        <time>2019-05-17T09:29:50.178Z</time>
      </trkpt>
      <trkpt lat="39.264855" lon="-8.63997833">
        <ele>6.0</ele>
        <time>2019-05-17T09:29:51.177Z</time>
      </trkpt>
      <trkpt lat="39.264855" lon="-8.63997833">
        <ele>6.0</ele>
        <time>2019-05-17T09:29:52.159Z</time>
      </trkpt>
      <trkpt lat="39.26490333" lon="-8.63994">
        <ele>6.0</ele>
        <time>2019-05-17T09:29:53.172Z</time>
      </trkpt>
      <trkpt lat="39.26492667" lon="-8.63991833">
        <ele>6.0</ele>
        <time>2019-05-17T09:29:54.170Z</time>
      </trkpt>
      <trkpt lat="39.26492667" lon="-8.63991833">
        <ele>6.0</ele>
        <time>2019-05-17T09:29:55.154Z</time>
      </trkpt>
      <trkpt lat="39.26497833" lon="-8.63988167">
        <ele>6.0</ele>
        <time>2019-05-17T09:29:56.172Z</time>
      </trkpt>
      <trkpt lat="39.26497833" lon="-8.63988167">
        <ele>6.0</ele>
        <time>2019-05-17T09:29:57.153Z</time>
      </trkpt>
      <trkpt lat="39.26503" lon="-8.63984167">
        <ele>6.0</ele>
        <time>2019-05-17T09:29:58.174Z</time>
      </trkpt>
      <trkpt lat="39.26503" lon="-8.63984167">
        <ele>6.0</ele>
        <time>2019-05-17T09:29:59.179Z</time>
      </trkpt>
      <trkpt lat="39.26508167" lon="-8.63980167">
        <ele>6.0</ele>
        <time>2019-05-17T09:30:00.189Z</time>
      </trkpt>
      <trkpt lat="39.26508167" lon="-8.63980167">
        <ele>6.0</ele>
        <time>2019-05-17T09:30:01.166Z</time>
      </trkpt>
      <trkpt lat="39.26513333" lon="-8.639765">
        <ele>6.0</ele>
        <time>2019-05-17T09:30:02.180Z</time>
      </trkpt>
      <trkpt lat="39.26513333" lon="-8.639765">
        <ele>6.0</ele>
        <time>2019-05-17T09:30:03.153Z</time>
      </trkpt>
      <trkpt lat="39.26518667" lon="-8.63973">
        <ele>6.0</ele>
        <time>2019-05-17T09:30:04.164Z</time>
      </trkpt>
      <trkpt lat="39.26518667" lon="-8.63973">
        <ele>6.0</ele>
        <time>2019-05-17T09:30:05.181Z</time>
      </trkpt>
      <trkpt lat="39.26523833" lon="-8.63969667">
        <ele>6.0</ele>
        <time>2019-05-17T09:30:06.155Z</time>
      </trkpt>
      <trkpt lat="39.26523833" lon="-8.63969667">
        <ele>6.0</ele>
        <time>2019-05-17T09:30:07.174Z</time>
      </trkpt>
      <trkpt lat="39.26529" lon="-8.639655">
        <ele>6.0</ele>
        <time>2019-05-17T09:30:08.186Z</time>
      </trkpt>
      <trkpt lat="39.265315" lon="-8.63963333">
        <ele>6.0</ele>
        <time>2019-05-17T09:30:09.163Z</time>
      </trkpt>
      <trkpt lat="39.265315" lon="-8.63963333">
        <ele>6.0</ele>
        <time>2019-05-17T09:30:10.185Z</time>
      </trkpt>
      <trkpt lat="39.26537" lon="-8.63959167">
        <ele>6.0</ele>
        <time>2019-05-17T09:30:11.156Z</time>
      </trkpt>
      <trkpt lat="39.26539667" lon="-8.63956833">
        <ele>6.0</ele>
        <time>2019-05-17T09:30:12.171Z</time>
      </trkpt>
      <trkpt lat="39.26539667" lon="-8.63956833">
        <ele>6.0</ele>
        <time>2019-05-17T09:30:13.183Z</time>
      </trkpt>
      <trkpt lat="39.26545333" lon="-8.63953">
        <ele>6.0</ele>
        <time>2019-05-17T09:30:14.170Z</time>
      </trkpt>
      <trkpt lat="39.26548333" lon="-8.63951">
        <ele>5.0</ele>
        <time>2019-05-17T09:30:15.157Z</time>
      </trkpt>
      <trkpt lat="39.26548333" lon="-8.63951">
        <ele>5.0</ele>
        <time>2019-05-17T09:30:16.185Z</time>
      </trkpt>
      <trkpt lat="39.26554" lon="-8.63947333">
        <ele>5.0</ele>
        <time>2019-05-17T09:30:17.155Z</time>
      </trkpt>
      <trkpt lat="39.26556833" lon="-8.63945333">
        <ele>5.0</ele>
        <time>2019-05-17T09:30:18.165Z</time>
      </trkpt>
      <trkpt lat="39.26556833" lon="-8.63945333">
        <ele>5.0</ele>
        <time>2019-05-17T09:30:19.185Z</time>
      </trkpt>
      <trkpt lat="39.26562" lon="-8.63941333">
        <ele>5.0</ele>
        <time>2019-05-17T09:30:20.160Z</time>
      </trkpt>
      <trkpt lat="39.26564667" lon="-8.63939167">
        <ele>5.0</ele>
        <time>2019-05-17T09:30:21.153Z</time>
      </trkpt>
      <trkpt lat="39.26564667" lon="-8.63939167">
        <ele>5.0</ele>
        <time>2019-05-17T09:30:22.167Z</time>
      </trkpt>
      <trkpt lat="39.26570167" lon="-8.639355">
        <ele>5.0</ele>
        <time>2019-05-17T09:30:23.178Z</time>
      </trkpt>
      <trkpt lat="39.26573" lon="-8.639335">
        <ele>5.0</ele>
        <time>2019-05-17T09:30:24.175Z</time>
      </trkpt>
      <trkpt lat="39.26573" lon="-8.639335">
        <ele>5.0</ele>
        <time>2019-05-17T09:30:25.186Z</time>
      </trkpt>
      <trkpt lat="39.26578333" lon="-8.63929333">
        <ele>5.0</ele>
        <time>2019-05-17T09:30:26.164Z</time>
      </trkpt>
      <trkpt lat="39.26578333" lon="-8.63929333">
        <ele>5.0</ele>
        <time>2019-05-17T09:30:27.185Z</time>
      </trkpt>
      <trkpt lat="39.26584" lon="-8.639255">
        <ele>5.0</ele>
        <time>2019-05-17T09:30:28.319Z</time>
      </trkpt>
      <trkpt lat="39.26584" lon="-8.639255">
        <ele>5.0</ele>
        <time>2019-05-17T09:30:29.153Z</time>
      </trkpt>
      <trkpt lat="39.265895" lon="-8.63921667">
        <ele>5.0</ele>
        <time>2019-05-17T09:30:30.171Z</time>
      </trkpt>
      <trkpt lat="39.265895" lon="-8.63921667">
        <ele>5.0</ele>
        <time>2019-05-17T09:30:31.152Z</time>
      </trkpt>
      <trkpt lat="39.26595167" lon="-8.63918333">
        <ele>5.0</ele>
        <time>2019-05-17T09:30:32.163Z</time>
      </trkpt>
      <trkpt lat="39.26598" lon="-8.63916833">
        <ele>5.0</ele>
        <time>2019-05-17T09:30:33.191Z</time>
      </trkpt>
      <trkpt lat="39.26598" lon="-8.63916833">
        <ele>5.0</ele>
        <time>2019-05-17T09:30:34.181Z</time>
      </trkpt>
      <trkpt lat="39.26603167" lon="-8.639145">
        <ele>5.0</ele>
        <time>2019-05-17T09:30:35.161Z</time>
      </trkpt>
      <trkpt lat="39.26605667" lon="-8.63913">
        <ele>5.0</ele>
        <time>2019-05-17T09:30:36.175Z</time>
      </trkpt>
      <trkpt lat="39.26605667" lon="-8.63913">
        <ele>5.0</ele>
        <time>2019-05-17T09:30:37.157Z</time>
      </trkpt>
      <trkpt lat="39.26610167" lon="-8.6391">
        <ele>5.0</ele>
        <time>2019-05-17T09:30:38.172Z</time>
      </trkpt>
      <trkpt lat="39.26610167" lon="-8.6391">
        <ele>5.0</ele>
        <time>2019-05-17T09:30:39.186Z</time>
      </trkpt>
      <trkpt lat="39.266145" lon="-8.63907">
        <ele>5.0</ele>
        <time>2019-05-17T09:30:40.156Z</time>
      </trkpt>
      <trkpt lat="39.266145" lon="-8.63907">
        <ele>5.0</ele>
        <time>2019-05-17T09:30:41.165Z</time>
      </trkpt>
      <trkpt lat="39.26618" lon="-8.63903">
        <ele>5.0</ele>
        <time>2019-05-17T09:30:42.166Z</time>
      </trkpt>
      <trkpt lat="39.26618" lon="-8.63903">
        <ele>5.0</ele>
        <time>2019-05-17T09:30:43.169Z</time>
      </trkpt>
      <trkpt lat="39.26621333" lon="-8.63900333">
        <ele>5.0</ele>
        <time>2019-05-17T09:30:44.179Z</time>
      </trkpt>
      <trkpt lat="39.26621333" lon="-8.63900333">
        <ele>5.0</ele>
        <time>2019-05-17T09:30:45.161Z</time>
      </trkpt>
      <trkpt lat="39.26626667" lon="-8.63898667">
        <ele>6.0</ele>
        <time>2019-05-17T09:30:46.174Z</time>
      </trkpt>
      <trkpt lat="39.26626667" lon="-8.63898667">
        <ele>6.0</ele>
        <time>2019-05-17T09:30:47.187Z</time>
      </trkpt>
      <trkpt lat="39.26633" lon="-8.63897">
        <ele>6.0</ele>
        <time>2019-05-17T09:30:48.159Z</time>
      </trkpt>
      <trkpt lat="39.26633" lon="-8.63897">
        <ele>6.0</ele>
        <time>2019-05-17T09:30:49.179Z</time>
      </trkpt>
      <trkpt lat="39.26638833" lon="-8.638945">
        <ele>6.0</ele>
        <time>2019-05-17T09:30:50.189Z</time>
      </trkpt>
      <trkpt lat="39.26638833" lon="-8.638945">
        <ele>6.0</ele>
        <time>2019-05-17T09:30:51.151Z</time>
      </trkpt>
      <trkpt lat="39.26644833" lon="-8.63891333">
        <ele>6.0</ele>
        <time>2019-05-17T09:30:52.169Z</time>
      </trkpt>
      <trkpt lat="39.26644833" lon="-8.63891333">
        <ele>6.0</ele>
        <time>2019-05-17T09:30:53.182Z</time>
      </trkpt>
      <trkpt lat="39.26651167" lon="-8.63888167">
        <ele>6.0</ele>
        <time>2019-05-17T09:30:54.156Z</time>
      </trkpt>
      <trkpt lat="39.26654333" lon="-8.63886667">
        <ele>6.0</ele>
        <time>2019-05-17T09:30:55.174Z</time>
      </trkpt>
      <trkpt lat="39.26654333" lon="-8.63886667">
        <ele>6.0</ele>
        <time>2019-05-17T09:30:56.186Z</time>
      </trkpt>
      <trkpt lat="39.26660167" lon="-8.63883333">
        <ele>6.0</ele>
        <time>2019-05-17T09:30:57.154Z</time>
      </trkpt>
      <trkpt lat="39.26660167" lon="-8.63883333">
        <ele>6.0</ele>
        <time>2019-05-17T09:30:58.153Z</time>
      </trkpt>
      <trkpt lat="39.26665833" lon="-8.6388">
        <ele>6.0</ele>
        <time>2019-05-17T09:30:59.166Z</time>
      </trkpt>
      <trkpt lat="39.266685" lon="-8.63878">
        <ele>6.0</ele>
        <time>2019-05-17T09:31:00.185Z</time>
      </trkpt>
      <trkpt lat="39.266685" lon="-8.63878">
        <ele>6.0</ele>
        <time>2019-05-17T09:31:01.165Z</time>
      </trkpt>
      <trkpt lat="39.26673333" lon="-8.63873333">
        <ele>5.0</ele>
        <time>2019-05-17T09:31:02.173Z</time>
      </trkpt>
      <trkpt lat="39.26673333" lon="-8.63873333">
        <ele>5.0</ele>
        <time>2019-05-17T09:31:03.164Z</time>
      </trkpt>
      <trkpt lat="39.26678333" lon="-8.63867667">
        <ele>5.0</ele>
        <time>2019-05-17T09:31:04.179Z</time>
      </trkpt>
      <trkpt lat="39.26678333" lon="-8.63867667">
        <ele>5.0</ele>
        <time>2019-05-17T09:31:05.175Z</time>
      </trkpt>
      <trkpt lat="39.266835" lon="-8.63861333">
        <ele>5.0</ele>
        <time>2019-05-17T09:31:06.155Z</time>
      </trkpt>
      <trkpt lat="39.266835" lon="-8.63861333">
        <ele>5.0</ele>
        <time>2019-05-17T09:31:07.188Z</time>
      </trkpt>
      <trkpt lat="39.26687667" lon="-8.638545">
        <ele>5.0</ele>
        <time>2019-05-17T09:31:08.158Z</time>
      </trkpt>
      <trkpt lat="39.26687667" lon="-8.638545">
        <ele>5.0</ele>
        <time>2019-05-17T09:31:09.185Z</time>
      </trkpt>
      <trkpt lat="39.26692167" lon="-8.63848167">
        <ele>5.0</ele>
        <time>2019-05-17T09:31:10.160Z</time>
      </trkpt>
      <trkpt lat="39.26692167" lon="-8.63848167">
        <ele>5.0</ele>
        <time>2019-05-17T09:31:11.183Z</time>
      </trkpt>
      <trkpt lat="39.26696833" lon="-8.638425">
        <ele>5.0</ele>
        <time>2019-05-17T09:31:12.178Z</time>
      </trkpt>
      <trkpt lat="39.26696833" lon="-8.638425">
        <ele>5.0</ele>
        <time>2019-05-17T09:31:13.159Z</time>
      </trkpt>
      <trkpt lat="39.26701333" lon="-8.63836833">
        <ele>5.0</ele>
        <time>2019-05-17T09:31:14.176Z</time>
      </trkpt>
      <trkpt lat="39.26701333" lon="-8.63836833">
        <ele>5.0</ele>
        <time>2019-05-17T09:31:15.177Z</time>
      </trkpt>
      <trkpt lat="39.26705667" lon="-8.63831167">
        <ele>5.0</ele>
        <time>2019-05-17T09:31:16.185Z</time>
      </trkpt>
      <trkpt lat="39.26705667" lon="-8.63831167">
        <ele>5.0</ele>
        <time>2019-05-17T09:31:17.169Z</time>
      </trkpt>
      <trkpt lat="39.26709833" lon="-8.638255">
        <ele>5.0</ele>
        <time>2019-05-17T09:31:18.182Z</time>
      </trkpt>
      <trkpt lat="39.26709833" lon="-8.638255">
        <ele>5.0</ele>
        <time>2019-05-17T09:31:19.176Z</time>
      </trkpt>
      <trkpt lat="39.26714333" lon="-8.63819833">
        <ele>6.0</ele>
        <time>2019-05-17T09:31:20.188Z</time>
      </trkpt>
      <trkpt lat="39.26714333" lon="-8.63819833">
        <ele>6.0</ele>
        <time>2019-05-17T09:31:21.165Z</time>
      </trkpt>
      <trkpt lat="39.267185" lon="-8.63814167">
        <ele>6.0</ele>
        <time>2019-05-17T09:31:22.179Z</time>
      </trkpt>
      <trkpt lat="39.267185" lon="-8.63814167">
        <ele>6.0</ele>
        <time>2019-05-17T09:31:23.164Z</time>
      </trkpt>
      <trkpt lat="39.267225" lon="-8.638085">
        <ele>6.0</ele>
        <time>2019-05-17T09:31:24.178Z</time>
      </trkpt>
      <trkpt lat="39.267225" lon="-8.638085">
        <ele>6.0</ele>
        <time>2019-05-17T09:31:25.167Z</time>
      </trkpt>
      <trkpt lat="39.267265" lon="-8.638025">
        <ele>6.0</ele>
        <time>2019-05-17T09:31:26.177Z</time>
      </trkpt>
      <trkpt lat="39.26728667" lon="-8.63799833">
        <ele>6.0</ele>
        <time>2019-05-17T09:31:27.166Z</time>
      </trkpt>
      <trkpt lat="39.26728667" lon="-8.63799833">
        <ele>6.0</ele>
        <time>2019-05-17T09:31:28.153Z</time>
      </trkpt>
      <trkpt lat="39.26733167" lon="-8.63794333">
        <ele>6.0</ele>
        <time>2019-05-17T09:31:29.167Z</time>
      </trkpt>
      <trkpt lat="39.26735167" lon="-8.63791667">
        <ele>6.0</ele>
        <time>2019-05-17T09:31:30.150Z</time>
      </trkpt>
      <trkpt lat="39.26735167" lon="-8.63791667">
        <ele>6.0</ele>
        <time>2019-05-17T09:31:31.167Z</time>
      </trkpt>
      <trkpt lat="39.26739333" lon="-8.63786167">
        <ele>6.0</ele>
        <time>2019-05-17T09:31:32.178Z</time>
      </trkpt>
      <trkpt lat="39.26739333" lon="-8.63786167">
        <ele>6.0</ele>
        <time>2019-05-17T09:31:33.153Z</time>
      </trkpt>
      <trkpt lat="39.26743667" lon="-8.63780667">
        <ele>6.0</ele>
        <time>2019-05-17T09:31:34.179Z</time>
      </trkpt>
      <trkpt lat="39.26746" lon="-8.63778333">
        <ele>6.0</ele>
        <time>2019-05-17T09:31:35.161Z</time>
      </trkpt>
      <trkpt lat="39.26746" lon="-8.63778333">
        <ele>6.0</ele>
        <time>2019-05-17T09:31:36.172Z</time>
      </trkpt>
      <trkpt lat="39.267505" lon="-8.63773333">
        <ele>6.0</ele>
        <time>2019-05-17T09:31:37.191Z</time>
      </trkpt>
      <trkpt lat="39.267505" lon="-8.63773333">
        <ele>6.0</ele>
        <time>2019-05-17T09:31:38.164Z</time>
      </trkpt>
      <trkpt lat="39.26754667" lon="-8.63767667">
        <ele>6.0</ele>
        <time>2019-05-17T09:31:39.184Z</time>
      </trkpt>
      <trkpt lat="39.267565" lon="-8.63764667">
        <ele>6.0</ele>
        <time>2019-05-17T09:31:40.173Z</time>
      </trkpt>
      <trkpt lat="39.26758667" lon="-8.63761833">
        <ele>6.0</ele>
        <time>2019-05-17T09:31:41.172Z</time>
      </trkpt>
      <trkpt lat="39.26761167" lon="-8.63759333">
        <ele>6.0</ele>
        <time>2019-05-17T09:31:42.182Z</time>
      </trkpt>
      <trkpt lat="39.26761167" lon="-8.63759333">
        <ele>6.0</ele>
        <time>2019-05-17T09:31:43.163Z</time>
      </trkpt>
      <trkpt lat="39.26766" lon="-8.63754167">
        <ele>6.0</ele>
        <time>2019-05-17T09:31:44.170Z</time>
      </trkpt>
      <trkpt lat="39.26768167" lon="-8.637515">
        <ele>6.0</ele>
        <time>2019-05-17T09:31:45.177Z</time>
      </trkpt>
      <trkpt lat="39.26768167" lon="-8.637515">
        <ele>6.0</ele>
        <time>2019-05-17T09:31:46.158Z</time>
      </trkpt>
      <trkpt lat="39.267725" lon="-8.63747167">
        <ele>6.0</ele>
        <time>2019-05-17T09:31:47.179Z</time>
      </trkpt>
      <trkpt lat="39.267745" lon="-8.63745167">
        <ele>6.0</ele>
        <time>2019-05-17T09:31:48.160Z</time>
      </trkpt>
      <trkpt lat="39.267745" lon="-8.63745167">
        <ele>6.0</ele>
        <time>2019-05-17T09:31:49.175Z</time>
      </trkpt>
      <trkpt lat="39.26778" lon="-8.63742">
        <ele>6.0</ele>
        <time>2019-05-17T09:31:50.184Z</time>
      </trkpt>
      <trkpt lat="39.26778" lon="-8.63742">
        <ele>6.0</ele>
        <time>2019-05-17T09:31:51.156Z</time>
      </trkpt>
      <trkpt lat="39.26780833" lon="-8.63739167">
        <ele>7.0</ele>
        <time>2019-05-17T09:31:52.167Z</time>
      </trkpt>
      <trkpt lat="39.26780833" lon="-8.63739167">
        <ele>7.0</ele>
        <time>2019-05-17T09:31:53.176Z</time>
      </trkpt>
      <trkpt lat="39.26782667" lon="-8.63737333">
        <ele>6.0</ele>
        <time>2019-05-17T09:31:54.186Z</time>
      </trkpt>
      <trkpt lat="39.26782667" lon="-8.63737333">
        <ele>6.0</ele>
        <time>2019-05-17T09:31:55.171Z</time>
      </trkpt>
      <trkpt lat="39.26782833" lon="-8.63737167">
        <ele>6.0</ele>
        <time>2019-05-17T09:31:56.187Z</time>
      </trkpt>
      <trkpt lat="39.26782833" lon="-8.63737167">
        <ele>6.0</ele>
        <time>2019-05-17T09:31:57.163Z</time>
      </trkpt>
      <trkpt lat="39.26782833" lon="-8.63737167">
        <ele>7.0</ele>
        <time>2019-05-17T09:31:58.170Z</time>
      </trkpt>
      <trkpt lat="39.26782833" lon="-8.63737167">
        <ele>7.0</ele>
        <time>2019-05-17T09:31:59.175Z</time>
      </trkpt>
      <trkpt lat="39.26782833" lon="-8.63737167">
        <ele>7.0</ele>
        <time>2019-05-17T09:32:00.182Z</time>
      </trkpt>
      <trkpt lat="39.26782833" lon="-8.63737167">
        <ele>7.0</ele>
        <time>2019-05-17T09:32:01.171Z</time>
      </trkpt>
      <trkpt lat="39.26782833" lon="-8.63737167">
        <ele>7.0</ele>
        <time>2019-05-17T09:32:02.177Z</time>
      </trkpt>
      <trkpt lat="39.26782833" lon="-8.63737167">
        <ele>7.0</ele>
        <time>2019-05-17T09:32:03.188Z</time>
      </trkpt>
      <trkpt lat="39.26782833" lon="-8.63737167">
        <ele>7.0</ele>
        <time>2019-05-17T09:32:04.177Z</time>
      </trkpt>
      <trkpt lat="39.26782833" lon="-8.63737167">
        <ele>7.0</ele>
        <time>2019-05-17T09:32:05.171Z</time>
      </trkpt>
      <trkpt lat="39.26782833" lon="-8.63737167">
        <ele>7.0</ele>
        <time>2019-05-17T09:32:06.181Z</time>
      </trkpt>
      <trkpt lat="39.26782833" lon="-8.63737167">
        <ele>7.0</ele>
        <time>2019-05-17T09:32:07.171Z</time>
      </trkpt>
      <trkpt lat="39.26782833" lon="-8.63737167">
        <ele>7.0</ele>
        <time>2019-05-17T09:32:08.178Z</time>
      </trkpt>
      <trkpt lat="39.26782833" lon="-8.63737167">
        <ele>7.0</ele>
        <time>2019-05-17T09:32:09.178Z</time>
      </trkpt>
      <trkpt lat="39.26782833" lon="-8.63737167">
        <ele>7.0</ele>
        <time>2019-05-17T09:32:10.181Z</time>
      </trkpt>
      <trkpt lat="39.26782833" lon="-8.63737167">
        <ele>7.0</ele>
        <time>2019-05-17T09:32:11.172Z</time>
      </trkpt>
      <trkpt lat="39.26782833" lon="-8.63737167">
        <ele>7.0</ele>
        <time>2019-05-17T09:32:12.180Z</time>
      </trkpt>
      <trkpt lat="39.26782833" lon="-8.63737167">
        <ele>7.0</ele>
        <time>2019-05-17T09:32:13.172Z</time>
      </trkpt>
      <trkpt lat="39.26782833" lon="-8.63737167">
        <ele>7.0</ele>
        <time>2019-05-17T09:32:14.177Z</time>
      </trkpt>
      <trkpt lat="39.26782833" lon="-8.63737167">
        <ele>7.0</ele>
        <time>2019-05-17T09:32:15.172Z</time>
      </trkpt>
      <trkpt lat="39.26784667" lon="-8.63736167">
        <ele>7.0</ele>
        <time>2019-05-17T09:32:16.177Z</time>
      </trkpt>
      <trkpt lat="39.26784667" lon="-8.63736167">
        <ele>7.0</ele>
        <time>2019-05-17T09:32:17.171Z</time>
      </trkpt>
      <trkpt lat="39.26787667" lon="-8.637335">
        <ele>7.0</ele>
        <time>2019-05-17T09:32:18.160Z</time>
      </trkpt>
      <trkpt lat="39.26787667" lon="-8.637335">
        <ele>7.0</ele>
        <time>2019-05-17T09:32:19.185Z</time>
      </trkpt>
      <trkpt lat="39.26791667" lon="-8.63730333">
        <ele>7.0</ele>
        <time>2019-05-17T09:32:20.176Z</time>
      </trkpt>
      <trkpt lat="39.26791667" lon="-8.63730333">
        <ele>7.0</ele>
        <time>2019-05-17T09:32:21.172Z</time>
      </trkpt>
      <trkpt lat="39.26795167" lon="-8.63727">
        <ele>7.0</ele>
        <time>2019-05-17T09:32:22.191Z</time>
      </trkpt>
      <trkpt lat="39.26795167" lon="-8.63727">
        <ele>7.0</ele>
        <time>2019-05-17T09:32:23.154Z</time>
      </trkpt>
      <trkpt lat="39.267985" lon="-8.63723833">
        <ele>7.0</ele>
        <time>2019-05-17T09:32:24.177Z</time>
      </trkpt>
      <trkpt lat="39.267985" lon="-8.63723833">
        <ele>7.0</ele>
        <time>2019-05-17T09:32:25.153Z</time>
      </trkpt>
      <trkpt lat="39.26801333" lon="-8.637215">
        <ele>7.0</ele>
        <time>2019-05-17T09:32:26.176Z</time>
      </trkpt>
      <trkpt lat="39.26801333" lon="-8.637215">
        <ele>7.0</ele>
        <time>2019-05-17T09:32:27.150Z</time>
      </trkpt>
      <trkpt lat="39.26803833" lon="-8.63719333">
        <ele>7.0</ele>
        <time>2019-05-17T09:32:28.170Z</time>
      </trkpt>
      <trkpt lat="39.26803833" lon="-8.63719333">
        <ele>7.0</ele>
        <time>2019-05-17T09:32:29.179Z</time>
      </trkpt>
      <trkpt lat="39.26807833" lon="-8.637155">
        <ele>7.0</ele>
        <time>2019-05-17T09:32:30.153Z</time>
      </trkpt>
      <trkpt lat="39.26807833" lon="-8.637155">
        <ele>7.0</ele>
        <time>2019-05-17T09:32:31.164Z</time>
      </trkpt>
      <trkpt lat="39.26811667" lon="-8.63711667">
        <ele>7.0</ele>
        <time>2019-05-17T09:32:32.179Z</time>
      </trkpt>
      <trkpt lat="39.268135" lon="-8.63709667">
        <ele>7.0</ele>
        <time>2019-05-17T09:32:33.179Z</time>
      </trkpt>
      <trkpt lat="39.268135" lon="-8.63709667">
        <ele>7.0</ele>
        <time>2019-05-17T09:32:34.150Z</time>
      </trkpt>
      <trkpt lat="39.26817167" lon="-8.63705667">
        <ele>7.0</ele>
        <time>2019-05-17T09:32:35.163Z</time>
      </trkpt>
      <trkpt lat="39.26819" lon="-8.63703667">
        <ele>7.0</ele>
        <time>2019-05-17T09:32:36.189Z</time>
      </trkpt>
      <trkpt lat="39.26819" lon="-8.63703667">
        <ele>7.0</ele>
        <time>2019-05-17T09:32:37.163Z</time>
      </trkpt>
      <trkpt lat="39.26823" lon="-8.63699833">
        <ele>7.0</ele>
        <time>2019-05-17T09:32:38.171Z</time>
      </trkpt>
      <trkpt lat="39.26823" lon="-8.63699833">
        <ele>7.0</ele>
        <time>2019-05-17T09:32:39.185Z</time>
      </trkpt>
      <trkpt lat="39.26827333" lon="-8.63695667">
        <ele>7.0</ele>
        <time>2019-05-17T09:32:40.152Z</time>
      </trkpt>
      <trkpt lat="39.26827333" lon="-8.63695667">
        <ele>7.0</ele>
        <time>2019-05-17T09:32:41.168Z</time>
      </trkpt>
      <trkpt lat="39.268315" lon="-8.63691167">
        <ele>7.0</ele>
        <time>2019-05-17T09:32:42.186Z</time>
      </trkpt>
      <trkpt lat="39.268315" lon="-8.63691167">
        <ele>7.0</ele>
        <time>2019-05-17T09:32:43.186Z</time>
      </trkpt>
      <trkpt lat="39.268355" lon="-8.63686167">
        <ele>7.0</ele>
        <time>2019-05-17T09:32:44.154Z</time>
      </trkpt>
      <trkpt lat="39.26837667" lon="-8.63683833">
        <ele>7.0</ele>
        <time>2019-05-17T09:32:45.185Z</time>
      </trkpt>
      <trkpt lat="39.26837667" lon="-8.63683833">
        <ele>7.0</ele>
        <time>2019-05-17T09:32:46.165Z</time>
      </trkpt>
      <trkpt lat="39.268415" lon="-8.63679">
        <ele>7.0</ele>
        <time>2019-05-17T09:32:47.175Z</time>
      </trkpt>
      <trkpt lat="39.268435" lon="-8.63676667">
        <ele>7.0</ele>
        <time>2019-05-17T09:32:48.189Z</time>
      </trkpt>
      <trkpt lat="39.268435" lon="-8.63676667">
        <ele>7.0</ele>
        <time>2019-05-17T09:32:49.161Z</time>
      </trkpt>
      <trkpt lat="39.268475" lon="-8.63671667">
        <ele>7.0</ele>
        <time>2019-05-17T09:32:50.187Z</time>
      </trkpt>
      <trkpt lat="39.268475" lon="-8.63671667">
        <ele>7.0</ele>
        <time>2019-05-17T09:32:51.183Z</time>
      </trkpt>
      <trkpt lat="39.268515" lon="-8.63666333">
        <ele>7.0</ele>
        <time>2019-05-17T09:32:52.151Z</time>
      </trkpt>
      <trkpt lat="39.268515" lon="-8.63666333">
        <ele>7.0</ele>
        <time>2019-05-17T09:32:53.165Z</time>
      </trkpt>
      <trkpt lat="39.26855333" lon="-8.63661167">
        <ele>7.0</ele>
        <time>2019-05-17T09:32:54.182Z</time>
      </trkpt>
      <trkpt lat="39.26855333" lon="-8.63661167">
        <ele>7.0</ele>
        <time>2019-05-17T09:32:55.172Z</time>
      </trkpt>
      <trkpt lat="39.26859167" lon="-8.63655667">
        <ele>7.0</ele>
        <time>2019-05-17T09:32:56.150Z</time>
      </trkpt>
      <trkpt lat="39.26859167" lon="-8.63655667">
        <ele>7.0</ele>
        <time>2019-05-17T09:32:57.166Z</time>
      </trkpt>
      <trkpt lat="39.26863167" lon="-8.63650333">
        <ele>7.0</ele>
        <time>2019-05-17T09:32:58.174Z</time>
      </trkpt>
      <trkpt lat="39.26863167" lon="-8.63650333">
        <ele>7.0</ele>
        <time>2019-05-17T09:32:59.185Z</time>
      </trkpt>
      <trkpt lat="39.26867333" lon="-8.636445">
        <ele>7.0</ele>
        <time>2019-05-17T09:33:00.162Z</time>
      </trkpt>
      <trkpt lat="39.26867333" lon="-8.636445">
        <ele>7.0</ele>
        <time>2019-05-17T09:33:01.179Z</time>
      </trkpt>
      <trkpt lat="39.26871667" lon="-8.63638833">
        <ele>7.0</ele>
        <time>2019-05-17T09:33:02.157Z</time>
      </trkpt>
      <trkpt lat="39.26871667" lon="-8.63638833">
        <ele>7.0</ele>
        <time>2019-05-17T09:33:03.178Z</time>
      </trkpt>
      <trkpt lat="39.26875833" lon="-8.636335">
        <ele>7.0</ele>
        <time>2019-05-17T09:33:04.150Z</time>
      </trkpt>
      <trkpt lat="39.26875833" lon="-8.636335">
        <ele>7.0</ele>
        <time>2019-05-17T09:33:05.171Z</time>
      </trkpt>
      <trkpt lat="39.268795" lon="-8.636275">
        <ele>7.0</ele>
        <time>2019-05-17T09:33:06.152Z</time>
      </trkpt>
      <trkpt lat="39.268795" lon="-8.636275">
        <ele>7.0</ele>
        <time>2019-05-17T09:33:07.163Z</time>
      </trkpt>
      <trkpt lat="39.26883333" lon="-8.63621833">
        <ele>7.0</ele>
        <time>2019-05-17T09:33:08.177Z</time>
      </trkpt>
      <trkpt lat="39.26883333" lon="-8.63621833">
        <ele>7.0</ele>
        <time>2019-05-17T09:33:09.163Z</time>
      </trkpt>
      <trkpt lat="39.26887667" lon="-8.63616667">
        <ele>7.0</ele>
        <time>2019-05-17T09:33:10.181Z</time>
      </trkpt>
      <trkpt lat="39.26887667" lon="-8.63616667">
        <ele>7.0</ele>
        <time>2019-05-17T09:33:11.157Z</time>
      </trkpt>
      <trkpt lat="39.268915" lon="-8.63611667">
        <ele>7.0</ele>
        <time>2019-05-17T09:33:12.156Z</time>
      </trkpt>
      <trkpt lat="39.268915" lon="-8.63611667">
        <ele>7.0</ele>
        <time>2019-05-17T09:33:13.150Z</time>
      </trkpt>
      <trkpt lat="39.268955" lon="-8.636065">
        <ele>7.0</ele>
        <time>2019-05-17T09:33:14.162Z</time>
      </trkpt>
      <trkpt lat="39.268955" lon="-8.636065">
        <ele>7.0</ele>
        <time>2019-05-17T09:33:15.171Z</time>
      </trkpt>
      <trkpt lat="39.26899667" lon="-8.636015">
        <ele>7.0</ele>
        <time>2019-05-17T09:33:16.185Z</time>
      </trkpt>
      <trkpt lat="39.26899667" lon="-8.636015">
        <ele>7.0</ele>
        <time>2019-05-17T09:33:17.159Z</time>
      </trkpt>
      <trkpt lat="39.26903667" lon="-8.635965">
        <ele>7.0</ele>
        <time>2019-05-17T09:33:18.172Z</time>
      </trkpt>
      <trkpt lat="39.26903667" lon="-8.635965">
        <ele>7.0</ele>
        <time>2019-05-17T09:33:19.187Z</time>
      </trkpt>
      <trkpt lat="39.26908167" lon="-8.63591833">
        <ele>7.0</ele>
        <time>2019-05-17T09:33:20.159Z</time>
      </trkpt>
      <trkpt lat="39.26908167" lon="-8.63591833">
        <ele>7.0</ele>
        <time>2019-05-17T09:33:21.169Z</time>
      </trkpt>
      <trkpt lat="39.26912167" lon="-8.63587667">
        <ele>7.0</ele>
        <time>2019-05-17T09:33:22.185Z</time>
      </trkpt>
      <trkpt lat="39.26912167" lon="-8.63587667">
        <ele>7.0</ele>
        <time>2019-05-17T09:33:23.152Z</time>
      </trkpt>
      <trkpt lat="39.26916333" lon="-8.635825">
        <ele>7.0</ele>
        <time>2019-05-17T09:33:24.164Z</time>
      </trkpt>
      <trkpt lat="39.26916333" lon="-8.635825">
        <ele>7.0</ele>
        <time>2019-05-17T09:33:25.150Z</time>
      </trkpt>
      <trkpt lat="39.26920667" lon="-8.63577833">
        <ele>7.0</ele>
        <time>2019-05-17T09:33:26.153Z</time>
      </trkpt>
      <trkpt lat="39.26920667" lon="-8.63577833">
        <ele>7.0</ele>
        <time>2019-05-17T09:33:27.152Z</time>
      </trkpt>
      <trkpt lat="39.26925333" lon="-8.63573">
        <ele>7.0</ele>
        <time>2019-05-17T09:33:28.174Z</time>
      </trkpt>
      <trkpt lat="39.26925333" lon="-8.63573">
        <ele>7.0</ele>
        <time>2019-05-17T09:33:29.186Z</time>
      </trkpt>
      <trkpt lat="39.26929833" lon="-8.63568667">
        <ele>7.0</ele>
        <time>2019-05-17T09:33:30.154Z</time>
      </trkpt>
      <trkpt lat="39.26932" lon="-8.63566333">
        <ele>7.0</ele>
        <time>2019-05-17T09:33:31.184Z</time>
      </trkpt>
      <trkpt lat="39.26932" lon="-8.63566333">
        <ele>7.0</ele>
        <time>2019-05-17T09:33:32.152Z</time>
      </trkpt>
      <trkpt lat="39.26936167" lon="-8.63561667">
        <ele>7.0</ele>
        <time>2019-05-17T09:33:33.171Z</time>
      </trkpt>
      <trkpt lat="39.26936167" lon="-8.63561667">
        <ele>7.0</ele>
        <time>2019-05-17T09:33:34.182Z</time>
      </trkpt>
      <trkpt lat="39.26940667" lon="-8.63556833">
        <ele>7.0</ele>
        <time>2019-05-17T09:33:35.157Z</time>
      </trkpt>
      <trkpt lat="39.26942833" lon="-8.63554167">
        <ele>7.0</ele>
        <time>2019-05-17T09:33:36.182Z</time>
      </trkpt>
      <trkpt lat="39.26942833" lon="-8.63554167">
        <ele>7.0</ele>
        <time>2019-05-17T09:33:37.154Z</time>
      </trkpt>
      <trkpt lat="39.26947" lon="-8.63548833">
        <ele>7.0</ele>
        <time>2019-05-17T09:33:38.177Z</time>
      </trkpt>
      <trkpt lat="39.26947" lon="-8.63548833">
        <ele>7.0</ele>
        <time>2019-05-17T09:33:39.150Z</time>
      </trkpt>
      <trkpt lat="39.26951833" lon="-8.63543833">
        <ele>7.0</ele>
        <time>2019-05-17T09:33:40.162Z</time>
      </trkpt>
      <trkpt lat="39.26951833" lon="-8.63543833">
        <ele>7.0</ele>
        <time>2019-05-17T09:33:41.166Z</time>
      </trkpt>
      <trkpt lat="39.269565" lon="-8.63539167">
        <ele>7.0</ele>
        <time>2019-05-17T09:33:42.190Z</time>
      </trkpt>
      <trkpt lat="39.269565" lon="-8.63539167">
        <ele>7.0</ele>
        <time>2019-05-17T09:33:43.163Z</time>
      </trkpt>
      <trkpt lat="39.269615" lon="-8.635345">
        <ele>7.0</ele>
        <time>2019-05-17T09:33:44.174Z</time>
      </trkpt>
      <trkpt lat="39.269615" lon="-8.635345">
        <ele>7.0</ele>
        <time>2019-05-17T09:33:45.153Z</time>
      </trkpt>
      <trkpt lat="39.26966167" lon="-8.63529333">
        <ele>7.0</ele>
        <time>2019-05-17T09:33:46.173Z</time>
      </trkpt>
      <trkpt lat="39.26966167" lon="-8.63529333">
        <ele>7.0</ele>
        <time>2019-05-17T09:33:47.189Z</time>
      </trkpt>
      <trkpt lat="39.26970667" lon="-8.63524">
        <ele>7.0</ele>
        <time>2019-05-17T09:33:48.159Z</time>
      </trkpt>
      <trkpt lat="39.26970667" lon="-8.63524">
        <ele>7.0</ele>
        <time>2019-05-17T09:33:49.167Z</time>
      </trkpt>
      <trkpt lat="39.26974667" lon="-8.63518333">
        <ele>7.0</ele>
        <time>2019-05-17T09:33:50.179Z</time>
      </trkpt>
      <trkpt lat="39.26974667" lon="-8.63518333">
        <ele>7.0</ele>
        <time>2019-05-17T09:33:51.150Z</time>
      </trkpt>
      <trkpt lat="39.26979167" lon="-8.63513167">
        <ele>7.0</ele>
        <time>2019-05-17T09:33:52.160Z</time>
      </trkpt>
      <trkpt lat="39.26979167" lon="-8.63513167">
        <ele>7.0</ele>
        <time>2019-05-17T09:33:53.171Z</time>
      </trkpt>
      <trkpt lat="39.26984333" lon="-8.63508667">
        <ele>7.0</ele>
        <time>2019-05-17T09:33:54.185Z</time>
      </trkpt>
      <trkpt lat="39.26984333" lon="-8.63508667">
        <ele>7.0</ele>
        <time>2019-05-17T09:33:55.156Z</time>
      </trkpt>
      <trkpt lat="39.26989333" lon="-8.635045">
        <ele>7.0</ele>
        <time>2019-05-17T09:33:56.173Z</time>
      </trkpt>
      <trkpt lat="39.26991667" lon="-8.63502333">
        <ele>7.0</ele>
        <time>2019-05-17T09:33:57.169Z</time>
      </trkpt>
      <trkpt lat="39.26991667" lon="-8.63502333">
        <ele>7.0</ele>
        <time>2019-05-17T09:33:58.182Z</time>
      </trkpt>
      <trkpt lat="39.269965" lon="-8.63497667">
        <ele>7.0</ele>
        <time>2019-05-17T09:33:59.153Z</time>
      </trkpt>
      <trkpt lat="39.26998667" lon="-8.63495167">
        <ele>7.0</ele>
        <time>2019-05-17T09:34:00.180Z</time>
      </trkpt>
      <trkpt lat="39.26998667" lon="-8.63495167">
        <ele>7.0</ele>
        <time>2019-05-17T09:34:01.152Z</time>
      </trkpt>
      <trkpt lat="39.27003333" lon="-8.63490167">
        <ele>7.0</ele>
        <time>2019-05-17T09:34:02.174Z</time>
      </trkpt>
      <trkpt lat="39.27003333" lon="-8.63490167">
        <ele>7.0</ele>
        <time>2019-05-17T09:34:03.179Z</time>
      </trkpt>
      <trkpt lat="39.27007833" lon="-8.63485167">
        <ele>7.0</ele>
        <time>2019-05-17T09:34:04.156Z</time>
      </trkpt>
      <trkpt lat="39.27007833" lon="-8.63485167">
        <ele>7.0</ele>
        <time>2019-05-17T09:34:05.153Z</time>
      </trkpt>
      <trkpt lat="39.27012333" lon="-8.634795">
        <ele>7.0</ele>
        <time>2019-05-17T09:34:06.170Z</time>
      </trkpt>
      <trkpt lat="39.27014833" lon="-8.63476833">
        <ele>7.0</ele>
        <time>2019-05-17T09:34:07.187Z</time>
      </trkpt>
      <trkpt lat="39.27014833" lon="-8.63476833">
        <ele>7.0</ele>
        <time>2019-05-17T09:34:08.168Z</time>
      </trkpt>
      <trkpt lat="39.27019167" lon="-8.63471333">
        <ele>7.0</ele>
        <time>2019-05-17T09:34:09.150Z</time>
      </trkpt>
      <trkpt lat="39.27019167" lon="-8.63471333">
        <ele>7.0</ele>
        <time>2019-05-17T09:34:10.188Z</time>
      </trkpt>
      <trkpt lat="39.27023667" lon="-8.634655">
        <ele>7.0</ele>
        <time>2019-05-17T09:34:11.162Z</time>
      </trkpt>
      <trkpt lat="39.27026167" lon="-8.63462667">
        <ele>7.0</ele>
        <time>2019-05-17T09:34:12.163Z</time>
      </trkpt>
      <trkpt lat="39.27026167" lon="-8.63462667">
        <ele>7.0</ele>
        <time>2019-05-17T09:34:13.186Z</time>
      </trkpt>
      <trkpt lat="39.27031" lon="-8.63457667">
        <ele>7.0</ele>
        <time>2019-05-17T09:34:14.165Z</time>
      </trkpt>
      <trkpt lat="39.270335" lon="-8.63455167">
        <ele>7.0</ele>
        <time>2019-05-17T09:34:15.182Z</time>
      </trkpt>
      <trkpt lat="39.27035833" lon="-8.634525">
        <ele>7.0</ele>
        <time>2019-05-17T09:34:16.176Z</time>
      </trkpt>
      <trkpt lat="39.27035833" lon="-8.634525">
        <ele>7.0</ele>
        <time>2019-05-17T09:34:17.157Z</time>
      </trkpt>
      <trkpt lat="39.27040667" lon="-8.63447167">
        <ele>7.0</ele>
        <time>2019-05-17T09:34:18.165Z</time>
      </trkpt>
      <trkpt lat="39.27040667" lon="-8.63447167">
        <ele>7.0</ele>
        <time>2019-05-17T09:34:19.183Z</time>
      </trkpt>
      <trkpt lat="39.270455" lon="-8.63442167">
        <ele>7.0</ele>
        <time>2019-05-17T09:34:20.168Z</time>
      </trkpt>
      <trkpt lat="39.270455" lon="-8.63442167">
        <ele>7.0</ele>
        <time>2019-05-17T09:34:21.151Z</time>
      </trkpt>
      <trkpt lat="39.2705" lon="-8.63437833">
        <ele>7.0</ele>
        <time>2019-05-17T09:34:22.160Z</time>
      </trkpt>
      <trkpt lat="39.2705" lon="-8.63437833">
        <ele>7.0</ele>
        <time>2019-05-17T09:34:23.166Z</time>
      </trkpt>
      <trkpt lat="39.270545" lon="-8.634335">
        <ele>7.0</ele>
        <time>2019-05-17T09:34:24.175Z</time>
      </trkpt>
      <trkpt lat="39.270545" lon="-8.634335">
        <ele>7.0</ele>
        <time>2019-05-17T09:34:25.151Z</time>
      </trkpt>
      <trkpt lat="39.27058667" lon="-8.63429">
        <ele>6.0</ele>
        <time>2019-05-17T09:34:26.160Z</time>
      </trkpt>
      <trkpt lat="39.27058667" lon="-8.63429">
        <ele>6.0</ele>
        <time>2019-05-17T09:34:27.178Z</time>
      </trkpt>
      <trkpt lat="39.27063333" lon="-8.63424833">
        <ele>6.0</ele>
        <time>2019-05-17T09:34:28.187Z</time>
      </trkpt>
      <trkpt lat="39.27063333" lon="-8.63424833">
        <ele>6.0</ele>
        <time>2019-05-17T09:34:29.164Z</time>
      </trkpt>
      <trkpt lat="39.27067667" lon="-8.634205">
        <ele>6.0</ele>
        <time>2019-05-17T09:34:30.178Z</time>
      </trkpt>
      <trkpt lat="39.27067667" lon="-8.634205">
        <ele>6.0</ele>
        <time>2019-05-17T09:34:31.151Z</time>
      </trkpt>
      <trkpt lat="39.27072167" lon="-8.63416167">
        <ele>6.0</ele>
        <time>2019-05-17T09:34:32.169Z</time>
      </trkpt>
      <trkpt lat="39.27072167" lon="-8.63416167">
        <ele>6.0</ele>
        <time>2019-05-17T09:34:33.187Z</time>
      </trkpt>
      <trkpt lat="39.270765" lon="-8.63411667">
        <ele>6.0</ele>
        <time>2019-05-17T09:34:34.161Z</time>
      </trkpt>
      <trkpt lat="39.27078667" lon="-8.634095">
        <ele>6.0</ele>
        <time>2019-05-17T09:34:35.171Z</time>
      </trkpt>
      <trkpt lat="39.27080667" lon="-8.634075">
        <ele>6.0</ele>
        <time>2019-05-17T09:34:36.186Z</time>
      </trkpt>
      <trkpt lat="39.27080667" lon="-8.634075">
        <ele>6.0</ele>
        <time>2019-05-17T09:34:37.167Z</time>
      </trkpt>
      <trkpt lat="39.27084833" lon="-8.63404">
        <ele>6.0</ele>
        <time>2019-05-17T09:34:38.178Z</time>
      </trkpt>
      <trkpt lat="39.27086667" lon="-8.63401833">
        <ele>6.0</ele>
        <time>2019-05-17T09:34:39.156Z</time>
      </trkpt>
      <trkpt lat="39.27088667" lon="-8.63399667">
        <ele>6.0</ele>
        <time>2019-05-17T09:34:40.172Z</time>
      </trkpt>
      <trkpt lat="39.27088667" lon="-8.63399667">
        <ele>6.0</ele>
        <time>2019-05-17T09:34:41.154Z</time>
      </trkpt>
      <trkpt lat="39.27093167" lon="-8.63395333">
        <ele>6.0</ele>
        <time>2019-05-17T09:34:42.186Z</time>
      </trkpt>
      <trkpt lat="39.27093167" lon="-8.63395333">
        <ele>6.0</ele>
        <time>2019-05-17T09:34:43.161Z</time>
      </trkpt>
      <trkpt lat="39.270975" lon="-8.63391167">
        <ele>6.0</ele>
        <time>2019-05-17T09:34:44.179Z</time>
      </trkpt>
      <trkpt lat="39.270975" lon="-8.63391167">
        <ele>6.0</ele>
        <time>2019-05-17T09:34:45.165Z</time>
      </trkpt>
      <trkpt lat="39.27102" lon="-8.63387">
        <ele>6.0</ele>
        <time>2019-05-17T09:34:46.181Z</time>
      </trkpt>
      <trkpt lat="39.27102" lon="-8.63387">
        <ele>6.0</ele>
        <time>2019-05-17T09:34:47.189Z</time>
      </trkpt>
      <trkpt lat="39.27107" lon="-8.63382167">
        <ele>6.0</ele>
        <time>2019-05-17T09:34:48.160Z</time>
      </trkpt>
      <trkpt lat="39.27107" lon="-8.63382167">
        <ele>6.0</ele>
        <time>2019-05-17T09:34:49.177Z</time>
      </trkpt>
      <trkpt lat="39.27112" lon="-8.63376833">
        <ele>6.0</ele>
        <time>2019-05-17T09:34:50.170Z</time>
      </trkpt>
      <trkpt lat="39.27112" lon="-8.63376833">
        <ele>6.0</ele>
        <time>2019-05-17T09:34:51.177Z</time>
      </trkpt>
      <trkpt lat="39.27117" lon="-8.63371667">
        <ele>6.0</ele>
        <time>2019-05-17T09:34:52.193Z</time>
      </trkpt>
      <trkpt lat="39.27117" lon="-8.63371667">
        <ele>6.0</ele>
        <time>2019-05-17T09:34:53.184Z</time>
      </trkpt>
      <trkpt lat="39.27122333" lon="-8.63366667">
        <ele>6.0</ele>
        <time>2019-05-17T09:34:54.151Z</time>
      </trkpt>
      <trkpt lat="39.27122333" lon="-8.63366667">
        <ele>6.0</ele>
        <time>2019-05-17T09:34:55.163Z</time>
      </trkpt>
      <trkpt lat="39.27127667" lon="-8.63361">
        <ele>6.0</ele>
        <time>2019-05-17T09:34:56.159Z</time>
      </trkpt>
      <trkpt lat="39.27127667" lon="-8.63361">
        <ele>6.0</ele>
        <time>2019-05-17T09:34:57.156Z</time>
      </trkpt>
      <trkpt lat="39.27133167" lon="-8.63355667">
        <ele>6.0</ele>
        <time>2019-05-17T09:34:58.167Z</time>
      </trkpt>
      <trkpt lat="39.27133167" lon="-8.63355667">
        <ele>6.0</ele>
        <time>2019-05-17T09:34:59.179Z</time>
      </trkpt>
      <trkpt lat="39.27138833" lon="-8.63350833">
        <ele>5.0</ele>
        <time>2019-05-17T09:35:00.151Z</time>
      </trkpt>
      <trkpt lat="39.27138833" lon="-8.63350833">
        <ele>5.0</ele>
        <time>2019-05-17T09:35:01.172Z</time>
      </trkpt>
      <trkpt lat="39.271445" lon="-8.63346833">
        <ele>5.0</ele>
        <time>2019-05-17T09:35:02.154Z</time>
      </trkpt>
      <trkpt lat="39.271445" lon="-8.63346833">
        <ele>5.0</ele>
        <time>2019-05-17T09:35:03.184Z</time>
      </trkpt>
      <trkpt lat="39.27149833" lon="-8.63341667">
        <ele>5.0</ele>
        <time>2019-05-17T09:35:04.156Z</time>
      </trkpt>
      <trkpt lat="39.27152333" lon="-8.63338667">
        <ele>5.0</ele>
        <time>2019-05-17T09:35:05.183Z</time>
      </trkpt>
      <trkpt lat="39.27154667" lon="-8.63335833">
        <ele>5.0</ele>
        <time>2019-05-17T09:35:06.160Z</time>
      </trkpt>
      <trkpt lat="39.27154667" lon="-8.63335833">
        <ele>5.0</ele>
        <time>2019-05-17T09:35:07.185Z</time>
      </trkpt>
      <trkpt lat="39.27159333" lon="-8.633305">
        <ele>5.0</ele>
        <time>2019-05-17T09:35:08.159Z</time>
      </trkpt>
      <trkpt lat="39.27159333" lon="-8.633305">
        <ele>5.0</ele>
        <time>2019-05-17T09:35:09.154Z</time>
      </trkpt>
      <trkpt lat="39.27164" lon="-8.63326">
        <ele>5.0</ele>
        <time>2019-05-17T09:35:10.177Z</time>
      </trkpt>
      <trkpt lat="39.271665" lon="-8.63324167">
        <ele>5.0</ele>
        <time>2019-05-17T09:35:11.166Z</time>
      </trkpt>
      <trkpt lat="39.27169333" lon="-8.63322333">
        <ele>5.0</ele>
        <time>2019-05-17T09:35:12.150Z</time>
      </trkpt>
      <trkpt lat="39.27169333" lon="-8.63322333">
        <ele>5.0</ele>
        <time>2019-05-17T09:35:13.166Z</time>
      </trkpt>
      <trkpt lat="39.27175167" lon="-8.63321333">
        <ele>5.0</ele>
        <time>2019-05-17T09:35:14.184Z</time>
      </trkpt>
      <trkpt lat="39.27175167" lon="-8.63321333">
        <ele>5.0</ele>
        <time>2019-05-17T09:35:15.157Z</time>
      </trkpt>
      <trkpt lat="39.271795" lon="-8.63324667">
        <ele>5.0</ele>
        <time>2019-05-17T09:35:16.177Z</time>
      </trkpt>
      <trkpt lat="39.271795" lon="-8.63324667">
        <ele>5.0</ele>
        <time>2019-05-17T09:35:17.167Z</time>
      </trkpt>
      <trkpt lat="39.27181667" lon="-8.63329">
        <ele>5.0</ele>
        <time>2019-05-17T09:35:18.150Z</time>
      </trkpt>
      <trkpt lat="39.27181667" lon="-8.63329">
        <ele>5.0</ele>
        <time>2019-05-17T09:35:19.165Z</time>
      </trkpt>
      <trkpt lat="39.27184667" lon="-8.63332667">
        <ele>6.0</ele>
        <time>2019-05-17T09:35:20.181Z</time>
      </trkpt>
      <trkpt lat="39.27184667" lon="-8.63332667">
        <ele>6.0</ele>
        <time>2019-05-17T09:35:21.165Z</time>
      </trkpt>
      <trkpt lat="39.27188167" lon="-8.63336833">
        <ele>5.0</ele>
        <time>2019-05-17T09:35:22.180Z</time>
      </trkpt>
      <trkpt lat="39.27188167" lon="-8.63336833">
        <ele>5.0</ele>
        <time>2019-05-17T09:35:23.153Z</time>
      </trkpt>
      <trkpt lat="39.27191833" lon="-8.63341667">
        <ele>5.0</ele>
        <time>2019-05-17T09:35:24.166Z</time>
      </trkpt>
      <trkpt lat="39.27191833" lon="-8.63341667">
        <ele>5.0</ele>
        <time>2019-05-17T09:35:25.155Z</time>
      </trkpt>
      <trkpt lat="39.27195667" lon="-8.63345833">
        <ele>5.0</ele>
        <time>2019-05-17T09:35:26.169Z</time>
      </trkpt>
      <trkpt lat="39.27195667" lon="-8.63345833">
        <ele>5.0</ele>
        <time>2019-05-17T09:35:27.180Z</time>
      </trkpt>
      <trkpt lat="39.27199833" lon="-8.6335">
        <ele>5.0</ele>
        <time>2019-05-17T09:35:28.190Z</time>
      </trkpt>
      <trkpt lat="39.27199833" lon="-8.6335">
        <ele>5.0</ele>
        <time>2019-05-17T09:35:29.172Z</time>
      </trkpt>
      <trkpt lat="39.272045" lon="-8.63353">
        <ele>6.0</ele>
        <time>2019-05-17T09:35:30.156Z</time>
      </trkpt>
      <trkpt lat="39.272045" lon="-8.63353">
        <ele>6.0</ele>
        <time>2019-05-17T09:35:31.178Z</time>
      </trkpt>
      <trkpt lat="39.27208667" lon="-8.63353833">
        <ele>6.0</ele>
        <time>2019-05-17T09:35:32.165Z</time>
      </trkpt>
      <trkpt lat="39.27208667" lon="-8.63353833">
        <ele>6.0</ele>
        <time>2019-05-17T09:35:33.169Z</time>
      </trkpt>
      <trkpt lat="39.27211833" lon="-8.63353833">
        <ele>6.0</ele>
        <time>2019-05-17T09:35:34.184Z</time>
      </trkpt>
      <trkpt lat="39.27211833" lon="-8.63353833">
        <ele>6.0</ele>
        <time>2019-05-17T09:35:35.159Z</time>
      </trkpt>
      <trkpt lat="39.27214833" lon="-8.633525">
        <ele>6.0</ele>
        <time>2019-05-17T09:35:36.173Z</time>
      </trkpt>
      <trkpt lat="39.27214833" lon="-8.633525">
        <ele>6.0</ele>
        <time>2019-05-17T09:35:37.188Z</time>
      </trkpt>
      <trkpt lat="39.27218" lon="-8.63350167">
        <ele>6.0</ele>
        <time>2019-05-17T09:35:38.157Z</time>
      </trkpt>
      <trkpt lat="39.27218" lon="-8.63350167">
        <ele>6.0</ele>
        <time>2019-05-17T09:35:39.171Z</time>
      </trkpt>
      <trkpt lat="39.27221333" lon="-8.63347167">
        <ele>6.0</ele>
        <time>2019-05-17T09:35:40.187Z</time>
      </trkpt>
      <trkpt lat="39.27221333" lon="-8.63347167">
        <ele>6.0</ele>
        <time>2019-05-17T09:35:41.167Z</time>
      </trkpt>
      <trkpt lat="39.27225333" lon="-8.63344667">
        <ele>6.0</ele>
        <time>2019-05-17T09:35:42.173Z</time>
      </trkpt>
      <trkpt lat="39.27225333" lon="-8.63344667">
        <ele>6.0</ele>
        <time>2019-05-17T09:35:43.182Z</time>
      </trkpt>
      <trkpt lat="39.27229167" lon="-8.633415">
        <ele>6.0</ele>
        <time>2019-05-17T09:35:44.152Z</time>
      </trkpt>
      <trkpt lat="39.27229167" lon="-8.633415">
        <ele>6.0</ele>
        <time>2019-05-17T09:35:45.170Z</time>
      </trkpt>
      <trkpt lat="39.27233167" lon="-8.63338333">
        <ele>6.0</ele>
        <time>2019-05-17T09:35:46.183Z</time>
      </trkpt>
      <trkpt lat="39.27233167" lon="-8.63338333">
        <ele>6.0</ele>
        <time>2019-05-17T09:35:47.189Z</time>
      </trkpt>
      <trkpt lat="39.27237167" lon="-8.633355">
        <ele>6.0</ele>
        <time>2019-05-17T09:35:48.165Z</time>
      </trkpt>
      <trkpt lat="39.27237167" lon="-8.633355">
        <ele>6.0</ele>
        <time>2019-05-17T09:35:49.187Z</time>
      </trkpt>
      <trkpt lat="39.27241167" lon="-8.63332167">
        <ele>6.0</ele>
        <time>2019-05-17T09:35:50.158Z</time>
      </trkpt>
      <trkpt lat="39.27241167" lon="-8.63332167">
        <ele>6.0</ele>
        <time>2019-05-17T09:35:51.174Z</time>
      </trkpt>
      <trkpt lat="39.272455" lon="-8.63329167">
        <ele>6.0</ele>
        <time>2019-05-17T09:35:52.153Z</time>
      </trkpt>
      <trkpt lat="39.272455" lon="-8.63329167">
        <ele>6.0</ele>
        <time>2019-05-17T09:35:53.166Z</time>
      </trkpt>
      <trkpt lat="39.2725" lon="-8.63326333">
        <ele>6.0</ele>
        <time>2019-05-17T09:35:54.183Z</time>
      </trkpt>
      <trkpt lat="39.2725" lon="-8.63326333">
        <ele>6.0</ele>
        <time>2019-05-17T09:35:55.156Z</time>
      </trkpt>
      <trkpt lat="39.27254667" lon="-8.63323167">
        <ele>6.0</ele>
        <time>2019-05-17T09:35:56.172Z</time>
      </trkpt>
      <trkpt lat="39.27254667" lon="-8.63323167">
        <ele>6.0</ele>
        <time>2019-05-17T09:35:57.154Z</time>
      </trkpt>
      <trkpt lat="39.27259667" lon="-8.633195">
        <ele>6.0</ele>
        <time>2019-05-17T09:35:58.168Z</time>
      </trkpt>
      <trkpt lat="39.27262167" lon="-8.63317667">
        <ele>6.0</ele>
        <time>2019-05-17T09:35:59.158Z</time>
      </trkpt>
      <trkpt lat="39.27264667" lon="-8.63315833">
        <ele>6.0</ele>
        <time>2019-05-17T09:36:00.151Z</time>
      </trkpt>
      <trkpt lat="39.27264667" lon="-8.63315833">
        <ele>6.0</ele>
        <time>2019-05-17T09:36:01.165Z</time>
      </trkpt>
      <trkpt lat="39.27269667" lon="-8.63312167">
        <ele>6.0</ele>
        <time>2019-05-17T09:36:02.183Z</time>
      </trkpt>
      <trkpt lat="39.27269667" lon="-8.63312167">
        <ele>6.0</ele>
        <time>2019-05-17T09:36:03.151Z</time>
      </trkpt>
      <trkpt lat="39.27274667" lon="-8.63308833">
        <ele>6.0</ele>
        <time>2019-05-17T09:36:04.163Z</time>
      </trkpt>
      <trkpt lat="39.27274667" lon="-8.63308833">
        <ele>6.0</ele>
        <time>2019-05-17T09:36:05.189Z</time>
      </trkpt>
      <trkpt lat="39.27279333" lon="-8.63305833">
        <ele>6.0</ele>
        <time>2019-05-17T09:36:06.157Z</time>
      </trkpt>
      <trkpt lat="39.27279333" lon="-8.63305833">
        <ele>6.0</ele>
        <time>2019-05-17T09:36:07.172Z</time>
      </trkpt>
      <trkpt lat="39.27284167" lon="-8.63303">
        <ele>6.0</ele>
        <time>2019-05-17T09:36:08.183Z</time>
      </trkpt>
      <trkpt lat="39.27284167" lon="-8.63303">
        <ele>6.0</ele>
        <time>2019-05-17T09:36:09.151Z</time>
      </trkpt>
      <trkpt lat="39.27288833" lon="-8.63299833">
        <ele>6.0</ele>
        <time>2019-05-17T09:36:10.182Z</time>
      </trkpt>
      <trkpt lat="39.27288833" lon="-8.63299833">
        <ele>6.0</ele>
        <time>2019-05-17T09:36:11.160Z</time>
      </trkpt>
      <trkpt lat="39.27293333" lon="-8.63296833">
        <ele>6.0</ele>
        <time>2019-05-17T09:36:12.174Z</time>
      </trkpt>
      <trkpt lat="39.27293333" lon="-8.63296833">
        <ele>6.0</ele>
        <time>2019-05-17T09:36:13.173Z</time>
      </trkpt>
      <trkpt lat="39.27297833" lon="-8.63293833">
        <ele>6.0</ele>
        <time>2019-05-17T09:36:14.161Z</time>
      </trkpt>
      <trkpt lat="39.27297833" lon="-8.63293833">
        <ele>6.0</ele>
        <time>2019-05-17T09:36:15.187Z</time>
      </trkpt>
      <trkpt lat="39.27302667" lon="-8.63290833">
        <ele>6.0</ele>
        <time>2019-05-17T09:36:16.156Z</time>
      </trkpt>
      <trkpt lat="39.27302667" lon="-8.63290833">
        <ele>6.0</ele>
        <time>2019-05-17T09:36:17.168Z</time>
      </trkpt>
      <trkpt lat="39.27307333" lon="-8.63287667">
        <ele>6.0</ele>
        <time>2019-05-17T09:36:18.185Z</time>
      </trkpt>
      <trkpt lat="39.27307333" lon="-8.63287667">
        <ele>6.0</ele>
        <time>2019-05-17T09:36:19.164Z</time>
      </trkpt>
      <trkpt lat="39.273115" lon="-8.63284167">
        <ele>6.0</ele>
        <time>2019-05-17T09:36:20.165Z</time>
      </trkpt>
      <trkpt lat="39.273115" lon="-8.63284167">
        <ele>6.0</ele>
        <time>2019-05-17T09:36:21.173Z</time>
      </trkpt>
      <trkpt lat="39.27316" lon="-8.63281">
        <ele>6.0</ele>
        <time>2019-05-17T09:36:22.182Z</time>
      </trkpt>
      <trkpt lat="39.27318" lon="-8.632795">
        <ele>6.0</ele>
        <time>2019-05-17T09:36:23.155Z</time>
      </trkpt>
      <trkpt lat="39.27320167" lon="-8.632785">
        <ele>6.0</ele>
        <time>2019-05-17T09:36:24.182Z</time>
      </trkpt>
      <trkpt lat="39.27320167" lon="-8.632785">
        <ele>6.0</ele>
        <time>2019-05-17T09:36:25.154Z</time>
      </trkpt>
      <trkpt lat="39.273245" lon="-8.632765">
        <ele>6.0</ele>
        <time>2019-05-17T09:36:26.169Z</time>
      </trkpt>
      <trkpt lat="39.27326667" lon="-8.63274667">
        <ele>6.0</ele>
        <time>2019-05-17T09:36:27.189Z</time>
      </trkpt>
      <trkpt lat="39.27326667" lon="-8.63274667">
        <ele>6.0</ele>
        <time>2019-05-17T09:36:28.163Z</time>
      </trkpt>
      <trkpt lat="39.27332167" lon="-8.63272">
        <ele>6.0</ele>
        <time>2019-05-17T09:36:29.172Z</time>
      </trkpt>
      <trkpt lat="39.27334667" lon="-8.632705">
        <ele>6.0</ele>
        <time>2019-05-17T09:36:30.188Z</time>
      </trkpt>
      <trkpt lat="39.27334667" lon="-8.632705">
        <ele>6.0</ele>
        <time>2019-05-17T09:36:31.157Z</time>
      </trkpt>
      <trkpt lat="39.273395" lon="-8.63267833">
        <ele>6.0</ele>
        <time>2019-05-17T09:36:32.168Z</time>
      </trkpt>
      <trkpt lat="39.273395" lon="-8.63267833">
        <ele>6.0</ele>
        <time>2019-05-17T09:36:33.181Z</time>
      </trkpt>
      <trkpt lat="39.27343667" lon="-8.63264667">
        <ele>6.0</ele>
        <time>2019-05-17T09:36:34.165Z</time>
      </trkpt>
      <trkpt lat="39.27343667" lon="-8.63264667">
        <ele>6.0</ele>
        <time>2019-05-17T09:36:35.184Z</time>
      </trkpt>
      <trkpt lat="39.27348" lon="-8.63261667">
        <ele>6.0</ele>
        <time>2019-05-17T09:36:36.155Z</time>
      </trkpt>
      <trkpt lat="39.27348" lon="-8.63261667">
        <ele>6.0</ele>
        <time>2019-05-17T09:36:37.172Z</time>
      </trkpt>
      <trkpt lat="39.273525" lon="-8.63258333">
        <ele>6.0</ele>
        <time>2019-05-17T09:36:38.183Z</time>
      </trkpt>
      <trkpt lat="39.273525" lon="-8.63258333">
        <ele>6.0</ele>
        <time>2019-05-17T09:36:39.162Z</time>
      </trkpt>
      <trkpt lat="39.27356333" lon="-8.63255167">
        <ele>6.0</ele>
        <time>2019-05-17T09:36:40.182Z</time>
      </trkpt>
      <trkpt lat="39.27358333" lon="-8.632535">
        <ele>6.0</ele>
        <time>2019-05-17T09:36:41.159Z</time>
      </trkpt>
      <trkpt lat="39.27360167" lon="-8.63252">
        <ele>6.0</ele>
        <time>2019-05-17T09:36:42.178Z</time>
      </trkpt>
      <trkpt lat="39.27360167" lon="-8.63252">
        <ele>6.0</ele>
        <time>2019-05-17T09:36:43.153Z</time>
      </trkpt>
      <trkpt lat="39.273645" lon="-8.63249667">
        <ele>6.0</ele>
        <time>2019-05-17T09:36:44.175Z</time>
      </trkpt>
      <trkpt lat="39.273645" lon="-8.63249667">
        <ele>6.0</ele>
        <time>2019-05-17T09:36:45.156Z</time>
      </trkpt>
      <trkpt lat="39.27368833" lon="-8.632465">
        <ele>6.0</ele>
        <time>2019-05-17T09:36:46.171Z</time>
      </trkpt>
      <trkpt lat="39.27371" lon="-8.63245167">
        <ele>6.0</ele>
        <time>2019-05-17T09:36:47.185Z</time>
      </trkpt>
      <trkpt lat="39.27373167" lon="-8.63243833">
        <ele>6.0</ele>
        <time>2019-05-17T09:36:48.177Z</time>
      </trkpt>
      <trkpt lat="39.27373167" lon="-8.63243833">
        <ele>6.0</ele>
        <time>2019-05-17T09:36:49.173Z</time>
      </trkpt>
      <trkpt lat="39.27377333" lon="-8.632415">
        <ele>6.0</ele>
        <time>2019-05-17T09:36:50.184Z</time>
      </trkpt>
      <trkpt lat="39.27377333" lon="-8.632415">
        <ele>6.0</ele>
        <time>2019-05-17T09:36:51.151Z</time>
      </trkpt>
      <trkpt lat="39.27381833" lon="-8.63239">
        <ele>6.0</ele>
        <time>2019-05-17T09:36:52.176Z</time>
      </trkpt>
      <trkpt lat="39.27381833" lon="-8.63239">
        <ele>6.0</ele>
        <time>2019-05-17T09:36:53.152Z</time>
      </trkpt>
      <trkpt lat="39.27386333" lon="-8.63237">
        <ele>6.0</ele>
        <time>2019-05-17T09:36:54.175Z</time>
      </trkpt>
      <trkpt lat="39.27386333" lon="-8.63237">
        <ele>6.0</ele>
        <time>2019-05-17T09:36:55.171Z</time>
      </trkpt>
      <trkpt lat="39.27390333" lon="-8.63235">
        <ele>6.0</ele>
        <time>2019-05-17T09:36:56.186Z</time>
      </trkpt>
      <trkpt lat="39.27390333" lon="-8.63235">
        <ele>6.0</ele>
        <time>2019-05-17T09:36:57.156Z</time>
      </trkpt>
      <trkpt lat="39.273945" lon="-8.63233333">
        <ele>6.0</ele>
        <time>2019-05-17T09:36:58.171Z</time>
      </trkpt>
      <trkpt lat="39.273945" lon="-8.63233333">
        <ele>6.0</ele>
        <time>2019-05-17T09:36:59.183Z</time>
      </trkpt>
      <trkpt lat="39.27398333" lon="-8.63231333">
        <ele>6.0</ele>
        <time>2019-05-17T09:37:00.164Z</time>
      </trkpt>
      <trkpt lat="39.27398333" lon="-8.63231333">
        <ele>6.0</ele>
        <time>2019-05-17T09:37:01.177Z</time>
      </trkpt>
      <trkpt lat="39.274025" lon="-8.63229333">
        <ele>6.0</ele>
        <time>2019-05-17T09:37:02.230Z</time>
      </trkpt>
      <trkpt lat="39.274025" lon="-8.63229333">
        <ele>6.0</ele>
        <time>2019-05-17T09:37:03.156Z</time>
      </trkpt>
      <trkpt lat="39.27406333" lon="-8.63227167">
        <ele>6.0</ele>
        <time>2019-05-17T09:37:04.173Z</time>
      </trkpt>
      <trkpt lat="39.27408333" lon="-8.63226">
        <ele>6.0</ele>
        <time>2019-05-17T09:37:05.185Z</time>
      </trkpt>
      <trkpt lat="39.27410333" lon="-8.63224667">
        <ele>6.0</ele>
        <time>2019-05-17T09:37:06.175Z</time>
      </trkpt>
      <trkpt lat="39.27410333" lon="-8.63224667">
        <ele>6.0</ele>
        <time>2019-05-17T09:37:07.188Z</time>
      </trkpt>
      <trkpt lat="39.274145" lon="-8.632225">
        <ele>6.0</ele>
        <time>2019-05-17T09:37:08.155Z</time>
      </trkpt>
      <trkpt lat="39.27416667" lon="-8.632215">
        <ele>6.0</ele>
        <time>2019-05-17T09:37:09.184Z</time>
      </trkpt>
      <trkpt lat="39.27416667" lon="-8.632215">
        <ele>6.0</ele>
        <time>2019-05-17T09:37:10.182Z</time>
      </trkpt>
      <trkpt lat="39.27421167" lon="-8.63218667">
        <ele>6.0</ele>
        <time>2019-05-17T09:37:11.154Z</time>
      </trkpt>
      <trkpt lat="39.27423667" lon="-8.63217333">
        <ele>6.0</ele>
        <time>2019-05-17T09:37:12.166Z</time>
      </trkpt>
      <trkpt lat="39.27423667" lon="-8.63217333">
        <ele>6.0</ele>
        <time>2019-05-17T09:37:13.186Z</time>
      </trkpt>
      <trkpt lat="39.27428333" lon="-8.63214667">
        <ele>6.0</ele>
        <time>2019-05-17T09:37:14.156Z</time>
      </trkpt>
      <trkpt lat="39.27428333" lon="-8.63214667">
        <ele>6.0</ele>
        <time>2019-05-17T09:37:15.172Z</time>
      </trkpt>
      <trkpt lat="39.27432833" lon="-8.63212">
        <ele>6.0</ele>
        <time>2019-05-17T09:37:16.180Z</time>
      </trkpt>
      <trkpt lat="39.27432833" lon="-8.63212">
        <ele>6.0</ele>
        <time>2019-05-17T09:37:17.165Z</time>
      </trkpt>
      <trkpt lat="39.27437167" lon="-8.63209333">
        <ele>6.0</ele>
        <time>2019-05-17T09:37:18.173Z</time>
      </trkpt>
      <trkpt lat="39.27439333" lon="-8.63208">
        <ele>6.0</ele>
        <time>2019-05-17T09:37:19.153Z</time>
      </trkpt>
      <trkpt lat="39.27441667" lon="-8.632065">
        <ele>6.0</ele>
        <time>2019-05-17T09:37:20.181Z</time>
      </trkpt>
      <trkpt lat="39.27441667" lon="-8.632065">
        <ele>6.0</ele>
        <time>2019-05-17T09:37:21.150Z</time>
      </trkpt>
      <trkpt lat="39.27446333" lon="-8.632035">
        <ele>6.0</ele>
        <time>2019-05-17T09:37:22.179Z</time>
      </trkpt>
      <trkpt lat="39.27446333" lon="-8.632035">
        <ele>6.0</ele>
        <time>2019-05-17T09:37:23.163Z</time>
      </trkpt>
      <trkpt lat="39.27451" lon="-8.63200333">
        <ele>6.0</ele>
        <time>2019-05-17T09:37:24.163Z</time>
      </trkpt>
      <trkpt lat="39.27451" lon="-8.63200333">
        <ele>6.0</ele>
        <time>2019-05-17T09:37:25.168Z</time>
      </trkpt>
      <trkpt lat="39.27455333" lon="-8.63197">
        <ele>6.0</ele>
        <time>2019-05-17T09:37:26.181Z</time>
      </trkpt>
      <trkpt lat="39.27455333" lon="-8.63197">
        <ele>6.0</ele>
        <time>2019-05-17T09:37:27.157Z</time>
      </trkpt>
      <trkpt lat="39.2746" lon="-8.63194">
        <ele>6.0</ele>
        <time>2019-05-17T09:37:28.169Z</time>
      </trkpt>
      <trkpt lat="39.27462333" lon="-8.631925">
        <ele>6.0</ele>
        <time>2019-05-17T09:37:29.154Z</time>
      </trkpt>
      <trkpt lat="39.27464667" lon="-8.63190833">
        <ele>6.0</ele>
        <time>2019-05-17T09:37:30.178Z</time>
      </trkpt>
      <trkpt lat="39.27464667" lon="-8.63190833">
        <ele>6.0</ele>
        <time>2019-05-17T09:37:31.181Z</time>
      </trkpt>
      <trkpt lat="39.27468833" lon="-8.63186833">
        <ele>6.0</ele>
        <time>2019-05-17T09:37:32.156Z</time>
      </trkpt>
      <trkpt lat="39.27468833" lon="-8.63186833">
        <ele>6.0</ele>
        <time>2019-05-17T09:37:33.178Z</time>
      </trkpt>
      <trkpt lat="39.27473333" lon="-8.631835">
        <ele>6.0</ele>
        <time>2019-05-17T09:37:34.189Z</time>
      </trkpt>
      <trkpt lat="39.27473333" lon="-8.631835">
        <ele>6.0</ele>
        <time>2019-05-17T09:37:35.166Z</time>
      </trkpt>
      <trkpt lat="39.27478" lon="-8.63181">
        <ele>6.0</ele>
        <time>2019-05-17T09:37:36.166Z</time>
      </trkpt>
      <trkpt lat="39.27478" lon="-8.63181">
        <ele>6.0</ele>
        <time>2019-05-17T09:37:37.184Z</time>
      </trkpt>
      <trkpt lat="39.27482667" lon="-8.63179667">
        <ele>6.0</ele>
        <time>2019-05-17T09:37:38.153Z</time>
      </trkpt>
      <trkpt lat="39.27484667" lon="-8.63178833">
        <ele>6.0</ele>
        <time>2019-05-17T09:37:39.186Z</time>
      </trkpt>
      <trkpt lat="39.27484667" lon="-8.63178833">
        <ele>6.0</ele>
        <time>2019-05-17T09:37:40.153Z</time>
      </trkpt>
      <trkpt lat="39.27488333" lon="-8.631765">
        <ele>6.0</ele>
        <time>2019-05-17T09:37:41.178Z</time>
      </trkpt>
      <trkpt lat="39.27489833" lon="-8.63174833">
        <ele>6.0</ele>
        <time>2019-05-17T09:37:42.168Z</time>
      </trkpt>
      <trkpt lat="39.27489833" lon="-8.63174833">
        <ele>6.0</ele>
        <time>2019-05-17T09:37:43.180Z</time>
      </trkpt>
      <trkpt lat="39.27494167" lon="-8.63172">
        <ele>6.0</ele>
        <time>2019-05-17T09:37:44.154Z</time>
      </trkpt>
      <trkpt lat="39.27494167" lon="-8.63172">
        <ele>6.0</ele>
        <time>2019-05-17T09:37:45.166Z</time>
      </trkpt>
      <trkpt lat="39.274985" lon="-8.6317">
        <ele>6.0</ele>
        <time>2019-05-17T09:37:46.175Z</time>
      </trkpt>
      <trkpt lat="39.27500667" lon="-8.63168833">
        <ele>6.0</ele>
        <time>2019-05-17T09:37:47.159Z</time>
      </trkpt>
      <trkpt lat="39.27502833" lon="-8.63167333">
        <ele>6.0</ele>
        <time>2019-05-17T09:37:48.184Z</time>
      </trkpt>
      <trkpt lat="39.27502833" lon="-8.63167333">
        <ele>6.0</ele>
        <time>2019-05-17T09:37:49.156Z</time>
      </trkpt>
      <trkpt lat="39.27507333" lon="-8.63164167">
        <ele>6.0</ele>
        <time>2019-05-17T09:37:50.166Z</time>
      </trkpt>
      <trkpt lat="39.275095" lon="-8.631625">
        <ele>6.0</ele>
        <time>2019-05-17T09:37:51.187Z</time>
      </trkpt>
      <trkpt lat="39.275095" lon="-8.631625">
        <ele>6.0</ele>
        <time>2019-05-17T09:37:52.154Z</time>
      </trkpt>
      <trkpt lat="39.27513833" lon="-8.63158667">
        <ele>6.0</ele>
        <time>2019-05-17T09:37:53.178Z</time>
      </trkpt>
      <trkpt lat="39.27516333" lon="-8.63157">
        <ele>6.0</ele>
        <time>2019-05-17T09:37:54.155Z</time>
      </trkpt>
      <trkpt lat="39.27516333" lon="-8.63157">
        <ele>6.0</ele>
        <time>2019-05-17T09:37:55.169Z</time>
      </trkpt>
      <trkpt lat="39.27521167" lon="-8.63153667">
        <ele>6.0</ele>
        <time>2019-05-17T09:37:56.177Z</time>
      </trkpt>
      <trkpt lat="39.27521167" lon="-8.63153667">
        <ele>6.0</ele>
        <time>2019-05-17T09:37:57.150Z</time>
      </trkpt>
      <trkpt lat="39.27526167" lon="-8.63150333">
        <ele>6.0</ele>
        <time>2019-05-17T09:37:58.167Z</time>
      </trkpt>
      <trkpt lat="39.27526167" lon="-8.63150333">
        <ele>6.0</ele>
        <time>2019-05-17T09:37:59.176Z</time>
      </trkpt>
      <trkpt lat="39.27531" lon="-8.63146833">
        <ele>6.0</ele>
        <time>2019-05-17T09:38:00.161Z</time>
      </trkpt>
      <trkpt lat="39.27531" lon="-8.63146833">
        <ele>6.0</ele>
        <time>2019-05-17T09:38:01.181Z</time>
      </trkpt>
      <trkpt lat="39.27536167" lon="-8.63143667">
        <ele>6.0</ele>
        <time>2019-05-17T09:38:02.189Z</time>
      </trkpt>
      <trkpt lat="39.27536167" lon="-8.63143667">
        <ele>6.0</ele>
        <time>2019-05-17T09:38:03.181Z</time>
      </trkpt>
      <trkpt lat="39.27541167" lon="-8.63140167">
        <ele>6.0</ele>
        <time>2019-05-17T09:38:04.154Z</time>
      </trkpt>
      <trkpt lat="39.27541167" lon="-8.63140167">
        <ele>6.0</ele>
        <time>2019-05-17T09:38:05.163Z</time>
      </trkpt>
      <trkpt lat="39.27546333" lon="-8.63136667">
        <ele>6.0</ele>
        <time>2019-05-17T09:38:06.173Z</time>
      </trkpt>
      <trkpt lat="39.27546333" lon="-8.63136667">
        <ele>6.0</ele>
        <time>2019-05-17T09:38:07.163Z</time>
      </trkpt>
      <trkpt lat="39.27551667" lon="-8.63133333">
        <ele>6.0</ele>
        <time>2019-05-17T09:38:08.173Z</time>
      </trkpt>
      <trkpt lat="39.27551667" lon="-8.63133333">
        <ele>6.0</ele>
        <time>2019-05-17T09:38:09.165Z</time>
      </trkpt>
      <trkpt lat="39.275565" lon="-8.63130333">
        <ele>6.0</ele>
        <time>2019-05-17T09:38:10.184Z</time>
      </trkpt>
      <trkpt lat="39.275565" lon="-8.63130333">
        <ele>6.0</ele>
        <time>2019-05-17T09:38:11.163Z</time>
      </trkpt>
      <trkpt lat="39.27561167" lon="-8.63127667">
        <ele>6.0</ele>
        <time>2019-05-17T09:38:12.190Z</time>
      </trkpt>
      <trkpt lat="39.27561167" lon="-8.63127667">
        <ele>6.0</ele>
        <time>2019-05-17T09:38:13.167Z</time>
      </trkpt>
      <trkpt lat="39.27565667" lon="-8.63125">
        <ele>6.0</ele>
        <time>2019-05-17T09:38:14.182Z</time>
      </trkpt>
      <trkpt lat="39.27565667" lon="-8.63125">
        <ele>6.0</ele>
        <time>2019-05-17T09:38:15.151Z</time>
      </trkpt>
      <trkpt lat="39.27570333" lon="-8.63122667">
        <ele>6.0</ele>
        <time>2019-05-17T09:38:16.173Z</time>
      </trkpt>
      <trkpt lat="39.27572833" lon="-8.631215">
        <ele>6.0</ele>
        <time>2019-05-17T09:38:17.151Z</time>
      </trkpt>
      <trkpt lat="39.27575167" lon="-8.63120667">
        <ele>6.0</ele>
        <time>2019-05-17T09:38:18.176Z</time>
      </trkpt>
      <trkpt lat="39.27575167" lon="-8.63120667">
        <ele>6.0</ele>
        <time>2019-05-17T09:38:19.184Z</time>
      </trkpt>
      <trkpt lat="39.2758" lon="-8.63118667">
        <ele>6.0</ele>
        <time>2019-05-17T09:38:20.155Z</time>
      </trkpt>
      <trkpt lat="39.275825" lon="-8.63117667">
        <ele>6.0</ele>
        <time>2019-05-17T09:38:21.166Z</time>
      </trkpt>
      <trkpt lat="39.275825" lon="-8.63117667">
        <ele>6.0</ele>
        <time>2019-05-17T09:38:22.163Z</time>
      </trkpt>
      <trkpt lat="39.27588" lon="-8.63116">
        <ele>6.0</ele>
        <time>2019-05-17T09:38:23.179Z</time>
      </trkpt>
      <trkpt lat="39.27590833" lon="-8.63115">
        <ele>6.0</ele>
        <time>2019-05-17T09:38:24.155Z</time>
      </trkpt>
      <trkpt lat="39.27590833" lon="-8.63115">
        <ele>6.0</ele>
        <time>2019-05-17T09:38:25.160Z</time>
      </trkpt>
      <trkpt lat="39.27596833" lon="-8.631135">
        <ele>6.0</ele>
        <time>2019-05-17T09:38:26.160Z</time>
      </trkpt>
      <trkpt lat="39.27596833" lon="-8.631135">
        <ele>6.0</ele>
        <time>2019-05-17T09:38:27.179Z</time>
      </trkpt>
      <trkpt lat="39.27603167" lon="-8.63112167">
        <ele>5.0</ele>
        <time>2019-05-17T09:38:28.187Z</time>
      </trkpt>
      <trkpt lat="39.27603167" lon="-8.63112167">
        <ele>5.0</ele>
        <time>2019-05-17T09:38:29.166Z</time>
      </trkpt>
      <trkpt lat="39.2761" lon="-8.631105">
        <ele>5.0</ele>
        <time>2019-05-17T09:38:30.173Z</time>
      </trkpt>
      <trkpt lat="39.2761" lon="-8.631105">
        <ele>5.0</ele>
        <time>2019-05-17T09:38:31.157Z</time>
      </trkpt>
      <trkpt lat="39.27616167" lon="-8.63109167">
        <ele>5.0</ele>
        <time>2019-05-17T09:38:32.174Z</time>
      </trkpt>
      <trkpt lat="39.27616167" lon="-8.63109167">
        <ele>5.0</ele>
        <time>2019-05-17T09:38:33.186Z</time>
      </trkpt>
      <trkpt lat="39.276215" lon="-8.63108167">
        <ele>5.0</ele>
        <time>2019-05-17T09:38:34.155Z</time>
      </trkpt>
      <trkpt lat="39.276215" lon="-8.63108167">
        <ele>5.0</ele>
        <time>2019-05-17T09:38:35.185Z</time>
      </trkpt>
      <trkpt lat="39.27626833" lon="-8.63106833">
        <ele>6.0</ele>
        <time>2019-05-17T09:38:36.163Z</time>
      </trkpt>
      <trkpt lat="39.27626833" lon="-8.63106833">
        <ele>6.0</ele>
        <time>2019-05-17T09:38:37.188Z</time>
      </trkpt>
      <trkpt lat="39.276325" lon="-8.63106">
        <ele>6.0</ele>
        <time>2019-05-17T09:38:38.158Z</time>
      </trkpt>
      <trkpt lat="39.276325" lon="-8.63106">
        <ele>6.0</ele>
        <time>2019-05-17T09:38:39.180Z</time>
      </trkpt>
      <trkpt lat="39.27638" lon="-8.63105167">
        <ele>6.0</ele>
        <time>2019-05-17T09:38:40.151Z</time>
      </trkpt>
      <trkpt lat="39.27638" lon="-8.63105167">
        <ele>6.0</ele>
        <time>2019-05-17T09:38:41.174Z</time>
      </trkpt>
      <trkpt lat="39.27643167" lon="-8.63104833">
        <ele>6.0</ele>
        <time>2019-05-17T09:38:42.186Z</time>
      </trkpt>
      <trkpt lat="39.27643167" lon="-8.63104833">
        <ele>6.0</ele>
        <time>2019-05-17T09:38:43.154Z</time>
      </trkpt>
      <trkpt lat="39.27647667" lon="-8.63104">
        <ele>6.0</ele>
        <time>2019-05-17T09:38:44.174Z</time>
      </trkpt>
      <trkpt lat="39.27647667" lon="-8.63104">
        <ele>6.0</ele>
        <time>2019-05-17T09:38:45.155Z</time>
      </trkpt>
      <trkpt lat="39.27652" lon="-8.63103">
        <ele>6.0</ele>
        <time>2019-05-17T09:38:46.150Z</time>
      </trkpt>
      <trkpt lat="39.27652" lon="-8.63103">
        <ele>6.0</ele>
        <time>2019-05-17T09:38:47.160Z</time>
      </trkpt>
      <trkpt lat="39.27657" lon="-8.63102167">
        <ele>6.0</ele>
        <time>2019-05-17T09:38:48.169Z</time>
      </trkpt>
      <trkpt lat="39.27657" lon="-8.63102167">
        <ele>6.0</ele>
        <time>2019-05-17T09:38:49.181Z</time>
      </trkpt>
      <trkpt lat="39.27662333" lon="-8.63101">
        <ele>6.0</ele>
        <time>2019-05-17T09:38:50.160Z</time>
      </trkpt>
      <trkpt lat="39.27662333" lon="-8.63101">
        <ele>6.0</ele>
        <time>2019-05-17T09:38:51.156Z</time>
      </trkpt>
      <trkpt lat="39.276675" lon="-8.63099667">
        <ele>6.0</ele>
        <time>2019-05-17T09:38:52.160Z</time>
      </trkpt>
      <trkpt lat="39.276675" lon="-8.63099667">
        <ele>6.0</ele>
        <time>2019-05-17T09:38:53.152Z</time>
      </trkpt>
      <trkpt lat="39.27672667" lon="-8.630985">
        <ele>6.0</ele>
        <time>2019-05-17T09:38:54.169Z</time>
      </trkpt>
      <trkpt lat="39.27675167" lon="-8.63098">
        <ele>6.0</ele>
        <time>2019-05-17T09:38:55.187Z</time>
      </trkpt>
      <trkpt lat="39.27675167" lon="-8.63098">
        <ele>6.0</ele>
        <time>2019-05-17T09:38:56.165Z</time>
      </trkpt>
      <trkpt lat="39.27680333" lon="-8.63096667">
        <ele>6.0</ele>
        <time>2019-05-17T09:38:57.177Z</time>
      </trkpt>
      <trkpt lat="39.27680333" lon="-8.63096667">
        <ele>6.0</ele>
        <time>2019-05-17T09:38:58.154Z</time>
      </trkpt>
      <trkpt lat="39.27685333" lon="-8.630955">
        <ele>6.0</ele>
        <time>2019-05-17T09:38:59.171Z</time>
      </trkpt>
      <trkpt lat="39.27687667" lon="-8.63095167">
        <ele>6.0</ele>
        <time>2019-05-17T09:39:00.157Z</time>
      </trkpt>
      <trkpt lat="39.27687667" lon="-8.63095167">
        <ele>6.0</ele>
        <time>2019-05-17T09:39:01.185Z</time>
      </trkpt>
      <trkpt lat="39.27692" lon="-8.63094333">
        <ele>6.0</ele>
        <time>2019-05-17T09:39:02.155Z</time>
      </trkpt>
      <trkpt lat="39.27692" lon="-8.63094333">
        <ele>6.0</ele>
        <time>2019-05-17T09:39:03.157Z</time>
      </trkpt>
      <trkpt lat="39.27696667" lon="-8.63093167">
        <ele>6.0</ele>
        <time>2019-05-17T09:39:04.166Z</time>
      </trkpt>
      <trkpt lat="39.27696667" lon="-8.63093167">
        <ele>6.0</ele>
        <time>2019-05-17T09:39:05.177Z</time>
      </trkpt>
      <trkpt lat="39.27702" lon="-8.630925">
        <ele>6.0</ele>
        <time>2019-05-17T09:39:06.189Z</time>
      </trkpt>
      <trkpt lat="39.27702" lon="-8.630925">
        <ele>6.0</ele>
        <time>2019-05-17T09:39:07.166Z</time>
      </trkpt>
      <trkpt lat="39.27707333" lon="-8.63092">
        <ele>6.0</ele>
        <time>2019-05-17T09:39:08.180Z</time>
      </trkpt>
      <trkpt lat="39.27707333" lon="-8.63092">
        <ele>6.0</ele>
        <time>2019-05-17T09:39:09.186Z</time>
      </trkpt>
      <trkpt lat="39.27712833" lon="-8.63091833">
        <ele>6.0</ele>
        <time>2019-05-17T09:39:10.189Z</time>
      </trkpt>
      <trkpt lat="39.27712833" lon="-8.63091833">
        <ele>6.0</ele>
        <time>2019-05-17T09:39:11.163Z</time>
      </trkpt>
      <trkpt lat="39.27718333" lon="-8.630925">
        <ele>6.0</ele>
        <time>2019-05-17T09:39:12.180Z</time>
      </trkpt>
      <trkpt lat="39.27718333" lon="-8.630925">
        <ele>6.0</ele>
        <time>2019-05-17T09:39:13.157Z</time>
      </trkpt>
      <trkpt lat="39.27724333" lon="-8.630935">
        <ele>6.0</ele>
        <time>2019-05-17T09:39:14.171Z</time>
      </trkpt>
      <trkpt lat="39.27724333" lon="-8.630935">
        <ele>6.0</ele>
        <time>2019-05-17T09:39:15.166Z</time>
      </trkpt>
      <trkpt lat="39.27729667" lon="-8.63094667">
        <ele>6.0</ele>
        <time>2019-05-17T09:39:16.151Z</time>
      </trkpt>
      <trkpt lat="39.27729667" lon="-8.63094667">
        <ele>6.0</ele>
        <time>2019-05-17T09:39:17.164Z</time>
      </trkpt>
      <trkpt lat="39.27734833" lon="-8.630955">
        <ele>6.0</ele>
        <time>2019-05-17T09:39:18.181Z</time>
      </trkpt>
      <trkpt lat="39.27734833" lon="-8.630955">
        <ele>6.0</ele>
        <time>2019-05-17T09:39:19.154Z</time>
      </trkpt>
      <trkpt lat="39.2774" lon="-8.630965">
        <ele>6.0</ele>
        <time>2019-05-17T09:39:20.178Z</time>
      </trkpt>
      <trkpt lat="39.2774" lon="-8.630965">
        <ele>6.0</ele>
        <time>2019-05-17T09:39:21.156Z</time>
      </trkpt>
      <trkpt lat="39.27745" lon="-8.630975">
        <ele>6.0</ele>
        <time>2019-05-17T09:39:22.169Z</time>
      </trkpt>
      <trkpt lat="39.27745" lon="-8.630975">
        <ele>6.0</ele>
        <time>2019-05-17T09:39:23.177Z</time>
      </trkpt>
      <trkpt lat="39.27750167" lon="-8.63098167">
        <ele>6.0</ele>
        <time>2019-05-17T09:39:24.191Z</time>
      </trkpt>
      <trkpt lat="39.27750167" lon="-8.63098167">
        <ele>6.0</ele>
        <time>2019-05-17T09:39:25.155Z</time>
      </trkpt>
      <trkpt lat="39.27755333" lon="-8.63098333">
        <ele>6.0</ele>
        <time>2019-05-17T09:39:26.166Z</time>
      </trkpt>
      <trkpt lat="39.27758167" lon="-8.63098333">
        <ele>6.0</ele>
        <time>2019-05-17T09:39:27.151Z</time>
      </trkpt>
      <trkpt lat="39.27758167" lon="-8.63098333">
        <ele>6.0</ele>
        <time>2019-05-17T09:39:28.164Z</time>
      </trkpt>
      <trkpt lat="39.27758167" lon="-8.63098333">
        <ele>6.0</ele>
        <time>2019-05-17T09:39:29.153Z</time>
      </trkpt>
      <trkpt lat="39.27766333" lon="-8.63098">
        <ele>6.0</ele>
        <time>2019-05-17T09:39:30.185Z</time>
      </trkpt>
      <trkpt lat="39.27766333" lon="-8.63098">
        <ele>6.0</ele>
        <time>2019-05-17T09:39:31.165Z</time>
      </trkpt>
      <trkpt lat="39.27771833" lon="-8.63097667">
        <ele>6.0</ele>
        <time>2019-05-17T09:39:32.178Z</time>
      </trkpt>
      <trkpt lat="39.27771833" lon="-8.63097667">
        <ele>6.0</ele>
        <time>2019-05-17T09:39:33.154Z</time>
      </trkpt>
      <trkpt lat="39.27777333" lon="-8.630975">
        <ele>6.0</ele>
        <time>2019-05-17T09:39:34.179Z</time>
      </trkpt>
      <trkpt lat="39.27777333" lon="-8.630975">
        <ele>6.0</ele>
        <time>2019-05-17T09:39:35.165Z</time>
      </trkpt>
      <trkpt lat="39.27782833" lon="-8.63097333">
        <ele>6.0</ele>
        <time>2019-05-17T09:39:36.179Z</time>
      </trkpt>
      <trkpt lat="39.27782833" lon="-8.63097333">
        <ele>6.0</ele>
        <time>2019-05-17T09:39:37.165Z</time>
      </trkpt>
      <trkpt lat="39.27788167" lon="-8.63097167">
        <ele>6.0</ele>
        <time>2019-05-17T09:39:38.182Z</time>
      </trkpt>
      <trkpt lat="39.27788167" lon="-8.63097167">
        <ele>6.0</ele>
        <time>2019-05-17T09:39:39.154Z</time>
      </trkpt>
      <trkpt lat="39.277935" lon="-8.630965">
        <ele>6.0</ele>
        <time>2019-05-17T09:39:40.167Z</time>
      </trkpt>
      <trkpt lat="39.27796167" lon="-8.63096333">
        <ele>6.0</ele>
        <time>2019-05-17T09:39:41.185Z</time>
      </trkpt>
      <trkpt lat="39.27799" lon="-8.63096167">
        <ele>6.0</ele>
        <time>2019-05-17T09:39:42.180Z</time>
      </trkpt>
      <trkpt lat="39.27799" lon="-8.63096167">
        <ele>6.0</ele>
        <time>2019-05-17T09:39:43.151Z</time>
      </trkpt>
      <trkpt lat="39.278045" lon="-8.63095667">
        <ele>6.0</ele>
        <time>2019-05-17T09:39:44.159Z</time>
      </trkpt>
      <trkpt lat="39.278045" lon="-8.63095667">
        <ele>6.0</ele>
        <time>2019-05-17T09:39:45.181Z</time>
      </trkpt>
      <trkpt lat="39.27810167" lon="-8.63095">
        <ele>6.0</ele>
        <time>2019-05-17T09:39:46.150Z</time>
      </trkpt>
      <trkpt lat="39.27810167" lon="-8.63095">
        <ele>6.0</ele>
        <time>2019-05-17T09:39:47.166Z</time>
      </trkpt>
      <trkpt lat="39.27816" lon="-8.63094667">
        <ele>6.0</ele>
        <time>2019-05-17T09:39:48.182Z</time>
      </trkpt>
      <trkpt lat="39.27816" lon="-8.63094667">
        <ele>6.0</ele>
        <time>2019-05-17T09:39:49.151Z</time>
      </trkpt>
      <trkpt lat="39.27821333" lon="-8.63094333">
        <ele>6.0</ele>
        <time>2019-05-17T09:39:50.161Z</time>
      </trkpt>
      <trkpt lat="39.27821333" lon="-8.63094333">
        <ele>6.0</ele>
        <time>2019-05-17T09:39:51.181Z</time>
      </trkpt>
      <trkpt lat="39.278265" lon="-8.63094333">
        <ele>6.0</ele>
        <time>2019-05-17T09:39:52.156Z</time>
      </trkpt>
      <trkpt lat="39.278265" lon="-8.63094333">
        <ele>6.0</ele>
        <time>2019-05-17T09:39:53.177Z</time>
      </trkpt>
      <trkpt lat="39.27831833" lon="-8.63094167">
        <ele>6.0</ele>
        <time>2019-05-17T09:39:54.156Z</time>
      </trkpt>
      <trkpt lat="39.27831833" lon="-8.63094167">
        <ele>6.0</ele>
        <time>2019-05-17T09:39:55.186Z</time>
      </trkpt>
      <trkpt lat="39.27836833" lon="-8.63094">
        <ele>6.0</ele>
        <time>2019-05-17T09:39:56.158Z</time>
      </trkpt>
      <trkpt lat="39.27836833" lon="-8.63094">
        <ele>6.0</ele>
        <time>2019-05-17T09:39:57.171Z</time>
      </trkpt>
      <trkpt lat="39.27842" lon="-8.63094167">
        <ele>6.0</ele>
        <time>2019-05-17T09:39:58.185Z</time>
      </trkpt>
      <trkpt lat="39.278445" lon="-8.63093833">
        <ele>6.0</ele>
        <time>2019-05-17T09:39:59.174Z</time>
      </trkpt>
      <trkpt lat="39.27847167" lon="-8.63093833">
        <ele>6.0</ele>
        <time>2019-05-17T09:40:00.157Z</time>
      </trkpt>
      <trkpt lat="39.27847167" lon="-8.63093833">
        <ele>6.0</ele>
        <time>2019-05-17T09:40:01.170Z</time>
      </trkpt>
      <trkpt lat="39.27852" lon="-8.63093667">
        <ele>6.0</ele>
        <time>2019-05-17T09:40:02.182Z</time>
      </trkpt>
      <trkpt lat="39.27852" lon="-8.63093667">
        <ele>6.0</ele>
        <time>2019-05-17T09:40:03.170Z</time>
      </trkpt>
      <trkpt lat="39.27857167" lon="-8.630935">
        <ele>6.0</ele>
        <time>2019-05-17T09:40:04.184Z</time>
      </trkpt>
      <trkpt lat="39.27857167" lon="-8.630935">
        <ele>6.0</ele>
        <time>2019-05-17T09:40:05.156Z</time>
      </trkpt>
      <trkpt lat="39.278625" lon="-8.63093167">
        <ele>6.0</ele>
        <time>2019-05-17T09:40:06.154Z</time>
      </trkpt>
      <trkpt lat="39.278625" lon="-8.63093167">
        <ele>6.0</ele>
        <time>2019-05-17T09:40:07.186Z</time>
      </trkpt>
      <trkpt lat="39.27868" lon="-8.63092667">
        <ele>6.0</ele>
        <time>2019-05-17T09:40:08.170Z</time>
      </trkpt>
      <trkpt lat="39.27868" lon="-8.63092667">
        <ele>6.0</ele>
        <time>2019-05-17T09:40:09.156Z</time>
      </trkpt>
      <trkpt lat="39.27873667" lon="-8.63092167">
        <ele>5.0</ele>
        <time>2019-05-17T09:40:10.184Z</time>
      </trkpt>
      <trkpt lat="39.27873667" lon="-8.63092167">
        <ele>5.0</ele>
        <time>2019-05-17T09:40:11.155Z</time>
      </trkpt>
      <trkpt lat="39.27878667" lon="-8.63092333">
        <ele>6.0</ele>
        <time>2019-05-17T09:40:12.164Z</time>
      </trkpt>
      <trkpt lat="39.27878667" lon="-8.63092333">
        <ele>6.0</ele>
        <time>2019-05-17T09:40:13.179Z</time>
      </trkpt>
      <trkpt lat="39.27882667" lon="-8.63093333">
        <ele>6.0</ele>
        <time>2019-05-17T09:40:14.189Z</time>
      </trkpt>
      <trkpt lat="39.27882667" lon="-8.63093333">
        <ele>6.0</ele>
        <time>2019-05-17T09:40:15.167Z</time>
      </trkpt>
      <trkpt lat="39.27886" lon="-8.63094667">
        <ele>6.0</ele>
        <time>2019-05-17T09:40:16.186Z</time>
      </trkpt>
      <trkpt lat="39.27886" lon="-8.63094667">
        <ele>6.0</ele>
        <time>2019-05-17T09:40:17.186Z</time>
      </trkpt>
      <trkpt lat="39.27888833" lon="-8.630975">
        <ele>6.0</ele>
        <time>2019-05-17T09:40:18.155Z</time>
      </trkpt>
      <trkpt lat="39.27888833" lon="-8.630975">
        <ele>6.0</ele>
        <time>2019-05-17T09:40:19.168Z</time>
      </trkpt>
      <trkpt lat="39.27892" lon="-8.63100833">
        <ele>6.0</ele>
        <time>2019-05-17T09:40:20.178Z</time>
      </trkpt>
      <trkpt lat="39.27892" lon="-8.63100833">
        <ele>6.0</ele>
        <time>2019-05-17T09:40:21.153Z</time>
      </trkpt>
      <trkpt lat="39.27894667" lon="-8.63104833">
        <ele>7.0</ele>
        <time>2019-05-17T09:40:22.178Z</time>
      </trkpt>
      <trkpt lat="39.27894667" lon="-8.63104833">
        <ele>7.0</ele>
        <time>2019-05-17T09:40:23.169Z</time>
      </trkpt>
      <trkpt lat="39.27897333" lon="-8.631085">
        <ele>7.0</ele>
        <time>2019-05-17T09:40:24.181Z</time>
      </trkpt>
      <trkpt lat="39.27897333" lon="-8.631085">
        <ele>7.0</ele>
        <time>2019-05-17T09:40:25.154Z</time>
      </trkpt>
      <trkpt lat="39.27900167" lon="-8.63112333">
        <ele>7.0</ele>
        <time>2019-05-17T09:40:26.174Z</time>
      </trkpt>
      <trkpt lat="39.27900167" lon="-8.63112333">
        <ele>7.0</ele>
        <time>2019-05-17T09:40:27.188Z</time>
      </trkpt>
      <trkpt lat="39.27903167" lon="-8.63116167">
        <ele>7.0</ele>
        <time>2019-05-17T09:40:28.156Z</time>
      </trkpt>
      <trkpt lat="39.27903167" lon="-8.63116167">
        <ele>7.0</ele>
        <time>2019-05-17T09:40:29.168Z</time>
      </trkpt>
      <trkpt lat="39.27906333" lon="-8.63119667">
        <ele>7.0</ele>
        <time>2019-05-17T09:40:30.185Z</time>
      </trkpt>
      <trkpt lat="39.27908" lon="-8.63121833">
        <ele>7.0</ele>
        <time>2019-05-17T09:40:31.155Z</time>
      </trkpt>
      <trkpt lat="39.27908" lon="-8.63121833">
        <ele>7.0</ele>
        <time>2019-05-17T09:40:32.169Z</time>
      </trkpt>
      <trkpt lat="39.27910833" lon="-8.63126333">
        <ele>7.0</ele>
        <time>2019-05-17T09:40:33.177Z</time>
      </trkpt>
      <trkpt lat="39.27910833" lon="-8.63126333">
        <ele>7.0</ele>
        <time>2019-05-17T09:40:34.168Z</time>
      </trkpt>
      <trkpt lat="39.27913833" lon="-8.63130333">
        <ele>7.0</ele>
        <time>2019-05-17T09:40:35.171Z</time>
      </trkpt>
      <trkpt lat="39.279155" lon="-8.631325">
        <ele>7.0</ele>
        <time>2019-05-17T09:40:36.187Z</time>
      </trkpt>
      <trkpt lat="39.279155" lon="-8.631325">
        <ele>7.0</ele>
        <time>2019-05-17T09:40:37.167Z</time>
      </trkpt>
      <trkpt lat="39.27919" lon="-8.63136833">
        <ele>7.0</ele>
        <time>2019-05-17T09:40:38.180Z</time>
      </trkpt>
      <trkpt lat="39.27919" lon="-8.63136833">
        <ele>7.0</ele>
        <time>2019-05-17T09:40:39.160Z</time>
      </trkpt>
      <trkpt lat="39.27922667" lon="-8.63141">
        <ele>7.0</ele>
        <time>2019-05-17T09:40:40.170Z</time>
      </trkpt>
      <trkpt lat="39.27922667" lon="-8.63141">
        <ele>7.0</ele>
        <time>2019-05-17T09:40:41.182Z</time>
      </trkpt>
      <trkpt lat="39.27926167" lon="-8.63146333">
        <ele>7.0</ele>
        <time>2019-05-17T09:40:42.154Z</time>
      </trkpt>
      <trkpt lat="39.27926167" lon="-8.63146333">
        <ele>7.0</ele>
        <time>2019-05-17T09:40:43.166Z</time>
      </trkpt>
      <trkpt lat="39.2793" lon="-8.63151333">
        <ele>7.0</ele>
        <time>2019-05-17T09:40:44.186Z</time>
      </trkpt>
      <trkpt lat="39.2793" lon="-8.63151333">
        <ele>7.0</ele>
        <time>2019-05-17T09:40:45.155Z</time>
      </trkpt>
      <trkpt lat="39.27934333" lon="-8.63156167">
        <ele>7.0</ele>
        <time>2019-05-17T09:40:46.179Z</time>
      </trkpt>
      <trkpt lat="39.27934333" lon="-8.63156167">
        <ele>7.0</ele>
        <time>2019-05-17T09:40:47.150Z</time>
      </trkpt>
      <trkpt lat="39.279385" lon="-8.63161833">
        <ele>7.0</ele>
        <time>2019-05-17T09:40:48.158Z</time>
      </trkpt>
      <trkpt lat="39.279385" lon="-8.63161833">
        <ele>7.0</ele>
        <time>2019-05-17T09:40:49.165Z</time>
      </trkpt>
      <trkpt lat="39.27942667" lon="-8.631675">
        <ele>7.0</ele>
        <time>2019-05-17T09:40:50.168Z</time>
      </trkpt>
      <trkpt lat="39.27944833" lon="-8.63170333">
        <ele>7.0</ele>
        <time>2019-05-17T09:40:51.159Z</time>
      </trkpt>
      <trkpt lat="39.27944833" lon="-8.63170333">
        <ele>7.0</ele>
        <time>2019-05-17T09:40:52.174Z</time>
      </trkpt>
      <trkpt lat="39.27948833" lon="-8.63175833">
        <ele>7.0</ele>
        <time>2019-05-17T09:40:53.151Z</time>
      </trkpt>
      <trkpt lat="39.27950833" lon="-8.63178333">
        <ele>7.0</ele>
        <time>2019-05-17T09:40:54.171Z</time>
      </trkpt>
      <trkpt lat="39.27950833" lon="-8.63178333">
        <ele>7.0</ele>
        <time>2019-05-17T09:40:55.184Z</time>
      </trkpt>
      <trkpt lat="39.27955333" lon="-8.63184333">
        <ele>7.0</ele>
        <time>2019-05-17T09:40:56.153Z</time>
      </trkpt>
      <trkpt lat="39.27957667" lon="-8.63187">
        <ele>7.0</ele>
        <time>2019-05-17T09:40:57.168Z</time>
      </trkpt>
      <trkpt lat="39.27957667" lon="-8.63187">
        <ele>7.0</ele>
        <time>2019-05-17T09:40:58.158Z</time>
      </trkpt>
      <trkpt lat="39.27961833" lon="-8.63191833">
        <ele>7.0</ele>
        <time>2019-05-17T09:40:59.176Z</time>
      </trkpt>
      <trkpt lat="39.27963833" lon="-8.63194">
        <ele>7.0</ele>
        <time>2019-05-17T09:41:00.158Z</time>
      </trkpt>
      <trkpt lat="39.27963833" lon="-8.63194">
        <ele>7.0</ele>
        <time>2019-05-17T09:41:01.173Z</time>
      </trkpt>
      <trkpt lat="39.27967833" lon="-8.63199">
        <ele>6.0</ele>
        <time>2019-05-17T09:41:02.185Z</time>
      </trkpt>
      <trkpt lat="39.27967833" lon="-8.63199">
        <ele>6.0</ele>
        <time>2019-05-17T09:41:03.158Z</time>
      </trkpt>
      <trkpt lat="39.27971833" lon="-8.63204333">
        <ele>6.0</ele>
        <time>2019-05-17T09:41:04.173Z</time>
      </trkpt>
      <trkpt lat="39.27971833" lon="-8.63204333">
        <ele>6.0</ele>
        <time>2019-05-17T09:41:05.164Z</time>
      </trkpt>
      <trkpt lat="39.27975833" lon="-8.632095">
        <ele>7.0</ele>
        <time>2019-05-17T09:41:06.179Z</time>
      </trkpt>
      <trkpt lat="39.27975833" lon="-8.632095">
        <ele>7.0</ele>
        <time>2019-05-17T09:41:07.157Z</time>
      </trkpt>
      <trkpt lat="39.27979667" lon="-8.63214167">
        <ele>7.0</ele>
        <time>2019-05-17T09:41:08.171Z</time>
      </trkpt>
      <trkpt lat="39.27979667" lon="-8.63214167">
        <ele>7.0</ele>
        <time>2019-05-17T09:41:09.171Z</time>
      </trkpt>
      <trkpt lat="39.27983833" lon="-8.63219167">
        <ele>7.0</ele>
        <time>2019-05-17T09:41:10.171Z</time>
      </trkpt>
      <trkpt lat="39.27985833" lon="-8.63221833">
        <ele>7.0</ele>
        <time>2019-05-17T09:41:11.190Z</time>
      </trkpt>
      <trkpt lat="39.27987667" lon="-8.632245">
        <ele>7.0</ele>
        <time>2019-05-17T09:41:12.172Z</time>
      </trkpt>
      <trkpt lat="39.27987667" lon="-8.632245">
        <ele>7.0</ele>
        <time>2019-05-17T09:41:13.186Z</time>
      </trkpt>
      <trkpt lat="39.27991667" lon="-8.6323">
        <ele>7.0</ele>
        <time>2019-05-17T09:41:14.160Z</time>
      </trkpt>
      <trkpt lat="39.27991667" lon="-8.6323">
        <ele>7.0</ele>
        <time>2019-05-17T09:41:15.176Z</time>
      </trkpt>
      <trkpt lat="39.27995667" lon="-8.63236167">
        <ele>7.0</ele>
        <time>2019-05-17T09:41:16.184Z</time>
      </trkpt>
      <trkpt lat="39.27995667" lon="-8.63236167">
        <ele>7.0</ele>
        <time>2019-05-17T09:41:17.154Z</time>
      </trkpt>
      <trkpt lat="39.28000333" lon="-8.63241667">
        <ele>7.0</ele>
        <time>2019-05-17T09:41:18.166Z</time>
      </trkpt>
      <trkpt lat="39.28000333" lon="-8.63241667">
        <ele>7.0</ele>
        <time>2019-05-17T09:41:19.177Z</time>
      </trkpt>
      <trkpt lat="39.28004833" lon="-8.63247167">
        <ele>7.0</ele>
        <time>2019-05-17T09:41:20.186Z</time>
      </trkpt>
      <trkpt lat="39.28004833" lon="-8.63247167">
        <ele>7.0</ele>
        <time>2019-05-17T09:41:21.180Z</time>
      </trkpt>
      <trkpt lat="39.28008833" lon="-8.63252333">
        <ele>7.0</ele>
        <time>2019-05-17T09:41:22.156Z</time>
      </trkpt>
      <trkpt lat="39.28010667" lon="-8.63255">
        <ele>7.0</ele>
        <time>2019-05-17T09:41:23.176Z</time>
      </trkpt>
      <trkpt lat="39.28012667" lon="-8.63258">
        <ele>7.0</ele>
        <time>2019-05-17T09:41:24.177Z</time>
      </trkpt>
      <trkpt lat="39.28012667" lon="-8.63258">
        <ele>7.0</ele>
        <time>2019-05-17T09:41:25.171Z</time>
      </trkpt>
      <trkpt lat="39.28016833" lon="-8.63263667">
        <ele>7.0</ele>
        <time>2019-05-17T09:41:26.165Z</time>
      </trkpt>
      <trkpt lat="39.28016833" lon="-8.63263667">
        <ele>7.0</ele>
        <time>2019-05-17T09:41:27.181Z</time>
      </trkpt>
      <trkpt lat="39.280215" lon="-8.63269167">
        <ele>7.0</ele>
        <time>2019-05-17T09:41:28.154Z</time>
      </trkpt>
      <trkpt lat="39.280215" lon="-8.63269167">
        <ele>7.0</ele>
        <time>2019-05-17T09:41:29.166Z</time>
      </trkpt>
      <trkpt lat="39.28026167" lon="-8.63275333">
        <ele>6.0</ele>
        <time>2019-05-17T09:41:30.185Z</time>
      </trkpt>
      <trkpt lat="39.28026167" lon="-8.63275333">
        <ele>6.0</ele>
        <time>2019-05-17T09:41:31.185Z</time>
      </trkpt>
      <trkpt lat="39.28030833" lon="-8.63281333">
        <ele>6.0</ele>
        <time>2019-05-17T09:41:32.158Z</time>
      </trkpt>
      <trkpt lat="39.28032833" lon="-8.632845">
        <ele>6.0</ele>
        <time>2019-05-17T09:41:33.175Z</time>
      </trkpt>
      <trkpt lat="39.28032833" lon="-8.632845">
        <ele>6.0</ele>
        <time>2019-05-17T09:41:34.167Z</time>
      </trkpt>
      <trkpt lat="39.28036833" lon="-8.6329">
        <ele>6.0</ele>
        <time>2019-05-17T09:41:35.182Z</time>
      </trkpt>
      <trkpt lat="39.28038833" lon="-8.63292">
        <ele>6.0</ele>
        <time>2019-05-17T09:41:36.158Z</time>
      </trkpt>
      <trkpt lat="39.28038833" lon="-8.63292">
        <ele>6.0</ele>
        <time>2019-05-17T09:41:37.182Z</time>
      </trkpt>
      <trkpt lat="39.280405" lon="-8.632935">
        <ele>6.0</ele>
        <time>2019-05-17T09:41:38.152Z</time>
      </trkpt>
      <trkpt lat="39.280405" lon="-8.632935">
        <ele>6.0</ele>
        <time>2019-05-17T09:41:39.167Z</time>
      </trkpt>
      <trkpt lat="39.280405" lon="-8.63293167">
        <ele>6.0</ele>
        <time>2019-05-17T09:41:40.181Z</time>
      </trkpt>
      <trkpt lat="39.280405" lon="-8.63293167">
        <ele>6.0</ele>
        <time>2019-05-17T09:41:41.168Z</time>
      </trkpt>
      <trkpt lat="39.280405" lon="-8.63293167">
        <ele>6.0</ele>
        <time>2019-05-17T09:41:42.173Z</time>
      </trkpt>
      <trkpt lat="39.280405" lon="-8.63293167">
        <ele>6.0</ele>
        <time>2019-05-17T09:41:43.180Z</time>
      </trkpt>
      <trkpt lat="39.280405" lon="-8.63293167">
        <ele>6.0</ele>
        <time>2019-05-17T09:41:44.185Z</time>
      </trkpt>
      <trkpt lat="39.280405" lon="-8.63293167">
        <ele>6.0</ele>
        <time>2019-05-17T09:41:45.177Z</time>
      </trkpt>
      <trkpt lat="39.280405" lon="-8.63293167">
        <ele>6.0</ele>
        <time>2019-05-17T09:41:46.177Z</time>
      </trkpt>
      <trkpt lat="39.280405" lon="-8.63293167">
        <ele>6.0</ele>
        <time>2019-05-17T09:41:47.172Z</time>
      </trkpt>
      <trkpt lat="39.280405" lon="-8.63293167">
        <ele>6.0</ele>
        <time>2019-05-17T09:41:48.175Z</time>
      </trkpt>
      <trkpt lat="39.280405" lon="-8.63293167">
        <ele>6.0</ele>
        <time>2019-05-17T09:41:49.173Z</time>
      </trkpt>
      <trkpt lat="39.280405" lon="-8.63293167">
        <ele>6.0</ele>
        <time>2019-05-17T09:41:50.177Z</time>
      </trkpt>
      <trkpt lat="39.280405" lon="-8.63293167">
        <ele>6.0</ele>
        <time>2019-05-17T09:41:51.177Z</time>
      </trkpt>
      <trkpt lat="39.280405" lon="-8.63293167">
        <ele>6.0</ele>
        <time>2019-05-17T09:41:52.172Z</time>
      </trkpt>
      <trkpt lat="39.280405" lon="-8.63293167">
        <ele>6.0</ele>
        <time>2019-05-17T09:41:53.177Z</time>
      </trkpt>
      <trkpt lat="39.280405" lon="-8.63293167">
        <ele>6.0</ele>
        <time>2019-05-17T09:41:54.189Z</time>
      </trkpt>
      <trkpt lat="39.280405" lon="-8.63293167">
        <ele>6.0</ele>
        <time>2019-05-17T09:41:55.174Z</time>
      </trkpt>
      <trkpt lat="39.280405" lon="-8.63293167">
        <ele>6.0</ele>
        <time>2019-05-17T09:41:56.177Z</time>
      </trkpt>
      <trkpt lat="39.280405" lon="-8.63293167">
        <ele>6.0</ele>
        <time>2019-05-17T09:41:57.172Z</time>
      </trkpt>
      <trkpt lat="39.280405" lon="-8.63293167">
        <ele>6.0</ele>
        <time>2019-05-17T09:41:58.175Z</time>
      </trkpt>
      <trkpt lat="39.280405" lon="-8.63293167">
        <ele>6.0</ele>
        <time>2019-05-17T09:41:59.177Z</time>
      </trkpt>
      <trkpt lat="39.280405" lon="-8.63293167">
        <ele>6.0</ele>
        <time>2019-05-17T09:42:00.186Z</time>
      </trkpt>
      <trkpt lat="39.280405" lon="-8.63293167">
        <ele>6.0</ele>
        <time>2019-05-17T09:42:01.171Z</time>
      </trkpt>
      <trkpt lat="39.280405" lon="-8.63293167">
        <ele>6.0</ele>
        <time>2019-05-17T09:42:02.177Z</time>
      </trkpt>
      <trkpt lat="39.280405" lon="-8.63293167">
        <ele>6.0</ele>
        <time>2019-05-17T09:42:03.171Z</time>
      </trkpt>
      <trkpt lat="39.280405" lon="-8.63293167">
        <ele>6.0</ele>
        <time>2019-05-17T09:42:04.177Z</time>
      </trkpt>
      <trkpt lat="39.280405" lon="-8.63293167">
        <ele>6.0</ele>
        <time>2019-05-17T09:42:05.172Z</time>
      </trkpt>
      <trkpt lat="39.280405" lon="-8.63293167">
        <ele>6.0</ele>
        <time>2019-05-17T09:42:06.176Z</time>
      </trkpt>
      <trkpt lat="39.280405" lon="-8.63293167">
        <ele>6.0</ele>
        <time>2019-05-17T09:42:07.177Z</time>
      </trkpt>
      <trkpt lat="39.280405" lon="-8.63293167">
        <ele>6.0</ele>
        <time>2019-05-17T09:42:08.170Z</time>
      </trkpt>
      <trkpt lat="39.280405" lon="-8.63293167">
        <ele>6.0</ele>
        <time>2019-05-17T09:42:09.179Z</time>
      </trkpt>
      <trkpt lat="39.280405" lon="-8.63293167">
        <ele>6.0</ele>
        <time>2019-05-17T09:42:10.176Z</time>
      </trkpt>
      <trkpt lat="39.280405" lon="-8.63293167">
        <ele>6.0</ele>
        <time>2019-05-17T09:42:11.177Z</time>
      </trkpt>
      <trkpt lat="39.280405" lon="-8.63293167">
        <ele>6.0</ele>
        <time>2019-05-17T09:42:12.181Z</time>
      </trkpt>
      <trkpt lat="39.280405" lon="-8.63293167">
        <ele>6.0</ele>
        <time>2019-05-17T09:42:13.172Z</time>
      </trkpt>
      <trkpt lat="39.280405" lon="-8.63293167">
        <ele>6.0</ele>
        <time>2019-05-17T09:42:14.177Z</time>
      </trkpt>
      <trkpt lat="39.280405" lon="-8.63293167">
        <ele>6.0</ele>
        <time>2019-05-17T09:42:15.172Z</time>
      </trkpt>
      <trkpt lat="39.280405" lon="-8.63293167">
        <ele>6.0</ele>
        <time>2019-05-17T09:42:16.177Z</time>
      </trkpt>
      <trkpt lat="39.280405" lon="-8.63293167">
        <ele>6.0</ele>
        <time>2019-05-17T09:42:17.172Z</time>
      </trkpt>
      <trkpt lat="39.280405" lon="-8.63293167">
        <ele>6.0</ele>
        <time>2019-05-17T09:42:18.188Z</time>
      </trkpt>
      <trkpt lat="39.280405" lon="-8.63293167">
        <ele>6.0</ele>
        <time>2019-05-17T09:42:19.172Z</time>
      </trkpt>
      <trkpt lat="39.280405" lon="-8.63293167">
        <ele>6.0</ele>
        <time>2019-05-17T09:42:20.177Z</time>
      </trkpt>
      <trkpt lat="39.280405" lon="-8.63293167">
        <ele>6.0</ele>
        <time>2019-05-17T09:42:21.172Z</time>
      </trkpt>
      <trkpt lat="39.280405" lon="-8.63293167">
        <ele>6.0</ele>
        <time>2019-05-17T09:42:22.177Z</time>
      </trkpt>
      <trkpt lat="39.280405" lon="-8.63293167">
        <ele>6.0</ele>
        <time>2019-05-17T09:42:23.172Z</time>
      </trkpt>
      <trkpt lat="39.280405" lon="-8.63293167">
        <ele>6.0</ele>
        <time>2019-05-17T09:42:24.180Z</time>
      </trkpt>
      <trkpt lat="39.280405" lon="-8.63293167">
        <ele>6.0</ele>
        <time>2019-05-17T09:42:25.179Z</time>
      </trkpt>
      <trkpt lat="39.280405" lon="-8.63293167">
        <ele>6.0</ele>
        <time>2019-05-17T09:42:26.172Z</time>
      </trkpt>
      <trkpt lat="39.280405" lon="-8.63293167">
        <ele>6.0</ele>
        <time>2019-05-17T09:42:27.177Z</time>
      </trkpt>
      <trkpt lat="39.280405" lon="-8.63293167">
        <ele>6.0</ele>
        <time>2019-05-17T09:42:28.173Z</time>
      </trkpt>
      <trkpt lat="39.280405" lon="-8.63293167">
        <ele>6.0</ele>
        <time>2019-05-17T09:42:29.178Z</time>
      </trkpt>
      <trkpt lat="39.280405" lon="-8.63293167">
        <ele>6.0</ele>
        <time>2019-05-17T09:42:30.174Z</time>
      </trkpt>
      <trkpt lat="39.280405" lon="-8.63293167">
        <ele>6.0</ele>
        <time>2019-05-17T09:42:31.177Z</time>
      </trkpt>
      <trkpt lat="39.280405" lon="-8.63293167">
        <ele>6.0</ele>
        <time>2019-05-17T09:42:32.172Z</time>
      </trkpt>
      <trkpt lat="39.280405" lon="-8.632935">
        <ele>6.0</ele>
        <time>2019-05-17T09:42:33.177Z</time>
      </trkpt>
      <trkpt lat="39.280405" lon="-8.632935">
        <ele>6.0</ele>
        <time>2019-05-17T09:42:34.177Z</time>
      </trkpt>
      <trkpt lat="39.28042167" lon="-8.63293167">
        <ele>6.0</ele>
        <time>2019-05-17T09:42:35.177Z</time>
      </trkpt>
      <trkpt lat="39.28043333" lon="-8.63292667">
        <ele>7.0</ele>
        <time>2019-05-17T09:42:36.178Z</time>
      </trkpt>
      <trkpt lat="39.28043333" lon="-8.63292667">
        <ele>7.0</ele>
        <time>2019-05-17T09:42:37.172Z</time>
      </trkpt>
      <trkpt lat="39.28046167" lon="-8.63290833">
        <ele>7.0</ele>
        <time>2019-05-17T09:42:38.180Z</time>
      </trkpt>
      <trkpt lat="39.28047833" lon="-8.632895">
        <ele>7.0</ele>
        <time>2019-05-17T09:42:39.177Z</time>
      </trkpt>
      <trkpt lat="39.28047833" lon="-8.632895">
        <ele>7.0</ele>
        <time>2019-05-17T09:42:40.177Z</time>
      </trkpt>
      <trkpt lat="39.28051833" lon="-8.63287167">
        <ele>7.0</ele>
        <time>2019-05-17T09:42:41.177Z</time>
      </trkpt>
      <trkpt lat="39.28053667" lon="-8.63285667">
        <ele>7.0</ele>
        <time>2019-05-17T09:42:42.178Z</time>
      </trkpt>
      <trkpt lat="39.28053667" lon="-8.63285667">
        <ele>7.0</ele>
        <time>2019-05-17T09:42:43.172Z</time>
      </trkpt>
      <trkpt lat="39.28058333" lon="-8.63282833">
        <ele>7.0</ele>
        <time>2019-05-17T09:42:44.152Z</time>
      </trkpt>
      <trkpt lat="39.28058333" lon="-8.63282833">
        <ele>7.0</ele>
        <time>2019-05-17T09:42:45.170Z</time>
      </trkpt>
      <trkpt lat="39.28063" lon="-8.63280167">
        <ele>7.0</ele>
        <time>2019-05-17T09:42:46.183Z</time>
      </trkpt>
      <trkpt lat="39.28063" lon="-8.63280167">
        <ele>7.0</ele>
        <time>2019-05-17T09:42:47.167Z</time>
      </trkpt>
      <trkpt lat="39.28067667" lon="-8.63277667">
        <ele>7.0</ele>
        <time>2019-05-17T09:42:48.179Z</time>
      </trkpt>
      <trkpt lat="39.28067667" lon="-8.63277667">
        <ele>7.0</ele>
        <time>2019-05-17T09:42:49.152Z</time>
      </trkpt>
      <trkpt lat="39.28072333" lon="-8.63274833">
        <ele>7.0</ele>
        <time>2019-05-17T09:42:50.156Z</time>
      </trkpt>
      <trkpt lat="39.28072333" lon="-8.63274833">
        <ele>7.0</ele>
        <time>2019-05-17T09:42:51.166Z</time>
      </trkpt>
      <trkpt lat="39.28077" lon="-8.63271667">
        <ele>7.0</ele>
        <time>2019-05-17T09:42:52.181Z</time>
      </trkpt>
      <trkpt lat="39.28077" lon="-8.63271667">
        <ele>7.0</ele>
        <time>2019-05-17T09:42:53.152Z</time>
      </trkpt>
      <trkpt lat="39.28081833" lon="-8.63268667">
        <ele>7.0</ele>
        <time>2019-05-17T09:42:54.167Z</time>
      </trkpt>
      <trkpt lat="39.28081833" lon="-8.63268667">
        <ele>7.0</ele>
        <time>2019-05-17T09:42:55.164Z</time>
      </trkpt>
      <trkpt lat="39.28086667" lon="-8.63266">
        <ele>7.0</ele>
        <time>2019-05-17T09:42:56.171Z</time>
      </trkpt>
      <trkpt lat="39.28086667" lon="-8.63266">
        <ele>7.0</ele>
        <time>2019-05-17T09:42:57.168Z</time>
      </trkpt>
      <trkpt lat="39.28091833" lon="-8.63263">
        <ele>7.0</ele>
        <time>2019-05-17T09:42:58.183Z</time>
      </trkpt>
      <trkpt lat="39.28091833" lon="-8.63263">
        <ele>7.0</ele>
        <time>2019-05-17T09:42:59.166Z</time>
      </trkpt>
      <trkpt lat="39.28097" lon="-8.632595">
        <ele>7.0</ele>
        <time>2019-05-17T09:43:00.183Z</time>
      </trkpt>
      <trkpt lat="39.28097" lon="-8.632595">
        <ele>7.0</ele>
        <time>2019-05-17T09:43:01.174Z</time>
      </trkpt>
      <trkpt lat="39.281025" lon="-8.63256">
        <ele>7.0</ele>
        <time>2019-05-17T09:43:02.185Z</time>
      </trkpt>
      <trkpt lat="39.281025" lon="-8.63256">
        <ele>7.0</ele>
        <time>2019-05-17T09:43:03.185Z</time>
      </trkpt>
      <trkpt lat="39.28108333" lon="-8.63252333">
        <ele>7.0</ele>
        <time>2019-05-17T09:43:04.154Z</time>
      </trkpt>
      <trkpt lat="39.28111333" lon="-8.632505">
        <ele>7.0</ele>
        <time>2019-05-17T09:43:05.153Z</time>
      </trkpt>
      <trkpt lat="39.28114167" lon="-8.632485">
        <ele>7.0</ele>
        <time>2019-05-17T09:43:06.171Z</time>
      </trkpt>
      <trkpt lat="39.28114167" lon="-8.632485">
        <ele>7.0</ele>
        <time>2019-05-17T09:43:07.184Z</time>
      </trkpt>
      <trkpt lat="39.2812" lon="-8.63244167">
        <ele>7.0</ele>
        <time>2019-05-17T09:43:08.154Z</time>
      </trkpt>
      <trkpt lat="39.2812" lon="-8.63244167">
        <ele>7.0</ele>
        <time>2019-05-17T09:43:09.185Z</time>
      </trkpt>
      <trkpt lat="39.28125833" lon="-8.632405">
        <ele>7.0</ele>
        <time>2019-05-17T09:43:10.169Z</time>
      </trkpt>
      <trkpt lat="39.28129167" lon="-8.63238333">
        <ele>7.0</ele>
        <time>2019-05-17T09:43:11.174Z</time>
      </trkpt>
      <trkpt lat="39.281325" lon="-8.63236167">
        <ele>7.0</ele>
        <time>2019-05-17T09:43:12.153Z</time>
      </trkpt>
      <trkpt lat="39.281325" lon="-8.63236167">
        <ele>7.0</ele>
        <time>2019-05-17T09:43:13.180Z</time>
      </trkpt>
      <trkpt lat="39.28139167" lon="-8.63232167">
        <ele>7.0</ele>
        <time>2019-05-17T09:43:14.153Z</time>
      </trkpt>
      <trkpt lat="39.281425" lon="-8.6323">
        <ele>6.0</ele>
        <time>2019-05-17T09:43:15.187Z</time>
      </trkpt>
      <trkpt lat="39.281425" lon="-8.6323">
        <ele>6.0</ele>
        <time>2019-05-17T09:43:16.158Z</time>
      </trkpt>
      <trkpt lat="39.28148833" lon="-8.63226167">
        <ele>7.0</ele>
        <time>2019-05-17T09:43:17.174Z</time>
      </trkpt>
      <trkpt lat="39.28151833" lon="-8.632245">
        <ele>6.0</ele>
        <time>2019-05-17T09:43:18.176Z</time>
      </trkpt>
      <trkpt lat="39.28151833" lon="-8.632245">
        <ele>6.0</ele>
        <time>2019-05-17T09:43:19.156Z</time>
      </trkpt>
      <trkpt lat="39.28157833" lon="-8.63221333">
        <ele>7.0</ele>
        <time>2019-05-17T09:43:20.179Z</time>
      </trkpt>
      <trkpt lat="39.28157833" lon="-8.63221333">
        <ele>7.0</ele>
        <time>2019-05-17T09:43:21.164Z</time>
      </trkpt>
      <trkpt lat="39.28163667" lon="-8.63218167">
        <ele>7.0</ele>
        <time>2019-05-17T09:43:22.183Z</time>
      </trkpt>
      <trkpt lat="39.28163667" lon="-8.63218167">
        <ele>7.0</ele>
        <time>2019-05-17T09:43:23.170Z</time>
      </trkpt>
      <trkpt lat="39.28169" lon="-8.63214167">
        <ele>7.0</ele>
        <time>2019-05-17T09:43:24.192Z</time>
      </trkpt>
      <trkpt lat="39.28169" lon="-8.63214167">
        <ele>7.0</ele>
        <time>2019-05-17T09:43:25.151Z</time>
      </trkpt>
      <trkpt lat="39.28174" lon="-8.63210833">
        <ele>7.0</ele>
        <time>2019-05-17T09:43:26.172Z</time>
      </trkpt>
      <trkpt lat="39.28174" lon="-8.63210833">
        <ele>7.0</ele>
        <time>2019-05-17T09:43:27.168Z</time>
      </trkpt>
      <trkpt lat="39.281785" lon="-8.63207">
        <ele>6.0</ele>
        <time>2019-05-17T09:43:28.187Z</time>
      </trkpt>
      <trkpt lat="39.281785" lon="-8.63207">
        <ele>6.0</ele>
        <time>2019-05-17T09:43:29.168Z</time>
      </trkpt>
      <trkpt lat="39.28183167" lon="-8.63204167">
        <ele>7.0</ele>
        <time>2019-05-17T09:43:30.187Z</time>
      </trkpt>
      <trkpt lat="39.28183167" lon="-8.63204167">
        <ele>7.0</ele>
        <time>2019-05-17T09:43:31.183Z</time>
      </trkpt>
      <trkpt lat="39.28187833" lon="-8.63201667">
        <ele>7.0</ele>
        <time>2019-05-17T09:43:32.153Z</time>
      </trkpt>
      <trkpt lat="39.28187833" lon="-8.63201667">
        <ele>7.0</ele>
        <time>2019-05-17T09:43:33.152Z</time>
      </trkpt>
      <trkpt lat="39.28192667" lon="-8.63198833">
        <ele>7.0</ele>
        <time>2019-05-17T09:43:34.172Z</time>
      </trkpt>
      <trkpt lat="39.28195167" lon="-8.63197167">
        <ele>7.0</ele>
        <time>2019-05-17T09:43:35.173Z</time>
      </trkpt>
      <trkpt lat="39.281975" lon="-8.63195833">
        <ele>7.0</ele>
        <time>2019-05-17T09:43:36.176Z</time>
      </trkpt>
      <trkpt lat="39.281975" lon="-8.63195833">
        <ele>7.0</ele>
        <time>2019-05-17T09:43:37.153Z</time>
      </trkpt>
      <trkpt lat="39.28202833" lon="-8.63192167">
        <ele>7.0</ele>
        <time>2019-05-17T09:43:38.175Z</time>
      </trkpt>
      <trkpt lat="39.28202833" lon="-8.63192167">
        <ele>7.0</ele>
        <time>2019-05-17T09:43:39.154Z</time>
      </trkpt>
      <trkpt lat="39.28208167" lon="-8.63188667">
        <ele>7.0</ele>
        <time>2019-05-17T09:43:40.175Z</time>
      </trkpt>
      <trkpt lat="39.28208167" lon="-8.63188667">
        <ele>7.0</ele>
        <time>2019-05-17T09:43:41.182Z</time>
      </trkpt>
      <trkpt lat="39.28213667" lon="-8.63185">
        <ele>7.0</ele>
        <time>2019-05-17T09:43:42.165Z</time>
      </trkpt>
      <trkpt lat="39.28216333" lon="-8.63183167">
        <ele>7.0</ele>
        <time>2019-05-17T09:43:43.189Z</time>
      </trkpt>
      <trkpt lat="39.28216333" lon="-8.63183167">
        <ele>7.0</ele>
        <time>2019-05-17T09:43:44.164Z</time>
      </trkpt>
      <trkpt lat="39.28222" lon="-8.63179333">
        <ele>7.0</ele>
        <time>2019-05-17T09:43:45.179Z</time>
      </trkpt>
      <trkpt lat="39.28224833" lon="-8.631775">
        <ele>7.0</ele>
        <time>2019-05-17T09:43:46.166Z</time>
      </trkpt>
      <trkpt lat="39.28224833" lon="-8.631775">
        <ele>7.0</ele>
        <time>2019-05-17T09:43:47.152Z</time>
      </trkpt>
      <trkpt lat="39.28230333" lon="-8.63174167">
        <ele>7.0</ele>
        <time>2019-05-17T09:43:48.165Z</time>
      </trkpt>
      <trkpt lat="39.28230333" lon="-8.63174167">
        <ele>7.0</ele>
        <time>2019-05-17T09:43:49.183Z</time>
      </trkpt>
      <trkpt lat="39.28235667" lon="-8.63170167">
        <ele>7.0</ele>
        <time>2019-05-17T09:43:50.156Z</time>
      </trkpt>
      <trkpt lat="39.28235667" lon="-8.63170167">
        <ele>7.0</ele>
        <time>2019-05-17T09:43:51.189Z</time>
      </trkpt>
      <trkpt lat="39.28241667" lon="-8.63166167">
        <ele>7.0</ele>
        <time>2019-05-17T09:43:52.160Z</time>
      </trkpt>
      <trkpt lat="39.28244667" lon="-8.63164667">
        <ele>7.0</ele>
        <time>2019-05-17T09:43:53.150Z</time>
      </trkpt>
      <trkpt lat="39.282475" lon="-8.63163167">
        <ele>6.0</ele>
        <time>2019-05-17T09:43:54.182Z</time>
      </trkpt>
      <trkpt lat="39.282475" lon="-8.63163167">
        <ele>6.0</ele>
        <time>2019-05-17T09:43:55.162Z</time>
      </trkpt>
      <trkpt lat="39.28252833" lon="-8.631605">
        <ele>7.0</ele>
        <time>2019-05-17T09:43:56.179Z</time>
      </trkpt>
      <trkpt lat="39.28252833" lon="-8.631605">
        <ele>7.0</ele>
        <time>2019-05-17T09:43:57.160Z</time>
      </trkpt>
      <trkpt lat="39.28258167" lon="-8.63158333">
        <ele>7.0</ele>
        <time>2019-05-17T09:43:58.174Z</time>
      </trkpt>
      <trkpt lat="39.28258167" lon="-8.63158333">
        <ele>7.0</ele>
        <time>2019-05-17T09:43:59.186Z</time>
      </trkpt>
      <trkpt lat="39.28263667" lon="-8.63156667">
        <ele>7.0</ele>
        <time>2019-05-17T09:44:00.165Z</time>
      </trkpt>
      <trkpt lat="39.28263667" lon="-8.63156667">
        <ele>7.0</ele>
        <time>2019-05-17T09:44:01.154Z</time>
      </trkpt>
      <trkpt lat="39.28269" lon="-8.63155667">
        <ele>6.0</ele>
        <time>2019-05-17T09:44:02.174Z</time>
      </trkpt>
      <trkpt lat="39.28269" lon="-8.63155667">
        <ele>6.0</ele>
        <time>2019-05-17T09:44:03.156Z</time>
      </trkpt>
      <trkpt lat="39.28274667" lon="-8.63155333">
        <ele>6.0</ele>
        <time>2019-05-17T09:44:04.175Z</time>
      </trkpt>
      <trkpt lat="39.28274667" lon="-8.63155333">
        <ele>6.0</ele>
        <time>2019-05-17T09:44:05.169Z</time>
      </trkpt>
      <trkpt lat="39.28280667" lon="-8.63155">
        <ele>6.0</ele>
        <time>2019-05-17T09:44:06.183Z</time>
      </trkpt>
      <trkpt lat="39.28280667" lon="-8.63155">
        <ele>6.0</ele>
        <time>2019-05-17T09:44:07.160Z</time>
      </trkpt>
      <trkpt lat="39.28286333" lon="-8.63155167">
        <ele>6.0</ele>
        <time>2019-05-17T09:44:08.179Z</time>
      </trkpt>
      <trkpt lat="39.28286333" lon="-8.63155167">
        <ele>6.0</ele>
        <time>2019-05-17T09:44:09.165Z</time>
      </trkpt>
      <trkpt lat="39.28291833" lon="-8.63156">
        <ele>6.0</ele>
        <time>2019-05-17T09:44:10.165Z</time>
      </trkpt>
      <trkpt lat="39.28291833" lon="-8.63156">
        <ele>6.0</ele>
        <time>2019-05-17T09:44:11.180Z</time>
      </trkpt>
      <trkpt lat="39.282975" lon="-8.63157667">
        <ele>7.0</ele>
        <time>2019-05-17T09:44:12.151Z</time>
      </trkpt>
      <trkpt lat="39.282975" lon="-8.63157667">
        <ele>7.0</ele>
        <time>2019-05-17T09:44:13.181Z</time>
      </trkpt>
      <trkpt lat="39.28303167" lon="-8.63159167">
        <ele>8.0</ele>
        <time>2019-05-17T09:44:14.153Z</time>
      </trkpt>
      <trkpt lat="39.28306333" lon="-8.63160667">
        <ele>8.0</ele>
        <time>2019-05-17T09:44:15.150Z</time>
      </trkpt>
      <trkpt lat="39.28306333" lon="-8.63160667">
        <ele>8.0</ele>
        <time>2019-05-17T09:44:16.188Z</time>
      </trkpt>
      <trkpt lat="39.28312667" lon="-8.63163833">
        <ele>8.0</ele>
        <time>2019-05-17T09:44:17.158Z</time>
      </trkpt>
      <trkpt lat="39.28315833" lon="-8.63165">
        <ele>9.0</ele>
        <time>2019-05-17T09:44:18.152Z</time>
      </trkpt>
      <trkpt lat="39.28315833" lon="-8.63165">
        <ele>9.0</ele>
        <time>2019-05-17T09:44:19.168Z</time>
      </trkpt>
      <trkpt lat="39.283215" lon="-8.63167167">
        <ele>9.0</ele>
        <time>2019-05-17T09:44:20.184Z</time>
      </trkpt>
      <trkpt lat="39.283215" lon="-8.63167167">
        <ele>9.0</ele>
        <time>2019-05-17T09:44:21.167Z</time>
      </trkpt>
      <trkpt lat="39.283265" lon="-8.6317">
        <ele>9.0</ele>
        <time>2019-05-17T09:44:22.155Z</time>
      </trkpt>
      <trkpt lat="39.283265" lon="-8.6317">
        <ele>9.0</ele>
        <time>2019-05-17T09:44:23.178Z</time>
      </trkpt>
      <trkpt lat="39.28330667" lon="-8.63173167">
        <ele>11.0</ele>
        <time>2019-05-17T09:44:24.153Z</time>
      </trkpt>
      <trkpt lat="39.28330667" lon="-8.63173167">
        <ele>11.0</ele>
        <time>2019-05-17T09:44:25.166Z</time>
      </trkpt>
      <trkpt lat="39.283355" lon="-8.63176667">
        <ele>11.0</ele>
        <time>2019-05-17T09:44:26.182Z</time>
      </trkpt>
      <trkpt lat="39.283355" lon="-8.63176667">
        <ele>11.0</ele>
        <time>2019-05-17T09:44:27.154Z</time>
      </trkpt>
      <trkpt lat="39.28340167" lon="-8.63179833">
        <ele>11.0</ele>
        <time>2019-05-17T09:44:28.170Z</time>
      </trkpt>
      <trkpt lat="39.28340167" lon="-8.63179833">
        <ele>11.0</ele>
        <time>2019-05-17T09:44:29.171Z</time>
      </trkpt>
      <trkpt lat="39.28345167" lon="-8.63182667">
        <ele>11.0</ele>
        <time>2019-05-17T09:44:30.190Z</time>
      </trkpt>
      <trkpt lat="39.28345167" lon="-8.63182667">
        <ele>11.0</ele>
        <time>2019-05-17T09:44:31.155Z</time>
      </trkpt>
      <trkpt lat="39.28351333" lon="-8.63186333">
        <ele>11.0</ele>
        <time>2019-05-17T09:44:32.175Z</time>
      </trkpt>
      <trkpt lat="39.28351333" lon="-8.63186333">
        <ele>11.0</ele>
        <time>2019-05-17T09:44:33.173Z</time>
      </trkpt>
      <trkpt lat="39.28357" lon="-8.63190333">
        <ele>11.0</ele>
        <time>2019-05-17T09:44:34.183Z</time>
      </trkpt>
      <trkpt lat="39.28357" lon="-8.63190333">
        <ele>11.0</ele>
        <time>2019-05-17T09:44:35.155Z</time>
      </trkpt>
      <trkpt lat="39.28363333" lon="-8.631945">
        <ele>12.0</ele>
        <time>2019-05-17T09:44:36.192Z</time>
      </trkpt>
      <trkpt lat="39.28363333" lon="-8.631945">
        <ele>12.0</ele>
        <time>2019-05-17T09:44:37.177Z</time>
      </trkpt>
      <trkpt lat="39.28369" lon="-8.63199167">
        <ele>11.0</ele>
        <time>2019-05-17T09:44:38.152Z</time>
      </trkpt>
      <trkpt lat="39.28371833" lon="-8.63201167">
        <ele>11.0</ele>
        <time>2019-05-17T09:44:39.185Z</time>
      </trkpt>
      <trkpt lat="39.28371833" lon="-8.63201167">
        <ele>11.0</ele>
        <time>2019-05-17T09:44:40.180Z</time>
      </trkpt>
      <trkpt lat="39.28377667" lon="-8.63205667">
        <ele>11.0</ele>
        <time>2019-05-17T09:44:41.151Z</time>
      </trkpt>
      <trkpt lat="39.283805" lon="-8.63207833">
        <ele>12.0</ele>
        <time>2019-05-17T09:44:42.187Z</time>
      </trkpt>
      <trkpt lat="39.283805" lon="-8.63207833">
        <ele>12.0</ele>
        <time>2019-05-17T09:44:43.167Z</time>
      </trkpt>
      <trkpt lat="39.28385833" lon="-8.632125">
        <ele>12.0</ele>
        <time>2019-05-17T09:44:44.189Z</time>
      </trkpt>
      <trkpt lat="39.28385833" lon="-8.632125">
        <ele>12.0</ele>
        <time>2019-05-17T09:44:45.177Z</time>
      </trkpt>
      <trkpt lat="39.283915" lon="-8.63216833">
        <ele>12.0</ele>
        <time>2019-05-17T09:44:46.152Z</time>
      </trkpt>
      <trkpt lat="39.28394333" lon="-8.63218833">
        <ele>12.0</ele>
        <time>2019-05-17T09:44:47.182Z</time>
      </trkpt>
      <trkpt lat="39.28397333" lon="-8.63221">
        <ele>12.0</ele>
        <time>2019-05-17T09:44:48.158Z</time>
      </trkpt>
      <trkpt lat="39.28397333" lon="-8.63221">
        <ele>12.0</ele>
        <time>2019-05-17T09:44:49.170Z</time>
      </trkpt>
      <trkpt lat="39.28403167" lon="-8.632245">
        <ele>11.0</ele>
        <time>2019-05-17T09:44:50.186Z</time>
      </trkpt>
      <trkpt lat="39.28403167" lon="-8.632245">
        <ele>11.0</ele>
        <time>2019-05-17T09:44:51.164Z</time>
      </trkpt>
      <trkpt lat="39.28409333" lon="-8.632275">
        <ele>12.0</ele>
        <time>2019-05-17T09:44:52.174Z</time>
      </trkpt>
      <trkpt lat="39.28409333" lon="-8.632275">
        <ele>12.0</ele>
        <time>2019-05-17T09:44:53.150Z</time>
      </trkpt>
      <trkpt lat="39.28415667" lon="-8.63229833">
        <ele>12.0</ele>
        <time>2019-05-17T09:44:54.165Z</time>
      </trkpt>
      <trkpt lat="39.28415667" lon="-8.63229833">
        <ele>12.0</ele>
        <time>2019-05-17T09:44:55.164Z</time>
      </trkpt>
      <trkpt lat="39.28422" lon="-8.63231333">
        <ele>12.0</ele>
        <time>2019-05-17T09:44:56.176Z</time>
      </trkpt>
      <trkpt lat="39.28422" lon="-8.63231333">
        <ele>12.0</ele>
        <time>2019-05-17T09:44:57.151Z</time>
      </trkpt>
      <trkpt lat="39.28428333" lon="-8.63232333">
        <ele>12.0</ele>
        <time>2019-05-17T09:44:58.160Z</time>
      </trkpt>
      <trkpt lat="39.28428333" lon="-8.63232333">
        <ele>12.0</ele>
        <time>2019-05-17T09:44:59.171Z</time>
      </trkpt>
      <trkpt lat="39.28434667" lon="-8.63232833">
        <ele>12.0</ele>
        <time>2019-05-17T09:45:00.167Z</time>
      </trkpt>
      <trkpt lat="39.28434667" lon="-8.63232833">
        <ele>12.0</ele>
        <time>2019-05-17T09:45:01.178Z</time>
      </trkpt>
      <trkpt lat="39.28441167" lon="-8.63233167">
        <ele>12.0</ele>
        <time>2019-05-17T09:45:02.190Z</time>
      </trkpt>
      <trkpt lat="39.28441167" lon="-8.63233167">
        <ele>12.0</ele>
        <time>2019-05-17T09:45:03.161Z</time>
      </trkpt>
      <trkpt lat="39.28448" lon="-8.63233">
        <ele>12.0</ele>
        <time>2019-05-17T09:45:04.175Z</time>
      </trkpt>
      <trkpt lat="39.28451333" lon="-8.63232667">
        <ele>12.0</ele>
        <time>2019-05-17T09:45:05.153Z</time>
      </trkpt>
      <trkpt lat="39.28454667" lon="-8.63232833">
        <ele>12.0</ele>
        <time>2019-05-17T09:45:06.174Z</time>
      </trkpt>
      <trkpt lat="39.28454667" lon="-8.63232833">
        <ele>12.0</ele>
        <time>2019-05-17T09:45:07.167Z</time>
      </trkpt>
      <trkpt lat="39.28461167" lon="-8.63233">
        <ele>12.0</ele>
        <time>2019-05-17T09:45:08.182Z</time>
      </trkpt>
      <trkpt lat="39.28461167" lon="-8.63233">
        <ele>12.0</ele>
        <time>2019-05-17T09:45:09.181Z</time>
      </trkpt>
      <trkpt lat="39.28467667" lon="-8.63233">
        <ele>12.0</ele>
        <time>2019-05-17T09:45:10.189Z</time>
      </trkpt>
      <trkpt lat="39.28470833" lon="-8.63233">
        <ele>12.0</ele>
        <time>2019-05-17T09:45:11.174Z</time>
      </trkpt>
      <trkpt lat="39.28473833" lon="-8.63233167">
        <ele>12.0</ele>
        <time>2019-05-17T09:45:12.155Z</time>
      </trkpt>
      <trkpt lat="39.28473833" lon="-8.63233167">
        <ele>12.0</ele>
        <time>2019-05-17T09:45:13.164Z</time>
      </trkpt>
      <trkpt lat="39.28479833" lon="-8.63233333">
        <ele>12.0</ele>
        <time>2019-05-17T09:45:14.177Z</time>
      </trkpt>
      <trkpt lat="39.28479833" lon="-8.63233333">
        <ele>12.0</ele>
        <time>2019-05-17T09:45:15.169Z</time>
      </trkpt>
      <trkpt lat="39.28485833" lon="-8.63233333">
        <ele>13.0</ele>
        <time>2019-05-17T09:45:16.178Z</time>
      </trkpt>
      <trkpt lat="39.28485833" lon="-8.63233333">
        <ele>13.0</ele>
        <time>2019-05-17T09:45:17.188Z</time>
      </trkpt>
      <trkpt lat="39.28491833" lon="-8.63233333">
        <ele>13.0</ele>
        <time>2019-05-17T09:45:18.170Z</time>
      </trkpt>
      <trkpt lat="39.28491833" lon="-8.63233333">
        <ele>13.0</ele>
        <time>2019-05-17T09:45:19.162Z</time>
      </trkpt>
      <trkpt lat="39.28497833" lon="-8.63233333">
        <ele>13.0</ele>
        <time>2019-05-17T09:45:20.186Z</time>
      </trkpt>
      <trkpt lat="39.28497833" lon="-8.63233333">
        <ele>13.0</ele>
        <time>2019-05-17T09:45:21.152Z</time>
      </trkpt>
      <trkpt lat="39.28504" lon="-8.632335">
        <ele>13.0</ele>
        <time>2019-05-17T09:45:22.163Z</time>
      </trkpt>
      <trkpt lat="39.28506833" lon="-8.63233667">
        <ele>13.0</ele>
        <time>2019-05-17T09:45:23.179Z</time>
      </trkpt>
      <trkpt lat="39.28509833" lon="-8.63234">
        <ele>13.0</ele>
        <time>2019-05-17T09:45:24.159Z</time>
      </trkpt>
      <trkpt lat="39.28509833" lon="-8.63234">
        <ele>13.0</ele>
        <time>2019-05-17T09:45:25.189Z</time>
      </trkpt>
      <trkpt lat="39.28515333" lon="-8.63234167">
        <ele>13.0</ele>
        <time>2019-05-17T09:45:26.157Z</time>
      </trkpt>
      <trkpt lat="39.28515333" lon="-8.63234167">
        <ele>13.0</ele>
        <time>2019-05-17T09:45:27.151Z</time>
      </trkpt>
      <trkpt lat="39.28521167" lon="-8.63233833">
        <ele>13.0</ele>
        <time>2019-05-17T09:45:28.165Z</time>
      </trkpt>
      <trkpt lat="39.28521167" lon="-8.63233833">
        <ele>13.0</ele>
        <time>2019-05-17T09:45:29.154Z</time>
      </trkpt>
      <trkpt lat="39.28527333" lon="-8.63233833">
        <ele>13.0</ele>
        <time>2019-05-17T09:45:30.174Z</time>
      </trkpt>
      <trkpt lat="39.28527333" lon="-8.63233833">
        <ele>13.0</ele>
        <time>2019-05-17T09:45:31.186Z</time>
      </trkpt>
      <trkpt lat="39.28533667" lon="-8.632335">
        <ele>13.0</ele>
        <time>2019-05-17T09:45:32.163Z</time>
      </trkpt>
      <trkpt lat="39.28533667" lon="-8.632335">
        <ele>13.0</ele>
        <time>2019-05-17T09:45:33.188Z</time>
      </trkpt>
      <trkpt lat="39.28539833" lon="-8.63233333">
        <ele>12.0</ele>
        <time>2019-05-17T09:45:34.162Z</time>
      </trkpt>
      <trkpt lat="39.28542833" lon="-8.63233333">
        <ele>12.0</ele>
        <time>2019-05-17T09:45:35.173Z</time>
      </trkpt>
      <trkpt lat="39.28546" lon="-8.63233333">
        <ele>12.0</ele>
        <time>2019-05-17T09:45:36.152Z</time>
      </trkpt>
      <trkpt lat="39.28546" lon="-8.63233333">
        <ele>12.0</ele>
        <time>2019-05-17T09:45:37.163Z</time>
      </trkpt>
      <trkpt lat="39.28552333" lon="-8.63233167">
        <ele>12.0</ele>
        <time>2019-05-17T09:45:38.182Z</time>
      </trkpt>
      <trkpt lat="39.28552333" lon="-8.63233167">
        <ele>12.0</ele>
        <time>2019-05-17T09:45:39.170Z</time>
      </trkpt>
      <trkpt lat="39.28558833" lon="-8.63233333">
        <ele>12.0</ele>
        <time>2019-05-17T09:45:40.179Z</time>
      </trkpt>
      <trkpt lat="39.28558833" lon="-8.63233333">
        <ele>12.0</ele>
        <time>2019-05-17T09:45:41.189Z</time>
      </trkpt>
      <trkpt lat="39.28558833" lon="-8.63233333">
        <ele>12.0</ele>
        <time>2019-05-17T09:45:42.153Z</time>
      </trkpt>
      <trkpt lat="39.28565167" lon="-8.632335">
        <ele>12.0</ele>
        <time>2019-05-17T09:45:43.172Z</time>
      </trkpt>
      <trkpt lat="39.28572" lon="-8.63233333">
        <ele>12.0</ele>
        <time>2019-05-17T09:45:44.157Z</time>
      </trkpt>
      <trkpt lat="39.28572" lon="-8.63233333">
        <ele>12.0</ele>
        <time>2019-05-17T09:45:45.185Z</time>
      </trkpt>
      <trkpt lat="39.28579667" lon="-8.63233333">
        <ele>12.0</ele>
        <time>2019-05-17T09:45:46.162Z</time>
      </trkpt>
      <trkpt lat="39.28583333" lon="-8.632335">
        <ele>12.0</ele>
        <time>2019-05-17T09:45:47.176Z</time>
      </trkpt>
      <trkpt lat="39.28587" lon="-8.63233333">
        <ele>12.0</ele>
        <time>2019-05-17T09:45:48.155Z</time>
      </trkpt>
      <trkpt lat="39.28587" lon="-8.63233333">
        <ele>12.0</ele>
        <time>2019-05-17T09:45:49.167Z</time>
      </trkpt>
      <trkpt lat="39.28594333" lon="-8.63232833">
        <ele>12.0</ele>
        <time>2019-05-17T09:45:50.178Z</time>
      </trkpt>
      <trkpt lat="39.28597833" lon="-8.63232667">
        <ele>12.0</ele>
        <time>2019-05-17T09:45:51.169Z</time>
      </trkpt>
      <trkpt lat="39.28597833" lon="-8.63232667">
        <ele>12.0</ele>
        <time>2019-05-17T09:45:52.187Z</time>
      </trkpt>
      <trkpt lat="39.28604833" lon="-8.632325">
        <ele>11.0</ele>
        <time>2019-05-17T09:45:53.161Z</time>
      </trkpt>
      <trkpt lat="39.28608167" lon="-8.63232333">
        <ele>11.0</ele>
        <time>2019-05-17T09:45:54.180Z</time>
      </trkpt>
      <trkpt lat="39.28608167" lon="-8.63232333">
        <ele>11.0</ele>
        <time>2019-05-17T09:45:55.151Z</time>
      </trkpt>
      <trkpt lat="39.28614833" lon="-8.63231333">
        <ele>11.0</ele>
        <time>2019-05-17T09:45:56.163Z</time>
      </trkpt>
      <trkpt lat="39.28614833" lon="-8.63231333">
        <ele>11.0</ele>
        <time>2019-05-17T09:45:57.182Z</time>
      </trkpt>
      <trkpt lat="39.286215" lon="-8.632305">
        <ele>11.0</ele>
        <time>2019-05-17T09:45:58.150Z</time>
      </trkpt>
      <trkpt lat="39.286215" lon="-8.632305">
        <ele>11.0</ele>
        <time>2019-05-17T09:45:59.167Z</time>
      </trkpt>
      <trkpt lat="39.286275" lon="-8.63230167">
        <ele>11.0</ele>
        <time>2019-05-17T09:46:00.187Z</time>
      </trkpt>
      <trkpt lat="39.286275" lon="-8.63230167">
        <ele>11.0</ele>
        <time>2019-05-17T09:46:01.150Z</time>
      </trkpt>
      <trkpt lat="39.28633333" lon="-8.63229667">
        <ele>11.0</ele>
        <time>2019-05-17T09:46:02.163Z</time>
      </trkpt>
      <trkpt lat="39.28633333" lon="-8.63229667">
        <ele>11.0</ele>
        <time>2019-05-17T09:46:03.175Z</time>
      </trkpt>
      <trkpt lat="39.28639333" lon="-8.63229167">
        <ele>11.0</ele>
        <time>2019-05-17T09:46:04.152Z</time>
      </trkpt>
      <trkpt lat="39.28639333" lon="-8.63229167">
        <ele>11.0</ele>
        <time>2019-05-17T09:46:05.170Z</time>
      </trkpt>
      <trkpt lat="39.286455" lon="-8.63228333">
        <ele>11.0</ele>
        <time>2019-05-17T09:46:06.182Z</time>
      </trkpt>
      <trkpt lat="39.286455" lon="-8.63228333">
        <ele>11.0</ele>
        <time>2019-05-17T09:46:07.173Z</time>
      </trkpt>
      <trkpt lat="39.28651667" lon="-8.63228">
        <ele>11.0</ele>
        <time>2019-05-17T09:46:08.186Z</time>
      </trkpt>
      <trkpt lat="39.28654833" lon="-8.63227667">
        <ele>11.0</ele>
        <time>2019-05-17T09:46:09.177Z</time>
      </trkpt>
      <trkpt lat="39.28654833" lon="-8.63227667">
        <ele>11.0</ele>
        <time>2019-05-17T09:46:10.150Z</time>
      </trkpt>
      <trkpt lat="39.28661" lon="-8.63227">
        <ele>11.0</ele>
        <time>2019-05-17T09:46:11.160Z</time>
      </trkpt>
      <trkpt lat="39.28664167" lon="-8.632265">
        <ele>11.0</ele>
        <time>2019-05-17T09:46:12.176Z</time>
      </trkpt>
      <trkpt lat="39.28664167" lon="-8.632265">
        <ele>11.0</ele>
        <time>2019-05-17T09:46:13.167Z</time>
      </trkpt>
      <trkpt lat="39.286705" lon="-8.63226167">
        <ele>11.0</ele>
        <time>2019-05-17T09:46:14.178Z</time>
      </trkpt>
      <trkpt lat="39.286705" lon="-8.63226167">
        <ele>11.0</ele>
        <time>2019-05-17T09:46:15.189Z</time>
      </trkpt>
      <trkpt lat="39.28676667" lon="-8.63225333">
        <ele>11.0</ele>
        <time>2019-05-17T09:46:16.159Z</time>
      </trkpt>
      <trkpt lat="39.28676667" lon="-8.63225333">
        <ele>11.0</ele>
        <time>2019-05-17T09:46:17.173Z</time>
      </trkpt>
      <trkpt lat="39.28682833" lon="-8.63224667">
        <ele>11.0</ele>
        <time>2019-05-17T09:46:18.174Z</time>
      </trkpt>
      <trkpt lat="39.28682833" lon="-8.63224667">
        <ele>11.0</ele>
        <time>2019-05-17T09:46:19.167Z</time>
      </trkpt>
      <trkpt lat="39.286895" lon="-8.63224">
        <ele>11.0</ele>
        <time>2019-05-17T09:46:20.178Z</time>
      </trkpt>
      <trkpt lat="39.28692667" lon="-8.63223833">
        <ele>12.0</ele>
        <time>2019-05-17T09:46:21.163Z</time>
      </trkpt>
      <trkpt lat="39.28692667" lon="-8.63223833">
        <ele>12.0</ele>
        <time>2019-05-17T09:46:22.181Z</time>
      </trkpt>
      <trkpt lat="39.28699" lon="-8.63223333">
        <ele>11.0</ele>
        <time>2019-05-17T09:46:23.153Z</time>
      </trkpt>
      <trkpt lat="39.28702167" lon="-8.63223">
        <ele>11.0</ele>
        <time>2019-05-17T09:46:24.178Z</time>
      </trkpt>
      <trkpt lat="39.28702167" lon="-8.63223">
        <ele>11.0</ele>
        <time>2019-05-17T09:46:25.187Z</time>
      </trkpt>
      <trkpt lat="39.28708333" lon="-8.63222667">
        <ele>11.0</ele>
        <time>2019-05-17T09:46:26.155Z</time>
      </trkpt>
      <trkpt lat="39.28708333" lon="-8.63222667">
        <ele>11.0</ele>
        <time>2019-05-17T09:46:27.187Z</time>
      </trkpt>
      <trkpt lat="39.28714667" lon="-8.63221833">
        <ele>11.0</ele>
        <time>2019-05-17T09:46:28.156Z</time>
      </trkpt>
      <trkpt lat="39.28714667" lon="-8.63221833">
        <ele>11.0</ele>
        <time>2019-05-17T09:46:29.173Z</time>
      </trkpt>
      <trkpt lat="39.28720833" lon="-8.63221333">
        <ele>11.0</ele>
        <time>2019-05-17T09:46:30.188Z</time>
      </trkpt>
      <trkpt lat="39.28720833" lon="-8.63221333">
        <ele>11.0</ele>
        <time>2019-05-17T09:46:31.171Z</time>
      </trkpt>
      <trkpt lat="39.287265" lon="-8.63221667">
        <ele>12.0</ele>
        <time>2019-05-17T09:46:32.189Z</time>
      </trkpt>
      <trkpt lat="39.287265" lon="-8.63221667">
        <ele>12.0</ele>
        <time>2019-05-17T09:46:33.165Z</time>
      </trkpt>
      <trkpt lat="39.28732" lon="-8.63220833">
        <ele>12.0</ele>
        <time>2019-05-17T09:46:34.176Z</time>
      </trkpt>
      <trkpt lat="39.28735" lon="-8.632205">
        <ele>12.0</ele>
        <time>2019-05-17T09:46:35.177Z</time>
      </trkpt>
      <trkpt lat="39.28737667" lon="-8.63220333">
        <ele>12.0</ele>
        <time>2019-05-17T09:46:36.158Z</time>
      </trkpt>
      <trkpt lat="39.28737667" lon="-8.63220333">
        <ele>12.0</ele>
        <time>2019-05-17T09:46:37.184Z</time>
      </trkpt>
      <trkpt lat="39.287435" lon="-8.63219833">
        <ele>12.0</ele>
        <time>2019-05-17T09:46:38.160Z</time>
      </trkpt>
      <trkpt lat="39.287435" lon="-8.63219833">
        <ele>12.0</ele>
        <time>2019-05-17T09:46:39.184Z</time>
      </trkpt>
      <trkpt lat="39.28749167" lon="-8.632195">
        <ele>12.0</ele>
        <time>2019-05-17T09:46:40.196Z</time>
      </trkpt>
      <trkpt lat="39.28749167" lon="-8.632195">
        <ele>12.0</ele>
        <time>2019-05-17T09:46:41.177Z</time>
      </trkpt>
      <trkpt lat="39.28754833" lon="-8.63219">
        <ele>11.0</ele>
        <time>2019-05-17T09:46:42.151Z</time>
      </trkpt>
      <trkpt lat="39.28754833" lon="-8.63219">
        <ele>11.0</ele>
        <time>2019-05-17T09:46:43.169Z</time>
      </trkpt>
      <trkpt lat="39.28760333" lon="-8.63218333">
        <ele>11.0</ele>
        <time>2019-05-17T09:46:44.187Z</time>
      </trkpt>
      <trkpt lat="39.28760333" lon="-8.63218333">
        <ele>11.0</ele>
        <time>2019-05-17T09:46:45.166Z</time>
      </trkpt>
      <trkpt lat="39.287655" lon="-8.63218">
        <ele>11.0</ele>
        <time>2019-05-17T09:46:46.178Z</time>
      </trkpt>
      <trkpt lat="39.287655" lon="-8.63218">
        <ele>11.0</ele>
        <time>2019-05-17T09:46:47.167Z</time>
      </trkpt>
      <trkpt lat="39.28770833" lon="-8.63217333">
        <ele>11.0</ele>
        <time>2019-05-17T09:46:48.184Z</time>
      </trkpt>
      <trkpt lat="39.28770833" lon="-8.63217333">
        <ele>11.0</ele>
        <time>2019-05-17T09:46:49.157Z</time>
      </trkpt>
      <trkpt lat="39.287765" lon="-8.63216833">
        <ele>12.0</ele>
        <time>2019-05-17T09:46:50.174Z</time>
      </trkpt>
      <trkpt lat="39.287765" lon="-8.63216833">
        <ele>12.0</ele>
        <time>2019-05-17T09:46:51.176Z</time>
      </trkpt>
      <trkpt lat="39.28782333" lon="-8.63216333">
        <ele>11.0</ele>
        <time>2019-05-17T09:46:52.188Z</time>
      </trkpt>
      <trkpt lat="39.28782333" lon="-8.63216333">
        <ele>11.0</ele>
        <time>2019-05-17T09:46:53.165Z</time>
      </trkpt>
      <trkpt lat="39.28787833" lon="-8.63215333">
        <ele>12.0</ele>
        <time>2019-05-17T09:46:54.174Z</time>
      </trkpt>
      <trkpt lat="39.287905" lon="-8.63215167">
        <ele>11.0</ele>
        <time>2019-05-17T09:46:55.189Z</time>
      </trkpt>
      <trkpt lat="39.28793167" lon="-8.63215">
        <ele>12.0</ele>
        <time>2019-05-17T09:46:56.173Z</time>
      </trkpt>
      <trkpt lat="39.28793167" lon="-8.63215">
        <ele>12.0</ele>
        <time>2019-05-17T09:46:57.186Z</time>
      </trkpt>
      <trkpt lat="39.28798667" lon="-8.63214833">
        <ele>12.0</ele>
        <time>2019-05-17T09:46:58.160Z</time>
      </trkpt>
      <trkpt lat="39.28798667" lon="-8.63214833">
        <ele>12.0</ele>
        <time>2019-05-17T09:46:59.169Z</time>
      </trkpt>
      <trkpt lat="39.288045" lon="-8.632145">
        <ele>12.0</ele>
        <time>2019-05-17T09:47:00.180Z</time>
      </trkpt>
      <trkpt lat="39.288045" lon="-8.632145">
        <ele>12.0</ele>
        <time>2019-05-17T09:47:01.158Z</time>
      </trkpt>
      <trkpt lat="39.2881" lon="-8.63214">
        <ele>12.0</ele>
        <time>2019-05-17T09:47:02.163Z</time>
      </trkpt>
      <trkpt lat="39.2881" lon="-8.63214">
        <ele>12.0</ele>
        <time>2019-05-17T09:47:03.167Z</time>
      </trkpt>
      <trkpt lat="39.28815667" lon="-8.632135">
        <ele>12.0</ele>
        <time>2019-05-17T09:47:04.182Z</time>
      </trkpt>
      <trkpt lat="39.28815667" lon="-8.632135">
        <ele>12.0</ele>
        <time>2019-05-17T09:47:05.178Z</time>
      </trkpt>
      <trkpt lat="39.28821167" lon="-8.63213167">
        <ele>12.0</ele>
        <time>2019-05-17T09:47:06.188Z</time>
      </trkpt>
      <trkpt lat="39.28821167" lon="-8.63213167">
        <ele>12.0</ele>
        <time>2019-05-17T09:47:07.167Z</time>
      </trkpt>
      <trkpt lat="39.28826833" lon="-8.63212333">
        <ele>12.0</ele>
        <time>2019-05-17T09:47:08.176Z</time>
      </trkpt>
      <trkpt lat="39.28826833" lon="-8.63212333">
        <ele>12.0</ele>
        <time>2019-05-17T09:47:09.165Z</time>
      </trkpt>
      <trkpt lat="39.28832333" lon="-8.63211833">
        <ele>13.0</ele>
        <time>2019-05-17T09:47:10.158Z</time>
      </trkpt>
      <trkpt lat="39.28832333" lon="-8.63211833">
        <ele>13.0</ele>
        <time>2019-05-17T09:47:11.168Z</time>
      </trkpt>
      <trkpt lat="39.28837667" lon="-8.63211167">
        <ele>13.0</ele>
        <time>2019-05-17T09:47:12.183Z</time>
      </trkpt>
      <trkpt lat="39.28837667" lon="-8.63211167">
        <ele>13.0</ele>
        <time>2019-05-17T09:47:13.165Z</time>
      </trkpt>
      <trkpt lat="39.28842833" lon="-8.63210667">
        <ele>13.0</ele>
        <time>2019-05-17T09:47:14.183Z</time>
      </trkpt>
      <trkpt lat="39.28845167" lon="-8.632105">
        <ele>13.0</ele>
        <time>2019-05-17T09:47:15.180Z</time>
      </trkpt>
      <trkpt lat="39.28845167" lon="-8.632105">
        <ele>13.0</ele>
        <time>2019-05-17T09:47:16.189Z</time>
      </trkpt>
      <trkpt lat="39.28850167" lon="-8.63209833">
        <ele>13.0</ele>
        <time>2019-05-17T09:47:17.158Z</time>
      </trkpt>
      <trkpt lat="39.28852667" lon="-8.632095">
        <ele>13.0</ele>
        <time>2019-05-17T09:47:18.184Z</time>
      </trkpt>
      <trkpt lat="39.28852667" lon="-8.632095">
        <ele>13.0</ele>
        <time>2019-05-17T09:47:19.157Z</time>
      </trkpt>
      <trkpt lat="39.28857667" lon="-8.63208667">
        <ele>13.0</ele>
        <time>2019-05-17T09:47:20.170Z</time>
      </trkpt>
      <trkpt lat="39.28857667" lon="-8.63208667">
        <ele>13.0</ele>
        <time>2019-05-17T09:47:21.177Z</time>
      </trkpt>
      <trkpt lat="39.28862667" lon="-8.63208167">
        <ele>13.0</ele>
        <time>2019-05-17T09:47:22.150Z</time>
      </trkpt>
      <trkpt lat="39.28862667" lon="-8.63208167">
        <ele>13.0</ele>
        <time>2019-05-17T09:47:23.162Z</time>
      </trkpt>
      <trkpt lat="39.28867833" lon="-8.63207667">
        <ele>13.0</ele>
        <time>2019-05-17T09:47:24.156Z</time>
      </trkpt>
      <trkpt lat="39.28867833" lon="-8.63207667">
        <ele>13.0</ele>
        <time>2019-05-17T09:47:25.172Z</time>
      </trkpt>
      <trkpt lat="39.28873" lon="-8.63207">
        <ele>13.0</ele>
        <time>2019-05-17T09:47:26.183Z</time>
      </trkpt>
      <trkpt lat="39.288755" lon="-8.63206833">
        <ele>13.0</ele>
        <time>2019-05-17T09:47:27.180Z</time>
      </trkpt>
      <trkpt lat="39.288755" lon="-8.63206833">
        <ele>13.0</ele>
        <time>2019-05-17T09:47:28.165Z</time>
      </trkpt>
      <trkpt lat="39.288805" lon="-8.63205833">
        <ele>13.0</ele>
        <time>2019-05-17T09:47:29.178Z</time>
      </trkpt>
      <trkpt lat="39.28882833" lon="-8.63205333">
        <ele>13.0</ele>
        <time>2019-05-17T09:47:30.176Z</time>
      </trkpt>
      <trkpt lat="39.28882833" lon="-8.63205333">
        <ele>13.0</ele>
        <time>2019-05-17T09:47:31.156Z</time>
      </trkpt>
      <trkpt lat="39.28887667" lon="-8.63204667">
        <ele>13.0</ele>
        <time>2019-05-17T09:47:32.177Z</time>
      </trkpt>
      <trkpt lat="39.28887667" lon="-8.63204667">
        <ele>13.0</ele>
        <time>2019-05-17T09:47:33.188Z</time>
      </trkpt>
      <trkpt lat="39.288925" lon="-8.63204167">
        <ele>13.0</ele>
        <time>2019-05-17T09:47:34.158Z</time>
      </trkpt>
      <trkpt lat="39.28895" lon="-8.63203667">
        <ele>13.0</ele>
        <time>2019-05-17T09:47:35.158Z</time>
      </trkpt>
      <trkpt lat="39.28897667" lon="-8.63203333">
        <ele>13.0</ele>
        <time>2019-05-17T09:47:36.176Z</time>
      </trkpt>
      <trkpt lat="39.28897667" lon="-8.63203333">
        <ele>13.0</ele>
        <time>2019-05-17T09:47:37.152Z</time>
      </trkpt>
      <trkpt lat="39.28903167" lon="-8.63202667">
        <ele>14.0</ele>
        <time>2019-05-17T09:47:38.163Z</time>
      </trkpt>
      <trkpt lat="39.28903167" lon="-8.63202667">
        <ele>14.0</ele>
        <time>2019-05-17T09:47:39.178Z</time>
      </trkpt>
      <trkpt lat="39.28908833" lon="-8.63202">
        <ele>14.0</ele>
        <time>2019-05-17T09:47:40.167Z</time>
      </trkpt>
      <trkpt lat="39.28908833" lon="-8.63202">
        <ele>14.0</ele>
        <time>2019-05-17T09:47:41.170Z</time>
      </trkpt>
      <trkpt lat="39.28914167" lon="-8.63201667">
        <ele>14.0</ele>
        <time>2019-05-17T09:47:42.180Z</time>
      </trkpt>
      <trkpt lat="39.28914167" lon="-8.63201667">
        <ele>14.0</ele>
        <time>2019-05-17T09:47:43.165Z</time>
      </trkpt>
      <trkpt lat="39.28919333" lon="-8.632015">
        <ele>14.0</ele>
        <time>2019-05-17T09:47:44.179Z</time>
      </trkpt>
      <trkpt lat="39.28919333" lon="-8.632015">
        <ele>14.0</ele>
        <time>2019-05-17T09:47:45.175Z</time>
      </trkpt>
      <trkpt lat="39.28924167" lon="-8.63201">
        <ele>14.0</ele>
        <time>2019-05-17T09:47:46.186Z</time>
      </trkpt>
      <trkpt lat="39.28924167" lon="-8.63201">
        <ele>14.0</ele>
        <time>2019-05-17T09:47:47.151Z</time>
      </trkpt>
      <trkpt lat="39.28929" lon="-8.63200833">
        <ele>14.0</ele>
        <time>2019-05-17T09:47:48.165Z</time>
      </trkpt>
      <trkpt lat="39.28929" lon="-8.63200833">
        <ele>14.0</ele>
        <time>2019-05-17T09:47:49.175Z</time>
      </trkpt>
      <trkpt lat="39.28933833" lon="-8.63200833">
        <ele>14.0</ele>
        <time>2019-05-17T09:47:50.184Z</time>
      </trkpt>
      <trkpt lat="39.28933833" lon="-8.63200833">
        <ele>14.0</ele>
        <time>2019-05-17T09:47:51.165Z</time>
      </trkpt>
      <trkpt lat="39.28938833" lon="-8.63200833">
        <ele>15.0</ele>
        <time>2019-05-17T09:47:52.178Z</time>
      </trkpt>
      <trkpt lat="39.28938833" lon="-8.63200833">
        <ele>15.0</ele>
        <time>2019-05-17T09:47:53.166Z</time>
      </trkpt>
      <trkpt lat="39.28943667" lon="-8.63201167">
        <ele>15.0</ele>
        <time>2019-05-17T09:47:54.182Z</time>
      </trkpt>
      <trkpt lat="39.28943667" lon="-8.63201167">
        <ele>15.0</ele>
        <time>2019-05-17T09:47:55.173Z</time>
      </trkpt>
      <trkpt lat="39.289485" lon="-8.63202">
        <ele>15.0</ele>
        <time>2019-05-17T09:47:56.163Z</time>
      </trkpt>
      <trkpt lat="39.28951" lon="-8.63202333">
        <ele>15.0</ele>
        <time>2019-05-17T09:47:57.180Z</time>
      </trkpt>
      <trkpt lat="39.28951" lon="-8.63202333">
        <ele>15.0</ele>
        <time>2019-05-17T09:47:58.163Z</time>
      </trkpt>
      <trkpt lat="39.28956167" lon="-8.632025">
        <ele>15.0</ele>
        <time>2019-05-17T09:47:59.178Z</time>
      </trkpt>
      <trkpt lat="39.28958833" lon="-8.632025">
        <ele>15.0</ele>
        <time>2019-05-17T09:48:00.155Z</time>
      </trkpt>
      <trkpt lat="39.28958833" lon="-8.632025">
        <ele>15.0</ele>
        <time>2019-05-17T09:48:01.153Z</time>
      </trkpt>
      <trkpt lat="39.28964333" lon="-8.63203">
        <ele>15.0</ele>
        <time>2019-05-17T09:48:02.176Z</time>
      </trkpt>
      <trkpt lat="39.28964333" lon="-8.63203">
        <ele>15.0</ele>
        <time>2019-05-17T09:48:03.180Z</time>
      </trkpt>
      <trkpt lat="39.28969833" lon="-8.63203333">
        <ele>14.0</ele>
        <time>2019-05-17T09:48:04.152Z</time>
      </trkpt>
      <trkpt lat="39.28972667" lon="-8.632035">
        <ele>14.0</ele>
        <time>2019-05-17T09:48:05.164Z</time>
      </trkpt>
      <trkpt lat="39.289755" lon="-8.632035">
        <ele>14.0</ele>
        <time>2019-05-17T09:48:06.181Z</time>
      </trkpt>
      <trkpt lat="39.289755" lon="-8.632035">
        <ele>14.0</ele>
        <time>2019-05-17T09:48:07.163Z</time>
      </trkpt>
      <trkpt lat="39.28981333" lon="-8.63203667">
        <ele>14.0</ele>
        <time>2019-05-17T09:48:08.182Z</time>
      </trkpt>
      <trkpt lat="39.28981333" lon="-8.63203667">
        <ele>14.0</ele>
        <time>2019-05-17T09:48:09.187Z</time>
      </trkpt>
      <trkpt lat="39.28987167" lon="-8.63204">
        <ele>14.0</ele>
        <time>2019-05-17T09:48:10.151Z</time>
      </trkpt>
      <trkpt lat="39.28987167" lon="-8.63204">
        <ele>14.0</ele>
        <time>2019-05-17T09:48:11.171Z</time>
      </trkpt>
      <trkpt lat="39.28993167" lon="-8.63204167">
        <ele>13.0</ele>
        <time>2019-05-17T09:48:12.150Z</time>
      </trkpt>
      <trkpt lat="39.28993167" lon="-8.63204167">
        <ele>13.0</ele>
        <time>2019-05-17T09:48:13.169Z</time>
      </trkpt>
      <trkpt lat="39.28999667" lon="-8.63203833">
        <ele>13.0</ele>
        <time>2019-05-17T09:48:14.154Z</time>
      </trkpt>
      <trkpt lat="39.28999667" lon="-8.63203833">
        <ele>13.0</ele>
        <time>2019-05-17T09:48:15.154Z</time>
      </trkpt>
      <trkpt lat="39.29006333" lon="-8.63203833">
        <ele>13.0</ele>
        <time>2019-05-17T09:48:16.168Z</time>
      </trkpt>
      <trkpt lat="39.29006333" lon="-8.63203833">
        <ele>13.0</ele>
        <time>2019-05-17T09:48:17.183Z</time>
      </trkpt>
      <trkpt lat="39.29013" lon="-8.632035">
        <ele>12.0</ele>
        <time>2019-05-17T09:48:18.151Z</time>
      </trkpt>
      <trkpt lat="39.29013" lon="-8.632035">
        <ele>12.0</ele>
        <time>2019-05-17T09:48:19.173Z</time>
      </trkpt>
      <trkpt lat="39.29019667" lon="-8.63203333">
        <ele>12.0</ele>
        <time>2019-05-17T09:48:20.164Z</time>
      </trkpt>
      <trkpt lat="39.29019667" lon="-8.63203333">
        <ele>12.0</ele>
        <time>2019-05-17T09:48:21.164Z</time>
      </trkpt>
      <trkpt lat="39.29026833" lon="-8.63202833">
        <ele>12.0</ele>
        <time>2019-05-17T09:48:22.176Z</time>
      </trkpt>
      <trkpt lat="39.29026833" lon="-8.63202833">
        <ele>12.0</ele>
        <time>2019-05-17T09:48:23.188Z</time>
      </trkpt>
      <trkpt lat="39.29033833" lon="-8.63202333">
        <ele>12.0</ele>
        <time>2019-05-17T09:48:24.157Z</time>
      </trkpt>
      <trkpt lat="39.29033833" lon="-8.63202333">
        <ele>12.0</ele>
        <time>2019-05-17T09:48:25.178Z</time>
      </trkpt>
      <trkpt lat="39.29040667" lon="-8.63202167">
        <ele>12.0</ele>
        <time>2019-05-17T09:48:26.168Z</time>
      </trkpt>
      <trkpt lat="39.29040667" lon="-8.63202167">
        <ele>12.0</ele>
        <time>2019-05-17T09:48:27.162Z</time>
      </trkpt>
      <trkpt lat="39.290475" lon="-8.63201667">
        <ele>12.0</ele>
        <time>2019-05-17T09:48:28.174Z</time>
      </trkpt>
      <trkpt lat="39.290475" lon="-8.63201667">
        <ele>12.0</ele>
        <time>2019-05-17T09:48:29.187Z</time>
      </trkpt>
      <trkpt lat="39.29054333" lon="-8.63201333">
        <ele>12.0</ele>
        <time>2019-05-17T09:48:30.158Z</time>
      </trkpt>
      <trkpt lat="39.290575" lon="-8.63201333">
        <ele>12.0</ele>
        <time>2019-05-17T09:48:31.183Z</time>
      </trkpt>
      <trkpt lat="39.29060833" lon="-8.63201167">
        <ele>12.0</ele>
        <time>2019-05-17T09:48:32.160Z</time>
      </trkpt>
      <trkpt lat="39.29060833" lon="-8.63201167">
        <ele>12.0</ele>
        <time>2019-05-17T09:48:33.171Z</time>
      </trkpt>
      <trkpt lat="39.290675" lon="-8.63200333">
        <ele>12.0</ele>
        <time>2019-05-17T09:48:34.184Z</time>
      </trkpt>
      <trkpt lat="39.290675" lon="-8.63200333">
        <ele>12.0</ele>
        <time>2019-05-17T09:48:35.154Z</time>
      </trkpt>
      <trkpt lat="39.290745" lon="-8.63199167">
        <ele>12.0</ele>
        <time>2019-05-17T09:48:36.171Z</time>
      </trkpt>
      <trkpt lat="39.290745" lon="-8.63199167">
        <ele>12.0</ele>
        <time>2019-05-17T09:48:37.166Z</time>
      </trkpt>
      <trkpt lat="39.290815" lon="-8.631975">
        <ele>12.0</ele>
        <time>2019-05-17T09:48:38.175Z</time>
      </trkpt>
      <trkpt lat="39.29084833" lon="-8.63196333">
        <ele>12.0</ele>
        <time>2019-05-17T09:48:39.172Z</time>
      </trkpt>
      <trkpt lat="39.29084833" lon="-8.63196333">
        <ele>12.0</ele>
        <time>2019-05-17T09:48:40.154Z</time>
      </trkpt>
      <trkpt lat="39.290915" lon="-8.63192667">
        <ele>12.0</ele>
        <time>2019-05-17T09:48:41.179Z</time>
      </trkpt>
      <trkpt lat="39.29094167" lon="-8.63190167">
        <ele>12.0</ele>
        <time>2019-05-17T09:48:42.172Z</time>
      </trkpt>
      <trkpt lat="39.29094167" lon="-8.63190167">
        <ele>12.0</ele>
        <time>2019-05-17T09:48:43.186Z</time>
      </trkpt>
      <trkpt lat="39.29098667" lon="-8.63183167">
        <ele>12.0</ele>
        <time>2019-05-17T09:48:44.156Z</time>
      </trkpt>
      <trkpt lat="39.29098667" lon="-8.63183167">
        <ele>12.0</ele>
        <time>2019-05-17T09:48:45.174Z</time>
      </trkpt>
      <trkpt lat="39.29101667" lon="-8.63174167">
        <ele>13.0</ele>
        <time>2019-05-17T09:48:46.189Z</time>
      </trkpt>
      <trkpt lat="39.29101667" lon="-8.63174167">
        <ele>13.0</ele>
        <time>2019-05-17T09:48:47.166Z</time>
      </trkpt>
      <trkpt lat="39.29102333" lon="-8.63165">
        <ele>13.0</ele>
        <time>2019-05-17T09:48:48.176Z</time>
      </trkpt>
      <trkpt lat="39.29102333" lon="-8.63165">
        <ele>13.0</ele>
        <time>2019-05-17T09:48:49.154Z</time>
      </trkpt>
      <trkpt lat="39.29102167" lon="-8.63155833">
        <ele>13.0</ele>
        <time>2019-05-17T09:48:50.177Z</time>
      </trkpt>
      <trkpt lat="39.29102167" lon="-8.63155833">
        <ele>13.0</ele>
        <time>2019-05-17T09:48:51.165Z</time>
      </trkpt>
      <trkpt lat="39.29101167" lon="-8.63146833">
        <ele>13.0</ele>
        <time>2019-05-17T09:48:52.186Z</time>
      </trkpt>
      <trkpt lat="39.29101167" lon="-8.63146833">
        <ele>13.0</ele>
        <time>2019-05-17T09:48:53.156Z</time>
      </trkpt>
      <trkpt lat="39.29099667" lon="-8.63137667">
        <ele>14.0</ele>
        <time>2019-05-17T09:48:54.168Z</time>
      </trkpt>
      <trkpt lat="39.29099667" lon="-8.63137667">
        <ele>14.0</ele>
        <time>2019-05-17T09:48:55.183Z</time>
      </trkpt>
      <trkpt lat="39.29097667" lon="-8.63128667">
        <ele>14.0</ele>
        <time>2019-05-17T09:48:56.160Z</time>
      </trkpt>
      <trkpt lat="39.29097667" lon="-8.63128667">
        <ele>14.0</ele>
        <time>2019-05-17T09:48:57.173Z</time>
      </trkpt>
      <trkpt lat="39.29095667" lon="-8.63119667">
        <ele>14.0</ele>
        <time>2019-05-17T09:48:58.150Z</time>
      </trkpt>
      <trkpt lat="39.29095667" lon="-8.63119667">
        <ele>14.0</ele>
        <time>2019-05-17T09:48:59.165Z</time>
      </trkpt>
      <trkpt lat="39.290935" lon="-8.63110667">
        <ele>14.0</ele>
        <time>2019-05-17T09:49:00.152Z</time>
      </trkpt>
      <trkpt lat="39.290935" lon="-8.63110667">
        <ele>14.0</ele>
        <time>2019-05-17T09:49:01.189Z</time>
      </trkpt>
      <trkpt lat="39.29091167" lon="-8.63102">
        <ele>14.0</ele>
        <time>2019-05-17T09:49:02.160Z</time>
      </trkpt>
      <trkpt lat="39.29090167" lon="-8.63097667">
        <ele>14.0</ele>
        <time>2019-05-17T09:49:03.179Z</time>
      </trkpt>
      <trkpt lat="39.29090167" lon="-8.63097667">
        <ele>14.0</ele>
        <time>2019-05-17T09:49:04.152Z</time>
      </trkpt>
      <trkpt lat="39.29088" lon="-8.63089333">
        <ele>14.0</ele>
        <time>2019-05-17T09:49:05.167Z</time>
      </trkpt>
      <trkpt lat="39.29087333" lon="-8.63085167">
        <ele>14.0</ele>
        <time>2019-05-17T09:49:06.162Z</time>
      </trkpt>
      <trkpt lat="39.29087333" lon="-8.63085167">
        <ele>14.0</ele>
        <time>2019-05-17T09:49:07.173Z</time>
      </trkpt>
      <trkpt lat="39.290865" lon="-8.63076833">
        <ele>15.0</ele>
        <time>2019-05-17T09:49:08.184Z</time>
      </trkpt>
      <trkpt lat="39.290865" lon="-8.63076833">
        <ele>15.0</ele>
        <time>2019-05-17T09:49:09.152Z</time>
      </trkpt>
      <trkpt lat="39.29086833" lon="-8.63068833">
        <ele>15.0</ele>
        <time>2019-05-17T09:49:10.150Z</time>
      </trkpt>
      <trkpt lat="39.29086833" lon="-8.63068833">
        <ele>15.0</ele>
        <time>2019-05-17T09:49:11.165Z</time>
      </trkpt>
      <trkpt lat="39.29088167" lon="-8.63061167">
        <ele>15.0</ele>
        <time>2019-05-17T09:49:12.181Z</time>
      </trkpt>
      <trkpt lat="39.29088167" lon="-8.63061167">
        <ele>15.0</ele>
        <time>2019-05-17T09:49:13.167Z</time>
      </trkpt>
      <trkpt lat="39.29090833" lon="-8.63054">
        <ele>15.0</ele>
        <time>2019-05-17T09:49:14.178Z</time>
      </trkpt>
      <trkpt lat="39.29092333" lon="-8.63050667">
        <ele>15.0</ele>
        <time>2019-05-17T09:49:15.167Z</time>
      </trkpt>
      <trkpt lat="39.29092333" lon="-8.63050667">
        <ele>15.0</ele>
        <time>2019-05-17T09:49:16.150Z</time>
      </trkpt>
      <trkpt lat="39.29096" lon="-8.63044833">
        <ele>15.0</ele>
        <time>2019-05-17T09:49:17.157Z</time>
      </trkpt>
      <trkpt lat="39.29098167" lon="-8.63042167">
        <ele>15.0</ele>
        <time>2019-05-17T09:49:18.159Z</time>
      </trkpt>
      <trkpt lat="39.29098167" lon="-8.63042167">
        <ele>15.0</ele>
        <time>2019-05-17T09:49:19.172Z</time>
      </trkpt>
      <trkpt lat="39.29103" lon="-8.63037667">
        <ele>15.0</ele>
        <time>2019-05-17T09:49:20.181Z</time>
      </trkpt>
      <trkpt lat="39.29103" lon="-8.63037667">
        <ele>15.0</ele>
        <time>2019-05-17T09:49:21.151Z</time>
      </trkpt>
      <trkpt lat="39.291085" lon="-8.63034">
        <ele>15.0</ele>
        <time>2019-05-17T09:49:22.176Z</time>
      </trkpt>
      <trkpt lat="39.291085" lon="-8.63034">
        <ele>15.0</ele>
        <time>2019-05-17T09:49:23.181Z</time>
      </trkpt>
      <trkpt lat="39.29113833" lon="-8.63030667">
        <ele>15.0</ele>
        <time>2019-05-17T09:49:24.189Z</time>
      </trkpt>
      <trkpt lat="39.29113833" lon="-8.63030667">
        <ele>15.0</ele>
        <time>2019-05-17T09:49:25.173Z</time>
      </trkpt>
      <trkpt lat="39.29119333" lon="-8.63027333">
        <ele>14.0</ele>
        <time>2019-05-17T09:49:26.175Z</time>
      </trkpt>
      <trkpt lat="39.29119333" lon="-8.63027333">
        <ele>14.0</ele>
        <time>2019-05-17T09:49:27.174Z</time>
      </trkpt>
      <trkpt lat="39.29124833" lon="-8.63023833">
        <ele>14.0</ele>
        <time>2019-05-17T09:49:28.187Z</time>
      </trkpt>
      <trkpt lat="39.29124833" lon="-8.63023833">
        <ele>14.0</ele>
        <time>2019-05-17T09:49:29.159Z</time>
      </trkpt>
      <trkpt lat="39.29130667" lon="-8.63021">
        <ele>14.0</ele>
        <time>2019-05-17T09:49:30.168Z</time>
      </trkpt>
      <trkpt lat="39.29130667" lon="-8.63021">
        <ele>14.0</ele>
        <time>2019-05-17T09:49:31.158Z</time>
      </trkpt>
      <trkpt lat="39.291365" lon="-8.63017167">
        <ele>14.0</ele>
        <time>2019-05-17T09:49:32.282Z</time>
      </trkpt>
      <trkpt lat="39.291365" lon="-8.63017167">
        <ele>14.0</ele>
        <time>2019-05-17T09:49:33.172Z</time>
      </trkpt>
      <trkpt lat="39.291425" lon="-8.63013667">
        <ele>14.0</ele>
        <time>2019-05-17T09:49:34.187Z</time>
      </trkpt>
      <trkpt lat="39.29145333" lon="-8.63011833">
        <ele>14.0</ele>
        <time>2019-05-17T09:49:35.163Z</time>
      </trkpt>
      <trkpt lat="39.29148333" lon="-8.6301">
        <ele>14.0</ele>
        <time>2019-05-17T09:49:36.182Z</time>
      </trkpt>
      <trkpt lat="39.29148333" lon="-8.6301">
        <ele>14.0</ele>
        <time>2019-05-17T09:49:37.156Z</time>
      </trkpt>
      <trkpt lat="39.29153667" lon="-8.63006333">
        <ele>14.0</ele>
        <time>2019-05-17T09:49:38.177Z</time>
      </trkpt>
      <trkpt lat="39.29153667" lon="-8.63006333">
        <ele>14.0</ele>
        <time>2019-05-17T09:49:39.185Z</time>
      </trkpt>
      <trkpt lat="39.29158333" lon="-8.63003167">
        <ele>14.0</ele>
        <time>2019-05-17T09:49:40.154Z</time>
      </trkpt>
      <trkpt lat="39.291605" lon="-8.63001667">
        <ele>14.0</ele>
        <time>2019-05-17T09:49:41.186Z</time>
      </trkpt>
      <trkpt lat="39.291605" lon="-8.63001667">
        <ele>14.0</ele>
        <time>2019-05-17T09:49:42.175Z</time>
      </trkpt>
      <trkpt lat="39.29164333" lon="-8.629985">
        <ele>14.0</ele>
        <time>2019-05-17T09:49:43.185Z</time>
      </trkpt>
      <trkpt lat="39.29164333" lon="-8.629985">
        <ele>14.0</ele>
        <time>2019-05-17T09:49:44.180Z</time>
      </trkpt>
      <trkpt lat="39.29168" lon="-8.629955">
        <ele>14.0</ele>
        <time>2019-05-17T09:49:45.155Z</time>
      </trkpt>
      <trkpt lat="39.29168" lon="-8.629955">
        <ele>14.0</ele>
        <time>2019-05-17T09:49:46.168Z</time>
      </trkpt>
      <trkpt lat="39.29171667" lon="-8.62991833">
        <ele>14.0</ele>
        <time>2019-05-17T09:49:47.181Z</time>
      </trkpt>
      <trkpt lat="39.291735" lon="-8.6299">
        <ele>14.0</ele>
        <time>2019-05-17T09:49:48.174Z</time>
      </trkpt>
      <trkpt lat="39.291735" lon="-8.6299">
        <ele>14.0</ele>
        <time>2019-05-17T09:49:49.156Z</time>
      </trkpt>
      <trkpt lat="39.29177333" lon="-8.62986667">
        <ele>14.0</ele>
        <time>2019-05-17T09:49:50.176Z</time>
      </trkpt>
      <trkpt lat="39.29177333" lon="-8.62986667">
        <ele>14.0</ele>
        <time>2019-05-17T09:49:51.188Z</time>
      </trkpt>
      <trkpt lat="39.29181833" lon="-8.62983667">
        <ele>14.0</ele>
        <time>2019-05-17T09:49:52.156Z</time>
      </trkpt>
      <trkpt lat="39.29184" lon="-8.62982">
        <ele>14.0</ele>
        <time>2019-05-17T09:49:53.178Z</time>
      </trkpt>
      <trkpt lat="39.29186333" lon="-8.6298">
        <ele>14.0</ele>
        <time>2019-05-17T09:49:54.156Z</time>
      </trkpt>
      <trkpt lat="39.29186333" lon="-8.6298">
        <ele>14.0</ele>
        <time>2019-05-17T09:49:55.180Z</time>
      </trkpt>
      <trkpt lat="39.29190667" lon="-8.62976">
        <ele>14.0</ele>
        <time>2019-05-17T09:49:56.151Z</time>
      </trkpt>
      <trkpt lat="39.29190667" lon="-8.62976">
        <ele>14.0</ele>
        <time>2019-05-17T09:49:57.165Z</time>
      </trkpt>
      <trkpt lat="39.29195" lon="-8.62971667">
        <ele>14.0</ele>
        <time>2019-05-17T09:49:58.150Z</time>
      </trkpt>
      <trkpt lat="39.29195" lon="-8.62971667">
        <ele>14.0</ele>
        <time>2019-05-17T09:49:59.162Z</time>
      </trkpt>
      <trkpt lat="39.29198833" lon="-8.62967167">
        <ele>14.0</ele>
        <time>2019-05-17T09:50:00.172Z</time>
      </trkpt>
      <trkpt lat="39.29200833" lon="-8.62965333">
        <ele>14.0</ele>
        <time>2019-05-17T09:50:01.169Z</time>
      </trkpt>
      <trkpt lat="39.29200833" lon="-8.62965333">
        <ele>14.0</ele>
        <time>2019-05-17T09:50:02.171Z</time>
      </trkpt>
      <trkpt lat="39.29205333" lon="-8.62962">
        <ele>14.0</ele>
        <time>2019-05-17T09:50:03.183Z</time>
      </trkpt>
      <trkpt lat="39.29205333" lon="-8.62962">
        <ele>14.0</ele>
        <time>2019-05-17T09:50:04.153Z</time>
      </trkpt>
      <trkpt lat="39.29209833" lon="-8.62958333">
        <ele>14.0</ele>
        <time>2019-05-17T09:50:05.162Z</time>
      </trkpt>
      <trkpt lat="39.29209833" lon="-8.62958333">
        <ele>14.0</ele>
        <time>2019-05-17T09:50:06.178Z</time>
      </trkpt>
      <trkpt lat="39.292145" lon="-8.62953833">
        <ele>13.0</ele>
        <time>2019-05-17T09:50:07.188Z</time>
      </trkpt>
      <trkpt lat="39.292145" lon="-8.62953833">
        <ele>13.0</ele>
        <time>2019-05-17T09:50:08.161Z</time>
      </trkpt>
      <trkpt lat="39.292195" lon="-8.6295">
        <ele>13.0</ele>
        <time>2019-05-17T09:50:09.184Z</time>
      </trkpt>
      <trkpt lat="39.292195" lon="-8.6295">
        <ele>13.0</ele>
        <time>2019-05-17T09:50:10.150Z</time>
      </trkpt>
      <trkpt lat="39.29224167" lon="-8.62945833">
        <ele>13.0</ele>
        <time>2019-05-17T09:50:11.158Z</time>
      </trkpt>
      <trkpt lat="39.29224167" lon="-8.62945833">
        <ele>13.0</ele>
        <time>2019-05-17T09:50:12.180Z</time>
      </trkpt>
      <trkpt lat="39.29229" lon="-8.62941167">
        <ele>13.0</ele>
        <time>2019-05-17T09:50:13.150Z</time>
      </trkpt>
      <trkpt lat="39.29229" lon="-8.62941167">
        <ele>13.0</ele>
        <time>2019-05-17T09:50:14.181Z</time>
      </trkpt>
      <trkpt lat="39.29233833" lon="-8.62936667">
        <ele>13.0</ele>
        <time>2019-05-17T09:50:15.155Z</time>
      </trkpt>
      <trkpt lat="39.29233833" lon="-8.62936667">
        <ele>13.0</ele>
        <time>2019-05-17T09:50:16.165Z</time>
      </trkpt>
      <trkpt lat="39.29238667" lon="-8.62932">
        <ele>13.0</ele>
        <time>2019-05-17T09:50:17.177Z</time>
      </trkpt>
      <trkpt lat="39.29241" lon="-8.62929667">
        <ele>13.0</ele>
        <time>2019-05-17T09:50:18.160Z</time>
      </trkpt>
      <trkpt lat="39.29241" lon="-8.62929667">
        <ele>13.0</ele>
        <time>2019-05-17T09:50:19.180Z</time>
      </trkpt>
      <trkpt lat="39.29245833" lon="-8.62925167">
        <ele>13.0</ele>
        <time>2019-05-17T09:50:20.154Z</time>
      </trkpt>
      <trkpt lat="39.29245833" lon="-8.62925167">
        <ele>13.0</ele>
        <time>2019-05-17T09:50:21.171Z</time>
      </trkpt>
      <trkpt lat="39.29250667" lon="-8.62920667">
        <ele>13.0</ele>
        <time>2019-05-17T09:50:22.189Z</time>
      </trkpt>
      <trkpt lat="39.29253" lon="-8.629185">
        <ele>13.0</ele>
        <time>2019-05-17T09:50:23.162Z</time>
      </trkpt>
      <trkpt lat="39.29253" lon="-8.629185">
        <ele>13.0</ele>
        <time>2019-05-17T09:50:24.177Z</time>
      </trkpt>
      <trkpt lat="39.29257833" lon="-8.62914167">
        <ele>13.0</ele>
        <time>2019-05-17T09:50:25.190Z</time>
      </trkpt>
      <trkpt lat="39.29257833" lon="-8.62914167">
        <ele>13.0</ele>
        <time>2019-05-17T09:50:26.159Z</time>
      </trkpt>
      <trkpt lat="39.29262667" lon="-8.62909833">
        <ele>13.0</ele>
        <time>2019-05-17T09:50:27.170Z</time>
      </trkpt>
      <trkpt lat="39.29262667" lon="-8.62909833">
        <ele>13.0</ele>
        <time>2019-05-17T09:50:28.185Z</time>
      </trkpt>
      <trkpt lat="39.29267" lon="-8.62905833">
        <ele>13.0</ele>
        <time>2019-05-17T09:50:29.156Z</time>
      </trkpt>
      <trkpt lat="39.29269167" lon="-8.62904">
        <ele>13.0</ele>
        <time>2019-05-17T09:50:30.181Z</time>
      </trkpt>
      <trkpt lat="39.29269167" lon="-8.62904">
        <ele>13.0</ele>
        <time>2019-05-17T09:50:31.155Z</time>
      </trkpt>
      <trkpt lat="39.29273333" lon="-8.629">
        <ele>13.0</ele>
        <time>2019-05-17T09:50:32.166Z</time>
      </trkpt>
      <trkpt lat="39.29273333" lon="-8.629">
        <ele>13.0</ele>
        <time>2019-05-17T09:50:33.167Z</time>
      </trkpt>
      <trkpt lat="39.29277833" lon="-8.62896167">
        <ele>13.0</ele>
        <time>2019-05-17T09:50:34.178Z</time>
      </trkpt>
      <trkpt lat="39.29280167" lon="-8.62894167">
        <ele>13.0</ele>
        <time>2019-05-17T09:50:35.169Z</time>
      </trkpt>
      <trkpt lat="39.29282333" lon="-8.62892333">
        <ele>13.0</ele>
        <time>2019-05-17T09:50:36.164Z</time>
      </trkpt>
      <trkpt lat="39.29282333" lon="-8.62892333">
        <ele>13.0</ele>
        <time>2019-05-17T09:50:37.172Z</time>
      </trkpt>
      <trkpt lat="39.29286833" lon="-8.628885">
        <ele>13.0</ele>
        <time>2019-05-17T09:50:38.182Z</time>
      </trkpt>
      <trkpt lat="39.29289167" lon="-8.62886667">
        <ele>13.0</ele>
        <time>2019-05-17T09:50:39.169Z</time>
      </trkpt>
      <trkpt lat="39.29289167" lon="-8.62886667">
        <ele>13.0</ele>
        <time>2019-05-17T09:50:40.156Z</time>
      </trkpt>
      <trkpt lat="39.29293667" lon="-8.62882833">
        <ele>14.0</ele>
        <time>2019-05-17T09:50:41.174Z</time>
      </trkpt>
      <trkpt lat="39.29295833" lon="-8.62881">
        <ele>14.0</ele>
        <time>2019-05-17T09:50:42.159Z</time>
      </trkpt>
      <trkpt lat="39.29295833" lon="-8.62881">
        <ele>14.0</ele>
        <time>2019-05-17T09:50:43.184Z</time>
      </trkpt>
      <trkpt lat="39.29300667" lon="-8.62877333">
        <ele>14.0</ele>
        <time>2019-05-17T09:50:44.154Z</time>
      </trkpt>
      <trkpt lat="39.29303167" lon="-8.62875167">
        <ele>14.0</ele>
        <time>2019-05-17T09:50:45.183Z</time>
      </trkpt>
      <trkpt lat="39.29303167" lon="-8.62875167">
        <ele>14.0</ele>
        <time>2019-05-17T09:50:46.151Z</time>
      </trkpt>
      <trkpt lat="39.29308333" lon="-8.62870833">
        <ele>14.0</ele>
        <time>2019-05-17T09:50:47.161Z</time>
      </trkpt>
      <trkpt lat="39.29311" lon="-8.62868667">
        <ele>14.0</ele>
        <time>2019-05-17T09:50:48.180Z</time>
      </trkpt>
      <trkpt lat="39.29311" lon="-8.62868667">
        <ele>14.0</ele>
        <time>2019-05-17T09:50:49.153Z</time>
      </trkpt>
      <trkpt lat="39.29316333" lon="-8.62864333">
        <ele>14.0</ele>
        <time>2019-05-17T09:50:50.163Z</time>
      </trkpt>
      <trkpt lat="39.29316333" lon="-8.62864333">
        <ele>14.0</ele>
        <time>2019-05-17T09:50:51.181Z</time>
      </trkpt>
      <trkpt lat="39.29322" lon="-8.62860333">
        <ele>14.0</ele>
        <time>2019-05-17T09:50:52.190Z</time>
      </trkpt>
      <trkpt lat="39.29322" lon="-8.62860333">
        <ele>14.0</ele>
        <time>2019-05-17T09:50:53.165Z</time>
      </trkpt>
      <trkpt lat="39.293275" lon="-8.628565">
        <ele>14.0</ele>
        <time>2019-05-17T09:50:54.183Z</time>
      </trkpt>
      <trkpt lat="39.293275" lon="-8.628565">
        <ele>14.0</ele>
        <time>2019-05-17T09:50:55.153Z</time>
      </trkpt>
      <trkpt lat="39.29332833" lon="-8.62854">
        <ele>14.0</ele>
        <time>2019-05-17T09:50:56.172Z</time>
      </trkpt>
      <trkpt lat="39.29332833" lon="-8.62854">
        <ele>14.0</ele>
        <time>2019-05-17T09:50:57.184Z</time>
      </trkpt>
      <trkpt lat="39.29338" lon="-8.62851">
        <ele>14.0</ele>
        <time>2019-05-17T09:50:58.154Z</time>
      </trkpt>
      <trkpt lat="39.29338" lon="-8.62851">
        <ele>14.0</ele>
        <time>2019-05-17T09:50:59.164Z</time>
      </trkpt>
      <trkpt lat="39.29343" lon="-8.62848833">
        <ele>14.0</ele>
        <time>2019-05-17T09:51:00.150Z</time>
      </trkpt>
      <trkpt lat="39.29343" lon="-8.62848833">
        <ele>14.0</ele>
        <time>2019-05-17T09:51:01.173Z</time>
      </trkpt>
      <trkpt lat="39.29348" lon="-8.62847167">
        <ele>14.0</ele>
        <time>2019-05-17T09:51:02.187Z</time>
      </trkpt>
      <trkpt lat="39.29348" lon="-8.62847167">
        <ele>14.0</ele>
        <time>2019-05-17T09:51:03.176Z</time>
      </trkpt>
      <trkpt lat="39.29353333" lon="-8.62846833">
        <ele>14.0</ele>
        <time>2019-05-17T09:51:04.186Z</time>
      </trkpt>
      <trkpt lat="39.29353333" lon="-8.62846833">
        <ele>14.0</ele>
        <time>2019-05-17T09:51:05.168Z</time>
      </trkpt>
      <trkpt lat="39.29358833" lon="-8.62846333">
        <ele>15.0</ele>
        <time>2019-05-17T09:51:06.184Z</time>
      </trkpt>
      <trkpt lat="39.29358833" lon="-8.62846333">
        <ele>15.0</ele>
        <time>2019-05-17T09:51:07.156Z</time>
      </trkpt>
      <trkpt lat="39.293645" lon="-8.62847167">
        <ele>15.0</ele>
        <time>2019-05-17T09:51:08.166Z</time>
      </trkpt>
      <trkpt lat="39.293645" lon="-8.62847167">
        <ele>15.0</ele>
        <time>2019-05-17T09:51:09.153Z</time>
      </trkpt>
      <trkpt lat="39.293705" lon="-8.628485">
        <ele>15.0</ele>
        <time>2019-05-17T09:51:10.186Z</time>
      </trkpt>
      <trkpt lat="39.293735" lon="-8.628495">
        <ele>15.0</ele>
        <time>2019-05-17T09:51:11.184Z</time>
      </trkpt>
      <trkpt lat="39.29376667" lon="-8.628505">
        <ele>15.0</ele>
        <time>2019-05-17T09:51:12.159Z</time>
      </trkpt>
      <trkpt lat="39.29376667" lon="-8.628505">
        <ele>15.0</ele>
        <time>2019-05-17T09:51:13.167Z</time>
      </trkpt>
      <trkpt lat="39.29382833" lon="-8.62852667">
        <ele>15.0</ele>
        <time>2019-05-17T09:51:14.177Z</time>
      </trkpt>
      <trkpt lat="39.29382833" lon="-8.62852667">
        <ele>15.0</ele>
        <time>2019-05-17T09:51:15.151Z</time>
      </trkpt>
      <trkpt lat="39.29389333" lon="-8.62855167">
        <ele>15.0</ele>
        <time>2019-05-17T09:51:16.162Z</time>
      </trkpt>
      <trkpt lat="39.29389333" lon="-8.62855167">
        <ele>15.0</ele>
        <time>2019-05-17T09:51:17.172Z</time>
      </trkpt>
      <trkpt lat="39.29396" lon="-8.62857333">
        <ele>15.0</ele>
        <time>2019-05-17T09:51:18.183Z</time>
      </trkpt>
      <trkpt lat="39.29396" lon="-8.62857333">
        <ele>15.0</ele>
        <time>2019-05-17T09:51:19.158Z</time>
      </trkpt>
      <trkpt lat="39.294025" lon="-8.62859833">
        <ele>15.0</ele>
        <time>2019-05-17T09:51:20.175Z</time>
      </trkpt>
      <trkpt lat="39.294025" lon="-8.62859833">
        <ele>15.0</ele>
        <time>2019-05-17T09:51:21.159Z</time>
      </trkpt>
      <trkpt lat="39.29409167" lon="-8.62862333">
        <ele>14.0</ele>
        <time>2019-05-17T09:51:22.154Z</time>
      </trkpt>
      <trkpt lat="39.29409167" lon="-8.62862333">
        <ele>14.0</ele>
        <time>2019-05-17T09:51:23.163Z</time>
      </trkpt>
      <trkpt lat="39.29415667" lon="-8.62865167">
        <ele>14.0</ele>
        <time>2019-05-17T09:51:24.175Z</time>
      </trkpt>
      <trkpt lat="39.29415667" lon="-8.62865167">
        <ele>14.0</ele>
        <time>2019-05-17T09:51:25.152Z</time>
      </trkpt>
      <trkpt lat="39.29422333" lon="-8.62867833">
        <ele>14.0</ele>
        <time>2019-05-17T09:51:26.161Z</time>
      </trkpt>
      <trkpt lat="39.29422333" lon="-8.62867833">
        <ele>14.0</ele>
        <time>2019-05-17T09:51:27.171Z</time>
      </trkpt>
      <trkpt lat="39.29429167" lon="-8.6287">
        <ele>14.0</ele>
        <time>2019-05-17T09:51:28.179Z</time>
      </trkpt>
      <trkpt lat="39.29429167" lon="-8.6287">
        <ele>14.0</ele>
        <time>2019-05-17T09:51:29.165Z</time>
      </trkpt>
      <trkpt lat="39.29435833" lon="-8.62872">
        <ele>14.0</ele>
        <time>2019-05-17T09:51:30.177Z</time>
      </trkpt>
      <trkpt lat="39.29435833" lon="-8.62872">
        <ele>14.0</ele>
        <time>2019-05-17T09:51:31.156Z</time>
      </trkpt>
      <trkpt lat="39.29442167" lon="-8.62873167">
        <ele>14.0</ele>
        <time>2019-05-17T09:51:32.151Z</time>
      </trkpt>
      <trkpt lat="39.29442167" lon="-8.62873167">
        <ele>14.0</ele>
        <time>2019-05-17T09:51:33.168Z</time>
      </trkpt>
      <trkpt lat="39.29449167" lon="-8.62873667">
        <ele>14.0</ele>
        <time>2019-05-17T09:51:34.180Z</time>
      </trkpt>
      <trkpt lat="39.29449167" lon="-8.62873667">
        <ele>14.0</ele>
        <time>2019-05-17T09:51:35.161Z</time>
      </trkpt>
      <trkpt lat="39.29456167" lon="-8.62874">
        <ele>14.0</ele>
        <time>2019-05-17T09:51:36.173Z</time>
      </trkpt>
      <trkpt lat="39.29456167" lon="-8.62874">
        <ele>14.0</ele>
        <time>2019-05-17T09:51:37.176Z</time>
      </trkpt>
      <trkpt lat="39.29462167" lon="-8.62873833">
        <ele>14.0</ele>
        <time>2019-05-17T09:51:38.192Z</time>
      </trkpt>
      <trkpt lat="39.29462167" lon="-8.62873833">
        <ele>14.0</ele>
        <time>2019-05-17T09:51:39.165Z</time>
      </trkpt>
      <trkpt lat="39.29468333" lon="-8.62872667">
        <ele>14.0</ele>
        <time>2019-05-17T09:51:40.177Z</time>
      </trkpt>
      <trkpt lat="39.29468333" lon="-8.62872667">
        <ele>14.0</ele>
        <time>2019-05-17T09:51:41.151Z</time>
      </trkpt>
      <trkpt lat="39.29475" lon="-8.628705">
        <ele>13.0</ele>
        <time>2019-05-17T09:51:42.160Z</time>
      </trkpt>
      <trkpt lat="39.29478167" lon="-8.62868833">
        <ele>13.0</ele>
        <time>2019-05-17T09:51:43.157Z</time>
      </trkpt>
      <trkpt lat="39.29478167" lon="-8.62868833">
        <ele>13.0</ele>
        <time>2019-05-17T09:51:44.169Z</time>
      </trkpt>
      <trkpt lat="39.294845" lon="-8.62865167">
        <ele>13.0</ele>
        <time>2019-05-17T09:51:45.180Z</time>
      </trkpt>
      <trkpt lat="39.294845" lon="-8.62865167">
        <ele>13.0</ele>
        <time>2019-05-17T09:51:46.190Z</time>
      </trkpt>
      <trkpt lat="39.29490167" lon="-8.62861333">
        <ele>13.0</ele>
        <time>2019-05-17T09:51:47.167Z</time>
      </trkpt>
      <trkpt lat="39.29493" lon="-8.62859333">
        <ele>13.0</ele>
        <time>2019-05-17T09:51:48.177Z</time>
      </trkpt>
      <trkpt lat="39.29493" lon="-8.62859333">
        <ele>13.0</ele>
        <time>2019-05-17T09:51:49.150Z</time>
      </trkpt>
      <trkpt lat="39.29498167" lon="-8.62855333">
        <ele>13.0</ele>
        <time>2019-05-17T09:51:50.160Z</time>
      </trkpt>
      <trkpt lat="39.29500833" lon="-8.62853167">
        <ele>13.0</ele>
        <time>2019-05-17T09:51:51.181Z</time>
      </trkpt>
      <trkpt lat="39.29500833" lon="-8.62853167">
        <ele>13.0</ele>
        <time>2019-05-17T09:51:52.156Z</time>
      </trkpt>
      <trkpt lat="39.29506167" lon="-8.62849167">
        <ele>13.0</ele>
        <time>2019-05-17T09:51:53.168Z</time>
      </trkpt>
      <trkpt lat="39.29508833" lon="-8.62847167">
        <ele>13.0</ele>
        <time>2019-05-17T09:51:54.189Z</time>
      </trkpt>
      <trkpt lat="39.29508833" lon="-8.62847167">
        <ele>13.0</ele>
        <time>2019-05-17T09:51:55.165Z</time>
      </trkpt>
      <trkpt lat="39.29513667" lon="-8.62842667">
        <ele>13.0</ele>
        <time>2019-05-17T09:51:56.176Z</time>
      </trkpt>
      <trkpt lat="39.29513667" lon="-8.62842667">
        <ele>13.0</ele>
        <time>2019-05-17T09:51:57.165Z</time>
      </trkpt>
      <trkpt lat="39.29518667" lon="-8.62837833">
        <ele>13.0</ele>
        <time>2019-05-17T09:51:58.174Z</time>
      </trkpt>
      <trkpt lat="39.29518667" lon="-8.62837833">
        <ele>13.0</ele>
        <time>2019-05-17T09:51:59.189Z</time>
      </trkpt>
      <trkpt lat="39.29523833" lon="-8.62833333">
        <ele>13.0</ele>
        <time>2019-05-17T09:52:00.162Z</time>
      </trkpt>
      <trkpt lat="39.29523833" lon="-8.62833333">
        <ele>13.0</ele>
        <time>2019-05-17T09:52:01.180Z</time>
      </trkpt>
      <trkpt lat="39.29529" lon="-8.62828833">
        <ele>14.0</ele>
        <time>2019-05-17T09:52:02.190Z</time>
      </trkpt>
      <trkpt lat="39.29529" lon="-8.62828833">
        <ele>14.0</ele>
        <time>2019-05-17T09:52:03.163Z</time>
      </trkpt>
      <trkpt lat="39.29533833" lon="-8.62824333">
        <ele>14.0</ele>
        <time>2019-05-17T09:52:04.184Z</time>
      </trkpt>
      <trkpt lat="39.29536" lon="-8.62822167">
        <ele>14.0</ele>
        <time>2019-05-17T09:52:05.174Z</time>
      </trkpt>
      <trkpt lat="39.29538333" lon="-8.62820167">
        <ele>14.0</ele>
        <time>2019-05-17T09:52:06.160Z</time>
      </trkpt>
      <trkpt lat="39.29538333" lon="-8.62820167">
        <ele>14.0</ele>
        <time>2019-05-17T09:52:07.175Z</time>
      </trkpt>
      <trkpt lat="39.29542833" lon="-8.62816167">
        <ele>14.0</ele>
        <time>2019-05-17T09:52:08.189Z</time>
      </trkpt>
      <trkpt lat="39.29542833" lon="-8.62816167">
        <ele>14.0</ele>
        <time>2019-05-17T09:52:09.151Z</time>
      </trkpt>
      <trkpt lat="39.29548" lon="-8.62812167">
        <ele>14.0</ele>
        <time>2019-05-17T09:52:10.188Z</time>
      </trkpt>
      <trkpt lat="39.29548" lon="-8.62812167">
        <ele>14.0</ele>
        <time>2019-05-17T09:52:11.158Z</time>
      </trkpt>
      <trkpt lat="39.29553167" lon="-8.62807833">
        <ele>14.0</ele>
        <time>2019-05-17T09:52:12.170Z</time>
      </trkpt>
      <trkpt lat="39.29553167" lon="-8.62807833">
        <ele>14.0</ele>
        <time>2019-05-17T09:52:13.186Z</time>
      </trkpt>
      <trkpt lat="39.29557833" lon="-8.62803333">
        <ele>14.0</ele>
        <time>2019-05-17T09:52:14.157Z</time>
      </trkpt>
      <trkpt lat="39.29560167" lon="-8.62801333">
        <ele>14.0</ele>
        <time>2019-05-17T09:52:15.191Z</time>
      </trkpt>
      <trkpt lat="39.29560167" lon="-8.62801333">
        <ele>14.0</ele>
        <time>2019-05-17T09:52:16.158Z</time>
      </trkpt>
      <trkpt lat="39.29564667" lon="-8.62797667">
        <ele>15.0</ele>
        <time>2019-05-17T09:52:17.170Z</time>
      </trkpt>
      <trkpt lat="39.29566833" lon="-8.62796167">
        <ele>15.0</ele>
        <time>2019-05-17T09:52:18.186Z</time>
      </trkpt>
      <trkpt lat="39.29566833" lon="-8.62796167">
        <ele>15.0</ele>
        <time>2019-05-17T09:52:19.156Z</time>
      </trkpt>
      <trkpt lat="39.29570667" lon="-8.62792667">
        <ele>15.0</ele>
        <time>2019-05-17T09:52:20.169Z</time>
      </trkpt>
      <trkpt lat="39.29570667" lon="-8.62792667">
        <ele>15.0</ele>
        <time>2019-05-17T09:52:21.152Z</time>
      </trkpt>
      <trkpt lat="39.29574667" lon="-8.62789">
        <ele>15.0</ele>
        <time>2019-05-17T09:52:22.161Z</time>
      </trkpt>
      <trkpt lat="39.29574667" lon="-8.62789">
        <ele>15.0</ele>
        <time>2019-05-17T09:52:23.179Z</time>
      </trkpt>
      <trkpt lat="39.29579167" lon="-8.627855">
        <ele>16.0</ele>
        <time>2019-05-17T09:52:24.150Z</time>
      </trkpt>
      <trkpt lat="39.29579167" lon="-8.627855">
        <ele>16.0</ele>
        <time>2019-05-17T09:52:25.170Z</time>
      </trkpt>
      <trkpt lat="39.29583833" lon="-8.62782833">
        <ele>16.0</ele>
        <time>2019-05-17T09:52:26.160Z</time>
      </trkpt>
      <trkpt lat="39.29583833" lon="-8.62782833">
        <ele>16.0</ele>
        <time>2019-05-17T09:52:27.178Z</time>
      </trkpt>
      <trkpt lat="39.29588" lon="-8.62779167">
        <ele>16.0</ele>
        <time>2019-05-17T09:52:28.152Z</time>
      </trkpt>
      <trkpt lat="39.29588" lon="-8.62779167">
        <ele>16.0</ele>
        <time>2019-05-17T09:52:29.167Z</time>
      </trkpt>
      <trkpt lat="39.295925" lon="-8.627765">
        <ele>16.0</ele>
        <time>2019-05-17T09:52:30.182Z</time>
      </trkpt>
      <trkpt lat="39.295925" lon="-8.627765">
        <ele>16.0</ele>
        <time>2019-05-17T09:52:31.158Z</time>
      </trkpt>
      <trkpt lat="39.295965" lon="-8.62774">
        <ele>16.0</ele>
        <time>2019-05-17T09:52:32.153Z</time>
      </trkpt>
      <trkpt lat="39.295965" lon="-8.62774">
        <ele>16.0</ele>
        <time>2019-05-17T09:52:33.172Z</time>
      </trkpt>
      <trkpt lat="39.29601" lon="-8.62772167">
        <ele>17.0</ele>
        <time>2019-05-17T09:52:34.181Z</time>
      </trkpt>
      <trkpt lat="39.29601" lon="-8.62772167">
        <ele>17.0</ele>
        <time>2019-05-17T09:52:35.158Z</time>
      </trkpt>
      <trkpt lat="39.29605333" lon="-8.62770833">
        <ele>17.0</ele>
        <time>2019-05-17T09:52:36.169Z</time>
      </trkpt>
      <trkpt lat="39.29605333" lon="-8.62770833">
        <ele>17.0</ele>
        <time>2019-05-17T09:52:37.188Z</time>
      </trkpt>
      <trkpt lat="39.296095" lon="-8.62769167">
        <ele>17.0</ele>
        <time>2019-05-17T09:52:38.157Z</time>
      </trkpt>
      <trkpt lat="39.296095" lon="-8.62769167">
        <ele>17.0</ele>
        <time>2019-05-17T09:52:39.174Z</time>
      </trkpt>
      <trkpt lat="39.29613333" lon="-8.62769">
        <ele>18.0</ele>
        <time>2019-05-17T09:52:40.186Z</time>
      </trkpt>
      <trkpt lat="39.29613333" lon="-8.62769">
        <ele>18.0</ele>
        <time>2019-05-17T09:52:41.174Z</time>
      </trkpt>
      <trkpt lat="39.29617" lon="-8.62768167">
        <ele>18.0</ele>
        <time>2019-05-17T09:52:42.186Z</time>
      </trkpt>
      <trkpt lat="39.29617" lon="-8.62768167">
        <ele>18.0</ele>
        <time>2019-05-17T09:52:43.168Z</time>
      </trkpt>
      <trkpt lat="39.296205" lon="-8.627675">
        <ele>18.0</ele>
        <time>2019-05-17T09:52:44.178Z</time>
      </trkpt>
      <trkpt lat="39.296205" lon="-8.627675">
        <ele>18.0</ele>
        <time>2019-05-17T09:52:45.161Z</time>
      </trkpt>
      <trkpt lat="39.29624" lon="-8.62767333">
        <ele>18.0</ele>
        <time>2019-05-17T09:52:46.176Z</time>
      </trkpt>
      <trkpt lat="39.29625667" lon="-8.62767667">
        <ele>19.0</ele>
        <time>2019-05-17T09:52:47.166Z</time>
      </trkpt>
      <trkpt lat="39.296275" lon="-8.62767833">
        <ele>19.0</ele>
        <time>2019-05-17T09:52:48.186Z</time>
      </trkpt>
      <trkpt lat="39.296275" lon="-8.62767833">
        <ele>19.0</ele>
        <time>2019-05-17T09:52:49.166Z</time>
      </trkpt>
      <trkpt lat="39.29630667" lon="-8.62767167">
        <ele>19.0</ele>
        <time>2019-05-17T09:52:50.181Z</time>
      </trkpt>
      <trkpt lat="39.29630667" lon="-8.62767167">
        <ele>19.0</ele>
        <time>2019-05-17T09:52:51.154Z</time>
      </trkpt>
      <trkpt lat="39.29634167" lon="-8.62766667">
        <ele>19.0</ele>
        <time>2019-05-17T09:52:52.178Z</time>
      </trkpt>
      <trkpt lat="39.29634167" lon="-8.62766667">
        <ele>19.0</ele>
        <time>2019-05-17T09:52:53.152Z</time>
      </trkpt>
      <trkpt lat="39.296375" lon="-8.62767667">
        <ele>20.0</ele>
        <time>2019-05-17T09:52:54.163Z</time>
      </trkpt>
      <trkpt lat="39.296375" lon="-8.62767667">
        <ele>20.0</ele>
        <time>2019-05-17T09:52:55.187Z</time>
      </trkpt>
      <trkpt lat="39.29640667" lon="-8.62768833">
        <ele>20.0</ele>
        <time>2019-05-17T09:52:56.159Z</time>
      </trkpt>
      <trkpt lat="39.29640667" lon="-8.62768833">
        <ele>20.0</ele>
        <time>2019-05-17T09:52:57.182Z</time>
      </trkpt>
      <trkpt lat="39.296435" lon="-8.62768833">
        <ele>20.0</ele>
        <time>2019-05-17T09:52:58.166Z</time>
      </trkpt>
      <trkpt lat="39.296435" lon="-8.62768833">
        <ele>20.0</ele>
        <time>2019-05-17T09:52:59.154Z</time>
      </trkpt>
      <trkpt lat="39.296465" lon="-8.62768">
        <ele>21.0</ele>
        <time>2019-05-17T09:53:00.174Z</time>
      </trkpt>
      <trkpt lat="39.296465" lon="-8.62768">
        <ele>21.0</ele>
        <time>2019-05-17T09:53:01.165Z</time>
      </trkpt>
      <trkpt lat="39.296495" lon="-8.627685">
        <ele>21.0</ele>
        <time>2019-05-17T09:53:02.177Z</time>
      </trkpt>
      <trkpt lat="39.296495" lon="-8.627685">
        <ele>21.0</ele>
        <time>2019-05-17T09:53:03.156Z</time>
      </trkpt>
      <trkpt lat="39.29652333" lon="-8.627695">
        <ele>22.0</ele>
        <time>2019-05-17T09:53:04.170Z</time>
      </trkpt>
      <trkpt lat="39.29653667" lon="-8.62769667">
        <ele>22.0</ele>
        <time>2019-05-17T09:53:05.155Z</time>
      </trkpt>
      <trkpt lat="39.29655333" lon="-8.6277">
        <ele>23.0</ele>
        <time>2019-05-17T09:53:06.172Z</time>
      </trkpt>
      <trkpt lat="39.29656833" lon="-8.62770167">
        <ele>23.0</ele>
        <time>2019-05-17T09:53:07.151Z</time>
      </trkpt>
      <trkpt lat="39.29656833" lon="-8.62770167">
        <ele>23.0</ele>
        <time>2019-05-17T09:53:08.168Z</time>
      </trkpt>
      <trkpt lat="39.2966" lon="-8.62770667">
        <ele>24.0</ele>
        <time>2019-05-17T09:53:09.150Z</time>
      </trkpt>
      <trkpt lat="39.29662167" lon="-8.62770833">
        <ele>24.0</ele>
        <time>2019-05-17T09:53:10.153Z</time>
      </trkpt>
      <trkpt lat="39.29662167" lon="-8.62770833">
        <ele>24.0</ele>
        <time>2019-05-17T09:53:11.164Z</time>
      </trkpt>
      <trkpt lat="39.29666333" lon="-8.62771">
        <ele>24.0</ele>
        <time>2019-05-17T09:53:12.174Z</time>
      </trkpt>
      <trkpt lat="39.29666333" lon="-8.62771">
        <ele>24.0</ele>
        <time>2019-05-17T09:53:13.185Z</time>
      </trkpt>
      <trkpt lat="39.296705" lon="-8.62771167">
        <ele>25.0</ele>
        <time>2019-05-17T09:53:14.173Z</time>
      </trkpt>
      <trkpt lat="39.296705" lon="-8.62771167">
        <ele>25.0</ele>
        <time>2019-05-17T09:53:15.168Z</time>
      </trkpt>
      <trkpt lat="39.296745" lon="-8.62771667">
        <ele>25.0</ele>
        <time>2019-05-17T09:53:16.186Z</time>
      </trkpt>
      <trkpt lat="39.296765" lon="-8.62771833">
        <ele>25.0</ele>
        <time>2019-05-17T09:53:17.185Z</time>
      </trkpt>
      <trkpt lat="39.296765" lon="-8.62771833">
        <ele>25.0</ele>
        <time>2019-05-17T09:53:18.164Z</time>
      </trkpt>
      <trkpt lat="39.29681" lon="-8.62771833">
        <ele>25.0</ele>
        <time>2019-05-17T09:53:19.165Z</time>
      </trkpt>
      <trkpt lat="39.29683167" lon="-8.62771833">
        <ele>25.0</ele>
        <time>2019-05-17T09:53:20.155Z</time>
      </trkpt>
      <trkpt lat="39.29683167" lon="-8.62771833">
        <ele>25.0</ele>
        <time>2019-05-17T09:53:21.183Z</time>
      </trkpt>
      <trkpt lat="39.296865" lon="-8.62772333">
        <ele>25.0</ele>
        <time>2019-05-17T09:53:22.153Z</time>
      </trkpt>
      <trkpt lat="39.296865" lon="-8.62772333">
        <ele>25.0</ele>
        <time>2019-05-17T09:53:23.170Z</time>
      </trkpt>
      <trkpt lat="39.2969" lon="-8.62772167">
        <ele>25.0</ele>
        <time>2019-05-17T09:53:24.185Z</time>
      </trkpt>
      <trkpt lat="39.2969" lon="-8.62772167">
        <ele>25.0</ele>
        <time>2019-05-17T09:53:25.156Z</time>
      </trkpt>
      <trkpt lat="39.29693333" lon="-8.62772667">
        <ele>25.0</ele>
        <time>2019-05-17T09:53:26.175Z</time>
      </trkpt>
      <trkpt lat="39.29693333" lon="-8.62772667">
        <ele>25.0</ele>
        <time>2019-05-17T09:53:27.151Z</time>
      </trkpt>
      <trkpt lat="39.29696333" lon="-8.62773167">
        <ele>25.0</ele>
        <time>2019-05-17T09:53:28.160Z</time>
      </trkpt>
      <trkpt lat="39.29696333" lon="-8.62773167">
        <ele>25.0</ele>
        <time>2019-05-17T09:53:29.167Z</time>
      </trkpt>
      <trkpt lat="39.29699333" lon="-8.62773333">
        <ele>26.0</ele>
        <time>2019-05-17T09:53:30.182Z</time>
      </trkpt>
      <trkpt lat="39.29699333" lon="-8.62773333">
        <ele>26.0</ele>
        <time>2019-05-17T09:53:31.151Z</time>
      </trkpt>
      <trkpt lat="39.29702167" lon="-8.62773667">
        <ele>26.0</ele>
        <time>2019-05-17T09:53:32.153Z</time>
      </trkpt>
      <trkpt lat="39.29704" lon="-8.62773833">
        <ele>26.0</ele>
        <time>2019-05-17T09:53:33.174Z</time>
      </trkpt>
      <trkpt lat="39.29704" lon="-8.62773833">
        <ele>26.0</ele>
        <time>2019-05-17T09:53:34.167Z</time>
      </trkpt>
      <trkpt lat="39.297075" lon="-8.627735">
        <ele>27.0</ele>
        <time>2019-05-17T09:53:35.186Z</time>
      </trkpt>
      <trkpt lat="39.29709333" lon="-8.62773333">
        <ele>27.0</ele>
        <time>2019-05-17T09:53:36.160Z</time>
      </trkpt>
      <trkpt lat="39.29709333" lon="-8.62773333">
        <ele>27.0</ele>
        <time>2019-05-17T09:53:37.150Z</time>
      </trkpt>
      <trkpt lat="39.297135" lon="-8.62773167">
        <ele>27.0</ele>
        <time>2019-05-17T09:53:38.158Z</time>
      </trkpt>
      <trkpt lat="39.29715333" lon="-8.62773">
        <ele>27.0</ele>
        <time>2019-05-17T09:53:39.181Z</time>
      </trkpt>
      <trkpt lat="39.29715333" lon="-8.62773">
        <ele>27.0</ele>
        <time>2019-05-17T09:53:40.155Z</time>
      </trkpt>
      <trkpt lat="39.29718667" lon="-8.62773167">
        <ele>27.0</ele>
        <time>2019-05-17T09:53:41.166Z</time>
      </trkpt>
      <trkpt lat="39.297205" lon="-8.62772833">
        <ele>27.0</ele>
        <time>2019-05-17T09:53:42.162Z</time>
      </trkpt>
      <trkpt lat="39.297205" lon="-8.62772833">
        <ele>27.0</ele>
        <time>2019-05-17T09:53:43.171Z</time>
      </trkpt>
      <trkpt lat="39.29724667" lon="-8.62773333">
        <ele>28.0</ele>
        <time>2019-05-17T09:53:44.189Z</time>
      </trkpt>
      <trkpt lat="39.29724667" lon="-8.62773333">
        <ele>28.0</ele>
        <time>2019-05-17T09:53:45.168Z</time>
      </trkpt>
      <trkpt lat="39.29729" lon="-8.62773167">
        <ele>28.0</ele>
        <time>2019-05-17T09:53:46.181Z</time>
      </trkpt>
      <trkpt lat="39.29729" lon="-8.62773167">
        <ele>28.0</ele>
        <time>2019-05-17T09:53:47.156Z</time>
      </trkpt>
      <trkpt lat="39.29733" lon="-8.627725">
        <ele>28.0</ele>
        <time>2019-05-17T09:53:48.169Z</time>
      </trkpt>
      <trkpt lat="39.29733" lon="-8.627725">
        <ele>28.0</ele>
        <time>2019-05-17T09:53:49.185Z</time>
      </trkpt>
      <trkpt lat="39.29736833" lon="-8.62772667">
        <ele>29.0</ele>
        <time>2019-05-17T09:53:50.159Z</time>
      </trkpt>
      <trkpt lat="39.29739167" lon="-8.62772667">
        <ele>29.0</ele>
        <time>2019-05-17T09:53:51.189Z</time>
      </trkpt>
      <trkpt lat="39.29739167" lon="-8.62772667">
        <ele>29.0</ele>
        <time>2019-05-17T09:53:52.172Z</time>
      </trkpt>
      <trkpt lat="39.29743333" lon="-8.62772667">
        <ele>29.0</ele>
        <time>2019-05-17T09:53:53.186Z</time>
      </trkpt>
      <trkpt lat="39.29743333" lon="-8.62772667">
        <ele>29.0</ele>
        <time>2019-05-17T09:53:54.154Z</time>
      </trkpt>
      <trkpt lat="39.29747833" lon="-8.627725">
        <ele>30.0</ele>
        <time>2019-05-17T09:53:55.172Z</time>
      </trkpt>
      <trkpt lat="39.2975" lon="-8.62772167">
        <ele>30.0</ele>
        <time>2019-05-17T09:53:56.190Z</time>
      </trkpt>
      <trkpt lat="39.2975" lon="-8.62772167">
        <ele>30.0</ele>
        <time>2019-05-17T09:53:57.161Z</time>
      </trkpt>
      <trkpt lat="39.29754667" lon="-8.62771833">
        <ele>30.0</ele>
        <time>2019-05-17T09:53:58.172Z</time>
      </trkpt>
      <trkpt lat="39.29754667" lon="-8.62771833">
        <ele>30.0</ele>
        <time>2019-05-17T09:53:59.152Z</time>
      </trkpt>
      <trkpt lat="39.29759167" lon="-8.627715">
        <ele>30.0</ele>
        <time>2019-05-17T09:54:00.162Z</time>
      </trkpt>
      <trkpt lat="39.29759167" lon="-8.627715">
        <ele>30.0</ele>
        <time>2019-05-17T09:54:01.174Z</time>
      </trkpt>
      <trkpt lat="39.29763333" lon="-8.62770833">
        <ele>30.0</ele>
        <time>2019-05-17T09:54:02.182Z</time>
      </trkpt>
      <trkpt lat="39.29763333" lon="-8.62770833">
        <ele>30.0</ele>
        <time>2019-05-17T09:54:03.169Z</time>
      </trkpt>
      <trkpt lat="39.297675" lon="-8.62770667">
        <ele>30.0</ele>
        <time>2019-05-17T09:54:04.169Z</time>
      </trkpt>
      <trkpt lat="39.297695" lon="-8.627705">
        <ele>30.0</ele>
        <time>2019-05-17T09:54:05.164Z</time>
      </trkpt>
      <trkpt lat="39.29771167" lon="-8.62770333">
        <ele>30.0</ele>
        <time>2019-05-17T09:54:06.185Z</time>
      </trkpt>
      <trkpt lat="39.29771167" lon="-8.62770333">
        <ele>30.0</ele>
        <time>2019-05-17T09:54:07.157Z</time>
      </trkpt>
      <trkpt lat="39.29771833" lon="-8.62770333">
        <ele>30.0</ele>
        <time>2019-05-17T09:54:08.179Z</time>
      </trkpt>
      <trkpt lat="39.29771667" lon="-8.627705">
        <ele>30.0</ele>
        <time>2019-05-17T09:54:09.165Z</time>
      </trkpt>
      <trkpt lat="39.29771667" lon="-8.627705">
        <ele>30.0</ele>
        <time>2019-05-17T09:54:10.176Z</time>
      </trkpt>
      <trkpt lat="39.29771667" lon="-8.627705">
        <ele>30.0</ele>
        <time>2019-05-17T09:54:11.156Z</time>
      </trkpt>
      <trkpt lat="39.29771667" lon="-8.627705">
        <ele>30.0</ele>
        <time>2019-05-17T09:54:12.166Z</time>
      </trkpt>
      <trkpt lat="39.29771667" lon="-8.627705">
        <ele>30.0</ele>
        <time>2019-05-17T09:54:13.173Z</time>
      </trkpt>
      <trkpt lat="39.29771667" lon="-8.627705">
        <ele>30.0</ele>
        <time>2019-05-17T09:54:14.152Z</time>
      </trkpt>
      <trkpt lat="39.29771667" lon="-8.627705">
        <ele>30.0</ele>
        <time>2019-05-17T09:54:15.181Z</time>
      </trkpt>
      <trkpt lat="39.29771667" lon="-8.627705">
        <ele>30.0</ele>
        <time>2019-05-17T09:54:16.178Z</time>
      </trkpt>
      <trkpt lat="39.29771667" lon="-8.627705">
        <ele>30.0</ele>
        <time>2019-05-17T09:54:17.178Z</time>
      </trkpt>
      <trkpt lat="39.29771667" lon="-8.627705">
        <ele>30.0</ele>
        <time>2019-05-17T09:54:18.182Z</time>
      </trkpt>
      <trkpt lat="39.29771667" lon="-8.627705">
        <ele>30.0</ele>
        <time>2019-05-17T09:54:19.174Z</time>
      </trkpt>
      <trkpt lat="39.29771667" lon="-8.627705">
        <ele>30.0</ele>
        <time>2019-05-17T09:54:20.183Z</time>
      </trkpt>
      <trkpt lat="39.29771667" lon="-8.627705">
        <ele>30.0</ele>
        <time>2019-05-17T09:54:21.175Z</time>
      </trkpt>
      <trkpt lat="39.29771667" lon="-8.627705">
        <ele>30.0</ele>
        <time>2019-05-17T09:54:22.177Z</time>
      </trkpt>
      <trkpt lat="39.29771667" lon="-8.627705">
        <ele>30.0</ele>
        <time>2019-05-17T09:54:23.176Z</time>
      </trkpt>
      <trkpt lat="39.29771667" lon="-8.627705">
        <ele>30.0</ele>
        <time>2019-05-17T09:54:24.186Z</time>
      </trkpt>
      <trkpt lat="39.29771667" lon="-8.627705">
        <ele>30.0</ele>
        <time>2019-05-17T09:54:25.174Z</time>
      </trkpt>
      <trkpt lat="39.29771667" lon="-8.627705">
        <ele>30.0</ele>
        <time>2019-05-17T09:54:26.181Z</time>
      </trkpt>
      <trkpt lat="39.29771667" lon="-8.627705">
        <ele>30.0</ele>
        <time>2019-05-17T09:54:27.178Z</time>
      </trkpt>
      <trkpt lat="39.29771667" lon="-8.627705">
        <ele>30.0</ele>
        <time>2019-05-17T09:54:28.184Z</time>
      </trkpt>
      <trkpt lat="39.29771667" lon="-8.627705">
        <ele>30.0</ele>
        <time>2019-05-17T09:54:29.179Z</time>
      </trkpt>
      <trkpt lat="39.29771667" lon="-8.627705">
        <ele>30.0</ele>
        <time>2019-05-17T09:54:30.182Z</time>
      </trkpt>
      <trkpt lat="39.29771667" lon="-8.627705">
        <ele>30.0</ele>
        <time>2019-05-17T09:54:31.176Z</time>
      </trkpt>
      <trkpt lat="39.29771667" lon="-8.627705">
        <ele>30.0</ele>
        <time>2019-05-17T09:54:32.180Z</time>
      </trkpt>
      <trkpt lat="39.29771667" lon="-8.627705">
        <ele>30.0</ele>
        <time>2019-05-17T09:54:33.175Z</time>
      </trkpt>
      <trkpt lat="39.29771667" lon="-8.627705">
        <ele>30.0</ele>
        <time>2019-05-17T09:54:34.186Z</time>
      </trkpt>
      <trkpt lat="39.29771667" lon="-8.627705">
        <ele>30.0</ele>
        <time>2019-05-17T09:54:35.185Z</time>
      </trkpt>
      <trkpt lat="39.29771667" lon="-8.627705">
        <ele>30.0</ele>
        <time>2019-05-17T09:54:36.182Z</time>
      </trkpt>
      <trkpt lat="39.29771667" lon="-8.627705">
        <ele>30.0</ele>
        <time>2019-05-17T09:54:37.174Z</time>
      </trkpt>
      <trkpt lat="39.297745" lon="-8.627695">
        <ele>29.0</ele>
        <time>2019-05-17T09:54:38.183Z</time>
      </trkpt>
      <trkpt lat="39.297745" lon="-8.627695">
        <ele>29.0</ele>
        <time>2019-05-17T09:54:39.175Z</time>
      </trkpt>
      <trkpt lat="39.297785" lon="-8.62769167">
        <ele>29.0</ele>
        <time>2019-05-17T09:54:40.181Z</time>
      </trkpt>
      <trkpt lat="39.297785" lon="-8.62769167">
        <ele>29.0</ele>
        <time>2019-05-17T09:54:41.174Z</time>
      </trkpt>
      <trkpt lat="39.29783167" lon="-8.62769167">
        <ele>29.0</ele>
        <time>2019-05-17T09:54:42.181Z</time>
      </trkpt>
      <trkpt lat="39.29783167" lon="-8.62769167">
        <ele>29.0</ele>
        <time>2019-05-17T09:54:43.175Z</time>
      </trkpt>
      <trkpt lat="39.29787" lon="-8.62769">
        <ele>30.0</ele>
        <time>2019-05-17T09:54:44.170Z</time>
      </trkpt>
      <trkpt lat="39.29787" lon="-8.62769">
        <ele>30.0</ele>
        <time>2019-05-17T09:54:45.157Z</time>
      </trkpt>
      <trkpt lat="39.29790833" lon="-8.62768833">
        <ele>30.0</ele>
        <time>2019-05-17T09:54:46.169Z</time>
      </trkpt>
      <trkpt lat="39.29793" lon="-8.62768833">
        <ele>30.0</ele>
        <time>2019-05-17T09:54:47.153Z</time>
      </trkpt>
      <trkpt lat="39.29793" lon="-8.62768833">
        <ele>30.0</ele>
        <time>2019-05-17T09:54:48.169Z</time>
      </trkpt>
      <trkpt lat="39.29793" lon="-8.62768833">
        <ele>30.0</ele>
        <time>2019-05-17T09:54:49.169Z</time>
      </trkpt>
      <trkpt lat="39.29797167" lon="-8.62768833">
        <ele>30.0</ele>
        <time>2019-05-17T09:54:50.158Z</time>
      </trkpt>
      <trkpt lat="39.29801333" lon="-8.62768667">
        <ele>30.0</ele>
        <time>2019-05-17T09:54:51.173Z</time>
      </trkpt>
      <trkpt lat="39.298035" lon="-8.627685">
        <ele>31.0</ele>
        <time>2019-05-17T09:54:52.187Z</time>
      </trkpt>
      <trkpt lat="39.298035" lon="-8.627685">
        <ele>31.0</ele>
        <time>2019-05-17T09:54:53.158Z</time>
      </trkpt>
      <trkpt lat="39.29808167" lon="-8.62768167">
        <ele>31.0</ele>
        <time>2019-05-17T09:54:54.168Z</time>
      </trkpt>
      <trkpt lat="39.29810667" lon="-8.62767833">
        <ele>31.0</ele>
        <time>2019-05-17T09:54:55.163Z</time>
      </trkpt>
      <trkpt lat="39.29813" lon="-8.62768">
        <ele>31.0</ele>
        <time>2019-05-17T09:54:56.150Z</time>
      </trkpt>
      <trkpt lat="39.29813" lon="-8.62768">
        <ele>31.0</ele>
        <time>2019-05-17T09:54:57.169Z</time>
      </trkpt>
      <trkpt lat="39.298175" lon="-8.62767833">
        <ele>31.0</ele>
        <time>2019-05-17T09:54:58.185Z</time>
      </trkpt>
      <trkpt lat="39.298175" lon="-8.62767833">
        <ele>31.0</ele>
        <time>2019-05-17T09:54:59.164Z</time>
      </trkpt>
      <trkpt lat="39.29821833" lon="-8.62767833">
        <ele>31.0</ele>
        <time>2019-05-17T09:55:00.172Z</time>
      </trkpt>
      <trkpt lat="39.29821833" lon="-8.62767833">
        <ele>31.0</ele>
        <time>2019-05-17T09:55:01.185Z</time>
      </trkpt>
      <trkpt lat="39.298265" lon="-8.62767833">
        <ele>32.0</ele>
        <time>2019-05-17T09:55:02.162Z</time>
      </trkpt>
      <trkpt lat="39.298265" lon="-8.62767833">
        <ele>32.0</ele>
        <time>2019-05-17T09:55:03.175Z</time>
      </trkpt>
      <trkpt lat="39.29831333" lon="-8.62767833">
        <ele>32.0</ele>
        <time>2019-05-17T09:55:04.154Z</time>
      </trkpt>
      <trkpt lat="39.29833667" lon="-8.62767833">
        <ele>32.0</ele>
        <time>2019-05-17T09:55:05.180Z</time>
      </trkpt>
      <trkpt lat="39.29835833" lon="-8.62767833">
        <ele>32.0</ele>
        <time>2019-05-17T09:55:06.156Z</time>
      </trkpt>
      <trkpt lat="39.29835833" lon="-8.62767833">
        <ele>32.0</ele>
        <time>2019-05-17T09:55:07.169Z</time>
      </trkpt>
      <trkpt lat="39.29840833" lon="-8.627675">
        <ele>32.0</ele>
        <time>2019-05-17T09:55:08.182Z</time>
      </trkpt>
      <trkpt lat="39.29840833" lon="-8.627675">
        <ele>32.0</ele>
        <time>2019-05-17T09:55:09.170Z</time>
      </trkpt>
      <trkpt lat="39.29845667" lon="-8.627675">
        <ele>33.0</ele>
        <time>2019-05-17T09:55:10.181Z</time>
      </trkpt>
      <trkpt lat="39.29845667" lon="-8.627675">
        <ele>33.0</ele>
        <time>2019-05-17T09:55:11.177Z</time>
      </trkpt>
      <trkpt lat="39.29850833" lon="-8.62767">
        <ele>33.0</ele>
        <time>2019-05-17T09:55:12.173Z</time>
      </trkpt>
      <trkpt lat="39.29850833" lon="-8.62767">
        <ele>33.0</ele>
        <time>2019-05-17T09:55:13.189Z</time>
      </trkpt>
      <trkpt lat="39.29856333" lon="-8.62766667">
        <ele>33.0</ele>
        <time>2019-05-17T09:55:14.157Z</time>
      </trkpt>
      <trkpt lat="39.29856333" lon="-8.62766667">
        <ele>33.0</ele>
        <time>2019-05-17T09:55:15.173Z</time>
      </trkpt>
      <trkpt lat="39.29861833" lon="-8.627665">
        <ele>33.0</ele>
        <time>2019-05-17T09:55:16.182Z</time>
      </trkpt>
      <trkpt lat="39.29861833" lon="-8.627665">
        <ele>33.0</ele>
        <time>2019-05-17T09:55:17.157Z</time>
      </trkpt>
      <trkpt lat="39.29867" lon="-8.627665">
        <ele>34.0</ele>
        <time>2019-05-17T09:55:18.174Z</time>
      </trkpt>
      <trkpt lat="39.29867" lon="-8.627665">
        <ele>34.0</ele>
        <time>2019-05-17T09:55:19.162Z</time>
      </trkpt>
      <trkpt lat="39.298725" lon="-8.62766333">
        <ele>34.0</ele>
        <time>2019-05-17T09:55:20.181Z</time>
      </trkpt>
      <trkpt lat="39.298725" lon="-8.62766333">
        <ele>34.0</ele>
        <time>2019-05-17T09:55:21.153Z</time>
      </trkpt>
      <trkpt lat="39.29877667" lon="-8.62765833">
        <ele>35.0</ele>
        <time>2019-05-17T09:55:22.164Z</time>
      </trkpt>
      <trkpt lat="39.29877667" lon="-8.62765833">
        <ele>35.0</ele>
        <time>2019-05-17T09:55:23.155Z</time>
      </trkpt>
      <trkpt lat="39.29882667" lon="-8.62765833">
        <ele>35.0</ele>
        <time>2019-05-17T09:55:24.176Z</time>
      </trkpt>
      <trkpt lat="39.29882667" lon="-8.62765833">
        <ele>35.0</ele>
        <time>2019-05-17T09:55:25.188Z</time>
      </trkpt>
      <trkpt lat="39.298875" lon="-8.62765667">
        <ele>35.0</ele>
        <time>2019-05-17T09:55:26.162Z</time>
      </trkpt>
      <trkpt lat="39.2989" lon="-8.627655">
        <ele>35.0</ele>
        <time>2019-05-17T09:55:27.160Z</time>
      </trkpt>
      <trkpt lat="39.2989" lon="-8.627655">
        <ele>35.0</ele>
        <time>2019-05-17T09:55:28.158Z</time>
      </trkpt>
      <trkpt lat="39.298955" lon="-8.62765333">
        <ele>35.0</ele>
        <time>2019-05-17T09:55:29.170Z</time>
      </trkpt>
      <trkpt lat="39.29898333" lon="-8.62765167">
        <ele>35.0</ele>
        <time>2019-05-17T09:55:30.158Z</time>
      </trkpt>
      <trkpt lat="39.29898333" lon="-8.62765167">
        <ele>35.0</ele>
        <time>2019-05-17T09:55:31.172Z</time>
      </trkpt>
      <trkpt lat="39.29904333" lon="-8.62764167">
        <ele>36.0</ele>
        <time>2019-05-17T09:55:32.184Z</time>
      </trkpt>
      <trkpt lat="39.29904333" lon="-8.62764167">
        <ele>36.0</ele>
        <time>2019-05-17T09:55:33.153Z</time>
      </trkpt>
      <trkpt lat="39.29909833" lon="-8.62763667">
        <ele>36.0</ele>
        <time>2019-05-17T09:55:34.169Z</time>
      </trkpt>
      <trkpt lat="39.29912667" lon="-8.627635">
        <ele>36.0</ele>
        <time>2019-05-17T09:55:35.180Z</time>
      </trkpt>
      <trkpt lat="39.29915667" lon="-8.62763333">
        <ele>36.0</ele>
        <time>2019-05-17T09:55:36.158Z</time>
      </trkpt>
      <trkpt lat="39.29915667" lon="-8.62763333">
        <ele>36.0</ele>
        <time>2019-05-17T09:55:37.169Z</time>
      </trkpt>
      <trkpt lat="39.29921333" lon="-8.62763">
        <ele>36.0</ele>
        <time>2019-05-17T09:55:38.178Z</time>
      </trkpt>
      <trkpt lat="39.29924333" lon="-8.62763167">
        <ele>37.0</ele>
        <time>2019-05-17T09:55:39.155Z</time>
      </trkpt>
      <trkpt lat="39.29927167" lon="-8.62763167">
        <ele>37.0</ele>
        <time>2019-05-17T09:55:40.188Z</time>
      </trkpt>
      <trkpt lat="39.29927167" lon="-8.62763167">
        <ele>37.0</ele>
        <time>2019-05-17T09:55:41.165Z</time>
      </trkpt>
      <trkpt lat="39.29933" lon="-8.62763">
        <ele>37.0</ele>
        <time>2019-05-17T09:55:42.177Z</time>
      </trkpt>
      <trkpt lat="39.29933" lon="-8.62763">
        <ele>37.0</ele>
        <time>2019-05-17T09:55:43.168Z</time>
      </trkpt>
      <trkpt lat="39.29938833" lon="-8.62762167">
        <ele>37.0</ele>
        <time>2019-05-17T09:55:44.184Z</time>
      </trkpt>
      <trkpt lat="39.29938833" lon="-8.62762167">
        <ele>37.0</ele>
        <time>2019-05-17T09:55:45.165Z</time>
      </trkpt>
      <trkpt lat="39.29944167" lon="-8.62761833">
        <ele>37.0</ele>
        <time>2019-05-17T09:55:46.182Z</time>
      </trkpt>
      <trkpt lat="39.29944167" lon="-8.62761833">
        <ele>37.0</ele>
        <time>2019-05-17T09:55:47.158Z</time>
      </trkpt>
      <trkpt lat="39.29949667" lon="-8.62761">
        <ele>37.0</ele>
        <time>2019-05-17T09:55:48.155Z</time>
      </trkpt>
      <trkpt lat="39.29949667" lon="-8.62761">
        <ele>37.0</ele>
        <time>2019-05-17T09:55:49.169Z</time>
      </trkpt>
      <trkpt lat="39.29955333" lon="-8.62760167">
        <ele>37.0</ele>
        <time>2019-05-17T09:55:50.189Z</time>
      </trkpt>
      <trkpt lat="39.29955333" lon="-8.62760167">
        <ele>37.0</ele>
        <time>2019-05-17T09:55:51.169Z</time>
      </trkpt>
      <trkpt lat="39.29961167" lon="-8.62759">
        <ele>37.0</ele>
        <time>2019-05-17T09:55:52.184Z</time>
      </trkpt>
      <trkpt lat="39.29961167" lon="-8.62759">
        <ele>37.0</ele>
        <time>2019-05-17T09:55:53.154Z</time>
      </trkpt>
      <trkpt lat="39.29967" lon="-8.62758667">
        <ele>37.0</ele>
        <time>2019-05-17T09:55:54.162Z</time>
      </trkpt>
      <trkpt lat="39.29967" lon="-8.62758667">
        <ele>37.0</ele>
        <time>2019-05-17T09:55:55.151Z</time>
      </trkpt>
      <trkpt lat="39.29972167" lon="-8.62758167">
        <ele>38.0</ele>
        <time>2019-05-17T09:55:56.162Z</time>
      </trkpt>
      <trkpt lat="39.29972167" lon="-8.62758167">
        <ele>38.0</ele>
        <time>2019-05-17T09:55:57.180Z</time>
      </trkpt>
      <trkpt lat="39.29977167" lon="-8.62757333">
        <ele>38.0</ele>
        <time>2019-05-17T09:55:58.162Z</time>
      </trkpt>
      <trkpt lat="39.29979833" lon="-8.62757">
        <ele>37.0</ele>
        <time>2019-05-17T09:55:59.185Z</time>
      </trkpt>
      <trkpt lat="39.299825" lon="-8.62756667">
        <ele>37.0</ele>
        <time>2019-05-17T09:56:00.186Z</time>
      </trkpt>
      <trkpt lat="39.299825" lon="-8.62756667">
        <ele>37.0</ele>
        <time>2019-05-17T09:56:01.166Z</time>
      </trkpt>
      <trkpt lat="39.29988" lon="-8.62755667">
        <ele>37.0</ele>
        <time>2019-05-17T09:56:02.181Z</time>
      </trkpt>
      <trkpt lat="39.29988" lon="-8.62755667">
        <ele>37.0</ele>
        <time>2019-05-17T09:56:03.168Z</time>
      </trkpt>
      <trkpt lat="39.29993833" lon="-8.62754667">
        <ele>37.0</ele>
        <time>2019-05-17T09:56:04.154Z</time>
      </trkpt>
      <trkpt lat="39.29993833" lon="-8.62754667">
        <ele>37.0</ele>
        <time>2019-05-17T09:56:05.177Z</time>
      </trkpt>
      <trkpt lat="39.299995" lon="-8.62754">
        <ele>37.0</ele>
        <time>2019-05-17T09:56:06.155Z</time>
      </trkpt>
      <trkpt lat="39.299995" lon="-8.62754">
        <ele>37.0</ele>
        <time>2019-05-17T09:56:07.168Z</time>
      </trkpt>
      <trkpt lat="39.30005167" lon="-8.62753167">
        <ele>37.0</ele>
        <time>2019-05-17T09:56:08.186Z</time>
      </trkpt>
      <trkpt lat="39.30008" lon="-8.62752833">
        <ele>37.0</ele>
        <time>2019-05-17T09:56:09.183Z</time>
      </trkpt>
      <trkpt lat="39.30008" lon="-8.62752833">
        <ele>37.0</ele>
        <time>2019-05-17T09:56:10.188Z</time>
      </trkpt>
      <trkpt lat="39.30013667" lon="-8.62751833">
        <ele>37.0</ele>
        <time>2019-05-17T09:56:11.157Z</time>
      </trkpt>
      <trkpt lat="39.300165" lon="-8.62751167">
        <ele>37.0</ele>
        <time>2019-05-17T09:56:12.158Z</time>
      </trkpt>
      <trkpt lat="39.300165" lon="-8.62751167">
        <ele>37.0</ele>
        <time>2019-05-17T09:56:13.170Z</time>
      </trkpt>
      <trkpt lat="39.30022" lon="-8.627505">
        <ele>37.0</ele>
        <time>2019-05-17T09:56:14.182Z</time>
      </trkpt>
      <trkpt lat="39.30022" lon="-8.627505">
        <ele>37.0</ele>
        <time>2019-05-17T09:56:15.155Z</time>
      </trkpt>
      <trkpt lat="39.30027333" lon="-8.62749833">
        <ele>37.0</ele>
        <time>2019-05-17T09:56:16.177Z</time>
      </trkpt>
      <trkpt lat="39.30027333" lon="-8.62749833">
        <ele>37.0</ele>
        <time>2019-05-17T09:56:17.152Z</time>
      </trkpt>
      <trkpt lat="39.300325" lon="-8.62748667">
        <ele>37.0</ele>
        <time>2019-05-17T09:56:18.244Z</time>
      </trkpt>
      <trkpt lat="39.30035167" lon="-8.627485">
        <ele>38.0</ele>
        <time>2019-05-17T09:56:19.160Z</time>
      </trkpt>
      <trkpt lat="39.30035167" lon="-8.627485">
        <ele>38.0</ele>
        <time>2019-05-17T09:56:20.150Z</time>
      </trkpt>
      <trkpt lat="39.300405" lon="-8.62747833">
        <ele>38.0</ele>
        <time>2019-05-17T09:56:21.162Z</time>
      </trkpt>
      <trkpt lat="39.300405" lon="-8.62747833">
        <ele>38.0</ele>
        <time>2019-05-17T09:56:22.177Z</time>
      </trkpt>
      <trkpt lat="39.30046" lon="-8.62746833">
        <ele>38.0</ele>
        <time>2019-05-17T09:56:23.188Z</time>
      </trkpt>
      <trkpt lat="39.30048833" lon="-8.62746333">
        <ele>38.0</ele>
        <time>2019-05-17T09:56:24.156Z</time>
      </trkpt>
      <trkpt lat="39.30048833" lon="-8.62746333">
        <ele>38.0</ele>
        <time>2019-05-17T09:56:25.167Z</time>
      </trkpt>
      <trkpt lat="39.30054167" lon="-8.62745167">
        <ele>37.0</ele>
        <time>2019-05-17T09:56:26.182Z</time>
      </trkpt>
      <trkpt lat="39.30054167" lon="-8.62745167">
        <ele>37.0</ele>
        <time>2019-05-17T09:56:27.159Z</time>
      </trkpt>
      <trkpt lat="39.300595" lon="-8.62744167">
        <ele>37.0</ele>
        <time>2019-05-17T09:56:28.171Z</time>
      </trkpt>
      <trkpt lat="39.300595" lon="-8.62744167">
        <ele>37.0</ele>
        <time>2019-05-17T09:56:29.186Z</time>
      </trkpt>
      <trkpt lat="39.300645" lon="-8.627435">
        <ele>37.0</ele>
        <time>2019-05-17T09:56:30.157Z</time>
      </trkpt>
      <trkpt lat="39.300645" lon="-8.627435">
        <ele>37.0</ele>
        <time>2019-05-17T09:56:31.176Z</time>
      </trkpt>
      <trkpt lat="39.30069667" lon="-8.627425">
        <ele>38.0</ele>
        <time>2019-05-17T09:56:32.186Z</time>
      </trkpt>
      <trkpt lat="39.30069667" lon="-8.627425">
        <ele>38.0</ele>
        <time>2019-05-17T09:56:33.166Z</time>
      </trkpt>
      <trkpt lat="39.30075167" lon="-8.62741167">
        <ele>38.0</ele>
        <time>2019-05-17T09:56:34.182Z</time>
      </trkpt>
      <trkpt lat="39.30077833" lon="-8.62740667">
        <ele>38.0</ele>
        <time>2019-05-17T09:56:35.161Z</time>
      </trkpt>
      <trkpt lat="39.30077833" lon="-8.62740667">
        <ele>38.0</ele>
        <time>2019-05-17T09:56:36.172Z</time>
      </trkpt>
      <trkpt lat="39.30083" lon="-8.627395">
        <ele>38.0</ele>
        <time>2019-05-17T09:56:37.186Z</time>
      </trkpt>
      <trkpt lat="39.30083" lon="-8.627395">
        <ele>38.0</ele>
        <time>2019-05-17T09:56:38.156Z</time>
      </trkpt>
      <trkpt lat="39.30088" lon="-8.62737667">
        <ele>38.0</ele>
        <time>2019-05-17T09:56:39.173Z</time>
      </trkpt>
      <trkpt lat="39.30088" lon="-8.62737667">
        <ele>38.0</ele>
        <time>2019-05-17T09:56:40.157Z</time>
      </trkpt>
      <trkpt lat="39.30093333" lon="-8.62736833">
        <ele>38.0</ele>
        <time>2019-05-17T09:56:41.176Z</time>
      </trkpt>
      <trkpt lat="39.30096167" lon="-8.62736333">
        <ele>38.0</ele>
        <time>2019-05-17T09:56:42.150Z</time>
      </trkpt>
      <trkpt lat="39.30096167" lon="-8.62736333">
        <ele>38.0</ele>
        <time>2019-05-17T09:56:43.162Z</time>
      </trkpt>
      <trkpt lat="39.301015" lon="-8.62735333">
        <ele>38.0</ele>
        <time>2019-05-17T09:56:44.164Z</time>
      </trkpt>
      <trkpt lat="39.301015" lon="-8.62735333">
        <ele>38.0</ele>
        <time>2019-05-17T09:56:45.165Z</time>
      </trkpt>
      <trkpt lat="39.30106833" lon="-8.62734833">
        <ele>38.0</ele>
        <time>2019-05-17T09:56:46.186Z</time>
      </trkpt>
      <trkpt lat="39.30109333" lon="-8.627345">
        <ele>38.0</ele>
        <time>2019-05-17T09:56:47.165Z</time>
      </trkpt>
      <trkpt lat="39.30109333" lon="-8.627345">
        <ele>38.0</ele>
        <time>2019-05-17T09:56:48.152Z</time>
      </trkpt>
      <trkpt lat="39.30114667" lon="-8.62733167">
        <ele>38.0</ele>
        <time>2019-05-17T09:56:49.164Z</time>
      </trkpt>
      <trkpt lat="39.30117167" lon="-8.627325">
        <ele>37.0</ele>
        <time>2019-05-17T09:56:50.181Z</time>
      </trkpt>
      <trkpt lat="39.30117167" lon="-8.627325">
        <ele>37.0</ele>
        <time>2019-05-17T09:56:51.177Z</time>
      </trkpt>
      <trkpt lat="39.30122333" lon="-8.627315">
        <ele>37.0</ele>
        <time>2019-05-17T09:56:52.151Z</time>
      </trkpt>
      <trkpt lat="39.30122333" lon="-8.627315">
        <ele>37.0</ele>
        <time>2019-05-17T09:56:53.158Z</time>
      </trkpt>
      <trkpt lat="39.30127667" lon="-8.62730833">
        <ele>37.0</ele>
        <time>2019-05-17T09:56:54.176Z</time>
      </trkpt>
      <trkpt lat="39.30127667" lon="-8.62730833">
        <ele>37.0</ele>
        <time>2019-05-17T09:56:55.162Z</time>
      </trkpt>
      <trkpt lat="39.30133167" lon="-8.6273">
        <ele>37.0</ele>
        <time>2019-05-17T09:56:56.184Z</time>
      </trkpt>
      <trkpt lat="39.30133167" lon="-8.6273">
        <ele>37.0</ele>
        <time>2019-05-17T09:56:57.166Z</time>
      </trkpt>
      <trkpt lat="39.30138667" lon="-8.62729">
        <ele>36.0</ele>
        <time>2019-05-17T09:56:58.177Z</time>
      </trkpt>
      <trkpt lat="39.30138667" lon="-8.62729">
        <ele>36.0</ele>
        <time>2019-05-17T09:56:59.188Z</time>
      </trkpt>
      <trkpt lat="39.301445" lon="-8.62729">
        <ele>37.0</ele>
        <time>2019-05-17T09:57:00.156Z</time>
      </trkpt>
      <trkpt lat="39.301445" lon="-8.62729">
        <ele>37.0</ele>
        <time>2019-05-17T09:57:01.176Z</time>
      </trkpt>
      <trkpt lat="39.30150167" lon="-8.627285">
        <ele>37.0</ele>
        <time>2019-05-17T09:57:02.184Z</time>
      </trkpt>
      <trkpt lat="39.30150167" lon="-8.627285">
        <ele>37.0</ele>
        <time>2019-05-17T09:57:03.185Z</time>
      </trkpt>
      <trkpt lat="39.30156167" lon="-8.62728667">
        <ele>37.0</ele>
        <time>2019-05-17T09:57:04.158Z</time>
      </trkpt>
      <trkpt lat="39.30158833" lon="-8.62728833">
        <ele>37.0</ele>
        <time>2019-05-17T09:57:05.160Z</time>
      </trkpt>
      <trkpt lat="39.30161667" lon="-8.62729">
        <ele>37.0</ele>
        <time>2019-05-17T09:57:06.177Z</time>
      </trkpt>
      <trkpt lat="39.30161667" lon="-8.62729">
        <ele>37.0</ele>
        <time>2019-05-17T09:57:07.189Z</time>
      </trkpt>
      <trkpt lat="39.30167" lon="-8.627285">
        <ele>37.0</ele>
        <time>2019-05-17T09:57:08.159Z</time>
      </trkpt>
      <trkpt lat="39.30167" lon="-8.627285">
        <ele>37.0</ele>
        <time>2019-05-17T09:57:09.151Z</time>
      </trkpt>
      <trkpt lat="39.30172333" lon="-8.62728333">
        <ele>37.0</ele>
        <time>2019-05-17T09:57:10.187Z</time>
      </trkpt>
      <trkpt lat="39.30174833" lon="-8.62728167">
        <ele>37.0</ele>
        <time>2019-05-17T09:57:11.178Z</time>
      </trkpt>
      <trkpt lat="39.30177667" lon="-8.62728333">
        <ele>37.0</ele>
        <time>2019-05-17T09:57:12.156Z</time>
      </trkpt>
      <trkpt lat="39.30177667" lon="-8.62728333">
        <ele>37.0</ele>
        <time>2019-05-17T09:57:13.166Z</time>
      </trkpt>
      <trkpt lat="39.30182333" lon="-8.62729">
        <ele>38.0</ele>
        <time>2019-05-17T09:57:14.180Z</time>
      </trkpt>
      <trkpt lat="39.30182333" lon="-8.62729">
        <ele>38.0</ele>
        <time>2019-05-17T09:57:15.184Z</time>
      </trkpt>
      <trkpt lat="39.301875" lon="-8.627295">
        <ele>38.0</ele>
        <time>2019-05-17T09:57:16.160Z</time>
      </trkpt>
      <trkpt lat="39.301875" lon="-8.627295">
        <ele>38.0</ele>
        <time>2019-05-17T09:57:17.168Z</time>
      </trkpt>
      <trkpt lat="39.30193" lon="-8.62730167">
        <ele>39.0</ele>
        <time>2019-05-17T09:57:18.150Z</time>
      </trkpt>
      <trkpt lat="39.30193" lon="-8.62730167">
        <ele>39.0</ele>
        <time>2019-05-17T09:57:19.175Z</time>
      </trkpt>
      <trkpt lat="39.30198" lon="-8.62731167">
        <ele>39.0</ele>
        <time>2019-05-17T09:57:20.187Z</time>
      </trkpt>
      <trkpt lat="39.30198" lon="-8.62731167">
        <ele>39.0</ele>
        <time>2019-05-17T09:57:21.156Z</time>
      </trkpt>
      <trkpt lat="39.30203333" lon="-8.62732">
        <ele>40.0</ele>
        <time>2019-05-17T09:57:22.168Z</time>
      </trkpt>
      <trkpt lat="39.30203333" lon="-8.62732">
        <ele>40.0</ele>
        <time>2019-05-17T09:57:23.150Z</time>
      </trkpt>
      <trkpt lat="39.302085" lon="-8.62732333">
        <ele>40.0</ele>
        <time>2019-05-17T09:57:24.160Z</time>
      </trkpt>
      <trkpt lat="39.302085" lon="-8.62732333">
        <ele>40.0</ele>
        <time>2019-05-17T09:57:25.180Z</time>
      </trkpt>
      <trkpt lat="39.30214" lon="-8.627335">
        <ele>40.0</ele>
        <time>2019-05-17T09:57:26.151Z</time>
      </trkpt>
      <trkpt lat="39.30214" lon="-8.627335">
        <ele>40.0</ele>
        <time>2019-05-17T09:57:27.168Z</time>
      </trkpt>
      <trkpt lat="39.30219667" lon="-8.62734667">
        <ele>41.0</ele>
        <time>2019-05-17T09:57:28.185Z</time>
      </trkpt>
      <trkpt lat="39.30219667" lon="-8.62734667">
        <ele>41.0</ele>
        <time>2019-05-17T09:57:29.158Z</time>
      </trkpt>
      <trkpt lat="39.30225333" lon="-8.62736">
        <ele>40.0</ele>
        <time>2019-05-17T09:57:30.168Z</time>
      </trkpt>
      <trkpt lat="39.30225333" lon="-8.62736">
        <ele>40.0</ele>
        <time>2019-05-17T09:57:31.178Z</time>
      </trkpt>
      <trkpt lat="39.30231333" lon="-8.62737333">
        <ele>40.0</ele>
        <time>2019-05-17T09:57:32.188Z</time>
      </trkpt>
      <trkpt lat="39.30231333" lon="-8.62737333">
        <ele>40.0</ele>
        <time>2019-05-17T09:57:33.170Z</time>
      </trkpt>
      <trkpt lat="39.302365" lon="-8.627375">
        <ele>40.0</ele>
        <time>2019-05-17T09:57:34.178Z</time>
      </trkpt>
      <trkpt lat="39.30239167" lon="-8.62737833">
        <ele>40.0</ele>
        <time>2019-05-17T09:57:35.173Z</time>
      </trkpt>
      <trkpt lat="39.30241833" lon="-8.627385">
        <ele>40.0</ele>
        <time>2019-05-17T09:57:36.179Z</time>
      </trkpt>
      <trkpt lat="39.30241833" lon="-8.627385">
        <ele>40.0</ele>
        <time>2019-05-17T09:57:37.151Z</time>
      </trkpt>
      <trkpt lat="39.30247833" lon="-8.6274">
        <ele>40.0</ele>
        <time>2019-05-17T09:57:38.163Z</time>
      </trkpt>
      <trkpt lat="39.30247833" lon="-8.6274">
        <ele>40.0</ele>
        <time>2019-05-17T09:57:39.179Z</time>
      </trkpt>
      <trkpt lat="39.30253167" lon="-8.62741333">
        <ele>40.0</ele>
        <time>2019-05-17T09:57:40.150Z</time>
      </trkpt>
      <trkpt lat="39.30253167" lon="-8.62741333">
        <ele>40.0</ele>
        <time>2019-05-17T09:57:41.170Z</time>
      </trkpt>
      <trkpt lat="39.302585" lon="-8.62742667">
        <ele>40.0</ele>
        <time>2019-05-17T09:57:42.157Z</time>
      </trkpt>
      <trkpt lat="39.302585" lon="-8.62742667">
        <ele>40.0</ele>
        <time>2019-05-17T09:57:43.174Z</time>
      </trkpt>
      <trkpt lat="39.30263833" lon="-8.62744333">
        <ele>40.0</ele>
        <time>2019-05-17T09:57:44.190Z</time>
      </trkpt>
      <trkpt lat="39.30263833" lon="-8.62744333">
        <ele>40.0</ele>
        <time>2019-05-17T09:57:45.159Z</time>
      </trkpt>
      <trkpt lat="39.30269" lon="-8.62746667">
        <ele>40.0</ele>
        <time>2019-05-17T09:57:46.168Z</time>
      </trkpt>
      <trkpt lat="39.302715" lon="-8.62747667">
        <ele>40.0</ele>
        <time>2019-05-17T09:57:47.185Z</time>
      </trkpt>
      <trkpt lat="39.30274" lon="-8.627485">
        <ele>40.0</ele>
        <time>2019-05-17T09:57:48.156Z</time>
      </trkpt>
      <trkpt lat="39.30274" lon="-8.627485">
        <ele>40.0</ele>
        <time>2019-05-17T09:57:49.167Z</time>
      </trkpt>
      <trkpt lat="39.302795" lon="-8.62749667">
        <ele>40.0</ele>
        <time>2019-05-17T09:57:50.177Z</time>
      </trkpt>
      <trkpt lat="39.302795" lon="-8.62749667">
        <ele>40.0</ele>
        <time>2019-05-17T09:57:51.184Z</time>
      </trkpt>
      <trkpt lat="39.30285" lon="-8.62750667">
        <ele>40.0</ele>
        <time>2019-05-17T09:57:52.165Z</time>
      </trkpt>
      <trkpt lat="39.30285" lon="-8.62750667">
        <ele>40.0</ele>
        <time>2019-05-17T09:57:53.154Z</time>
      </trkpt>
      <trkpt lat="39.30290167" lon="-8.62751667">
        <ele>40.0</ele>
        <time>2019-05-17T09:57:54.161Z</time>
      </trkpt>
      <trkpt lat="39.30290167" lon="-8.62751667">
        <ele>40.0</ele>
        <time>2019-05-17T09:57:55.173Z</time>
      </trkpt>
      <trkpt lat="39.30295167" lon="-8.62752667">
        <ele>40.0</ele>
        <time>2019-05-17T09:57:56.186Z</time>
      </trkpt>
      <trkpt lat="39.30297833" lon="-8.62753167">
        <ele>40.0</ele>
        <time>2019-05-17T09:57:57.188Z</time>
      </trkpt>
      <trkpt lat="39.30297833" lon="-8.62753167">
        <ele>40.0</ele>
        <time>2019-05-17T09:57:58.162Z</time>
      </trkpt>
      <trkpt lat="39.30303167" lon="-8.62755167">
        <ele>40.0</ele>
        <time>2019-05-17T09:57:59.179Z</time>
      </trkpt>
      <trkpt lat="39.30305667" lon="-8.62756333">
        <ele>40.0</ele>
        <time>2019-05-17T09:58:00.151Z</time>
      </trkpt>
      <trkpt lat="39.30305667" lon="-8.62756333">
        <ele>40.0</ele>
        <time>2019-05-17T09:58:01.166Z</time>
      </trkpt>
      <trkpt lat="39.303115" lon="-8.62758">
        <ele>40.0</ele>
        <time>2019-05-17T09:58:02.177Z</time>
      </trkpt>
      <trkpt lat="39.303115" lon="-8.62758">
        <ele>40.0</ele>
        <time>2019-05-17T09:58:03.188Z</time>
      </trkpt>
      <trkpt lat="39.303175" lon="-8.627595">
        <ele>40.0</ele>
        <time>2019-05-17T09:58:04.156Z</time>
      </trkpt>
      <trkpt lat="39.303175" lon="-8.627595">
        <ele>40.0</ele>
        <time>2019-05-17T09:58:05.184Z</time>
      </trkpt>
      <trkpt lat="39.30323333" lon="-8.627605">
        <ele>41.0</ele>
        <time>2019-05-17T09:58:06.174Z</time>
      </trkpt>
      <trkpt lat="39.30326333" lon="-8.62761">
        <ele>40.0</ele>
        <time>2019-05-17T09:58:07.152Z</time>
      </trkpt>
      <trkpt lat="39.30326333" lon="-8.62761">
        <ele>40.0</ele>
        <time>2019-05-17T09:58:08.185Z</time>
      </trkpt>
      <trkpt lat="39.30332167" lon="-8.627625">
        <ele>40.0</ele>
        <time>2019-05-17T09:58:09.169Z</time>
      </trkpt>
      <trkpt lat="39.30332167" lon="-8.627625">
        <ele>40.0</ele>
        <time>2019-05-17T09:58:10.177Z</time>
      </trkpt>
      <trkpt lat="39.30337833" lon="-8.62763833">
        <ele>41.0</ele>
        <time>2019-05-17T09:58:11.169Z</time>
      </trkpt>
      <trkpt lat="39.303405" lon="-8.627645">
        <ele>41.0</ele>
        <time>2019-05-17T09:58:12.158Z</time>
      </trkpt>
      <trkpt lat="39.303405" lon="-8.627645">
        <ele>41.0</ele>
        <time>2019-05-17T09:58:13.173Z</time>
      </trkpt>
      <trkpt lat="39.30346" lon="-8.62766">
        <ele>41.0</ele>
        <time>2019-05-17T09:58:14.158Z</time>
      </trkpt>
      <trkpt lat="39.30346" lon="-8.62766">
        <ele>41.0</ele>
        <time>2019-05-17T09:58:15.177Z</time>
      </trkpt>
      <trkpt lat="39.30351" lon="-8.62767167">
        <ele>41.0</ele>
        <time>2019-05-17T09:58:16.186Z</time>
      </trkpt>
      <trkpt lat="39.30351" lon="-8.62767167">
        <ele>41.0</ele>
        <time>2019-05-17T09:58:17.167Z</time>
      </trkpt>
      <trkpt lat="39.30355833" lon="-8.62768333">
        <ele>41.0</ele>
        <time>2019-05-17T09:58:18.178Z</time>
      </trkpt>
      <trkpt lat="39.30355833" lon="-8.62768333">
        <ele>41.0</ele>
        <time>2019-05-17T09:58:19.158Z</time>
      </trkpt>
      <trkpt lat="39.30360833" lon="-8.62769">
        <ele>41.0</ele>
        <time>2019-05-17T09:58:20.169Z</time>
      </trkpt>
      <trkpt lat="39.30360833" lon="-8.62769">
        <ele>41.0</ele>
        <time>2019-05-17T09:58:21.184Z</time>
      </trkpt>
      <trkpt lat="39.30365833" lon="-8.627695">
        <ele>41.0</ele>
        <time>2019-05-17T09:58:22.168Z</time>
      </trkpt>
      <trkpt lat="39.30365833" lon="-8.627695">
        <ele>41.0</ele>
        <time>2019-05-17T09:58:23.167Z</time>
      </trkpt>
      <trkpt lat="39.30371" lon="-8.62770167">
        <ele>41.0</ele>
        <time>2019-05-17T09:58:24.180Z</time>
      </trkpt>
      <trkpt lat="39.30371" lon="-8.62770167">
        <ele>41.0</ele>
        <time>2019-05-17T09:58:25.189Z</time>
      </trkpt>
      <trkpt lat="39.30375833" lon="-8.627705">
        <ele>41.0</ele>
        <time>2019-05-17T09:58:26.157Z</time>
      </trkpt>
      <trkpt lat="39.30375833" lon="-8.627705">
        <ele>41.0</ele>
        <time>2019-05-17T09:58:27.176Z</time>
      </trkpt>
      <trkpt lat="39.30380333" lon="-8.62771">
        <ele>42.0</ele>
        <time>2019-05-17T09:58:28.151Z</time>
      </trkpt>
      <trkpt lat="39.30380333" lon="-8.62771">
        <ele>42.0</ele>
        <time>2019-05-17T09:58:29.167Z</time>
      </trkpt>
      <trkpt lat="39.303845" lon="-8.62770667">
        <ele>42.0</ele>
        <time>2019-05-17T09:58:30.190Z</time>
      </trkpt>
      <trkpt lat="39.303845" lon="-8.62770667">
        <ele>42.0</ele>
        <time>2019-05-17T09:58:31.152Z</time>
      </trkpt>
      <trkpt lat="39.30388667" lon="-8.62772333">
        <ele>42.0</ele>
        <time>2019-05-17T09:58:32.161Z</time>
      </trkpt>
      <trkpt lat="39.30388667" lon="-8.62772333">
        <ele>42.0</ele>
        <time>2019-05-17T09:58:33.183Z</time>
      </trkpt>
      <trkpt lat="39.30392" lon="-8.62776167">
        <ele>43.0</ele>
        <time>2019-05-17T09:58:34.156Z</time>
      </trkpt>
      <trkpt lat="39.30393333" lon="-8.62777833">
        <ele>43.0</ele>
        <time>2019-05-17T09:58:35.154Z</time>
      </trkpt>
      <trkpt lat="39.30395" lon="-8.62779">
        <ele>43.0</ele>
        <time>2019-05-17T09:58:36.186Z</time>
      </trkpt>
      <trkpt lat="39.30395" lon="-8.62779">
        <ele>43.0</ele>
        <time>2019-05-17T09:58:37.168Z</time>
      </trkpt>
      <trkpt lat="39.30395333" lon="-8.627805">
        <ele>44.0</ele>
        <time>2019-05-17T09:58:38.180Z</time>
      </trkpt>
      <trkpt lat="39.30395333" lon="-8.62780833">
        <ele>44.0</ele>
        <time>2019-05-17T09:58:39.175Z</time>
      </trkpt>
      <trkpt lat="39.30395333" lon="-8.62780833">
        <ele>44.0</ele>
        <time>2019-05-17T09:58:40.168Z</time>
      </trkpt>
      <trkpt lat="39.30395" lon="-8.62780833">
        <ele>44.0</ele>
        <time>2019-05-17T09:58:41.179Z</time>
      </trkpt>
      <trkpt lat="39.30395" lon="-8.62780833">
        <ele>44.0</ele>
        <time>2019-05-17T09:58:42.154Z</time>
      </trkpt>
      <trkpt lat="39.30395" lon="-8.62780833">
        <ele>44.0</ele>
        <time>2019-05-17T09:58:43.166Z</time>
      </trkpt>
      <trkpt lat="39.30395" lon="-8.62780833">
        <ele>44.0</ele>
        <time>2019-05-17T09:58:44.172Z</time>
      </trkpt>
      <trkpt lat="39.30395" lon="-8.62780833">
        <ele>44.0</ele>
        <time>2019-05-17T09:58:45.177Z</time>
      </trkpt>
      <trkpt lat="39.30395" lon="-8.62780833">
        <ele>44.0</ele>
        <time>2019-05-17T09:58:46.180Z</time>
      </trkpt>
      <trkpt lat="39.30395" lon="-8.62780833">
        <ele>44.0</ele>
        <time>2019-05-17T09:58:47.174Z</time>
      </trkpt>
      <trkpt lat="39.30395" lon="-8.62780833">
        <ele>44.0</ele>
        <time>2019-05-17T09:58:48.183Z</time>
      </trkpt>
      <trkpt lat="39.30395" lon="-8.62780833">
        <ele>44.0</ele>
        <time>2019-05-17T09:58:49.150Z</time>
      </trkpt>
      <trkpt lat="39.30395" lon="-8.62780833">
        <ele>44.0</ele>
        <time>2019-05-17T09:58:50.180Z</time>
      </trkpt>
      <trkpt lat="39.30395" lon="-8.62780833">
        <ele>44.0</ele>
        <time>2019-05-17T09:58:51.174Z</time>
      </trkpt>
      <trkpt lat="39.30395" lon="-8.62780833">
        <ele>44.0</ele>
        <time>2019-05-17T09:58:52.180Z</time>
      </trkpt>
      <trkpt lat="39.30395" lon="-8.62780833">
        <ele>44.0</ele>
        <time>2019-05-17T09:58:53.174Z</time>
      </trkpt>
      <trkpt lat="39.30394167" lon="-8.62784">
        <ele>45.0</ele>
        <time>2019-05-17T09:58:54.161Z</time>
      </trkpt>
      <trkpt lat="39.30394167" lon="-8.62784">
        <ele>45.0</ele>
        <time>2019-05-17T09:58:55.156Z</time>
      </trkpt>
      <trkpt lat="39.30394167" lon="-8.62788">
        <ele>45.0</ele>
        <time>2019-05-17T09:58:56.156Z</time>
      </trkpt>
      <trkpt lat="39.30394167" lon="-8.62788">
        <ele>45.0</ele>
        <time>2019-05-17T09:58:57.177Z</time>
      </trkpt>
      <trkpt lat="39.30395833" lon="-8.62792167">
        <ele>45.0</ele>
        <time>2019-05-17T09:58:58.180Z</time>
      </trkpt>
      <trkpt lat="39.30395833" lon="-8.62792167">
        <ele>45.0</ele>
        <time>2019-05-17T09:58:59.175Z</time>
      </trkpt>
      <trkpt lat="39.30397333" lon="-8.62796833">
        <ele>45.0</ele>
        <time>2019-05-17T09:59:00.163Z</time>
      </trkpt>
      <trkpt lat="39.30397333" lon="-8.62796833">
        <ele>45.0</ele>
        <time>2019-05-17T09:59:01.155Z</time>
      </trkpt>
      <trkpt lat="39.30399333" lon="-8.62801833">
        <ele>45.0</ele>
        <time>2019-05-17T09:59:02.174Z</time>
      </trkpt>
      <trkpt lat="39.30399333" lon="-8.62801833">
        <ele>45.0</ele>
        <time>2019-05-17T09:59:03.168Z</time>
      </trkpt>
      <trkpt lat="39.30401333" lon="-8.62807167">
        <ele>45.0</ele>
        <time>2019-05-17T09:59:04.184Z</time>
      </trkpt>
      <trkpt lat="39.30402167" lon="-8.6281">
        <ele>45.0</ele>
        <time>2019-05-17T09:59:05.160Z</time>
      </trkpt>
      <trkpt lat="39.30403" lon="-8.62812833">
        <ele>45.0</ele>
        <time>2019-05-17T09:59:06.185Z</time>
      </trkpt>
      <trkpt lat="39.30403" lon="-8.62812833">
        <ele>45.0</ele>
        <time>2019-05-17T09:59:07.168Z</time>
      </trkpt>
      <trkpt lat="39.30405333" lon="-8.62817833">
        <ele>45.0</ele>
        <time>2019-05-17T09:59:08.184Z</time>
      </trkpt>
      <trkpt lat="39.30405333" lon="-8.62817833">
        <ele>45.0</ele>
        <time>2019-05-17T09:59:09.179Z</time>
      </trkpt>
      <trkpt lat="39.304075" lon="-8.628225">
        <ele>46.0</ele>
        <time>2019-05-17T09:59:10.185Z</time>
      </trkpt>
      <trkpt lat="39.30409" lon="-8.62824167">
        <ele>46.0</ele>
        <time>2019-05-17T09:59:11.166Z</time>
      </trkpt>
      <trkpt lat="39.30411333" lon="-8.62825333">
        <ele>46.0</ele>
        <time>2019-05-17T09:59:12.175Z</time>
      </trkpt>
      <trkpt lat="39.30411333" lon="-8.62825333">
        <ele>46.0</ele>
        <time>2019-05-17T09:59:13.181Z</time>
      </trkpt>
      <trkpt lat="39.30416333" lon="-8.62827833">
        <ele>47.0</ele>
        <time>2019-05-17T09:59:14.187Z</time>
      </trkpt>
      <trkpt lat="39.30416333" lon="-8.62827833">
        <ele>47.0</ele>
        <time>2019-05-17T09:59:15.176Z</time>
      </trkpt>
      <trkpt lat="39.30421" lon="-8.62829667">
        <ele>47.0</ele>
        <time>2019-05-17T09:59:16.164Z</time>
      </trkpt>
      <trkpt lat="39.30423167" lon="-8.62830333">
        <ele>47.0</ele>
        <time>2019-05-17T09:59:17.159Z</time>
      </trkpt>
      <trkpt lat="39.30423167" lon="-8.62830333">
        <ele>47.0</ele>
        <time>2019-05-17T09:59:18.187Z</time>
      </trkpt>
      <trkpt lat="39.30427167" lon="-8.62832">
        <ele>48.0</ele>
        <time>2019-05-17T09:59:19.172Z</time>
      </trkpt>
      <trkpt lat="39.30427167" lon="-8.62832">
        <ele>48.0</ele>
        <time>2019-05-17T09:59:20.173Z</time>
      </trkpt>
      <trkpt lat="39.30430833" lon="-8.62834">
        <ele>48.0</ele>
        <time>2019-05-17T09:59:21.183Z</time>
      </trkpt>
      <trkpt lat="39.30430833" lon="-8.62834">
        <ele>48.0</ele>
        <time>2019-05-17T09:59:22.174Z</time>
      </trkpt>
      <trkpt lat="39.30434" lon="-8.62837167">
        <ele>48.0</ele>
        <time>2019-05-17T09:59:23.184Z</time>
      </trkpt>
      <trkpt lat="39.30435333" lon="-8.62838833">
        <ele>49.0</ele>
        <time>2019-05-17T09:59:24.184Z</time>
      </trkpt>
      <trkpt lat="39.30435333" lon="-8.62838833">
        <ele>49.0</ele>
        <time>2019-05-17T09:59:25.174Z</time>
      </trkpt>
      <trkpt lat="39.30438833" lon="-8.62842">
        <ele>49.0</ele>
        <time>2019-05-17T09:59:26.185Z</time>
      </trkpt>
      <trkpt lat="39.30438833" lon="-8.62842">
        <ele>49.0</ele>
        <time>2019-05-17T09:59:27.173Z</time>
      </trkpt>
      <trkpt lat="39.30442167" lon="-8.628445">
        <ele>50.0</ele>
        <time>2019-05-17T09:59:28.185Z</time>
      </trkpt>
      <trkpt lat="39.30442167" lon="-8.628445">
        <ele>50.0</ele>
        <time>2019-05-17T09:59:29.174Z</time>
      </trkpt>
      <trkpt lat="39.30444833" lon="-8.62847667">
        <ele>50.0</ele>
        <time>2019-05-17T09:59:30.159Z</time>
      </trkpt>
      <trkpt lat="39.30444833" lon="-8.62847667">
        <ele>50.0</ele>
        <time>2019-05-17T09:59:31.184Z</time>
      </trkpt>
      <trkpt lat="39.30446667" lon="-8.62851833">
        <ele>51.0</ele>
        <time>2019-05-17T09:59:32.183Z</time>
      </trkpt>
      <trkpt lat="39.30446667" lon="-8.62851833">
        <ele>51.0</ele>
        <time>2019-05-17T09:59:33.174Z</time>
      </trkpt>
      <trkpt lat="39.304485" lon="-8.628565">
        <ele>51.0</ele>
        <time>2019-05-17T09:59:34.184Z</time>
      </trkpt>
      <trkpt lat="39.304485" lon="-8.628565">
        <ele>51.0</ele>
        <time>2019-05-17T09:59:35.174Z</time>
      </trkpt>
      <trkpt lat="39.30450667" lon="-8.62861">
        <ele>51.0</ele>
        <time>2019-05-17T09:59:36.159Z</time>
      </trkpt>
      <trkpt lat="39.30450667" lon="-8.62861">
        <ele>51.0</ele>
        <time>2019-05-17T09:59:37.184Z</time>
      </trkpt>
      <trkpt lat="39.304525" lon="-8.62865333">
        <ele>51.0</ele>
        <time>2019-05-17T09:59:38.185Z</time>
      </trkpt>
      <trkpt lat="39.304525" lon="-8.62865333">
        <ele>51.0</ele>
        <time>2019-05-17T09:59:39.174Z</time>
      </trkpt>
      <trkpt lat="39.30454833" lon="-8.62869667">
        <ele>51.0</ele>
        <time>2019-05-17T09:59:40.183Z</time>
      </trkpt>
      <trkpt lat="39.30454833" lon="-8.62869667">
        <ele>51.0</ele>
        <time>2019-05-17T09:59:41.174Z</time>
      </trkpt>
      <trkpt lat="39.304585" lon="-8.62872167">
        <ele>51.0</ele>
        <time>2019-05-17T09:59:42.182Z</time>
      </trkpt>
      <trkpt lat="39.304585" lon="-8.62872167">
        <ele>51.0</ele>
        <time>2019-05-17T09:59:43.173Z</time>
      </trkpt>
      <trkpt lat="39.30462667" lon="-8.62874667">
        <ele>51.0</ele>
        <time>2019-05-17T09:59:44.181Z</time>
      </trkpt>
      <trkpt lat="39.30462667" lon="-8.62874667">
        <ele>51.0</ele>
        <time>2019-05-17T09:59:45.174Z</time>
      </trkpt>
      <trkpt lat="39.30467" lon="-8.62876333">
        <ele>51.0</ele>
        <time>2019-05-17T09:59:46.186Z</time>
      </trkpt>
      <trkpt lat="39.30467" lon="-8.62876333">
        <ele>51.0</ele>
        <time>2019-05-17T09:59:47.175Z</time>
      </trkpt>
      <trkpt lat="39.304715" lon="-8.62878167">
        <ele>51.0</ele>
        <time>2019-05-17T09:59:48.186Z</time>
      </trkpt>
      <trkpt lat="39.304715" lon="-8.62878167">
        <ele>51.0</ele>
        <time>2019-05-17T09:59:49.176Z</time>
      </trkpt>
      <trkpt lat="39.30476" lon="-8.62878667">
        <ele>52.0</ele>
        <time>2019-05-17T09:59:50.183Z</time>
      </trkpt>
      <trkpt lat="39.304785" lon="-8.628785">
        <ele>52.0</ele>
        <time>2019-05-17T09:59:51.184Z</time>
      </trkpt>
      <trkpt lat="39.304785" lon="-8.628785">
        <ele>52.0</ele>
        <time>2019-05-17T09:59:52.174Z</time>
      </trkpt>
      <trkpt lat="39.304825" lon="-8.62878333">
        <ele>51.0</ele>
        <time>2019-05-17T09:59:53.155Z</time>
      </trkpt>
      <trkpt lat="39.30484333" lon="-8.62877833">
        <ele>51.0</ele>
        <time>2019-05-17T09:59:54.166Z</time>
      </trkpt>
      <trkpt lat="39.30484333" lon="-8.62877833">
        <ele>51.0</ele>
        <time>2019-05-17T09:59:55.185Z</time>
      </trkpt>
      <trkpt lat="39.30487833" lon="-8.62876667">
        <ele>52.0</ele>
        <time>2019-05-17T09:59:56.184Z</time>
      </trkpt>
      <trkpt lat="39.30487833" lon="-8.62876667">
        <ele>52.0</ele>
        <time>2019-05-17T09:59:57.177Z</time>
      </trkpt>
      <trkpt lat="39.30490833" lon="-8.62875833">
        <ele>52.0</ele>
        <time>2019-05-17T09:59:58.153Z</time>
      </trkpt>
      <trkpt lat="39.30490833" lon="-8.62875833">
        <ele>52.0</ele>
        <time>2019-05-17T09:59:59.178Z</time>
      </trkpt>
      <trkpt lat="39.30493" lon="-8.62874167">
        <ele>52.0</ele>
        <time>2019-05-17T10:00:00.152Z</time>
      </trkpt>
      <trkpt lat="39.30493" lon="-8.62874167">
        <ele>52.0</ele>
        <time>2019-05-17T10:00:01.175Z</time>
      </trkpt>
      <trkpt lat="39.30495167" lon="-8.62869333">
        <ele>52.0</ele>
        <time>2019-05-17T10:00:02.185Z</time>
      </trkpt>
      <trkpt lat="39.30495167" lon="-8.62869333">
        <ele>52.0</ele>
        <time>2019-05-17T10:00:03.176Z</time>
      </trkpt>
      <trkpt lat="39.30497167" lon="-8.62864167">
        <ele>52.0</ele>
        <time>2019-05-17T10:00:04.188Z</time>
      </trkpt>
      <trkpt lat="39.30498667" lon="-8.62862">
        <ele>53.0</ele>
        <time>2019-05-17T10:00:05.185Z</time>
      </trkpt>
      <trkpt lat="39.30498667" lon="-8.62862">
        <ele>53.0</ele>
        <time>2019-05-17T10:00:06.176Z</time>
      </trkpt>
      <trkpt lat="39.30502" lon="-8.62859333">
        <ele>52.0</ele>
        <time>2019-05-17T10:00:07.181Z</time>
      </trkpt>
      <trkpt lat="39.30502" lon="-8.62859333">
        <ele>52.0</ele>
        <time>2019-05-17T10:00:08.174Z</time>
      </trkpt>
      <trkpt lat="39.30503" lon="-8.62862667">
        <ele>52.0</ele>
        <time>2019-05-17T10:00:09.159Z</time>
      </trkpt>
      <trkpt lat="39.30502167" lon="-8.62864833">
        <ele>52.0</ele>
        <time>2019-05-17T10:00:10.156Z</time>
      </trkpt>
      <trkpt lat="39.30502167" lon="-8.62864833">
        <ele>52.0</ele>
        <time>2019-05-17T10:00:11.178Z</time>
      </trkpt>
      <trkpt lat="39.30499" lon="-8.62868333">
        <ele>51.0</ele>
        <time>2019-05-17T10:00:12.185Z</time>
      </trkpt>
      <trkpt lat="39.30499" lon="-8.62868333">
        <ele>51.0</ele>
        <time>2019-05-17T10:00:13.173Z</time>
      </trkpt>
      <trkpt lat="39.30494833" lon="-8.62871667">
        <ele>51.0</ele>
        <time>2019-05-17T10:00:14.183Z</time>
      </trkpt>
      <trkpt lat="39.30494833" lon="-8.62871667">
        <ele>51.0</ele>
        <time>2019-05-17T10:00:15.175Z</time>
      </trkpt>
      <trkpt lat="39.30490667" lon="-8.628755">
        <ele>51.0</ele>
        <time>2019-05-17T10:00:16.187Z</time>
      </trkpt>
      <trkpt lat="39.30490667" lon="-8.628755">
        <ele>51.0</ele>
        <time>2019-05-17T10:00:17.176Z</time>
      </trkpt>
      <trkpt lat="39.30485667" lon="-8.62877167">
        <ele>52.0</ele>
        <time>2019-05-17T10:00:18.187Z</time>
      </trkpt>
      <trkpt lat="39.30485667" lon="-8.62877167">
        <ele>52.0</ele>
        <time>2019-05-17T10:00:19.174Z</time>
      </trkpt>
      <trkpt lat="39.30480167" lon="-8.62878167">
        <ele>51.0</ele>
        <time>2019-05-17T10:00:20.182Z</time>
      </trkpt>
      <trkpt lat="39.30480167" lon="-8.62878167">
        <ele>51.0</ele>
        <time>2019-05-17T10:00:21.174Z</time>
      </trkpt>
      <trkpt lat="39.30475" lon="-8.62878167">
        <ele>51.0</ele>
        <time>2019-05-17T10:00:22.182Z</time>
      </trkpt>
      <trkpt lat="39.30472667" lon="-8.62877667">
        <ele>51.0</ele>
        <time>2019-05-17T10:00:23.181Z</time>
      </trkpt>
      <trkpt lat="39.30472667" lon="-8.62877667">
        <ele>51.0</ele>
        <time>2019-05-17T10:00:24.177Z</time>
      </trkpt>
      <trkpt lat="39.30468833" lon="-8.62876833">
        <ele>50.0</ele>
        <time>2019-05-17T10:00:25.187Z</time>
      </trkpt>
      <trkpt lat="39.30468833" lon="-8.62876833">
        <ele>50.0</ele>
        <time>2019-05-17T10:00:26.174Z</time>
      </trkpt>
      <trkpt lat="39.30465667" lon="-8.628765">
        <ele>50.0</ele>
        <time>2019-05-17T10:00:27.156Z</time>
      </trkpt>
      <trkpt lat="39.30465667" lon="-8.628765">
        <ele>50.0</ele>
        <time>2019-05-17T10:00:28.178Z</time>
      </trkpt>
      <trkpt lat="39.30462" lon="-8.628755">
        <ele>50.0</ele>
        <time>2019-05-17T10:00:29.180Z</time>
      </trkpt>
      <trkpt lat="39.30460333" lon="-8.62873667">
        <ele>50.0</ele>
        <time>2019-05-17T10:00:30.182Z</time>
      </trkpt>
      <trkpt lat="39.30460333" lon="-8.62873667">
        <ele>50.0</ele>
        <time>2019-05-17T10:00:31.155Z</time>
      </trkpt>
      <trkpt lat="39.30456667" lon="-8.62869">
        <ele>49.0</ele>
        <time>2019-05-17T10:00:32.185Z</time>
      </trkpt>
      <trkpt lat="39.30456667" lon="-8.62869">
        <ele>49.0</ele>
        <time>2019-05-17T10:00:33.173Z</time>
      </trkpt>
      <trkpt lat="39.304525" lon="-8.62865">
        <ele>49.0</ele>
        <time>2019-05-17T10:00:34.154Z</time>
      </trkpt>
      <trkpt lat="39.304525" lon="-8.62865">
        <ele>49.0</ele>
        <time>2019-05-17T10:00:35.178Z</time>
      </trkpt>
      <trkpt lat="39.30448833" lon="-8.628595">
        <ele>48.0</ele>
        <time>2019-05-17T10:00:36.186Z</time>
      </trkpt>
      <trkpt lat="39.30448833" lon="-8.628595">
        <ele>48.0</ele>
        <time>2019-05-17T10:00:37.174Z</time>
      </trkpt>
      <trkpt lat="39.30446" lon="-8.62854">
        <ele>47.0</ele>
        <time>2019-05-17T10:00:38.184Z</time>
      </trkpt>
      <trkpt lat="39.30446" lon="-8.62854">
        <ele>47.0</ele>
        <time>2019-05-17T10:00:39.180Z</time>
      </trkpt>
      <trkpt lat="39.30443667" lon="-8.6285">
        <ele>46.0</ele>
        <time>2019-05-17T10:00:40.184Z</time>
      </trkpt>
      <trkpt lat="39.30443667" lon="-8.6285">
        <ele>46.0</ele>
        <time>2019-05-17T10:00:41.174Z</time>
      </trkpt>
      <trkpt lat="39.30441" lon="-8.62846833">
        <ele>46.0</ele>
        <time>2019-05-17T10:00:42.189Z</time>
      </trkpt>
      <trkpt lat="39.30441" lon="-8.62846833">
        <ele>46.0</ele>
        <time>2019-05-17T10:00:43.176Z</time>
      </trkpt>
      <trkpt lat="39.30437833" lon="-8.628425">
        <ele>45.0</ele>
        <time>2019-05-17T10:00:44.175Z</time>
      </trkpt>
      <trkpt lat="39.30437833" lon="-8.628425">
        <ele>45.0</ele>
        <time>2019-05-17T10:00:45.174Z</time>
      </trkpt>
      <trkpt lat="39.30433333" lon="-8.62838833">
        <ele>45.0</ele>
        <time>2019-05-17T10:00:46.176Z</time>
      </trkpt>
      <trkpt lat="39.30433333" lon="-8.62838833">
        <ele>45.0</ele>
        <time>2019-05-17T10:00:47.174Z</time>
      </trkpt>
      <trkpt lat="39.30428333" lon="-8.62836">
        <ele>44.0</ele>
        <time>2019-05-17T10:00:48.183Z</time>
      </trkpt>
      <trkpt lat="39.30428333" lon="-8.62836">
        <ele>44.0</ele>
        <time>2019-05-17T10:00:49.174Z</time>
      </trkpt>
      <trkpt lat="39.30422833" lon="-8.62832833">
        <ele>44.0</ele>
        <time>2019-05-17T10:00:50.184Z</time>
      </trkpt>
      <trkpt lat="39.30422833" lon="-8.62832833">
        <ele>44.0</ele>
        <time>2019-05-17T10:00:51.174Z</time>
      </trkpt>
      <trkpt lat="39.30417833" lon="-8.62831833">
        <ele>44.0</ele>
        <time>2019-05-17T10:00:52.187Z</time>
      </trkpt>
      <trkpt lat="39.30417833" lon="-8.62831833">
        <ele>44.0</ele>
        <time>2019-05-17T10:00:53.174Z</time>
      </trkpt>
      <trkpt lat="39.304145" lon="-8.62832">
        <ele>43.0</ele>
        <time>2019-05-17T10:00:54.150Z</time>
      </trkpt>
      <trkpt lat="39.304145" lon="-8.62832">
        <ele>43.0</ele>
        <time>2019-05-17T10:00:55.176Z</time>
      </trkpt>
      <trkpt lat="39.30411333" lon="-8.62832167">
        <ele>43.0</ele>
        <time>2019-05-17T10:00:56.150Z</time>
      </trkpt>
      <trkpt lat="39.30411333" lon="-8.62832167">
        <ele>43.0</ele>
        <time>2019-05-17T10:00:57.174Z</time>
      </trkpt>
      <trkpt lat="39.30408833" lon="-8.62831167">
        <ele>42.0</ele>
        <time>2019-05-17T10:00:58.182Z</time>
      </trkpt>
      <trkpt lat="39.30408833" lon="-8.62831167">
        <ele>42.0</ele>
        <time>2019-05-17T10:00:59.174Z</time>
      </trkpt>
      <trkpt lat="39.30405333" lon="-8.62826833">
        <ele>41.0</ele>
        <time>2019-05-17T10:01:00.183Z</time>
      </trkpt>
      <trkpt lat="39.30403667" lon="-8.62823">
        <ele>41.0</ele>
        <time>2019-05-17T10:01:01.163Z</time>
      </trkpt>
      <trkpt lat="39.30401833" lon="-8.62818667">
        <ele>41.0</ele>
        <time>2019-05-17T10:01:02.163Z</time>
      </trkpt>
      <trkpt lat="39.30401833" lon="-8.62818667">
        <ele>41.0</ele>
        <time>2019-05-17T10:01:03.151Z</time>
      </trkpt>
      <trkpt lat="39.303975" lon="-8.62809">
        <ele>40.0</ele>
        <time>2019-05-17T10:01:04.154Z</time>
      </trkpt>
      <trkpt lat="39.303975" lon="-8.62809">
        <ele>40.0</ele>
        <time>2019-05-17T10:01:05.179Z</time>
      </trkpt>
      <trkpt lat="39.303975" lon="-8.62809">
        <ele>40.0</ele>
        <time>2019-05-17T10:01:06.196Z</time>
      </trkpt>
      <trkpt lat="39.30392833" lon="-8.62799167">
        <ele>40.0</ele>
        <time>2019-05-17T10:01:07.166Z</time>
      </trkpt>
      <trkpt lat="39.30388833" lon="-8.627905">
        <ele>40.0</ele>
        <time>2019-05-17T10:01:08.176Z</time>
      </trkpt>
      <trkpt lat="39.30388833" lon="-8.627905">
        <ele>40.0</ele>
        <time>2019-05-17T10:01:09.168Z</time>
      </trkpt>
      <trkpt lat="39.30385833" lon="-8.62785167">
        <ele>40.0</ele>
        <time>2019-05-17T10:01:10.161Z</time>
      </trkpt>
      <trkpt lat="39.30385833" lon="-8.62785167">
        <ele>40.0</ele>
        <time>2019-05-17T10:01:11.183Z</time>
      </trkpt>
      <trkpt lat="39.30384833" lon="-8.62780167">
        <ele>40.0</ele>
        <time>2019-05-17T10:01:12.156Z</time>
      </trkpt>
      <trkpt lat="39.30384833" lon="-8.62780167">
        <ele>40.0</ele>
        <time>2019-05-17T10:01:13.166Z</time>
      </trkpt>
      <trkpt lat="39.30385167" lon="-8.62778667">
        <ele>39.0</ele>
        <time>2019-05-17T10:01:14.177Z</time>
      </trkpt>
      <trkpt lat="39.30385167" lon="-8.62778667">
        <ele>39.0</ele>
        <time>2019-05-17T10:01:15.153Z</time>
      </trkpt>
      <trkpt lat="39.303855" lon="-8.62778833">
        <ele>39.0</ele>
        <time>2019-05-17T10:01:16.193Z</time>
      </trkpt>
      <trkpt lat="39.303855" lon="-8.62778833">
        <ele>39.0</ele>
        <time>2019-05-17T10:01:17.187Z</time>
      </trkpt>
      <trkpt lat="39.303855" lon="-8.62778833">
        <ele>39.0</ele>
        <time>2019-05-17T10:01:18.152Z</time>
      </trkpt>
      <trkpt lat="39.303855" lon="-8.62778833">
        <ele>39.0</ele>
        <time>2019-05-17T10:01:19.159Z</time>
      </trkpt>
      <trkpt lat="39.303865" lon="-8.62774167">
        <ele>40.0</ele>
        <time>2019-05-17T10:01:20.187Z</time>
      </trkpt>
      <trkpt lat="39.30387833" lon="-8.62772833">
        <ele>40.0</ele>
        <time>2019-05-17T10:01:21.180Z</time>
      </trkpt>
      <trkpt lat="39.30387833" lon="-8.62772833">
        <ele>40.0</ele>
        <time>2019-05-17T10:01:22.174Z</time>
      </trkpt>
      <trkpt lat="39.30391667" lon="-8.62771667">
        <ele>40.0</ele>
        <time>2019-05-17T10:01:23.159Z</time>
      </trkpt>
      <trkpt lat="39.30394" lon="-8.62771333">
        <ele>40.0</ele>
        <time>2019-05-17T10:01:24.181Z</time>
      </trkpt>
      <trkpt lat="39.30396833" lon="-8.62770833">
        <ele>40.0</ele>
        <time>2019-05-17T10:01:25.180Z</time>
      </trkpt>
      <trkpt lat="39.30396833" lon="-8.62770833">
        <ele>40.0</ele>
        <time>2019-05-17T10:01:26.176Z</time>
      </trkpt>
      <trkpt lat="39.30402667" lon="-8.62770167">
        <ele>41.0</ele>
        <time>2019-05-17T10:01:27.174Z</time>
      </trkpt>
      <trkpt lat="39.30402667" lon="-8.62770167">
        <ele>41.0</ele>
        <time>2019-05-17T10:01:28.178Z</time>
      </trkpt>
      <trkpt lat="39.30408667" lon="-8.62769333">
        <ele>42.0</ele>
        <time>2019-05-17T10:01:29.155Z</time>
      </trkpt>
      <trkpt lat="39.30412" lon="-8.62769167">
        <ele>42.0</ele>
        <time>2019-05-17T10:01:30.152Z</time>
      </trkpt>
      <trkpt lat="39.30412" lon="-8.62769167">
        <ele>42.0</ele>
        <time>2019-05-17T10:01:31.168Z</time>
      </trkpt>
      <trkpt lat="39.30418667" lon="-8.62768833">
        <ele>43.0</ele>
        <time>2019-05-17T10:01:32.176Z</time>
      </trkpt>
      <trkpt lat="39.30418667" lon="-8.62768833">
        <ele>43.0</ele>
        <time>2019-05-17T10:01:33.153Z</time>
      </trkpt>
      <trkpt lat="39.30424833" lon="-8.62768167">
        <ele>44.0</ele>
        <time>2019-05-17T10:01:34.162Z</time>
      </trkpt>
      <trkpt lat="39.30424833" lon="-8.62768167">
        <ele>44.0</ele>
        <time>2019-05-17T10:01:35.182Z</time>
      </trkpt>
      <trkpt lat="39.30430833" lon="-8.62767167">
        <ele>45.0</ele>
        <time>2019-05-17T10:01:36.193Z</time>
      </trkpt>
      <trkpt lat="39.30430833" lon="-8.62767167">
        <ele>45.0</ele>
        <time>2019-05-17T10:01:37.173Z</time>
      </trkpt>
      <trkpt lat="39.30436667" lon="-8.62766667">
        <ele>45.0</ele>
        <time>2019-05-17T10:01:38.183Z</time>
      </trkpt>
      <trkpt lat="39.30439333" lon="-8.62766333">
        <ele>46.0</ele>
        <time>2019-05-17T10:01:39.176Z</time>
      </trkpt>
      <trkpt lat="39.30439333" lon="-8.62766333">
        <ele>46.0</ele>
        <time>2019-05-17T10:01:40.155Z</time>
      </trkpt>
      <trkpt lat="39.30442833" lon="-8.62766333">
        <ele>47.0</ele>
        <time>2019-05-17T10:01:41.165Z</time>
      </trkpt>
      <trkpt lat="39.30445667" lon="-8.62766167">
        <ele>47.0</ele>
        <time>2019-05-17T10:01:42.151Z</time>
      </trkpt>
      <trkpt lat="39.30445667" lon="-8.62766167">
        <ele>47.0</ele>
        <time>2019-05-17T10:01:43.163Z</time>
      </trkpt>
      <trkpt lat="39.30450333" lon="-8.62766333">
        <ele>50.0</ele>
        <time>2019-05-17T10:01:44.171Z</time>
      </trkpt>
      <trkpt lat="39.30450333" lon="-8.62766333">
        <ele>50.0</ele>
        <time>2019-05-17T10:01:45.184Z</time>
      </trkpt>
      <trkpt lat="39.30456" lon="-8.627655">
        <ele>51.0</ele>
        <time>2019-05-17T10:01:46.168Z</time>
      </trkpt>
      <trkpt lat="39.30458667" lon="-8.62765333">
        <ele>52.0</ele>
        <time>2019-05-17T10:01:47.165Z</time>
      </trkpt>
      <trkpt lat="39.30458667" lon="-8.62765333">
        <ele>52.0</ele>
        <time>2019-05-17T10:01:48.188Z</time>
      </trkpt>
      <trkpt lat="39.30464167" lon="-8.62764833">
        <ele>53.0</ele>
        <time>2019-05-17T10:01:49.155Z</time>
      </trkpt>
      <trkpt lat="39.30464167" lon="-8.62764833">
        <ele>53.0</ele>
        <time>2019-05-17T10:01:50.158Z</time>
      </trkpt>
      <trkpt lat="39.30469833" lon="-8.62764">
        <ele>54.0</ele>
        <time>2019-05-17T10:01:51.187Z</time>
      </trkpt>
      <trkpt lat="39.304725" lon="-8.62763667">
        <ele>54.0</ele>
        <time>2019-05-17T10:01:52.176Z</time>
      </trkpt>
      <trkpt lat="39.304725" lon="-8.62763667">
        <ele>54.0</ele>
        <time>2019-05-17T10:01:53.150Z</time>
      </trkpt>
      <trkpt lat="39.30478333" lon="-8.62762333">
        <ele>55.0</ele>
        <time>2019-05-17T10:01:54.160Z</time>
      </trkpt>
      <trkpt lat="39.30478333" lon="-8.62762333">
        <ele>55.0</ele>
        <time>2019-05-17T10:01:55.168Z</time>
      </trkpt>
      <trkpt lat="39.30484667" lon="-8.627615">
        <ele>55.0</ele>
        <time>2019-05-17T10:01:56.184Z</time>
      </trkpt>
      <trkpt lat="39.30484667" lon="-8.627615">
        <ele>55.0</ele>
        <time>2019-05-17T10:01:57.156Z</time>
      </trkpt>
      <trkpt lat="39.30491" lon="-8.627605">
        <ele>56.0</ele>
        <time>2019-05-17T10:01:58.156Z</time>
      </trkpt>
      <trkpt lat="39.30494" lon="-8.62760333">
        <ele>56.0</ele>
        <time>2019-05-17T10:01:59.157Z</time>
      </trkpt>
      <trkpt lat="39.30497" lon="-8.6276">
        <ele>56.0</ele>
        <time>2019-05-17T10:02:00.184Z</time>
      </trkpt>
      <trkpt lat="39.30497" lon="-8.6276">
        <ele>56.0</ele>
        <time>2019-05-17T10:02:01.158Z</time>
      </trkpt>
      <trkpt lat="39.30503333" lon="-8.62759333">
        <ele>57.0</ele>
        <time>2019-05-17T10:02:02.171Z</time>
      </trkpt>
      <trkpt lat="39.30503333" lon="-8.62759333">
        <ele>57.0</ele>
        <time>2019-05-17T10:02:03.154Z</time>
      </trkpt>
      <trkpt lat="39.30509667" lon="-8.62758833">
        <ele>58.0</ele>
        <time>2019-05-17T10:02:04.178Z</time>
      </trkpt>
      <trkpt lat="39.305125" lon="-8.62758333">
        <ele>58.0</ele>
        <time>2019-05-17T10:02:05.155Z</time>
      </trkpt>
      <trkpt lat="39.30515333" lon="-8.62758">
        <ele>58.0</ele>
        <time>2019-05-17T10:02:06.173Z</time>
      </trkpt>
      <trkpt lat="39.30515333" lon="-8.62758">
        <ele>58.0</ele>
        <time>2019-05-17T10:02:07.160Z</time>
      </trkpt>
      <trkpt lat="39.30519667" lon="-8.62757833">
        <ele>58.0</ele>
        <time>2019-05-17T10:02:08.176Z</time>
      </trkpt>
      <trkpt lat="39.30519667" lon="-8.62757833">
        <ele>58.0</ele>
        <time>2019-05-17T10:02:09.168Z</time>
      </trkpt>
      <trkpt lat="39.30523333" lon="-8.62757333">
        <ele>58.0</ele>
        <time>2019-05-17T10:02:10.180Z</time>
      </trkpt>
      <trkpt lat="39.30523333" lon="-8.62757333">
        <ele>58.0</ele>
        <time>2019-05-17T10:02:11.164Z</time>
      </trkpt>
      <trkpt lat="39.30526667" lon="-8.62756167">
        <ele>58.0</ele>
        <time>2019-05-17T10:02:12.173Z</time>
      </trkpt>
      <trkpt lat="39.30526667" lon="-8.62756167">
        <ele>58.0</ele>
        <time>2019-05-17T10:02:13.188Z</time>
      </trkpt>
      <trkpt lat="39.305305" lon="-8.62755667">
        <ele>58.0</ele>
        <time>2019-05-17T10:02:14.156Z</time>
      </trkpt>
      <trkpt lat="39.30532833" lon="-8.62755667">
        <ele>58.0</ele>
        <time>2019-05-17T10:02:15.174Z</time>
      </trkpt>
      <trkpt lat="39.30532833" lon="-8.62755667">
        <ele>58.0</ele>
        <time>2019-05-17T10:02:16.151Z</time>
      </trkpt>
      <trkpt lat="39.305365" lon="-8.62755667">
        <ele>58.0</ele>
        <time>2019-05-17T10:02:17.160Z</time>
      </trkpt>
      <trkpt lat="39.30538333" lon="-8.62755333">
        <ele>58.0</ele>
        <time>2019-05-17T10:02:18.178Z</time>
      </trkpt>
      <trkpt lat="39.30538333" lon="-8.62755333">
        <ele>58.0</ele>
        <time>2019-05-17T10:02:19.186Z</time>
      </trkpt>
      <trkpt lat="39.30541667" lon="-8.62754167">
        <ele>57.0</ele>
        <time>2019-05-17T10:02:20.161Z</time>
      </trkpt>
      <trkpt lat="39.305435" lon="-8.62754333">
        <ele>57.0</ele>
        <time>2019-05-17T10:02:21.177Z</time>
      </trkpt>
      <trkpt lat="39.305435" lon="-8.62754333">
        <ele>57.0</ele>
        <time>2019-05-17T10:02:22.169Z</time>
      </trkpt>
      <trkpt lat="39.30546833" lon="-8.627535">
        <ele>56.0</ele>
        <time>2019-05-17T10:02:23.185Z</time>
      </trkpt>
      <trkpt lat="39.305485" lon="-8.62753333">
        <ele>56.0</ele>
        <time>2019-05-17T10:02:24.176Z</time>
      </trkpt>
      <trkpt lat="39.305485" lon="-8.62753333">
        <ele>56.0</ele>
        <time>2019-05-17T10:02:25.162Z</time>
      </trkpt>
      <trkpt lat="39.30551667" lon="-8.627535">
        <ele>56.0</ele>
        <time>2019-05-17T10:02:26.150Z</time>
      </trkpt>
      <trkpt lat="39.30551667" lon="-8.627535">
        <ele>56.0</ele>
        <time>2019-05-17T10:02:27.167Z</time>
      </trkpt>
      <trkpt lat="39.30554667" lon="-8.62752667">
        <ele>57.0</ele>
        <time>2019-05-17T10:02:28.177Z</time>
      </trkpt>
      <trkpt lat="39.30554667" lon="-8.62752667">
        <ele>57.0</ele>
        <time>2019-05-17T10:02:29.169Z</time>
      </trkpt>
      <trkpt lat="39.30557833" lon="-8.62751833">
        <ele>57.0</ele>
        <time>2019-05-17T10:02:30.176Z</time>
      </trkpt>
      <trkpt lat="39.30557833" lon="-8.62751833">
        <ele>57.0</ele>
        <time>2019-05-17T10:02:31.188Z</time>
      </trkpt>
      <trkpt lat="39.30561333" lon="-8.62751333">
        <ele>58.0</ele>
        <time>2019-05-17T10:02:32.190Z</time>
      </trkpt>
      <trkpt lat="39.30561333" lon="-8.62751333">
        <ele>58.0</ele>
        <time>2019-05-17T10:02:33.189Z</time>
      </trkpt>
      <trkpt lat="39.30564333" lon="-8.62751667">
        <ele>59.0</ele>
        <time>2019-05-17T10:02:34.161Z</time>
      </trkpt>
      <trkpt lat="39.30565833" lon="-8.62752">
        <ele>59.0</ele>
        <time>2019-05-17T10:02:35.177Z</time>
      </trkpt>
      <trkpt lat="39.30567667" lon="-8.62751833">
        <ele>59.0</ele>
        <time>2019-05-17T10:02:36.183Z</time>
      </trkpt>
      <trkpt lat="39.30567667" lon="-8.62751833">
        <ele>59.0</ele>
        <time>2019-05-17T10:02:37.154Z</time>
      </trkpt>
      <trkpt lat="39.30570833" lon="-8.62752333">
        <ele>60.0</ele>
        <time>2019-05-17T10:02:38.168Z</time>
      </trkpt>
      <trkpt lat="39.30570833" lon="-8.62752333">
        <ele>60.0</ele>
        <time>2019-05-17T10:02:39.187Z</time>
      </trkpt>
      <trkpt lat="39.305745" lon="-8.627525">
        <ele>60.0</ele>
        <time>2019-05-17T10:02:40.156Z</time>
      </trkpt>
      <trkpt lat="39.305745" lon="-8.627525">
        <ele>60.0</ele>
        <time>2019-05-17T10:02:41.176Z</time>
      </trkpt>
      <trkpt lat="39.30578833" lon="-8.62751667">
        <ele>60.0</ele>
        <time>2019-05-17T10:02:42.151Z</time>
      </trkpt>
      <trkpt lat="39.30578833" lon="-8.62751667">
        <ele>60.0</ele>
        <time>2019-05-17T10:02:43.185Z</time>
      </trkpt>
      <trkpt lat="39.30582167" lon="-8.62751333">
        <ele>60.0</ele>
        <time>2019-05-17T10:02:44.154Z</time>
      </trkpt>
      <trkpt lat="39.30582167" lon="-8.62751333">
        <ele>60.0</ele>
        <time>2019-05-17T10:02:45.155Z</time>
      </trkpt>
      <trkpt lat="39.30585667" lon="-8.62751333">
        <ele>60.0</ele>
        <time>2019-05-17T10:02:46.180Z</time>
      </trkpt>
      <trkpt lat="39.30585667" lon="-8.62751333">
        <ele>60.0</ele>
        <time>2019-05-17T10:02:47.187Z</time>
      </trkpt>
      <trkpt lat="39.30589333" lon="-8.627515">
        <ele>61.0</ele>
        <time>2019-05-17T10:02:48.183Z</time>
      </trkpt>
      <trkpt lat="39.30589333" lon="-8.627515">
        <ele>61.0</ele>
        <time>2019-05-17T10:02:49.166Z</time>
      </trkpt>
      <trkpt lat="39.30593833" lon="-8.62751333">
        <ele>61.0</ele>
        <time>2019-05-17T10:02:50.181Z</time>
      </trkpt>
      <trkpt lat="39.30593833" lon="-8.62751333">
        <ele>61.0</ele>
        <time>2019-05-17T10:02:51.160Z</time>
      </trkpt>
      <trkpt lat="39.30598167" lon="-8.62751167">
        <ele>62.0</ele>
        <time>2019-05-17T10:02:52.178Z</time>
      </trkpt>
      <trkpt lat="39.30598167" lon="-8.62751167">
        <ele>62.0</ele>
        <time>2019-05-17T10:02:53.157Z</time>
      </trkpt>
      <trkpt lat="39.30602167" lon="-8.62751">
        <ele>61.0</ele>
        <time>2019-05-17T10:02:54.177Z</time>
      </trkpt>
      <trkpt lat="39.30602167" lon="-8.62751">
        <ele>61.0</ele>
        <time>2019-05-17T10:02:55.157Z</time>
      </trkpt>
      <trkpt lat="39.30606667" lon="-8.62750833">
        <ele>61.0</ele>
        <time>2019-05-17T10:02:56.172Z</time>
      </trkpt>
      <trkpt lat="39.30606667" lon="-8.62750833">
        <ele>61.0</ele>
        <time>2019-05-17T10:02:57.151Z</time>
      </trkpt>
      <trkpt lat="39.306115" lon="-8.62750833">
        <ele>61.0</ele>
        <time>2019-05-17T10:02:58.160Z</time>
      </trkpt>
      <trkpt lat="39.306115" lon="-8.62750833">
        <ele>61.0</ele>
        <time>2019-05-17T10:02:59.174Z</time>
      </trkpt>
      <trkpt lat="39.30616167" lon="-8.62750667">
        <ele>61.0</ele>
        <time>2019-05-17T10:03:00.186Z</time>
      </trkpt>
      <trkpt lat="39.30616167" lon="-8.62750667">
        <ele>61.0</ele>
        <time>2019-05-17T10:03:01.187Z</time>
      </trkpt>
      <trkpt lat="39.30621" lon="-8.62750667">
        <ele>62.0</ele>
        <time>2019-05-17T10:03:02.176Z</time>
      </trkpt>
      <trkpt lat="39.30621" lon="-8.62750667">
        <ele>62.0</ele>
        <time>2019-05-17T10:03:03.187Z</time>
      </trkpt>
      <trkpt lat="39.30625167" lon="-8.62751">
        <ele>61.0</ele>
        <time>2019-05-17T10:03:04.155Z</time>
      </trkpt>
      <trkpt lat="39.30625167" lon="-8.62751">
        <ele>61.0</ele>
        <time>2019-05-17T10:03:05.188Z</time>
      </trkpt>
      <trkpt lat="39.30630167" lon="-8.627515">
        <ele>60.0</ele>
        <time>2019-05-17T10:03:06.161Z</time>
      </trkpt>
      <trkpt lat="39.30630167" lon="-8.627515">
        <ele>60.0</ele>
        <time>2019-05-17T10:03:07.167Z</time>
      </trkpt>
      <trkpt lat="39.30636167" lon="-8.62751667">
        <ele>59.0</ele>
        <time>2019-05-17T10:03:08.179Z</time>
      </trkpt>
      <trkpt lat="39.30636167" lon="-8.62751667">
        <ele>59.0</ele>
        <time>2019-05-17T10:03:09.158Z</time>
      </trkpt>
      <trkpt lat="39.30641667" lon="-8.62751667">
        <ele>60.0</ele>
        <time>2019-05-17T10:03:10.157Z</time>
      </trkpt>
      <trkpt lat="39.30641667" lon="-8.62751667">
        <ele>60.0</ele>
        <time>2019-05-17T10:03:11.168Z</time>
      </trkpt>
      <trkpt lat="39.30646833" lon="-8.627515">
        <ele>60.0</ele>
        <time>2019-05-17T10:03:12.181Z</time>
      </trkpt>
      <trkpt lat="39.30646833" lon="-8.627515">
        <ele>60.0</ele>
        <time>2019-05-17T10:03:13.152Z</time>
      </trkpt>
      <trkpt lat="39.30651833" lon="-8.62752333">
        <ele>59.0</ele>
        <time>2019-05-17T10:03:14.162Z</time>
      </trkpt>
      <trkpt lat="39.30651833" lon="-8.62752333">
        <ele>59.0</ele>
        <time>2019-05-17T10:03:15.178Z</time>
      </trkpt>
      <trkpt lat="39.306565" lon="-8.627525">
        <ele>60.0</ele>
        <time>2019-05-17T10:03:16.158Z</time>
      </trkpt>
      <trkpt lat="39.306565" lon="-8.627525">
        <ele>60.0</ele>
        <time>2019-05-17T10:03:17.186Z</time>
      </trkpt>
      <trkpt lat="39.30661" lon="-8.62752167">
        <ele>60.0</ele>
        <time>2019-05-17T10:03:18.163Z</time>
      </trkpt>
      <trkpt lat="39.30661" lon="-8.62752167">
        <ele>60.0</ele>
        <time>2019-05-17T10:03:19.177Z</time>
      </trkpt>
      <trkpt lat="39.30665333" lon="-8.62753">
        <ele>61.0</ele>
        <time>2019-05-17T10:03:20.156Z</time>
      </trkpt>
      <trkpt lat="39.30665333" lon="-8.62753">
        <ele>61.0</ele>
        <time>2019-05-17T10:03:21.178Z</time>
      </trkpt>
      <trkpt lat="39.30669667" lon="-8.62752833">
        <ele>61.0</ele>
        <time>2019-05-17T10:03:22.178Z</time>
      </trkpt>
      <trkpt lat="39.30671667" lon="-8.62752667">
        <ele>61.0</ele>
        <time>2019-05-17T10:03:23.190Z</time>
      </trkpt>
      <trkpt lat="39.30673833" lon="-8.627525">
        <ele>61.0</ele>
        <time>2019-05-17T10:03:24.170Z</time>
      </trkpt>
      <trkpt lat="39.30673833" lon="-8.627525">
        <ele>61.0</ele>
        <time>2019-05-17T10:03:25.183Z</time>
      </trkpt>
      <trkpt lat="39.30678" lon="-8.62752833">
        <ele>62.0</ele>
        <time>2019-05-17T10:03:26.158Z</time>
      </trkpt>
      <trkpt lat="39.30679833" lon="-8.62752833">
        <ele>62.0</ele>
        <time>2019-05-17T10:03:27.179Z</time>
      </trkpt>
      <trkpt lat="39.30679833" lon="-8.62752833">
        <ele>62.0</ele>
        <time>2019-05-17T10:03:28.168Z</time>
      </trkpt>
      <trkpt lat="39.30684" lon="-8.627525">
        <ele>62.0</ele>
        <time>2019-05-17T10:03:29.182Z</time>
      </trkpt>
      <trkpt lat="39.30685833" lon="-8.62753">
        <ele>61.0</ele>
        <time>2019-05-17T10:03:30.156Z</time>
      </trkpt>
      <trkpt lat="39.306875" lon="-8.62754333">
        <ele>61.0</ele>
        <time>2019-05-17T10:03:31.178Z</time>
      </trkpt>
      <trkpt lat="39.306875" lon="-8.62754333">
        <ele>61.0</ele>
        <time>2019-05-17T10:03:32.151Z</time>
      </trkpt>
      <trkpt lat="39.30688667" lon="-8.62758333">
        <ele>61.0</ele>
        <time>2019-05-17T10:03:33.163Z</time>
      </trkpt>
      <trkpt lat="39.30688667" lon="-8.62758333">
        <ele>61.0</ele>
        <time>2019-05-17T10:03:34.171Z</time>
      </trkpt>
      <trkpt lat="39.30688667" lon="-8.62762667">
        <ele>61.0</ele>
        <time>2019-05-17T10:03:35.170Z</time>
      </trkpt>
      <trkpt lat="39.306885" lon="-8.62764667">
        <ele>61.0</ele>
        <time>2019-05-17T10:03:36.164Z</time>
      </trkpt>
      <trkpt lat="39.306885" lon="-8.62764667">
        <ele>61.0</ele>
        <time>2019-05-17T10:03:37.156Z</time>
      </trkpt>
      <trkpt lat="39.30687833" lon="-8.627675">
        <ele>60.0</ele>
        <time>2019-05-17T10:03:38.170Z</time>
      </trkpt>
      <trkpt lat="39.30687833" lon="-8.627675">
        <ele>60.0</ele>
        <time>2019-05-17T10:03:39.179Z</time>
      </trkpt>
      <trkpt lat="39.30687833" lon="-8.62767833">
        <ele>59.0</ele>
        <time>2019-05-17T10:03:40.150Z</time>
      </trkpt>
      <trkpt lat="39.30687833" lon="-8.62767833">
        <ele>59.0</ele>
        <time>2019-05-17T10:03:41.163Z</time>
      </trkpt>
      <trkpt lat="39.30687833" lon="-8.62768">
        <ele>59.0</ele>
        <time>2019-05-17T10:03:42.170Z</time>
      </trkpt>
      <trkpt lat="39.30687833" lon="-8.62768">
        <ele>59.0</ele>
        <time>2019-05-17T10:03:43.177Z</time>
      </trkpt>
      <trkpt lat="39.30687833" lon="-8.62768">
        <ele>59.0</ele>
        <time>2019-05-17T10:03:44.179Z</time>
      </trkpt>
      <trkpt lat="39.30687833" lon="-8.62768">
        <ele>59.0</ele>
        <time>2019-05-17T10:03:45.153Z</time>
      </trkpt>
      <trkpt lat="39.30689167" lon="-8.62770667">
        <ele>47.0</ele>
        <time>2019-05-17T10:03:46.170Z</time>
      </trkpt>
      <trkpt lat="39.30689167" lon="-8.62770667">
        <ele>47.0</ele>
        <time>2019-05-17T10:03:47.176Z</time>
      </trkpt>
      <trkpt lat="39.30689167" lon="-8.62770667">
        <ele>47.0</ele>
        <time>2019-05-17T10:03:48.182Z</time>
      </trkpt>
      <trkpt lat="39.30694833" lon="-8.62766667">
        <ele>48.0</ele>
        <time>2019-05-17T10:03:49.178Z</time>
      </trkpt>
      <trkpt lat="39.30694833" lon="-8.62766667">
        <ele>48.0</ele>
        <time>2019-05-17T10:03:50.173Z</time>
      </trkpt>
      <trkpt lat="39.30691167" lon="-8.62763167">
        <ele>48.0</ele>
        <time>2019-05-17T10:03:51.152Z</time>
      </trkpt>
      <trkpt lat="39.30691167" lon="-8.62763167">
        <ele>48.0</ele>
        <time>2019-05-17T10:03:52.165Z</time>
      </trkpt>
      <trkpt lat="39.30689667" lon="-8.62758">
        <ele>48.0</ele>
        <time>2019-05-17T10:03:53.187Z</time>
      </trkpt>
      <trkpt lat="39.30689667" lon="-8.62758">
        <ele>48.0</ele>
        <time>2019-05-17T10:03:54.156Z</time>
      </trkpt>
      <trkpt lat="39.30691833" lon="-8.62753">
        <ele>48.0</ele>
        <time>2019-05-17T10:03:55.176Z</time>
      </trkpt>
      <trkpt lat="39.30691833" lon="-8.62753">
        <ele>48.0</ele>
        <time>2019-05-17T10:03:56.184Z</time>
      </trkpt>
      <trkpt lat="39.30697" lon="-8.627495">
        <ele>48.0</ele>
        <time>2019-05-17T10:03:57.160Z</time>
      </trkpt>
      <trkpt lat="39.306995" lon="-8.62748833">
        <ele>48.0</ele>
        <time>2019-05-17T10:03:58.186Z</time>
      </trkpt>
      <trkpt lat="39.30702" lon="-8.62748">
        <ele>48.0</ele>
        <time>2019-05-17T10:03:59.170Z</time>
      </trkpt>
      <trkpt lat="39.30702" lon="-8.62748">
        <ele>48.0</ele>
        <time>2019-05-17T10:04:00.161Z</time>
      </trkpt>
      <trkpt lat="39.30707167" lon="-8.62746">
        <ele>48.0</ele>
        <time>2019-05-17T10:04:01.182Z</time>
      </trkpt>
      <trkpt lat="39.30707167" lon="-8.62746">
        <ele>48.0</ele>
        <time>2019-05-17T10:04:02.158Z</time>
      </trkpt>
      <trkpt lat="39.30712333" lon="-8.627455">
        <ele>48.0</ele>
        <time>2019-05-17T10:04:03.175Z</time>
      </trkpt>
      <trkpt lat="39.30712333" lon="-8.627455">
        <ele>48.0</ele>
        <time>2019-05-17T10:04:04.153Z</time>
      </trkpt>
      <trkpt lat="39.30718" lon="-8.62745">
        <ele>48.0</ele>
        <time>2019-05-17T10:04:05.165Z</time>
      </trkpt>
      <trkpt lat="39.30718" lon="-8.62745">
        <ele>48.0</ele>
        <time>2019-05-17T10:04:06.172Z</time>
      </trkpt>
      <trkpt lat="39.307235" lon="-8.62744333">
        <ele>48.0</ele>
        <time>2019-05-17T10:04:07.171Z</time>
      </trkpt>
      <trkpt lat="39.307235" lon="-8.62744333">
        <ele>48.0</ele>
        <time>2019-05-17T10:04:08.180Z</time>
      </trkpt>
      <trkpt lat="39.30727" lon="-8.62743">
        <ele>48.0</ele>
        <time>2019-05-17T10:04:09.166Z</time>
      </trkpt>
      <trkpt lat="39.30728167" lon="-8.627415">
        <ele>49.0</ele>
        <time>2019-05-17T10:04:10.150Z</time>
      </trkpt>
      <trkpt lat="39.30728833" lon="-8.627405">
        <ele>49.0</ele>
        <time>2019-05-17T10:04:11.190Z</time>
      </trkpt>
      <trkpt lat="39.30728833" lon="-8.627405">
        <ele>49.0</ele>
        <time>2019-05-17T10:04:12.174Z</time>
      </trkpt>
      <trkpt lat="39.30729" lon="-8.62740167">
        <ele>49.0</ele>
        <time>2019-05-17T10:04:13.186Z</time>
      </trkpt>
      <trkpt lat="39.30729" lon="-8.62740167">
        <ele>49.0</ele>
        <time>2019-05-17T10:04:14.155Z</time>
      </trkpt>
      <trkpt lat="39.30729" lon="-8.62740167">
        <ele>48.0</ele>
        <time>2019-05-17T10:04:15.164Z</time>
      </trkpt>
      <trkpt lat="39.30729" lon="-8.62740167">
        <ele>48.0</ele>
        <time>2019-05-17T10:04:16.174Z</time>
      </trkpt>
      <trkpt lat="39.30728167" lon="-8.62739833">
        <ele>48.0</ele>
        <time>2019-05-17T10:04:17.180Z</time>
      </trkpt>
      <trkpt lat="39.30728167" lon="-8.62739833">
        <ele>48.0</ele>
        <time>2019-05-17T10:04:18.186Z</time>
      </trkpt>
      <trkpt lat="39.30728" lon="-8.6274">
        <ele>48.0</ele>
        <time>2019-05-17T10:04:19.178Z</time>
      </trkpt>
      <trkpt lat="39.30728" lon="-8.6274">
        <ele>48.0</ele>
        <time>2019-05-17T10:04:20.184Z</time>
      </trkpt>
      <trkpt lat="39.30727833" lon="-8.6274">
        <ele>48.0</ele>
        <time>2019-05-17T10:04:21.178Z</time>
      </trkpt>
      <trkpt lat="39.30727833" lon="-8.6274">
        <ele>48.0</ele>
        <time>2019-05-17T10:04:22.178Z</time>
      </trkpt>
      <trkpt lat="39.30727833" lon="-8.6274">
        <ele>48.0</ele>
        <time>2019-05-17T10:04:23.186Z</time>
      </trkpt>
      <trkpt lat="39.30727833" lon="-8.6274">
        <ele>48.0</ele>
        <time>2019-05-17T10:04:24.179Z</time>
      </trkpt>
      <trkpt lat="39.30727833" lon="-8.6274">
        <ele>48.0</ele>
        <time>2019-05-17T10:04:25.173Z</time>
      </trkpt>
      <trkpt lat="39.30727833" lon="-8.6274">
        <ele>48.0</ele>
        <time>2019-05-17T10:04:26.177Z</time>
      </trkpt>
      <trkpt lat="39.30727833" lon="-8.6274">
        <ele>48.0</ele>
        <time>2019-05-17T10:04:27.173Z</time>
      </trkpt>
      <trkpt lat="39.30727833" lon="-8.6274">
        <ele>48.0</ele>
        <time>2019-05-17T10:04:28.179Z</time>
      </trkpt>
      <trkpt lat="39.30727833" lon="-8.6274">
        <ele>48.0</ele>
        <time>2019-05-17T10:04:29.174Z</time>
      </trkpt>
      <trkpt lat="39.30727833" lon="-8.6274">
        <ele>48.0</ele>
        <time>2019-05-17T10:04:30.186Z</time>
      </trkpt>
      <trkpt lat="39.30727833" lon="-8.6274">
        <ele>48.0</ele>
        <time>2019-05-17T10:04:31.181Z</time>
      </trkpt>
      <trkpt lat="39.30727833" lon="-8.6274">
        <ele>48.0</ele>
        <time>2019-05-17T10:04:32.180Z</time>
      </trkpt>
      <trkpt lat="39.30727833" lon="-8.6274">
        <ele>48.0</ele>
        <time>2019-05-17T10:04:33.172Z</time>
      </trkpt>
      <trkpt lat="39.30727833" lon="-8.6274">
        <ele>48.0</ele>
        <time>2019-05-17T10:04:34.177Z</time>
      </trkpt>
      <trkpt lat="39.30727833" lon="-8.6274">
        <ele>48.0</ele>
        <time>2019-05-17T10:04:35.179Z</time>
      </trkpt>
      <trkpt lat="39.30727833" lon="-8.6274">
        <ele>48.0</ele>
        <time>2019-05-17T10:04:36.179Z</time>
      </trkpt>
      <trkpt lat="39.30727833" lon="-8.6274">
        <ele>48.0</ele>
        <time>2019-05-17T10:04:37.170Z</time>
      </trkpt>
      <trkpt lat="39.30727833" lon="-8.6274">
        <ele>48.0</ele>
        <time>2019-05-17T10:04:38.177Z</time>
      </trkpt>
      <trkpt lat="39.30727833" lon="-8.6274">
        <ele>48.0</ele>
        <time>2019-05-17T10:04:39.173Z</time>
      </trkpt>
      <trkpt lat="39.30727833" lon="-8.6274">
        <ele>48.0</ele>
        <time>2019-05-17T10:04:40.177Z</time>
      </trkpt>
      <trkpt lat="39.30727833" lon="-8.6274">
        <ele>48.0</ele>
        <time>2019-05-17T10:04:41.179Z</time>
      </trkpt>
      <trkpt lat="39.30727833" lon="-8.6274">
        <ele>48.0</ele>
        <time>2019-05-17T10:04:42.174Z</time>
      </trkpt>
      <trkpt lat="39.30727833" lon="-8.6274">
        <ele>48.0</ele>
        <time>2019-05-17T10:04:43.177Z</time>
      </trkpt>
      <trkpt lat="39.30727833" lon="-8.6274">
        <ele>48.0</ele>
        <time>2019-05-17T10:04:44.177Z</time>
      </trkpt>
      <trkpt lat="39.30727833" lon="-8.6274">
        <ele>48.0</ele>
        <time>2019-05-17T10:04:45.172Z</time>
      </trkpt>
      <trkpt lat="39.30727833" lon="-8.6274">
        <ele>48.0</ele>
        <time>2019-05-17T10:04:46.177Z</time>
      </trkpt>
      <trkpt lat="39.30727833" lon="-8.6274">
        <ele>48.0</ele>
        <time>2019-05-17T10:04:47.179Z</time>
      </trkpt>
      <trkpt lat="39.30727833" lon="-8.6274">
        <ele>48.0</ele>
        <time>2019-05-17T10:04:48.174Z</time>
      </trkpt>
      <trkpt lat="39.30727833" lon="-8.6274">
        <ele>48.0</ele>
        <time>2019-05-17T10:04:49.179Z</time>
      </trkpt>
      <trkpt lat="39.30727833" lon="-8.6274">
        <ele>48.0</ele>
        <time>2019-05-17T10:04:50.173Z</time>
      </trkpt>
      <trkpt lat="39.30727833" lon="-8.6274">
        <ele>48.0</ele>
        <time>2019-05-17T10:04:51.158Z</time>
      </trkpt>
      <trkpt lat="39.30727833" lon="-8.6274">
        <ele>48.0</ele>
        <time>2019-05-17T10:04:52.183Z</time>
      </trkpt>
      <trkpt lat="39.30727833" lon="-8.6274">
        <ele>48.0</ele>
        <time>2019-05-17T10:04:53.179Z</time>
      </trkpt>
      <trkpt lat="39.30727833" lon="-8.6274">
        <ele>48.0</ele>
        <time>2019-05-17T10:04:54.172Z</time>
      </trkpt>
      <trkpt lat="39.30727833" lon="-8.6274">
        <ele>48.0</ele>
        <time>2019-05-17T10:04:55.177Z</time>
      </trkpt>
      <trkpt lat="39.30727833" lon="-8.6274">
        <ele>48.0</ele>
        <time>2019-05-17T10:04:56.173Z</time>
      </trkpt>
      <trkpt lat="39.30727833" lon="-8.6274">
        <ele>48.0</ele>
        <time>2019-05-17T10:04:57.178Z</time>
      </trkpt>
      <trkpt lat="39.30727833" lon="-8.6274">
        <ele>48.0</ele>
        <time>2019-05-17T10:04:58.177Z</time>
      </trkpt>
      <trkpt lat="39.30727833" lon="-8.6274">
        <ele>48.0</ele>
        <time>2019-05-17T10:04:59.180Z</time>
      </trkpt>
      <trkpt lat="39.30727833" lon="-8.6274">
        <ele>48.0</ele>
        <time>2019-05-17T10:05:00.173Z</time>
      </trkpt>
      <trkpt lat="39.30727833" lon="-8.6274">
        <ele>48.0</ele>
        <time>2019-05-17T10:05:01.178Z</time>
      </trkpt>
      <trkpt lat="39.30727833" lon="-8.6274">
        <ele>48.0</ele>
        <time>2019-05-17T10:05:02.174Z</time>
      </trkpt>
      <trkpt lat="39.30727833" lon="-8.6274">
        <ele>48.0</ele>
        <time>2019-05-17T10:05:03.174Z</time>
      </trkpt>
      <trkpt lat="39.30727833" lon="-8.6274">
        <ele>48.0</ele>
        <time>2019-05-17T10:05:04.177Z</time>
      </trkpt>
      <trkpt lat="39.30727833" lon="-8.6274">
        <ele>48.0</ele>
        <time>2019-05-17T10:05:05.180Z</time>
      </trkpt>
      <trkpt lat="39.30727833" lon="-8.6274">
        <ele>48.0</ele>
        <time>2019-05-17T10:05:06.173Z</time>
      </trkpt>
      <trkpt lat="39.30727833" lon="-8.6274">
        <ele>48.0</ele>
        <time>2019-05-17T10:05:07.178Z</time>
      </trkpt>
      <trkpt lat="39.30727833" lon="-8.6274">
        <ele>48.0</ele>
        <time>2019-05-17T10:05:08.177Z</time>
      </trkpt>
      <trkpt lat="39.30727833" lon="-8.6274">
        <ele>48.0</ele>
        <time>2019-05-17T10:05:09.171Z</time>
      </trkpt>
      <trkpt lat="39.30727833" lon="-8.6274">
        <ele>48.0</ele>
        <time>2019-05-17T10:05:10.150Z</time>
      </trkpt>
      <trkpt lat="39.30727833" lon="-8.6274">
        <ele>48.0</ele>
        <time>2019-05-17T10:05:11.179Z</time>
      </trkpt>
      <trkpt lat="39.30727833" lon="-8.6274">
        <ele>48.0</ele>
        <time>2019-05-17T10:05:12.178Z</time>
      </trkpt>
      <trkpt lat="39.30727833" lon="-8.6274">
        <ele>48.0</ele>
        <time>2019-05-17T10:05:13.172Z</time>
      </trkpt>
      <trkpt lat="39.30727833" lon="-8.6274">
        <ele>48.0</ele>
        <time>2019-05-17T10:05:14.177Z</time>
      </trkpt>
      <trkpt lat="39.30727833" lon="-8.6274">
        <ele>48.0</ele>
        <time>2019-05-17T10:05:15.172Z</time>
      </trkpt>
      <trkpt lat="39.30727833" lon="-8.6274">
        <ele>48.0</ele>
        <time>2019-05-17T10:05:16.178Z</time>
      </trkpt>
      <trkpt lat="39.30727833" lon="-8.6274">
        <ele>48.0</ele>
        <time>2019-05-17T10:05:17.179Z</time>
      </trkpt>
      <trkpt lat="39.30727833" lon="-8.6274">
        <ele>48.0</ele>
        <time>2019-05-17T10:05:18.173Z</time>
      </trkpt>
      <trkpt lat="39.30727833" lon="-8.6274">
        <ele>48.0</ele>
        <time>2019-05-17T10:05:19.177Z</time>
      </trkpt>
      <trkpt lat="39.30727833" lon="-8.6274">
        <ele>48.0</ele>
        <time>2019-05-17T10:05:20.172Z</time>
      </trkpt>
      <trkpt lat="39.30727833" lon="-8.6274">
        <ele>48.0</ele>
        <time>2019-05-17T10:05:21.177Z</time>
      </trkpt>
      <trkpt lat="39.30727833" lon="-8.6274">
        <ele>48.0</ele>
        <time>2019-05-17T10:05:22.173Z</time>
      </trkpt>
      <trkpt lat="39.30727833" lon="-8.6274">
        <ele>48.0</ele>
        <time>2019-05-17T10:05:23.166Z</time>
      </trkpt>
      <trkpt lat="39.30727833" lon="-8.6274">
        <ele>48.0</ele>
        <time>2019-05-17T10:05:24.150Z</time>
      </trkpt>
      <trkpt lat="39.30727833" lon="-8.6274">
        <ele>48.0</ele>
        <time>2019-05-17T10:05:25.175Z</time>
      </trkpt>
      <trkpt lat="39.30727833" lon="-8.6274">
        <ele>48.0</ele>
        <time>2019-05-17T10:05:26.172Z</time>
      </trkpt>
      <trkpt lat="39.30727833" lon="-8.6274">
        <ele>48.0</ele>
        <time>2019-05-17T10:05:27.158Z</time>
      </trkpt>
      <trkpt lat="39.30727833" lon="-8.6274">
        <ele>48.0</ele>
        <time>2019-05-17T10:05:28.184Z</time>
      </trkpt>
      <trkpt lat="39.30727833" lon="-8.6274">
        <ele>48.0</ele>
        <time>2019-05-17T10:05:29.177Z</time>
      </trkpt>
      <trkpt lat="39.30727833" lon="-8.6274">
        <ele>48.0</ele>
        <time>2019-05-17T10:05:30.172Z</time>
      </trkpt>
      <trkpt lat="39.30727833" lon="-8.6274">
        <ele>48.0</ele>
        <time>2019-05-17T10:05:31.158Z</time>
      </trkpt>
      <trkpt lat="39.30727833" lon="-8.6274">
        <ele>48.0</ele>
        <time>2019-05-17T10:05:32.186Z</time>
      </trkpt>
      <trkpt lat="39.30727833" lon="-8.6274">
        <ele>48.0</ele>
        <time>2019-05-17T10:05:33.182Z</time>
      </trkpt>
      <trkpt lat="39.30727833" lon="-8.6274">
        <ele>48.0</ele>
        <time>2019-05-17T10:05:34.178Z</time>
      </trkpt>
      <trkpt lat="39.30727833" lon="-8.6274">
        <ele>48.0</ele>
        <time>2019-05-17T10:05:35.175Z</time>
      </trkpt>
      <trkpt lat="39.30727833" lon="-8.6274">
        <ele>48.0</ele>
        <time>2019-05-17T10:05:36.178Z</time>
      </trkpt>
      <trkpt lat="39.30727833" lon="-8.6274">
        <ele>48.0</ele>
        <time>2019-05-17T10:05:37.178Z</time>
      </trkpt>
      <trkpt lat="39.30727833" lon="-8.6274">
        <ele>48.0</ele>
        <time>2019-05-17T10:05:38.172Z</time>
      </trkpt>
      <trkpt lat="39.30727833" lon="-8.6274">
        <ele>48.0</ele>
        <time>2019-05-17T10:05:39.177Z</time>
      </trkpt>
      <trkpt lat="39.30727833" lon="-8.6274">
        <ele>48.0</ele>
        <time>2019-05-17T10:05:40.173Z</time>
      </trkpt>
      <trkpt lat="39.30727833" lon="-8.6274">
        <ele>48.0</ele>
        <time>2019-05-17T10:05:41.177Z</time>
      </trkpt>
      <trkpt lat="39.30727833" lon="-8.6274">
        <ele>48.0</ele>
        <time>2019-05-17T10:05:42.177Z</time>
      </trkpt>
      <trkpt lat="39.30727833" lon="-8.6274">
        <ele>48.0</ele>
        <time>2019-05-17T10:05:43.173Z</time>
      </trkpt>
      <trkpt lat="39.30727833" lon="-8.6274">
        <ele>48.0</ele>
        <time>2019-05-17T10:05:44.178Z</time>
      </trkpt>
      <trkpt lat="39.30727833" lon="-8.6274">
        <ele>48.0</ele>
        <time>2019-05-17T10:05:45.173Z</time>
      </trkpt>
      <trkpt lat="39.30727833" lon="-8.6274">
        <ele>48.0</ele>
        <time>2019-05-17T10:05:46.175Z</time>
      </trkpt>
      <trkpt lat="39.30727833" lon="-8.6274">
        <ele>48.0</ele>
        <time>2019-05-17T10:05:47.159Z</time>
      </trkpt>
      <trkpt lat="39.30727833" lon="-8.6274">
        <ele>48.0</ele>
        <time>2019-05-17T10:05:48.185Z</time>
      </trkpt>
      <trkpt lat="39.30727833" lon="-8.6274">
        <ele>48.0</ele>
        <time>2019-05-17T10:05:49.172Z</time>
      </trkpt>
      <trkpt lat="39.30727833" lon="-8.6274">
        <ele>48.0</ele>
        <time>2019-05-17T10:05:50.179Z</time>
      </trkpt>
      <trkpt lat="39.30727833" lon="-8.6274">
        <ele>48.0</ele>
        <time>2019-05-17T10:05:51.172Z</time>
      </trkpt>
      <trkpt lat="39.30727833" lon="-8.6274">
        <ele>48.0</ele>
        <time>2019-05-17T10:05:52.158Z</time>
      </trkpt>
      <trkpt lat="39.30727833" lon="-8.6274">
        <ele>48.0</ele>
        <time>2019-05-17T10:05:53.151Z</time>
      </trkpt>
      <trkpt lat="39.30727833" lon="-8.6274">
        <ele>48.0</ele>
        <time>2019-05-17T10:05:54.175Z</time>
      </trkpt>
      <trkpt lat="39.30727833" lon="-8.6274">
        <ele>48.0</ele>
        <time>2019-05-17T10:05:55.178Z</time>
      </trkpt>
      <trkpt lat="39.30727833" lon="-8.6274">
        <ele>48.0</ele>
        <time>2019-05-17T10:05:56.172Z</time>
      </trkpt>
      <trkpt lat="39.30727833" lon="-8.6274">
        <ele>48.0</ele>
        <time>2019-05-17T10:05:57.157Z</time>
      </trkpt>
      <trkpt lat="39.30727833" lon="-8.6274">
        <ele>48.0</ele>
        <time>2019-05-17T10:05:58.182Z</time>
      </trkpt>
      <trkpt lat="39.30727833" lon="-8.6274">
        <ele>48.0</ele>
        <time>2019-05-17T10:05:59.174Z</time>
      </trkpt>
      <trkpt lat="39.30727833" lon="-8.6274">
        <ele>48.0</ele>
        <time>2019-05-17T10:06:00.177Z</time>
      </trkpt>
      <trkpt lat="39.30727833" lon="-8.6274">
        <ele>48.0</ele>
        <time>2019-05-17T10:06:01.178Z</time>
      </trkpt>
      <trkpt lat="39.30727833" lon="-8.6274">
        <ele>48.0</ele>
        <time>2019-05-17T10:06:02.176Z</time>
      </trkpt>
      <trkpt lat="39.30727833" lon="-8.6274">
        <ele>48.0</ele>
        <time>2019-05-17T10:06:03.178Z</time>
      </trkpt>
      <trkpt lat="39.30727833" lon="-8.6274">
        <ele>48.0</ele>
        <time>2019-05-17T10:06:04.173Z</time>
      </trkpt>
      <trkpt lat="39.30727833" lon="-8.6274">
        <ele>48.0</ele>
        <time>2019-05-17T10:06:05.179Z</time>
      </trkpt>
      <trkpt lat="39.30727833" lon="-8.6274">
        <ele>48.0</ele>
        <time>2019-05-17T10:06:06.179Z</time>
      </trkpt>
      <trkpt lat="39.30727833" lon="-8.6274">
        <ele>48.0</ele>
        <time>2019-05-17T10:06:07.173Z</time>
      </trkpt>
      <trkpt lat="39.30727833" lon="-8.6274">
        <ele>48.0</ele>
        <time>2019-05-17T10:06:08.178Z</time>
      </trkpt>
      <trkpt lat="39.30727833" lon="-8.6274">
        <ele>48.0</ele>
        <time>2019-05-17T10:06:09.173Z</time>
      </trkpt>
      <trkpt lat="39.30727833" lon="-8.6274">
        <ele>48.0</ele>
        <time>2019-05-17T10:06:10.188Z</time>
      </trkpt>
      <trkpt lat="39.30727833" lon="-8.6274">
        <ele>48.0</ele>
        <time>2019-05-17T10:06:11.181Z</time>
      </trkpt>
      <trkpt lat="39.30727833" lon="-8.6274">
        <ele>48.0</ele>
        <time>2019-05-17T10:06:12.173Z</time>
      </trkpt>
      <trkpt lat="39.30727833" lon="-8.6274">
        <ele>48.0</ele>
        <time>2019-05-17T10:06:13.174Z</time>
      </trkpt>
      <trkpt lat="39.30727833" lon="-8.6274">
        <ele>48.0</ele>
        <time>2019-05-17T10:06:14.152Z</time>
      </trkpt>
      <trkpt lat="39.30727833" lon="-8.6274">
        <ele>48.0</ele>
        <time>2019-05-17T10:06:15.178Z</time>
      </trkpt>
      <trkpt lat="39.30727833" lon="-8.6274">
        <ele>48.0</ele>
        <time>2019-05-17T10:06:16.173Z</time>
      </trkpt>
      <trkpt lat="39.30727833" lon="-8.6274">
        <ele>48.0</ele>
        <time>2019-05-17T10:06:17.160Z</time>
      </trkpt>
      <trkpt lat="39.30727833" lon="-8.6274">
        <ele>48.0</ele>
        <time>2019-05-17T10:06:18.185Z</time>
      </trkpt>
      <trkpt lat="39.30727833" lon="-8.6274">
        <ele>48.0</ele>
        <time>2019-05-17T10:06:19.178Z</time>
      </trkpt>
      <trkpt lat="39.30727833" lon="-8.6274">
        <ele>48.0</ele>
        <time>2019-05-17T10:06:20.173Z</time>
      </trkpt>
      <trkpt lat="39.30727833" lon="-8.6274">
        <ele>48.0</ele>
        <time>2019-05-17T10:06:21.177Z</time>
      </trkpt>
      <trkpt lat="39.30727833" lon="-8.6274">
        <ele>48.0</ele>
        <time>2019-05-17T10:06:22.173Z</time>
      </trkpt>
      <trkpt lat="39.30727833" lon="-8.6274">
        <ele>48.0</ele>
        <time>2019-05-17T10:06:23.178Z</time>
      </trkpt>
      <trkpt lat="39.30727833" lon="-8.6274">
        <ele>48.0</ele>
        <time>2019-05-17T10:06:24.178Z</time>
      </trkpt>
      <trkpt lat="39.30727833" lon="-8.6274">
        <ele>48.0</ele>
        <time>2019-05-17T10:06:25.178Z</time>
      </trkpt>
      <trkpt lat="39.30727833" lon="-8.6274">
        <ele>48.0</ele>
        <time>2019-05-17T10:06:26.173Z</time>
      </trkpt>
      <trkpt lat="39.30727833" lon="-8.6274">
        <ele>48.0</ele>
        <time>2019-05-17T10:06:27.178Z</time>
      </trkpt>
      <trkpt lat="39.30727833" lon="-8.6274">
        <ele>48.0</ele>
        <time>2019-05-17T10:06:28.172Z</time>
      </trkpt>
      <trkpt lat="39.30727833" lon="-8.6274">
        <ele>48.0</ele>
        <time>2019-05-17T10:06:29.177Z</time>
      </trkpt>
      <trkpt lat="39.30727833" lon="-8.6274">
        <ele>48.0</ele>
        <time>2019-05-17T10:06:30.173Z</time>
      </trkpt>
      <trkpt lat="39.30727833" lon="-8.6274">
        <ele>48.0</ele>
        <time>2019-05-17T10:06:31.158Z</time>
      </trkpt>
      <trkpt lat="39.30727833" lon="-8.6274">
        <ele>48.0</ele>
        <time>2019-05-17T10:06:32.183Z</time>
      </trkpt>
      <trkpt lat="39.30727833" lon="-8.6274">
        <ele>48.0</ele>
        <time>2019-05-17T10:06:33.178Z</time>
      </trkpt>
      <trkpt lat="39.30727833" lon="-8.6274">
        <ele>48.0</ele>
        <time>2019-05-17T10:06:34.172Z</time>
      </trkpt>
      <trkpt lat="39.30727833" lon="-8.6274">
        <ele>48.0</ele>
        <time>2019-05-17T10:06:35.179Z</time>
      </trkpt>
      <trkpt lat="39.30727833" lon="-8.6274">
        <ele>48.0</ele>
        <time>2019-05-17T10:06:36.172Z</time>
      </trkpt>
      <trkpt lat="39.30727833" lon="-8.6274">
        <ele>48.0</ele>
        <time>2019-05-17T10:06:37.158Z</time>
      </trkpt>
      <trkpt lat="39.30727833" lon="-8.6274">
        <ele>48.0</ele>
        <time>2019-05-17T10:06:38.183Z</time>
      </trkpt>
      <trkpt lat="39.30727833" lon="-8.6274">
        <ele>48.0</ele>
        <time>2019-05-17T10:06:39.177Z</time>
      </trkpt>
      <trkpt lat="39.30727833" lon="-8.6274">
        <ele>48.0</ele>
        <time>2019-05-17T10:06:40.173Z</time>
      </trkpt>
      <trkpt lat="39.30727833" lon="-8.6274">
        <ele>48.0</ele>
        <time>2019-05-17T10:06:41.179Z</time>
      </trkpt>
      <trkpt lat="39.30727833" lon="-8.6274">
        <ele>48.0</ele>
        <time>2019-05-17T10:06:42.173Z</time>
      </trkpt>
      <trkpt lat="39.30727833" lon="-8.6274">
        <ele>48.0</ele>
        <time>2019-05-17T10:06:43.179Z</time>
      </trkpt>
      <trkpt lat="39.30727833" lon="-8.6274">
        <ele>48.0</ele>
        <time>2019-05-17T10:06:44.173Z</time>
      </trkpt>
      <trkpt lat="39.30727833" lon="-8.6274">
        <ele>48.0</ele>
        <time>2019-05-17T10:06:45.175Z</time>
      </trkpt>
      <trkpt lat="39.30727833" lon="-8.6274">
        <ele>48.0</ele>
        <time>2019-05-17T10:06:46.173Z</time>
      </trkpt>
      <trkpt lat="39.30727833" lon="-8.6274">
        <ele>48.0</ele>
        <time>2019-05-17T10:06:47.159Z</time>
      </trkpt>
      <trkpt lat="39.30727833" lon="-8.6274">
        <ele>48.0</ele>
        <time>2019-05-17T10:06:48.186Z</time>
      </trkpt>
      <trkpt lat="39.30727833" lon="-8.6274">
        <ele>48.0</ele>
        <time>2019-05-17T10:06:49.178Z</time>
      </trkpt>
      <trkpt lat="39.30727833" lon="-8.6274">
        <ele>48.0</ele>
        <time>2019-05-17T10:06:50.173Z</time>
      </trkpt>
      <trkpt lat="39.30727833" lon="-8.6274">
        <ele>48.0</ele>
        <time>2019-05-17T10:06:51.158Z</time>
      </trkpt>
      <trkpt lat="39.30727833" lon="-8.6274">
        <ele>48.0</ele>
        <time>2019-05-17T10:06:52.155Z</time>
      </trkpt>
      <trkpt lat="39.30727833" lon="-8.6274">
        <ele>48.0</ele>
        <time>2019-05-17T10:06:53.181Z</time>
      </trkpt>
      <trkpt lat="39.30727833" lon="-8.6274">
        <ele>48.0</ele>
        <time>2019-05-17T10:06:54.169Z</time>
      </trkpt>
      <trkpt lat="39.30727833" lon="-8.6274">
        <ele>48.0</ele>
        <time>2019-05-17T10:06:55.153Z</time>
      </trkpt>
      <trkpt lat="39.30727833" lon="-8.6274">
        <ele>48.0</ele>
        <time>2019-05-17T10:06:56.177Z</time>
      </trkpt>
      <trkpt lat="39.30727833" lon="-8.6274">
        <ele>48.0</ele>
        <time>2019-05-17T10:06:57.155Z</time>
      </trkpt>
      <trkpt lat="39.30727833" lon="-8.6274">
        <ele>48.0</ele>
        <time>2019-05-17T10:06:58.180Z</time>
      </trkpt>
      <trkpt lat="39.30727833" lon="-8.6274">
        <ele>48.0</ele>
        <time>2019-05-17T10:06:59.174Z</time>
      </trkpt>
      <trkpt lat="39.30727833" lon="-8.6274">
        <ele>48.0</ele>
        <time>2019-05-17T10:07:00.178Z</time>
      </trkpt>
      <trkpt lat="39.30727833" lon="-8.6274">
        <ele>48.0</ele>
        <time>2019-05-17T10:07:01.173Z</time>
      </trkpt>
      <trkpt lat="39.30727833" lon="-8.6274">
        <ele>48.0</ele>
        <time>2019-05-17T10:07:02.179Z</time>
      </trkpt>
      <trkpt lat="39.30727833" lon="-8.6274">
        <ele>48.0</ele>
        <time>2019-05-17T10:07:03.173Z</time>
      </trkpt>
      <trkpt lat="39.30727833" lon="-8.6274">
        <ele>48.0</ele>
        <time>2019-05-17T10:07:04.157Z</time>
      </trkpt>
      <trkpt lat="39.30727833" lon="-8.6274">
        <ele>48.0</ele>
        <time>2019-05-17T10:07:05.160Z</time>
      </trkpt>
      <trkpt lat="39.30727833" lon="-8.6274">
        <ele>48.0</ele>
        <time>2019-05-17T10:07:06.188Z</time>
      </trkpt>
      <trkpt lat="39.30727833" lon="-8.6274">
        <ele>48.0</ele>
        <time>2019-05-17T10:07:07.178Z</time>
      </trkpt>
      <trkpt lat="39.30727833" lon="-8.6274">
        <ele>48.0</ele>
        <time>2019-05-17T10:07:08.173Z</time>
      </trkpt>
      <trkpt lat="39.30727833" lon="-8.6274">
        <ele>48.0</ele>
        <time>2019-05-17T10:07:09.179Z</time>
      </trkpt>
      <trkpt lat="39.30727833" lon="-8.6274">
        <ele>48.0</ele>
        <time>2019-05-17T10:07:10.188Z</time>
      </trkpt>
      <trkpt lat="39.30727833" lon="-8.6274">
        <ele>48.0</ele>
        <time>2019-05-17T10:07:11.184Z</time>
      </trkpt>
      <trkpt lat="39.30727833" lon="-8.6274">
        <ele>48.0</ele>
        <time>2019-05-17T10:07:12.172Z</time>
      </trkpt>
      <trkpt lat="39.30727833" lon="-8.6274">
        <ele>48.0</ele>
        <time>2019-05-17T10:07:13.178Z</time>
      </trkpt>
      <trkpt lat="39.30727833" lon="-8.6274">
        <ele>48.0</ele>
        <time>2019-05-17T10:07:14.171Z</time>
      </trkpt>
      <trkpt lat="39.30727833" lon="-8.6274">
        <ele>48.0</ele>
        <time>2019-05-17T10:07:15.175Z</time>
      </trkpt>
      <trkpt lat="39.30727833" lon="-8.6274">
        <ele>48.0</ele>
        <time>2019-05-17T10:07:16.172Z</time>
      </trkpt>
      <trkpt lat="39.30727833" lon="-8.6274">
        <ele>48.0</ele>
        <time>2019-05-17T10:07:17.157Z</time>
      </trkpt>
      <trkpt lat="39.30727833" lon="-8.6274">
        <ele>48.0</ele>
        <time>2019-05-17T10:07:18.186Z</time>
      </trkpt>
      <trkpt lat="39.30727833" lon="-8.6274">
        <ele>48.0</ele>
        <time>2019-05-17T10:07:19.177Z</time>
      </trkpt>
      <trkpt lat="39.30727833" lon="-8.6274">
        <ele>48.0</ele>
        <time>2019-05-17T10:07:20.172Z</time>
      </trkpt>
      <trkpt lat="39.30727833" lon="-8.6274">
        <ele>48.0</ele>
        <time>2019-05-17T10:07:21.158Z</time>
      </trkpt>
      <trkpt lat="39.30727833" lon="-8.6274">
        <ele>48.0</ele>
        <time>2019-05-17T10:07:22.151Z</time>
      </trkpt>
      <trkpt lat="39.30727833" lon="-8.6274">
        <ele>48.0</ele>
        <time>2019-05-17T10:07:23.187Z</time>
      </trkpt>
      <trkpt lat="39.30727833" lon="-8.6274">
        <ele>48.0</ele>
        <time>2019-05-17T10:07:24.171Z</time>
      </trkpt>
      <trkpt lat="39.30727833" lon="-8.6274">
        <ele>48.0</ele>
        <time>2019-05-17T10:07:25.178Z</time>
      </trkpt>
      <trkpt lat="39.30727833" lon="-8.6274">
        <ele>48.0</ele>
        <time>2019-05-17T10:07:26.173Z</time>
      </trkpt>
      <trkpt lat="39.30727833" lon="-8.6274">
        <ele>48.0</ele>
        <time>2019-05-17T10:07:27.178Z</time>
      </trkpt>
      <trkpt lat="39.30727833" lon="-8.6274">
        <ele>48.0</ele>
        <time>2019-05-17T10:07:28.174Z</time>
      </trkpt>
      <trkpt lat="39.30727833" lon="-8.6274">
        <ele>48.0</ele>
        <time>2019-05-17T10:07:29.180Z</time>
      </trkpt>
      <trkpt lat="39.30727833" lon="-8.6274">
        <ele>48.0</ele>
        <time>2019-05-17T10:07:30.175Z</time>
      </trkpt>
      <trkpt lat="39.30727833" lon="-8.6274">
        <ele>48.0</ele>
        <time>2019-05-17T10:07:31.178Z</time>
      </trkpt>
      <trkpt lat="39.30727833" lon="-8.6274">
        <ele>48.0</ele>
        <time>2019-05-17T10:07:32.173Z</time>
      </trkpt>
      <trkpt lat="39.30727833" lon="-8.6274">
        <ele>48.0</ele>
        <time>2019-05-17T10:07:33.179Z</time>
      </trkpt>
      <trkpt lat="39.30727833" lon="-8.6274">
        <ele>48.0</ele>
        <time>2019-05-17T10:07:34.179Z</time>
      </trkpt>
      <trkpt lat="39.30727833" lon="-8.6274">
        <ele>48.0</ele>
        <time>2019-05-17T10:07:35.180Z</time>
      </trkpt>
      <trkpt lat="39.30727833" lon="-8.6274">
        <ele>48.0</ele>
        <time>2019-05-17T10:07:36.173Z</time>
      </trkpt>
      <trkpt lat="39.30727833" lon="-8.6274">
        <ele>48.0</ele>
        <time>2019-05-17T10:07:37.158Z</time>
      </trkpt>
      <trkpt lat="39.30727833" lon="-8.6274">
        <ele>48.0</ele>
        <time>2019-05-17T10:07:38.184Z</time>
      </trkpt>
      <trkpt lat="39.30727833" lon="-8.6274">
        <ele>48.0</ele>
        <time>2019-05-17T10:07:39.173Z</time>
      </trkpt>
      <trkpt lat="39.30727833" lon="-8.6274">
        <ele>48.0</ele>
        <time>2019-05-17T10:07:40.178Z</time>
      </trkpt>
      <trkpt lat="39.30727833" lon="-8.6274">
        <ele>48.0</ele>
        <time>2019-05-17T10:07:41.177Z</time>
      </trkpt>
      <trkpt lat="39.30727833" lon="-8.6274">
        <ele>48.0</ele>
        <time>2019-05-17T10:07:42.178Z</time>
      </trkpt>
      <trkpt lat="39.30727833" lon="-8.6274">
        <ele>48.0</ele>
        <time>2019-05-17T10:07:43.178Z</time>
      </trkpt>
      <trkpt lat="39.30727833" lon="-8.6274">
        <ele>48.0</ele>
        <time>2019-05-17T10:07:44.176Z</time>
      </trkpt>
      <trkpt lat="39.30727833" lon="-8.6274">
        <ele>48.0</ele>
        <time>2019-05-17T10:07:45.178Z</time>
      </trkpt>
      <trkpt lat="39.30727833" lon="-8.6274">
        <ele>48.0</ele>
        <time>2019-05-17T10:07:46.179Z</time>
      </trkpt>
      <trkpt lat="39.30727833" lon="-8.6274">
        <ele>48.0</ele>
        <time>2019-05-17T10:07:47.175Z</time>
      </trkpt>
      <trkpt lat="39.30727833" lon="-8.6274">
        <ele>48.0</ele>
        <time>2019-05-17T10:07:48.179Z</time>
      </trkpt>
      <trkpt lat="39.30727833" lon="-8.6274">
        <ele>48.0</ele>
        <time>2019-05-17T10:07:49.173Z</time>
      </trkpt>
      <trkpt lat="39.30727833" lon="-8.6274">
        <ele>48.0</ele>
        <time>2019-05-17T10:07:50.178Z</time>
      </trkpt>
      <trkpt lat="39.30727833" lon="-8.6274">
        <ele>48.0</ele>
        <time>2019-05-17T10:07:51.173Z</time>
      </trkpt>
      <trkpt lat="39.30727833" lon="-8.6274">
        <ele>48.0</ele>
        <time>2019-05-17T10:07:52.178Z</time>
      </trkpt>
      <trkpt lat="39.30727833" lon="-8.6274">
        <ele>48.0</ele>
        <time>2019-05-17T10:07:53.180Z</time>
      </trkpt>
      <trkpt lat="39.30727833" lon="-8.6274">
        <ele>48.0</ele>
        <time>2019-05-17T10:07:54.173Z</time>
      </trkpt>
      <trkpt lat="39.30727833" lon="-8.6274">
        <ele>48.0</ele>
        <time>2019-05-17T10:07:55.179Z</time>
      </trkpt>
      <trkpt lat="39.30727833" lon="-8.6274">
        <ele>48.0</ele>
        <time>2019-05-17T10:07:56.178Z</time>
      </trkpt>
      <trkpt lat="39.30727833" lon="-8.6274">
        <ele>48.0</ele>
        <time>2019-05-17T10:07:57.172Z</time>
      </trkpt>
      <trkpt lat="39.30727833" lon="-8.6274">
        <ele>48.0</ele>
        <time>2019-05-17T10:07:58.178Z</time>
      </trkpt>
      <trkpt lat="39.30727833" lon="-8.6274">
        <ele>48.0</ele>
        <time>2019-05-17T10:07:59.174Z</time>
      </trkpt>
      <trkpt lat="39.30727833" lon="-8.6274">
        <ele>48.0</ele>
        <time>2019-05-17T10:08:00.178Z</time>
      </trkpt>
      <trkpt lat="39.30727833" lon="-8.6274">
        <ele>48.0</ele>
        <time>2019-05-17T10:08:01.176Z</time>
      </trkpt>
      <trkpt lat="39.30727833" lon="-8.6274">
        <ele>48.0</ele>
        <time>2019-05-17T10:08:02.177Z</time>
      </trkpt>
      <trkpt lat="39.30727833" lon="-8.6274">
        <ele>48.0</ele>
        <time>2019-05-17T10:08:03.178Z</time>
      </trkpt>
      <trkpt lat="39.30727833" lon="-8.6274">
        <ele>48.0</ele>
        <time>2019-05-17T10:08:04.173Z</time>
      </trkpt>
      <trkpt lat="39.30727833" lon="-8.6274">
        <ele>48.0</ele>
        <time>2019-05-17T10:08:05.157Z</time>
      </trkpt>
      <trkpt lat="39.30727833" lon="-8.6274">
        <ele>48.0</ele>
        <time>2019-05-17T10:08:06.178Z</time>
      </trkpt>
      <trkpt lat="39.30727833" lon="-8.6274">
        <ele>48.0</ele>
        <time>2019-05-17T10:08:07.173Z</time>
      </trkpt>
      <trkpt lat="39.30727833" lon="-8.6274">
        <ele>48.0</ele>
        <time>2019-05-17T10:08:08.179Z</time>
      </trkpt>
      <trkpt lat="39.30727833" lon="-8.6274">
        <ele>48.0</ele>
        <time>2019-05-17T10:08:09.167Z</time>
      </trkpt>
      <trkpt lat="39.30727833" lon="-8.6274">
        <ele>48.0</ele>
        <time>2019-05-17T10:08:10.158Z</time>
      </trkpt>
      <trkpt lat="39.30727833" lon="-8.6274">
        <ele>48.0</ele>
        <time>2019-05-17T10:08:11.169Z</time>
      </trkpt>
      <trkpt lat="39.30727833" lon="-8.6274">
        <ele>48.0</ele>
        <time>2019-05-17T10:08:12.175Z</time>
      </trkpt>
      <trkpt lat="39.30727833" lon="-8.6274">
        <ele>48.0</ele>
        <time>2019-05-17T10:08:13.166Z</time>
      </trkpt>
      <trkpt lat="39.30727833" lon="-8.6274">
        <ele>48.0</ele>
        <time>2019-05-17T10:08:14.151Z</time>
      </trkpt>
      <trkpt lat="39.30727833" lon="-8.6274">
        <ele>48.0</ele>
        <time>2019-05-17T10:08:15.186Z</time>
      </trkpt>
      <trkpt lat="39.30727833" lon="-8.6274">
        <ele>48.0</ele>
        <time>2019-05-17T10:08:16.176Z</time>
      </trkpt>
      <trkpt lat="39.30727833" lon="-8.6274">
        <ele>48.0</ele>
        <time>2019-05-17T10:08:17.181Z</time>
      </trkpt>
      <trkpt lat="39.30727833" lon="-8.6274">
        <ele>48.0</ele>
        <time>2019-05-17T10:08:18.177Z</time>
      </trkpt>
      <trkpt lat="39.30727833" lon="-8.6274">
        <ele>48.0</ele>
        <time>2019-05-17T10:08:19.179Z</time>
      </trkpt>
      <trkpt lat="39.30727833" lon="-8.6274">
        <ele>48.0</ele>
        <time>2019-05-17T10:08:20.174Z</time>
      </trkpt>
      <trkpt lat="39.30727833" lon="-8.6274">
        <ele>48.0</ele>
        <time>2019-05-17T10:08:21.176Z</time>
      </trkpt>
      <trkpt lat="39.30727833" lon="-8.6274">
        <ele>48.0</ele>
        <time>2019-05-17T10:08:22.180Z</time>
      </trkpt>
      <trkpt lat="39.30727833" lon="-8.6274">
        <ele>48.0</ele>
        <time>2019-05-17T10:08:23.183Z</time>
      </trkpt>
      <trkpt lat="39.30727833" lon="-8.6274">
        <ele>48.0</ele>
        <time>2019-05-17T10:08:24.179Z</time>
      </trkpt>
      <trkpt lat="39.30727833" lon="-8.6274">
        <ele>48.0</ele>
        <time>2019-05-17T10:08:25.174Z</time>
      </trkpt>
      <trkpt lat="39.30727833" lon="-8.6274">
        <ele>48.0</ele>
        <time>2019-05-17T10:08:26.179Z</time>
      </trkpt>
      <trkpt lat="39.30727833" lon="-8.6274">
        <ele>48.0</ele>
        <time>2019-05-17T10:08:27.173Z</time>
      </trkpt>
      <trkpt lat="39.30727833" lon="-8.6274">
        <ele>48.0</ele>
        <time>2019-05-17T10:08:28.179Z</time>
      </trkpt>
      <trkpt lat="39.30727833" lon="-8.6274">
        <ele>48.0</ele>
        <time>2019-05-17T10:08:29.175Z</time>
      </trkpt>
      <trkpt lat="39.30727833" lon="-8.6274">
        <ele>48.0</ele>
        <time>2019-05-17T10:08:30.178Z</time>
      </trkpt>
      <trkpt lat="39.30727833" lon="-8.6274">
        <ele>48.0</ele>
        <time>2019-05-17T10:08:31.180Z</time>
      </trkpt>
      <trkpt lat="39.30727833" lon="-8.6274">
        <ele>48.0</ele>
        <time>2019-05-17T10:08:32.174Z</time>
      </trkpt>
      <trkpt lat="39.30727833" lon="-8.6274">
        <ele>48.0</ele>
        <time>2019-05-17T10:08:33.179Z</time>
      </trkpt>
      <trkpt lat="39.30727833" lon="-8.6274">
        <ele>48.0</ele>
        <time>2019-05-17T10:08:34.173Z</time>
      </trkpt>
      <trkpt lat="39.30727833" lon="-8.6274">
        <ele>48.0</ele>
        <time>2019-05-17T10:08:35.160Z</time>
      </trkpt>
      <trkpt lat="39.30727833" lon="-8.6274">
        <ele>48.0</ele>
        <time>2019-05-17T10:08:36.185Z</time>
      </trkpt>
      <trkpt lat="39.30727833" lon="-8.6274">
        <ele>48.0</ele>
        <time>2019-05-17T10:08:37.179Z</time>
      </trkpt>
      <trkpt lat="39.30727833" lon="-8.6274">
        <ele>48.0</ele>
        <time>2019-05-17T10:08:38.178Z</time>
      </trkpt>
      <trkpt lat="39.30727833" lon="-8.6274">
        <ele>48.0</ele>
        <time>2019-05-17T10:08:39.176Z</time>
      </trkpt>
      <trkpt lat="39.30727833" lon="-8.6274">
        <ele>48.0</ele>
        <time>2019-05-17T10:08:40.178Z</time>
      </trkpt>
      <trkpt lat="39.30727833" lon="-8.6274">
        <ele>48.0</ele>
        <time>2019-05-17T10:08:41.175Z</time>
      </trkpt>
      <trkpt lat="39.30727833" lon="-8.6274">
        <ele>48.0</ele>
        <time>2019-05-17T10:08:42.178Z</time>
      </trkpt>
      <trkpt lat="39.30727833" lon="-8.6274">
        <ele>48.0</ele>
        <time>2019-05-17T10:08:43.177Z</time>
      </trkpt>
      <trkpt lat="39.30727833" lon="-8.6274">
        <ele>48.0</ele>
        <time>2019-05-17T10:08:44.179Z</time>
      </trkpt>
      <trkpt lat="39.30727833" lon="-8.6274">
        <ele>48.0</ele>
        <time>2019-05-17T10:08:45.172Z</time>
      </trkpt>
      <trkpt lat="39.30727833" lon="-8.6274">
        <ele>48.0</ele>
        <time>2019-05-17T10:08:46.178Z</time>
      </trkpt>
      <trkpt lat="39.30727833" lon="-8.6274">
        <ele>48.0</ele>
        <time>2019-05-17T10:08:47.179Z</time>
      </trkpt>
      <trkpt lat="39.30727833" lon="-8.6274">
        <ele>48.0</ele>
        <time>2019-05-17T10:08:48.169Z</time>
      </trkpt>
      <trkpt lat="39.30727833" lon="-8.6274">
        <ele>48.0</ele>
        <time>2019-05-17T10:08:49.153Z</time>
      </trkpt>
      <trkpt lat="39.30727833" lon="-8.6274">
        <ele>48.0</ele>
        <time>2019-05-17T10:08:50.179Z</time>
      </trkpt>
      <trkpt lat="39.30727833" lon="-8.6274">
        <ele>48.0</ele>
        <time>2019-05-17T10:08:51.177Z</time>
      </trkpt>
      <trkpt lat="39.30727833" lon="-8.6274">
        <ele>48.0</ele>
        <time>2019-05-17T10:08:52.178Z</time>
      </trkpt>
      <trkpt lat="39.30727833" lon="-8.6274">
        <ele>48.0</ele>
        <time>2019-05-17T10:08:53.177Z</time>
      </trkpt>
      <trkpt lat="39.30727833" lon="-8.6274">
        <ele>48.0</ele>
        <time>2019-05-17T10:08:54.172Z</time>
      </trkpt>
      <trkpt lat="39.30727833" lon="-8.6274">
        <ele>48.0</ele>
        <time>2019-05-17T10:08:55.158Z</time>
      </trkpt>
      <trkpt lat="39.30727833" lon="-8.6274">
        <ele>48.0</ele>
        <time>2019-05-17T10:08:56.183Z</time>
      </trkpt>
      <trkpt lat="39.30727833" lon="-8.6274">
        <ele>48.0</ele>
        <time>2019-05-17T10:08:57.172Z</time>
      </trkpt>
      <trkpt lat="39.30727833" lon="-8.6274">
        <ele>48.0</ele>
        <time>2019-05-17T10:08:58.177Z</time>
      </trkpt>
      <trkpt lat="39.30727833" lon="-8.6274">
        <ele>48.0</ele>
        <time>2019-05-17T10:08:59.180Z</time>
      </trkpt>
      <trkpt lat="39.30727833" lon="-8.6274">
        <ele>48.0</ele>
        <time>2019-05-17T10:09:00.173Z</time>
      </trkpt>
      <trkpt lat="39.30727833" lon="-8.6274">
        <ele>48.0</ele>
        <time>2019-05-17T10:09:01.158Z</time>
      </trkpt>
      <trkpt lat="39.30727833" lon="-8.6274">
        <ele>48.0</ele>
        <time>2019-05-17T10:09:02.183Z</time>
      </trkpt>
      <trkpt lat="39.30727833" lon="-8.6274">
        <ele>48.0</ele>
        <time>2019-05-17T10:09:03.178Z</time>
      </trkpt>
      <trkpt lat="39.30727833" lon="-8.6274">
        <ele>48.0</ele>
        <time>2019-05-17T10:09:04.176Z</time>
      </trkpt>
      <trkpt lat="39.30727833" lon="-8.6274">
        <ele>48.0</ele>
        <time>2019-05-17T10:09:05.184Z</time>
      </trkpt>
      <trkpt lat="39.30727833" lon="-8.6274">
        <ele>48.0</ele>
        <time>2019-05-17T10:09:06.172Z</time>
      </trkpt>
      <trkpt lat="39.30727833" lon="-8.6274">
        <ele>48.0</ele>
        <time>2019-05-17T10:09:07.179Z</time>
      </trkpt>
      <trkpt lat="39.30727833" lon="-8.6274">
        <ele>48.0</ele>
        <time>2019-05-17T10:09:08.176Z</time>
      </trkpt>
      <trkpt lat="39.30727833" lon="-8.6274">
        <ele>48.0</ele>
        <time>2019-05-17T10:09:09.176Z</time>
      </trkpt>
      <trkpt lat="39.30727833" lon="-8.6274">
        <ele>48.0</ele>
        <time>2019-05-17T10:09:10.167Z</time>
      </trkpt>
      <trkpt lat="39.30727833" lon="-8.6274">
        <ele>48.0</ele>
        <time>2019-05-17T10:09:11.151Z</time>
      </trkpt>
      <trkpt lat="39.30727833" lon="-8.6274">
        <ele>48.0</ele>
        <time>2019-05-17T10:09:12.179Z</time>
      </trkpt>
      <trkpt lat="39.30727833" lon="-8.6274">
        <ele>48.0</ele>
        <time>2019-05-17T10:09:13.176Z</time>
      </trkpt>
      <trkpt lat="39.30727833" lon="-8.6274">
        <ele>48.0</ele>
        <time>2019-05-17T10:09:14.179Z</time>
      </trkpt>
      <trkpt lat="39.30727833" lon="-8.6274">
        <ele>48.0</ele>
        <time>2019-05-17T10:09:15.172Z</time>
      </trkpt>
      <trkpt lat="39.30727833" lon="-8.6274">
        <ele>48.0</ele>
        <time>2019-05-17T10:09:16.178Z</time>
      </trkpt>
      <trkpt lat="39.30727833" lon="-8.6274">
        <ele>48.0</ele>
        <time>2019-05-17T10:09:17.177Z</time>
      </trkpt>
      <trkpt lat="39.30727833" lon="-8.6274">
        <ele>48.0</ele>
        <time>2019-05-17T10:09:18.177Z</time>
      </trkpt>
      <trkpt lat="39.30727833" lon="-8.6274">
        <ele>48.0</ele>
        <time>2019-05-17T10:09:19.178Z</time>
      </trkpt>
      <trkpt lat="39.30727833" lon="-8.6274">
        <ele>48.0</ele>
        <time>2019-05-17T10:09:20.176Z</time>
      </trkpt>
      <trkpt lat="39.30727833" lon="-8.6274">
        <ele>48.0</ele>
        <time>2019-05-17T10:09:21.178Z</time>
      </trkpt>
      <trkpt lat="39.30727833" lon="-8.6274">
        <ele>48.0</ele>
        <time>2019-05-17T10:09:22.173Z</time>
      </trkpt>
      <trkpt lat="39.30727833" lon="-8.6274">
        <ele>48.0</ele>
        <time>2019-05-17T10:09:23.181Z</time>
      </trkpt>
      <trkpt lat="39.30727833" lon="-8.6274">
        <ele>48.0</ele>
        <time>2019-05-17T10:09:24.160Z</time>
      </trkpt>
      <trkpt lat="39.30727833" lon="-8.6274">
        <ele>48.0</ele>
        <time>2019-05-17T10:09:25.186Z</time>
      </trkpt>
      <trkpt lat="39.30727833" lon="-8.6274">
        <ele>48.0</ele>
        <time>2019-05-17T10:09:26.177Z</time>
      </trkpt>
      <trkpt lat="39.30727833" lon="-8.6274">
        <ele>48.0</ele>
        <time>2019-05-17T10:09:27.174Z</time>
      </trkpt>
      <trkpt lat="39.30727833" lon="-8.6274">
        <ele>48.0</ele>
        <time>2019-05-17T10:09:28.179Z</time>
      </trkpt>
      <trkpt lat="39.30727833" lon="-8.6274">
        <ele>48.0</ele>
        <time>2019-05-17T10:09:29.175Z</time>
      </trkpt>
      <trkpt lat="39.30727833" lon="-8.6274">
        <ele>48.0</ele>
        <time>2019-05-17T10:09:30.179Z</time>
      </trkpt>
      <trkpt lat="39.30727833" lon="-8.6274">
        <ele>48.0</ele>
        <time>2019-05-17T10:09:31.176Z</time>
      </trkpt>
      <trkpt lat="39.30727833" lon="-8.6274">
        <ele>48.0</ele>
        <time>2019-05-17T10:09:32.180Z</time>
      </trkpt>
      <trkpt lat="39.30727833" lon="-8.6274">
        <ele>48.0</ele>
        <time>2019-05-17T10:09:33.176Z</time>
      </trkpt>
      <trkpt lat="39.30727833" lon="-8.6274">
        <ele>48.0</ele>
        <time>2019-05-17T10:09:34.179Z</time>
      </trkpt>
      <trkpt lat="39.30727833" lon="-8.6274">
        <ele>48.0</ele>
        <time>2019-05-17T10:09:35.181Z</time>
      </trkpt>
      <trkpt lat="39.30727833" lon="-8.6274">
        <ele>48.0</ele>
        <time>2019-05-17T10:09:36.179Z</time>
      </trkpt>
      <trkpt lat="39.30727833" lon="-8.6274">
        <ele>48.0</ele>
        <time>2019-05-17T10:09:37.176Z</time>
      </trkpt>
      <trkpt lat="39.30727833" lon="-8.6274">
        <ele>48.0</ele>
        <time>2019-05-17T10:09:38.179Z</time>
      </trkpt>
      <trkpt lat="39.30727833" lon="-8.6274">
        <ele>48.0</ele>
        <time>2019-05-17T10:09:39.176Z</time>
      </trkpt>
      <trkpt lat="39.30727833" lon="-8.6274">
        <ele>48.0</ele>
        <time>2019-05-17T10:09:40.178Z</time>
      </trkpt>
      <trkpt lat="39.30727833" lon="-8.6274">
        <ele>48.0</ele>
        <time>2019-05-17T10:09:41.180Z</time>
      </trkpt>
      <trkpt lat="39.30727833" lon="-8.6274">
        <ele>48.0</ele>
        <time>2019-05-17T10:09:42.179Z</time>
      </trkpt>
      <trkpt lat="39.30727833" lon="-8.6274">
        <ele>48.0</ele>
        <time>2019-05-17T10:09:43.179Z</time>
      </trkpt>
      <trkpt lat="39.30727833" lon="-8.6274">
        <ele>48.0</ele>
        <time>2019-05-17T10:09:44.174Z</time>
      </trkpt>
      <trkpt lat="39.30727833" lon="-8.6274">
        <ele>48.0</ele>
        <time>2019-05-17T10:09:45.179Z</time>
      </trkpt>
      <trkpt lat="39.30727833" lon="-8.6274">
        <ele>48.0</ele>
        <time>2019-05-17T10:09:46.180Z</time>
      </trkpt>
      <trkpt lat="39.30727833" lon="-8.6274">
        <ele>48.0</ele>
        <time>2019-05-17T10:09:47.180Z</time>
      </trkpt>
      <trkpt lat="39.30727833" lon="-8.6274">
        <ele>48.0</ele>
        <time>2019-05-17T10:09:48.178Z</time>
      </trkpt>
      <trkpt lat="39.30727833" lon="-8.6274">
        <ele>48.0</ele>
        <time>2019-05-17T10:09:49.180Z</time>
      </trkpt>
      <trkpt lat="39.30727833" lon="-8.6274">
        <ele>48.0</ele>
        <time>2019-05-17T10:09:50.176Z</time>
      </trkpt>
      <trkpt lat="39.30727833" lon="-8.6274">
        <ele>48.0</ele>
        <time>2019-05-17T10:09:51.176Z</time>
      </trkpt>
      <trkpt lat="39.30727833" lon="-8.6274">
        <ele>48.0</ele>
        <time>2019-05-17T10:09:52.173Z</time>
      </trkpt>
      <trkpt lat="39.30727833" lon="-8.6274">
        <ele>48.0</ele>
        <time>2019-05-17T10:09:53.180Z</time>
      </trkpt>
      <trkpt lat="39.30727833" lon="-8.6274">
        <ele>48.0</ele>
        <time>2019-05-17T10:09:54.179Z</time>
      </trkpt>
      <trkpt lat="39.30727833" lon="-8.6274">
        <ele>48.0</ele>
        <time>2019-05-17T10:09:55.180Z</time>
      </trkpt>
      <trkpt lat="39.30727833" lon="-8.6274">
        <ele>48.0</ele>
        <time>2019-05-17T10:09:56.176Z</time>
      </trkpt>
      <trkpt lat="39.30727833" lon="-8.6274">
        <ele>48.0</ele>
        <time>2019-05-17T10:09:57.176Z</time>
      </trkpt>
      <trkpt lat="39.30727833" lon="-8.6274">
        <ele>48.0</ele>
        <time>2019-05-17T10:09:58.178Z</time>
      </trkpt>
      <trkpt lat="39.30727833" lon="-8.6274">
        <ele>48.0</ele>
        <time>2019-05-17T10:09:59.180Z</time>
      </trkpt>
      <trkpt lat="39.30727833" lon="-8.6274">
        <ele>48.0</ele>
        <time>2019-05-17T10:10:00.176Z</time>
      </trkpt>
      <trkpt lat="39.30727833" lon="-8.6274">
        <ele>48.0</ele>
        <time>2019-05-17T10:10:01.179Z</time>
      </trkpt>
      <trkpt lat="39.30727833" lon="-8.6274">
        <ele>48.0</ele>
        <time>2019-05-17T10:10:02.178Z</time>
      </trkpt>
      <trkpt lat="39.30727833" lon="-8.6274">
        <ele>48.0</ele>
        <time>2019-05-17T10:10:03.176Z</time>
      </trkpt>
      <trkpt lat="39.30727833" lon="-8.6274">
        <ele>48.0</ele>
        <time>2019-05-17T10:10:04.178Z</time>
      </trkpt>
      <trkpt lat="39.30727833" lon="-8.6274">
        <ele>48.0</ele>
        <time>2019-05-17T10:10:05.183Z</time>
      </trkpt>
      <trkpt lat="39.30727833" lon="-8.6274">
        <ele>48.0</ele>
        <time>2019-05-17T10:10:06.177Z</time>
      </trkpt>
      <trkpt lat="39.30727833" lon="-8.6274">
        <ele>48.0</ele>
        <time>2019-05-17T10:10:07.174Z</time>
      </trkpt>
      <trkpt lat="39.30727833" lon="-8.6274">
        <ele>48.0</ele>
        <time>2019-05-17T10:10:08.178Z</time>
      </trkpt>
      <trkpt lat="39.30727833" lon="-8.6274">
        <ele>48.0</ele>
        <time>2019-05-17T10:10:09.153Z</time>
      </trkpt>
      <trkpt lat="39.30727833" lon="-8.6274">
        <ele>48.0</ele>
        <time>2019-05-17T10:10:10.179Z</time>
      </trkpt>
      <trkpt lat="39.30727833" lon="-8.6274">
        <ele>48.0</ele>
        <time>2019-05-17T10:10:11.175Z</time>
      </trkpt>
      <trkpt lat="39.30727833" lon="-8.6274">
        <ele>48.0</ele>
        <time>2019-05-17T10:10:12.178Z</time>
      </trkpt>
      <trkpt lat="39.30727833" lon="-8.6274">
        <ele>48.0</ele>
        <time>2019-05-17T10:10:13.179Z</time>
      </trkpt>
      <trkpt lat="39.30727833" lon="-8.6274">
        <ele>48.0</ele>
        <time>2019-05-17T10:10:14.178Z</time>
      </trkpt>
      <trkpt lat="39.30727833" lon="-8.6274">
        <ele>48.0</ele>
        <time>2019-05-17T10:10:15.174Z</time>
      </trkpt>
      <trkpt lat="39.30727833" lon="-8.6274">
        <ele>48.0</ele>
        <time>2019-05-17T10:10:16.178Z</time>
      </trkpt>
      <trkpt lat="39.30727833" lon="-8.6274">
        <ele>48.0</ele>
        <time>2019-05-17T10:10:17.180Z</time>
      </trkpt>
      <trkpt lat="39.30727833" lon="-8.6274">
        <ele>48.0</ele>
        <time>2019-05-17T10:10:18.178Z</time>
      </trkpt>
      <trkpt lat="39.30727833" lon="-8.6274">
        <ele>48.0</ele>
        <time>2019-05-17T10:10:19.182Z</time>
      </trkpt>
      <trkpt lat="39.30727833" lon="-8.6274">
        <ele>48.0</ele>
        <time>2019-05-17T10:10:20.174Z</time>
      </trkpt>
      <trkpt lat="39.30727333" lon="-8.62744">
        <ele>49.0</ele>
        <time>2019-05-17T10:10:21.179Z</time>
      </trkpt>
      <trkpt lat="39.30727333" lon="-8.62744">
        <ele>49.0</ele>
        <time>2019-05-17T10:10:22.173Z</time>
      </trkpt>
      <trkpt lat="39.30728" lon="-8.62743667">
        <ele>49.0</ele>
        <time>2019-05-17T10:10:23.181Z</time>
      </trkpt>
      <trkpt lat="39.30727833" lon="-8.62743833">
        <ele>49.0</ele>
        <time>2019-05-17T10:10:24.179Z</time>
      </trkpt>
      <trkpt lat="39.30727833" lon="-8.62743833">
        <ele>49.0</ele>
        <time>2019-05-17T10:10:25.173Z</time>
      </trkpt>
      <trkpt lat="39.30728" lon="-8.62743833">
        <ele>49.0</ele>
        <time>2019-05-17T10:10:26.168Z</time>
      </trkpt>
      <trkpt lat="39.30728" lon="-8.62743833">
        <ele>49.0</ele>
        <time>2019-05-17T10:10:27.153Z</time>
      </trkpt>
      <trkpt lat="39.30728" lon="-8.62743833">
        <ele>49.0</ele>
        <time>2019-05-17T10:10:28.177Z</time>
      </trkpt>
      <trkpt lat="39.30728" lon="-8.62743833">
        <ele>49.0</ele>
        <time>2019-05-17T10:10:29.175Z</time>
      </trkpt>
      <trkpt lat="39.30728" lon="-8.62743833">
        <ele>49.0</ele>
        <time>2019-05-17T10:10:30.178Z</time>
      </trkpt>
      <trkpt lat="39.30728" lon="-8.62743833">
        <ele>49.0</ele>
        <time>2019-05-17T10:10:31.179Z</time>
      </trkpt>
      <trkpt lat="39.30728" lon="-8.62743833">
        <ele>49.0</ele>
        <time>2019-05-17T10:10:32.177Z</time>
      </trkpt>
      <trkpt lat="39.30728" lon="-8.62743833">
        <ele>49.0</ele>
        <time>2019-05-17T10:10:33.181Z</time>
      </trkpt>
      <trkpt lat="39.30728" lon="-8.62743833">
        <ele>49.0</ele>
        <time>2019-05-17T10:10:34.176Z</time>
      </trkpt>
      <trkpt lat="39.30728" lon="-8.62743833">
        <ele>49.0</ele>
        <time>2019-05-17T10:10:35.180Z</time>
      </trkpt>
      <trkpt lat="39.30728" lon="-8.62743833">
        <ele>49.0</ele>
        <time>2019-05-17T10:10:36.178Z</time>
      </trkpt>
      <trkpt lat="39.30728" lon="-8.62743833">
        <ele>49.0</ele>
        <time>2019-05-17T10:10:37.173Z</time>
      </trkpt>
      <trkpt lat="39.30728" lon="-8.62743833">
        <ele>49.0</ele>
        <time>2019-05-17T10:10:38.179Z</time>
      </trkpt>
      <trkpt lat="39.30728" lon="-8.62743833">
        <ele>49.0</ele>
        <time>2019-05-17T10:10:39.176Z</time>
      </trkpt>
      <trkpt lat="39.30728" lon="-8.62743833">
        <ele>49.0</ele>
        <time>2019-05-17T10:10:40.179Z</time>
      </trkpt>
      <trkpt lat="39.30728" lon="-8.62743833">
        <ele>49.0</ele>
        <time>2019-05-17T10:10:41.175Z</time>
      </trkpt>
      <trkpt lat="39.30728" lon="-8.62743833">
        <ele>49.0</ele>
        <time>2019-05-17T10:10:42.179Z</time>
      </trkpt>
      <trkpt lat="39.30728" lon="-8.62743833">
        <ele>49.0</ele>
        <time>2019-05-17T10:10:43.179Z</time>
      </trkpt>
      <trkpt lat="39.30728" lon="-8.62743833">
        <ele>49.0</ele>
        <time>2019-05-17T10:10:44.177Z</time>
      </trkpt>
      <trkpt lat="39.30728" lon="-8.62743833">
        <ele>49.0</ele>
        <time>2019-05-17T10:10:45.178Z</time>
      </trkpt>
      <trkpt lat="39.30728" lon="-8.62743833">
        <ele>49.0</ele>
        <time>2019-05-17T10:10:46.174Z</time>
      </trkpt>
      <trkpt lat="39.30728" lon="-8.62743833">
        <ele>49.0</ele>
        <time>2019-05-17T10:10:47.160Z</time>
      </trkpt>
      <trkpt lat="39.30728" lon="-8.62743833">
        <ele>49.0</ele>
        <time>2019-05-17T10:10:48.185Z</time>
      </trkpt>
      <trkpt lat="39.30728" lon="-8.62743833">
        <ele>49.0</ele>
        <time>2019-05-17T10:10:49.180Z</time>
      </trkpt>
      <trkpt lat="39.30728" lon="-8.62743833">
        <ele>49.0</ele>
        <time>2019-05-17T10:10:50.177Z</time>
      </trkpt>
      <trkpt lat="39.30732667" lon="-8.62746167">
        <ele>49.0</ele>
        <time>2019-05-17T10:10:51.179Z</time>
      </trkpt>
      <trkpt lat="39.30734667" lon="-8.627465">
        <ele>49.0</ele>
        <time>2019-05-17T10:10:52.151Z</time>
      </trkpt>
      <trkpt lat="39.30734667" lon="-8.627465">
        <ele>49.0</ele>
        <time>2019-05-17T10:10:53.177Z</time>
      </trkpt>
      <trkpt lat="39.30738833" lon="-8.62746833">
        <ele>49.0</ele>
        <time>2019-05-17T10:10:54.179Z</time>
      </trkpt>
      <trkpt lat="39.30740833" lon="-8.62746667">
        <ele>49.0</ele>
        <time>2019-05-17T10:10:55.179Z</time>
      </trkpt>
      <trkpt lat="39.30740833" lon="-8.62746667">
        <ele>49.0</ele>
        <time>2019-05-17T10:10:56.166Z</time>
      </trkpt>
      <trkpt lat="39.30744667" lon="-8.627465">
        <ele>49.0</ele>
        <time>2019-05-17T10:10:57.190Z</time>
      </trkpt>
      <trkpt lat="39.30746333" lon="-8.62746667">
        <ele>49.0</ele>
        <time>2019-05-17T10:10:58.173Z</time>
      </trkpt>
      <trkpt lat="39.307485" lon="-8.62746667">
        <ele>49.0</ele>
        <time>2019-05-17T10:10:59.174Z</time>
      </trkpt>
      <trkpt lat="39.307485" lon="-8.62746667">
        <ele>49.0</ele>
        <time>2019-05-17T10:11:00.185Z</time>
      </trkpt>
      <trkpt lat="39.30753" lon="-8.62747167">
        <ele>49.0</ele>
        <time>2019-05-17T10:11:01.166Z</time>
      </trkpt>
      <trkpt lat="39.30755" lon="-8.62747167">
        <ele>49.0</ele>
        <time>2019-05-17T10:11:02.151Z</time>
      </trkpt>
      <trkpt lat="39.30755" lon="-8.62747167">
        <ele>49.0</ele>
        <time>2019-05-17T10:11:03.166Z</time>
      </trkpt>
      <trkpt lat="39.30758833" lon="-8.62747333">
        <ele>49.0</ele>
        <time>2019-05-17T10:11:04.185Z</time>
      </trkpt>
      <trkpt lat="39.307605" lon="-8.62747333">
        <ele>49.0</ele>
        <time>2019-05-17T10:11:05.161Z</time>
      </trkpt>
      <trkpt lat="39.307605" lon="-8.62747333">
        <ele>49.0</ele>
        <time>2019-05-17T10:11:06.176Z</time>
      </trkpt>
      <trkpt lat="39.30765" lon="-8.627475">
        <ele>49.0</ele>
        <time>2019-05-17T10:11:07.151Z</time>
      </trkpt>
      <trkpt lat="39.30765" lon="-8.627475">
        <ele>49.0</ele>
        <time>2019-05-17T10:11:08.169Z</time>
      </trkpt>
      <trkpt lat="39.30769667" lon="-8.62748">
        <ele>49.0</ele>
        <time>2019-05-17T10:11:09.159Z</time>
      </trkpt>
      <trkpt lat="39.30769667" lon="-8.62748">
        <ele>49.0</ele>
        <time>2019-05-17T10:11:10.167Z</time>
      </trkpt>
      <trkpt lat="39.307745" lon="-8.62748333">
        <ele>49.0</ele>
        <time>2019-05-17T10:11:11.189Z</time>
      </trkpt>
      <trkpt lat="39.307745" lon="-8.62748333">
        <ele>49.0</ele>
        <time>2019-05-17T10:11:12.166Z</time>
      </trkpt>
      <trkpt lat="39.30779167" lon="-8.62747833">
        <ele>48.0</ele>
        <time>2019-05-17T10:11:13.179Z</time>
      </trkpt>
      <trkpt lat="39.30779167" lon="-8.62747833">
        <ele>48.0</ele>
        <time>2019-05-17T10:11:14.187Z</time>
      </trkpt>
      <trkpt lat="39.30783833" lon="-8.627475">
        <ele>49.0</ele>
        <time>2019-05-17T10:11:15.156Z</time>
      </trkpt>
      <trkpt lat="39.30783833" lon="-8.627475">
        <ele>49.0</ele>
        <time>2019-05-17T10:11:16.168Z</time>
      </trkpt>
      <trkpt lat="39.307885" lon="-8.627475">
        <ele>48.0</ele>
        <time>2019-05-17T10:11:17.181Z</time>
      </trkpt>
      <trkpt lat="39.307885" lon="-8.627475">
        <ele>48.0</ele>
        <time>2019-05-17T10:11:18.167Z</time>
      </trkpt>
      <trkpt lat="39.30793667" lon="-8.62747667">
        <ele>49.0</ele>
        <time>2019-05-17T10:11:19.185Z</time>
      </trkpt>
      <trkpt lat="39.30793667" lon="-8.62747667">
        <ele>49.0</ele>
        <time>2019-05-17T10:11:20.170Z</time>
      </trkpt>
      <trkpt lat="39.30798167" lon="-8.627475">
        <ele>49.0</ele>
        <time>2019-05-17T10:11:21.191Z</time>
      </trkpt>
      <trkpt lat="39.30800333" lon="-8.62746833">
        <ele>49.0</ele>
        <time>2019-05-17T10:11:22.174Z</time>
      </trkpt>
      <trkpt lat="39.30802833" lon="-8.62746833">
        <ele>49.0</ele>
        <time>2019-05-17T10:11:23.166Z</time>
      </trkpt>
      <trkpt lat="39.30802833" lon="-8.62746833">
        <ele>49.0</ele>
        <time>2019-05-17T10:11:24.171Z</time>
      </trkpt>
      <trkpt lat="39.30807" lon="-8.627465">
        <ele>49.0</ele>
        <time>2019-05-17T10:11:25.183Z</time>
      </trkpt>
      <trkpt lat="39.30807" lon="-8.627465">
        <ele>49.0</ele>
        <time>2019-05-17T10:11:26.152Z</time>
      </trkpt>
      <trkpt lat="39.30811" lon="-8.627455">
        <ele>49.0</ele>
        <time>2019-05-17T10:11:27.167Z</time>
      </trkpt>
      <trkpt lat="39.30811" lon="-8.627455">
        <ele>49.0</ele>
        <time>2019-05-17T10:11:28.175Z</time>
      </trkpt>
      <trkpt lat="39.30814333" lon="-8.62744833">
        <ele>49.0</ele>
        <time>2019-05-17T10:11:29.151Z</time>
      </trkpt>
      <trkpt lat="39.30814333" lon="-8.62744833">
        <ele>49.0</ele>
        <time>2019-05-17T10:11:30.152Z</time>
      </trkpt>
      <trkpt lat="39.30817833" lon="-8.62744833">
        <ele>49.0</ele>
        <time>2019-05-17T10:11:31.161Z</time>
      </trkpt>
      <trkpt lat="39.30817833" lon="-8.62744833">
        <ele>49.0</ele>
        <time>2019-05-17T10:11:32.173Z</time>
      </trkpt>
      <trkpt lat="39.30822333" lon="-8.62745167">
        <ele>49.0</ele>
        <time>2019-05-17T10:11:33.188Z</time>
      </trkpt>
      <trkpt lat="39.308245" lon="-8.62744667">
        <ele>49.0</ele>
        <time>2019-05-17T10:11:34.150Z</time>
      </trkpt>
      <trkpt lat="39.30827167" lon="-8.62744167">
        <ele>49.0</ele>
        <time>2019-05-17T10:11:35.186Z</time>
      </trkpt>
      <trkpt lat="39.30827167" lon="-8.62744167">
        <ele>49.0</ele>
        <time>2019-05-17T10:11:36.154Z</time>
      </trkpt>
      <trkpt lat="39.30831833" lon="-8.62742833">
        <ele>49.0</ele>
        <time>2019-05-17T10:11:37.179Z</time>
      </trkpt>
      <trkpt lat="39.30831833" lon="-8.62742833">
        <ele>49.0</ele>
        <time>2019-05-17T10:11:38.161Z</time>
      </trkpt>
      <trkpt lat="39.30836833" lon="-8.62742833">
        <ele>50.0</ele>
        <time>2019-05-17T10:11:39.187Z</time>
      </trkpt>
      <trkpt lat="39.30839333" lon="-8.62742833">
        <ele>50.0</ele>
        <time>2019-05-17T10:11:40.151Z</time>
      </trkpt>
      <trkpt lat="39.30841833" lon="-8.62742833">
        <ele>50.0</ele>
        <time>2019-05-17T10:11:41.186Z</time>
      </trkpt>
      <trkpt lat="39.30841833" lon="-8.62742833">
        <ele>50.0</ele>
        <time>2019-05-17T10:11:42.153Z</time>
      </trkpt>
      <trkpt lat="39.30846333" lon="-8.627435">
        <ele>51.0</ele>
        <time>2019-05-17T10:11:43.162Z</time>
      </trkpt>
      <trkpt lat="39.30846333" lon="-8.627435">
        <ele>51.0</ele>
        <time>2019-05-17T10:11:44.173Z</time>
      </trkpt>
      <trkpt lat="39.30850667" lon="-8.62743333">
        <ele>51.0</ele>
        <time>2019-05-17T10:11:45.185Z</time>
      </trkpt>
      <trkpt lat="39.30850667" lon="-8.62743333">
        <ele>51.0</ele>
        <time>2019-05-17T10:11:46.158Z</time>
      </trkpt>
      <trkpt lat="39.30855667" lon="-8.627435">
        <ele>51.0</ele>
        <time>2019-05-17T10:11:47.180Z</time>
      </trkpt>
      <trkpt lat="39.30855667" lon="-8.627435">
        <ele>51.0</ele>
        <time>2019-05-17T10:11:48.151Z</time>
      </trkpt>
      <trkpt lat="39.30860667" lon="-8.62744167">
        <ele>51.0</ele>
        <time>2019-05-17T10:11:49.166Z</time>
      </trkpt>
      <trkpt lat="39.30860667" lon="-8.62744167">
        <ele>51.0</ele>
        <time>2019-05-17T10:11:50.181Z</time>
      </trkpt>
      <trkpt lat="39.30865333" lon="-8.62744">
        <ele>50.0</ele>
        <time>2019-05-17T10:11:51.159Z</time>
      </trkpt>
      <trkpt lat="39.30865333" lon="-8.62744">
        <ele>50.0</ele>
        <time>2019-05-17T10:11:52.165Z</time>
      </trkpt>
      <trkpt lat="39.30870833" lon="-8.62744333">
        <ele>50.0</ele>
        <time>2019-05-17T10:11:53.184Z</time>
      </trkpt>
      <trkpt lat="39.30870833" lon="-8.62744333">
        <ele>50.0</ele>
        <time>2019-05-17T10:11:54.154Z</time>
      </trkpt>
      <trkpt lat="39.308765" lon="-8.62745">
        <ele>50.0</ele>
        <time>2019-05-17T10:11:55.159Z</time>
      </trkpt>
      <trkpt lat="39.308765" lon="-8.62745">
        <ele>50.0</ele>
        <time>2019-05-17T10:11:56.164Z</time>
      </trkpt>
      <trkpt lat="39.30882167" lon="-8.62746">
        <ele>50.0</ele>
        <time>2019-05-17T10:11:57.182Z</time>
      </trkpt>
      <trkpt lat="39.30882167" lon="-8.62746">
        <ele>50.0</ele>
        <time>2019-05-17T10:11:58.152Z</time>
      </trkpt>
      <trkpt lat="39.30887" lon="-8.62745333">
        <ele>50.0</ele>
        <time>2019-05-17T10:11:59.162Z</time>
      </trkpt>
      <trkpt lat="39.30887" lon="-8.62745333">
        <ele>50.0</ele>
        <time>2019-05-17T10:12:00.179Z</time>
      </trkpt>
      <trkpt lat="39.308905" lon="-8.62742333">
        <ele>50.0</ele>
        <time>2019-05-17T10:12:01.169Z</time>
      </trkpt>
      <trkpt lat="39.308905" lon="-8.62742333">
        <ele>50.0</ele>
        <time>2019-05-17T10:12:02.186Z</time>
      </trkpt>
      <trkpt lat="39.30892833" lon="-8.62736333">
        <ele>50.0</ele>
        <time>2019-05-17T10:12:03.167Z</time>
      </trkpt>
      <trkpt lat="39.30892833" lon="-8.62736333">
        <ele>50.0</ele>
        <time>2019-05-17T10:12:04.177Z</time>
      </trkpt>
      <trkpt lat="39.30894833" lon="-8.6273">
        <ele>51.0</ele>
        <time>2019-05-17T10:12:05.162Z</time>
      </trkpt>
      <trkpt lat="39.30894833" lon="-8.6273">
        <ele>51.0</ele>
        <time>2019-05-17T10:12:06.175Z</time>
      </trkpt>
      <trkpt lat="39.30896" lon="-8.62722667">
        <ele>50.0</ele>
        <time>2019-05-17T10:12:07.187Z</time>
      </trkpt>
      <trkpt lat="39.30896" lon="-8.62722667">
        <ele>50.0</ele>
        <time>2019-05-17T10:12:08.165Z</time>
      </trkpt>
      <trkpt lat="39.30898" lon="-8.62715667">
        <ele>50.0</ele>
        <time>2019-05-17T10:12:09.155Z</time>
      </trkpt>
      <trkpt lat="39.30898" lon="-8.62715667">
        <ele>50.0</ele>
        <time>2019-05-17T10:12:10.188Z</time>
      </trkpt>
      <trkpt lat="39.30898833" lon="-8.62709">
        <ele>50.0</ele>
        <time>2019-05-17T10:12:11.167Z</time>
      </trkpt>
      <trkpt lat="39.30898833" lon="-8.62709">
        <ele>50.0</ele>
        <time>2019-05-17T10:12:12.152Z</time>
      </trkpt>
      <trkpt lat="39.309005" lon="-8.62702333">
        <ele>50.0</ele>
        <time>2019-05-17T10:12:13.171Z</time>
      </trkpt>
      <trkpt lat="39.309005" lon="-8.62702333">
        <ele>50.0</ele>
        <time>2019-05-17T10:12:14.187Z</time>
      </trkpt>
      <trkpt lat="39.30902333" lon="-8.62695833">
        <ele>50.0</ele>
        <time>2019-05-17T10:12:15.172Z</time>
      </trkpt>
      <trkpt lat="39.30903333" lon="-8.626925">
        <ele>50.0</ele>
        <time>2019-05-17T10:12:16.185Z</time>
      </trkpt>
      <trkpt lat="39.30904333" lon="-8.62689">
        <ele>50.0</ele>
        <time>2019-05-17T10:12:17.177Z</time>
      </trkpt>
      <trkpt lat="39.30904333" lon="-8.62689">
        <ele>50.0</ele>
        <time>2019-05-17T10:12:18.184Z</time>
      </trkpt>
      <trkpt lat="39.30905833" lon="-8.62681833">
        <ele>50.0</ele>
        <time>2019-05-17T10:12:19.158Z</time>
      </trkpt>
      <trkpt lat="39.30905833" lon="-8.62681833">
        <ele>50.0</ele>
        <time>2019-05-17T10:12:20.180Z</time>
      </trkpt>
      <trkpt lat="39.30907" lon="-8.62674">
        <ele>50.0</ele>
        <time>2019-05-17T10:12:21.156Z</time>
      </trkpt>
      <trkpt lat="39.30907667" lon="-8.62670167">
        <ele>50.0</ele>
        <time>2019-05-17T10:12:22.187Z</time>
      </trkpt>
      <trkpt lat="39.30908667" lon="-8.62666833">
        <ele>50.0</ele>
        <time>2019-05-17T10:12:23.171Z</time>
      </trkpt>
      <trkpt lat="39.30908667" lon="-8.62666833">
        <ele>50.0</ele>
        <time>2019-05-17T10:12:24.178Z</time>
      </trkpt>
      <trkpt lat="39.3091" lon="-8.62660333">
        <ele>50.0</ele>
        <time>2019-05-17T10:12:25.189Z</time>
      </trkpt>
      <trkpt lat="39.3091" lon="-8.62660333">
        <ele>50.0</ele>
        <time>2019-05-17T10:12:26.174Z</time>
      </trkpt>
      <trkpt lat="39.30910333" lon="-8.62654667">
        <ele>50.0</ele>
        <time>2019-05-17T10:12:27.163Z</time>
      </trkpt>
      <trkpt lat="39.30910333" lon="-8.62652167">
        <ele>50.0</ele>
        <time>2019-05-17T10:12:28.180Z</time>
      </trkpt>
      <trkpt lat="39.30910667" lon="-8.626495">
        <ele>50.0</ele>
        <time>2019-05-17T10:12:29.183Z</time>
      </trkpt>
      <trkpt lat="39.30910667" lon="-8.626495">
        <ele>50.0</ele>
        <time>2019-05-17T10:12:30.152Z</time>
      </trkpt>
      <trkpt lat="39.30911167" lon="-8.62644">
        <ele>50.0</ele>
        <time>2019-05-17T10:12:31.178Z</time>
      </trkpt>
      <trkpt lat="39.30911167" lon="-8.62644">
        <ele>50.0</ele>
        <time>2019-05-17T10:12:32.170Z</time>
      </trkpt>
      <trkpt lat="39.30912" lon="-8.626385">
        <ele>49.0</ele>
        <time>2019-05-17T10:12:33.160Z</time>
      </trkpt>
      <trkpt lat="39.30912" lon="-8.626385">
        <ele>49.0</ele>
        <time>2019-05-17T10:12:34.186Z</time>
      </trkpt>
      <trkpt lat="39.309125" lon="-8.62633">
        <ele>49.0</ele>
        <time>2019-05-17T10:12:35.156Z</time>
      </trkpt>
      <trkpt lat="39.309125" lon="-8.62633">
        <ele>49.0</ele>
        <time>2019-05-17T10:12:36.165Z</time>
      </trkpt>
      <trkpt lat="39.30912833" lon="-8.62627667">
        <ele>49.0</ele>
        <time>2019-05-17T10:12:37.185Z</time>
      </trkpt>
      <trkpt lat="39.30913333" lon="-8.62624833">
        <ele>49.0</ele>
        <time>2019-05-17T10:12:38.166Z</time>
      </trkpt>
      <trkpt lat="39.30913333" lon="-8.62624833">
        <ele>49.0</ele>
        <time>2019-05-17T10:12:39.151Z</time>
      </trkpt>
      <trkpt lat="39.30914833" lon="-8.626195">
        <ele>50.0</ele>
        <time>2019-05-17T10:12:40.166Z</time>
      </trkpt>
      <trkpt lat="39.30914667" lon="-8.62616667">
        <ele>50.0</ele>
        <time>2019-05-17T10:12:41.181Z</time>
      </trkpt>
      <trkpt lat="39.30914667" lon="-8.62616667">
        <ele>50.0</ele>
        <time>2019-05-17T10:12:42.153Z</time>
      </trkpt>
      <trkpt lat="39.30915167" lon="-8.626115">
        <ele>50.0</ele>
        <time>2019-05-17T10:12:43.168Z</time>
      </trkpt>
      <trkpt lat="39.30915167" lon="-8.626115">
        <ele>50.0</ele>
        <time>2019-05-17T10:12:44.185Z</time>
      </trkpt>
      <trkpt lat="39.30916167" lon="-8.62606833">
        <ele>50.0</ele>
        <time>2019-05-17T10:12:45.163Z</time>
      </trkpt>
      <trkpt lat="39.30916167" lon="-8.62606833">
        <ele>50.0</ele>
        <time>2019-05-17T10:12:46.178Z</time>
      </trkpt>
      <trkpt lat="39.30916667" lon="-8.62601667">
        <ele>50.0</ele>
        <time>2019-05-17T10:12:47.159Z</time>
      </trkpt>
      <trkpt lat="39.30916667" lon="-8.62601667">
        <ele>50.0</ele>
        <time>2019-05-17T10:12:48.179Z</time>
      </trkpt>
      <trkpt lat="39.309175" lon="-8.62595667">
        <ele>50.0</ele>
        <time>2019-05-17T10:12:49.153Z</time>
      </trkpt>
      <trkpt lat="39.309175" lon="-8.62595667">
        <ele>50.0</ele>
        <time>2019-05-17T10:12:50.180Z</time>
      </trkpt>
      <trkpt lat="39.30918833" lon="-8.62589667">
        <ele>50.0</ele>
        <time>2019-05-17T10:12:51.154Z</time>
      </trkpt>
      <trkpt lat="39.30918833" lon="-8.62589667">
        <ele>50.0</ele>
        <time>2019-05-17T10:12:52.168Z</time>
      </trkpt>
      <trkpt lat="39.3092" lon="-8.62582833">
        <ele>50.0</ele>
        <time>2019-05-17T10:12:53.186Z</time>
      </trkpt>
      <trkpt lat="39.3092" lon="-8.62582833">
        <ele>50.0</ele>
        <time>2019-05-17T10:12:54.156Z</time>
      </trkpt>
      <trkpt lat="39.30920833" lon="-8.62575">
        <ele>49.0</ele>
        <time>2019-05-17T10:12:55.176Z</time>
      </trkpt>
      <trkpt lat="39.30920833" lon="-8.62575">
        <ele>49.0</ele>
        <time>2019-05-17T10:12:56.156Z</time>
      </trkpt>
      <trkpt lat="39.30921" lon="-8.625665">
        <ele>49.0</ele>
        <time>2019-05-17T10:12:57.180Z</time>
      </trkpt>
      <trkpt lat="39.30921" lon="-8.625665">
        <ele>49.0</ele>
        <time>2019-05-17T10:12:58.189Z</time>
      </trkpt>
      <trkpt lat="39.30921167" lon="-8.62557667">
        <ele>48.0</ele>
        <time>2019-05-17T10:12:59.166Z</time>
      </trkpt>
      <trkpt lat="39.30921167" lon="-8.62557667">
        <ele>48.0</ele>
        <time>2019-05-17T10:13:00.186Z</time>
      </trkpt>
      <trkpt lat="39.30920833" lon="-8.62549333">
        <ele>49.0</ele>
        <time>2019-05-17T10:13:01.160Z</time>
      </trkpt>
      <trkpt lat="39.30920833" lon="-8.62549333">
        <ele>49.0</ele>
        <time>2019-05-17T10:13:02.184Z</time>
      </trkpt>
      <trkpt lat="39.30920667" lon="-8.62540667">
        <ele>48.0</ele>
        <time>2019-05-17T10:13:03.177Z</time>
      </trkpt>
      <trkpt lat="39.30920667" lon="-8.62540667">
        <ele>48.0</ele>
        <time>2019-05-17T10:13:04.153Z</time>
      </trkpt>
      <trkpt lat="39.30919667" lon="-8.62531833">
        <ele>48.0</ele>
        <time>2019-05-17T10:13:05.181Z</time>
      </trkpt>
      <trkpt lat="39.30919667" lon="-8.62531833">
        <ele>48.0</ele>
        <time>2019-05-17T10:13:06.180Z</time>
      </trkpt>
      <trkpt lat="39.30919" lon="-8.625225">
        <ele>48.0</ele>
        <time>2019-05-17T10:13:07.162Z</time>
      </trkpt>
      <trkpt lat="39.30919" lon="-8.625225">
        <ele>48.0</ele>
        <time>2019-05-17T10:13:08.185Z</time>
      </trkpt>
      <trkpt lat="39.30918667" lon="-8.62513667">
        <ele>47.0</ele>
        <time>2019-05-17T10:13:09.179Z</time>
      </trkpt>
      <trkpt lat="39.30918833" lon="-8.62509167">
        <ele>47.0</ele>
        <time>2019-05-17T10:13:10.150Z</time>
      </trkpt>
      <trkpt lat="39.30919167" lon="-8.62504833">
        <ele>47.0</ele>
        <time>2019-05-17T10:13:11.185Z</time>
      </trkpt>
      <trkpt lat="39.30919167" lon="-8.62504833">
        <ele>47.0</ele>
        <time>2019-05-17T10:13:12.157Z</time>
      </trkpt>
      <trkpt lat="39.30919333" lon="-8.62496167">
        <ele>47.0</ele>
        <time>2019-05-17T10:13:13.177Z</time>
      </trkpt>
      <trkpt lat="39.30919333" lon="-8.62496167">
        <ele>47.0</ele>
        <time>2019-05-17T10:13:14.170Z</time>
      </trkpt>
      <trkpt lat="39.30919667" lon="-8.62487167">
        <ele>47.0</ele>
        <time>2019-05-17T10:13:15.180Z</time>
      </trkpt>
      <trkpt lat="39.30919667" lon="-8.62487167">
        <ele>47.0</ele>
        <time>2019-05-17T10:13:16.152Z</time>
      </trkpt>
      <trkpt lat="39.30919333" lon="-8.62477333">
        <ele>46.0</ele>
        <time>2019-05-17T10:13:17.165Z</time>
      </trkpt>
      <trkpt lat="39.30919333" lon="-8.62477333">
        <ele>46.0</ele>
        <time>2019-05-17T10:13:18.185Z</time>
      </trkpt>
      <trkpt lat="39.30917833" lon="-8.62467167">
        <ele>46.0</ele>
        <time>2019-05-17T10:13:19.163Z</time>
      </trkpt>
      <trkpt lat="39.30917833" lon="-8.62467167">
        <ele>46.0</ele>
        <time>2019-05-17T10:13:20.174Z</time>
      </trkpt>
      <trkpt lat="39.30917333" lon="-8.62455">
        <ele>45.0</ele>
        <time>2019-05-17T10:13:21.189Z</time>
      </trkpt>
      <trkpt lat="39.30917333" lon="-8.62455">
        <ele>45.0</ele>
        <time>2019-05-17T10:13:22.166Z</time>
      </trkpt>
      <trkpt lat="39.30917333" lon="-8.62443833">
        <ele>45.0</ele>
        <time>2019-05-17T10:13:23.187Z</time>
      </trkpt>
      <trkpt lat="39.30917333" lon="-8.62443833">
        <ele>45.0</ele>
        <time>2019-05-17T10:13:24.152Z</time>
      </trkpt>
      <trkpt lat="39.30916833" lon="-8.62433667">
        <ele>44.0</ele>
        <time>2019-05-17T10:13:25.172Z</time>
      </trkpt>
      <trkpt lat="39.30916833" lon="-8.62433667">
        <ele>44.0</ele>
        <time>2019-05-17T10:13:26.182Z</time>
      </trkpt>
      <trkpt lat="39.309165" lon="-8.62422167">
        <ele>44.0</ele>
        <time>2019-05-17T10:13:27.150Z</time>
      </trkpt>
      <trkpt lat="39.30916333" lon="-8.62416667">
        <ele>43.0</ele>
        <time>2019-05-17T10:13:28.182Z</time>
      </trkpt>
      <trkpt lat="39.30916167" lon="-8.62411667">
        <ele>43.0</ele>
        <time>2019-05-17T10:13:29.160Z</time>
      </trkpt>
      <trkpt lat="39.30916167" lon="-8.62411667">
        <ele>43.0</ele>
        <time>2019-05-17T10:13:30.168Z</time>
      </trkpt>
      <trkpt lat="39.30916333" lon="-8.62401667">
        <ele>42.0</ele>
        <time>2019-05-17T10:13:31.187Z</time>
      </trkpt>
      <trkpt lat="39.30916333" lon="-8.62401667">
        <ele>42.0</ele>
        <time>2019-05-17T10:13:32.171Z</time>
      </trkpt>
      <trkpt lat="39.309165" lon="-8.62390833">
        <ele>41.0</ele>
        <time>2019-05-17T10:13:33.182Z</time>
      </trkpt>
      <trkpt lat="39.309165" lon="-8.62390833">
        <ele>41.0</ele>
        <time>2019-05-17T10:13:34.186Z</time>
      </trkpt>
      <trkpt lat="39.309165" lon="-8.62380667">
        <ele>39.0</ele>
        <time>2019-05-17T10:13:35.162Z</time>
      </trkpt>
      <trkpt lat="39.309165" lon="-8.62380667">
        <ele>39.0</ele>
        <time>2019-05-17T10:13:36.176Z</time>
      </trkpt>
      <trkpt lat="39.30916167" lon="-8.62370333">
        <ele>38.0</ele>
        <time>2019-05-17T10:13:37.157Z</time>
      </trkpt>
      <trkpt lat="39.30915833" lon="-8.62364667">
        <ele>38.0</ele>
        <time>2019-05-17T10:13:38.155Z</time>
      </trkpt>
      <trkpt lat="39.30915833" lon="-8.62364667">
        <ele>38.0</ele>
        <time>2019-05-17T10:13:39.174Z</time>
      </trkpt>
      <trkpt lat="39.30915333" lon="-8.62353167">
        <ele>37.0</ele>
        <time>2019-05-17T10:13:40.188Z</time>
      </trkpt>
      <trkpt lat="39.30915333" lon="-8.62353167">
        <ele>37.0</ele>
        <time>2019-05-17T10:13:41.154Z</time>
      </trkpt>
      <trkpt lat="39.309145" lon="-8.623415">
        <ele>36.0</ele>
        <time>2019-05-17T10:13:42.150Z</time>
      </trkpt>
      <trkpt lat="39.309145" lon="-8.623415">
        <ele>36.0</ele>
        <time>2019-05-17T10:13:43.171Z</time>
      </trkpt>
      <trkpt lat="39.30914333" lon="-8.623285">
        <ele>36.0</ele>
        <time>2019-05-17T10:13:44.191Z</time>
      </trkpt>
      <trkpt lat="39.30914333" lon="-8.623285">
        <ele>36.0</ele>
        <time>2019-05-17T10:13:45.177Z</time>
      </trkpt>
      <trkpt lat="39.309135" lon="-8.62315">
        <ele>36.0</ele>
        <time>2019-05-17T10:13:46.189Z</time>
      </trkpt>
      <trkpt lat="39.30913333" lon="-8.623085">
        <ele>36.0</ele>
        <time>2019-05-17T10:13:47.184Z</time>
      </trkpt>
      <trkpt lat="39.30913167" lon="-8.62302">
        <ele>36.0</ele>
        <time>2019-05-17T10:13:48.159Z</time>
      </trkpt>
      <trkpt lat="39.30913167" lon="-8.62302">
        <ele>36.0</ele>
        <time>2019-05-17T10:13:49.174Z</time>
      </trkpt>
      <trkpt lat="39.30912333" lon="-8.6229">
        <ele>36.0</ele>
        <time>2019-05-17T10:13:50.187Z</time>
      </trkpt>
      <trkpt lat="39.30912333" lon="-8.6229">
        <ele>36.0</ele>
        <time>2019-05-17T10:13:51.152Z</time>
      </trkpt>
      <trkpt lat="39.30911333" lon="-8.622785">
        <ele>36.0</ele>
        <time>2019-05-17T10:13:52.164Z</time>
      </trkpt>
      <trkpt lat="39.30911" lon="-8.62273667">
        <ele>36.0</ele>
        <time>2019-05-17T10:13:53.177Z</time>
      </trkpt>
      <trkpt lat="39.30911" lon="-8.62273667">
        <ele>36.0</ele>
        <time>2019-05-17T10:13:54.186Z</time>
      </trkpt>
      <trkpt lat="39.30910167" lon="-8.62263833">
        <ele>36.0</ele>
        <time>2019-05-17T10:13:55.161Z</time>
      </trkpt>
      <trkpt lat="39.30910167" lon="-8.62263833">
        <ele>36.0</ele>
        <time>2019-05-17T10:13:56.174Z</time>
      </trkpt>
      <trkpt lat="39.309095" lon="-8.62254833">
        <ele>37.0</ele>
        <time>2019-05-17T10:13:57.173Z</time>
      </trkpt>
      <trkpt lat="39.30909" lon="-8.62250667">
        <ele>37.0</ele>
        <time>2019-05-17T10:13:58.156Z</time>
      </trkpt>
      <trkpt lat="39.309085" lon="-8.62246333">
        <ele>38.0</ele>
        <time>2019-05-17T10:13:59.160Z</time>
      </trkpt>
      <trkpt lat="39.309085" lon="-8.62246333">
        <ele>38.0</ele>
        <time>2019-05-17T10:14:00.185Z</time>
      </trkpt>
      <trkpt lat="39.309085" lon="-8.62238167">
        <ele>38.0</ele>
        <time>2019-05-17T10:14:01.160Z</time>
      </trkpt>
      <trkpt lat="39.309085" lon="-8.62238167">
        <ele>38.0</ele>
        <time>2019-05-17T10:14:02.183Z</time>
      </trkpt>
      <trkpt lat="39.30908833" lon="-8.62229333">
        <ele>38.0</ele>
        <time>2019-05-17T10:14:03.158Z</time>
      </trkpt>
      <trkpt lat="39.30908833" lon="-8.62229333">
        <ele>38.0</ele>
        <time>2019-05-17T10:14:04.166Z</time>
      </trkpt>
      <trkpt lat="39.30908167" lon="-8.62221167">
        <ele>38.0</ele>
        <time>2019-05-17T10:14:05.183Z</time>
      </trkpt>
      <trkpt lat="39.30908167" lon="-8.62221167">
        <ele>38.0</ele>
        <time>2019-05-17T10:14:06.153Z</time>
      </trkpt>
      <trkpt lat="39.30908667" lon="-8.62214167">
        <ele>39.0</ele>
        <time>2019-05-17T10:14:07.165Z</time>
      </trkpt>
      <trkpt lat="39.30908667" lon="-8.62214167">
        <ele>39.0</ele>
        <time>2019-05-17T10:14:08.156Z</time>
      </trkpt>
      <trkpt lat="39.30909667" lon="-8.62207333">
        <ele>39.0</ele>
        <time>2019-05-17T10:14:09.155Z</time>
      </trkpt>
      <trkpt lat="39.30909667" lon="-8.62207333">
        <ele>39.0</ele>
        <time>2019-05-17T10:14:10.157Z</time>
      </trkpt>
      <trkpt lat="39.309105" lon="-8.62201">
        <ele>39.0</ele>
        <time>2019-05-17T10:14:11.176Z</time>
      </trkpt>
      <trkpt lat="39.309105" lon="-8.62201">
        <ele>39.0</ele>
        <time>2019-05-17T10:14:12.184Z</time>
      </trkpt>
      <trkpt lat="39.30911167" lon="-8.62193833">
        <ele>40.0</ele>
        <time>2019-05-17T10:14:13.154Z</time>
      </trkpt>
      <trkpt lat="39.30911167" lon="-8.62190833">
        <ele>40.0</ele>
        <time>2019-05-17T10:14:14.180Z</time>
      </trkpt>
      <trkpt lat="39.30911167" lon="-8.62190833">
        <ele>40.0</ele>
        <time>2019-05-17T10:14:15.187Z</time>
      </trkpt>
      <trkpt lat="39.309115" lon="-8.62184833">
        <ele>40.0</ele>
        <time>2019-05-17T10:14:16.161Z</time>
      </trkpt>
      <trkpt lat="39.30912" lon="-8.62181333">
        <ele>40.0</ele>
        <time>2019-05-17T10:14:17.179Z</time>
      </trkpt>
      <trkpt lat="39.30912" lon="-8.62181333">
        <ele>40.0</ele>
        <time>2019-05-17T10:14:18.152Z</time>
      </trkpt>
      <trkpt lat="39.30913" lon="-8.62174667">
        <ele>40.0</ele>
        <time>2019-05-17T10:14:19.165Z</time>
      </trkpt>
      <trkpt lat="39.30913" lon="-8.62174667">
        <ele>40.0</ele>
        <time>2019-05-17T10:14:20.173Z</time>
      </trkpt>
      <trkpt lat="39.30913" lon="-8.621685">
        <ele>40.0</ele>
        <time>2019-05-17T10:14:21.192Z</time>
      </trkpt>
      <trkpt lat="39.30913" lon="-8.621685">
        <ele>40.0</ele>
        <time>2019-05-17T10:14:22.165Z</time>
      </trkpt>
      <trkpt lat="39.30913667" lon="-8.62162">
        <ele>40.0</ele>
        <time>2019-05-17T10:14:23.188Z</time>
      </trkpt>
      <trkpt lat="39.30913667" lon="-8.62162">
        <ele>40.0</ele>
        <time>2019-05-17T10:14:24.186Z</time>
      </trkpt>
      <trkpt lat="39.30913667" lon="-8.621565">
        <ele>41.0</ele>
        <time>2019-05-17T10:14:25.155Z</time>
      </trkpt>
      <trkpt lat="39.30913667" lon="-8.621565">
        <ele>41.0</ele>
        <time>2019-05-17T10:14:26.169Z</time>
      </trkpt>
      <trkpt lat="39.30914" lon="-8.62151">
        <ele>41.0</ele>
        <time>2019-05-17T10:14:27.183Z</time>
      </trkpt>
      <trkpt lat="39.30914333" lon="-8.621485">
        <ele>42.0</ele>
        <time>2019-05-17T10:14:28.160Z</time>
      </trkpt>
      <trkpt lat="39.30915" lon="-8.62145667">
        <ele>42.0</ele>
        <time>2019-05-17T10:14:29.156Z</time>
      </trkpt>
      <trkpt lat="39.30915" lon="-8.62145667">
        <ele>42.0</ele>
        <time>2019-05-17T10:14:30.166Z</time>
      </trkpt>
      <trkpt lat="39.30916333" lon="-8.62138833">
        <ele>42.0</ele>
        <time>2019-05-17T10:14:31.182Z</time>
      </trkpt>
      <trkpt lat="39.30916333" lon="-8.62138833">
        <ele>42.0</ele>
        <time>2019-05-17T10:14:32.154Z</time>
      </trkpt>
      <trkpt lat="39.30917167" lon="-8.62132333">
        <ele>43.0</ele>
        <time>2019-05-17T10:14:33.177Z</time>
      </trkpt>
      <trkpt lat="39.309175" lon="-8.62129">
        <ele>43.0</ele>
        <time>2019-05-17T10:14:34.190Z</time>
      </trkpt>
      <trkpt lat="39.309175" lon="-8.62129">
        <ele>43.0</ele>
        <time>2019-05-17T10:14:35.161Z</time>
      </trkpt>
      <trkpt lat="39.309195" lon="-8.62120333">
        <ele>44.0</ele>
        <time>2019-05-17T10:14:36.175Z</time>
      </trkpt>
      <trkpt lat="39.309195" lon="-8.62120333">
        <ele>44.0</ele>
        <time>2019-05-17T10:14:37.159Z</time>
      </trkpt>
      <trkpt lat="39.30921167" lon="-8.62113333">
        <ele>44.0</ele>
        <time>2019-05-17T10:14:38.178Z</time>
      </trkpt>
      <trkpt lat="39.30921167" lon="-8.62113333">
        <ele>44.0</ele>
        <time>2019-05-17T10:14:39.164Z</time>
      </trkpt>
      <trkpt lat="39.30922333" lon="-8.62107">
        <ele>44.0</ele>
        <time>2019-05-17T10:14:40.185Z</time>
      </trkpt>
      <trkpt lat="39.30922333" lon="-8.62107">
        <ele>44.0</ele>
        <time>2019-05-17T10:14:41.154Z</time>
      </trkpt>
      <trkpt lat="39.30923833" lon="-8.62100667">
        <ele>44.0</ele>
        <time>2019-05-17T10:14:42.174Z</time>
      </trkpt>
      <trkpt lat="39.30924667" lon="-8.620975">
        <ele>45.0</ele>
        <time>2019-05-17T10:14:43.194Z</time>
      </trkpt>
      <trkpt lat="39.30924667" lon="-8.620975">
        <ele>45.0</ele>
        <time>2019-05-17T10:14:44.182Z</time>
      </trkpt>
      <trkpt lat="39.30925833" lon="-8.62092167">
        <ele>45.0</ele>
        <time>2019-05-17T10:14:45.152Z</time>
      </trkpt>
      <trkpt lat="39.30926333" lon="-8.62089667">
        <ele>45.0</ele>
        <time>2019-05-17T10:14:46.171Z</time>
      </trkpt>
      <trkpt lat="39.30926333" lon="-8.62089667">
        <ele>45.0</ele>
        <time>2019-05-17T10:14:47.178Z</time>
      </trkpt>
      <trkpt lat="39.30927667" lon="-8.62083667">
        <ele>45.0</ele>
        <time>2019-05-17T10:14:48.152Z</time>
      </trkpt>
      <trkpt lat="39.309285" lon="-8.62080667">
        <ele>45.0</ele>
        <time>2019-05-17T10:14:49.188Z</time>
      </trkpt>
      <trkpt lat="39.309285" lon="-8.62080667">
        <ele>45.0</ele>
        <time>2019-05-17T10:14:50.159Z</time>
      </trkpt>
      <trkpt lat="39.30929667" lon="-8.62075333">
        <ele>44.0</ele>
        <time>2019-05-17T10:14:51.174Z</time>
      </trkpt>
      <trkpt lat="39.30929667" lon="-8.62075333">
        <ele>44.0</ele>
        <time>2019-05-17T10:14:52.188Z</time>
      </trkpt>
      <trkpt lat="39.30931" lon="-8.62069333">
        <ele>44.0</ele>
        <time>2019-05-17T10:14:53.182Z</time>
      </trkpt>
      <trkpt lat="39.30931" lon="-8.62069333">
        <ele>44.0</ele>
        <time>2019-05-17T10:14:54.156Z</time>
      </trkpt>
      <trkpt lat="39.30931833" lon="-8.62063167">
        <ele>44.0</ele>
        <time>2019-05-17T10:14:55.175Z</time>
      </trkpt>
      <trkpt lat="39.30931833" lon="-8.62063167">
        <ele>44.0</ele>
        <time>2019-05-17T10:14:56.180Z</time>
      </trkpt>
      <trkpt lat="39.30932833" lon="-8.62057667">
        <ele>44.0</ele>
        <time>2019-05-17T10:14:57.157Z</time>
      </trkpt>
      <trkpt lat="39.30932833" lon="-8.62057667">
        <ele>44.0</ele>
        <time>2019-05-17T10:14:58.171Z</time>
      </trkpt>
      <trkpt lat="39.30934" lon="-8.62052333">
        <ele>45.0</ele>
        <time>2019-05-17T10:14:59.151Z</time>
      </trkpt>
      <trkpt lat="39.30934" lon="-8.62052333">
        <ele>45.0</ele>
        <time>2019-05-17T10:15:00.168Z</time>
      </trkpt>
      <trkpt lat="39.30935167" lon="-8.62047333">
        <ele>45.0</ele>
        <time>2019-05-17T10:15:01.199Z</time>
      </trkpt>
      <trkpt lat="39.30935167" lon="-8.62047333">
        <ele>45.0</ele>
        <time>2019-05-17T10:15:02.152Z</time>
      </trkpt>
      <trkpt lat="39.30936333" lon="-8.62042667">
        <ele>45.0</ele>
        <time>2019-05-17T10:15:03.164Z</time>
      </trkpt>
      <trkpt lat="39.30936333" lon="-8.62042667">
        <ele>45.0</ele>
        <time>2019-05-17T10:15:04.174Z</time>
      </trkpt>
      <trkpt lat="39.30937167" lon="-8.620385">
        <ele>45.0</ele>
        <time>2019-05-17T10:15:05.171Z</time>
      </trkpt>
      <trkpt lat="39.30937167" lon="-8.620385">
        <ele>45.0</ele>
        <time>2019-05-17T10:15:06.156Z</time>
      </trkpt>
      <trkpt lat="39.309385" lon="-8.62033333">
        <ele>45.0</ele>
        <time>2019-05-17T10:15:07.174Z</time>
      </trkpt>
      <trkpt lat="39.309385" lon="-8.62033333">
        <ele>45.0</ele>
        <time>2019-05-17T10:15:08.167Z</time>
      </trkpt>
      <trkpt lat="39.30939167" lon="-8.62028167">
        <ele>45.0</ele>
        <time>2019-05-17T10:15:09.153Z</time>
      </trkpt>
      <trkpt lat="39.30939667" lon="-8.62025833">
        <ele>45.0</ele>
        <time>2019-05-17T10:15:10.168Z</time>
      </trkpt>
      <trkpt lat="39.3094" lon="-8.62023333">
        <ele>45.0</ele>
        <time>2019-05-17T10:15:11.180Z</time>
      </trkpt>
      <trkpt lat="39.3094" lon="-8.62023333">
        <ele>45.0</ele>
        <time>2019-05-17T10:15:12.153Z</time>
      </trkpt>
      <trkpt lat="39.30941167" lon="-8.62018">
        <ele>45.0</ele>
        <time>2019-05-17T10:15:13.188Z</time>
      </trkpt>
      <trkpt lat="39.30941833" lon="-8.62015167">
        <ele>45.0</ele>
        <time>2019-05-17T10:15:14.169Z</time>
      </trkpt>
      <trkpt lat="39.30941833" lon="-8.62015167">
        <ele>45.0</ele>
        <time>2019-05-17T10:15:15.167Z</time>
      </trkpt>
      <trkpt lat="39.30942667" lon="-8.62009833">
        <ele>44.0</ele>
        <time>2019-05-17T10:15:16.186Z</time>
      </trkpt>
      <trkpt lat="39.30942667" lon="-8.62009833">
        <ele>44.0</ele>
        <time>2019-05-17T10:15:17.159Z</time>
      </trkpt>
      <trkpt lat="39.30943667" lon="-8.62004667">
        <ele>44.0</ele>
        <time>2019-05-17T10:15:18.180Z</time>
      </trkpt>
      <trkpt lat="39.30944333" lon="-8.62001833">
        <ele>44.0</ele>
        <time>2019-05-17T10:15:19.177Z</time>
      </trkpt>
      <trkpt lat="39.30944333" lon="-8.62001833">
        <ele>44.0</ele>
        <time>2019-05-17T10:15:20.167Z</time>
      </trkpt>
      <trkpt lat="39.30945667" lon="-8.61996667">
        <ele>44.0</ele>
        <time>2019-05-17T10:15:21.185Z</time>
      </trkpt>
      <trkpt lat="39.30945667" lon="-8.61996667">
        <ele>44.0</ele>
        <time>2019-05-17T10:15:22.154Z</time>
      </trkpt>
      <trkpt lat="39.309465" lon="-8.61992">
        <ele>44.0</ele>
        <time>2019-05-17T10:15:23.172Z</time>
      </trkpt>
      <trkpt lat="39.309465" lon="-8.61992">
        <ele>44.0</ele>
        <time>2019-05-17T10:15:24.151Z</time>
      </trkpt>
      <trkpt lat="39.30947167" lon="-8.61987333">
        <ele>44.0</ele>
        <time>2019-05-17T10:15:25.187Z</time>
      </trkpt>
      <trkpt lat="39.30947167" lon="-8.61987333">
        <ele>44.0</ele>
        <time>2019-05-17T10:15:26.182Z</time>
      </trkpt>
      <trkpt lat="39.30948333" lon="-8.61982667">
        <ele>44.0</ele>
        <time>2019-05-17T10:15:27.160Z</time>
      </trkpt>
      <trkpt lat="39.30948833" lon="-8.61980333">
        <ele>44.0</ele>
        <time>2019-05-17T10:15:28.152Z</time>
      </trkpt>
      <trkpt lat="39.30948833" lon="-8.61980333">
        <ele>44.0</ele>
        <time>2019-05-17T10:15:29.177Z</time>
      </trkpt>
      <trkpt lat="39.3095" lon="-8.619755">
        <ele>44.0</ele>
        <time>2019-05-17T10:15:30.162Z</time>
      </trkpt>
      <trkpt lat="39.3095" lon="-8.619755">
        <ele>44.0</ele>
        <time>2019-05-17T10:15:31.171Z</time>
      </trkpt>
      <trkpt lat="39.309515" lon="-8.61970667">
        <ele>44.0</ele>
        <time>2019-05-17T10:15:32.185Z</time>
      </trkpt>
      <trkpt lat="39.30952167" lon="-8.619685">
        <ele>44.0</ele>
        <time>2019-05-17T10:15:33.163Z</time>
      </trkpt>
      <trkpt lat="39.30952333" lon="-8.61966333">
        <ele>44.0</ele>
        <time>2019-05-17T10:15:34.161Z</time>
      </trkpt>
      <trkpt lat="39.30952333" lon="-8.61966333">
        <ele>44.0</ele>
        <time>2019-05-17T10:15:35.170Z</time>
      </trkpt>
      <trkpt lat="39.30953833" lon="-8.61962667">
        <ele>44.0</ele>
        <time>2019-05-17T10:15:36.182Z</time>
      </trkpt>
      <trkpt lat="39.30953833" lon="-8.61962667">
        <ele>44.0</ele>
        <time>2019-05-17T10:15:37.156Z</time>
      </trkpt>
      <trkpt lat="39.30955833" lon="-8.619585">
        <ele>44.0</ele>
        <time>2019-05-17T10:15:38.178Z</time>
      </trkpt>
      <trkpt lat="39.30957" lon="-8.61956667">
        <ele>45.0</ele>
        <time>2019-05-17T10:15:39.168Z</time>
      </trkpt>
      <trkpt lat="39.30957" lon="-8.61956667">
        <ele>45.0</ele>
        <time>2019-05-17T10:15:40.178Z</time>
      </trkpt>
      <trkpt lat="39.30959333" lon="-8.619525">
        <ele>46.0</ele>
        <time>2019-05-17T10:15:41.158Z</time>
      </trkpt>
      <trkpt lat="39.30959333" lon="-8.619525">
        <ele>46.0</ele>
        <time>2019-05-17T10:15:42.168Z</time>
      </trkpt>
      <trkpt lat="39.309605" lon="-8.619485">
        <ele>46.0</ele>
        <time>2019-05-17T10:15:43.188Z</time>
      </trkpt>
      <trkpt lat="39.309605" lon="-8.619485">
        <ele>46.0</ele>
        <time>2019-05-17T10:15:44.156Z</time>
      </trkpt>
      <trkpt lat="39.30961833" lon="-8.61944167">
        <ele>47.0</ele>
        <time>2019-05-17T10:15:45.179Z</time>
      </trkpt>
      <trkpt lat="39.30961833" lon="-8.61944167">
        <ele>47.0</ele>
        <time>2019-05-17T10:15:46.185Z</time>
      </trkpt>
      <trkpt lat="39.309625" lon="-8.61940833">
        <ele>47.0</ele>
        <time>2019-05-17T10:15:47.163Z</time>
      </trkpt>
      <trkpt lat="39.309625" lon="-8.61940833">
        <ele>47.0</ele>
        <time>2019-05-17T10:15:48.175Z</time>
      </trkpt>
      <trkpt lat="39.30964" lon="-8.61936333">
        <ele>47.0</ele>
        <time>2019-05-17T10:15:49.186Z</time>
      </trkpt>
      <trkpt lat="39.30965" lon="-8.61934">
        <ele>47.0</ele>
        <time>2019-05-17T10:15:50.179Z</time>
      </trkpt>
      <trkpt lat="39.30965" lon="-8.61934">
        <ele>47.0</ele>
        <time>2019-05-17T10:15:51.189Z</time>
      </trkpt>
      <trkpt lat="39.30966167" lon="-8.61929333">
        <ele>48.0</ele>
        <time>2019-05-17T10:15:52.165Z</time>
      </trkpt>
      <trkpt lat="39.30966333" lon="-8.61926667">
        <ele>48.0</ele>
        <time>2019-05-17T10:15:53.155Z</time>
      </trkpt>
      <trkpt lat="39.30966333" lon="-8.61926667">
        <ele>48.0</ele>
        <time>2019-05-17T10:15:54.171Z</time>
      </trkpt>
      <trkpt lat="39.30967833" lon="-8.61921667">
        <ele>48.0</ele>
        <time>2019-05-17T10:15:55.183Z</time>
      </trkpt>
      <trkpt lat="39.30967833" lon="-8.61921667">
        <ele>48.0</ele>
        <time>2019-05-17T10:15:56.150Z</time>
      </trkpt>
      <trkpt lat="39.30969333" lon="-8.61917333">
        <ele>48.0</ele>
        <time>2019-05-17T10:15:57.166Z</time>
      </trkpt>
      <trkpt lat="39.30969333" lon="-8.61917333">
        <ele>48.0</ele>
        <time>2019-05-17T10:15:58.183Z</time>
      </trkpt>
      <trkpt lat="39.30972333" lon="-8.61914">
        <ele>48.0</ele>
        <time>2019-05-17T10:15:59.160Z</time>
      </trkpt>
      <trkpt lat="39.30972333" lon="-8.61914">
        <ele>48.0</ele>
        <time>2019-05-17T10:16:00.184Z</time>
      </trkpt>
      <trkpt lat="39.30976333" lon="-8.61913167">
        <ele>48.0</ele>
        <time>2019-05-17T10:16:01.154Z</time>
      </trkpt>
      <trkpt lat="39.30976333" lon="-8.61913167">
        <ele>48.0</ele>
        <time>2019-05-17T10:16:02.164Z</time>
      </trkpt>
      <trkpt lat="39.30979333" lon="-8.61912833">
        <ele>48.0</ele>
        <time>2019-05-17T10:16:03.174Z</time>
      </trkpt>
      <trkpt lat="39.30979333" lon="-8.61912833">
        <ele>48.0</ele>
        <time>2019-05-17T10:16:04.151Z</time>
      </trkpt>
      <trkpt lat="39.30982167" lon="-8.61911333">
        <ele>48.0</ele>
        <time>2019-05-17T10:16:05.178Z</time>
      </trkpt>
      <trkpt lat="39.30982167" lon="-8.61911333">
        <ele>48.0</ele>
        <time>2019-05-17T10:16:06.157Z</time>
      </trkpt>
      <trkpt lat="39.30985167" lon="-8.61910167">
        <ele>48.0</ele>
        <time>2019-05-17T10:16:07.157Z</time>
      </trkpt>
      <trkpt lat="39.30985167" lon="-8.61910167">
        <ele>48.0</ele>
        <time>2019-05-17T10:16:08.173Z</time>
      </trkpt>
      <trkpt lat="39.30988167" lon="-8.61908333">
        <ele>47.0</ele>
        <time>2019-05-17T10:16:09.182Z</time>
      </trkpt>
      <trkpt lat="39.30988167" lon="-8.61908333">
        <ele>47.0</ele>
        <time>2019-05-17T10:16:10.169Z</time>
      </trkpt>
      <trkpt lat="39.30991" lon="-8.61906167">
        <ele>47.0</ele>
        <time>2019-05-17T10:16:11.183Z</time>
      </trkpt>
      <trkpt lat="39.30991" lon="-8.61906167">
        <ele>47.0</ele>
        <time>2019-05-17T10:16:12.170Z</time>
      </trkpt>
      <trkpt lat="39.30994167" lon="-8.61904">
        <ele>47.0</ele>
        <time>2019-05-17T10:16:13.176Z</time>
      </trkpt>
      <trkpt lat="39.30994167" lon="-8.61904">
        <ele>47.0</ele>
        <time>2019-05-17T10:16:14.187Z</time>
      </trkpt>
      <trkpt lat="39.30997667" lon="-8.61902167">
        <ele>47.0</ele>
        <time>2019-05-17T10:16:15.162Z</time>
      </trkpt>
      <trkpt lat="39.30997667" lon="-8.61902167">
        <ele>47.0</ele>
        <time>2019-05-17T10:16:16.174Z</time>
      </trkpt>
      <trkpt lat="39.31001167" lon="-8.61900167">
        <ele>47.0</ele>
        <time>2019-05-17T10:16:17.189Z</time>
      </trkpt>
      <trkpt lat="39.31001167" lon="-8.61900167">
        <ele>47.0</ele>
        <time>2019-05-17T10:16:18.155Z</time>
      </trkpt>
      <trkpt lat="39.31004833" lon="-8.61898167">
        <ele>46.0</ele>
        <time>2019-05-17T10:16:19.178Z</time>
      </trkpt>
      <trkpt lat="39.310065" lon="-8.61897167">
        <ele>46.0</ele>
        <time>2019-05-17T10:16:20.161Z</time>
      </trkpt>
      <trkpt lat="39.310065" lon="-8.61897167">
        <ele>46.0</ele>
        <time>2019-05-17T10:16:21.172Z</time>
      </trkpt>
      <trkpt lat="39.31009667" lon="-8.61895">
        <ele>46.0</ele>
        <time>2019-05-17T10:16:22.182Z</time>
      </trkpt>
      <trkpt lat="39.31011333" lon="-8.61894167">
        <ele>46.0</ele>
        <time>2019-05-17T10:16:23.159Z</time>
      </trkpt>
      <trkpt lat="39.31013" lon="-8.61893333">
        <ele>46.0</ele>
        <time>2019-05-17T10:16:24.189Z</time>
      </trkpt>
      <trkpt lat="39.31013" lon="-8.61893333">
        <ele>46.0</ele>
        <time>2019-05-17T10:16:25.159Z</time>
      </trkpt>
      <trkpt lat="39.31016333" lon="-8.61892">
        <ele>46.0</ele>
        <time>2019-05-17T10:16:26.174Z</time>
      </trkpt>
      <trkpt lat="39.31018" lon="-8.61891">
        <ele>46.0</ele>
        <time>2019-05-17T10:16:27.152Z</time>
      </trkpt>
      <trkpt lat="39.31018" lon="-8.61891">
        <ele>46.0</ele>
        <time>2019-05-17T10:16:28.158Z</time>
      </trkpt>
      <trkpt lat="39.31021833" lon="-8.61889833">
        <ele>47.0</ele>
        <time>2019-05-17T10:16:29.179Z</time>
      </trkpt>
      <trkpt lat="39.31021833" lon="-8.61889833">
        <ele>47.0</ele>
        <time>2019-05-17T10:16:30.185Z</time>
      </trkpt>
      <trkpt lat="39.31024833" lon="-8.61888333">
        <ele>47.0</ele>
        <time>2019-05-17T10:16:31.161Z</time>
      </trkpt>
      <trkpt lat="39.31024833" lon="-8.61888333">
        <ele>47.0</ele>
        <time>2019-05-17T10:16:32.168Z</time>
      </trkpt>
      <trkpt lat="39.31028" lon="-8.618865">
        <ele>47.0</ele>
        <time>2019-05-17T10:16:33.189Z</time>
      </trkpt>
      <trkpt lat="39.310295" lon="-8.618855">
        <ele>48.0</ele>
        <time>2019-05-17T10:16:34.178Z</time>
      </trkpt>
      <trkpt lat="39.310295" lon="-8.618855">
        <ele>48.0</ele>
        <time>2019-05-17T10:16:35.189Z</time>
      </trkpt>
      <trkpt lat="39.31032167" lon="-8.61882667">
        <ele>48.0</ele>
        <time>2019-05-17T10:16:36.165Z</time>
      </trkpt>
      <trkpt lat="39.31032167" lon="-8.61882667">
        <ele>48.0</ele>
        <time>2019-05-17T10:16:37.182Z</time>
      </trkpt>
      <trkpt lat="39.31034667" lon="-8.618805">
        <ele>48.0</ele>
        <time>2019-05-17T10:16:38.178Z</time>
      </trkpt>
      <trkpt lat="39.31034667" lon="-8.618805">
        <ele>48.0</ele>
        <time>2019-05-17T10:16:39.153Z</time>
      </trkpt>
      <trkpt lat="39.31037167" lon="-8.618785">
        <ele>48.0</ele>
        <time>2019-05-17T10:16:40.167Z</time>
      </trkpt>
      <trkpt lat="39.31038667" lon="-8.61877833">
        <ele>47.0</ele>
        <time>2019-05-17T10:16:41.181Z</time>
      </trkpt>
      <trkpt lat="39.31038667" lon="-8.61877833">
        <ele>47.0</ele>
        <time>2019-05-17T10:16:42.154Z</time>
      </trkpt>
      <trkpt lat="39.31041667" lon="-8.61876">
        <ele>48.0</ele>
        <time>2019-05-17T10:16:43.169Z</time>
      </trkpt>
      <trkpt lat="39.31041667" lon="-8.61876">
        <ele>48.0</ele>
        <time>2019-05-17T10:16:44.181Z</time>
      </trkpt>
      <trkpt lat="39.31045333" lon="-8.61874">
        <ele>48.0</ele>
        <time>2019-05-17T10:16:45.150Z</time>
      </trkpt>
      <trkpt lat="39.31047833" lon="-8.61872167">
        <ele>48.0</ele>
        <time>2019-05-17T10:16:46.168Z</time>
      </trkpt>
      <trkpt lat="39.31047833" lon="-8.61872167">
        <ele>48.0</ele>
        <time>2019-05-17T10:16:47.177Z</time>
      </trkpt>
      <trkpt lat="39.31052167" lon="-8.61868833">
        <ele>49.0</ele>
        <time>2019-05-17T10:16:48.156Z</time>
      </trkpt>
      <trkpt lat="39.31052167" lon="-8.61868833">
        <ele>49.0</ele>
        <time>2019-05-17T10:16:49.170Z</time>
      </trkpt>
      <trkpt lat="39.31056667" lon="-8.618655">
        <ele>48.0</ele>
        <time>2019-05-17T10:16:50.151Z</time>
      </trkpt>
      <trkpt lat="39.31059" lon="-8.61864333">
        <ele>48.0</ele>
        <time>2019-05-17T10:16:51.178Z</time>
      </trkpt>
      <trkpt lat="39.31059" lon="-8.61864333">
        <ele>48.0</ele>
        <time>2019-05-17T10:16:52.186Z</time>
      </trkpt>
      <trkpt lat="39.31063333" lon="-8.61861667">
        <ele>48.0</ele>
        <time>2019-05-17T10:16:53.170Z</time>
      </trkpt>
      <trkpt lat="39.31063333" lon="-8.61861667">
        <ele>48.0</ele>
        <time>2019-05-17T10:16:54.178Z</time>
      </trkpt>
      <trkpt lat="39.31068" lon="-8.61858667">
        <ele>49.0</ele>
        <time>2019-05-17T10:16:55.162Z</time>
      </trkpt>
      <trkpt lat="39.31068" lon="-8.61858667">
        <ele>49.0</ele>
        <time>2019-05-17T10:16:56.180Z</time>
      </trkpt>
      <trkpt lat="39.31072667" lon="-8.618555">
        <ele>49.0</ele>
        <time>2019-05-17T10:16:57.157Z</time>
      </trkpt>
      <trkpt lat="39.31075" lon="-8.61854">
        <ele>49.0</ele>
        <time>2019-05-17T10:16:58.180Z</time>
      </trkpt>
      <trkpt lat="39.31077333" lon="-8.61852">
        <ele>49.0</ele>
        <time>2019-05-17T10:16:59.153Z</time>
      </trkpt>
      <trkpt lat="39.31077333" lon="-8.61852">
        <ele>49.0</ele>
        <time>2019-05-17T10:17:00.166Z</time>
      </trkpt>
      <trkpt lat="39.31082167" lon="-8.61847833">
        <ele>49.0</ele>
        <time>2019-05-17T10:17:01.181Z</time>
      </trkpt>
      <trkpt lat="39.31084833" lon="-8.618455">
        <ele>49.0</ele>
        <time>2019-05-17T10:17:02.162Z</time>
      </trkpt>
      <trkpt lat="39.31084833" lon="-8.618455">
        <ele>49.0</ele>
        <time>2019-05-17T10:17:03.187Z</time>
      </trkpt>
      <trkpt lat="39.31090833" lon="-8.61840667">
        <ele>49.0</ele>
        <time>2019-05-17T10:17:04.160Z</time>
      </trkpt>
      <trkpt lat="39.31093667" lon="-8.61837833">
        <ele>49.0</ele>
        <time>2019-05-17T10:17:05.159Z</time>
      </trkpt>
      <trkpt lat="39.31093667" lon="-8.61837833">
        <ele>49.0</ele>
        <time>2019-05-17T10:17:06.170Z</time>
      </trkpt>
      <trkpt lat="39.31099833" lon="-8.61830667">
        <ele>50.0</ele>
        <time>2019-05-17T10:17:07.151Z</time>
      </trkpt>
      <trkpt lat="39.31103" lon="-8.61827167">
        <ele>50.0</ele>
        <time>2019-05-17T10:17:08.163Z</time>
      </trkpt>
      <trkpt lat="39.31103" lon="-8.61827167">
        <ele>50.0</ele>
        <time>2019-05-17T10:17:09.187Z</time>
      </trkpt>
      <trkpt lat="39.31109" lon="-8.618195">
        <ele>50.0</ele>
        <time>2019-05-17T10:17:10.190Z</time>
      </trkpt>
      <trkpt lat="39.31111833" lon="-8.61815833">
        <ele>51.0</ele>
        <time>2019-05-17T10:17:11.183Z</time>
      </trkpt>
      <trkpt lat="39.31111833" lon="-8.61815833">
        <ele>51.0</ele>
        <time>2019-05-17T10:17:12.161Z</time>
      </trkpt>
      <trkpt lat="39.31117667" lon="-8.61807833">
        <ele>51.0</ele>
        <time>2019-05-17T10:17:13.179Z</time>
      </trkpt>
      <trkpt lat="39.31117667" lon="-8.61807833">
        <ele>51.0</ele>
        <time>2019-05-17T10:17:14.173Z</time>
      </trkpt>
      <trkpt lat="39.31123" lon="-8.617995">
        <ele>50.0</ele>
        <time>2019-05-17T10:17:15.189Z</time>
      </trkpt>
      <trkpt lat="39.31123" lon="-8.617995">
        <ele>50.0</ele>
        <time>2019-05-17T10:17:16.162Z</time>
      </trkpt>
      <trkpt lat="39.31128167" lon="-8.61790667">
        <ele>50.0</ele>
        <time>2019-05-17T10:17:17.181Z</time>
      </trkpt>
      <trkpt lat="39.31128167" lon="-8.61790667">
        <ele>50.0</ele>
        <time>2019-05-17T10:17:18.155Z</time>
      </trkpt>
      <trkpt lat="39.31133833" lon="-8.617815">
        <ele>49.0</ele>
        <time>2019-05-17T10:17:19.180Z</time>
      </trkpt>
      <trkpt lat="39.31133833" lon="-8.617815">
        <ele>49.0</ele>
        <time>2019-05-17T10:17:20.151Z</time>
      </trkpt>
      <trkpt lat="39.311405" lon="-8.61772167">
        <ele>49.0</ele>
        <time>2019-05-17T10:17:21.164Z</time>
      </trkpt>
      <trkpt lat="39.311405" lon="-8.61772167">
        <ele>49.0</ele>
        <time>2019-05-17T10:17:22.170Z</time>
      </trkpt>
      <trkpt lat="39.31146833" lon="-8.61764333">
        <ele>48.0</ele>
        <time>2019-05-17T10:17:23.189Z</time>
      </trkpt>
      <trkpt lat="39.31149667" lon="-8.61760667">
        <ele>48.0</ele>
        <time>2019-05-17T10:17:24.156Z</time>
      </trkpt>
      <trkpt lat="39.31149667" lon="-8.61760667">
        <ele>48.0</ele>
        <time>2019-05-17T10:17:25.174Z</time>
      </trkpt>
      <trkpt lat="39.311555" lon="-8.61753667">
        <ele>48.0</ele>
        <time>2019-05-17T10:17:26.160Z</time>
      </trkpt>
      <trkpt lat="39.311585" lon="-8.61750167">
        <ele>48.0</ele>
        <time>2019-05-17T10:17:27.184Z</time>
      </trkpt>
      <trkpt lat="39.311585" lon="-8.61750167">
        <ele>48.0</ele>
        <time>2019-05-17T10:17:28.155Z</time>
      </trkpt>
      <trkpt lat="39.31164833" lon="-8.61743167">
        <ele>48.0</ele>
        <time>2019-05-17T10:17:29.184Z</time>
      </trkpt>
      <trkpt lat="39.31164833" lon="-8.61743167">
        <ele>48.0</ele>
        <time>2019-05-17T10:17:30.156Z</time>
      </trkpt>
      <trkpt lat="39.31171" lon="-8.61736167">
        <ele>47.0</ele>
        <time>2019-05-17T10:17:31.173Z</time>
      </trkpt>
      <trkpt lat="39.31171" lon="-8.61736167">
        <ele>47.0</ele>
        <time>2019-05-17T10:17:32.187Z</time>
      </trkpt>
      <trkpt lat="39.31177333" lon="-8.617295">
        <ele>47.0</ele>
        <time>2019-05-17T10:17:33.179Z</time>
      </trkpt>
      <trkpt lat="39.31177333" lon="-8.617295">
        <ele>47.0</ele>
        <time>2019-05-17T10:17:34.164Z</time>
      </trkpt>
      <trkpt lat="39.31184167" lon="-8.61724833">
        <ele>46.0</ele>
        <time>2019-05-17T10:17:35.188Z</time>
      </trkpt>
      <trkpt lat="39.31184167" lon="-8.61724833">
        <ele>46.0</ele>
        <time>2019-05-17T10:17:36.176Z</time>
      </trkpt>
      <trkpt lat="39.31190833" lon="-8.61721833">
        <ele>46.0</ele>
        <time>2019-05-17T10:17:37.186Z</time>
      </trkpt>
      <trkpt lat="39.31190833" lon="-8.61721833">
        <ele>46.0</ele>
        <time>2019-05-17T10:17:38.157Z</time>
      </trkpt>
      <trkpt lat="39.31197667" lon="-8.61719333">
        <ele>46.0</ele>
        <time>2019-05-17T10:17:39.184Z</time>
      </trkpt>
      <trkpt lat="39.31200667" lon="-8.61718167">
        <ele>46.0</ele>
        <time>2019-05-17T10:17:40.163Z</time>
      </trkpt>
      <trkpt lat="39.31202833" lon="-8.61715833">
        <ele>46.0</ele>
        <time>2019-05-17T10:17:41.189Z</time>
      </trkpt>
      <trkpt lat="39.31202833" lon="-8.61715833">
        <ele>46.0</ele>
        <time>2019-05-17T10:17:42.162Z</time>
      </trkpt>
      <trkpt lat="39.312045" lon="-8.61710667">
        <ele>46.0</ele>
        <time>2019-05-17T10:17:43.173Z</time>
      </trkpt>
      <trkpt lat="39.312045" lon="-8.61710667">
        <ele>46.0</ele>
        <time>2019-05-17T10:17:44.186Z</time>
      </trkpt>
      <trkpt lat="39.312035" lon="-8.61705333">
        <ele>46.0</ele>
        <time>2019-05-17T10:17:45.155Z</time>
      </trkpt>
      <trkpt lat="39.312035" lon="-8.61705333">
        <ele>46.0</ele>
        <time>2019-05-17T10:17:46.168Z</time>
      </trkpt>
      <trkpt lat="39.31203" lon="-8.61699167">
        <ele>46.0</ele>
        <time>2019-05-17T10:17:47.178Z</time>
      </trkpt>
      <trkpt lat="39.31203" lon="-8.61699167">
        <ele>46.0</ele>
        <time>2019-05-17T10:17:48.153Z</time>
      </trkpt>
      <trkpt lat="39.312025" lon="-8.616925">
        <ele>46.0</ele>
        <time>2019-05-17T10:17:49.168Z</time>
      </trkpt>
      <trkpt lat="39.312025" lon="-8.616925">
        <ele>46.0</ele>
        <time>2019-05-17T10:17:50.179Z</time>
      </trkpt>
      <trkpt lat="39.31202333" lon="-8.61686167">
        <ele>46.0</ele>
        <time>2019-05-17T10:17:51.191Z</time>
      </trkpt>
      <trkpt lat="39.31202333" lon="-8.61686167">
        <ele>46.0</ele>
        <time>2019-05-17T10:17:52.160Z</time>
      </trkpt>
      <trkpt lat="39.31202667" lon="-8.61680167">
        <ele>46.0</ele>
        <time>2019-05-17T10:17:53.177Z</time>
      </trkpt>
      <trkpt lat="39.31202667" lon="-8.61680167">
        <ele>46.0</ele>
        <time>2019-05-17T10:17:54.172Z</time>
      </trkpt>
      <trkpt lat="39.31203" lon="-8.61673667">
        <ele>45.0</ele>
        <time>2019-05-17T10:17:55.159Z</time>
      </trkpt>
      <trkpt lat="39.31203" lon="-8.6167">
        <ele>45.0</ele>
        <time>2019-05-17T10:17:56.150Z</time>
      </trkpt>
      <trkpt lat="39.31203" lon="-8.6167">
        <ele>45.0</ele>
        <time>2019-05-17T10:17:57.163Z</time>
      </trkpt>
      <trkpt lat="39.312035" lon="-8.616625">
        <ele>46.0</ele>
        <time>2019-05-17T10:17:58.183Z</time>
      </trkpt>
      <trkpt lat="39.31204" lon="-8.61658667">
        <ele>46.0</ele>
        <time>2019-05-17T10:17:59.156Z</time>
      </trkpt>
      <trkpt lat="39.31204" lon="-8.61658667">
        <ele>46.0</ele>
        <time>2019-05-17T10:18:00.177Z</time>
      </trkpt>
      <trkpt lat="39.31203833" lon="-8.6165">
        <ele>46.0</ele>
        <time>2019-05-17T10:18:01.153Z</time>
      </trkpt>
      <trkpt lat="39.31203833" lon="-8.6165">
        <ele>46.0</ele>
        <time>2019-05-17T10:18:02.167Z</time>
      </trkpt>
      <trkpt lat="39.31203333" lon="-8.61640833">
        <ele>46.0</ele>
        <time>2019-05-17T10:18:03.178Z</time>
      </trkpt>
      <trkpt lat="39.31203333" lon="-8.61640833">
        <ele>46.0</ele>
        <time>2019-05-17T10:18:04.155Z</time>
      </trkpt>
      <trkpt lat="39.31202833" lon="-8.61631167">
        <ele>46.0</ele>
        <time>2019-05-17T10:18:05.171Z</time>
      </trkpt>
      <trkpt lat="39.31202833" lon="-8.61631167">
        <ele>46.0</ele>
        <time>2019-05-17T10:18:06.153Z</time>
      </trkpt>
      <trkpt lat="39.31202333" lon="-8.61621333">
        <ele>46.0</ele>
        <time>2019-05-17T10:18:07.167Z</time>
      </trkpt>
      <trkpt lat="39.31202" lon="-8.616165">
        <ele>46.0</ele>
        <time>2019-05-17T10:18:08.169Z</time>
      </trkpt>
      <trkpt lat="39.31202" lon="-8.616165">
        <ele>46.0</ele>
        <time>2019-05-17T10:18:09.172Z</time>
      </trkpt>
      <trkpt lat="39.31201833" lon="-8.61606333">
        <ele>45.0</ele>
        <time>2019-05-17T10:18:10.163Z</time>
      </trkpt>
      <trkpt lat="39.31202" lon="-8.61601167">
        <ele>45.0</ele>
        <time>2019-05-17T10:18:11.164Z</time>
      </trkpt>
      <trkpt lat="39.31202" lon="-8.61601167">
        <ele>45.0</ele>
        <time>2019-05-17T10:18:12.182Z</time>
      </trkpt>
      <trkpt lat="39.31201667" lon="-8.61591">
        <ele>45.0</ele>
        <time>2019-05-17T10:18:13.158Z</time>
      </trkpt>
      <trkpt lat="39.31201667" lon="-8.61586333">
        <ele>45.0</ele>
        <time>2019-05-17T10:18:14.182Z</time>
      </trkpt>
      <trkpt lat="39.31201667" lon="-8.61586333">
        <ele>45.0</ele>
        <time>2019-05-17T10:18:15.176Z</time>
      </trkpt>
      <trkpt lat="39.31202667" lon="-8.61575667">
        <ele>45.0</ele>
        <time>2019-05-17T10:18:16.152Z</time>
      </trkpt>
      <trkpt lat="39.31203167" lon="-8.61570833">
        <ele>45.0</ele>
        <time>2019-05-17T10:18:17.167Z</time>
      </trkpt>
      <trkpt lat="39.31203167" lon="-8.61570833">
        <ele>45.0</ele>
        <time>2019-05-17T10:18:18.182Z</time>
      </trkpt>
      <trkpt lat="39.31204333" lon="-8.61561333">
        <ele>44.0</ele>
        <time>2019-05-17T10:18:19.151Z</time>
      </trkpt>
      <trkpt lat="39.31204333" lon="-8.61561333">
        <ele>44.0</ele>
        <time>2019-05-17T10:18:20.165Z</time>
      </trkpt>
      <trkpt lat="39.31206833" lon="-8.615525">
        <ele>44.0</ele>
        <time>2019-05-17T10:18:21.187Z</time>
      </trkpt>
      <trkpt lat="39.31206833" lon="-8.615525">
        <ele>44.0</ele>
        <time>2019-05-17T10:18:22.166Z</time>
      </trkpt>
      <trkpt lat="39.31207667" lon="-8.61543">
        <ele>43.0</ele>
        <time>2019-05-17T10:18:23.186Z</time>
      </trkpt>
      <trkpt lat="39.312085" lon="-8.615385">
        <ele>43.0</ele>
        <time>2019-05-17T10:18:24.165Z</time>
      </trkpt>
      <trkpt lat="39.312085" lon="-8.615385">
        <ele>43.0</ele>
        <time>2019-05-17T10:18:25.177Z</time>
      </trkpt>
      <trkpt lat="39.31211" lon="-8.615315">
        <ele>43.0</ele>
        <time>2019-05-17T10:18:26.150Z</time>
      </trkpt>
      <trkpt lat="39.31212333" lon="-8.615285">
        <ele>43.0</ele>
        <time>2019-05-17T10:18:27.186Z</time>
      </trkpt>
      <trkpt lat="39.31213833" lon="-8.61525667">
        <ele>42.0</ele>
        <time>2019-05-17T10:18:28.160Z</time>
      </trkpt>
      <trkpt lat="39.31213833" lon="-8.61525667">
        <ele>42.0</ele>
        <time>2019-05-17T10:18:29.175Z</time>
      </trkpt>
      <trkpt lat="39.312175" lon="-8.61519333">
        <ele>41.0</ele>
        <time>2019-05-17T10:18:30.189Z</time>
      </trkpt>
      <trkpt lat="39.31219833" lon="-8.61515833">
        <ele>41.0</ele>
        <time>2019-05-17T10:18:31.175Z</time>
      </trkpt>
      <trkpt lat="39.31219833" lon="-8.61515833">
        <ele>41.0</ele>
        <time>2019-05-17T10:18:32.180Z</time>
      </trkpt>
      <trkpt lat="39.31223667" lon="-8.61508833">
        <ele>40.0</ele>
        <time>2019-05-17T10:18:33.183Z</time>
      </trkpt>
      <trkpt lat="39.31225333" lon="-8.61505333">
        <ele>40.0</ele>
        <time>2019-05-17T10:18:34.172Z</time>
      </trkpt>
      <trkpt lat="39.31225333" lon="-8.61505333">
        <ele>40.0</ele>
        <time>2019-05-17T10:18:35.182Z</time>
      </trkpt>
      <trkpt lat="39.31228833" lon="-8.61498667">
        <ele>40.0</ele>
        <time>2019-05-17T10:18:36.159Z</time>
      </trkpt>
      <trkpt lat="39.31230333" lon="-8.61495333">
        <ele>40.0</ele>
        <time>2019-05-17T10:18:37.162Z</time>
      </trkpt>
      <trkpt lat="39.31230333" lon="-8.61495333">
        <ele>40.0</ele>
        <time>2019-05-17T10:18:38.171Z</time>
      </trkpt>
      <trkpt lat="39.31234" lon="-8.61487333">
        <ele>39.0</ele>
        <time>2019-05-17T10:18:39.188Z</time>
      </trkpt>
      <trkpt lat="39.31234" lon="-8.61487333">
        <ele>39.0</ele>
        <time>2019-05-17T10:18:40.166Z</time>
      </trkpt>
      <trkpt lat="39.312375" lon="-8.61479833">
        <ele>38.0</ele>
        <time>2019-05-17T10:18:41.183Z</time>
      </trkpt>
      <trkpt lat="39.312375" lon="-8.61479833">
        <ele>38.0</ele>
        <time>2019-05-17T10:18:42.153Z</time>
      </trkpt>
      <trkpt lat="39.31240667" lon="-8.61473">
        <ele>37.0</ele>
        <time>2019-05-17T10:18:43.174Z</time>
      </trkpt>
      <trkpt lat="39.31240667" lon="-8.61473">
        <ele>37.0</ele>
        <time>2019-05-17T10:18:44.152Z</time>
      </trkpt>
      <trkpt lat="39.31243167" lon="-8.61466667">
        <ele>37.0</ele>
        <time>2019-05-17T10:18:45.164Z</time>
      </trkpt>
      <trkpt lat="39.31243167" lon="-8.61466667">
        <ele>37.0</ele>
        <time>2019-05-17T10:18:46.182Z</time>
      </trkpt>
      <trkpt lat="39.31245667" lon="-8.61459833">
        <ele>36.0</ele>
        <time>2019-05-17T10:18:47.155Z</time>
      </trkpt>
      <trkpt lat="39.31245667" lon="-8.61459833">
        <ele>36.0</ele>
        <time>2019-05-17T10:18:48.175Z</time>
      </trkpt>
      <trkpt lat="39.31248333" lon="-8.61452833">
        <ele>35.0</ele>
        <time>2019-05-17T10:18:49.189Z</time>
      </trkpt>
      <trkpt lat="39.31248333" lon="-8.61452833">
        <ele>35.0</ele>
        <time>2019-05-17T10:18:50.168Z</time>
      </trkpt>
      <trkpt lat="39.31250667" lon="-8.61445167">
        <ele>35.0</ele>
        <time>2019-05-17T10:18:51.193Z</time>
      </trkpt>
      <trkpt lat="39.31250667" lon="-8.61445167">
        <ele>35.0</ele>
        <time>2019-05-17T10:18:52.169Z</time>
      </trkpt>
      <trkpt lat="39.31252667" lon="-8.614375">
        <ele>34.0</ele>
        <time>2019-05-17T10:18:53.189Z</time>
      </trkpt>
      <trkpt lat="39.31252667" lon="-8.614375">
        <ele>34.0</ele>
        <time>2019-05-17T10:18:54.182Z</time>
      </trkpt>
      <trkpt lat="39.312545" lon="-8.6143">
        <ele>34.0</ele>
        <time>2019-05-17T10:18:55.152Z</time>
      </trkpt>
      <trkpt lat="39.312545" lon="-8.6143">
        <ele>34.0</ele>
        <time>2019-05-17T10:18:56.174Z</time>
      </trkpt>
      <trkpt lat="39.31256" lon="-8.61421667">
        <ele>34.0</ele>
        <time>2019-05-17T10:18:57.150Z</time>
      </trkpt>
      <trkpt lat="39.31256" lon="-8.61421667">
        <ele>34.0</ele>
        <time>2019-05-17T10:18:58.166Z</time>
      </trkpt>
      <trkpt lat="39.31256833" lon="-8.61412667">
        <ele>33.0</ele>
        <time>2019-05-17T10:18:59.184Z</time>
      </trkpt>
      <trkpt lat="39.31256833" lon="-8.61412667">
        <ele>33.0</ele>
        <time>2019-05-17T10:19:00.150Z</time>
      </trkpt>
      <trkpt lat="39.312575" lon="-8.61403">
        <ele>33.0</ele>
        <time>2019-05-17T10:19:01.173Z</time>
      </trkpt>
      <trkpt lat="39.31257167" lon="-8.61398">
        <ele>33.0</ele>
        <time>2019-05-17T10:19:02.153Z</time>
      </trkpt>
      <trkpt lat="39.31257167" lon="-8.61398">
        <ele>33.0</ele>
        <time>2019-05-17T10:19:03.163Z</time>
      </trkpt>
      <trkpt lat="39.312565" lon="-8.61389167">
        <ele>32.0</ele>
        <time>2019-05-17T10:19:04.182Z</time>
      </trkpt>
      <trkpt lat="39.31256167" lon="-8.61385167">
        <ele>32.0</ele>
        <time>2019-05-17T10:19:05.163Z</time>
      </trkpt>
      <trkpt lat="39.31256167" lon="-8.61385167">
        <ele>32.0</ele>
        <time>2019-05-17T10:19:06.174Z</time>
      </trkpt>
      <trkpt lat="39.31255167" lon="-8.61378">
        <ele>32.0</ele>
        <time>2019-05-17T10:19:07.188Z</time>
      </trkpt>
      <trkpt lat="39.31255167" lon="-8.61378">
        <ele>32.0</ele>
        <time>2019-05-17T10:19:08.164Z</time>
      </trkpt>
      <trkpt lat="39.31254" lon="-8.613705">
        <ele>32.0</ele>
        <time>2019-05-17T10:19:09.165Z</time>
      </trkpt>
      <trkpt lat="39.31254" lon="-8.613705">
        <ele>32.0</ele>
        <time>2019-05-17T10:19:10.173Z</time>
      </trkpt>
      <trkpt lat="39.312525" lon="-8.61363167">
        <ele>32.0</ele>
        <time>2019-05-17T10:19:11.184Z</time>
      </trkpt>
      <trkpt lat="39.312525" lon="-8.61363167">
        <ele>32.0</ele>
        <time>2019-05-17T10:19:12.177Z</time>
      </trkpt>
      <trkpt lat="39.31251" lon="-8.61355667">
        <ele>32.0</ele>
        <time>2019-05-17T10:19:13.153Z</time>
      </trkpt>
      <trkpt lat="39.31250333" lon="-8.61352">
        <ele>32.0</ele>
        <time>2019-05-17T10:19:14.187Z</time>
      </trkpt>
      <trkpt lat="39.31249667" lon="-8.613485">
        <ele>32.0</ele>
        <time>2019-05-17T10:19:15.172Z</time>
      </trkpt>
      <trkpt lat="39.31249167" lon="-8.61344833">
        <ele>32.0</ele>
        <time>2019-05-17T10:19:16.150Z</time>
      </trkpt>
      <trkpt lat="39.31249167" lon="-8.61344833">
        <ele>32.0</ele>
        <time>2019-05-17T10:19:17.160Z</time>
      </trkpt>
      <trkpt lat="39.31247833" lon="-8.61337667">
        <ele>32.0</ele>
        <time>2019-05-17T10:19:18.179Z</time>
      </trkpt>
      <trkpt lat="39.31247833" lon="-8.61337667">
        <ele>32.0</ele>
        <time>2019-05-17T10:19:19.188Z</time>
      </trkpt>
      <trkpt lat="39.312465" lon="-8.61331">
        <ele>32.0</ele>
        <time>2019-05-17T10:19:20.163Z</time>
      </trkpt>
      <trkpt lat="39.312465" lon="-8.61331">
        <ele>32.0</ele>
        <time>2019-05-17T10:19:21.170Z</time>
      </trkpt>
      <trkpt lat="39.31245667" lon="-8.61324">
        <ele>32.0</ele>
        <time>2019-05-17T10:19:22.184Z</time>
      </trkpt>
      <trkpt lat="39.31245333" lon="-8.61320667">
        <ele>32.0</ele>
        <time>2019-05-17T10:19:23.165Z</time>
      </trkpt>
      <trkpt lat="39.31245333" lon="-8.61320667">
        <ele>32.0</ele>
        <time>2019-05-17T10:19:24.153Z</time>
      </trkpt>
      <trkpt lat="39.31244" lon="-8.61313333">
        <ele>32.0</ele>
        <time>2019-05-17T10:19:25.168Z</time>
      </trkpt>
      <trkpt lat="39.31244" lon="-8.61313333">
        <ele>32.0</ele>
        <time>2019-05-17T10:19:26.178Z</time>
      </trkpt>
      <trkpt lat="39.31242833" lon="-8.61305667">
        <ele>31.0</ele>
        <time>2019-05-17T10:19:27.189Z</time>
      </trkpt>
      <trkpt lat="39.31242167" lon="-8.61301667">
        <ele>31.0</ele>
        <time>2019-05-17T10:19:28.168Z</time>
      </trkpt>
      <trkpt lat="39.31241333" lon="-8.612975">
        <ele>31.0</ele>
        <time>2019-05-17T10:19:29.188Z</time>
      </trkpt>
      <trkpt lat="39.31241333" lon="-8.612975">
        <ele>31.0</ele>
        <time>2019-05-17T10:19:30.164Z</time>
      </trkpt>
      <trkpt lat="39.31239833" lon="-8.61290333">
        <ele>31.0</ele>
        <time>2019-05-17T10:19:31.154Z</time>
      </trkpt>
      <trkpt lat="39.31239833" lon="-8.61290333">
        <ele>31.0</ele>
        <time>2019-05-17T10:19:32.183Z</time>
      </trkpt>
      <trkpt lat="39.31238667" lon="-8.612835">
        <ele>31.0</ele>
        <time>2019-05-17T10:19:33.173Z</time>
      </trkpt>
      <trkpt lat="39.31237833" lon="-8.61279667">
        <ele>31.0</ele>
        <time>2019-05-17T10:19:34.152Z</time>
      </trkpt>
      <trkpt lat="39.31237" lon="-8.612755">
        <ele>31.0</ele>
        <time>2019-05-17T10:19:35.181Z</time>
      </trkpt>
      <trkpt lat="39.31237" lon="-8.612755">
        <ele>31.0</ele>
        <time>2019-05-17T10:19:36.158Z</time>
      </trkpt>
      <trkpt lat="39.31235167" lon="-8.61266333">
        <ele>30.0</ele>
        <time>2019-05-17T10:19:37.174Z</time>
      </trkpt>
      <trkpt lat="39.31235167" lon="-8.61266333">
        <ele>30.0</ele>
        <time>2019-05-17T10:19:38.186Z</time>
      </trkpt>
      <trkpt lat="39.31232833" lon="-8.61255667">
        <ele>30.0</ele>
        <time>2019-05-17T10:19:39.168Z</time>
      </trkpt>
      <trkpt lat="39.31232833" lon="-8.61255667">
        <ele>30.0</ele>
        <time>2019-05-17T10:19:40.178Z</time>
      </trkpt>
      <trkpt lat="39.31229833" lon="-8.612455">
        <ele>29.0</ele>
        <time>2019-05-17T10:19:41.151Z</time>
      </trkpt>
      <trkpt lat="39.31229833" lon="-8.612455">
        <ele>29.0</ele>
        <time>2019-05-17T10:19:42.167Z</time>
      </trkpt>
      <trkpt lat="39.31228167" lon="-8.612375">
        <ele>29.0</ele>
        <time>2019-05-17T10:19:43.188Z</time>
      </trkpt>
      <trkpt lat="39.31228167" lon="-8.612375">
        <ele>29.0</ele>
        <time>2019-05-17T10:19:44.162Z</time>
      </trkpt>
      <trkpt lat="39.31227833" lon="-8.61231667">
        <ele>29.0</ele>
        <time>2019-05-17T10:19:45.176Z</time>
      </trkpt>
      <trkpt lat="39.31228" lon="-8.61229333">
        <ele>28.0</ele>
        <time>2019-05-17T10:19:46.156Z</time>
      </trkpt>
      <trkpt lat="39.31228" lon="-8.61227167">
        <ele>28.0</ele>
        <time>2019-05-17T10:19:47.186Z</time>
      </trkpt>
      <trkpt lat="39.31228" lon="-8.61227167">
        <ele>28.0</ele>
        <time>2019-05-17T10:19:48.160Z</time>
      </trkpt>
      <trkpt lat="39.31228167" lon="-8.61222833">
        <ele>27.0</ele>
        <time>2019-05-17T10:19:49.178Z</time>
      </trkpt>
      <trkpt lat="39.31228167" lon="-8.61222833">
        <ele>27.0</ele>
        <time>2019-05-17T10:19:50.184Z</time>
      </trkpt>
      <trkpt lat="39.31229" lon="-8.612175">
        <ele>26.0</ele>
        <time>2019-05-17T10:19:51.158Z</time>
      </trkpt>
      <trkpt lat="39.31229667" lon="-8.612145">
        <ele>26.0</ele>
        <time>2019-05-17T10:19:52.174Z</time>
      </trkpt>
      <trkpt lat="39.312305" lon="-8.61211">
        <ele>26.0</ele>
        <time>2019-05-17T10:19:53.189Z</time>
      </trkpt>
      <trkpt lat="39.312305" lon="-8.61211">
        <ele>26.0</ele>
        <time>2019-05-17T10:19:54.154Z</time>
      </trkpt>
      <trkpt lat="39.312315" lon="-8.612035">
        <ele>25.0</ele>
        <time>2019-05-17T10:19:55.178Z</time>
      </trkpt>
      <trkpt lat="39.312315" lon="-8.612035">
        <ele>25.0</ele>
        <time>2019-05-17T10:19:56.189Z</time>
      </trkpt>
      <trkpt lat="39.31232167" lon="-8.61194167">
        <ele>24.0</ele>
        <time>2019-05-17T10:19:57.163Z</time>
      </trkpt>
      <trkpt lat="39.31232167" lon="-8.61194167">
        <ele>24.0</ele>
        <time>2019-05-17T10:19:58.170Z</time>
      </trkpt>
      <trkpt lat="39.312335" lon="-8.61183">
        <ele>23.0</ele>
        <time>2019-05-17T10:19:59.150Z</time>
      </trkpt>
      <trkpt lat="39.312335" lon="-8.61183">
        <ele>23.0</ele>
        <time>2019-05-17T10:20:00.156Z</time>
      </trkpt>
      <trkpt lat="39.31234667" lon="-8.61172167">
        <ele>22.0</ele>
        <time>2019-05-17T10:20:01.179Z</time>
      </trkpt>
      <trkpt lat="39.31234667" lon="-8.61172167">
        <ele>22.0</ele>
        <time>2019-05-17T10:20:02.160Z</time>
      </trkpt>
      <trkpt lat="39.31235333" lon="-8.61160667">
        <ele>22.0</ele>
        <time>2019-05-17T10:20:03.181Z</time>
      </trkpt>
      <trkpt lat="39.31235333" lon="-8.61160667">
        <ele>22.0</ele>
        <time>2019-05-17T10:20:04.151Z</time>
      </trkpt>
      <trkpt lat="39.312365" lon="-8.61149167">
        <ele>21.0</ele>
        <time>2019-05-17T10:20:05.160Z</time>
      </trkpt>
      <trkpt lat="39.312365" lon="-8.61149167">
        <ele>21.0</ele>
        <time>2019-05-17T10:20:06.151Z</time>
      </trkpt>
      <trkpt lat="39.31238667" lon="-8.61138667">
        <ele>20.0</ele>
        <time>2019-05-17T10:20:07.162Z</time>
      </trkpt>
      <trkpt lat="39.31238667" lon="-8.61138667">
        <ele>20.0</ele>
        <time>2019-05-17T10:20:08.172Z</time>
      </trkpt>
      <trkpt lat="39.31241333" lon="-8.61129167">
        <ele>19.0</ele>
        <time>2019-05-17T10:20:09.152Z</time>
      </trkpt>
      <trkpt lat="39.31241333" lon="-8.61129167">
        <ele>19.0</ele>
        <time>2019-05-17T10:20:10.182Z</time>
      </trkpt>
      <trkpt lat="39.312445" lon="-8.61120167">
        <ele>19.0</ele>
        <time>2019-05-17T10:20:11.159Z</time>
      </trkpt>
      <trkpt lat="39.312445" lon="-8.61120167">
        <ele>19.0</ele>
        <time>2019-05-17T10:20:12.174Z</time>
      </trkpt>
      <trkpt lat="39.31247667" lon="-8.61110833">
        <ele>18.0</ele>
        <time>2019-05-17T10:20:13.179Z</time>
      </trkpt>
      <trkpt lat="39.31249333" lon="-8.61106167">
        <ele>17.0</ele>
        <time>2019-05-17T10:20:14.158Z</time>
      </trkpt>
      <trkpt lat="39.31249333" lon="-8.61106167">
        <ele>17.0</ele>
        <time>2019-05-17T10:20:15.167Z</time>
      </trkpt>
      <trkpt lat="39.31252333" lon="-8.61097333">
        <ele>16.0</ele>
        <time>2019-05-17T10:20:16.183Z</time>
      </trkpt>
      <trkpt lat="39.31253833" lon="-8.61092833">
        <ele>16.0</ele>
        <time>2019-05-17T10:20:17.158Z</time>
      </trkpt>
      <trkpt lat="39.31253833" lon="-8.61092833">
        <ele>16.0</ele>
        <time>2019-05-17T10:20:18.169Z</time>
      </trkpt>
      <trkpt lat="39.31256333" lon="-8.61084333">
        <ele>15.0</ele>
        <time>2019-05-17T10:20:19.156Z</time>
      </trkpt>
      <trkpt lat="39.31256333" lon="-8.61084333">
        <ele>15.0</ele>
        <time>2019-05-17T10:20:20.172Z</time>
      </trkpt>
      <trkpt lat="39.31258667" lon="-8.61076667">
        <ele>14.0</ele>
        <time>2019-05-17T10:20:21.315Z</time>
      </trkpt>
      <trkpt lat="39.31259833" lon="-8.61073333">
        <ele>14.0</ele>
        <time>2019-05-17T10:20:22.159Z</time>
      </trkpt>
      <trkpt lat="39.31261" lon="-8.61069833">
        <ele>13.0</ele>
        <time>2019-05-17T10:20:23.188Z</time>
      </trkpt>
      <trkpt lat="39.31262333" lon="-8.61066">
        <ele>13.0</ele>
        <time>2019-05-17T10:20:24.169Z</time>
      </trkpt>
      <trkpt lat="39.31262333" lon="-8.61066">
        <ele>13.0</ele>
        <time>2019-05-17T10:20:25.161Z</time>
      </trkpt>
      <trkpt lat="39.31265167" lon="-8.61056333">
        <ele>12.0</ele>
        <time>2019-05-17T10:20:26.160Z</time>
      </trkpt>
      <trkpt lat="39.31265167" lon="-8.61056333">
        <ele>12.0</ele>
        <time>2019-05-17T10:20:27.177Z</time>
      </trkpt>
      <trkpt lat="39.31268667" lon="-8.61045333">
        <ele>12.0</ele>
        <time>2019-05-17T10:20:28.154Z</time>
      </trkpt>
      <trkpt lat="39.312705" lon="-8.61039333">
        <ele>11.0</ele>
        <time>2019-05-17T10:20:29.176Z</time>
      </trkpt>
      <trkpt lat="39.312705" lon="-8.61039333">
        <ele>11.0</ele>
        <time>2019-05-17T10:20:30.182Z</time>
      </trkpt>
      <trkpt lat="39.312745" lon="-8.61026667">
        <ele>10.0</ele>
        <time>2019-05-17T10:20:31.153Z</time>
      </trkpt>
      <trkpt lat="39.312745" lon="-8.61026667">
        <ele>10.0</ele>
        <time>2019-05-17T10:20:32.183Z</time>
      </trkpt>
      <trkpt lat="39.31278667" lon="-8.610145">
        <ele>10.0</ele>
        <time>2019-05-17T10:20:33.158Z</time>
      </trkpt>
      <trkpt lat="39.31278667" lon="-8.610145">
        <ele>10.0</ele>
        <time>2019-05-17T10:20:34.154Z</time>
      </trkpt>
      <trkpt lat="39.31283667" lon="-8.61003833">
        <ele>10.0</ele>
        <time>2019-05-17T10:20:35.164Z</time>
      </trkpt>
      <trkpt lat="39.31283667" lon="-8.61003833">
        <ele>10.0</ele>
        <time>2019-05-17T10:20:36.180Z</time>
      </trkpt>
      <trkpt lat="39.31287167" lon="-8.60994">
        <ele>9.0</ele>
        <time>2019-05-17T10:20:37.150Z</time>
      </trkpt>
      <trkpt lat="39.31288833" lon="-8.60990333">
        <ele>9.0</ele>
        <time>2019-05-17T10:20:38.167Z</time>
      </trkpt>
      <trkpt lat="39.31290167" lon="-8.60986667">
        <ele>9.0</ele>
        <time>2019-05-17T10:20:39.177Z</time>
      </trkpt>
      <trkpt lat="39.31290167" lon="-8.60986667">
        <ele>9.0</ele>
        <time>2019-05-17T10:20:40.171Z</time>
      </trkpt>
      <trkpt lat="39.312925" lon="-8.6098">
        <ele>8.0</ele>
        <time>2019-05-17T10:20:41.187Z</time>
      </trkpt>
      <trkpt lat="39.312925" lon="-8.6098">
        <ele>8.0</ele>
        <time>2019-05-17T10:20:42.156Z</time>
      </trkpt>
      <trkpt lat="39.31294833" lon="-8.60974333">
        <ele>8.0</ele>
        <time>2019-05-17T10:20:43.182Z</time>
      </trkpt>
      <trkpt lat="39.31294833" lon="-8.60974333">
        <ele>8.0</ele>
        <time>2019-05-17T10:20:44.150Z</time>
      </trkpt>
      <trkpt lat="39.31296667" lon="-8.60969667">
        <ele>8.0</ele>
        <time>2019-05-17T10:20:45.181Z</time>
      </trkpt>
      <trkpt lat="39.31296667" lon="-8.60969667">
        <ele>8.0</ele>
        <time>2019-05-17T10:20:46.169Z</time>
      </trkpt>
      <trkpt lat="39.31298333" lon="-8.60965167">
        <ele>8.0</ele>
        <time>2019-05-17T10:20:47.181Z</time>
      </trkpt>
      <trkpt lat="39.31298333" lon="-8.60965167">
        <ele>8.0</ele>
        <time>2019-05-17T10:20:48.186Z</time>
      </trkpt>
      <trkpt lat="39.31299333" lon="-8.60961667">
        <ele>7.0</ele>
        <time>2019-05-17T10:20:49.161Z</time>
      </trkpt>
      <trkpt lat="39.31299333" lon="-8.60961667">
        <ele>7.0</ele>
        <time>2019-05-17T10:20:50.190Z</time>
      </trkpt>
      <trkpt lat="39.31301167" lon="-8.60958833">
        <ele>7.0</ele>
        <time>2019-05-17T10:20:51.162Z</time>
      </trkpt>
      <trkpt lat="39.31301333" lon="-8.60958667">
        <ele>7.0</ele>
        <time>2019-05-17T10:20:52.155Z</time>
      </trkpt>
      <trkpt lat="39.313015" lon="-8.60959">
        <ele>7.0</ele>
        <time>2019-05-17T10:20:53.184Z</time>
      </trkpt>
      <trkpt lat="39.313015" lon="-8.60959">
        <ele>7.0</ele>
        <time>2019-05-17T10:20:54.160Z</time>
      </trkpt>
      <trkpt lat="39.31301333" lon="-8.60959">
        <ele>7.0</ele>
        <time>2019-05-17T10:20:55.181Z</time>
      </trkpt>
      <trkpt lat="39.31301333" lon="-8.60959">
        <ele>7.0</ele>
        <time>2019-05-17T10:20:56.164Z</time>
      </trkpt>
      <trkpt lat="39.31301333" lon="-8.60959">
        <ele>7.0</ele>
        <time>2019-05-17T10:20:57.170Z</time>
      </trkpt>
      <trkpt lat="39.31301333" lon="-8.60959">
        <ele>7.0</ele>
        <time>2019-05-17T10:20:58.176Z</time>
      </trkpt>
      <trkpt lat="39.31301333" lon="-8.60959">
        <ele>7.0</ele>
        <time>2019-05-17T10:20:59.181Z</time>
      </trkpt>
      <trkpt lat="39.31301333" lon="-8.60959">
        <ele>7.0</ele>
        <time>2019-05-17T10:21:00.174Z</time>
      </trkpt>
      <trkpt lat="39.31301333" lon="-8.60959">
        <ele>7.0</ele>
        <time>2019-05-17T10:21:01.160Z</time>
      </trkpt>
      <trkpt lat="39.31301333" lon="-8.60959">
        <ele>7.0</ele>
        <time>2019-05-17T10:21:02.185Z</time>
      </trkpt>
      <trkpt lat="39.31301333" lon="-8.60959">
        <ele>7.0</ele>
        <time>2019-05-17T10:21:03.179Z</time>
      </trkpt>
      <trkpt lat="39.31301333" lon="-8.60959">
        <ele>7.0</ele>
        <time>2019-05-17T10:21:04.174Z</time>
      </trkpt>
      <trkpt lat="39.31302167" lon="-8.60955667">
        <ele>8.0</ele>
        <time>2019-05-17T10:21:05.181Z</time>
      </trkpt>
      <trkpt lat="39.31302167" lon="-8.60955667">
        <ele>8.0</ele>
        <time>2019-05-17T10:21:06.175Z</time>
      </trkpt>
      <trkpt lat="39.31304" lon="-8.60951333">
        <ele>8.0</ele>
        <time>2019-05-17T10:21:07.180Z</time>
      </trkpt>
      <trkpt lat="39.31304" lon="-8.60951333">
        <ele>8.0</ele>
        <time>2019-05-17T10:21:08.175Z</time>
      </trkpt>
      <trkpt lat="39.313065" lon="-8.60945333">
        <ele>8.0</ele>
        <time>2019-05-17T10:21:09.151Z</time>
      </trkpt>
      <trkpt lat="39.31307833" lon="-8.60942">
        <ele>9.0</ele>
        <time>2019-05-17T10:21:10.188Z</time>
      </trkpt>
      <trkpt lat="39.31307833" lon="-8.60942">
        <ele>9.0</ele>
        <time>2019-05-17T10:21:11.152Z</time>
      </trkpt>
      <trkpt lat="39.31310167" lon="-8.609365">
        <ele>8.0</ele>
        <time>2019-05-17T10:21:12.176Z</time>
      </trkpt>
      <trkpt lat="39.31311167" lon="-8.60934">
        <ele>8.0</ele>
        <time>2019-05-17T10:21:13.153Z</time>
      </trkpt>
      <trkpt lat="39.31311167" lon="-8.60934">
        <ele>8.0</ele>
        <time>2019-05-17T10:21:14.167Z</time>
      </trkpt>
      <trkpt lat="39.31313333" lon="-8.60929">
        <ele>8.0</ele>
        <time>2019-05-17T10:21:15.183Z</time>
      </trkpt>
      <trkpt lat="39.31313333" lon="-8.60929">
        <ele>8.0</ele>
        <time>2019-05-17T10:21:16.154Z</time>
      </trkpt>
      <trkpt lat="39.31316167" lon="-8.60923333">
        <ele>8.0</ele>
        <time>2019-05-17T10:21:17.169Z</time>
      </trkpt>
      <trkpt lat="39.31316167" lon="-8.60923333">
        <ele>8.0</ele>
        <time>2019-05-17T10:21:18.184Z</time>
      </trkpt>
      <trkpt lat="39.31319667" lon="-8.60917">
        <ele>8.0</ele>
        <time>2019-05-17T10:21:19.158Z</time>
      </trkpt>
      <trkpt lat="39.31319667" lon="-8.60917">
        <ele>8.0</ele>
        <time>2019-05-17T10:21:20.176Z</time>
      </trkpt>
      <trkpt lat="39.31323333" lon="-8.60910333">
        <ele>7.0</ele>
        <time>2019-05-17T10:21:21.156Z</time>
      </trkpt>
      <trkpt lat="39.31323333" lon="-8.60910333">
        <ele>7.0</ele>
        <time>2019-05-17T10:21:22.167Z</time>
      </trkpt>
      <trkpt lat="39.313265" lon="-8.60904">
        <ele>7.0</ele>
        <time>2019-05-17T10:21:23.182Z</time>
      </trkpt>
      <trkpt lat="39.313265" lon="-8.60904">
        <ele>7.0</ele>
        <time>2019-05-17T10:21:24.173Z</time>
      </trkpt>
      <trkpt lat="39.31329833" lon="-8.60898">
        <ele>6.0</ele>
        <time>2019-05-17T10:21:25.150Z</time>
      </trkpt>
      <trkpt lat="39.31329833" lon="-8.60898">
        <ele>6.0</ele>
        <time>2019-05-17T10:21:26.175Z</time>
      </trkpt>
      <trkpt lat="39.31333167" lon="-8.60891333">
        <ele>7.0</ele>
        <time>2019-05-17T10:21:27.152Z</time>
      </trkpt>
      <trkpt lat="39.31333167" lon="-8.60891333">
        <ele>7.0</ele>
        <time>2019-05-17T10:21:28.166Z</time>
      </trkpt>
      <trkpt lat="39.313365" lon="-8.60884333">
        <ele>7.0</ele>
        <time>2019-05-17T10:21:29.178Z</time>
      </trkpt>
      <trkpt lat="39.313365" lon="-8.60884333">
        <ele>7.0</ele>
        <time>2019-05-17T10:21:30.150Z</time>
      </trkpt>
      <trkpt lat="39.31340167" lon="-8.60878">
        <ele>7.0</ele>
        <time>2019-05-17T10:21:31.155Z</time>
      </trkpt>
      <trkpt lat="39.31342" lon="-8.60874833">
        <ele>7.0</ele>
        <time>2019-05-17T10:21:32.150Z</time>
      </trkpt>
      <trkpt lat="39.31342" lon="-8.60874833">
        <ele>7.0</ele>
        <time>2019-05-17T10:21:33.163Z</time>
      </trkpt>
      <trkpt lat="39.313455" lon="-8.60868">
        <ele>7.0</ele>
        <time>2019-05-17T10:21:34.176Z</time>
      </trkpt>
      <trkpt lat="39.31347333" lon="-8.60864667">
        <ele>7.0</ele>
        <time>2019-05-17T10:21:35.152Z</time>
      </trkpt>
      <trkpt lat="39.31347333" lon="-8.60864667">
        <ele>7.0</ele>
        <time>2019-05-17T10:21:36.165Z</time>
      </trkpt>
      <trkpt lat="39.31351" lon="-8.60858833">
        <ele>8.0</ele>
        <time>2019-05-17T10:21:37.172Z</time>
      </trkpt>
      <trkpt lat="39.31351" lon="-8.60858833">
        <ele>8.0</ele>
        <time>2019-05-17T10:21:38.179Z</time>
      </trkpt>
      <trkpt lat="39.31354167" lon="-8.60853333">
        <ele>8.0</ele>
        <time>2019-05-17T10:21:39.150Z</time>
      </trkpt>
      <trkpt lat="39.31354167" lon="-8.60853333">
        <ele>8.0</ele>
        <time>2019-05-17T10:21:40.168Z</time>
      </trkpt>
      <trkpt lat="39.31357833" lon="-8.60847833">
        <ele>7.0</ele>
        <time>2019-05-17T10:21:41.184Z</time>
      </trkpt>
      <trkpt lat="39.31357833" lon="-8.60847833">
        <ele>7.0</ele>
        <time>2019-05-17T10:21:42.155Z</time>
      </trkpt>
      <trkpt lat="39.31362" lon="-8.60842">
        <ele>7.0</ele>
        <time>2019-05-17T10:21:43.176Z</time>
      </trkpt>
      <trkpt lat="39.31362" lon="-8.60842">
        <ele>7.0</ele>
        <time>2019-05-17T10:21:44.186Z</time>
      </trkpt>
      <trkpt lat="39.31366" lon="-8.60835333">
        <ele>7.0</ele>
        <time>2019-05-17T10:21:45.162Z</time>
      </trkpt>
      <trkpt lat="39.31366" lon="-8.60835333">
        <ele>7.0</ele>
        <time>2019-05-17T10:21:46.183Z</time>
      </trkpt>
      <trkpt lat="39.31369333" lon="-8.60828833">
        <ele>7.0</ele>
        <time>2019-05-17T10:21:47.152Z</time>
      </trkpt>
      <trkpt lat="39.31369333" lon="-8.60828833">
        <ele>7.0</ele>
        <time>2019-05-17T10:21:48.176Z</time>
      </trkpt>
      <trkpt lat="39.31372" lon="-8.60821833">
        <ele>7.0</ele>
        <time>2019-05-17T10:21:49.154Z</time>
      </trkpt>
      <trkpt lat="39.31372" lon="-8.60821833">
        <ele>7.0</ele>
        <time>2019-05-17T10:21:50.170Z</time>
      </trkpt>
      <trkpt lat="39.31373667" lon="-8.608145">
        <ele>7.0</ele>
        <time>2019-05-17T10:21:51.152Z</time>
      </trkpt>
      <trkpt lat="39.31373667" lon="-8.608145">
        <ele>7.0</ele>
        <time>2019-05-17T10:21:52.163Z</time>
      </trkpt>
      <trkpt lat="39.31375" lon="-8.60807">
        <ele>7.0</ele>
        <time>2019-05-17T10:21:53.177Z</time>
      </trkpt>
      <trkpt lat="39.31375" lon="-8.60807">
        <ele>7.0</ele>
        <time>2019-05-17T10:21:54.188Z</time>
      </trkpt>
      <trkpt lat="39.31376333" lon="-8.60798833">
        <ele>7.0</ele>
        <time>2019-05-17T10:21:55.175Z</time>
      </trkpt>
      <trkpt lat="39.31376333" lon="-8.60798833">
        <ele>7.0</ele>
        <time>2019-05-17T10:21:56.180Z</time>
      </trkpt>
      <trkpt lat="39.31377167" lon="-8.60791167">
        <ele>7.0</ele>
        <time>2019-05-17T10:21:57.155Z</time>
      </trkpt>
      <trkpt lat="39.31377833" lon="-8.60787333">
        <ele>7.0</ele>
        <time>2019-05-17T10:21:58.178Z</time>
      </trkpt>
      <trkpt lat="39.313785" lon="-8.60783667">
        <ele>8.0</ele>
        <time>2019-05-17T10:21:59.162Z</time>
      </trkpt>
      <trkpt lat="39.313785" lon="-8.60783667">
        <ele>8.0</ele>
        <time>2019-05-17T10:22:00.188Z</time>
      </trkpt>
      <trkpt lat="39.31379833" lon="-8.60776667">
        <ele>8.0</ele>
        <time>2019-05-17T10:22:01.164Z</time>
      </trkpt>
      <trkpt lat="39.31379833" lon="-8.60776667">
        <ele>8.0</ele>
        <time>2019-05-17T10:22:02.179Z</time>
      </trkpt>
      <trkpt lat="39.31381" lon="-8.60769667">
        <ele>8.0</ele>
        <time>2019-05-17T10:22:03.150Z</time>
      </trkpt>
      <trkpt lat="39.31381" lon="-8.60769667">
        <ele>8.0</ele>
        <time>2019-05-17T10:22:04.183Z</time>
      </trkpt>
      <trkpt lat="39.31382167" lon="-8.60763">
        <ele>8.0</ele>
        <time>2019-05-17T10:22:05.179Z</time>
      </trkpt>
      <trkpt lat="39.31382167" lon="-8.60763">
        <ele>8.0</ele>
        <time>2019-05-17T10:22:06.173Z</time>
      </trkpt>
      <trkpt lat="39.31383" lon="-8.60756833">
        <ele>7.0</ele>
        <time>2019-05-17T10:22:07.186Z</time>
      </trkpt>
      <trkpt lat="39.31383333" lon="-8.60753333">
        <ele>7.0</ele>
        <time>2019-05-17T10:22:08.174Z</time>
      </trkpt>
      <trkpt lat="39.31383333" lon="-8.60753333">
        <ele>7.0</ele>
        <time>2019-05-17T10:22:09.183Z</time>
      </trkpt>
      <trkpt lat="39.313845" lon="-8.607465">
        <ele>7.0</ele>
        <time>2019-05-17T10:22:10.189Z</time>
      </trkpt>
      <trkpt lat="39.31385167" lon="-8.60743333">
        <ele>7.0</ele>
        <time>2019-05-17T10:22:11.190Z</time>
      </trkpt>
      <trkpt lat="39.31385167" lon="-8.60743333">
        <ele>7.0</ele>
        <time>2019-05-17T10:22:12.173Z</time>
      </trkpt>
      <trkpt lat="39.313855" lon="-8.607375">
        <ele>7.0</ele>
        <time>2019-05-17T10:22:13.187Z</time>
      </trkpt>
      <trkpt lat="39.31385333" lon="-8.60735167">
        <ele>7.0</ele>
        <time>2019-05-17T10:22:14.163Z</time>
      </trkpt>
      <trkpt lat="39.31385333" lon="-8.60735167">
        <ele>7.0</ele>
        <time>2019-05-17T10:22:15.172Z</time>
      </trkpt>
      <trkpt lat="39.31384" lon="-8.6073">
        <ele>8.0</ele>
        <time>2019-05-17T10:22:16.152Z</time>
      </trkpt>
      <trkpt lat="39.31383333" lon="-8.60727167">
        <ele>8.0</ele>
        <time>2019-05-17T10:22:17.170Z</time>
      </trkpt>
      <trkpt lat="39.31383333" lon="-8.60727167">
        <ele>8.0</ele>
        <time>2019-05-17T10:22:18.179Z</time>
      </trkpt>
      <trkpt lat="39.31382167" lon="-8.60721333">
        <ele>8.0</ele>
        <time>2019-05-17T10:22:19.151Z</time>
      </trkpt>
      <trkpt lat="39.31382167" lon="-8.60721333">
        <ele>8.0</ele>
        <time>2019-05-17T10:22:20.159Z</time>
      </trkpt>
      <trkpt lat="39.31381667" lon="-8.60715167">
        <ele>8.0</ele>
        <time>2019-05-17T10:22:21.175Z</time>
      </trkpt>
      <trkpt lat="39.31381667" lon="-8.60715167">
        <ele>8.0</ele>
        <time>2019-05-17T10:22:22.184Z</time>
      </trkpt>
      <trkpt lat="39.31382" lon="-8.60709">
        <ele>8.0</ele>
        <time>2019-05-17T10:22:23.159Z</time>
      </trkpt>
      <trkpt lat="39.31382" lon="-8.60709">
        <ele>8.0</ele>
        <time>2019-05-17T10:22:24.172Z</time>
      </trkpt>
      <trkpt lat="39.31383" lon="-8.60704333">
        <ele>8.0</ele>
        <time>2019-05-17T10:22:25.189Z</time>
      </trkpt>
      <trkpt lat="39.31383" lon="-8.60704333">
        <ele>8.0</ele>
        <time>2019-05-17T10:22:26.165Z</time>
      </trkpt>
      <trkpt lat="39.31384667" lon="-8.60701333">
        <ele>8.0</ele>
        <time>2019-05-17T10:22:27.179Z</time>
      </trkpt>
      <trkpt lat="39.31386167" lon="-8.607">
        <ele>8.0</ele>
        <time>2019-05-17T10:22:28.150Z</time>
      </trkpt>
      <trkpt lat="39.31388167" lon="-8.606985">
        <ele>8.0</ele>
        <time>2019-05-17T10:22:29.181Z</time>
      </trkpt>
      <trkpt lat="39.31388167" lon="-8.606985">
        <ele>8.0</ele>
        <time>2019-05-17T10:22:30.163Z</time>
      </trkpt>
      <trkpt lat="39.31391833" lon="-8.60694667">
        <ele>8.0</ele>
        <time>2019-05-17T10:22:31.183Z</time>
      </trkpt>
      <trkpt lat="39.31391833" lon="-8.60694667">
        <ele>8.0</ele>
        <time>2019-05-17T10:22:32.157Z</time>
      </trkpt>
      <trkpt lat="39.31395167" lon="-8.60690833">
        <ele>9.0</ele>
        <time>2019-05-17T10:22:33.186Z</time>
      </trkpt>
      <trkpt lat="39.31395167" lon="-8.60690833">
        <ele>9.0</ele>
        <time>2019-05-17T10:22:34.152Z</time>
      </trkpt>
      <trkpt lat="39.31398" lon="-8.60687">
        <ele>9.0</ele>
        <time>2019-05-17T10:22:35.177Z</time>
      </trkpt>
      <trkpt lat="39.31398" lon="-8.60687">
        <ele>9.0</ele>
        <time>2019-05-17T10:22:36.150Z</time>
      </trkpt>
      <trkpt lat="39.314005" lon="-8.60683167">
        <ele>8.0</ele>
        <time>2019-05-17T10:22:37.166Z</time>
      </trkpt>
      <trkpt lat="39.314005" lon="-8.60683167">
        <ele>8.0</ele>
        <time>2019-05-17T10:22:38.150Z</time>
      </trkpt>
      <trkpt lat="39.31403" lon="-8.606795">
        <ele>8.0</ele>
        <time>2019-05-17T10:22:39.170Z</time>
      </trkpt>
      <trkpt lat="39.31403" lon="-8.606795">
        <ele>8.0</ele>
        <time>2019-05-17T10:22:40.160Z</time>
      </trkpt>
      <trkpt lat="39.31405667" lon="-8.60674667">
        <ele>8.0</ele>
        <time>2019-05-17T10:22:41.177Z</time>
      </trkpt>
      <trkpt lat="39.31405667" lon="-8.60674667">
        <ele>8.0</ele>
        <time>2019-05-17T10:22:42.151Z</time>
      </trkpt>
      <trkpt lat="39.31407667" lon="-8.606695">
        <ele>8.0</ele>
        <time>2019-05-17T10:22:43.165Z</time>
      </trkpt>
      <trkpt lat="39.31407667" lon="-8.606695">
        <ele>8.0</ele>
        <time>2019-05-17T10:22:44.175Z</time>
      </trkpt>
      <trkpt lat="39.31409" lon="-8.60665333">
        <ele>9.0</ele>
        <time>2019-05-17T10:22:45.150Z</time>
      </trkpt>
      <trkpt lat="39.314095" lon="-8.60662667">
        <ele>8.0</ele>
        <time>2019-05-17T10:22:46.187Z</time>
      </trkpt>
      <trkpt lat="39.31410333" lon="-8.6066">
        <ele>8.0</ele>
        <time>2019-05-17T10:22:47.162Z</time>
      </trkpt>
      <trkpt lat="39.31410333" lon="-8.6066">
        <ele>8.0</ele>
        <time>2019-05-17T10:22:48.174Z</time>
      </trkpt>
      <trkpt lat="39.314135" lon="-8.60655667">
        <ele>8.0</ele>
        <time>2019-05-17T10:22:49.185Z</time>
      </trkpt>
      <trkpt lat="39.314135" lon="-8.60655667">
        <ele>8.0</ele>
        <time>2019-05-17T10:22:50.155Z</time>
      </trkpt>
      <trkpt lat="39.314175" lon="-8.606515">
        <ele>8.0</ele>
        <time>2019-05-17T10:22:51.168Z</time>
      </trkpt>
      <trkpt lat="39.314175" lon="-8.606515">
        <ele>8.0</ele>
        <time>2019-05-17T10:22:52.188Z</time>
      </trkpt>
      <trkpt lat="39.31420667" lon="-8.60647">
        <ele>8.0</ele>
        <time>2019-05-17T10:22:53.162Z</time>
      </trkpt>
      <trkpt lat="39.31420667" lon="-8.60647">
        <ele>8.0</ele>
        <time>2019-05-17T10:22:54.174Z</time>
      </trkpt>
      <trkpt lat="39.31423667" lon="-8.60642167">
        <ele>7.0</ele>
        <time>2019-05-17T10:22:55.153Z</time>
      </trkpt>
      <trkpt lat="39.31423667" lon="-8.60642167">
        <ele>7.0</ele>
        <time>2019-05-17T10:22:56.161Z</time>
      </trkpt>
      <trkpt lat="39.31426667" lon="-8.606355">
        <ele>7.0</ele>
        <time>2019-05-17T10:22:57.185Z</time>
      </trkpt>
      <trkpt lat="39.31426667" lon="-8.606355">
        <ele>7.0</ele>
        <time>2019-05-17T10:22:58.158Z</time>
      </trkpt>
      <trkpt lat="39.31428833" lon="-8.60629">
        <ele>7.0</ele>
        <time>2019-05-17T10:22:59.183Z</time>
      </trkpt>
      <trkpt lat="39.31428833" lon="-8.60629">
        <ele>7.0</ele>
        <time>2019-05-17T10:23:00.151Z</time>
      </trkpt>
      <trkpt lat="39.31430667" lon="-8.60622667">
        <ele>6.0</ele>
        <time>2019-05-17T10:23:01.184Z</time>
      </trkpt>
      <trkpt lat="39.31430667" lon="-8.60622667">
        <ele>6.0</ele>
        <time>2019-05-17T10:23:02.166Z</time>
      </trkpt>
      <trkpt lat="39.31432667" lon="-8.606165">
        <ele>6.0</ele>
        <time>2019-05-17T10:23:03.183Z</time>
      </trkpt>
      <trkpt lat="39.31432667" lon="-8.606165">
        <ele>6.0</ele>
        <time>2019-05-17T10:23:04.166Z</time>
      </trkpt>
      <trkpt lat="39.31434667" lon="-8.606105">
        <ele>6.0</ele>
        <time>2019-05-17T10:23:05.180Z</time>
      </trkpt>
      <trkpt lat="39.31434667" lon="-8.606105">
        <ele>6.0</ele>
        <time>2019-05-17T10:23:06.187Z</time>
      </trkpt>
      <trkpt lat="39.314355" lon="-8.60605333">
        <ele>6.0</ele>
        <time>2019-05-17T10:23:07.155Z</time>
      </trkpt>
      <trkpt lat="39.314355" lon="-8.60605333">
        <ele>6.0</ele>
        <time>2019-05-17T10:23:08.181Z</time>
      </trkpt>
      <trkpt lat="39.31435667" lon="-8.606">
        <ele>7.0</ele>
        <time>2019-05-17T10:23:09.174Z</time>
      </trkpt>
      <trkpt lat="39.31435667" lon="-8.606">
        <ele>7.0</ele>
        <time>2019-05-17T10:23:10.171Z</time>
      </trkpt>
      <trkpt lat="39.31435833" lon="-8.605945">
        <ele>7.0</ele>
        <time>2019-05-17T10:23:11.187Z</time>
      </trkpt>
      <trkpt lat="39.31435833" lon="-8.605945">
        <ele>7.0</ele>
        <time>2019-05-17T10:23:12.166Z</time>
      </trkpt>
      <trkpt lat="39.31435167" lon="-8.60589">
        <ele>7.0</ele>
        <time>2019-05-17T10:23:13.183Z</time>
      </trkpt>
      <trkpt lat="39.31435167" lon="-8.60589">
        <ele>7.0</ele>
        <time>2019-05-17T10:23:14.167Z</time>
      </trkpt>
      <trkpt lat="39.314345" lon="-8.60583">
        <ele>7.0</ele>
        <time>2019-05-17T10:23:15.181Z</time>
      </trkpt>
      <trkpt lat="39.314345" lon="-8.60583">
        <ele>7.0</ele>
        <time>2019-05-17T10:23:16.167Z</time>
      </trkpt>
      <trkpt lat="39.31433" lon="-8.60577">
        <ele>7.0</ele>
        <time>2019-05-17T10:23:17.182Z</time>
      </trkpt>
      <trkpt lat="39.31433" lon="-8.60577">
        <ele>7.0</ele>
        <time>2019-05-17T10:23:18.155Z</time>
      </trkpt>
      <trkpt lat="39.31431" lon="-8.60571833">
        <ele>7.0</ele>
        <time>2019-05-17T10:23:19.168Z</time>
      </trkpt>
      <trkpt lat="39.31431" lon="-8.60571833">
        <ele>7.0</ele>
        <time>2019-05-17T10:23:20.178Z</time>
      </trkpt>
      <trkpt lat="39.31428167" lon="-8.60566667">
        <ele>7.0</ele>
        <time>2019-05-17T10:23:21.150Z</time>
      </trkpt>
      <trkpt lat="39.31428167" lon="-8.60566667">
        <ele>7.0</ele>
        <time>2019-05-17T10:23:22.167Z</time>
      </trkpt>
      <trkpt lat="39.31425667" lon="-8.60561167">
        <ele>8.0</ele>
        <time>2019-05-17T10:23:23.180Z</time>
      </trkpt>
      <trkpt lat="39.31425667" lon="-8.60561167">
        <ele>8.0</ele>
        <time>2019-05-17T10:23:24.189Z</time>
      </trkpt>
      <trkpt lat="39.31423833" lon="-8.605575">
        <ele>8.0</ele>
        <time>2019-05-17T10:23:25.158Z</time>
      </trkpt>
      <trkpt lat="39.31423833" lon="-8.605575">
        <ele>8.0</ele>
        <time>2019-05-17T10:23:26.178Z</time>
      </trkpt>
      <trkpt lat="39.31424" lon="-8.60557">
        <ele>8.0</ele>
        <time>2019-05-17T10:23:27.160Z</time>
      </trkpt>
      <trkpt lat="39.31424" lon="-8.60557">
        <ele>8.0</ele>
        <time>2019-05-17T10:23:28.170Z</time>
      </trkpt>
      <trkpt lat="39.31423833" lon="-8.60557">
        <ele>8.0</ele>
        <time>2019-05-17T10:23:29.182Z</time>
      </trkpt>
      <trkpt lat="39.31423833" lon="-8.60557">
        <ele>8.0</ele>
        <time>2019-05-17T10:23:30.151Z</time>
      </trkpt>
      <trkpt lat="39.31423833" lon="-8.60557">
        <ele>8.0</ele>
        <time>2019-05-17T10:23:31.160Z</time>
      </trkpt>
      <trkpt lat="39.31423833" lon="-8.60557">
        <ele>8.0</ele>
        <time>2019-05-17T10:23:32.150Z</time>
      </trkpt>
      <trkpt lat="39.31423833" lon="-8.60557">
        <ele>8.0</ele>
        <time>2019-05-17T10:23:33.179Z</time>
      </trkpt>
      <trkpt lat="39.31423833" lon="-8.60557">
        <ele>8.0</ele>
        <time>2019-05-17T10:23:34.174Z</time>
      </trkpt>
      <trkpt lat="39.31423833" lon="-8.60557">
        <ele>8.0</ele>
        <time>2019-05-17T10:23:35.182Z</time>
      </trkpt>
      <trkpt lat="39.31423833" lon="-8.60557">
        <ele>8.0</ele>
        <time>2019-05-17T10:23:36.175Z</time>
      </trkpt>
      <trkpt lat="39.31423833" lon="-8.60557">
        <ele>8.0</ele>
        <time>2019-05-17T10:23:37.159Z</time>
      </trkpt>
      <trkpt lat="39.31423833" lon="-8.60557">
        <ele>8.0</ele>
        <time>2019-05-17T10:23:38.183Z</time>
      </trkpt>
      <trkpt lat="39.31423833" lon="-8.60557">
        <ele>8.0</ele>
        <time>2019-05-17T10:23:39.180Z</time>
      </trkpt>
      <trkpt lat="39.31423833" lon="-8.60557">
        <ele>8.0</ele>
        <time>2019-05-17T10:23:40.174Z</time>
      </trkpt>
      <trkpt lat="39.31423833" lon="-8.60557">
        <ele>8.0</ele>
        <time>2019-05-17T10:23:41.162Z</time>
      </trkpt>
      <trkpt lat="39.31423833" lon="-8.60557">
        <ele>8.0</ele>
        <time>2019-05-17T10:23:42.188Z</time>
      </trkpt>
      <trkpt lat="39.31423833" lon="-8.60557">
        <ele>8.0</ele>
        <time>2019-05-17T10:23:43.177Z</time>
      </trkpt>
      <trkpt lat="39.31423833" lon="-8.60557">
        <ele>8.0</ele>
        <time>2019-05-17T10:23:44.174Z</time>
      </trkpt>
      <trkpt lat="39.31423833" lon="-8.60557">
        <ele>8.0</ele>
        <time>2019-05-17T10:23:45.180Z</time>
      </trkpt>
      <trkpt lat="39.31423833" lon="-8.60557">
        <ele>8.0</ele>
        <time>2019-05-17T10:23:46.175Z</time>
      </trkpt>
      <trkpt lat="39.31423833" lon="-8.60557">
        <ele>8.0</ele>
        <time>2019-05-17T10:23:47.162Z</time>
      </trkpt>
      <trkpt lat="39.31423833" lon="-8.60557">
        <ele>8.0</ele>
        <time>2019-05-17T10:23:48.187Z</time>
      </trkpt>
      <trkpt lat="39.31423833" lon="-8.60557">
        <ele>8.0</ele>
        <time>2019-05-17T10:23:49.178Z</time>
      </trkpt>
      <trkpt lat="39.31423833" lon="-8.60557">
        <ele>8.0</ele>
        <time>2019-05-17T10:23:50.175Z</time>
      </trkpt>
      <trkpt lat="39.31423833" lon="-8.60557">
        <ele>8.0</ele>
        <time>2019-05-17T10:23:51.180Z</time>
      </trkpt>
      <trkpt lat="39.31423833" lon="-8.60557">
        <ele>8.0</ele>
        <time>2019-05-17T10:23:52.175Z</time>
      </trkpt>
      <trkpt lat="39.31423833" lon="-8.60557">
        <ele>8.0</ele>
        <time>2019-05-17T10:23:53.182Z</time>
      </trkpt>
      <trkpt lat="39.31423833" lon="-8.60557">
        <ele>8.0</ele>
        <time>2019-05-17T10:23:54.175Z</time>
      </trkpt>
      <trkpt lat="39.31423167" lon="-8.605575">
        <ele>8.0</ele>
        <time>2019-05-17T10:23:55.180Z</time>
      </trkpt>
      <trkpt lat="39.31421667" lon="-8.60557333">
        <ele>8.0</ele>
        <time>2019-05-17T10:23:56.180Z</time>
      </trkpt>
      <trkpt lat="39.31421667" lon="-8.60557333">
        <ele>8.0</ele>
        <time>2019-05-17T10:23:57.174Z</time>
      </trkpt>
      <trkpt lat="39.314185" lon="-8.60559">
        <ele>8.0</ele>
        <time>2019-05-17T10:23:58.179Z</time>
      </trkpt>
      <trkpt lat="39.31416667" lon="-8.60559833">
        <ele>8.0</ele>
        <time>2019-05-17T10:23:59.182Z</time>
      </trkpt>
      <trkpt lat="39.31414667" lon="-8.6056">
        <ele>8.0</ele>
        <time>2019-05-17T10:24:00.180Z</time>
      </trkpt>
      <trkpt lat="39.31414667" lon="-8.6056">
        <ele>8.0</ele>
        <time>2019-05-17T10:24:01.181Z</time>
      </trkpt>
      <trkpt lat="39.31410167" lon="-8.60560833">
        <ele>9.0</ele>
        <time>2019-05-17T10:24:02.150Z</time>
      </trkpt>
      <trkpt lat="39.31410167" lon="-8.60560833">
        <ele>9.0</ele>
        <time>2019-05-17T10:24:03.152Z</time>
      </trkpt>
      <trkpt lat="39.31405167" lon="-8.60561833">
        <ele>9.0</ele>
        <time>2019-05-17T10:24:04.169Z</time>
      </trkpt>
      <trkpt lat="39.31402833" lon="-8.60562167">
        <ele>9.0</ele>
        <time>2019-05-17T10:24:05.161Z</time>
      </trkpt>
      <trkpt lat="39.31402833" lon="-8.60562167">
        <ele>9.0</ele>
        <time>2019-05-17T10:24:06.175Z</time>
      </trkpt>
      <trkpt lat="39.31398" lon="-8.60562">
        <ele>8.0</ele>
        <time>2019-05-17T10:24:07.150Z</time>
      </trkpt>
      <trkpt lat="39.31398" lon="-8.60562">
        <ele>8.0</ele>
        <time>2019-05-17T10:24:08.161Z</time>
      </trkpt>
      <trkpt lat="39.313925" lon="-8.60562">
        <ele>8.0</ele>
        <time>2019-05-17T10:24:09.152Z</time>
      </trkpt>
      <trkpt lat="39.313925" lon="-8.60562">
        <ele>8.0</ele>
        <time>2019-05-17T10:24:10.155Z</time>
      </trkpt>
      <trkpt lat="39.313865" lon="-8.60561167">
        <ele>8.0</ele>
        <time>2019-05-17T10:24:11.167Z</time>
      </trkpt>
      <trkpt lat="39.313865" lon="-8.60561167">
        <ele>8.0</ele>
        <time>2019-05-17T10:24:12.181Z</time>
      </trkpt>
      <trkpt lat="39.31379833" lon="-8.60560833">
        <ele>8.0</ele>
        <time>2019-05-17T10:24:13.164Z</time>
      </trkpt>
      <trkpt lat="39.31376333" lon="-8.60560833">
        <ele>8.0</ele>
        <time>2019-05-17T10:24:14.161Z</time>
      </trkpt>
      <trkpt lat="39.31376333" lon="-8.60560833">
        <ele>8.0</ele>
        <time>2019-05-17T10:24:15.172Z</time>
      </trkpt>
      <trkpt lat="39.313695" lon="-8.60561167">
        <ele>8.0</ele>
        <time>2019-05-17T10:24:16.165Z</time>
      </trkpt>
      <trkpt lat="39.31366" lon="-8.60561333">
        <ele>8.0</ele>
        <time>2019-05-17T10:24:17.177Z</time>
      </trkpt>
      <trkpt lat="39.31366" lon="-8.60561333">
        <ele>8.0</ele>
        <time>2019-05-17T10:24:18.188Z</time>
      </trkpt>
      <trkpt lat="39.31359" lon="-8.60562167">
        <ele>7.0</ele>
        <time>2019-05-17T10:24:19.162Z</time>
      </trkpt>
      <trkpt lat="39.31359" lon="-8.60562167">
        <ele>7.0</ele>
        <time>2019-05-17T10:24:20.177Z</time>
      </trkpt>
      <trkpt lat="39.31352333" lon="-8.60563333">
        <ele>7.0</ele>
        <time>2019-05-17T10:24:21.151Z</time>
      </trkpt>
      <trkpt lat="39.31349167" lon="-8.60564333">
        <ele>7.0</ele>
        <time>2019-05-17T10:24:22.317Z</time>
      </trkpt>
      <trkpt lat="39.31345833" lon="-8.605655">
        <ele>7.0</ele>
        <time>2019-05-17T10:24:23.157Z</time>
      </trkpt>
      <trkpt lat="39.31345833" lon="-8.605655">
        <ele>7.0</ele>
        <time>2019-05-17T10:24:24.167Z</time>
      </trkpt>
      <trkpt lat="39.313395" lon="-8.60567333">
        <ele>7.0</ele>
        <time>2019-05-17T10:24:25.186Z</time>
      </trkpt>
      <trkpt lat="39.313395" lon="-8.60567333">
        <ele>7.0</ele>
        <time>2019-05-17T10:24:26.165Z</time>
      </trkpt>
      <trkpt lat="39.313325" lon="-8.60568667">
        <ele>7.0</ele>
        <time>2019-05-17T10:24:27.179Z</time>
      </trkpt>
      <trkpt lat="39.31329" lon="-8.605695">
        <ele>7.0</ele>
        <time>2019-05-17T10:24:28.168Z</time>
      </trkpt>
      <trkpt lat="39.31325667" lon="-8.605705">
        <ele>7.0</ele>
        <time>2019-05-17T10:24:29.162Z</time>
      </trkpt>
      <trkpt lat="39.31325667" lon="-8.605705">
        <ele>7.0</ele>
        <time>2019-05-17T10:24:30.175Z</time>
      </trkpt>
      <trkpt lat="39.31319167" lon="-8.60572167">
        <ele>7.0</ele>
        <time>2019-05-17T10:24:31.186Z</time>
      </trkpt>
      <trkpt lat="39.31319167" lon="-8.60572167">
        <ele>7.0</ele>
        <time>2019-05-17T10:24:32.154Z</time>
      </trkpt>
      <trkpt lat="39.31312667" lon="-8.60573833">
        <ele>7.0</ele>
        <time>2019-05-17T10:24:33.166Z</time>
      </trkpt>
      <trkpt lat="39.31312667" lon="-8.60573833">
        <ele>7.0</ele>
        <time>2019-05-17T10:24:34.172Z</time>
      </trkpt>
      <trkpt lat="39.31306333" lon="-8.60575667">
        <ele>7.0</ele>
        <time>2019-05-17T10:24:35.150Z</time>
      </trkpt>
      <trkpt lat="39.31306333" lon="-8.60575667">
        <ele>7.0</ele>
        <time>2019-05-17T10:24:36.182Z</time>
      </trkpt>
      <trkpt lat="39.312995" lon="-8.60577833">
        <ele>7.0</ele>
        <time>2019-05-17T10:24:37.190Z</time>
      </trkpt>
      <trkpt lat="39.312995" lon="-8.60577833">
        <ele>7.0</ele>
        <time>2019-05-17T10:24:38.177Z</time>
      </trkpt>
      <trkpt lat="39.312925" lon="-8.60580167">
        <ele>7.0</ele>
        <time>2019-05-17T10:24:39.153Z</time>
      </trkpt>
      <trkpt lat="39.312925" lon="-8.60580167">
        <ele>7.0</ele>
        <time>2019-05-17T10:24:40.167Z</time>
      </trkpt>
      <trkpt lat="39.31285333" lon="-8.605825">
        <ele>7.0</ele>
        <time>2019-05-17T10:24:41.151Z</time>
      </trkpt>
      <trkpt lat="39.31285333" lon="-8.605825">
        <ele>7.0</ele>
        <time>2019-05-17T10:24:42.164Z</time>
      </trkpt>
      <trkpt lat="39.312785" lon="-8.60584833">
        <ele>7.0</ele>
        <time>2019-05-17T10:24:43.180Z</time>
      </trkpt>
      <trkpt lat="39.312785" lon="-8.60584833">
        <ele>7.0</ele>
        <time>2019-05-17T10:24:44.155Z</time>
      </trkpt>
      <trkpt lat="39.31272167" lon="-8.60586833">
        <ele>7.0</ele>
        <time>2019-05-17T10:24:45.170Z</time>
      </trkpt>
      <trkpt lat="39.31272167" lon="-8.60586833">
        <ele>7.0</ele>
        <time>2019-05-17T10:24:46.177Z</time>
      </trkpt>
      <trkpt lat="39.31266167" lon="-8.60589">
        <ele>7.0</ele>
        <time>2019-05-17T10:24:47.160Z</time>
      </trkpt>
      <trkpt lat="39.31266167" lon="-8.60589">
        <ele>7.0</ele>
        <time>2019-05-17T10:24:48.183Z</time>
      </trkpt>
      <trkpt lat="39.3126" lon="-8.60591">
        <ele>7.0</ele>
        <time>2019-05-17T10:24:49.170Z</time>
      </trkpt>
      <trkpt lat="39.3126" lon="-8.60591">
        <ele>7.0</ele>
        <time>2019-05-17T10:24:50.174Z</time>
      </trkpt>
      <trkpt lat="39.31253833" lon="-8.605935">
        <ele>7.0</ele>
        <time>2019-05-17T10:24:51.187Z</time>
      </trkpt>
      <trkpt lat="39.31253833" lon="-8.605935">
        <ele>7.0</ele>
        <time>2019-05-17T10:24:52.156Z</time>
      </trkpt>
      <trkpt lat="39.31248" lon="-8.60596167">
        <ele>7.0</ele>
        <time>2019-05-17T10:24:53.189Z</time>
      </trkpt>
      <trkpt lat="39.31245167" lon="-8.60597">
        <ele>7.0</ele>
        <time>2019-05-17T10:24:54.161Z</time>
      </trkpt>
      <trkpt lat="39.31242167" lon="-8.60598167">
        <ele>7.0</ele>
        <time>2019-05-17T10:24:55.180Z</time>
      </trkpt>
      <trkpt lat="39.31242167" lon="-8.60598167">
        <ele>7.0</ele>
        <time>2019-05-17T10:24:56.151Z</time>
      </trkpt>
      <trkpt lat="39.31236333" lon="-8.60600667">
        <ele>7.0</ele>
        <time>2019-05-17T10:24:57.169Z</time>
      </trkpt>
      <trkpt lat="39.31236333" lon="-8.60600667">
        <ele>7.0</ele>
        <time>2019-05-17T10:24:58.167Z</time>
      </trkpt>
      <trkpt lat="39.31230667" lon="-8.60603333">
        <ele>7.0</ele>
        <time>2019-05-17T10:24:59.153Z</time>
      </trkpt>
      <trkpt lat="39.31230667" lon="-8.60603333">
        <ele>7.0</ele>
        <time>2019-05-17T10:25:00.163Z</time>
      </trkpt>
      <trkpt lat="39.31225167" lon="-8.60605833">
        <ele>8.0</ele>
        <time>2019-05-17T10:25:01.188Z</time>
      </trkpt>
      <trkpt lat="39.31225167" lon="-8.60605833">
        <ele>8.0</ele>
        <time>2019-05-17T10:25:02.167Z</time>
      </trkpt>
      <trkpt lat="39.31220333" lon="-8.60608667">
        <ele>8.0</ele>
        <time>2019-05-17T10:25:03.186Z</time>
      </trkpt>
      <trkpt lat="39.31220333" lon="-8.60608667">
        <ele>8.0</ele>
        <time>2019-05-17T10:25:04.168Z</time>
      </trkpt>
      <trkpt lat="39.31215" lon="-8.60611">
        <ele>9.0</ele>
        <time>2019-05-17T10:25:05.190Z</time>
      </trkpt>
      <trkpt lat="39.31215" lon="-8.60611">
        <ele>9.0</ele>
        <time>2019-05-17T10:25:06.169Z</time>
      </trkpt>
      <trkpt lat="39.31209" lon="-8.60611833">
        <ele>9.0</ele>
        <time>2019-05-17T10:25:07.188Z</time>
      </trkpt>
      <trkpt lat="39.31209" lon="-8.60611833">
        <ele>9.0</ele>
        <time>2019-05-17T10:25:08.158Z</time>
      </trkpt>
      <trkpt lat="39.31202833" lon="-8.60610167">
        <ele>9.0</ele>
        <time>2019-05-17T10:25:09.189Z</time>
      </trkpt>
      <trkpt lat="39.31202833" lon="-8.60610167">
        <ele>9.0</ele>
        <time>2019-05-17T10:25:10.155Z</time>
      </trkpt>
      <trkpt lat="39.31198" lon="-8.60605667">
        <ele>9.0</ele>
        <time>2019-05-17T10:25:11.166Z</time>
      </trkpt>
      <trkpt lat="39.31198" lon="-8.60605667">
        <ele>9.0</ele>
        <time>2019-05-17T10:25:12.177Z</time>
      </trkpt>
      <trkpt lat="39.31195667" lon="-8.60598667">
        <ele>9.0</ele>
        <time>2019-05-17T10:25:13.157Z</time>
      </trkpt>
      <trkpt lat="39.31195667" lon="-8.60598667">
        <ele>9.0</ele>
        <time>2019-05-17T10:25:14.182Z</time>
      </trkpt>
      <trkpt lat="39.31195333" lon="-8.60590833">
        <ele>9.0</ele>
        <time>2019-05-17T10:25:15.170Z</time>
      </trkpt>
      <trkpt lat="39.31195333" lon="-8.60590833">
        <ele>9.0</ele>
        <time>2019-05-17T10:25:16.160Z</time>
      </trkpt>
      <trkpt lat="39.31196667" lon="-8.60582833">
        <ele>9.0</ele>
        <time>2019-05-17T10:25:17.179Z</time>
      </trkpt>
      <trkpt lat="39.31196667" lon="-8.60582833">
        <ele>9.0</ele>
        <time>2019-05-17T10:25:18.186Z</time>
      </trkpt>
      <trkpt lat="39.31198" lon="-8.60574667">
        <ele>8.0</ele>
        <time>2019-05-17T10:25:19.164Z</time>
      </trkpt>
      <trkpt lat="39.31198" lon="-8.60574667">
        <ele>8.0</ele>
        <time>2019-05-17T10:25:20.182Z</time>
      </trkpt>
      <trkpt lat="39.31200333" lon="-8.60566667">
        <ele>8.0</ele>
        <time>2019-05-17T10:25:21.156Z</time>
      </trkpt>
      <trkpt lat="39.31200333" lon="-8.60566667">
        <ele>8.0</ele>
        <time>2019-05-17T10:25:22.170Z</time>
      </trkpt>
      <trkpt lat="39.31202333" lon="-8.605585">
        <ele>8.0</ele>
        <time>2019-05-17T10:25:23.187Z</time>
      </trkpt>
      <trkpt lat="39.31202333" lon="-8.605585">
        <ele>8.0</ele>
        <time>2019-05-17T10:25:24.177Z</time>
      </trkpt>
      <trkpt lat="39.312045" lon="-8.60550667">
        <ele>8.0</ele>
        <time>2019-05-17T10:25:25.189Z</time>
      </trkpt>
      <trkpt lat="39.312055" lon="-8.60547167">
        <ele>8.0</ele>
        <time>2019-05-17T10:25:26.188Z</time>
      </trkpt>
      <trkpt lat="39.312055" lon="-8.60547167">
        <ele>8.0</ele>
        <time>2019-05-17T10:25:27.154Z</time>
      </trkpt>
      <trkpt lat="39.312075" lon="-8.60540333">
        <ele>8.0</ele>
        <time>2019-05-17T10:25:28.158Z</time>
      </trkpt>
      <trkpt lat="39.31208667" lon="-8.60537">
        <ele>8.0</ele>
        <time>2019-05-17T10:25:29.172Z</time>
      </trkpt>
      <trkpt lat="39.31208667" lon="-8.60537">
        <ele>8.0</ele>
        <time>2019-05-17T10:25:30.179Z</time>
      </trkpt>
      <trkpt lat="39.31210667" lon="-8.605305">
        <ele>9.0</ele>
        <time>2019-05-17T10:25:31.152Z</time>
      </trkpt>
      <trkpt lat="39.31210667" lon="-8.605305">
        <ele>9.0</ele>
        <time>2019-05-17T10:25:32.163Z</time>
      </trkpt>
      <trkpt lat="39.31212" lon="-8.605235">
        <ele>8.0</ele>
        <time>2019-05-17T10:25:33.170Z</time>
      </trkpt>
      <trkpt lat="39.31212" lon="-8.605235">
        <ele>8.0</ele>
        <time>2019-05-17T10:25:34.169Z</time>
      </trkpt>
      <trkpt lat="39.31213167" lon="-8.60517">
        <ele>8.0</ele>
        <time>2019-05-17T10:25:35.191Z</time>
      </trkpt>
      <trkpt lat="39.31213167" lon="-8.60517">
        <ele>8.0</ele>
        <time>2019-05-17T10:25:36.172Z</time>
      </trkpt>
      <trkpt lat="39.31214833" lon="-8.605105">
        <ele>7.0</ele>
        <time>2019-05-17T10:25:37.167Z</time>
      </trkpt>
      <trkpt lat="39.31214833" lon="-8.605105">
        <ele>7.0</ele>
        <time>2019-05-17T10:25:38.181Z</time>
      </trkpt>
      <trkpt lat="39.312165" lon="-8.60504167">
        <ele>7.0</ele>
        <time>2019-05-17T10:25:39.173Z</time>
      </trkpt>
      <trkpt lat="39.312165" lon="-8.60504167">
        <ele>7.0</ele>
        <time>2019-05-17T10:25:40.172Z</time>
      </trkpt>
      <trkpt lat="39.31217833" lon="-8.604975">
        <ele>7.0</ele>
        <time>2019-05-17T10:25:41.160Z</time>
      </trkpt>
      <trkpt lat="39.31217833" lon="-8.604975">
        <ele>7.0</ele>
        <time>2019-05-17T10:25:42.155Z</time>
      </trkpt>
      <trkpt lat="39.312195" lon="-8.60490333">
        <ele>7.0</ele>
        <time>2019-05-17T10:25:43.173Z</time>
      </trkpt>
      <trkpt lat="39.312195" lon="-8.60490333">
        <ele>7.0</ele>
        <time>2019-05-17T10:25:44.181Z</time>
      </trkpt>
      <trkpt lat="39.31221" lon="-8.60484833">
        <ele>7.0</ele>
        <time>2019-05-17T10:25:45.156Z</time>
      </trkpt>
      <trkpt lat="39.31221" lon="-8.60484833">
        <ele>7.0</ele>
        <time>2019-05-17T10:25:46.170Z</time>
      </trkpt>
      <trkpt lat="39.312225" lon="-8.60479167">
        <ele>7.0</ele>
        <time>2019-05-17T10:25:47.179Z</time>
      </trkpt>
      <trkpt lat="39.312225" lon="-8.60479167">
        <ele>7.0</ele>
        <time>2019-05-17T10:25:48.173Z</time>
      </trkpt>
      <trkpt lat="39.31223667" lon="-8.60471167">
        <ele>7.0</ele>
        <time>2019-05-17T10:25:49.186Z</time>
      </trkpt>
      <trkpt lat="39.31223667" lon="-8.60471167">
        <ele>7.0</ele>
        <time>2019-05-17T10:25:50.151Z</time>
      </trkpt>
      <trkpt lat="39.31225333" lon="-8.604635">
        <ele>7.0</ele>
        <time>2019-05-17T10:25:51.165Z</time>
      </trkpt>
      <trkpt lat="39.31225333" lon="-8.604635">
        <ele>7.0</ele>
        <time>2019-05-17T10:25:52.154Z</time>
      </trkpt>
      <trkpt lat="39.31226833" lon="-8.604565">
        <ele>7.0</ele>
        <time>2019-05-17T10:25:53.190Z</time>
      </trkpt>
      <trkpt lat="39.31226833" lon="-8.604565">
        <ele>7.0</ele>
        <time>2019-05-17T10:25:54.188Z</time>
      </trkpt>
      <trkpt lat="39.31228167" lon="-8.60449833">
        <ele>8.0</ele>
        <time>2019-05-17T10:25:55.171Z</time>
      </trkpt>
      <trkpt lat="39.31228167" lon="-8.60449833">
        <ele>8.0</ele>
        <time>2019-05-17T10:25:56.150Z</time>
      </trkpt>
      <trkpt lat="39.31229833" lon="-8.604435">
        <ele>7.0</ele>
        <time>2019-05-17T10:25:57.167Z</time>
      </trkpt>
      <trkpt lat="39.312305" lon="-8.60440833">
        <ele>7.0</ele>
        <time>2019-05-17T10:25:58.158Z</time>
      </trkpt>
      <trkpt lat="39.31231833" lon="-8.60437667">
        <ele>8.0</ele>
        <time>2019-05-17T10:25:59.182Z</time>
      </trkpt>
      <trkpt lat="39.31231833" lon="-8.60437667">
        <ele>8.0</ele>
        <time>2019-05-17T10:26:00.152Z</time>
      </trkpt>
      <trkpt lat="39.31234" lon="-8.60430333">
        <ele>8.0</ele>
        <time>2019-05-17T10:26:01.167Z</time>
      </trkpt>
      <trkpt lat="39.31234" lon="-8.60430333">
        <ele>8.0</ele>
        <time>2019-05-17T10:26:02.181Z</time>
      </trkpt>
      <trkpt lat="39.31235833" lon="-8.60423167">
        <ele>8.0</ele>
        <time>2019-05-17T10:26:03.154Z</time>
      </trkpt>
      <trkpt lat="39.31235833" lon="-8.60423167">
        <ele>8.0</ele>
        <time>2019-05-17T10:26:04.174Z</time>
      </trkpt>
      <trkpt lat="39.312375" lon="-8.604165">
        <ele>8.0</ele>
        <time>2019-05-17T10:26:05.153Z</time>
      </trkpt>
      <trkpt lat="39.312375" lon="-8.604165">
        <ele>8.0</ele>
        <time>2019-05-17T10:26:06.170Z</time>
      </trkpt>
      <trkpt lat="39.31238667" lon="-8.60409167">
        <ele>9.0</ele>
        <time>2019-05-17T10:26:07.156Z</time>
      </trkpt>
      <trkpt lat="39.31238667" lon="-8.60409167">
        <ele>9.0</ele>
        <time>2019-05-17T10:26:08.182Z</time>
      </trkpt>
      <trkpt lat="39.31240167" lon="-8.60401833">
        <ele>8.0</ele>
        <time>2019-05-17T10:26:09.180Z</time>
      </trkpt>
      <trkpt lat="39.31240167" lon="-8.60401833">
        <ele>8.0</ele>
        <time>2019-05-17T10:26:10.176Z</time>
      </trkpt>
      <trkpt lat="39.31242" lon="-8.603945">
        <ele>9.0</ele>
        <time>2019-05-17T10:26:11.152Z</time>
      </trkpt>
      <trkpt lat="39.31242" lon="-8.603945">
        <ele>9.0</ele>
        <time>2019-05-17T10:26:12.167Z</time>
      </trkpt>
      <trkpt lat="39.31244" lon="-8.60387833">
        <ele>9.0</ele>
        <time>2019-05-17T10:26:13.188Z</time>
      </trkpt>
      <trkpt lat="39.31244" lon="-8.60387833">
        <ele>9.0</ele>
        <time>2019-05-17T10:26:14.163Z</time>
      </trkpt>
      <trkpt lat="39.31246" lon="-8.60380833">
        <ele>9.0</ele>
        <time>2019-05-17T10:26:15.185Z</time>
      </trkpt>
      <trkpt lat="39.31246" lon="-8.60380833">
        <ele>9.0</ele>
        <time>2019-05-17T10:26:16.169Z</time>
      </trkpt>
      <trkpt lat="39.31248667" lon="-8.60373667">
        <ele>9.0</ele>
        <time>2019-05-17T10:26:17.178Z</time>
      </trkpt>
      <trkpt lat="39.31248667" lon="-8.60373667">
        <ele>9.0</ele>
        <time>2019-05-17T10:26:18.187Z</time>
      </trkpt>
      <trkpt lat="39.31251333" lon="-8.60365">
        <ele>10.0</ele>
        <time>2019-05-17T10:26:19.159Z</time>
      </trkpt>
      <trkpt lat="39.31251333" lon="-8.60365">
        <ele>10.0</ele>
        <time>2019-05-17T10:26:20.172Z</time>
      </trkpt>
      <trkpt lat="39.312535" lon="-8.60355667">
        <ele>11.0</ele>
        <time>2019-05-17T10:26:21.170Z</time>
      </trkpt>
      <trkpt lat="39.312535" lon="-8.60355667">
        <ele>11.0</ele>
        <time>2019-05-17T10:26:22.186Z</time>
      </trkpt>
      <trkpt lat="39.31256" lon="-8.603475">
        <ele>11.0</ele>
        <time>2019-05-17T10:26:23.165Z</time>
      </trkpt>
      <trkpt lat="39.31256" lon="-8.603475">
        <ele>11.0</ele>
        <time>2019-05-17T10:26:24.183Z</time>
      </trkpt>
      <trkpt lat="39.31257667" lon="-8.60339">
        <ele>10.0</ele>
        <time>2019-05-17T10:26:25.159Z</time>
      </trkpt>
      <trkpt lat="39.31257667" lon="-8.60339">
        <ele>10.0</ele>
        <time>2019-05-17T10:26:26.175Z</time>
      </trkpt>
      <trkpt lat="39.31257167" lon="-8.60331333">
        <ele>9.0</ele>
        <time>2019-05-17T10:26:27.152Z</time>
      </trkpt>
      <trkpt lat="39.31256" lon="-8.60328667">
        <ele>9.0</ele>
        <time>2019-05-17T10:26:28.190Z</time>
      </trkpt>
      <trkpt lat="39.31256" lon="-8.60328667">
        <ele>9.0</ele>
        <time>2019-05-17T10:26:29.162Z</time>
      </trkpt>
      <trkpt lat="39.31252167" lon="-8.60324833">
        <ele>8.0</ele>
        <time>2019-05-17T10:26:30.176Z</time>
      </trkpt>
      <trkpt lat="39.31252167" lon="-8.60324833">
        <ele>8.0</ele>
        <time>2019-05-17T10:26:31.150Z</time>
      </trkpt>
      <trkpt lat="39.31247833" lon="-8.60321333">
        <ele>8.0</ele>
        <time>2019-05-17T10:26:32.167Z</time>
      </trkpt>
      <trkpt lat="39.31246" lon="-8.603205">
        <ele>8.0</ele>
        <time>2019-05-17T10:26:33.156Z</time>
      </trkpt>
      <trkpt lat="39.31246" lon="-8.603205">
        <ele>8.0</ele>
        <time>2019-05-17T10:26:34.173Z</time>
      </trkpt>
      <trkpt lat="39.31242667" lon="-8.60319167">
        <ele>8.0</ele>
        <time>2019-05-17T10:26:35.187Z</time>
      </trkpt>
      <trkpt lat="39.31242667" lon="-8.60319167">
        <ele>8.0</ele>
        <time>2019-05-17T10:26:36.157Z</time>
      </trkpt>
      <trkpt lat="39.31239667" lon="-8.60319333">
        <ele>8.0</ele>
        <time>2019-05-17T10:26:37.179Z</time>
      </trkpt>
      <trkpt lat="39.31239667" lon="-8.60319333">
        <ele>8.0</ele>
        <time>2019-05-17T10:26:38.150Z</time>
      </trkpt>
      <trkpt lat="39.31235833" lon="-8.603195">
        <ele>8.0</ele>
        <time>2019-05-17T10:26:39.170Z</time>
      </trkpt>
      <trkpt lat="39.31235833" lon="-8.603195">
        <ele>8.0</ele>
        <time>2019-05-17T10:26:40.160Z</time>
      </trkpt>
      <trkpt lat="39.312315" lon="-8.6032">
        <ele>8.0</ele>
        <time>2019-05-17T10:26:41.177Z</time>
      </trkpt>
      <trkpt lat="39.312315" lon="-8.6032">
        <ele>8.0</ele>
        <time>2019-05-17T10:26:42.151Z</time>
      </trkpt>
      <trkpt lat="39.31226167" lon="-8.60320667">
        <ele>8.0</ele>
        <time>2019-05-17T10:26:43.171Z</time>
      </trkpt>
      <trkpt lat="39.31226167" lon="-8.60320667">
        <ele>8.0</ele>
        <time>2019-05-17T10:26:44.153Z</time>
      </trkpt>
      <trkpt lat="39.312205" lon="-8.603215">
        <ele>8.0</ele>
        <time>2019-05-17T10:26:45.168Z</time>
      </trkpt>
      <trkpt lat="39.312205" lon="-8.603215">
        <ele>8.0</ele>
        <time>2019-05-17T10:26:46.177Z</time>
      </trkpt>
      <trkpt lat="39.312145" lon="-8.603215">
        <ele>7.0</ele>
        <time>2019-05-17T10:26:47.151Z</time>
      </trkpt>
      <trkpt lat="39.312145" lon="-8.603215">
        <ele>7.0</ele>
        <time>2019-05-17T10:26:48.177Z</time>
      </trkpt>
      <trkpt lat="39.31208167" lon="-8.60320167">
        <ele>7.0</ele>
        <time>2019-05-17T10:26:49.170Z</time>
      </trkpt>
      <trkpt lat="39.31208167" lon="-8.60320167">
        <ele>7.0</ele>
        <time>2019-05-17T10:26:50.181Z</time>
      </trkpt>
      <trkpt lat="39.31202167" lon="-8.60317333">
        <ele>7.0</ele>
        <time>2019-05-17T10:26:51.153Z</time>
      </trkpt>
      <trkpt lat="39.31202167" lon="-8.60317333">
        <ele>7.0</ele>
        <time>2019-05-17T10:26:52.188Z</time>
      </trkpt>
      <trkpt lat="39.311965" lon="-8.60313333">
        <ele>6.0</ele>
        <time>2019-05-17T10:26:53.168Z</time>
      </trkpt>
      <trkpt lat="39.311965" lon="-8.60313333">
        <ele>6.0</ele>
        <time>2019-05-17T10:26:54.156Z</time>
      </trkpt>
      <trkpt lat="39.31191167" lon="-8.60308833">
        <ele>6.0</ele>
        <time>2019-05-17T10:26:55.186Z</time>
      </trkpt>
      <trkpt lat="39.31191167" lon="-8.60308833">
        <ele>6.0</ele>
        <time>2019-05-17T10:26:56.154Z</time>
      </trkpt>
      <trkpt lat="39.31186667" lon="-8.60304333">
        <ele>5.0</ele>
        <time>2019-05-17T10:26:57.172Z</time>
      </trkpt>
      <trkpt lat="39.31186667" lon="-8.60304333">
        <ele>5.0</ele>
        <time>2019-05-17T10:26:58.171Z</time>
      </trkpt>
      <trkpt lat="39.311825" lon="-8.60299833">
        <ele>5.0</ele>
        <time>2019-05-17T10:26:59.184Z</time>
      </trkpt>
      <trkpt lat="39.311825" lon="-8.60299833">
        <ele>5.0</ele>
        <time>2019-05-17T10:27:00.189Z</time>
      </trkpt>
      <trkpt lat="39.311785" lon="-8.60295">
        <ele>6.0</ele>
        <time>2019-05-17T10:27:01.164Z</time>
      </trkpt>
      <trkpt lat="39.311765" lon="-8.60293">
        <ele>6.0</ele>
        <time>2019-05-17T10:27:02.180Z</time>
      </trkpt>
      <trkpt lat="39.311765" lon="-8.60293">
        <ele>6.0</ele>
        <time>2019-05-17T10:27:03.180Z</time>
      </trkpt>
      <trkpt lat="39.31171833" lon="-8.602885">
        <ele>6.0</ele>
        <time>2019-05-17T10:27:04.152Z</time>
      </trkpt>
      <trkpt lat="39.31169667" lon="-8.60286167">
        <ele>6.0</ele>
        <time>2019-05-17T10:27:05.172Z</time>
      </trkpt>
      <trkpt lat="39.31169667" lon="-8.60286167">
        <ele>6.0</ele>
        <time>2019-05-17T10:27:06.179Z</time>
      </trkpt>
      <trkpt lat="39.31165167" lon="-8.60282">
        <ele>7.0</ele>
        <time>2019-05-17T10:27:07.160Z</time>
      </trkpt>
      <trkpt lat="39.31162833" lon="-8.60279833">
        <ele>7.0</ele>
        <time>2019-05-17T10:27:08.185Z</time>
      </trkpt>
      <trkpt lat="39.31162833" lon="-8.60279833">
        <ele>7.0</ele>
        <time>2019-05-17T10:27:09.151Z</time>
      </trkpt>
      <trkpt lat="39.31158167" lon="-8.60275667">
        <ele>6.0</ele>
        <time>2019-05-17T10:27:10.170Z</time>
      </trkpt>
      <trkpt lat="39.31156" lon="-8.60273333">
        <ele>6.0</ele>
        <time>2019-05-17T10:27:11.188Z</time>
      </trkpt>
      <trkpt lat="39.31156" lon="-8.60273333">
        <ele>6.0</ele>
        <time>2019-05-17T10:27:12.169Z</time>
      </trkpt>
      <trkpt lat="39.31151167" lon="-8.602685">
        <ele>5.0</ele>
        <time>2019-05-17T10:27:13.187Z</time>
      </trkpt>
      <trkpt lat="39.31151167" lon="-8.602685">
        <ele>5.0</ele>
        <time>2019-05-17T10:27:14.150Z</time>
      </trkpt>
      <trkpt lat="39.31146" lon="-8.60263167">
        <ele>5.0</ele>
        <time>2019-05-17T10:27:15.172Z</time>
      </trkpt>
      <trkpt lat="39.311435" lon="-8.60260667">
        <ele>5.0</ele>
        <time>2019-05-17T10:27:16.179Z</time>
      </trkpt>
      <trkpt lat="39.31141" lon="-8.602585">
        <ele>5.0</ele>
        <time>2019-05-17T10:27:17.159Z</time>
      </trkpt>
      <trkpt lat="39.31141" lon="-8.602585">
        <ele>5.0</ele>
        <time>2019-05-17T10:27:18.176Z</time>
      </trkpt>
      <trkpt lat="39.31135833" lon="-8.60254">
        <ele>5.0</ele>
        <time>2019-05-17T10:27:19.157Z</time>
      </trkpt>
      <trkpt lat="39.31135833" lon="-8.60254">
        <ele>5.0</ele>
        <time>2019-05-17T10:27:20.168Z</time>
      </trkpt>
      <trkpt lat="39.311305" lon="-8.60248667">
        <ele>5.0</ele>
        <time>2019-05-17T10:27:21.186Z</time>
      </trkpt>
      <trkpt lat="39.311305" lon="-8.60248667">
        <ele>5.0</ele>
        <time>2019-05-17T10:27:22.168Z</time>
      </trkpt>
      <trkpt lat="39.31126167" lon="-8.60243">
        <ele>6.0</ele>
        <time>2019-05-17T10:27:23.170Z</time>
      </trkpt>
      <trkpt lat="39.31126167" lon="-8.60243">
        <ele>6.0</ele>
        <time>2019-05-17T10:27:24.153Z</time>
      </trkpt>
      <trkpt lat="39.31122167" lon="-8.602365">
        <ele>6.0</ele>
        <time>2019-05-17T10:27:25.186Z</time>
      </trkpt>
      <trkpt lat="39.31120167" lon="-8.60233">
        <ele>6.0</ele>
        <time>2019-05-17T10:27:26.162Z</time>
      </trkpt>
      <trkpt lat="39.31120167" lon="-8.60233">
        <ele>6.0</ele>
        <time>2019-05-17T10:27:27.187Z</time>
      </trkpt>
      <trkpt lat="39.31116167" lon="-8.60226333">
        <ele>6.0</ele>
        <time>2019-05-17T10:27:28.161Z</time>
      </trkpt>
      <trkpt lat="39.31114333" lon="-8.60223">
        <ele>6.0</ele>
        <time>2019-05-17T10:27:29.189Z</time>
      </trkpt>
      <trkpt lat="39.31114333" lon="-8.60223">
        <ele>6.0</ele>
        <time>2019-05-17T10:27:30.161Z</time>
      </trkpt>
      <trkpt lat="39.31111833" lon="-8.60217">
        <ele>7.0</ele>
        <time>2019-05-17T10:27:31.181Z</time>
      </trkpt>
      <trkpt lat="39.31111833" lon="-8.60217">
        <ele>7.0</ele>
        <time>2019-05-17T10:27:32.166Z</time>
      </trkpt>
      <trkpt lat="39.31109167" lon="-8.602105">
        <ele>8.0</ele>
        <time>2019-05-17T10:27:33.186Z</time>
      </trkpt>
      <trkpt lat="39.31109167" lon="-8.602105">
        <ele>8.0</ele>
        <time>2019-05-17T10:27:34.153Z</time>
      </trkpt>
      <trkpt lat="39.31106167" lon="-8.60204667">
        <ele>8.0</ele>
        <time>2019-05-17T10:27:35.160Z</time>
      </trkpt>
      <trkpt lat="39.31106167" lon="-8.60204667">
        <ele>8.0</ele>
        <time>2019-05-17T10:27:36.155Z</time>
      </trkpt>
      <trkpt lat="39.31103667" lon="-8.60198667">
        <ele>8.0</ele>
        <time>2019-05-17T10:27:37.164Z</time>
      </trkpt>
      <trkpt lat="39.31103667" lon="-8.60198667">
        <ele>8.0</ele>
        <time>2019-05-17T10:27:38.170Z</time>
      </trkpt>
      <trkpt lat="39.31101333" lon="-8.60192833">
        <ele>8.0</ele>
        <time>2019-05-17T10:27:39.157Z</time>
      </trkpt>
      <trkpt lat="39.31101333" lon="-8.60192833">
        <ele>8.0</ele>
        <time>2019-05-17T10:27:40.176Z</time>
      </trkpt>
      <trkpt lat="39.31099167" lon="-8.60187">
        <ele>9.0</ele>
        <time>2019-05-17T10:27:41.150Z</time>
      </trkpt>
      <trkpt lat="39.31099167" lon="-8.60187">
        <ele>9.0</ele>
        <time>2019-05-17T10:27:42.171Z</time>
      </trkpt>
      <trkpt lat="39.31096833" lon="-8.60181">
        <ele>9.0</ele>
        <time>2019-05-17T10:27:43.182Z</time>
      </trkpt>
      <trkpt lat="39.31096833" lon="-8.60181">
        <ele>9.0</ele>
        <time>2019-05-17T10:27:44.163Z</time>
      </trkpt>
      <trkpt lat="39.310945" lon="-8.60174333">
        <ele>9.0</ele>
        <time>2019-05-17T10:27:45.187Z</time>
      </trkpt>
      <trkpt lat="39.310945" lon="-8.60174333">
        <ele>9.0</ele>
        <time>2019-05-17T10:27:46.159Z</time>
      </trkpt>
      <trkpt lat="39.310925" lon="-8.60167">
        <ele>9.0</ele>
        <time>2019-05-17T10:27:47.187Z</time>
      </trkpt>
      <trkpt lat="39.310925" lon="-8.60167">
        <ele>9.0</ele>
        <time>2019-05-17T10:27:48.170Z</time>
      </trkpt>
      <trkpt lat="39.310905" lon="-8.60159667">
        <ele>9.0</ele>
        <time>2019-05-17T10:27:49.187Z</time>
      </trkpt>
      <trkpt lat="39.310905" lon="-8.60159667">
        <ele>9.0</ele>
        <time>2019-05-17T10:27:50.156Z</time>
      </trkpt>
      <trkpt lat="39.31088333" lon="-8.601525">
        <ele>9.0</ele>
        <time>2019-05-17T10:27:51.190Z</time>
      </trkpt>
      <trkpt lat="39.31088333" lon="-8.601525">
        <ele>9.0</ele>
        <time>2019-05-17T10:27:52.170Z</time>
      </trkpt>
      <trkpt lat="39.31086167" lon="-8.601455">
        <ele>9.0</ele>
        <time>2019-05-17T10:27:53.184Z</time>
      </trkpt>
      <trkpt lat="39.31086167" lon="-8.601455">
        <ele>9.0</ele>
        <time>2019-05-17T10:27:54.154Z</time>
      </trkpt>
      <trkpt lat="39.31084" lon="-8.60137833">
        <ele>9.0</ele>
        <time>2019-05-17T10:27:55.184Z</time>
      </trkpt>
      <trkpt lat="39.31082833" lon="-8.60134">
        <ele>9.0</ele>
        <time>2019-05-17T10:27:56.157Z</time>
      </trkpt>
      <trkpt lat="39.31082833" lon="-8.60134">
        <ele>9.0</ele>
        <time>2019-05-17T10:27:57.168Z</time>
      </trkpt>
      <trkpt lat="39.31080667" lon="-8.60126167">
        <ele>9.0</ele>
        <time>2019-05-17T10:27:58.170Z</time>
      </trkpt>
      <trkpt lat="39.31079667" lon="-8.60122333">
        <ele>9.0</ele>
        <time>2019-05-17T10:27:59.156Z</time>
      </trkpt>
      <trkpt lat="39.31079667" lon="-8.60122333">
        <ele>9.0</ele>
        <time>2019-05-17T10:28:00.168Z</time>
      </trkpt>
      <trkpt lat="39.310775" lon="-8.60115167">
        <ele>9.0</ele>
        <time>2019-05-17T10:28:01.180Z</time>
      </trkpt>
      <trkpt lat="39.310775" lon="-8.60115167">
        <ele>9.0</ele>
        <time>2019-05-17T10:28:02.187Z</time>
      </trkpt>
      <trkpt lat="39.310755" lon="-8.60108">
        <ele>9.0</ele>
        <time>2019-05-17T10:28:03.192Z</time>
      </trkpt>
      <trkpt lat="39.310755" lon="-8.60108">
        <ele>9.0</ele>
        <time>2019-05-17T10:28:04.169Z</time>
      </trkpt>
      <trkpt lat="39.31073" lon="-8.60100833">
        <ele>9.0</ele>
        <time>2019-05-17T10:28:05.189Z</time>
      </trkpt>
      <trkpt lat="39.31073" lon="-8.60100833">
        <ele>9.0</ele>
        <time>2019-05-17T10:28:06.167Z</time>
      </trkpt>
      <trkpt lat="39.31071167" lon="-8.60093">
        <ele>9.0</ele>
        <time>2019-05-17T10:28:07.178Z</time>
      </trkpt>
      <trkpt lat="39.31071167" lon="-8.60093">
        <ele>9.0</ele>
        <time>2019-05-17T10:28:08.186Z</time>
      </trkpt>
      <trkpt lat="39.31069" lon="-8.60085">
        <ele>9.0</ele>
        <time>2019-05-17T10:28:09.178Z</time>
      </trkpt>
      <trkpt lat="39.31069" lon="-8.60085">
        <ele>9.0</ele>
        <time>2019-05-17T10:28:10.184Z</time>
      </trkpt>
      <trkpt lat="39.31066833" lon="-8.60077167">
        <ele>9.0</ele>
        <time>2019-05-17T10:28:11.158Z</time>
      </trkpt>
      <trkpt lat="39.31066833" lon="-8.60077167">
        <ele>9.0</ele>
        <time>2019-05-17T10:28:12.174Z</time>
      </trkpt>
      <trkpt lat="39.31064667" lon="-8.600695">
        <ele>8.0</ele>
        <time>2019-05-17T10:28:13.188Z</time>
      </trkpt>
      <trkpt lat="39.31064667" lon="-8.600695">
        <ele>8.0</ele>
        <time>2019-05-17T10:28:14.167Z</time>
      </trkpt>
      <trkpt lat="39.310625" lon="-8.60061667">
        <ele>9.0</ele>
        <time>2019-05-17T10:28:15.185Z</time>
      </trkpt>
      <trkpt lat="39.310625" lon="-8.60061667">
        <ele>9.0</ele>
        <time>2019-05-17T10:28:16.161Z</time>
      </trkpt>
      <trkpt lat="39.3106" lon="-8.600535">
        <ele>9.0</ele>
        <time>2019-05-17T10:28:17.180Z</time>
      </trkpt>
      <trkpt lat="39.3106" lon="-8.600535">
        <ele>9.0</ele>
        <time>2019-05-17T10:28:18.153Z</time>
      </trkpt>
      <trkpt lat="39.31057833" lon="-8.60045167">
        <ele>9.0</ele>
        <time>2019-05-17T10:28:19.169Z</time>
      </trkpt>
      <trkpt lat="39.31057" lon="-8.60041">
        <ele>9.0</ele>
        <time>2019-05-17T10:28:20.156Z</time>
      </trkpt>
      <trkpt lat="39.31057" lon="-8.60041">
        <ele>9.0</ele>
        <time>2019-05-17T10:28:21.164Z</time>
      </trkpt>
      <trkpt lat="39.31054833" lon="-8.600325">
        <ele>9.0</ele>
        <time>2019-05-17T10:28:22.182Z</time>
      </trkpt>
      <trkpt lat="39.31053833" lon="-8.60028167">
        <ele>9.0</ele>
        <time>2019-05-17T10:28:23.158Z</time>
      </trkpt>
      <trkpt lat="39.31053833" lon="-8.60028167">
        <ele>9.0</ele>
        <time>2019-05-17T10:28:24.172Z</time>
      </trkpt>
      <trkpt lat="39.31052167" lon="-8.60019667">
        <ele>9.0</ele>
        <time>2019-05-17T10:28:25.184Z</time>
      </trkpt>
      <trkpt lat="39.31052167" lon="-8.60019667">
        <ele>9.0</ele>
        <time>2019-05-17T10:28:26.155Z</time>
      </trkpt>
      <trkpt lat="39.3105" lon="-8.60011667">
        <ele>9.0</ele>
        <time>2019-05-17T10:28:27.177Z</time>
      </trkpt>
      <trkpt lat="39.3105" lon="-8.60011667">
        <ele>9.0</ele>
        <time>2019-05-17T10:28:28.151Z</time>
      </trkpt>
      <trkpt lat="39.31048167" lon="-8.60003667">
        <ele>9.0</ele>
        <time>2019-05-17T10:28:29.172Z</time>
      </trkpt>
      <trkpt lat="39.31048167" lon="-8.60003667">
        <ele>9.0</ele>
        <time>2019-05-17T10:28:30.150Z</time>
      </trkpt>
      <trkpt lat="39.310465" lon="-8.59995833">
        <ele>9.0</ele>
        <time>2019-05-17T10:28:31.161Z</time>
      </trkpt>
      <trkpt lat="39.310465" lon="-8.59995833">
        <ele>9.0</ele>
        <time>2019-05-17T10:28:32.183Z</time>
      </trkpt>
      <trkpt lat="39.310445" lon="-8.59988667">
        <ele>9.0</ele>
        <time>2019-05-17T10:28:33.156Z</time>
      </trkpt>
      <trkpt lat="39.310445" lon="-8.59988667">
        <ele>9.0</ele>
        <time>2019-05-17T10:28:34.175Z</time>
      </trkpt>
      <trkpt lat="39.310425" lon="-8.59981833">
        <ele>9.0</ele>
        <time>2019-05-17T10:28:35.170Z</time>
      </trkpt>
      <trkpt lat="39.310425" lon="-8.59981833">
        <ele>9.0</ele>
        <time>2019-05-17T10:28:36.178Z</time>
      </trkpt>
      <trkpt lat="39.31040667" lon="-8.599745">
        <ele>10.0</ele>
        <time>2019-05-17T10:28:37.153Z</time>
      </trkpt>
      <trkpt lat="39.31039667" lon="-8.59971">
        <ele>10.0</ele>
        <time>2019-05-17T10:28:38.164Z</time>
      </trkpt>
      <trkpt lat="39.31039667" lon="-8.59971">
        <ele>10.0</ele>
        <time>2019-05-17T10:28:39.171Z</time>
      </trkpt>
      <trkpt lat="39.310375" lon="-8.59964">
        <ele>10.0</ele>
        <time>2019-05-17T10:28:40.189Z</time>
      </trkpt>
      <trkpt lat="39.310365" lon="-8.59960333">
        <ele>10.0</ele>
        <time>2019-05-17T10:28:41.183Z</time>
      </trkpt>
      <trkpt lat="39.310365" lon="-8.59960333">
        <ele>10.0</ele>
        <time>2019-05-17T10:28:42.152Z</time>
      </trkpt>
      <trkpt lat="39.31034167" lon="-8.59952833">
        <ele>9.0</ele>
        <time>2019-05-17T10:28:43.162Z</time>
      </trkpt>
      <trkpt lat="39.31033333" lon="-8.59949">
        <ele>9.0</ele>
        <time>2019-05-17T10:28:44.188Z</time>
      </trkpt>
      <trkpt lat="39.31033333" lon="-8.59949">
        <ele>9.0</ele>
        <time>2019-05-17T10:28:45.170Z</time>
      </trkpt>
      <trkpt lat="39.310315" lon="-8.59941167">
        <ele>10.0</ele>
        <time>2019-05-17T10:28:46.185Z</time>
      </trkpt>
      <trkpt lat="39.31030333" lon="-8.59937167">
        <ele>10.0</ele>
        <time>2019-05-17T10:28:47.161Z</time>
      </trkpt>
      <trkpt lat="39.31030333" lon="-8.59937167">
        <ele>10.0</ele>
        <time>2019-05-17T10:28:48.175Z</time>
      </trkpt>
      <trkpt lat="39.31028167" lon="-8.59929167">
        <ele>9.0</ele>
        <time>2019-05-17T10:28:49.188Z</time>
      </trkpt>
      <trkpt lat="39.31028167" lon="-8.59929167">
        <ele>9.0</ele>
        <time>2019-05-17T10:28:50.173Z</time>
      </trkpt>
      <trkpt lat="39.31026" lon="-8.59921">
        <ele>9.0</ele>
        <time>2019-05-17T10:28:51.151Z</time>
      </trkpt>
      <trkpt lat="39.31026" lon="-8.59921">
        <ele>9.0</ele>
        <time>2019-05-17T10:28:52.167Z</time>
      </trkpt>
      <trkpt lat="39.31024" lon="-8.59912667">
        <ele>9.0</ele>
        <time>2019-05-17T10:28:53.184Z</time>
      </trkpt>
      <trkpt lat="39.31024" lon="-8.59912667">
        <ele>9.0</ele>
        <time>2019-05-17T10:28:54.156Z</time>
      </trkpt>
      <trkpt lat="39.31021667" lon="-8.599045">
        <ele>9.0</ele>
        <time>2019-05-17T10:28:55.177Z</time>
      </trkpt>
      <trkpt lat="39.31021667" lon="-8.599045">
        <ele>9.0</ele>
        <time>2019-05-17T10:28:56.159Z</time>
      </trkpt>
      <trkpt lat="39.31019833" lon="-8.59896167">
        <ele>9.0</ele>
        <time>2019-05-17T10:28:57.180Z</time>
      </trkpt>
      <trkpt lat="39.31018833" lon="-8.59892167">
        <ele>9.0</ele>
        <time>2019-05-17T10:28:58.158Z</time>
      </trkpt>
      <trkpt lat="39.31018" lon="-8.59888333">
        <ele>9.0</ele>
        <time>2019-05-17T10:28:59.176Z</time>
      </trkpt>
      <trkpt lat="39.31018" lon="-8.59888333">
        <ele>9.0</ele>
        <time>2019-05-17T10:29:00.186Z</time>
      </trkpt>
      <trkpt lat="39.31016" lon="-8.59880833">
        <ele>9.0</ele>
        <time>2019-05-17T10:29:01.157Z</time>
      </trkpt>
      <trkpt lat="39.31016" lon="-8.59880833">
        <ele>9.0</ele>
        <time>2019-05-17T10:29:02.171Z</time>
      </trkpt>
      <trkpt lat="39.31014" lon="-8.598735">
        <ele>9.0</ele>
        <time>2019-05-17T10:29:03.188Z</time>
      </trkpt>
      <trkpt lat="39.31014" lon="-8.598735">
        <ele>9.0</ele>
        <time>2019-05-17T10:29:04.162Z</time>
      </trkpt>
      <trkpt lat="39.31012" lon="-8.59866333">
        <ele>9.0</ele>
        <time>2019-05-17T10:29:05.158Z</time>
      </trkpt>
      <trkpt lat="39.31012" lon="-8.59866333">
        <ele>9.0</ele>
        <time>2019-05-17T10:29:06.174Z</time>
      </trkpt>
      <trkpt lat="39.310105" lon="-8.598595">
        <ele>9.0</ele>
        <time>2019-05-17T10:29:07.168Z</time>
      </trkpt>
      <trkpt lat="39.31009667" lon="-8.59856333">
        <ele>9.0</ele>
        <time>2019-05-17T10:29:08.163Z</time>
      </trkpt>
      <trkpt lat="39.31009667" lon="-8.59856333">
        <ele>9.0</ele>
        <time>2019-05-17T10:29:09.177Z</time>
      </trkpt>
      <trkpt lat="39.31008" lon="-8.59849667">
        <ele>9.0</ele>
        <time>2019-05-17T10:29:10.151Z</time>
      </trkpt>
      <trkpt lat="39.31007333" lon="-8.59846167">
        <ele>9.0</ele>
        <time>2019-05-17T10:29:11.186Z</time>
      </trkpt>
      <trkpt lat="39.31007333" lon="-8.59846167">
        <ele>9.0</ele>
        <time>2019-05-17T10:29:12.176Z</time>
      </trkpt>
      <trkpt lat="39.31005667" lon="-8.59839333">
        <ele>9.0</ele>
        <time>2019-05-17T10:29:13.187Z</time>
      </trkpt>
      <trkpt lat="39.31005667" lon="-8.59839333">
        <ele>9.0</ele>
        <time>2019-05-17T10:29:14.161Z</time>
      </trkpt>
      <trkpt lat="39.31004" lon="-8.59833">
        <ele>9.0</ele>
        <time>2019-05-17T10:29:15.181Z</time>
      </trkpt>
      <trkpt lat="39.31003" lon="-8.59829833">
        <ele>9.0</ele>
        <time>2019-05-17T10:29:16.165Z</time>
      </trkpt>
      <trkpt lat="39.31001667" lon="-8.598265">
        <ele>9.0</ele>
        <time>2019-05-17T10:29:17.157Z</time>
      </trkpt>
      <trkpt lat="39.31001667" lon="-8.598265">
        <ele>9.0</ele>
        <time>2019-05-17T10:29:18.175Z</time>
      </trkpt>
      <trkpt lat="39.30999" lon="-8.5982">
        <ele>9.0</ele>
        <time>2019-05-17T10:29:19.187Z</time>
      </trkpt>
      <trkpt lat="39.30999" lon="-8.5982">
        <ele>9.0</ele>
        <time>2019-05-17T10:29:20.159Z</time>
      </trkpt>
      <trkpt lat="39.30996833" lon="-8.59813333">
        <ele>9.0</ele>
        <time>2019-05-17T10:29:21.171Z</time>
      </trkpt>
      <trkpt lat="39.30996833" lon="-8.59813333">
        <ele>9.0</ele>
        <time>2019-05-17T10:29:22.179Z</time>
      </trkpt>
      <trkpt lat="39.30995167" lon="-8.598065">
        <ele>9.0</ele>
        <time>2019-05-17T10:29:23.160Z</time>
      </trkpt>
      <trkpt lat="39.30995167" lon="-8.598065">
        <ele>9.0</ele>
        <time>2019-05-17T10:29:24.170Z</time>
      </trkpt>
      <trkpt lat="39.30993667" lon="-8.59799833">
        <ele>9.0</ele>
        <time>2019-05-17T10:29:25.186Z</time>
      </trkpt>
      <trkpt lat="39.30993667" lon="-8.59799833">
        <ele>9.0</ele>
        <time>2019-05-17T10:29:26.171Z</time>
      </trkpt>
      <trkpt lat="39.30992167" lon="-8.59793333">
        <ele>9.0</ele>
        <time>2019-05-17T10:29:27.151Z</time>
      </trkpt>
      <trkpt lat="39.30992167" lon="-8.59793333">
        <ele>9.0</ele>
        <time>2019-05-17T10:29:28.168Z</time>
      </trkpt>
      <trkpt lat="39.309905" lon="-8.59786333">
        <ele>8.0</ele>
        <time>2019-05-17T10:29:29.160Z</time>
      </trkpt>
      <trkpt lat="39.309905" lon="-8.59786333">
        <ele>8.0</ele>
        <time>2019-05-17T10:29:30.177Z</time>
      </trkpt>
      <trkpt lat="39.30988833" lon="-8.59779333">
        <ele>8.0</ele>
        <time>2019-05-17T10:29:31.187Z</time>
      </trkpt>
      <trkpt lat="39.30988833" lon="-8.59779333">
        <ele>8.0</ele>
        <time>2019-05-17T10:29:32.156Z</time>
      </trkpt>
      <trkpt lat="39.30987167" lon="-8.59772">
        <ele>8.0</ele>
        <time>2019-05-17T10:29:33.176Z</time>
      </trkpt>
      <trkpt lat="39.30986" lon="-8.59768">
        <ele>8.0</ele>
        <time>2019-05-17T10:29:34.166Z</time>
      </trkpt>
      <trkpt lat="39.30986" lon="-8.59768">
        <ele>8.0</ele>
        <time>2019-05-17T10:29:35.186Z</time>
      </trkpt>
      <trkpt lat="39.30984" lon="-8.59760333">
        <ele>8.0</ele>
        <time>2019-05-17T10:29:36.161Z</time>
      </trkpt>
      <trkpt lat="39.30983" lon="-8.59757">
        <ele>8.0</ele>
        <time>2019-05-17T10:29:37.180Z</time>
      </trkpt>
      <trkpt lat="39.30983" lon="-8.59757">
        <ele>8.0</ele>
        <time>2019-05-17T10:29:38.155Z</time>
      </trkpt>
      <trkpt lat="39.30981333" lon="-8.59750167">
        <ele>8.0</ele>
        <time>2019-05-17T10:29:39.166Z</time>
      </trkpt>
      <trkpt lat="39.30981333" lon="-8.59750167">
        <ele>8.0</ele>
        <time>2019-05-17T10:29:40.181Z</time>
      </trkpt>
      <trkpt lat="39.30979667" lon="-8.59743167">
        <ele>7.0</ele>
        <time>2019-05-17T10:29:41.172Z</time>
      </trkpt>
      <trkpt lat="39.30978833" lon="-8.59739833">
        <ele>7.0</ele>
        <time>2019-05-17T10:29:42.191Z</time>
      </trkpt>
      <trkpt lat="39.30978833" lon="-8.59739833">
        <ele>7.0</ele>
        <time>2019-05-17T10:29:43.164Z</time>
      </trkpt>
      <trkpt lat="39.30976667" lon="-8.59732833">
        <ele>7.0</ele>
        <time>2019-05-17T10:29:44.185Z</time>
      </trkpt>
      <trkpt lat="39.30976667" lon="-8.59732833">
        <ele>7.0</ele>
        <time>2019-05-17T10:29:45.160Z</time>
      </trkpt>
      <trkpt lat="39.30974833" lon="-8.59726333">
        <ele>7.0</ele>
        <time>2019-05-17T10:29:46.176Z</time>
      </trkpt>
      <trkpt lat="39.30973833" lon="-8.59723667">
        <ele>7.0</ele>
        <time>2019-05-17T10:29:47.155Z</time>
      </trkpt>
      <trkpt lat="39.30973833" lon="-8.59723667">
        <ele>7.0</ele>
        <time>2019-05-17T10:29:48.150Z</time>
      </trkpt>
      <trkpt lat="39.30972" lon="-8.59718167">
        <ele>7.0</ele>
        <time>2019-05-17T10:29:49.164Z</time>
      </trkpt>
      <trkpt lat="39.30972" lon="-8.59718167">
        <ele>7.0</ele>
        <time>2019-05-17T10:29:50.159Z</time>
      </trkpt>
      <trkpt lat="39.30970833" lon="-8.59712833">
        <ele>7.0</ele>
        <time>2019-05-17T10:29:51.180Z</time>
      </trkpt>
      <trkpt lat="39.30970833" lon="-8.59712833">
        <ele>7.0</ele>
        <time>2019-05-17T10:29:52.159Z</time>
      </trkpt>
      <trkpt lat="39.309705" lon="-8.59709833">
        <ele>7.0</ele>
        <time>2019-05-17T10:29:53.183Z</time>
      </trkpt>
      <trkpt lat="39.309705" lon="-8.59709833">
        <ele>7.0</ele>
        <time>2019-05-17T10:29:54.175Z</time>
      </trkpt>
      <trkpt lat="39.309705" lon="-8.5971">
        <ele>7.0</ele>
        <time>2019-05-17T10:29:55.172Z</time>
      </trkpt>
      <trkpt lat="39.309705" lon="-8.5971">
        <ele>7.0</ele>
        <time>2019-05-17T10:29:56.179Z</time>
      </trkpt>
      <trkpt lat="39.309705" lon="-8.5971">
        <ele>7.0</ele>
        <time>2019-05-17T10:29:57.158Z</time>
      </trkpt>
      <trkpt lat="39.309705" lon="-8.5971">
        <ele>7.0</ele>
        <time>2019-05-17T10:29:58.170Z</time>
      </trkpt>
      <trkpt lat="39.309705" lon="-8.5971">
        <ele>7.0</ele>
        <time>2019-05-17T10:29:59.176Z</time>
      </trkpt>
      <trkpt lat="39.309705" lon="-8.5971">
        <ele>7.0</ele>
        <time>2019-05-17T10:30:00.182Z</time>
      </trkpt>
      <trkpt lat="39.309705" lon="-8.5971">
        <ele>7.0</ele>
        <time>2019-05-17T10:30:01.188Z</time>
      </trkpt>
      <trkpt lat="39.309705" lon="-8.5971">
        <ele>7.0</ele>
        <time>2019-05-17T10:30:02.177Z</time>
      </trkpt>
      <trkpt lat="39.309705" lon="-8.5971">
        <ele>7.0</ele>
        <time>2019-05-17T10:30:03.180Z</time>
      </trkpt>
      <trkpt lat="39.309705" lon="-8.5971">
        <ele>7.0</ele>
        <time>2019-05-17T10:30:04.178Z</time>
      </trkpt>
      <trkpt lat="39.309705" lon="-8.5971">
        <ele>7.0</ele>
        <time>2019-05-17T10:30:05.178Z</time>
      </trkpt>
      <trkpt lat="39.309705" lon="-8.5971">
        <ele>7.0</ele>
        <time>2019-05-17T10:30:06.179Z</time>
      </trkpt>
      <trkpt lat="39.309705" lon="-8.5971">
        <ele>7.0</ele>
        <time>2019-05-17T10:30:07.175Z</time>
      </trkpt>
      <trkpt lat="39.309705" lon="-8.5971">
        <ele>7.0</ele>
        <time>2019-05-17T10:30:08.180Z</time>
      </trkpt>
      <trkpt lat="39.309705" lon="-8.5971">
        <ele>7.0</ele>
        <time>2019-05-17T10:30:09.178Z</time>
      </trkpt>
      <trkpt lat="39.309705" lon="-8.5971">
        <ele>7.0</ele>
        <time>2019-05-17T10:30:10.171Z</time>
      </trkpt>
      <trkpt lat="39.309705" lon="-8.5971">
        <ele>7.0</ele>
        <time>2019-05-17T10:30:11.177Z</time>
      </trkpt>
      <trkpt lat="39.309705" lon="-8.5971">
        <ele>7.0</ele>
        <time>2019-05-17T10:30:12.183Z</time>
      </trkpt>
      <trkpt lat="39.309705" lon="-8.5971">
        <ele>7.0</ele>
        <time>2019-05-17T10:30:13.178Z</time>
      </trkpt>
      <trkpt lat="39.309705" lon="-8.5971">
        <ele>7.0</ele>
        <time>2019-05-17T10:30:14.175Z</time>
      </trkpt>
      <trkpt lat="39.309705" lon="-8.5971">
        <ele>7.0</ele>
        <time>2019-05-17T10:30:15.154Z</time>
      </trkpt>
      <trkpt lat="39.309705" lon="-8.5971">
        <ele>7.0</ele>
        <time>2019-05-17T10:30:16.180Z</time>
      </trkpt>
      <trkpt lat="39.309705" lon="-8.5971">
        <ele>7.0</ele>
        <time>2019-05-17T10:30:17.183Z</time>
      </trkpt>
      <trkpt lat="39.309705" lon="-8.5971">
        <ele>7.0</ele>
        <time>2019-05-17T10:30:18.178Z</time>
      </trkpt>
      <trkpt lat="39.309705" lon="-8.5971">
        <ele>7.0</ele>
        <time>2019-05-17T10:30:19.180Z</time>
      </trkpt>
      <trkpt lat="39.309705" lon="-8.5971">
        <ele>7.0</ele>
        <time>2019-05-17T10:30:20.177Z</time>
      </trkpt>
      <trkpt lat="39.309705" lon="-8.5971">
        <ele>7.0</ele>
        <time>2019-05-17T10:30:21.181Z</time>
      </trkpt>
      <trkpt lat="39.309705" lon="-8.5971">
        <ele>7.0</ele>
        <time>2019-05-17T10:30:22.177Z</time>
      </trkpt>
      <trkpt lat="39.309705" lon="-8.5971">
        <ele>7.0</ele>
        <time>2019-05-17T10:30:23.185Z</time>
      </trkpt>
      <trkpt lat="39.309705" lon="-8.5971">
        <ele>7.0</ele>
        <time>2019-05-17T10:30:24.176Z</time>
      </trkpt>
      <trkpt lat="39.309705" lon="-8.5971">
        <ele>7.0</ele>
        <time>2019-05-17T10:30:25.180Z</time>
      </trkpt>
      <trkpt lat="39.309705" lon="-8.5971">
        <ele>7.0</ele>
        <time>2019-05-17T10:30:26.175Z</time>
      </trkpt>
      <trkpt lat="39.309705" lon="-8.5971">
        <ele>7.0</ele>
        <time>2019-05-17T10:30:27.182Z</time>
      </trkpt>
      <trkpt lat="39.309705" lon="-8.5971">
        <ele>7.0</ele>
        <time>2019-05-17T10:30:28.175Z</time>
      </trkpt>
      <trkpt lat="39.309705" lon="-8.5971">
        <ele>7.0</ele>
        <time>2019-05-17T10:30:29.183Z</time>
      </trkpt>
      <trkpt lat="39.309705" lon="-8.5971">
        <ele>7.0</ele>
        <time>2019-05-17T10:30:30.175Z</time>
      </trkpt>
      <trkpt lat="39.309705" lon="-8.5971">
        <ele>7.0</ele>
        <time>2019-05-17T10:30:31.161Z</time>
      </trkpt>
      <trkpt lat="39.309705" lon="-8.5971">
        <ele>7.0</ele>
        <time>2019-05-17T10:30:32.161Z</time>
      </trkpt>
      <trkpt lat="39.309705" lon="-8.5971">
        <ele>7.0</ele>
        <time>2019-05-17T10:30:33.186Z</time>
      </trkpt>
      <trkpt lat="39.309705" lon="-8.5971">
        <ele>7.0</ele>
        <time>2019-05-17T10:30:34.175Z</time>
      </trkpt>
      <trkpt lat="39.30972167" lon="-8.597125">
        <ele>6.0</ele>
        <time>2019-05-17T10:30:35.183Z</time>
      </trkpt>
      <trkpt lat="39.30972167" lon="-8.597125">
        <ele>6.0</ele>
        <time>2019-05-17T10:30:36.177Z</time>
      </trkpt>
      <trkpt lat="39.309725" lon="-8.59713667">
        <ele>6.0</ele>
        <time>2019-05-17T10:30:37.181Z</time>
      </trkpt>
      <trkpt lat="39.309725" lon="-8.59713667">
        <ele>6.0</ele>
        <time>2019-05-17T10:30:38.175Z</time>
      </trkpt>
      <trkpt lat="39.309725" lon="-8.59714333">
        <ele>6.0</ele>
        <time>2019-05-17T10:30:39.180Z</time>
      </trkpt>
      <trkpt lat="39.309725" lon="-8.59714333">
        <ele>6.0</ele>
        <time>2019-05-17T10:30:40.175Z</time>
      </trkpt>
      <trkpt lat="39.309725" lon="-8.59714333">
        <ele>5.0</ele>
        <time>2019-05-17T10:30:41.159Z</time>
      </trkpt>
      <trkpt lat="39.309725" lon="-8.59714333">
        <ele>5.0</ele>
        <time>2019-05-17T10:30:42.184Z</time>
      </trkpt>
      <trkpt lat="39.309725" lon="-8.59714333">
        <ele>5.0</ele>
        <time>2019-05-17T10:30:43.181Z</time>
      </trkpt>
      <trkpt lat="39.309725" lon="-8.59714333">
        <ele>5.0</ele>
        <time>2019-05-17T10:30:44.176Z</time>
      </trkpt>
      <trkpt lat="39.309725" lon="-8.59714333">
        <ele>5.0</ele>
        <time>2019-05-17T10:30:45.178Z</time>
      </trkpt>
      <trkpt lat="39.309725" lon="-8.59714333">
        <ele>5.0</ele>
        <time>2019-05-17T10:30:46.175Z</time>
      </trkpt>
      <trkpt lat="39.309725" lon="-8.59714333">
        <ele>5.0</ele>
        <time>2019-05-17T10:30:47.183Z</time>
      </trkpt>
      <trkpt lat="39.309725" lon="-8.59714333">
        <ele>5.0</ele>
        <time>2019-05-17T10:30:48.178Z</time>
      </trkpt>
      <trkpt lat="39.309725" lon="-8.59714333">
        <ele>5.0</ele>
        <time>2019-05-17T10:30:49.180Z</time>
      </trkpt>
      <trkpt lat="39.309725" lon="-8.59714333">
        <ele>5.0</ele>
        <time>2019-05-17T10:30:50.175Z</time>
      </trkpt>
      <trkpt lat="39.309725" lon="-8.59714333">
        <ele>5.0</ele>
        <time>2019-05-17T10:30:51.179Z</time>
      </trkpt>
      <trkpt lat="39.309725" lon="-8.59714333">
        <ele>5.0</ele>
        <time>2019-05-17T10:30:52.180Z</time>
      </trkpt>
      <trkpt lat="39.309725" lon="-8.59714333">
        <ele>5.0</ele>
        <time>2019-05-17T10:30:53.182Z</time>
      </trkpt>
      <trkpt lat="39.309725" lon="-8.59714333">
        <ele>5.0</ele>
        <time>2019-05-17T10:30:54.175Z</time>
      </trkpt>
      <trkpt lat="39.309725" lon="-8.59714333">
        <ele>5.0</ele>
        <time>2019-05-17T10:30:55.160Z</time>
      </trkpt>
      <trkpt lat="39.309725" lon="-8.59714333">
        <ele>5.0</ele>
        <time>2019-05-17T10:30:56.161Z</time>
      </trkpt>
      <trkpt lat="39.309725" lon="-8.59714333">
        <ele>5.0</ele>
        <time>2019-05-17T10:30:57.150Z</time>
      </trkpt>
      <trkpt lat="39.309725" lon="-8.59714333">
        <ele>5.0</ele>
        <time>2019-05-17T10:30:58.178Z</time>
      </trkpt>
      <trkpt lat="39.309725" lon="-8.59714333">
        <ele>5.0</ele>
        <time>2019-05-17T10:30:59.183Z</time>
      </trkpt>
      <trkpt lat="39.309725" lon="-8.59714333">
        <ele>5.0</ele>
        <time>2019-05-17T10:31:00.175Z</time>
      </trkpt>
      <trkpt lat="39.309725" lon="-8.59714333">
        <ele>5.0</ele>
        <time>2019-05-17T10:31:01.161Z</time>
      </trkpt>
      <trkpt lat="39.309725" lon="-8.59714333">
        <ele>5.0</ele>
        <time>2019-05-17T10:31:02.163Z</time>
      </trkpt>
      <trkpt lat="39.309725" lon="-8.59714333">
        <ele>5.0</ele>
        <time>2019-05-17T10:31:03.188Z</time>
      </trkpt>
      <trkpt lat="39.309725" lon="-8.59714333">
        <ele>5.0</ele>
        <time>2019-05-17T10:31:04.175Z</time>
      </trkpt>
      <trkpt lat="39.309725" lon="-8.59714333">
        <ele>5.0</ele>
        <time>2019-05-17T10:31:05.159Z</time>
      </trkpt>
      <trkpt lat="39.309725" lon="-8.59714333">
        <ele>5.0</ele>
        <time>2019-05-17T10:31:06.183Z</time>
      </trkpt>
      <trkpt lat="39.309725" lon="-8.59714333">
        <ele>5.0</ele>
        <time>2019-05-17T10:31:07.180Z</time>
      </trkpt>
      <trkpt lat="39.309725" lon="-8.59714333">
        <ele>5.0</ele>
        <time>2019-05-17T10:31:08.180Z</time>
      </trkpt>
      <trkpt lat="39.309725" lon="-8.59714333">
        <ele>5.0</ele>
        <time>2019-05-17T10:31:09.187Z</time>
      </trkpt>
      <trkpt lat="39.309725" lon="-8.59714333">
        <ele>5.0</ele>
        <time>2019-05-17T10:31:10.170Z</time>
      </trkpt>
      <trkpt lat="39.309725" lon="-8.59714333">
        <ele>5.0</ele>
        <time>2019-05-17T10:31:11.177Z</time>
      </trkpt>
      <trkpt lat="39.309725" lon="-8.59714333">
        <ele>5.0</ele>
        <time>2019-05-17T10:31:12.183Z</time>
      </trkpt>
      <trkpt lat="39.309725" lon="-8.59714333">
        <ele>5.0</ele>
        <time>2019-05-17T10:31:13.181Z</time>
      </trkpt>
      <trkpt lat="39.309725" lon="-8.59714333">
        <ele>5.0</ele>
        <time>2019-05-17T10:31:14.176Z</time>
      </trkpt>
      <trkpt lat="39.309725" lon="-8.59714333">
        <ele>5.0</ele>
        <time>2019-05-17T10:31:15.181Z</time>
      </trkpt>
      <trkpt lat="39.309725" lon="-8.59714333">
        <ele>5.0</ele>
        <time>2019-05-17T10:31:16.178Z</time>
      </trkpt>
      <trkpt lat="39.309725" lon="-8.59714333">
        <ele>5.0</ele>
        <time>2019-05-17T10:31:17.180Z</time>
      </trkpt>
      <trkpt lat="39.309725" lon="-8.59714333">
        <ele>5.0</ele>
        <time>2019-05-17T10:31:18.175Z</time>
      </trkpt>
      <trkpt lat="39.309725" lon="-8.59714333">
        <ele>5.0</ele>
        <time>2019-05-17T10:31:19.160Z</time>
      </trkpt>
      <trkpt lat="39.309725" lon="-8.59714333">
        <ele>5.0</ele>
        <time>2019-05-17T10:31:20.155Z</time>
      </trkpt>
      <trkpt lat="39.309725" lon="-8.59714333">
        <ele>5.0</ele>
        <time>2019-05-17T10:31:21.182Z</time>
      </trkpt>
      <trkpt lat="39.309725" lon="-8.59714333">
        <ele>5.0</ele>
        <time>2019-05-17T10:31:22.178Z</time>
      </trkpt>
      <trkpt lat="39.309725" lon="-8.59714333">
        <ele>5.0</ele>
        <time>2019-05-17T10:31:23.186Z</time>
      </trkpt>
      <trkpt lat="39.309725" lon="-8.59714333">
        <ele>5.0</ele>
        <time>2019-05-17T10:31:24.175Z</time>
      </trkpt>
      <trkpt lat="39.309725" lon="-8.59714333">
        <ele>5.0</ele>
        <time>2019-05-17T10:31:25.181Z</time>
      </trkpt>
      <trkpt lat="39.309725" lon="-8.59714333">
        <ele>5.0</ele>
        <time>2019-05-17T10:31:26.176Z</time>
      </trkpt>
      <trkpt lat="39.309725" lon="-8.59714333">
        <ele>5.0</ele>
        <time>2019-05-17T10:31:27.161Z</time>
      </trkpt>
      <trkpt lat="39.309725" lon="-8.59714333">
        <ele>5.0</ele>
        <time>2019-05-17T10:31:28.187Z</time>
      </trkpt>
      <trkpt lat="39.309725" lon="-8.59714333">
        <ele>5.0</ele>
        <time>2019-05-17T10:31:29.183Z</time>
      </trkpt>
      <trkpt lat="39.309725" lon="-8.59714333">
        <ele>5.0</ele>
        <time>2019-05-17T10:31:30.176Z</time>
      </trkpt>
      <trkpt lat="39.309725" lon="-8.59714333">
        <ele>5.0</ele>
        <time>2019-05-17T10:31:31.160Z</time>
      </trkpt>
      <trkpt lat="39.309725" lon="-8.59714333">
        <ele>5.0</ele>
        <time>2019-05-17T10:31:32.161Z</time>
      </trkpt>
      <trkpt lat="39.309725" lon="-8.59714333">
        <ele>5.0</ele>
        <time>2019-05-17T10:31:33.188Z</time>
      </trkpt>
      <trkpt lat="39.309725" lon="-8.59714333">
        <ele>5.0</ele>
        <time>2019-05-17T10:31:34.175Z</time>
      </trkpt>
      <trkpt lat="39.309725" lon="-8.59714333">
        <ele>5.0</ele>
        <time>2019-05-17T10:31:35.180Z</time>
      </trkpt>
      <trkpt lat="39.309725" lon="-8.59714333">
        <ele>5.0</ele>
        <time>2019-05-17T10:31:36.175Z</time>
      </trkpt>
      <trkpt lat="39.309725" lon="-8.59714333">
        <ele>5.0</ele>
        <time>2019-05-17T10:31:37.161Z</time>
      </trkpt>
      <trkpt lat="39.309725" lon="-8.59714333">
        <ele>5.0</ele>
        <time>2019-05-17T10:31:38.151Z</time>
      </trkpt>
      <trkpt lat="39.309725" lon="-8.59714333">
        <ele>5.0</ele>
        <time>2019-05-17T10:31:39.180Z</time>
      </trkpt>
      <trkpt lat="39.309725" lon="-8.59714333">
        <ele>5.0</ele>
        <time>2019-05-17T10:31:40.178Z</time>
      </trkpt>
      <trkpt lat="39.309725" lon="-8.59714333">
        <ele>5.0</ele>
        <time>2019-05-17T10:31:41.163Z</time>
      </trkpt>
      <trkpt lat="39.309725" lon="-8.59714333">
        <ele>5.0</ele>
        <time>2019-05-17T10:31:42.150Z</time>
      </trkpt>
      <trkpt lat="39.309725" lon="-8.59714333">
        <ele>5.0</ele>
        <time>2019-05-17T10:31:43.181Z</time>
      </trkpt>
      <trkpt lat="39.309725" lon="-8.59714333">
        <ele>5.0</ele>
        <time>2019-05-17T10:31:44.176Z</time>
      </trkpt>
      <trkpt lat="39.309725" lon="-8.59714333">
        <ele>5.0</ele>
        <time>2019-05-17T10:31:45.180Z</time>
      </trkpt>
      <trkpt lat="39.309725" lon="-8.59714333">
        <ele>5.0</ele>
        <time>2019-05-17T10:31:46.176Z</time>
      </trkpt>
      <trkpt lat="39.309725" lon="-8.59714333">
        <ele>5.0</ele>
        <time>2019-05-17T10:31:47.184Z</time>
      </trkpt>
      <trkpt lat="39.309725" lon="-8.59714333">
        <ele>5.0</ele>
        <time>2019-05-17T10:31:48.176Z</time>
      </trkpt>
      <trkpt lat="39.309725" lon="-8.59714333">
        <ele>5.0</ele>
        <time>2019-05-17T10:31:49.179Z</time>
      </trkpt>
      <trkpt lat="39.309725" lon="-8.59714333">
        <ele>5.0</ele>
        <time>2019-05-17T10:31:50.175Z</time>
      </trkpt>
      <trkpt lat="39.309725" lon="-8.59714333">
        <ele>5.0</ele>
        <time>2019-05-17T10:31:51.160Z</time>
      </trkpt>
      <trkpt lat="39.309725" lon="-8.59714333">
        <ele>5.0</ele>
        <time>2019-05-17T10:31:52.186Z</time>
      </trkpt>
      <trkpt lat="39.309725" lon="-8.59714333">
        <ele>5.0</ele>
        <time>2019-05-17T10:31:53.178Z</time>
      </trkpt>
      <trkpt lat="39.309725" lon="-8.59714333">
        <ele>5.0</ele>
        <time>2019-05-17T10:31:54.180Z</time>
      </trkpt>
      <trkpt lat="39.309725" lon="-8.59714333">
        <ele>5.0</ele>
        <time>2019-05-17T10:31:55.175Z</time>
      </trkpt>
      <trkpt lat="39.309725" lon="-8.59714333">
        <ele>5.0</ele>
        <time>2019-05-17T10:31:56.180Z</time>
      </trkpt>
      <trkpt lat="39.309725" lon="-8.59714333">
        <ele>5.0</ele>
        <time>2019-05-17T10:31:57.178Z</time>
      </trkpt>
      <trkpt lat="39.309725" lon="-8.59714333">
        <ele>5.0</ele>
        <time>2019-05-17T10:31:58.180Z</time>
      </trkpt>
      <trkpt lat="39.309725" lon="-8.59714333">
        <ele>5.0</ele>
        <time>2019-05-17T10:31:59.183Z</time>
      </trkpt>
      <trkpt lat="39.309725" lon="-8.59714333">
        <ele>5.0</ele>
        <time>2019-05-17T10:32:00.175Z</time>
      </trkpt>
      <trkpt lat="39.309725" lon="-8.59714333">
        <ele>5.0</ele>
        <time>2019-05-17T10:32:01.181Z</time>
      </trkpt>
      <trkpt lat="39.309725" lon="-8.59714333">
        <ele>5.0</ele>
        <time>2019-05-17T10:32:02.178Z</time>
      </trkpt>
      <trkpt lat="39.309725" lon="-8.59714333">
        <ele>5.0</ele>
        <time>2019-05-17T10:32:03.180Z</time>
      </trkpt>
      <trkpt lat="39.309725" lon="-8.59714333">
        <ele>5.0</ele>
        <time>2019-05-17T10:32:04.187Z</time>
      </trkpt>
      <trkpt lat="39.309725" lon="-8.59714333">
        <ele>5.0</ele>
        <time>2019-05-17T10:32:05.182Z</time>
      </trkpt>
      <trkpt lat="39.309725" lon="-8.59714333">
        <ele>5.0</ele>
        <time>2019-05-17T10:32:06.175Z</time>
      </trkpt>
      <trkpt lat="39.309725" lon="-8.59714333">
        <ele>5.0</ele>
        <time>2019-05-17T10:32:07.161Z</time>
      </trkpt>
      <trkpt lat="39.309725" lon="-8.59714333">
        <ele>5.0</ele>
        <time>2019-05-17T10:32:08.187Z</time>
      </trkpt>
      <trkpt lat="39.309725" lon="-8.59714333">
        <ele>5.0</ele>
        <time>2019-05-17T10:32:09.151Z</time>
      </trkpt>
      <trkpt lat="39.309725" lon="-8.59714333">
        <ele>5.0</ele>
        <time>2019-05-17T10:32:10.160Z</time>
      </trkpt>
      <trkpt lat="39.309725" lon="-8.59714333">
        <ele>5.0</ele>
        <time>2019-05-17T10:32:11.173Z</time>
      </trkpt>
      <trkpt lat="39.309725" lon="-8.59714333">
        <ele>5.0</ele>
        <time>2019-05-17T10:32:12.179Z</time>
      </trkpt>
      <trkpt lat="39.309725" lon="-8.59714333">
        <ele>5.0</ele>
        <time>2019-05-17T10:32:13.181Z</time>
      </trkpt>
      <trkpt lat="39.309725" lon="-8.59714333">
        <ele>5.0</ele>
        <time>2019-05-17T10:32:14.176Z</time>
      </trkpt>
      <trkpt lat="39.309725" lon="-8.59714333">
        <ele>5.0</ele>
        <time>2019-05-17T10:32:15.155Z</time>
      </trkpt>
      <trkpt lat="39.309725" lon="-8.59714333">
        <ele>5.0</ele>
        <time>2019-05-17T10:32:16.182Z</time>
      </trkpt>
      <trkpt lat="39.309725" lon="-8.59714333">
        <ele>5.0</ele>
        <time>2019-05-17T10:32:17.181Z</time>
      </trkpt>
      <trkpt lat="39.309725" lon="-8.59714333">
        <ele>5.0</ele>
        <time>2019-05-17T10:32:18.150Z</time>
      </trkpt>
      <trkpt lat="39.309725" lon="-8.59714333">
        <ele>5.0</ele>
        <time>2019-05-17T10:32:19.176Z</time>
      </trkpt>
      <trkpt lat="39.309725" lon="-8.59714333">
        <ele>5.0</ele>
        <time>2019-05-17T10:32:20.181Z</time>
      </trkpt>
      <trkpt lat="39.309725" lon="-8.59714333">
        <ele>5.0</ele>
        <time>2019-05-17T10:32:21.176Z</time>
      </trkpt>
      <trkpt lat="39.309725" lon="-8.59714333">
        <ele>5.0</ele>
        <time>2019-05-17T10:32:22.161Z</time>
      </trkpt>
      <trkpt lat="39.309725" lon="-8.59714333">
        <ele>5.0</ele>
        <time>2019-05-17T10:32:23.187Z</time>
      </trkpt>
      <trkpt lat="39.309725" lon="-8.59714333">
        <ele>5.0</ele>
        <time>2019-05-17T10:32:24.176Z</time>
      </trkpt>
      <trkpt lat="39.309725" lon="-8.59714333">
        <ele>5.0</ele>
        <time>2019-05-17T10:32:25.181Z</time>
      </trkpt>
      <trkpt lat="39.309725" lon="-8.59714333">
        <ele>5.0</ele>
        <time>2019-05-17T10:32:26.181Z</time>
      </trkpt>
      <trkpt lat="39.309725" lon="-8.59714333">
        <ele>5.0</ele>
        <time>2019-05-17T10:32:27.176Z</time>
      </trkpt>
      <trkpt lat="39.309725" lon="-8.59714333">
        <ele>5.0</ele>
        <time>2019-05-17T10:32:28.181Z</time>
      </trkpt>
      <trkpt lat="39.309725" lon="-8.59714333">
        <ele>5.0</ele>
        <time>2019-05-17T10:32:29.184Z</time>
      </trkpt>
      <trkpt lat="39.309725" lon="-8.59714333">
        <ele>5.0</ele>
        <time>2019-05-17T10:32:30.176Z</time>
      </trkpt>
      <trkpt lat="39.309725" lon="-8.59714333">
        <ele>5.0</ele>
        <time>2019-05-17T10:32:31.162Z</time>
      </trkpt>
      <trkpt lat="39.309725" lon="-8.59714333">
        <ele>5.0</ele>
        <time>2019-05-17T10:32:32.176Z</time>
      </trkpt>
      <trkpt lat="39.309725" lon="-8.59714333">
        <ele>5.0</ele>
        <time>2019-05-17T10:32:33.181Z</time>
      </trkpt>
      <trkpt lat="39.309725" lon="-8.59714333">
        <ele>5.0</ele>
        <time>2019-05-17T10:32:34.176Z</time>
      </trkpt>
      <trkpt lat="39.309725" lon="-8.59714333">
        <ele>5.0</ele>
        <time>2019-05-17T10:32:35.152Z</time>
      </trkpt>
      <trkpt lat="39.309725" lon="-8.59714333">
        <ele>5.0</ele>
        <time>2019-05-17T10:32:36.178Z</time>
      </trkpt>
      <trkpt lat="39.309725" lon="-8.59714333">
        <ele>5.0</ele>
        <time>2019-05-17T10:32:37.181Z</time>
      </trkpt>
      <trkpt lat="39.309725" lon="-8.59714333">
        <ele>5.0</ele>
        <time>2019-05-17T10:32:38.178Z</time>
      </trkpt>
      <trkpt lat="39.309725" lon="-8.59714333">
        <ele>5.0</ele>
        <time>2019-05-17T10:32:39.181Z</time>
      </trkpt>
      <trkpt lat="39.309725" lon="-8.59714333">
        <ele>5.0</ele>
        <time>2019-05-17T10:32:40.181Z</time>
      </trkpt>
      <trkpt lat="39.309725" lon="-8.59714333">
        <ele>5.0</ele>
        <time>2019-05-17T10:32:41.179Z</time>
      </trkpt>
      <trkpt lat="39.309725" lon="-8.59714333">
        <ele>5.0</ele>
        <time>2019-05-17T10:32:42.181Z</time>
      </trkpt>
      <trkpt lat="39.309725" lon="-8.59714333">
        <ele>5.0</ele>
        <time>2019-05-17T10:32:43.182Z</time>
      </trkpt>
      <trkpt lat="39.309725" lon="-8.59714333">
        <ele>5.0</ele>
        <time>2019-05-17T10:32:44.176Z</time>
      </trkpt>
      <trkpt lat="39.309725" lon="-8.59714333">
        <ele>5.0</ele>
        <time>2019-05-17T10:32:45.181Z</time>
      </trkpt>
      <trkpt lat="39.309725" lon="-8.59714333">
        <ele>5.0</ele>
        <time>2019-05-17T10:32:46.177Z</time>
      </trkpt>
      <trkpt lat="39.309725" lon="-8.59714333">
        <ele>5.0</ele>
        <time>2019-05-17T10:32:47.164Z</time>
      </trkpt>
      <trkpt lat="39.309725" lon="-8.59714333">
        <ele>5.0</ele>
        <time>2019-05-17T10:32:48.189Z</time>
      </trkpt>
      <trkpt lat="39.309725" lon="-8.59714333">
        <ele>5.0</ele>
        <time>2019-05-17T10:32:49.181Z</time>
      </trkpt>
      <trkpt lat="39.309725" lon="-8.59714333">
        <ele>5.0</ele>
        <time>2019-05-17T10:32:50.176Z</time>
      </trkpt>
      <trkpt lat="39.309725" lon="-8.59714333">
        <ele>5.0</ele>
        <time>2019-05-17T10:32:51.161Z</time>
      </trkpt>
      <trkpt lat="39.309725" lon="-8.59714333">
        <ele>5.0</ele>
        <time>2019-05-17T10:32:52.187Z</time>
      </trkpt>
      <trkpt lat="39.309725" lon="-8.59714333">
        <ele>5.0</ele>
        <time>2019-05-17T10:32:53.180Z</time>
      </trkpt>
      <trkpt lat="39.309725" lon="-8.59714333">
        <ele>5.0</ele>
        <time>2019-05-17T10:32:54.176Z</time>
      </trkpt>
      <trkpt lat="39.309725" lon="-8.59714333">
        <ele>5.0</ele>
        <time>2019-05-17T10:32:55.182Z</time>
      </trkpt>
      <trkpt lat="39.309725" lon="-8.59714333">
        <ele>5.0</ele>
        <time>2019-05-17T10:32:56.182Z</time>
      </trkpt>
      <trkpt lat="39.309725" lon="-8.59714333">
        <ele>5.0</ele>
        <time>2019-05-17T10:32:57.175Z</time>
      </trkpt>
      <trkpt lat="39.309725" lon="-8.59714333">
        <ele>5.0</ele>
        <time>2019-05-17T10:32:58.181Z</time>
      </trkpt>
      <trkpt lat="39.309725" lon="-8.59714333">
        <ele>5.0</ele>
        <time>2019-05-17T10:32:59.156Z</time>
      </trkpt>
      <trkpt lat="39.309725" lon="-8.59714333">
        <ele>5.0</ele>
        <time>2019-05-17T10:33:00.176Z</time>
      </trkpt>
      <trkpt lat="39.309725" lon="-8.59714333">
        <ele>5.0</ele>
        <time>2019-05-17T10:33:01.162Z</time>
      </trkpt>
      <trkpt lat="39.309725" lon="-8.59714333">
        <ele>5.0</ele>
        <time>2019-05-17T10:33:02.187Z</time>
      </trkpt>
      <trkpt lat="39.309725" lon="-8.59714333">
        <ele>5.0</ele>
        <time>2019-05-17T10:33:03.181Z</time>
      </trkpt>
      <trkpt lat="39.309725" lon="-8.59714333">
        <ele>5.0</ele>
        <time>2019-05-17T10:33:04.185Z</time>
      </trkpt>
      <trkpt lat="39.309725" lon="-8.59714333">
        <ele>5.0</ele>
        <time>2019-05-17T10:33:05.184Z</time>
      </trkpt>
      <trkpt lat="39.309725" lon="-8.59714333">
        <ele>5.0</ele>
        <time>2019-05-17T10:33:06.177Z</time>
      </trkpt>
      <trkpt lat="39.309725" lon="-8.59714333">
        <ele>5.0</ele>
        <time>2019-05-17T10:33:07.177Z</time>
      </trkpt>
      <trkpt lat="39.309725" lon="-8.59714333">
        <ele>5.0</ele>
        <time>2019-05-17T10:33:08.181Z</time>
      </trkpt>
      <trkpt lat="39.309725" lon="-8.59714333">
        <ele>5.0</ele>
        <time>2019-05-17T10:33:09.182Z</time>
      </trkpt>
      <trkpt lat="39.309725" lon="-8.59714333">
        <ele>5.0</ele>
        <time>2019-05-17T10:33:10.177Z</time>
      </trkpt>
      <trkpt lat="39.309725" lon="-8.59714333">
        <ele>5.0</ele>
        <time>2019-05-17T10:33:11.164Z</time>
      </trkpt>
      <trkpt lat="39.309725" lon="-8.59714333">
        <ele>5.0</ele>
        <time>2019-05-17T10:33:12.150Z</time>
      </trkpt>
      <trkpt lat="39.309725" lon="-8.59714333">
        <ele>5.0</ele>
        <time>2019-05-17T10:33:13.183Z</time>
      </trkpt>
      <trkpt lat="39.309725" lon="-8.59714333">
        <ele>5.0</ele>
        <time>2019-05-17T10:33:14.177Z</time>
      </trkpt>
      <trkpt lat="39.309725" lon="-8.59714333">
        <ele>5.0</ele>
        <time>2019-05-17T10:33:15.181Z</time>
      </trkpt>
      <trkpt lat="39.309725" lon="-8.59714333">
        <ele>5.0</ele>
        <time>2019-05-17T10:33:16.176Z</time>
      </trkpt>
      <trkpt lat="39.309725" lon="-8.59714333">
        <ele>5.0</ele>
        <time>2019-05-17T10:33:17.187Z</time>
      </trkpt>
      <trkpt lat="39.309725" lon="-8.59714333">
        <ele>5.0</ele>
        <time>2019-05-17T10:33:18.177Z</time>
      </trkpt>
      <trkpt lat="39.309725" lon="-8.59714333">
        <ele>5.0</ele>
        <time>2019-05-17T10:33:19.181Z</time>
      </trkpt>
      <trkpt lat="39.309725" lon="-8.59714333">
        <ele>5.0</ele>
        <time>2019-05-17T10:33:20.177Z</time>
      </trkpt>
      <trkpt lat="39.309725" lon="-8.59714333">
        <ele>5.0</ele>
        <time>2019-05-17T10:33:21.162Z</time>
      </trkpt>
      <trkpt lat="39.309725" lon="-8.59714333">
        <ele>5.0</ele>
        <time>2019-05-17T10:33:22.187Z</time>
      </trkpt>
      <trkpt lat="39.309725" lon="-8.59714333">
        <ele>5.0</ele>
        <time>2019-05-17T10:33:23.186Z</time>
      </trkpt>
      <trkpt lat="39.309725" lon="-8.59714333">
        <ele>5.0</ele>
        <time>2019-05-17T10:33:24.177Z</time>
      </trkpt>
      <trkpt lat="39.309725" lon="-8.59714333">
        <ele>5.0</ele>
        <time>2019-05-17T10:33:25.180Z</time>
      </trkpt>
      <trkpt lat="39.309725" lon="-8.59714333">
        <ele>5.0</ele>
        <time>2019-05-17T10:33:26.176Z</time>
      </trkpt>
      <trkpt lat="39.309725" lon="-8.59714333">
        <ele>5.0</ele>
        <time>2019-05-17T10:33:27.181Z</time>
      </trkpt>
      <trkpt lat="39.309725" lon="-8.59714333">
        <ele>5.0</ele>
        <time>2019-05-17T10:33:28.176Z</time>
      </trkpt>
      <trkpt lat="39.309725" lon="-8.59714333">
        <ele>5.0</ele>
        <time>2019-05-17T10:33:29.160Z</time>
      </trkpt>
      <trkpt lat="39.309725" lon="-8.59714333">
        <ele>5.0</ele>
        <time>2019-05-17T10:33:30.187Z</time>
      </trkpt>
      <trkpt lat="39.30973667" lon="-8.59715333">
        <ele>7.0</ele>
        <time>2019-05-17T10:33:31.181Z</time>
      </trkpt>
      <trkpt lat="39.30972833" lon="-8.597155">
        <ele>7.0</ele>
        <time>2019-05-17T10:33:32.182Z</time>
      </trkpt>
      <trkpt lat="39.30972833" lon="-8.597155">
        <ele>7.0</ele>
        <time>2019-05-17T10:33:33.177Z</time>
      </trkpt>
      <trkpt lat="39.30971833" lon="-8.59714">
        <ele>7.0</ele>
        <time>2019-05-17T10:33:34.150Z</time>
      </trkpt>
      <trkpt lat="39.30971667" lon="-8.59713">
        <ele>7.0</ele>
        <time>2019-05-17T10:33:35.184Z</time>
      </trkpt>
      <trkpt lat="39.30971667" lon="-8.59712167">
        <ele>7.0</ele>
        <time>2019-05-17T10:33:36.182Z</time>
      </trkpt>
      <trkpt lat="39.30971667" lon="-8.59712167">
        <ele>7.0</ele>
        <time>2019-05-17T10:33:37.179Z</time>
      </trkpt>
      <trkpt lat="39.30971167" lon="-8.59710333">
        <ele>7.0</ele>
        <time>2019-05-17T10:33:38.157Z</time>
      </trkpt>
      <trkpt lat="39.30971167" lon="-8.59710333">
        <ele>7.0</ele>
        <time>2019-05-17T10:33:39.184Z</time>
      </trkpt>
      <trkpt lat="39.3097" lon="-8.59707">
        <ele>7.0</ele>
        <time>2019-05-17T10:33:40.181Z</time>
      </trkpt>
      <trkpt lat="39.309695" lon="-8.59704833">
        <ele>7.0</ele>
        <time>2019-05-17T10:33:41.183Z</time>
      </trkpt>
      <trkpt lat="39.309695" lon="-8.59704833">
        <ele>7.0</ele>
        <time>2019-05-17T10:33:42.179Z</time>
      </trkpt>
      <trkpt lat="39.30967833" lon="-8.59699667">
        <ele>7.0</ele>
        <time>2019-05-17T10:33:43.150Z</time>
      </trkpt>
      <trkpt lat="39.30967833" lon="-8.59699667">
        <ele>7.0</ele>
        <time>2019-05-17T10:33:44.187Z</time>
      </trkpt>
      <trkpt lat="39.30966333" lon="-8.59694333">
        <ele>7.0</ele>
        <time>2019-05-17T10:33:45.170Z</time>
      </trkpt>
      <trkpt lat="39.309655" lon="-8.59691667">
        <ele>7.0</ele>
        <time>2019-05-17T10:33:46.168Z</time>
      </trkpt>
      <trkpt lat="39.30964833" lon="-8.59689167">
        <ele>7.0</ele>
        <time>2019-05-17T10:33:47.150Z</time>
      </trkpt>
      <trkpt lat="39.30964833" lon="-8.59689167">
        <ele>7.0</ele>
        <time>2019-05-17T10:33:48.169Z</time>
      </trkpt>
      <trkpt lat="39.30964" lon="-8.596835">
        <ele>8.0</ele>
        <time>2019-05-17T10:33:49.188Z</time>
      </trkpt>
      <trkpt lat="39.30964" lon="-8.596835">
        <ele>8.0</ele>
        <time>2019-05-17T10:33:50.156Z</time>
      </trkpt>
      <trkpt lat="39.30963" lon="-8.59677167">
        <ele>8.0</ele>
        <time>2019-05-17T10:33:51.165Z</time>
      </trkpt>
      <trkpt lat="39.30963" lon="-8.59677167">
        <ele>8.0</ele>
        <time>2019-05-17T10:33:52.181Z</time>
      </trkpt>
      <trkpt lat="39.30961333" lon="-8.59670667">
        <ele>8.0</ele>
        <time>2019-05-17T10:33:53.190Z</time>
      </trkpt>
      <trkpt lat="39.30961333" lon="-8.59670667">
        <ele>8.0</ele>
        <time>2019-05-17T10:33:54.169Z</time>
      </trkpt>
      <trkpt lat="39.30960167" lon="-8.59664333">
        <ele>8.0</ele>
        <time>2019-05-17T10:33:55.190Z</time>
      </trkpt>
      <trkpt lat="39.30960167" lon="-8.59664333">
        <ele>8.0</ele>
        <time>2019-05-17T10:33:56.160Z</time>
      </trkpt>
      <trkpt lat="39.30958167" lon="-8.59657833">
        <ele>8.0</ele>
        <time>2019-05-17T10:33:57.171Z</time>
      </trkpt>
      <trkpt lat="39.30957167" lon="-8.59654333">
        <ele>8.0</ele>
        <time>2019-05-17T10:33:58.153Z</time>
      </trkpt>
      <trkpt lat="39.309565" lon="-8.59650833">
        <ele>8.0</ele>
        <time>2019-05-17T10:33:59.172Z</time>
      </trkpt>
      <trkpt lat="39.309565" lon="-8.59650833">
        <ele>8.0</ele>
        <time>2019-05-17T10:34:00.150Z</time>
      </trkpt>
      <trkpt lat="39.309545" lon="-8.59643667">
        <ele>8.0</ele>
        <time>2019-05-17T10:34:01.258Z</time>
      </trkpt>
      <trkpt lat="39.309545" lon="-8.59643667">
        <ele>8.0</ele>
        <time>2019-05-17T10:34:02.162Z</time>
      </trkpt>
      <trkpt lat="39.309525" lon="-8.596365">
        <ele>8.0</ele>
        <time>2019-05-17T10:34:03.181Z</time>
      </trkpt>
      <trkpt lat="39.309525" lon="-8.596365">
        <ele>8.0</ele>
        <time>2019-05-17T10:34:04.151Z</time>
      </trkpt>
      <trkpt lat="39.309505" lon="-8.59629667">
        <ele>8.0</ele>
        <time>2019-05-17T10:34:05.166Z</time>
      </trkpt>
      <trkpt lat="39.309505" lon="-8.59629667">
        <ele>8.0</ele>
        <time>2019-05-17T10:34:06.182Z</time>
      </trkpt>
      <trkpt lat="39.30948667" lon="-8.59622833">
        <ele>8.0</ele>
        <time>2019-05-17T10:34:07.157Z</time>
      </trkpt>
      <trkpt lat="39.30948667" lon="-8.59622833">
        <ele>8.0</ele>
        <time>2019-05-17T10:34:08.169Z</time>
      </trkpt>
      <trkpt lat="39.30946833" lon="-8.59616167">
        <ele>8.0</ele>
        <time>2019-05-17T10:34:09.152Z</time>
      </trkpt>
      <trkpt lat="39.30946833" lon="-8.59616167">
        <ele>8.0</ele>
        <time>2019-05-17T10:34:10.188Z</time>
      </trkpt>
      <trkpt lat="39.30945167" lon="-8.59608833">
        <ele>8.0</ele>
        <time>2019-05-17T10:34:11.171Z</time>
      </trkpt>
      <trkpt lat="39.30945167" lon="-8.59608833">
        <ele>8.0</ele>
        <time>2019-05-17T10:34:12.151Z</time>
      </trkpt>
      <trkpt lat="39.30943167" lon="-8.596015">
        <ele>8.0</ele>
        <time>2019-05-17T10:34:13.168Z</time>
      </trkpt>
      <trkpt lat="39.30943167" lon="-8.596015">
        <ele>8.0</ele>
        <time>2019-05-17T10:34:14.177Z</time>
      </trkpt>
      <trkpt lat="39.30941167" lon="-8.59594">
        <ele>8.0</ele>
        <time>2019-05-17T10:34:15.162Z</time>
      </trkpt>
      <trkpt lat="39.30941167" lon="-8.59594">
        <ele>8.0</ele>
        <time>2019-05-17T10:34:16.152Z</time>
      </trkpt>
      <trkpt lat="39.30939" lon="-8.59586667">
        <ele>8.0</ele>
        <time>2019-05-17T10:34:17.171Z</time>
      </trkpt>
      <trkpt lat="39.30939" lon="-8.59586667">
        <ele>8.0</ele>
        <time>2019-05-17T10:34:18.152Z</time>
      </trkpt>
      <trkpt lat="39.30937" lon="-8.59579">
        <ele>8.0</ele>
        <time>2019-05-17T10:34:19.180Z</time>
      </trkpt>
      <trkpt lat="39.30937" lon="-8.59579">
        <ele>8.0</ele>
        <time>2019-05-17T10:34:20.157Z</time>
      </trkpt>
      <trkpt lat="39.30935" lon="-8.59571167">
        <ele>8.0</ele>
        <time>2019-05-17T10:34:21.173Z</time>
      </trkpt>
      <trkpt lat="39.30935" lon="-8.59571167">
        <ele>8.0</ele>
        <time>2019-05-17T10:34:22.183Z</time>
      </trkpt>
      <trkpt lat="39.30932667" lon="-8.59563333">
        <ele>8.0</ele>
        <time>2019-05-17T10:34:23.155Z</time>
      </trkpt>
      <trkpt lat="39.30932667" lon="-8.59563333">
        <ele>8.0</ele>
        <time>2019-05-17T10:34:24.169Z</time>
      </trkpt>
      <trkpt lat="39.30930667" lon="-8.59555167">
        <ele>8.0</ele>
        <time>2019-05-17T10:34:25.184Z</time>
      </trkpt>
      <trkpt lat="39.30930667" lon="-8.59555167">
        <ele>8.0</ele>
        <time>2019-05-17T10:34:26.153Z</time>
      </trkpt>
      <trkpt lat="39.30928833" lon="-8.59547667">
        <ele>8.0</ele>
        <time>2019-05-17T10:34:27.165Z</time>
      </trkpt>
      <trkpt lat="39.30928833" lon="-8.59547667">
        <ele>8.0</ele>
        <time>2019-05-17T10:34:28.176Z</time>
      </trkpt>
      <trkpt lat="39.30926667" lon="-8.59540167">
        <ele>8.0</ele>
        <time>2019-05-17T10:34:29.187Z</time>
      </trkpt>
      <trkpt lat="39.30926667" lon="-8.59540167">
        <ele>8.0</ele>
        <time>2019-05-17T10:34:30.155Z</time>
      </trkpt>
      <trkpt lat="39.30924667" lon="-8.595325">
        <ele>8.0</ele>
        <time>2019-05-17T10:34:31.179Z</time>
      </trkpt>
      <trkpt lat="39.30924667" lon="-8.595325">
        <ele>8.0</ele>
        <time>2019-05-17T10:34:32.156Z</time>
      </trkpt>
      <trkpt lat="39.30922667" lon="-8.59525167">
        <ele>8.0</ele>
        <time>2019-05-17T10:34:33.185Z</time>
      </trkpt>
      <trkpt lat="39.30922667" lon="-8.59525167">
        <ele>8.0</ele>
        <time>2019-05-17T10:34:34.154Z</time>
      </trkpt>
      <trkpt lat="39.30921167" lon="-8.595175">
        <ele>9.0</ele>
        <time>2019-05-17T10:34:35.150Z</time>
      </trkpt>
      <trkpt lat="39.30921167" lon="-8.595175">
        <ele>9.0</ele>
        <time>2019-05-17T10:34:36.183Z</time>
      </trkpt>
      <trkpt lat="39.30919167" lon="-8.59510167">
        <ele>9.0</ele>
        <time>2019-05-17T10:34:37.157Z</time>
      </trkpt>
      <trkpt lat="39.30919167" lon="-8.59510167">
        <ele>9.0</ele>
        <time>2019-05-17T10:34:38.171Z</time>
      </trkpt>
      <trkpt lat="39.30917167" lon="-8.595025">
        <ele>9.0</ele>
        <time>2019-05-17T10:34:39.189Z</time>
      </trkpt>
      <trkpt lat="39.30917167" lon="-8.595025">
        <ele>9.0</ele>
        <time>2019-05-17T10:34:40.171Z</time>
      </trkpt>
      <trkpt lat="39.30915" lon="-8.59495">
        <ele>9.0</ele>
        <time>2019-05-17T10:34:41.183Z</time>
      </trkpt>
      <trkpt lat="39.30915" lon="-8.59495">
        <ele>9.0</ele>
        <time>2019-05-17T10:34:42.152Z</time>
      </trkpt>
      <trkpt lat="39.30912833" lon="-8.59487833">
        <ele>9.0</ele>
        <time>2019-05-17T10:34:43.161Z</time>
      </trkpt>
      <trkpt lat="39.30912833" lon="-8.59487833">
        <ele>9.0</ele>
        <time>2019-05-17T10:34:44.167Z</time>
      </trkpt>
      <trkpt lat="39.30911" lon="-8.59480833">
        <ele>9.0</ele>
        <time>2019-05-17T10:34:45.180Z</time>
      </trkpt>
      <trkpt lat="39.30911" lon="-8.59480833">
        <ele>9.0</ele>
        <time>2019-05-17T10:34:46.187Z</time>
      </trkpt>
      <trkpt lat="39.30909167" lon="-8.59473333">
        <ele>9.0</ele>
        <time>2019-05-17T10:34:47.158Z</time>
      </trkpt>
      <trkpt lat="39.30909167" lon="-8.59473333">
        <ele>9.0</ele>
        <time>2019-05-17T10:34:48.167Z</time>
      </trkpt>
      <trkpt lat="39.30907167" lon="-8.594655">
        <ele>9.0</ele>
        <time>2019-05-17T10:34:49.180Z</time>
      </trkpt>
      <trkpt lat="39.30907167" lon="-8.594655">
        <ele>9.0</ele>
        <time>2019-05-17T10:34:50.150Z</time>
      </trkpt>
      <trkpt lat="39.30904833" lon="-8.59457333">
        <ele>9.0</ele>
        <time>2019-05-17T10:34:51.172Z</time>
      </trkpt>
      <trkpt lat="39.30903833" lon="-8.59452833">
        <ele>9.0</ele>
        <time>2019-05-17T10:34:52.160Z</time>
      </trkpt>
      <trkpt lat="39.30902667" lon="-8.594485">
        <ele>9.0</ele>
        <time>2019-05-17T10:34:53.180Z</time>
      </trkpt>
      <trkpt lat="39.30902667" lon="-8.594485">
        <ele>9.0</ele>
        <time>2019-05-17T10:34:54.152Z</time>
      </trkpt>
      <trkpt lat="39.309" lon="-8.59439833">
        <ele>9.0</ele>
        <time>2019-05-17T10:34:55.169Z</time>
      </trkpt>
      <trkpt lat="39.30899" lon="-8.59435333">
        <ele>9.0</ele>
        <time>2019-05-17T10:34:56.162Z</time>
      </trkpt>
      <trkpt lat="39.30899" lon="-8.59435333">
        <ele>9.0</ele>
        <time>2019-05-17T10:34:57.171Z</time>
      </trkpt>
      <trkpt lat="39.30896667" lon="-8.59426833">
        <ele>8.0</ele>
        <time>2019-05-17T10:34:58.190Z</time>
      </trkpt>
      <trkpt lat="39.308955" lon="-8.594225">
        <ele>8.0</ele>
        <time>2019-05-17T10:34:59.168Z</time>
      </trkpt>
      <trkpt lat="39.308955" lon="-8.594225">
        <ele>8.0</ele>
        <time>2019-05-17T10:35:00.173Z</time>
      </trkpt>
      <trkpt lat="39.30893167" lon="-8.59414">
        <ele>8.0</ele>
        <time>2019-05-17T10:35:01.190Z</time>
      </trkpt>
      <trkpt lat="39.30892" lon="-8.59409667">
        <ele>8.0</ele>
        <time>2019-05-17T10:35:02.185Z</time>
      </trkpt>
      <trkpt lat="39.30892" lon="-8.59409667">
        <ele>8.0</ele>
        <time>2019-05-17T10:35:03.152Z</time>
      </trkpt>
      <trkpt lat="39.30889667" lon="-8.59401333">
        <ele>8.0</ele>
        <time>2019-05-17T10:35:04.167Z</time>
      </trkpt>
      <trkpt lat="39.308885" lon="-8.59397167">
        <ele>8.0</ele>
        <time>2019-05-17T10:35:05.162Z</time>
      </trkpt>
      <trkpt lat="39.308885" lon="-8.59397167">
        <ele>8.0</ele>
        <time>2019-05-17T10:35:06.173Z</time>
      </trkpt>
      <trkpt lat="39.308865" lon="-8.59389333">
        <ele>8.0</ele>
        <time>2019-05-17T10:35:07.171Z</time>
      </trkpt>
      <trkpt lat="39.308865" lon="-8.59389333">
        <ele>8.0</ele>
        <time>2019-05-17T10:35:08.184Z</time>
      </trkpt>
      <trkpt lat="39.308845" lon="-8.59381667">
        <ele>8.0</ele>
        <time>2019-05-17T10:35:09.170Z</time>
      </trkpt>
      <trkpt lat="39.308845" lon="-8.59381667">
        <ele>8.0</ele>
        <time>2019-05-17T10:35:10.175Z</time>
      </trkpt>
      <trkpt lat="39.30882833" lon="-8.59374333">
        <ele>8.0</ele>
        <time>2019-05-17T10:35:11.188Z</time>
      </trkpt>
      <trkpt lat="39.30882833" lon="-8.59374333">
        <ele>8.0</ele>
        <time>2019-05-17T10:35:12.161Z</time>
      </trkpt>
      <trkpt lat="39.30882" lon="-8.593665">
        <ele>8.0</ele>
        <time>2019-05-17T10:35:13.179Z</time>
      </trkpt>
      <trkpt lat="39.30882" lon="-8.593665">
        <ele>8.0</ele>
        <time>2019-05-17T10:35:14.151Z</time>
      </trkpt>
      <trkpt lat="39.30883667" lon="-8.59358833">
        <ele>9.0</ele>
        <time>2019-05-17T10:35:15.166Z</time>
      </trkpt>
      <trkpt lat="39.30883667" lon="-8.59358833">
        <ele>9.0</ele>
        <time>2019-05-17T10:35:16.181Z</time>
      </trkpt>
      <trkpt lat="39.30886833" lon="-8.59351667">
        <ele>9.0</ele>
        <time>2019-05-17T10:35:17.157Z</time>
      </trkpt>
      <trkpt lat="39.30886833" lon="-8.59351667">
        <ele>9.0</ele>
        <time>2019-05-17T10:35:18.174Z</time>
      </trkpt>
      <trkpt lat="39.30891" lon="-8.59345333">
        <ele>9.0</ele>
        <time>2019-05-17T10:35:19.194Z</time>
      </trkpt>
      <trkpt lat="39.30891" lon="-8.59345333">
        <ele>9.0</ele>
        <time>2019-05-17T10:35:20.171Z</time>
      </trkpt>
      <trkpt lat="39.30894833" lon="-8.59339">
        <ele>9.0</ele>
        <time>2019-05-17T10:35:21.155Z</time>
      </trkpt>
      <trkpt lat="39.30894833" lon="-8.59339">
        <ele>9.0</ele>
        <time>2019-05-17T10:35:22.167Z</time>
      </trkpt>
      <trkpt lat="39.30899167" lon="-8.59332833">
        <ele>9.0</ele>
        <time>2019-05-17T10:35:23.179Z</time>
      </trkpt>
      <trkpt lat="39.30899167" lon="-8.59332833">
        <ele>9.0</ele>
        <time>2019-05-17T10:35:24.152Z</time>
      </trkpt>
      <trkpt lat="39.30904" lon="-8.59326667">
        <ele>8.0</ele>
        <time>2019-05-17T10:35:25.167Z</time>
      </trkpt>
      <trkpt lat="39.30906167" lon="-8.593235">
        <ele>8.0</ele>
        <time>2019-05-17T10:35:26.151Z</time>
      </trkpt>
      <trkpt lat="39.30906167" lon="-8.593235">
        <ele>8.0</ele>
        <time>2019-05-17T10:35:27.169Z</time>
      </trkpt>
      <trkpt lat="39.30910667" lon="-8.59317333">
        <ele>8.0</ele>
        <time>2019-05-17T10:35:28.186Z</time>
      </trkpt>
      <trkpt lat="39.30910667" lon="-8.59317333">
        <ele>8.0</ele>
        <time>2019-05-17T10:35:29.161Z</time>
      </trkpt>
      <trkpt lat="39.30915167" lon="-8.59310833">
        <ele>8.0</ele>
        <time>2019-05-17T10:35:30.190Z</time>
      </trkpt>
      <trkpt lat="39.30915167" lon="-8.59310833">
        <ele>8.0</ele>
        <time>2019-05-17T10:35:31.171Z</time>
      </trkpt>
      <trkpt lat="39.30919667" lon="-8.59304333">
        <ele>8.0</ele>
        <time>2019-05-17T10:35:32.185Z</time>
      </trkpt>
      <trkpt lat="39.30919667" lon="-8.59304333">
        <ele>8.0</ele>
        <time>2019-05-17T10:35:33.155Z</time>
      </trkpt>
      <trkpt lat="39.30924167" lon="-8.59297667">
        <ele>8.0</ele>
        <time>2019-05-17T10:35:34.170Z</time>
      </trkpt>
      <trkpt lat="39.309265" lon="-8.59294333">
        <ele>8.0</ele>
        <time>2019-05-17T10:35:35.189Z</time>
      </trkpt>
      <trkpt lat="39.309265" lon="-8.59294333">
        <ele>8.0</ele>
        <time>2019-05-17T10:35:36.152Z</time>
      </trkpt>
      <trkpt lat="39.30931167" lon="-8.59287833">
        <ele>7.0</ele>
        <time>2019-05-17T10:35:37.164Z</time>
      </trkpt>
      <trkpt lat="39.30933333" lon="-8.592845">
        <ele>7.0</ele>
        <time>2019-05-17T10:35:38.187Z</time>
      </trkpt>
      <trkpt lat="39.30933333" lon="-8.592845">
        <ele>7.0</ele>
        <time>2019-05-17T10:35:39.155Z</time>
      </trkpt>
      <trkpt lat="39.30937833" lon="-8.59278333">
        <ele>7.0</ele>
        <time>2019-05-17T10:35:40.173Z</time>
      </trkpt>
      <trkpt lat="39.30940167" lon="-8.59275167">
        <ele>7.0</ele>
        <time>2019-05-17T10:35:41.187Z</time>
      </trkpt>
      <trkpt lat="39.30940167" lon="-8.59275167">
        <ele>7.0</ele>
        <time>2019-05-17T10:35:42.158Z</time>
      </trkpt>
      <trkpt lat="39.309445" lon="-8.59269167">
        <ele>7.0</ele>
        <time>2019-05-17T10:35:43.174Z</time>
      </trkpt>
      <trkpt lat="39.30946833" lon="-8.59266">
        <ele>7.0</ele>
        <time>2019-05-17T10:35:44.163Z</time>
      </trkpt>
      <trkpt lat="39.30946833" lon="-8.59266">
        <ele>7.0</ele>
        <time>2019-05-17T10:35:45.175Z</time>
      </trkpt>
      <trkpt lat="39.30951167" lon="-8.59259833">
        <ele>7.0</ele>
        <time>2019-05-17T10:35:46.191Z</time>
      </trkpt>
      <trkpt lat="39.30953333" lon="-8.59256667">
        <ele>7.0</ele>
        <time>2019-05-17T10:35:47.175Z</time>
      </trkpt>
      <trkpt lat="39.30953333" lon="-8.59256667">
        <ele>7.0</ele>
        <time>2019-05-17T10:35:48.186Z</time>
      </trkpt>
      <trkpt lat="39.309575" lon="-8.5925">
        <ele>7.0</ele>
        <time>2019-05-17T10:35:49.163Z</time>
      </trkpt>
      <trkpt lat="39.30959667" lon="-8.59246667">
        <ele>7.0</ele>
        <time>2019-05-17T10:35:50.181Z</time>
      </trkpt>
      <trkpt lat="39.30959667" lon="-8.59246667">
        <ele>7.0</ele>
        <time>2019-05-17T10:35:51.171Z</time>
      </trkpt>
      <trkpt lat="39.30964167" lon="-8.59240167">
        <ele>7.0</ele>
        <time>2019-05-17T10:35:52.151Z</time>
      </trkpt>
      <trkpt lat="39.309665" lon="-8.59236833">
        <ele>6.0</ele>
        <time>2019-05-17T10:35:53.187Z</time>
      </trkpt>
      <trkpt lat="39.309665" lon="-8.59236833">
        <ele>6.0</ele>
        <time>2019-05-17T10:35:54.161Z</time>
      </trkpt>
      <trkpt lat="39.30971167" lon="-8.5923">
        <ele>6.0</ele>
        <time>2019-05-17T10:35:55.175Z</time>
      </trkpt>
      <trkpt lat="39.30971167" lon="-8.5923">
        <ele>6.0</ele>
        <time>2019-05-17T10:35:56.187Z</time>
      </trkpt>
      <trkpt lat="39.30975667" lon="-8.592235">
        <ele>6.0</ele>
        <time>2019-05-17T10:35:57.182Z</time>
      </trkpt>
      <trkpt lat="39.30975667" lon="-8.592235">
        <ele>6.0</ele>
        <time>2019-05-17T10:35:58.159Z</time>
      </trkpt>
      <trkpt lat="39.30980167" lon="-8.59217">
        <ele>6.0</ele>
        <time>2019-05-17T10:35:59.177Z</time>
      </trkpt>
      <trkpt lat="39.30980167" lon="-8.59217">
        <ele>6.0</ele>
        <time>2019-05-17T10:36:00.186Z</time>
      </trkpt>
      <trkpt lat="39.309845" lon="-8.59210667">
        <ele>6.0</ele>
        <time>2019-05-17T10:36:01.170Z</time>
      </trkpt>
      <trkpt lat="39.309845" lon="-8.59210667">
        <ele>6.0</ele>
        <time>2019-05-17T10:36:02.178Z</time>
      </trkpt>
      <trkpt lat="39.309885" lon="-8.59204333">
        <ele>6.0</ele>
        <time>2019-05-17T10:36:03.159Z</time>
      </trkpt>
      <trkpt lat="39.309885" lon="-8.59204333">
        <ele>6.0</ele>
        <time>2019-05-17T10:36:04.155Z</time>
      </trkpt>
      <trkpt lat="39.30993" lon="-8.59198333">
        <ele>6.0</ele>
        <time>2019-05-17T10:36:05.168Z</time>
      </trkpt>
      <trkpt lat="39.30993" lon="-8.59198333">
        <ele>6.0</ele>
        <time>2019-05-17T10:36:06.173Z</time>
      </trkpt>
      <trkpt lat="39.30997167" lon="-8.59192167">
        <ele>6.0</ele>
        <time>2019-05-17T10:36:07.158Z</time>
      </trkpt>
      <trkpt lat="39.30997167" lon="-8.59192167">
        <ele>6.0</ele>
        <time>2019-05-17T10:36:08.178Z</time>
      </trkpt>
      <trkpt lat="39.310015" lon="-8.59185833">
        <ele>6.0</ele>
        <time>2019-05-17T10:36:09.162Z</time>
      </trkpt>
      <trkpt lat="39.310015" lon="-8.59185833">
        <ele>6.0</ele>
        <time>2019-05-17T10:36:10.183Z</time>
      </trkpt>
      <trkpt lat="39.31005667" lon="-8.591795">
        <ele>6.0</ele>
        <time>2019-05-17T10:36:11.177Z</time>
      </trkpt>
      <trkpt lat="39.31005667" lon="-8.591795">
        <ele>6.0</ele>
        <time>2019-05-17T10:36:12.169Z</time>
      </trkpt>
      <trkpt lat="39.3101" lon="-8.59173333">
        <ele>6.0</ele>
        <time>2019-05-17T10:36:13.159Z</time>
      </trkpt>
      <trkpt lat="39.3101" lon="-8.59173333">
        <ele>6.0</ele>
        <time>2019-05-17T10:36:14.167Z</time>
      </trkpt>
      <trkpt lat="39.31014333" lon="-8.59166833">
        <ele>6.0</ele>
        <time>2019-05-17T10:36:15.186Z</time>
      </trkpt>
      <trkpt lat="39.31014333" lon="-8.59166833">
        <ele>6.0</ele>
        <time>2019-05-17T10:36:16.189Z</time>
      </trkpt>
      <trkpt lat="39.310185" lon="-8.591605">
        <ele>6.0</ele>
        <time>2019-05-17T10:36:17.166Z</time>
      </trkpt>
      <trkpt lat="39.310185" lon="-8.591605">
        <ele>6.0</ele>
        <time>2019-05-17T10:36:18.175Z</time>
      </trkpt>
      <trkpt lat="39.31022833" lon="-8.59154">
        <ele>6.0</ele>
        <time>2019-05-17T10:36:19.159Z</time>
      </trkpt>
      <trkpt lat="39.31022833" lon="-8.59154">
        <ele>6.0</ele>
        <time>2019-05-17T10:36:20.179Z</time>
      </trkpt>
      <trkpt lat="39.31027" lon="-8.591475">
        <ele>6.0</ele>
        <time>2019-05-17T10:36:21.152Z</time>
      </trkpt>
      <trkpt lat="39.31027" lon="-8.591475">
        <ele>6.0</ele>
        <time>2019-05-17T10:36:22.175Z</time>
      </trkpt>
      <trkpt lat="39.310315" lon="-8.59141167">
        <ele>6.0</ele>
        <time>2019-05-17T10:36:23.168Z</time>
      </trkpt>
      <trkpt lat="39.310315" lon="-8.59141167">
        <ele>6.0</ele>
        <time>2019-05-17T10:36:24.178Z</time>
      </trkpt>
      <trkpt lat="39.31036167" lon="-8.59134833">
        <ele>5.0</ele>
        <time>2019-05-17T10:36:25.160Z</time>
      </trkpt>
      <trkpt lat="39.31036167" lon="-8.59134833">
        <ele>5.0</ele>
        <time>2019-05-17T10:36:26.180Z</time>
      </trkpt>
      <trkpt lat="39.31040667" lon="-8.591285">
        <ele>5.0</ele>
        <time>2019-05-17T10:36:27.158Z</time>
      </trkpt>
      <trkpt lat="39.31040667" lon="-8.591285">
        <ele>5.0</ele>
        <time>2019-05-17T10:36:28.174Z</time>
      </trkpt>
      <trkpt lat="39.31045" lon="-8.59121833">
        <ele>5.0</ele>
        <time>2019-05-17T10:36:29.167Z</time>
      </trkpt>
      <trkpt lat="39.31045" lon="-8.59121833">
        <ele>5.0</ele>
        <time>2019-05-17T10:36:30.161Z</time>
      </trkpt>
      <trkpt lat="39.31049333" lon="-8.59115">
        <ele>5.0</ele>
        <time>2019-05-17T10:36:31.180Z</time>
      </trkpt>
      <trkpt lat="39.31049333" lon="-8.59115">
        <ele>5.0</ele>
        <time>2019-05-17T10:36:32.172Z</time>
      </trkpt>
      <trkpt lat="39.31053833" lon="-8.591085">
        <ele>5.0</ele>
        <time>2019-05-17T10:36:33.153Z</time>
      </trkpt>
      <trkpt lat="39.31053833" lon="-8.591085">
        <ele>5.0</ele>
        <time>2019-05-17T10:36:34.176Z</time>
      </trkpt>
      <trkpt lat="39.31058167" lon="-8.59101833">
        <ele>5.0</ele>
        <time>2019-05-17T10:36:35.163Z</time>
      </trkpt>
      <trkpt lat="39.31058167" lon="-8.59101833">
        <ele>5.0</ele>
        <time>2019-05-17T10:36:36.183Z</time>
      </trkpt>
      <trkpt lat="39.310625" lon="-8.590955">
        <ele>5.0</ele>
        <time>2019-05-17T10:36:37.326Z</time>
      </trkpt>
      <trkpt lat="39.31064667" lon="-8.59092333">
        <ele>5.0</ele>
        <time>2019-05-17T10:36:38.170Z</time>
      </trkpt>
      <trkpt lat="39.31064667" lon="-8.59092333">
        <ele>5.0</ele>
        <time>2019-05-17T10:36:39.185Z</time>
      </trkpt>
      <trkpt lat="39.31069" lon="-8.59086333">
        <ele>5.0</ele>
        <time>2019-05-17T10:36:40.163Z</time>
      </trkpt>
      <trkpt lat="39.31071" lon="-8.59083167">
        <ele>5.0</ele>
        <time>2019-05-17T10:36:41.153Z</time>
      </trkpt>
      <trkpt lat="39.31071" lon="-8.59083167">
        <ele>5.0</ele>
        <time>2019-05-17T10:36:42.165Z</time>
      </trkpt>
      <trkpt lat="39.31075167" lon="-8.590775">
        <ele>4.0</ele>
        <time>2019-05-17T10:36:43.185Z</time>
      </trkpt>
      <trkpt lat="39.31075167" lon="-8.590775">
        <ele>4.0</ele>
        <time>2019-05-17T10:36:44.155Z</time>
      </trkpt>
      <trkpt lat="39.31078667" lon="-8.59072167">
        <ele>4.0</ele>
        <time>2019-05-17T10:36:45.167Z</time>
      </trkpt>
      <trkpt lat="39.31078667" lon="-8.59072167">
        <ele>4.0</ele>
        <time>2019-05-17T10:36:46.187Z</time>
      </trkpt>
      <trkpt lat="39.31082167" lon="-8.59066667">
        <ele>4.0</ele>
        <time>2019-05-17T10:36:47.171Z</time>
      </trkpt>
      <trkpt lat="39.31082167" lon="-8.59066667">
        <ele>4.0</ele>
        <time>2019-05-17T10:36:48.184Z</time>
      </trkpt>
      <trkpt lat="39.31086167" lon="-8.59061333">
        <ele>4.0</ele>
        <time>2019-05-17T10:36:49.157Z</time>
      </trkpt>
      <trkpt lat="39.31086167" lon="-8.59061333">
        <ele>4.0</ele>
        <time>2019-05-17T10:36:50.159Z</time>
      </trkpt>
      <trkpt lat="39.31090333" lon="-8.590555">
        <ele>4.0</ele>
        <time>2019-05-17T10:36:51.175Z</time>
      </trkpt>
      <trkpt lat="39.31092333" lon="-8.59052333">
        <ele>4.0</ele>
        <time>2019-05-17T10:36:52.164Z</time>
      </trkpt>
      <trkpt lat="39.310945" lon="-8.59049">
        <ele>4.0</ele>
        <time>2019-05-17T10:36:53.192Z</time>
      </trkpt>
      <trkpt lat="39.310945" lon="-8.59049">
        <ele>4.0</ele>
        <time>2019-05-17T10:36:54.177Z</time>
      </trkpt>
      <trkpt lat="39.31098833" lon="-8.59042333">
        <ele>4.0</ele>
        <time>2019-05-17T10:36:55.151Z</time>
      </trkpt>
      <trkpt lat="39.31098833" lon="-8.59042333">
        <ele>4.0</ele>
        <time>2019-05-17T10:36:56.162Z</time>
      </trkpt>
      <trkpt lat="39.31103167" lon="-8.590355">
        <ele>4.0</ele>
        <time>2019-05-17T10:36:57.178Z</time>
      </trkpt>
      <trkpt lat="39.31103167" lon="-8.590355">
        <ele>4.0</ele>
        <time>2019-05-17T10:36:58.157Z</time>
      </trkpt>
      <trkpt lat="39.31107833" lon="-8.590285">
        <ele>4.0</ele>
        <time>2019-05-17T10:36:59.163Z</time>
      </trkpt>
      <trkpt lat="39.31107833" lon="-8.590285">
        <ele>4.0</ele>
        <time>2019-05-17T10:37:00.169Z</time>
      </trkpt>
      <trkpt lat="39.31112333" lon="-8.59021667">
        <ele>4.0</ele>
        <time>2019-05-17T10:37:01.185Z</time>
      </trkpt>
      <trkpt lat="39.31112333" lon="-8.59021667">
        <ele>4.0</ele>
        <time>2019-05-17T10:37:02.155Z</time>
      </trkpt>
      <trkpt lat="39.31117" lon="-8.59014833">
        <ele>4.0</ele>
        <time>2019-05-17T10:37:03.168Z</time>
      </trkpt>
      <trkpt lat="39.31117" lon="-8.59014833">
        <ele>4.0</ele>
        <time>2019-05-17T10:37:04.155Z</time>
      </trkpt>
      <trkpt lat="39.311215" lon="-8.59008">
        <ele>4.0</ele>
        <time>2019-05-17T10:37:05.176Z</time>
      </trkpt>
      <trkpt lat="39.311215" lon="-8.59008">
        <ele>4.0</ele>
        <time>2019-05-17T10:37:06.184Z</time>
      </trkpt>
      <trkpt lat="39.31125833" lon="-8.59000833">
        <ele>4.0</ele>
        <time>2019-05-17T10:37:07.188Z</time>
      </trkpt>
      <trkpt lat="39.31125833" lon="-8.59000833">
        <ele>4.0</ele>
        <time>2019-05-17T10:37:08.161Z</time>
      </trkpt>
      <trkpt lat="39.311305" lon="-8.58993667">
        <ele>4.0</ele>
        <time>2019-05-17T10:37:09.160Z</time>
      </trkpt>
      <trkpt lat="39.31132833" lon="-8.5899">
        <ele>4.0</ele>
        <time>2019-05-17T10:37:10.162Z</time>
      </trkpt>
      <trkpt lat="39.31135167" lon="-8.58986333">
        <ele>4.0</ele>
        <time>2019-05-17T10:37:11.155Z</time>
      </trkpt>
      <trkpt lat="39.31135167" lon="-8.58986333">
        <ele>4.0</ele>
        <time>2019-05-17T10:37:12.171Z</time>
      </trkpt>
      <trkpt lat="39.31139833" lon="-8.58979167">
        <ele>4.0</ele>
        <time>2019-05-17T10:37:13.157Z</time>
      </trkpt>
      <trkpt lat="39.31139833" lon="-8.58979167">
        <ele>4.0</ele>
        <time>2019-05-17T10:37:14.178Z</time>
      </trkpt>
      <trkpt lat="39.31144333" lon="-8.58971833">
        <ele>3.0</ele>
        <time>2019-05-17T10:37:15.156Z</time>
      </trkpt>
      <trkpt lat="39.31144333" lon="-8.58971833">
        <ele>3.0</ele>
        <time>2019-05-17T10:37:16.171Z</time>
      </trkpt>
      <trkpt lat="39.31149" lon="-8.58964667">
        <ele>4.0</ele>
        <time>2019-05-17T10:37:17.150Z</time>
      </trkpt>
      <trkpt lat="39.31149" lon="-8.58964667">
        <ele>4.0</ele>
        <time>2019-05-17T10:37:18.162Z</time>
      </trkpt>
      <trkpt lat="39.311535" lon="-8.58957667">
        <ele>4.0</ele>
        <time>2019-05-17T10:37:19.176Z</time>
      </trkpt>
      <trkpt lat="39.311535" lon="-8.58957667">
        <ele>4.0</ele>
        <time>2019-05-17T10:37:20.167Z</time>
      </trkpt>
      <trkpt lat="39.31157667" lon="-8.58950833">
        <ele>4.0</ele>
        <time>2019-05-17T10:37:21.188Z</time>
      </trkpt>
      <trkpt lat="39.311595" lon="-8.589475">
        <ele>4.0</ele>
        <time>2019-05-17T10:37:22.189Z</time>
      </trkpt>
      <trkpt lat="39.311615" lon="-8.58944">
        <ele>4.0</ele>
        <time>2019-05-17T10:37:23.184Z</time>
      </trkpt>
      <trkpt lat="39.311615" lon="-8.58944">
        <ele>4.0</ele>
        <time>2019-05-17T10:37:24.157Z</time>
      </trkpt>
      <trkpt lat="39.31165833" lon="-8.58937333">
        <ele>4.0</ele>
        <time>2019-05-17T10:37:25.176Z</time>
      </trkpt>
      <trkpt lat="39.31165833" lon="-8.58937333">
        <ele>4.0</ele>
        <time>2019-05-17T10:37:26.155Z</time>
      </trkpt>
      <trkpt lat="39.31170167" lon="-8.58930333">
        <ele>4.0</ele>
        <time>2019-05-17T10:37:27.166Z</time>
      </trkpt>
      <trkpt lat="39.31170167" lon="-8.58930333">
        <ele>4.0</ele>
        <time>2019-05-17T10:37:28.179Z</time>
      </trkpt>
      <trkpt lat="39.31174333" lon="-8.58923167">
        <ele>4.0</ele>
        <time>2019-05-17T10:37:29.166Z</time>
      </trkpt>
      <trkpt lat="39.31174333" lon="-8.58923167">
        <ele>4.0</ele>
        <time>2019-05-17T10:37:30.155Z</time>
      </trkpt>
      <trkpt lat="39.311785" lon="-8.58916">
        <ele>4.0</ele>
        <time>2019-05-17T10:37:31.183Z</time>
      </trkpt>
      <trkpt lat="39.311785" lon="-8.58916">
        <ele>4.0</ele>
        <time>2019-05-17T10:37:32.153Z</time>
      </trkpt>
      <trkpt lat="39.31182667" lon="-8.58908667">
        <ele>4.0</ele>
        <time>2019-05-17T10:37:33.172Z</time>
      </trkpt>
      <trkpt lat="39.31182667" lon="-8.58908667">
        <ele>4.0</ele>
        <time>2019-05-17T10:37:34.181Z</time>
      </trkpt>
      <trkpt lat="39.31187" lon="-8.58901667">
        <ele>4.0</ele>
        <time>2019-05-17T10:37:35.173Z</time>
      </trkpt>
      <trkpt lat="39.31187" lon="-8.58901667">
        <ele>4.0</ele>
        <time>2019-05-17T10:37:36.175Z</time>
      </trkpt>
      <trkpt lat="39.31191167" lon="-8.588945">
        <ele>4.0</ele>
        <time>2019-05-17T10:37:37.153Z</time>
      </trkpt>
      <trkpt lat="39.31191167" lon="-8.588945">
        <ele>4.0</ele>
        <time>2019-05-17T10:37:38.162Z</time>
      </trkpt>
      <trkpt lat="39.31195167" lon="-8.588875">
        <ele>4.0</ele>
        <time>2019-05-17T10:37:39.181Z</time>
      </trkpt>
      <trkpt lat="39.31195167" lon="-8.588875">
        <ele>4.0</ele>
        <time>2019-05-17T10:37:40.169Z</time>
      </trkpt>
      <trkpt lat="39.31199167" lon="-8.58880667">
        <ele>4.0</ele>
        <time>2019-05-17T10:37:41.187Z</time>
      </trkpt>
      <trkpt lat="39.31199167" lon="-8.58880667">
        <ele>4.0</ele>
        <time>2019-05-17T10:37:42.154Z</time>
      </trkpt>
      <trkpt lat="39.31203333" lon="-8.58874333">
        <ele>4.0</ele>
        <time>2019-05-17T10:37:43.170Z</time>
      </trkpt>
      <trkpt lat="39.31203333" lon="-8.58874333">
        <ele>4.0</ele>
        <time>2019-05-17T10:37:44.151Z</time>
      </trkpt>
      <trkpt lat="39.31207167" lon="-8.588675">
        <ele>4.0</ele>
        <time>2019-05-17T10:37:45.170Z</time>
      </trkpt>
      <trkpt lat="39.31207167" lon="-8.588675">
        <ele>4.0</ele>
        <time>2019-05-17T10:37:46.179Z</time>
      </trkpt>
      <trkpt lat="39.31211167" lon="-8.58861">
        <ele>4.0</ele>
        <time>2019-05-17T10:37:47.156Z</time>
      </trkpt>
      <trkpt lat="39.31213167" lon="-8.58857667">
        <ele>4.0</ele>
        <time>2019-05-17T10:37:48.177Z</time>
      </trkpt>
      <trkpt lat="39.31213167" lon="-8.58857667">
        <ele>4.0</ele>
        <time>2019-05-17T10:37:49.151Z</time>
      </trkpt>
      <trkpt lat="39.31217333" lon="-8.58851667">
        <ele>4.0</ele>
        <time>2019-05-17T10:37:50.162Z</time>
      </trkpt>
      <trkpt lat="39.31217333" lon="-8.58851667">
        <ele>4.0</ele>
        <time>2019-05-17T10:37:51.178Z</time>
      </trkpt>
      <trkpt lat="39.31221333" lon="-8.58845833">
        <ele>4.0</ele>
        <time>2019-05-17T10:37:52.154Z</time>
      </trkpt>
      <trkpt lat="39.312235" lon="-8.58843167">
        <ele>4.0</ele>
        <time>2019-05-17T10:37:53.174Z</time>
      </trkpt>
      <trkpt lat="39.312235" lon="-8.58843167">
        <ele>4.0</ele>
        <time>2019-05-17T10:37:54.151Z</time>
      </trkpt>
      <trkpt lat="39.31227167" lon="-8.58836833">
        <ele>4.0</ele>
        <time>2019-05-17T10:37:55.174Z</time>
      </trkpt>
      <trkpt lat="39.31227167" lon="-8.58836833">
        <ele>4.0</ele>
        <time>2019-05-17T10:37:56.187Z</time>
      </trkpt>
      <trkpt lat="39.31230333" lon="-8.5883">
        <ele>4.0</ele>
        <time>2019-05-17T10:37:57.150Z</time>
      </trkpt>
      <trkpt lat="39.31230333" lon="-8.5883">
        <ele>4.0</ele>
        <time>2019-05-17T10:37:58.174Z</time>
      </trkpt>
      <trkpt lat="39.31234" lon="-8.58823833">
        <ele>4.0</ele>
        <time>2019-05-17T10:37:59.190Z</time>
      </trkpt>
      <trkpt lat="39.31234" lon="-8.58823833">
        <ele>4.0</ele>
        <time>2019-05-17T10:38:00.162Z</time>
      </trkpt>
      <trkpt lat="39.312375" lon="-8.58817">
        <ele>4.0</ele>
        <time>2019-05-17T10:38:01.175Z</time>
      </trkpt>
      <trkpt lat="39.312375" lon="-8.58817">
        <ele>4.0</ele>
        <time>2019-05-17T10:38:02.181Z</time>
      </trkpt>
      <trkpt lat="39.31241167" lon="-8.58809833">
        <ele>4.0</ele>
        <time>2019-05-17T10:38:03.159Z</time>
      </trkpt>
      <trkpt lat="39.31241167" lon="-8.58809833">
        <ele>4.0</ele>
        <time>2019-05-17T10:38:04.182Z</time>
      </trkpt>
      <trkpt lat="39.312445" lon="-8.58802333">
        <ele>4.0</ele>
        <time>2019-05-17T10:38:05.154Z</time>
      </trkpt>
      <trkpt lat="39.312445" lon="-8.58802333">
        <ele>4.0</ele>
        <time>2019-05-17T10:38:06.168Z</time>
      </trkpt>
      <trkpt lat="39.31248333" lon="-8.58795333">
        <ele>4.0</ele>
        <time>2019-05-17T10:38:07.180Z</time>
      </trkpt>
      <trkpt lat="39.31248333" lon="-8.58795333">
        <ele>4.0</ele>
        <time>2019-05-17T10:38:08.160Z</time>
      </trkpt>
      <trkpt lat="39.31253" lon="-8.58789">
        <ele>5.0</ele>
        <time>2019-05-17T10:38:09.187Z</time>
      </trkpt>
      <trkpt lat="39.31253" lon="-8.58789">
        <ele>5.0</ele>
        <time>2019-05-17T10:38:10.160Z</time>
      </trkpt>
      <trkpt lat="39.31258833" lon="-8.58783833">
        <ele>5.0</ele>
        <time>2019-05-17T10:38:11.150Z</time>
      </trkpt>
      <trkpt lat="39.31258833" lon="-8.58783833">
        <ele>5.0</ele>
        <time>2019-05-17T10:38:12.188Z</time>
      </trkpt>
      <trkpt lat="39.31265833" lon="-8.58781667">
        <ele>5.0</ele>
        <time>2019-05-17T10:38:13.163Z</time>
      </trkpt>
      <trkpt lat="39.31269333" lon="-8.58780833">
        <ele>6.0</ele>
        <time>2019-05-17T10:38:14.187Z</time>
      </trkpt>
      <trkpt lat="39.31269333" lon="-8.58780833">
        <ele>6.0</ele>
        <time>2019-05-17T10:38:15.156Z</time>
      </trkpt>
      <trkpt lat="39.31275833" lon="-8.58778667">
        <ele>6.0</ele>
        <time>2019-05-17T10:38:16.174Z</time>
      </trkpt>
      <trkpt lat="39.31279167" lon="-8.587775">
        <ele>6.0</ele>
        <time>2019-05-17T10:38:17.165Z</time>
      </trkpt>
      <trkpt lat="39.31279167" lon="-8.587775">
        <ele>6.0</ele>
        <time>2019-05-17T10:38:18.172Z</time>
      </trkpt>
      <trkpt lat="39.31285667" lon="-8.58774667">
        <ele>6.0</ele>
        <time>2019-05-17T10:38:19.184Z</time>
      </trkpt>
      <trkpt lat="39.31285667" lon="-8.58774667">
        <ele>6.0</ele>
        <time>2019-05-17T10:38:20.153Z</time>
      </trkpt>
      <trkpt lat="39.31291667" lon="-8.58770667">
        <ele>5.0</ele>
        <time>2019-05-17T10:38:21.168Z</time>
      </trkpt>
      <trkpt lat="39.31291667" lon="-8.58770667">
        <ele>5.0</ele>
        <time>2019-05-17T10:38:22.171Z</time>
      </trkpt>
      <trkpt lat="39.31297333" lon="-8.58765667">
        <ele>5.0</ele>
        <time>2019-05-17T10:38:23.184Z</time>
      </trkpt>
      <trkpt lat="39.31297333" lon="-8.58765667">
        <ele>5.0</ele>
        <time>2019-05-17T10:38:24.160Z</time>
      </trkpt>
      <trkpt lat="39.313025" lon="-8.5876">
        <ele>5.0</ele>
        <time>2019-05-17T10:38:25.160Z</time>
      </trkpt>
      <trkpt lat="39.313025" lon="-8.5876">
        <ele>5.0</ele>
        <time>2019-05-17T10:38:26.169Z</time>
      </trkpt>
      <trkpt lat="39.31307167" lon="-8.58754">
        <ele>5.0</ele>
        <time>2019-05-17T10:38:27.189Z</time>
      </trkpt>
      <trkpt lat="39.31307167" lon="-8.58754">
        <ele>5.0</ele>
        <time>2019-05-17T10:38:28.183Z</time>
      </trkpt>
      <trkpt lat="39.31311667" lon="-8.587475">
        <ele>5.0</ele>
        <time>2019-05-17T10:38:29.157Z</time>
      </trkpt>
      <trkpt lat="39.31311667" lon="-8.587475">
        <ele>5.0</ele>
        <time>2019-05-17T10:38:30.163Z</time>
      </trkpt>
      <trkpt lat="39.313165" lon="-8.58740833">
        <ele>5.0</ele>
        <time>2019-05-17T10:38:31.174Z</time>
      </trkpt>
      <trkpt lat="39.313165" lon="-8.58740833">
        <ele>5.0</ele>
        <time>2019-05-17T10:38:32.186Z</time>
      </trkpt>
      <trkpt lat="39.31321" lon="-8.587335">
        <ele>5.0</ele>
        <time>2019-05-17T10:38:33.176Z</time>
      </trkpt>
      <trkpt lat="39.31323167" lon="-8.5873">
        <ele>5.0</ele>
        <time>2019-05-17T10:38:34.156Z</time>
      </trkpt>
      <trkpt lat="39.31323167" lon="-8.5873">
        <ele>5.0</ele>
        <time>2019-05-17T10:38:35.174Z</time>
      </trkpt>
      <trkpt lat="39.31327833" lon="-8.58723167">
        <ele>5.0</ele>
        <time>2019-05-17T10:38:36.186Z</time>
      </trkpt>
      <trkpt lat="39.31327833" lon="-8.58723167">
        <ele>5.0</ele>
        <time>2019-05-17T10:38:37.156Z</time>
      </trkpt>
      <trkpt lat="39.31332" lon="-8.58717167">
        <ele>5.0</ele>
        <time>2019-05-17T10:38:38.152Z</time>
      </trkpt>
      <trkpt lat="39.31332" lon="-8.58717167">
        <ele>5.0</ele>
        <time>2019-05-17T10:38:39.171Z</time>
      </trkpt>
      <trkpt lat="39.31336167" lon="-8.58711667">
        <ele>5.0</ele>
        <time>2019-05-17T10:38:40.162Z</time>
      </trkpt>
      <trkpt lat="39.31337833" lon="-8.58709">
        <ele>5.0</ele>
        <time>2019-05-17T10:38:41.154Z</time>
      </trkpt>
      <trkpt lat="39.31337833" lon="-8.58709">
        <ele>5.0</ele>
        <time>2019-05-17T10:38:42.162Z</time>
      </trkpt>
      <trkpt lat="39.31341833" lon="-8.58703333">
        <ele>5.0</ele>
        <time>2019-05-17T10:38:43.182Z</time>
      </trkpt>
      <trkpt lat="39.31341833" lon="-8.58703333">
        <ele>5.0</ele>
        <time>2019-05-17T10:38:44.153Z</time>
      </trkpt>
      <trkpt lat="39.31346167" lon="-8.58697333">
        <ele>5.0</ele>
        <time>2019-05-17T10:38:45.163Z</time>
      </trkpt>
      <trkpt lat="39.31348333" lon="-8.58694">
        <ele>5.0</ele>
        <time>2019-05-17T10:38:46.151Z</time>
      </trkpt>
      <trkpt lat="39.31350667" lon="-8.58690667">
        <ele>5.0</ele>
        <time>2019-05-17T10:38:47.151Z</time>
      </trkpt>
      <trkpt lat="39.31350667" lon="-8.58690667">
        <ele>5.0</ele>
        <time>2019-05-17T10:38:48.162Z</time>
      </trkpt>
      <trkpt lat="39.31355333" lon="-8.58683833">
        <ele>5.0</ele>
        <time>2019-05-17T10:38:49.174Z</time>
      </trkpt>
      <trkpt lat="39.31355333" lon="-8.58683833">
        <ele>5.0</ele>
        <time>2019-05-17T10:38:50.155Z</time>
      </trkpt>
      <trkpt lat="39.31359833" lon="-8.58677">
        <ele>5.0</ele>
        <time>2019-05-17T10:38:51.179Z</time>
      </trkpt>
      <trkpt lat="39.31359833" lon="-8.58677">
        <ele>5.0</ele>
        <time>2019-05-17T10:38:52.169Z</time>
      </trkpt>
      <trkpt lat="39.31364333" lon="-8.58670167">
        <ele>5.0</ele>
        <time>2019-05-17T10:38:53.185Z</time>
      </trkpt>
      <trkpt lat="39.31364333" lon="-8.58670167">
        <ele>5.0</ele>
        <time>2019-05-17T10:38:54.179Z</time>
      </trkpt>
      <trkpt lat="39.31369" lon="-8.58663333">
        <ele>5.0</ele>
        <time>2019-05-17T10:38:55.164Z</time>
      </trkpt>
      <trkpt lat="39.31369" lon="-8.58663333">
        <ele>5.0</ele>
        <time>2019-05-17T10:38:56.174Z</time>
      </trkpt>
      <trkpt lat="39.31373833" lon="-8.58656667">
        <ele>5.0</ele>
        <time>2019-05-17T10:38:57.162Z</time>
      </trkpt>
      <trkpt lat="39.31373833" lon="-8.58656667">
        <ele>5.0</ele>
        <time>2019-05-17T10:38:58.161Z</time>
      </trkpt>
      <trkpt lat="39.313785" lon="-8.58650167">
        <ele>6.0</ele>
        <time>2019-05-17T10:38:59.179Z</time>
      </trkpt>
      <trkpt lat="39.313785" lon="-8.58650167">
        <ele>6.0</ele>
        <time>2019-05-17T10:39:00.159Z</time>
      </trkpt>
      <trkpt lat="39.31383333" lon="-8.58644">
        <ele>6.0</ele>
        <time>2019-05-17T10:39:01.179Z</time>
      </trkpt>
      <trkpt lat="39.31383333" lon="-8.58644">
        <ele>6.0</ele>
        <time>2019-05-17T10:39:02.152Z</time>
      </trkpt>
      <trkpt lat="39.31387833" lon="-8.58637167">
        <ele>6.0</ele>
        <time>2019-05-17T10:39:03.169Z</time>
      </trkpt>
      <trkpt lat="39.31387833" lon="-8.58637167">
        <ele>6.0</ele>
        <time>2019-05-17T10:39:04.153Z</time>
      </trkpt>
      <trkpt lat="39.313925" lon="-8.58630333">
        <ele>6.0</ele>
        <time>2019-05-17T10:39:05.164Z</time>
      </trkpt>
      <trkpt lat="39.313925" lon="-8.58630333">
        <ele>6.0</ele>
        <time>2019-05-17T10:39:06.180Z</time>
      </trkpt>
      <trkpt lat="39.31397333" lon="-8.58623833">
        <ele>6.0</ele>
        <time>2019-05-17T10:39:07.153Z</time>
      </trkpt>
      <trkpt lat="39.31397333" lon="-8.58623833">
        <ele>6.0</ele>
        <time>2019-05-17T10:39:08.166Z</time>
      </trkpt>
      <trkpt lat="39.31401833" lon="-8.58617167">
        <ele>5.0</ele>
        <time>2019-05-17T10:39:09.157Z</time>
      </trkpt>
      <trkpt lat="39.31401833" lon="-8.58617167">
        <ele>5.0</ele>
        <time>2019-05-17T10:39:10.156Z</time>
      </trkpt>
      <trkpt lat="39.31406167" lon="-8.58610333">
        <ele>5.0</ele>
        <time>2019-05-17T10:39:11.172Z</time>
      </trkpt>
      <trkpt lat="39.31406167" lon="-8.58610333">
        <ele>5.0</ele>
        <time>2019-05-17T10:39:12.180Z</time>
      </trkpt>
      <trkpt lat="39.31410333" lon="-8.58603333">
        <ele>5.0</ele>
        <time>2019-05-17T10:39:13.153Z</time>
      </trkpt>
      <trkpt lat="39.31410333" lon="-8.58603333">
        <ele>5.0</ele>
        <time>2019-05-17T10:39:14.181Z</time>
      </trkpt>
      <trkpt lat="39.314145" lon="-8.58596">
        <ele>5.0</ele>
        <time>2019-05-17T10:39:15.170Z</time>
      </trkpt>
      <trkpt lat="39.314145" lon="-8.58596">
        <ele>5.0</ele>
        <time>2019-05-17T10:39:16.187Z</time>
      </trkpt>
      <trkpt lat="39.31418833" lon="-8.58588833">
        <ele>5.0</ele>
        <time>2019-05-17T10:39:17.166Z</time>
      </trkpt>
      <trkpt lat="39.31418833" lon="-8.58588833">
        <ele>5.0</ele>
        <time>2019-05-17T10:39:18.175Z</time>
      </trkpt>
      <trkpt lat="39.31423" lon="-8.585815">
        <ele>5.0</ele>
        <time>2019-05-17T10:39:19.167Z</time>
      </trkpt>
      <trkpt lat="39.31423" lon="-8.585815">
        <ele>5.0</ele>
        <time>2019-05-17T10:39:20.173Z</time>
      </trkpt>
      <trkpt lat="39.31427167" lon="-8.58573833">
        <ele>5.0</ele>
        <time>2019-05-17T10:39:21.153Z</time>
      </trkpt>
      <trkpt lat="39.31427167" lon="-8.58573833">
        <ele>5.0</ele>
        <time>2019-05-17T10:39:22.175Z</time>
      </trkpt>
      <trkpt lat="39.31431667" lon="-8.58566">
        <ele>5.0</ele>
        <time>2019-05-17T10:39:23.186Z</time>
      </trkpt>
      <trkpt lat="39.31431667" lon="-8.58566">
        <ele>5.0</ele>
        <time>2019-05-17T10:39:24.162Z</time>
      </trkpt>
      <trkpt lat="39.31436167" lon="-8.58558333">
        <ele>5.0</ele>
        <time>2019-05-17T10:39:25.186Z</time>
      </trkpt>
      <trkpt lat="39.31436167" lon="-8.58558333">
        <ele>5.0</ele>
        <time>2019-05-17T10:39:26.159Z</time>
      </trkpt>
      <trkpt lat="39.31440667" lon="-8.58551">
        <ele>4.0</ele>
        <time>2019-05-17T10:39:27.179Z</time>
      </trkpt>
      <trkpt lat="39.31440667" lon="-8.58551">
        <ele>4.0</ele>
        <time>2019-05-17T10:39:28.186Z</time>
      </trkpt>
      <trkpt lat="39.31444833" lon="-8.58543167">
        <ele>4.0</ele>
        <time>2019-05-17T10:39:29.197Z</time>
      </trkpt>
      <trkpt lat="39.31444833" lon="-8.58543167">
        <ele>4.0</ele>
        <time>2019-05-17T10:39:30.158Z</time>
      </trkpt>
      <trkpt lat="39.31448833" lon="-8.58534667">
        <ele>4.0</ele>
        <time>2019-05-17T10:39:31.186Z</time>
      </trkpt>
      <trkpt lat="39.31448833" lon="-8.58534667">
        <ele>4.0</ele>
        <time>2019-05-17T10:39:32.158Z</time>
      </trkpt>
      <trkpt lat="39.31452833" lon="-8.58526667">
        <ele>4.0</ele>
        <time>2019-05-17T10:39:33.172Z</time>
      </trkpt>
      <trkpt lat="39.31452833" lon="-8.58526667">
        <ele>4.0</ele>
        <time>2019-05-17T10:39:34.151Z</time>
      </trkpt>
      <trkpt lat="39.31456667" lon="-8.58518833">
        <ele>4.0</ele>
        <time>2019-05-17T10:39:35.180Z</time>
      </trkpt>
      <trkpt lat="39.31456667" lon="-8.58518833">
        <ele>4.0</ele>
        <time>2019-05-17T10:39:36.173Z</time>
      </trkpt>
      <trkpt lat="39.31460167" lon="-8.58511167">
        <ele>5.0</ele>
        <time>2019-05-17T10:39:37.190Z</time>
      </trkpt>
      <trkpt lat="39.31460167" lon="-8.58511167">
        <ele>5.0</ele>
        <time>2019-05-17T10:39:38.183Z</time>
      </trkpt>
      <trkpt lat="39.31464" lon="-8.58503667">
        <ele>5.0</ele>
        <time>2019-05-17T10:39:39.153Z</time>
      </trkpt>
      <trkpt lat="39.31464" lon="-8.58503667">
        <ele>5.0</ele>
        <time>2019-05-17T10:39:40.176Z</time>
      </trkpt>
      <trkpt lat="39.31467667" lon="-8.58496167">
        <ele>5.0</ele>
        <time>2019-05-17T10:39:41.152Z</time>
      </trkpt>
      <trkpt lat="39.31467667" lon="-8.58496167">
        <ele>5.0</ele>
        <time>2019-05-17T10:39:42.171Z</time>
      </trkpt>
      <trkpt lat="39.31471333" lon="-8.584885">
        <ele>5.0</ele>
        <time>2019-05-17T10:39:43.186Z</time>
      </trkpt>
      <trkpt lat="39.31471333" lon="-8.584885">
        <ele>5.0</ele>
        <time>2019-05-17T10:39:44.155Z</time>
      </trkpt>
      <trkpt lat="39.31475333" lon="-8.58481167">
        <ele>5.0</ele>
        <time>2019-05-17T10:39:45.165Z</time>
      </trkpt>
      <trkpt lat="39.31477333" lon="-8.58477833">
        <ele>5.0</ele>
        <time>2019-05-17T10:39:46.152Z</time>
      </trkpt>
      <trkpt lat="39.31479333" lon="-8.58474333">
        <ele>5.0</ele>
        <time>2019-05-17T10:39:47.185Z</time>
      </trkpt>
      <trkpt lat="39.31479333" lon="-8.58474333">
        <ele>5.0</ele>
        <time>2019-05-17T10:39:48.159Z</time>
      </trkpt>
      <trkpt lat="39.31483167" lon="-8.584675">
        <ele>4.0</ele>
        <time>2019-05-17T10:39:49.177Z</time>
      </trkpt>
      <trkpt lat="39.31485167" lon="-8.58464333">
        <ele>4.0</ele>
        <time>2019-05-17T10:39:50.160Z</time>
      </trkpt>
      <trkpt lat="39.31485167" lon="-8.58464333">
        <ele>4.0</ele>
        <time>2019-05-17T10:39:51.184Z</time>
      </trkpt>
      <trkpt lat="39.31488333" lon="-8.58457833">
        <ele>4.0</ele>
        <time>2019-05-17T10:39:52.159Z</time>
      </trkpt>
      <trkpt lat="39.31489833" lon="-8.584545">
        <ele>4.0</ele>
        <time>2019-05-17T10:39:53.188Z</time>
      </trkpt>
      <trkpt lat="39.31489833" lon="-8.584545">
        <ele>4.0</ele>
        <time>2019-05-17T10:39:54.187Z</time>
      </trkpt>
      <trkpt lat="39.31493333" lon="-8.58447833">
        <ele>4.0</ele>
        <time>2019-05-17T10:39:55.163Z</time>
      </trkpt>
      <trkpt lat="39.31493333" lon="-8.58447833">
        <ele>4.0</ele>
        <time>2019-05-17T10:39:56.179Z</time>
      </trkpt>
      <trkpt lat="39.31496833" lon="-8.58440833">
        <ele>4.0</ele>
        <time>2019-05-17T10:39:57.157Z</time>
      </trkpt>
      <trkpt lat="39.31496833" lon="-8.58440833">
        <ele>4.0</ele>
        <time>2019-05-17T10:39:58.169Z</time>
      </trkpt>
      <trkpt lat="39.31500333" lon="-8.58433667">
        <ele>4.0</ele>
        <time>2019-05-17T10:39:59.187Z</time>
      </trkpt>
      <trkpt lat="39.31502167" lon="-8.58430333">
        <ele>4.0</ele>
        <time>2019-05-17T10:40:00.167Z</time>
      </trkpt>
      <trkpt lat="39.31502167" lon="-8.58430333">
        <ele>4.0</ele>
        <time>2019-05-17T10:40:01.154Z</time>
      </trkpt>
      <trkpt lat="39.31506" lon="-8.584235">
        <ele>4.0</ele>
        <time>2019-05-17T10:40:02.169Z</time>
      </trkpt>
      <trkpt lat="39.31506" lon="-8.584235">
        <ele>4.0</ele>
        <time>2019-05-17T10:40:03.183Z</time>
      </trkpt>
      <trkpt lat="39.31510167" lon="-8.58417">
        <ele>4.0</ele>
        <time>2019-05-17T10:40:04.176Z</time>
      </trkpt>
      <trkpt lat="39.315125" lon="-8.58414">
        <ele>4.0</ele>
        <time>2019-05-17T10:40:05.152Z</time>
      </trkpt>
      <trkpt lat="39.315125" lon="-8.58414">
        <ele>4.0</ele>
        <time>2019-05-17T10:40:06.161Z</time>
      </trkpt>
      <trkpt lat="39.31517" lon="-8.58408167">
        <ele>4.0</ele>
        <time>2019-05-17T10:40:07.179Z</time>
      </trkpt>
      <trkpt lat="39.31517" lon="-8.58408167">
        <ele>4.0</ele>
        <time>2019-05-17T10:40:08.188Z</time>
      </trkpt>
      <trkpt lat="39.31521333" lon="-8.58401667">
        <ele>4.0</ele>
        <time>2019-05-17T10:40:09.173Z</time>
      </trkpt>
      <trkpt lat="39.31521333" lon="-8.58401667">
        <ele>4.0</ele>
        <time>2019-05-17T10:40:10.185Z</time>
      </trkpt>
      <trkpt lat="39.31525833" lon="-8.58395333">
        <ele>4.0</ele>
        <time>2019-05-17T10:40:11.165Z</time>
      </trkpt>
      <trkpt lat="39.31525833" lon="-8.58395333">
        <ele>4.0</ele>
        <time>2019-05-17T10:40:12.185Z</time>
      </trkpt>
      <trkpt lat="39.31529833" lon="-8.58388667">
        <ele>4.0</ele>
        <time>2019-05-17T10:40:13.167Z</time>
      </trkpt>
      <trkpt lat="39.31529833" lon="-8.58388667">
        <ele>4.0</ele>
        <time>2019-05-17T10:40:14.152Z</time>
      </trkpt>
      <trkpt lat="39.31534" lon="-8.583825">
        <ele>4.0</ele>
        <time>2019-05-17T10:40:15.169Z</time>
      </trkpt>
      <trkpt lat="39.31536333" lon="-8.58379667">
        <ele>4.0</ele>
        <time>2019-05-17T10:40:16.164Z</time>
      </trkpt>
      <trkpt lat="39.31538833" lon="-8.58377">
        <ele>4.0</ele>
        <time>2019-05-17T10:40:17.166Z</time>
      </trkpt>
      <trkpt lat="39.31538833" lon="-8.58377">
        <ele>4.0</ele>
        <time>2019-05-17T10:40:18.181Z</time>
      </trkpt>
      <trkpt lat="39.31543167" lon="-8.58371167">
        <ele>4.0</ele>
        <time>2019-05-17T10:40:19.158Z</time>
      </trkpt>
      <trkpt lat="39.315455" lon="-8.58368333">
        <ele>4.0</ele>
        <time>2019-05-17T10:40:20.159Z</time>
      </trkpt>
      <trkpt lat="39.315455" lon="-8.58368333">
        <ele>4.0</ele>
        <time>2019-05-17T10:40:21.175Z</time>
      </trkpt>
      <trkpt lat="39.3155" lon="-8.58362667">
        <ele>4.0</ele>
        <time>2019-05-17T10:40:22.150Z</time>
      </trkpt>
      <trkpt lat="39.31552333" lon="-8.58359667">
        <ele>4.0</ele>
        <time>2019-05-17T10:40:23.189Z</time>
      </trkpt>
      <trkpt lat="39.31552333" lon="-8.58359667">
        <ele>4.0</ele>
        <time>2019-05-17T10:40:24.178Z</time>
      </trkpt>
      <trkpt lat="39.315565" lon="-8.58353333">
        <ele>4.0</ele>
        <time>2019-05-17T10:40:25.151Z</time>
      </trkpt>
      <trkpt lat="39.315565" lon="-8.58353333">
        <ele>4.0</ele>
        <time>2019-05-17T10:40:26.165Z</time>
      </trkpt>
      <trkpt lat="39.315605" lon="-8.583475">
        <ele>5.0</ele>
        <time>2019-05-17T10:40:27.170Z</time>
      </trkpt>
      <trkpt lat="39.31562167" lon="-8.58344833">
        <ele>5.0</ele>
        <time>2019-05-17T10:40:28.184Z</time>
      </trkpt>
      <trkpt lat="39.31564" lon="-8.58342667">
        <ele>5.0</ele>
        <time>2019-05-17T10:40:29.163Z</time>
      </trkpt>
      <trkpt lat="39.31564" lon="-8.58342667">
        <ele>5.0</ele>
        <time>2019-05-17T10:40:30.187Z</time>
      </trkpt>
      <trkpt lat="39.31567833" lon="-8.583375">
        <ele>5.0</ele>
        <time>2019-05-17T10:40:31.161Z</time>
      </trkpt>
      <trkpt lat="39.31567833" lon="-8.583375">
        <ele>5.0</ele>
        <time>2019-05-17T10:40:32.172Z</time>
      </trkpt>
      <trkpt lat="39.31571833" lon="-8.583325">
        <ele>5.0</ele>
        <time>2019-05-17T10:40:33.150Z</time>
      </trkpt>
      <trkpt lat="39.31571833" lon="-8.583325">
        <ele>5.0</ele>
        <time>2019-05-17T10:40:34.173Z</time>
      </trkpt>
      <trkpt lat="39.31576" lon="-8.583275">
        <ele>5.0</ele>
        <time>2019-05-17T10:40:35.187Z</time>
      </trkpt>
      <trkpt lat="39.31576" lon="-8.583275">
        <ele>5.0</ele>
        <time>2019-05-17T10:40:36.172Z</time>
      </trkpt>
      <trkpt lat="39.31580333" lon="-8.58322333">
        <ele>5.0</ele>
        <time>2019-05-17T10:40:37.185Z</time>
      </trkpt>
      <trkpt lat="39.31580333" lon="-8.58322333">
        <ele>5.0</ele>
        <time>2019-05-17T10:40:38.159Z</time>
      </trkpt>
      <trkpt lat="39.31584667" lon="-8.58317">
        <ele>5.0</ele>
        <time>2019-05-17T10:40:39.175Z</time>
      </trkpt>
      <trkpt lat="39.31584667" lon="-8.58317">
        <ele>5.0</ele>
        <time>2019-05-17T10:40:40.184Z</time>
      </trkpt>
      <trkpt lat="39.31589333" lon="-8.58312">
        <ele>5.0</ele>
        <time>2019-05-17T10:40:41.155Z</time>
      </trkpt>
      <trkpt lat="39.31589333" lon="-8.58312">
        <ele>5.0</ele>
        <time>2019-05-17T10:40:42.165Z</time>
      </trkpt>
      <trkpt lat="39.31593667" lon="-8.58306667">
        <ele>5.0</ele>
        <time>2019-05-17T10:40:43.183Z</time>
      </trkpt>
      <trkpt lat="39.31593667" lon="-8.58306667">
        <ele>5.0</ele>
        <time>2019-05-17T10:40:44.171Z</time>
      </trkpt>
      <trkpt lat="39.31598167" lon="-8.583015">
        <ele>5.0</ele>
        <time>2019-05-17T10:40:45.188Z</time>
      </trkpt>
      <trkpt lat="39.31598167" lon="-8.583015">
        <ele>5.0</ele>
        <time>2019-05-17T10:40:46.169Z</time>
      </trkpt>
      <trkpt lat="39.31602667" lon="-8.58296167">
        <ele>5.0</ele>
        <time>2019-05-17T10:40:47.189Z</time>
      </trkpt>
      <trkpt lat="39.31602667" lon="-8.58296167">
        <ele>5.0</ele>
        <time>2019-05-17T10:40:48.156Z</time>
      </trkpt>
      <trkpt lat="39.31607167" lon="-8.58291167">
        <ele>5.0</ele>
        <time>2019-05-17T10:40:49.176Z</time>
      </trkpt>
      <trkpt lat="39.31609667" lon="-8.58288667">
        <ele>5.0</ele>
        <time>2019-05-17T10:40:50.165Z</time>
      </trkpt>
      <trkpt lat="39.31609667" lon="-8.58288667">
        <ele>5.0</ele>
        <time>2019-05-17T10:40:51.176Z</time>
      </trkpt>
      <trkpt lat="39.31614167" lon="-8.58283167">
        <ele>5.0</ele>
        <time>2019-05-17T10:40:52.158Z</time>
      </trkpt>
      <trkpt lat="39.31616667" lon="-8.582805">
        <ele>5.0</ele>
        <time>2019-05-17T10:40:53.191Z</time>
      </trkpt>
      <trkpt lat="39.31616667" lon="-8.582805">
        <ele>5.0</ele>
        <time>2019-05-17T10:40:54.173Z</time>
      </trkpt>
      <trkpt lat="39.31621667" lon="-8.58275">
        <ele>5.0</ele>
        <time>2019-05-17T10:40:55.152Z</time>
      </trkpt>
      <trkpt lat="39.31621667" lon="-8.58275">
        <ele>5.0</ele>
        <time>2019-05-17T10:40:56.161Z</time>
      </trkpt>
      <trkpt lat="39.316265" lon="-8.58269667">
        <ele>5.0</ele>
        <time>2019-05-17T10:40:57.187Z</time>
      </trkpt>
      <trkpt lat="39.316265" lon="-8.58269667">
        <ele>5.0</ele>
        <time>2019-05-17T10:40:58.181Z</time>
      </trkpt>
      <trkpt lat="39.31631167" lon="-8.58264667">
        <ele>5.0</ele>
        <time>2019-05-17T10:40:59.155Z</time>
      </trkpt>
      <trkpt lat="39.31631167" lon="-8.58264667">
        <ele>5.0</ele>
        <time>2019-05-17T10:41:00.151Z</time>
      </trkpt>
      <trkpt lat="39.31636" lon="-8.58259833">
        <ele>5.0</ele>
        <time>2019-05-17T10:41:01.162Z</time>
      </trkpt>
      <trkpt lat="39.316385" lon="-8.582575">
        <ele>5.0</ele>
        <time>2019-05-17T10:41:02.191Z</time>
      </trkpt>
      <trkpt lat="39.316385" lon="-8.582575">
        <ele>5.0</ele>
        <time>2019-05-17T10:41:03.157Z</time>
      </trkpt>
      <trkpt lat="39.31643667" lon="-8.58253">
        <ele>5.0</ele>
        <time>2019-05-17T10:41:04.181Z</time>
      </trkpt>
      <trkpt lat="39.31646333" lon="-8.58250833">
        <ele>5.0</ele>
        <time>2019-05-17T10:41:05.168Z</time>
      </trkpt>
      <trkpt lat="39.31646333" lon="-8.58250833">
        <ele>5.0</ele>
        <time>2019-05-17T10:41:06.188Z</time>
      </trkpt>
      <trkpt lat="39.316515" lon="-8.582465">
        <ele>5.0</ele>
        <time>2019-05-17T10:41:07.161Z</time>
      </trkpt>
      <trkpt lat="39.316515" lon="-8.582465">
        <ele>5.0</ele>
        <time>2019-05-17T10:41:08.171Z</time>
      </trkpt>
      <trkpt lat="39.31657167" lon="-8.582435">
        <ele>5.0</ele>
        <time>2019-05-17T10:41:09.157Z</time>
      </trkpt>
      <trkpt lat="39.31657167" lon="-8.582435">
        <ele>5.0</ele>
        <time>2019-05-17T10:41:10.160Z</time>
      </trkpt>
      <trkpt lat="39.31663333" lon="-8.58240667">
        <ele>5.0</ele>
        <time>2019-05-17T10:41:11.181Z</time>
      </trkpt>
      <trkpt lat="39.31663333" lon="-8.58240667">
        <ele>5.0</ele>
        <time>2019-05-17T10:41:12.150Z</time>
      </trkpt>
      <trkpt lat="39.31669667" lon="-8.582395">
        <ele>5.0</ele>
        <time>2019-05-17T10:41:13.164Z</time>
      </trkpt>
      <trkpt lat="39.31669667" lon="-8.582395">
        <ele>5.0</ele>
        <time>2019-05-17T10:41:14.152Z</time>
      </trkpt>
      <trkpt lat="39.31676" lon="-8.58239167">
        <ele>5.0</ele>
        <time>2019-05-17T10:41:15.168Z</time>
      </trkpt>
      <trkpt lat="39.31679167" lon="-8.58239167">
        <ele>5.0</ele>
        <time>2019-05-17T10:41:16.190Z</time>
      </trkpt>
      <trkpt lat="39.31682333" lon="-8.58239833">
        <ele>5.0</ele>
        <time>2019-05-17T10:41:17.181Z</time>
      </trkpt>
      <trkpt lat="39.31682333" lon="-8.58239833">
        <ele>5.0</ele>
        <time>2019-05-17T10:41:18.151Z</time>
      </trkpt>
      <trkpt lat="39.31688333" lon="-8.58242167">
        <ele>5.0</ele>
        <time>2019-05-17T10:41:19.174Z</time>
      </trkpt>
      <trkpt lat="39.31688333" lon="-8.58242167">
        <ele>5.0</ele>
        <time>2019-05-17T10:41:20.150Z</time>
      </trkpt>
      <trkpt lat="39.316945" lon="-8.58245">
        <ele>5.0</ele>
        <time>2019-05-17T10:41:21.163Z</time>
      </trkpt>
      <trkpt lat="39.316945" lon="-8.58245">
        <ele>5.0</ele>
        <time>2019-05-17T10:41:22.151Z</time>
      </trkpt>
      <trkpt lat="39.31700667" lon="-8.58247167">
        <ele>5.0</ele>
        <time>2019-05-17T10:41:23.184Z</time>
      </trkpt>
      <trkpt lat="39.31700667" lon="-8.58247167">
        <ele>5.0</ele>
        <time>2019-05-17T10:41:24.169Z</time>
      </trkpt>
      <trkpt lat="39.31707" lon="-8.58249">
        <ele>5.0</ele>
        <time>2019-05-17T10:41:25.184Z</time>
      </trkpt>
      <trkpt lat="39.31710333" lon="-8.58249833">
        <ele>5.0</ele>
        <time>2019-05-17T10:41:26.173Z</time>
      </trkpt>
      <trkpt lat="39.31710333" lon="-8.58249833">
        <ele>5.0</ele>
        <time>2019-05-17T10:41:27.181Z</time>
      </trkpt>
      <trkpt lat="39.31716667" lon="-8.58250667">
        <ele>6.0</ele>
        <time>2019-05-17T10:41:28.177Z</time>
      </trkpt>
      <trkpt lat="39.31719667" lon="-8.58250833">
        <ele>6.0</ele>
        <time>2019-05-17T10:41:29.161Z</time>
      </trkpt>
      <trkpt lat="39.31719667" lon="-8.58250833">
        <ele>6.0</ele>
        <time>2019-05-17T10:41:30.178Z</time>
      </trkpt>
      <trkpt lat="39.31725667" lon="-8.58251">
        <ele>6.0</ele>
        <time>2019-05-17T10:41:31.163Z</time>
      </trkpt>
      <trkpt lat="39.31725667" lon="-8.58251">
        <ele>6.0</ele>
        <time>2019-05-17T10:41:32.171Z</time>
      </trkpt>
      <trkpt lat="39.31731333" lon="-8.58251">
        <ele>6.0</ele>
        <time>2019-05-17T10:41:33.186Z</time>
      </trkpt>
      <trkpt lat="39.31734" lon="-8.582505">
        <ele>6.0</ele>
        <time>2019-05-17T10:41:34.186Z</time>
      </trkpt>
      <trkpt lat="39.31736667" lon="-8.58249833">
        <ele>6.0</ele>
        <time>2019-05-17T10:41:35.159Z</time>
      </trkpt>
      <trkpt lat="39.31736667" lon="-8.58249833">
        <ele>6.0</ele>
        <time>2019-05-17T10:41:36.182Z</time>
      </trkpt>
      <trkpt lat="39.31742333" lon="-8.58248333">
        <ele>6.0</ele>
        <time>2019-05-17T10:41:37.160Z</time>
      </trkpt>
      <trkpt lat="39.31742333" lon="-8.58248333">
        <ele>6.0</ele>
        <time>2019-05-17T10:41:38.166Z</time>
      </trkpt>
      <trkpt lat="39.31747667" lon="-8.58247">
        <ele>7.0</ele>
        <time>2019-05-17T10:41:39.186Z</time>
      </trkpt>
      <trkpt lat="39.31747667" lon="-8.58247">
        <ele>7.0</ele>
        <time>2019-05-17T10:41:40.153Z</time>
      </trkpt>
      <trkpt lat="39.317535" lon="-8.58245833">
        <ele>6.0</ele>
        <time>2019-05-17T10:41:41.174Z</time>
      </trkpt>
      <trkpt lat="39.317535" lon="-8.58245833">
        <ele>6.0</ele>
        <time>2019-05-17T10:41:42.152Z</time>
      </trkpt>
      <trkpt lat="39.31759333" lon="-8.58245167">
        <ele>7.0</ele>
        <time>2019-05-17T10:41:43.164Z</time>
      </trkpt>
      <trkpt lat="39.31759333" lon="-8.58245167">
        <ele>7.0</ele>
        <time>2019-05-17T10:41:44.151Z</time>
      </trkpt>
      <trkpt lat="39.31765333" lon="-8.582455">
        <ele>7.0</ele>
        <time>2019-05-17T10:41:45.162Z</time>
      </trkpt>
      <trkpt lat="39.31765333" lon="-8.582455">
        <ele>7.0</ele>
        <time>2019-05-17T10:41:46.176Z</time>
      </trkpt>
      <trkpt lat="39.31770833" lon="-8.58246167">
        <ele>7.0</ele>
        <time>2019-05-17T10:41:47.189Z</time>
      </trkpt>
      <trkpt lat="39.31770833" lon="-8.58246167">
        <ele>7.0</ele>
        <time>2019-05-17T10:41:48.161Z</time>
      </trkpt>
      <trkpt lat="39.317755" lon="-8.58245667">
        <ele>8.0</ele>
        <time>2019-05-17T10:41:49.172Z</time>
      </trkpt>
      <trkpt lat="39.317755" lon="-8.58245667">
        <ele>8.0</ele>
        <time>2019-05-17T10:41:50.181Z</time>
      </trkpt>
      <trkpt lat="39.31779333" lon="-8.58242667">
        <ele>9.0</ele>
        <time>2019-05-17T10:41:51.155Z</time>
      </trkpt>
      <trkpt lat="39.31781" lon="-8.58241167">
        <ele>9.0</ele>
        <time>2019-05-17T10:41:52.183Z</time>
      </trkpt>
      <trkpt lat="39.31782667" lon="-8.582395">
        <ele>9.0</ele>
        <time>2019-05-17T10:41:53.180Z</time>
      </trkpt>
      <trkpt lat="39.31782667" lon="-8.582395">
        <ele>9.0</ele>
        <time>2019-05-17T10:41:54.153Z</time>
      </trkpt>
      <trkpt lat="39.31785667" lon="-8.582345">
        <ele>9.0</ele>
        <time>2019-05-17T10:41:55.166Z</time>
      </trkpt>
      <trkpt lat="39.31785667" lon="-8.582345">
        <ele>9.0</ele>
        <time>2019-05-17T10:41:56.180Z</time>
      </trkpt>
      <trkpt lat="39.317885" lon="-8.58229167">
        <ele>9.0</ele>
        <time>2019-05-17T10:41:57.161Z</time>
      </trkpt>
      <trkpt lat="39.31789833" lon="-8.58226167">
        <ele>9.0</ele>
        <time>2019-05-17T10:41:58.189Z</time>
      </trkpt>
      <trkpt lat="39.31790833" lon="-8.58223167">
        <ele>9.0</ele>
        <time>2019-05-17T10:41:59.153Z</time>
      </trkpt>
      <trkpt lat="39.31790833" lon="-8.58223167">
        <ele>9.0</ele>
        <time>2019-05-17T10:42:00.173Z</time>
      </trkpt>
      <trkpt lat="39.31793167" lon="-8.582175">
        <ele>9.0</ele>
        <time>2019-05-17T10:42:01.152Z</time>
      </trkpt>
      <trkpt lat="39.31793167" lon="-8.582175">
        <ele>9.0</ele>
        <time>2019-05-17T10:42:02.174Z</time>
      </trkpt>
      <trkpt lat="39.31796" lon="-8.58213">
        <ele>9.0</ele>
        <time>2019-05-17T10:42:03.156Z</time>
      </trkpt>
      <trkpt lat="39.31796" lon="-8.58213">
        <ele>9.0</ele>
        <time>2019-05-17T10:42:04.178Z</time>
      </trkpt>
      <trkpt lat="39.31799667" lon="-8.582085">
        <ele>9.0</ele>
        <time>2019-05-17T10:42:05.157Z</time>
      </trkpt>
      <trkpt lat="39.31799667" lon="-8.582085">
        <ele>9.0</ele>
        <time>2019-05-17T10:42:06.169Z</time>
      </trkpt>
      <trkpt lat="39.318035" lon="-8.58203667">
        <ele>9.0</ele>
        <time>2019-05-17T10:42:07.161Z</time>
      </trkpt>
      <trkpt lat="39.318035" lon="-8.58203667">
        <ele>9.0</ele>
        <time>2019-05-17T10:42:08.181Z</time>
      </trkpt>
      <trkpt lat="39.318075" lon="-8.58198833">
        <ele>9.0</ele>
        <time>2019-05-17T10:42:09.161Z</time>
      </trkpt>
      <trkpt lat="39.318095" lon="-8.581965">
        <ele>9.0</ele>
        <time>2019-05-17T10:42:10.182Z</time>
      </trkpt>
      <trkpt lat="39.31811333" lon="-8.58194">
        <ele>10.0</ele>
        <time>2019-05-17T10:42:11.159Z</time>
      </trkpt>
      <trkpt lat="39.31811333" lon="-8.58194">
        <ele>10.0</ele>
        <time>2019-05-17T10:42:12.171Z</time>
      </trkpt>
      <trkpt lat="39.31815" lon="-8.58188833">
        <ele>10.0</ele>
        <time>2019-05-17T10:42:13.151Z</time>
      </trkpt>
      <trkpt lat="39.31815" lon="-8.58188833">
        <ele>10.0</ele>
        <time>2019-05-17T10:42:14.161Z</time>
      </trkpt>
      <trkpt lat="39.31818667" lon="-8.58183667">
        <ele>10.0</ele>
        <time>2019-05-17T10:42:15.164Z</time>
      </trkpt>
      <trkpt lat="39.31818667" lon="-8.58183667">
        <ele>10.0</ele>
        <time>2019-05-17T10:42:16.188Z</time>
      </trkpt>
      <trkpt lat="39.31822" lon="-8.58178167">
        <ele>10.0</ele>
        <time>2019-05-17T10:42:17.159Z</time>
      </trkpt>
      <trkpt lat="39.31822" lon="-8.58178167">
        <ele>10.0</ele>
        <time>2019-05-17T10:42:18.186Z</time>
      </trkpt>
      <trkpt lat="39.31825667" lon="-8.58172667">
        <ele>10.0</ele>
        <time>2019-05-17T10:42:19.171Z</time>
      </trkpt>
      <trkpt lat="39.31825667" lon="-8.58172667">
        <ele>10.0</ele>
        <time>2019-05-17T10:42:20.180Z</time>
      </trkpt>
      <trkpt lat="39.31829333" lon="-8.58167167">
        <ele>10.0</ele>
        <time>2019-05-17T10:42:21.150Z</time>
      </trkpt>
      <trkpt lat="39.31829333" lon="-8.58167167">
        <ele>10.0</ele>
        <time>2019-05-17T10:42:22.166Z</time>
      </trkpt>
      <trkpt lat="39.31833" lon="-8.58161833">
        <ele>10.0</ele>
        <time>2019-05-17T10:42:23.178Z</time>
      </trkpt>
      <trkpt lat="39.31833" lon="-8.58161833">
        <ele>10.0</ele>
        <time>2019-05-17T10:42:24.153Z</time>
      </trkpt>
      <trkpt lat="39.31836667" lon="-8.581565">
        <ele>10.0</ele>
        <time>2019-05-17T10:42:25.172Z</time>
      </trkpt>
      <trkpt lat="39.31836667" lon="-8.581565">
        <ele>10.0</ele>
        <time>2019-05-17T10:42:26.182Z</time>
      </trkpt>
      <trkpt lat="39.31840167" lon="-8.58151">
        <ele>10.0</ele>
        <time>2019-05-17T10:42:27.151Z</time>
      </trkpt>
      <trkpt lat="39.31840167" lon="-8.58151">
        <ele>10.0</ele>
        <time>2019-05-17T10:42:28.160Z</time>
      </trkpt>
      <trkpt lat="39.318435" lon="-8.58145333">
        <ele>10.0</ele>
        <time>2019-05-17T10:42:29.183Z</time>
      </trkpt>
      <trkpt lat="39.318435" lon="-8.58145333">
        <ele>10.0</ele>
        <time>2019-05-17T10:42:30.156Z</time>
      </trkpt>
      <trkpt lat="39.31846833" lon="-8.58139167">
        <ele>9.0</ele>
        <time>2019-05-17T10:42:31.168Z</time>
      </trkpt>
      <trkpt lat="39.31846833" lon="-8.58139167">
        <ele>9.0</ele>
        <time>2019-05-17T10:42:32.179Z</time>
      </trkpt>
      <trkpt lat="39.31850333" lon="-8.58133167">
        <ele>9.0</ele>
        <time>2019-05-17T10:42:33.152Z</time>
      </trkpt>
      <trkpt lat="39.31850333" lon="-8.58133167">
        <ele>9.0</ele>
        <time>2019-05-17T10:42:34.172Z</time>
      </trkpt>
      <trkpt lat="39.31854167" lon="-8.58127667">
        <ele>9.0</ele>
        <time>2019-05-17T10:42:35.182Z</time>
      </trkpt>
      <trkpt lat="39.31854167" lon="-8.58127667">
        <ele>9.0</ele>
        <time>2019-05-17T10:42:36.154Z</time>
      </trkpt>
      <trkpt lat="39.31858333" lon="-8.58121833">
        <ele>9.0</ele>
        <time>2019-05-17T10:42:37.157Z</time>
      </trkpt>
      <trkpt lat="39.31858333" lon="-8.58121833">
        <ele>9.0</ele>
        <time>2019-05-17T10:42:38.189Z</time>
      </trkpt>
      <trkpt lat="39.31862167" lon="-8.58116333">
        <ele>9.0</ele>
        <time>2019-05-17T10:42:39.163Z</time>
      </trkpt>
      <trkpt lat="39.31862167" lon="-8.58116333">
        <ele>9.0</ele>
        <time>2019-05-17T10:42:40.186Z</time>
      </trkpt>
      <trkpt lat="39.31866" lon="-8.58111167">
        <ele>9.0</ele>
        <time>2019-05-17T10:42:41.167Z</time>
      </trkpt>
      <trkpt lat="39.31866" lon="-8.58111167">
        <ele>9.0</ele>
        <time>2019-05-17T10:42:42.151Z</time>
      </trkpt>
      <trkpt lat="39.31869667" lon="-8.58105833">
        <ele>9.0</ele>
        <time>2019-05-17T10:42:43.174Z</time>
      </trkpt>
      <trkpt lat="39.31869667" lon="-8.58105833">
        <ele>9.0</ele>
        <time>2019-05-17T10:42:44.183Z</time>
      </trkpt>
      <trkpt lat="39.31873167" lon="-8.581005">
        <ele>9.0</ele>
        <time>2019-05-17T10:42:45.190Z</time>
      </trkpt>
      <trkpt lat="39.31873167" lon="-8.581005">
        <ele>9.0</ele>
        <time>2019-05-17T10:42:46.186Z</time>
      </trkpt>
      <trkpt lat="39.31876833" lon="-8.58095">
        <ele>9.0</ele>
        <time>2019-05-17T10:42:47.156Z</time>
      </trkpt>
      <trkpt lat="39.31876833" lon="-8.58095">
        <ele>9.0</ele>
        <time>2019-05-17T10:42:48.162Z</time>
      </trkpt>
      <trkpt lat="39.31880333" lon="-8.58089667">
        <ele>9.0</ele>
        <time>2019-05-17T10:42:49.180Z</time>
      </trkpt>
      <trkpt lat="39.31880333" lon="-8.58089667">
        <ele>9.0</ele>
        <time>2019-05-17T10:42:50.152Z</time>
      </trkpt>
      <trkpt lat="39.318835" lon="-8.58084833">
        <ele>9.0</ele>
        <time>2019-05-17T10:42:51.164Z</time>
      </trkpt>
      <trkpt lat="39.318835" lon="-8.58084833">
        <ele>9.0</ele>
        <time>2019-05-17T10:42:52.187Z</time>
      </trkpt>
      <trkpt lat="39.31886333" lon="-8.580805">
        <ele>8.0</ele>
        <time>2019-05-17T10:42:53.166Z</time>
      </trkpt>
      <trkpt lat="39.31886333" lon="-8.580805">
        <ele>8.0</ele>
        <time>2019-05-17T10:42:54.154Z</time>
      </trkpt>
      <trkpt lat="39.31889833" lon="-8.58075833">
        <ele>8.0</ele>
        <time>2019-05-17T10:42:55.170Z</time>
      </trkpt>
      <trkpt lat="39.31889833" lon="-8.58075833">
        <ele>8.0</ele>
        <time>2019-05-17T10:42:56.158Z</time>
      </trkpt>
      <trkpt lat="39.31893167" lon="-8.58070833">
        <ele>8.0</ele>
        <time>2019-05-17T10:42:57.184Z</time>
      </trkpt>
      <trkpt lat="39.31895" lon="-8.58068">
        <ele>8.0</ele>
        <time>2019-05-17T10:42:58.164Z</time>
      </trkpt>
      <trkpt lat="39.31896667" lon="-8.580655">
        <ele>9.0</ele>
        <time>2019-05-17T10:42:59.191Z</time>
      </trkpt>
      <trkpt lat="39.31896667" lon="-8.580655">
        <ele>9.0</ele>
        <time>2019-05-17T10:43:00.167Z</time>
      </trkpt>
      <trkpt lat="39.31899833" lon="-8.58061167">
        <ele>9.0</ele>
        <time>2019-05-17T10:43:01.181Z</time>
      </trkpt>
      <trkpt lat="39.319015" lon="-8.58059">
        <ele>9.0</ele>
        <time>2019-05-17T10:43:02.175Z</time>
      </trkpt>
      <trkpt lat="39.319015" lon="-8.58059">
        <ele>9.0</ele>
        <time>2019-05-17T10:43:03.154Z</time>
      </trkpt>
      <trkpt lat="39.31905" lon="-8.58053667">
        <ele>9.0</ele>
        <time>2019-05-17T10:43:04.168Z</time>
      </trkpt>
      <trkpt lat="39.319065" lon="-8.58050833">
        <ele>9.0</ele>
        <time>2019-05-17T10:43:05.152Z</time>
      </trkpt>
      <trkpt lat="39.319065" lon="-8.58050833">
        <ele>9.0</ele>
        <time>2019-05-17T10:43:06.175Z</time>
      </trkpt>
      <trkpt lat="39.319085" lon="-8.58044333">
        <ele>9.0</ele>
        <time>2019-05-17T10:43:07.159Z</time>
      </trkpt>
      <trkpt lat="39.319085" lon="-8.58044333">
        <ele>9.0</ele>
        <time>2019-05-17T10:43:08.172Z</time>
      </trkpt>
      <trkpt lat="39.31910167" lon="-8.580375">
        <ele>9.0</ele>
        <time>2019-05-17T10:43:09.156Z</time>
      </trkpt>
      <trkpt lat="39.31911167" lon="-8.58034">
        <ele>9.0</ele>
        <time>2019-05-17T10:43:10.161Z</time>
      </trkpt>
      <trkpt lat="39.31912" lon="-8.580305">
        <ele>9.0</ele>
        <time>2019-05-17T10:43:11.188Z</time>
      </trkpt>
      <trkpt lat="39.31912" lon="-8.580305">
        <ele>9.0</ele>
        <time>2019-05-17T10:43:12.169Z</time>
      </trkpt>
      <trkpt lat="39.31914333" lon="-8.580235">
        <ele>9.0</ele>
        <time>2019-05-17T10:43:13.185Z</time>
      </trkpt>
      <trkpt lat="39.31914333" lon="-8.580235">
        <ele>9.0</ele>
        <time>2019-05-17T10:43:14.155Z</time>
      </trkpt>
      <trkpt lat="39.31916167" lon="-8.58017167">
        <ele>9.0</ele>
        <time>2019-05-17T10:43:15.164Z</time>
      </trkpt>
      <trkpt lat="39.31917167" lon="-8.58014167">
        <ele>9.0</ele>
        <time>2019-05-17T10:43:16.181Z</time>
      </trkpt>
      <trkpt lat="39.31918167" lon="-8.58011333">
        <ele>9.0</ele>
        <time>2019-05-17T10:43:17.158Z</time>
      </trkpt>
      <trkpt lat="39.31918167" lon="-8.58011333">
        <ele>9.0</ele>
        <time>2019-05-17T10:43:18.185Z</time>
      </trkpt>
      <trkpt lat="39.319195" lon="-8.580055">
        <ele>8.0</ele>
        <time>2019-05-17T10:43:19.158Z</time>
      </trkpt>
      <trkpt lat="39.3192" lon="-8.58002833">
        <ele>8.0</ele>
        <time>2019-05-17T10:43:20.168Z</time>
      </trkpt>
      <trkpt lat="39.3192" lon="-8.58002833">
        <ele>8.0</ele>
        <time>2019-05-17T10:43:21.183Z</time>
      </trkpt>
      <trkpt lat="39.31921667" lon="-8.57997">
        <ele>8.0</ele>
        <time>2019-05-17T10:43:22.240Z</time>
      </trkpt>
      <trkpt lat="39.319225" lon="-8.57993833">
        <ele>8.0</ele>
        <time>2019-05-17T10:43:23.153Z</time>
      </trkpt>
      <trkpt lat="39.319225" lon="-8.57993833">
        <ele>8.0</ele>
        <time>2019-05-17T10:43:24.163Z</time>
      </trkpt>
      <trkpt lat="39.31923833" lon="-8.57987333">
        <ele>8.0</ele>
        <time>2019-05-17T10:43:25.179Z</time>
      </trkpt>
      <trkpt lat="39.31923833" lon="-8.57987333">
        <ele>8.0</ele>
        <time>2019-05-17T10:43:26.185Z</time>
      </trkpt>
      <trkpt lat="39.31926333" lon="-8.57980833">
        <ele>8.0</ele>
        <time>2019-05-17T10:43:27.160Z</time>
      </trkpt>
      <trkpt lat="39.31926333" lon="-8.57980833">
        <ele>8.0</ele>
        <time>2019-05-17T10:43:28.176Z</time>
      </trkpt>
      <trkpt lat="39.319285" lon="-8.57974">
        <ele>8.0</ele>
        <time>2019-05-17T10:43:29.190Z</time>
      </trkpt>
      <trkpt lat="39.319285" lon="-8.57974">
        <ele>8.0</ele>
        <time>2019-05-17T10:43:30.158Z</time>
      </trkpt>
      <trkpt lat="39.31930833" lon="-8.57967167">
        <ele>9.0</ele>
        <time>2019-05-17T10:43:31.182Z</time>
      </trkpt>
      <trkpt lat="39.31931833" lon="-8.57964">
        <ele>9.0</ele>
        <time>2019-05-17T10:43:32.159Z</time>
      </trkpt>
      <trkpt lat="39.31931833" lon="-8.57964">
        <ele>9.0</ele>
        <time>2019-05-17T10:43:33.170Z</time>
      </trkpt>
      <trkpt lat="39.31934" lon="-8.579575">
        <ele>9.0</ele>
        <time>2019-05-17T10:43:34.160Z</time>
      </trkpt>
      <trkpt lat="39.31935333" lon="-8.57954167">
        <ele>9.0</ele>
        <time>2019-05-17T10:43:35.190Z</time>
      </trkpt>
      <trkpt lat="39.31935333" lon="-8.57954167">
        <ele>9.0</ele>
        <time>2019-05-17T10:43:36.167Z</time>
      </trkpt>
      <trkpt lat="39.31937667" lon="-8.57947">
        <ele>9.0</ele>
        <time>2019-05-17T10:43:37.178Z</time>
      </trkpt>
      <trkpt lat="39.31937667" lon="-8.57947">
        <ele>9.0</ele>
        <time>2019-05-17T10:43:38.186Z</time>
      </trkpt>
      <trkpt lat="39.31939667" lon="-8.57939833">
        <ele>9.0</ele>
        <time>2019-05-17T10:43:39.158Z</time>
      </trkpt>
      <trkpt lat="39.31939667" lon="-8.57939833">
        <ele>9.0</ele>
        <time>2019-05-17T10:43:40.189Z</time>
      </trkpt>
      <trkpt lat="39.31941667" lon="-8.57933">
        <ele>8.0</ele>
        <time>2019-05-17T10:43:41.172Z</time>
      </trkpt>
      <trkpt lat="39.31941667" lon="-8.57933">
        <ele>8.0</ele>
        <time>2019-05-17T10:43:42.150Z</time>
      </trkpt>
      <trkpt lat="39.319435" lon="-8.579265">
        <ele>8.0</ele>
        <time>2019-05-17T10:43:43.176Z</time>
      </trkpt>
      <trkpt lat="39.319435" lon="-8.579265">
        <ele>8.0</ele>
        <time>2019-05-17T10:43:44.167Z</time>
      </trkpt>
      <trkpt lat="39.31945167" lon="-8.579205">
        <ele>8.0</ele>
        <time>2019-05-17T10:43:45.180Z</time>
      </trkpt>
      <trkpt lat="39.31945167" lon="-8.579205">
        <ele>8.0</ele>
        <time>2019-05-17T10:43:46.186Z</time>
      </trkpt>
      <trkpt lat="39.31946667" lon="-8.579145">
        <ele>8.0</ele>
        <time>2019-05-17T10:43:47.160Z</time>
      </trkpt>
      <trkpt lat="39.31946667" lon="-8.579145">
        <ele>8.0</ele>
        <time>2019-05-17T10:43:48.169Z</time>
      </trkpt>
      <trkpt lat="39.31948167" lon="-8.57908">
        <ele>8.0</ele>
        <time>2019-05-17T10:43:49.185Z</time>
      </trkpt>
      <trkpt lat="39.31948167" lon="-8.57908">
        <ele>8.0</ele>
        <time>2019-05-17T10:43:50.152Z</time>
      </trkpt>
      <trkpt lat="39.31949833" lon="-8.57901">
        <ele>8.0</ele>
        <time>2019-05-17T10:43:51.163Z</time>
      </trkpt>
      <trkpt lat="39.31949833" lon="-8.57901">
        <ele>8.0</ele>
        <time>2019-05-17T10:43:52.181Z</time>
      </trkpt>
      <trkpt lat="39.31950833" lon="-8.57894">
        <ele>8.0</ele>
        <time>2019-05-17T10:43:53.167Z</time>
      </trkpt>
      <trkpt lat="39.31950833" lon="-8.57894">
        <ele>8.0</ele>
        <time>2019-05-17T10:43:54.153Z</time>
      </trkpt>
      <trkpt lat="39.319515" lon="-8.57887667">
        <ele>9.0</ele>
        <time>2019-05-17T10:43:55.161Z</time>
      </trkpt>
      <trkpt lat="39.31952" lon="-8.578845">
        <ele>9.0</ele>
        <time>2019-05-17T10:43:56.172Z</time>
      </trkpt>
      <trkpt lat="39.31952" lon="-8.578845">
        <ele>9.0</ele>
        <time>2019-05-17T10:43:57.189Z</time>
      </trkpt>
      <trkpt lat="39.31952667" lon="-8.57877667">
        <ele>9.0</ele>
        <time>2019-05-17T10:43:58.177Z</time>
      </trkpt>
      <trkpt lat="39.31953" lon="-8.57874167">
        <ele>10.0</ele>
        <time>2019-05-17T10:43:59.160Z</time>
      </trkpt>
      <trkpt lat="39.31953" lon="-8.57874167">
        <ele>10.0</ele>
        <time>2019-05-17T10:44:00.173Z</time>
      </trkpt>
      <trkpt lat="39.31953833" lon="-8.57867">
        <ele>10.0</ele>
        <time>2019-05-17T10:44:01.189Z</time>
      </trkpt>
      <trkpt lat="39.31953833" lon="-8.57867">
        <ele>10.0</ele>
        <time>2019-05-17T10:44:02.160Z</time>
      </trkpt>
      <trkpt lat="39.31954333" lon="-8.5786">
        <ele>10.0</ele>
        <time>2019-05-17T10:44:03.184Z</time>
      </trkpt>
      <trkpt lat="39.31954333" lon="-8.5786">
        <ele>10.0</ele>
        <time>2019-05-17T10:44:04.153Z</time>
      </trkpt>
      <trkpt lat="39.31954667" lon="-8.57853">
        <ele>10.0</ele>
        <time>2019-05-17T10:44:05.170Z</time>
      </trkpt>
      <trkpt lat="39.31954667" lon="-8.57849333">
        <ele>10.0</ele>
        <time>2019-05-17T10:44:06.160Z</time>
      </trkpt>
      <trkpt lat="39.31954667" lon="-8.57849333">
        <ele>10.0</ele>
        <time>2019-05-17T10:44:07.175Z</time>
      </trkpt>
      <trkpt lat="39.31955" lon="-8.57841667">
        <ele>10.0</ele>
        <time>2019-05-17T10:44:08.157Z</time>
      </trkpt>
      <trkpt lat="39.31955" lon="-8.57841667">
        <ele>10.0</ele>
        <time>2019-05-17T10:44:09.174Z</time>
      </trkpt>
      <trkpt lat="39.31956" lon="-8.578345">
        <ele>10.0</ele>
        <time>2019-05-17T10:44:10.150Z</time>
      </trkpt>
      <trkpt lat="39.319565" lon="-8.57831333">
        <ele>11.0</ele>
        <time>2019-05-17T10:44:11.172Z</time>
      </trkpt>
      <trkpt lat="39.319565" lon="-8.57831333">
        <ele>11.0</ele>
        <time>2019-05-17T10:44:12.187Z</time>
      </trkpt>
      <trkpt lat="39.31957667" lon="-8.57825">
        <ele>10.0</ele>
        <time>2019-05-17T10:44:13.160Z</time>
      </trkpt>
      <trkpt lat="39.31958167" lon="-8.57821833">
        <ele>11.0</ele>
        <time>2019-05-17T10:44:14.182Z</time>
      </trkpt>
      <trkpt lat="39.31958167" lon="-8.57821833">
        <ele>11.0</ele>
        <time>2019-05-17T10:44:15.155Z</time>
      </trkpt>
      <trkpt lat="39.31959333" lon="-8.57816">
        <ele>10.0</ele>
        <time>2019-05-17T10:44:16.165Z</time>
      </trkpt>
      <trkpt lat="39.31959833" lon="-8.57813">
        <ele>11.0</ele>
        <time>2019-05-17T10:44:17.181Z</time>
      </trkpt>
      <trkpt lat="39.31959833" lon="-8.57813">
        <ele>11.0</ele>
        <time>2019-05-17T10:44:18.153Z</time>
      </trkpt>
      <trkpt lat="39.31961167" lon="-8.57807167">
        <ele>11.0</ele>
        <time>2019-05-17T10:44:19.167Z</time>
      </trkpt>
      <trkpt lat="39.31961167" lon="-8.57807167">
        <ele>11.0</ele>
        <time>2019-05-17T10:44:20.178Z</time>
      </trkpt>
      <trkpt lat="39.31962667" lon="-8.578005">
        <ele>11.0</ele>
        <time>2019-05-17T10:44:21.151Z</time>
      </trkpt>
      <trkpt lat="39.31962667" lon="-8.578005">
        <ele>11.0</ele>
        <time>2019-05-17T10:44:22.159Z</time>
      </trkpt>
      <trkpt lat="39.31964333" lon="-8.57793833">
        <ele>11.0</ele>
        <time>2019-05-17T10:44:23.182Z</time>
      </trkpt>
      <trkpt lat="39.31964333" lon="-8.57793833">
        <ele>11.0</ele>
        <time>2019-05-17T10:44:24.151Z</time>
      </trkpt>
      <trkpt lat="39.319655" lon="-8.57787">
        <ele>10.0</ele>
        <time>2019-05-17T10:44:25.163Z</time>
      </trkpt>
      <trkpt lat="39.319655" lon="-8.57787">
        <ele>10.0</ele>
        <time>2019-05-17T10:44:26.172Z</time>
      </trkpt>
      <trkpt lat="39.31967" lon="-8.57780167">
        <ele>10.0</ele>
        <time>2019-05-17T10:44:27.185Z</time>
      </trkpt>
      <trkpt lat="39.31967" lon="-8.57780167">
        <ele>10.0</ele>
        <time>2019-05-17T10:44:28.156Z</time>
      </trkpt>
      <trkpt lat="39.31968333" lon="-8.57773333">
        <ele>10.0</ele>
        <time>2019-05-17T10:44:29.153Z</time>
      </trkpt>
      <trkpt lat="39.31968333" lon="-8.57773333">
        <ele>10.0</ele>
        <time>2019-05-17T10:44:30.178Z</time>
      </trkpt>
      <trkpt lat="39.31969333" lon="-8.57766667">
        <ele>10.0</ele>
        <time>2019-05-17T10:44:31.162Z</time>
      </trkpt>
      <trkpt lat="39.31969333" lon="-8.57766667">
        <ele>10.0</ele>
        <time>2019-05-17T10:44:32.175Z</time>
      </trkpt>
      <trkpt lat="39.31970833" lon="-8.57760333">
        <ele>10.0</ele>
        <time>2019-05-17T10:44:33.154Z</time>
      </trkpt>
      <trkpt lat="39.31970833" lon="-8.57760333">
        <ele>10.0</ele>
        <time>2019-05-17T10:44:34.162Z</time>
      </trkpt>
      <trkpt lat="39.31972167" lon="-8.57753833">
        <ele>10.0</ele>
        <time>2019-05-17T10:44:35.162Z</time>
      </trkpt>
      <trkpt lat="39.31972167" lon="-8.57753833">
        <ele>10.0</ele>
        <time>2019-05-17T10:44:36.174Z</time>
      </trkpt>
      <trkpt lat="39.319735" lon="-8.577475">
        <ele>9.0</ele>
        <time>2019-05-17T10:44:37.184Z</time>
      </trkpt>
      <trkpt lat="39.319735" lon="-8.577475">
        <ele>9.0</ele>
        <time>2019-05-17T10:44:38.150Z</time>
      </trkpt>
      <trkpt lat="39.31975" lon="-8.57740833">
        <ele>9.0</ele>
        <time>2019-05-17T10:44:39.166Z</time>
      </trkpt>
      <trkpt lat="39.31975" lon="-8.57740833">
        <ele>9.0</ele>
        <time>2019-05-17T10:44:40.175Z</time>
      </trkpt>
      <trkpt lat="39.319765" lon="-8.57734">
        <ele>9.0</ele>
        <time>2019-05-17T10:44:41.151Z</time>
      </trkpt>
      <trkpt lat="39.319765" lon="-8.57734">
        <ele>9.0</ele>
        <time>2019-05-17T10:44:42.171Z</time>
      </trkpt>
      <trkpt lat="39.31978333" lon="-8.57727667">
        <ele>9.0</ele>
        <time>2019-05-17T10:44:43.186Z</time>
      </trkpt>
      <trkpt lat="39.31979167" lon="-8.577245">
        <ele>9.0</ele>
        <time>2019-05-17T10:44:44.158Z</time>
      </trkpt>
      <trkpt lat="39.31979833" lon="-8.57721167">
        <ele>9.0</ele>
        <time>2019-05-17T10:44:45.185Z</time>
      </trkpt>
      <trkpt lat="39.31979833" lon="-8.57721167">
        <ele>9.0</ele>
        <time>2019-05-17T10:44:46.150Z</time>
      </trkpt>
      <trkpt lat="39.319815" lon="-8.577145">
        <ele>9.0</ele>
        <time>2019-05-17T10:44:47.161Z</time>
      </trkpt>
      <trkpt lat="39.319815" lon="-8.577145">
        <ele>9.0</ele>
        <time>2019-05-17T10:44:48.172Z</time>
      </trkpt>
      <trkpt lat="39.31982833" lon="-8.57707667">
        <ele>9.0</ele>
        <time>2019-05-17T10:44:49.186Z</time>
      </trkpt>
      <trkpt lat="39.31982833" lon="-8.57707667">
        <ele>9.0</ele>
        <time>2019-05-17T10:44:50.156Z</time>
      </trkpt>
      <trkpt lat="39.31984167" lon="-8.57700833">
        <ele>8.0</ele>
        <time>2019-05-17T10:44:51.179Z</time>
      </trkpt>
      <trkpt lat="39.31984167" lon="-8.57700833">
        <ele>8.0</ele>
        <time>2019-05-17T10:44:52.154Z</time>
      </trkpt>
      <trkpt lat="39.31985333" lon="-8.57694">
        <ele>8.0</ele>
        <time>2019-05-17T10:44:53.173Z</time>
      </trkpt>
      <trkpt lat="39.31985333" lon="-8.57694">
        <ele>8.0</ele>
        <time>2019-05-17T10:44:54.172Z</time>
      </trkpt>
      <trkpt lat="39.31986833" lon="-8.57687">
        <ele>9.0</ele>
        <time>2019-05-17T10:44:55.157Z</time>
      </trkpt>
      <trkpt lat="39.31986833" lon="-8.57687">
        <ele>9.0</ele>
        <time>2019-05-17T10:44:56.171Z</time>
      </trkpt>
      <trkpt lat="39.31988167" lon="-8.57679833">
        <ele>9.0</ele>
        <time>2019-05-17T10:44:57.164Z</time>
      </trkpt>
      <trkpt lat="39.31988833" lon="-8.57676">
        <ele>9.0</ele>
        <time>2019-05-17T10:44:58.182Z</time>
      </trkpt>
      <trkpt lat="39.31989333" lon="-8.57672167">
        <ele>9.0</ele>
        <time>2019-05-17T10:44:59.160Z</time>
      </trkpt>
      <trkpt lat="39.31989333" lon="-8.57672167">
        <ele>9.0</ele>
        <time>2019-05-17T10:45:00.179Z</time>
      </trkpt>
      <trkpt lat="39.31990333" lon="-8.57664167">
        <ele>9.0</ele>
        <time>2019-05-17T10:45:01.190Z</time>
      </trkpt>
      <trkpt lat="39.31990333" lon="-8.57664167">
        <ele>9.0</ele>
        <time>2019-05-17T10:45:02.158Z</time>
      </trkpt>
      <trkpt lat="39.31991" lon="-8.576565">
        <ele>10.0</ele>
        <time>2019-05-17T10:45:03.180Z</time>
      </trkpt>
      <trkpt lat="39.31991" lon="-8.576565">
        <ele>10.0</ele>
        <time>2019-05-17T10:45:04.187Z</time>
      </trkpt>
      <trkpt lat="39.31991167" lon="-8.576495">
        <ele>10.0</ele>
        <time>2019-05-17T10:45:05.177Z</time>
      </trkpt>
      <trkpt lat="39.31991167" lon="-8.576495">
        <ele>10.0</ele>
        <time>2019-05-17T10:45:06.187Z</time>
      </trkpt>
      <trkpt lat="39.31991333" lon="-8.57643167">
        <ele>11.0</ele>
        <time>2019-05-17T10:45:07.163Z</time>
      </trkpt>
      <trkpt lat="39.31991333" lon="-8.57643167">
        <ele>11.0</ele>
        <time>2019-05-17T10:45:08.174Z</time>
      </trkpt>
      <trkpt lat="39.31991" lon="-8.576365">
        <ele>10.0</ele>
        <time>2019-05-17T10:45:09.163Z</time>
      </trkpt>
      <trkpt lat="39.31991" lon="-8.576365">
        <ele>10.0</ele>
        <time>2019-05-17T10:45:10.186Z</time>
      </trkpt>
      <trkpt lat="39.31990667" lon="-8.57629667">
        <ele>11.0</ele>
        <time>2019-05-17T10:45:11.160Z</time>
      </trkpt>
      <trkpt lat="39.31990667" lon="-8.57629667">
        <ele>11.0</ele>
        <time>2019-05-17T10:45:12.173Z</time>
      </trkpt>
      <trkpt lat="39.3199" lon="-8.57622333">
        <ele>11.0</ele>
        <time>2019-05-17T10:45:13.178Z</time>
      </trkpt>
      <trkpt lat="39.3199" lon="-8.57622333">
        <ele>11.0</ele>
        <time>2019-05-17T10:45:14.162Z</time>
      </trkpt>
      <trkpt lat="39.319895" lon="-8.576155">
        <ele>11.0</ele>
        <time>2019-05-17T10:45:15.183Z</time>
      </trkpt>
      <trkpt lat="39.319895" lon="-8.576155">
        <ele>11.0</ele>
        <time>2019-05-17T10:45:16.162Z</time>
      </trkpt>
      <trkpt lat="39.31989333" lon="-8.576115">
        <ele>12.0</ele>
        <time>2019-05-17T10:45:17.186Z</time>
      </trkpt>
      <trkpt lat="39.31989333" lon="-8.576115">
        <ele>12.0</ele>
        <time>2019-05-17T10:45:18.153Z</time>
      </trkpt>
      <trkpt lat="39.319895" lon="-8.57611667">
        <ele>12.0</ele>
        <time>2019-05-17T10:45:19.174Z</time>
      </trkpt>
      <trkpt lat="39.319895" lon="-8.57611667">
        <ele>12.0</ele>
        <time>2019-05-17T10:45:20.151Z</time>
      </trkpt>
      <trkpt lat="39.319895" lon="-8.57611667">
        <ele>12.0</ele>
        <time>2019-05-17T10:45:21.163Z</time>
      </trkpt>
      <trkpt lat="39.319895" lon="-8.57611667">
        <ele>12.0</ele>
        <time>2019-05-17T10:45:22.177Z</time>
      </trkpt>
      <trkpt lat="39.319895" lon="-8.57611667">
        <ele>12.0</ele>
        <time>2019-05-17T10:45:23.183Z</time>
      </trkpt>
      <trkpt lat="39.319895" lon="-8.57611667">
        <ele>12.0</ele>
        <time>2019-05-17T10:45:24.188Z</time>
      </trkpt>
      <trkpt lat="39.319895" lon="-8.57611667">
        <ele>12.0</ele>
        <time>2019-05-17T10:45:25.183Z</time>
      </trkpt>
      <trkpt lat="39.319895" lon="-8.57611667">
        <ele>12.0</ele>
        <time>2019-05-17T10:45:26.177Z</time>
      </trkpt>
      <trkpt lat="39.31989333" lon="-8.57607">
        <ele>13.0</ele>
        <time>2019-05-17T10:45:27.180Z</time>
      </trkpt>
      <trkpt lat="39.31989333" lon="-8.57607">
        <ele>13.0</ele>
        <time>2019-05-17T10:45:28.178Z</time>
      </trkpt>
      <trkpt lat="39.319895" lon="-8.57600333">
        <ele>13.0</ele>
        <time>2019-05-17T10:45:29.186Z</time>
      </trkpt>
      <trkpt lat="39.319895" lon="-8.57600333">
        <ele>13.0</ele>
        <time>2019-05-17T10:45:30.177Z</time>
      </trkpt>
      <trkpt lat="39.31989" lon="-8.57592167">
        <ele>13.0</ele>
        <time>2019-05-17T10:45:31.163Z</time>
      </trkpt>
      <trkpt lat="39.31989" lon="-8.57592167">
        <ele>13.0</ele>
        <time>2019-05-17T10:45:32.187Z</time>
      </trkpt>
      <trkpt lat="39.31989" lon="-8.57584333">
        <ele>13.0</ele>
        <time>2019-05-17T10:45:33.179Z</time>
      </trkpt>
      <trkpt lat="39.31989" lon="-8.57584333">
        <ele>13.0</ele>
        <time>2019-05-17T10:45:34.176Z</time>
      </trkpt>
      <trkpt lat="39.31988667" lon="-8.57576667">
        <ele>13.0</ele>
        <time>2019-05-17T10:45:35.152Z</time>
      </trkpt>
      <trkpt lat="39.31988667" lon="-8.57576667">
        <ele>13.0</ele>
        <time>2019-05-17T10:45:36.176Z</time>
      </trkpt>
      <trkpt lat="39.31988167" lon="-8.575685">
        <ele>13.0</ele>
        <time>2019-05-17T10:45:37.154Z</time>
      </trkpt>
      <trkpt lat="39.31988167" lon="-8.575645">
        <ele>13.0</ele>
        <time>2019-05-17T10:45:38.179Z</time>
      </trkpt>
      <trkpt lat="39.31988167" lon="-8.575645">
        <ele>13.0</ele>
        <time>2019-05-17T10:45:39.188Z</time>
      </trkpt>
      <trkpt lat="39.31987833" lon="-8.57557167">
        <ele>13.0</ele>
        <time>2019-05-17T10:45:40.163Z</time>
      </trkpt>
      <trkpt lat="39.31987833" lon="-8.57557167">
        <ele>13.0</ele>
        <time>2019-05-17T10:45:41.176Z</time>
      </trkpt>
      <trkpt lat="39.31987667" lon="-8.57550667">
        <ele>13.0</ele>
        <time>2019-05-17T10:45:42.157Z</time>
      </trkpt>
      <trkpt lat="39.31987667" lon="-8.57547167">
        <ele>13.0</ele>
        <time>2019-05-17T10:45:43.182Z</time>
      </trkpt>
      <trkpt lat="39.31987667" lon="-8.57547167">
        <ele>13.0</ele>
        <time>2019-05-17T10:45:44.152Z</time>
      </trkpt>
      <trkpt lat="39.31988" lon="-8.57539667">
        <ele>13.0</ele>
        <time>2019-05-17T10:45:45.176Z</time>
      </trkpt>
      <trkpt lat="39.31988" lon="-8.57539667">
        <ele>13.0</ele>
        <time>2019-05-17T10:45:46.154Z</time>
      </trkpt>
      <trkpt lat="39.31987833" lon="-8.57532">
        <ele>13.0</ele>
        <time>2019-05-17T10:45:47.164Z</time>
      </trkpt>
      <trkpt lat="39.31987833" lon="-8.57532">
        <ele>13.0</ele>
        <time>2019-05-17T10:45:48.173Z</time>
      </trkpt>
      <trkpt lat="39.31987667" lon="-8.57524667">
        <ele>13.0</ele>
        <time>2019-05-17T10:45:49.186Z</time>
      </trkpt>
      <trkpt lat="39.31987667" lon="-8.57524667">
        <ele>13.0</ele>
        <time>2019-05-17T10:45:50.151Z</time>
      </trkpt>
      <trkpt lat="39.31987167" lon="-8.57517833">
        <ele>13.0</ele>
        <time>2019-05-17T10:45:51.162Z</time>
      </trkpt>
      <trkpt lat="39.31987167" lon="-8.57517833">
        <ele>13.0</ele>
        <time>2019-05-17T10:45:52.174Z</time>
      </trkpt>
      <trkpt lat="39.319865" lon="-8.57510833">
        <ele>13.0</ele>
        <time>2019-05-17T10:45:53.189Z</time>
      </trkpt>
      <trkpt lat="39.319865" lon="-8.57510833">
        <ele>13.0</ele>
        <time>2019-05-17T10:45:54.165Z</time>
      </trkpt>
      <trkpt lat="39.319865" lon="-8.575035">
        <ele>13.0</ele>
        <time>2019-05-17T10:45:55.173Z</time>
      </trkpt>
      <trkpt lat="39.319865" lon="-8.575035">
        <ele>13.0</ele>
        <time>2019-05-17T10:45:56.163Z</time>
      </trkpt>
      <trkpt lat="39.31986667" lon="-8.57496">
        <ele>13.0</ele>
        <time>2019-05-17T10:45:57.171Z</time>
      </trkpt>
      <trkpt lat="39.31986667" lon="-8.57492333">
        <ele>13.0</ele>
        <time>2019-05-17T10:45:58.191Z</time>
      </trkpt>
      <trkpt lat="39.31986667" lon="-8.57492333">
        <ele>13.0</ele>
        <time>2019-05-17T10:45:59.165Z</time>
      </trkpt>
      <trkpt lat="39.31986333" lon="-8.57484667">
        <ele>13.0</ele>
        <time>2019-05-17T10:46:00.188Z</time>
      </trkpt>
      <trkpt lat="39.31986333" lon="-8.57484667">
        <ele>13.0</ele>
        <time>2019-05-17T10:46:01.170Z</time>
      </trkpt>
      <trkpt lat="39.31986333" lon="-8.574765">
        <ele>14.0</ele>
        <time>2019-05-17T10:46:02.185Z</time>
      </trkpt>
      <trkpt lat="39.31986333" lon="-8.574765">
        <ele>14.0</ele>
        <time>2019-05-17T10:46:03.160Z</time>
      </trkpt>
      <trkpt lat="39.319865" lon="-8.57468">
        <ele>14.0</ele>
        <time>2019-05-17T10:46:04.174Z</time>
      </trkpt>
      <trkpt lat="39.31986333" lon="-8.57464">
        <ele>14.0</ele>
        <time>2019-05-17T10:46:05.157Z</time>
      </trkpt>
      <trkpt lat="39.31986333" lon="-8.57464">
        <ele>14.0</ele>
        <time>2019-05-17T10:46:06.165Z</time>
      </trkpt>
      <trkpt lat="39.31987" lon="-8.57456667">
        <ele>14.0</ele>
        <time>2019-05-17T10:46:07.183Z</time>
      </trkpt>
      <trkpt lat="39.31987" lon="-8.57456667">
        <ele>14.0</ele>
        <time>2019-05-17T10:46:08.160Z</time>
      </trkpt>
      <trkpt lat="39.31987667" lon="-8.57450333">
        <ele>14.0</ele>
        <time>2019-05-17T10:46:09.187Z</time>
      </trkpt>
      <trkpt lat="39.31987667" lon="-8.57450333">
        <ele>14.0</ele>
        <time>2019-05-17T10:46:10.157Z</time>
      </trkpt>
      <trkpt lat="39.31988167" lon="-8.57444167">
        <ele>13.0</ele>
        <time>2019-05-17T10:46:11.177Z</time>
      </trkpt>
      <trkpt lat="39.31988167" lon="-8.57444167">
        <ele>13.0</ele>
        <time>2019-05-17T10:46:12.189Z</time>
      </trkpt>
      <trkpt lat="39.319885" lon="-8.57437833">
        <ele>13.0</ele>
        <time>2019-05-17T10:46:13.160Z</time>
      </trkpt>
      <trkpt lat="39.31988667" lon="-8.574345">
        <ele>13.0</ele>
        <time>2019-05-17T10:46:14.156Z</time>
      </trkpt>
      <trkpt lat="39.31988667" lon="-8.574345">
        <ele>13.0</ele>
        <time>2019-05-17T10:46:15.175Z</time>
      </trkpt>
      <trkpt lat="39.31989167" lon="-8.57428167">
        <ele>13.0</ele>
        <time>2019-05-17T10:46:16.151Z</time>
      </trkpt>
      <trkpt lat="39.31989167" lon="-8.57428167">
        <ele>13.0</ele>
        <time>2019-05-17T10:46:17.160Z</time>
      </trkpt>
      <trkpt lat="39.319895" lon="-8.574225">
        <ele>13.0</ele>
        <time>2019-05-17T10:46:18.156Z</time>
      </trkpt>
      <trkpt lat="39.319895" lon="-8.574225">
        <ele>13.0</ele>
        <time>2019-05-17T10:46:19.180Z</time>
      </trkpt>
      <trkpt lat="39.31989667" lon="-8.57416333">
        <ele>13.0</ele>
        <time>2019-05-17T10:46:20.160Z</time>
      </trkpt>
      <trkpt lat="39.31989667" lon="-8.57416333">
        <ele>13.0</ele>
        <time>2019-05-17T10:46:21.173Z</time>
      </trkpt>
      <trkpt lat="39.31989833" lon="-8.57410333">
        <ele>13.0</ele>
        <time>2019-05-17T10:46:22.153Z</time>
      </trkpt>
      <trkpt lat="39.3199" lon="-8.57407167">
        <ele>13.0</ele>
        <time>2019-05-17T10:46:23.168Z</time>
      </trkpt>
      <trkpt lat="39.3199" lon="-8.57407167">
        <ele>13.0</ele>
        <time>2019-05-17T10:46:24.185Z</time>
      </trkpt>
      <trkpt lat="39.319905" lon="-8.57401">
        <ele>13.0</ele>
        <time>2019-05-17T10:46:25.161Z</time>
      </trkpt>
      <trkpt lat="39.319905" lon="-8.57401">
        <ele>13.0</ele>
        <time>2019-05-17T10:46:26.173Z</time>
      </trkpt>
      <trkpt lat="39.31991167" lon="-8.57395333">
        <ele>14.0</ele>
        <time>2019-05-17T10:46:27.150Z</time>
      </trkpt>
      <trkpt lat="39.31991667" lon="-8.573925">
        <ele>14.0</ele>
        <time>2019-05-17T10:46:28.162Z</time>
      </trkpt>
      <trkpt lat="39.31992333" lon="-8.573895">
        <ele>13.0</ele>
        <time>2019-05-17T10:46:29.184Z</time>
      </trkpt>
      <trkpt lat="39.31992333" lon="-8.573895">
        <ele>13.0</ele>
        <time>2019-05-17T10:46:30.154Z</time>
      </trkpt>
      <trkpt lat="39.31993667" lon="-8.57384">
        <ele>14.0</ele>
        <time>2019-05-17T10:46:31.167Z</time>
      </trkpt>
      <trkpt lat="39.31993667" lon="-8.57384">
        <ele>14.0</ele>
        <time>2019-05-17T10:46:32.183Z</time>
      </trkpt>
      <trkpt lat="39.31994667" lon="-8.57378167">
        <ele>14.0</ele>
        <time>2019-05-17T10:46:33.184Z</time>
      </trkpt>
      <trkpt lat="39.31994667" lon="-8.57378167">
        <ele>14.0</ele>
        <time>2019-05-17T10:46:34.168Z</time>
      </trkpt>
      <trkpt lat="39.31995667" lon="-8.57371833">
        <ele>14.0</ele>
        <time>2019-05-17T10:46:35.185Z</time>
      </trkpt>
      <trkpt lat="39.31995667" lon="-8.57371833">
        <ele>14.0</ele>
        <time>2019-05-17T10:46:36.156Z</time>
      </trkpt>
      <trkpt lat="39.31996833" lon="-8.573645">
        <ele>13.0</ele>
        <time>2019-05-17T10:46:37.167Z</time>
      </trkpt>
      <trkpt lat="39.31996833" lon="-8.573645">
        <ele>13.0</ele>
        <time>2019-05-17T10:46:38.183Z</time>
      </trkpt>
      <trkpt lat="39.31997833" lon="-8.57357">
        <ele>13.0</ele>
        <time>2019-05-17T10:46:39.180Z</time>
      </trkpt>
      <trkpt lat="39.31997833" lon="-8.57357">
        <ele>13.0</ele>
        <time>2019-05-17T10:46:40.180Z</time>
      </trkpt>
      <trkpt lat="39.31998667" lon="-8.573495">
        <ele>13.0</ele>
        <time>2019-05-17T10:46:41.154Z</time>
      </trkpt>
      <trkpt lat="39.31998667" lon="-8.573495">
        <ele>13.0</ele>
        <time>2019-05-17T10:46:42.169Z</time>
      </trkpt>
      <trkpt lat="39.31999833" lon="-8.573425">
        <ele>13.0</ele>
        <time>2019-05-17T10:46:43.180Z</time>
      </trkpt>
      <trkpt lat="39.31999833" lon="-8.573425">
        <ele>13.0</ele>
        <time>2019-05-17T10:46:44.162Z</time>
      </trkpt>
      <trkpt lat="39.32000833" lon="-8.57335833">
        <ele>13.0</ele>
        <time>2019-05-17T10:46:45.173Z</time>
      </trkpt>
      <trkpt lat="39.32000833" lon="-8.57335833">
        <ele>13.0</ele>
        <time>2019-05-17T10:46:46.181Z</time>
      </trkpt>
      <trkpt lat="39.32001833" lon="-8.573285">
        <ele>12.0</ele>
        <time>2019-05-17T10:46:47.156Z</time>
      </trkpt>
      <trkpt lat="39.32001833" lon="-8.573285">
        <ele>12.0</ele>
        <time>2019-05-17T10:46:48.163Z</time>
      </trkpt>
      <trkpt lat="39.32003" lon="-8.57321167">
        <ele>12.0</ele>
        <time>2019-05-17T10:46:49.184Z</time>
      </trkpt>
      <trkpt lat="39.32003" lon="-8.57321167">
        <ele>12.0</ele>
        <time>2019-05-17T10:46:50.154Z</time>
      </trkpt>
      <trkpt lat="39.32004" lon="-8.57313833">
        <ele>12.0</ele>
        <time>2019-05-17T10:46:51.190Z</time>
      </trkpt>
      <trkpt lat="39.32004" lon="-8.57313833">
        <ele>12.0</ele>
        <time>2019-05-17T10:46:52.183Z</time>
      </trkpt>
      <trkpt lat="39.32004833" lon="-8.57306833">
        <ele>12.0</ele>
        <time>2019-05-17T10:46:53.155Z</time>
      </trkpt>
      <trkpt lat="39.32004833" lon="-8.57306833">
        <ele>12.0</ele>
        <time>2019-05-17T10:46:54.183Z</time>
      </trkpt>
      <trkpt lat="39.320055" lon="-8.57299833">
        <ele>12.0</ele>
        <time>2019-05-17T10:46:55.160Z</time>
      </trkpt>
      <trkpt lat="39.320055" lon="-8.57299833">
        <ele>12.0</ele>
        <time>2019-05-17T10:46:56.165Z</time>
      </trkpt>
      <trkpt lat="39.32006667" lon="-8.57292667">
        <ele>12.0</ele>
        <time>2019-05-17T10:46:57.182Z</time>
      </trkpt>
      <trkpt lat="39.32006667" lon="-8.57292667">
        <ele>12.0</ele>
        <time>2019-05-17T10:46:58.154Z</time>
      </trkpt>
      <trkpt lat="39.32007667" lon="-8.57285667">
        <ele>12.0</ele>
        <time>2019-05-17T10:46:59.165Z</time>
      </trkpt>
      <trkpt lat="39.32007667" lon="-8.57285667">
        <ele>12.0</ele>
        <time>2019-05-17T10:47:00.188Z</time>
      </trkpt>
      <trkpt lat="39.32008333" lon="-8.57278333">
        <ele>12.0</ele>
        <time>2019-05-17T10:47:01.171Z</time>
      </trkpt>
      <trkpt lat="39.32008333" lon="-8.57278333">
        <ele>12.0</ele>
        <time>2019-05-17T10:47:02.180Z</time>
      </trkpt>
      <trkpt lat="39.32008833" lon="-8.57270833">
        <ele>12.0</ele>
        <time>2019-05-17T10:47:03.154Z</time>
      </trkpt>
      <trkpt lat="39.32008833" lon="-8.57270833">
        <ele>12.0</ele>
        <time>2019-05-17T10:47:04.170Z</time>
      </trkpt>
      <trkpt lat="39.32009333" lon="-8.57264">
        <ele>12.0</ele>
        <time>2019-05-17T10:47:05.182Z</time>
      </trkpt>
      <trkpt lat="39.32009333" lon="-8.57264">
        <ele>12.0</ele>
        <time>2019-05-17T10:47:06.154Z</time>
      </trkpt>
      <trkpt lat="39.32009833" lon="-8.57256833">
        <ele>12.0</ele>
        <time>2019-05-17T10:47:07.171Z</time>
      </trkpt>
      <trkpt lat="39.32009833" lon="-8.57256833">
        <ele>12.0</ele>
        <time>2019-05-17T10:47:08.182Z</time>
      </trkpt>
      <trkpt lat="39.320105" lon="-8.572495">
        <ele>12.0</ele>
        <time>2019-05-17T10:47:09.166Z</time>
      </trkpt>
      <trkpt lat="39.32011" lon="-8.57245833">
        <ele>12.0</ele>
        <time>2019-05-17T10:47:10.167Z</time>
      </trkpt>
      <trkpt lat="39.32011" lon="-8.57245833">
        <ele>12.0</ele>
        <time>2019-05-17T10:47:11.184Z</time>
      </trkpt>
      <trkpt lat="39.32012" lon="-8.57239167">
        <ele>12.0</ele>
        <time>2019-05-17T10:47:12.160Z</time>
      </trkpt>
      <trkpt lat="39.320125" lon="-8.57236">
        <ele>12.0</ele>
        <time>2019-05-17T10:47:13.182Z</time>
      </trkpt>
      <trkpt lat="39.320125" lon="-8.57236">
        <ele>12.0</ele>
        <time>2019-05-17T10:47:14.190Z</time>
      </trkpt>
      <trkpt lat="39.32013" lon="-8.57229167">
        <ele>12.0</ele>
        <time>2019-05-17T10:47:15.167Z</time>
      </trkpt>
      <trkpt lat="39.32013" lon="-8.57229167">
        <ele>12.0</ele>
        <time>2019-05-17T10:47:16.179Z</time>
      </trkpt>
      <trkpt lat="39.32012833" lon="-8.572215">
        <ele>12.0</ele>
        <time>2019-05-17T10:47:17.172Z</time>
      </trkpt>
      <trkpt lat="39.32012833" lon="-8.572215">
        <ele>12.0</ele>
        <time>2019-05-17T10:47:18.151Z</time>
      </trkpt>
      <trkpt lat="39.32012667" lon="-8.57214">
        <ele>13.0</ele>
        <time>2019-05-17T10:47:19.187Z</time>
      </trkpt>
      <trkpt lat="39.32012667" lon="-8.57214">
        <ele>13.0</ele>
        <time>2019-05-17T10:47:20.170Z</time>
      </trkpt>
      <trkpt lat="39.32012667" lon="-8.57206667">
        <ele>13.0</ele>
        <time>2019-05-17T10:47:21.180Z</time>
      </trkpt>
      <trkpt lat="39.32012667" lon="-8.57206667">
        <ele>13.0</ele>
        <time>2019-05-17T10:47:22.151Z</time>
      </trkpt>
      <trkpt lat="39.32013167" lon="-8.57198833">
        <ele>13.0</ele>
        <time>2019-05-17T10:47:23.164Z</time>
      </trkpt>
      <trkpt lat="39.32013833" lon="-8.57195">
        <ele>13.0</ele>
        <time>2019-05-17T10:47:24.155Z</time>
      </trkpt>
      <trkpt lat="39.32013833" lon="-8.57195">
        <ele>13.0</ele>
        <time>2019-05-17T10:47:25.186Z</time>
      </trkpt>
      <trkpt lat="39.32015333" lon="-8.571875">
        <ele>13.0</ele>
        <time>2019-05-17T10:47:26.155Z</time>
      </trkpt>
      <trkpt lat="39.32015333" lon="-8.571875">
        <ele>13.0</ele>
        <time>2019-05-17T10:47:27.178Z</time>
      </trkpt>
      <trkpt lat="39.32017167" lon="-8.57180167">
        <ele>13.0</ele>
        <time>2019-05-17T10:47:28.169Z</time>
      </trkpt>
      <trkpt lat="39.32018" lon="-8.57176667">
        <ele>13.0</ele>
        <time>2019-05-17T10:47:29.185Z</time>
      </trkpt>
      <trkpt lat="39.32018" lon="-8.57176667">
        <ele>13.0</ele>
        <time>2019-05-17T10:47:30.151Z</time>
      </trkpt>
      <trkpt lat="39.32020167" lon="-8.57169833">
        <ele>13.0</ele>
        <time>2019-05-17T10:47:31.162Z</time>
      </trkpt>
      <trkpt lat="39.32020167" lon="-8.57169833">
        <ele>13.0</ele>
        <time>2019-05-17T10:47:32.175Z</time>
      </trkpt>
      <trkpt lat="39.32021833" lon="-8.57162333">
        <ele>13.0</ele>
        <time>2019-05-17T10:47:33.152Z</time>
      </trkpt>
      <trkpt lat="39.32021833" lon="-8.57162333">
        <ele>13.0</ele>
        <time>2019-05-17T10:47:34.160Z</time>
      </trkpt>
      <trkpt lat="39.32023167" lon="-8.57154667">
        <ele>13.0</ele>
        <time>2019-05-17T10:47:35.180Z</time>
      </trkpt>
      <trkpt lat="39.32023167" lon="-8.57154667">
        <ele>13.0</ele>
        <time>2019-05-17T10:47:36.154Z</time>
      </trkpt>
      <trkpt lat="39.320245" lon="-8.57146833">
        <ele>13.0</ele>
        <time>2019-05-17T10:47:37.173Z</time>
      </trkpt>
      <trkpt lat="39.320245" lon="-8.57146833">
        <ele>13.0</ele>
        <time>2019-05-17T10:47:38.155Z</time>
      </trkpt>
      <trkpt lat="39.32026167" lon="-8.57138333">
        <ele>12.0</ele>
        <time>2019-05-17T10:47:39.175Z</time>
      </trkpt>
      <trkpt lat="39.32027167" lon="-8.57134333">
        <ele>12.0</ele>
        <time>2019-05-17T10:47:40.190Z</time>
      </trkpt>
      <trkpt lat="39.32028167" lon="-8.57130333">
        <ele>12.0</ele>
        <time>2019-05-17T10:47:41.179Z</time>
      </trkpt>
      <trkpt lat="39.32028167" lon="-8.57130333">
        <ele>12.0</ele>
        <time>2019-05-17T10:47:42.154Z</time>
      </trkpt>
      <trkpt lat="39.3203" lon="-8.571225">
        <ele>12.0</ele>
        <time>2019-05-17T10:47:43.166Z</time>
      </trkpt>
      <trkpt lat="39.32031167" lon="-8.571185">
        <ele>12.0</ele>
        <time>2019-05-17T10:47:44.151Z</time>
      </trkpt>
      <trkpt lat="39.32031167" lon="-8.571185">
        <ele>12.0</ele>
        <time>2019-05-17T10:47:45.177Z</time>
      </trkpt>
      <trkpt lat="39.32033667" lon="-8.57110333">
        <ele>12.0</ele>
        <time>2019-05-17T10:47:46.189Z</time>
      </trkpt>
      <trkpt lat="39.32035" lon="-8.57106333">
        <ele>11.0</ele>
        <time>2019-05-17T10:47:47.150Z</time>
      </trkpt>
      <trkpt lat="39.32035" lon="-8.57106333">
        <ele>11.0</ele>
        <time>2019-05-17T10:47:48.189Z</time>
      </trkpt>
      <trkpt lat="39.32038" lon="-8.57098667">
        <ele>11.0</ele>
        <time>2019-05-17T10:47:49.168Z</time>
      </trkpt>
      <trkpt lat="39.32039333" lon="-8.57095">
        <ele>11.0</ele>
        <time>2019-05-17T10:47:50.152Z</time>
      </trkpt>
      <trkpt lat="39.32039333" lon="-8.57095">
        <ele>11.0</ele>
        <time>2019-05-17T10:47:51.172Z</time>
      </trkpt>
      <trkpt lat="39.32041667" lon="-8.57088">
        <ele>11.0</ele>
        <time>2019-05-17T10:47:52.187Z</time>
      </trkpt>
      <trkpt lat="39.32042667" lon="-8.57084333">
        <ele>11.0</ele>
        <time>2019-05-17T10:47:53.170Z</time>
      </trkpt>
      <trkpt lat="39.32042667" lon="-8.57084333">
        <ele>11.0</ele>
        <time>2019-05-17T10:47:54.185Z</time>
      </trkpt>
      <trkpt lat="39.320445" lon="-8.570775">
        <ele>11.0</ele>
        <time>2019-05-17T10:47:55.161Z</time>
      </trkpt>
      <trkpt lat="39.320445" lon="-8.570775">
        <ele>11.0</ele>
        <time>2019-05-17T10:47:56.180Z</time>
      </trkpt>
      <trkpt lat="39.32046333" lon="-8.57070333">
        <ele>11.0</ele>
        <time>2019-05-17T10:47:57.160Z</time>
      </trkpt>
      <trkpt lat="39.32047333" lon="-8.57066333">
        <ele>10.0</ele>
        <time>2019-05-17T10:47:58.186Z</time>
      </trkpt>
      <trkpt lat="39.32047333" lon="-8.57066333">
        <ele>10.0</ele>
        <time>2019-05-17T10:47:59.157Z</time>
      </trkpt>
      <trkpt lat="39.32048833" lon="-8.57058">
        <ele>10.0</ele>
        <time>2019-05-17T10:48:00.176Z</time>
      </trkpt>
      <trkpt lat="39.32049667" lon="-8.57054">
        <ele>10.0</ele>
        <time>2019-05-17T10:48:01.159Z</time>
      </trkpt>
      <trkpt lat="39.32049667" lon="-8.57054">
        <ele>10.0</ele>
        <time>2019-05-17T10:48:02.175Z</time>
      </trkpt>
      <trkpt lat="39.32050833" lon="-8.57046833">
        <ele>10.0</ele>
        <time>2019-05-17T10:48:03.178Z</time>
      </trkpt>
      <trkpt lat="39.32050833" lon="-8.57046833">
        <ele>10.0</ele>
        <time>2019-05-17T10:48:04.187Z</time>
      </trkpt>
      <trkpt lat="39.32052167" lon="-8.5704">
        <ele>10.0</ele>
        <time>2019-05-17T10:48:05.162Z</time>
      </trkpt>
      <trkpt lat="39.32052167" lon="-8.5704">
        <ele>10.0</ele>
        <time>2019-05-17T10:48:06.162Z</time>
      </trkpt>
      <trkpt lat="39.32053333" lon="-8.57033">
        <ele>10.0</ele>
        <time>2019-05-17T10:48:07.182Z</time>
      </trkpt>
      <trkpt lat="39.32053333" lon="-8.57033">
        <ele>10.0</ele>
        <time>2019-05-17T10:48:08.153Z</time>
      </trkpt>
      <trkpt lat="39.320545" lon="-8.57025333">
        <ele>10.0</ele>
        <time>2019-05-17T10:48:09.152Z</time>
      </trkpt>
      <trkpt lat="39.320545" lon="-8.57025333">
        <ele>10.0</ele>
        <time>2019-05-17T10:48:10.172Z</time>
      </trkpt>
      <trkpt lat="39.32055833" lon="-8.570175">
        <ele>10.0</ele>
        <time>2019-05-17T10:48:11.187Z</time>
      </trkpt>
      <trkpt lat="39.32056667" lon="-8.57013667">
        <ele>9.0</ele>
        <time>2019-05-17T10:48:12.174Z</time>
      </trkpt>
      <trkpt lat="39.32056667" lon="-8.57013667">
        <ele>9.0</ele>
        <time>2019-05-17T10:48:13.183Z</time>
      </trkpt>
      <trkpt lat="39.32058" lon="-8.57005667">
        <ele>9.0</ele>
        <time>2019-05-17T10:48:14.160Z</time>
      </trkpt>
      <trkpt lat="39.32058" lon="-8.57005667">
        <ele>9.0</ele>
        <time>2019-05-17T10:48:15.169Z</time>
      </trkpt>
      <trkpt lat="39.320595" lon="-8.569975">
        <ele>9.0</ele>
        <time>2019-05-17T10:48:16.183Z</time>
      </trkpt>
      <trkpt lat="39.32060333" lon="-8.56993333">
        <ele>9.0</ele>
        <time>2019-05-17T10:48:17.176Z</time>
      </trkpt>
      <trkpt lat="39.32060333" lon="-8.56993333">
        <ele>9.0</ele>
        <time>2019-05-17T10:48:18.188Z</time>
      </trkpt>
      <trkpt lat="39.32062" lon="-8.56985167">
        <ele>9.0</ele>
        <time>2019-05-17T10:48:19.166Z</time>
      </trkpt>
      <trkpt lat="39.32062" lon="-8.56985167">
        <ele>9.0</ele>
        <time>2019-05-17T10:48:20.181Z</time>
      </trkpt>
      <trkpt lat="39.32063333" lon="-8.56977667">
        <ele>9.0</ele>
        <time>2019-05-17T10:48:21.154Z</time>
      </trkpt>
      <trkpt lat="39.32064167" lon="-8.56974">
        <ele>9.0</ele>
        <time>2019-05-17T10:48:22.174Z</time>
      </trkpt>
      <trkpt lat="39.32064833" lon="-8.56970333">
        <ele>9.0</ele>
        <time>2019-05-17T10:48:23.158Z</time>
      </trkpt>
      <trkpt lat="39.32064833" lon="-8.56970333">
        <ele>9.0</ele>
        <time>2019-05-17T10:48:24.171Z</time>
      </trkpt>
      <trkpt lat="39.32066167" lon="-8.56962167">
        <ele>9.0</ele>
        <time>2019-05-17T10:48:25.151Z</time>
      </trkpt>
      <trkpt lat="39.32066167" lon="-8.56962167">
        <ele>9.0</ele>
        <time>2019-05-17T10:48:26.159Z</time>
      </trkpt>
      <trkpt lat="39.32067" lon="-8.56953333">
        <ele>9.0</ele>
        <time>2019-05-17T10:48:27.182Z</time>
      </trkpt>
      <trkpt lat="39.32067" lon="-8.56953333">
        <ele>9.0</ele>
        <time>2019-05-17T10:48:28.151Z</time>
      </trkpt>
      <trkpt lat="39.320685" lon="-8.56944833">
        <ele>9.0</ele>
        <time>2019-05-17T10:48:29.169Z</time>
      </trkpt>
      <trkpt lat="39.320685" lon="-8.56944833">
        <ele>9.0</ele>
        <time>2019-05-17T10:48:30.189Z</time>
      </trkpt>
      <trkpt lat="39.32069833" lon="-8.56937167">
        <ele>9.0</ele>
        <time>2019-05-17T10:48:31.170Z</time>
      </trkpt>
      <trkpt lat="39.32069833" lon="-8.56937167">
        <ele>9.0</ele>
        <time>2019-05-17T10:48:32.185Z</time>
      </trkpt>
      <trkpt lat="39.32071" lon="-8.56929167">
        <ele>9.0</ele>
        <time>2019-05-17T10:48:33.160Z</time>
      </trkpt>
      <trkpt lat="39.32071" lon="-8.56929167">
        <ele>9.0</ele>
        <time>2019-05-17T10:48:34.153Z</time>
      </trkpt>
      <trkpt lat="39.32072667" lon="-8.56921167">
        <ele>8.0</ele>
        <time>2019-05-17T10:48:35.189Z</time>
      </trkpt>
      <trkpt lat="39.32072667" lon="-8.56921167">
        <ele>8.0</ele>
        <time>2019-05-17T10:48:36.159Z</time>
      </trkpt>
      <trkpt lat="39.32075" lon="-8.56914">
        <ele>8.0</ele>
        <time>2019-05-17T10:48:37.155Z</time>
      </trkpt>
      <trkpt lat="39.32075" lon="-8.56914">
        <ele>8.0</ele>
        <time>2019-05-17T10:48:38.166Z</time>
      </trkpt>
      <trkpt lat="39.32078667" lon="-8.56907833">
        <ele>8.0</ele>
        <time>2019-05-17T10:48:39.179Z</time>
      </trkpt>
      <trkpt lat="39.32078667" lon="-8.56907833">
        <ele>8.0</ele>
        <time>2019-05-17T10:48:40.186Z</time>
      </trkpt>
      <trkpt lat="39.32082833" lon="-8.56902167">
        <ele>8.0</ele>
        <time>2019-05-17T10:48:41.161Z</time>
      </trkpt>
      <trkpt lat="39.32082833" lon="-8.56902167">
        <ele>8.0</ele>
        <time>2019-05-17T10:48:42.158Z</time>
      </trkpt>
      <trkpt lat="39.32087167" lon="-8.56896167">
        <ele>8.0</ele>
        <time>2019-05-17T10:48:43.192Z</time>
      </trkpt>
      <trkpt lat="39.32087167" lon="-8.56896167">
        <ele>8.0</ele>
        <time>2019-05-17T10:48:44.174Z</time>
      </trkpt>
      <trkpt lat="39.32092" lon="-8.56890667">
        <ele>7.0</ele>
        <time>2019-05-17T10:48:45.150Z</time>
      </trkpt>
      <trkpt lat="39.32094167" lon="-8.56887833">
        <ele>7.0</ele>
        <time>2019-05-17T10:48:46.189Z</time>
      </trkpt>
      <trkpt lat="39.32096333" lon="-8.56884833">
        <ele>7.0</ele>
        <time>2019-05-17T10:48:47.182Z</time>
      </trkpt>
      <trkpt lat="39.32096333" lon="-8.56884833">
        <ele>7.0</ele>
        <time>2019-05-17T10:48:48.151Z</time>
      </trkpt>
      <trkpt lat="39.32100333" lon="-8.56878667">
        <ele>7.0</ele>
        <time>2019-05-17T10:48:49.170Z</time>
      </trkpt>
      <trkpt lat="39.32100333" lon="-8.56878667">
        <ele>7.0</ele>
        <time>2019-05-17T10:48:50.182Z</time>
      </trkpt>
      <trkpt lat="39.32103667" lon="-8.56871833">
        <ele>7.0</ele>
        <time>2019-05-17T10:48:51.154Z</time>
      </trkpt>
      <trkpt lat="39.32103667" lon="-8.56871833">
        <ele>7.0</ele>
        <time>2019-05-17T10:48:52.178Z</time>
      </trkpt>
      <trkpt lat="39.32106" lon="-8.568655">
        <ele>8.0</ele>
        <time>2019-05-17T10:48:53.150Z</time>
      </trkpt>
      <trkpt lat="39.32106" lon="-8.568655">
        <ele>8.0</ele>
        <time>2019-05-17T10:48:54.178Z</time>
      </trkpt>
      <trkpt lat="39.321095" lon="-8.56862167">
        <ele>8.0</ele>
        <time>2019-05-17T10:48:55.155Z</time>
      </trkpt>
      <trkpt lat="39.321095" lon="-8.56862167">
        <ele>8.0</ele>
        <time>2019-05-17T10:48:56.153Z</time>
      </trkpt>
      <trkpt lat="39.32114" lon="-8.56861833">
        <ele>9.0</ele>
        <time>2019-05-17T10:48:57.169Z</time>
      </trkpt>
      <trkpt lat="39.32114" lon="-8.56861833">
        <ele>9.0</ele>
        <time>2019-05-17T10:48:58.185Z</time>
      </trkpt>
      <trkpt lat="39.32117" lon="-8.56862333">
        <ele>9.0</ele>
        <time>2019-05-17T10:48:59.173Z</time>
      </trkpt>
      <trkpt lat="39.32117" lon="-8.56862333">
        <ele>9.0</ele>
        <time>2019-05-17T10:49:00.188Z</time>
      </trkpt>
      <trkpt lat="39.32117" lon="-8.56862333">
        <ele>9.0</ele>
        <time>2019-05-17T10:49:01.162Z</time>
      </trkpt>
      <trkpt lat="39.32117" lon="-8.56862333">
        <ele>9.0</ele>
        <time>2019-05-17T10:49:02.173Z</time>
      </trkpt>
      <trkpt lat="39.32117" lon="-8.568625">
        <ele>9.0</ele>
        <time>2019-05-17T10:49:03.179Z</time>
      </trkpt>
      <trkpt lat="39.32117" lon="-8.568625">
        <ele>9.0</ele>
        <time>2019-05-17T10:49:04.185Z</time>
      </trkpt>
      <trkpt lat="39.32117" lon="-8.568625">
        <ele>9.0</ele>
        <time>2019-05-17T10:49:05.151Z</time>
      </trkpt>
      <trkpt lat="39.32117" lon="-8.568625">
        <ele>9.0</ele>
        <time>2019-05-17T10:49:06.177Z</time>
      </trkpt>
      <trkpt lat="39.32117" lon="-8.568625">
        <ele>9.0</ele>
        <time>2019-05-17T10:49:07.150Z</time>
      </trkpt>
      <trkpt lat="39.32117" lon="-8.568625">
        <ele>9.0</ele>
        <time>2019-05-17T10:49:08.178Z</time>
      </trkpt>
      <trkpt lat="39.32117" lon="-8.568625">
        <ele>9.0</ele>
        <time>2019-05-17T10:49:09.162Z</time>
      </trkpt>
      <trkpt lat="39.32117" lon="-8.568625">
        <ele>9.0</ele>
        <time>2019-05-17T10:49:10.161Z</time>
      </trkpt>
      <trkpt lat="39.32117" lon="-8.568625">
        <ele>9.0</ele>
        <time>2019-05-17T10:49:11.173Z</time>
      </trkpt>
      <trkpt lat="39.32117" lon="-8.568625">
        <ele>9.0</ele>
        <time>2019-05-17T10:49:12.180Z</time>
      </trkpt>
      <trkpt lat="39.32117" lon="-8.568625">
        <ele>9.0</ele>
        <time>2019-05-17T10:49:13.185Z</time>
      </trkpt>
      <trkpt lat="39.32117" lon="-8.568625">
        <ele>9.0</ele>
        <time>2019-05-17T10:49:14.178Z</time>
      </trkpt>
      <trkpt lat="39.32117" lon="-8.568625">
        <ele>9.0</ele>
        <time>2019-05-17T10:49:15.183Z</time>
      </trkpt>
      <trkpt lat="39.32117" lon="-8.568625">
        <ele>9.0</ele>
        <time>2019-05-17T10:49:16.178Z</time>
      </trkpt>
      <trkpt lat="39.32117" lon="-8.568625">
        <ele>9.0</ele>
        <time>2019-05-17T10:49:17.164Z</time>
      </trkpt>
      <trkpt lat="39.32117" lon="-8.568625">
        <ele>9.0</ele>
        <time>2019-05-17T10:49:18.189Z</time>
      </trkpt>
      <trkpt lat="39.32117" lon="-8.568625">
        <ele>9.0</ele>
        <time>2019-05-17T10:49:19.183Z</time>
      </trkpt>
      <trkpt lat="39.32117" lon="-8.568625">
        <ele>9.0</ele>
        <time>2019-05-17T10:49:20.178Z</time>
      </trkpt>
      <trkpt lat="39.32117" lon="-8.568625">
        <ele>9.0</ele>
        <time>2019-05-17T10:49:21.183Z</time>
      </trkpt>
      <trkpt lat="39.32117" lon="-8.568625">
        <ele>9.0</ele>
        <time>2019-05-17T10:49:22.184Z</time>
      </trkpt>
      <trkpt lat="39.32117" lon="-8.568625">
        <ele>9.0</ele>
        <time>2019-05-17T10:49:23.180Z</time>
      </trkpt>
      <trkpt lat="39.32117" lon="-8.568625">
        <ele>9.0</ele>
        <time>2019-05-17T10:49:24.183Z</time>
      </trkpt>
      <trkpt lat="39.32117" lon="-8.568625">
        <ele>9.0</ele>
        <time>2019-05-17T10:49:25.181Z</time>
      </trkpt>
      <trkpt lat="39.32117" lon="-8.568625">
        <ele>9.0</ele>
        <time>2019-05-17T10:49:26.178Z</time>
      </trkpt>
      <trkpt lat="39.32117" lon="-8.568625">
        <ele>9.0</ele>
        <time>2019-05-17T10:49:27.183Z</time>
      </trkpt>
      <trkpt lat="39.32117" lon="-8.568625">
        <ele>9.0</ele>
        <time>2019-05-17T10:49:28.178Z</time>
      </trkpt>
      <trkpt lat="39.32117" lon="-8.568625">
        <ele>9.0</ele>
        <time>2019-05-17T10:49:29.185Z</time>
      </trkpt>
      <trkpt lat="39.32117" lon="-8.568625">
        <ele>9.0</ele>
        <time>2019-05-17T10:49:30.178Z</time>
      </trkpt>
      <trkpt lat="39.32117" lon="-8.568625">
        <ele>9.0</ele>
        <time>2019-05-17T10:49:31.163Z</time>
      </trkpt>
      <trkpt lat="39.32117" lon="-8.568625">
        <ele>9.0</ele>
        <time>2019-05-17T10:49:32.158Z</time>
      </trkpt>
      <trkpt lat="39.32117" lon="-8.568625">
        <ele>9.0</ele>
        <time>2019-05-17T10:49:33.184Z</time>
      </trkpt>
      <trkpt lat="39.32117" lon="-8.568625">
        <ele>9.0</ele>
        <time>2019-05-17T10:49:34.178Z</time>
      </trkpt>
      <trkpt lat="39.32117" lon="-8.568625">
        <ele>9.0</ele>
        <time>2019-05-17T10:49:35.186Z</time>
      </trkpt>
      <trkpt lat="39.32117" lon="-8.568625">
        <ele>9.0</ele>
        <time>2019-05-17T10:49:36.177Z</time>
      </trkpt>
      <trkpt lat="39.32117" lon="-8.568625">
        <ele>9.0</ele>
        <time>2019-05-17T10:49:37.163Z</time>
      </trkpt>
      <trkpt lat="39.32117" lon="-8.568625">
        <ele>9.0</ele>
        <time>2019-05-17T10:49:38.187Z</time>
      </trkpt>
      <trkpt lat="39.32117" lon="-8.568625">
        <ele>9.0</ele>
        <time>2019-05-17T10:49:39.177Z</time>
      </trkpt>
      <trkpt lat="39.32117" lon="-8.568625">
        <ele>9.0</ele>
        <time>2019-05-17T10:49:40.183Z</time>
      </trkpt>
      <trkpt lat="39.32117" lon="-8.568625">
        <ele>9.0</ele>
        <time>2019-05-17T10:49:41.186Z</time>
      </trkpt>
      <trkpt lat="39.32117" lon="-8.568625">
        <ele>9.0</ele>
        <time>2019-05-17T10:49:42.181Z</time>
      </trkpt>
      <trkpt lat="39.32117" lon="-8.568625">
        <ele>9.0</ele>
        <time>2019-05-17T10:49:43.183Z</time>
      </trkpt>
      <trkpt lat="39.32117" lon="-8.568625">
        <ele>9.0</ele>
        <time>2019-05-17T10:49:44.178Z</time>
      </trkpt>
      <trkpt lat="39.32117" lon="-8.568625">
        <ele>9.0</ele>
        <time>2019-05-17T10:49:45.184Z</time>
      </trkpt>
      <trkpt lat="39.32117" lon="-8.568625">
        <ele>9.0</ele>
        <time>2019-05-17T10:49:46.180Z</time>
      </trkpt>
      <trkpt lat="39.32117" lon="-8.568625">
        <ele>9.0</ele>
        <time>2019-05-17T10:49:47.158Z</time>
      </trkpt>
      <trkpt lat="39.32117" lon="-8.568625">
        <ele>9.0</ele>
        <time>2019-05-17T10:49:48.183Z</time>
      </trkpt>
      <trkpt lat="39.32117" lon="-8.568625">
        <ele>9.0</ele>
        <time>2019-05-17T10:49:49.186Z</time>
      </trkpt>
      <trkpt lat="39.32117" lon="-8.568625">
        <ele>9.0</ele>
        <time>2019-05-17T10:49:50.181Z</time>
      </trkpt>
      <trkpt lat="39.32117" lon="-8.568625">
        <ele>9.0</ele>
        <time>2019-05-17T10:49:51.182Z</time>
      </trkpt>
      <trkpt lat="39.32117" lon="-8.568625">
        <ele>9.0</ele>
        <time>2019-05-17T10:49:52.184Z</time>
      </trkpt>
      <trkpt lat="39.32117" lon="-8.568625">
        <ele>9.0</ele>
        <time>2019-05-17T10:49:53.179Z</time>
      </trkpt>
      <trkpt lat="39.32117" lon="-8.568625">
        <ele>9.0</ele>
        <time>2019-05-17T10:49:54.183Z</time>
      </trkpt>
      <trkpt lat="39.32117" lon="-8.568625">
        <ele>9.0</ele>
        <time>2019-05-17T10:49:55.177Z</time>
      </trkpt>
      <trkpt lat="39.32117" lon="-8.568625">
        <ele>9.0</ele>
        <time>2019-05-17T10:49:56.162Z</time>
      </trkpt>
      <trkpt lat="39.32117" lon="-8.568625">
        <ele>9.0</ele>
        <time>2019-05-17T10:49:57.188Z</time>
      </trkpt>
      <trkpt lat="39.32117" lon="-8.568625">
        <ele>9.0</ele>
        <time>2019-05-17T10:49:58.183Z</time>
      </trkpt>
      <trkpt lat="39.32117" lon="-8.568625">
        <ele>9.0</ele>
        <time>2019-05-17T10:49:59.184Z</time>
      </trkpt>
      <trkpt lat="39.32117" lon="-8.568625">
        <ele>9.0</ele>
        <time>2019-05-17T10:50:00.178Z</time>
      </trkpt>
      <trkpt lat="39.32117" lon="-8.568625">
        <ele>9.0</ele>
        <time>2019-05-17T10:50:01.171Z</time>
      </trkpt>
      <trkpt lat="39.32117" lon="-8.568625">
        <ele>9.0</ele>
        <time>2019-05-17T10:50:02.155Z</time>
      </trkpt>
      <trkpt lat="39.32118833" lon="-8.56863167">
        <ele>12.0</ele>
        <time>2019-05-17T10:50:03.184Z</time>
      </trkpt>
      <trkpt lat="39.32118833" lon="-8.56863167">
        <ele>12.0</ele>
        <time>2019-05-17T10:50:04.177Z</time>
      </trkpt>
      <trkpt lat="39.32121167" lon="-8.56863667">
        <ele>12.0</ele>
        <time>2019-05-17T10:50:05.185Z</time>
      </trkpt>
      <trkpt lat="39.32121167" lon="-8.56863667">
        <ele>12.0</ele>
        <time>2019-05-17T10:50:06.152Z</time>
      </trkpt>
      <trkpt lat="39.321255" lon="-8.56865">
        <ele>12.0</ele>
        <time>2019-05-17T10:50:07.180Z</time>
      </trkpt>
      <trkpt lat="39.321255" lon="-8.56865">
        <ele>12.0</ele>
        <time>2019-05-17T10:50:08.178Z</time>
      </trkpt>
      <trkpt lat="39.32131" lon="-8.568655">
        <ele>12.0</ele>
        <time>2019-05-17T10:50:09.185Z</time>
      </trkpt>
      <trkpt lat="39.32131" lon="-8.568655">
        <ele>12.0</ele>
        <time>2019-05-17T10:50:10.178Z</time>
      </trkpt>
      <trkpt lat="39.32136" lon="-8.56867333">
        <ele>12.0</ele>
        <time>2019-05-17T10:50:11.181Z</time>
      </trkpt>
      <trkpt lat="39.32136" lon="-8.56867333">
        <ele>12.0</ele>
        <time>2019-05-17T10:50:12.178Z</time>
      </trkpt>
      <trkpt lat="39.321415" lon="-8.56868667">
        <ele>12.0</ele>
        <time>2019-05-17T10:50:13.155Z</time>
      </trkpt>
      <trkpt lat="39.321415" lon="-8.56868667">
        <ele>12.0</ele>
        <time>2019-05-17T10:50:14.158Z</time>
      </trkpt>
      <trkpt lat="39.32147167" lon="-8.568705">
        <ele>12.0</ele>
        <time>2019-05-17T10:50:15.157Z</time>
      </trkpt>
      <trkpt lat="39.32147167" lon="-8.568705">
        <ele>12.0</ele>
        <time>2019-05-17T10:50:16.175Z</time>
      </trkpt>
      <trkpt lat="39.32152833" lon="-8.56871833">
        <ele>12.0</ele>
        <time>2019-05-17T10:50:17.150Z</time>
      </trkpt>
      <trkpt lat="39.32152833" lon="-8.56871833">
        <ele>12.0</ele>
        <time>2019-05-17T10:50:18.187Z</time>
      </trkpt>
      <trkpt lat="39.32158667" lon="-8.568735">
        <ele>12.0</ele>
        <time>2019-05-17T10:50:19.160Z</time>
      </trkpt>
      <trkpt lat="39.321615" lon="-8.568745">
        <ele>12.0</ele>
        <time>2019-05-17T10:50:20.182Z</time>
      </trkpt>
      <trkpt lat="39.321615" lon="-8.568745">
        <ele>12.0</ele>
        <time>2019-05-17T10:50:21.155Z</time>
      </trkpt>
      <trkpt lat="39.321675" lon="-8.56876333">
        <ele>12.0</ele>
        <time>2019-05-17T10:50:22.170Z</time>
      </trkpt>
      <trkpt lat="39.321705" lon="-8.56877333">
        <ele>12.0</ele>
        <time>2019-05-17T10:50:23.155Z</time>
      </trkpt>
      <trkpt lat="39.321705" lon="-8.56877333">
        <ele>12.0</ele>
        <time>2019-05-17T10:50:24.164Z</time>
      </trkpt>
      <trkpt lat="39.32176667" lon="-8.56879333">
        <ele>12.0</ele>
        <time>2019-05-17T10:50:25.185Z</time>
      </trkpt>
      <trkpt lat="39.32176667" lon="-8.56879333">
        <ele>12.0</ele>
        <time>2019-05-17T10:50:26.156Z</time>
      </trkpt>
      <trkpt lat="39.32182667" lon="-8.56881167">
        <ele>12.0</ele>
        <time>2019-05-17T10:50:27.167Z</time>
      </trkpt>
      <trkpt lat="39.32186" lon="-8.56882333">
        <ele>12.0</ele>
        <time>2019-05-17T10:50:28.188Z</time>
      </trkpt>
      <trkpt lat="39.32186" lon="-8.56882333">
        <ele>12.0</ele>
        <time>2019-05-17T10:50:29.155Z</time>
      </trkpt>
      <trkpt lat="39.32192667" lon="-8.56883">
        <ele>12.0</ele>
        <time>2019-05-17T10:50:30.172Z</time>
      </trkpt>
      <trkpt lat="39.32195667" lon="-8.56881">
        <ele>12.0</ele>
        <time>2019-05-17T10:50:31.190Z</time>
      </trkpt>
      <trkpt lat="39.32195667" lon="-8.56881">
        <ele>12.0</ele>
        <time>2019-05-17T10:50:32.165Z</time>
      </trkpt>
      <trkpt lat="39.321995" lon="-8.56874">
        <ele>12.0</ele>
        <time>2019-05-17T10:50:33.181Z</time>
      </trkpt>
      <trkpt lat="39.321995" lon="-8.56874">
        <ele>12.0</ele>
        <time>2019-05-17T10:50:34.150Z</time>
      </trkpt>
      <trkpt lat="39.32201833" lon="-8.56865667">
        <ele>11.0</ele>
        <time>2019-05-17T10:50:35.173Z</time>
      </trkpt>
      <trkpt lat="39.32201833" lon="-8.56865667">
        <ele>11.0</ele>
        <time>2019-05-17T10:50:36.177Z</time>
      </trkpt>
      <trkpt lat="39.32204333" lon="-8.56857">
        <ele>11.0</ele>
        <time>2019-05-17T10:50:37.156Z</time>
      </trkpt>
      <trkpt lat="39.322055" lon="-8.56853">
        <ele>11.0</ele>
        <time>2019-05-17T10:50:38.150Z</time>
      </trkpt>
      <trkpt lat="39.322055" lon="-8.56853">
        <ele>11.0</ele>
        <time>2019-05-17T10:50:39.162Z</time>
      </trkpt>
      <trkpt lat="39.32207833" lon="-8.56845667">
        <ele>11.0</ele>
        <time>2019-05-17T10:50:40.181Z</time>
      </trkpt>
      <trkpt lat="39.32208833" lon="-8.568425">
        <ele>11.0</ele>
        <time>2019-05-17T10:50:41.163Z</time>
      </trkpt>
      <trkpt lat="39.32208833" lon="-8.568425">
        <ele>11.0</ele>
        <time>2019-05-17T10:50:42.182Z</time>
      </trkpt>
      <trkpt lat="39.32210833" lon="-8.568365">
        <ele>11.0</ele>
        <time>2019-05-17T10:50:43.152Z</time>
      </trkpt>
      <trkpt lat="39.32210833" lon="-8.568365">
        <ele>11.0</ele>
        <time>2019-05-17T10:50:44.178Z</time>
      </trkpt>
      <trkpt lat="39.32212833" lon="-8.56830833">
        <ele>11.0</ele>
        <time>2019-05-17T10:50:45.154Z</time>
      </trkpt>
      <trkpt lat="39.32212833" lon="-8.56830833">
        <ele>11.0</ele>
        <time>2019-05-17T10:50:46.162Z</time>
      </trkpt>
      <trkpt lat="39.32214833" lon="-8.56825">
        <ele>11.0</ele>
        <time>2019-05-17T10:50:47.185Z</time>
      </trkpt>
      <trkpt lat="39.32216" lon="-8.56821833">
        <ele>11.0</ele>
        <time>2019-05-17T10:50:48.180Z</time>
      </trkpt>
      <trkpt lat="39.32216" lon="-8.56821833">
        <ele>11.0</ele>
        <time>2019-05-17T10:50:49.151Z</time>
      </trkpt>
      <trkpt lat="39.322185" lon="-8.56815667">
        <ele>11.0</ele>
        <time>2019-05-17T10:50:50.167Z</time>
      </trkpt>
      <trkpt lat="39.322185" lon="-8.56815667">
        <ele>11.0</ele>
        <time>2019-05-17T10:50:51.182Z</time>
      </trkpt>
      <trkpt lat="39.32220667" lon="-8.56809333">
        <ele>11.0</ele>
        <time>2019-05-17T10:50:52.159Z</time>
      </trkpt>
      <trkpt lat="39.32222" lon="-8.56806167">
        <ele>11.0</ele>
        <time>2019-05-17T10:50:53.183Z</time>
      </trkpt>
      <trkpt lat="39.32222" lon="-8.56806167">
        <ele>11.0</ele>
        <time>2019-05-17T10:50:54.161Z</time>
      </trkpt>
      <trkpt lat="39.322245" lon="-8.56799667">
        <ele>11.0</ele>
        <time>2019-05-17T10:50:55.181Z</time>
      </trkpt>
      <trkpt lat="39.322245" lon="-8.56799667">
        <ele>11.0</ele>
        <time>2019-05-17T10:50:56.150Z</time>
      </trkpt>
      <trkpt lat="39.32227167" lon="-8.56793167">
        <ele>10.0</ele>
        <time>2019-05-17T10:50:57.169Z</time>
      </trkpt>
      <trkpt lat="39.32228333" lon="-8.5679">
        <ele>10.0</ele>
        <time>2019-05-17T10:50:58.178Z</time>
      </trkpt>
      <trkpt lat="39.32229667" lon="-8.56786667">
        <ele>10.0</ele>
        <time>2019-05-17T10:50:59.188Z</time>
      </trkpt>
      <trkpt lat="39.32229667" lon="-8.56786667">
        <ele>10.0</ele>
        <time>2019-05-17T10:51:00.156Z</time>
      </trkpt>
      <trkpt lat="39.32232167" lon="-8.5678">
        <ele>10.0</ele>
        <time>2019-05-17T10:51:01.171Z</time>
      </trkpt>
      <trkpt lat="39.32233333" lon="-8.56776833">
        <ele>10.0</ele>
        <time>2019-05-17T10:51:02.150Z</time>
      </trkpt>
      <trkpt lat="39.32233333" lon="-8.56776833">
        <ele>10.0</ele>
        <time>2019-05-17T10:51:03.164Z</time>
      </trkpt>
      <trkpt lat="39.32236" lon="-8.56770167">
        <ele>10.0</ele>
        <time>2019-05-17T10:51:04.180Z</time>
      </trkpt>
      <trkpt lat="39.32237167" lon="-8.56766833">
        <ele>10.0</ele>
        <time>2019-05-17T10:51:05.177Z</time>
      </trkpt>
      <trkpt lat="39.32237167" lon="-8.56766833">
        <ele>10.0</ele>
        <time>2019-05-17T10:51:06.151Z</time>
      </trkpt>
      <trkpt lat="39.3224" lon="-8.5676">
        <ele>10.0</ele>
        <time>2019-05-17T10:51:07.166Z</time>
      </trkpt>
      <trkpt lat="39.3224" lon="-8.5676">
        <ele>10.0</ele>
        <time>2019-05-17T10:51:08.183Z</time>
      </trkpt>
      <trkpt lat="39.32242667" lon="-8.56752833">
        <ele>10.0</ele>
        <time>2019-05-17T10:51:09.180Z</time>
      </trkpt>
      <trkpt lat="39.32242667" lon="-8.56752833">
        <ele>10.0</ele>
        <time>2019-05-17T10:51:10.151Z</time>
      </trkpt>
      <trkpt lat="39.322455" lon="-8.56745667">
        <ele>10.0</ele>
        <time>2019-05-17T10:51:11.170Z</time>
      </trkpt>
      <trkpt lat="39.322455" lon="-8.56745667">
        <ele>10.0</ele>
        <time>2019-05-17T10:51:12.179Z</time>
      </trkpt>
      <trkpt lat="39.32248333" lon="-8.56738167">
        <ele>10.0</ele>
        <time>2019-05-17T10:51:13.157Z</time>
      </trkpt>
      <trkpt lat="39.32248333" lon="-8.56738167">
        <ele>10.0</ele>
        <time>2019-05-17T10:51:14.182Z</time>
      </trkpt>
      <trkpt lat="39.32251" lon="-8.56730333">
        <ele>10.0</ele>
        <time>2019-05-17T10:51:15.176Z</time>
      </trkpt>
      <trkpt lat="39.32251" lon="-8.56730333">
        <ele>10.0</ele>
        <time>2019-05-17T10:51:16.155Z</time>
      </trkpt>
      <trkpt lat="39.32253667" lon="-8.56722667">
        <ele>9.0</ele>
        <time>2019-05-17T10:51:17.185Z</time>
      </trkpt>
      <trkpt lat="39.32253667" lon="-8.56722667">
        <ele>9.0</ele>
        <time>2019-05-17T10:51:18.178Z</time>
      </trkpt>
      <trkpt lat="39.32256167" lon="-8.56714833">
        <ele>9.0</ele>
        <time>2019-05-17T10:51:19.171Z</time>
      </trkpt>
      <trkpt lat="39.32256167" lon="-8.56714833">
        <ele>9.0</ele>
        <time>2019-05-17T10:51:20.162Z</time>
      </trkpt>
      <trkpt lat="39.322585" lon="-8.56707">
        <ele>9.0</ele>
        <time>2019-05-17T10:51:21.151Z</time>
      </trkpt>
      <trkpt lat="39.322585" lon="-8.56707">
        <ele>9.0</ele>
        <time>2019-05-17T10:51:22.171Z</time>
      </trkpt>
      <trkpt lat="39.32260833" lon="-8.56699">
        <ele>9.0</ele>
        <time>2019-05-17T10:51:23.184Z</time>
      </trkpt>
      <trkpt lat="39.32260833" lon="-8.56699">
        <ele>9.0</ele>
        <time>2019-05-17T10:51:24.154Z</time>
      </trkpt>
      <trkpt lat="39.32263333" lon="-8.56690667">
        <ele>9.0</ele>
        <time>2019-05-17T10:51:25.172Z</time>
      </trkpt>
      <trkpt lat="39.32263333" lon="-8.56690667">
        <ele>9.0</ele>
        <time>2019-05-17T10:51:26.182Z</time>
      </trkpt>
      <trkpt lat="39.32266167" lon="-8.566825">
        <ele>8.0</ele>
        <time>2019-05-17T10:51:27.162Z</time>
      </trkpt>
      <trkpt lat="39.32266167" lon="-8.566825">
        <ele>8.0</ele>
        <time>2019-05-17T10:51:28.173Z</time>
      </trkpt>
      <trkpt lat="39.32269167" lon="-8.56674333">
        <ele>8.0</ele>
        <time>2019-05-17T10:51:29.186Z</time>
      </trkpt>
      <trkpt lat="39.32269167" lon="-8.56674333">
        <ele>8.0</ele>
        <time>2019-05-17T10:51:30.189Z</time>
      </trkpt>
      <trkpt lat="39.322725" lon="-8.56666333">
        <ele>8.0</ele>
        <time>2019-05-17T10:51:31.166Z</time>
      </trkpt>
      <trkpt lat="39.322725" lon="-8.56666333">
        <ele>8.0</ele>
        <time>2019-05-17T10:51:32.181Z</time>
      </trkpt>
      <trkpt lat="39.32275667" lon="-8.56658167">
        <ele>8.0</ele>
        <time>2019-05-17T10:51:33.158Z</time>
      </trkpt>
      <trkpt lat="39.32275667" lon="-8.56658167">
        <ele>8.0</ele>
        <time>2019-05-17T10:51:34.161Z</time>
      </trkpt>
      <trkpt lat="39.32278667" lon="-8.56650167">
        <ele>8.0</ele>
        <time>2019-05-17T10:51:35.165Z</time>
      </trkpt>
      <trkpt lat="39.32278667" lon="-8.56650167">
        <ele>8.0</ele>
        <time>2019-05-17T10:51:36.182Z</time>
      </trkpt>
      <trkpt lat="39.32281833" lon="-8.56642">
        <ele>8.0</ele>
        <time>2019-05-17T10:51:37.160Z</time>
      </trkpt>
      <trkpt lat="39.32281833" lon="-8.56642">
        <ele>8.0</ele>
        <time>2019-05-17T10:51:38.175Z</time>
      </trkpt>
      <trkpt lat="39.32284833" lon="-8.56633833">
        <ele>8.0</ele>
        <time>2019-05-17T10:51:39.173Z</time>
      </trkpt>
      <trkpt lat="39.32284833" lon="-8.56633833">
        <ele>8.0</ele>
        <time>2019-05-17T10:51:40.184Z</time>
      </trkpt>
      <trkpt lat="39.322875" lon="-8.566255">
        <ele>8.0</ele>
        <time>2019-05-17T10:51:41.160Z</time>
      </trkpt>
      <trkpt lat="39.322875" lon="-8.566255">
        <ele>8.0</ele>
        <time>2019-05-17T10:51:42.154Z</time>
      </trkpt>
      <trkpt lat="39.3229" lon="-8.56617333">
        <ele>8.0</ele>
        <time>2019-05-17T10:51:43.172Z</time>
      </trkpt>
      <trkpt lat="39.3229" lon="-8.56617333">
        <ele>8.0</ele>
        <time>2019-05-17T10:51:44.182Z</time>
      </trkpt>
      <trkpt lat="39.322925" lon="-8.56609333">
        <ele>7.0</ele>
        <time>2019-05-17T10:51:45.183Z</time>
      </trkpt>
      <trkpt lat="39.322925" lon="-8.56609333">
        <ele>7.0</ele>
        <time>2019-05-17T10:51:46.172Z</time>
      </trkpt>
      <trkpt lat="39.32295333" lon="-8.56601167">
        <ele>7.0</ele>
        <time>2019-05-17T10:51:47.186Z</time>
      </trkpt>
      <trkpt lat="39.32295333" lon="-8.56601167">
        <ele>7.0</ele>
        <time>2019-05-17T10:51:48.168Z</time>
      </trkpt>
      <trkpt lat="39.32298333" lon="-8.56593167">
        <ele>7.0</ele>
        <time>2019-05-17T10:51:49.186Z</time>
      </trkpt>
      <trkpt lat="39.32298333" lon="-8.56593167">
        <ele>7.0</ele>
        <time>2019-05-17T10:51:50.156Z</time>
      </trkpt>
      <trkpt lat="39.32301833" lon="-8.56585167">
        <ele>7.0</ele>
        <time>2019-05-17T10:51:51.171Z</time>
      </trkpt>
      <trkpt lat="39.32301833" lon="-8.56585167">
        <ele>7.0</ele>
        <time>2019-05-17T10:51:52.186Z</time>
      </trkpt>
      <trkpt lat="39.32304333" lon="-8.56576667">
        <ele>7.0</ele>
        <time>2019-05-17T10:51:53.174Z</time>
      </trkpt>
      <trkpt lat="39.32304333" lon="-8.56576667">
        <ele>7.0</ele>
        <time>2019-05-17T10:51:54.174Z</time>
      </trkpt>
      <trkpt lat="39.32306667" lon="-8.565685">
        <ele>7.0</ele>
        <time>2019-05-17T10:51:55.158Z</time>
      </trkpt>
      <trkpt lat="39.32306667" lon="-8.565685">
        <ele>7.0</ele>
        <time>2019-05-17T10:51:56.163Z</time>
      </trkpt>
      <trkpt lat="39.32309333" lon="-8.56560667">
        <ele>7.0</ele>
        <time>2019-05-17T10:51:57.164Z</time>
      </trkpt>
      <trkpt lat="39.32309333" lon="-8.56560667">
        <ele>7.0</ele>
        <time>2019-05-17T10:51:58.175Z</time>
      </trkpt>
      <trkpt lat="39.32312" lon="-8.56553">
        <ele>7.0</ele>
        <time>2019-05-17T10:51:59.151Z</time>
      </trkpt>
      <trkpt lat="39.32313333" lon="-8.56549167">
        <ele>7.0</ele>
        <time>2019-05-17T10:52:00.166Z</time>
      </trkpt>
      <trkpt lat="39.32313333" lon="-8.56549167">
        <ele>7.0</ele>
        <time>2019-05-17T10:52:01.157Z</time>
      </trkpt>
      <trkpt lat="39.32315833" lon="-8.56541667">
        <ele>7.0</ele>
        <time>2019-05-17T10:52:02.178Z</time>
      </trkpt>
      <trkpt lat="39.32317167" lon="-8.56537833">
        <ele>7.0</ele>
        <time>2019-05-17T10:52:03.158Z</time>
      </trkpt>
      <trkpt lat="39.32317167" lon="-8.56537833">
        <ele>7.0</ele>
        <time>2019-05-17T10:52:04.159Z</time>
      </trkpt>
      <trkpt lat="39.32319667" lon="-8.56530167">
        <ele>7.0</ele>
        <time>2019-05-17T10:52:05.180Z</time>
      </trkpt>
      <trkpt lat="39.32319667" lon="-8.56530167">
        <ele>7.0</ele>
        <time>2019-05-17T10:52:06.186Z</time>
      </trkpt>
      <trkpt lat="39.32321833" lon="-8.565225">
        <ele>6.0</ele>
        <time>2019-05-17T10:52:07.160Z</time>
      </trkpt>
      <trkpt lat="39.32321833" lon="-8.565225">
        <ele>6.0</ele>
        <time>2019-05-17T10:52:08.166Z</time>
      </trkpt>
      <trkpt lat="39.32323667" lon="-8.565145">
        <ele>6.0</ele>
        <time>2019-05-17T10:52:09.150Z</time>
      </trkpt>
      <trkpt lat="39.32323667" lon="-8.565145">
        <ele>6.0</ele>
        <time>2019-05-17T10:52:10.187Z</time>
      </trkpt>
      <trkpt lat="39.32324833" lon="-8.56505833">
        <ele>6.0</ele>
        <time>2019-05-17T10:52:11.160Z</time>
      </trkpt>
      <trkpt lat="39.32324833" lon="-8.56505833">
        <ele>6.0</ele>
        <time>2019-05-17T10:52:12.183Z</time>
      </trkpt>
      <trkpt lat="39.32326" lon="-8.56497167">
        <ele>6.0</ele>
        <time>2019-05-17T10:52:13.152Z</time>
      </trkpt>
      <trkpt lat="39.32326" lon="-8.56497167">
        <ele>6.0</ele>
        <time>2019-05-17T10:52:14.163Z</time>
      </trkpt>
      <trkpt lat="39.32326333" lon="-8.56488">
        <ele>6.0</ele>
        <time>2019-05-17T10:52:15.175Z</time>
      </trkpt>
      <trkpt lat="39.32326333" lon="-8.56488">
        <ele>6.0</ele>
        <time>2019-05-17T10:52:16.184Z</time>
      </trkpt>
      <trkpt lat="39.32327" lon="-8.56479333">
        <ele>6.0</ele>
        <time>2019-05-17T10:52:17.153Z</time>
      </trkpt>
      <trkpt lat="39.32327" lon="-8.56479333">
        <ele>6.0</ele>
        <time>2019-05-17T10:52:18.164Z</time>
      </trkpt>
      <trkpt lat="39.323275" lon="-8.56470833">
        <ele>6.0</ele>
        <time>2019-05-17T10:52:19.183Z</time>
      </trkpt>
      <trkpt lat="39.323275" lon="-8.56470833">
        <ele>6.0</ele>
        <time>2019-05-17T10:52:20.157Z</time>
      </trkpt>
      <trkpt lat="39.32327833" lon="-8.56462333">
        <ele>6.0</ele>
        <time>2019-05-17T10:52:21.166Z</time>
      </trkpt>
      <trkpt lat="39.32327833" lon="-8.56462333">
        <ele>6.0</ele>
        <time>2019-05-17T10:52:22.176Z</time>
      </trkpt>
      <trkpt lat="39.32328333" lon="-8.56453833">
        <ele>6.0</ele>
        <time>2019-05-17T10:52:23.155Z</time>
      </trkpt>
      <trkpt lat="39.32328333" lon="-8.56453833">
        <ele>6.0</ele>
        <time>2019-05-17T10:52:24.173Z</time>
      </trkpt>
      <trkpt lat="39.32329167" lon="-8.56445167">
        <ele>6.0</ele>
        <time>2019-05-17T10:52:25.185Z</time>
      </trkpt>
      <trkpt lat="39.32329167" lon="-8.56445167">
        <ele>6.0</ele>
        <time>2019-05-17T10:52:26.157Z</time>
      </trkpt>
      <trkpt lat="39.323295" lon="-8.564365">
        <ele>6.0</ele>
        <time>2019-05-17T10:52:27.165Z</time>
      </trkpt>
      <trkpt lat="39.323295" lon="-8.564365">
        <ele>6.0</ele>
        <time>2019-05-17T10:52:28.185Z</time>
      </trkpt>
      <trkpt lat="39.323295" lon="-8.564285">
        <ele>6.0</ele>
        <time>2019-05-17T10:52:29.165Z</time>
      </trkpt>
      <trkpt lat="39.323295" lon="-8.564285">
        <ele>6.0</ele>
        <time>2019-05-17T10:52:30.184Z</time>
      </trkpt>
      <trkpt lat="39.32328833" lon="-8.56421333">
        <ele>6.0</ele>
        <time>2019-05-17T10:52:31.165Z</time>
      </trkpt>
      <trkpt lat="39.32328833" lon="-8.56421333">
        <ele>6.0</ele>
        <time>2019-05-17T10:52:32.153Z</time>
      </trkpt>
      <trkpt lat="39.32327167" lon="-8.56414667">
        <ele>7.0</ele>
        <time>2019-05-17T10:52:33.166Z</time>
      </trkpt>
      <trkpt lat="39.32327167" lon="-8.56414667">
        <ele>7.0</ele>
        <time>2019-05-17T10:52:34.186Z</time>
      </trkpt>
      <trkpt lat="39.32325833" lon="-8.56407667">
        <ele>7.0</ele>
        <time>2019-05-17T10:52:35.161Z</time>
      </trkpt>
      <trkpt lat="39.32325833" lon="-8.56407667">
        <ele>7.0</ele>
        <time>2019-05-17T10:52:36.170Z</time>
      </trkpt>
      <trkpt lat="39.32324167" lon="-8.56400833">
        <ele>7.0</ele>
        <time>2019-05-17T10:52:37.183Z</time>
      </trkpt>
      <trkpt lat="39.32323833" lon="-8.56397">
        <ele>7.0</ele>
        <time>2019-05-17T10:52:38.159Z</time>
      </trkpt>
      <trkpt lat="39.32323833" lon="-8.56397">
        <ele>7.0</ele>
        <time>2019-05-17T10:52:39.172Z</time>
      </trkpt>
      <trkpt lat="39.32323667" lon="-8.56389667">
        <ele>8.0</ele>
        <time>2019-05-17T10:52:40.184Z</time>
      </trkpt>
      <trkpt lat="39.32323333" lon="-8.56385833">
        <ele>8.0</ele>
        <time>2019-05-17T10:52:41.182Z</time>
      </trkpt>
      <trkpt lat="39.32323333" lon="-8.56385833">
        <ele>8.0</ele>
        <time>2019-05-17T10:52:42.150Z</time>
      </trkpt>
      <trkpt lat="39.323225" lon="-8.56378">
        <ele>8.0</ele>
        <time>2019-05-17T10:52:43.161Z</time>
      </trkpt>
      <trkpt lat="39.323225" lon="-8.56378">
        <ele>8.0</ele>
        <time>2019-05-17T10:52:44.181Z</time>
      </trkpt>
      <trkpt lat="39.323215" lon="-8.56370333">
        <ele>8.0</ele>
        <time>2019-05-17T10:52:45.152Z</time>
      </trkpt>
      <trkpt lat="39.323215" lon="-8.56370333">
        <ele>8.0</ele>
        <time>2019-05-17T10:52:46.156Z</time>
      </trkpt>
      <trkpt lat="39.323205" lon="-8.56362667">
        <ele>8.0</ele>
        <time>2019-05-17T10:52:47.166Z</time>
      </trkpt>
      <trkpt lat="39.323205" lon="-8.56362667">
        <ele>8.0</ele>
        <time>2019-05-17T10:52:48.175Z</time>
      </trkpt>
      <trkpt lat="39.323195" lon="-8.56355667">
        <ele>8.0</ele>
        <time>2019-05-17T10:52:49.187Z</time>
      </trkpt>
      <trkpt lat="39.323195" lon="-8.56355667">
        <ele>8.0</ele>
        <time>2019-05-17T10:52:50.162Z</time>
      </trkpt>
      <trkpt lat="39.32317833" lon="-8.56348833">
        <ele>8.0</ele>
        <time>2019-05-17T10:52:51.204Z</time>
      </trkpt>
      <trkpt lat="39.32317833" lon="-8.56348833">
        <ele>8.0</ele>
        <time>2019-05-17T10:52:52.172Z</time>
      </trkpt>
      <trkpt lat="39.32315333" lon="-8.56342167">
        <ele>8.0</ele>
        <time>2019-05-17T10:52:53.188Z</time>
      </trkpt>
      <trkpt lat="39.32315333" lon="-8.56342167">
        <ele>8.0</ele>
        <time>2019-05-17T10:52:54.158Z</time>
      </trkpt>
      <trkpt lat="39.32312333" lon="-8.563355">
        <ele>8.0</ele>
        <time>2019-05-17T10:52:55.174Z</time>
      </trkpt>
      <trkpt lat="39.32312333" lon="-8.563355">
        <ele>8.0</ele>
        <time>2019-05-17T10:52:56.170Z</time>
      </trkpt>
      <trkpt lat="39.32308333" lon="-8.56329">
        <ele>9.0</ele>
        <time>2019-05-17T10:52:57.164Z</time>
      </trkpt>
      <trkpt lat="39.32308333" lon="-8.56329">
        <ele>9.0</ele>
        <time>2019-05-17T10:52:58.176Z</time>
      </trkpt>
      <trkpt lat="39.32303833" lon="-8.563225">
        <ele>9.0</ele>
        <time>2019-05-17T10:52:59.189Z</time>
      </trkpt>
      <trkpt lat="39.32303833" lon="-8.563225">
        <ele>9.0</ele>
        <time>2019-05-17T10:53:00.162Z</time>
      </trkpt>
      <trkpt lat="39.322995" lon="-8.56315833">
        <ele>9.0</ele>
        <time>2019-05-17T10:53:01.188Z</time>
      </trkpt>
      <trkpt lat="39.322995" lon="-8.56315833">
        <ele>9.0</ele>
        <time>2019-05-17T10:53:02.172Z</time>
      </trkpt>
      <trkpt lat="39.32295167" lon="-8.56309333">
        <ele>9.0</ele>
        <time>2019-05-17T10:53:03.189Z</time>
      </trkpt>
      <trkpt lat="39.32295167" lon="-8.56309333">
        <ele>9.0</ele>
        <time>2019-05-17T10:53:04.156Z</time>
      </trkpt>
      <trkpt lat="39.32291167" lon="-8.56303">
        <ele>9.0</ele>
        <time>2019-05-17T10:53:05.167Z</time>
      </trkpt>
      <trkpt lat="39.32291167" lon="-8.56303">
        <ele>9.0</ele>
        <time>2019-05-17T10:53:06.177Z</time>
      </trkpt>
      <trkpt lat="39.32287167" lon="-8.56296333">
        <ele>9.0</ele>
        <time>2019-05-17T10:53:07.162Z</time>
      </trkpt>
      <trkpt lat="39.32287167" lon="-8.56296333">
        <ele>9.0</ele>
        <time>2019-05-17T10:53:08.154Z</time>
      </trkpt>
      <trkpt lat="39.322835" lon="-8.56288833">
        <ele>9.0</ele>
        <time>2019-05-17T10:53:09.178Z</time>
      </trkpt>
      <trkpt lat="39.32281667" lon="-8.56285">
        <ele>9.0</ele>
        <time>2019-05-17T10:53:10.186Z</time>
      </trkpt>
      <trkpt lat="39.3228" lon="-8.56281333">
        <ele>9.0</ele>
        <time>2019-05-17T10:53:11.167Z</time>
      </trkpt>
      <trkpt lat="39.3228" lon="-8.56281333">
        <ele>9.0</ele>
        <time>2019-05-17T10:53:12.176Z</time>
      </trkpt>
      <trkpt lat="39.322765" lon="-8.56273833">
        <ele>9.0</ele>
        <time>2019-05-17T10:53:13.157Z</time>
      </trkpt>
      <trkpt lat="39.322765" lon="-8.56273833">
        <ele>9.0</ele>
        <time>2019-05-17T10:53:14.170Z</time>
      </trkpt>
      <trkpt lat="39.32273333" lon="-8.56266167">
        <ele>9.0</ele>
        <time>2019-05-17T10:53:15.184Z</time>
      </trkpt>
      <trkpt lat="39.32273333" lon="-8.56266167">
        <ele>9.0</ele>
        <time>2019-05-17T10:53:16.160Z</time>
      </trkpt>
      <trkpt lat="39.32270333" lon="-8.56258667">
        <ele>9.0</ele>
        <time>2019-05-17T10:53:17.176Z</time>
      </trkpt>
      <trkpt lat="39.32270333" lon="-8.56258667">
        <ele>9.0</ele>
        <time>2019-05-17T10:53:18.169Z</time>
      </trkpt>
      <trkpt lat="39.32267667" lon="-8.56251">
        <ele>9.0</ele>
        <time>2019-05-17T10:53:19.187Z</time>
      </trkpt>
      <trkpt lat="39.32267667" lon="-8.56251">
        <ele>9.0</ele>
        <time>2019-05-17T10:53:20.163Z</time>
      </trkpt>
      <trkpt lat="39.32265667" lon="-8.56243333">
        <ele>9.0</ele>
        <time>2019-05-17T10:53:21.177Z</time>
      </trkpt>
      <trkpt lat="39.32265667" lon="-8.56243333">
        <ele>9.0</ele>
        <time>2019-05-17T10:53:22.187Z</time>
      </trkpt>
      <trkpt lat="39.32265333" lon="-8.56236667">
        <ele>9.0</ele>
        <time>2019-05-17T10:53:23.184Z</time>
      </trkpt>
      <trkpt lat="39.32265333" lon="-8.56236667">
        <ele>9.0</ele>
        <time>2019-05-17T10:53:24.155Z</time>
      </trkpt>
      <trkpt lat="39.32265" lon="-8.56229">
        <ele>10.0</ele>
        <time>2019-05-17T10:53:25.169Z</time>
      </trkpt>
      <trkpt lat="39.32265167" lon="-8.56224833">
        <ele>9.0</ele>
        <time>2019-05-17T10:53:26.164Z</time>
      </trkpt>
      <trkpt lat="39.32265167" lon="-8.56224833">
        <ele>9.0</ele>
        <time>2019-05-17T10:53:27.185Z</time>
      </trkpt>
      <trkpt lat="39.322665" lon="-8.56216167">
        <ele>9.0</ele>
        <time>2019-05-17T10:53:28.182Z</time>
      </trkpt>
      <trkpt lat="39.32267667" lon="-8.56211667">
        <ele>9.0</ele>
        <time>2019-05-17T10:53:29.156Z</time>
      </trkpt>
      <trkpt lat="39.32267667" lon="-8.56211667">
        <ele>9.0</ele>
        <time>2019-05-17T10:53:30.173Z</time>
      </trkpt>
      <trkpt lat="39.32270333" lon="-8.56203">
        <ele>9.0</ele>
        <time>2019-05-17T10:53:31.190Z</time>
      </trkpt>
      <trkpt lat="39.32270333" lon="-8.56203">
        <ele>9.0</ele>
        <time>2019-05-17T10:53:32.158Z</time>
      </trkpt>
      <trkpt lat="39.32272833" lon="-8.56194833">
        <ele>9.0</ele>
        <time>2019-05-17T10:53:33.176Z</time>
      </trkpt>
      <trkpt lat="39.32272833" lon="-8.56194833">
        <ele>9.0</ele>
        <time>2019-05-17T10:53:34.162Z</time>
      </trkpt>
      <trkpt lat="39.32275833" lon="-8.561865">
        <ele>9.0</ele>
        <time>2019-05-17T10:53:35.184Z</time>
      </trkpt>
      <trkpt lat="39.32275833" lon="-8.561865">
        <ele>9.0</ele>
        <time>2019-05-17T10:53:36.151Z</time>
      </trkpt>
      <trkpt lat="39.32278667" lon="-8.56178667">
        <ele>9.0</ele>
        <time>2019-05-17T10:53:37.155Z</time>
      </trkpt>
      <trkpt lat="39.32280167" lon="-8.561745">
        <ele>9.0</ele>
        <time>2019-05-17T10:53:38.151Z</time>
      </trkpt>
      <trkpt lat="39.32280167" lon="-8.561745">
        <ele>9.0</ele>
        <time>2019-05-17T10:53:39.166Z</time>
      </trkpt>
      <trkpt lat="39.32283" lon="-8.561665">
        <ele>10.0</ele>
        <time>2019-05-17T10:53:40.180Z</time>
      </trkpt>
      <trkpt lat="39.32284333" lon="-8.56162833">
        <ele>10.0</ele>
        <time>2019-05-17T10:53:41.186Z</time>
      </trkpt>
      <trkpt lat="39.32284333" lon="-8.56162833">
        <ele>10.0</ele>
        <time>2019-05-17T10:53:42.152Z</time>
      </trkpt>
      <trkpt lat="39.322865" lon="-8.56154833">
        <ele>10.0</ele>
        <time>2019-05-17T10:53:43.162Z</time>
      </trkpt>
      <trkpt lat="39.322865" lon="-8.56154833">
        <ele>10.0</ele>
        <time>2019-05-17T10:53:44.172Z</time>
      </trkpt>
      <trkpt lat="39.32288667" lon="-8.56146667">
        <ele>10.0</ele>
        <time>2019-05-17T10:53:45.186Z</time>
      </trkpt>
      <trkpt lat="39.32288667" lon="-8.56146667">
        <ele>10.0</ele>
        <time>2019-05-17T10:53:46.151Z</time>
      </trkpt>
      <trkpt lat="39.32291" lon="-8.56138167">
        <ele>10.0</ele>
        <time>2019-05-17T10:53:47.166Z</time>
      </trkpt>
      <trkpt lat="39.32291" lon="-8.56138167">
        <ele>10.0</ele>
        <time>2019-05-17T10:53:48.176Z</time>
      </trkpt>
      <trkpt lat="39.32293167" lon="-8.56129833">
        <ele>10.0</ele>
        <time>2019-05-17T10:53:49.152Z</time>
      </trkpt>
      <trkpt lat="39.32293167" lon="-8.56129833">
        <ele>10.0</ele>
        <time>2019-05-17T10:53:50.161Z</time>
      </trkpt>
      <trkpt lat="39.32295" lon="-8.56121">
        <ele>9.0</ele>
        <time>2019-05-17T10:53:51.181Z</time>
      </trkpt>
      <trkpt lat="39.32295" lon="-8.56121">
        <ele>9.0</ele>
        <time>2019-05-17T10:53:52.160Z</time>
      </trkpt>
      <trkpt lat="39.32297" lon="-8.56112167">
        <ele>9.0</ele>
        <time>2019-05-17T10:53:53.176Z</time>
      </trkpt>
      <trkpt lat="39.32297" lon="-8.56112167">
        <ele>9.0</ele>
        <time>2019-05-17T10:53:54.152Z</time>
      </trkpt>
      <trkpt lat="39.32299" lon="-8.56104167">
        <ele>10.0</ele>
        <time>2019-05-17T10:53:55.165Z</time>
      </trkpt>
      <trkpt lat="39.32299" lon="-8.56104167">
        <ele>10.0</ele>
        <time>2019-05-17T10:53:56.153Z</time>
      </trkpt>
      <trkpt lat="39.32301167" lon="-8.56097">
        <ele>10.0</ele>
        <time>2019-05-17T10:53:57.171Z</time>
      </trkpt>
      <trkpt lat="39.32301167" lon="-8.56097">
        <ele>10.0</ele>
        <time>2019-05-17T10:53:58.183Z</time>
      </trkpt>
      <trkpt lat="39.32302833" lon="-8.56090333">
        <ele>10.0</ele>
        <time>2019-05-17T10:53:59.151Z</time>
      </trkpt>
      <trkpt lat="39.32302833" lon="-8.56090333">
        <ele>10.0</ele>
        <time>2019-05-17T10:54:00.164Z</time>
      </trkpt>
      <trkpt lat="39.32304333" lon="-8.56084">
        <ele>10.0</ele>
        <time>2019-05-17T10:54:01.176Z</time>
      </trkpt>
      <trkpt lat="39.32305167" lon="-8.56080667">
        <ele>10.0</ele>
        <time>2019-05-17T10:54:02.170Z</time>
      </trkpt>
      <trkpt lat="39.32305167" lon="-8.56080667">
        <ele>10.0</ele>
        <time>2019-05-17T10:54:03.177Z</time>
      </trkpt>
      <trkpt lat="39.32307" lon="-8.56073167">
        <ele>10.0</ele>
        <time>2019-05-17T10:54:04.169Z</time>
      </trkpt>
      <trkpt lat="39.32307667" lon="-8.56069167">
        <ele>10.0</ele>
        <time>2019-05-17T10:54:05.188Z</time>
      </trkpt>
      <trkpt lat="39.32307667" lon="-8.56069167">
        <ele>10.0</ele>
        <time>2019-05-17T10:54:06.170Z</time>
      </trkpt>
      <trkpt lat="39.32308667" lon="-8.56061667">
        <ele>10.0</ele>
        <time>2019-05-17T10:54:07.186Z</time>
      </trkpt>
      <trkpt lat="39.32308667" lon="-8.56061667">
        <ele>10.0</ele>
        <time>2019-05-17T10:54:08.163Z</time>
      </trkpt>
      <trkpt lat="39.3231" lon="-8.560545">
        <ele>10.0</ele>
        <time>2019-05-17T10:54:09.189Z</time>
      </trkpt>
      <trkpt lat="39.3231" lon="-8.560545">
        <ele>10.0</ele>
        <time>2019-05-17T10:54:10.185Z</time>
      </trkpt>
      <trkpt lat="39.32311167" lon="-8.56046333">
        <ele>10.0</ele>
        <time>2019-05-17T10:54:11.157Z</time>
      </trkpt>
      <trkpt lat="39.32311167" lon="-8.56046333">
        <ele>10.0</ele>
        <time>2019-05-17T10:54:12.170Z</time>
      </trkpt>
      <trkpt lat="39.32312333" lon="-8.560385">
        <ele>10.0</ele>
        <time>2019-05-17T10:54:13.188Z</time>
      </trkpt>
      <trkpt lat="39.32312833" lon="-8.56034667">
        <ele>10.0</ele>
        <time>2019-05-17T10:54:14.154Z</time>
      </trkpt>
      <trkpt lat="39.32312833" lon="-8.56034667">
        <ele>10.0</ele>
        <time>2019-05-17T10:54:15.167Z</time>
      </trkpt>
      <trkpt lat="39.32313833" lon="-8.560265">
        <ele>10.0</ele>
        <time>2019-05-17T10:54:16.181Z</time>
      </trkpt>
      <trkpt lat="39.32314" lon="-8.560225">
        <ele>10.0</ele>
        <time>2019-05-17T10:54:17.171Z</time>
      </trkpt>
      <trkpt lat="39.32314" lon="-8.560225">
        <ele>10.0</ele>
        <time>2019-05-17T10:54:18.183Z</time>
      </trkpt>
      <trkpt lat="39.32315333" lon="-8.56015">
        <ele>10.0</ele>
        <time>2019-05-17T10:54:19.153Z</time>
      </trkpt>
      <trkpt lat="39.32315333" lon="-8.56015">
        <ele>10.0</ele>
        <time>2019-05-17T10:54:20.164Z</time>
      </trkpt>
      <trkpt lat="39.32316333" lon="-8.56007333">
        <ele>10.0</ele>
        <time>2019-05-17T10:54:21.187Z</time>
      </trkpt>
      <trkpt lat="39.32316333" lon="-8.56007333">
        <ele>10.0</ele>
        <time>2019-05-17T10:54:22.162Z</time>
      </trkpt>
      <trkpt lat="39.32317167" lon="-8.55999333">
        <ele>10.0</ele>
        <time>2019-05-17T10:54:23.186Z</time>
      </trkpt>
      <trkpt lat="39.32317167" lon="-8.55999333">
        <ele>10.0</ele>
        <time>2019-05-17T10:54:24.187Z</time>
      </trkpt>
      <trkpt lat="39.323175" lon="-8.55990667">
        <ele>10.0</ele>
        <time>2019-05-17T10:54:25.165Z</time>
      </trkpt>
      <trkpt lat="39.323175" lon="-8.55990667">
        <ele>10.0</ele>
        <time>2019-05-17T10:54:26.174Z</time>
      </trkpt>
      <trkpt lat="39.323175" lon="-8.55981667">
        <ele>10.0</ele>
        <time>2019-05-17T10:54:27.188Z</time>
      </trkpt>
      <trkpt lat="39.323175" lon="-8.55981667">
        <ele>10.0</ele>
        <time>2019-05-17T10:54:28.185Z</time>
      </trkpt>
      <trkpt lat="39.32318333" lon="-8.55973">
        <ele>10.0</ele>
        <time>2019-05-17T10:54:29.166Z</time>
      </trkpt>
      <trkpt lat="39.32318333" lon="-8.55973">
        <ele>10.0</ele>
        <time>2019-05-17T10:54:30.184Z</time>
      </trkpt>
      <trkpt lat="39.32319833" lon="-8.55964167">
        <ele>10.0</ele>
        <time>2019-05-17T10:54:31.159Z</time>
      </trkpt>
      <trkpt lat="39.32319833" lon="-8.55964167">
        <ele>10.0</ele>
        <time>2019-05-17T10:54:32.185Z</time>
      </trkpt>
      <trkpt lat="39.32321833" lon="-8.55954833">
        <ele>10.0</ele>
        <time>2019-05-17T10:54:33.177Z</time>
      </trkpt>
      <trkpt lat="39.32321833" lon="-8.55954833">
        <ele>10.0</ele>
        <time>2019-05-17T10:54:34.150Z</time>
      </trkpt>
      <trkpt lat="39.32324167" lon="-8.55945667">
        <ele>10.0</ele>
        <time>2019-05-17T10:54:35.165Z</time>
      </trkpt>
      <trkpt lat="39.32324167" lon="-8.55945667">
        <ele>10.0</ele>
        <time>2019-05-17T10:54:36.172Z</time>
      </trkpt>
      <trkpt lat="39.32326167" lon="-8.55936833">
        <ele>9.0</ele>
        <time>2019-05-17T10:54:37.159Z</time>
      </trkpt>
      <trkpt lat="39.32326167" lon="-8.55936833">
        <ele>9.0</ele>
        <time>2019-05-17T10:54:38.179Z</time>
      </trkpt>
      <trkpt lat="39.323275" lon="-8.559285">
        <ele>9.0</ele>
        <time>2019-05-17T10:54:39.150Z</time>
      </trkpt>
      <trkpt lat="39.323275" lon="-8.559285">
        <ele>9.0</ele>
        <time>2019-05-17T10:54:40.160Z</time>
      </trkpt>
      <trkpt lat="39.32328833" lon="-8.55920333">
        <ele>9.0</ele>
        <time>2019-05-17T10:54:41.180Z</time>
      </trkpt>
      <trkpt lat="39.32328833" lon="-8.55920333">
        <ele>9.0</ele>
        <time>2019-05-17T10:54:42.159Z</time>
      </trkpt>
      <trkpt lat="39.32330167" lon="-8.55911667">
        <ele>9.0</ele>
        <time>2019-05-17T10:54:43.171Z</time>
      </trkpt>
      <trkpt lat="39.32330167" lon="-8.55911667">
        <ele>9.0</ele>
        <time>2019-05-17T10:54:44.154Z</time>
      </trkpt>
      <trkpt lat="39.323315" lon="-8.55903">
        <ele>9.0</ele>
        <time>2019-05-17T10:54:45.162Z</time>
      </trkpt>
      <trkpt lat="39.323315" lon="-8.55903">
        <ele>9.0</ele>
        <time>2019-05-17T10:54:46.176Z</time>
      </trkpt>
      <trkpt lat="39.32333" lon="-8.558945">
        <ele>9.0</ele>
        <time>2019-05-17T10:54:47.152Z</time>
      </trkpt>
      <trkpt lat="39.32333" lon="-8.558945">
        <ele>9.0</ele>
        <time>2019-05-17T10:54:48.167Z</time>
      </trkpt>
      <trkpt lat="39.32334333" lon="-8.55886167">
        <ele>9.0</ele>
        <time>2019-05-17T10:54:49.182Z</time>
      </trkpt>
      <trkpt lat="39.32334333" lon="-8.55886167">
        <ele>9.0</ele>
        <time>2019-05-17T10:54:50.168Z</time>
      </trkpt>
      <trkpt lat="39.32335333" lon="-8.558785">
        <ele>9.0</ele>
        <time>2019-05-17T10:54:51.181Z</time>
      </trkpt>
      <trkpt lat="39.32335333" lon="-8.558785">
        <ele>9.0</ele>
        <time>2019-05-17T10:54:52.187Z</time>
      </trkpt>
      <trkpt lat="39.32336333" lon="-8.55872167">
        <ele>9.0</ele>
        <time>2019-05-17T10:54:53.154Z</time>
      </trkpt>
      <trkpt lat="39.32336333" lon="-8.55872167">
        <ele>9.0</ele>
        <time>2019-05-17T10:54:54.170Z</time>
      </trkpt>
      <trkpt lat="39.32336833" lon="-8.55865833">
        <ele>9.0</ele>
        <time>2019-05-17T10:54:55.188Z</time>
      </trkpt>
      <trkpt lat="39.32336833" lon="-8.55865833">
        <ele>9.0</ele>
        <time>2019-05-17T10:54:56.159Z</time>
      </trkpt>
      <trkpt lat="39.32337167" lon="-8.55858667">
        <ele>9.0</ele>
        <time>2019-05-17T10:54:57.170Z</time>
      </trkpt>
      <trkpt lat="39.32337167" lon="-8.55858667">
        <ele>9.0</ele>
        <time>2019-05-17T10:54:58.180Z</time>
      </trkpt>
      <trkpt lat="39.32337667" lon="-8.55851">
        <ele>9.0</ele>
        <time>2019-05-17T10:54:59.160Z</time>
      </trkpt>
      <trkpt lat="39.32337667" lon="-8.55851">
        <ele>9.0</ele>
        <time>2019-05-17T10:55:00.187Z</time>
      </trkpt>
      <trkpt lat="39.32338333" lon="-8.55843">
        <ele>10.0</ele>
        <time>2019-05-17T10:55:01.163Z</time>
      </trkpt>
      <trkpt lat="39.32338333" lon="-8.55843">
        <ele>10.0</ele>
        <time>2019-05-17T10:55:02.189Z</time>
      </trkpt>
      <trkpt lat="39.323385" lon="-8.55835">
        <ele>10.0</ele>
        <time>2019-05-17T10:55:03.159Z</time>
      </trkpt>
      <trkpt lat="39.323385" lon="-8.55835">
        <ele>10.0</ele>
        <time>2019-05-17T10:55:04.179Z</time>
      </trkpt>
      <trkpt lat="39.323395" lon="-8.55827167">
        <ele>10.0</ele>
        <time>2019-05-17T10:55:05.172Z</time>
      </trkpt>
      <trkpt lat="39.323395" lon="-8.55827167">
        <ele>10.0</ele>
        <time>2019-05-17T10:55:06.182Z</time>
      </trkpt>
      <trkpt lat="39.32340167" lon="-8.55820167">
        <ele>10.0</ele>
        <time>2019-05-17T10:55:07.167Z</time>
      </trkpt>
      <trkpt lat="39.32340167" lon="-8.55820167">
        <ele>10.0</ele>
        <time>2019-05-17T10:55:08.187Z</time>
      </trkpt>
      <trkpt lat="39.32340667" lon="-8.558125">
        <ele>10.0</ele>
        <time>2019-05-17T10:55:09.150Z</time>
      </trkpt>
      <trkpt lat="39.32340667" lon="-8.558125">
        <ele>10.0</ele>
        <time>2019-05-17T10:55:10.160Z</time>
      </trkpt>
      <trkpt lat="39.323415" lon="-8.558045">
        <ele>11.0</ele>
        <time>2019-05-17T10:55:11.177Z</time>
      </trkpt>
      <trkpt lat="39.323415" lon="-8.558045">
        <ele>11.0</ele>
        <time>2019-05-17T10:55:12.185Z</time>
      </trkpt>
      <trkpt lat="39.32342167" lon="-8.55796167">
        <ele>11.0</ele>
        <time>2019-05-17T10:55:13.213Z</time>
      </trkpt>
      <trkpt lat="39.32342167" lon="-8.55796167">
        <ele>11.0</ele>
        <time>2019-05-17T10:55:14.157Z</time>
      </trkpt>
      <trkpt lat="39.32342667" lon="-8.55788">
        <ele>11.0</ele>
        <time>2019-05-17T10:55:15.171Z</time>
      </trkpt>
      <trkpt lat="39.32342667" lon="-8.55788">
        <ele>11.0</ele>
        <time>2019-05-17T10:55:16.187Z</time>
      </trkpt>
      <trkpt lat="39.32343" lon="-8.557795">
        <ele>10.0</ele>
        <time>2019-05-17T10:55:17.164Z</time>
      </trkpt>
      <trkpt lat="39.32343" lon="-8.557795">
        <ele>10.0</ele>
        <time>2019-05-17T10:55:18.153Z</time>
      </trkpt>
      <trkpt lat="39.32343" lon="-8.55770333">
        <ele>11.0</ele>
        <time>2019-05-17T10:55:19.164Z</time>
      </trkpt>
      <trkpt lat="39.32343" lon="-8.55770333">
        <ele>11.0</ele>
        <time>2019-05-17T10:55:20.178Z</time>
      </trkpt>
      <trkpt lat="39.32343333" lon="-8.55761333">
        <ele>11.0</ele>
        <time>2019-05-17T10:55:21.188Z</time>
      </trkpt>
      <trkpt lat="39.32343333" lon="-8.55761333">
        <ele>11.0</ele>
        <time>2019-05-17T10:55:22.164Z</time>
      </trkpt>
      <trkpt lat="39.32342" lon="-8.557515">
        <ele>11.0</ele>
        <time>2019-05-17T10:55:23.153Z</time>
      </trkpt>
      <trkpt lat="39.32342" lon="-8.557515">
        <ele>11.0</ele>
        <time>2019-05-17T10:55:24.164Z</time>
      </trkpt>
      <trkpt lat="39.32342167" lon="-8.55742833">
        <ele>12.0</ele>
        <time>2019-05-17T10:55:25.185Z</time>
      </trkpt>
      <trkpt lat="39.32342167" lon="-8.55742833">
        <ele>12.0</ele>
        <time>2019-05-17T10:55:26.152Z</time>
      </trkpt>
      <trkpt lat="39.323445" lon="-8.55735333">
        <ele>12.0</ele>
        <time>2019-05-17T10:55:27.161Z</time>
      </trkpt>
      <trkpt lat="39.323445" lon="-8.55735333">
        <ele>12.0</ele>
        <time>2019-05-17T10:55:28.173Z</time>
      </trkpt>
      <trkpt lat="39.32345" lon="-8.55728">
        <ele>12.0</ele>
        <time>2019-05-17T10:55:29.164Z</time>
      </trkpt>
      <trkpt lat="39.32345" lon="-8.55728">
        <ele>12.0</ele>
        <time>2019-05-17T10:55:30.175Z</time>
      </trkpt>
      <trkpt lat="39.32345667" lon="-8.55720167">
        <ele>12.0</ele>
        <time>2019-05-17T10:55:31.151Z</time>
      </trkpt>
      <trkpt lat="39.32345667" lon="-8.55720167">
        <ele>12.0</ele>
        <time>2019-05-17T10:55:32.159Z</time>
      </trkpt>
      <trkpt lat="39.32347" lon="-8.55713167">
        <ele>12.0</ele>
        <time>2019-05-17T10:55:33.179Z</time>
      </trkpt>
      <trkpt lat="39.32347" lon="-8.55713167">
        <ele>12.0</ele>
        <time>2019-05-17T10:55:34.189Z</time>
      </trkpt>
      <trkpt lat="39.323475" lon="-8.55706333">
        <ele>12.0</ele>
        <time>2019-05-17T10:55:35.152Z</time>
      </trkpt>
      <trkpt lat="39.323475" lon="-8.55706333">
        <ele>12.0</ele>
        <time>2019-05-17T10:55:36.184Z</time>
      </trkpt>
      <trkpt lat="39.32349" lon="-8.55699">
        <ele>12.0</ele>
        <time>2019-05-17T10:55:37.155Z</time>
      </trkpt>
      <trkpt lat="39.32349" lon="-8.55699">
        <ele>12.0</ele>
        <time>2019-05-17T10:55:38.171Z</time>
      </trkpt>
      <trkpt lat="39.32351" lon="-8.55691167">
        <ele>12.0</ele>
        <time>2019-05-17T10:55:39.150Z</time>
      </trkpt>
      <trkpt lat="39.32351833" lon="-8.55687333">
        <ele>12.0</ele>
        <time>2019-05-17T10:55:40.168Z</time>
      </trkpt>
      <trkpt lat="39.323525" lon="-8.55683667">
        <ele>11.0</ele>
        <time>2019-05-17T10:55:41.153Z</time>
      </trkpt>
      <trkpt lat="39.323525" lon="-8.55683667">
        <ele>11.0</ele>
        <time>2019-05-17T10:55:42.169Z</time>
      </trkpt>
      <trkpt lat="39.32353667" lon="-8.55676">
        <ele>11.0</ele>
        <time>2019-05-17T10:55:43.181Z</time>
      </trkpt>
      <trkpt lat="39.32354" lon="-8.55672167">
        <ele>11.0</ele>
        <time>2019-05-17T10:55:44.163Z</time>
      </trkpt>
      <trkpt lat="39.32354" lon="-8.55672167">
        <ele>11.0</ele>
        <time>2019-05-17T10:55:45.170Z</time>
      </trkpt>
      <trkpt lat="39.32354833" lon="-8.55664167">
        <ele>11.0</ele>
        <time>2019-05-17T10:55:46.186Z</time>
      </trkpt>
      <trkpt lat="39.32355333" lon="-8.55660167">
        <ele>11.0</ele>
        <time>2019-05-17T10:55:47.162Z</time>
      </trkpt>
      <trkpt lat="39.32355333" lon="-8.55660167">
        <ele>11.0</ele>
        <time>2019-05-17T10:55:48.183Z</time>
      </trkpt>
      <trkpt lat="39.323565" lon="-8.55652333">
        <ele>11.0</ele>
        <time>2019-05-17T10:55:49.157Z</time>
      </trkpt>
      <trkpt lat="39.32357" lon="-8.55648333">
        <ele>11.0</ele>
        <time>2019-05-17T10:55:50.194Z</time>
      </trkpt>
      <trkpt lat="39.32357" lon="-8.55648333">
        <ele>11.0</ele>
        <time>2019-05-17T10:55:51.181Z</time>
      </trkpt>
      <trkpt lat="39.32357333" lon="-8.55640667">
        <ele>11.0</ele>
        <time>2019-05-17T10:55:52.157Z</time>
      </trkpt>
      <trkpt lat="39.32356833" lon="-8.55636667">
        <ele>11.0</ele>
        <time>2019-05-17T10:55:53.174Z</time>
      </trkpt>
      <trkpt lat="39.32356833" lon="-8.55636667">
        <ele>11.0</ele>
        <time>2019-05-17T10:55:54.182Z</time>
      </trkpt>
      <trkpt lat="39.32358167" lon="-8.55629">
        <ele>12.0</ele>
        <time>2019-05-17T10:55:55.167Z</time>
      </trkpt>
      <trkpt lat="39.32358167" lon="-8.55629">
        <ele>12.0</ele>
        <time>2019-05-17T10:55:56.182Z</time>
      </trkpt>
      <trkpt lat="39.32359333" lon="-8.55622">
        <ele>13.0</ele>
        <time>2019-05-17T10:55:57.157Z</time>
      </trkpt>
      <trkpt lat="39.32359667" lon="-8.55618333">
        <ele>13.0</ele>
        <time>2019-05-17T10:55:58.190Z</time>
      </trkpt>
      <trkpt lat="39.32359833" lon="-8.55614333">
        <ele>13.0</ele>
        <time>2019-05-17T10:55:59.180Z</time>
      </trkpt>
      <trkpt lat="39.32359833" lon="-8.55614333">
        <ele>13.0</ele>
        <time>2019-05-17T10:56:00.152Z</time>
      </trkpt>
      <trkpt lat="39.32360167" lon="-8.556065">
        <ele>13.0</ele>
        <time>2019-05-17T10:56:01.170Z</time>
      </trkpt>
      <trkpt lat="39.323595" lon="-8.556035">
        <ele>14.0</ele>
        <time>2019-05-17T10:56:02.189Z</time>
      </trkpt>
      <trkpt lat="39.323595" lon="-8.556035">
        <ele>14.0</ele>
        <time>2019-05-17T10:56:03.172Z</time>
      </trkpt>
      <trkpt lat="39.32360167" lon="-8.55598">
        <ele>14.0</ele>
        <time>2019-05-17T10:56:04.187Z</time>
      </trkpt>
      <trkpt lat="39.32362" lon="-8.55595667">
        <ele>15.0</ele>
        <time>2019-05-17T10:56:05.165Z</time>
      </trkpt>
      <trkpt lat="39.32362" lon="-8.55595667">
        <ele>15.0</ele>
        <time>2019-05-17T10:56:06.173Z</time>
      </trkpt>
      <trkpt lat="39.32365167" lon="-8.55587833">
        <ele>14.0</ele>
        <time>2019-05-17T10:56:07.151Z</time>
      </trkpt>
      <trkpt lat="39.32366667" lon="-8.55584167">
        <ele>14.0</ele>
        <time>2019-05-17T10:56:08.176Z</time>
      </trkpt>
      <trkpt lat="39.32366667" lon="-8.55584167">
        <ele>14.0</ele>
        <time>2019-05-17T10:56:09.157Z</time>
      </trkpt>
      <trkpt lat="39.32370333" lon="-8.55576667">
        <ele>15.0</ele>
        <time>2019-05-17T10:56:10.150Z</time>
      </trkpt>
      <trkpt lat="39.32370333" lon="-8.55576667">
        <ele>15.0</ele>
        <time>2019-05-17T10:56:11.160Z</time>
      </trkpt>
      <trkpt lat="39.32374" lon="-8.55569167">
        <ele>15.0</ele>
        <time>2019-05-17T10:56:12.182Z</time>
      </trkpt>
      <trkpt lat="39.32375833" lon="-8.55566167">
        <ele>15.0</ele>
        <time>2019-05-17T10:56:13.156Z</time>
      </trkpt>
      <trkpt lat="39.32375833" lon="-8.55566167">
        <ele>15.0</ele>
        <time>2019-05-17T10:56:14.184Z</time>
      </trkpt>
      <trkpt lat="39.32378667" lon="-8.55560167">
        <ele>15.0</ele>
        <time>2019-05-17T10:56:15.156Z</time>
      </trkpt>
      <trkpt lat="39.32378667" lon="-8.55560167">
        <ele>15.0</ele>
        <time>2019-05-17T10:56:16.168Z</time>
      </trkpt>
      <trkpt lat="39.32380667" lon="-8.55553167">
        <ele>15.0</ele>
        <time>2019-05-17T10:56:17.170Z</time>
      </trkpt>
      <trkpt lat="39.32380667" lon="-8.55553167">
        <ele>15.0</ele>
        <time>2019-05-17T10:56:18.156Z</time>
      </trkpt>
      <trkpt lat="39.32381833" lon="-8.55545833">
        <ele>15.0</ele>
        <time>2019-05-17T10:56:19.185Z</time>
      </trkpt>
      <trkpt lat="39.32381833" lon="-8.55545833">
        <ele>15.0</ele>
        <time>2019-05-17T10:56:20.155Z</time>
      </trkpt>
      <trkpt lat="39.32382833" lon="-8.55538833">
        <ele>15.0</ele>
        <time>2019-05-17T10:56:21.173Z</time>
      </trkpt>
      <trkpt lat="39.323835" lon="-8.55535167">
        <ele>15.0</ele>
        <time>2019-05-17T10:56:22.151Z</time>
      </trkpt>
      <trkpt lat="39.32384167" lon="-8.55531833">
        <ele>14.0</ele>
        <time>2019-05-17T10:56:23.188Z</time>
      </trkpt>
      <trkpt lat="39.32384167" lon="-8.55531833">
        <ele>14.0</ele>
        <time>2019-05-17T10:56:24.171Z</time>
      </trkpt>
      <trkpt lat="39.32385333" lon="-8.55522167">
        <ele>14.0</ele>
        <time>2019-05-17T10:56:25.184Z</time>
      </trkpt>
      <trkpt lat="39.32385333" lon="-8.55522167">
        <ele>14.0</ele>
        <time>2019-05-17T10:56:26.189Z</time>
      </trkpt>
      <trkpt lat="39.323855" lon="-8.55513167">
        <ele>14.0</ele>
        <time>2019-05-17T10:56:27.174Z</time>
      </trkpt>
      <trkpt lat="39.323855" lon="-8.55513167">
        <ele>14.0</ele>
        <time>2019-05-17T10:56:28.182Z</time>
      </trkpt>
      <trkpt lat="39.32385833" lon="-8.55505">
        <ele>15.0</ele>
        <time>2019-05-17T10:56:29.160Z</time>
      </trkpt>
      <trkpt lat="39.32385833" lon="-8.55505">
        <ele>15.0</ele>
        <time>2019-05-17T10:56:30.171Z</time>
      </trkpt>
      <trkpt lat="39.323865" lon="-8.55496667">
        <ele>15.0</ele>
        <time>2019-05-17T10:56:31.190Z</time>
      </trkpt>
      <trkpt lat="39.323865" lon="-8.55496667">
        <ele>15.0</ele>
        <time>2019-05-17T10:56:32.172Z</time>
      </trkpt>
      <trkpt lat="39.32387667" lon="-8.55489">
        <ele>16.0</ele>
        <time>2019-05-17T10:56:33.183Z</time>
      </trkpt>
      <trkpt lat="39.323875" lon="-8.55484833">
        <ele>16.0</ele>
        <time>2019-05-17T10:56:34.160Z</time>
      </trkpt>
      <trkpt lat="39.32387667" lon="-8.55480833">
        <ele>16.0</ele>
        <time>2019-05-17T10:56:35.185Z</time>
      </trkpt>
      <trkpt lat="39.32387667" lon="-8.55480833">
        <ele>16.0</ele>
        <time>2019-05-17T10:56:36.154Z</time>
      </trkpt>
      <trkpt lat="39.32388" lon="-8.55472833">
        <ele>16.0</ele>
        <time>2019-05-17T10:56:37.168Z</time>
      </trkpt>
      <trkpt lat="39.32388" lon="-8.55472833">
        <ele>16.0</ele>
        <time>2019-05-17T10:56:38.181Z</time>
      </trkpt>
      <trkpt lat="39.32388167" lon="-8.55464167">
        <ele>15.0</ele>
        <time>2019-05-17T10:56:39.175Z</time>
      </trkpt>
      <trkpt lat="39.323885" lon="-8.55459833">
        <ele>15.0</ele>
        <time>2019-05-17T10:56:40.153Z</time>
      </trkpt>
      <trkpt lat="39.32388667" lon="-8.55455667">
        <ele>15.0</ele>
        <time>2019-05-17T10:56:41.190Z</time>
      </trkpt>
      <trkpt lat="39.32388667" lon="-8.55455667">
        <ele>15.0</ele>
        <time>2019-05-17T10:56:42.162Z</time>
      </trkpt>
      <trkpt lat="39.32388833" lon="-8.55447333">
        <ele>14.0</ele>
        <time>2019-05-17T10:56:43.182Z</time>
      </trkpt>
      <trkpt lat="39.32388833" lon="-8.55447333">
        <ele>14.0</ele>
        <time>2019-05-17T10:56:44.154Z</time>
      </trkpt>
      <trkpt lat="39.32388667" lon="-8.554395">
        <ele>14.0</ele>
        <time>2019-05-17T10:56:45.177Z</time>
      </trkpt>
      <trkpt lat="39.32388667" lon="-8.554395">
        <ele>14.0</ele>
        <time>2019-05-17T10:56:46.184Z</time>
      </trkpt>
      <trkpt lat="39.32388667" lon="-8.55431167">
        <ele>14.0</ele>
        <time>2019-05-17T10:56:47.156Z</time>
      </trkpt>
      <trkpt lat="39.32388667" lon="-8.55431167">
        <ele>14.0</ele>
        <time>2019-05-17T10:56:48.179Z</time>
      </trkpt>
      <trkpt lat="39.3239" lon="-8.554235">
        <ele>15.0</ele>
        <time>2019-05-17T10:56:49.181Z</time>
      </trkpt>
      <trkpt lat="39.3239" lon="-8.554235">
        <ele>15.0</ele>
        <time>2019-05-17T10:56:50.187Z</time>
      </trkpt>
      <trkpt lat="39.3239" lon="-8.55415333">
        <ele>15.0</ele>
        <time>2019-05-17T10:56:51.157Z</time>
      </trkpt>
      <trkpt lat="39.3239" lon="-8.55415333">
        <ele>15.0</ele>
        <time>2019-05-17T10:56:52.166Z</time>
      </trkpt>
      <trkpt lat="39.32389833" lon="-8.55406833">
        <ele>15.0</ele>
        <time>2019-05-17T10:56:53.185Z</time>
      </trkpt>
      <trkpt lat="39.32389833" lon="-8.55406833">
        <ele>15.0</ele>
        <time>2019-05-17T10:56:54.170Z</time>
      </trkpt>
      <trkpt lat="39.32388833" lon="-8.553975">
        <ele>15.0</ele>
        <time>2019-05-17T10:56:55.182Z</time>
      </trkpt>
      <trkpt lat="39.32388833" lon="-8.553975">
        <ele>15.0</ele>
        <time>2019-05-17T10:56:56.155Z</time>
      </trkpt>
      <trkpt lat="39.32388833" lon="-8.55387667">
        <ele>15.0</ele>
        <time>2019-05-17T10:56:57.188Z</time>
      </trkpt>
      <trkpt lat="39.32388833" lon="-8.55387667">
        <ele>15.0</ele>
        <time>2019-05-17T10:56:58.159Z</time>
      </trkpt>
      <trkpt lat="39.323895" lon="-8.553785">
        <ele>15.0</ele>
        <time>2019-05-17T10:56:59.174Z</time>
      </trkpt>
      <trkpt lat="39.323895" lon="-8.553785">
        <ele>15.0</ele>
        <time>2019-05-17T10:57:00.184Z</time>
      </trkpt>
      <trkpt lat="39.32389833" lon="-8.55369833">
        <ele>15.0</ele>
        <time>2019-05-17T10:57:01.165Z</time>
      </trkpt>
      <trkpt lat="39.32389833" lon="-8.55369833">
        <ele>15.0</ele>
        <time>2019-05-17T10:57:02.182Z</time>
      </trkpt>
      <trkpt lat="39.32389667" lon="-8.55362">
        <ele>15.0</ele>
        <time>2019-05-17T10:57:03.152Z</time>
      </trkpt>
      <trkpt lat="39.32389667" lon="-8.55362">
        <ele>15.0</ele>
        <time>2019-05-17T10:57:04.162Z</time>
      </trkpt>
      <trkpt lat="39.32389167" lon="-8.55354333">
        <ele>15.0</ele>
        <time>2019-05-17T10:57:05.184Z</time>
      </trkpt>
      <trkpt lat="39.32389167" lon="-8.55354333">
        <ele>15.0</ele>
        <time>2019-05-17T10:57:06.160Z</time>
      </trkpt>
      <trkpt lat="39.32388667" lon="-8.55346333">
        <ele>15.0</ele>
        <time>2019-05-17T10:57:07.180Z</time>
      </trkpt>
      <trkpt lat="39.32388333" lon="-8.55342333">
        <ele>15.0</ele>
        <time>2019-05-17T10:57:08.172Z</time>
      </trkpt>
      <trkpt lat="39.32388333" lon="-8.55342333">
        <ele>15.0</ele>
        <time>2019-05-17T10:57:09.157Z</time>
      </trkpt>
      <trkpt lat="39.32388167" lon="-8.55334333">
        <ele>15.0</ele>
        <time>2019-05-17T10:57:10.180Z</time>
      </trkpt>
      <trkpt lat="39.32388167" lon="-8.553305">
        <ele>14.0</ele>
        <time>2019-05-17T10:57:11.156Z</time>
      </trkpt>
      <trkpt lat="39.32388167" lon="-8.553305">
        <ele>14.0</ele>
        <time>2019-05-17T10:57:12.164Z</time>
      </trkpt>
      <trkpt lat="39.32388167" lon="-8.553225">
        <ele>15.0</ele>
        <time>2019-05-17T10:57:13.182Z</time>
      </trkpt>
      <trkpt lat="39.32388167" lon="-8.553225">
        <ele>15.0</ele>
        <time>2019-05-17T10:57:14.152Z</time>
      </trkpt>
      <trkpt lat="39.32388833" lon="-8.553145">
        <ele>15.0</ele>
        <time>2019-05-17T10:57:15.168Z</time>
      </trkpt>
      <trkpt lat="39.32388833" lon="-8.55310167">
        <ele>15.0</ele>
        <time>2019-05-17T10:57:16.189Z</time>
      </trkpt>
      <trkpt lat="39.32389167" lon="-8.55306">
        <ele>15.0</ele>
        <time>2019-05-17T10:57:17.159Z</time>
      </trkpt>
      <trkpt lat="39.32389167" lon="-8.55306">
        <ele>15.0</ele>
        <time>2019-05-17T10:57:18.167Z</time>
      </trkpt>
      <trkpt lat="39.32391" lon="-8.55298">
        <ele>15.0</ele>
        <time>2019-05-17T10:57:19.182Z</time>
      </trkpt>
      <trkpt lat="39.32391" lon="-8.55298">
        <ele>15.0</ele>
        <time>2019-05-17T10:57:20.150Z</time>
      </trkpt>
      <trkpt lat="39.32393667" lon="-8.5529">
        <ele>15.0</ele>
        <time>2019-05-17T10:57:21.170Z</time>
      </trkpt>
      <trkpt lat="39.32393667" lon="-8.5529">
        <ele>15.0</ele>
        <time>2019-05-17T10:57:22.176Z</time>
      </trkpt>
      <trkpt lat="39.32396833" lon="-8.55282667">
        <ele>15.0</ele>
        <time>2019-05-17T10:57:23.177Z</time>
      </trkpt>
      <trkpt lat="39.32396833" lon="-8.55282667">
        <ele>15.0</ele>
        <time>2019-05-17T10:57:24.152Z</time>
      </trkpt>
      <trkpt lat="39.32402167" lon="-8.55278167">
        <ele>15.0</ele>
        <time>2019-05-17T10:57:25.174Z</time>
      </trkpt>
      <trkpt lat="39.32405333" lon="-8.55277667">
        <ele>15.0</ele>
        <time>2019-05-17T10:57:26.169Z</time>
      </trkpt>
      <trkpt lat="39.32408333" lon="-8.55279333">
        <ele>15.0</ele>
        <time>2019-05-17T10:57:27.156Z</time>
      </trkpt>
      <trkpt lat="39.32408333" lon="-8.55279333">
        <ele>15.0</ele>
        <time>2019-05-17T10:57:28.175Z</time>
      </trkpt>
      <trkpt lat="39.324135" lon="-8.55285">
        <ele>16.0</ele>
        <time>2019-05-17T10:57:29.152Z</time>
      </trkpt>
      <trkpt lat="39.324135" lon="-8.55285">
        <ele>16.0</ele>
        <time>2019-05-17T10:57:30.163Z</time>
      </trkpt>
      <trkpt lat="39.32417167" lon="-8.55290833">
        <ele>16.0</ele>
        <time>2019-05-17T10:57:31.158Z</time>
      </trkpt>
      <trkpt lat="39.32417167" lon="-8.55290833">
        <ele>16.0</ele>
        <time>2019-05-17T10:57:32.168Z</time>
      </trkpt>
      <trkpt lat="39.32420167" lon="-8.552965">
        <ele>15.0</ele>
        <time>2019-05-17T10:57:33.150Z</time>
      </trkpt>
      <trkpt lat="39.32420167" lon="-8.552965">
        <ele>15.0</ele>
        <time>2019-05-17T10:57:34.163Z</time>
      </trkpt>
      <trkpt lat="39.32423167" lon="-8.55300667">
        <ele>15.0</ele>
        <time>2019-05-17T10:57:35.193Z</time>
      </trkpt>
      <trkpt lat="39.32423167" lon="-8.55300667">
        <ele>15.0</ele>
        <time>2019-05-17T10:57:36.153Z</time>
      </trkpt>
      <trkpt lat="39.324245" lon="-8.55302333">
        <ele>15.0</ele>
        <time>2019-05-17T10:57:37.168Z</time>
      </trkpt>
      <trkpt lat="39.324245" lon="-8.55302333">
        <ele>15.0</ele>
        <time>2019-05-17T10:57:38.181Z</time>
      </trkpt>
      <trkpt lat="39.324245" lon="-8.55302">
        <ele>15.0</ele>
        <time>2019-05-17T10:57:39.150Z</time>
      </trkpt>
      <trkpt lat="39.324245" lon="-8.55302">
        <ele>15.0</ele>
        <time>2019-05-17T10:57:40.166Z</time>
      </trkpt>
      <trkpt lat="39.324245" lon="-8.55302">
        <ele>15.0</ele>
        <time>2019-05-17T10:57:41.172Z</time>
      </trkpt>
      <trkpt lat="39.324245" lon="-8.55302">
        <ele>15.0</ele>
        <time>2019-05-17T10:57:42.178Z</time>
      </trkpt>
      <trkpt lat="39.32427167" lon="-8.55305833">
        <ele>15.0</ele>
        <time>2019-05-17T10:57:43.184Z</time>
      </trkpt>
      <trkpt lat="39.32427167" lon="-8.55305833">
        <ele>15.0</ele>
        <time>2019-05-17T10:57:44.150Z</time>
      </trkpt>
      <trkpt lat="39.32430667" lon="-8.55310667">
        <ele>14.0</ele>
        <time>2019-05-17T10:57:45.181Z</time>
      </trkpt>
      <trkpt lat="39.32430667" lon="-8.55310667">
        <ele>14.0</ele>
        <time>2019-05-17T10:57:46.178Z</time>
      </trkpt>
      <trkpt lat="39.324325" lon="-8.55313667">
        <ele>14.0</ele>
        <time>2019-05-17T10:57:47.186Z</time>
      </trkpt>
      <trkpt lat="39.324325" lon="-8.55313667">
        <ele>14.0</ele>
        <time>2019-05-17T10:57:48.179Z</time>
      </trkpt>
      <trkpt lat="39.32432167" lon="-8.55313667">
        <ele>14.0</ele>
        <time>2019-05-17T10:57:49.159Z</time>
      </trkpt>
      <trkpt lat="39.32432167" lon="-8.55313667">
        <ele>14.0</ele>
        <time>2019-05-17T10:57:50.162Z</time>
      </trkpt>
      <trkpt lat="39.32432167" lon="-8.55313667">
        <ele>14.0</ele>
        <time>2019-05-17T10:57:51.180Z</time>
      </trkpt>
      <trkpt lat="39.32432167" lon="-8.55313667">
        <ele>14.0</ele>
        <time>2019-05-17T10:57:52.156Z</time>
      </trkpt>
      <trkpt lat="39.32432167" lon="-8.55313667">
        <ele>14.0</ele>
        <time>2019-05-17T10:57:53.162Z</time>
      </trkpt>
      <trkpt lat="39.32432167" lon="-8.55313667">
        <ele>14.0</ele>
        <time>2019-05-17T10:57:54.168Z</time>
      </trkpt>
      <trkpt lat="39.32432167" lon="-8.55313667">
        <ele>14.0</ele>
        <time>2019-05-17T10:57:55.175Z</time>
      </trkpt>
      <trkpt lat="39.32432167" lon="-8.55313667">
        <ele>14.0</ele>
        <time>2019-05-17T10:57:56.181Z</time>
      </trkpt>
      <trkpt lat="39.32432167" lon="-8.55313667">
        <ele>14.0</ele>
        <time>2019-05-17T10:57:57.185Z</time>
      </trkpt>
      <trkpt lat="39.32432" lon="-8.553145">
        <ele>13.0</ele>
        <time>2019-05-17T10:57:58.183Z</time>
      </trkpt>
      <trkpt lat="39.324325" lon="-8.553155">
        <ele>13.0</ele>
        <time>2019-05-17T10:57:59.187Z</time>
      </trkpt>
      <trkpt lat="39.324325" lon="-8.553155">
        <ele>13.0</ele>
        <time>2019-05-17T10:58:00.178Z</time>
      </trkpt>
      <trkpt lat="39.32434667" lon="-8.55319">
        <ele>13.0</ele>
        <time>2019-05-17T10:58:01.185Z</time>
      </trkpt>
      <trkpt lat="39.32434667" lon="-8.55319">
        <ele>13.0</ele>
        <time>2019-05-17T10:58:02.178Z</time>
      </trkpt>
      <trkpt lat="39.32437833" lon="-8.55324">
        <ele>13.0</ele>
        <time>2019-05-17T10:58:03.181Z</time>
      </trkpt>
      <trkpt lat="39.32437833" lon="-8.55324">
        <ele>13.0</ele>
        <time>2019-05-17T10:58:04.179Z</time>
      </trkpt>
      <trkpt lat="39.32441167" lon="-8.5533">
        <ele>13.0</ele>
        <time>2019-05-17T10:58:05.167Z</time>
      </trkpt>
      <trkpt lat="39.32441167" lon="-8.5533">
        <ele>13.0</ele>
        <time>2019-05-17T10:58:06.162Z</time>
      </trkpt>
      <trkpt lat="39.32444667" lon="-8.553365">
        <ele>13.0</ele>
        <time>2019-05-17T10:58:07.180Z</time>
      </trkpt>
      <trkpt lat="39.32446333" lon="-8.5534">
        <ele>13.0</ele>
        <time>2019-05-17T10:58:08.173Z</time>
      </trkpt>
      <trkpt lat="39.32446333" lon="-8.5534">
        <ele>13.0</ele>
        <time>2019-05-17T10:58:09.161Z</time>
      </trkpt>
      <trkpt lat="39.3245" lon="-8.55346833">
        <ele>13.0</ele>
        <time>2019-05-17T10:58:10.156Z</time>
      </trkpt>
      <trkpt lat="39.32451833" lon="-8.55350167">
        <ele>13.0</ele>
        <time>2019-05-17T10:58:11.170Z</time>
      </trkpt>
      <trkpt lat="39.32451833" lon="-8.55350167">
        <ele>13.0</ele>
        <time>2019-05-17T10:58:12.189Z</time>
      </trkpt>
      <trkpt lat="39.32455667" lon="-8.55357167">
        <ele>13.0</ele>
        <time>2019-05-17T10:58:13.161Z</time>
      </trkpt>
      <trkpt lat="39.32457333" lon="-8.55360667">
        <ele>13.0</ele>
        <time>2019-05-17T10:58:14.171Z</time>
      </trkpt>
      <trkpt lat="39.32457333" lon="-8.55360667">
        <ele>13.0</ele>
        <time>2019-05-17T10:58:15.183Z</time>
      </trkpt>
      <trkpt lat="39.324615" lon="-8.55368">
        <ele>13.0</ele>
        <time>2019-05-17T10:58:16.152Z</time>
      </trkpt>
      <trkpt lat="39.32463667" lon="-8.55371833">
        <ele>13.0</ele>
        <time>2019-05-17T10:58:17.154Z</time>
      </trkpt>
      <trkpt lat="39.32463667" lon="-8.55371833">
        <ele>13.0</ele>
        <time>2019-05-17T10:58:18.171Z</time>
      </trkpt>
      <trkpt lat="39.32467333" lon="-8.55378667">
        <ele>12.0</ele>
        <time>2019-05-17T10:58:19.153Z</time>
      </trkpt>
      <trkpt lat="39.32467333" lon="-8.55378667">
        <ele>12.0</ele>
        <time>2019-05-17T10:58:20.164Z</time>
      </trkpt>
      <trkpt lat="39.32470167" lon="-8.55384167">
        <ele>12.0</ele>
        <time>2019-05-17T10:58:21.191Z</time>
      </trkpt>
      <trkpt lat="39.32470167" lon="-8.55384167">
        <ele>12.0</ele>
        <time>2019-05-17T10:58:22.172Z</time>
      </trkpt>
      <trkpt lat="39.32473" lon="-8.55388833">
        <ele>12.0</ele>
        <time>2019-05-17T10:58:23.154Z</time>
      </trkpt>
      <trkpt lat="39.32473" lon="-8.55388833">
        <ele>12.0</ele>
        <time>2019-05-17T10:58:24.171Z</time>
      </trkpt>
      <trkpt lat="39.32476" lon="-8.553945">
        <ele>12.0</ele>
        <time>2019-05-17T10:58:25.182Z</time>
      </trkpt>
      <trkpt lat="39.32476" lon="-8.553945">
        <ele>12.0</ele>
        <time>2019-05-17T10:58:26.189Z</time>
      </trkpt>
      <trkpt lat="39.32479167" lon="-8.55400333">
        <ele>12.0</ele>
        <time>2019-05-17T10:58:27.168Z</time>
      </trkpt>
      <trkpt lat="39.32479167" lon="-8.55400333">
        <ele>12.0</ele>
        <time>2019-05-17T10:58:28.182Z</time>
      </trkpt>
      <trkpt lat="39.32482333" lon="-8.55406167">
        <ele>12.0</ele>
        <time>2019-05-17T10:58:29.158Z</time>
      </trkpt>
      <trkpt lat="39.32482333" lon="-8.55406167">
        <ele>12.0</ele>
        <time>2019-05-17T10:58:30.172Z</time>
      </trkpt>
      <trkpt lat="39.324855" lon="-8.55412333">
        <ele>12.0</ele>
        <time>2019-05-17T10:58:31.151Z</time>
      </trkpt>
      <trkpt lat="39.324855" lon="-8.55412333">
        <ele>12.0</ele>
        <time>2019-05-17T10:58:32.157Z</time>
      </trkpt>
      <trkpt lat="39.32488667" lon="-8.55419167">
        <ele>12.0</ele>
        <time>2019-05-17T10:58:33.172Z</time>
      </trkpt>
      <trkpt lat="39.32488667" lon="-8.55419167">
        <ele>12.0</ele>
        <time>2019-05-17T10:58:34.177Z</time>
      </trkpt>
      <trkpt lat="39.32492" lon="-8.55425833">
        <ele>12.0</ele>
        <time>2019-05-17T10:58:35.159Z</time>
      </trkpt>
      <trkpt lat="39.32492" lon="-8.55425833">
        <ele>12.0</ele>
        <time>2019-05-17T10:58:36.185Z</time>
      </trkpt>
      <trkpt lat="39.32495667" lon="-8.55432667">
        <ele>12.0</ele>
        <time>2019-05-17T10:58:37.163Z</time>
      </trkpt>
      <trkpt lat="39.32495667" lon="-8.55432667">
        <ele>12.0</ele>
        <time>2019-05-17T10:58:38.163Z</time>
      </trkpt>
      <trkpt lat="39.32499" lon="-8.55438833">
        <ele>12.0</ele>
        <time>2019-05-17T10:58:39.186Z</time>
      </trkpt>
      <trkpt lat="39.32499" lon="-8.55438833">
        <ele>12.0</ele>
        <time>2019-05-17T10:58:40.152Z</time>
      </trkpt>
      <trkpt lat="39.32502833" lon="-8.554445">
        <ele>11.0</ele>
        <time>2019-05-17T10:58:41.170Z</time>
      </trkpt>
      <trkpt lat="39.32502833" lon="-8.554445">
        <ele>11.0</ele>
        <time>2019-05-17T10:58:42.179Z</time>
      </trkpt>
      <trkpt lat="39.32507167" lon="-8.55449167">
        <ele>11.0</ele>
        <time>2019-05-17T10:58:43.156Z</time>
      </trkpt>
      <trkpt lat="39.32507167" lon="-8.55449167">
        <ele>11.0</ele>
        <time>2019-05-17T10:58:44.171Z</time>
      </trkpt>
      <trkpt lat="39.32511333" lon="-8.55453833">
        <ele>11.0</ele>
        <time>2019-05-17T10:58:45.186Z</time>
      </trkpt>
      <trkpt lat="39.32511333" lon="-8.55453833">
        <ele>11.0</ele>
        <time>2019-05-17T10:58:46.153Z</time>
      </trkpt>
      <trkpt lat="39.32516167" lon="-8.55458333">
        <ele>11.0</ele>
        <time>2019-05-17T10:58:47.165Z</time>
      </trkpt>
      <trkpt lat="39.32516167" lon="-8.55458333">
        <ele>11.0</ele>
        <time>2019-05-17T10:58:48.177Z</time>
      </trkpt>
      <trkpt lat="39.32520667" lon="-8.55462667">
        <ele>11.0</ele>
        <time>2019-05-17T10:58:49.151Z</time>
      </trkpt>
      <trkpt lat="39.32523" lon="-8.55464833">
        <ele>11.0</ele>
        <time>2019-05-17T10:58:50.185Z</time>
      </trkpt>
      <trkpt lat="39.32523" lon="-8.55464833">
        <ele>11.0</ele>
        <time>2019-05-17T10:58:51.170Z</time>
      </trkpt>
      <trkpt lat="39.325275" lon="-8.55469333">
        <ele>11.0</ele>
        <time>2019-05-17T10:58:52.188Z</time>
      </trkpt>
      <trkpt lat="39.32529833" lon="-8.554715">
        <ele>11.0</ele>
        <time>2019-05-17T10:58:53.170Z</time>
      </trkpt>
      <trkpt lat="39.32529833" lon="-8.554715">
        <ele>11.0</ele>
        <time>2019-05-17T10:58:54.183Z</time>
      </trkpt>
      <trkpt lat="39.325345" lon="-8.55476">
        <ele>11.0</ele>
        <time>2019-05-17T10:58:55.159Z</time>
      </trkpt>
      <trkpt lat="39.32536833" lon="-8.55478333">
        <ele>11.0</ele>
        <time>2019-05-17T10:58:56.164Z</time>
      </trkpt>
      <trkpt lat="39.32536833" lon="-8.55478333">
        <ele>11.0</ele>
        <time>2019-05-17T10:58:57.186Z</time>
      </trkpt>
      <trkpt lat="39.325415" lon="-8.554825">
        <ele>11.0</ele>
        <time>2019-05-17T10:58:58.156Z</time>
      </trkpt>
      <trkpt lat="39.32543833" lon="-8.55484833">
        <ele>11.0</ele>
        <time>2019-05-17T10:58:59.155Z</time>
      </trkpt>
      <trkpt lat="39.32546167" lon="-8.55487167">
        <ele>11.0</ele>
        <time>2019-05-17T10:59:00.170Z</time>
      </trkpt>
      <trkpt lat="39.32546167" lon="-8.55487167">
        <ele>11.0</ele>
        <time>2019-05-17T10:59:01.152Z</time>
      </trkpt>
      <trkpt lat="39.32551" lon="-8.55491667">
        <ele>11.0</ele>
        <time>2019-05-17T10:59:02.167Z</time>
      </trkpt>
      <trkpt lat="39.32551" lon="-8.55491667">
        <ele>11.0</ele>
        <time>2019-05-17T10:59:03.174Z</time>
      </trkpt>
      <trkpt lat="39.32555167" lon="-8.55496833">
        <ele>11.0</ele>
        <time>2019-05-17T10:59:04.151Z</time>
      </trkpt>
      <trkpt lat="39.32555167" lon="-8.55496833">
        <ele>11.0</ele>
        <time>2019-05-17T10:59:05.166Z</time>
      </trkpt>
      <trkpt lat="39.32559667" lon="-8.55500667">
        <ele>11.0</ele>
        <time>2019-05-17T10:59:06.182Z</time>
      </trkpt>
      <trkpt lat="39.32559667" lon="-8.55500667">
        <ele>11.0</ele>
        <time>2019-05-17T10:59:07.154Z</time>
      </trkpt>
      <trkpt lat="39.32565" lon="-8.555045">
        <ele>11.0</ele>
        <time>2019-05-17T10:59:08.167Z</time>
      </trkpt>
      <trkpt lat="39.32565" lon="-8.555045">
        <ele>11.0</ele>
        <time>2019-05-17T10:59:09.151Z</time>
      </trkpt>
      <trkpt lat="39.32570333" lon="-8.55508333">
        <ele>11.0</ele>
        <time>2019-05-17T10:59:10.162Z</time>
      </trkpt>
      <trkpt lat="39.32570333" lon="-8.55508333">
        <ele>11.0</ele>
        <time>2019-05-17T10:59:11.171Z</time>
      </trkpt>
      <trkpt lat="39.32576" lon="-8.55512333">
        <ele>11.0</ele>
        <time>2019-05-17T10:59:12.155Z</time>
      </trkpt>
      <trkpt lat="39.32576" lon="-8.55512333">
        <ele>11.0</ele>
        <time>2019-05-17T10:59:13.171Z</time>
      </trkpt>
      <trkpt lat="39.325815" lon="-8.55517">
        <ele>11.0</ele>
        <time>2019-05-17T10:59:14.157Z</time>
      </trkpt>
      <trkpt lat="39.325815" lon="-8.55517">
        <ele>11.0</ele>
        <time>2019-05-17T10:59:15.182Z</time>
      </trkpt>
      <trkpt lat="39.32586833" lon="-8.555215">
        <ele>11.0</ele>
        <time>2019-05-17T10:59:16.157Z</time>
      </trkpt>
      <trkpt lat="39.32589333" lon="-8.55523833">
        <ele>11.0</ele>
        <time>2019-05-17T10:59:17.177Z</time>
      </trkpt>
      <trkpt lat="39.32589333" lon="-8.55523833">
        <ele>11.0</ele>
        <time>2019-05-17T10:59:18.188Z</time>
      </trkpt>
      <trkpt lat="39.325945" lon="-8.55529">
        <ele>11.0</ele>
        <time>2019-05-17T10:59:19.162Z</time>
      </trkpt>
      <trkpt lat="39.325945" lon="-8.55529">
        <ele>11.0</ele>
        <time>2019-05-17T10:59:20.175Z</time>
      </trkpt>
      <trkpt lat="39.32599667" lon="-8.55534667">
        <ele>11.0</ele>
        <time>2019-05-17T10:59:21.154Z</time>
      </trkpt>
      <trkpt lat="39.32599667" lon="-8.55534667">
        <ele>11.0</ele>
        <time>2019-05-17T10:59:22.167Z</time>
      </trkpt>
      <trkpt lat="39.32605333" lon="-8.55539833">
        <ele>11.0</ele>
        <time>2019-05-17T10:59:23.187Z</time>
      </trkpt>
      <trkpt lat="39.32605333" lon="-8.55539833">
        <ele>11.0</ele>
        <time>2019-05-17T10:59:24.171Z</time>
      </trkpt>
      <trkpt lat="39.32610667" lon="-8.55545333">
        <ele>11.0</ele>
        <time>2019-05-17T10:59:25.185Z</time>
      </trkpt>
      <trkpt lat="39.32613333" lon="-8.55547833">
        <ele>11.0</ele>
        <time>2019-05-17T10:59:26.159Z</time>
      </trkpt>
      <trkpt lat="39.32613333" lon="-8.55547833">
        <ele>11.0</ele>
        <time>2019-05-17T10:59:27.173Z</time>
      </trkpt>
      <trkpt lat="39.32618167" lon="-8.55552667">
        <ele>10.0</ele>
        <time>2019-05-17T10:59:28.150Z</time>
      </trkpt>
      <trkpt lat="39.32620667" lon="-8.55555333">
        <ele>10.0</ele>
        <time>2019-05-17T10:59:29.164Z</time>
      </trkpt>
      <trkpt lat="39.32620667" lon="-8.55555333">
        <ele>10.0</ele>
        <time>2019-05-17T10:59:30.180Z</time>
      </trkpt>
      <trkpt lat="39.32625167" lon="-8.55560667">
        <ele>10.0</ele>
        <time>2019-05-17T10:59:31.154Z</time>
      </trkpt>
      <trkpt lat="39.32627667" lon="-8.55563167">
        <ele>10.0</ele>
        <time>2019-05-17T10:59:32.181Z</time>
      </trkpt>
      <trkpt lat="39.32627667" lon="-8.55563167">
        <ele>10.0</ele>
        <time>2019-05-17T10:59:33.174Z</time>
      </trkpt>
      <trkpt lat="39.326325" lon="-8.55568833">
        <ele>10.0</ele>
        <time>2019-05-17T10:59:34.193Z</time>
      </trkpt>
      <trkpt lat="39.32635" lon="-8.555715">
        <ele>10.0</ele>
        <time>2019-05-17T10:59:35.182Z</time>
      </trkpt>
      <trkpt lat="39.32635" lon="-8.555715">
        <ele>10.0</ele>
        <time>2019-05-17T10:59:36.152Z</time>
      </trkpt>
      <trkpt lat="39.32640333" lon="-8.55577333">
        <ele>10.0</ele>
        <time>2019-05-17T10:59:37.168Z</time>
      </trkpt>
      <trkpt lat="39.32640333" lon="-8.55577333">
        <ele>10.0</ele>
        <time>2019-05-17T10:59:38.162Z</time>
      </trkpt>
      <trkpt lat="39.32646167" lon="-8.55583167">
        <ele>10.0</ele>
        <time>2019-05-17T10:59:39.181Z</time>
      </trkpt>
      <trkpt lat="39.32646167" lon="-8.55583167">
        <ele>10.0</ele>
        <time>2019-05-17T10:59:40.187Z</time>
      </trkpt>
      <trkpt lat="39.32652833" lon="-8.55588667">
        <ele>10.0</ele>
        <time>2019-05-17T10:59:41.157Z</time>
      </trkpt>
      <trkpt lat="39.32652833" lon="-8.55588667">
        <ele>10.0</ele>
        <time>2019-05-17T10:59:42.177Z</time>
      </trkpt>
      <trkpt lat="39.3266" lon="-8.55592833">
        <ele>10.0</ele>
        <time>2019-05-17T10:59:43.159Z</time>
      </trkpt>
      <trkpt lat="39.326635" lon="-8.55593833">
        <ele>10.0</ele>
        <time>2019-05-17T10:59:44.160Z</time>
      </trkpt>
      <trkpt lat="39.326635" lon="-8.55593833">
        <ele>10.0</ele>
        <time>2019-05-17T10:59:45.172Z</time>
      </trkpt>
      <trkpt lat="39.32670167" lon="-8.55594">
        <ele>9.0</ele>
        <time>2019-05-17T10:59:46.188Z</time>
      </trkpt>
      <trkpt lat="39.326735" lon="-8.555925">
        <ele>9.0</ele>
        <time>2019-05-17T10:59:47.162Z</time>
      </trkpt>
      <trkpt lat="39.326735" lon="-8.555925">
        <ele>9.0</ele>
        <time>2019-05-17T10:59:48.171Z</time>
      </trkpt>
      <trkpt lat="39.32678667" lon="-8.55587667">
        <ele>9.0</ele>
        <time>2019-05-17T10:59:49.151Z</time>
      </trkpt>
      <trkpt lat="39.32678667" lon="-8.55587667">
        <ele>9.0</ele>
        <time>2019-05-17T10:59:50.160Z</time>
      </trkpt>
      <trkpt lat="39.326825" lon="-8.555815">
        <ele>9.0</ele>
        <time>2019-05-17T10:59:51.182Z</time>
      </trkpt>
      <trkpt lat="39.326825" lon="-8.555815">
        <ele>9.0</ele>
        <time>2019-05-17T10:59:52.164Z</time>
      </trkpt>
      <trkpt lat="39.32686167" lon="-8.555755">
        <ele>9.0</ele>
        <time>2019-05-17T10:59:53.179Z</time>
      </trkpt>
      <trkpt lat="39.32686167" lon="-8.555755">
        <ele>9.0</ele>
        <time>2019-05-17T10:59:54.157Z</time>
      </trkpt>
      <trkpt lat="39.32689833" lon="-8.555695">
        <ele>10.0</ele>
        <time>2019-05-17T10:59:55.154Z</time>
      </trkpt>
      <trkpt lat="39.32689833" lon="-8.555695">
        <ele>10.0</ele>
        <time>2019-05-17T10:59:56.177Z</time>
      </trkpt>
      <trkpt lat="39.32693333" lon="-8.55563167">
        <ele>10.0</ele>
        <time>2019-05-17T10:59:57.188Z</time>
      </trkpt>
      <trkpt lat="39.32695" lon="-8.5556">
        <ele>10.0</ele>
        <time>2019-05-17T10:59:58.164Z</time>
      </trkpt>
      <trkpt lat="39.32696667" lon="-8.55556667">
        <ele>10.0</ele>
        <time>2019-05-17T10:59:59.181Z</time>
      </trkpt>
      <trkpt lat="39.32696667" lon="-8.55556667">
        <ele>10.0</ele>
        <time>2019-05-17T11:00:00.158Z</time>
      </trkpt>
      <trkpt lat="39.32700167" lon="-8.55549833">
        <ele>11.0</ele>
        <time>2019-05-17T11:00:01.172Z</time>
      </trkpt>
      <trkpt lat="39.32700167" lon="-8.55549833">
        <ele>11.0</ele>
        <time>2019-05-17T11:00:02.179Z</time>
      </trkpt>
      <trkpt lat="39.32703667" lon="-8.55543333">
        <ele>11.0</ele>
        <time>2019-05-17T11:00:03.152Z</time>
      </trkpt>
      <trkpt lat="39.32703667" lon="-8.55543333">
        <ele>11.0</ele>
        <time>2019-05-17T11:00:04.162Z</time>
      </trkpt>
      <trkpt lat="39.32707333" lon="-8.55536167">
        <ele>11.0</ele>
        <time>2019-05-17T11:00:05.176Z</time>
      </trkpt>
      <trkpt lat="39.32707333" lon="-8.55536167">
        <ele>11.0</ele>
        <time>2019-05-17T11:00:06.184Z</time>
      </trkpt>
      <trkpt lat="39.32710667" lon="-8.55529167">
        <ele>11.0</ele>
        <time>2019-05-17T11:00:07.162Z</time>
      </trkpt>
      <trkpt lat="39.32710667" lon="-8.55529167">
        <ele>11.0</ele>
        <time>2019-05-17T11:00:08.187Z</time>
      </trkpt>
      <trkpt lat="39.32714" lon="-8.55522333">
        <ele>11.0</ele>
        <time>2019-05-17T11:00:09.150Z</time>
      </trkpt>
      <trkpt lat="39.327155" lon="-8.55519">
        <ele>11.0</ele>
        <time>2019-05-17T11:00:10.176Z</time>
      </trkpt>
      <trkpt lat="39.32717167" lon="-8.55515833">
        <ele>11.0</ele>
        <time>2019-05-17T11:00:11.181Z</time>
      </trkpt>
      <trkpt lat="39.32717167" lon="-8.55515833">
        <ele>11.0</ele>
        <time>2019-05-17T11:00:12.188Z</time>
      </trkpt>
      <trkpt lat="39.327205" lon="-8.555095">
        <ele>11.0</ele>
        <time>2019-05-17T11:00:13.172Z</time>
      </trkpt>
      <trkpt lat="39.327205" lon="-8.555095">
        <ele>11.0</ele>
        <time>2019-05-17T11:00:14.171Z</time>
      </trkpt>
      <trkpt lat="39.32724" lon="-8.55503167">
        <ele>11.0</ele>
        <time>2019-05-17T11:00:15.151Z</time>
      </trkpt>
      <trkpt lat="39.32724" lon="-8.55503167">
        <ele>11.0</ele>
        <time>2019-05-17T11:00:16.183Z</time>
      </trkpt>
      <trkpt lat="39.32727" lon="-8.55497">
        <ele>11.0</ele>
        <time>2019-05-17T11:00:17.155Z</time>
      </trkpt>
      <trkpt lat="39.32727" lon="-8.55497">
        <ele>11.0</ele>
        <time>2019-05-17T11:00:18.173Z</time>
      </trkpt>
      <trkpt lat="39.32730333" lon="-8.55491">
        <ele>11.0</ele>
        <time>2019-05-17T11:00:19.190Z</time>
      </trkpt>
      <trkpt lat="39.32730333" lon="-8.55491">
        <ele>11.0</ele>
        <time>2019-05-17T11:00:20.155Z</time>
      </trkpt>
      <trkpt lat="39.32733667" lon="-8.554845">
        <ele>11.0</ele>
        <time>2019-05-17T11:00:21.171Z</time>
      </trkpt>
      <trkpt lat="39.32733667" lon="-8.554845">
        <ele>11.0</ele>
        <time>2019-05-17T11:00:22.186Z</time>
      </trkpt>
      <trkpt lat="39.32736667" lon="-8.55478167">
        <ele>11.0</ele>
        <time>2019-05-17T11:00:23.168Z</time>
      </trkpt>
      <trkpt lat="39.32736667" lon="-8.55478167">
        <ele>11.0</ele>
        <time>2019-05-17T11:00:24.178Z</time>
      </trkpt>
      <trkpt lat="39.32739833" lon="-8.55471667">
        <ele>11.0</ele>
        <time>2019-05-17T11:00:25.156Z</time>
      </trkpt>
      <trkpt lat="39.32739833" lon="-8.55471667">
        <ele>11.0</ele>
        <time>2019-05-17T11:00:26.174Z</time>
      </trkpt>
      <trkpt lat="39.32743167" lon="-8.55465167">
        <ele>11.0</ele>
        <time>2019-05-17T11:00:27.163Z</time>
      </trkpt>
      <trkpt lat="39.32744833" lon="-8.55461833">
        <ele>11.0</ele>
        <time>2019-05-17T11:00:28.152Z</time>
      </trkpt>
      <trkpt lat="39.32746333" lon="-8.554585">
        <ele>10.0</ele>
        <time>2019-05-17T11:00:29.175Z</time>
      </trkpt>
      <trkpt lat="39.32746333" lon="-8.554585">
        <ele>10.0</ele>
        <time>2019-05-17T11:00:30.187Z</time>
      </trkpt>
      <trkpt lat="39.32749667" lon="-8.55452167">
        <ele>11.0</ele>
        <time>2019-05-17T11:00:31.159Z</time>
      </trkpt>
      <trkpt lat="39.32749667" lon="-8.55452167">
        <ele>11.0</ele>
        <time>2019-05-17T11:00:32.168Z</time>
      </trkpt>
      <trkpt lat="39.32752333" lon="-8.554465">
        <ele>10.0</ele>
        <time>2019-05-17T11:00:33.185Z</time>
      </trkpt>
      <trkpt lat="39.32752333" lon="-8.554465">
        <ele>10.0</ele>
        <time>2019-05-17T11:00:34.172Z</time>
      </trkpt>
      <trkpt lat="39.32755167" lon="-8.554415">
        <ele>10.0</ele>
        <time>2019-05-17T11:00:35.152Z</time>
      </trkpt>
      <trkpt lat="39.32755167" lon="-8.554415">
        <ele>10.0</ele>
        <time>2019-05-17T11:00:36.163Z</time>
      </trkpt>
      <trkpt lat="39.32757667" lon="-8.55435667">
        <ele>10.0</ele>
        <time>2019-05-17T11:00:37.162Z</time>
      </trkpt>
      <trkpt lat="39.32759167" lon="-8.55432667">
        <ele>10.0</ele>
        <time>2019-05-17T11:00:38.161Z</time>
      </trkpt>
      <trkpt lat="39.32759167" lon="-8.55432667">
        <ele>10.0</ele>
        <time>2019-05-17T11:00:39.171Z</time>
      </trkpt>
      <trkpt lat="39.32762167" lon="-8.55427">
        <ele>10.0</ele>
        <time>2019-05-17T11:00:40.174Z</time>
      </trkpt>
      <trkpt lat="39.32763667" lon="-8.55424">
        <ele>11.0</ele>
        <time>2019-05-17T11:00:41.157Z</time>
      </trkpt>
      <trkpt lat="39.32763667" lon="-8.55424">
        <ele>11.0</ele>
        <time>2019-05-17T11:00:42.151Z</time>
      </trkpt>
      <trkpt lat="39.32766667" lon="-8.554175">
        <ele>11.0</ele>
        <time>2019-05-17T11:00:43.166Z</time>
      </trkpt>
      <trkpt lat="39.32766667" lon="-8.554175">
        <ele>11.0</ele>
        <time>2019-05-17T11:00:44.152Z</time>
      </trkpt>
      <trkpt lat="39.32769833" lon="-8.55411">
        <ele>10.0</ele>
        <time>2019-05-17T11:00:45.167Z</time>
      </trkpt>
      <trkpt lat="39.327715" lon="-8.55408">
        <ele>10.0</ele>
        <time>2019-05-17T11:00:46.181Z</time>
      </trkpt>
      <trkpt lat="39.32773333" lon="-8.55405333">
        <ele>10.0</ele>
        <time>2019-05-17T11:00:47.169Z</time>
      </trkpt>
      <trkpt lat="39.32773333" lon="-8.55405333">
        <ele>10.0</ele>
        <time>2019-05-17T11:00:48.185Z</time>
      </trkpt>
      <trkpt lat="39.32776333" lon="-8.55399667">
        <ele>10.0</ele>
        <time>2019-05-17T11:00:49.161Z</time>
      </trkpt>
      <trkpt lat="39.32776333" lon="-8.55399667">
        <ele>10.0</ele>
        <time>2019-05-17T11:00:50.174Z</time>
      </trkpt>
      <trkpt lat="39.32779333" lon="-8.55393667">
        <ele>10.0</ele>
        <time>2019-05-17T11:00:51.191Z</time>
      </trkpt>
      <trkpt lat="39.32780833" lon="-8.55390833">
        <ele>11.0</ele>
        <time>2019-05-17T11:00:52.161Z</time>
      </trkpt>
      <trkpt lat="39.327825" lon="-8.55388">
        <ele>10.0</ele>
        <time>2019-05-17T11:00:53.179Z</time>
      </trkpt>
      <trkpt lat="39.327825" lon="-8.55388">
        <ele>10.0</ele>
        <time>2019-05-17T11:00:54.157Z</time>
      </trkpt>
      <trkpt lat="39.32785167" lon="-8.55382167">
        <ele>10.0</ele>
        <time>2019-05-17T11:00:55.174Z</time>
      </trkpt>
      <trkpt lat="39.32785167" lon="-8.55382167">
        <ele>10.0</ele>
        <time>2019-05-17T11:00:56.152Z</time>
      </trkpt>
      <trkpt lat="39.32788" lon="-8.55376833">
        <ele>10.0</ele>
        <time>2019-05-17T11:00:57.180Z</time>
      </trkpt>
      <trkpt lat="39.327895" lon="-8.55373833">
        <ele>10.0</ele>
        <time>2019-05-17T11:00:58.186Z</time>
      </trkpt>
      <trkpt lat="39.32791333" lon="-8.55370667">
        <ele>10.0</ele>
        <time>2019-05-17T11:00:59.164Z</time>
      </trkpt>
      <trkpt lat="39.32791333" lon="-8.55370667">
        <ele>10.0</ele>
        <time>2019-05-17T11:01:00.178Z</time>
      </trkpt>
      <trkpt lat="39.32793667" lon="-8.55365167">
        <ele>10.0</ele>
        <time>2019-05-17T11:01:01.156Z</time>
      </trkpt>
      <trkpt lat="39.32794833" lon="-8.55362333">
        <ele>10.0</ele>
        <time>2019-05-17T11:01:02.181Z</time>
      </trkpt>
      <trkpt lat="39.32794833" lon="-8.55362333">
        <ele>10.0</ele>
        <time>2019-05-17T11:01:03.188Z</time>
      </trkpt>
      <trkpt lat="39.32798333" lon="-8.553565">
        <ele>10.0</ele>
        <time>2019-05-17T11:01:04.165Z</time>
      </trkpt>
      <trkpt lat="39.328" lon="-8.55353167">
        <ele>10.0</ele>
        <time>2019-05-17T11:01:05.188Z</time>
      </trkpt>
      <trkpt lat="39.328" lon="-8.55353167">
        <ele>10.0</ele>
        <time>2019-05-17T11:01:06.156Z</time>
      </trkpt>
      <trkpt lat="39.32803333" lon="-8.55346333">
        <ele>10.0</ele>
        <time>2019-05-17T11:01:07.178Z</time>
      </trkpt>
      <trkpt lat="39.32803333" lon="-8.55346333">
        <ele>10.0</ele>
        <time>2019-05-17T11:01:08.187Z</time>
      </trkpt>
      <trkpt lat="39.328065" lon="-8.55340167">
        <ele>10.0</ele>
        <time>2019-05-17T11:01:09.175Z</time>
      </trkpt>
      <trkpt lat="39.32807833" lon="-8.55337167">
        <ele>10.0</ele>
        <time>2019-05-17T11:01:10.168Z</time>
      </trkpt>
      <trkpt lat="39.32807833" lon="-8.55337167">
        <ele>10.0</ele>
        <time>2019-05-17T11:01:11.164Z</time>
      </trkpt>
      <trkpt lat="39.32811" lon="-8.55331">
        <ele>9.0</ele>
        <time>2019-05-17T11:01:12.181Z</time>
      </trkpt>
      <trkpt lat="39.32812667" lon="-8.55327667">
        <ele>9.0</ele>
        <time>2019-05-17T11:01:13.154Z</time>
      </trkpt>
      <trkpt lat="39.32812667" lon="-8.55327667">
        <ele>9.0</ele>
        <time>2019-05-17T11:01:14.165Z</time>
      </trkpt>
      <trkpt lat="39.32816167" lon="-8.55321">
        <ele>9.0</ele>
        <time>2019-05-17T11:01:15.177Z</time>
      </trkpt>
      <trkpt lat="39.32816167" lon="-8.55321">
        <ele>9.0</ele>
        <time>2019-05-17T11:01:16.186Z</time>
      </trkpt>
      <trkpt lat="39.32819667" lon="-8.553145">
        <ele>9.0</ele>
        <time>2019-05-17T11:01:17.163Z</time>
      </trkpt>
      <trkpt lat="39.32819667" lon="-8.553145">
        <ele>9.0</ele>
        <time>2019-05-17T11:01:18.182Z</time>
      </trkpt>
      <trkpt lat="39.32823" lon="-8.55308667">
        <ele>9.0</ele>
        <time>2019-05-17T11:01:19.158Z</time>
      </trkpt>
      <trkpt lat="39.32823" lon="-8.55308667">
        <ele>9.0</ele>
        <time>2019-05-17T11:01:20.171Z</time>
      </trkpt>
      <trkpt lat="39.32825667" lon="-8.553035">
        <ele>9.0</ele>
        <time>2019-05-17T11:01:21.188Z</time>
      </trkpt>
      <trkpt lat="39.32825667" lon="-8.553035">
        <ele>9.0</ele>
        <time>2019-05-17T11:01:22.164Z</time>
      </trkpt>
      <trkpt lat="39.32829" lon="-8.552985">
        <ele>9.0</ele>
        <time>2019-05-17T11:01:23.176Z</time>
      </trkpt>
      <trkpt lat="39.32829" lon="-8.552985">
        <ele>9.0</ele>
        <time>2019-05-17T11:01:24.171Z</time>
      </trkpt>
      <trkpt lat="39.32832167" lon="-8.55292333">
        <ele>9.0</ele>
        <time>2019-05-17T11:01:25.188Z</time>
      </trkpt>
      <trkpt lat="39.32832167" lon="-8.55292333">
        <ele>9.0</ele>
        <time>2019-05-17T11:01:26.177Z</time>
      </trkpt>
      <trkpt lat="39.32835167" lon="-8.55285667">
        <ele>9.0</ele>
        <time>2019-05-17T11:01:27.155Z</time>
      </trkpt>
      <trkpt lat="39.32835167" lon="-8.55285667">
        <ele>9.0</ele>
        <time>2019-05-17T11:01:28.181Z</time>
      </trkpt>
      <trkpt lat="39.32838333" lon="-8.55278667">
        <ele>10.0</ele>
        <time>2019-05-17T11:01:29.161Z</time>
      </trkpt>
      <trkpt lat="39.32838333" lon="-8.55278667">
        <ele>10.0</ele>
        <time>2019-05-17T11:01:30.177Z</time>
      </trkpt>
      <trkpt lat="39.32841833" lon="-8.55272333">
        <ele>10.0</ele>
        <time>2019-05-17T11:01:31.154Z</time>
      </trkpt>
      <trkpt lat="39.32841833" lon="-8.55272333">
        <ele>10.0</ele>
        <time>2019-05-17T11:01:32.173Z</time>
      </trkpt>
      <trkpt lat="39.32844667" lon="-8.552665">
        <ele>11.0</ele>
        <time>2019-05-17T11:01:33.160Z</time>
      </trkpt>
      <trkpt lat="39.32844667" lon="-8.552665">
        <ele>11.0</ele>
        <time>2019-05-17T11:01:34.174Z</time>
      </trkpt>
      <trkpt lat="39.32848" lon="-8.55260333">
        <ele>11.0</ele>
        <time>2019-05-17T11:01:35.150Z</time>
      </trkpt>
      <trkpt lat="39.32848" lon="-8.55260333">
        <ele>11.0</ele>
        <time>2019-05-17T11:01:36.160Z</time>
      </trkpt>
      <trkpt lat="39.32851167" lon="-8.55253833">
        <ele>11.0</ele>
        <time>2019-05-17T11:01:37.185Z</time>
      </trkpt>
      <trkpt lat="39.32851167" lon="-8.55253833">
        <ele>11.0</ele>
        <time>2019-05-17T11:01:38.167Z</time>
      </trkpt>
      <trkpt lat="39.328545" lon="-8.55247333">
        <ele>10.0</ele>
        <time>2019-05-17T11:01:39.159Z</time>
      </trkpt>
      <trkpt lat="39.328545" lon="-8.55247333">
        <ele>10.0</ele>
        <time>2019-05-17T11:01:40.166Z</time>
      </trkpt>
      <trkpt lat="39.32858167" lon="-8.55240333">
        <ele>11.0</ele>
        <time>2019-05-17T11:01:41.177Z</time>
      </trkpt>
      <trkpt lat="39.3286" lon="-8.55237">
        <ele>11.0</ele>
        <time>2019-05-17T11:01:42.161Z</time>
      </trkpt>
      <trkpt lat="39.3286" lon="-8.55237">
        <ele>11.0</ele>
        <time>2019-05-17T11:01:43.171Z</time>
      </trkpt>
      <trkpt lat="39.328635" lon="-8.552305">
        <ele>11.0</ele>
        <time>2019-05-17T11:01:44.186Z</time>
      </trkpt>
      <trkpt lat="39.328635" lon="-8.552305">
        <ele>11.0</ele>
        <time>2019-05-17T11:01:45.161Z</time>
      </trkpt>
      <trkpt lat="39.32867167" lon="-8.55224167">
        <ele>11.0</ele>
        <time>2019-05-17T11:01:46.185Z</time>
      </trkpt>
      <trkpt lat="39.32869" lon="-8.55221">
        <ele>11.0</ele>
        <time>2019-05-17T11:01:47.169Z</time>
      </trkpt>
      <trkpt lat="39.32869" lon="-8.55221">
        <ele>11.0</ele>
        <time>2019-05-17T11:01:48.183Z</time>
      </trkpt>
      <trkpt lat="39.328725" lon="-8.552145">
        <ele>11.0</ele>
        <time>2019-05-17T11:01:49.164Z</time>
      </trkpt>
      <trkpt lat="39.32875167" lon="-8.55211333">
        <ele>12.0</ele>
        <time>2019-05-17T11:01:50.179Z</time>
      </trkpt>
      <trkpt lat="39.32875167" lon="-8.55211333">
        <ele>12.0</ele>
        <time>2019-05-17T11:01:51.153Z</time>
      </trkpt>
      <trkpt lat="39.32879" lon="-8.55204667">
        <ele>12.0</ele>
        <time>2019-05-17T11:01:52.168Z</time>
      </trkpt>
      <trkpt lat="39.32880667" lon="-8.552015">
        <ele>12.0</ele>
        <time>2019-05-17T11:01:53.153Z</time>
      </trkpt>
      <trkpt lat="39.32880667" lon="-8.552015">
        <ele>12.0</ele>
        <time>2019-05-17T11:01:54.163Z</time>
      </trkpt>
      <trkpt lat="39.32884167" lon="-8.55195">
        <ele>12.0</ele>
        <time>2019-05-17T11:01:55.183Z</time>
      </trkpt>
      <trkpt lat="39.32884167" lon="-8.55195">
        <ele>12.0</ele>
        <time>2019-05-17T11:01:56.164Z</time>
      </trkpt>
      <trkpt lat="39.32887667" lon="-8.551885">
        <ele>11.0</ele>
        <time>2019-05-17T11:01:57.178Z</time>
      </trkpt>
      <trkpt lat="39.32887667" lon="-8.551885">
        <ele>11.0</ele>
        <time>2019-05-17T11:01:58.171Z</time>
      </trkpt>
      <trkpt lat="39.32890833" lon="-8.55182167">
        <ele>11.0</ele>
        <time>2019-05-17T11:01:59.183Z</time>
      </trkpt>
      <trkpt lat="39.328925" lon="-8.55179333">
        <ele>11.0</ele>
        <time>2019-05-17T11:02:00.162Z</time>
      </trkpt>
      <trkpt lat="39.328925" lon="-8.55179333">
        <ele>11.0</ele>
        <time>2019-05-17T11:02:01.171Z</time>
      </trkpt>
      <trkpt lat="39.32895833" lon="-8.55174">
        <ele>11.0</ele>
        <time>2019-05-17T11:02:02.193Z</time>
      </trkpt>
      <trkpt lat="39.32895833" lon="-8.55174">
        <ele>11.0</ele>
        <time>2019-05-17T11:02:03.171Z</time>
      </trkpt>
      <trkpt lat="39.32899167" lon="-8.55168167">
        <ele>11.0</ele>
        <time>2019-05-17T11:02:04.181Z</time>
      </trkpt>
      <trkpt lat="39.32900833" lon="-8.55165">
        <ele>11.0</ele>
        <time>2019-05-17T11:02:05.168Z</time>
      </trkpt>
      <trkpt lat="39.32900833" lon="-8.55165">
        <ele>11.0</ele>
        <time>2019-05-17T11:02:06.150Z</time>
      </trkpt>
      <trkpt lat="39.32903833" lon="-8.55158167">
        <ele>11.0</ele>
        <time>2019-05-17T11:02:07.188Z</time>
      </trkpt>
      <trkpt lat="39.32903833" lon="-8.55158167">
        <ele>11.0</ele>
        <time>2019-05-17T11:02:08.184Z</time>
      </trkpt>
      <trkpt lat="39.32907" lon="-8.551515">
        <ele>11.0</ele>
        <time>2019-05-17T11:02:09.170Z</time>
      </trkpt>
      <trkpt lat="39.32907" lon="-8.551515">
        <ele>11.0</ele>
        <time>2019-05-17T11:02:10.175Z</time>
      </trkpt>
      <trkpt lat="39.32910167" lon="-8.551455">
        <ele>10.0</ele>
        <time>2019-05-17T11:02:11.150Z</time>
      </trkpt>
      <trkpt lat="39.32910167" lon="-8.551455">
        <ele>10.0</ele>
        <time>2019-05-17T11:02:12.160Z</time>
      </trkpt>
      <trkpt lat="39.32913833" lon="-8.55139667">
        <ele>11.0</ele>
        <time>2019-05-17T11:02:13.186Z</time>
      </trkpt>
      <trkpt lat="39.32915333" lon="-8.551365">
        <ele>11.0</ele>
        <time>2019-05-17T11:02:14.175Z</time>
      </trkpt>
      <trkpt lat="39.32915333" lon="-8.551365">
        <ele>11.0</ele>
        <time>2019-05-17T11:02:15.151Z</time>
      </trkpt>
      <trkpt lat="39.329185" lon="-8.55130167">
        <ele>11.0</ele>
        <time>2019-05-17T11:02:16.162Z</time>
      </trkpt>
      <trkpt lat="39.32920333" lon="-8.55127">
        <ele>11.0</ele>
        <time>2019-05-17T11:02:17.169Z</time>
      </trkpt>
      <trkpt lat="39.32920333" lon="-8.55127">
        <ele>11.0</ele>
        <time>2019-05-17T11:02:18.171Z</time>
      </trkpt>
      <trkpt lat="39.32924" lon="-8.55120667">
        <ele>11.0</ele>
        <time>2019-05-17T11:02:19.188Z</time>
      </trkpt>
      <trkpt lat="39.32924" lon="-8.55120667">
        <ele>11.0</ele>
        <time>2019-05-17T11:02:20.164Z</time>
      </trkpt>
      <trkpt lat="39.329275" lon="-8.55113833">
        <ele>10.0</ele>
        <time>2019-05-17T11:02:21.183Z</time>
      </trkpt>
      <trkpt lat="39.329275" lon="-8.55113833">
        <ele>10.0</ele>
        <time>2019-05-17T11:02:22.152Z</time>
      </trkpt>
      <trkpt lat="39.32930667" lon="-8.55108167">
        <ele>10.0</ele>
        <time>2019-05-17T11:02:23.161Z</time>
      </trkpt>
      <trkpt lat="39.32930667" lon="-8.55108167">
        <ele>10.0</ele>
        <time>2019-05-17T11:02:24.174Z</time>
      </trkpt>
      <trkpt lat="39.329335" lon="-8.55102333">
        <ele>11.0</ele>
        <time>2019-05-17T11:02:25.150Z</time>
      </trkpt>
      <trkpt lat="39.329335" lon="-8.55102333">
        <ele>11.0</ele>
        <time>2019-05-17T11:02:26.171Z</time>
      </trkpt>
      <trkpt lat="39.329365" lon="-8.55096">
        <ele>10.0</ele>
        <time>2019-05-17T11:02:27.150Z</time>
      </trkpt>
      <trkpt lat="39.32938167" lon="-8.55092833">
        <ele>10.0</ele>
        <time>2019-05-17T11:02:28.185Z</time>
      </trkpt>
      <trkpt lat="39.3294" lon="-8.550895">
        <ele>10.0</ele>
        <time>2019-05-17T11:02:29.163Z</time>
      </trkpt>
      <trkpt lat="39.3294" lon="-8.550895">
        <ele>10.0</ele>
        <time>2019-05-17T11:02:30.172Z</time>
      </trkpt>
      <trkpt lat="39.329435" lon="-8.55083">
        <ele>10.0</ele>
        <time>2019-05-17T11:02:31.189Z</time>
      </trkpt>
      <trkpt lat="39.329435" lon="-8.55083">
        <ele>10.0</ele>
        <time>2019-05-17T11:02:32.184Z</time>
      </trkpt>
      <trkpt lat="39.32946833" lon="-8.55076167">
        <ele>10.0</ele>
        <time>2019-05-17T11:02:33.151Z</time>
      </trkpt>
      <trkpt lat="39.32946833" lon="-8.55076167">
        <ele>10.0</ele>
        <time>2019-05-17T11:02:34.178Z</time>
      </trkpt>
      <trkpt lat="39.329505" lon="-8.55069333">
        <ele>10.0</ele>
        <time>2019-05-17T11:02:35.176Z</time>
      </trkpt>
      <trkpt lat="39.329505" lon="-8.55069333">
        <ele>10.0</ele>
        <time>2019-05-17T11:02:36.153Z</time>
      </trkpt>
      <trkpt lat="39.32954167" lon="-8.55062">
        <ele>10.0</ele>
        <time>2019-05-17T11:02:37.177Z</time>
      </trkpt>
      <trkpt lat="39.32954167" lon="-8.55062">
        <ele>10.0</ele>
        <time>2019-05-17T11:02:38.180Z</time>
      </trkpt>
      <trkpt lat="39.32958167" lon="-8.55054833">
        <ele>10.0</ele>
        <time>2019-05-17T11:02:39.152Z</time>
      </trkpt>
      <trkpt lat="39.32958167" lon="-8.55054833">
        <ele>10.0</ele>
        <time>2019-05-17T11:02:40.158Z</time>
      </trkpt>
      <trkpt lat="39.32962167" lon="-8.55048667">
        <ele>10.0</ele>
        <time>2019-05-17T11:02:41.178Z</time>
      </trkpt>
      <trkpt lat="39.32962167" lon="-8.55048667">
        <ele>10.0</ele>
        <time>2019-05-17T11:02:42.152Z</time>
      </trkpt>
      <trkpt lat="39.32965167" lon="-8.55042333">
        <ele>10.0</ele>
        <time>2019-05-17T11:02:43.176Z</time>
      </trkpt>
      <trkpt lat="39.32965167" lon="-8.55042333">
        <ele>10.0</ele>
        <time>2019-05-17T11:02:44.172Z</time>
      </trkpt>
      <trkpt lat="39.32968" lon="-8.55036">
        <ele>10.0</ele>
        <time>2019-05-17T11:02:45.163Z</time>
      </trkpt>
      <trkpt lat="39.32968" lon="-8.55036">
        <ele>10.0</ele>
        <time>2019-05-17T11:02:46.175Z</time>
      </trkpt>
      <trkpt lat="39.32971" lon="-8.55029167">
        <ele>10.0</ele>
        <time>2019-05-17T11:02:47.187Z</time>
      </trkpt>
      <trkpt lat="39.32971" lon="-8.55029167">
        <ele>10.0</ele>
        <time>2019-05-17T11:02:48.158Z</time>
      </trkpt>
      <trkpt lat="39.32974167" lon="-8.55021667">
        <ele>10.0</ele>
        <time>2019-05-17T11:02:49.170Z</time>
      </trkpt>
      <trkpt lat="39.32974167" lon="-8.55021667">
        <ele>10.0</ele>
        <time>2019-05-17T11:02:50.174Z</time>
      </trkpt>
      <trkpt lat="39.32977833" lon="-8.550145">
        <ele>9.0</ele>
        <time>2019-05-17T11:02:51.190Z</time>
      </trkpt>
      <trkpt lat="39.32979667" lon="-8.55011167">
        <ele>9.0</ele>
        <time>2019-05-17T11:02:52.182Z</time>
      </trkpt>
      <trkpt lat="39.32981167" lon="-8.55007833">
        <ele>9.0</ele>
        <time>2019-05-17T11:02:53.156Z</time>
      </trkpt>
      <trkpt lat="39.32981167" lon="-8.55007833">
        <ele>9.0</ele>
        <time>2019-05-17T11:02:54.174Z</time>
      </trkpt>
      <trkpt lat="39.329845" lon="-8.55001">
        <ele>9.0</ele>
        <time>2019-05-17T11:02:55.150Z</time>
      </trkpt>
      <trkpt lat="39.329845" lon="-8.55001">
        <ele>9.0</ele>
        <time>2019-05-17T11:02:56.162Z</time>
      </trkpt>
      <trkpt lat="39.32986667" lon="-8.54994">
        <ele>10.0</ele>
        <time>2019-05-17T11:02:57.185Z</time>
      </trkpt>
      <trkpt lat="39.32987" lon="-8.54991667">
        <ele>10.0</ele>
        <time>2019-05-17T11:02:58.173Z</time>
      </trkpt>
      <trkpt lat="39.32987333" lon="-8.54990167">
        <ele>10.0</ele>
        <time>2019-05-17T11:02:59.172Z</time>
      </trkpt>
      <trkpt lat="39.32987333" lon="-8.54990167">
        <ele>10.0</ele>
        <time>2019-05-17T11:03:00.179Z</time>
      </trkpt>
      <trkpt lat="39.32987667" lon="-8.549885">
        <ele>11.0</ele>
        <time>2019-05-17T11:03:01.158Z</time>
      </trkpt>
      <trkpt lat="39.32987667" lon="-8.549885">
        <ele>11.0</ele>
        <time>2019-05-17T11:03:02.179Z</time>
      </trkpt>
      <trkpt lat="39.32987667" lon="-8.54988333">
        <ele>11.0</ele>
        <time>2019-05-17T11:03:03.153Z</time>
      </trkpt>
      <trkpt lat="39.32987667" lon="-8.54988333">
        <ele>11.0</ele>
        <time>2019-05-17T11:03:04.165Z</time>
      </trkpt>
      <trkpt lat="39.32987667" lon="-8.54988333">
        <ele>11.0</ele>
        <time>2019-05-17T11:03:05.171Z</time>
      </trkpt>
      <trkpt lat="39.32987667" lon="-8.54988333">
        <ele>11.0</ele>
        <time>2019-05-17T11:03:06.177Z</time>
      </trkpt>
      <trkpt lat="39.32988167" lon="-8.54987667">
        <ele>11.0</ele>
        <time>2019-05-17T11:03:07.184Z</time>
      </trkpt>
      <trkpt lat="39.32988167" lon="-8.54987667">
        <ele>11.0</ele>
        <time>2019-05-17T11:03:08.188Z</time>
      </trkpt>
      <trkpt lat="39.32989667" lon="-8.54985333">
        <ele>10.0</ele>
        <time>2019-05-17T11:03:09.170Z</time>
      </trkpt>
      <trkpt lat="39.32990667" lon="-8.549835">
        <ele>10.0</ele>
        <time>2019-05-17T11:03:10.180Z</time>
      </trkpt>
      <trkpt lat="39.329915" lon="-8.54981333">
        <ele>10.0</ele>
        <time>2019-05-17T11:03:11.186Z</time>
      </trkpt>
      <trkpt lat="39.329915" lon="-8.54981333">
        <ele>10.0</ele>
        <time>2019-05-17T11:03:12.152Z</time>
      </trkpt>
      <trkpt lat="39.329935" lon="-8.54977167">
        <ele>10.0</ele>
        <time>2019-05-17T11:03:13.185Z</time>
      </trkpt>
      <trkpt lat="39.329935" lon="-8.54977167">
        <ele>10.0</ele>
        <time>2019-05-17T11:03:14.183Z</time>
      </trkpt>
      <trkpt lat="39.32995833" lon="-8.54972833">
        <ele>9.0</ele>
        <time>2019-05-17T11:03:15.184Z</time>
      </trkpt>
      <trkpt lat="39.32995833" lon="-8.54972833">
        <ele>9.0</ele>
        <time>2019-05-17T11:03:16.179Z</time>
      </trkpt>
      <trkpt lat="39.329985" lon="-8.54969167">
        <ele>9.0</ele>
        <time>2019-05-17T11:03:17.150Z</time>
      </trkpt>
      <trkpt lat="39.329985" lon="-8.54969167">
        <ele>9.0</ele>
        <time>2019-05-17T11:03:18.160Z</time>
      </trkpt>
      <trkpt lat="39.33000833" lon="-8.549655">
        <ele>9.0</ele>
        <time>2019-05-17T11:03:19.172Z</time>
      </trkpt>
      <trkpt lat="39.33000833" lon="-8.549655">
        <ele>9.0</ele>
        <time>2019-05-17T11:03:20.161Z</time>
      </trkpt>
      <trkpt lat="39.33003667" lon="-8.54961833">
        <ele>10.0</ele>
        <time>2019-05-17T11:03:21.180Z</time>
      </trkpt>
      <trkpt lat="39.33003667" lon="-8.54961833">
        <ele>10.0</ele>
        <time>2019-05-17T11:03:22.188Z</time>
      </trkpt>
      <trkpt lat="39.330065" lon="-8.54957833">
        <ele>10.0</ele>
        <time>2019-05-17T11:03:23.170Z</time>
      </trkpt>
      <trkpt lat="39.330065" lon="-8.54957833">
        <ele>10.0</ele>
        <time>2019-05-17T11:03:24.178Z</time>
      </trkpt>
      <trkpt lat="39.33009333" lon="-8.54953833">
        <ele>10.0</ele>
        <time>2019-05-17T11:03:25.158Z</time>
      </trkpt>
      <trkpt lat="39.33009333" lon="-8.54953833">
        <ele>10.0</ele>
        <time>2019-05-17T11:03:26.171Z</time>
      </trkpt>
      <trkpt lat="39.33012667" lon="-8.549495">
        <ele>10.0</ele>
        <time>2019-05-17T11:03:27.160Z</time>
      </trkpt>
      <trkpt lat="39.33012667" lon="-8.549495">
        <ele>10.0</ele>
        <time>2019-05-17T11:03:28.189Z</time>
      </trkpt>
      <trkpt lat="39.330155" lon="-8.54945667">
        <ele>11.0</ele>
        <time>2019-05-17T11:03:29.164Z</time>
      </trkpt>
      <trkpt lat="39.330155" lon="-8.54945667">
        <ele>11.0</ele>
        <time>2019-05-17T11:03:30.186Z</time>
      </trkpt>
      <trkpt lat="39.33018167" lon="-8.549415">
        <ele>11.0</ele>
        <time>2019-05-17T11:03:31.158Z</time>
      </trkpt>
      <trkpt lat="39.33018167" lon="-8.549415">
        <ele>11.0</ele>
        <time>2019-05-17T11:03:32.152Z</time>
      </trkpt>
      <trkpt lat="39.33021" lon="-8.549375">
        <ele>11.0</ele>
        <time>2019-05-17T11:03:33.169Z</time>
      </trkpt>
      <trkpt lat="39.33021" lon="-8.549375">
        <ele>11.0</ele>
        <time>2019-05-17T11:03:34.182Z</time>
      </trkpt>
      <trkpt lat="39.33023667" lon="-8.54933833">
        <ele>12.0</ele>
        <time>2019-05-17T11:03:35.158Z</time>
      </trkpt>
      <trkpt lat="39.33023667" lon="-8.54933833">
        <ele>12.0</ele>
        <time>2019-05-17T11:03:36.174Z</time>
      </trkpt>
      <trkpt lat="39.33026333" lon="-8.54929667">
        <ele>12.0</ele>
        <time>2019-05-17T11:03:37.188Z</time>
      </trkpt>
      <trkpt lat="39.33026333" lon="-8.54929667">
        <ele>12.0</ele>
        <time>2019-05-17T11:03:38.163Z</time>
      </trkpt>
      <trkpt lat="39.33029" lon="-8.54925667">
        <ele>12.0</ele>
        <time>2019-05-17T11:03:39.180Z</time>
      </trkpt>
      <trkpt lat="39.33029" lon="-8.54925667">
        <ele>12.0</ele>
        <time>2019-05-17T11:03:40.150Z</time>
      </trkpt>
      <trkpt lat="39.33031167" lon="-8.54922167">
        <ele>12.0</ele>
        <time>2019-05-17T11:03:41.165Z</time>
      </trkpt>
      <trkpt lat="39.33031167" lon="-8.54922167">
        <ele>12.0</ele>
        <time>2019-05-17T11:03:42.174Z</time>
      </trkpt>
      <trkpt lat="39.33033833" lon="-8.549185">
        <ele>13.0</ele>
        <time>2019-05-17T11:03:43.154Z</time>
      </trkpt>
      <trkpt lat="39.33033833" lon="-8.549185">
        <ele>13.0</ele>
        <time>2019-05-17T11:03:44.159Z</time>
      </trkpt>
      <trkpt lat="39.33036667" lon="-8.54914333">
        <ele>13.0</ele>
        <time>2019-05-17T11:03:45.181Z</time>
      </trkpt>
      <trkpt lat="39.33038167" lon="-8.54912">
        <ele>13.0</ele>
        <time>2019-05-17T11:03:46.155Z</time>
      </trkpt>
      <trkpt lat="39.33039833" lon="-8.54909667">
        <ele>13.0</ele>
        <time>2019-05-17T11:03:47.190Z</time>
      </trkpt>
      <trkpt lat="39.33039833" lon="-8.54909667">
        <ele>13.0</ele>
        <time>2019-05-17T11:03:48.161Z</time>
      </trkpt>
      <trkpt lat="39.33043" lon="-8.54905667">
        <ele>13.0</ele>
        <time>2019-05-17T11:03:49.178Z</time>
      </trkpt>
      <trkpt lat="39.33044333" lon="-8.54903667">
        <ele>13.0</ele>
        <time>2019-05-17T11:03:50.156Z</time>
      </trkpt>
      <trkpt lat="39.33044333" lon="-8.54903667">
        <ele>13.0</ele>
        <time>2019-05-17T11:03:51.164Z</time>
      </trkpt>
      <trkpt lat="39.33046833" lon="-8.54899667">
        <ele>13.0</ele>
        <time>2019-05-17T11:03:52.177Z</time>
      </trkpt>
      <trkpt lat="39.33048333" lon="-8.548975">
        <ele>13.0</ele>
        <time>2019-05-17T11:03:53.156Z</time>
      </trkpt>
      <trkpt lat="39.33048333" lon="-8.548975">
        <ele>13.0</ele>
        <time>2019-05-17T11:03:54.173Z</time>
      </trkpt>
      <trkpt lat="39.330515" lon="-8.54892833">
        <ele>13.0</ele>
        <time>2019-05-17T11:03:55.188Z</time>
      </trkpt>
      <trkpt lat="39.330515" lon="-8.54892833">
        <ele>13.0</ele>
        <time>2019-05-17T11:03:56.155Z</time>
      </trkpt>
      <trkpt lat="39.330555" lon="-8.54887333">
        <ele>13.0</ele>
        <time>2019-05-17T11:03:57.169Z</time>
      </trkpt>
      <trkpt lat="39.33057667" lon="-8.54883833">
        <ele>13.0</ele>
        <time>2019-05-17T11:03:58.156Z</time>
      </trkpt>
      <trkpt lat="39.3306" lon="-8.54880667">
        <ele>13.0</ele>
        <time>2019-05-17T11:03:59.182Z</time>
      </trkpt>
      <trkpt lat="39.3306" lon="-8.54880667">
        <ele>13.0</ele>
        <time>2019-05-17T11:04:00.188Z</time>
      </trkpt>
      <trkpt lat="39.330645" lon="-8.54874667">
        <ele>13.0</ele>
        <time>2019-05-17T11:04:01.171Z</time>
      </trkpt>
      <trkpt lat="39.330645" lon="-8.54874667">
        <ele>13.0</ele>
        <time>2019-05-17T11:04:02.177Z</time>
      </trkpt>
      <trkpt lat="39.33068333" lon="-8.54869667">
        <ele>13.0</ele>
        <time>2019-05-17T11:04:03.159Z</time>
      </trkpt>
      <trkpt lat="39.33070333" lon="-8.54867167">
        <ele>13.0</ele>
        <time>2019-05-17T11:04:04.180Z</time>
      </trkpt>
      <trkpt lat="39.33072167" lon="-8.548645">
        <ele>13.0</ele>
        <time>2019-05-17T11:04:05.161Z</time>
      </trkpt>
      <trkpt lat="39.33072167" lon="-8.548645">
        <ele>13.0</ele>
        <time>2019-05-17T11:04:06.180Z</time>
      </trkpt>
      <trkpt lat="39.33076333" lon="-8.54859">
        <ele>13.0</ele>
        <time>2019-05-17T11:04:07.161Z</time>
      </trkpt>
      <trkpt lat="39.33076333" lon="-8.54859">
        <ele>13.0</ele>
        <time>2019-05-17T11:04:08.179Z</time>
      </trkpt>
      <trkpt lat="39.33080333" lon="-8.54853333">
        <ele>12.0</ele>
        <time>2019-05-17T11:04:09.169Z</time>
      </trkpt>
      <trkpt lat="39.33080333" lon="-8.54853333">
        <ele>12.0</ele>
        <time>2019-05-17T11:04:10.168Z</time>
      </trkpt>
      <trkpt lat="39.330845" lon="-8.54847667">
        <ele>12.0</ele>
        <time>2019-05-17T11:04:11.182Z</time>
      </trkpt>
      <trkpt lat="39.330845" lon="-8.54847667">
        <ele>12.0</ele>
        <time>2019-05-17T11:04:12.157Z</time>
      </trkpt>
      <trkpt lat="39.33088333" lon="-8.54842333">
        <ele>12.0</ele>
        <time>2019-05-17T11:04:13.166Z</time>
      </trkpt>
      <trkpt lat="39.33088333" lon="-8.54842333">
        <ele>12.0</ele>
        <time>2019-05-17T11:04:14.185Z</time>
      </trkpt>
      <trkpt lat="39.33091833" lon="-8.54837167">
        <ele>12.0</ele>
        <time>2019-05-17T11:04:15.158Z</time>
      </trkpt>
      <trkpt lat="39.33091833" lon="-8.54837167">
        <ele>12.0</ele>
        <time>2019-05-17T11:04:16.174Z</time>
      </trkpt>
      <trkpt lat="39.33095167" lon="-8.54832167">
        <ele>12.0</ele>
        <time>2019-05-17T11:04:17.150Z</time>
      </trkpt>
      <trkpt lat="39.33095167" lon="-8.54832167">
        <ele>12.0</ele>
        <time>2019-05-17T11:04:18.162Z</time>
      </trkpt>
      <trkpt lat="39.330985" lon="-8.54827667">
        <ele>12.0</ele>
        <time>2019-05-17T11:04:19.184Z</time>
      </trkpt>
      <trkpt lat="39.330985" lon="-8.54827667">
        <ele>12.0</ele>
        <time>2019-05-17T11:04:20.163Z</time>
      </trkpt>
      <trkpt lat="39.331015" lon="-8.54823833">
        <ele>12.0</ele>
        <time>2019-05-17T11:04:21.178Z</time>
      </trkpt>
      <trkpt lat="39.33102833" lon="-8.54821667">
        <ele>12.0</ele>
        <time>2019-05-17T11:04:22.157Z</time>
      </trkpt>
      <trkpt lat="39.33104333" lon="-8.548195">
        <ele>12.0</ele>
        <time>2019-05-17T11:04:23.182Z</time>
      </trkpt>
      <trkpt lat="39.33104333" lon="-8.548195">
        <ele>12.0</ele>
        <time>2019-05-17T11:04:24.155Z</time>
      </trkpt>
      <trkpt lat="39.33108" lon="-8.548145">
        <ele>12.0</ele>
        <time>2019-05-17T11:04:25.164Z</time>
      </trkpt>
      <trkpt lat="39.33108" lon="-8.548145">
        <ele>12.0</ele>
        <time>2019-05-17T11:04:26.175Z</time>
      </trkpt>
      <trkpt lat="39.33112" lon="-8.54808667">
        <ele>12.0</ele>
        <time>2019-05-17T11:04:27.155Z</time>
      </trkpt>
      <trkpt lat="39.33112" lon="-8.54808667">
        <ele>12.0</ele>
        <time>2019-05-17T11:04:28.180Z</time>
      </trkpt>
      <trkpt lat="39.331165" lon="-8.54803">
        <ele>11.0</ele>
        <time>2019-05-17T11:04:29.154Z</time>
      </trkpt>
      <trkpt lat="39.331165" lon="-8.54803">
        <ele>11.0</ele>
        <time>2019-05-17T11:04:30.162Z</time>
      </trkpt>
      <trkpt lat="39.33120667" lon="-8.547965">
        <ele>11.0</ele>
        <time>2019-05-17T11:04:31.153Z</time>
      </trkpt>
      <trkpt lat="39.33120667" lon="-8.547965">
        <ele>11.0</ele>
        <time>2019-05-17T11:04:32.184Z</time>
      </trkpt>
      <trkpt lat="39.33125333" lon="-8.547905">
        <ele>11.0</ele>
        <time>2019-05-17T11:04:33.154Z</time>
      </trkpt>
      <trkpt lat="39.331275" lon="-8.54787333">
        <ele>11.0</ele>
        <time>2019-05-17T11:04:34.160Z</time>
      </trkpt>
      <trkpt lat="39.33129667" lon="-8.54784167">
        <ele>11.0</ele>
        <time>2019-05-17T11:04:35.152Z</time>
      </trkpt>
      <trkpt lat="39.33129667" lon="-8.54784167">
        <ele>11.0</ele>
        <time>2019-05-17T11:04:36.163Z</time>
      </trkpt>
      <trkpt lat="39.33134333" lon="-8.54777667">
        <ele>11.0</ele>
        <time>2019-05-17T11:04:37.185Z</time>
      </trkpt>
      <trkpt lat="39.33134333" lon="-8.54777667">
        <ele>11.0</ele>
        <time>2019-05-17T11:04:38.150Z</time>
      </trkpt>
      <trkpt lat="39.33138667" lon="-8.54771833">
        <ele>11.0</ele>
        <time>2019-05-17T11:04:39.163Z</time>
      </trkpt>
      <trkpt lat="39.33138667" lon="-8.54771833">
        <ele>11.0</ele>
        <time>2019-05-17T11:04:40.178Z</time>
      </trkpt>
      <trkpt lat="39.33142333" lon="-8.54766833">
        <ele>11.0</ele>
        <time>2019-05-17T11:04:41.173Z</time>
      </trkpt>
      <trkpt lat="39.33142333" lon="-8.54766833">
        <ele>11.0</ele>
        <time>2019-05-17T11:04:42.152Z</time>
      </trkpt>
      <trkpt lat="39.33146667" lon="-8.54761833">
        <ele>11.0</ele>
        <time>2019-05-17T11:04:43.167Z</time>
      </trkpt>
      <trkpt lat="39.33146667" lon="-8.54761833">
        <ele>11.0</ele>
        <time>2019-05-17T11:04:44.181Z</time>
      </trkpt>
      <trkpt lat="39.331505" lon="-8.547565">
        <ele>11.0</ele>
        <time>2019-05-17T11:04:45.151Z</time>
      </trkpt>
      <trkpt lat="39.331505" lon="-8.547565">
        <ele>11.0</ele>
        <time>2019-05-17T11:04:46.164Z</time>
      </trkpt>
      <trkpt lat="39.331545" lon="-8.54750833">
        <ele>11.0</ele>
        <time>2019-05-17T11:04:47.187Z</time>
      </trkpt>
      <trkpt lat="39.331545" lon="-8.54750833">
        <ele>11.0</ele>
        <time>2019-05-17T11:04:48.165Z</time>
      </trkpt>
      <trkpt lat="39.33158833" lon="-8.54745">
        <ele>11.0</ele>
        <time>2019-05-17T11:04:49.175Z</time>
      </trkpt>
      <trkpt lat="39.33161167" lon="-8.54742167">
        <ele>11.0</ele>
        <time>2019-05-17T11:04:50.159Z</time>
      </trkpt>
      <trkpt lat="39.33161167" lon="-8.54742167">
        <ele>11.0</ele>
        <time>2019-05-17T11:04:51.175Z</time>
      </trkpt>
      <trkpt lat="39.33165667" lon="-8.54736333">
        <ele>11.0</ele>
        <time>2019-05-17T11:04:52.150Z</time>
      </trkpt>
      <trkpt lat="39.33165667" lon="-8.54736333">
        <ele>11.0</ele>
        <time>2019-05-17T11:04:53.157Z</time>
      </trkpt>
      <trkpt lat="39.3317" lon="-8.54730167">
        <ele>11.0</ele>
        <time>2019-05-17T11:04:54.172Z</time>
      </trkpt>
      <trkpt lat="39.33172167" lon="-8.54727">
        <ele>11.0</ele>
        <time>2019-05-17T11:04:55.163Z</time>
      </trkpt>
      <trkpt lat="39.33172167" lon="-8.54727">
        <ele>11.0</ele>
        <time>2019-05-17T11:04:56.178Z</time>
      </trkpt>
      <trkpt lat="39.33176667" lon="-8.54720667">
        <ele>11.0</ele>
        <time>2019-05-17T11:04:57.167Z</time>
      </trkpt>
      <trkpt lat="39.33179167" lon="-8.54717667">
        <ele>11.0</ele>
        <time>2019-05-17T11:04:58.150Z</time>
      </trkpt>
      <trkpt lat="39.33181333" lon="-8.54714667">
        <ele>11.0</ele>
        <time>2019-05-17T11:04:59.187Z</time>
      </trkpt>
      <trkpt lat="39.33181333" lon="-8.54714667">
        <ele>11.0</ele>
        <time>2019-05-17T11:05:00.157Z</time>
      </trkpt>
      <trkpt lat="39.33185" lon="-8.54709833">
        <ele>11.0</ele>
        <time>2019-05-17T11:05:01.173Z</time>
      </trkpt>
      <trkpt lat="39.33186167" lon="-8.54707833">
        <ele>11.0</ele>
        <time>2019-05-17T11:05:02.155Z</time>
      </trkpt>
      <trkpt lat="39.33186167" lon="-8.54707833">
        <ele>11.0</ele>
        <time>2019-05-17T11:05:03.165Z</time>
      </trkpt>
      <trkpt lat="39.33189833" lon="-8.54703667">
        <ele>11.0</ele>
        <time>2019-05-17T11:05:04.188Z</time>
      </trkpt>
      <trkpt lat="39.331915" lon="-8.547015">
        <ele>11.0</ele>
        <time>2019-05-17T11:05:05.336Z</time>
      </trkpt>
      <trkpt lat="39.331915" lon="-8.547015">
        <ele>11.0</ele>
        <time>2019-05-17T11:05:06.152Z</time>
      </trkpt>
      <trkpt lat="39.331955" lon="-8.54696667">
        <ele>11.0</ele>
        <time>2019-05-17T11:05:07.176Z</time>
      </trkpt>
      <trkpt lat="39.33197667" lon="-8.54694">
        <ele>11.0</ele>
        <time>2019-05-17T11:05:08.154Z</time>
      </trkpt>
      <trkpt lat="39.33197667" lon="-8.54694">
        <ele>11.0</ele>
        <time>2019-05-17T11:05:09.162Z</time>
      </trkpt>
      <trkpt lat="39.332015" lon="-8.54688167">
        <ele>11.0</ele>
        <time>2019-05-17T11:05:10.150Z</time>
      </trkpt>
      <trkpt lat="39.33203667" lon="-8.54685">
        <ele>11.0</ele>
        <time>2019-05-17T11:05:11.161Z</time>
      </trkpt>
      <trkpt lat="39.33203667" lon="-8.54685">
        <ele>11.0</ele>
        <time>2019-05-17T11:05:12.174Z</time>
      </trkpt>
      <trkpt lat="39.33208167" lon="-8.54679">
        <ele>11.0</ele>
        <time>2019-05-17T11:05:13.151Z</time>
      </trkpt>
      <trkpt lat="39.33208167" lon="-8.54679">
        <ele>11.0</ele>
        <time>2019-05-17T11:05:14.159Z</time>
      </trkpt>
      <trkpt lat="39.332125" lon="-8.54673333">
        <ele>11.0</ele>
        <time>2019-05-17T11:05:15.159Z</time>
      </trkpt>
      <trkpt lat="39.332125" lon="-8.54673333">
        <ele>11.0</ele>
        <time>2019-05-17T11:05:16.179Z</time>
      </trkpt>
      <trkpt lat="39.332165" lon="-8.54668">
        <ele>11.0</ele>
        <time>2019-05-17T11:05:17.189Z</time>
      </trkpt>
      <trkpt lat="39.332165" lon="-8.54668">
        <ele>11.0</ele>
        <time>2019-05-17T11:05:18.157Z</time>
      </trkpt>
      <trkpt lat="39.33220833" lon="-8.54662667">
        <ele>11.0</ele>
        <time>2019-05-17T11:05:19.168Z</time>
      </trkpt>
      <trkpt lat="39.33222833" lon="-8.54659833">
        <ele>11.0</ele>
        <time>2019-05-17T11:05:20.190Z</time>
      </trkpt>
      <trkpt lat="39.33222833" lon="-8.54659833">
        <ele>11.0</ele>
        <time>2019-05-17T11:05:21.155Z</time>
      </trkpt>
      <trkpt lat="39.33226833" lon="-8.54654167">
        <ele>11.0</ele>
        <time>2019-05-17T11:05:22.166Z</time>
      </trkpt>
      <trkpt lat="39.33229" lon="-8.54651333">
        <ele>11.0</ele>
        <time>2019-05-17T11:05:23.155Z</time>
      </trkpt>
      <trkpt lat="39.33229" lon="-8.54651333">
        <ele>11.0</ele>
        <time>2019-05-17T11:05:24.164Z</time>
      </trkpt>
      <trkpt lat="39.33233" lon="-8.546455">
        <ele>11.0</ele>
        <time>2019-05-17T11:05:25.181Z</time>
      </trkpt>
      <trkpt lat="39.33235333" lon="-8.54642333">
        <ele>11.0</ele>
        <time>2019-05-17T11:05:26.160Z</time>
      </trkpt>
      <trkpt lat="39.33235333" lon="-8.54642333">
        <ele>11.0</ele>
        <time>2019-05-17T11:05:27.152Z</time>
      </trkpt>
      <trkpt lat="39.33239833" lon="-8.546365">
        <ele>11.0</ele>
        <time>2019-05-17T11:05:28.164Z</time>
      </trkpt>
      <trkpt lat="39.33241667" lon="-8.546335">
        <ele>11.0</ele>
        <time>2019-05-17T11:05:29.187Z</time>
      </trkpt>
      <trkpt lat="39.33241667" lon="-8.546335">
        <ele>11.0</ele>
        <time>2019-05-17T11:05:30.164Z</time>
      </trkpt>
      <trkpt lat="39.33245833" lon="-8.54628333">
        <ele>11.0</ele>
        <time>2019-05-17T11:05:31.163Z</time>
      </trkpt>
      <trkpt lat="39.33245833" lon="-8.54628333">
        <ele>11.0</ele>
        <time>2019-05-17T11:05:32.151Z</time>
      </trkpt>
      <trkpt lat="39.33249833" lon="-8.54622333">
        <ele>10.0</ele>
        <time>2019-05-17T11:05:33.175Z</time>
      </trkpt>
      <trkpt lat="39.33249833" lon="-8.54622333">
        <ele>10.0</ele>
        <time>2019-05-17T11:05:34.182Z</time>
      </trkpt>
      <trkpt lat="39.33254" lon="-8.54616833">
        <ele>10.0</ele>
        <time>2019-05-17T11:05:35.164Z</time>
      </trkpt>
      <trkpt lat="39.33254" lon="-8.54616833">
        <ele>10.0</ele>
        <time>2019-05-17T11:05:36.179Z</time>
      </trkpt>
      <trkpt lat="39.33257833" lon="-8.546115">
        <ele>10.0</ele>
        <time>2019-05-17T11:05:37.157Z</time>
      </trkpt>
      <trkpt lat="39.332595" lon="-8.54608833">
        <ele>10.0</ele>
        <time>2019-05-17T11:05:38.181Z</time>
      </trkpt>
      <trkpt lat="39.332595" lon="-8.54608833">
        <ele>10.0</ele>
        <time>2019-05-17T11:05:39.152Z</time>
      </trkpt>
      <trkpt lat="39.33263667" lon="-8.54604333">
        <ele>10.0</ele>
        <time>2019-05-17T11:05:40.177Z</time>
      </trkpt>
      <trkpt lat="39.332655" lon="-8.54602667">
        <ele>10.0</ele>
        <time>2019-05-17T11:05:41.168Z</time>
      </trkpt>
      <trkpt lat="39.332655" lon="-8.54602667">
        <ele>10.0</ele>
        <time>2019-05-17T11:05:42.157Z</time>
      </trkpt>
      <trkpt lat="39.33267" lon="-8.546015">
        <ele>10.0</ele>
        <time>2019-05-17T11:05:43.171Z</time>
      </trkpt>
      <trkpt lat="39.33267" lon="-8.546015">
        <ele>10.0</ele>
        <time>2019-05-17T11:05:44.181Z</time>
      </trkpt>
      <trkpt lat="39.33266833" lon="-8.54601667">
        <ele>10.0</ele>
        <time>2019-05-17T11:05:45.157Z</time>
      </trkpt>
      <trkpt lat="39.33266833" lon="-8.54601667">
        <ele>10.0</ele>
        <time>2019-05-17T11:05:46.178Z</time>
      </trkpt>
      <trkpt lat="39.33266833" lon="-8.54601667">
        <ele>10.0</ele>
        <time>2019-05-17T11:05:47.185Z</time>
      </trkpt>
      <trkpt lat="39.33266833" lon="-8.54601667">
        <ele>10.0</ele>
        <time>2019-05-17T11:05:48.150Z</time>
      </trkpt>
      <trkpt lat="39.33266833" lon="-8.54601667">
        <ele>10.0</ele>
        <time>2019-05-17T11:05:49.186Z</time>
      </trkpt>
      <trkpt lat="39.33266833" lon="-8.54601667">
        <ele>10.0</ele>
        <time>2019-05-17T11:05:50.182Z</time>
      </trkpt>
      <trkpt lat="39.33266833" lon="-8.54601667">
        <ele>10.0</ele>
        <time>2019-05-17T11:05:51.171Z</time>
      </trkpt>
      <trkpt lat="39.33266833" lon="-8.54601667">
        <ele>10.0</ele>
        <time>2019-05-17T11:05:52.154Z</time>
      </trkpt>
      <trkpt lat="39.33266833" lon="-8.54601667">
        <ele>10.0</ele>
        <time>2019-05-17T11:05:53.187Z</time>
      </trkpt>
      <trkpt lat="39.33266833" lon="-8.54601667">
        <ele>10.0</ele>
        <time>2019-05-17T11:05:54.180Z</time>
      </trkpt>
      <trkpt lat="39.33270667" lon="-8.54601333">
        <ele>11.0</ele>
        <time>2019-05-17T11:05:55.183Z</time>
      </trkpt>
      <trkpt lat="39.33270667" lon="-8.54601333">
        <ele>11.0</ele>
        <time>2019-05-17T11:05:56.181Z</time>
      </trkpt>
      <trkpt lat="39.33273167" lon="-8.54605">
        <ele>11.0</ele>
        <time>2019-05-17T11:05:57.180Z</time>
      </trkpt>
      <trkpt lat="39.33273833" lon="-8.546075">
        <ele>11.0</ele>
        <time>2019-05-17T11:05:58.186Z</time>
      </trkpt>
      <trkpt lat="39.33274" lon="-8.54609833">
        <ele>11.0</ele>
        <time>2019-05-17T11:05:59.186Z</time>
      </trkpt>
      <trkpt lat="39.33274" lon="-8.54609833">
        <ele>11.0</ele>
        <time>2019-05-17T11:06:00.180Z</time>
      </trkpt>
      <trkpt lat="39.33275" lon="-8.54614167">
        <ele>11.0</ele>
        <time>2019-05-17T11:06:01.188Z</time>
      </trkpt>
      <trkpt lat="39.33275" lon="-8.54614167">
        <ele>11.0</ele>
        <time>2019-05-17T11:06:02.161Z</time>
      </trkpt>
      <trkpt lat="39.33276333" lon="-8.54619167">
        <ele>11.0</ele>
        <time>2019-05-17T11:06:03.180Z</time>
      </trkpt>
      <trkpt lat="39.33276333" lon="-8.54619167">
        <ele>11.0</ele>
        <time>2019-05-17T11:06:04.152Z</time>
      </trkpt>
      <trkpt lat="39.33278667" lon="-8.546235">
        <ele>11.0</ele>
        <time>2019-05-17T11:06:05.159Z</time>
      </trkpt>
      <trkpt lat="39.33278667" lon="-8.546235">
        <ele>11.0</ele>
        <time>2019-05-17T11:06:06.172Z</time>
      </trkpt>
      <trkpt lat="39.33280167" lon="-8.54627333">
        <ele>11.0</ele>
        <time>2019-05-17T11:06:07.180Z</time>
      </trkpt>
      <trkpt lat="39.33280167" lon="-8.54627333">
        <ele>11.0</ele>
        <time>2019-05-17T11:06:08.188Z</time>
      </trkpt>
      <trkpt lat="39.3328" lon="-8.54628333">
        <ele>11.0</ele>
        <time>2019-05-17T11:06:09.154Z</time>
      </trkpt>
      <trkpt lat="39.3328" lon="-8.54628333">
        <ele>11.0</ele>
        <time>2019-05-17T11:06:10.171Z</time>
      </trkpt>
      <trkpt lat="39.33279833" lon="-8.54628333">
        <ele>11.0</ele>
        <time>2019-05-17T11:06:11.181Z</time>
      </trkpt>
      <trkpt lat="39.33279833" lon="-8.54628333">
        <ele>11.0</ele>
        <time>2019-05-17T11:06:12.159Z</time>
      </trkpt>
      <trkpt lat="39.33279833" lon="-8.54628333">
        <ele>11.0</ele>
        <time>2019-05-17T11:06:13.165Z</time>
      </trkpt>
      <trkpt lat="39.33279833" lon="-8.54628333">
        <ele>11.0</ele>
        <time>2019-05-17T11:06:14.188Z</time>
      </trkpt>
      <trkpt lat="39.33279833" lon="-8.54628333">
        <ele>11.0</ele>
        <time>2019-05-17T11:06:15.185Z</time>
      </trkpt>
      <trkpt lat="39.33279833" lon="-8.54628333">
        <ele>11.0</ele>
        <time>2019-05-17T11:06:16.179Z</time>
      </trkpt>
      <trkpt lat="39.33279833" lon="-8.54628333">
        <ele>11.0</ele>
        <time>2019-05-17T11:06:17.166Z</time>
      </trkpt>
      <trkpt lat="39.33279833" lon="-8.54628333">
        <ele>11.0</ele>
        <time>2019-05-17T11:06:18.171Z</time>
      </trkpt>
      <trkpt lat="39.33279833" lon="-8.54628333">
        <ele>11.0</ele>
        <time>2019-05-17T11:06:19.154Z</time>
      </trkpt>
      <trkpt lat="39.33279833" lon="-8.54628333">
        <ele>11.0</ele>
        <time>2019-05-17T11:06:20.160Z</time>
      </trkpt>
      <trkpt lat="39.33279833" lon="-8.54628333">
        <ele>11.0</ele>
        <time>2019-05-17T11:06:21.168Z</time>
      </trkpt>
      <trkpt lat="39.33279833" lon="-8.54628333">
        <ele>11.0</ele>
        <time>2019-05-17T11:06:22.186Z</time>
      </trkpt>
      <trkpt lat="39.33279833" lon="-8.54628333">
        <ele>11.0</ele>
        <time>2019-05-17T11:06:23.188Z</time>
      </trkpt>
      <trkpt lat="39.33279833" lon="-8.54628333">
        <ele>11.0</ele>
        <time>2019-05-17T11:06:24.181Z</time>
      </trkpt>
      <trkpt lat="39.33279833" lon="-8.54628333">
        <ele>11.0</ele>
        <time>2019-05-17T11:06:25.184Z</time>
      </trkpt>
      <trkpt lat="39.33279833" lon="-8.54628333">
        <ele>11.0</ele>
        <time>2019-05-17T11:06:26.179Z</time>
      </trkpt>
      <trkpt lat="39.33279833" lon="-8.54628333">
        <ele>11.0</ele>
        <time>2019-05-17T11:06:27.187Z</time>
      </trkpt>
      <trkpt lat="39.33279833" lon="-8.54628333">
        <ele>11.0</ele>
        <time>2019-05-17T11:06:28.179Z</time>
      </trkpt>
      <trkpt lat="39.33280167" lon="-8.54633">
        <ele>11.0</ele>
        <time>2019-05-17T11:06:29.183Z</time>
      </trkpt>
      <trkpt lat="39.33280167" lon="-8.54633">
        <ele>11.0</ele>
        <time>2019-05-17T11:06:30.180Z</time>
      </trkpt>
      <trkpt lat="39.332815" lon="-8.54637333">
        <ele>11.0</ele>
        <time>2019-05-17T11:06:31.185Z</time>
      </trkpt>
      <trkpt lat="39.332815" lon="-8.54637333">
        <ele>11.0</ele>
        <time>2019-05-17T11:06:32.181Z</time>
      </trkpt>
      <trkpt lat="39.33282833" lon="-8.54642333">
        <ele>11.0</ele>
        <time>2019-05-17T11:06:33.184Z</time>
      </trkpt>
      <trkpt lat="39.33282833" lon="-8.54642333">
        <ele>11.0</ele>
        <time>2019-05-17T11:06:34.176Z</time>
      </trkpt>
      <trkpt lat="39.33284333" lon="-8.54647167">
        <ele>11.0</ele>
        <time>2019-05-17T11:06:35.172Z</time>
      </trkpt>
      <trkpt lat="39.33284333" lon="-8.54647167">
        <ele>11.0</ele>
        <time>2019-05-17T11:06:36.179Z</time>
      </trkpt>
      <trkpt lat="39.33285833" lon="-8.54651833">
        <ele>11.0</ele>
        <time>2019-05-17T11:06:37.162Z</time>
      </trkpt>
      <trkpt lat="39.33285833" lon="-8.54651833">
        <ele>11.0</ele>
        <time>2019-05-17T11:06:38.172Z</time>
      </trkpt>
      <trkpt lat="39.33287667" lon="-8.54656167">
        <ele>11.0</ele>
        <time>2019-05-17T11:06:39.185Z</time>
      </trkpt>
      <trkpt lat="39.33287667" lon="-8.54656167">
        <ele>11.0</ele>
        <time>2019-05-17T11:06:40.159Z</time>
      </trkpt>
      <trkpt lat="39.3329" lon="-8.54661167">
        <ele>11.0</ele>
        <time>2019-05-17T11:06:41.177Z</time>
      </trkpt>
      <trkpt lat="39.3329" lon="-8.54661167">
        <ele>11.0</ele>
        <time>2019-05-17T11:06:42.186Z</time>
      </trkpt>
      <trkpt lat="39.332925" lon="-8.546665">
        <ele>11.0</ele>
        <time>2019-05-17T11:06:43.158Z</time>
      </trkpt>
      <trkpt lat="39.332925" lon="-8.546665">
        <ele>11.0</ele>
        <time>2019-05-17T11:06:44.185Z</time>
      </trkpt>
      <trkpt lat="39.33295" lon="-8.546725">
        <ele>11.0</ele>
        <time>2019-05-17T11:06:45.155Z</time>
      </trkpt>
      <trkpt lat="39.33295" lon="-8.546725">
        <ele>11.0</ele>
        <time>2019-05-17T11:06:46.163Z</time>
      </trkpt>
      <trkpt lat="39.33297667" lon="-8.546785">
        <ele>11.0</ele>
        <time>2019-05-17T11:06:47.186Z</time>
      </trkpt>
      <trkpt lat="39.33297667" lon="-8.546785">
        <ele>11.0</ele>
        <time>2019-05-17T11:06:48.164Z</time>
      </trkpt>
      <trkpt lat="39.33300667" lon="-8.54684833">
        <ele>11.0</ele>
        <time>2019-05-17T11:06:49.185Z</time>
      </trkpt>
      <trkpt lat="39.33300667" lon="-8.54684833">
        <ele>11.0</ele>
        <time>2019-05-17T11:06:50.157Z</time>
      </trkpt>
      <trkpt lat="39.33302833" lon="-8.54692">
        <ele>11.0</ele>
        <time>2019-05-17T11:06:51.166Z</time>
      </trkpt>
      <trkpt lat="39.33302833" lon="-8.54692">
        <ele>11.0</ele>
        <time>2019-05-17T11:06:52.174Z</time>
      </trkpt>
      <trkpt lat="39.33304833" lon="-8.54699167">
        <ele>11.0</ele>
        <time>2019-05-17T11:06:53.188Z</time>
      </trkpt>
      <trkpt lat="39.33304833" lon="-8.54699167">
        <ele>11.0</ele>
        <time>2019-05-17T11:06:54.161Z</time>
      </trkpt>
      <trkpt lat="39.333065" lon="-8.54707">
        <ele>11.0</ele>
        <time>2019-05-17T11:06:55.187Z</time>
      </trkpt>
      <trkpt lat="39.333065" lon="-8.54707">
        <ele>11.0</ele>
        <time>2019-05-17T11:06:56.153Z</time>
      </trkpt>
      <trkpt lat="39.333085" lon="-8.54715">
        <ele>11.0</ele>
        <time>2019-05-17T11:06:57.160Z</time>
      </trkpt>
      <trkpt lat="39.333085" lon="-8.54715">
        <ele>11.0</ele>
        <time>2019-05-17T11:06:58.174Z</time>
      </trkpt>
      <trkpt lat="39.333105" lon="-8.54722833">
        <ele>11.0</ele>
        <time>2019-05-17T11:06:59.156Z</time>
      </trkpt>
      <trkpt lat="39.333105" lon="-8.54722833">
        <ele>11.0</ele>
        <time>2019-05-17T11:07:00.185Z</time>
      </trkpt>
      <trkpt lat="39.33312333" lon="-8.54729833">
        <ele>11.0</ele>
        <time>2019-05-17T11:07:01.161Z</time>
      </trkpt>
      <trkpt lat="39.33313333" lon="-8.54733">
        <ele>11.0</ele>
        <time>2019-05-17T11:07:02.175Z</time>
      </trkpt>
      <trkpt lat="39.33314" lon="-8.54736167">
        <ele>11.0</ele>
        <time>2019-05-17T11:07:03.152Z</time>
      </trkpt>
      <trkpt lat="39.33314" lon="-8.54736167">
        <ele>11.0</ele>
        <time>2019-05-17T11:07:04.160Z</time>
      </trkpt>
      <trkpt lat="39.33314833" lon="-8.54742833">
        <ele>11.0</ele>
        <time>2019-05-17T11:07:05.171Z</time>
      </trkpt>
      <trkpt lat="39.33314833" lon="-8.54742833">
        <ele>11.0</ele>
        <time>2019-05-17T11:07:06.151Z</time>
      </trkpt>
      <trkpt lat="39.33316" lon="-8.54749667">
        <ele>11.0</ele>
        <time>2019-05-17T11:07:07.171Z</time>
      </trkpt>
      <trkpt lat="39.333165" lon="-8.54753167">
        <ele>11.0</ele>
        <time>2019-05-17T11:07:08.172Z</time>
      </trkpt>
      <trkpt lat="39.333165" lon="-8.54753167">
        <ele>11.0</ele>
        <time>2019-05-17T11:07:09.163Z</time>
      </trkpt>
      <trkpt lat="39.33317667" lon="-8.54759667">
        <ele>11.0</ele>
        <time>2019-05-17T11:07:10.168Z</time>
      </trkpt>
      <trkpt lat="39.33318833" lon="-8.54762667">
        <ele>11.0</ele>
        <time>2019-05-17T11:07:11.161Z</time>
      </trkpt>
      <trkpt lat="39.33318833" lon="-8.54762667">
        <ele>11.0</ele>
        <time>2019-05-17T11:07:12.174Z</time>
      </trkpt>
      <trkpt lat="39.33321333" lon="-8.54768667">
        <ele>11.0</ele>
        <time>2019-05-17T11:07:13.188Z</time>
      </trkpt>
      <trkpt lat="39.33321333" lon="-8.54768667">
        <ele>11.0</ele>
        <time>2019-05-17T11:07:14.157Z</time>
      </trkpt>
      <trkpt lat="39.333235" lon="-8.54775167">
        <ele>11.0</ele>
        <time>2019-05-17T11:07:15.169Z</time>
      </trkpt>
      <trkpt lat="39.333235" lon="-8.54775167">
        <ele>11.0</ele>
        <time>2019-05-17T11:07:16.153Z</time>
      </trkpt>
      <trkpt lat="39.33325833" lon="-8.54781667">
        <ele>10.0</ele>
        <time>2019-05-17T11:07:17.162Z</time>
      </trkpt>
      <trkpt lat="39.33325833" lon="-8.54781667">
        <ele>10.0</ele>
        <time>2019-05-17T11:07:18.176Z</time>
      </trkpt>
      <trkpt lat="39.33328667" lon="-8.54788333">
        <ele>10.0</ele>
        <time>2019-05-17T11:07:19.151Z</time>
      </trkpt>
      <trkpt lat="39.33328667" lon="-8.54788333">
        <ele>10.0</ele>
        <time>2019-05-17T11:07:20.172Z</time>
      </trkpt>
      <trkpt lat="39.33331167" lon="-8.54795333">
        <ele>10.0</ele>
        <time>2019-05-17T11:07:21.156Z</time>
      </trkpt>
      <trkpt lat="39.33331167" lon="-8.54795333">
        <ele>10.0</ele>
        <time>2019-05-17T11:07:22.175Z</time>
      </trkpt>
      <trkpt lat="39.33334167" lon="-8.54802333">
        <ele>10.0</ele>
        <time>2019-05-17T11:07:23.153Z</time>
      </trkpt>
      <trkpt lat="39.33334167" lon="-8.54802333">
        <ele>10.0</ele>
        <time>2019-05-17T11:07:24.164Z</time>
      </trkpt>
      <trkpt lat="39.33337333" lon="-8.54809333">
        <ele>10.0</ele>
        <time>2019-05-17T11:07:25.190Z</time>
      </trkpt>
      <trkpt lat="39.33337333" lon="-8.54809333">
        <ele>10.0</ele>
        <time>2019-05-17T11:07:26.161Z</time>
      </trkpt>
      <trkpt lat="39.33340333" lon="-8.54816167">
        <ele>10.0</ele>
        <time>2019-05-17T11:07:27.177Z</time>
      </trkpt>
      <trkpt lat="39.33340333" lon="-8.54816167">
        <ele>10.0</ele>
        <time>2019-05-17T11:07:28.154Z</time>
      </trkpt>
      <trkpt lat="39.33343167" lon="-8.54823167">
        <ele>10.0</ele>
        <time>2019-05-17T11:07:29.164Z</time>
      </trkpt>
      <trkpt lat="39.33343167" lon="-8.54823167">
        <ele>10.0</ele>
        <time>2019-05-17T11:07:30.174Z</time>
      </trkpt>
      <trkpt lat="39.33346" lon="-8.54830333">
        <ele>10.0</ele>
        <time>2019-05-17T11:07:31.160Z</time>
      </trkpt>
      <trkpt lat="39.33346" lon="-8.54830333">
        <ele>10.0</ele>
        <time>2019-05-17T11:07:32.172Z</time>
      </trkpt>
      <trkpt lat="39.33348833" lon="-8.54838">
        <ele>10.0</ele>
        <time>2019-05-17T11:07:33.151Z</time>
      </trkpt>
      <trkpt lat="39.33350167" lon="-8.54841833">
        <ele>9.0</ele>
        <time>2019-05-17T11:07:34.161Z</time>
      </trkpt>
      <trkpt lat="39.33351667" lon="-8.54845667">
        <ele>9.0</ele>
        <time>2019-05-17T11:07:35.152Z</time>
      </trkpt>
      <trkpt lat="39.33351667" lon="-8.54845667">
        <ele>9.0</ele>
        <time>2019-05-17T11:07:36.172Z</time>
      </trkpt>
      <trkpt lat="39.333545" lon="-8.54853167">
        <ele>9.0</ele>
        <time>2019-05-17T11:07:37.181Z</time>
      </trkpt>
      <trkpt lat="39.333545" lon="-8.54853167">
        <ele>9.0</ele>
        <time>2019-05-17T11:07:38.151Z</time>
      </trkpt>
      <trkpt lat="39.33357333" lon="-8.548605">
        <ele>9.0</ele>
        <time>2019-05-17T11:07:39.165Z</time>
      </trkpt>
      <trkpt lat="39.33357333" lon="-8.548605">
        <ele>9.0</ele>
        <time>2019-05-17T11:07:40.172Z</time>
      </trkpt>
      <trkpt lat="39.33360167" lon="-8.54868">
        <ele>9.0</ele>
        <time>2019-05-17T11:07:41.188Z</time>
      </trkpt>
      <trkpt lat="39.33360167" lon="-8.54868">
        <ele>9.0</ele>
        <time>2019-05-17T11:07:42.157Z</time>
      </trkpt>
      <trkpt lat="39.33362333" lon="-8.54875833">
        <ele>9.0</ele>
        <time>2019-05-17T11:07:43.171Z</time>
      </trkpt>
      <trkpt lat="39.333635" lon="-8.54879667">
        <ele>9.0</ele>
        <time>2019-05-17T11:07:44.182Z</time>
      </trkpt>
      <trkpt lat="39.333635" lon="-8.54879667">
        <ele>9.0</ele>
        <time>2019-05-17T11:07:45.154Z</time>
      </trkpt>
      <trkpt lat="39.33366167" lon="-8.54887167">
        <ele>9.0</ele>
        <time>2019-05-17T11:07:46.171Z</time>
      </trkpt>
      <trkpt lat="39.333675" lon="-8.54890667">
        <ele>9.0</ele>
        <time>2019-05-17T11:07:47.169Z</time>
      </trkpt>
      <trkpt lat="39.333675" lon="-8.54890667">
        <ele>9.0</ele>
        <time>2019-05-17T11:07:48.179Z</time>
      </trkpt>
      <trkpt lat="39.333705" lon="-8.54897833">
        <ele>9.0</ele>
        <time>2019-05-17T11:07:49.160Z</time>
      </trkpt>
      <trkpt lat="39.333705" lon="-8.54897833">
        <ele>9.0</ele>
        <time>2019-05-17T11:07:50.174Z</time>
      </trkpt>
      <trkpt lat="39.333735" lon="-8.54905167">
        <ele>9.0</ele>
        <time>2019-05-17T11:07:51.158Z</time>
      </trkpt>
      <trkpt lat="39.333735" lon="-8.54905167">
        <ele>9.0</ele>
        <time>2019-05-17T11:07:52.177Z</time>
      </trkpt>
      <trkpt lat="39.33376167" lon="-8.54912667">
        <ele>9.0</ele>
        <time>2019-05-17T11:07:53.157Z</time>
      </trkpt>
      <trkpt lat="39.33376167" lon="-8.54912667">
        <ele>9.0</ele>
        <time>2019-05-17T11:07:54.172Z</time>
      </trkpt>
      <trkpt lat="39.33378833" lon="-8.54920333">
        <ele>8.0</ele>
        <time>2019-05-17T11:07:55.150Z</time>
      </trkpt>
      <trkpt lat="39.33378833" lon="-8.54920333">
        <ele>8.0</ele>
        <time>2019-05-17T11:07:56.160Z</time>
      </trkpt>
      <trkpt lat="39.33381333" lon="-8.54928167">
        <ele>8.0</ele>
        <time>2019-05-17T11:07:57.183Z</time>
      </trkpt>
      <trkpt lat="39.33381333" lon="-8.54928167">
        <ele>8.0</ele>
        <time>2019-05-17T11:07:58.152Z</time>
      </trkpt>
      <trkpt lat="39.33384167" lon="-8.54936">
        <ele>8.0</ele>
        <time>2019-05-17T11:07:59.367Z</time>
      </trkpt>
      <trkpt lat="39.33384167" lon="-8.54936">
        <ele>8.0</ele>
        <time>2019-05-17T11:08:00.161Z</time>
      </trkpt>
      <trkpt lat="39.33388833" lon="-8.54941667">
        <ele>9.0</ele>
        <time>2019-05-17T11:08:01.178Z</time>
      </trkpt>
      <trkpt lat="39.33388833" lon="-8.54941667">
        <ele>9.0</ele>
        <time>2019-05-17T11:08:02.183Z</time>
      </trkpt>
      <trkpt lat="39.33394167" lon="-8.54943667">
        <ele>9.0</ele>
        <time>2019-05-17T11:08:03.171Z</time>
      </trkpt>
      <trkpt lat="39.33394167" lon="-8.54943667">
        <ele>9.0</ele>
        <time>2019-05-17T11:08:04.150Z</time>
      </trkpt>
      <trkpt lat="39.33399667" lon="-8.549435">
        <ele>9.0</ele>
        <time>2019-05-17T11:08:05.168Z</time>
      </trkpt>
      <trkpt lat="39.33402333" lon="-8.54943167">
        <ele>8.0</ele>
        <time>2019-05-17T11:08:06.188Z</time>
      </trkpt>
      <trkpt lat="39.33402333" lon="-8.54943167">
        <ele>8.0</ele>
        <time>2019-05-17T11:08:07.156Z</time>
      </trkpt>
      <trkpt lat="39.33407167" lon="-8.54942667">
        <ele>8.0</ele>
        <time>2019-05-17T11:08:08.172Z</time>
      </trkpt>
      <trkpt lat="39.33407167" lon="-8.54942667">
        <ele>8.0</ele>
        <time>2019-05-17T11:08:09.162Z</time>
      </trkpt>
      <trkpt lat="39.33411167" lon="-8.54942833">
        <ele>9.0</ele>
        <time>2019-05-17T11:08:10.160Z</time>
      </trkpt>
      <trkpt lat="39.334135" lon="-8.549425">
        <ele>9.0</ele>
        <time>2019-05-17T11:08:11.188Z</time>
      </trkpt>
      <trkpt lat="39.334135" lon="-8.549425">
        <ele>9.0</ele>
        <time>2019-05-17T11:08:12.157Z</time>
      </trkpt>
      <trkpt lat="39.334185" lon="-8.549415">
        <ele>9.0</ele>
        <time>2019-05-17T11:08:13.180Z</time>
      </trkpt>
      <trkpt lat="39.334185" lon="-8.549415">
        <ele>9.0</ele>
        <time>2019-05-17T11:08:14.153Z</time>
      </trkpt>
      <trkpt lat="39.33423833" lon="-8.54939667">
        <ele>9.0</ele>
        <time>2019-05-17T11:08:15.150Z</time>
      </trkpt>
      <trkpt lat="39.33423833" lon="-8.54939667">
        <ele>9.0</ele>
        <time>2019-05-17T11:08:16.154Z</time>
      </trkpt>
      <trkpt lat="39.334295" lon="-8.54937833">
        <ele>9.0</ele>
        <time>2019-05-17T11:08:17.167Z</time>
      </trkpt>
      <trkpt lat="39.334295" lon="-8.54937833">
        <ele>9.0</ele>
        <time>2019-05-17T11:08:18.177Z</time>
      </trkpt>
      <trkpt lat="39.33435" lon="-8.549365">
        <ele>9.0</ele>
        <time>2019-05-17T11:08:19.153Z</time>
      </trkpt>
      <trkpt lat="39.33435" lon="-8.549365">
        <ele>9.0</ele>
        <time>2019-05-17T11:08:20.175Z</time>
      </trkpt>
      <trkpt lat="39.33440167" lon="-8.54934667">
        <ele>9.0</ele>
        <time>2019-05-17T11:08:21.151Z</time>
      </trkpt>
      <trkpt lat="39.33440167" lon="-8.54934667">
        <ele>9.0</ele>
        <time>2019-05-17T11:08:22.171Z</time>
      </trkpt>
      <trkpt lat="39.33444833" lon="-8.54933167">
        <ele>10.0</ele>
        <time>2019-05-17T11:08:23.186Z</time>
      </trkpt>
      <trkpt lat="39.33444833" lon="-8.54933167">
        <ele>10.0</ele>
        <time>2019-05-17T11:08:24.176Z</time>
      </trkpt>
      <trkpt lat="39.334505" lon="-8.54932333">
        <ele>9.0</ele>
        <time>2019-05-17T11:08:25.152Z</time>
      </trkpt>
      <trkpt lat="39.334505" lon="-8.54932333">
        <ele>9.0</ele>
        <time>2019-05-17T11:08:26.165Z</time>
      </trkpt>
      <trkpt lat="39.33456667" lon="-8.54930833">
        <ele>9.0</ele>
        <time>2019-05-17T11:08:27.181Z</time>
      </trkpt>
      <trkpt lat="39.33456667" lon="-8.54930833">
        <ele>9.0</ele>
        <time>2019-05-17T11:08:28.168Z</time>
      </trkpt>
      <trkpt lat="39.334625" lon="-8.54929667">
        <ele>9.0</ele>
        <time>2019-05-17T11:08:29.150Z</time>
      </trkpt>
      <trkpt lat="39.334625" lon="-8.54929667">
        <ele>9.0</ele>
        <time>2019-05-17T11:08:30.174Z</time>
      </trkpt>
      <trkpt lat="39.33468" lon="-8.54928667">
        <ele>10.0</ele>
        <time>2019-05-17T11:08:31.157Z</time>
      </trkpt>
      <trkpt lat="39.33468" lon="-8.54928667">
        <ele>10.0</ele>
        <time>2019-05-17T11:08:32.171Z</time>
      </trkpt>
      <trkpt lat="39.33472" lon="-8.54927833">
        <ele>10.0</ele>
        <time>2019-05-17T11:08:33.184Z</time>
      </trkpt>
      <trkpt lat="39.33472333" lon="-8.54927667">
        <ele>10.0</ele>
        <time>2019-05-17T11:08:34.169Z</time>
      </trkpt>
      <trkpt lat="39.33472333" lon="-8.54927667">
        <ele>10.0</ele>
        <time>2019-05-17T11:08:35.183Z</time>
      </trkpt>
      <trkpt lat="39.33472333" lon="-8.54927333">
        <ele>10.0</ele>
        <time>2019-05-17T11:08:36.163Z</time>
      </trkpt>
      <trkpt lat="39.33472333" lon="-8.54927333">
        <ele>10.0</ele>
        <time>2019-05-17T11:08:37.180Z</time>
      </trkpt>
      <trkpt lat="39.33472333" lon="-8.54927333">
        <ele>10.0</ele>
        <time>2019-05-17T11:08:38.186Z</time>
      </trkpt>
      <trkpt lat="39.33472333" lon="-8.54927333">
        <ele>10.0</ele>
        <time>2019-05-17T11:08:39.152Z</time>
      </trkpt>
      <trkpt lat="39.33472333" lon="-8.54927333">
        <ele>10.0</ele>
        <time>2019-05-17T11:08:40.180Z</time>
      </trkpt>
      <trkpt lat="39.33474167" lon="-8.54926333">
        <ele>10.0</ele>
        <time>2019-05-17T11:08:41.167Z</time>
      </trkpt>
      <trkpt lat="39.33474167" lon="-8.54926333">
        <ele>10.0</ele>
        <time>2019-05-17T11:08:42.153Z</time>
      </trkpt>
      <trkpt lat="39.33478" lon="-8.54926">
        <ele>11.0</ele>
        <time>2019-05-17T11:08:43.185Z</time>
      </trkpt>
      <trkpt lat="39.33478" lon="-8.54926">
        <ele>11.0</ele>
        <time>2019-05-17T11:08:44.180Z</time>
      </trkpt>
      <trkpt lat="39.33484667" lon="-8.54924333">
        <ele>11.0</ele>
        <time>2019-05-17T11:08:45.180Z</time>
      </trkpt>
      <trkpt lat="39.33488667" lon="-8.54923667">
        <ele>11.0</ele>
        <time>2019-05-17T11:08:46.185Z</time>
      </trkpt>
      <trkpt lat="39.33492167" lon="-8.54923">
        <ele>11.0</ele>
        <time>2019-05-17T11:08:47.185Z</time>
      </trkpt>
      <trkpt lat="39.33492167" lon="-8.54923">
        <ele>11.0</ele>
        <time>2019-05-17T11:08:48.174Z</time>
      </trkpt>
      <trkpt lat="39.33498833" lon="-8.549215">
        <ele>11.0</ele>
        <time>2019-05-17T11:08:49.186Z</time>
      </trkpt>
      <trkpt lat="39.33498833" lon="-8.549215">
        <ele>11.0</ele>
        <time>2019-05-17T11:08:50.158Z</time>
      </trkpt>
      <trkpt lat="39.335055" lon="-8.54921">
        <ele>12.0</ele>
        <time>2019-05-17T11:08:51.178Z</time>
      </trkpt>
      <trkpt lat="39.335055" lon="-8.54921">
        <ele>12.0</ele>
        <time>2019-05-17T11:08:52.186Z</time>
      </trkpt>
      <trkpt lat="39.33511667" lon="-8.5492">
        <ele>12.0</ele>
        <time>2019-05-17T11:08:53.150Z</time>
      </trkpt>
      <trkpt lat="39.33511667" lon="-8.5492">
        <ele>12.0</ele>
        <time>2019-05-17T11:08:54.185Z</time>
      </trkpt>
      <trkpt lat="39.33517833" lon="-8.54918333">
        <ele>12.0</ele>
        <time>2019-05-17T11:08:55.160Z</time>
      </trkpt>
      <trkpt lat="39.33521" lon="-8.549175">
        <ele>12.0</ele>
        <time>2019-05-17T11:08:56.185Z</time>
      </trkpt>
      <trkpt lat="39.33521" lon="-8.549175">
        <ele>12.0</ele>
        <time>2019-05-17T11:08:57.153Z</time>
      </trkpt>
      <trkpt lat="39.33527333" lon="-8.549165">
        <ele>12.0</ele>
        <time>2019-05-17T11:08:58.175Z</time>
      </trkpt>
      <trkpt lat="39.335305" lon="-8.549165">
        <ele>12.0</ele>
        <time>2019-05-17T11:08:59.171Z</time>
      </trkpt>
      <trkpt lat="39.335305" lon="-8.549165">
        <ele>12.0</ele>
        <time>2019-05-17T11:09:00.184Z</time>
      </trkpt>
      <trkpt lat="39.33536667" lon="-8.549165">
        <ele>12.0</ele>
        <time>2019-05-17T11:09:01.157Z</time>
      </trkpt>
      <trkpt lat="39.33536667" lon="-8.549165">
        <ele>12.0</ele>
        <time>2019-05-17T11:09:02.172Z</time>
      </trkpt>
      <trkpt lat="39.33542833" lon="-8.54916167">
        <ele>13.0</ele>
        <time>2019-05-17T11:09:03.159Z</time>
      </trkpt>
      <trkpt lat="39.33542833" lon="-8.54916167">
        <ele>13.0</ele>
        <time>2019-05-17T11:09:04.180Z</time>
      </trkpt>
      <trkpt lat="39.33548833" lon="-8.54916">
        <ele>13.0</ele>
        <time>2019-05-17T11:09:05.168Z</time>
      </trkpt>
      <trkpt lat="39.33548833" lon="-8.54916">
        <ele>13.0</ele>
        <time>2019-05-17T11:09:06.187Z</time>
      </trkpt>
      <trkpt lat="39.33554833" lon="-8.54917167">
        <ele>13.0</ele>
        <time>2019-05-17T11:09:07.165Z</time>
      </trkpt>
      <trkpt lat="39.33554833" lon="-8.54917167">
        <ele>13.0</ele>
        <time>2019-05-17T11:09:08.176Z</time>
      </trkpt>
      <trkpt lat="39.33561167" lon="-8.54918167">
        <ele>13.0</ele>
        <time>2019-05-17T11:09:09.188Z</time>
      </trkpt>
      <trkpt lat="39.33564333" lon="-8.54918833">
        <ele>13.0</ele>
        <time>2019-05-17T11:09:10.166Z</time>
      </trkpt>
      <trkpt lat="39.335675" lon="-8.54919333">
        <ele>13.0</ele>
        <time>2019-05-17T11:09:11.183Z</time>
      </trkpt>
      <trkpt lat="39.335675" lon="-8.54919333">
        <ele>13.0</ele>
        <time>2019-05-17T11:09:12.156Z</time>
      </trkpt>
      <trkpt lat="39.33574167" lon="-8.54920667">
        <ele>13.0</ele>
        <time>2019-05-17T11:09:13.169Z</time>
      </trkpt>
      <trkpt lat="39.33577333" lon="-8.549215">
        <ele>13.0</ele>
        <time>2019-05-17T11:09:14.150Z</time>
      </trkpt>
      <trkpt lat="39.33577333" lon="-8.549215">
        <ele>13.0</ele>
        <time>2019-05-17T11:09:15.175Z</time>
      </trkpt>
      <trkpt lat="39.33584" lon="-8.54923333">
        <ele>13.0</ele>
        <time>2019-05-17T11:09:16.153Z</time>
      </trkpt>
      <trkpt lat="39.33587333" lon="-8.54924">
        <ele>13.0</ele>
        <time>2019-05-17T11:09:17.187Z</time>
      </trkpt>
      <trkpt lat="39.33587333" lon="-8.54924">
        <ele>13.0</ele>
        <time>2019-05-17T11:09:18.153Z</time>
      </trkpt>
      <trkpt lat="39.335945" lon="-8.54925333">
        <ele>13.0</ele>
        <time>2019-05-17T11:09:19.170Z</time>
      </trkpt>
      <trkpt lat="39.335945" lon="-8.54925333">
        <ele>13.0</ele>
        <time>2019-05-17T11:09:20.179Z</time>
      </trkpt>
      <trkpt lat="39.33601667" lon="-8.54926833">
        <ele>13.0</ele>
        <time>2019-05-17T11:09:21.154Z</time>
      </trkpt>
      <trkpt lat="39.33601667" lon="-8.54926833">
        <ele>13.0</ele>
        <time>2019-05-17T11:09:22.165Z</time>
      </trkpt>
      <trkpt lat="39.33608667" lon="-8.54928667">
        <ele>13.0</ele>
        <time>2019-05-17T11:09:23.190Z</time>
      </trkpt>
      <trkpt lat="39.33608667" lon="-8.54928667">
        <ele>13.0</ele>
        <time>2019-05-17T11:09:24.152Z</time>
      </trkpt>
      <trkpt lat="39.33616" lon="-8.54930667">
        <ele>13.0</ele>
        <time>2019-05-17T11:09:25.167Z</time>
      </trkpt>
      <trkpt lat="39.33616" lon="-8.54930667">
        <ele>13.0</ele>
        <time>2019-05-17T11:09:26.182Z</time>
      </trkpt>
      <trkpt lat="39.33623167" lon="-8.54932333">
        <ele>13.0</ele>
        <time>2019-05-17T11:09:27.156Z</time>
      </trkpt>
      <trkpt lat="39.33623167" lon="-8.54932333">
        <ele>13.0</ele>
        <time>2019-05-17T11:09:28.162Z</time>
      </trkpt>
      <trkpt lat="39.33630333" lon="-8.54934">
        <ele>13.0</ele>
        <time>2019-05-17T11:09:29.180Z</time>
      </trkpt>
      <trkpt lat="39.33630333" lon="-8.54934">
        <ele>13.0</ele>
        <time>2019-05-17T11:09:30.151Z</time>
      </trkpt>
      <trkpt lat="39.336375" lon="-8.549355">
        <ele>13.0</ele>
        <time>2019-05-17T11:09:31.161Z</time>
      </trkpt>
      <trkpt lat="39.336375" lon="-8.549355">
        <ele>13.0</ele>
        <time>2019-05-17T11:09:32.171Z</time>
      </trkpt>
      <trkpt lat="39.33644833" lon="-8.54937">
        <ele>13.0</ele>
        <time>2019-05-17T11:09:33.164Z</time>
      </trkpt>
      <trkpt lat="39.33644833" lon="-8.54937">
        <ele>13.0</ele>
        <time>2019-05-17T11:09:34.169Z</time>
      </trkpt>
      <trkpt lat="39.33652" lon="-8.54938333">
        <ele>13.0</ele>
        <time>2019-05-17T11:09:35.187Z</time>
      </trkpt>
      <trkpt lat="39.33652" lon="-8.54938333">
        <ele>13.0</ele>
        <time>2019-05-17T11:09:36.160Z</time>
      </trkpt>
      <trkpt lat="39.33659" lon="-8.54940333">
        <ele>13.0</ele>
        <time>2019-05-17T11:09:37.172Z</time>
      </trkpt>
      <trkpt lat="39.33659" lon="-8.54940333">
        <ele>13.0</ele>
        <time>2019-05-17T11:09:38.180Z</time>
      </trkpt>
      <trkpt lat="39.33666" lon="-8.54942167">
        <ele>13.0</ele>
        <time>2019-05-17T11:09:39.168Z</time>
      </trkpt>
      <trkpt lat="39.33666" lon="-8.54942167">
        <ele>13.0</ele>
        <time>2019-05-17T11:09:40.150Z</time>
      </trkpt>
      <trkpt lat="39.33672833" lon="-8.549445">
        <ele>13.0</ele>
        <time>2019-05-17T11:09:41.167Z</time>
      </trkpt>
      <trkpt lat="39.33676333" lon="-8.549455">
        <ele>13.0</ele>
        <time>2019-05-17T11:09:42.177Z</time>
      </trkpt>
      <trkpt lat="39.33676333" lon="-8.549455">
        <ele>13.0</ele>
        <time>2019-05-17T11:09:43.153Z</time>
      </trkpt>
      <trkpt lat="39.33683333" lon="-8.54947833">
        <ele>13.0</ele>
        <time>2019-05-17T11:09:44.171Z</time>
      </trkpt>
      <trkpt lat="39.33683333" lon="-8.54947833">
        <ele>13.0</ele>
        <time>2019-05-17T11:09:45.180Z</time>
      </trkpt>
      <trkpt lat="39.33690333" lon="-8.549505">
        <ele>13.0</ele>
        <time>2019-05-17T11:09:46.171Z</time>
      </trkpt>
      <trkpt lat="39.33693833" lon="-8.54951833">
        <ele>13.0</ele>
        <time>2019-05-17T11:09:47.159Z</time>
      </trkpt>
      <trkpt lat="39.33693833" lon="-8.54951833">
        <ele>13.0</ele>
        <time>2019-05-17T11:09:48.174Z</time>
      </trkpt>
      <trkpt lat="39.33700667" lon="-8.549545">
        <ele>13.0</ele>
        <time>2019-05-17T11:09:49.188Z</time>
      </trkpt>
      <trkpt lat="39.33700667" lon="-8.549545">
        <ele>13.0</ele>
        <time>2019-05-17T11:09:50.161Z</time>
      </trkpt>
      <trkpt lat="39.337075" lon="-8.54957333">
        <ele>13.0</ele>
        <time>2019-05-17T11:09:51.186Z</time>
      </trkpt>
      <trkpt lat="39.337075" lon="-8.54957333">
        <ele>13.0</ele>
        <time>2019-05-17T11:09:52.161Z</time>
      </trkpt>
      <trkpt lat="39.33714" lon="-8.54961167">
        <ele>13.0</ele>
        <time>2019-05-17T11:09:53.180Z</time>
      </trkpt>
      <trkpt lat="39.33714" lon="-8.54961167">
        <ele>13.0</ele>
        <time>2019-05-17T11:09:54.170Z</time>
      </trkpt>
      <trkpt lat="39.33720667" lon="-8.54963333">
        <ele>12.0</ele>
        <time>2019-05-17T11:09:55.180Z</time>
      </trkpt>
      <trkpt lat="39.33720667" lon="-8.54963333">
        <ele>12.0</ele>
        <time>2019-05-17T11:09:56.150Z</time>
      </trkpt>
      <trkpt lat="39.33726833" lon="-8.54966833">
        <ele>12.0</ele>
        <time>2019-05-17T11:09:57.164Z</time>
      </trkpt>
      <trkpt lat="39.33726833" lon="-8.54966833">
        <ele>12.0</ele>
        <time>2019-05-17T11:09:58.183Z</time>
      </trkpt>
      <trkpt lat="39.337335" lon="-8.54969667">
        <ele>12.0</ele>
        <time>2019-05-17T11:09:59.156Z</time>
      </trkpt>
      <trkpt lat="39.337335" lon="-8.54969667">
        <ele>12.0</ele>
        <time>2019-05-17T11:10:00.173Z</time>
      </trkpt>
      <trkpt lat="39.33740333" lon="-8.54971333">
        <ele>12.0</ele>
        <time>2019-05-17T11:10:01.154Z</time>
      </trkpt>
      <trkpt lat="39.33740333" lon="-8.54971333">
        <ele>12.0</ele>
        <time>2019-05-17T11:10:02.161Z</time>
      </trkpt>
      <trkpt lat="39.33747333" lon="-8.549715">
        <ele>12.0</ele>
        <time>2019-05-17T11:10:03.185Z</time>
      </trkpt>
      <trkpt lat="39.33747333" lon="-8.549715">
        <ele>12.0</ele>
        <time>2019-05-17T11:10:04.165Z</time>
      </trkpt>
      <trkpt lat="39.337535" lon="-8.549725">
        <ele>13.0</ele>
        <time>2019-05-17T11:10:05.188Z</time>
      </trkpt>
      <trkpt lat="39.337535" lon="-8.549725">
        <ele>13.0</ele>
        <time>2019-05-17T11:10:06.162Z</time>
      </trkpt>
      <trkpt lat="39.337595" lon="-8.549735">
        <ele>13.0</ele>
        <time>2019-05-17T11:10:07.180Z</time>
      </trkpt>
      <trkpt lat="39.337595" lon="-8.549735">
        <ele>13.0</ele>
        <time>2019-05-17T11:10:08.160Z</time>
      </trkpt>
      <trkpt lat="39.33766" lon="-8.54974833">
        <ele>13.0</ele>
        <time>2019-05-17T11:10:09.162Z</time>
      </trkpt>
      <trkpt lat="39.33766" lon="-8.54974833">
        <ele>13.0</ele>
        <time>2019-05-17T11:10:10.152Z</time>
      </trkpt>
      <trkpt lat="39.33772667" lon="-8.54976667">
        <ele>13.0</ele>
        <time>2019-05-17T11:10:11.162Z</time>
      </trkpt>
      <trkpt lat="39.33772667" lon="-8.54976667">
        <ele>13.0</ele>
        <time>2019-05-17T11:10:12.181Z</time>
      </trkpt>
      <trkpt lat="39.33778833" lon="-8.549775">
        <ele>13.0</ele>
        <time>2019-05-17T11:10:13.167Z</time>
      </trkpt>
      <trkpt lat="39.33781167" lon="-8.54977">
        <ele>13.0</ele>
        <time>2019-05-17T11:10:14.189Z</time>
      </trkpt>
      <trkpt lat="39.33783333" lon="-8.54975833">
        <ele>13.0</ele>
        <time>2019-05-17T11:10:15.170Z</time>
      </trkpt>
      <trkpt lat="39.33783333" lon="-8.54975833">
        <ele>13.0</ele>
        <time>2019-05-17T11:10:16.185Z</time>
      </trkpt>
      <trkpt lat="39.33785667" lon="-8.54971833">
        <ele>13.0</ele>
        <time>2019-05-17T11:10:17.158Z</time>
      </trkpt>
      <trkpt lat="39.33785667" lon="-8.54971833">
        <ele>13.0</ele>
        <time>2019-05-17T11:10:18.176Z</time>
      </trkpt>
      <trkpt lat="39.33784667" lon="-8.54967833">
        <ele>13.0</ele>
        <time>2019-05-17T11:10:19.154Z</time>
      </trkpt>
      <trkpt lat="39.33784667" lon="-8.54967833">
        <ele>13.0</ele>
        <time>2019-05-17T11:10:20.172Z</time>
      </trkpt>
      <trkpt lat="39.337825" lon="-8.54964">
        <ele>13.0</ele>
        <time>2019-05-17T11:10:21.186Z</time>
      </trkpt>
      <trkpt lat="39.337825" lon="-8.54964">
        <ele>13.0</ele>
        <time>2019-05-17T11:10:22.177Z</time>
      </trkpt>
      <trkpt lat="39.33781" lon="-8.549595">
        <ele>13.0</ele>
        <time>2019-05-17T11:10:23.176Z</time>
      </trkpt>
      <trkpt lat="39.33781" lon="-8.549595">
        <ele>13.0</ele>
        <time>2019-05-17T11:10:24.178Z</time>
      </trkpt>
      <trkpt lat="39.33779833" lon="-8.54955">
        <ele>13.0</ele>
        <time>2019-05-17T11:10:25.158Z</time>
      </trkpt>
      <trkpt lat="39.33779833" lon="-8.54955">
        <ele>13.0</ele>
        <time>2019-05-17T11:10:26.175Z</time>
      </trkpt>
      <trkpt lat="39.33778667" lon="-8.54950333">
        <ele>12.0</ele>
        <time>2019-05-17T11:10:27.190Z</time>
      </trkpt>
      <trkpt lat="39.33778667" lon="-8.54950333">
        <ele>12.0</ele>
        <time>2019-05-17T11:10:28.159Z</time>
      </trkpt>
      <trkpt lat="39.33777333" lon="-8.54945333">
        <ele>12.0</ele>
        <time>2019-05-17T11:10:29.167Z</time>
      </trkpt>
      <trkpt lat="39.33777333" lon="-8.54945333">
        <ele>12.0</ele>
        <time>2019-05-17T11:10:30.189Z</time>
      </trkpt>
      <trkpt lat="39.33775" lon="-8.5494">
        <ele>12.0</ele>
        <time>2019-05-17T11:10:31.173Z</time>
      </trkpt>
      <trkpt lat="39.33775" lon="-8.5494">
        <ele>12.0</ele>
        <time>2019-05-17T11:10:32.168Z</time>
      </trkpt>
      <trkpt lat="39.33773167" lon="-8.54934">
        <ele>12.0</ele>
        <time>2019-05-17T11:10:33.180Z</time>
      </trkpt>
      <trkpt lat="39.337725" lon="-8.54931">
        <ele>12.0</ele>
        <time>2019-05-17T11:10:34.159Z</time>
      </trkpt>
      <trkpt lat="39.337725" lon="-8.54931">
        <ele>12.0</ele>
        <time>2019-05-17T11:10:35.174Z</time>
      </trkpt>
      <trkpt lat="39.33771667" lon="-8.54925">
        <ele>12.0</ele>
        <time>2019-05-17T11:10:36.188Z</time>
      </trkpt>
      <trkpt lat="39.33771667" lon="-8.54925">
        <ele>12.0</ele>
        <time>2019-05-17T11:10:37.177Z</time>
      </trkpt>
      <trkpt lat="39.337705" lon="-8.54918667">
        <ele>12.0</ele>
        <time>2019-05-17T11:10:38.167Z</time>
      </trkpt>
      <trkpt lat="39.337705" lon="-8.54918667">
        <ele>12.0</ele>
        <time>2019-05-17T11:10:39.172Z</time>
      </trkpt>
      <trkpt lat="39.33769167" lon="-8.54912833">
        <ele>12.0</ele>
        <time>2019-05-17T11:10:40.151Z</time>
      </trkpt>
      <trkpt lat="39.337685" lon="-8.54909833">
        <ele>12.0</ele>
        <time>2019-05-17T11:10:41.165Z</time>
      </trkpt>
      <trkpt lat="39.337685" lon="-8.54909833">
        <ele>12.0</ele>
        <time>2019-05-17T11:10:42.173Z</time>
      </trkpt>
      <trkpt lat="39.33767333" lon="-8.54904833">
        <ele>11.0</ele>
        <time>2019-05-17T11:10:43.191Z</time>
      </trkpt>
      <trkpt lat="39.33766" lon="-8.54902333">
        <ele>11.0</ele>
        <time>2019-05-17T11:10:44.186Z</time>
      </trkpt>
      <trkpt lat="39.33766" lon="-8.54902333">
        <ele>11.0</ele>
        <time>2019-05-17T11:10:45.172Z</time>
      </trkpt>
      <trkpt lat="39.33763833" lon="-8.54896333">
        <ele>10.0</ele>
        <time>2019-05-17T11:10:46.181Z</time>
      </trkpt>
      <trkpt lat="39.337625" lon="-8.54893167">
        <ele>10.0</ele>
        <time>2019-05-17T11:10:47.155Z</time>
      </trkpt>
      <trkpt lat="39.337625" lon="-8.54893167">
        <ele>10.0</ele>
        <time>2019-05-17T11:10:48.172Z</time>
      </trkpt>
      <trkpt lat="39.33759833" lon="-8.54885833">
        <ele>9.0</ele>
        <time>2019-05-17T11:10:49.188Z</time>
      </trkpt>
      <trkpt lat="39.33759833" lon="-8.54885833">
        <ele>9.0</ele>
        <time>2019-05-17T11:10:50.161Z</time>
      </trkpt>
      <trkpt lat="39.337565" lon="-8.54877667">
        <ele>9.0</ele>
        <time>2019-05-17T11:10:51.183Z</time>
      </trkpt>
      <trkpt lat="39.337565" lon="-8.54877667">
        <ele>9.0</ele>
        <time>2019-05-17T11:10:52.172Z</time>
      </trkpt>
      <trkpt lat="39.33753667" lon="-8.54869167">
        <ele>9.0</ele>
        <time>2019-05-17T11:10:53.186Z</time>
      </trkpt>
      <trkpt lat="39.33753667" lon="-8.54869167">
        <ele>9.0</ele>
        <time>2019-05-17T11:10:54.157Z</time>
      </trkpt>
      <trkpt lat="39.33751667" lon="-8.54861667">
        <ele>9.0</ele>
        <time>2019-05-17T11:10:55.169Z</time>
      </trkpt>
      <trkpt lat="39.33751667" lon="-8.54861667">
        <ele>9.0</ele>
        <time>2019-05-17T11:10:56.181Z</time>
      </trkpt>
      <trkpt lat="39.33749667" lon="-8.54854333">
        <ele>9.0</ele>
        <time>2019-05-17T11:10:57.155Z</time>
      </trkpt>
      <trkpt lat="39.33749667" lon="-8.54854333">
        <ele>9.0</ele>
        <time>2019-05-17T11:10:58.166Z</time>
      </trkpt>
      <trkpt lat="39.33747" lon="-8.548475">
        <ele>10.0</ele>
        <time>2019-05-17T11:10:59.190Z</time>
      </trkpt>
      <trkpt lat="39.33747" lon="-8.548475">
        <ele>10.0</ele>
        <time>2019-05-17T11:11:00.159Z</time>
      </trkpt>
      <trkpt lat="39.337445" lon="-8.54841167">
        <ele>10.0</ele>
        <time>2019-05-17T11:11:01.179Z</time>
      </trkpt>
      <trkpt lat="39.337445" lon="-8.54841167">
        <ele>10.0</ele>
        <time>2019-05-17T11:11:02.155Z</time>
      </trkpt>
      <trkpt lat="39.33741833" lon="-8.54834333">
        <ele>10.0</ele>
        <time>2019-05-17T11:11:03.174Z</time>
      </trkpt>
      <trkpt lat="39.33741833" lon="-8.54834333">
        <ele>10.0</ele>
        <time>2019-05-17T11:11:04.187Z</time>
      </trkpt>
      <trkpt lat="39.33739667" lon="-8.54826333">
        <ele>11.0</ele>
        <time>2019-05-17T11:11:05.165Z</time>
      </trkpt>
      <trkpt lat="39.33739667" lon="-8.54826333">
        <ele>11.0</ele>
        <time>2019-05-17T11:11:06.177Z</time>
      </trkpt>
      <trkpt lat="39.33737" lon="-8.54818167">
        <ele>11.0</ele>
        <time>2019-05-17T11:11:07.152Z</time>
      </trkpt>
      <trkpt lat="39.33737" lon="-8.54818167">
        <ele>11.0</ele>
        <time>2019-05-17T11:11:08.168Z</time>
      </trkpt>
      <trkpt lat="39.33734" lon="-8.54810167">
        <ele>11.0</ele>
        <time>2019-05-17T11:11:09.157Z</time>
      </trkpt>
      <trkpt lat="39.33734" lon="-8.54810167">
        <ele>11.0</ele>
        <time>2019-05-17T11:11:10.159Z</time>
      </trkpt>
      <trkpt lat="39.33730833" lon="-8.548025">
        <ele>11.0</ele>
        <time>2019-05-17T11:11:11.177Z</time>
      </trkpt>
      <trkpt lat="39.33730833" lon="-8.548025">
        <ele>11.0</ele>
        <time>2019-05-17T11:11:12.155Z</time>
      </trkpt>
      <trkpt lat="39.33728167" lon="-8.54795167">
        <ele>11.0</ele>
        <time>2019-05-17T11:11:13.169Z</time>
      </trkpt>
      <trkpt lat="39.33728167" lon="-8.54795167">
        <ele>11.0</ele>
        <time>2019-05-17T11:11:14.152Z</time>
      </trkpt>
      <trkpt lat="39.33725" lon="-8.547875">
        <ele>11.0</ele>
        <time>2019-05-17T11:11:15.166Z</time>
      </trkpt>
      <trkpt lat="39.33723333" lon="-8.547835">
        <ele>11.0</ele>
        <time>2019-05-17T11:11:16.187Z</time>
      </trkpt>
      <trkpt lat="39.33723333" lon="-8.547835">
        <ele>11.0</ele>
        <time>2019-05-17T11:11:17.156Z</time>
      </trkpt>
      <trkpt lat="39.33719667" lon="-8.54775667">
        <ele>11.0</ele>
        <time>2019-05-17T11:11:18.170Z</time>
      </trkpt>
      <trkpt lat="39.33719667" lon="-8.54775667">
        <ele>11.0</ele>
        <time>2019-05-17T11:11:19.179Z</time>
      </trkpt>
      <trkpt lat="39.33717167" lon="-8.547675">
        <ele>11.0</ele>
        <time>2019-05-17T11:11:20.153Z</time>
      </trkpt>
      <trkpt lat="39.33717167" lon="-8.547675">
        <ele>11.0</ele>
        <time>2019-05-17T11:11:21.175Z</time>
      </trkpt>
      <trkpt lat="39.33714333" lon="-8.54759833">
        <ele>12.0</ele>
        <time>2019-05-17T11:11:22.150Z</time>
      </trkpt>
      <trkpt lat="39.33713333" lon="-8.547565">
        <ele>12.0</ele>
        <time>2019-05-17T11:11:23.184Z</time>
      </trkpt>
      <trkpt lat="39.33713333" lon="-8.547565">
        <ele>12.0</ele>
        <time>2019-05-17T11:11:24.162Z</time>
      </trkpt>
      <trkpt lat="39.33711333" lon="-8.54750667">
        <ele>12.0</ele>
        <time>2019-05-17T11:11:25.186Z</time>
      </trkpt>
      <trkpt lat="39.33711333" lon="-8.54750667">
        <ele>12.0</ele>
        <time>2019-05-17T11:11:26.157Z</time>
      </trkpt>
      <trkpt lat="39.33710167" lon="-8.54747167">
        <ele>12.0</ele>
        <time>2019-05-17T11:11:27.165Z</time>
      </trkpt>
      <trkpt lat="39.33710333" lon="-8.54747333">
        <ele>12.0</ele>
        <time>2019-05-17T11:11:28.191Z</time>
      </trkpt>
      <trkpt lat="39.33710333" lon="-8.54747333">
        <ele>12.0</ele>
        <time>2019-05-17T11:11:29.172Z</time>
      </trkpt>
      <trkpt lat="39.33710333" lon="-8.54747333">
        <ele>12.0</ele>
        <time>2019-05-17T11:11:30.185Z</time>
      </trkpt>
      <trkpt lat="39.33710333" lon="-8.547475">
        <ele>12.0</ele>
        <time>2019-05-17T11:11:31.154Z</time>
      </trkpt>
      <trkpt lat="39.33710333" lon="-8.547475">
        <ele>12.0</ele>
        <time>2019-05-17T11:11:32.168Z</time>
      </trkpt>
      <trkpt lat="39.33710333" lon="-8.547475">
        <ele>12.0</ele>
        <time>2019-05-17T11:11:33.162Z</time>
      </trkpt>
      <trkpt lat="39.33710333" lon="-8.547475">
        <ele>12.0</ele>
        <time>2019-05-17T11:11:34.186Z</time>
      </trkpt>
      <trkpt lat="39.33710333" lon="-8.547475">
        <ele>12.0</ele>
        <time>2019-05-17T11:11:35.187Z</time>
      </trkpt>
      <trkpt lat="39.33710333" lon="-8.547475">
        <ele>12.0</ele>
        <time>2019-05-17T11:11:36.186Z</time>
      </trkpt>
      <trkpt lat="39.33710333" lon="-8.547475">
        <ele>12.0</ele>
        <time>2019-05-17T11:11:37.185Z</time>
      </trkpt>
      <trkpt lat="39.33710333" lon="-8.547475">
        <ele>12.0</ele>
        <time>2019-05-17T11:11:38.181Z</time>
      </trkpt>
      <trkpt lat="39.33710333" lon="-8.547475">
        <ele>12.0</ele>
        <time>2019-05-17T11:11:39.185Z</time>
      </trkpt>
      <trkpt lat="39.33710333" lon="-8.547475">
        <ele>12.0</ele>
        <time>2019-05-17T11:11:40.151Z</time>
      </trkpt>
      <trkpt lat="39.33710333" lon="-8.547475">
        <ele>12.0</ele>
        <time>2019-05-17T11:11:41.189Z</time>
      </trkpt>
      <trkpt lat="39.33710333" lon="-8.547475">
        <ele>12.0</ele>
        <time>2019-05-17T11:11:42.180Z</time>
      </trkpt>
      <trkpt lat="39.33712333" lon="-8.54745833">
        <ele>12.0</ele>
        <time>2019-05-17T11:11:43.186Z</time>
      </trkpt>
      <trkpt lat="39.33712333" lon="-8.54745833">
        <ele>12.0</ele>
        <time>2019-05-17T11:11:44.181Z</time>
      </trkpt>
      <trkpt lat="39.33713333" lon="-8.547475">
        <ele>11.0</ele>
        <time>2019-05-17T11:11:45.185Z</time>
      </trkpt>
      <trkpt lat="39.33713333" lon="-8.547475">
        <ele>11.0</ele>
        <time>2019-05-17T11:11:46.193Z</time>
      </trkpt>
      <trkpt lat="39.33713167" lon="-8.54747833">
        <ele>11.0</ele>
        <time>2019-05-17T11:11:47.189Z</time>
      </trkpt>
      <trkpt lat="39.33713167" lon="-8.54747833">
        <ele>11.0</ele>
        <time>2019-05-17T11:11:48.180Z</time>
      </trkpt>
      <trkpt lat="39.33713167" lon="-8.54747833">
        <ele>11.0</ele>
        <time>2019-05-17T11:11:49.184Z</time>
      </trkpt>
      <trkpt lat="39.33713167" lon="-8.54747833">
        <ele>11.0</ele>
        <time>2019-05-17T11:11:50.180Z</time>
      </trkpt>
      <trkpt lat="39.33713167" lon="-8.54747833">
        <ele>11.0</ele>
        <time>2019-05-17T11:11:51.185Z</time>
      </trkpt>
      <trkpt lat="39.33713167" lon="-8.54747833">
        <ele>11.0</ele>
        <time>2019-05-17T11:11:52.186Z</time>
      </trkpt>
      <trkpt lat="39.33713167" lon="-8.54747833">
        <ele>11.0</ele>
        <time>2019-05-17T11:11:53.187Z</time>
      </trkpt>
      <trkpt lat="39.33713167" lon="-8.54747833">
        <ele>11.0</ele>
        <time>2019-05-17T11:11:54.181Z</time>
      </trkpt>
      <trkpt lat="39.33713167" lon="-8.54747833">
        <ele>11.0</ele>
        <time>2019-05-17T11:11:55.185Z</time>
      </trkpt>
      <trkpt lat="39.33713167" lon="-8.54747833">
        <ele>11.0</ele>
        <time>2019-05-17T11:11:56.180Z</time>
      </trkpt>
      <trkpt lat="39.33713167" lon="-8.54747833">
        <ele>11.0</ele>
        <time>2019-05-17T11:11:57.188Z</time>
      </trkpt>
      <trkpt lat="39.33713167" lon="-8.54747833">
        <ele>11.0</ele>
        <time>2019-05-17T11:11:58.186Z</time>
      </trkpt>
      <trkpt lat="39.33713167" lon="-8.54747833">
        <ele>11.0</ele>
        <time>2019-05-17T11:11:59.183Z</time>
      </trkpt>
      <trkpt lat="39.33713167" lon="-8.54747833">
        <ele>11.0</ele>
        <time>2019-05-17T11:12:00.185Z</time>
      </trkpt>
      <trkpt lat="39.33713167" lon="-8.54747833">
        <ele>11.0</ele>
        <time>2019-05-17T11:12:01.175Z</time>
      </trkpt>
      <trkpt lat="39.33713167" lon="-8.54747833">
        <ele>11.0</ele>
        <time>2019-05-17T11:12:02.161Z</time>
      </trkpt>
      <trkpt lat="39.33713167" lon="-8.54747833">
        <ele>11.0</ele>
        <time>2019-05-17T11:12:03.186Z</time>
      </trkpt>
      <trkpt lat="39.33713167" lon="-8.54747833">
        <ele>11.0</ele>
        <time>2019-05-17T11:12:04.185Z</time>
      </trkpt>
      <trkpt lat="39.33713167" lon="-8.54747833">
        <ele>11.0</ele>
        <time>2019-05-17T11:12:05.187Z</time>
      </trkpt>
      <trkpt lat="39.33713167" lon="-8.54747833">
        <ele>11.0</ele>
        <time>2019-05-17T11:12:06.180Z</time>
      </trkpt>
      <trkpt lat="39.33713167" lon="-8.54747833">
        <ele>11.0</ele>
        <time>2019-05-17T11:12:07.185Z</time>
      </trkpt>
      <trkpt lat="39.33713167" lon="-8.54747833">
        <ele>11.0</ele>
        <time>2019-05-17T11:12:08.180Z</time>
      </trkpt>
      <trkpt lat="39.33713167" lon="-8.54747833">
        <ele>11.0</ele>
        <time>2019-05-17T11:12:09.183Z</time>
      </trkpt>
      <trkpt lat="39.33713167" lon="-8.54747833">
        <ele>11.0</ele>
        <time>2019-05-17T11:12:10.156Z</time>
      </trkpt>
      <trkpt lat="39.33713167" lon="-8.54747833">
        <ele>11.0</ele>
        <time>2019-05-17T11:12:11.152Z</time>
      </trkpt>
      <trkpt lat="39.33713167" lon="-8.54747833">
        <ele>11.0</ele>
        <time>2019-05-17T11:12:12.180Z</time>
      </trkpt>
      <trkpt lat="39.33713167" lon="-8.54747833">
        <ele>11.0</ele>
        <time>2019-05-17T11:12:13.186Z</time>
      </trkpt>
      <trkpt lat="39.33713167" lon="-8.54747833">
        <ele>11.0</ele>
        <time>2019-05-17T11:12:14.180Z</time>
      </trkpt>
      <trkpt lat="39.33713167" lon="-8.54747833">
        <ele>11.0</ele>
        <time>2019-05-17T11:12:15.185Z</time>
      </trkpt>
      <trkpt lat="39.33713167" lon="-8.54747833">
        <ele>11.0</ele>
        <time>2019-05-17T11:12:16.181Z</time>
      </trkpt>
      <trkpt lat="39.33713167" lon="-8.54747833">
        <ele>11.0</ele>
        <time>2019-05-17T11:12:17.186Z</time>
      </trkpt>
      <trkpt lat="39.33713167" lon="-8.54747833">
        <ele>11.0</ele>
        <time>2019-05-17T11:12:18.180Z</time>
      </trkpt>
      <trkpt lat="39.33713167" lon="-8.54747833">
        <ele>11.0</ele>
        <time>2019-05-17T11:12:19.185Z</time>
      </trkpt>
      <trkpt lat="39.33713167" lon="-8.54747833">
        <ele>11.0</ele>
        <time>2019-05-17T11:12:20.181Z</time>
      </trkpt>
      <trkpt lat="39.33713167" lon="-8.54747833">
        <ele>11.0</ele>
        <time>2019-05-17T11:12:21.189Z</time>
      </trkpt>
      <trkpt lat="39.33713167" lon="-8.54747833">
        <ele>11.0</ele>
        <time>2019-05-17T11:12:22.186Z</time>
      </trkpt>
      <trkpt lat="39.33713167" lon="-8.54747833">
        <ele>11.0</ele>
        <time>2019-05-17T11:12:23.152Z</time>
      </trkpt>
      <trkpt lat="39.33713167" lon="-8.54747833">
        <ele>11.0</ele>
        <time>2019-05-17T11:12:24.180Z</time>
      </trkpt>
      <trkpt lat="39.33713167" lon="-8.54747833">
        <ele>11.0</ele>
        <time>2019-05-17T11:12:25.185Z</time>
      </trkpt>
      <trkpt lat="39.33713167" lon="-8.54747833">
        <ele>11.0</ele>
        <time>2019-05-17T11:12:26.180Z</time>
      </trkpt>
      <trkpt lat="39.33713167" lon="-8.54747833">
        <ele>11.0</ele>
        <time>2019-05-17T11:12:27.185Z</time>
      </trkpt>
      <trkpt lat="39.33713167" lon="-8.54747833">
        <ele>11.0</ele>
        <time>2019-05-17T11:12:28.185Z</time>
      </trkpt>
      <trkpt lat="39.33713167" lon="-8.54747833">
        <ele>11.0</ele>
        <time>2019-05-17T11:12:29.187Z</time>
      </trkpt>
      <trkpt lat="39.33713167" lon="-8.54747833">
        <ele>11.0</ele>
        <time>2019-05-17T11:12:30.180Z</time>
      </trkpt>
      <trkpt lat="39.33713167" lon="-8.54747833">
        <ele>11.0</ele>
        <time>2019-05-17T11:12:31.181Z</time>
      </trkpt>
      <trkpt lat="39.33713167" lon="-8.54747833">
        <ele>11.0</ele>
        <time>2019-05-17T11:12:32.186Z</time>
      </trkpt>
      <trkpt lat="39.33713167" lon="-8.54747833">
        <ele>11.0</ele>
        <time>2019-05-17T11:12:33.185Z</time>
      </trkpt>
      <trkpt lat="39.33713167" lon="-8.54747833">
        <ele>11.0</ele>
        <time>2019-05-17T11:12:34.180Z</time>
      </trkpt>
      <trkpt lat="39.33713167" lon="-8.54747833">
        <ele>11.0</ele>
        <time>2019-05-17T11:12:35.187Z</time>
      </trkpt>
      <trkpt lat="39.33713167" lon="-8.54747833">
        <ele>11.0</ele>
        <time>2019-05-17T11:12:36.185Z</time>
      </trkpt>
      <trkpt lat="39.33713167" lon="-8.54747833">
        <ele>11.0</ele>
        <time>2019-05-17T11:12:37.183Z</time>
      </trkpt>
      <trkpt lat="39.33713167" lon="-8.54747833">
        <ele>11.0</ele>
        <time>2019-05-17T11:12:38.185Z</time>
      </trkpt>
      <trkpt lat="39.33713167" lon="-8.54747833">
        <ele>11.0</ele>
        <time>2019-05-17T11:12:39.180Z</time>
      </trkpt>
      <trkpt lat="39.33713167" lon="-8.54747833">
        <ele>11.0</ele>
        <time>2019-05-17T11:12:40.186Z</time>
      </trkpt>
      <trkpt lat="39.33713167" lon="-8.54747833">
        <ele>11.0</ele>
        <time>2019-05-17T11:12:41.182Z</time>
      </trkpt>
      <trkpt lat="39.33713167" lon="-8.54747833">
        <ele>11.0</ele>
        <time>2019-05-17T11:12:42.186Z</time>
      </trkpt>
      <trkpt lat="39.33713167" lon="-8.54747833">
        <ele>11.0</ele>
        <time>2019-05-17T11:12:43.185Z</time>
      </trkpt>
      <trkpt lat="39.33713167" lon="-8.54747833">
        <ele>11.0</ele>
        <time>2019-05-17T11:12:44.186Z</time>
      </trkpt>
      <trkpt lat="39.33713167" lon="-8.54747833">
        <ele>11.0</ele>
        <time>2019-05-17T11:12:45.180Z</time>
      </trkpt>
      <trkpt lat="39.33713167" lon="-8.54747833">
        <ele>11.0</ele>
        <time>2019-05-17T11:12:46.185Z</time>
      </trkpt>
      <trkpt lat="39.33713167" lon="-8.54747833">
        <ele>11.0</ele>
        <time>2019-05-17T11:12:47.181Z</time>
      </trkpt>
      <trkpt lat="39.33713167" lon="-8.54747833">
        <ele>11.0</ele>
        <time>2019-05-17T11:12:48.185Z</time>
      </trkpt>
      <trkpt lat="39.33713167" lon="-8.54747833">
        <ele>11.0</ele>
        <time>2019-05-17T11:12:49.181Z</time>
      </trkpt>
      <trkpt lat="39.33710667" lon="-8.54745333">
        <ele>11.0</ele>
        <time>2019-05-17T11:12:50.185Z</time>
      </trkpt>
      <trkpt lat="39.33710667" lon="-8.54745333">
        <ele>11.0</ele>
        <time>2019-05-17T11:12:51.178Z</time>
      </trkpt>
      <trkpt lat="39.33709833" lon="-8.54745333">
        <ele>11.0</ele>
        <time>2019-05-17T11:12:52.187Z</time>
      </trkpt>
      <trkpt lat="39.33709833" lon="-8.54745333">
        <ele>11.0</ele>
        <time>2019-05-17T11:12:53.179Z</time>
      </trkpt>
      <trkpt lat="39.33709667" lon="-8.54745333">
        <ele>11.0</ele>
        <time>2019-05-17T11:12:54.185Z</time>
      </trkpt>
      <trkpt lat="39.33709667" lon="-8.54745333">
        <ele>11.0</ele>
        <time>2019-05-17T11:12:55.180Z</time>
      </trkpt>
      <trkpt lat="39.33708333" lon="-8.54742667">
        <ele>11.0</ele>
        <time>2019-05-17T11:12:56.185Z</time>
      </trkpt>
      <trkpt lat="39.33708333" lon="-8.54742667">
        <ele>11.0</ele>
        <time>2019-05-17T11:12:57.181Z</time>
      </trkpt>
      <trkpt lat="39.33707" lon="-8.54737833">
        <ele>11.0</ele>
        <time>2019-05-17T11:12:58.185Z</time>
      </trkpt>
      <trkpt lat="39.33706" lon="-8.54734833">
        <ele>11.0</ele>
        <time>2019-05-17T11:12:59.187Z</time>
      </trkpt>
      <trkpt lat="39.33706" lon="-8.54734833">
        <ele>11.0</ele>
        <time>2019-05-17T11:13:00.180Z</time>
      </trkpt>
      <trkpt lat="39.33703833" lon="-8.54728333">
        <ele>11.0</ele>
        <time>2019-05-17T11:13:01.166Z</time>
      </trkpt>
      <trkpt lat="39.33703833" lon="-8.54728333">
        <ele>11.0</ele>
        <time>2019-05-17T11:13:02.150Z</time>
      </trkpt>
      <trkpt lat="39.33701333" lon="-8.54720833">
        <ele>11.0</ele>
        <time>2019-05-17T11:13:03.162Z</time>
      </trkpt>
      <trkpt lat="39.33701333" lon="-8.54720833">
        <ele>11.0</ele>
        <time>2019-05-17T11:13:04.177Z</time>
      </trkpt>
      <trkpt lat="39.33699167" lon="-8.54712333">
        <ele>11.0</ele>
        <time>2019-05-17T11:13:05.161Z</time>
      </trkpt>
      <trkpt lat="39.33699167" lon="-8.54712333">
        <ele>11.0</ele>
        <time>2019-05-17T11:13:06.177Z</time>
      </trkpt>
      <trkpt lat="39.33696667" lon="-8.547035">
        <ele>11.0</ele>
        <time>2019-05-17T11:13:07.150Z</time>
      </trkpt>
      <trkpt lat="39.33696667" lon="-8.547035">
        <ele>11.0</ele>
        <time>2019-05-17T11:13:08.159Z</time>
      </trkpt>
      <trkpt lat="39.33694333" lon="-8.54694167">
        <ele>12.0</ele>
        <time>2019-05-17T11:13:09.157Z</time>
      </trkpt>
      <trkpt lat="39.33694333" lon="-8.54694167">
        <ele>12.0</ele>
        <time>2019-05-17T11:13:10.168Z</time>
      </trkpt>
      <trkpt lat="39.336915" lon="-8.54685167">
        <ele>12.0</ele>
        <time>2019-05-17T11:13:11.181Z</time>
      </trkpt>
      <trkpt lat="39.336915" lon="-8.54685167">
        <ele>12.0</ele>
        <time>2019-05-17T11:13:12.189Z</time>
      </trkpt>
      <trkpt lat="39.33688833" lon="-8.546765">
        <ele>13.0</ele>
        <time>2019-05-17T11:13:13.166Z</time>
      </trkpt>
      <trkpt lat="39.33687333" lon="-8.54672333">
        <ele>13.0</ele>
        <time>2019-05-17T11:13:14.184Z</time>
      </trkpt>
      <trkpt lat="39.33687333" lon="-8.54672333">
        <ele>13.0</ele>
        <time>2019-05-17T11:13:15.156Z</time>
      </trkpt>
      <trkpt lat="39.336845" lon="-8.546635">
        <ele>13.0</ele>
        <time>2019-05-17T11:13:16.171Z</time>
      </trkpt>
      <trkpt lat="39.33683667" lon="-8.54659">
        <ele>13.0</ele>
        <time>2019-05-17T11:13:17.168Z</time>
      </trkpt>
      <trkpt lat="39.33683667" lon="-8.54659">
        <ele>13.0</ele>
        <time>2019-05-17T11:13:18.180Z</time>
      </trkpt>
      <trkpt lat="39.33681833" lon="-8.54649667">
        <ele>13.0</ele>
        <time>2019-05-17T11:13:19.165Z</time>
      </trkpt>
      <trkpt lat="39.33681833" lon="-8.54649667">
        <ele>13.0</ele>
        <time>2019-05-17T11:13:20.156Z</time>
      </trkpt>
      <trkpt lat="39.3368" lon="-8.54640333">
        <ele>13.0</ele>
        <time>2019-05-17T11:13:21.171Z</time>
      </trkpt>
      <trkpt lat="39.3368" lon="-8.54640333">
        <ele>13.0</ele>
        <time>2019-05-17T11:13:22.178Z</time>
      </trkpt>
      <trkpt lat="39.336775" lon="-8.54631333">
        <ele>13.0</ele>
        <time>2019-05-17T11:13:23.151Z</time>
      </trkpt>
      <trkpt lat="39.336775" lon="-8.54631333">
        <ele>13.0</ele>
        <time>2019-05-17T11:13:24.178Z</time>
      </trkpt>
      <trkpt lat="39.33675667" lon="-8.54622833">
        <ele>13.0</ele>
        <time>2019-05-17T11:13:25.150Z</time>
      </trkpt>
      <trkpt lat="39.33674833" lon="-8.54618667">
        <ele>13.0</ele>
        <time>2019-05-17T11:13:26.164Z</time>
      </trkpt>
      <trkpt lat="39.33674833" lon="-8.54618667">
        <ele>13.0</ele>
        <time>2019-05-17T11:13:27.174Z</time>
      </trkpt>
      <trkpt lat="39.336735" lon="-8.54610333">
        <ele>13.0</ele>
        <time>2019-05-17T11:13:28.153Z</time>
      </trkpt>
      <trkpt lat="39.33673" lon="-8.54606167">
        <ele>13.0</ele>
        <time>2019-05-17T11:13:29.177Z</time>
      </trkpt>
      <trkpt lat="39.33673" lon="-8.54606167">
        <ele>13.0</ele>
        <time>2019-05-17T11:13:30.187Z</time>
      </trkpt>
      <trkpt lat="39.33671667" lon="-8.54597333">
        <ele>13.0</ele>
        <time>2019-05-17T11:13:31.164Z</time>
      </trkpt>
      <trkpt lat="39.33671667" lon="-8.54597333">
        <ele>13.0</ele>
        <time>2019-05-17T11:13:32.179Z</time>
      </trkpt>
      <trkpt lat="39.33669833" lon="-8.545885">
        <ele>13.0</ele>
        <time>2019-05-17T11:13:33.154Z</time>
      </trkpt>
      <trkpt lat="39.33669833" lon="-8.545885">
        <ele>13.0</ele>
        <time>2019-05-17T11:13:34.164Z</time>
      </trkpt>
      <trkpt lat="39.33667167" lon="-8.545795">
        <ele>13.0</ele>
        <time>2019-05-17T11:13:35.187Z</time>
      </trkpt>
      <trkpt lat="39.33667167" lon="-8.545795">
        <ele>13.0</ele>
        <time>2019-05-17T11:13:36.155Z</time>
      </trkpt>
      <trkpt lat="39.33664667" lon="-8.545705">
        <ele>13.0</ele>
        <time>2019-05-17T11:13:37.176Z</time>
      </trkpt>
      <trkpt lat="39.33664667" lon="-8.545705">
        <ele>13.0</ele>
        <time>2019-05-17T11:13:38.184Z</time>
      </trkpt>
      <trkpt lat="39.336625" lon="-8.545615">
        <ele>13.0</ele>
        <time>2019-05-17T11:13:39.159Z</time>
      </trkpt>
      <trkpt lat="39.336625" lon="-8.545615">
        <ele>13.0</ele>
        <time>2019-05-17T11:13:40.166Z</time>
      </trkpt>
      <trkpt lat="39.33660833" lon="-8.54552333">
        <ele>13.0</ele>
        <time>2019-05-17T11:13:41.184Z</time>
      </trkpt>
      <trkpt lat="39.33660833" lon="-8.54552333">
        <ele>13.0</ele>
        <time>2019-05-17T11:13:42.157Z</time>
      </trkpt>
      <trkpt lat="39.33658667" lon="-8.545435">
        <ele>13.0</ele>
        <time>2019-05-17T11:13:43.178Z</time>
      </trkpt>
      <trkpt lat="39.33658667" lon="-8.545435">
        <ele>13.0</ele>
        <time>2019-05-17T11:13:44.174Z</time>
      </trkpt>
      <trkpt lat="39.33657833" lon="-8.54535333">
        <ele>13.0</ele>
        <time>2019-05-17T11:13:45.153Z</time>
      </trkpt>
      <trkpt lat="39.33657833" lon="-8.54535333">
        <ele>13.0</ele>
        <time>2019-05-17T11:13:46.163Z</time>
      </trkpt>
      <trkpt lat="39.33656833" lon="-8.54527">
        <ele>14.0</ele>
        <time>2019-05-17T11:13:47.187Z</time>
      </trkpt>
      <trkpt lat="39.33656833" lon="-8.54527">
        <ele>14.0</ele>
        <time>2019-05-17T11:13:48.153Z</time>
      </trkpt>
      <trkpt lat="39.33656167" lon="-8.54517833">
        <ele>13.0</ele>
        <time>2019-05-17T11:13:49.172Z</time>
      </trkpt>
      <trkpt lat="39.33656167" lon="-8.54517833">
        <ele>13.0</ele>
        <time>2019-05-17T11:13:50.183Z</time>
      </trkpt>
      <trkpt lat="39.336555" lon="-8.545075">
        <ele>13.0</ele>
        <time>2019-05-17T11:13:51.155Z</time>
      </trkpt>
      <trkpt lat="39.336555" lon="-8.545075">
        <ele>13.0</ele>
        <time>2019-05-17T11:13:52.161Z</time>
      </trkpt>
      <trkpt lat="39.33655" lon="-8.544975">
        <ele>12.0</ele>
        <time>2019-05-17T11:13:53.174Z</time>
      </trkpt>
      <trkpt lat="39.33655" lon="-8.544975">
        <ele>12.0</ele>
        <time>2019-05-17T11:13:54.157Z</time>
      </trkpt>
      <trkpt lat="39.33654667" lon="-8.54487667">
        <ele>12.0</ele>
        <time>2019-05-17T11:13:55.180Z</time>
      </trkpt>
      <trkpt lat="39.336545" lon="-8.54482833">
        <ele>12.0</ele>
        <time>2019-05-17T11:13:56.176Z</time>
      </trkpt>
      <trkpt lat="39.336545" lon="-8.54482833">
        <ele>12.0</ele>
        <time>2019-05-17T11:13:57.189Z</time>
      </trkpt>
      <trkpt lat="39.33654167" lon="-8.54472667">
        <ele>12.0</ele>
        <time>2019-05-17T11:13:58.160Z</time>
      </trkpt>
      <trkpt lat="39.33654333" lon="-8.54467833">
        <ele>13.0</ele>
        <time>2019-05-17T11:13:59.171Z</time>
      </trkpt>
      <trkpt lat="39.33654333" lon="-8.54467833">
        <ele>13.0</ele>
        <time>2019-05-17T11:14:00.180Z</time>
      </trkpt>
      <trkpt lat="39.33654" lon="-8.544575">
        <ele>13.0</ele>
        <time>2019-05-17T11:14:01.162Z</time>
      </trkpt>
      <trkpt lat="39.33654" lon="-8.544575">
        <ele>13.0</ele>
        <time>2019-05-17T11:14:02.176Z</time>
      </trkpt>
      <trkpt lat="39.336535" lon="-8.54447333">
        <ele>13.0</ele>
        <time>2019-05-17T11:14:03.151Z</time>
      </trkpt>
      <trkpt lat="39.336535" lon="-8.54447333">
        <ele>13.0</ele>
        <time>2019-05-17T11:14:04.164Z</time>
      </trkpt>
      <trkpt lat="39.33653" lon="-8.54437167">
        <ele>12.0</ele>
        <time>2019-05-17T11:14:05.183Z</time>
      </trkpt>
      <trkpt lat="39.33653" lon="-8.54437167">
        <ele>12.0</ele>
        <time>2019-05-17T11:14:06.154Z</time>
      </trkpt>
      <trkpt lat="39.33652667" lon="-8.544265">
        <ele>12.0</ele>
        <time>2019-05-17T11:14:07.168Z</time>
      </trkpt>
      <trkpt lat="39.33652333" lon="-8.54421167">
        <ele>12.0</ele>
        <time>2019-05-17T11:14:08.154Z</time>
      </trkpt>
      <trkpt lat="39.33652333" lon="-8.54421167">
        <ele>12.0</ele>
        <time>2019-05-17T11:14:09.166Z</time>
      </trkpt>
      <trkpt lat="39.33651833" lon="-8.54411167">
        <ele>12.0</ele>
        <time>2019-05-17T11:14:10.185Z</time>
      </trkpt>
      <trkpt lat="39.33651333" lon="-8.54406833">
        <ele>13.0</ele>
        <time>2019-05-17T11:14:11.175Z</time>
      </trkpt>
      <trkpt lat="39.33651333" lon="-8.54406833">
        <ele>13.0</ele>
        <time>2019-05-17T11:14:12.187Z</time>
      </trkpt>
      <trkpt lat="39.33650667" lon="-8.54398667">
        <ele>13.0</ele>
        <time>2019-05-17T11:14:13.159Z</time>
      </trkpt>
      <trkpt lat="39.33650667" lon="-8.54398667">
        <ele>13.0</ele>
        <time>2019-05-17T11:14:14.175Z</time>
      </trkpt>
      <trkpt lat="39.3365" lon="-8.54390667">
        <ele>13.0</ele>
        <time>2019-05-17T11:14:15.160Z</time>
      </trkpt>
      <trkpt lat="39.336495" lon="-8.543865">
        <ele>12.0</ele>
        <time>2019-05-17T11:14:16.180Z</time>
      </trkpt>
      <trkpt lat="39.33649167" lon="-8.543825">
        <ele>12.0</ele>
        <time>2019-05-17T11:14:17.164Z</time>
      </trkpt>
      <trkpt lat="39.33649167" lon="-8.543825">
        <ele>12.0</ele>
        <time>2019-05-17T11:14:18.172Z</time>
      </trkpt>
      <trkpt lat="39.33649" lon="-8.54373833">
        <ele>12.0</ele>
        <time>2019-05-17T11:14:19.183Z</time>
      </trkpt>
      <trkpt lat="39.33649" lon="-8.54373833">
        <ele>12.0</ele>
        <time>2019-05-17T11:14:20.165Z</time>
      </trkpt>
      <trkpt lat="39.336485" lon="-8.54365">
        <ele>12.0</ele>
        <time>2019-05-17T11:14:21.187Z</time>
      </trkpt>
      <trkpt lat="39.336485" lon="-8.54365">
        <ele>12.0</ele>
        <time>2019-05-17T11:14:22.163Z</time>
      </trkpt>
      <trkpt lat="39.33648" lon="-8.543565">
        <ele>12.0</ele>
        <time>2019-05-17T11:14:23.186Z</time>
      </trkpt>
      <trkpt lat="39.33648" lon="-8.543565">
        <ele>12.0</ele>
        <time>2019-05-17T11:14:24.157Z</time>
      </trkpt>
      <trkpt lat="39.336475" lon="-8.54348167">
        <ele>12.0</ele>
        <time>2019-05-17T11:14:25.155Z</time>
      </trkpt>
      <trkpt lat="39.336475" lon="-8.54348167">
        <ele>12.0</ele>
        <time>2019-05-17T11:14:26.174Z</time>
      </trkpt>
      <trkpt lat="39.33647833" lon="-8.54340333">
        <ele>12.0</ele>
        <time>2019-05-17T11:14:27.150Z</time>
      </trkpt>
      <trkpt lat="39.33647833" lon="-8.54340333">
        <ele>12.0</ele>
        <time>2019-05-17T11:14:28.162Z</time>
      </trkpt>
      <trkpt lat="39.33649167" lon="-8.543325">
        <ele>12.0</ele>
        <time>2019-05-17T11:14:29.186Z</time>
      </trkpt>
      <trkpt lat="39.33649167" lon="-8.543325">
        <ele>12.0</ele>
        <time>2019-05-17T11:14:30.151Z</time>
      </trkpt>
      <trkpt lat="39.336505" lon="-8.54324833">
        <ele>12.0</ele>
        <time>2019-05-17T11:14:31.165Z</time>
      </trkpt>
      <trkpt lat="39.336505" lon="-8.54324833">
        <ele>12.0</ele>
        <time>2019-05-17T11:14:32.177Z</time>
      </trkpt>
      <trkpt lat="39.336525" lon="-8.54317167">
        <ele>12.0</ele>
        <time>2019-05-17T11:14:33.158Z</time>
      </trkpt>
      <trkpt lat="39.336525" lon="-8.54317167">
        <ele>12.0</ele>
        <time>2019-05-17T11:14:34.183Z</time>
      </trkpt>
      <trkpt lat="39.33655167" lon="-8.54310167">
        <ele>13.0</ele>
        <time>2019-05-17T11:14:35.153Z</time>
      </trkpt>
      <trkpt lat="39.33655167" lon="-8.54310167">
        <ele>13.0</ele>
        <time>2019-05-17T11:14:36.165Z</time>
      </trkpt>
      <trkpt lat="39.33658333" lon="-8.54303333">
        <ele>13.0</ele>
        <time>2019-05-17T11:14:37.184Z</time>
      </trkpt>
      <trkpt lat="39.33658333" lon="-8.54303333">
        <ele>13.0</ele>
        <time>2019-05-17T11:14:38.155Z</time>
      </trkpt>
      <trkpt lat="39.33660833" lon="-8.54296833">
        <ele>13.0</ele>
        <time>2019-05-17T11:14:39.166Z</time>
      </trkpt>
      <trkpt lat="39.33660833" lon="-8.54296833">
        <ele>13.0</ele>
        <time>2019-05-17T11:14:40.175Z</time>
      </trkpt>
      <trkpt lat="39.336635" lon="-8.54290167">
        <ele>13.0</ele>
        <time>2019-05-17T11:14:41.151Z</time>
      </trkpt>
      <trkpt lat="39.336635" lon="-8.54290167">
        <ele>13.0</ele>
        <time>2019-05-17T11:14:42.158Z</time>
      </trkpt>
      <trkpt lat="39.33666167" lon="-8.54283667">
        <ele>13.0</ele>
        <time>2019-05-17T11:14:43.176Z</time>
      </trkpt>
      <trkpt lat="39.33667667" lon="-8.542805">
        <ele>14.0</ele>
        <time>2019-05-17T11:14:44.168Z</time>
      </trkpt>
      <trkpt lat="39.33667667" lon="-8.542805">
        <ele>14.0</ele>
        <time>2019-05-17T11:14:45.154Z</time>
      </trkpt>
      <trkpt lat="39.3367" lon="-8.54274167">
        <ele>14.0</ele>
        <time>2019-05-17T11:14:46.171Z</time>
      </trkpt>
      <trkpt lat="39.33671333" lon="-8.54271333">
        <ele>14.0</ele>
        <time>2019-05-17T11:14:47.158Z</time>
      </trkpt>
      <trkpt lat="39.33671333" lon="-8.54271333">
        <ele>14.0</ele>
        <time>2019-05-17T11:14:48.166Z</time>
      </trkpt>
      <trkpt lat="39.33674167" lon="-8.542645">
        <ele>14.0</ele>
        <time>2019-05-17T11:14:49.151Z</time>
      </trkpt>
      <trkpt lat="39.33675333" lon="-8.54261">
        <ele>14.0</ele>
        <time>2019-05-17T11:14:50.165Z</time>
      </trkpt>
      <trkpt lat="39.33675333" lon="-8.54261">
        <ele>14.0</ele>
        <time>2019-05-17T11:14:51.174Z</time>
      </trkpt>
      <trkpt lat="39.336785" lon="-8.54254333">
        <ele>14.0</ele>
        <time>2019-05-17T11:14:52.187Z</time>
      </trkpt>
      <trkpt lat="39.33680333" lon="-8.54251333">
        <ele>14.0</ele>
        <time>2019-05-17T11:14:53.166Z</time>
      </trkpt>
      <trkpt lat="39.33680333" lon="-8.54251333">
        <ele>14.0</ele>
        <time>2019-05-17T11:14:54.177Z</time>
      </trkpt>
      <trkpt lat="39.336835" lon="-8.54245667">
        <ele>14.0</ele>
        <time>2019-05-17T11:14:55.155Z</time>
      </trkpt>
      <trkpt lat="39.336835" lon="-8.54245667">
        <ele>14.0</ele>
        <time>2019-05-17T11:14:56.173Z</time>
      </trkpt>
      <trkpt lat="39.33686" lon="-8.54241">
        <ele>15.0</ele>
        <time>2019-05-17T11:14:57.151Z</time>
      </trkpt>
      <trkpt lat="39.33686" lon="-8.54241">
        <ele>15.0</ele>
        <time>2019-05-17T11:14:58.156Z</time>
      </trkpt>
      <trkpt lat="39.336885" lon="-8.54236333">
        <ele>15.0</ele>
        <time>2019-05-17T11:14:59.189Z</time>
      </trkpt>
      <trkpt lat="39.336885" lon="-8.54236333">
        <ele>15.0</ele>
        <time>2019-05-17T11:15:00.176Z</time>
      </trkpt>
      <trkpt lat="39.33691167" lon="-8.54231333">
        <ele>15.0</ele>
        <time>2019-05-17T11:15:01.152Z</time>
      </trkpt>
      <trkpt lat="39.336925" lon="-8.54229">
        <ele>15.0</ele>
        <time>2019-05-17T11:15:02.184Z</time>
      </trkpt>
      <trkpt lat="39.336925" lon="-8.54229">
        <ele>15.0</ele>
        <time>2019-05-17T11:15:03.153Z</time>
      </trkpt>
      <trkpt lat="39.33695167" lon="-8.542245">
        <ele>15.0</ele>
        <time>2019-05-17T11:15:04.169Z</time>
      </trkpt>
      <trkpt lat="39.336965" lon="-8.54222333">
        <ele>15.0</ele>
        <time>2019-05-17T11:15:05.188Z</time>
      </trkpt>
      <trkpt lat="39.336965" lon="-8.54222333">
        <ele>15.0</ele>
        <time>2019-05-17T11:15:06.161Z</time>
      </trkpt>
      <trkpt lat="39.33699167" lon="-8.54218">
        <ele>15.0</ele>
        <time>2019-05-17T11:15:07.173Z</time>
      </trkpt>
      <trkpt lat="39.33699167" lon="-8.54218">
        <ele>15.0</ele>
        <time>2019-05-17T11:15:08.150Z</time>
      </trkpt>
      <trkpt lat="39.33701833" lon="-8.54213333">
        <ele>15.0</ele>
        <time>2019-05-17T11:15:09.185Z</time>
      </trkpt>
      <trkpt lat="39.33701833" lon="-8.54213333">
        <ele>15.0</ele>
        <time>2019-05-17T11:15:10.174Z</time>
      </trkpt>
      <trkpt lat="39.33704" lon="-8.54208">
        <ele>15.0</ele>
        <time>2019-05-17T11:15:11.185Z</time>
      </trkpt>
      <trkpt lat="39.33704" lon="-8.54208">
        <ele>15.0</ele>
        <time>2019-05-17T11:15:12.165Z</time>
      </trkpt>
      <trkpt lat="39.337065" lon="-8.54203833">
        <ele>15.0</ele>
        <time>2019-05-17T11:15:13.180Z</time>
      </trkpt>
      <trkpt lat="39.337065" lon="-8.54203833">
        <ele>15.0</ele>
        <time>2019-05-17T11:15:14.188Z</time>
      </trkpt>
      <trkpt lat="39.33709167" lon="-8.54199667">
        <ele>15.0</ele>
        <time>2019-05-17T11:15:15.163Z</time>
      </trkpt>
      <trkpt lat="39.33709167" lon="-8.54199667">
        <ele>15.0</ele>
        <time>2019-05-17T11:15:16.180Z</time>
      </trkpt>
      <trkpt lat="39.33711833" lon="-8.54194833">
        <ele>15.0</ele>
        <time>2019-05-17T11:15:17.150Z</time>
      </trkpt>
      <trkpt lat="39.33711833" lon="-8.54194833">
        <ele>15.0</ele>
        <time>2019-05-17T11:15:18.161Z</time>
      </trkpt>
      <trkpt lat="39.33714667" lon="-8.5419">
        <ele>15.0</ele>
        <time>2019-05-17T11:15:19.170Z</time>
      </trkpt>
      <trkpt lat="39.33714667" lon="-8.5419">
        <ele>15.0</ele>
        <time>2019-05-17T11:15:20.188Z</time>
      </trkpt>
      <trkpt lat="39.33717833" lon="-8.541845">
        <ele>15.0</ele>
        <time>2019-05-17T11:15:21.160Z</time>
      </trkpt>
      <trkpt lat="39.33717833" lon="-8.541845">
        <ele>15.0</ele>
        <time>2019-05-17T11:15:22.176Z</time>
      </trkpt>
      <trkpt lat="39.337205" lon="-8.54179667">
        <ele>16.0</ele>
        <time>2019-05-17T11:15:23.155Z</time>
      </trkpt>
      <trkpt lat="39.337205" lon="-8.54179667">
        <ele>16.0</ele>
        <time>2019-05-17T11:15:24.172Z</time>
      </trkpt>
      <trkpt lat="39.33722833" lon="-8.54175667">
        <ele>16.0</ele>
        <time>2019-05-17T11:15:25.180Z</time>
      </trkpt>
      <trkpt lat="39.33722833" lon="-8.54175667">
        <ele>16.0</ele>
        <time>2019-05-17T11:15:26.154Z</time>
      </trkpt>
      <trkpt lat="39.33724833" lon="-8.54171167">
        <ele>16.0</ele>
        <time>2019-05-17T11:15:27.175Z</time>
      </trkpt>
      <trkpt lat="39.33724833" lon="-8.54171167">
        <ele>16.0</ele>
        <time>2019-05-17T11:15:28.153Z</time>
      </trkpt>
      <trkpt lat="39.337265" lon="-8.54167167">
        <ele>16.0</ele>
        <time>2019-05-17T11:15:29.166Z</time>
      </trkpt>
      <trkpt lat="39.337265" lon="-8.54167167">
        <ele>16.0</ele>
        <time>2019-05-17T11:15:30.172Z</time>
      </trkpt>
      <trkpt lat="39.33729167" lon="-8.54163">
        <ele>17.0</ele>
        <time>2019-05-17T11:15:31.152Z</time>
      </trkpt>
      <trkpt lat="39.33729167" lon="-8.54163">
        <ele>17.0</ele>
        <time>2019-05-17T11:15:32.173Z</time>
      </trkpt>
      <trkpt lat="39.33732333" lon="-8.541585">
        <ele>17.0</ele>
        <time>2019-05-17T11:15:33.157Z</time>
      </trkpt>
      <trkpt lat="39.33734" lon="-8.54156167">
        <ele>17.0</ele>
        <time>2019-05-17T11:15:34.178Z</time>
      </trkpt>
      <trkpt lat="39.33735667" lon="-8.54153833">
        <ele>17.0</ele>
        <time>2019-05-17T11:15:35.158Z</time>
      </trkpt>
      <trkpt lat="39.33735667" lon="-8.54153833">
        <ele>17.0</ele>
        <time>2019-05-17T11:15:36.172Z</time>
      </trkpt>
      <trkpt lat="39.337385" lon="-8.54148667">
        <ele>17.0</ele>
        <time>2019-05-17T11:15:37.160Z</time>
      </trkpt>
      <trkpt lat="39.337385" lon="-8.54148667">
        <ele>17.0</ele>
        <time>2019-05-17T11:15:38.175Z</time>
      </trkpt>
      <trkpt lat="39.33741833" lon="-8.54143833">
        <ele>17.0</ele>
        <time>2019-05-17T11:15:39.150Z</time>
      </trkpt>
      <trkpt lat="39.33741833" lon="-8.54143833">
        <ele>17.0</ele>
        <time>2019-05-17T11:15:40.153Z</time>
      </trkpt>
      <trkpt lat="39.33745167" lon="-8.54139667">
        <ele>17.0</ele>
        <time>2019-05-17T11:15:41.169Z</time>
      </trkpt>
      <trkpt lat="39.33745167" lon="-8.54139667">
        <ele>17.0</ele>
        <time>2019-05-17T11:15:42.188Z</time>
      </trkpt>
      <trkpt lat="39.33748667" lon="-8.54135333">
        <ele>18.0</ele>
        <time>2019-05-17T11:15:43.171Z</time>
      </trkpt>
      <trkpt lat="39.33748667" lon="-8.54135333">
        <ele>18.0</ele>
        <time>2019-05-17T11:15:44.155Z</time>
      </trkpt>
      <trkpt lat="39.33751833" lon="-8.54131">
        <ele>18.0</ele>
        <time>2019-05-17T11:15:45.159Z</time>
      </trkpt>
      <trkpt lat="39.33751833" lon="-8.54131">
        <ele>18.0</ele>
        <time>2019-05-17T11:15:46.169Z</time>
      </trkpt>
      <trkpt lat="39.33755333" lon="-8.54127333">
        <ele>18.0</ele>
        <time>2019-05-17T11:15:47.185Z</time>
      </trkpt>
      <trkpt lat="39.33755333" lon="-8.54127333">
        <ele>18.0</ele>
        <time>2019-05-17T11:15:48.151Z</time>
      </trkpt>
      <trkpt lat="39.33758333" lon="-8.541235">
        <ele>18.0</ele>
        <time>2019-05-17T11:15:49.165Z</time>
      </trkpt>
      <trkpt lat="39.33758333" lon="-8.541235">
        <ele>18.0</ele>
        <time>2019-05-17T11:15:50.154Z</time>
      </trkpt>
      <trkpt lat="39.33761" lon="-8.5412">
        <ele>18.0</ele>
        <time>2019-05-17T11:15:51.165Z</time>
      </trkpt>
      <trkpt lat="39.33762333" lon="-8.54118667">
        <ele>18.0</ele>
        <time>2019-05-17T11:15:52.154Z</time>
      </trkpt>
      <trkpt lat="39.33763667" lon="-8.54116833">
        <ele>18.0</ele>
        <time>2019-05-17T11:15:53.181Z</time>
      </trkpt>
      <trkpt lat="39.33763667" lon="-8.54116833">
        <ele>18.0</ele>
        <time>2019-05-17T11:15:54.159Z</time>
      </trkpt>
      <trkpt lat="39.33766667" lon="-8.54113333">
        <ele>18.0</ele>
        <time>2019-05-17T11:15:55.175Z</time>
      </trkpt>
      <trkpt lat="39.33766667" lon="-8.54113333">
        <ele>18.0</ele>
        <time>2019-05-17T11:15:56.154Z</time>
      </trkpt>
      <trkpt lat="39.3377" lon="-8.54109667">
        <ele>18.0</ele>
        <time>2019-05-17T11:15:57.156Z</time>
      </trkpt>
      <trkpt lat="39.3377" lon="-8.54109667">
        <ele>18.0</ele>
        <time>2019-05-17T11:15:58.162Z</time>
      </trkpt>
      <trkpt lat="39.33773667" lon="-8.54105667">
        <ele>18.0</ele>
        <time>2019-05-17T11:15:59.150Z</time>
      </trkpt>
      <trkpt lat="39.33773667" lon="-8.54105667">
        <ele>18.0</ele>
        <time>2019-05-17T11:16:00.158Z</time>
      </trkpt>
      <trkpt lat="39.33777667" lon="-8.54101333">
        <ele>18.0</ele>
        <time>2019-05-17T11:16:01.181Z</time>
      </trkpt>
      <trkpt lat="39.33777667" lon="-8.54101333">
        <ele>18.0</ele>
        <time>2019-05-17T11:16:02.156Z</time>
      </trkpt>
      <trkpt lat="39.33781833" lon="-8.540965">
        <ele>18.0</ele>
        <time>2019-05-17T11:16:03.169Z</time>
      </trkpt>
      <trkpt lat="39.33781833" lon="-8.540965">
        <ele>18.0</ele>
        <time>2019-05-17T11:16:04.183Z</time>
      </trkpt>
      <trkpt lat="39.33786" lon="-8.540915">
        <ele>18.0</ele>
        <time>2019-05-17T11:16:05.155Z</time>
      </trkpt>
      <trkpt lat="39.33788167" lon="-8.54088833">
        <ele>18.0</ele>
        <time>2019-05-17T11:16:06.157Z</time>
      </trkpt>
      <trkpt lat="39.33788167" lon="-8.54088833">
        <ele>18.0</ele>
        <time>2019-05-17T11:16:07.173Z</time>
      </trkpt>
      <trkpt lat="39.33792667" lon="-8.54084">
        <ele>18.0</ele>
        <time>2019-05-17T11:16:08.150Z</time>
      </trkpt>
      <trkpt lat="39.33792667" lon="-8.54084">
        <ele>18.0</ele>
        <time>2019-05-17T11:16:09.173Z</time>
      </trkpt>
      <trkpt lat="39.33796833" lon="-8.54078667">
        <ele>18.0</ele>
        <time>2019-05-17T11:16:10.179Z</time>
      </trkpt>
      <trkpt lat="39.33798833" lon="-8.54076167">
        <ele>18.0</ele>
        <time>2019-05-17T11:16:11.157Z</time>
      </trkpt>
      <trkpt lat="39.33798833" lon="-8.54076167">
        <ele>18.0</ele>
        <time>2019-05-17T11:16:12.173Z</time>
      </trkpt>
      <trkpt lat="39.33803" lon="-8.54071167">
        <ele>17.0</ele>
        <time>2019-05-17T11:16:13.155Z</time>
      </trkpt>
      <trkpt lat="39.33803" lon="-8.54071167">
        <ele>17.0</ele>
        <time>2019-05-17T11:16:14.181Z</time>
      </trkpt>
      <trkpt lat="39.33807167" lon="-8.54066">
        <ele>17.0</ele>
        <time>2019-05-17T11:16:15.154Z</time>
      </trkpt>
      <trkpt lat="39.33807167" lon="-8.54066">
        <ele>17.0</ele>
        <time>2019-05-17T11:16:16.189Z</time>
      </trkpt>
      <trkpt lat="39.338115" lon="-8.54060833">
        <ele>17.0</ele>
        <time>2019-05-17T11:16:17.158Z</time>
      </trkpt>
      <trkpt lat="39.338115" lon="-8.54060833">
        <ele>17.0</ele>
        <time>2019-05-17T11:16:18.178Z</time>
      </trkpt>
      <trkpt lat="39.33815833" lon="-8.540555">
        <ele>17.0</ele>
        <time>2019-05-17T11:16:19.152Z</time>
      </trkpt>
      <trkpt lat="39.33815833" lon="-8.540555">
        <ele>17.0</ele>
        <time>2019-05-17T11:16:20.162Z</time>
      </trkpt>
      <trkpt lat="39.33820333" lon="-8.54050667">
        <ele>17.0</ele>
        <time>2019-05-17T11:16:21.184Z</time>
      </trkpt>
      <trkpt lat="39.33820333" lon="-8.54050667">
        <ele>17.0</ele>
        <time>2019-05-17T11:16:22.172Z</time>
      </trkpt>
      <trkpt lat="39.33824667" lon="-8.54045333">
        <ele>17.0</ele>
        <time>2019-05-17T11:16:23.184Z</time>
      </trkpt>
      <trkpt lat="39.33824667" lon="-8.54045333">
        <ele>17.0</ele>
        <time>2019-05-17T11:16:24.154Z</time>
      </trkpt>
      <trkpt lat="39.33829333" lon="-8.5404">
        <ele>17.0</ele>
        <time>2019-05-17T11:16:25.167Z</time>
      </trkpt>
      <trkpt lat="39.33829333" lon="-8.5404">
        <ele>17.0</ele>
        <time>2019-05-17T11:16:26.182Z</time>
      </trkpt>
      <trkpt lat="39.33833833" lon="-8.54034167">
        <ele>17.0</ele>
        <time>2019-05-17T11:16:27.169Z</time>
      </trkpt>
      <trkpt lat="39.33833833" lon="-8.54034167">
        <ele>17.0</ele>
        <time>2019-05-17T11:16:28.189Z</time>
      </trkpt>
      <trkpt lat="39.33838833" lon="-8.54028833">
        <ele>17.0</ele>
        <time>2019-05-17T11:16:29.159Z</time>
      </trkpt>
      <trkpt lat="39.33838833" lon="-8.54028833">
        <ele>17.0</ele>
        <time>2019-05-17T11:16:30.176Z</time>
      </trkpt>
      <trkpt lat="39.338435" lon="-8.540235">
        <ele>18.0</ele>
        <time>2019-05-17T11:16:31.154Z</time>
      </trkpt>
      <trkpt lat="39.338435" lon="-8.540235">
        <ele>18.0</ele>
        <time>2019-05-17T11:16:32.172Z</time>
      </trkpt>
      <trkpt lat="39.33847833" lon="-8.54018">
        <ele>18.0</ele>
        <time>2019-05-17T11:16:33.152Z</time>
      </trkpt>
      <trkpt lat="39.33847833" lon="-8.54018">
        <ele>18.0</ele>
        <time>2019-05-17T11:16:34.165Z</time>
      </trkpt>
      <trkpt lat="39.33852667" lon="-8.540125">
        <ele>17.0</ele>
        <time>2019-05-17T11:16:35.180Z</time>
      </trkpt>
      <trkpt lat="39.33852667" lon="-8.540125">
        <ele>17.0</ele>
        <time>2019-05-17T11:16:36.150Z</time>
      </trkpt>
      <trkpt lat="39.33857667" lon="-8.54007">
        <ele>17.0</ele>
        <time>2019-05-17T11:16:37.161Z</time>
      </trkpt>
      <trkpt lat="39.33860167" lon="-8.54003833">
        <ele>18.0</ele>
        <time>2019-05-17T11:16:38.161Z</time>
      </trkpt>
      <trkpt lat="39.33860167" lon="-8.54003833">
        <ele>18.0</ele>
        <time>2019-05-17T11:16:39.176Z</time>
      </trkpt>
      <trkpt lat="39.33865" lon="-8.53998333">
        <ele>18.0</ele>
        <time>2019-05-17T11:16:40.186Z</time>
      </trkpt>
      <trkpt lat="39.33867667" lon="-8.539955">
        <ele>18.0</ele>
        <time>2019-05-17T11:16:41.156Z</time>
      </trkpt>
      <trkpt lat="39.33867667" lon="-8.539955">
        <ele>18.0</ele>
        <time>2019-05-17T11:16:42.150Z</time>
      </trkpt>
      <trkpt lat="39.33872833" lon="-8.53989833">
        <ele>17.0</ele>
        <time>2019-05-17T11:16:43.161Z</time>
      </trkpt>
      <trkpt lat="39.33872833" lon="-8.53989833">
        <ele>17.0</ele>
        <time>2019-05-17T11:16:44.176Z</time>
      </trkpt>
      <trkpt lat="39.33878167" lon="-8.53984167">
        <ele>18.0</ele>
        <time>2019-05-17T11:16:45.189Z</time>
      </trkpt>
      <trkpt lat="39.33878167" lon="-8.53984167">
        <ele>18.0</ele>
        <time>2019-05-17T11:16:46.164Z</time>
      </trkpt>
      <trkpt lat="39.33883333" lon="-8.53978833">
        <ele>17.0</ele>
        <time>2019-05-17T11:16:47.189Z</time>
      </trkpt>
      <trkpt lat="39.33883333" lon="-8.53978833">
        <ele>17.0</ele>
        <time>2019-05-17T11:16:48.158Z</time>
      </trkpt>
      <trkpt lat="39.33888667" lon="-8.53973333">
        <ele>18.0</ele>
        <time>2019-05-17T11:16:49.170Z</time>
      </trkpt>
      <trkpt lat="39.33888667" lon="-8.53973333">
        <ele>18.0</ele>
        <time>2019-05-17T11:16:50.179Z</time>
      </trkpt>
      <trkpt lat="39.33894" lon="-8.53967833">
        <ele>17.0</ele>
        <time>2019-05-17T11:16:51.157Z</time>
      </trkpt>
      <trkpt lat="39.33894" lon="-8.53967833">
        <ele>17.0</ele>
        <time>2019-05-17T11:16:52.180Z</time>
      </trkpt>
      <trkpt lat="39.33899" lon="-8.539625">
        <ele>17.0</ele>
        <time>2019-05-17T11:16:53.150Z</time>
      </trkpt>
      <trkpt lat="39.33899" lon="-8.539625">
        <ele>17.0</ele>
        <time>2019-05-17T11:16:54.158Z</time>
      </trkpt>
      <trkpt lat="39.33903667" lon="-8.53957667">
        <ele>17.0</ele>
        <time>2019-05-17T11:16:55.166Z</time>
      </trkpt>
      <trkpt lat="39.33903667" lon="-8.53957667">
        <ele>17.0</ele>
        <time>2019-05-17T11:16:56.175Z</time>
      </trkpt>
      <trkpt lat="39.339085" lon="-8.53952667">
        <ele>17.0</ele>
        <time>2019-05-17T11:16:57.154Z</time>
      </trkpt>
      <trkpt lat="39.339085" lon="-8.53952667">
        <ele>17.0</ele>
        <time>2019-05-17T11:16:58.182Z</time>
      </trkpt>
      <trkpt lat="39.33912667" lon="-8.539475">
        <ele>17.0</ele>
        <time>2019-05-17T11:16:59.175Z</time>
      </trkpt>
      <trkpt lat="39.33912667" lon="-8.539475">
        <ele>17.0</ele>
        <time>2019-05-17T11:17:00.158Z</time>
      </trkpt>
      <trkpt lat="39.339165" lon="-8.539435">
        <ele>17.0</ele>
        <time>2019-05-17T11:17:01.167Z</time>
      </trkpt>
      <trkpt lat="39.339165" lon="-8.539435">
        <ele>17.0</ele>
        <time>2019-05-17T11:17:02.173Z</time>
      </trkpt>
      <trkpt lat="39.33919833" lon="-8.53939667">
        <ele>17.0</ele>
        <time>2019-05-17T11:17:03.160Z</time>
      </trkpt>
      <trkpt lat="39.33919833" lon="-8.53939667">
        <ele>17.0</ele>
        <time>2019-05-17T11:17:04.179Z</time>
      </trkpt>
      <trkpt lat="39.33924167" lon="-8.53935833">
        <ele>17.0</ele>
        <time>2019-05-17T11:17:05.162Z</time>
      </trkpt>
      <trkpt lat="39.33924167" lon="-8.53935833">
        <ele>17.0</ele>
        <time>2019-05-17T11:17:06.187Z</time>
      </trkpt>
      <trkpt lat="39.33928833" lon="-8.53930833">
        <ele>17.0</ele>
        <time>2019-05-17T11:17:07.162Z</time>
      </trkpt>
      <trkpt lat="39.33928833" lon="-8.53930833">
        <ele>17.0</ele>
        <time>2019-05-17T11:17:08.172Z</time>
      </trkpt>
      <trkpt lat="39.33933667" lon="-8.53925667">
        <ele>17.0</ele>
        <time>2019-05-17T11:17:09.160Z</time>
      </trkpt>
      <trkpt lat="39.33936167" lon="-8.53923">
        <ele>17.0</ele>
        <time>2019-05-17T11:17:10.187Z</time>
      </trkpt>
      <trkpt lat="39.339385" lon="-8.539205">
        <ele>17.0</ele>
        <time>2019-05-17T11:17:11.167Z</time>
      </trkpt>
      <trkpt lat="39.339385" lon="-8.539205">
        <ele>17.0</ele>
        <time>2019-05-17T11:17:12.175Z</time>
      </trkpt>
      <trkpt lat="39.33943333" lon="-8.53915333">
        <ele>17.0</ele>
        <time>2019-05-17T11:17:13.190Z</time>
      </trkpt>
      <trkpt lat="39.33943333" lon="-8.53915333">
        <ele>17.0</ele>
        <time>2019-05-17T11:17:14.163Z</time>
      </trkpt>
      <trkpt lat="39.33948167" lon="-8.53910167">
        <ele>17.0</ele>
        <time>2019-05-17T11:17:15.176Z</time>
      </trkpt>
      <trkpt lat="39.33948167" lon="-8.53910167">
        <ele>17.0</ele>
        <time>2019-05-17T11:17:16.151Z</time>
      </trkpt>
      <trkpt lat="39.33953167" lon="-8.53905333">
        <ele>17.0</ele>
        <time>2019-05-17T11:17:17.161Z</time>
      </trkpt>
      <trkpt lat="39.33953167" lon="-8.53905333">
        <ele>17.0</ele>
        <time>2019-05-17T11:17:18.182Z</time>
      </trkpt>
      <trkpt lat="39.33958" lon="-8.539">
        <ele>17.0</ele>
        <time>2019-05-17T11:17:19.154Z</time>
      </trkpt>
      <trkpt lat="39.33958" lon="-8.539">
        <ele>17.0</ele>
        <time>2019-05-17T11:17:20.178Z</time>
      </trkpt>
      <trkpt lat="39.33962833" lon="-8.53894833">
        <ele>17.0</ele>
        <time>2019-05-17T11:17:21.151Z</time>
      </trkpt>
      <trkpt lat="39.33962833" lon="-8.53894833">
        <ele>17.0</ele>
        <time>2019-05-17T11:17:22.162Z</time>
      </trkpt>
      <trkpt lat="39.33967667" lon="-8.53889333">
        <ele>16.0</ele>
        <time>2019-05-17T11:17:23.171Z</time>
      </trkpt>
      <trkpt lat="39.33967667" lon="-8.53889333">
        <ele>16.0</ele>
        <time>2019-05-17T11:17:24.178Z</time>
      </trkpt>
      <trkpt lat="39.33972" lon="-8.53884833">
        <ele>16.0</ele>
        <time>2019-05-17T11:17:25.152Z</time>
      </trkpt>
      <trkpt lat="39.33972" lon="-8.53884833">
        <ele>16.0</ele>
        <time>2019-05-17T11:17:26.163Z</time>
      </trkpt>
      <trkpt lat="39.33976167" lon="-8.53880333">
        <ele>16.0</ele>
        <time>2019-05-17T11:17:27.180Z</time>
      </trkpt>
      <trkpt lat="39.33976167" lon="-8.53880333">
        <ele>16.0</ele>
        <time>2019-05-17T11:17:28.187Z</time>
      </trkpt>
      <trkpt lat="39.33980833" lon="-8.53875667">
        <ele>16.0</ele>
        <time>2019-05-17T11:17:29.166Z</time>
      </trkpt>
      <trkpt lat="39.33980833" lon="-8.53875667">
        <ele>16.0</ele>
        <time>2019-05-17T11:17:30.154Z</time>
      </trkpt>
      <trkpt lat="39.33985667" lon="-8.53870667">
        <ele>16.0</ele>
        <time>2019-05-17T11:17:31.165Z</time>
      </trkpt>
      <trkpt lat="39.33985667" lon="-8.53870667">
        <ele>16.0</ele>
        <time>2019-05-17T11:17:32.176Z</time>
      </trkpt>
      <trkpt lat="39.33990667" lon="-8.53866">
        <ele>16.0</ele>
        <time>2019-05-17T11:17:33.154Z</time>
      </trkpt>
      <trkpt lat="39.33990667" lon="-8.53866">
        <ele>16.0</ele>
        <time>2019-05-17T11:17:34.180Z</time>
      </trkpt>
      <trkpt lat="39.33995833" lon="-8.538615">
        <ele>16.0</ele>
        <time>2019-05-17T11:17:35.160Z</time>
      </trkpt>
      <trkpt lat="39.33995833" lon="-8.538615">
        <ele>16.0</ele>
        <time>2019-05-17T11:17:36.176Z</time>
      </trkpt>
      <trkpt lat="39.34000833" lon="-8.53856833">
        <ele>16.0</ele>
        <time>2019-05-17T11:17:37.188Z</time>
      </trkpt>
      <trkpt lat="39.34000833" lon="-8.53856833">
        <ele>16.0</ele>
        <time>2019-05-17T11:17:38.161Z</time>
      </trkpt>
      <trkpt lat="39.34005667" lon="-8.53852667">
        <ele>16.0</ele>
        <time>2019-05-17T11:17:39.180Z</time>
      </trkpt>
      <trkpt lat="39.34005667" lon="-8.53852667">
        <ele>16.0</ele>
        <time>2019-05-17T11:17:40.154Z</time>
      </trkpt>
      <trkpt lat="39.34010833" lon="-8.53848333">
        <ele>16.0</ele>
        <time>2019-05-17T11:17:41.171Z</time>
      </trkpt>
      <trkpt lat="39.340135" lon="-8.53846">
        <ele>16.0</ele>
        <time>2019-05-17T11:17:42.161Z</time>
      </trkpt>
      <trkpt lat="39.34016167" lon="-8.538435">
        <ele>16.0</ele>
        <time>2019-05-17T11:17:43.184Z</time>
      </trkpt>
      <trkpt lat="39.34016167" lon="-8.538435">
        <ele>16.0</ele>
        <time>2019-05-17T11:17:44.173Z</time>
      </trkpt>
      <trkpt lat="39.34021333" lon="-8.538385">
        <ele>16.0</ele>
        <time>2019-05-17T11:17:45.150Z</time>
      </trkpt>
      <trkpt lat="39.34021333" lon="-8.538385">
        <ele>16.0</ele>
        <time>2019-05-17T11:17:46.169Z</time>
      </trkpt>
      <trkpt lat="39.340265" lon="-8.538335">
        <ele>16.0</ele>
        <time>2019-05-17T11:17:47.185Z</time>
      </trkpt>
      <trkpt lat="39.340265" lon="-8.538335">
        <ele>16.0</ele>
        <time>2019-05-17T11:17:48.151Z</time>
      </trkpt>
      <trkpt lat="39.34032" lon="-8.538295">
        <ele>16.0</ele>
        <time>2019-05-17T11:17:49.165Z</time>
      </trkpt>
      <trkpt lat="39.34032" lon="-8.538295">
        <ele>16.0</ele>
        <time>2019-05-17T11:17:50.157Z</time>
      </trkpt>
      <trkpt lat="39.34038167" lon="-8.53825333">
        <ele>15.0</ele>
        <time>2019-05-17T11:17:51.169Z</time>
      </trkpt>
      <trkpt lat="39.34041167" lon="-8.53822833">
        <ele>15.0</ele>
        <time>2019-05-17T11:17:52.189Z</time>
      </trkpt>
      <trkpt lat="39.34043833" lon="-8.53820333">
        <ele>15.0</ele>
        <time>2019-05-17T11:17:53.166Z</time>
      </trkpt>
      <trkpt lat="39.34043833" lon="-8.53820333">
        <ele>15.0</ele>
        <time>2019-05-17T11:17:54.175Z</time>
      </trkpt>
      <trkpt lat="39.34049333" lon="-8.53815167">
        <ele>15.0</ele>
        <time>2019-05-17T11:17:55.188Z</time>
      </trkpt>
      <trkpt lat="39.34049333" lon="-8.53815167">
        <ele>15.0</ele>
        <time>2019-05-17T11:17:56.172Z</time>
      </trkpt>
      <trkpt lat="39.34054667" lon="-8.53809833">
        <ele>15.0</ele>
        <time>2019-05-17T11:17:57.186Z</time>
      </trkpt>
      <trkpt lat="39.34054667" lon="-8.53809833">
        <ele>15.0</ele>
        <time>2019-05-17T11:17:58.161Z</time>
      </trkpt>
      <trkpt lat="39.34060167" lon="-8.53805">
        <ele>15.0</ele>
        <time>2019-05-17T11:17:59.178Z</time>
      </trkpt>
      <trkpt lat="39.34060167" lon="-8.53805">
        <ele>15.0</ele>
        <time>2019-05-17T11:18:00.184Z</time>
      </trkpt>
      <trkpt lat="39.340655" lon="-8.537995">
        <ele>15.0</ele>
        <time>2019-05-17T11:18:01.158Z</time>
      </trkpt>
      <trkpt lat="39.340655" lon="-8.537995">
        <ele>15.0</ele>
        <time>2019-05-17T11:18:02.174Z</time>
      </trkpt>
      <trkpt lat="39.34071333" lon="-8.53794667">
        <ele>15.0</ele>
        <time>2019-05-17T11:18:03.150Z</time>
      </trkpt>
      <trkpt lat="39.34071333" lon="-8.53794667">
        <ele>15.0</ele>
        <time>2019-05-17T11:18:04.169Z</time>
      </trkpt>
      <trkpt lat="39.34076833" lon="-8.53789167">
        <ele>15.0</ele>
        <time>2019-05-17T11:18:05.182Z</time>
      </trkpt>
      <trkpt lat="39.34076833" lon="-8.53789167">
        <ele>15.0</ele>
        <time>2019-05-17T11:18:06.153Z</time>
      </trkpt>
      <trkpt lat="39.34082333" lon="-8.53784">
        <ele>15.0</ele>
        <time>2019-05-17T11:18:07.180Z</time>
      </trkpt>
      <trkpt lat="39.34085" lon="-8.53781333">
        <ele>15.0</ele>
        <time>2019-05-17T11:18:08.163Z</time>
      </trkpt>
      <trkpt lat="39.34085" lon="-8.53781333">
        <ele>15.0</ele>
        <time>2019-05-17T11:18:09.151Z</time>
      </trkpt>
      <trkpt lat="39.340905" lon="-8.53776333">
        <ele>14.0</ele>
        <time>2019-05-17T11:18:10.168Z</time>
      </trkpt>
      <trkpt lat="39.34093167" lon="-8.53773667">
        <ele>14.0</ele>
        <time>2019-05-17T11:18:11.158Z</time>
      </trkpt>
      <trkpt lat="39.34093167" lon="-8.53773667">
        <ele>14.0</ele>
        <time>2019-05-17T11:18:12.174Z</time>
      </trkpt>
      <trkpt lat="39.340985" lon="-8.53768167">
        <ele>14.0</ele>
        <time>2019-05-17T11:18:13.153Z</time>
      </trkpt>
      <trkpt lat="39.34101167" lon="-8.53765333">
        <ele>14.0</ele>
        <time>2019-05-17T11:18:14.176Z</time>
      </trkpt>
      <trkpt lat="39.34101167" lon="-8.53765333">
        <ele>14.0</ele>
        <time>2019-05-17T11:18:15.185Z</time>
      </trkpt>
      <trkpt lat="39.341065" lon="-8.53759833">
        <ele>14.0</ele>
        <time>2019-05-17T11:18:16.160Z</time>
      </trkpt>
      <trkpt lat="39.34109167" lon="-8.53757167">
        <ele>14.0</ele>
        <time>2019-05-17T11:18:17.188Z</time>
      </trkpt>
      <trkpt lat="39.34109167" lon="-8.53757167">
        <ele>14.0</ele>
        <time>2019-05-17T11:18:18.171Z</time>
      </trkpt>
      <trkpt lat="39.34114167" lon="-8.537515">
        <ele>14.0</ele>
        <time>2019-05-17T11:18:19.187Z</time>
      </trkpt>
      <trkpt lat="39.34114167" lon="-8.537515">
        <ele>14.0</ele>
        <time>2019-05-17T11:18:20.150Z</time>
      </trkpt>
      <trkpt lat="39.34119" lon="-8.53745667">
        <ele>14.0</ele>
        <time>2019-05-17T11:18:21.158Z</time>
      </trkpt>
      <trkpt lat="39.34119" lon="-8.53745667">
        <ele>14.0</ele>
        <time>2019-05-17T11:18:22.181Z</time>
      </trkpt>
      <trkpt lat="39.34123833" lon="-8.53739833">
        <ele>14.0</ele>
        <time>2019-05-17T11:18:23.152Z</time>
      </trkpt>
      <trkpt lat="39.34123833" lon="-8.53739833">
        <ele>14.0</ele>
        <time>2019-05-17T11:18:24.175Z</time>
      </trkpt>
      <trkpt lat="39.34128167" lon="-8.53733833">
        <ele>14.0</ele>
        <time>2019-05-17T11:18:25.164Z</time>
      </trkpt>
      <trkpt lat="39.34128167" lon="-8.53733833">
        <ele>14.0</ele>
        <time>2019-05-17T11:18:26.175Z</time>
      </trkpt>
      <trkpt lat="39.34133" lon="-8.53728">
        <ele>14.0</ele>
        <time>2019-05-17T11:18:27.153Z</time>
      </trkpt>
      <trkpt lat="39.34133" lon="-8.53728">
        <ele>14.0</ele>
        <time>2019-05-17T11:18:28.164Z</time>
      </trkpt>
      <trkpt lat="39.34137667" lon="-8.53721833">
        <ele>14.0</ele>
        <time>2019-05-17T11:18:29.151Z</time>
      </trkpt>
      <trkpt lat="39.34137667" lon="-8.53721833">
        <ele>14.0</ele>
        <time>2019-05-17T11:18:30.173Z</time>
      </trkpt>
      <trkpt lat="39.34142667" lon="-8.537165">
        <ele>14.0</ele>
        <time>2019-05-17T11:18:31.153Z</time>
      </trkpt>
      <trkpt lat="39.34142667" lon="-8.537165">
        <ele>14.0</ele>
        <time>2019-05-17T11:18:32.164Z</time>
      </trkpt>
      <trkpt lat="39.34147" lon="-8.53711167">
        <ele>14.0</ele>
        <time>2019-05-17T11:18:33.187Z</time>
      </trkpt>
      <trkpt lat="39.34147" lon="-8.53711167">
        <ele>14.0</ele>
        <time>2019-05-17T11:18:34.157Z</time>
      </trkpt>
      <trkpt lat="39.34150667" lon="-8.53707">
        <ele>14.0</ele>
        <time>2019-05-17T11:18:35.168Z</time>
      </trkpt>
      <trkpt lat="39.34150667" lon="-8.53707">
        <ele>14.0</ele>
        <time>2019-05-17T11:18:36.175Z</time>
      </trkpt>
      <trkpt lat="39.34153667" lon="-8.537025">
        <ele>14.0</ele>
        <time>2019-05-17T11:18:37.173Z</time>
      </trkpt>
      <trkpt lat="39.341555" lon="-8.53700333">
        <ele>14.0</ele>
        <time>2019-05-17T11:18:38.187Z</time>
      </trkpt>
      <trkpt lat="39.341555" lon="-8.53700333">
        <ele>14.0</ele>
        <time>2019-05-17T11:18:39.158Z</time>
      </trkpt>
      <trkpt lat="39.34159167" lon="-8.53696667">
        <ele>14.0</ele>
        <time>2019-05-17T11:18:40.177Z</time>
      </trkpt>
      <trkpt lat="39.34161" lon="-8.53694667">
        <ele>14.0</ele>
        <time>2019-05-17T11:18:41.152Z</time>
      </trkpt>
      <trkpt lat="39.34161" lon="-8.53694667">
        <ele>14.0</ele>
        <time>2019-05-17T11:18:42.176Z</time>
      </trkpt>
      <trkpt lat="39.341655" lon="-8.53690667">
        <ele>14.0</ele>
        <time>2019-05-17T11:18:43.155Z</time>
      </trkpt>
      <trkpt lat="39.341655" lon="-8.53690667">
        <ele>14.0</ele>
        <time>2019-05-17T11:18:44.160Z</time>
      </trkpt>
      <trkpt lat="39.341695" lon="-8.53686167">
        <ele>14.0</ele>
        <time>2019-05-17T11:18:45.181Z</time>
      </trkpt>
      <trkpt lat="39.341715" lon="-8.53684167">
        <ele>15.0</ele>
        <time>2019-05-17T11:18:46.163Z</time>
      </trkpt>
      <trkpt lat="39.341735" lon="-8.53681833">
        <ele>15.0</ele>
        <time>2019-05-17T11:18:47.179Z</time>
      </trkpt>
      <trkpt lat="39.341735" lon="-8.53681833">
        <ele>15.0</ele>
        <time>2019-05-17T11:18:48.153Z</time>
      </trkpt>
      <trkpt lat="39.34177333" lon="-8.536765">
        <ele>15.0</ele>
        <time>2019-05-17T11:18:49.171Z</time>
      </trkpt>
      <trkpt lat="39.34179333" lon="-8.53673667">
        <ele>15.0</ele>
        <time>2019-05-17T11:18:50.155Z</time>
      </trkpt>
      <trkpt lat="39.34179333" lon="-8.53673667">
        <ele>15.0</ele>
        <time>2019-05-17T11:18:51.177Z</time>
      </trkpt>
      <trkpt lat="39.341835" lon="-8.536685">
        <ele>15.0</ele>
        <time>2019-05-17T11:18:52.152Z</time>
      </trkpt>
      <trkpt lat="39.34185833" lon="-8.53666333">
        <ele>15.0</ele>
        <time>2019-05-17T11:18:53.184Z</time>
      </trkpt>
      <trkpt lat="39.34185833" lon="-8.53666333">
        <ele>15.0</ele>
        <time>2019-05-17T11:18:54.150Z</time>
      </trkpt>
      <trkpt lat="39.34189667" lon="-8.53661833">
        <ele>15.0</ele>
        <time>2019-05-17T11:18:55.161Z</time>
      </trkpt>
      <trkpt lat="39.34189667" lon="-8.53661833">
        <ele>15.0</ele>
        <time>2019-05-17T11:18:56.173Z</time>
      </trkpt>
      <trkpt lat="39.34192833" lon="-8.53656333">
        <ele>15.0</ele>
        <time>2019-05-17T11:18:57.189Z</time>
      </trkpt>
      <trkpt lat="39.34192833" lon="-8.53656333">
        <ele>15.0</ele>
        <time>2019-05-17T11:18:58.166Z</time>
      </trkpt>
      <trkpt lat="39.34195833" lon="-8.53650667">
        <ele>15.0</ele>
        <time>2019-05-17T11:18:59.178Z</time>
      </trkpt>
      <trkpt lat="39.34195833" lon="-8.53650667">
        <ele>15.0</ele>
        <time>2019-05-17T11:19:00.151Z</time>
      </trkpt>
      <trkpt lat="39.342" lon="-8.53645667">
        <ele>15.0</ele>
        <time>2019-05-17T11:19:01.162Z</time>
      </trkpt>
      <trkpt lat="39.342" lon="-8.53645667">
        <ele>15.0</ele>
        <time>2019-05-17T11:19:02.176Z</time>
      </trkpt>
      <trkpt lat="39.34204167" lon="-8.536405">
        <ele>14.0</ele>
        <time>2019-05-17T11:19:03.185Z</time>
      </trkpt>
      <trkpt lat="39.34204167" lon="-8.536405">
        <ele>14.0</ele>
        <time>2019-05-17T11:19:04.151Z</time>
      </trkpt>
      <trkpt lat="39.34208" lon="-8.53635167">
        <ele>14.0</ele>
        <time>2019-05-17T11:19:05.182Z</time>
      </trkpt>
      <trkpt lat="39.34208" lon="-8.53635167">
        <ele>14.0</ele>
        <time>2019-05-17T11:19:06.158Z</time>
      </trkpt>
      <trkpt lat="39.34211333" lon="-8.53630333">
        <ele>14.0</ele>
        <time>2019-05-17T11:19:07.174Z</time>
      </trkpt>
      <trkpt lat="39.34211333" lon="-8.53630333">
        <ele>14.0</ele>
        <time>2019-05-17T11:19:08.161Z</time>
      </trkpt>
      <trkpt lat="39.34214333" lon="-8.53626333">
        <ele>14.0</ele>
        <time>2019-05-17T11:19:09.150Z</time>
      </trkpt>
      <trkpt lat="39.34214333" lon="-8.53626333">
        <ele>14.0</ele>
        <time>2019-05-17T11:19:10.176Z</time>
      </trkpt>
      <trkpt lat="39.342155" lon="-8.53625167">
        <ele>14.0</ele>
        <time>2019-05-17T11:19:11.152Z</time>
      </trkpt>
      <trkpt lat="39.342155" lon="-8.53625167">
        <ele>14.0</ele>
        <time>2019-05-17T11:19:12.165Z</time>
      </trkpt>
      <trkpt lat="39.342155" lon="-8.53625167">
        <ele>14.0</ele>
        <time>2019-05-17T11:19:13.182Z</time>
      </trkpt>
      <trkpt lat="39.342155" lon="-8.53625167">
        <ele>14.0</ele>
        <time>2019-05-17T11:19:14.155Z</time>
      </trkpt>
      <trkpt lat="39.342155" lon="-8.53625167">
        <ele>14.0</ele>
        <time>2019-05-17T11:19:15.161Z</time>
      </trkpt>
      <trkpt lat="39.342155" lon="-8.53625167">
        <ele>14.0</ele>
        <time>2019-05-17T11:19:16.166Z</time>
      </trkpt>
      <trkpt lat="39.342155" lon="-8.53625167">
        <ele>14.0</ele>
        <time>2019-05-17T11:19:17.176Z</time>
      </trkpt>
      <trkpt lat="39.342155" lon="-8.53625167">
        <ele>14.0</ele>
        <time>2019-05-17T11:19:18.158Z</time>
      </trkpt>
      <trkpt lat="39.342155" lon="-8.53625167">
        <ele>14.0</ele>
        <time>2019-05-17T11:19:19.186Z</time>
      </trkpt>
      <trkpt lat="39.342155" lon="-8.53625167">
        <ele>14.0</ele>
        <time>2019-05-17T11:19:20.182Z</time>
      </trkpt>
      <trkpt lat="39.342155" lon="-8.53625167">
        <ele>14.0</ele>
        <time>2019-05-17T11:19:21.185Z</time>
      </trkpt>
      <trkpt lat="39.342155" lon="-8.53625167">
        <ele>14.0</ele>
        <time>2019-05-17T11:19:22.182Z</time>
      </trkpt>
      <trkpt lat="39.342155" lon="-8.53625167">
        <ele>14.0</ele>
        <time>2019-05-17T11:19:23.152Z</time>
      </trkpt>
      <trkpt lat="39.342155" lon="-8.53625167">
        <ele>14.0</ele>
        <time>2019-05-17T11:19:24.181Z</time>
      </trkpt>
      <trkpt lat="39.342155" lon="-8.53625167">
        <ele>14.0</ele>
        <time>2019-05-17T11:19:25.184Z</time>
      </trkpt>
      <trkpt lat="39.342155" lon="-8.53625167">
        <ele>14.0</ele>
        <time>2019-05-17T11:19:26.181Z</time>
      </trkpt>
      <trkpt lat="39.342155" lon="-8.53625167">
        <ele>14.0</ele>
        <time>2019-05-17T11:19:27.156Z</time>
      </trkpt>
      <trkpt lat="39.342155" lon="-8.53625167">
        <ele>14.0</ele>
        <time>2019-05-17T11:19:28.183Z</time>
      </trkpt>
      <trkpt lat="39.342155" lon="-8.53625167">
        <ele>14.0</ele>
        <time>2019-05-17T11:19:29.189Z</time>
      </trkpt>
      <trkpt lat="39.342155" lon="-8.53625167">
        <ele>14.0</ele>
        <time>2019-05-17T11:19:30.153Z</time>
      </trkpt>
      <trkpt lat="39.342155" lon="-8.53625167">
        <ele>14.0</ele>
        <time>2019-05-17T11:19:31.153Z</time>
      </trkpt>
      <trkpt lat="39.342155" lon="-8.53625167">
        <ele>14.0</ele>
        <time>2019-05-17T11:19:32.181Z</time>
      </trkpt>
      <trkpt lat="39.34215833" lon="-8.536235">
        <ele>17.0</ele>
        <time>2019-05-17T11:19:33.186Z</time>
      </trkpt>
      <trkpt lat="39.34215833" lon="-8.536235">
        <ele>17.0</ele>
        <time>2019-05-17T11:19:34.180Z</time>
      </trkpt>
      <trkpt lat="39.34216333" lon="-8.53623167">
        <ele>17.0</ele>
        <time>2019-05-17T11:19:35.188Z</time>
      </trkpt>
      <trkpt lat="39.34216333" lon="-8.53623167">
        <ele>17.0</ele>
        <time>2019-05-17T11:19:36.180Z</time>
      </trkpt>
      <trkpt lat="39.34216167" lon="-8.53623167">
        <ele>17.0</ele>
        <time>2019-05-17T11:19:37.186Z</time>
      </trkpt>
      <trkpt lat="39.34216167" lon="-8.53623167">
        <ele>17.0</ele>
        <time>2019-05-17T11:19:38.181Z</time>
      </trkpt>
      <trkpt lat="39.34216167" lon="-8.53623167">
        <ele>17.0</ele>
        <time>2019-05-17T11:19:39.186Z</time>
      </trkpt>
      <trkpt lat="39.34216167" lon="-8.53623167">
        <ele>17.0</ele>
        <time>2019-05-17T11:19:40.154Z</time>
      </trkpt>
      <trkpt lat="39.34216167" lon="-8.53623167">
        <ele>17.0</ele>
        <time>2019-05-17T11:19:41.183Z</time>
      </trkpt>
      <trkpt lat="39.34216167" lon="-8.53623167">
        <ele>17.0</ele>
        <time>2019-05-17T11:19:42.185Z</time>
      </trkpt>
      <trkpt lat="39.34216167" lon="-8.53623167">
        <ele>17.0</ele>
        <time>2019-05-17T11:19:43.186Z</time>
      </trkpt>
      <trkpt lat="39.34216167" lon="-8.53623167">
        <ele>17.0</ele>
        <time>2019-05-17T11:19:44.181Z</time>
      </trkpt>
      <trkpt lat="39.34216167" lon="-8.53623167">
        <ele>17.0</ele>
        <time>2019-05-17T11:19:45.183Z</time>
      </trkpt>
      <trkpt lat="39.34216167" lon="-8.53623167">
        <ele>17.0</ele>
        <time>2019-05-17T11:19:46.181Z</time>
      </trkpt>
      <trkpt lat="39.34216167" lon="-8.53623167">
        <ele>17.0</ele>
        <time>2019-05-17T11:19:47.188Z</time>
      </trkpt>
      <trkpt lat="39.34216167" lon="-8.53623167">
        <ele>17.0</ele>
        <time>2019-05-17T11:19:48.181Z</time>
      </trkpt>
      <trkpt lat="39.34216167" lon="-8.53623167">
        <ele>17.0</ele>
        <time>2019-05-17T11:19:49.184Z</time>
      </trkpt>
      <trkpt lat="39.34216167" lon="-8.53623167">
        <ele>17.0</ele>
        <time>2019-05-17T11:19:50.150Z</time>
      </trkpt>
      <trkpt lat="39.34216167" lon="-8.53623167">
        <ele>17.0</ele>
        <time>2019-05-17T11:19:51.185Z</time>
      </trkpt>
      <trkpt lat="39.34216167" lon="-8.53623167">
        <ele>17.0</ele>
        <time>2019-05-17T11:19:52.185Z</time>
      </trkpt>
      <trkpt lat="39.34218333" lon="-8.53619833">
        <ele>17.0</ele>
        <time>2019-05-17T11:19:53.186Z</time>
      </trkpt>
      <trkpt lat="39.34218333" lon="-8.53619833">
        <ele>17.0</ele>
        <time>2019-05-17T11:19:54.181Z</time>
      </trkpt>
      <trkpt lat="39.34222" lon="-8.536155">
        <ele>17.0</ele>
        <time>2019-05-17T11:19:55.183Z</time>
      </trkpt>
      <trkpt lat="39.34222" lon="-8.536155">
        <ele>17.0</ele>
        <time>2019-05-17T11:19:56.181Z</time>
      </trkpt>
      <trkpt lat="39.342255" lon="-8.536105">
        <ele>17.0</ele>
        <time>2019-05-17T11:19:57.187Z</time>
      </trkpt>
      <trkpt lat="39.34227" lon="-8.53608">
        <ele>17.0</ele>
        <time>2019-05-17T11:19:58.187Z</time>
      </trkpt>
      <trkpt lat="39.34227" lon="-8.53608">
        <ele>17.0</ele>
        <time>2019-05-17T11:19:59.182Z</time>
      </trkpt>
      <trkpt lat="39.342305" lon="-8.53603833">
        <ele>17.0</ele>
        <time>2019-05-17T11:20:00.153Z</time>
      </trkpt>
      <trkpt lat="39.342305" lon="-8.53603833">
        <ele>17.0</ele>
        <time>2019-05-17T11:20:01.184Z</time>
      </trkpt>
      <trkpt lat="39.342345" lon="-8.53599">
        <ele>17.0</ele>
        <time>2019-05-17T11:20:02.152Z</time>
      </trkpt>
      <trkpt lat="39.342345" lon="-8.53599">
        <ele>17.0</ele>
        <time>2019-05-17T11:20:03.167Z</time>
      </trkpt>
      <trkpt lat="39.342385" lon="-8.53593667">
        <ele>17.0</ele>
        <time>2019-05-17T11:20:04.154Z</time>
      </trkpt>
      <trkpt lat="39.342405" lon="-8.53591">
        <ele>17.0</ele>
        <time>2019-05-17T11:20:05.169Z</time>
      </trkpt>
      <trkpt lat="39.342405" lon="-8.53591">
        <ele>17.0</ele>
        <time>2019-05-17T11:20:06.179Z</time>
      </trkpt>
      <trkpt lat="39.34244667" lon="-8.53586167">
        <ele>17.0</ele>
        <time>2019-05-17T11:20:07.153Z</time>
      </trkpt>
      <trkpt lat="39.34244667" lon="-8.53586167">
        <ele>17.0</ele>
        <time>2019-05-17T11:20:08.174Z</time>
      </trkpt>
      <trkpt lat="39.34248833" lon="-8.53581">
        <ele>17.0</ele>
        <time>2019-05-17T11:20:09.165Z</time>
      </trkpt>
      <trkpt lat="39.34248833" lon="-8.53581">
        <ele>17.0</ele>
        <time>2019-05-17T11:20:10.181Z</time>
      </trkpt>
      <trkpt lat="39.342525" lon="-8.53575667">
        <ele>17.0</ele>
        <time>2019-05-17T11:20:11.155Z</time>
      </trkpt>
      <trkpt lat="39.342525" lon="-8.53575667">
        <ele>17.0</ele>
        <time>2019-05-17T11:20:12.172Z</time>
      </trkpt>
      <trkpt lat="39.34255667" lon="-8.53570833">
        <ele>17.0</ele>
        <time>2019-05-17T11:20:13.185Z</time>
      </trkpt>
      <trkpt lat="39.34255667" lon="-8.53570833">
        <ele>17.0</ele>
        <time>2019-05-17T11:20:14.165Z</time>
      </trkpt>
      <trkpt lat="39.34259" lon="-8.53565667">
        <ele>17.0</ele>
        <time>2019-05-17T11:20:15.150Z</time>
      </trkpt>
      <trkpt lat="39.34259" lon="-8.53565667">
        <ele>17.0</ele>
        <time>2019-05-17T11:20:16.172Z</time>
      </trkpt>
      <trkpt lat="39.34262333" lon="-8.535605">
        <ele>17.0</ele>
        <time>2019-05-17T11:20:17.187Z</time>
      </trkpt>
      <trkpt lat="39.34262333" lon="-8.535605">
        <ele>17.0</ele>
        <time>2019-05-17T11:20:18.155Z</time>
      </trkpt>
      <trkpt lat="39.34266333" lon="-8.535555">
        <ele>17.0</ele>
        <time>2019-05-17T11:20:19.166Z</time>
      </trkpt>
      <trkpt lat="39.34266333" lon="-8.535555">
        <ele>17.0</ele>
        <time>2019-05-17T11:20:20.177Z</time>
      </trkpt>
      <trkpt lat="39.34270167" lon="-8.53550167">
        <ele>17.0</ele>
        <time>2019-05-17T11:20:21.152Z</time>
      </trkpt>
      <trkpt lat="39.34272333" lon="-8.53547833">
        <ele>17.0</ele>
        <time>2019-05-17T11:20:22.180Z</time>
      </trkpt>
      <trkpt lat="39.34274833" lon="-8.53545833">
        <ele>17.0</ele>
        <time>2019-05-17T11:20:23.161Z</time>
      </trkpt>
      <trkpt lat="39.34274833" lon="-8.53545833">
        <ele>17.0</ele>
        <time>2019-05-17T11:20:24.187Z</time>
      </trkpt>
      <trkpt lat="39.3428" lon="-8.53541667">
        <ele>17.0</ele>
        <time>2019-05-17T11:20:25.169Z</time>
      </trkpt>
      <trkpt lat="39.3428" lon="-8.53541667">
        <ele>17.0</ele>
        <time>2019-05-17T11:20:26.181Z</time>
      </trkpt>
      <trkpt lat="39.342855" lon="-8.53538">
        <ele>17.0</ele>
        <time>2019-05-17T11:20:27.155Z</time>
      </trkpt>
      <trkpt lat="39.34288333" lon="-8.53536333">
        <ele>17.0</ele>
        <time>2019-05-17T11:20:28.172Z</time>
      </trkpt>
      <trkpt lat="39.34291333" lon="-8.53534667">
        <ele>17.0</ele>
        <time>2019-05-17T11:20:29.157Z</time>
      </trkpt>
      <trkpt lat="39.34291333" lon="-8.53534667">
        <ele>17.0</ele>
        <time>2019-05-17T11:20:30.176Z</time>
      </trkpt>
      <trkpt lat="39.34297" lon="-8.53531167">
        <ele>17.0</ele>
        <time>2019-05-17T11:20:31.157Z</time>
      </trkpt>
      <trkpt lat="39.34297" lon="-8.53531167">
        <ele>17.0</ele>
        <time>2019-05-17T11:20:32.179Z</time>
      </trkpt>
      <trkpt lat="39.34302667" lon="-8.53527167">
        <ele>17.0</ele>
        <time>2019-05-17T11:20:33.170Z</time>
      </trkpt>
      <trkpt lat="39.34302667" lon="-8.53527167">
        <ele>17.0</ele>
        <time>2019-05-17T11:20:34.155Z</time>
      </trkpt>
      <trkpt lat="39.34308167" lon="-8.53523833">
        <ele>17.0</ele>
        <time>2019-05-17T11:20:35.174Z</time>
      </trkpt>
      <trkpt lat="39.34308167" lon="-8.53523833">
        <ele>17.0</ele>
        <time>2019-05-17T11:20:36.162Z</time>
      </trkpt>
      <trkpt lat="39.343135" lon="-8.535205">
        <ele>17.0</ele>
        <time>2019-05-17T11:20:37.184Z</time>
      </trkpt>
      <trkpt lat="39.343135" lon="-8.535205">
        <ele>17.0</ele>
        <time>2019-05-17T11:20:38.154Z</time>
      </trkpt>
      <trkpt lat="39.34318833" lon="-8.53517333">
        <ele>17.0</ele>
        <time>2019-05-17T11:20:39.184Z</time>
      </trkpt>
      <trkpt lat="39.34318833" lon="-8.53517333">
        <ele>17.0</ele>
        <time>2019-05-17T11:20:40.154Z</time>
      </trkpt>
      <trkpt lat="39.343245" lon="-8.53514">
        <ele>17.0</ele>
        <time>2019-05-17T11:20:41.165Z</time>
      </trkpt>
      <trkpt lat="39.343245" lon="-8.53514">
        <ele>17.0</ele>
        <time>2019-05-17T11:20:42.174Z</time>
      </trkpt>
      <trkpt lat="39.34330333" lon="-8.53510333">
        <ele>17.0</ele>
        <time>2019-05-17T11:20:43.153Z</time>
      </trkpt>
      <trkpt lat="39.34330333" lon="-8.53510333">
        <ele>17.0</ele>
        <time>2019-05-17T11:20:44.160Z</time>
      </trkpt>
      <trkpt lat="39.34336167" lon="-8.53506833">
        <ele>17.0</ele>
        <time>2019-05-17T11:20:45.175Z</time>
      </trkpt>
      <trkpt lat="39.34336167" lon="-8.53506833">
        <ele>17.0</ele>
        <time>2019-05-17T11:20:46.163Z</time>
      </trkpt>
      <trkpt lat="39.34342167" lon="-8.53503333">
        <ele>17.0</ele>
        <time>2019-05-17T11:20:47.171Z</time>
      </trkpt>
      <trkpt lat="39.34342167" lon="-8.53503333">
        <ele>17.0</ele>
        <time>2019-05-17T11:20:48.188Z</time>
      </trkpt>
      <trkpt lat="39.34348" lon="-8.534995">
        <ele>17.0</ele>
        <time>2019-05-17T11:20:49.156Z</time>
      </trkpt>
      <trkpt lat="39.34348" lon="-8.534995">
        <ele>17.0</ele>
        <time>2019-05-17T11:20:50.178Z</time>
      </trkpt>
      <trkpt lat="39.34353833" lon="-8.53495667">
        <ele>17.0</ele>
        <time>2019-05-17T11:20:51.160Z</time>
      </trkpt>
      <trkpt lat="39.34353833" lon="-8.53495667">
        <ele>17.0</ele>
        <time>2019-05-17T11:20:52.179Z</time>
      </trkpt>
      <trkpt lat="39.34359833" lon="-8.53492333">
        <ele>17.0</ele>
        <time>2019-05-17T11:20:53.154Z</time>
      </trkpt>
      <trkpt lat="39.34359833" lon="-8.53492333">
        <ele>17.0</ele>
        <time>2019-05-17T11:20:54.173Z</time>
      </trkpt>
      <trkpt lat="39.343655" lon="-8.53488333">
        <ele>17.0</ele>
        <time>2019-05-17T11:20:55.195Z</time>
      </trkpt>
      <trkpt lat="39.343655" lon="-8.53488333">
        <ele>17.0</ele>
        <time>2019-05-17T11:20:56.181Z</time>
      </trkpt>
      <trkpt lat="39.34371333" lon="-8.53484833">
        <ele>17.0</ele>
        <time>2019-05-17T11:20:57.156Z</time>
      </trkpt>
      <trkpt lat="39.34371333" lon="-8.53484833">
        <ele>17.0</ele>
        <time>2019-05-17T11:20:58.165Z</time>
      </trkpt>
      <trkpt lat="39.34377167" lon="-8.53482167">
        <ele>17.0</ele>
        <time>2019-05-17T11:20:59.188Z</time>
      </trkpt>
      <trkpt lat="39.34377167" lon="-8.53482167">
        <ele>17.0</ele>
        <time>2019-05-17T11:21:00.156Z</time>
      </trkpt>
      <trkpt lat="39.34382333" lon="-8.53479167">
        <ele>17.0</ele>
        <time>2019-05-17T11:21:01.168Z</time>
      </trkpt>
      <trkpt lat="39.34382333" lon="-8.53479167">
        <ele>17.0</ele>
        <time>2019-05-17T11:21:02.159Z</time>
      </trkpt>
      <trkpt lat="39.34386333" lon="-8.534755">
        <ele>17.0</ele>
        <time>2019-05-17T11:21:03.178Z</time>
      </trkpt>
      <trkpt lat="39.34386333" lon="-8.534755">
        <ele>17.0</ele>
        <time>2019-05-17T11:21:04.186Z</time>
      </trkpt>
      <trkpt lat="39.34389833" lon="-8.534705">
        <ele>17.0</ele>
        <time>2019-05-17T11:21:05.159Z</time>
      </trkpt>
      <trkpt lat="39.34389833" lon="-8.534705">
        <ele>17.0</ele>
        <time>2019-05-17T11:21:06.175Z</time>
      </trkpt>
      <trkpt lat="39.34393" lon="-8.53464">
        <ele>17.0</ele>
        <time>2019-05-17T11:21:07.181Z</time>
      </trkpt>
      <trkpt lat="39.34393" lon="-8.53464">
        <ele>17.0</ele>
        <time>2019-05-17T11:21:08.155Z</time>
      </trkpt>
      <trkpt lat="39.34395833" lon="-8.53456167">
        <ele>17.0</ele>
        <time>2019-05-17T11:21:09.187Z</time>
      </trkpt>
      <trkpt lat="39.34395833" lon="-8.53456167">
        <ele>17.0</ele>
        <time>2019-05-17T11:21:10.161Z</time>
      </trkpt>
      <trkpt lat="39.34399667" lon="-8.53447333">
        <ele>17.0</ele>
        <time>2019-05-17T11:21:11.172Z</time>
      </trkpt>
      <trkpt lat="39.34399667" lon="-8.53447333">
        <ele>17.0</ele>
        <time>2019-05-17T11:21:12.153Z</time>
      </trkpt>
      <trkpt lat="39.34404167" lon="-8.53437">
        <ele>17.0</ele>
        <time>2019-05-17T11:21:13.166Z</time>
      </trkpt>
      <trkpt lat="39.34404167" lon="-8.53437">
        <ele>17.0</ele>
        <time>2019-05-17T11:21:14.178Z</time>
      </trkpt>
      <trkpt lat="39.34408167" lon="-8.53425833">
        <ele>16.0</ele>
        <time>2019-05-17T11:21:15.157Z</time>
      </trkpt>
      <trkpt lat="39.34408167" lon="-8.53425833">
        <ele>16.0</ele>
        <time>2019-05-17T11:21:16.181Z</time>
      </trkpt>
      <trkpt lat="39.34412" lon="-8.53414333">
        <ele>16.0</ele>
        <time>2019-05-17T11:21:17.160Z</time>
      </trkpt>
      <trkpt lat="39.34412" lon="-8.53414333">
        <ele>16.0</ele>
        <time>2019-05-17T11:21:18.175Z</time>
      </trkpt>
      <trkpt lat="39.34416" lon="-8.53404167">
        <ele>16.0</ele>
        <time>2019-05-17T11:21:19.186Z</time>
      </trkpt>
      <trkpt lat="39.34416" lon="-8.53404167">
        <ele>16.0</ele>
        <time>2019-05-17T11:21:20.152Z</time>
      </trkpt>
      <trkpt lat="39.34419667" lon="-8.53394333">
        <ele>16.0</ele>
        <time>2019-05-17T11:21:21.171Z</time>
      </trkpt>
      <trkpt lat="39.34419667" lon="-8.53394333">
        <ele>16.0</ele>
        <time>2019-05-17T11:21:22.184Z</time>
      </trkpt>
      <trkpt lat="39.34423" lon="-8.53385167">
        <ele>16.0</ele>
        <time>2019-05-17T11:21:23.159Z</time>
      </trkpt>
      <trkpt lat="39.34423" lon="-8.53385167">
        <ele>16.0</ele>
        <time>2019-05-17T11:21:24.177Z</time>
      </trkpt>
      <trkpt lat="39.344265" lon="-8.53375833">
        <ele>16.0</ele>
        <time>2019-05-17T11:21:25.153Z</time>
      </trkpt>
      <trkpt lat="39.344265" lon="-8.53375833">
        <ele>16.0</ele>
        <time>2019-05-17T11:21:26.173Z</time>
      </trkpt>
      <trkpt lat="39.34429833" lon="-8.533665">
        <ele>16.0</ele>
        <time>2019-05-17T11:21:27.169Z</time>
      </trkpt>
      <trkpt lat="39.34429833" lon="-8.533665">
        <ele>16.0</ele>
        <time>2019-05-17T11:21:28.186Z</time>
      </trkpt>
      <trkpt lat="39.34433333" lon="-8.53357333">
        <ele>16.0</ele>
        <time>2019-05-17T11:21:29.167Z</time>
      </trkpt>
      <trkpt lat="39.34433333" lon="-8.53357333">
        <ele>16.0</ele>
        <time>2019-05-17T11:21:30.183Z</time>
      </trkpt>
      <trkpt lat="39.34436667" lon="-8.53348667">
        <ele>16.0</ele>
        <time>2019-05-17T11:21:31.155Z</time>
      </trkpt>
      <trkpt lat="39.34436667" lon="-8.53348667">
        <ele>16.0</ele>
        <time>2019-05-17T11:21:32.173Z</time>
      </trkpt>
      <trkpt lat="39.34438" lon="-8.5334">
        <ele>16.0</ele>
        <time>2019-05-17T11:21:33.184Z</time>
      </trkpt>
      <trkpt lat="39.34438" lon="-8.5334">
        <ele>16.0</ele>
        <time>2019-05-17T11:21:34.152Z</time>
      </trkpt>
      <trkpt lat="39.34437833" lon="-8.53333333">
        <ele>15.0</ele>
        <time>2019-05-17T11:21:35.166Z</time>
      </trkpt>
      <trkpt lat="39.34437833" lon="-8.53333333">
        <ele>15.0</ele>
        <time>2019-05-17T11:21:36.151Z</time>
      </trkpt>
      <trkpt lat="39.34437833" lon="-8.53331333">
        <ele>15.0</ele>
        <time>2019-05-17T11:21:37.167Z</time>
      </trkpt>
      <trkpt lat="39.34437833" lon="-8.53331333">
        <ele>15.0</ele>
        <time>2019-05-17T11:21:38.185Z</time>
      </trkpt>
      <trkpt lat="39.344375" lon="-8.53330833">
        <ele>15.0</ele>
        <time>2019-05-17T11:21:39.157Z</time>
      </trkpt>
      <trkpt lat="39.344375" lon="-8.53330833">
        <ele>15.0</ele>
        <time>2019-05-17T11:21:40.165Z</time>
      </trkpt>
      <trkpt lat="39.344375" lon="-8.53330833">
        <ele>15.0</ele>
        <time>2019-05-17T11:21:41.175Z</time>
      </trkpt>
      <trkpt lat="39.344375" lon="-8.53330833">
        <ele>15.0</ele>
        <time>2019-05-17T11:21:42.181Z</time>
      </trkpt>
      <trkpt lat="39.344375" lon="-8.53330833">
        <ele>15.0</ele>
        <time>2019-05-17T11:21:43.186Z</time>
      </trkpt>
      <trkpt lat="39.344375" lon="-8.53330833">
        <ele>15.0</ele>
        <time>2019-05-17T11:21:44.169Z</time>
      </trkpt>
      <trkpt lat="39.344375" lon="-8.53330833">
        <ele>15.0</ele>
        <time>2019-05-17T11:21:45.154Z</time>
      </trkpt>
      <trkpt lat="39.344375" lon="-8.53330833">
        <ele>15.0</ele>
        <time>2019-05-17T11:21:46.151Z</time>
      </trkpt>
      <trkpt lat="39.344375" lon="-8.53330833">
        <ele>15.0</ele>
        <time>2019-05-17T11:21:47.188Z</time>
      </trkpt>
      <trkpt lat="39.344375" lon="-8.53330833">
        <ele>15.0</ele>
        <time>2019-05-17T11:21:48.181Z</time>
      </trkpt>
      <trkpt lat="39.344375" lon="-8.53330833">
        <ele>15.0</ele>
        <time>2019-05-17T11:21:49.157Z</time>
      </trkpt>
      <trkpt lat="39.344375" lon="-8.53330833">
        <ele>15.0</ele>
        <time>2019-05-17T11:21:50.183Z</time>
      </trkpt>
      <trkpt lat="39.344375" lon="-8.53330833">
        <ele>15.0</ele>
        <time>2019-05-17T11:21:51.186Z</time>
      </trkpt>
      <trkpt lat="39.344375" lon="-8.53330833">
        <ele>15.0</ele>
        <time>2019-05-17T11:21:52.186Z</time>
      </trkpt>
      <trkpt lat="39.344375" lon="-8.53330833">
        <ele>15.0</ele>
        <time>2019-05-17T11:21:53.188Z</time>
      </trkpt>
      <trkpt lat="39.344375" lon="-8.53330833">
        <ele>15.0</ele>
        <time>2019-05-17T11:21:54.181Z</time>
      </trkpt>
      <trkpt lat="39.344375" lon="-8.53330833">
        <ele>15.0</ele>
        <time>2019-05-17T11:21:55.186Z</time>
      </trkpt>
      <trkpt lat="39.344375" lon="-8.53330833">
        <ele>15.0</ele>
        <time>2019-05-17T11:21:56.186Z</time>
      </trkpt>
      <trkpt lat="39.344375" lon="-8.53330833">
        <ele>15.0</ele>
        <time>2019-05-17T11:21:57.182Z</time>
      </trkpt>
      <trkpt lat="39.344375" lon="-8.53330833">
        <ele>15.0</ele>
        <time>2019-05-17T11:21:58.185Z</time>
      </trkpt>
      <trkpt lat="39.344375" lon="-8.53330833">
        <ele>15.0</ele>
        <time>2019-05-17T11:21:59.188Z</time>
      </trkpt>
      <trkpt lat="39.344375" lon="-8.53330833">
        <ele>15.0</ele>
        <time>2019-05-17T11:22:00.181Z</time>
      </trkpt>
      <trkpt lat="39.344375" lon="-8.53330833">
        <ele>15.0</ele>
        <time>2019-05-17T11:22:01.166Z</time>
      </trkpt>
      <trkpt lat="39.344375" lon="-8.53330833">
        <ele>15.0</ele>
        <time>2019-05-17T11:22:02.166Z</time>
      </trkpt>
      <trkpt lat="39.344375" lon="-8.53330833">
        <ele>15.0</ele>
        <time>2019-05-17T11:22:03.161Z</time>
      </trkpt>
      <trkpt lat="39.344375" lon="-8.53330833">
        <ele>15.0</ele>
        <time>2019-05-17T11:22:04.186Z</time>
      </trkpt>
      <trkpt lat="39.344375" lon="-8.53330833">
        <ele>15.0</ele>
        <time>2019-05-17T11:22:05.188Z</time>
      </trkpt>
      <trkpt lat="39.344375" lon="-8.53330833">
        <ele>15.0</ele>
        <time>2019-05-17T11:22:06.181Z</time>
      </trkpt>
      <trkpt lat="39.344375" lon="-8.53330833">
        <ele>15.0</ele>
        <time>2019-05-17T11:22:07.165Z</time>
      </trkpt>
      <trkpt lat="39.344375" lon="-8.53330833">
        <ele>15.0</ele>
        <time>2019-05-17T11:22:08.152Z</time>
      </trkpt>
      <trkpt lat="39.344375" lon="-8.53330833">
        <ele>15.0</ele>
        <time>2019-05-17T11:22:09.151Z</time>
      </trkpt>
      <trkpt lat="39.344375" lon="-8.53330833">
        <ele>15.0</ele>
        <time>2019-05-17T11:22:10.150Z</time>
      </trkpt>
      <trkpt lat="39.344375" lon="-8.53330833">
        <ele>15.0</ele>
        <time>2019-05-17T11:22:11.156Z</time>
      </trkpt>
      <trkpt lat="39.344375" lon="-8.53330833">
        <ele>15.0</ele>
        <time>2019-05-17T11:22:12.162Z</time>
      </trkpt>
      <trkpt lat="39.344375" lon="-8.53330833">
        <ele>15.0</ele>
        <time>2019-05-17T11:22:13.188Z</time>
      </trkpt>
      <trkpt lat="39.344375" lon="-8.53330833">
        <ele>15.0</ele>
        <time>2019-05-17T11:22:14.182Z</time>
      </trkpt>
      <trkpt lat="39.344375" lon="-8.53330833">
        <ele>15.0</ele>
        <time>2019-05-17T11:22:15.167Z</time>
      </trkpt>
      <trkpt lat="39.344375" lon="-8.53330833">
        <ele>15.0</ele>
        <time>2019-05-17T11:22:16.153Z</time>
      </trkpt>
      <trkpt lat="39.344375" lon="-8.53330833">
        <ele>15.0</ele>
        <time>2019-05-17T11:22:17.189Z</time>
      </trkpt>
      <trkpt lat="39.344375" lon="-8.53330833">
        <ele>15.0</ele>
        <time>2019-05-17T11:22:18.181Z</time>
      </trkpt>
      <trkpt lat="39.344375" lon="-8.53330833">
        <ele>15.0</ele>
        <time>2019-05-17T11:22:19.186Z</time>
      </trkpt>
      <trkpt lat="39.344375" lon="-8.53330833">
        <ele>15.0</ele>
        <time>2019-05-17T11:22:20.186Z</time>
      </trkpt>
      <trkpt lat="39.344375" lon="-8.53330833">
        <ele>15.0</ele>
        <time>2019-05-17T11:22:21.186Z</time>
      </trkpt>
      <trkpt lat="39.344375" lon="-8.53330833">
        <ele>15.0</ele>
        <time>2019-05-17T11:22:22.187Z</time>
      </trkpt>
      <trkpt lat="39.344375" lon="-8.53330833">
        <ele>15.0</ele>
        <time>2019-05-17T11:22:23.160Z</time>
      </trkpt>
      <trkpt lat="39.344375" lon="-8.53330833">
        <ele>15.0</ele>
        <time>2019-05-17T11:22:24.185Z</time>
      </trkpt>
      <trkpt lat="39.344375" lon="-8.53330833">
        <ele>15.0</ele>
        <time>2019-05-17T11:22:25.187Z</time>
      </trkpt>
      <trkpt lat="39.344375" lon="-8.53330833">
        <ele>15.0</ele>
        <time>2019-05-17T11:22:26.181Z</time>
      </trkpt>
      <trkpt lat="39.344365" lon="-8.53326833">
        <ele>14.0</ele>
        <time>2019-05-17T11:22:27.166Z</time>
      </trkpt>
      <trkpt lat="39.344365" lon="-8.53324667">
        <ele>14.0</ele>
        <time>2019-05-17T11:22:28.152Z</time>
      </trkpt>
      <trkpt lat="39.344365" lon="-8.53324667">
        <ele>14.0</ele>
        <time>2019-05-17T11:22:29.179Z</time>
      </trkpt>
      <trkpt lat="39.34437167" lon="-8.53319833">
        <ele>14.0</ele>
        <time>2019-05-17T11:22:30.186Z</time>
      </trkpt>
      <trkpt lat="39.34438167" lon="-8.53317">
        <ele>14.0</ele>
        <time>2019-05-17T11:22:31.187Z</time>
      </trkpt>
      <trkpt lat="39.34438167" lon="-8.53317">
        <ele>14.0</ele>
        <time>2019-05-17T11:22:32.182Z</time>
      </trkpt>
      <trkpt lat="39.34441" lon="-8.533105">
        <ele>14.0</ele>
        <time>2019-05-17T11:22:33.186Z</time>
      </trkpt>
      <trkpt lat="39.34441" lon="-8.533105">
        <ele>14.0</ele>
        <time>2019-05-17T11:22:34.181Z</time>
      </trkpt>
      <trkpt lat="39.344455" lon="-8.533055">
        <ele>14.0</ele>
        <time>2019-05-17T11:22:35.185Z</time>
      </trkpt>
      <trkpt lat="39.344455" lon="-8.533055">
        <ele>14.0</ele>
        <time>2019-05-17T11:22:36.169Z</time>
      </trkpt>
      <trkpt lat="39.3445" lon="-8.53301833">
        <ele>14.0</ele>
        <time>2019-05-17T11:22:37.152Z</time>
      </trkpt>
      <trkpt lat="39.3445" lon="-8.53301833">
        <ele>14.0</ele>
        <time>2019-05-17T11:22:38.166Z</time>
      </trkpt>
      <trkpt lat="39.34455" lon="-8.53298">
        <ele>14.0</ele>
        <time>2019-05-17T11:22:39.180Z</time>
      </trkpt>
      <trkpt lat="39.34457667" lon="-8.53294833">
        <ele>14.0</ele>
        <time>2019-05-17T11:22:40.169Z</time>
      </trkpt>
      <trkpt lat="39.34457667" lon="-8.53294833">
        <ele>14.0</ele>
        <time>2019-05-17T11:22:41.189Z</time>
      </trkpt>
      <trkpt lat="39.34462167" lon="-8.53286333">
        <ele>14.0</ele>
        <time>2019-05-17T11:22:42.162Z</time>
      </trkpt>
      <trkpt lat="39.34464167" lon="-8.532815">
        <ele>14.0</ele>
        <time>2019-05-17T11:22:43.160Z</time>
      </trkpt>
      <trkpt lat="39.34464167" lon="-8.532815">
        <ele>14.0</ele>
        <time>2019-05-17T11:22:44.173Z</time>
      </trkpt>
      <trkpt lat="39.344685" lon="-8.53272667">
        <ele>14.0</ele>
        <time>2019-05-17T11:22:45.187Z</time>
      </trkpt>
      <trkpt lat="39.344685" lon="-8.53272667">
        <ele>14.0</ele>
        <time>2019-05-17T11:22:46.159Z</time>
      </trkpt>
      <trkpt lat="39.34472833" lon="-8.53264167">
        <ele>14.0</ele>
        <time>2019-05-17T11:22:47.170Z</time>
      </trkpt>
      <trkpt lat="39.34472833" lon="-8.53264167">
        <ele>14.0</ele>
        <time>2019-05-17T11:22:48.181Z</time>
      </trkpt>
      <trkpt lat="39.34477333" lon="-8.53255667">
        <ele>14.0</ele>
        <time>2019-05-17T11:22:49.165Z</time>
      </trkpt>
      <trkpt lat="39.344795" lon="-8.532515">
        <ele>14.0</ele>
        <time>2019-05-17T11:22:50.173Z</time>
      </trkpt>
      <trkpt lat="39.344795" lon="-8.532515">
        <ele>14.0</ele>
        <time>2019-05-17T11:22:51.179Z</time>
      </trkpt>
      <trkpt lat="39.34483667" lon="-8.53242833">
        <ele>14.0</ele>
        <time>2019-05-17T11:22:52.155Z</time>
      </trkpt>
      <trkpt lat="39.34486" lon="-8.53238667">
        <ele>14.0</ele>
        <time>2019-05-17T11:22:53.183Z</time>
      </trkpt>
      <trkpt lat="39.34486" lon="-8.53238667">
        <ele>14.0</ele>
        <time>2019-05-17T11:22:54.157Z</time>
      </trkpt>
      <trkpt lat="39.34490667" lon="-8.53230167">
        <ele>14.0</ele>
        <time>2019-05-17T11:22:55.179Z</time>
      </trkpt>
      <trkpt lat="39.34490667" lon="-8.53230167">
        <ele>14.0</ele>
        <time>2019-05-17T11:22:56.188Z</time>
      </trkpt>
      <trkpt lat="39.34495167" lon="-8.53222333">
        <ele>14.0</ele>
        <time>2019-05-17T11:22:57.188Z</time>
      </trkpt>
      <trkpt lat="39.34495167" lon="-8.53222333">
        <ele>14.0</ele>
        <time>2019-05-17T11:22:58.184Z</time>
      </trkpt>
      <trkpt lat="39.344995" lon="-8.53215">
        <ele>14.0</ele>
        <time>2019-05-17T11:22:59.150Z</time>
      </trkpt>
      <trkpt lat="39.344995" lon="-8.53215">
        <ele>14.0</ele>
        <time>2019-05-17T11:23:00.160Z</time>
      </trkpt>
      <trkpt lat="39.34503" lon="-8.53207667">
        <ele>14.0</ele>
        <time>2019-05-17T11:23:01.183Z</time>
      </trkpt>
      <trkpt lat="39.34505" lon="-8.53204167">
        <ele>14.0</ele>
        <time>2019-05-17T11:23:02.160Z</time>
      </trkpt>
      <trkpt lat="39.34505" lon="-8.53204167">
        <ele>14.0</ele>
        <time>2019-05-17T11:23:03.179Z</time>
      </trkpt>
      <trkpt lat="39.34509333" lon="-8.53197167">
        <ele>14.0</ele>
        <time>2019-05-17T11:23:04.153Z</time>
      </trkpt>
      <trkpt lat="39.34511667" lon="-8.53193333">
        <ele>14.0</ele>
        <time>2019-05-17T11:23:05.167Z</time>
      </trkpt>
      <trkpt lat="39.34511667" lon="-8.53193333">
        <ele>14.0</ele>
        <time>2019-05-17T11:23:06.184Z</time>
      </trkpt>
      <trkpt lat="39.34516" lon="-8.53186">
        <ele>13.0</ele>
        <time>2019-05-17T11:23:07.156Z</time>
      </trkpt>
      <trkpt lat="39.34516" lon="-8.53186">
        <ele>13.0</ele>
        <time>2019-05-17T11:23:08.188Z</time>
      </trkpt>
      <trkpt lat="39.345185" lon="-8.53179667">
        <ele>13.0</ele>
        <time>2019-05-17T11:23:09.152Z</time>
      </trkpt>
      <trkpt lat="39.34518667" lon="-8.531785">
        <ele>13.0</ele>
        <time>2019-05-17T11:23:10.170Z</time>
      </trkpt>
      <trkpt lat="39.34519" lon="-8.53178167">
        <ele>13.0</ele>
        <time>2019-05-17T11:23:11.166Z</time>
      </trkpt>
      <trkpt lat="39.34519" lon="-8.53178167">
        <ele>13.0</ele>
        <time>2019-05-17T11:23:12.187Z</time>
      </trkpt>
      <trkpt lat="39.34519333" lon="-8.53178167">
        <ele>13.0</ele>
        <time>2019-05-17T11:23:13.158Z</time>
      </trkpt>
      <trkpt lat="39.34519333" lon="-8.53178167">
        <ele>13.0</ele>
        <time>2019-05-17T11:23:14.173Z</time>
      </trkpt>
      <trkpt lat="39.34519333" lon="-8.53178167">
        <ele>13.0</ele>
        <time>2019-05-17T11:23:15.167Z</time>
      </trkpt>
      <trkpt lat="39.34519333" lon="-8.53178167">
        <ele>13.0</ele>
        <time>2019-05-17T11:23:16.152Z</time>
      </trkpt>
      <trkpt lat="39.34519333" lon="-8.53178167">
        <ele>13.0</ele>
        <time>2019-05-17T11:23:17.189Z</time>
      </trkpt>
      <trkpt lat="39.34519333" lon="-8.53178167">
        <ele>13.0</ele>
        <time>2019-05-17T11:23:18.181Z</time>
      </trkpt>
      <trkpt lat="39.34519333" lon="-8.53178167">
        <ele>13.0</ele>
        <time>2019-05-17T11:23:19.187Z</time>
      </trkpt>
      <trkpt lat="39.34519333" lon="-8.53178167">
        <ele>13.0</ele>
        <time>2019-05-17T11:23:20.185Z</time>
      </trkpt>
      <trkpt lat="39.34519333" lon="-8.53178167">
        <ele>13.0</ele>
        <time>2019-05-17T11:23:21.185Z</time>
      </trkpt>
      <trkpt lat="39.34519333" lon="-8.53178167">
        <ele>13.0</ele>
        <time>2019-05-17T11:23:22.183Z</time>
      </trkpt>
      <trkpt lat="39.34519333" lon="-8.53178167">
        <ele>13.0</ele>
        <time>2019-05-17T11:23:23.151Z</time>
      </trkpt>
      <trkpt lat="39.34519333" lon="-8.53178167">
        <ele>13.0</ele>
        <time>2019-05-17T11:23:24.186Z</time>
      </trkpt>
      <trkpt lat="39.34519333" lon="-8.53178167">
        <ele>13.0</ele>
        <time>2019-05-17T11:23:25.182Z</time>
      </trkpt>
      <trkpt lat="39.34519333" lon="-8.53178167">
        <ele>13.0</ele>
        <time>2019-05-17T11:23:26.186Z</time>
      </trkpt>
      <trkpt lat="39.34519333" lon="-8.53178167">
        <ele>13.0</ele>
        <time>2019-05-17T11:23:27.181Z</time>
      </trkpt>
      <trkpt lat="39.34519333" lon="-8.53178167">
        <ele>13.0</ele>
        <time>2019-05-17T11:23:28.186Z</time>
      </trkpt>
      <trkpt lat="39.34519333" lon="-8.53178167">
        <ele>13.0</ele>
        <time>2019-05-17T11:23:29.188Z</time>
      </trkpt>
      <trkpt lat="39.34519333" lon="-8.53178167">
        <ele>13.0</ele>
        <time>2019-05-17T11:23:30.181Z</time>
      </trkpt>
      <trkpt lat="39.34519333" lon="-8.53178167">
        <ele>13.0</ele>
        <time>2019-05-17T11:23:31.166Z</time>
      </trkpt>
      <trkpt lat="39.34519333" lon="-8.53178167">
        <ele>13.0</ele>
        <time>2019-05-17T11:23:32.152Z</time>
      </trkpt>
      <trkpt lat="39.34519333" lon="-8.53178167">
        <ele>13.0</ele>
        <time>2019-05-17T11:23:33.180Z</time>
      </trkpt>
      <trkpt lat="39.34519333" lon="-8.53178167">
        <ele>13.0</ele>
        <time>2019-05-17T11:23:34.186Z</time>
      </trkpt>
      <trkpt lat="39.34519333" lon="-8.53178167">
        <ele>13.0</ele>
        <time>2019-05-17T11:23:35.188Z</time>
      </trkpt>
      <trkpt lat="39.34519333" lon="-8.53178167">
        <ele>13.0</ele>
        <time>2019-05-17T11:23:36.181Z</time>
      </trkpt>
      <trkpt lat="39.34519333" lon="-8.53178167">
        <ele>13.0</ele>
        <time>2019-05-17T11:23:37.184Z</time>
      </trkpt>
      <trkpt lat="39.34519333" lon="-8.53178167">
        <ele>13.0</ele>
        <time>2019-05-17T11:23:38.181Z</time>
      </trkpt>
      <trkpt lat="39.34519333" lon="-8.53178167">
        <ele>13.0</ele>
        <time>2019-05-17T11:23:39.183Z</time>
      </trkpt>
      <trkpt lat="39.34519333" lon="-8.53178167">
        <ele>13.0</ele>
        <time>2019-05-17T11:23:40.181Z</time>
      </trkpt>
      <trkpt lat="39.34519333" lon="-8.53178167">
        <ele>13.0</ele>
        <time>2019-05-17T11:23:41.167Z</time>
      </trkpt>
      <trkpt lat="39.34519333" lon="-8.53178167">
        <ele>13.0</ele>
        <time>2019-05-17T11:23:42.153Z</time>
      </trkpt>
      <trkpt lat="39.34519333" lon="-8.53178167">
        <ele>13.0</ele>
        <time>2019-05-17T11:23:43.183Z</time>
      </trkpt>
      <trkpt lat="39.34519333" lon="-8.53178167">
        <ele>13.0</ele>
        <time>2019-05-17T11:23:44.181Z</time>
      </trkpt>
      <trkpt lat="39.34519333" lon="-8.53178167">
        <ele>13.0</ele>
        <time>2019-05-17T11:23:45.186Z</time>
      </trkpt>
      <trkpt lat="39.34519333" lon="-8.53178167">
        <ele>13.0</ele>
        <time>2019-05-17T11:23:46.181Z</time>
      </trkpt>
      <trkpt lat="39.34519333" lon="-8.53178167">
        <ele>13.0</ele>
        <time>2019-05-17T11:23:47.168Z</time>
      </trkpt>
      <trkpt lat="39.34519333" lon="-8.53178167">
        <ele>13.0</ele>
        <time>2019-05-17T11:23:48.153Z</time>
      </trkpt>
      <trkpt lat="39.34519333" lon="-8.53178167">
        <ele>13.0</ele>
        <time>2019-05-17T11:23:49.187Z</time>
      </trkpt>
      <trkpt lat="39.34519333" lon="-8.53178167">
        <ele>13.0</ele>
        <time>2019-05-17T11:23:50.181Z</time>
      </trkpt>
      <trkpt lat="39.34519333" lon="-8.53178167">
        <ele>13.0</ele>
        <time>2019-05-17T11:23:51.166Z</time>
      </trkpt>
      <trkpt lat="39.34519333" lon="-8.53178167">
        <ele>13.0</ele>
        <time>2019-05-17T11:23:52.150Z</time>
      </trkpt>
      <trkpt lat="39.34519333" lon="-8.53178167">
        <ele>13.0</ele>
        <time>2019-05-17T11:23:53.186Z</time>
      </trkpt>
      <trkpt lat="39.34519333" lon="-8.53178167">
        <ele>13.0</ele>
        <time>2019-05-17T11:23:54.181Z</time>
      </trkpt>
      <trkpt lat="39.34520667" lon="-8.53175833">
        <ele>13.0</ele>
        <time>2019-05-17T11:23:55.186Z</time>
      </trkpt>
      <trkpt lat="39.34520667" lon="-8.53175833">
        <ele>13.0</ele>
        <time>2019-05-17T11:23:56.170Z</time>
      </trkpt>
      <trkpt lat="39.34522167" lon="-8.53177667">
        <ele>13.0</ele>
        <time>2019-05-17T11:23:57.154Z</time>
      </trkpt>
      <trkpt lat="39.34522167" lon="-8.53177667">
        <ele>13.0</ele>
        <time>2019-05-17T11:23:58.181Z</time>
      </trkpt>
      <trkpt lat="39.34522333" lon="-8.53182333">
        <ele>13.0</ele>
        <time>2019-05-17T11:23:59.188Z</time>
      </trkpt>
      <trkpt lat="39.34522333" lon="-8.53182333">
        <ele>13.0</ele>
        <time>2019-05-17T11:24:00.181Z</time>
      </trkpt>
      <trkpt lat="39.34521" lon="-8.53187333">
        <ele>13.0</ele>
        <time>2019-05-17T11:24:01.170Z</time>
      </trkpt>
      <trkpt lat="39.34521" lon="-8.53187333">
        <ele>13.0</ele>
        <time>2019-05-17T11:24:02.168Z</time>
      </trkpt>
      <trkpt lat="39.34518333" lon="-8.53192667">
        <ele>13.0</ele>
        <time>2019-05-17T11:24:03.154Z</time>
      </trkpt>
      <trkpt lat="39.34516833" lon="-8.53195667">
        <ele>13.0</ele>
        <time>2019-05-17T11:24:04.169Z</time>
      </trkpt>
      <trkpt lat="39.34516833" lon="-8.53195667">
        <ele>13.0</ele>
        <time>2019-05-17T11:24:05.154Z</time>
      </trkpt>
      <trkpt lat="39.34514333" lon="-8.53201333">
        <ele>13.0</ele>
        <time>2019-05-17T11:24:06.190Z</time>
      </trkpt>
      <trkpt lat="39.34514333" lon="-8.53201333">
        <ele>13.0</ele>
        <time>2019-05-17T11:24:07.150Z</time>
      </trkpt>
      <trkpt lat="39.34513167" lon="-8.53203833">
        <ele>13.0</ele>
        <time>2019-05-17T11:24:08.176Z</time>
      </trkpt>
      <trkpt lat="39.34513167" lon="-8.53203833">
        <ele>13.0</ele>
        <time>2019-05-17T11:24:09.182Z</time>
      </trkpt>
      <trkpt lat="39.34513833" lon="-8.53204">
        <ele>13.0</ele>
        <time>2019-05-17T11:24:10.186Z</time>
      </trkpt>
      <trkpt lat="39.34513833" lon="-8.53204">
        <ele>13.0</ele>
        <time>2019-05-17T11:24:11.170Z</time>
      </trkpt>
      <trkpt lat="39.34513833" lon="-8.53204">
        <ele>13.0</ele>
        <time>2019-05-17T11:24:12.184Z</time>
      </trkpt>
      <trkpt lat="39.34513833" lon="-8.53204">
        <ele>13.0</ele>
        <time>2019-05-17T11:24:13.150Z</time>
      </trkpt>
      <trkpt lat="39.34513833" lon="-8.53204">
        <ele>13.0</ele>
        <time>2019-05-17T11:24:14.184Z</time>
      </trkpt>
      <trkpt lat="39.34513833" lon="-8.53204">
        <ele>13.0</ele>
        <time>2019-05-17T11:24:15.153Z</time>
      </trkpt>
      <trkpt lat="39.34513833" lon="-8.53204">
        <ele>13.0</ele>
        <time>2019-05-17T11:24:16.186Z</time>
      </trkpt>
      <trkpt lat="39.34513833" lon="-8.53204">
        <ele>13.0</ele>
        <time>2019-05-17T11:24:17.189Z</time>
      </trkpt>
      <trkpt lat="39.34513833" lon="-8.53204">
        <ele>13.0</ele>
        <time>2019-05-17T11:24:18.181Z</time>
      </trkpt>
      <trkpt lat="39.34513833" lon="-8.53204">
        <ele>13.0</ele>
        <time>2019-05-17T11:24:19.186Z</time>
      </trkpt>
      <trkpt lat="39.34513833" lon="-8.53204">
        <ele>13.0</ele>
        <time>2019-05-17T11:24:20.181Z</time>
      </trkpt>
      <trkpt lat="39.34513833" lon="-8.53204">
        <ele>13.0</ele>
        <time>2019-05-17T11:24:21.187Z</time>
      </trkpt>
      <trkpt lat="39.34513833" lon="-8.53204">
        <ele>13.0</ele>
        <time>2019-05-17T11:24:22.178Z</time>
      </trkpt>
      <trkpt lat="39.34513833" lon="-8.53204">
        <ele>13.0</ele>
        <time>2019-05-17T11:24:23.168Z</time>
      </trkpt>
      <trkpt lat="39.34513833" lon="-8.53204">
        <ele>13.0</ele>
        <time>2019-05-17T11:24:24.153Z</time>
      </trkpt>
      <trkpt lat="39.34513833" lon="-8.53204">
        <ele>13.0</ele>
        <time>2019-05-17T11:24:25.187Z</time>
      </trkpt>
      <trkpt lat="39.34513833" lon="-8.53204">
        <ele>13.0</ele>
        <time>2019-05-17T11:24:26.182Z</time>
      </trkpt>
      <trkpt lat="39.34513833" lon="-8.53204">
        <ele>13.0</ele>
        <time>2019-05-17T11:24:27.166Z</time>
      </trkpt>
      <trkpt lat="39.34513833" lon="-8.53204">
        <ele>13.0</ele>
        <time>2019-05-17T11:24:28.152Z</time>
      </trkpt>
      <trkpt lat="39.34513833" lon="-8.53204">
        <ele>13.0</ele>
        <time>2019-05-17T11:24:29.188Z</time>
      </trkpt>
      <trkpt lat="39.34513833" lon="-8.53204">
        <ele>13.0</ele>
        <time>2019-05-17T11:24:30.181Z</time>
      </trkpt>
      <trkpt lat="39.34512667" lon="-8.53207667">
        <ele>15.0</ele>
        <time>2019-05-17T11:24:31.166Z</time>
      </trkpt>
      <trkpt lat="39.34512667" lon="-8.53207667">
        <ele>15.0</ele>
        <time>2019-05-17T11:24:32.171Z</time>
      </trkpt>
      <trkpt lat="39.34512167" lon="-8.53209">
        <ele>15.0</ele>
        <time>2019-05-17T11:24:33.156Z</time>
      </trkpt>
      <trkpt lat="39.34512167" lon="-8.53209">
        <ele>15.0</ele>
        <time>2019-05-17T11:24:34.180Z</time>
      </trkpt>
      <trkpt lat="39.34512167" lon="-8.53209">
        <ele>15.0</ele>
        <time>2019-05-17T11:24:35.188Z</time>
      </trkpt>
      <trkpt lat="39.34512167" lon="-8.53209">
        <ele>15.0</ele>
        <time>2019-05-17T11:24:36.180Z</time>
      </trkpt>
      <trkpt lat="39.34512167" lon="-8.53209">
        <ele>15.0</ele>
        <time>2019-05-17T11:24:37.183Z</time>
      </trkpt>
      <trkpt lat="39.34512167" lon="-8.53209">
        <ele>15.0</ele>
        <time>2019-05-17T11:24:38.183Z</time>
      </trkpt>
      <trkpt lat="39.34512167" lon="-8.53209">
        <ele>15.0</ele>
        <time>2019-05-17T11:24:39.180Z</time>
      </trkpt>
      <trkpt lat="39.34511" lon="-8.53211167">
        <ele>14.0</ele>
        <time>2019-05-17T11:24:40.183Z</time>
      </trkpt>
      <trkpt lat="39.34511" lon="-8.53212833">
        <ele>14.0</ele>
        <time>2019-05-17T11:24:41.188Z</time>
      </trkpt>
      <trkpt lat="39.34511" lon="-8.53212833">
        <ele>14.0</ele>
        <time>2019-05-17T11:24:42.183Z</time>
      </trkpt>
      <trkpt lat="39.34510833" lon="-8.53216333">
        <ele>14.0</ele>
        <time>2019-05-17T11:24:43.186Z</time>
      </trkpt>
      <trkpt lat="39.34510833" lon="-8.53216333">
        <ele>14.0</ele>
        <time>2019-05-17T11:24:44.180Z</time>
      </trkpt>
      <trkpt lat="39.34510167" lon="-8.532185">
        <ele>14.0</ele>
        <time>2019-05-17T11:24:45.183Z</time>
      </trkpt>
      <trkpt lat="39.34510167" lon="-8.532185">
        <ele>14.0</ele>
        <time>2019-05-17T11:24:46.181Z</time>
      </trkpt>
      <trkpt lat="39.34509833" lon="-8.53219167">
        <ele>14.0</ele>
        <time>2019-05-17T11:24:47.171Z</time>
      </trkpt>
      <trkpt lat="39.34509833" lon="-8.53219167">
        <ele>14.0</ele>
        <time>2019-05-17T11:24:48.165Z</time>
      </trkpt>
      <trkpt lat="39.34509833" lon="-8.53219167">
        <ele>14.0</ele>
        <time>2019-05-17T11:24:49.183Z</time>
      </trkpt>
      <trkpt lat="39.34509833" lon="-8.53219167">
        <ele>14.0</ele>
        <time>2019-05-17T11:24:50.158Z</time>
      </trkpt>
      <trkpt lat="39.34509833" lon="-8.53219167">
        <ele>14.0</ele>
        <time>2019-05-17T11:24:51.169Z</time>
      </trkpt>
      <trkpt lat="39.34509833" lon="-8.53219167">
        <ele>14.0</ele>
        <time>2019-05-17T11:24:52.186Z</time>
      </trkpt>
      <trkpt lat="39.34509833" lon="-8.53219167">
        <ele>14.0</ele>
        <time>2019-05-17T11:24:53.180Z</time>
      </trkpt>
      <trkpt lat="39.34509833" lon="-8.53219167">
        <ele>14.0</ele>
        <time>2019-05-17T11:24:54.181Z</time>
      </trkpt>
      <trkpt lat="39.34509833" lon="-8.53219167">
        <ele>14.0</ele>
        <time>2019-05-17T11:24:55.183Z</time>
      </trkpt>
      <trkpt lat="39.34509833" lon="-8.53219167">
        <ele>14.0</ele>
        <time>2019-05-17T11:24:56.180Z</time>
      </trkpt>
      <trkpt lat="39.34509833" lon="-8.53219167">
        <ele>14.0</ele>
        <time>2019-05-17T11:24:57.165Z</time>
      </trkpt>
      <trkpt lat="39.34509833" lon="-8.53219167">
        <ele>14.0</ele>
        <time>2019-05-17T11:24:58.151Z</time>
      </trkpt>
      <trkpt lat="39.34509833" lon="-8.53219167">
        <ele>14.0</ele>
        <time>2019-05-17T11:24:59.183Z</time>
      </trkpt>
      <trkpt lat="39.34509833" lon="-8.53219167">
        <ele>14.0</ele>
        <time>2019-05-17T11:25:00.183Z</time>
      </trkpt>
      <trkpt lat="39.34509833" lon="-8.53219167">
        <ele>14.0</ele>
        <time>2019-05-17T11:25:01.186Z</time>
      </trkpt>
      <trkpt lat="39.34509833" lon="-8.53219167">
        <ele>14.0</ele>
        <time>2019-05-17T11:25:02.181Z</time>
      </trkpt>
      <trkpt lat="39.34509833" lon="-8.53219167">
        <ele>14.0</ele>
        <time>2019-05-17T11:25:03.165Z</time>
      </trkpt>
      <trkpt lat="39.34509833" lon="-8.53219167">
        <ele>14.0</ele>
        <time>2019-05-17T11:25:04.188Z</time>
      </trkpt>
      <trkpt lat="39.34509833" lon="-8.53219167">
        <ele>14.0</ele>
        <time>2019-05-17T11:25:05.174Z</time>
      </trkpt>
      <trkpt lat="39.34509833" lon="-8.53219167">
        <ele>14.0</ele>
        <time>2019-05-17T11:25:06.158Z</time>
      </trkpt>
      <trkpt lat="39.34509833" lon="-8.53219167">
        <ele>14.0</ele>
        <time>2019-05-17T11:25:07.187Z</time>
      </trkpt>
      <trkpt lat="39.34509833" lon="-8.53219167">
        <ele>14.0</ele>
        <time>2019-05-17T11:25:08.181Z</time>
      </trkpt>
      <trkpt lat="39.34509833" lon="-8.53219167">
        <ele>14.0</ele>
        <time>2019-05-17T11:25:09.183Z</time>
      </trkpt>
      <trkpt lat="39.34509833" lon="-8.53219167">
        <ele>14.0</ele>
        <time>2019-05-17T11:25:10.189Z</time>
      </trkpt>
      <trkpt lat="39.34509833" lon="-8.53219167">
        <ele>14.0</ele>
        <time>2019-05-17T11:25:11.188Z</time>
      </trkpt>
      <trkpt lat="39.34509833" lon="-8.53219167">
        <ele>14.0</ele>
        <time>2019-05-17T11:25:12.181Z</time>
      </trkpt>
      <trkpt lat="39.34509833" lon="-8.53219167">
        <ele>14.0</ele>
        <time>2019-05-17T11:25:13.185Z</time>
      </trkpt>
      <trkpt lat="39.34509833" lon="-8.53219167">
        <ele>14.0</ele>
        <time>2019-05-17T11:25:14.186Z</time>
      </trkpt>
      <trkpt lat="39.34509833" lon="-8.53219167">
        <ele>14.0</ele>
        <time>2019-05-17T11:25:15.181Z</time>
      </trkpt>
      <trkpt lat="39.34509833" lon="-8.53219167">
        <ele>14.0</ele>
        <time>2019-05-17T11:25:16.150Z</time>
      </trkpt>
      <trkpt lat="39.34509833" lon="-8.53219167">
        <ele>14.0</ele>
        <time>2019-05-17T11:25:17.188Z</time>
      </trkpt>
      <trkpt lat="39.34509833" lon="-8.53219167">
        <ele>14.0</ele>
        <time>2019-05-17T11:25:18.180Z</time>
      </trkpt>
      <trkpt lat="39.34509833" lon="-8.53219167">
        <ele>14.0</ele>
        <time>2019-05-17T11:25:19.154Z</time>
      </trkpt>
      <trkpt lat="39.34509833" lon="-8.53219167">
        <ele>14.0</ele>
        <time>2019-05-17T11:25:20.181Z</time>
      </trkpt>
      <trkpt lat="39.34509833" lon="-8.53219167">
        <ele>14.0</ele>
        <time>2019-05-17T11:25:21.183Z</time>
      </trkpt>
      <trkpt lat="39.34509833" lon="-8.53219167">
        <ele>14.0</ele>
        <time>2019-05-17T11:25:22.177Z</time>
      </trkpt>
      <trkpt lat="39.34509833" lon="-8.53219167">
        <ele>14.0</ele>
        <time>2019-05-17T11:25:23.185Z</time>
      </trkpt>
      <trkpt lat="39.34509833" lon="-8.53219167">
        <ele>14.0</ele>
        <time>2019-05-17T11:25:24.186Z</time>
      </trkpt>
      <trkpt lat="39.34509833" lon="-8.53219167">
        <ele>14.0</ele>
        <time>2019-05-17T11:25:25.181Z</time>
      </trkpt>
      <trkpt lat="39.34509833" lon="-8.53219167">
        <ele>14.0</ele>
        <time>2019-05-17T11:25:26.183Z</time>
      </trkpt>
      <trkpt lat="39.34509833" lon="-8.53219167">
        <ele>14.0</ele>
        <time>2019-05-17T11:25:27.183Z</time>
      </trkpt>
      <trkpt lat="39.34509833" lon="-8.53219167">
        <ele>14.0</ele>
        <time>2019-05-17T11:25:28.186Z</time>
      </trkpt>
      <trkpt lat="39.34509833" lon="-8.53219167">
        <ele>14.0</ele>
        <time>2019-05-17T11:25:29.183Z</time>
      </trkpt>
      <trkpt lat="39.34509833" lon="-8.53219167">
        <ele>14.0</ele>
        <time>2019-05-17T11:25:30.183Z</time>
      </trkpt>
      <trkpt lat="39.34509833" lon="-8.53219167">
        <ele>14.0</ele>
        <time>2019-05-17T11:25:31.186Z</time>
      </trkpt>
      <trkpt lat="39.34509833" lon="-8.53219167">
        <ele>14.0</ele>
        <time>2019-05-17T11:25:32.183Z</time>
      </trkpt>
      <trkpt lat="39.34509833" lon="-8.53219167">
        <ele>14.0</ele>
        <time>2019-05-17T11:25:33.184Z</time>
      </trkpt>
      <trkpt lat="39.34509833" lon="-8.53219167">
        <ele>14.0</ele>
        <time>2019-05-17T11:25:34.183Z</time>
      </trkpt>
      <trkpt lat="39.34509833" lon="-8.53219167">
        <ele>14.0</ele>
        <time>2019-05-17T11:25:35.188Z</time>
      </trkpt>
      <trkpt lat="39.34509833" lon="-8.53219167">
        <ele>14.0</ele>
        <time>2019-05-17T11:25:36.181Z</time>
      </trkpt>
      <trkpt lat="39.34509833" lon="-8.53219167">
        <ele>14.0</ele>
        <time>2019-05-17T11:25:37.187Z</time>
      </trkpt>
      <trkpt lat="39.34509833" lon="-8.53219167">
        <ele>14.0</ele>
        <time>2019-05-17T11:25:38.181Z</time>
      </trkpt>
      <trkpt lat="39.34509833" lon="-8.53219167">
        <ele>14.0</ele>
        <time>2019-05-17T11:25:39.183Z</time>
      </trkpt>
      <trkpt lat="39.34509833" lon="-8.53219167">
        <ele>14.0</ele>
        <time>2019-05-17T11:25:40.180Z</time>
      </trkpt>
      <trkpt lat="39.34509833" lon="-8.53219167">
        <ele>14.0</ele>
        <time>2019-05-17T11:25:41.165Z</time>
      </trkpt>
      <trkpt lat="39.34509833" lon="-8.53219167">
        <ele>14.0</ele>
        <time>2019-05-17T11:25:42.150Z</time>
      </trkpt>
      <trkpt lat="39.34509833" lon="-8.53219167">
        <ele>14.0</ele>
        <time>2019-05-17T11:25:43.183Z</time>
      </trkpt>
      <trkpt lat="39.34509833" lon="-8.53219167">
        <ele>14.0</ele>
        <time>2019-05-17T11:25:44.161Z</time>
      </trkpt>
      <trkpt lat="39.34509833" lon="-8.53219167">
        <ele>14.0</ele>
        <time>2019-05-17T11:25:45.186Z</time>
      </trkpt>
      <trkpt lat="39.34509833" lon="-8.53219167">
        <ele>14.0</ele>
        <time>2019-05-17T11:25:46.181Z</time>
      </trkpt>
      <trkpt lat="39.34509833" lon="-8.53219167">
        <ele>14.0</ele>
        <time>2019-05-17T11:25:47.168Z</time>
      </trkpt>
      <trkpt lat="39.34509833" lon="-8.53219167">
        <ele>14.0</ele>
        <time>2019-05-17T11:25:48.161Z</time>
      </trkpt>
      <trkpt lat="39.34509833" lon="-8.53219167">
        <ele>14.0</ele>
        <time>2019-05-17T11:25:49.186Z</time>
      </trkpt>
      <trkpt lat="39.34509833" lon="-8.53219167">
        <ele>14.0</ele>
        <time>2019-05-17T11:25:50.185Z</time>
      </trkpt>
      <trkpt lat="39.34509833" lon="-8.53219167">
        <ele>14.0</ele>
        <time>2019-05-17T11:25:51.180Z</time>
      </trkpt>
      <trkpt lat="39.34509833" lon="-8.53219167">
        <ele>14.0</ele>
        <time>2019-05-17T11:25:52.189Z</time>
      </trkpt>
      <trkpt lat="39.34509833" lon="-8.53219167">
        <ele>14.0</ele>
        <time>2019-05-17T11:25:53.188Z</time>
      </trkpt>
      <trkpt lat="39.34509833" lon="-8.53219167">
        <ele>14.0</ele>
        <time>2019-05-17T11:25:54.183Z</time>
      </trkpt>
      <trkpt lat="39.34509833" lon="-8.53219167">
        <ele>14.0</ele>
        <time>2019-05-17T11:25:55.186Z</time>
      </trkpt>
      <trkpt lat="39.34509833" lon="-8.53219167">
        <ele>14.0</ele>
        <time>2019-05-17T11:25:56.184Z</time>
      </trkpt>
      <trkpt lat="39.34509833" lon="-8.53219167">
        <ele>14.0</ele>
        <time>2019-05-17T11:25:57.186Z</time>
      </trkpt>
      <trkpt lat="39.34509833" lon="-8.53219167">
        <ele>14.0</ele>
        <time>2019-05-17T11:25:58.183Z</time>
      </trkpt>
      <trkpt lat="39.34509833" lon="-8.53219167">
        <ele>14.0</ele>
        <time>2019-05-17T11:25:59.183Z</time>
      </trkpt>
      <trkpt lat="39.34505333" lon="-8.53208667">
        <ele>16.0</ele>
        <time>2019-05-17T11:26:00.183Z</time>
      </trkpt>
      <trkpt lat="39.34505333" lon="-8.53208667">
        <ele>16.0</ele>
        <time>2019-05-17T11:26:01.170Z</time>
      </trkpt>
      <trkpt lat="39.34506333" lon="-8.53207333">
        <ele>16.0</ele>
        <time>2019-05-17T11:26:02.183Z</time>
      </trkpt>
      <trkpt lat="39.34506333" lon="-8.53208">
        <ele>16.0</ele>
        <time>2019-05-17T11:26:03.170Z</time>
      </trkpt>
      <trkpt lat="39.34506333" lon="-8.53208">
        <ele>16.0</ele>
        <time>2019-05-17T11:26:04.179Z</time>
      </trkpt>
      <trkpt lat="39.34506333" lon="-8.53208667">
        <ele>16.0</ele>
        <time>2019-05-17T11:26:05.154Z</time>
      </trkpt>
      <trkpt lat="39.34506333" lon="-8.53208667">
        <ele>16.0</ele>
        <time>2019-05-17T11:26:06.176Z</time>
      </trkpt>
      <trkpt lat="39.34506333" lon="-8.53208667">
        <ele>16.0</ele>
        <time>2019-05-17T11:26:07.150Z</time>
      </trkpt>
      <trkpt lat="39.34506333" lon="-8.53208667">
        <ele>16.0</ele>
        <time>2019-05-17T11:26:08.161Z</time>
      </trkpt>
      <trkpt lat="39.345055" lon="-8.53207667">
        <ele>16.0</ele>
        <time>2019-05-17T11:26:09.179Z</time>
      </trkpt>
      <trkpt lat="39.34505333" lon="-8.53207">
        <ele>17.0</ele>
        <time>2019-05-17T11:26:10.167Z</time>
      </trkpt>
      <trkpt lat="39.34505333" lon="-8.53206833">
        <ele>17.0</ele>
        <time>2019-05-17T11:26:11.175Z</time>
      </trkpt>
      <trkpt lat="39.34505333" lon="-8.53206833">
        <ele>17.0</ele>
        <time>2019-05-17T11:26:12.182Z</time>
      </trkpt>
      <trkpt lat="39.345055" lon="-8.53205167">
        <ele>17.0</ele>
        <time>2019-05-17T11:26:13.184Z</time>
      </trkpt>
      <trkpt lat="39.345055" lon="-8.53205167">
        <ele>17.0</ele>
        <time>2019-05-17T11:26:14.181Z</time>
      </trkpt>
      <trkpt lat="39.34506833" lon="-8.53202167">
        <ele>17.0</ele>
        <time>2019-05-17T11:26:15.186Z</time>
      </trkpt>
      <trkpt lat="39.34507667" lon="-8.532005">
        <ele>17.0</ele>
        <time>2019-05-17T11:26:16.186Z</time>
      </trkpt>
      <trkpt lat="39.34508833" lon="-8.53198667">
        <ele>17.0</ele>
        <time>2019-05-17T11:26:17.188Z</time>
      </trkpt>
      <trkpt lat="39.34508833" lon="-8.53198667">
        <ele>17.0</ele>
        <time>2019-05-17T11:26:18.181Z</time>
      </trkpt>
      <trkpt lat="39.345115" lon="-8.53194333">
        <ele>17.0</ele>
        <time>2019-05-17T11:26:19.174Z</time>
      </trkpt>
      <trkpt lat="39.345115" lon="-8.53194333">
        <ele>17.0</ele>
        <time>2019-05-17T11:26:20.155Z</time>
      </trkpt>
      <trkpt lat="39.34514167" lon="-8.53189333">
        <ele>17.0</ele>
        <time>2019-05-17T11:26:21.174Z</time>
      </trkpt>
      <trkpt lat="39.34514167" lon="-8.53189333">
        <ele>17.0</ele>
        <time>2019-05-17T11:26:22.184Z</time>
      </trkpt>
      <trkpt lat="39.34516833" lon="-8.53183667">
        <ele>17.0</ele>
        <time>2019-05-17T11:26:23.156Z</time>
      </trkpt>
      <trkpt lat="39.34516833" lon="-8.53183667">
        <ele>17.0</ele>
        <time>2019-05-17T11:26:24.173Z</time>
      </trkpt>
      <trkpt lat="39.345195" lon="-8.531785">
        <ele>17.0</ele>
        <time>2019-05-17T11:26:25.188Z</time>
      </trkpt>
      <trkpt lat="39.345195" lon="-8.531785">
        <ele>17.0</ele>
        <time>2019-05-17T11:26:26.158Z</time>
      </trkpt>
      <trkpt lat="39.345225" lon="-8.531735">
        <ele>17.0</ele>
        <time>2019-05-17T11:26:27.171Z</time>
      </trkpt>
      <trkpt lat="39.345225" lon="-8.531735">
        <ele>17.0</ele>
        <time>2019-05-17T11:26:28.185Z</time>
      </trkpt>
      <trkpt lat="39.34526" lon="-8.53168167">
        <ele>18.0</ele>
        <time>2019-05-17T11:26:29.159Z</time>
      </trkpt>
      <trkpt lat="39.34526" lon="-8.53168167">
        <ele>18.0</ele>
        <time>2019-05-17T11:26:30.176Z</time>
      </trkpt>
      <trkpt lat="39.34529833" lon="-8.531625">
        <ele>18.0</ele>
        <time>2019-05-17T11:26:31.150Z</time>
      </trkpt>
      <trkpt lat="39.34529833" lon="-8.531625">
        <ele>18.0</ele>
        <time>2019-05-17T11:26:32.159Z</time>
      </trkpt>
      <trkpt lat="39.345335" lon="-8.531545">
        <ele>18.0</ele>
        <time>2019-05-17T11:26:33.167Z</time>
      </trkpt>
      <trkpt lat="39.345335" lon="-8.531545">
        <ele>18.0</ele>
        <time>2019-05-17T11:26:34.179Z</time>
      </trkpt>
      <trkpt lat="39.345365" lon="-8.53146333">
        <ele>18.0</ele>
        <time>2019-05-17T11:26:35.159Z</time>
      </trkpt>
      <trkpt lat="39.345365" lon="-8.53146333">
        <ele>18.0</ele>
        <time>2019-05-17T11:26:36.166Z</time>
      </trkpt>
      <trkpt lat="39.34539" lon="-8.53138333">
        <ele>18.0</ele>
        <time>2019-05-17T11:26:37.185Z</time>
      </trkpt>
      <trkpt lat="39.34539" lon="-8.53138333">
        <ele>18.0</ele>
        <time>2019-05-17T11:26:38.155Z</time>
      </trkpt>
      <trkpt lat="39.34541167" lon="-8.53130167">
        <ele>18.0</ele>
        <time>2019-05-17T11:26:39.175Z</time>
      </trkpt>
      <trkpt lat="39.345425" lon="-8.53126333">
        <ele>18.0</ele>
        <time>2019-05-17T11:26:40.164Z</time>
      </trkpt>
      <trkpt lat="39.34544167" lon="-8.53123333">
        <ele>18.0</ele>
        <time>2019-05-17T11:26:41.191Z</time>
      </trkpt>
      <trkpt lat="39.34544167" lon="-8.53123333">
        <ele>18.0</ele>
        <time>2019-05-17T11:26:42.160Z</time>
      </trkpt>
      <trkpt lat="39.34546333" lon="-8.53119333">
        <ele>18.0</ele>
        <time>2019-05-17T11:26:43.170Z</time>
      </trkpt>
      <trkpt lat="39.34546333" lon="-8.53119333">
        <ele>18.0</ele>
        <time>2019-05-17T11:26:44.184Z</time>
      </trkpt>
      <trkpt lat="39.34547" lon="-8.531195">
        <ele>18.0</ele>
        <time>2019-05-17T11:26:45.166Z</time>
      </trkpt>
      <trkpt lat="39.34547167" lon="-8.5312">
        <ele>18.0</ele>
        <time>2019-05-17T11:26:46.182Z</time>
      </trkpt>
      <trkpt lat="39.34547" lon="-8.531205">
        <ele>19.0</ele>
        <time>2019-05-17T11:26:47.158Z</time>
      </trkpt>
      <trkpt lat="39.34547" lon="-8.531205">
        <ele>19.0</ele>
        <time>2019-05-17T11:26:48.171Z</time>
      </trkpt>
      <trkpt lat="39.34547167" lon="-8.53120667">
        <ele>18.0</ele>
        <time>2019-05-17T11:26:49.180Z</time>
      </trkpt>
      <trkpt lat="39.34547167" lon="-8.53120667">
        <ele>18.0</ele>
        <time>2019-05-17T11:26:50.186Z</time>
      </trkpt>
      <trkpt lat="39.34547167" lon="-8.53120667">
        <ele>18.0</ele>
        <time>2019-05-17T11:26:51.152Z</time>
      </trkpt>
      <trkpt lat="39.34547167" lon="-8.53120667">
        <ele>18.0</ele>
        <time>2019-05-17T11:26:52.156Z</time>
      </trkpt>
      <trkpt lat="39.34547167" lon="-8.53120667">
        <ele>18.0</ele>
        <time>2019-05-17T11:26:53.189Z</time>
      </trkpt>
      <trkpt lat="39.34547167" lon="-8.53120667">
        <ele>18.0</ele>
        <time>2019-05-17T11:26:54.150Z</time>
      </trkpt>
      <trkpt lat="39.34547167" lon="-8.53120667">
        <ele>18.0</ele>
        <time>2019-05-17T11:26:55.186Z</time>
      </trkpt>
      <trkpt lat="39.34547167" lon="-8.53120667">
        <ele>18.0</ele>
        <time>2019-05-17T11:26:56.181Z</time>
      </trkpt>
      <trkpt lat="39.34547167" lon="-8.53120667">
        <ele>18.0</ele>
        <time>2019-05-17T11:26:57.183Z</time>
      </trkpt>
      <trkpt lat="39.34547167" lon="-8.53120667">
        <ele>18.0</ele>
        <time>2019-05-17T11:26:58.181Z</time>
      </trkpt>
      <trkpt lat="39.34547167" lon="-8.53120667">
        <ele>18.0</ele>
        <time>2019-05-17T11:26:59.188Z</time>
      </trkpt>
      <trkpt lat="39.34547167" lon="-8.53120667">
        <ele>18.0</ele>
        <time>2019-05-17T11:27:00.181Z</time>
      </trkpt>
      <trkpt lat="39.34547167" lon="-8.53120667">
        <ele>18.0</ele>
        <time>2019-05-17T11:27:01.183Z</time>
      </trkpt>
      <trkpt lat="39.34547167" lon="-8.53120667">
        <ele>18.0</ele>
        <time>2019-05-17T11:27:02.181Z</time>
      </trkpt>
      <trkpt lat="39.34547167" lon="-8.53120667">
        <ele>18.0</ele>
        <time>2019-05-17T11:27:03.186Z</time>
      </trkpt>
      <trkpt lat="39.34547167" lon="-8.53120667">
        <ele>18.0</ele>
        <time>2019-05-17T11:27:04.182Z</time>
      </trkpt>
      <trkpt lat="39.34547167" lon="-8.53120667">
        <ele>18.0</ele>
        <time>2019-05-17T11:27:05.189Z</time>
      </trkpt>
      <trkpt lat="39.34547167" lon="-8.53120667">
        <ele>18.0</ele>
        <time>2019-05-17T11:27:06.181Z</time>
      </trkpt>
      <trkpt lat="39.34547167" lon="-8.53120667">
        <ele>18.0</ele>
        <time>2019-05-17T11:27:07.166Z</time>
      </trkpt>
      <trkpt lat="39.34547167" lon="-8.53120667">
        <ele>18.0</ele>
        <time>2019-05-17T11:27:08.152Z</time>
      </trkpt>
      <trkpt lat="39.34547167" lon="-8.53120667">
        <ele>18.0</ele>
        <time>2019-05-17T11:27:09.151Z</time>
      </trkpt>
      <trkpt lat="39.34547167" lon="-8.53120667">
        <ele>18.0</ele>
        <time>2019-05-17T11:27:10.155Z</time>
      </trkpt>
      <trkpt lat="39.34547167" lon="-8.53120667">
        <ele>18.0</ele>
        <time>2019-05-17T11:27:11.188Z</time>
      </trkpt>
      <trkpt lat="39.34547167" lon="-8.53120667">
        <ele>18.0</ele>
        <time>2019-05-17T11:27:12.181Z</time>
      </trkpt>
      <trkpt lat="39.34547167" lon="-8.53120667">
        <ele>18.0</ele>
        <time>2019-05-17T11:27:13.186Z</time>
      </trkpt>
      <trkpt lat="39.34547167" lon="-8.53120667">
        <ele>18.0</ele>
        <time>2019-05-17T11:27:14.185Z</time>
      </trkpt>
      <trkpt lat="39.34547167" lon="-8.53120667">
        <ele>18.0</ele>
        <time>2019-05-17T11:27:15.183Z</time>
      </trkpt>
      <trkpt lat="39.34545333" lon="-8.53117667">
        <ele>16.0</ele>
        <time>2019-05-17T11:27:16.173Z</time>
      </trkpt>
      <trkpt lat="39.34545333" lon="-8.53117667">
        <ele>16.0</ele>
        <time>2019-05-17T11:27:17.179Z</time>
      </trkpt>
      <trkpt lat="39.34545333" lon="-8.53117667">
        <ele>16.0</ele>
        <time>2019-05-17T11:27:18.185Z</time>
      </trkpt>
      <trkpt lat="39.34545333" lon="-8.53117667">
        <ele>16.0</ele>
        <time>2019-05-17T11:27:19.152Z</time>
      </trkpt>
      <trkpt lat="39.34545333" lon="-8.53117667">
        <ele>16.0</ele>
        <time>2019-05-17T11:27:20.156Z</time>
      </trkpt>
      <trkpt lat="39.34545333" lon="-8.53117667">
        <ele>16.0</ele>
        <time>2019-05-17T11:27:21.156Z</time>
      </trkpt>
      <trkpt lat="39.34545333" lon="-8.53117667">
        <ele>16.0</ele>
        <time>2019-05-17T11:27:22.151Z</time>
      </trkpt>
      <trkpt lat="39.34545333" lon="-8.53117667">
        <ele>16.0</ele>
        <time>2019-05-17T11:27:23.151Z</time>
      </trkpt>
      <trkpt lat="39.34545333" lon="-8.53117667">
        <ele>16.0</ele>
        <time>2019-05-17T11:27:24.157Z</time>
      </trkpt>
      <trkpt lat="39.34545333" lon="-8.53117667">
        <ele>16.0</ele>
        <time>2019-05-17T11:27:25.155Z</time>
      </trkpt>
      <trkpt lat="39.34545333" lon="-8.53117667">
        <ele>16.0</ele>
        <time>2019-05-17T11:27:26.153Z</time>
      </trkpt>
      <trkpt lat="39.34545333" lon="-8.53117667">
        <ele>16.0</ele>
        <time>2019-05-17T11:27:27.151Z</time>
      </trkpt>
      <trkpt lat="39.34545333" lon="-8.53117667">
        <ele>16.0</ele>
        <time>2019-05-17T11:27:28.154Z</time>
      </trkpt>
      <trkpt lat="39.34545333" lon="-8.53117667">
        <ele>16.0</ele>
        <time>2019-05-17T11:27:29.155Z</time>
      </trkpt>
      <trkpt lat="39.34545333" lon="-8.53117667">
        <ele>16.0</ele>
        <time>2019-05-17T11:27:30.158Z</time>
      </trkpt>
      <trkpt lat="39.34545333" lon="-8.53117667">
        <ele>16.0</ele>
        <time>2019-05-17T11:27:31.151Z</time>
      </trkpt>
      <trkpt lat="39.34545333" lon="-8.53117667">
        <ele>16.0</ele>
        <time>2019-05-17T11:27:32.156Z</time>
      </trkpt>
      <trkpt lat="39.34545333" lon="-8.53117667">
        <ele>16.0</ele>
        <time>2019-05-17T11:27:33.186Z</time>
      </trkpt>
      <trkpt lat="39.34545333" lon="-8.53117667">
        <ele>16.0</ele>
        <time>2019-05-17T11:27:34.171Z</time>
      </trkpt>
      <trkpt lat="39.34545333" lon="-8.53117667">
        <ele>16.0</ele>
        <time>2019-05-17T11:27:35.157Z</time>
      </trkpt>
      <trkpt lat="39.34545333" lon="-8.53117667">
        <ele>16.0</ele>
        <time>2019-05-17T11:27:36.180Z</time>
      </trkpt>
      <trkpt lat="39.34544" lon="-8.53122667">
        <ele>29.0</ele>
        <time>2019-05-17T11:27:37.185Z</time>
      </trkpt>
      <trkpt lat="39.34544" lon="-8.53122667">
        <ele>29.0</ele>
        <time>2019-05-17T11:27:38.151Z</time>
      </trkpt>
      <trkpt lat="39.34544" lon="-8.53122667">
        <ele>29.0</ele>
        <time>2019-05-17T11:27:39.157Z</time>
      </trkpt>
      <trkpt lat="39.34544" lon="-8.53122667">
        <ele>29.0</ele>
        <time>2019-05-17T11:27:40.162Z</time>
      </trkpt>
      <trkpt lat="39.34544" lon="-8.53122667">
        <ele>29.0</ele>
        <time>2019-05-17T11:27:41.152Z</time>
      </trkpt>
      <trkpt lat="39.34544" lon="-8.53122667">
        <ele>29.0</ele>
        <time>2019-05-17T11:27:42.183Z</time>
      </trkpt>
      <trkpt lat="39.34543333" lon="-8.53124">
        <ele>27.0</ele>
        <time>2019-05-17T11:27:43.168Z</time>
      </trkpt>
      <trkpt lat="39.34543333" lon="-8.53124">
        <ele>27.0</ele>
        <time>2019-05-17T11:27:44.153Z</time>
      </trkpt>
      <trkpt lat="39.34542" lon="-8.53121833">
        <ele>27.0</ele>
        <time>2019-05-17T11:27:45.178Z</time>
      </trkpt>
      <trkpt lat="39.34542" lon="-8.53121833">
        <ele>27.0</ele>
        <time>2019-05-17T11:27:46.183Z</time>
      </trkpt>
      <trkpt lat="39.345415" lon="-8.53120833">
        <ele>27.0</ele>
        <time>2019-05-17T11:27:47.174Z</time>
      </trkpt>
      <trkpt lat="39.345415" lon="-8.53120833">
        <ele>27.0</ele>
        <time>2019-05-17T11:27:48.178Z</time>
      </trkpt>
      <trkpt lat="39.34541333" lon="-8.53118667">
        <ele>26.0</ele>
        <time>2019-05-17T11:27:49.153Z</time>
      </trkpt>
      <trkpt lat="39.34541333" lon="-8.53118667">
        <ele>26.0</ele>
        <time>2019-05-17T11:27:50.182Z</time>
      </trkpt>
      <trkpt lat="39.345415" lon="-8.53115833">
        <ele>26.0</ele>
        <time>2019-05-17T11:27:51.156Z</time>
      </trkpt>
      <trkpt lat="39.345415" lon="-8.53115833">
        <ele>26.0</ele>
        <time>2019-05-17T11:27:52.171Z</time>
      </trkpt>
      <trkpt lat="39.345415" lon="-8.53114">
        <ele>26.0</ele>
        <time>2019-05-17T11:27:53.154Z</time>
      </trkpt>
      <trkpt lat="39.345415" lon="-8.53114">
        <ele>26.0</ele>
        <time>2019-05-17T11:27:54.164Z</time>
      </trkpt>
      <trkpt lat="39.345415" lon="-8.53111333">
        <ele>26.0</ele>
        <time>2019-05-17T11:27:55.187Z</time>
      </trkpt>
      <trkpt lat="39.345415" lon="-8.53111333">
        <ele>26.0</ele>
        <time>2019-05-17T11:27:56.153Z</time>
      </trkpt>
      <trkpt lat="39.34541333" lon="-8.53107333">
        <ele>26.0</ele>
        <time>2019-05-17T11:27:57.182Z</time>
      </trkpt>
      <trkpt lat="39.34541333" lon="-8.53107333">
        <ele>26.0</ele>
        <time>2019-05-17T11:27:58.187Z</time>
      </trkpt>
      <trkpt lat="39.34541333" lon="-8.53103167">
        <ele>25.0</ele>
        <time>2019-05-17T11:27:59.167Z</time>
      </trkpt>
      <trkpt lat="39.34541333" lon="-8.53103167">
        <ele>25.0</ele>
        <time>2019-05-17T11:28:00.178Z</time>
      </trkpt>
      <trkpt lat="39.34541833" lon="-8.53099333">
        <ele>25.0</ele>
        <time>2019-05-17T11:28:01.170Z</time>
      </trkpt>
      <trkpt lat="39.34542667" lon="-8.53097">
        <ele>25.0</ele>
        <time>2019-05-17T11:28:02.174Z</time>
      </trkpt>
      <trkpt lat="39.34543" lon="-8.53094667">
        <ele>25.0</ele>
        <time>2019-05-17T11:28:03.151Z</time>
      </trkpt>
      <trkpt lat="39.34543" lon="-8.53094667">
        <ele>25.0</ele>
        <time>2019-05-17T11:28:04.157Z</time>
      </trkpt>
      <trkpt lat="39.34544667" lon="-8.53088167">
        <ele>25.0</ele>
        <time>2019-05-17T11:28:05.183Z</time>
      </trkpt>
      <trkpt lat="39.34544667" lon="-8.53088167">
        <ele>25.0</ele>
        <time>2019-05-17T11:28:06.153Z</time>
      </trkpt>
      <trkpt lat="39.34546" lon="-8.530805">
        <ele>25.0</ele>
        <time>2019-05-17T11:28:07.177Z</time>
      </trkpt>
      <trkpt lat="39.345465" lon="-8.53077">
        <ele>25.0</ele>
        <time>2019-05-17T11:28:08.155Z</time>
      </trkpt>
      <trkpt lat="39.345465" lon="-8.53077">
        <ele>25.0</ele>
        <time>2019-05-17T11:28:09.158Z</time>
      </trkpt>
      <trkpt lat="39.34547667" lon="-8.5307">
        <ele>25.0</ele>
        <time>2019-05-17T11:28:10.163Z</time>
      </trkpt>
      <trkpt lat="39.34548333" lon="-8.53066667">
        <ele>25.0</ele>
        <time>2019-05-17T11:28:11.184Z</time>
      </trkpt>
      <trkpt lat="39.34548333" lon="-8.53066667">
        <ele>25.0</ele>
        <time>2019-05-17T11:28:12.172Z</time>
      </trkpt>
      <trkpt lat="39.345495" lon="-8.530605">
        <ele>25.0</ele>
        <time>2019-05-17T11:28:13.153Z</time>
      </trkpt>
      <trkpt lat="39.3455" lon="-8.53057667">
        <ele>24.0</ele>
        <time>2019-05-17T11:28:14.168Z</time>
      </trkpt>
      <trkpt lat="39.3455" lon="-8.53057667">
        <ele>24.0</ele>
        <time>2019-05-17T11:28:15.181Z</time>
      </trkpt>
      <trkpt lat="39.34551333" lon="-8.53052">
        <ele>25.0</ele>
        <time>2019-05-17T11:28:16.156Z</time>
      </trkpt>
      <trkpt lat="39.34552" lon="-8.53048833">
        <ele>25.0</ele>
        <time>2019-05-17T11:28:17.158Z</time>
      </trkpt>
      <trkpt lat="39.34552" lon="-8.53048833">
        <ele>25.0</ele>
        <time>2019-05-17T11:28:18.164Z</time>
      </trkpt>
      <trkpt lat="39.34554167" lon="-8.53041667">
        <ele>25.0</ele>
        <time>2019-05-17T11:28:19.151Z</time>
      </trkpt>
      <trkpt lat="39.34554167" lon="-8.53041667">
        <ele>25.0</ele>
        <time>2019-05-17T11:28:20.189Z</time>
      </trkpt>
      <trkpt lat="39.34556333" lon="-8.53034">
        <ele>25.0</ele>
        <time>2019-05-17T11:28:21.167Z</time>
      </trkpt>
      <trkpt lat="39.34556333" lon="-8.53034">
        <ele>25.0</ele>
        <time>2019-05-17T11:28:22.176Z</time>
      </trkpt>
      <trkpt lat="39.34558667" lon="-8.530285">
        <ele>25.0</ele>
        <time>2019-05-17T11:28:23.167Z</time>
      </trkpt>
      <trkpt lat="39.34558667" lon="-8.530285">
        <ele>25.0</ele>
        <time>2019-05-17T11:28:24.178Z</time>
      </trkpt>
      <trkpt lat="39.34559667" lon="-8.530235">
        <ele>25.0</ele>
        <time>2019-05-17T11:28:25.151Z</time>
      </trkpt>
      <trkpt lat="39.34559667" lon="-8.530235">
        <ele>25.0</ele>
        <time>2019-05-17T11:28:26.156Z</time>
      </trkpt>
      <trkpt lat="39.34561" lon="-8.530175">
        <ele>26.0</ele>
        <time>2019-05-17T11:28:27.168Z</time>
      </trkpt>
      <trkpt lat="39.34561833" lon="-8.53014167">
        <ele>25.0</ele>
        <time>2019-05-17T11:28:28.170Z</time>
      </trkpt>
      <trkpt lat="39.345625" lon="-8.53011333">
        <ele>25.0</ele>
        <time>2019-05-17T11:28:29.152Z</time>
      </trkpt>
      <trkpt lat="39.345625" lon="-8.53011333">
        <ele>25.0</ele>
        <time>2019-05-17T11:28:30.161Z</time>
      </trkpt>
      <trkpt lat="39.34563667" lon="-8.53006167">
        <ele>25.0</ele>
        <time>2019-05-17T11:28:31.151Z</time>
      </trkpt>
      <trkpt lat="39.34564667" lon="-8.53003667">
        <ele>25.0</ele>
        <time>2019-05-17T11:28:32.162Z</time>
      </trkpt>
      <trkpt lat="39.34564667" lon="-8.53003667">
        <ele>25.0</ele>
        <time>2019-05-17T11:28:33.168Z</time>
      </trkpt>
      <trkpt lat="39.34565667" lon="-8.52998">
        <ele>25.0</ele>
        <time>2019-05-17T11:28:34.153Z</time>
      </trkpt>
      <trkpt lat="39.34566" lon="-8.52995167">
        <ele>25.0</ele>
        <time>2019-05-17T11:28:35.178Z</time>
      </trkpt>
      <trkpt lat="39.34566" lon="-8.52995167">
        <ele>25.0</ele>
        <time>2019-05-17T11:28:36.188Z</time>
      </trkpt>
      <trkpt lat="39.34567167" lon="-8.52990667">
        <ele>24.0</ele>
        <time>2019-05-17T11:28:37.170Z</time>
      </trkpt>
      <trkpt lat="39.34567167" lon="-8.52990667">
        <ele>24.0</ele>
        <time>2019-05-17T11:28:38.180Z</time>
      </trkpt>
      <trkpt lat="39.34568833" lon="-8.52985333">
        <ele>24.0</ele>
        <time>2019-05-17T11:28:39.154Z</time>
      </trkpt>
      <trkpt lat="39.34568833" lon="-8.52985333">
        <ele>24.0</ele>
        <time>2019-05-17T11:28:40.160Z</time>
      </trkpt>
      <trkpt lat="39.345705" lon="-8.529835">
        <ele>24.0</ele>
        <time>2019-05-17T11:28:41.176Z</time>
      </trkpt>
      <trkpt lat="39.345705" lon="-8.529835">
        <ele>24.0</ele>
        <time>2019-05-17T11:28:42.166Z</time>
      </trkpt>
      <trkpt lat="39.34570167" lon="-8.529825">
        <ele>24.0</ele>
        <time>2019-05-17T11:28:43.189Z</time>
      </trkpt>
      <trkpt lat="39.34570167" lon="-8.529825">
        <ele>24.0</ele>
        <time>2019-05-17T11:28:44.176Z</time>
      </trkpt>
      <trkpt lat="39.34569" lon="-8.529825">
        <ele>24.0</ele>
        <time>2019-05-17T11:28:45.184Z</time>
      </trkpt>
      <trkpt lat="39.34568333" lon="-8.52983167">
        <ele>24.0</ele>
        <time>2019-05-17T11:28:46.150Z</time>
      </trkpt>
      <trkpt lat="39.34567667" lon="-8.52984">
        <ele>24.0</ele>
        <time>2019-05-17T11:28:47.183Z</time>
      </trkpt>
      <trkpt lat="39.34567667" lon="-8.52984">
        <ele>24.0</ele>
        <time>2019-05-17T11:28:48.184Z</time>
      </trkpt>
      <trkpt lat="39.34566" lon="-8.52989167">
        <ele>24.0</ele>
        <time>2019-05-17T11:28:49.189Z</time>
      </trkpt>
      <trkpt lat="39.34566" lon="-8.52989167">
        <ele>24.0</ele>
        <time>2019-05-17T11:28:50.184Z</time>
      </trkpt>
      <trkpt lat="39.34565167" lon="-8.529955">
        <ele>24.0</ele>
        <time>2019-05-17T11:28:51.189Z</time>
      </trkpt>
      <trkpt lat="39.34565167" lon="-8.529955">
        <ele>24.0</ele>
        <time>2019-05-17T11:28:52.185Z</time>
      </trkpt>
      <trkpt lat="39.34565" lon="-8.53002833">
        <ele>24.0</ele>
        <time>2019-05-17T11:28:53.157Z</time>
      </trkpt>
      <trkpt lat="39.34565" lon="-8.53002833">
        <ele>24.0</ele>
        <time>2019-05-17T11:28:54.166Z</time>
      </trkpt>
      <trkpt lat="39.34565167" lon="-8.5301">
        <ele>24.0</ele>
        <time>2019-05-17T11:28:55.151Z</time>
      </trkpt>
      <trkpt lat="39.34565167" lon="-8.5301">
        <ele>24.0</ele>
        <time>2019-05-17T11:28:56.159Z</time>
      </trkpt>
      <trkpt lat="39.34567333" lon="-8.530135">
        <ele>24.0</ele>
        <time>2019-05-17T11:28:57.177Z</time>
      </trkpt>
      <trkpt lat="39.34567333" lon="-8.530135">
        <ele>24.0</ele>
        <time>2019-05-17T11:28:58.184Z</time>
      </trkpt>
      <trkpt lat="39.34569333" lon="-8.53013833">
        <ele>24.0</ele>
        <time>2019-05-17T11:28:59.161Z</time>
      </trkpt>
      <trkpt lat="39.34569333" lon="-8.53013833">
        <ele>24.0</ele>
        <time>2019-05-17T11:29:00.167Z</time>
      </trkpt>
      <trkpt lat="39.34570333" lon="-8.53014">
        <ele>25.0</ele>
        <time>2019-05-17T11:29:01.150Z</time>
      </trkpt>
      <trkpt lat="39.34570333" lon="-8.53014">
        <ele>25.0</ele>
        <time>2019-05-17T11:29:02.157Z</time>
      </trkpt>
      <trkpt lat="39.34572667" lon="-8.53010667">
        <ele>25.0</ele>
        <time>2019-05-17T11:29:03.176Z</time>
      </trkpt>
      <trkpt lat="39.34572667" lon="-8.53010667">
        <ele>25.0</ele>
        <time>2019-05-17T11:29:04.186Z</time>
      </trkpt>
      <trkpt lat="39.34574667" lon="-8.53007167">
        <ele>25.0</ele>
        <time>2019-05-17T11:29:05.154Z</time>
      </trkpt>
      <trkpt lat="39.34574667" lon="-8.53007167">
        <ele>25.0</ele>
        <time>2019-05-17T11:29:06.160Z</time>
      </trkpt>
      <trkpt lat="39.34577167" lon="-8.53003167">
        <ele>25.0</ele>
        <time>2019-05-17T11:29:07.181Z</time>
      </trkpt>
      <trkpt lat="39.34577167" lon="-8.53003167">
        <ele>25.0</ele>
        <time>2019-05-17T11:29:08.159Z</time>
      </trkpt>
      <trkpt lat="39.34580333" lon="-8.529995">
        <ele>25.0</ele>
        <time>2019-05-17T11:29:09.168Z</time>
      </trkpt>
      <trkpt lat="39.34582167" lon="-8.52997667">
        <ele>26.0</ele>
        <time>2019-05-17T11:29:10.189Z</time>
      </trkpt>
      <trkpt lat="39.34583833" lon="-8.529955">
        <ele>26.0</ele>
        <time>2019-05-17T11:29:11.183Z</time>
      </trkpt>
      <trkpt lat="39.34583833" lon="-8.529955">
        <ele>26.0</ele>
        <time>2019-05-17T11:29:12.188Z</time>
      </trkpt>
      <trkpt lat="39.34587167" lon="-8.52990167">
        <ele>26.0</ele>
        <time>2019-05-17T11:29:13.175Z</time>
      </trkpt>
      <trkpt lat="39.34587167" lon="-8.52990167">
        <ele>26.0</ele>
        <time>2019-05-17T11:29:14.167Z</time>
      </trkpt>
      <trkpt lat="39.345905" lon="-8.529855">
        <ele>26.0</ele>
        <time>2019-05-17T11:29:15.156Z</time>
      </trkpt>
      <trkpt lat="39.345905" lon="-8.529855">
        <ele>26.0</ele>
        <time>2019-05-17T11:29:16.180Z</time>
      </trkpt>
      <trkpt lat="39.34593667" lon="-8.52981">
        <ele>25.0</ele>
        <time>2019-05-17T11:29:17.176Z</time>
      </trkpt>
      <trkpt lat="39.34593667" lon="-8.52981">
        <ele>25.0</ele>
        <time>2019-05-17T11:29:18.164Z</time>
      </trkpt>
      <trkpt lat="39.34597833" lon="-8.52975833">
        <ele>25.0</ele>
        <time>2019-05-17T11:29:19.150Z</time>
      </trkpt>
      <trkpt lat="39.346" lon="-8.52973333">
        <ele>25.0</ele>
        <time>2019-05-17T11:29:20.164Z</time>
      </trkpt>
      <trkpt lat="39.346" lon="-8.52973333">
        <ele>25.0</ele>
        <time>2019-05-17T11:29:21.169Z</time>
      </trkpt>
      <trkpt lat="39.346035" lon="-8.52969167">
        <ele>25.0</ele>
        <time>2019-05-17T11:29:22.167Z</time>
      </trkpt>
      <trkpt lat="39.34605333" lon="-8.52967167">
        <ele>25.0</ele>
        <time>2019-05-17T11:29:23.162Z</time>
      </trkpt>
      <trkpt lat="39.34605333" lon="-8.52967167">
        <ele>25.0</ele>
        <time>2019-05-17T11:29:24.155Z</time>
      </trkpt>
      <trkpt lat="39.34609333" lon="-8.52964333">
        <ele>25.0</ele>
        <time>2019-05-17T11:29:25.175Z</time>
      </trkpt>
      <trkpt lat="39.34609333" lon="-8.52964333">
        <ele>25.0</ele>
        <time>2019-05-17T11:29:26.157Z</time>
      </trkpt>
      <trkpt lat="39.34612833" lon="-8.52962">
        <ele>26.0</ele>
        <time>2019-05-17T11:29:27.189Z</time>
      </trkpt>
      <trkpt lat="39.34612833" lon="-8.52962">
        <ele>26.0</ele>
        <time>2019-05-17T11:29:28.158Z</time>
      </trkpt>
      <trkpt lat="39.346165" lon="-8.52959333">
        <ele>26.0</ele>
        <time>2019-05-17T11:29:29.188Z</time>
      </trkpt>
      <trkpt lat="39.346165" lon="-8.52959333">
        <ele>26.0</ele>
        <time>2019-05-17T11:29:30.160Z</time>
      </trkpt>
      <trkpt lat="39.34621" lon="-8.52955167">
        <ele>26.0</ele>
        <time>2019-05-17T11:29:31.169Z</time>
      </trkpt>
      <trkpt lat="39.34621" lon="-8.52955167">
        <ele>26.0</ele>
        <time>2019-05-17T11:29:32.190Z</time>
      </trkpt>
      <trkpt lat="39.34625167" lon="-8.52950667">
        <ele>27.0</ele>
        <time>2019-05-17T11:29:33.169Z</time>
      </trkpt>
      <trkpt lat="39.34625167" lon="-8.52950667">
        <ele>27.0</ele>
        <time>2019-05-17T11:29:34.154Z</time>
      </trkpt>
      <trkpt lat="39.34629667" lon="-8.52945167">
        <ele>27.0</ele>
        <time>2019-05-17T11:29:35.173Z</time>
      </trkpt>
      <trkpt lat="39.34629667" lon="-8.52945167">
        <ele>27.0</ele>
        <time>2019-05-17T11:29:36.181Z</time>
      </trkpt>
      <trkpt lat="39.34633167" lon="-8.52938167">
        <ele>27.0</ele>
        <time>2019-05-17T11:29:37.161Z</time>
      </trkpt>
      <trkpt lat="39.34633167" lon="-8.52938167">
        <ele>27.0</ele>
        <time>2019-05-17T11:29:38.166Z</time>
      </trkpt>
      <trkpt lat="39.34636833" lon="-8.52931333">
        <ele>27.0</ele>
        <time>2019-05-17T11:29:39.189Z</time>
      </trkpt>
      <trkpt lat="39.34636833" lon="-8.52931333">
        <ele>27.0</ele>
        <time>2019-05-17T11:29:40.154Z</time>
      </trkpt>
      <trkpt lat="39.34641" lon="-8.52924667">
        <ele>26.0</ele>
        <time>2019-05-17T11:29:41.175Z</time>
      </trkpt>
      <trkpt lat="39.34641" lon="-8.52924667">
        <ele>26.0</ele>
        <time>2019-05-17T11:29:42.153Z</time>
      </trkpt>
      <trkpt lat="39.346445" lon="-8.52918167">
        <ele>26.0</ele>
        <time>2019-05-17T11:29:43.175Z</time>
      </trkpt>
      <trkpt lat="39.346445" lon="-8.52918167">
        <ele>26.0</ele>
        <time>2019-05-17T11:29:44.159Z</time>
      </trkpt>
      <trkpt lat="39.34648167" lon="-8.52911833">
        <ele>26.0</ele>
        <time>2019-05-17T11:29:45.175Z</time>
      </trkpt>
      <trkpt lat="39.34650833" lon="-8.52909167">
        <ele>26.0</ele>
        <time>2019-05-17T11:29:46.150Z</time>
      </trkpt>
      <trkpt lat="39.34653167" lon="-8.529065">
        <ele>26.0</ele>
        <time>2019-05-17T11:29:47.151Z</time>
      </trkpt>
      <trkpt lat="39.34653167" lon="-8.529065">
        <ele>26.0</ele>
        <time>2019-05-17T11:29:48.157Z</time>
      </trkpt>
      <trkpt lat="39.34657" lon="-8.52901667">
        <ele>26.0</ele>
        <time>2019-05-17T11:29:49.179Z</time>
      </trkpt>
      <trkpt lat="39.34657" lon="-8.52901667">
        <ele>26.0</ele>
        <time>2019-05-17T11:29:50.189Z</time>
      </trkpt>
      <trkpt lat="39.34660833" lon="-8.52897167">
        <ele>26.0</ele>
        <time>2019-05-17T11:29:51.175Z</time>
      </trkpt>
      <trkpt lat="39.34662667" lon="-8.52895">
        <ele>26.0</ele>
        <time>2019-05-17T11:29:52.170Z</time>
      </trkpt>
      <trkpt lat="39.34664167" lon="-8.52892667">
        <ele>26.0</ele>
        <time>2019-05-17T11:29:53.157Z</time>
      </trkpt>
      <trkpt lat="39.34664167" lon="-8.52892667">
        <ele>26.0</ele>
        <time>2019-05-17T11:29:54.162Z</time>
      </trkpt>
      <trkpt lat="39.34666667" lon="-8.52887667">
        <ele>26.0</ele>
        <time>2019-05-17T11:29:55.185Z</time>
      </trkpt>
      <trkpt lat="39.34668" lon="-8.52885333">
        <ele>26.0</ele>
        <time>2019-05-17T11:29:56.167Z</time>
      </trkpt>
      <trkpt lat="39.34668" lon="-8.52885333">
        <ele>26.0</ele>
        <time>2019-05-17T11:29:57.156Z</time>
      </trkpt>
      <trkpt lat="39.34669167" lon="-8.5288">
        <ele>26.0</ele>
        <time>2019-05-17T11:29:58.178Z</time>
      </trkpt>
      <trkpt lat="39.34669833" lon="-8.52877167">
        <ele>26.0</ele>
        <time>2019-05-17T11:29:59.174Z</time>
      </trkpt>
      <trkpt lat="39.34669833" lon="-8.52877167">
        <ele>26.0</ele>
        <time>2019-05-17T11:30:00.180Z</time>
      </trkpt>
      <trkpt lat="39.34672" lon="-8.52873167">
        <ele>25.0</ele>
        <time>2019-05-17T11:30:01.163Z</time>
      </trkpt>
      <trkpt lat="39.34673167" lon="-8.52871167">
        <ele>25.0</ele>
        <time>2019-05-17T11:30:02.179Z</time>
      </trkpt>
      <trkpt lat="39.34673167" lon="-8.52871167">
        <ele>25.0</ele>
        <time>2019-05-17T11:30:03.164Z</time>
      </trkpt>
      <trkpt lat="39.34675167" lon="-8.52867">
        <ele>25.0</ele>
        <time>2019-05-17T11:30:04.189Z</time>
      </trkpt>
      <trkpt lat="39.34676" lon="-8.52865333">
        <ele>25.0</ele>
        <time>2019-05-17T11:30:05.167Z</time>
      </trkpt>
      <trkpt lat="39.34676" lon="-8.52865333">
        <ele>25.0</ele>
        <time>2019-05-17T11:30:06.176Z</time>
      </trkpt>
      <trkpt lat="39.34679333" lon="-8.528625">
        <ele>26.0</ele>
        <time>2019-05-17T11:30:07.167Z</time>
      </trkpt>
      <trkpt lat="39.34679333" lon="-8.528625">
        <ele>26.0</ele>
        <time>2019-05-17T11:30:08.187Z</time>
      </trkpt>
      <trkpt lat="39.34683333" lon="-8.52859">
        <ele>26.0</ele>
        <time>2019-05-17T11:30:09.177Z</time>
      </trkpt>
      <trkpt lat="39.34686667" lon="-8.52857">
        <ele>26.0</ele>
        <time>2019-05-17T11:30:10.188Z</time>
      </trkpt>
      <trkpt lat="39.3469" lon="-8.52854667">
        <ele>26.0</ele>
        <time>2019-05-17T11:30:11.167Z</time>
      </trkpt>
      <trkpt lat="39.3469" lon="-8.52854667">
        <ele>26.0</ele>
        <time>2019-05-17T11:30:12.173Z</time>
      </trkpt>
      <trkpt lat="39.34695333" lon="-8.52850667">
        <ele>26.0</ele>
        <time>2019-05-17T11:30:13.158Z</time>
      </trkpt>
      <trkpt lat="39.34695333" lon="-8.52850667">
        <ele>26.0</ele>
        <time>2019-05-17T11:30:14.163Z</time>
      </trkpt>
      <trkpt lat="39.34701667" lon="-8.52847833">
        <ele>26.0</ele>
        <time>2019-05-17T11:30:15.186Z</time>
      </trkpt>
      <trkpt lat="39.34701667" lon="-8.52847833">
        <ele>26.0</ele>
        <time>2019-05-17T11:30:16.158Z</time>
      </trkpt>
      <trkpt lat="39.34707667" lon="-8.52843667">
        <ele>27.0</ele>
        <time>2019-05-17T11:30:17.185Z</time>
      </trkpt>
      <trkpt lat="39.34707667" lon="-8.52843667">
        <ele>27.0</ele>
        <time>2019-05-17T11:30:18.168Z</time>
      </trkpt>
      <trkpt lat="39.34713667" lon="-8.52837833">
        <ele>27.0</ele>
        <time>2019-05-17T11:30:19.156Z</time>
      </trkpt>
      <trkpt lat="39.347165" lon="-8.52834833">
        <ele>27.0</ele>
        <time>2019-05-17T11:30:20.175Z</time>
      </trkpt>
      <trkpt lat="39.347165" lon="-8.52834833">
        <ele>27.0</ele>
        <time>2019-05-17T11:30:21.182Z</time>
      </trkpt>
      <trkpt lat="39.34722" lon="-8.52829667">
        <ele>27.0</ele>
        <time>2019-05-17T11:30:22.158Z</time>
      </trkpt>
      <trkpt lat="39.34723833" lon="-8.52826333">
        <ele>27.0</ele>
        <time>2019-05-17T11:30:23.162Z</time>
      </trkpt>
      <trkpt lat="39.34723833" lon="-8.52826333">
        <ele>27.0</ele>
        <time>2019-05-17T11:30:24.167Z</time>
      </trkpt>
      <trkpt lat="39.347275" lon="-8.528235">
        <ele>27.0</ele>
        <time>2019-05-17T11:30:25.189Z</time>
      </trkpt>
      <trkpt lat="39.347275" lon="-8.528235">
        <ele>27.0</ele>
        <time>2019-05-17T11:30:26.154Z</time>
      </trkpt>
      <trkpt lat="39.34729667" lon="-8.528235">
        <ele>27.0</ele>
        <time>2019-05-17T11:30:27.173Z</time>
      </trkpt>
      <trkpt lat="39.34729667" lon="-8.528235">
        <ele>27.0</ele>
        <time>2019-05-17T11:30:28.179Z</time>
      </trkpt>
      <trkpt lat="39.3473" lon="-8.528235">
        <ele>28.0</ele>
        <time>2019-05-17T11:30:29.159Z</time>
      </trkpt>
      <trkpt lat="39.3473" lon="-8.528235">
        <ele>28.0</ele>
        <time>2019-05-17T11:30:30.178Z</time>
      </trkpt>
      <trkpt lat="39.34730167" lon="-8.52823333">
        <ele>27.0</ele>
        <time>2019-05-17T11:30:31.184Z</time>
      </trkpt>
      <trkpt lat="39.34730167" lon="-8.52823333">
        <ele>27.0</ele>
        <time>2019-05-17T11:30:32.150Z</time>
      </trkpt>
      <trkpt lat="39.34730167" lon="-8.52823333">
        <ele>27.0</ele>
        <time>2019-05-17T11:30:33.189Z</time>
      </trkpt>
      <trkpt lat="39.34730167" lon="-8.52823333">
        <ele>27.0</ele>
        <time>2019-05-17T11:30:34.188Z</time>
      </trkpt>
      <trkpt lat="39.34730167" lon="-8.52823333">
        <ele>27.0</ele>
        <time>2019-05-17T11:30:35.167Z</time>
      </trkpt>
      <trkpt lat="39.34730167" lon="-8.52823333">
        <ele>27.0</ele>
        <time>2019-05-17T11:30:36.155Z</time>
      </trkpt>
      <trkpt lat="39.34730167" lon="-8.52823333">
        <ele>27.0</ele>
        <time>2019-05-17T11:30:37.150Z</time>
      </trkpt>
      <trkpt lat="39.34730167" lon="-8.52823333">
        <ele>27.0</ele>
        <time>2019-05-17T11:30:38.184Z</time>
      </trkpt>
      <trkpt lat="39.34730167" lon="-8.52823333">
        <ele>27.0</ele>
        <time>2019-05-17T11:30:39.189Z</time>
      </trkpt>
      <trkpt lat="39.34730167" lon="-8.52823333">
        <ele>27.0</ele>
        <time>2019-05-17T11:30:40.188Z</time>
      </trkpt>
      <trkpt lat="39.34730167" lon="-8.52823333">
        <ele>27.0</ele>
        <time>2019-05-17T11:30:41.151Z</time>
      </trkpt>
      <trkpt lat="39.34730167" lon="-8.52823333">
        <ele>27.0</ele>
        <time>2019-05-17T11:30:42.184Z</time>
      </trkpt>
      <trkpt lat="39.34730167" lon="-8.52823333">
        <ele>27.0</ele>
        <time>2019-05-17T11:30:43.189Z</time>
      </trkpt>
      <trkpt lat="39.34730167" lon="-8.52823333">
        <ele>27.0</ele>
        <time>2019-05-17T11:30:44.184Z</time>
      </trkpt>
      <trkpt lat="39.34730167" lon="-8.52823333">
        <ele>27.0</ele>
        <time>2019-05-17T11:30:45.169Z</time>
      </trkpt>
      <trkpt lat="39.34730167" lon="-8.52823333">
        <ele>27.0</ele>
        <time>2019-05-17T11:30:46.154Z</time>
      </trkpt>
      <trkpt lat="39.34730167" lon="-8.52823333">
        <ele>27.0</ele>
        <time>2019-05-17T11:30:47.152Z</time>
      </trkpt>
      <trkpt lat="39.34730167" lon="-8.52823333">
        <ele>27.0</ele>
        <time>2019-05-17T11:30:48.184Z</time>
      </trkpt>
      <trkpt lat="39.34730167" lon="-8.52823333">
        <ele>27.0</ele>
        <time>2019-05-17T11:30:49.189Z</time>
      </trkpt>
      <trkpt lat="39.34730167" lon="-8.52823333">
        <ele>27.0</ele>
        <time>2019-05-17T11:30:50.184Z</time>
      </trkpt>
      <trkpt lat="39.34730167" lon="-8.52823333">
        <ele>27.0</ele>
        <time>2019-05-17T11:30:51.168Z</time>
      </trkpt>
      <trkpt lat="39.34730167" lon="-8.52823333">
        <ele>27.0</ele>
        <time>2019-05-17T11:30:52.157Z</time>
      </trkpt>
      <trkpt lat="39.34730167" lon="-8.52823333">
        <ele>27.0</ele>
        <time>2019-05-17T11:30:53.152Z</time>
      </trkpt>
      <trkpt lat="39.34730167" lon="-8.52823333">
        <ele>27.0</ele>
        <time>2019-05-17T11:30:54.184Z</time>
      </trkpt>
      <trkpt lat="39.34730167" lon="-8.52823333">
        <ele>27.0</ele>
        <time>2019-05-17T11:30:55.188Z</time>
      </trkpt>
      <trkpt lat="39.34730167" lon="-8.52823333">
        <ele>27.0</ele>
        <time>2019-05-17T11:30:56.150Z</time>
      </trkpt>
      <trkpt lat="39.34730167" lon="-8.52823333">
        <ele>27.0</ele>
        <time>2019-05-17T11:30:57.184Z</time>
      </trkpt>
      <trkpt lat="39.34730167" lon="-8.52823333">
        <ele>27.0</ele>
        <time>2019-05-17T11:30:58.189Z</time>
      </trkpt>
      <trkpt lat="39.34730167" lon="-8.52823333">
        <ele>27.0</ele>
        <time>2019-05-17T11:30:59.152Z</time>
      </trkpt>
      <trkpt lat="39.34730167" lon="-8.52823333">
        <ele>27.0</ele>
        <time>2019-05-17T11:31:00.184Z</time>
      </trkpt>
      <trkpt lat="39.34730167" lon="-8.52823333">
        <ele>27.0</ele>
        <time>2019-05-17T11:31:01.187Z</time>
      </trkpt>
      <trkpt lat="39.34730167" lon="-8.52823333">
        <ele>27.0</ele>
        <time>2019-05-17T11:31:02.184Z</time>
      </trkpt>
      <trkpt lat="39.34730167" lon="-8.52823333">
        <ele>27.0</ele>
        <time>2019-05-17T11:31:03.152Z</time>
      </trkpt>
      <trkpt lat="39.34730167" lon="-8.52823333">
        <ele>27.0</ele>
        <time>2019-05-17T11:31:04.184Z</time>
      </trkpt>
      <trkpt lat="39.34730167" lon="-8.52823333">
        <ele>27.0</ele>
        <time>2019-05-17T11:31:05.167Z</time>
      </trkpt>
      <trkpt lat="39.34730167" lon="-8.52823333">
        <ele>27.0</ele>
        <time>2019-05-17T11:31:06.167Z</time>
      </trkpt>
      <trkpt lat="39.34734167" lon="-8.52822333">
        <ele>28.0</ele>
        <time>2019-05-17T11:31:07.153Z</time>
      </trkpt>
      <trkpt lat="39.34734167" lon="-8.52822333">
        <ele>28.0</ele>
        <time>2019-05-17T11:31:08.184Z</time>
      </trkpt>
      <trkpt lat="39.34737333" lon="-8.52822">
        <ele>28.0</ele>
        <time>2019-05-17T11:31:09.182Z</time>
      </trkpt>
      <trkpt lat="39.34737333" lon="-8.52822">
        <ele>28.0</ele>
        <time>2019-05-17T11:31:10.152Z</time>
      </trkpt>
      <trkpt lat="39.34741667" lon="-8.52822">
        <ele>28.0</ele>
        <time>2019-05-17T11:31:11.158Z</time>
      </trkpt>
      <trkpt lat="39.34741667" lon="-8.52822">
        <ele>28.0</ele>
        <time>2019-05-17T11:31:12.163Z</time>
      </trkpt>
      <trkpt lat="39.34746" lon="-8.52822167">
        <ele>28.0</ele>
        <time>2019-05-17T11:31:13.151Z</time>
      </trkpt>
      <trkpt lat="39.34746" lon="-8.52822167">
        <ele>28.0</ele>
        <time>2019-05-17T11:31:14.184Z</time>
      </trkpt>
      <trkpt lat="39.34751333" lon="-8.528215">
        <ele>28.0</ele>
        <time>2019-05-17T11:31:15.152Z</time>
      </trkpt>
      <trkpt lat="39.34751333" lon="-8.528215">
        <ele>28.0</ele>
        <time>2019-05-17T11:31:16.161Z</time>
      </trkpt>
      <trkpt lat="39.34758" lon="-8.52820167">
        <ele>28.0</ele>
        <time>2019-05-17T11:31:17.151Z</time>
      </trkpt>
      <trkpt lat="39.34758" lon="-8.52820167">
        <ele>28.0</ele>
        <time>2019-05-17T11:31:18.156Z</time>
      </trkpt>
      <trkpt lat="39.347645" lon="-8.52818833">
        <ele>28.0</ele>
        <time>2019-05-17T11:31:19.189Z</time>
      </trkpt>
      <trkpt lat="39.347645" lon="-8.52818833">
        <ele>28.0</ele>
        <time>2019-05-17T11:31:20.173Z</time>
      </trkpt>
      <trkpt lat="39.34770833" lon="-8.52819">
        <ele>28.0</ele>
        <time>2019-05-17T11:31:21.151Z</time>
      </trkpt>
      <trkpt lat="39.34770833" lon="-8.52819">
        <ele>28.0</ele>
        <time>2019-05-17T11:31:22.178Z</time>
      </trkpt>
      <trkpt lat="39.34776167" lon="-8.528185">
        <ele>30.0</ele>
        <time>2019-05-17T11:31:23.168Z</time>
      </trkpt>
      <trkpt lat="39.34776167" lon="-8.528185">
        <ele>30.0</ele>
        <time>2019-05-17T11:31:24.178Z</time>
      </trkpt>
      <trkpt lat="39.34781" lon="-8.52818">
        <ele>31.0</ele>
        <time>2019-05-17T11:31:25.169Z</time>
      </trkpt>
      <trkpt lat="39.34781" lon="-8.52818">
        <ele>31.0</ele>
        <time>2019-05-17T11:31:26.179Z</time>
      </trkpt>
      <trkpt lat="39.34785833" lon="-8.52817333">
        <ele>32.0</ele>
        <time>2019-05-17T11:31:27.155Z</time>
      </trkpt>
      <trkpt lat="39.34785833" lon="-8.52817333">
        <ele>32.0</ele>
        <time>2019-05-17T11:31:28.161Z</time>
      </trkpt>
      <trkpt lat="39.34791" lon="-8.52816333">
        <ele>32.0</ele>
        <time>2019-05-17T11:31:29.171Z</time>
      </trkpt>
      <trkpt lat="39.34791" lon="-8.52816333">
        <ele>32.0</ele>
        <time>2019-05-17T11:31:30.180Z</time>
      </trkpt>
      <trkpt lat="39.34796" lon="-8.528165">
        <ele>33.0</ele>
        <time>2019-05-17T11:31:31.171Z</time>
      </trkpt>
      <trkpt lat="39.34796" lon="-8.528165">
        <ele>33.0</ele>
        <time>2019-05-17T11:31:32.179Z</time>
      </trkpt>
      <trkpt lat="39.348015" lon="-8.52816333">
        <ele>33.0</ele>
        <time>2019-05-17T11:31:33.157Z</time>
      </trkpt>
      <trkpt lat="39.348015" lon="-8.52816333">
        <ele>33.0</ele>
        <time>2019-05-17T11:31:34.172Z</time>
      </trkpt>
      <trkpt lat="39.34807" lon="-8.52816">
        <ele>34.0</ele>
        <time>2019-05-17T11:31:35.150Z</time>
      </trkpt>
      <trkpt lat="39.34807" lon="-8.52816">
        <ele>34.0</ele>
        <time>2019-05-17T11:31:36.156Z</time>
      </trkpt>
      <trkpt lat="39.34812833" lon="-8.52815667">
        <ele>33.0</ele>
        <time>2019-05-17T11:31:37.181Z</time>
      </trkpt>
      <trkpt lat="39.34812833" lon="-8.52815667">
        <ele>33.0</ele>
        <time>2019-05-17T11:31:38.153Z</time>
      </trkpt>
      <trkpt lat="39.34818167" lon="-8.52815333">
        <ele>34.0</ele>
        <time>2019-05-17T11:31:39.173Z</time>
      </trkpt>
      <trkpt lat="39.34818167" lon="-8.52815333">
        <ele>34.0</ele>
        <time>2019-05-17T11:31:40.182Z</time>
      </trkpt>
      <trkpt lat="39.34824333" lon="-8.52815167">
        <ele>34.0</ele>
        <time>2019-05-17T11:31:41.161Z</time>
      </trkpt>
      <trkpt lat="39.34824333" lon="-8.52815167">
        <ele>34.0</ele>
        <time>2019-05-17T11:31:42.176Z</time>
      </trkpt>
      <trkpt lat="39.34830333" lon="-8.52815667">
        <ele>34.0</ele>
        <time>2019-05-17T11:31:43.155Z</time>
      </trkpt>
      <trkpt lat="39.34830333" lon="-8.52815667">
        <ele>34.0</ele>
        <time>2019-05-17T11:31:44.166Z</time>
      </trkpt>
      <trkpt lat="39.34836667" lon="-8.52815167">
        <ele>34.0</ele>
        <time>2019-05-17T11:31:45.151Z</time>
      </trkpt>
      <trkpt lat="39.34836667" lon="-8.52815167">
        <ele>34.0</ele>
        <time>2019-05-17T11:31:46.158Z</time>
      </trkpt>
      <trkpt lat="39.34842667" lon="-8.52815333">
        <ele>34.0</ele>
        <time>2019-05-17T11:31:47.181Z</time>
      </trkpt>
      <trkpt lat="39.34842667" lon="-8.52815333">
        <ele>34.0</ele>
        <time>2019-05-17T11:31:48.162Z</time>
      </trkpt>
      <trkpt lat="39.34848333" lon="-8.52814833">
        <ele>34.0</ele>
        <time>2019-05-17T11:31:49.188Z</time>
      </trkpt>
      <trkpt lat="39.34848333" lon="-8.52814833">
        <ele>34.0</ele>
        <time>2019-05-17T11:31:50.167Z</time>
      </trkpt>
      <trkpt lat="39.34854" lon="-8.52814667">
        <ele>34.0</ele>
        <time>2019-05-17T11:31:51.195Z</time>
      </trkpt>
      <trkpt lat="39.34854" lon="-8.52814667">
        <ele>34.0</ele>
        <time>2019-05-17T11:31:52.161Z</time>
      </trkpt>
      <trkpt lat="39.34859667" lon="-8.52814333">
        <ele>34.0</ele>
        <time>2019-05-17T11:31:53.183Z</time>
      </trkpt>
      <trkpt lat="39.34859667" lon="-8.52814333">
        <ele>34.0</ele>
        <time>2019-05-17T11:31:54.163Z</time>
      </trkpt>
      <trkpt lat="39.34864167" lon="-8.52814833">
        <ele>33.0</ele>
        <time>2019-05-17T11:31:55.187Z</time>
      </trkpt>
      <trkpt lat="39.34864167" lon="-8.52814833">
        <ele>33.0</ele>
        <time>2019-05-17T11:31:56.152Z</time>
      </trkpt>
      <trkpt lat="39.348685" lon="-8.528145">
        <ele>32.0</ele>
        <time>2019-05-17T11:31:57.177Z</time>
      </trkpt>
      <trkpt lat="39.348685" lon="-8.528145">
        <ele>32.0</ele>
        <time>2019-05-17T11:31:58.182Z</time>
      </trkpt>
      <trkpt lat="39.348725" lon="-8.52814">
        <ele>32.0</ele>
        <time>2019-05-17T11:31:59.171Z</time>
      </trkpt>
      <trkpt lat="39.348725" lon="-8.52814">
        <ele>32.0</ele>
        <time>2019-05-17T11:32:00.153Z</time>
      </trkpt>
      <trkpt lat="39.34877" lon="-8.52814167">
        <ele>32.0</ele>
        <time>2019-05-17T11:32:01.175Z</time>
      </trkpt>
      <trkpt lat="39.34877" lon="-8.52814167">
        <ele>32.0</ele>
        <time>2019-05-17T11:32:02.181Z</time>
      </trkpt>
      <trkpt lat="39.348825" lon="-8.52814167">
        <ele>31.0</ele>
        <time>2019-05-17T11:32:03.172Z</time>
      </trkpt>
      <trkpt lat="39.348825" lon="-8.52814167">
        <ele>31.0</ele>
        <time>2019-05-17T11:32:04.182Z</time>
      </trkpt>
      <trkpt lat="39.34888167" lon="-8.52813667">
        <ele>31.0</ele>
        <time>2019-05-17T11:32:05.163Z</time>
      </trkpt>
      <trkpt lat="39.34888167" lon="-8.52813667">
        <ele>31.0</ele>
        <time>2019-05-17T11:32:06.168Z</time>
      </trkpt>
      <trkpt lat="39.34893833" lon="-8.52813">
        <ele>31.0</ele>
        <time>2019-05-17T11:32:07.160Z</time>
      </trkpt>
      <trkpt lat="39.34893833" lon="-8.52813">
        <ele>31.0</ele>
        <time>2019-05-17T11:32:08.167Z</time>
      </trkpt>
      <trkpt lat="39.349" lon="-8.52812833">
        <ele>31.0</ele>
        <time>2019-05-17T11:32:09.163Z</time>
      </trkpt>
      <trkpt lat="39.349" lon="-8.52812833">
        <ele>31.0</ele>
        <time>2019-05-17T11:32:10.183Z</time>
      </trkpt>
      <trkpt lat="39.34906167" lon="-8.528125">
        <ele>31.0</ele>
        <time>2019-05-17T11:32:11.160Z</time>
      </trkpt>
      <trkpt lat="39.34906167" lon="-8.528125">
        <ele>31.0</ele>
        <time>2019-05-17T11:32:12.178Z</time>
      </trkpt>
      <trkpt lat="39.34912" lon="-8.52812333">
        <ele>32.0</ele>
        <time>2019-05-17T11:32:13.158Z</time>
      </trkpt>
      <trkpt lat="39.34912" lon="-8.52812333">
        <ele>32.0</ele>
        <time>2019-05-17T11:32:14.163Z</time>
      </trkpt>
      <trkpt lat="39.34917833" lon="-8.52811833">
        <ele>31.0</ele>
        <time>2019-05-17T11:32:15.186Z</time>
      </trkpt>
      <trkpt lat="39.34920833" lon="-8.528115">
        <ele>32.0</ele>
        <time>2019-05-17T11:32:16.171Z</time>
      </trkpt>
      <trkpt lat="39.34923833" lon="-8.528115">
        <ele>32.0</ele>
        <time>2019-05-17T11:32:17.156Z</time>
      </trkpt>
      <trkpt lat="39.34923833" lon="-8.528115">
        <ele>32.0</ele>
        <time>2019-05-17T11:32:18.161Z</time>
      </trkpt>
      <trkpt lat="39.34929833" lon="-8.52811333">
        <ele>32.0</ele>
        <time>2019-05-17T11:32:19.179Z</time>
      </trkpt>
      <trkpt lat="39.34929833" lon="-8.52811333">
        <ele>32.0</ele>
        <time>2019-05-17T11:32:20.179Z</time>
      </trkpt>
      <trkpt lat="39.34935833" lon="-8.52811167">
        <ele>32.0</ele>
        <time>2019-05-17T11:32:21.158Z</time>
      </trkpt>
      <trkpt lat="39.34938667" lon="-8.52811">
        <ele>32.0</ele>
        <time>2019-05-17T11:32:22.172Z</time>
      </trkpt>
      <trkpt lat="39.34941167" lon="-8.528115">
        <ele>33.0</ele>
        <time>2019-05-17T11:32:23.186Z</time>
      </trkpt>
      <trkpt lat="39.34941167" lon="-8.528115">
        <ele>33.0</ele>
        <time>2019-05-17T11:32:24.168Z</time>
      </trkpt>
      <trkpt lat="39.34946" lon="-8.52812167">
        <ele>33.0</ele>
        <time>2019-05-17T11:32:25.187Z</time>
      </trkpt>
      <trkpt lat="39.34946" lon="-8.52812167">
        <ele>33.0</ele>
        <time>2019-05-17T11:32:26.153Z</time>
      </trkpt>
      <trkpt lat="39.34950333" lon="-8.52813">
        <ele>34.0</ele>
        <time>2019-05-17T11:32:27.175Z</time>
      </trkpt>
      <trkpt lat="39.34950333" lon="-8.52813">
        <ele>34.0</ele>
        <time>2019-05-17T11:32:28.168Z</time>
      </trkpt>
      <trkpt lat="39.34954167" lon="-8.52813333">
        <ele>34.0</ele>
        <time>2019-05-17T11:32:29.187Z</time>
      </trkpt>
      <trkpt lat="39.34954167" lon="-8.52813333">
        <ele>34.0</ele>
        <time>2019-05-17T11:32:30.152Z</time>
      </trkpt>
      <trkpt lat="39.34958333" lon="-8.52812333">
        <ele>34.0</ele>
        <time>2019-05-17T11:32:31.165Z</time>
      </trkpt>
      <trkpt lat="39.34958333" lon="-8.52812333">
        <ele>34.0</ele>
        <time>2019-05-17T11:32:32.176Z</time>
      </trkpt>
      <trkpt lat="39.34962833" lon="-8.528115">
        <ele>34.0</ele>
        <time>2019-05-17T11:32:33.158Z</time>
      </trkpt>
      <trkpt lat="39.34962833" lon="-8.528115">
        <ele>34.0</ele>
        <time>2019-05-17T11:32:34.181Z</time>
      </trkpt>
      <trkpt lat="39.34968" lon="-8.528115">
        <ele>34.0</ele>
        <time>2019-05-17T11:32:35.164Z</time>
      </trkpt>
      <trkpt lat="39.34968" lon="-8.528115">
        <ele>34.0</ele>
        <time>2019-05-17T11:32:36.171Z</time>
      </trkpt>
      <trkpt lat="39.349735" lon="-8.52811333">
        <ele>35.0</ele>
        <time>2019-05-17T11:32:37.162Z</time>
      </trkpt>
      <trkpt lat="39.349735" lon="-8.52811333">
        <ele>35.0</ele>
        <time>2019-05-17T11:32:38.167Z</time>
      </trkpt>
      <trkpt lat="39.34979167" lon="-8.52811167">
        <ele>35.0</ele>
        <time>2019-05-17T11:32:39.150Z</time>
      </trkpt>
      <trkpt lat="39.34979167" lon="-8.52811167">
        <ele>35.0</ele>
        <time>2019-05-17T11:32:40.157Z</time>
      </trkpt>
      <trkpt lat="39.34985333" lon="-8.52810667">
        <ele>35.0</ele>
        <time>2019-05-17T11:32:41.177Z</time>
      </trkpt>
      <trkpt lat="39.34985333" lon="-8.52810667">
        <ele>35.0</ele>
        <time>2019-05-17T11:32:42.183Z</time>
      </trkpt>
      <trkpt lat="39.34990833" lon="-8.528105">
        <ele>34.0</ele>
        <time>2019-05-17T11:32:43.160Z</time>
      </trkpt>
      <trkpt lat="39.34990833" lon="-8.528105">
        <ele>34.0</ele>
        <time>2019-05-17T11:32:44.176Z</time>
      </trkpt>
      <trkpt lat="39.34996667" lon="-8.5281">
        <ele>34.0</ele>
        <time>2019-05-17T11:32:45.154Z</time>
      </trkpt>
      <trkpt lat="39.34996667" lon="-8.5281">
        <ele>34.0</ele>
        <time>2019-05-17T11:32:46.162Z</time>
      </trkpt>
      <trkpt lat="39.35002333" lon="-8.52810333">
        <ele>34.0</ele>
        <time>2019-05-17T11:32:47.178Z</time>
      </trkpt>
      <trkpt lat="39.35002333" lon="-8.52810333">
        <ele>34.0</ele>
        <time>2019-05-17T11:32:48.188Z</time>
      </trkpt>
      <trkpt lat="39.35008667" lon="-8.52811167">
        <ele>33.0</ele>
        <time>2019-05-17T11:32:49.185Z</time>
      </trkpt>
      <trkpt lat="39.35008667" lon="-8.52811167">
        <ele>33.0</ele>
        <time>2019-05-17T11:32:50.190Z</time>
      </trkpt>
      <trkpt lat="39.35015333" lon="-8.52812333">
        <ele>32.0</ele>
        <time>2019-05-17T11:32:51.172Z</time>
      </trkpt>
      <trkpt lat="39.35018667" lon="-8.528125">
        <ele>32.0</ele>
        <time>2019-05-17T11:32:52.164Z</time>
      </trkpt>
      <trkpt lat="39.35021833" lon="-8.52813">
        <ele>32.0</ele>
        <time>2019-05-17T11:32:53.185Z</time>
      </trkpt>
      <trkpt lat="39.35021833" lon="-8.52813">
        <ele>32.0</ele>
        <time>2019-05-17T11:32:54.164Z</time>
      </trkpt>
      <trkpt lat="39.35028333" lon="-8.52813667">
        <ele>31.0</ele>
        <time>2019-05-17T11:32:55.179Z</time>
      </trkpt>
      <trkpt lat="39.35028333" lon="-8.52813667">
        <ele>31.0</ele>
        <time>2019-05-17T11:32:56.150Z</time>
      </trkpt>
      <trkpt lat="39.350345" lon="-8.528145">
        <ele>31.0</ele>
        <time>2019-05-17T11:32:57.172Z</time>
      </trkpt>
      <trkpt lat="39.350345" lon="-8.528145">
        <ele>31.0</ele>
        <time>2019-05-17T11:32:58.180Z</time>
      </trkpt>
      <trkpt lat="39.35040833" lon="-8.52815167">
        <ele>30.0</ele>
        <time>2019-05-17T11:32:59.172Z</time>
      </trkpt>
      <trkpt lat="39.35040833" lon="-8.52815167">
        <ele>30.0</ele>
        <time>2019-05-17T11:33:00.179Z</time>
      </trkpt>
      <trkpt lat="39.35046333" lon="-8.52816667">
        <ele>30.0</ele>
        <time>2019-05-17T11:33:01.158Z</time>
      </trkpt>
      <trkpt lat="39.35046333" lon="-8.52816667">
        <ele>30.0</ele>
        <time>2019-05-17T11:33:02.166Z</time>
      </trkpt>
      <trkpt lat="39.35051667" lon="-8.528185">
        <ele>30.0</ele>
        <time>2019-05-17T11:33:03.188Z</time>
      </trkpt>
      <trkpt lat="39.35051667" lon="-8.528185">
        <ele>30.0</ele>
        <time>2019-05-17T11:33:04.155Z</time>
      </trkpt>
      <trkpt lat="39.35056667" lon="-8.52819667">
        <ele>30.0</ele>
        <time>2019-05-17T11:33:05.181Z</time>
      </trkpt>
      <trkpt lat="39.35059167" lon="-8.52820333">
        <ele>30.0</ele>
        <time>2019-05-17T11:33:06.163Z</time>
      </trkpt>
      <trkpt lat="39.35059167" lon="-8.52820333">
        <ele>30.0</ele>
        <time>2019-05-17T11:33:07.169Z</time>
      </trkpt>
      <trkpt lat="39.350645" lon="-8.52821667">
        <ele>30.0</ele>
        <time>2019-05-17T11:33:08.189Z</time>
      </trkpt>
      <trkpt lat="39.350645" lon="-8.52821667">
        <ele>30.0</ele>
        <time>2019-05-17T11:33:09.153Z</time>
      </trkpt>
      <trkpt lat="39.3507" lon="-8.528235">
        <ele>30.0</ele>
        <time>2019-05-17T11:33:10.182Z</time>
      </trkpt>
      <trkpt lat="39.35072833" lon="-8.528245">
        <ele>30.0</ele>
        <time>2019-05-17T11:33:11.159Z</time>
      </trkpt>
      <trkpt lat="39.35072833" lon="-8.528245">
        <ele>30.0</ele>
        <time>2019-05-17T11:33:12.176Z</time>
      </trkpt>
      <trkpt lat="39.35078333" lon="-8.528255">
        <ele>29.0</ele>
        <time>2019-05-17T11:33:13.163Z</time>
      </trkpt>
      <trkpt lat="39.35078333" lon="-8.528255">
        <ele>29.0</ele>
        <time>2019-05-17T11:33:14.179Z</time>
      </trkpt>
      <trkpt lat="39.350835" lon="-8.528265">
        <ele>29.0</ele>
        <time>2019-05-17T11:33:15.199Z</time>
      </trkpt>
      <trkpt lat="39.350835" lon="-8.528265">
        <ele>29.0</ele>
        <time>2019-05-17T11:33:16.184Z</time>
      </trkpt>
      <trkpt lat="39.35089333" lon="-8.528275">
        <ele>28.0</ele>
        <time>2019-05-17T11:33:17.166Z</time>
      </trkpt>
      <trkpt lat="39.35089333" lon="-8.528275">
        <ele>28.0</ele>
        <time>2019-05-17T11:33:18.179Z</time>
      </trkpt>
      <trkpt lat="39.35095167" lon="-8.52828833">
        <ele>29.0</ele>
        <time>2019-05-17T11:33:19.158Z</time>
      </trkpt>
      <trkpt lat="39.35095167" lon="-8.52828833">
        <ele>29.0</ele>
        <time>2019-05-17T11:33:20.180Z</time>
      </trkpt>
      <trkpt lat="39.35101667" lon="-8.528315">
        <ele>28.0</ele>
        <time>2019-05-17T11:33:21.157Z</time>
      </trkpt>
      <trkpt lat="39.35101667" lon="-8.528315">
        <ele>28.0</ele>
        <time>2019-05-17T11:33:22.176Z</time>
      </trkpt>
      <trkpt lat="39.35108" lon="-8.528335">
        <ele>28.0</ele>
        <time>2019-05-17T11:33:23.157Z</time>
      </trkpt>
      <trkpt lat="39.35108" lon="-8.528335">
        <ele>28.0</ele>
        <time>2019-05-17T11:33:24.190Z</time>
      </trkpt>
      <trkpt lat="39.35113667" lon="-8.52834667">
        <ele>28.0</ele>
        <time>2019-05-17T11:33:25.164Z</time>
      </trkpt>
      <trkpt lat="39.35113667" lon="-8.52834667">
        <ele>28.0</ele>
        <time>2019-05-17T11:33:26.173Z</time>
      </trkpt>
      <trkpt lat="39.35119667" lon="-8.52836833">
        <ele>29.0</ele>
        <time>2019-05-17T11:33:27.157Z</time>
      </trkpt>
      <trkpt lat="39.35119667" lon="-8.52836833">
        <ele>29.0</ele>
        <time>2019-05-17T11:33:28.162Z</time>
      </trkpt>
      <trkpt lat="39.351255" lon="-8.52839">
        <ele>29.0</ele>
        <time>2019-05-17T11:33:29.184Z</time>
      </trkpt>
      <trkpt lat="39.351255" lon="-8.52839">
        <ele>29.0</ele>
        <time>2019-05-17T11:33:30.159Z</time>
      </trkpt>
      <trkpt lat="39.35131167" lon="-8.52840667">
        <ele>29.0</ele>
        <time>2019-05-17T11:33:31.180Z</time>
      </trkpt>
      <trkpt lat="39.35133667" lon="-8.52841167">
        <ele>29.0</ele>
        <time>2019-05-17T11:33:32.169Z</time>
      </trkpt>
      <trkpt lat="39.35136667" lon="-8.52842">
        <ele>29.0</ele>
        <time>2019-05-17T11:33:33.154Z</time>
      </trkpt>
      <trkpt lat="39.35136667" lon="-8.52842">
        <ele>29.0</ele>
        <time>2019-05-17T11:33:34.159Z</time>
      </trkpt>
      <trkpt lat="39.351425" lon="-8.52843167">
        <ele>29.0</ele>
        <time>2019-05-17T11:33:35.177Z</time>
      </trkpt>
      <trkpt lat="39.351425" lon="-8.52843167">
        <ele>29.0</ele>
        <time>2019-05-17T11:33:36.163Z</time>
      </trkpt>
      <trkpt lat="39.35147833" lon="-8.52844333">
        <ele>29.0</ele>
        <time>2019-05-17T11:33:37.184Z</time>
      </trkpt>
      <trkpt lat="39.35147833" lon="-8.52844333">
        <ele>29.0</ele>
        <time>2019-05-17T11:33:38.156Z</time>
      </trkpt>
      <trkpt lat="39.351535" lon="-8.52846833">
        <ele>28.0</ele>
        <time>2019-05-17T11:33:39.170Z</time>
      </trkpt>
      <trkpt lat="39.351535" lon="-8.52846833">
        <ele>28.0</ele>
        <time>2019-05-17T11:33:40.176Z</time>
      </trkpt>
      <trkpt lat="39.35158833" lon="-8.52849">
        <ele>28.0</ele>
        <time>2019-05-17T11:33:41.157Z</time>
      </trkpt>
      <trkpt lat="39.35158833" lon="-8.52849">
        <ele>28.0</ele>
        <time>2019-05-17T11:33:42.163Z</time>
      </trkpt>
      <trkpt lat="39.351655" lon="-8.5285">
        <ele>28.0</ele>
        <time>2019-05-17T11:33:43.186Z</time>
      </trkpt>
      <trkpt lat="39.351655" lon="-8.5285">
        <ele>28.0</ele>
        <time>2019-05-17T11:33:44.176Z</time>
      </trkpt>
      <trkpt lat="39.35171833" lon="-8.52850833">
        <ele>29.0</ele>
        <time>2019-05-17T11:33:45.164Z</time>
      </trkpt>
      <trkpt lat="39.35171833" lon="-8.52850833">
        <ele>29.0</ele>
        <time>2019-05-17T11:33:46.172Z</time>
      </trkpt>
      <trkpt lat="39.35178333" lon="-8.52851833">
        <ele>29.0</ele>
        <time>2019-05-17T11:33:47.154Z</time>
      </trkpt>
      <trkpt lat="39.35178333" lon="-8.52851833">
        <ele>29.0</ele>
        <time>2019-05-17T11:33:48.159Z</time>
      </trkpt>
      <trkpt lat="39.35184333" lon="-8.528525">
        <ele>29.0</ele>
        <time>2019-05-17T11:33:49.184Z</time>
      </trkpt>
      <trkpt lat="39.35184333" lon="-8.528525">
        <ele>29.0</ele>
        <time>2019-05-17T11:33:50.153Z</time>
      </trkpt>
      <trkpt lat="39.351905" lon="-8.52853667">
        <ele>29.0</ele>
        <time>2019-05-17T11:33:51.166Z</time>
      </trkpt>
      <trkpt lat="39.351905" lon="-8.52853667">
        <ele>29.0</ele>
        <time>2019-05-17T11:33:52.172Z</time>
      </trkpt>
      <trkpt lat="39.35197167" lon="-8.528545">
        <ele>29.0</ele>
        <time>2019-05-17T11:33:53.153Z</time>
      </trkpt>
      <trkpt lat="39.35197167" lon="-8.528545">
        <ele>29.0</ele>
        <time>2019-05-17T11:33:54.162Z</time>
      </trkpt>
      <trkpt lat="39.35204" lon="-8.52854833">
        <ele>29.0</ele>
        <time>2019-05-17T11:33:55.178Z</time>
      </trkpt>
      <trkpt lat="39.35204" lon="-8.52854833">
        <ele>29.0</ele>
        <time>2019-05-17T11:33:56.184Z</time>
      </trkpt>
      <trkpt lat="39.35211167" lon="-8.528545">
        <ele>29.0</ele>
        <time>2019-05-17T11:33:57.168Z</time>
      </trkpt>
      <trkpt lat="39.35211167" lon="-8.528545">
        <ele>29.0</ele>
        <time>2019-05-17T11:33:58.178Z</time>
      </trkpt>
      <trkpt lat="39.35218167" lon="-8.52854">
        <ele>29.0</ele>
        <time>2019-05-17T11:33:59.160Z</time>
      </trkpt>
      <trkpt lat="39.35218167" lon="-8.52854">
        <ele>29.0</ele>
        <time>2019-05-17T11:34:00.165Z</time>
      </trkpt>
      <trkpt lat="39.35224833" lon="-8.52854">
        <ele>29.0</ele>
        <time>2019-05-17T11:34:01.167Z</time>
      </trkpt>
      <trkpt lat="39.35224833" lon="-8.52854">
        <ele>29.0</ele>
        <time>2019-05-17T11:34:02.151Z</time>
      </trkpt>
      <trkpt lat="39.35231167" lon="-8.528535">
        <ele>29.0</ele>
        <time>2019-05-17T11:34:03.172Z</time>
      </trkpt>
      <trkpt lat="39.35231167" lon="-8.528535">
        <ele>29.0</ele>
        <time>2019-05-17T11:34:04.178Z</time>
      </trkpt>
      <trkpt lat="39.35237167" lon="-8.52852333">
        <ele>29.0</ele>
        <time>2019-05-17T11:34:05.155Z</time>
      </trkpt>
      <trkpt lat="39.35237167" lon="-8.52852333">
        <ele>29.0</ele>
        <time>2019-05-17T11:34:06.162Z</time>
      </trkpt>
      <trkpt lat="39.35243" lon="-8.52851667">
        <ele>29.0</ele>
        <time>2019-05-17T11:34:07.188Z</time>
      </trkpt>
      <trkpt lat="39.35243" lon="-8.52851667">
        <ele>29.0</ele>
        <time>2019-05-17T11:34:08.161Z</time>
      </trkpt>
      <trkpt lat="39.35249" lon="-8.52851333">
        <ele>29.0</ele>
        <time>2019-05-17T11:34:09.150Z</time>
      </trkpt>
      <trkpt lat="39.35252167" lon="-8.52850667">
        <ele>28.0</ele>
        <time>2019-05-17T11:34:10.155Z</time>
      </trkpt>
      <trkpt lat="39.35255333" lon="-8.52850167">
        <ele>28.0</ele>
        <time>2019-05-17T11:34:11.150Z</time>
      </trkpt>
      <trkpt lat="39.35255333" lon="-8.52850167">
        <ele>28.0</ele>
        <time>2019-05-17T11:34:12.155Z</time>
      </trkpt>
      <trkpt lat="39.35262" lon="-8.52849">
        <ele>28.0</ele>
        <time>2019-05-17T11:34:13.175Z</time>
      </trkpt>
      <trkpt lat="39.35262" lon="-8.52849">
        <ele>28.0</ele>
        <time>2019-05-17T11:34:14.152Z</time>
      </trkpt>
      <trkpt lat="39.352685" lon="-8.52847833">
        <ele>27.0</ele>
        <time>2019-05-17T11:34:15.166Z</time>
      </trkpt>
      <trkpt lat="39.352685" lon="-8.52847833">
        <ele>27.0</ele>
        <time>2019-05-17T11:34:16.176Z</time>
      </trkpt>
      <trkpt lat="39.35275167" lon="-8.52847167">
        <ele>28.0</ele>
        <time>2019-05-17T11:34:17.161Z</time>
      </trkpt>
      <trkpt lat="39.35275167" lon="-8.52847167">
        <ele>28.0</ele>
        <time>2019-05-17T11:34:18.168Z</time>
      </trkpt>
      <trkpt lat="39.352815" lon="-8.528465">
        <ele>27.0</ele>
        <time>2019-05-17T11:34:19.150Z</time>
      </trkpt>
      <trkpt lat="39.352815" lon="-8.528465">
        <ele>27.0</ele>
        <time>2019-05-17T11:34:20.155Z</time>
      </trkpt>
      <trkpt lat="39.352875" lon="-8.52845">
        <ele>27.0</ele>
        <time>2019-05-17T11:34:21.179Z</time>
      </trkpt>
      <trkpt lat="39.352875" lon="-8.52845">
        <ele>27.0</ele>
        <time>2019-05-17T11:34:22.185Z</time>
      </trkpt>
      <trkpt lat="39.35292833" lon="-8.52843">
        <ele>27.0</ele>
        <time>2019-05-17T11:34:23.161Z</time>
      </trkpt>
      <trkpt lat="39.35292833" lon="-8.52843">
        <ele>27.0</ele>
        <time>2019-05-17T11:34:24.176Z</time>
      </trkpt>
      <trkpt lat="39.35297167" lon="-8.52840167">
        <ele>27.0</ele>
        <time>2019-05-17T11:34:25.189Z</time>
      </trkpt>
      <trkpt lat="39.35297167" lon="-8.52840167">
        <ele>27.0</ele>
        <time>2019-05-17T11:34:26.165Z</time>
      </trkpt>
      <trkpt lat="39.353005" lon="-8.52836167">
        <ele>27.0</ele>
        <time>2019-05-17T11:34:27.150Z</time>
      </trkpt>
      <trkpt lat="39.353005" lon="-8.52836167">
        <ele>27.0</ele>
        <time>2019-05-17T11:34:28.159Z</time>
      </trkpt>
      <trkpt lat="39.35304667" lon="-8.52833">
        <ele>27.0</ele>
        <time>2019-05-17T11:34:29.183Z</time>
      </trkpt>
      <trkpt lat="39.35304667" lon="-8.52833">
        <ele>27.0</ele>
        <time>2019-05-17T11:34:30.157Z</time>
      </trkpt>
      <trkpt lat="39.35309167" lon="-8.52830667">
        <ele>26.0</ele>
        <time>2019-05-17T11:34:31.175Z</time>
      </trkpt>
      <trkpt lat="39.35309167" lon="-8.52830667">
        <ele>26.0</ele>
        <time>2019-05-17T11:34:32.154Z</time>
      </trkpt>
      <trkpt lat="39.35314167" lon="-8.52828833">
        <ele>26.0</ele>
        <time>2019-05-17T11:34:33.173Z</time>
      </trkpt>
      <trkpt lat="39.35317" lon="-8.52828833">
        <ele>26.0</ele>
        <time>2019-05-17T11:34:34.179Z</time>
      </trkpt>
      <trkpt lat="39.353195" lon="-8.52829167">
        <ele>26.0</ele>
        <time>2019-05-17T11:34:35.174Z</time>
      </trkpt>
      <trkpt lat="39.353195" lon="-8.52829167">
        <ele>26.0</ele>
        <time>2019-05-17T11:34:36.169Z</time>
      </trkpt>
      <trkpt lat="39.35324833" lon="-8.52830833">
        <ele>25.0</ele>
        <time>2019-05-17T11:34:37.191Z</time>
      </trkpt>
      <trkpt lat="39.35324833" lon="-8.52830833">
        <ele>25.0</ele>
        <time>2019-05-17T11:34:38.178Z</time>
      </trkpt>
      <trkpt lat="39.35330333" lon="-8.52833167">
        <ele>25.0</ele>
        <time>2019-05-17T11:34:39.154Z</time>
      </trkpt>
      <trkpt lat="39.35333333" lon="-8.52834167">
        <ele>25.0</ele>
        <time>2019-05-17T11:34:40.178Z</time>
      </trkpt>
      <trkpt lat="39.35336167" lon="-8.52835">
        <ele>25.0</ele>
        <time>2019-05-17T11:34:41.156Z</time>
      </trkpt>
      <trkpt lat="39.35336167" lon="-8.52835">
        <ele>25.0</ele>
        <time>2019-05-17T11:34:42.161Z</time>
      </trkpt>
      <trkpt lat="39.353415" lon="-8.52835333">
        <ele>25.0</ele>
        <time>2019-05-17T11:34:43.188Z</time>
      </trkpt>
      <trkpt lat="39.353415" lon="-8.52835333">
        <ele>25.0</ele>
        <time>2019-05-17T11:34:44.163Z</time>
      </trkpt>
      <trkpt lat="39.35346833" lon="-8.52835">
        <ele>24.0</ele>
        <time>2019-05-17T11:34:45.186Z</time>
      </trkpt>
      <trkpt lat="39.35346833" lon="-8.52835">
        <ele>24.0</ele>
        <time>2019-05-17T11:34:46.169Z</time>
      </trkpt>
      <trkpt lat="39.35352833" lon="-8.52833667">
        <ele>24.0</ele>
        <time>2019-05-17T11:34:47.167Z</time>
      </trkpt>
      <trkpt lat="39.35352833" lon="-8.52833667">
        <ele>24.0</ele>
        <time>2019-05-17T11:34:48.176Z</time>
      </trkpt>
      <trkpt lat="39.35358833" lon="-8.52832333">
        <ele>24.0</ele>
        <time>2019-05-17T11:34:49.164Z</time>
      </trkpt>
      <trkpt lat="39.35358833" lon="-8.52832333">
        <ele>24.0</ele>
        <time>2019-05-17T11:34:50.179Z</time>
      </trkpt>
      <trkpt lat="39.35365" lon="-8.52831333">
        <ele>24.0</ele>
        <time>2019-05-17T11:34:51.158Z</time>
      </trkpt>
      <trkpt lat="39.35365" lon="-8.52831333">
        <ele>24.0</ele>
        <time>2019-05-17T11:34:52.164Z</time>
      </trkpt>
      <trkpt lat="39.35371833" lon="-8.52830167">
        <ele>24.0</ele>
        <time>2019-05-17T11:34:53.184Z</time>
      </trkpt>
      <trkpt lat="39.35371833" lon="-8.52830167">
        <ele>24.0</ele>
        <time>2019-05-17T11:34:54.150Z</time>
      </trkpt>
      <trkpt lat="39.35379" lon="-8.52829167">
        <ele>24.0</ele>
        <time>2019-05-17T11:34:55.169Z</time>
      </trkpt>
      <trkpt lat="39.35379" lon="-8.52829167">
        <ele>24.0</ele>
        <time>2019-05-17T11:34:56.150Z</time>
      </trkpt>
      <trkpt lat="39.35386167" lon="-8.52827833">
        <ele>23.0</ele>
        <time>2019-05-17T11:34:57.165Z</time>
      </trkpt>
      <trkpt lat="39.35386167" lon="-8.52827833">
        <ele>23.0</ele>
        <time>2019-05-17T11:34:58.174Z</time>
      </trkpt>
      <trkpt lat="39.35393333" lon="-8.52826833">
        <ele>23.0</ele>
        <time>2019-05-17T11:34:59.175Z</time>
      </trkpt>
      <trkpt lat="39.35393333" lon="-8.52826833">
        <ele>23.0</ele>
        <time>2019-05-17T11:35:00.189Z</time>
      </trkpt>
      <trkpt lat="39.354005" lon="-8.52825667">
        <ele>23.0</ele>
        <time>2019-05-17T11:35:01.177Z</time>
      </trkpt>
      <trkpt lat="39.354005" lon="-8.52825667">
        <ele>23.0</ele>
        <time>2019-05-17T11:35:02.185Z</time>
      </trkpt>
      <trkpt lat="39.35408" lon="-8.52824167">
        <ele>23.0</ele>
        <time>2019-05-17T11:35:03.162Z</time>
      </trkpt>
      <trkpt lat="39.35408" lon="-8.52824167">
        <ele>23.0</ele>
        <time>2019-05-17T11:35:04.181Z</time>
      </trkpt>
      <trkpt lat="39.354155" lon="-8.52823333">
        <ele>23.0</ele>
        <time>2019-05-17T11:35:05.170Z</time>
      </trkpt>
      <trkpt lat="39.354155" lon="-8.52823333">
        <ele>23.0</ele>
        <time>2019-05-17T11:35:06.150Z</time>
      </trkpt>
      <trkpt lat="39.35423" lon="-8.52822">
        <ele>22.0</ele>
        <time>2019-05-17T11:35:07.180Z</time>
      </trkpt>
      <trkpt lat="39.35423" lon="-8.52822">
        <ele>22.0</ele>
        <time>2019-05-17T11:35:08.189Z</time>
      </trkpt>
      <trkpt lat="39.35430167" lon="-8.52820667">
        <ele>22.0</ele>
        <time>2019-05-17T11:35:09.156Z</time>
      </trkpt>
      <trkpt lat="39.35430167" lon="-8.52820667">
        <ele>22.0</ele>
        <time>2019-05-17T11:35:10.168Z</time>
      </trkpt>
      <trkpt lat="39.35437167" lon="-8.52819333">
        <ele>22.0</ele>
        <time>2019-05-17T11:35:11.164Z</time>
      </trkpt>
      <trkpt lat="39.35437167" lon="-8.52819333">
        <ele>22.0</ele>
        <time>2019-05-17T11:35:12.186Z</time>
      </trkpt>
      <trkpt lat="39.35443333" lon="-8.528185">
        <ele>22.0</ele>
        <time>2019-05-17T11:35:13.170Z</time>
      </trkpt>
      <trkpt lat="39.35443333" lon="-8.528185">
        <ele>22.0</ele>
        <time>2019-05-17T11:35:14.184Z</time>
      </trkpt>
      <trkpt lat="39.35449833" lon="-8.52817167">
        <ele>22.0</ele>
        <time>2019-05-17T11:35:15.177Z</time>
      </trkpt>
      <trkpt lat="39.35452833" lon="-8.52816333">
        <ele>22.0</ele>
        <time>2019-05-17T11:35:16.175Z</time>
      </trkpt>
      <trkpt lat="39.35455833" lon="-8.52815667">
        <ele>22.0</ele>
        <time>2019-05-17T11:35:17.159Z</time>
      </trkpt>
      <trkpt lat="39.35455833" lon="-8.52815667">
        <ele>22.0</ele>
        <time>2019-05-17T11:35:18.157Z</time>
      </trkpt>
      <trkpt lat="39.354625" lon="-8.52814333">
        <ele>21.0</ele>
        <time>2019-05-17T11:35:19.184Z</time>
      </trkpt>
      <trkpt lat="39.354625" lon="-8.52814333">
        <ele>21.0</ele>
        <time>2019-05-17T11:35:20.180Z</time>
      </trkpt>
      <trkpt lat="39.35468667" lon="-8.52812667">
        <ele>21.0</ele>
        <time>2019-05-17T11:35:21.161Z</time>
      </trkpt>
      <trkpt lat="39.35471833" lon="-8.52811667">
        <ele>21.0</ele>
        <time>2019-05-17T11:35:22.150Z</time>
      </trkpt>
      <trkpt lat="39.35475" lon="-8.528105">
        <ele>21.0</ele>
        <time>2019-05-17T11:35:23.167Z</time>
      </trkpt>
      <trkpt lat="39.35475" lon="-8.528105">
        <ele>21.0</ele>
        <time>2019-05-17T11:35:24.153Z</time>
      </trkpt>
      <trkpt lat="39.35481333" lon="-8.52808">
        <ele>21.0</ele>
        <time>2019-05-17T11:35:25.177Z</time>
      </trkpt>
      <trkpt lat="39.35481333" lon="-8.52808">
        <ele>21.0</ele>
        <time>2019-05-17T11:35:26.183Z</time>
      </trkpt>
      <trkpt lat="39.35486833" lon="-8.52806">
        <ele>21.0</ele>
        <time>2019-05-17T11:35:27.165Z</time>
      </trkpt>
      <trkpt lat="39.35489833" lon="-8.52804833">
        <ele>20.0</ele>
        <time>2019-05-17T11:35:28.162Z</time>
      </trkpt>
      <trkpt lat="39.35493" lon="-8.528035">
        <ele>20.0</ele>
        <time>2019-05-17T11:35:29.179Z</time>
      </trkpt>
      <trkpt lat="39.35493" lon="-8.528035">
        <ele>20.0</ele>
        <time>2019-05-17T11:35:30.158Z</time>
      </trkpt>
      <trkpt lat="39.35499167" lon="-8.52800667">
        <ele>20.0</ele>
        <time>2019-05-17T11:35:31.183Z</time>
      </trkpt>
      <trkpt lat="39.35499167" lon="-8.52800667">
        <ele>20.0</ele>
        <time>2019-05-17T11:35:32.184Z</time>
      </trkpt>
      <trkpt lat="39.35505" lon="-8.52798333">
        <ele>20.0</ele>
        <time>2019-05-17T11:35:33.168Z</time>
      </trkpt>
      <trkpt lat="39.35505" lon="-8.52798333">
        <ele>20.0</ele>
        <time>2019-05-17T11:35:34.183Z</time>
      </trkpt>
      <trkpt lat="39.35511167" lon="-8.52796667">
        <ele>20.0</ele>
        <time>2019-05-17T11:35:35.158Z</time>
      </trkpt>
      <trkpt lat="39.35511167" lon="-8.52796667">
        <ele>20.0</ele>
        <time>2019-05-17T11:35:36.183Z</time>
      </trkpt>
      <trkpt lat="39.35517" lon="-8.527945">
        <ele>20.0</ele>
        <time>2019-05-17T11:35:37.157Z</time>
      </trkpt>
      <trkpt lat="39.35517" lon="-8.527945">
        <ele>20.0</ele>
        <time>2019-05-17T11:35:38.162Z</time>
      </trkpt>
      <trkpt lat="39.35521833" lon="-8.52791833">
        <ele>20.0</ele>
        <time>2019-05-17T11:35:39.190Z</time>
      </trkpt>
      <trkpt lat="39.35521833" lon="-8.52791833">
        <ele>20.0</ele>
        <time>2019-05-17T11:35:40.186Z</time>
      </trkpt>
      <trkpt lat="39.35527333" lon="-8.527895">
        <ele>20.0</ele>
        <time>2019-05-17T11:35:41.166Z</time>
      </trkpt>
      <trkpt lat="39.35527333" lon="-8.527895">
        <ele>20.0</ele>
        <time>2019-05-17T11:35:42.180Z</time>
      </trkpt>
      <trkpt lat="39.355335" lon="-8.52787167">
        <ele>20.0</ele>
        <time>2019-05-17T11:35:43.168Z</time>
      </trkpt>
      <trkpt lat="39.355335" lon="-8.52787167">
        <ele>20.0</ele>
        <time>2019-05-17T11:35:44.177Z</time>
      </trkpt>
      <trkpt lat="39.355395" lon="-8.52785333">
        <ele>20.0</ele>
        <time>2019-05-17T11:35:45.163Z</time>
      </trkpt>
      <trkpt lat="39.355395" lon="-8.52785333">
        <ele>20.0</ele>
        <time>2019-05-17T11:35:46.185Z</time>
      </trkpt>
      <trkpt lat="39.35545" lon="-8.52782667">
        <ele>19.0</ele>
        <time>2019-05-17T11:35:47.161Z</time>
      </trkpt>
      <trkpt lat="39.35545" lon="-8.52782667">
        <ele>19.0</ele>
        <time>2019-05-17T11:35:48.168Z</time>
      </trkpt>
      <trkpt lat="39.35551333" lon="-8.52780167">
        <ele>19.0</ele>
        <time>2019-05-17T11:35:49.182Z</time>
      </trkpt>
      <trkpt lat="39.35551333" lon="-8.52780167">
        <ele>19.0</ele>
        <time>2019-05-17T11:35:50.152Z</time>
      </trkpt>
      <trkpt lat="39.35557833" lon="-8.52777167">
        <ele>19.0</ele>
        <time>2019-05-17T11:35:51.170Z</time>
      </trkpt>
      <trkpt lat="39.35561167" lon="-8.52775833">
        <ele>19.0</ele>
        <time>2019-05-17T11:35:52.188Z</time>
      </trkpt>
      <trkpt lat="39.355645" lon="-8.52774667">
        <ele>19.0</ele>
        <time>2019-05-17T11:35:53.182Z</time>
      </trkpt>
      <trkpt lat="39.355645" lon="-8.52774667">
        <ele>19.0</ele>
        <time>2019-05-17T11:35:54.155Z</time>
      </trkpt>
      <trkpt lat="39.355715" lon="-8.52772167">
        <ele>19.0</ele>
        <time>2019-05-17T11:35:55.183Z</time>
      </trkpt>
      <trkpt lat="39.355715" lon="-8.52772167">
        <ele>19.0</ele>
        <time>2019-05-17T11:35:56.169Z</time>
      </trkpt>
      <trkpt lat="39.35578333" lon="-8.52769167">
        <ele>19.0</ele>
        <time>2019-05-17T11:35:57.189Z</time>
      </trkpt>
      <trkpt lat="39.35581333" lon="-8.527675">
        <ele>19.0</ele>
        <time>2019-05-17T11:35:58.189Z</time>
      </trkpt>
      <trkpt lat="39.355845" lon="-8.52765833">
        <ele>19.0</ele>
        <time>2019-05-17T11:35:59.155Z</time>
      </trkpt>
      <trkpt lat="39.355845" lon="-8.52765833">
        <ele>19.0</ele>
        <time>2019-05-17T11:36:00.178Z</time>
      </trkpt>
      <trkpt lat="39.35590667" lon="-8.527625">
        <ele>19.0</ele>
        <time>2019-05-17T11:36:01.162Z</time>
      </trkpt>
      <trkpt lat="39.35593833" lon="-8.52760833">
        <ele>19.0</ele>
        <time>2019-05-17T11:36:02.152Z</time>
      </trkpt>
      <trkpt lat="39.35593833" lon="-8.52760833">
        <ele>19.0</ele>
        <time>2019-05-17T11:36:03.161Z</time>
      </trkpt>
      <trkpt lat="39.356005" lon="-8.52758833">
        <ele>19.0</ele>
        <time>2019-05-17T11:36:04.183Z</time>
      </trkpt>
      <trkpt lat="39.35603667" lon="-8.527575">
        <ele>19.0</ele>
        <time>2019-05-17T11:36:05.160Z</time>
      </trkpt>
      <trkpt lat="39.35603667" lon="-8.527575">
        <ele>19.0</ele>
        <time>2019-05-17T11:36:06.165Z</time>
      </trkpt>
      <trkpt lat="39.35609833" lon="-8.52755">
        <ele>19.0</ele>
        <time>2019-05-17T11:36:07.184Z</time>
      </trkpt>
      <trkpt lat="39.356125" lon="-8.52753833">
        <ele>19.0</ele>
        <time>2019-05-17T11:36:08.171Z</time>
      </trkpt>
      <trkpt lat="39.356125" lon="-8.52753833">
        <ele>19.0</ele>
        <time>2019-05-17T11:36:09.187Z</time>
      </trkpt>
      <trkpt lat="39.35617833" lon="-8.52752">
        <ele>19.0</ele>
        <time>2019-05-17T11:36:10.178Z</time>
      </trkpt>
      <trkpt lat="39.35620167" lon="-8.52751">
        <ele>19.0</ele>
        <time>2019-05-17T11:36:11.158Z</time>
      </trkpt>
      <trkpt lat="39.35620167" lon="-8.52751">
        <ele>19.0</ele>
        <time>2019-05-17T11:36:12.163Z</time>
      </trkpt>
      <trkpt lat="39.35624833" lon="-8.527495">
        <ele>19.0</ele>
        <time>2019-05-17T11:36:13.150Z</time>
      </trkpt>
      <trkpt lat="39.35627167" lon="-8.52748667">
        <ele>19.0</ele>
        <time>2019-05-17T11:36:14.171Z</time>
      </trkpt>
      <trkpt lat="39.35627167" lon="-8.52748667">
        <ele>19.0</ele>
        <time>2019-05-17T11:36:15.177Z</time>
      </trkpt>
      <trkpt lat="39.35631833" lon="-8.52746667">
        <ele>19.0</ele>
        <time>2019-05-17T11:36:16.156Z</time>
      </trkpt>
      <trkpt lat="39.35631833" lon="-8.52746667">
        <ele>19.0</ele>
        <time>2019-05-17T11:36:17.162Z</time>
      </trkpt>
      <trkpt lat="39.35637" lon="-8.52744667">
        <ele>19.0</ele>
        <time>2019-05-17T11:36:18.180Z</time>
      </trkpt>
      <trkpt lat="39.35637" lon="-8.52744667">
        <ele>19.0</ele>
        <time>2019-05-17T11:36:19.186Z</time>
      </trkpt>
      <trkpt lat="39.35642333" lon="-8.52742667">
        <ele>19.0</ele>
        <time>2019-05-17T11:36:20.169Z</time>
      </trkpt>
      <trkpt lat="39.35642333" lon="-8.52742667">
        <ele>19.0</ele>
        <time>2019-05-17T11:36:21.177Z</time>
      </trkpt>
      <trkpt lat="39.356475" lon="-8.52740333">
        <ele>19.0</ele>
        <time>2019-05-17T11:36:22.154Z</time>
      </trkpt>
      <trkpt lat="39.3565" lon="-8.52739333">
        <ele>19.0</ele>
        <time>2019-05-17T11:36:23.155Z</time>
      </trkpt>
      <trkpt lat="39.3565" lon="-8.52739333">
        <ele>19.0</ele>
        <time>2019-05-17T11:36:24.180Z</time>
      </trkpt>
      <trkpt lat="39.35655" lon="-8.52737167">
        <ele>19.0</ele>
        <time>2019-05-17T11:36:25.157Z</time>
      </trkpt>
      <trkpt lat="39.35655" lon="-8.52737167">
        <ele>19.0</ele>
        <time>2019-05-17T11:36:26.165Z</time>
      </trkpt>
      <trkpt lat="39.35660167" lon="-8.52735167">
        <ele>19.0</ele>
        <time>2019-05-17T11:36:27.161Z</time>
      </trkpt>
      <trkpt lat="39.35660167" lon="-8.52735167">
        <ele>19.0</ele>
        <time>2019-05-17T11:36:28.172Z</time>
      </trkpt>
      <trkpt lat="39.35665" lon="-8.52732833">
        <ele>18.0</ele>
        <time>2019-05-17T11:36:29.152Z</time>
      </trkpt>
      <trkpt lat="39.35665" lon="-8.52732833">
        <ele>18.0</ele>
        <time>2019-05-17T11:36:30.163Z</time>
      </trkpt>
      <trkpt lat="39.356695" lon="-8.52730667">
        <ele>18.0</ele>
        <time>2019-05-17T11:36:31.187Z</time>
      </trkpt>
      <trkpt lat="39.356695" lon="-8.52730667">
        <ele>18.0</ele>
        <time>2019-05-17T11:36:32.169Z</time>
      </trkpt>
      <trkpt lat="39.35674167" lon="-8.527285">
        <ele>18.0</ele>
        <time>2019-05-17T11:36:33.157Z</time>
      </trkpt>
      <trkpt lat="39.35674167" lon="-8.527285">
        <ele>18.0</ele>
        <time>2019-05-17T11:36:34.165Z</time>
      </trkpt>
      <trkpt lat="39.35679333" lon="-8.52726833">
        <ele>18.0</ele>
        <time>2019-05-17T11:36:35.178Z</time>
      </trkpt>
      <trkpt lat="39.35679333" lon="-8.52726833">
        <ele>18.0</ele>
        <time>2019-05-17T11:36:36.156Z</time>
      </trkpt>
      <trkpt lat="39.35685333" lon="-8.52724667">
        <ele>18.0</ele>
        <time>2019-05-17T11:36:37.178Z</time>
      </trkpt>
      <trkpt lat="39.35685333" lon="-8.52724667">
        <ele>18.0</ele>
        <time>2019-05-17T11:36:38.183Z</time>
      </trkpt>
      <trkpt lat="39.35692" lon="-8.52722167">
        <ele>18.0</ele>
        <time>2019-05-17T11:36:39.164Z</time>
      </trkpt>
      <trkpt lat="39.35692" lon="-8.52722167">
        <ele>18.0</ele>
        <time>2019-05-17T11:36:40.188Z</time>
      </trkpt>
      <trkpt lat="39.35698" lon="-8.52719333">
        <ele>18.0</ele>
        <time>2019-05-17T11:36:41.176Z</time>
      </trkpt>
      <trkpt lat="39.35698" lon="-8.52719333">
        <ele>18.0</ele>
        <time>2019-05-17T11:36:42.157Z</time>
      </trkpt>
      <trkpt lat="39.35703833" lon="-8.52717333">
        <ele>18.0</ele>
        <time>2019-05-17T11:36:43.180Z</time>
      </trkpt>
      <trkpt lat="39.35703833" lon="-8.52717333">
        <ele>18.0</ele>
        <time>2019-05-17T11:36:44.150Z</time>
      </trkpt>
      <trkpt lat="39.35709333" lon="-8.52714833">
        <ele>18.0</ele>
        <time>2019-05-17T11:36:45.182Z</time>
      </trkpt>
      <trkpt lat="39.35712" lon="-8.52713333">
        <ele>18.0</ele>
        <time>2019-05-17T11:36:46.159Z</time>
      </trkpt>
      <trkpt lat="39.35714667" lon="-8.52711833">
        <ele>18.0</ele>
        <time>2019-05-17T11:36:47.163Z</time>
      </trkpt>
      <trkpt lat="39.35714667" lon="-8.52711833">
        <ele>18.0</ele>
        <time>2019-05-17T11:36:48.180Z</time>
      </trkpt>
      <trkpt lat="39.357195" lon="-8.527095">
        <ele>18.0</ele>
        <time>2019-05-17T11:36:49.157Z</time>
      </trkpt>
      <trkpt lat="39.357195" lon="-8.527095">
        <ele>18.0</ele>
        <time>2019-05-17T11:36:50.162Z</time>
      </trkpt>
      <trkpt lat="39.35725833" lon="-8.52707167">
        <ele>18.0</ele>
        <time>2019-05-17T11:36:51.157Z</time>
      </trkpt>
      <trkpt lat="39.35725833" lon="-8.52707167">
        <ele>18.0</ele>
        <time>2019-05-17T11:36:52.165Z</time>
      </trkpt>
      <trkpt lat="39.35731667" lon="-8.52704667">
        <ele>19.0</ele>
        <time>2019-05-17T11:36:53.184Z</time>
      </trkpt>
      <trkpt lat="39.35731667" lon="-8.52704667">
        <ele>19.0</ele>
        <time>2019-05-17T11:36:54.153Z</time>
      </trkpt>
      <trkpt lat="39.35737833" lon="-8.527015">
        <ele>19.0</ele>
        <time>2019-05-17T11:36:55.173Z</time>
      </trkpt>
      <trkpt lat="39.35737833" lon="-8.527015">
        <ele>19.0</ele>
        <time>2019-05-17T11:36:56.154Z</time>
      </trkpt>
      <trkpt lat="39.35744167" lon="-8.52698333">
        <ele>20.0</ele>
        <time>2019-05-17T11:36:57.184Z</time>
      </trkpt>
      <trkpt lat="39.35744167" lon="-8.52698333">
        <ele>20.0</ele>
        <time>2019-05-17T11:36:58.157Z</time>
      </trkpt>
      <trkpt lat="39.35751333" lon="-8.52695333">
        <ele>20.0</ele>
        <time>2019-05-17T11:36:59.169Z</time>
      </trkpt>
      <trkpt lat="39.35751333" lon="-8.52695333">
        <ele>20.0</ele>
        <time>2019-05-17T11:37:00.188Z</time>
      </trkpt>
      <trkpt lat="39.35758333" lon="-8.52692667">
        <ele>21.0</ele>
        <time>2019-05-17T11:37:01.180Z</time>
      </trkpt>
      <trkpt lat="39.35758333" lon="-8.52692667">
        <ele>21.0</ele>
        <time>2019-05-17T11:37:02.167Z</time>
      </trkpt>
      <trkpt lat="39.357645" lon="-8.5269">
        <ele>21.0</ele>
        <time>2019-05-17T11:37:03.156Z</time>
      </trkpt>
      <trkpt lat="39.357645" lon="-8.5269">
        <ele>21.0</ele>
        <time>2019-05-17T11:37:04.164Z</time>
      </trkpt>
      <trkpt lat="39.3577" lon="-8.52688">
        <ele>21.0</ele>
        <time>2019-05-17T11:37:05.184Z</time>
      </trkpt>
      <trkpt lat="39.3577" lon="-8.52688">
        <ele>21.0</ele>
        <time>2019-05-17T11:37:06.189Z</time>
      </trkpt>
      <trkpt lat="39.35776167" lon="-8.52685333">
        <ele>21.0</ele>
        <time>2019-05-17T11:37:07.176Z</time>
      </trkpt>
      <trkpt lat="39.35776167" lon="-8.52685333">
        <ele>21.0</ele>
        <time>2019-05-17T11:37:08.182Z</time>
      </trkpt>
      <trkpt lat="39.35782167" lon="-8.52682667">
        <ele>22.0</ele>
        <time>2019-05-17T11:37:09.156Z</time>
      </trkpt>
      <trkpt lat="39.35782167" lon="-8.52682667">
        <ele>22.0</ele>
        <time>2019-05-17T11:37:10.161Z</time>
      </trkpt>
      <trkpt lat="39.357895" lon="-8.52680333">
        <ele>22.0</ele>
        <time>2019-05-17T11:37:11.183Z</time>
      </trkpt>
      <trkpt lat="39.357895" lon="-8.52680333">
        <ele>22.0</ele>
        <time>2019-05-17T11:37:12.151Z</time>
      </trkpt>
      <trkpt lat="39.35796167" lon="-8.52677667">
        <ele>22.0</ele>
        <time>2019-05-17T11:37:13.181Z</time>
      </trkpt>
      <trkpt lat="39.35796167" lon="-8.52677667">
        <ele>22.0</ele>
        <time>2019-05-17T11:37:14.187Z</time>
      </trkpt>
      <trkpt lat="39.35802667" lon="-8.52675167">
        <ele>22.0</ele>
        <time>2019-05-17T11:37:15.174Z</time>
      </trkpt>
      <trkpt lat="39.35805833" lon="-8.52673833">
        <ele>22.0</ele>
        <time>2019-05-17T11:37:16.166Z</time>
      </trkpt>
      <trkpt lat="39.35809" lon="-8.52672333">
        <ele>22.0</ele>
        <time>2019-05-17T11:37:17.155Z</time>
      </trkpt>
      <trkpt lat="39.35809" lon="-8.52672333">
        <ele>22.0</ele>
        <time>2019-05-17T11:37:18.169Z</time>
      </trkpt>
      <trkpt lat="39.35815667" lon="-8.52669833">
        <ele>22.0</ele>
        <time>2019-05-17T11:37:19.153Z</time>
      </trkpt>
      <trkpt lat="39.35815667" lon="-8.52669833">
        <ele>22.0</ele>
        <time>2019-05-17T11:37:20.160Z</time>
      </trkpt>
      <trkpt lat="39.35822" lon="-8.52667167">
        <ele>22.0</ele>
        <time>2019-05-17T11:37:21.179Z</time>
      </trkpt>
      <trkpt lat="39.35825167" lon="-8.52665833">
        <ele>22.0</ele>
        <time>2019-05-17T11:37:22.162Z</time>
      </trkpt>
      <trkpt lat="39.35828333" lon="-8.526645">
        <ele>22.0</ele>
        <time>2019-05-17T11:37:23.153Z</time>
      </trkpt>
      <trkpt lat="39.35828333" lon="-8.526645">
        <ele>22.0</ele>
        <time>2019-05-17T11:37:24.159Z</time>
      </trkpt>
      <trkpt lat="39.35833833" lon="-8.52661833">
        <ele>22.0</ele>
        <time>2019-05-17T11:37:25.179Z</time>
      </trkpt>
      <trkpt lat="39.35836667" lon="-8.526605">
        <ele>22.0</ele>
        <time>2019-05-17T11:37:26.161Z</time>
      </trkpt>
      <trkpt lat="39.35836667" lon="-8.526605">
        <ele>22.0</ele>
        <time>2019-05-17T11:37:27.168Z</time>
      </trkpt>
      <trkpt lat="39.35842167" lon="-8.52658">
        <ele>22.0</ele>
        <time>2019-05-17T11:37:28.162Z</time>
      </trkpt>
      <trkpt lat="39.35845" lon="-8.52656667">
        <ele>22.0</ele>
        <time>2019-05-17T11:37:29.188Z</time>
      </trkpt>
      <trkpt lat="39.35845" lon="-8.52656667">
        <ele>22.0</ele>
        <time>2019-05-17T11:37:30.155Z</time>
      </trkpt>
      <trkpt lat="39.35850333" lon="-8.52654667">
        <ele>22.0</ele>
        <time>2019-05-17T11:37:31.176Z</time>
      </trkpt>
      <trkpt lat="39.35850333" lon="-8.52654667">
        <ele>22.0</ele>
        <time>2019-05-17T11:37:32.157Z</time>
      </trkpt>
      <trkpt lat="39.358555" lon="-8.52652833">
        <ele>22.0</ele>
        <time>2019-05-17T11:37:33.174Z</time>
      </trkpt>
      <trkpt lat="39.358555" lon="-8.52652833">
        <ele>22.0</ele>
        <time>2019-05-17T11:37:34.166Z</time>
      </trkpt>
      <trkpt lat="39.35860833" lon="-8.526505">
        <ele>23.0</ele>
        <time>2019-05-17T11:37:35.159Z</time>
      </trkpt>
      <trkpt lat="39.35860833" lon="-8.526505">
        <ele>23.0</ele>
        <time>2019-05-17T11:37:36.181Z</time>
      </trkpt>
      <trkpt lat="39.35866333" lon="-8.526485">
        <ele>23.0</ele>
        <time>2019-05-17T11:37:37.160Z</time>
      </trkpt>
      <trkpt lat="39.35866333" lon="-8.526485">
        <ele>23.0</ele>
        <time>2019-05-17T11:37:38.176Z</time>
      </trkpt>
      <trkpt lat="39.35871833" lon="-8.52645833">
        <ele>23.0</ele>
        <time>2019-05-17T11:37:39.164Z</time>
      </trkpt>
      <trkpt lat="39.35871833" lon="-8.52645833">
        <ele>23.0</ele>
        <time>2019-05-17T11:37:40.178Z</time>
      </trkpt>
      <trkpt lat="39.35877833" lon="-8.52643167">
        <ele>23.0</ele>
        <time>2019-05-17T11:37:41.162Z</time>
      </trkpt>
      <trkpt lat="39.35877833" lon="-8.52643167">
        <ele>23.0</ele>
        <time>2019-05-17T11:37:42.188Z</time>
      </trkpt>
      <trkpt lat="39.35883833" lon="-8.52640833">
        <ele>23.0</ele>
        <time>2019-05-17T11:37:43.183Z</time>
      </trkpt>
      <trkpt lat="39.35883833" lon="-8.52640833">
        <ele>23.0</ele>
        <time>2019-05-17T11:37:44.166Z</time>
      </trkpt>
      <trkpt lat="39.35889667" lon="-8.52638167">
        <ele>23.0</ele>
        <time>2019-05-17T11:37:45.153Z</time>
      </trkpt>
      <trkpt lat="39.35889667" lon="-8.52638167">
        <ele>23.0</ele>
        <time>2019-05-17T11:37:46.168Z</time>
      </trkpt>
      <trkpt lat="39.35895667" lon="-8.52635667">
        <ele>23.0</ele>
        <time>2019-05-17T11:37:47.163Z</time>
      </trkpt>
      <trkpt lat="39.35895667" lon="-8.52635667">
        <ele>23.0</ele>
        <time>2019-05-17T11:37:48.176Z</time>
      </trkpt>
      <trkpt lat="39.35901667" lon="-8.52632667">
        <ele>22.0</ele>
        <time>2019-05-17T11:37:49.163Z</time>
      </trkpt>
      <trkpt lat="39.35901667" lon="-8.52632667">
        <ele>22.0</ele>
        <time>2019-05-17T11:37:50.169Z</time>
      </trkpt>
      <trkpt lat="39.35907667" lon="-8.52630167">
        <ele>22.0</ele>
        <time>2019-05-17T11:37:51.156Z</time>
      </trkpt>
      <trkpt lat="39.35907667" lon="-8.52630167">
        <ele>22.0</ele>
        <time>2019-05-17T11:37:52.161Z</time>
      </trkpt>
      <trkpt lat="39.35913833" lon="-8.52627667">
        <ele>22.0</ele>
        <time>2019-05-17T11:37:53.188Z</time>
      </trkpt>
      <trkpt lat="39.35913833" lon="-8.52627667">
        <ele>22.0</ele>
        <time>2019-05-17T11:37:54.153Z</time>
      </trkpt>
      <trkpt lat="39.3592" lon="-8.52625167">
        <ele>22.0</ele>
        <time>2019-05-17T11:37:55.173Z</time>
      </trkpt>
      <trkpt lat="39.3592" lon="-8.52625167">
        <ele>22.0</ele>
        <time>2019-05-17T11:37:56.187Z</time>
      </trkpt>
      <trkpt lat="39.35926667" lon="-8.52623">
        <ele>23.0</ele>
        <time>2019-05-17T11:37:57.174Z</time>
      </trkpt>
      <trkpt lat="39.35926667" lon="-8.52623">
        <ele>23.0</ele>
        <time>2019-05-17T11:37:58.181Z</time>
      </trkpt>
      <trkpt lat="39.359345" lon="-8.526205">
        <ele>23.0</ele>
        <time>2019-05-17T11:37:59.158Z</time>
      </trkpt>
      <trkpt lat="39.359345" lon="-8.526205">
        <ele>23.0</ele>
        <time>2019-05-17T11:38:00.185Z</time>
      </trkpt>
      <trkpt lat="39.35941667" lon="-8.526175">
        <ele>23.0</ele>
        <time>2019-05-17T11:38:01.167Z</time>
      </trkpt>
      <trkpt lat="39.35944833" lon="-8.52615833">
        <ele>23.0</ele>
        <time>2019-05-17T11:38:02.151Z</time>
      </trkpt>
      <trkpt lat="39.35944833" lon="-8.52615833">
        <ele>23.0</ele>
        <time>2019-05-17T11:38:03.156Z</time>
      </trkpt>
      <trkpt lat="39.35951333" lon="-8.52613333">
        <ele>23.0</ele>
        <time>2019-05-17T11:38:04.172Z</time>
      </trkpt>
      <trkpt lat="39.35951333" lon="-8.52613333">
        <ele>23.0</ele>
        <time>2019-05-17T11:38:05.179Z</time>
      </trkpt>
      <trkpt lat="39.359575" lon="-8.52610667">
        <ele>23.0</ele>
        <time>2019-05-17T11:38:06.151Z</time>
      </trkpt>
      <trkpt lat="39.359575" lon="-8.52610667">
        <ele>23.0</ele>
        <time>2019-05-17T11:38:07.156Z</time>
      </trkpt>
      <trkpt lat="39.359635" lon="-8.52608">
        <ele>23.0</ele>
        <time>2019-05-17T11:38:08.172Z</time>
      </trkpt>
      <trkpt lat="39.359665" lon="-8.52606667">
        <ele>23.0</ele>
        <time>2019-05-17T11:38:09.179Z</time>
      </trkpt>
      <trkpt lat="39.359665" lon="-8.52606667">
        <ele>23.0</ele>
        <time>2019-05-17T11:38:10.189Z</time>
      </trkpt>
      <trkpt lat="39.35972667" lon="-8.52604">
        <ele>22.0</ele>
        <time>2019-05-17T11:38:11.171Z</time>
      </trkpt>
      <trkpt lat="39.35972667" lon="-8.52604">
        <ele>22.0</ele>
        <time>2019-05-17T11:38:12.177Z</time>
      </trkpt>
      <trkpt lat="39.35978833" lon="-8.526015">
        <ele>22.0</ele>
        <time>2019-05-17T11:38:13.153Z</time>
      </trkpt>
      <trkpt lat="39.35978833" lon="-8.526015">
        <ele>22.0</ele>
        <time>2019-05-17T11:38:14.159Z</time>
      </trkpt>
      <trkpt lat="39.35984333" lon="-8.52599333">
        <ele>22.0</ele>
        <time>2019-05-17T11:38:15.177Z</time>
      </trkpt>
      <trkpt lat="39.35984333" lon="-8.52599333">
        <ele>22.0</ele>
        <time>2019-05-17T11:38:16.182Z</time>
      </trkpt>
      <trkpt lat="39.35989333" lon="-8.52597667">
        <ele>22.0</ele>
        <time>2019-05-17T11:38:17.155Z</time>
      </trkpt>
      <trkpt lat="39.35989333" lon="-8.52597667">
        <ele>22.0</ele>
        <time>2019-05-17T11:38:18.164Z</time>
      </trkpt>
      <trkpt lat="39.35994667" lon="-8.525955">
        <ele>22.0</ele>
        <time>2019-05-17T11:38:19.177Z</time>
      </trkpt>
      <trkpt lat="39.35994667" lon="-8.525955">
        <ele>22.0</ele>
        <time>2019-05-17T11:38:20.182Z</time>
      </trkpt>
      <trkpt lat="39.36000667" lon="-8.52593167">
        <ele>23.0</ele>
        <time>2019-05-17T11:38:21.157Z</time>
      </trkpt>
      <trkpt lat="39.36003667" lon="-8.52591833">
        <ele>23.0</ele>
        <time>2019-05-17T11:38:22.152Z</time>
      </trkpt>
      <trkpt lat="39.36006667" lon="-8.52590833">
        <ele>23.0</ele>
        <time>2019-05-17T11:38:23.179Z</time>
      </trkpt>
      <trkpt lat="39.36006667" lon="-8.52590833">
        <ele>23.0</ele>
        <time>2019-05-17T11:38:24.163Z</time>
      </trkpt>
      <trkpt lat="39.36013" lon="-8.52588333">
        <ele>23.0</ele>
        <time>2019-05-17T11:38:25.195Z</time>
      </trkpt>
      <trkpt lat="39.36013" lon="-8.52588333">
        <ele>23.0</ele>
        <time>2019-05-17T11:38:26.166Z</time>
      </trkpt>
      <trkpt lat="39.36018833" lon="-8.525855">
        <ele>22.0</ele>
        <time>2019-05-17T11:38:27.188Z</time>
      </trkpt>
      <trkpt lat="39.36018833" lon="-8.525855">
        <ele>22.0</ele>
        <time>2019-05-17T11:38:28.158Z</time>
      </trkpt>
      <trkpt lat="39.36023833" lon="-8.52582333">
        <ele>21.0</ele>
        <time>2019-05-17T11:38:29.179Z</time>
      </trkpt>
      <trkpt lat="39.36023833" lon="-8.52582333">
        <ele>21.0</ele>
        <time>2019-05-17T11:38:30.185Z</time>
      </trkpt>
      <trkpt lat="39.36030667" lon="-8.52579833">
        <ele>21.0</ele>
        <time>2019-05-17T11:38:31.165Z</time>
      </trkpt>
      <trkpt lat="39.36030667" lon="-8.52579833">
        <ele>21.0</ele>
        <time>2019-05-17T11:38:32.181Z</time>
      </trkpt>
      <trkpt lat="39.360375" lon="-8.52577167">
        <ele>21.0</ele>
        <time>2019-05-17T11:38:33.157Z</time>
      </trkpt>
      <trkpt lat="39.360375" lon="-8.52577167">
        <ele>21.0</ele>
        <time>2019-05-17T11:38:34.164Z</time>
      </trkpt>
      <trkpt lat="39.36043167" lon="-8.52574333">
        <ele>20.0</ele>
        <time>2019-05-17T11:38:35.165Z</time>
      </trkpt>
      <trkpt lat="39.36043167" lon="-8.52574333">
        <ele>20.0</ele>
        <time>2019-05-17T11:38:36.181Z</time>
      </trkpt>
      <trkpt lat="39.36047833" lon="-8.52572667">
        <ele>20.0</ele>
        <time>2019-05-17T11:38:37.159Z</time>
      </trkpt>
      <trkpt lat="39.36047833" lon="-8.52572667">
        <ele>20.0</ele>
        <time>2019-05-17T11:38:38.182Z</time>
      </trkpt>
      <trkpt lat="39.36050833" lon="-8.52571333">
        <ele>20.0</ele>
        <time>2019-05-17T11:38:39.172Z</time>
      </trkpt>
      <trkpt lat="39.36050833" lon="-8.52571333">
        <ele>20.0</ele>
        <time>2019-05-17T11:38:40.180Z</time>
      </trkpt>
      <trkpt lat="39.360545" lon="-8.52569333">
        <ele>19.0</ele>
        <time>2019-05-17T11:38:41.160Z</time>
      </trkpt>
      <trkpt lat="39.360545" lon="-8.52569333">
        <ele>19.0</ele>
        <time>2019-05-17T11:38:42.166Z</time>
      </trkpt>
      <trkpt lat="39.360585" lon="-8.52568833">
        <ele>19.0</ele>
        <time>2019-05-17T11:38:43.159Z</time>
      </trkpt>
      <trkpt lat="39.360585" lon="-8.52568833">
        <ele>19.0</ele>
        <time>2019-05-17T11:38:44.189Z</time>
      </trkpt>
      <trkpt lat="39.360625" lon="-8.52570333">
        <ele>19.0</ele>
        <time>2019-05-17T11:38:45.169Z</time>
      </trkpt>
      <trkpt lat="39.360625" lon="-8.52570333">
        <ele>19.0</ele>
        <time>2019-05-17T11:38:46.178Z</time>
      </trkpt>
      <trkpt lat="39.36066" lon="-8.52571667">
        <ele>19.0</ele>
        <time>2019-05-17T11:38:47.160Z</time>
      </trkpt>
      <trkpt lat="39.36066" lon="-8.52571667">
        <ele>19.0</ele>
        <time>2019-05-17T11:38:48.169Z</time>
      </trkpt>
      <trkpt lat="39.36068833" lon="-8.52571667">
        <ele>19.0</ele>
        <time>2019-05-17T11:38:49.161Z</time>
      </trkpt>
      <trkpt lat="39.36068833" lon="-8.52571667">
        <ele>19.0</ele>
        <time>2019-05-17T11:38:50.166Z</time>
      </trkpt>
      <trkpt lat="39.36070667" lon="-8.52572167">
        <ele>19.0</ele>
        <time>2019-05-17T11:38:51.151Z</time>
      </trkpt>
      <trkpt lat="39.36070667" lon="-8.52572167">
        <ele>19.0</ele>
        <time>2019-05-17T11:38:52.165Z</time>
      </trkpt>
      <trkpt lat="39.36070833" lon="-8.52572">
        <ele>19.0</ele>
        <time>2019-05-17T11:38:53.181Z</time>
      </trkpt>
      <trkpt lat="39.36070833" lon="-8.52572">
        <ele>19.0</ele>
        <time>2019-05-17T11:38:54.161Z</time>
      </trkpt>
      <trkpt lat="39.36070833" lon="-8.52572">
        <ele>19.0</ele>
        <time>2019-05-17T11:38:55.167Z</time>
      </trkpt>
      <trkpt lat="39.36070833" lon="-8.52572">
        <ele>19.0</ele>
        <time>2019-05-17T11:38:56.179Z</time>
      </trkpt>
      <trkpt lat="39.36070833" lon="-8.52572">
        <ele>19.0</ele>
        <time>2019-05-17T11:38:57.165Z</time>
      </trkpt>
      <trkpt lat="39.36070833" lon="-8.52572">
        <ele>19.0</ele>
        <time>2019-05-17T11:38:58.189Z</time>
      </trkpt>
      <trkpt lat="39.36070833" lon="-8.52572">
        <ele>19.0</ele>
        <time>2019-05-17T11:38:59.152Z</time>
      </trkpt>
      <trkpt lat="39.36070833" lon="-8.52572">
        <ele>19.0</ele>
        <time>2019-05-17T11:39:00.184Z</time>
      </trkpt>
      <trkpt lat="39.36074167" lon="-8.52568167">
        <ele>21.0</ele>
        <time>2019-05-17T11:39:01.158Z</time>
      </trkpt>
      <trkpt lat="39.36074167" lon="-8.52568167">
        <ele>21.0</ele>
        <time>2019-05-17T11:39:02.186Z</time>
      </trkpt>
      <trkpt lat="39.36074333" lon="-8.52568667">
        <ele>22.0</ele>
        <time>2019-05-17T11:39:03.189Z</time>
      </trkpt>
      <trkpt lat="39.36074333" lon="-8.52568667">
        <ele>22.0</ele>
        <time>2019-05-17T11:39:04.155Z</time>
      </trkpt>
      <trkpt lat="39.36074333" lon="-8.52568667">
        <ele>22.0</ele>
        <time>2019-05-17T11:39:05.186Z</time>
      </trkpt>
      <trkpt lat="39.36074333" lon="-8.52568667">
        <ele>22.0</ele>
        <time>2019-05-17T11:39:06.150Z</time>
      </trkpt>
      <trkpt lat="39.36074333" lon="-8.52568667">
        <ele>22.0</ele>
        <time>2019-05-17T11:39:07.184Z</time>
      </trkpt>
      <trkpt lat="39.36074333" lon="-8.52568667">
        <ele>22.0</ele>
        <time>2019-05-17T11:39:08.189Z</time>
      </trkpt>
      <trkpt lat="39.36074333" lon="-8.52568667">
        <ele>22.0</ele>
        <time>2019-05-17T11:39:09.188Z</time>
      </trkpt>
      <trkpt lat="39.36074333" lon="-8.52568667">
        <ele>22.0</ele>
        <time>2019-05-17T11:39:10.150Z</time>
      </trkpt>
      <trkpt lat="39.36074333" lon="-8.52568667">
        <ele>22.0</ele>
        <time>2019-05-17T11:39:11.186Z</time>
      </trkpt>
      <trkpt lat="39.36074333" lon="-8.52568667">
        <ele>22.0</ele>
        <time>2019-05-17T11:39:12.189Z</time>
      </trkpt>
      <trkpt lat="39.36074333" lon="-8.52568667">
        <ele>22.0</ele>
        <time>2019-05-17T11:39:13.189Z</time>
      </trkpt>
      <trkpt lat="39.36074333" lon="-8.52568667">
        <ele>22.0</ele>
        <time>2019-05-17T11:39:14.150Z</time>
      </trkpt>
      <trkpt lat="39.36074333" lon="-8.52568667">
        <ele>22.0</ele>
        <time>2019-05-17T11:39:15.184Z</time>
      </trkpt>
      <trkpt lat="39.36074333" lon="-8.52568667">
        <ele>22.0</ele>
        <time>2019-05-17T11:39:16.189Z</time>
      </trkpt>
      <trkpt lat="39.36074333" lon="-8.52568667">
        <ele>22.0</ele>
        <time>2019-05-17T11:39:17.154Z</time>
      </trkpt>
      <trkpt lat="39.36074333" lon="-8.52568667">
        <ele>22.0</ele>
        <time>2019-05-17T11:39:18.184Z</time>
      </trkpt>
      <trkpt lat="39.36074333" lon="-8.52568667">
        <ele>22.0</ele>
        <time>2019-05-17T11:39:19.165Z</time>
      </trkpt>
      <trkpt lat="39.36074333" lon="-8.52568667">
        <ele>22.0</ele>
        <time>2019-05-17T11:39:20.150Z</time>
      </trkpt>
      <trkpt lat="39.36075667" lon="-8.52564833">
        <ele>24.0</ele>
        <time>2019-05-17T11:39:21.189Z</time>
      </trkpt>
      <trkpt lat="39.36075667" lon="-8.52564833">
        <ele>24.0</ele>
        <time>2019-05-17T11:39:22.184Z</time>
      </trkpt>
      <trkpt lat="39.36077667" lon="-8.52560833">
        <ele>24.0</ele>
        <time>2019-05-17T11:39:23.152Z</time>
      </trkpt>
      <trkpt lat="39.36079" lon="-8.52558833">
        <ele>23.0</ele>
        <time>2019-05-17T11:39:24.150Z</time>
      </trkpt>
      <trkpt lat="39.36079" lon="-8.52558833">
        <ele>23.0</ele>
        <time>2019-05-17T11:39:25.186Z</time>
      </trkpt>
      <trkpt lat="39.36083167" lon="-8.52557167">
        <ele>23.0</ele>
        <time>2019-05-17T11:39:26.178Z</time>
      </trkpt>
      <trkpt lat="39.36083167" lon="-8.52557167">
        <ele>23.0</ele>
        <time>2019-05-17T11:39:27.151Z</time>
      </trkpt>
      <trkpt lat="39.36087667" lon="-8.52555167">
        <ele>23.0</ele>
        <time>2019-05-17T11:39:28.170Z</time>
      </trkpt>
      <trkpt lat="39.360905" lon="-8.52554">
        <ele>23.0</ele>
        <time>2019-05-17T11:39:29.160Z</time>
      </trkpt>
      <trkpt lat="39.360905" lon="-8.52554">
        <ele>23.0</ele>
        <time>2019-05-17T11:39:30.165Z</time>
      </trkpt>
      <trkpt lat="39.36095667" lon="-8.52552">
        <ele>24.0</ele>
        <time>2019-05-17T11:39:31.191Z</time>
      </trkpt>
      <trkpt lat="39.36095667" lon="-8.52552">
        <ele>24.0</ele>
        <time>2019-05-17T11:39:32.179Z</time>
      </trkpt>
      <trkpt lat="39.36100833" lon="-8.52550333">
        <ele>24.0</ele>
        <time>2019-05-17T11:39:33.162Z</time>
      </trkpt>
      <trkpt lat="39.36100833" lon="-8.52550333">
        <ele>24.0</ele>
        <time>2019-05-17T11:39:34.169Z</time>
      </trkpt>
      <trkpt lat="39.36105333" lon="-8.525485">
        <ele>24.0</ele>
        <time>2019-05-17T11:39:35.150Z</time>
      </trkpt>
      <trkpt lat="39.36105333" lon="-8.525485">
        <ele>24.0</ele>
        <time>2019-05-17T11:39:36.169Z</time>
      </trkpt>
      <trkpt lat="39.36110667" lon="-8.52546667">
        <ele>24.0</ele>
        <time>2019-05-17T11:39:37.151Z</time>
      </trkpt>
      <trkpt lat="39.36110667" lon="-8.52546667">
        <ele>24.0</ele>
        <time>2019-05-17T11:39:38.156Z</time>
      </trkpt>
      <trkpt lat="39.36116167" lon="-8.52544667">
        <ele>23.0</ele>
        <time>2019-05-17T11:39:39.161Z</time>
      </trkpt>
      <trkpt lat="39.36116167" lon="-8.52544667">
        <ele>23.0</ele>
        <time>2019-05-17T11:39:40.166Z</time>
      </trkpt>
      <trkpt lat="39.36122" lon="-8.52542167">
        <ele>23.0</ele>
        <time>2019-05-17T11:39:41.188Z</time>
      </trkpt>
      <trkpt lat="39.36122" lon="-8.52542167">
        <ele>23.0</ele>
        <time>2019-05-17T11:39:42.170Z</time>
      </trkpt>
      <trkpt lat="39.36128" lon="-8.52539667">
        <ele>24.0</ele>
        <time>2019-05-17T11:39:43.154Z</time>
      </trkpt>
      <trkpt lat="39.36128" lon="-8.52539667">
        <ele>24.0</ele>
        <time>2019-05-17T11:39:44.165Z</time>
      </trkpt>
      <trkpt lat="39.36134333" lon="-8.52537167">
        <ele>24.0</ele>
        <time>2019-05-17T11:39:45.150Z</time>
      </trkpt>
      <trkpt lat="39.36134333" lon="-8.52537167">
        <ele>24.0</ele>
        <time>2019-05-17T11:39:46.156Z</time>
      </trkpt>
      <trkpt lat="39.36140333" lon="-8.52534667">
        <ele>24.0</ele>
        <time>2019-05-17T11:39:47.166Z</time>
      </trkpt>
      <trkpt lat="39.36140333" lon="-8.52534667">
        <ele>24.0</ele>
        <time>2019-05-17T11:39:48.186Z</time>
      </trkpt>
      <trkpt lat="39.361465" lon="-8.52532333">
        <ele>24.0</ele>
        <time>2019-05-17T11:39:49.156Z</time>
      </trkpt>
      <trkpt lat="39.361495" lon="-8.52531167">
        <ele>24.0</ele>
        <time>2019-05-17T11:39:50.167Z</time>
      </trkpt>
      <trkpt lat="39.361495" lon="-8.52531167">
        <ele>24.0</ele>
        <time>2019-05-17T11:39:51.154Z</time>
      </trkpt>
      <trkpt lat="39.36155667" lon="-8.52528333">
        <ele>24.0</ele>
        <time>2019-05-17T11:39:52.170Z</time>
      </trkpt>
      <trkpt lat="39.36158833" lon="-8.52527">
        <ele>24.0</ele>
        <time>2019-05-17T11:39:53.172Z</time>
      </trkpt>
      <trkpt lat="39.36162" lon="-8.52525833">
        <ele>24.0</ele>
        <time>2019-05-17T11:39:54.168Z</time>
      </trkpt>
      <trkpt lat="39.36162" lon="-8.52525833">
        <ele>24.0</ele>
        <time>2019-05-17T11:39:55.171Z</time>
      </trkpt>
      <trkpt lat="39.36168167" lon="-8.52523167">
        <ele>24.0</ele>
        <time>2019-05-17T11:39:56.174Z</time>
      </trkpt>
      <trkpt lat="39.36171333" lon="-8.52521833">
        <ele>24.0</ele>
        <time>2019-05-17T11:39:57.169Z</time>
      </trkpt>
      <trkpt lat="39.36171333" lon="-8.52521833">
        <ele>24.0</ele>
        <time>2019-05-17T11:39:58.153Z</time>
      </trkpt>
      <trkpt lat="39.361775" lon="-8.52519">
        <ele>23.0</ele>
        <time>2019-05-17T11:39:59.152Z</time>
      </trkpt>
      <trkpt lat="39.361775" lon="-8.52519">
        <ele>23.0</ele>
        <time>2019-05-17T11:40:00.184Z</time>
      </trkpt>
      <trkpt lat="39.361835" lon="-8.52515667">
        <ele>23.0</ele>
        <time>2019-05-17T11:40:01.171Z</time>
      </trkpt>
      <trkpt lat="39.36186667" lon="-8.52514">
        <ele>23.0</ele>
        <time>2019-05-17T11:40:02.168Z</time>
      </trkpt>
      <trkpt lat="39.36186667" lon="-8.52514">
        <ele>23.0</ele>
        <time>2019-05-17T11:40:03.154Z</time>
      </trkpt>
      <trkpt lat="39.36193" lon="-8.5251">
        <ele>24.0</ele>
        <time>2019-05-17T11:40:04.160Z</time>
      </trkpt>
      <trkpt lat="39.36196" lon="-8.52508">
        <ele>24.0</ele>
        <time>2019-05-17T11:40:05.162Z</time>
      </trkpt>
      <trkpt lat="39.36196" lon="-8.52508">
        <ele>24.0</ele>
        <time>2019-05-17T11:40:06.186Z</time>
      </trkpt>
      <trkpt lat="39.36202333" lon="-8.52503667">
        <ele>24.0</ele>
        <time>2019-05-17T11:40:07.172Z</time>
      </trkpt>
      <trkpt lat="39.36202333" lon="-8.52503667">
        <ele>24.0</ele>
        <time>2019-05-17T11:40:08.155Z</time>
      </trkpt>
      <trkpt lat="39.36208833" lon="-8.52499333">
        <ele>24.0</ele>
        <time>2019-05-17T11:40:09.181Z</time>
      </trkpt>
      <trkpt lat="39.36212167" lon="-8.52497167">
        <ele>24.0</ele>
        <time>2019-05-17T11:40:10.165Z</time>
      </trkpt>
      <trkpt lat="39.362155" lon="-8.52495">
        <ele>24.0</ele>
        <time>2019-05-17T11:40:11.171Z</time>
      </trkpt>
      <trkpt lat="39.362155" lon="-8.52495">
        <ele>24.0</ele>
        <time>2019-05-17T11:40:12.182Z</time>
      </trkpt>
      <trkpt lat="39.36222333" lon="-8.52490333">
        <ele>24.0</ele>
        <time>2019-05-17T11:40:13.174Z</time>
      </trkpt>
      <trkpt lat="39.36226" lon="-8.52488">
        <ele>24.0</ele>
        <time>2019-05-17T11:40:14.169Z</time>
      </trkpt>
      <trkpt lat="39.36226" lon="-8.52488">
        <ele>24.0</ele>
        <time>2019-05-17T11:40:15.152Z</time>
      </trkpt>
      <trkpt lat="39.36233167" lon="-8.52483167">
        <ele>24.0</ele>
        <time>2019-05-17T11:40:16.169Z</time>
      </trkpt>
      <trkpt lat="39.36236667" lon="-8.52480833">
        <ele>24.0</ele>
        <time>2019-05-17T11:40:17.166Z</time>
      </trkpt>
      <trkpt lat="39.36236667" lon="-8.52480833">
        <ele>24.0</ele>
        <time>2019-05-17T11:40:18.150Z</time>
      </trkpt>
      <trkpt lat="39.36243833" lon="-8.524765">
        <ele>23.0</ele>
        <time>2019-05-17T11:40:19.171Z</time>
      </trkpt>
      <trkpt lat="39.362475" lon="-8.524745">
        <ele>23.0</ele>
        <time>2019-05-17T11:40:20.178Z</time>
      </trkpt>
      <trkpt lat="39.362475" lon="-8.524745">
        <ele>23.0</ele>
        <time>2019-05-17T11:40:21.162Z</time>
      </trkpt>
      <trkpt lat="39.36255" lon="-8.524715">
        <ele>23.0</ele>
        <time>2019-05-17T11:40:22.160Z</time>
      </trkpt>
      <trkpt lat="39.36255" lon="-8.524715">
        <ele>23.0</ele>
        <time>2019-05-17T11:40:23.186Z</time>
      </trkpt>
      <trkpt lat="39.36262667" lon="-8.52470833">
        <ele>23.0</ele>
        <time>2019-05-17T11:40:24.168Z</time>
      </trkpt>
      <trkpt lat="39.36262667" lon="-8.52470833">
        <ele>23.0</ele>
        <time>2019-05-17T11:40:25.180Z</time>
      </trkpt>
      <trkpt lat="39.362705" lon="-8.52472333">
        <ele>23.0</ele>
        <time>2019-05-17T11:40:26.169Z</time>
      </trkpt>
      <trkpt lat="39.36274333" lon="-8.524735">
        <ele>23.0</ele>
        <time>2019-05-17T11:40:27.161Z</time>
      </trkpt>
      <trkpt lat="39.36278" lon="-8.52475167">
        <ele>23.0</ele>
        <time>2019-05-17T11:40:28.162Z</time>
      </trkpt>
      <trkpt lat="39.36278" lon="-8.52475167">
        <ele>23.0</ele>
        <time>2019-05-17T11:40:29.189Z</time>
      </trkpt>
      <trkpt lat="39.36285167" lon="-8.52479333">
        <ele>23.0</ele>
        <time>2019-05-17T11:40:30.160Z</time>
      </trkpt>
      <trkpt lat="39.36285167" lon="-8.52479333">
        <ele>23.0</ele>
        <time>2019-05-17T11:40:31.187Z</time>
      </trkpt>
      <trkpt lat="39.36292333" lon="-8.52484">
        <ele>23.0</ele>
        <time>2019-05-17T11:40:32.157Z</time>
      </trkpt>
      <trkpt lat="39.36292333" lon="-8.52484">
        <ele>23.0</ele>
        <time>2019-05-17T11:40:33.185Z</time>
      </trkpt>
      <trkpt lat="39.362995" lon="-8.524885">
        <ele>23.0</ele>
        <time>2019-05-17T11:40:34.161Z</time>
      </trkpt>
      <trkpt lat="39.36303" lon="-8.52490833">
        <ele>24.0</ele>
        <time>2019-05-17T11:40:35.169Z</time>
      </trkpt>
      <trkpt lat="39.36303" lon="-8.52490833">
        <ele>24.0</ele>
        <time>2019-05-17T11:40:36.152Z</time>
      </trkpt>
      <trkpt lat="39.36309833" lon="-8.52495833">
        <ele>24.0</ele>
        <time>2019-05-17T11:40:37.159Z</time>
      </trkpt>
      <trkpt lat="39.36309833" lon="-8.52495833">
        <ele>24.0</ele>
        <time>2019-05-17T11:40:38.185Z</time>
      </trkpt>
      <trkpt lat="39.36316167" lon="-8.52500167">
        <ele>24.0</ele>
        <time>2019-05-17T11:40:39.156Z</time>
      </trkpt>
      <trkpt lat="39.36316167" lon="-8.52500167">
        <ele>24.0</ele>
        <time>2019-05-17T11:40:40.152Z</time>
      </trkpt>
      <trkpt lat="39.36322333" lon="-8.52505">
        <ele>24.0</ele>
        <time>2019-05-17T11:40:41.168Z</time>
      </trkpt>
      <trkpt lat="39.36322333" lon="-8.52505">
        <ele>24.0</ele>
        <time>2019-05-17T11:40:42.151Z</time>
      </trkpt>
      <trkpt lat="39.36328333" lon="-8.525095">
        <ele>24.0</ele>
        <time>2019-05-17T11:40:43.161Z</time>
      </trkpt>
      <trkpt lat="39.36328333" lon="-8.525095">
        <ele>24.0</ele>
        <time>2019-05-17T11:40:44.186Z</time>
      </trkpt>
      <trkpt lat="39.36334833" lon="-8.52514">
        <ele>25.0</ele>
        <time>2019-05-17T11:40:45.160Z</time>
      </trkpt>
      <trkpt lat="39.36338167" lon="-8.525165">
        <ele>25.0</ele>
        <time>2019-05-17T11:40:46.170Z</time>
      </trkpt>
      <trkpt lat="39.36341667" lon="-8.52518667">
        <ele>25.0</ele>
        <time>2019-05-17T11:40:47.160Z</time>
      </trkpt>
      <trkpt lat="39.36345" lon="-8.52520333">
        <ele>25.0</ele>
        <time>2019-05-17T11:40:48.160Z</time>
      </trkpt>
      <trkpt lat="39.36345" lon="-8.52520333">
        <ele>25.0</ele>
        <time>2019-05-17T11:40:49.168Z</time>
      </trkpt>
      <trkpt lat="39.363515" lon="-8.52523833">
        <ele>25.0</ele>
        <time>2019-05-17T11:40:50.172Z</time>
      </trkpt>
      <trkpt lat="39.363515" lon="-8.52523833">
        <ele>25.0</ele>
        <time>2019-05-17T11:40:51.158Z</time>
      </trkpt>
      <trkpt lat="39.36358" lon="-8.52525167">
        <ele>25.0</ele>
        <time>2019-05-17T11:40:52.159Z</time>
      </trkpt>
      <trkpt lat="39.36361167" lon="-8.52525333">
        <ele>25.0</ele>
        <time>2019-05-17T11:40:53.213Z</time>
      </trkpt>
      <trkpt lat="39.36361167" lon="-8.52525333">
        <ele>25.0</ele>
        <time>2019-05-17T11:40:54.179Z</time>
      </trkpt>
      <trkpt lat="39.36366667" lon="-8.525235">
        <ele>25.0</ele>
        <time>2019-05-17T11:40:55.160Z</time>
      </trkpt>
      <trkpt lat="39.36366667" lon="-8.525235">
        <ele>25.0</ele>
        <time>2019-05-17T11:40:56.155Z</time>
      </trkpt>
      <trkpt lat="39.36371667" lon="-8.52520333">
        <ele>25.0</ele>
        <time>2019-05-17T11:40:57.183Z</time>
      </trkpt>
      <trkpt lat="39.36371667" lon="-8.52520333">
        <ele>25.0</ele>
        <time>2019-05-17T11:40:58.188Z</time>
      </trkpt>
      <trkpt lat="39.36376" lon="-8.52516">
        <ele>25.0</ele>
        <time>2019-05-17T11:40:59.162Z</time>
      </trkpt>
      <trkpt lat="39.36376" lon="-8.52516">
        <ele>25.0</ele>
        <time>2019-05-17T11:41:00.185Z</time>
      </trkpt>
      <trkpt lat="39.36379333" lon="-8.52510167">
        <ele>25.0</ele>
        <time>2019-05-17T11:41:01.163Z</time>
      </trkpt>
      <trkpt lat="39.36379333" lon="-8.52510167">
        <ele>25.0</ele>
        <time>2019-05-17T11:41:02.169Z</time>
      </trkpt>
      <trkpt lat="39.36381833" lon="-8.52503833">
        <ele>25.0</ele>
        <time>2019-05-17T11:41:03.165Z</time>
      </trkpt>
      <trkpt lat="39.36381833" lon="-8.52503833">
        <ele>25.0</ele>
        <time>2019-05-17T11:41:04.187Z</time>
      </trkpt>
      <trkpt lat="39.36384" lon="-8.524965">
        <ele>25.0</ele>
        <time>2019-05-17T11:41:05.163Z</time>
      </trkpt>
      <trkpt lat="39.36384" lon="-8.524965">
        <ele>25.0</ele>
        <time>2019-05-17T11:41:06.184Z</time>
      </trkpt>
      <trkpt lat="39.36386" lon="-8.52488">
        <ele>25.0</ele>
        <time>2019-05-17T11:41:07.170Z</time>
      </trkpt>
      <trkpt lat="39.36386" lon="-8.52488">
        <ele>25.0</ele>
        <time>2019-05-17T11:41:08.165Z</time>
      </trkpt>
      <trkpt lat="39.36387833" lon="-8.52478833">
        <ele>25.0</ele>
        <time>2019-05-17T11:41:09.163Z</time>
      </trkpt>
      <trkpt lat="39.36388833" lon="-8.52473833">
        <ele>25.0</ele>
        <time>2019-05-17T11:41:10.155Z</time>
      </trkpt>
      <trkpt lat="39.36390167" lon="-8.52468667">
        <ele>25.0</ele>
        <time>2019-05-17T11:41:11.178Z</time>
      </trkpt>
      <trkpt lat="39.36390167" lon="-8.52468667">
        <ele>25.0</ele>
        <time>2019-05-17T11:41:12.184Z</time>
      </trkpt>
      <trkpt lat="39.36392333" lon="-8.52457833">
        <ele>25.0</ele>
        <time>2019-05-17T11:41:13.173Z</time>
      </trkpt>
      <trkpt lat="39.363935" lon="-8.52452167">
        <ele>25.0</ele>
        <time>2019-05-17T11:41:14.162Z</time>
      </trkpt>
      <trkpt lat="39.363935" lon="-8.52452167">
        <ele>25.0</ele>
        <time>2019-05-17T11:41:15.189Z</time>
      </trkpt>
      <trkpt lat="39.36396167" lon="-8.52440667">
        <ele>25.0</ele>
        <time>2019-05-17T11:41:16.168Z</time>
      </trkpt>
      <trkpt lat="39.36397333" lon="-8.52435">
        <ele>25.0</ele>
        <time>2019-05-17T11:41:17.163Z</time>
      </trkpt>
      <trkpt lat="39.36397333" lon="-8.52435">
        <ele>25.0</ele>
        <time>2019-05-17T11:41:18.169Z</time>
      </trkpt>
      <trkpt lat="39.36399833" lon="-8.52423833">
        <ele>25.0</ele>
        <time>2019-05-17T11:41:19.188Z</time>
      </trkpt>
      <trkpt lat="39.36399833" lon="-8.52423833">
        <ele>25.0</ele>
        <time>2019-05-17T11:41:20.154Z</time>
      </trkpt>
      <trkpt lat="39.36401833" lon="-8.52412833">
        <ele>25.0</ele>
        <time>2019-05-17T11:41:21.170Z</time>
      </trkpt>
      <trkpt lat="39.36403" lon="-8.52407167">
        <ele>25.0</ele>
        <time>2019-05-17T11:41:22.193Z</time>
      </trkpt>
      <trkpt lat="39.36404167" lon="-8.52401333">
        <ele>25.0</ele>
        <time>2019-05-17T11:41:23.172Z</time>
      </trkpt>
      <trkpt lat="39.36404167" lon="-8.52401333">
        <ele>25.0</ele>
        <time>2019-05-17T11:41:24.177Z</time>
      </trkpt>
      <trkpt lat="39.36406333" lon="-8.52390167">
        <ele>24.0</ele>
        <time>2019-05-17T11:41:25.166Z</time>
      </trkpt>
      <trkpt lat="39.36407333" lon="-8.523845">
        <ele>24.0</ele>
        <time>2019-05-17T11:41:26.158Z</time>
      </trkpt>
      <trkpt lat="39.36407333" lon="-8.523845">
        <ele>24.0</ele>
        <time>2019-05-17T11:41:27.166Z</time>
      </trkpt>
      <trkpt lat="39.36409333" lon="-8.523735">
        <ele>24.0</ele>
        <time>2019-05-17T11:41:28.153Z</time>
      </trkpt>
      <trkpt lat="39.364105" lon="-8.52368167">
        <ele>24.0</ele>
        <time>2019-05-17T11:41:29.172Z</time>
      </trkpt>
      <trkpt lat="39.364105" lon="-8.52368167">
        <ele>24.0</ele>
        <time>2019-05-17T11:41:30.189Z</time>
      </trkpt>
      <trkpt lat="39.364135" lon="-8.52357667">
        <ele>24.0</ele>
        <time>2019-05-17T11:41:31.185Z</time>
      </trkpt>
      <trkpt lat="39.364135" lon="-8.52357667">
        <ele>24.0</ele>
        <time>2019-05-17T11:41:32.150Z</time>
      </trkpt>
      <trkpt lat="39.36417167" lon="-8.523475">
        <ele>24.0</ele>
        <time>2019-05-17T11:41:33.166Z</time>
      </trkpt>
      <trkpt lat="39.36419167" lon="-8.52342333">
        <ele>24.0</ele>
        <time>2019-05-17T11:41:34.184Z</time>
      </trkpt>
      <trkpt lat="39.36421167" lon="-8.52337167">
        <ele>24.0</ele>
        <time>2019-05-17T11:41:35.188Z</time>
      </trkpt>
      <trkpt lat="39.36421167" lon="-8.52337167">
        <ele>24.0</ele>
        <time>2019-05-17T11:41:36.173Z</time>
      </trkpt>
      <trkpt lat="39.36425833" lon="-8.52326833">
        <ele>24.0</ele>
        <time>2019-05-17T11:41:37.190Z</time>
      </trkpt>
      <trkpt lat="39.36425833" lon="-8.52326833">
        <ele>24.0</ele>
        <time>2019-05-17T11:41:38.154Z</time>
      </trkpt>
      <trkpt lat="39.36431167" lon="-8.52316833">
        <ele>24.0</ele>
        <time>2019-05-17T11:41:39.166Z</time>
      </trkpt>
      <trkpt lat="39.36431167" lon="-8.52316833">
        <ele>24.0</ele>
        <time>2019-05-17T11:41:40.172Z</time>
      </trkpt>
      <trkpt lat="39.36436833" lon="-8.52308">
        <ele>24.0</ele>
        <time>2019-05-17T11:41:41.157Z</time>
      </trkpt>
      <trkpt lat="39.36436833" lon="-8.52308">
        <ele>24.0</ele>
        <time>2019-05-17T11:41:42.181Z</time>
      </trkpt>
      <trkpt lat="39.364425" lon="-8.52299333">
        <ele>24.0</ele>
        <time>2019-05-17T11:41:43.162Z</time>
      </trkpt>
      <trkpt lat="39.364425" lon="-8.52299333">
        <ele>24.0</ele>
        <time>2019-05-17T11:41:44.169Z</time>
      </trkpt>
      <trkpt lat="39.36448667" lon="-8.52291667">
        <ele>24.0</ele>
        <time>2019-05-17T11:41:45.155Z</time>
      </trkpt>
      <trkpt lat="39.36448667" lon="-8.52291667">
        <ele>24.0</ele>
        <time>2019-05-17T11:41:46.176Z</time>
      </trkpt>
      <trkpt lat="39.36454667" lon="-8.52284333">
        <ele>24.0</ele>
        <time>2019-05-17T11:41:47.159Z</time>
      </trkpt>
      <trkpt lat="39.36454667" lon="-8.52284333">
        <ele>24.0</ele>
        <time>2019-05-17T11:41:48.169Z</time>
      </trkpt>
      <trkpt lat="39.36460333" lon="-8.52276167">
        <ele>24.0</ele>
        <time>2019-05-17T11:41:49.187Z</time>
      </trkpt>
      <trkpt lat="39.36460333" lon="-8.52276167">
        <ele>24.0</ele>
        <time>2019-05-17T11:41:50.175Z</time>
      </trkpt>
      <trkpt lat="39.36466667" lon="-8.52268">
        <ele>24.0</ele>
        <time>2019-05-17T11:41:51.155Z</time>
      </trkpt>
      <trkpt lat="39.36469667" lon="-8.52264">
        <ele>24.0</ele>
        <time>2019-05-17T11:41:52.175Z</time>
      </trkpt>
      <trkpt lat="39.36472833" lon="-8.52259667">
        <ele>24.0</ele>
        <time>2019-05-17T11:41:53.177Z</time>
      </trkpt>
      <trkpt lat="39.36472833" lon="-8.52259667">
        <ele>24.0</ele>
        <time>2019-05-17T11:41:54.151Z</time>
      </trkpt>
      <trkpt lat="39.36479333" lon="-8.52251333">
        <ele>24.0</ele>
        <time>2019-05-17T11:41:55.168Z</time>
      </trkpt>
      <trkpt lat="39.36479333" lon="-8.52251333">
        <ele>24.0</ele>
        <time>2019-05-17T11:41:56.179Z</time>
      </trkpt>
      <trkpt lat="39.36485833" lon="-8.52243167">
        <ele>23.0</ele>
        <time>2019-05-17T11:41:57.150Z</time>
      </trkpt>
      <trkpt lat="39.36485833" lon="-8.52243167">
        <ele>23.0</ele>
        <time>2019-05-17T11:41:58.167Z</time>
      </trkpt>
      <trkpt lat="39.36492" lon="-8.52235667">
        <ele>23.0</ele>
        <time>2019-05-17T11:41:59.150Z</time>
      </trkpt>
      <trkpt lat="39.36492" lon="-8.52235667">
        <ele>23.0</ele>
        <time>2019-05-17T11:42:00.175Z</time>
      </trkpt>
      <trkpt lat="39.36497667" lon="-8.52228667">
        <ele>23.0</ele>
        <time>2019-05-17T11:42:01.154Z</time>
      </trkpt>
      <trkpt lat="39.36497667" lon="-8.52228667">
        <ele>23.0</ele>
        <time>2019-05-17T11:42:02.176Z</time>
      </trkpt>
      <trkpt lat="39.36503667" lon="-8.52223">
        <ele>23.0</ele>
        <time>2019-05-17T11:42:03.158Z</time>
      </trkpt>
      <trkpt lat="39.36503667" lon="-8.52223">
        <ele>23.0</ele>
        <time>2019-05-17T11:42:04.177Z</time>
      </trkpt>
      <trkpt lat="39.36509667" lon="-8.52217667">
        <ele>23.0</ele>
        <time>2019-05-17T11:42:05.153Z</time>
      </trkpt>
      <trkpt lat="39.36509667" lon="-8.52217667">
        <ele>23.0</ele>
        <time>2019-05-17T11:42:06.187Z</time>
      </trkpt>
      <trkpt lat="39.365155" lon="-8.52212833">
        <ele>23.0</ele>
        <time>2019-05-17T11:42:07.163Z</time>
      </trkpt>
      <trkpt lat="39.365155" lon="-8.52212833">
        <ele>23.0</ele>
        <time>2019-05-17T11:42:08.178Z</time>
      </trkpt>
      <trkpt lat="39.36520833" lon="-8.52207333">
        <ele>23.0</ele>
        <time>2019-05-17T11:42:09.181Z</time>
      </trkpt>
      <trkpt lat="39.36523833" lon="-8.52205167">
        <ele>23.0</ele>
        <time>2019-05-17T11:42:10.174Z</time>
      </trkpt>
      <trkpt lat="39.36526833" lon="-8.52203167">
        <ele>23.0</ele>
        <time>2019-05-17T11:42:11.152Z</time>
      </trkpt>
      <trkpt lat="39.36526833" lon="-8.52203167">
        <ele>23.0</ele>
        <time>2019-05-17T11:42:12.157Z</time>
      </trkpt>
      <trkpt lat="39.36532833" lon="-8.52199333">
        <ele>22.0</ele>
        <time>2019-05-17T11:42:13.173Z</time>
      </trkpt>
      <trkpt lat="39.36532833" lon="-8.52199333">
        <ele>22.0</ele>
        <time>2019-05-17T11:42:14.180Z</time>
      </trkpt>
      <trkpt lat="39.36539" lon="-8.52195667">
        <ele>22.0</ele>
        <time>2019-05-17T11:42:15.159Z</time>
      </trkpt>
      <trkpt lat="39.36542167" lon="-8.52193667">
        <ele>22.0</ele>
        <time>2019-05-17T11:42:16.176Z</time>
      </trkpt>
      <trkpt lat="39.36545333" lon="-8.52191833">
        <ele>22.0</ele>
        <time>2019-05-17T11:42:17.178Z</time>
      </trkpt>
      <trkpt lat="39.36545333" lon="-8.52191833">
        <ele>22.0</ele>
        <time>2019-05-17T11:42:18.187Z</time>
      </trkpt>
      <trkpt lat="39.365515" lon="-8.52188">
        <ele>22.0</ele>
        <time>2019-05-17T11:42:19.168Z</time>
      </trkpt>
      <trkpt lat="39.365515" lon="-8.52188">
        <ele>22.0</ele>
        <time>2019-05-17T11:42:20.182Z</time>
      </trkpt>
      <trkpt lat="39.36557833" lon="-8.52184">
        <ele>22.0</ele>
        <time>2019-05-17T11:42:21.172Z</time>
      </trkpt>
      <trkpt lat="39.36557833" lon="-8.52184">
        <ele>22.0</ele>
        <time>2019-05-17T11:42:22.178Z</time>
      </trkpt>
      <trkpt lat="39.36564333" lon="-8.5218">
        <ele>22.0</ele>
        <time>2019-05-17T11:42:23.163Z</time>
      </trkpt>
      <trkpt lat="39.36564333" lon="-8.5218">
        <ele>22.0</ele>
        <time>2019-05-17T11:42:24.168Z</time>
      </trkpt>
      <trkpt lat="39.365705" lon="-8.52176333">
        <ele>22.0</ele>
        <time>2019-05-17T11:42:25.189Z</time>
      </trkpt>
      <trkpt lat="39.365705" lon="-8.52176333">
        <ele>22.0</ele>
        <time>2019-05-17T11:42:26.176Z</time>
      </trkpt>
      <trkpt lat="39.36576667" lon="-8.521725">
        <ele>22.0</ele>
        <time>2019-05-17T11:42:27.153Z</time>
      </trkpt>
      <trkpt lat="39.36576667" lon="-8.521725">
        <ele>22.0</ele>
        <time>2019-05-17T11:42:28.158Z</time>
      </trkpt>
      <trkpt lat="39.36582667" lon="-8.52168667">
        <ele>22.0</ele>
        <time>2019-05-17T11:42:29.178Z</time>
      </trkpt>
      <trkpt lat="39.36582667" lon="-8.52168667">
        <ele>22.0</ele>
        <time>2019-05-17T11:42:30.186Z</time>
      </trkpt>
      <trkpt lat="39.36588833" lon="-8.52165">
        <ele>22.0</ele>
        <time>2019-05-17T11:42:31.169Z</time>
      </trkpt>
      <trkpt lat="39.36591833" lon="-8.52163167">
        <ele>22.0</ele>
        <time>2019-05-17T11:42:32.164Z</time>
      </trkpt>
      <trkpt lat="39.36591833" lon="-8.52163167">
        <ele>22.0</ele>
        <time>2019-05-17T11:42:33.169Z</time>
      </trkpt>
      <trkpt lat="39.36597667" lon="-8.52159167">
        <ele>21.0</ele>
        <time>2019-05-17T11:42:34.185Z</time>
      </trkpt>
      <trkpt lat="39.36597667" lon="-8.52159167">
        <ele>21.0</ele>
        <time>2019-05-17T11:42:35.172Z</time>
      </trkpt>
      <trkpt lat="39.36603333" lon="-8.52155">
        <ele>21.0</ele>
        <time>2019-05-17T11:42:36.188Z</time>
      </trkpt>
      <trkpt lat="39.36606333" lon="-8.52153167">
        <ele>21.0</ele>
        <time>2019-05-17T11:42:37.183Z</time>
      </trkpt>
      <trkpt lat="39.36606333" lon="-8.52153167">
        <ele>21.0</ele>
        <time>2019-05-17T11:42:38.188Z</time>
      </trkpt>
      <trkpt lat="39.36611833" lon="-8.52149">
        <ele>21.0</ele>
        <time>2019-05-17T11:42:39.165Z</time>
      </trkpt>
      <trkpt lat="39.36611833" lon="-8.52149">
        <ele>21.0</ele>
        <time>2019-05-17T11:42:40.186Z</time>
      </trkpt>
      <trkpt lat="39.36616833" lon="-8.52145667">
        <ele>21.0</ele>
        <time>2019-05-17T11:42:41.172Z</time>
      </trkpt>
      <trkpt lat="39.36616833" lon="-8.52145667">
        <ele>21.0</ele>
        <time>2019-05-17T11:42:42.179Z</time>
      </trkpt>
      <trkpt lat="39.36620833" lon="-8.521425">
        <ele>21.0</ele>
        <time>2019-05-17T11:42:43.160Z</time>
      </trkpt>
      <trkpt lat="39.36620833" lon="-8.521425">
        <ele>21.0</ele>
        <time>2019-05-17T11:42:44.165Z</time>
      </trkpt>
      <trkpt lat="39.36624667" lon="-8.521395">
        <ele>21.0</ele>
        <time>2019-05-17T11:42:45.186Z</time>
      </trkpt>
      <trkpt lat="39.36624667" lon="-8.521395">
        <ele>21.0</ele>
        <time>2019-05-17T11:42:46.153Z</time>
      </trkpt>
      <trkpt lat="39.36629" lon="-8.52136333">
        <ele>21.0</ele>
        <time>2019-05-17T11:42:47.187Z</time>
      </trkpt>
      <trkpt lat="39.36629" lon="-8.52136333">
        <ele>21.0</ele>
        <time>2019-05-17T11:42:48.179Z</time>
      </trkpt>
      <trkpt lat="39.366345" lon="-8.521325">
        <ele>21.0</ele>
        <time>2019-05-17T11:42:49.161Z</time>
      </trkpt>
      <trkpt lat="39.366345" lon="-8.521325">
        <ele>21.0</ele>
        <time>2019-05-17T11:42:50.169Z</time>
      </trkpt>
      <trkpt lat="39.36640167" lon="-8.52127833">
        <ele>21.0</ele>
        <time>2019-05-17T11:42:51.190Z</time>
      </trkpt>
      <trkpt lat="39.36640167" lon="-8.52127833">
        <ele>21.0</ele>
        <time>2019-05-17T11:42:52.156Z</time>
      </trkpt>
      <trkpt lat="39.36646333" lon="-8.52123">
        <ele>20.0</ele>
        <time>2019-05-17T11:42:53.179Z</time>
      </trkpt>
      <trkpt lat="39.36646333" lon="-8.52123">
        <ele>20.0</ele>
        <time>2019-05-17T11:42:54.184Z</time>
      </trkpt>
      <trkpt lat="39.36653" lon="-8.52117833">
        <ele>21.0</ele>
        <time>2019-05-17T11:42:55.158Z</time>
      </trkpt>
      <trkpt lat="39.36653" lon="-8.52117833">
        <ele>21.0</ele>
        <time>2019-05-17T11:42:56.164Z</time>
      </trkpt>
      <trkpt lat="39.366595" lon="-8.521125">
        <ele>21.0</ele>
        <time>2019-05-17T11:42:57.189Z</time>
      </trkpt>
      <trkpt lat="39.36662833" lon="-8.52110167">
        <ele>21.0</ele>
        <time>2019-05-17T11:42:58.184Z</time>
      </trkpt>
      <trkpt lat="39.36666167" lon="-8.52107667">
        <ele>21.0</ele>
        <time>2019-05-17T11:42:59.160Z</time>
      </trkpt>
      <trkpt lat="39.36666167" lon="-8.52107667">
        <ele>21.0</ele>
        <time>2019-05-17T11:43:00.183Z</time>
      </trkpt>
      <trkpt lat="39.36672833" lon="-8.52101833">
        <ele>21.0</ele>
        <time>2019-05-17T11:43:01.163Z</time>
      </trkpt>
      <trkpt lat="39.36672833" lon="-8.52101833">
        <ele>21.0</ele>
        <time>2019-05-17T11:43:02.168Z</time>
      </trkpt>
      <trkpt lat="39.36679667" lon="-8.52096333">
        <ele>21.0</ele>
        <time>2019-05-17T11:43:03.189Z</time>
      </trkpt>
      <trkpt lat="39.36683167" lon="-8.52094167">
        <ele>21.0</ele>
        <time>2019-05-17T11:43:04.153Z</time>
      </trkpt>
      <trkpt lat="39.366865" lon="-8.520915">
        <ele>21.0</ele>
        <time>2019-05-17T11:43:05.173Z</time>
      </trkpt>
      <trkpt lat="39.366865" lon="-8.520915">
        <ele>21.0</ele>
        <time>2019-05-17T11:43:06.179Z</time>
      </trkpt>
      <trkpt lat="39.36693" lon="-8.520865">
        <ele>21.0</ele>
        <time>2019-05-17T11:43:07.160Z</time>
      </trkpt>
      <trkpt lat="39.36693" lon="-8.520865">
        <ele>21.0</ele>
        <time>2019-05-17T11:43:08.165Z</time>
      </trkpt>
      <trkpt lat="39.36699167" lon="-8.520825">
        <ele>22.0</ele>
        <time>2019-05-17T11:43:09.156Z</time>
      </trkpt>
      <trkpt lat="39.36702" lon="-8.52080333">
        <ele>22.0</ele>
        <time>2019-05-17T11:43:10.153Z</time>
      </trkpt>
      <trkpt lat="39.36705167" lon="-8.52078167">
        <ele>22.0</ele>
        <time>2019-05-17T11:43:11.160Z</time>
      </trkpt>
      <trkpt lat="39.36705167" lon="-8.52078167">
        <ele>22.0</ele>
        <time>2019-05-17T11:43:12.190Z</time>
      </trkpt>
      <trkpt lat="39.36711667" lon="-8.520735">
        <ele>22.0</ele>
        <time>2019-05-17T11:43:13.174Z</time>
      </trkpt>
      <trkpt lat="39.36711667" lon="-8.520735">
        <ele>22.0</ele>
        <time>2019-05-17T11:43:14.188Z</time>
      </trkpt>
      <trkpt lat="39.36718" lon="-8.52069">
        <ele>22.0</ele>
        <time>2019-05-17T11:43:15.170Z</time>
      </trkpt>
      <trkpt lat="39.36718" lon="-8.52069">
        <ele>22.0</ele>
        <time>2019-05-17T11:43:16.177Z</time>
      </trkpt>
      <trkpt lat="39.36723667" lon="-8.520645">
        <ele>22.0</ele>
        <time>2019-05-17T11:43:17.158Z</time>
      </trkpt>
      <trkpt lat="39.36723667" lon="-8.520645">
        <ele>22.0</ele>
        <time>2019-05-17T11:43:18.163Z</time>
      </trkpt>
      <trkpt lat="39.36729167" lon="-8.52060333">
        <ele>22.0</ele>
        <time>2019-05-17T11:43:19.181Z</time>
      </trkpt>
      <trkpt lat="39.36729167" lon="-8.52060333">
        <ele>22.0</ele>
        <time>2019-05-17T11:43:20.186Z</time>
      </trkpt>
      <trkpt lat="39.36734833" lon="-8.52055833">
        <ele>22.0</ele>
        <time>2019-05-17T11:43:21.185Z</time>
      </trkpt>
      <trkpt lat="39.36737833" lon="-8.520535">
        <ele>22.0</ele>
        <time>2019-05-17T11:43:22.178Z</time>
      </trkpt>
      <trkpt lat="39.36737833" lon="-8.520535">
        <ele>22.0</ele>
        <time>2019-05-17T11:43:23.183Z</time>
      </trkpt>
      <trkpt lat="39.36744" lon="-8.52048667">
        <ele>22.0</ele>
        <time>2019-05-17T11:43:24.157Z</time>
      </trkpt>
      <trkpt lat="39.36747167" lon="-8.52046333">
        <ele>22.0</ele>
        <time>2019-05-17T11:43:25.186Z</time>
      </trkpt>
      <trkpt lat="39.36747167" lon="-8.52046333">
        <ele>22.0</ele>
        <time>2019-05-17T11:43:26.150Z</time>
      </trkpt>
      <trkpt lat="39.36753167" lon="-8.520415">
        <ele>22.0</ele>
        <time>2019-05-17T11:43:27.172Z</time>
      </trkpt>
      <trkpt lat="39.36753167" lon="-8.520415">
        <ele>22.0</ele>
        <time>2019-05-17T11:43:28.187Z</time>
      </trkpt>
      <trkpt lat="39.36759" lon="-8.52037">
        <ele>22.0</ele>
        <time>2019-05-17T11:43:29.187Z</time>
      </trkpt>
      <trkpt lat="39.36759" lon="-8.52037">
        <ele>22.0</ele>
        <time>2019-05-17T11:43:30.153Z</time>
      </trkpt>
      <trkpt lat="39.36765167" lon="-8.520325">
        <ele>22.0</ele>
        <time>2019-05-17T11:43:31.170Z</time>
      </trkpt>
      <trkpt lat="39.36765167" lon="-8.520325">
        <ele>22.0</ele>
        <time>2019-05-17T11:43:32.182Z</time>
      </trkpt>
      <trkpt lat="39.36771167" lon="-8.52027667">
        <ele>22.0</ele>
        <time>2019-05-17T11:43:33.156Z</time>
      </trkpt>
      <trkpt lat="39.36774167" lon="-8.52025333">
        <ele>22.0</ele>
        <time>2019-05-17T11:43:34.174Z</time>
      </trkpt>
      <trkpt lat="39.36776833" lon="-8.52023167">
        <ele>22.0</ele>
        <time>2019-05-17T11:43:35.161Z</time>
      </trkpt>
      <trkpt lat="39.36776833" lon="-8.52023167">
        <ele>22.0</ele>
        <time>2019-05-17T11:43:36.186Z</time>
      </trkpt>
      <trkpt lat="39.36782167" lon="-8.52019">
        <ele>22.0</ele>
        <time>2019-05-17T11:43:37.164Z</time>
      </trkpt>
      <trkpt lat="39.36782167" lon="-8.52019">
        <ele>22.0</ele>
        <time>2019-05-17T11:43:38.180Z</time>
      </trkpt>
      <trkpt lat="39.367875" lon="-8.52015">
        <ele>22.0</ele>
        <time>2019-05-17T11:43:39.169Z</time>
      </trkpt>
      <trkpt lat="39.367875" lon="-8.52015">
        <ele>22.0</ele>
        <time>2019-05-17T11:43:40.175Z</time>
      </trkpt>
      <trkpt lat="39.36793" lon="-8.52010667">
        <ele>22.0</ele>
        <time>2019-05-17T11:43:41.160Z</time>
      </trkpt>
      <trkpt lat="39.36793" lon="-8.52010667">
        <ele>22.0</ele>
        <time>2019-05-17T11:43:42.165Z</time>
      </trkpt>
      <trkpt lat="39.36798667" lon="-8.52006167">
        <ele>21.0</ele>
        <time>2019-05-17T11:43:43.188Z</time>
      </trkpt>
      <trkpt lat="39.36798667" lon="-8.52006167">
        <ele>21.0</ele>
        <time>2019-05-17T11:43:44.152Z</time>
      </trkpt>
      <trkpt lat="39.368045" lon="-8.520015">
        <ele>21.0</ele>
        <time>2019-05-17T11:43:45.171Z</time>
      </trkpt>
      <trkpt lat="39.368045" lon="-8.520015">
        <ele>21.0</ele>
        <time>2019-05-17T11:43:46.177Z</time>
      </trkpt>
      <trkpt lat="39.36810667" lon="-8.51996667">
        <ele>21.0</ele>
        <time>2019-05-17T11:43:47.155Z</time>
      </trkpt>
      <trkpt lat="39.36810667" lon="-8.51996667">
        <ele>21.0</ele>
        <time>2019-05-17T11:43:48.160Z</time>
      </trkpt>
      <trkpt lat="39.36816667" lon="-8.51991167">
        <ele>21.0</ele>
        <time>2019-05-17T11:43:49.176Z</time>
      </trkpt>
      <trkpt lat="39.36816667" lon="-8.51991167">
        <ele>21.0</ele>
        <time>2019-05-17T11:43:50.184Z</time>
      </trkpt>
      <trkpt lat="39.36823" lon="-8.51986">
        <ele>21.0</ele>
        <time>2019-05-17T11:43:51.161Z</time>
      </trkpt>
      <trkpt lat="39.36826" lon="-8.51983333">
        <ele>21.0</ele>
        <time>2019-05-17T11:43:52.163Z</time>
      </trkpt>
      <trkpt lat="39.36828833" lon="-8.51980833">
        <ele>21.0</ele>
        <time>2019-05-17T11:43:53.182Z</time>
      </trkpt>
      <trkpt lat="39.36828833" lon="-8.51980833">
        <ele>21.0</ele>
        <time>2019-05-17T11:43:54.187Z</time>
      </trkpt>
      <trkpt lat="39.36834667" lon="-8.51975833">
        <ele>21.0</ele>
        <time>2019-05-17T11:43:55.164Z</time>
      </trkpt>
      <trkpt lat="39.36834667" lon="-8.51975833">
        <ele>21.0</ele>
        <time>2019-05-17T11:43:56.173Z</time>
      </trkpt>
      <trkpt lat="39.368405" lon="-8.51970667">
        <ele>21.0</ele>
        <time>2019-05-17T11:43:57.163Z</time>
      </trkpt>
      <trkpt lat="39.368405" lon="-8.51970667">
        <ele>21.0</ele>
        <time>2019-05-17T11:43:58.189Z</time>
      </trkpt>
      <trkpt lat="39.36846667" lon="-8.51965333">
        <ele>21.0</ele>
        <time>2019-05-17T11:43:59.182Z</time>
      </trkpt>
      <trkpt lat="39.36846667" lon="-8.51965333">
        <ele>21.0</ele>
        <time>2019-05-17T11:44:00.167Z</time>
      </trkpt>
      <trkpt lat="39.36853" lon="-8.51960333">
        <ele>21.0</ele>
        <time>2019-05-17T11:44:01.189Z</time>
      </trkpt>
      <trkpt lat="39.36856167" lon="-8.51957667">
        <ele>21.0</ele>
        <time>2019-05-17T11:44:02.189Z</time>
      </trkpt>
      <trkpt lat="39.36856167" lon="-8.51957667">
        <ele>21.0</ele>
        <time>2019-05-17T11:44:03.169Z</time>
      </trkpt>
      <trkpt lat="39.36862" lon="-8.519525">
        <ele>21.0</ele>
        <time>2019-05-17T11:44:04.155Z</time>
      </trkpt>
      <trkpt lat="39.36864833" lon="-8.51950333">
        <ele>21.0</ele>
        <time>2019-05-17T11:44:05.188Z</time>
      </trkpt>
      <trkpt lat="39.36864833" lon="-8.51950333">
        <ele>21.0</ele>
        <time>2019-05-17T11:44:06.153Z</time>
      </trkpt>
      <trkpt lat="39.36870167" lon="-8.51945">
        <ele>21.0</ele>
        <time>2019-05-17T11:44:07.187Z</time>
      </trkpt>
      <trkpt lat="39.36870167" lon="-8.51945">
        <ele>21.0</ele>
        <time>2019-05-17T11:44:08.170Z</time>
      </trkpt>
      <trkpt lat="39.36876" lon="-8.519405">
        <ele>21.0</ele>
        <time>2019-05-17T11:44:09.157Z</time>
      </trkpt>
      <trkpt lat="39.36878833" lon="-8.51937833">
        <ele>21.0</ele>
        <time>2019-05-17T11:44:10.158Z</time>
      </trkpt>
      <trkpt lat="39.36881833" lon="-8.519355">
        <ele>21.0</ele>
        <time>2019-05-17T11:44:11.175Z</time>
      </trkpt>
      <trkpt lat="39.36881833" lon="-8.519355">
        <ele>21.0</ele>
        <time>2019-05-17T11:44:12.180Z</time>
      </trkpt>
      <trkpt lat="39.36887667" lon="-8.51930667">
        <ele>21.0</ele>
        <time>2019-05-17T11:44:13.156Z</time>
      </trkpt>
      <trkpt lat="39.36887667" lon="-8.51930667">
        <ele>21.0</ele>
        <time>2019-05-17T11:44:14.162Z</time>
      </trkpt>
      <trkpt lat="39.36893333" lon="-8.519255">
        <ele>21.0</ele>
        <time>2019-05-17T11:44:15.186Z</time>
      </trkpt>
      <trkpt lat="39.36893333" lon="-8.519255">
        <ele>21.0</ele>
        <time>2019-05-17T11:44:16.152Z</time>
      </trkpt>
      <trkpt lat="39.36898833" lon="-8.519205">
        <ele>22.0</ele>
        <time>2019-05-17T11:44:17.173Z</time>
      </trkpt>
      <trkpt lat="39.36898833" lon="-8.519205">
        <ele>22.0</ele>
        <time>2019-05-17T11:44:18.187Z</time>
      </trkpt>
      <trkpt lat="39.369045" lon="-8.51915667">
        <ele>22.0</ele>
        <time>2019-05-17T11:44:19.172Z</time>
      </trkpt>
      <trkpt lat="39.369045" lon="-8.51915667">
        <ele>22.0</ele>
        <time>2019-05-17T11:44:20.179Z</time>
      </trkpt>
      <trkpt lat="39.36910333" lon="-8.51911">
        <ele>22.0</ele>
        <time>2019-05-17T11:44:21.187Z</time>
      </trkpt>
      <trkpt lat="39.36910333" lon="-8.51911">
        <ele>22.0</ele>
        <time>2019-05-17T11:44:22.157Z</time>
      </trkpt>
      <trkpt lat="39.36916" lon="-8.51906333">
        <ele>22.0</ele>
        <time>2019-05-17T11:44:23.172Z</time>
      </trkpt>
      <trkpt lat="39.36916" lon="-8.51906333">
        <ele>22.0</ele>
        <time>2019-05-17T11:44:24.189Z</time>
      </trkpt>
      <trkpt lat="39.36922" lon="-8.51901333">
        <ele>22.0</ele>
        <time>2019-05-17T11:44:25.177Z</time>
      </trkpt>
      <trkpt lat="39.36922" lon="-8.51901333">
        <ele>22.0</ele>
        <time>2019-05-17T11:44:26.184Z</time>
      </trkpt>
      <trkpt lat="39.36928" lon="-8.51896833">
        <ele>21.0</ele>
        <time>2019-05-17T11:44:27.162Z</time>
      </trkpt>
      <trkpt lat="39.36930833" lon="-8.51894667">
        <ele>21.0</ele>
        <time>2019-05-17T11:44:28.186Z</time>
      </trkpt>
      <trkpt lat="39.369335" lon="-8.518925">
        <ele>21.0</ele>
        <time>2019-05-17T11:44:29.155Z</time>
      </trkpt>
      <trkpt lat="39.369335" lon="-8.518925">
        <ele>21.0</ele>
        <time>2019-05-17T11:44:30.166Z</time>
      </trkpt>
      <trkpt lat="39.369395" lon="-8.51887167">
        <ele>21.0</ele>
        <time>2019-05-17T11:44:31.156Z</time>
      </trkpt>
      <trkpt lat="39.369395" lon="-8.51887167">
        <ele>21.0</ele>
        <time>2019-05-17T11:44:32.167Z</time>
      </trkpt>
      <trkpt lat="39.369455" lon="-8.51881833">
        <ele>22.0</ele>
        <time>2019-05-17T11:44:33.158Z</time>
      </trkpt>
      <trkpt lat="39.369455" lon="-8.51881833">
        <ele>22.0</ele>
        <time>2019-05-17T11:44:34.163Z</time>
      </trkpt>
      <trkpt lat="39.36952167" lon="-8.51876833">
        <ele>22.0</ele>
        <time>2019-05-17T11:44:35.181Z</time>
      </trkpt>
      <trkpt lat="39.36952167" lon="-8.51876833">
        <ele>22.0</ele>
        <time>2019-05-17T11:44:36.186Z</time>
      </trkpt>
      <trkpt lat="39.36958667" lon="-8.51871167">
        <ele>22.0</ele>
        <time>2019-05-17T11:44:37.207Z</time>
      </trkpt>
      <trkpt lat="39.36958667" lon="-8.51871167">
        <ele>22.0</ele>
        <time>2019-05-17T11:44:38.188Z</time>
      </trkpt>
      <trkpt lat="39.36965167" lon="-8.51865667">
        <ele>21.0</ele>
        <time>2019-05-17T11:44:39.167Z</time>
      </trkpt>
      <trkpt lat="39.36965167" lon="-8.51865667">
        <ele>21.0</ele>
        <time>2019-05-17T11:44:40.151Z</time>
      </trkpt>
      <trkpt lat="39.36971333" lon="-8.51859667">
        <ele>21.0</ele>
        <time>2019-05-17T11:44:41.166Z</time>
      </trkpt>
      <trkpt lat="39.36971333" lon="-8.51859667">
        <ele>21.0</ele>
        <time>2019-05-17T11:44:42.176Z</time>
      </trkpt>
      <trkpt lat="39.36978333" lon="-8.51854167">
        <ele>21.0</ele>
        <time>2019-05-17T11:44:43.159Z</time>
      </trkpt>
      <trkpt lat="39.36978333" lon="-8.51854167">
        <ele>21.0</ele>
        <time>2019-05-17T11:44:44.174Z</time>
      </trkpt>
      <trkpt lat="39.36985" lon="-8.51848833">
        <ele>21.0</ele>
        <time>2019-05-17T11:44:45.157Z</time>
      </trkpt>
      <trkpt lat="39.36985" lon="-8.51848833">
        <ele>21.0</ele>
        <time>2019-05-17T11:44:46.163Z</time>
      </trkpt>
      <trkpt lat="39.369915" lon="-8.51842667">
        <ele>21.0</ele>
        <time>2019-05-17T11:44:47.186Z</time>
      </trkpt>
      <trkpt lat="39.369915" lon="-8.51842667">
        <ele>21.0</ele>
        <time>2019-05-17T11:44:48.155Z</time>
      </trkpt>
      <trkpt lat="39.36997667" lon="-8.51836167">
        <ele>21.0</ele>
        <time>2019-05-17T11:44:49.176Z</time>
      </trkpt>
      <trkpt lat="39.36997667" lon="-8.51836167">
        <ele>21.0</ele>
        <time>2019-05-17T11:44:50.189Z</time>
      </trkpt>
      <trkpt lat="39.37003667" lon="-8.51830833">
        <ele>21.0</ele>
        <time>2019-05-17T11:44:51.171Z</time>
      </trkpt>
      <trkpt lat="39.37006667" lon="-8.51828333">
        <ele>21.0</ele>
        <time>2019-05-17T11:44:52.151Z</time>
      </trkpt>
      <trkpt lat="39.3701" lon="-8.518255">
        <ele>21.0</ele>
        <time>2019-05-17T11:44:53.156Z</time>
      </trkpt>
      <trkpt lat="39.3701" lon="-8.518255">
        <ele>21.0</ele>
        <time>2019-05-17T11:44:54.153Z</time>
      </trkpt>
      <trkpt lat="39.37016333" lon="-8.518195">
        <ele>21.0</ele>
        <time>2019-05-17T11:44:55.181Z</time>
      </trkpt>
      <trkpt lat="39.37016333" lon="-8.518195">
        <ele>21.0</ele>
        <time>2019-05-17T11:44:56.186Z</time>
      </trkpt>
      <trkpt lat="39.37022667" lon="-8.51813833">
        <ele>21.0</ele>
        <time>2019-05-17T11:44:57.161Z</time>
      </trkpt>
      <trkpt lat="39.37022667" lon="-8.51813833">
        <ele>21.0</ele>
        <time>2019-05-17T11:44:58.166Z</time>
      </trkpt>
      <trkpt lat="39.37030333" lon="-8.51809167">
        <ele>22.0</ele>
        <time>2019-05-17T11:44:59.159Z</time>
      </trkpt>
      <trkpt lat="39.37030333" lon="-8.51809167">
        <ele>22.0</ele>
        <time>2019-05-17T11:45:00.166Z</time>
      </trkpt>
      <trkpt lat="39.37036333" lon="-8.51802833">
        <ele>22.0</ele>
        <time>2019-05-17T11:45:01.172Z</time>
      </trkpt>
      <trkpt lat="39.37036333" lon="-8.51802833">
        <ele>22.0</ele>
        <time>2019-05-17T11:45:02.162Z</time>
      </trkpt>
      <trkpt lat="39.370425" lon="-8.51797333">
        <ele>22.0</ele>
        <time>2019-05-17T11:45:03.183Z</time>
      </trkpt>
      <trkpt lat="39.37045833" lon="-8.51794333">
        <ele>22.0</ele>
        <time>2019-05-17T11:45:04.166Z</time>
      </trkpt>
      <trkpt lat="39.37049" lon="-8.51791667">
        <ele>22.0</ele>
        <time>2019-05-17T11:45:05.171Z</time>
      </trkpt>
      <trkpt lat="39.37049" lon="-8.51791667">
        <ele>22.0</ele>
        <time>2019-05-17T11:45:06.189Z</time>
      </trkpt>
      <trkpt lat="39.37055333" lon="-8.51786833">
        <ele>22.0</ele>
        <time>2019-05-17T11:45:07.165Z</time>
      </trkpt>
      <trkpt lat="39.37055333" lon="-8.51786833">
        <ele>22.0</ele>
        <time>2019-05-17T11:45:08.185Z</time>
      </trkpt>
      <trkpt lat="39.37061333" lon="-8.51781833">
        <ele>22.0</ele>
        <time>2019-05-17T11:45:09.179Z</time>
      </trkpt>
      <trkpt lat="39.37064333" lon="-8.51779">
        <ele>22.0</ele>
        <time>2019-05-17T11:45:10.185Z</time>
      </trkpt>
      <trkpt lat="39.37067333" lon="-8.51776167">
        <ele>22.0</ele>
        <time>2019-05-17T11:45:11.179Z</time>
      </trkpt>
      <trkpt lat="39.37067333" lon="-8.51776167">
        <ele>22.0</ele>
        <time>2019-05-17T11:45:12.151Z</time>
      </trkpt>
      <trkpt lat="39.37073833" lon="-8.51771167">
        <ele>22.0</ele>
        <time>2019-05-17T11:45:13.176Z</time>
      </trkpt>
      <trkpt lat="39.37073833" lon="-8.51771167">
        <ele>22.0</ele>
        <time>2019-05-17T11:45:14.151Z</time>
      </trkpt>
      <trkpt lat="39.3708" lon="-8.51766167">
        <ele>22.0</ele>
        <time>2019-05-17T11:45:15.177Z</time>
      </trkpt>
      <trkpt lat="39.3708" lon="-8.51766167">
        <ele>22.0</ele>
        <time>2019-05-17T11:45:16.156Z</time>
      </trkpt>
      <trkpt lat="39.37086333" lon="-8.51760833">
        <ele>22.0</ele>
        <time>2019-05-17T11:45:17.177Z</time>
      </trkpt>
      <trkpt lat="39.37086333" lon="-8.51760833">
        <ele>22.0</ele>
        <time>2019-05-17T11:45:18.182Z</time>
      </trkpt>
      <trkpt lat="39.370925" lon="-8.517555">
        <ele>22.0</ele>
        <time>2019-05-17T11:45:19.157Z</time>
      </trkpt>
      <trkpt lat="39.370925" lon="-8.517555">
        <ele>22.0</ele>
        <time>2019-05-17T11:45:20.162Z</time>
      </trkpt>
      <trkpt lat="39.37098833" lon="-8.5175">
        <ele>23.0</ele>
        <time>2019-05-17T11:45:21.174Z</time>
      </trkpt>
      <trkpt lat="39.37098833" lon="-8.5175">
        <ele>23.0</ele>
        <time>2019-05-17T11:45:22.179Z</time>
      </trkpt>
      <trkpt lat="39.37105" lon="-8.51744833">
        <ele>23.0</ele>
        <time>2019-05-17T11:45:23.157Z</time>
      </trkpt>
      <trkpt lat="39.37105" lon="-8.51744833">
        <ele>23.0</ele>
        <time>2019-05-17T11:45:24.163Z</time>
      </trkpt>
      <trkpt lat="39.37111167" lon="-8.51739833">
        <ele>23.0</ele>
        <time>2019-05-17T11:45:25.189Z</time>
      </trkpt>
      <trkpt lat="39.37111167" lon="-8.51739833">
        <ele>23.0</ele>
        <time>2019-05-17T11:45:26.173Z</time>
      </trkpt>
      <trkpt lat="39.37117" lon="-8.51734833">
        <ele>23.0</ele>
        <time>2019-05-17T11:45:27.159Z</time>
      </trkpt>
      <trkpt lat="39.37117" lon="-8.51734833">
        <ele>23.0</ele>
        <time>2019-05-17T11:45:28.164Z</time>
      </trkpt>
      <trkpt lat="39.37122833" lon="-8.51729833">
        <ele>22.0</ele>
        <time>2019-05-17T11:45:29.179Z</time>
      </trkpt>
      <trkpt lat="39.37122833" lon="-8.51729833">
        <ele>22.0</ele>
        <time>2019-05-17T11:45:30.184Z</time>
      </trkpt>
      <trkpt lat="39.371285" lon="-8.51725">
        <ele>22.0</ele>
        <time>2019-05-17T11:45:31.157Z</time>
      </trkpt>
      <trkpt lat="39.371285" lon="-8.51725">
        <ele>22.0</ele>
        <time>2019-05-17T11:45:32.163Z</time>
      </trkpt>
      <trkpt lat="39.37134333" lon="-8.51720167">
        <ele>22.0</ele>
        <time>2019-05-17T11:45:33.185Z</time>
      </trkpt>
      <trkpt lat="39.37134333" lon="-8.51720167">
        <ele>22.0</ele>
        <time>2019-05-17T11:45:34.150Z</time>
      </trkpt>
      <trkpt lat="39.3714" lon="-8.51715167">
        <ele>22.0</ele>
        <time>2019-05-17T11:45:35.169Z</time>
      </trkpt>
      <trkpt lat="39.3714" lon="-8.51715167">
        <ele>22.0</ele>
        <time>2019-05-17T11:45:36.174Z</time>
      </trkpt>
      <trkpt lat="39.37145333" lon="-8.51710333">
        <ele>22.0</ele>
        <time>2019-05-17T11:45:37.162Z</time>
      </trkpt>
      <trkpt lat="39.37145333" lon="-8.51710333">
        <ele>22.0</ele>
        <time>2019-05-17T11:45:38.168Z</time>
      </trkpt>
      <trkpt lat="39.37150667" lon="-8.517055">
        <ele>22.0</ele>
        <time>2019-05-17T11:45:39.151Z</time>
      </trkpt>
      <trkpt lat="39.37150667" lon="-8.517055">
        <ele>22.0</ele>
        <time>2019-05-17T11:45:40.171Z</time>
      </trkpt>
      <trkpt lat="39.37156167" lon="-8.51700333">
        <ele>22.0</ele>
        <time>2019-05-17T11:45:41.150Z</time>
      </trkpt>
      <trkpt lat="39.37156167" lon="-8.51700333">
        <ele>22.0</ele>
        <time>2019-05-17T11:45:42.156Z</time>
      </trkpt>
      <trkpt lat="39.37161667" lon="-8.51695">
        <ele>22.0</ele>
        <time>2019-05-17T11:45:43.184Z</time>
      </trkpt>
      <trkpt lat="39.37164333" lon="-8.51692333">
        <ele>22.0</ele>
        <time>2019-05-17T11:45:44.161Z</time>
      </trkpt>
      <trkpt lat="39.37164333" lon="-8.51692333">
        <ele>22.0</ele>
        <time>2019-05-17T11:45:45.168Z</time>
      </trkpt>
      <trkpt lat="39.37169833" lon="-8.51687167">
        <ele>22.0</ele>
        <time>2019-05-17T11:45:46.157Z</time>
      </trkpt>
      <trkpt lat="39.371725" lon="-8.516845">
        <ele>22.0</ele>
        <time>2019-05-17T11:45:47.173Z</time>
      </trkpt>
      <trkpt lat="39.371725" lon="-8.516845">
        <ele>22.0</ele>
        <time>2019-05-17T11:45:48.179Z</time>
      </trkpt>
      <trkpt lat="39.37177667" lon="-8.51679167">
        <ele>22.0</ele>
        <time>2019-05-17T11:45:49.165Z</time>
      </trkpt>
      <trkpt lat="39.37177667" lon="-8.51679167">
        <ele>22.0</ele>
        <time>2019-05-17T11:45:50.152Z</time>
      </trkpt>
      <trkpt lat="39.37183" lon="-8.51674167">
        <ele>22.0</ele>
        <time>2019-05-17T11:45:51.174Z</time>
      </trkpt>
      <trkpt lat="39.37183" lon="-8.51674167">
        <ele>22.0</ele>
        <time>2019-05-17T11:45:52.179Z</time>
      </trkpt>
      <trkpt lat="39.37188167" lon="-8.51668833">
        <ele>22.0</ele>
        <time>2019-05-17T11:45:53.160Z</time>
      </trkpt>
      <trkpt lat="39.37188167" lon="-8.51668833">
        <ele>22.0</ele>
        <time>2019-05-17T11:45:54.165Z</time>
      </trkpt>
      <trkpt lat="39.371935" lon="-8.51663">
        <ele>22.0</ele>
        <time>2019-05-17T11:45:55.156Z</time>
      </trkpt>
      <trkpt lat="39.37196167" lon="-8.51660167">
        <ele>22.0</ele>
        <time>2019-05-17T11:45:56.177Z</time>
      </trkpt>
      <trkpt lat="39.37196167" lon="-8.51660167">
        <ele>22.0</ele>
        <time>2019-05-17T11:45:57.182Z</time>
      </trkpt>
      <trkpt lat="39.37201333" lon="-8.51655167">
        <ele>22.0</ele>
        <time>2019-05-17T11:45:58.178Z</time>
      </trkpt>
      <trkpt lat="39.37203833" lon="-8.51652333">
        <ele>22.0</ele>
        <time>2019-05-17T11:45:59.154Z</time>
      </trkpt>
      <trkpt lat="39.37203833" lon="-8.51652333">
        <ele>22.0</ele>
        <time>2019-05-17T11:46:00.160Z</time>
      </trkpt>
      <trkpt lat="39.37209167" lon="-8.51647167">
        <ele>22.0</ele>
        <time>2019-05-17T11:46:01.157Z</time>
      </trkpt>
      <trkpt lat="39.37209167" lon="-8.51647167">
        <ele>22.0</ele>
        <time>2019-05-17T11:46:02.165Z</time>
      </trkpt>
      <trkpt lat="39.372145" lon="-8.51641833">
        <ele>21.0</ele>
        <time>2019-05-17T11:46:03.155Z</time>
      </trkpt>
      <trkpt lat="39.372145" lon="-8.51641833">
        <ele>21.0</ele>
        <time>2019-05-17T11:46:04.184Z</time>
      </trkpt>
      <trkpt lat="39.3722" lon="-8.51636333">
        <ele>21.0</ele>
        <time>2019-05-17T11:46:05.168Z</time>
      </trkpt>
      <trkpt lat="39.3722" lon="-8.51636333">
        <ele>21.0</ele>
        <time>2019-05-17T11:46:06.183Z</time>
      </trkpt>
      <trkpt lat="39.372255" lon="-8.516305">
        <ele>21.0</ele>
        <time>2019-05-17T11:46:07.172Z</time>
      </trkpt>
      <trkpt lat="39.372255" lon="-8.516305">
        <ele>21.0</ele>
        <time>2019-05-17T11:46:08.154Z</time>
      </trkpt>
      <trkpt lat="39.372315" lon="-8.51624833">
        <ele>21.0</ele>
        <time>2019-05-17T11:46:09.187Z</time>
      </trkpt>
      <trkpt lat="39.37234333" lon="-8.51622">
        <ele>20.0</ele>
        <time>2019-05-17T11:46:10.188Z</time>
      </trkpt>
      <trkpt lat="39.37237167" lon="-8.51619167">
        <ele>20.0</ele>
        <time>2019-05-17T11:46:11.178Z</time>
      </trkpt>
      <trkpt lat="39.37237167" lon="-8.51619167">
        <ele>20.0</ele>
        <time>2019-05-17T11:46:12.173Z</time>
      </trkpt>
      <trkpt lat="39.37242667" lon="-8.516135">
        <ele>20.0</ele>
        <time>2019-05-17T11:46:13.157Z</time>
      </trkpt>
      <trkpt lat="39.37242667" lon="-8.516135">
        <ele>20.0</ele>
        <time>2019-05-17T11:46:14.163Z</time>
      </trkpt>
      <trkpt lat="39.37248333" lon="-8.51607833">
        <ele>20.0</ele>
        <time>2019-05-17T11:46:15.182Z</time>
      </trkpt>
      <trkpt lat="39.37251" lon="-8.51605">
        <ele>20.0</ele>
        <time>2019-05-17T11:46:16.164Z</time>
      </trkpt>
      <trkpt lat="39.37253833" lon="-8.51602167">
        <ele>20.0</ele>
        <time>2019-05-17T11:46:17.153Z</time>
      </trkpt>
      <trkpt lat="39.37253833" lon="-8.51602167">
        <ele>20.0</ele>
        <time>2019-05-17T11:46:18.158Z</time>
      </trkpt>
      <trkpt lat="39.37259667" lon="-8.51596667">
        <ele>20.0</ele>
        <time>2019-05-17T11:46:19.171Z</time>
      </trkpt>
      <trkpt lat="39.37259667" lon="-8.51596667">
        <ele>20.0</ele>
        <time>2019-05-17T11:46:20.155Z</time>
      </trkpt>
      <trkpt lat="39.37265333" lon="-8.51590833">
        <ele>19.0</ele>
        <time>2019-05-17T11:46:21.185Z</time>
      </trkpt>
      <trkpt lat="39.37268167" lon="-8.51588">
        <ele>19.0</ele>
        <time>2019-05-17T11:46:22.179Z</time>
      </trkpt>
      <trkpt lat="39.37271" lon="-8.51585">
        <ele>19.0</ele>
        <time>2019-05-17T11:46:23.165Z</time>
      </trkpt>
      <trkpt lat="39.37271" lon="-8.51585">
        <ele>19.0</ele>
        <time>2019-05-17T11:46:24.183Z</time>
      </trkpt>
      <trkpt lat="39.37276667" lon="-8.51579333">
        <ele>19.0</ele>
        <time>2019-05-17T11:46:25.161Z</time>
      </trkpt>
      <trkpt lat="39.37276667" lon="-8.51579333">
        <ele>19.0</ele>
        <time>2019-05-17T11:46:26.169Z</time>
      </trkpt>
      <trkpt lat="39.37282167" lon="-8.51574">
        <ele>19.0</ele>
        <time>2019-05-17T11:46:27.187Z</time>
      </trkpt>
      <trkpt lat="39.37282167" lon="-8.51574">
        <ele>19.0</ele>
        <time>2019-05-17T11:46:28.151Z</time>
      </trkpt>
      <trkpt lat="39.37288" lon="-8.51569">
        <ele>19.0</ele>
        <time>2019-05-17T11:46:29.167Z</time>
      </trkpt>
      <trkpt lat="39.37288" lon="-8.51569">
        <ele>19.0</ele>
        <time>2019-05-17T11:46:30.177Z</time>
      </trkpt>
      <trkpt lat="39.37293333" lon="-8.51563167">
        <ele>18.0</ele>
        <time>2019-05-17T11:46:31.157Z</time>
      </trkpt>
      <trkpt lat="39.37293333" lon="-8.51563167">
        <ele>18.0</ele>
        <time>2019-05-17T11:46:32.162Z</time>
      </trkpt>
      <trkpt lat="39.37298667" lon="-8.51557833">
        <ele>18.0</ele>
        <time>2019-05-17T11:46:33.154Z</time>
      </trkpt>
      <trkpt lat="39.37301333" lon="-8.51555167">
        <ele>18.0</ele>
        <time>2019-05-17T11:46:34.184Z</time>
      </trkpt>
      <trkpt lat="39.37303833" lon="-8.51552833">
        <ele>18.0</ele>
        <time>2019-05-17T11:46:35.160Z</time>
      </trkpt>
      <trkpt lat="39.37303833" lon="-8.51552833">
        <ele>18.0</ele>
        <time>2019-05-17T11:46:36.173Z</time>
      </trkpt>
      <trkpt lat="39.37309" lon="-8.51547333">
        <ele>18.0</ele>
        <time>2019-05-17T11:46:37.157Z</time>
      </trkpt>
      <trkpt lat="39.37309" lon="-8.51547333">
        <ele>18.0</ele>
        <time>2019-05-17T11:46:38.162Z</time>
      </trkpt>
      <trkpt lat="39.37314167" lon="-8.51542">
        <ele>18.0</ele>
        <time>2019-05-17T11:46:39.178Z</time>
      </trkpt>
      <trkpt lat="39.37316833" lon="-8.515395">
        <ele>18.0</ele>
        <time>2019-05-17T11:46:40.156Z</time>
      </trkpt>
      <trkpt lat="39.37319333" lon="-8.51536833">
        <ele>18.0</ele>
        <time>2019-05-17T11:46:41.177Z</time>
      </trkpt>
      <trkpt lat="39.37319333" lon="-8.51536833">
        <ele>18.0</ele>
        <time>2019-05-17T11:46:42.156Z</time>
      </trkpt>
      <trkpt lat="39.373245" lon="-8.51531833">
        <ele>18.0</ele>
        <time>2019-05-17T11:46:43.169Z</time>
      </trkpt>
      <trkpt lat="39.373245" lon="-8.51531833">
        <ele>18.0</ele>
        <time>2019-05-17T11:46:44.174Z</time>
      </trkpt>
      <trkpt lat="39.37329333" lon="-8.51526833">
        <ele>17.0</ele>
        <time>2019-05-17T11:46:45.152Z</time>
      </trkpt>
      <trkpt lat="39.37329333" lon="-8.51526833">
        <ele>17.0</ele>
        <time>2019-05-17T11:46:46.157Z</time>
      </trkpt>
      <trkpt lat="39.37334" lon="-8.515215">
        <ele>17.0</ele>
        <time>2019-05-17T11:46:47.172Z</time>
      </trkpt>
      <trkpt lat="39.37334" lon="-8.515215">
        <ele>17.0</ele>
        <time>2019-05-17T11:46:48.176Z</time>
      </trkpt>
      <trkpt lat="39.37338833" lon="-8.51516333">
        <ele>17.0</ele>
        <time>2019-05-17T11:46:49.187Z</time>
      </trkpt>
      <trkpt lat="39.37338833" lon="-8.51516333">
        <ele>17.0</ele>
        <time>2019-05-17T11:46:50.157Z</time>
      </trkpt>
      <trkpt lat="39.37343667" lon="-8.51511167">
        <ele>17.0</ele>
        <time>2019-05-17T11:46:51.179Z</time>
      </trkpt>
      <trkpt lat="39.37346" lon="-8.51508667">
        <ele>17.0</ele>
        <time>2019-05-17T11:46:52.158Z</time>
      </trkpt>
      <trkpt lat="39.37346" lon="-8.51508667">
        <ele>17.0</ele>
        <time>2019-05-17T11:46:53.163Z</time>
      </trkpt>
      <trkpt lat="39.37350833" lon="-8.515035">
        <ele>17.0</ele>
        <time>2019-05-17T11:46:54.188Z</time>
      </trkpt>
      <trkpt lat="39.37353333" lon="-8.51501">
        <ele>17.0</ele>
        <time>2019-05-17T11:46:55.152Z</time>
      </trkpt>
      <trkpt lat="39.37353333" lon="-8.51501">
        <ele>17.0</ele>
        <time>2019-05-17T11:46:56.158Z</time>
      </trkpt>
      <trkpt lat="39.37358333" lon="-8.51496167">
        <ele>17.0</ele>
        <time>2019-05-17T11:46:57.181Z</time>
      </trkpt>
      <trkpt lat="39.37358333" lon="-8.51496167">
        <ele>17.0</ele>
        <time>2019-05-17T11:46:58.160Z</time>
      </trkpt>
      <trkpt lat="39.37363167" lon="-8.51490833">
        <ele>16.0</ele>
        <time>2019-05-17T11:46:59.184Z</time>
      </trkpt>
      <trkpt lat="39.37363167" lon="-8.51490833">
        <ele>16.0</ele>
        <time>2019-05-17T11:47:00.150Z</time>
      </trkpt>
      <trkpt lat="39.37368167" lon="-8.514855">
        <ele>16.0</ele>
        <time>2019-05-17T11:47:01.172Z</time>
      </trkpt>
      <trkpt lat="39.37368167" lon="-8.514855">
        <ele>16.0</ele>
        <time>2019-05-17T11:47:02.180Z</time>
      </trkpt>
      <trkpt lat="39.373735" lon="-8.51480167">
        <ele>16.0</ele>
        <time>2019-05-17T11:47:03.155Z</time>
      </trkpt>
      <trkpt lat="39.373735" lon="-8.51480167">
        <ele>16.0</ele>
        <time>2019-05-17T11:47:04.161Z</time>
      </trkpt>
      <trkpt lat="39.37378667" lon="-8.514745">
        <ele>16.0</ele>
        <time>2019-05-17T11:47:05.180Z</time>
      </trkpt>
      <trkpt lat="39.37378667" lon="-8.514745">
        <ele>16.0</ele>
        <time>2019-05-17T11:47:06.161Z</time>
      </trkpt>
      <trkpt lat="39.37384" lon="-8.51469">
        <ele>16.0</ele>
        <time>2019-05-17T11:47:07.184Z</time>
      </trkpt>
      <trkpt lat="39.37384" lon="-8.51469">
        <ele>16.0</ele>
        <time>2019-05-17T11:47:08.158Z</time>
      </trkpt>
      <trkpt lat="39.37389333" lon="-8.51463667">
        <ele>16.0</ele>
        <time>2019-05-17T11:47:09.189Z</time>
      </trkpt>
      <trkpt lat="39.37389333" lon="-8.51463667">
        <ele>16.0</ele>
        <time>2019-05-17T11:47:10.157Z</time>
      </trkpt>
      <trkpt lat="39.37394333" lon="-8.51458333">
        <ele>16.0</ele>
        <time>2019-05-17T11:47:11.177Z</time>
      </trkpt>
      <trkpt lat="39.37394333" lon="-8.51458333">
        <ele>16.0</ele>
        <time>2019-05-17T11:47:12.161Z</time>
      </trkpt>
      <trkpt lat="39.37399333" lon="-8.51453167">
        <ele>15.0</ele>
        <time>2019-05-17T11:47:13.183Z</time>
      </trkpt>
      <trkpt lat="39.37399333" lon="-8.51453167">
        <ele>15.0</ele>
        <time>2019-05-17T11:47:14.160Z</time>
      </trkpt>
      <trkpt lat="39.37402833" lon="-8.51448167">
        <ele>15.0</ele>
        <time>2019-05-17T11:47:15.183Z</time>
      </trkpt>
      <trkpt lat="39.37402833" lon="-8.51448167">
        <ele>15.0</ele>
        <time>2019-05-17T11:47:16.188Z</time>
      </trkpt>
      <trkpt lat="39.37404333" lon="-8.51444167">
        <ele>15.0</ele>
        <time>2019-05-17T11:47:17.167Z</time>
      </trkpt>
      <trkpt lat="39.37404333" lon="-8.51444167">
        <ele>15.0</ele>
        <time>2019-05-17T11:47:18.181Z</time>
      </trkpt>
      <trkpt lat="39.37405" lon="-8.51443833">
        <ele>15.0</ele>
        <time>2019-05-17T11:47:19.166Z</time>
      </trkpt>
      <trkpt lat="39.37405" lon="-8.51443833">
        <ele>15.0</ele>
        <time>2019-05-17T11:47:20.151Z</time>
      </trkpt>
      <trkpt lat="39.37405" lon="-8.51443833">
        <ele>15.0</ele>
        <time>2019-05-17T11:47:21.170Z</time>
      </trkpt>
      <trkpt lat="39.37405" lon="-8.51443833">
        <ele>15.0</ele>
        <time>2019-05-17T11:47:22.184Z</time>
      </trkpt>
      <trkpt lat="39.37405" lon="-8.51443833">
        <ele>15.0</ele>
        <time>2019-05-17T11:47:23.152Z</time>
      </trkpt>
      <trkpt lat="39.37405" lon="-8.51443833">
        <ele>15.0</ele>
        <time>2019-05-17T11:47:24.184Z</time>
      </trkpt>
      <trkpt lat="39.37405" lon="-8.51443833">
        <ele>15.0</ele>
        <time>2019-05-17T11:47:25.189Z</time>
      </trkpt>
      <trkpt lat="39.37405" lon="-8.51443833">
        <ele>15.0</ele>
        <time>2019-05-17T11:47:26.156Z</time>
      </trkpt>
      <trkpt lat="39.37405" lon="-8.51443833">
        <ele>15.0</ele>
        <time>2019-05-17T11:47:27.150Z</time>
      </trkpt>
      <trkpt lat="39.37405" lon="-8.51443833">
        <ele>15.0</ele>
        <time>2019-05-17T11:47:28.185Z</time>
      </trkpt>
      <trkpt lat="39.37405" lon="-8.51443833">
        <ele>15.0</ele>
        <time>2019-05-17T11:47:29.165Z</time>
      </trkpt>
      <trkpt lat="39.37405" lon="-8.51443833">
        <ele>15.0</ele>
        <time>2019-05-17T11:47:30.189Z</time>
      </trkpt>
      <trkpt lat="39.37405" lon="-8.51443833">
        <ele>15.0</ele>
        <time>2019-05-17T11:47:31.189Z</time>
      </trkpt>
      <trkpt lat="39.37405" lon="-8.51443833">
        <ele>15.0</ele>
        <time>2019-05-17T11:47:32.185Z</time>
      </trkpt>
      <trkpt lat="39.37405" lon="-8.51443833">
        <ele>15.0</ele>
        <time>2019-05-17T11:47:33.150Z</time>
      </trkpt>
      <trkpt lat="39.37405" lon="-8.51443833">
        <ele>15.0</ele>
        <time>2019-05-17T11:47:34.150Z</time>
      </trkpt>
      <trkpt lat="39.37405" lon="-8.51443833">
        <ele>15.0</ele>
        <time>2019-05-17T11:47:35.153Z</time>
      </trkpt>
      <trkpt lat="39.37405" lon="-8.51443833">
        <ele>15.0</ele>
        <time>2019-05-17T11:47:36.185Z</time>
      </trkpt>
      <trkpt lat="39.37405" lon="-8.51443833">
        <ele>15.0</ele>
        <time>2019-05-17T11:47:37.150Z</time>
      </trkpt>
      <trkpt lat="39.37405" lon="-8.51443833">
        <ele>15.0</ele>
        <time>2019-05-17T11:47:38.152Z</time>
      </trkpt>
      <trkpt lat="39.37405" lon="-8.51443833">
        <ele>15.0</ele>
        <time>2019-05-17T11:47:39.150Z</time>
      </trkpt>
      <trkpt lat="39.37405" lon="-8.51443833">
        <ele>15.0</ele>
        <time>2019-05-17T11:47:40.184Z</time>
      </trkpt>
      <trkpt lat="39.37405" lon="-8.51443833">
        <ele>15.0</ele>
        <time>2019-05-17T11:47:41.151Z</time>
      </trkpt>
      <trkpt lat="39.37405" lon="-8.51443833">
        <ele>15.0</ele>
        <time>2019-05-17T11:47:42.186Z</time>
      </trkpt>
      <trkpt lat="39.37405" lon="-8.51443833">
        <ele>15.0</ele>
        <time>2019-05-17T11:47:43.179Z</time>
      </trkpt>
      <trkpt lat="39.37405" lon="-8.51443833">
        <ele>15.0</ele>
        <time>2019-05-17T11:47:44.166Z</time>
      </trkpt>
      <trkpt lat="39.37405" lon="-8.51443833">
        <ele>15.0</ele>
        <time>2019-05-17T11:47:45.151Z</time>
      </trkpt>
      <trkpt lat="39.37405" lon="-8.51443833">
        <ele>15.0</ele>
        <time>2019-05-17T11:47:46.189Z</time>
      </trkpt>
      <trkpt lat="39.37405" lon="-8.51443833">
        <ele>15.0</ele>
        <time>2019-05-17T11:47:47.152Z</time>
      </trkpt>
      <trkpt lat="39.37405" lon="-8.51443833">
        <ele>15.0</ele>
        <time>2019-05-17T11:47:48.184Z</time>
      </trkpt>
      <trkpt lat="39.37405" lon="-8.51443833">
        <ele>15.0</ele>
        <time>2019-05-17T11:47:49.189Z</time>
      </trkpt>
      <trkpt lat="39.37405" lon="-8.51443833">
        <ele>15.0</ele>
        <time>2019-05-17T11:47:50.185Z</time>
      </trkpt>
      <trkpt lat="39.37405" lon="-8.51443833">
        <ele>15.0</ele>
        <time>2019-05-17T11:47:51.170Z</time>
      </trkpt>
      <trkpt lat="39.37405" lon="-8.51443833">
        <ele>15.0</ele>
        <time>2019-05-17T11:47:52.154Z</time>
      </trkpt>
      <trkpt lat="39.37405" lon="-8.51443833">
        <ele>15.0</ele>
        <time>2019-05-17T11:47:53.185Z</time>
      </trkpt>
      <trkpt lat="39.37405" lon="-8.51443833">
        <ele>15.0</ele>
        <time>2019-05-17T11:47:54.184Z</time>
      </trkpt>
      <trkpt lat="39.37405" lon="-8.51443833">
        <ele>15.0</ele>
        <time>2019-05-17T11:47:55.170Z</time>
      </trkpt>
      <trkpt lat="39.37405" lon="-8.51443833">
        <ele>15.0</ele>
        <time>2019-05-17T11:47:56.154Z</time>
      </trkpt>
      <trkpt lat="39.37405" lon="-8.51443833">
        <ele>15.0</ele>
        <time>2019-05-17T11:47:57.168Z</time>
      </trkpt>
      <trkpt lat="39.37405" lon="-8.51443833">
        <ele>15.0</ele>
        <time>2019-05-17T11:47:58.158Z</time>
      </trkpt>
      <trkpt lat="39.37405" lon="-8.51443833">
        <ele>15.0</ele>
        <time>2019-05-17T11:47:59.152Z</time>
      </trkpt>
      <trkpt lat="39.37405" lon="-8.51443833">
        <ele>15.0</ele>
        <time>2019-05-17T11:48:00.185Z</time>
      </trkpt>
      <trkpt lat="39.37405" lon="-8.51443833">
        <ele>15.0</ele>
        <time>2019-05-17T11:48:01.155Z</time>
      </trkpt>
      <trkpt lat="39.37405" lon="-8.51443833">
        <ele>15.0</ele>
        <time>2019-05-17T11:48:02.155Z</time>
      </trkpt>
      <trkpt lat="39.37405" lon="-8.51443833">
        <ele>15.0</ele>
        <time>2019-05-17T11:48:03.154Z</time>
      </trkpt>
      <trkpt lat="39.37405" lon="-8.51443833">
        <ele>15.0</ele>
        <time>2019-05-17T11:48:04.185Z</time>
      </trkpt>
      <trkpt lat="39.37405" lon="-8.51443833">
        <ele>15.0</ele>
        <time>2019-05-17T11:48:05.173Z</time>
      </trkpt>
      <trkpt lat="39.37405" lon="-8.51443833">
        <ele>15.0</ele>
        <time>2019-05-17T11:48:06.158Z</time>
      </trkpt>
      <trkpt lat="39.37405" lon="-8.51443833">
        <ele>15.0</ele>
        <time>2019-05-17T11:48:07.150Z</time>
      </trkpt>
      <trkpt lat="39.37405" lon="-8.51443833">
        <ele>15.0</ele>
        <time>2019-05-17T11:48:08.185Z</time>
      </trkpt>
      <trkpt lat="39.37405" lon="-8.51443833">
        <ele>15.0</ele>
        <time>2019-05-17T11:48:09.188Z</time>
      </trkpt>
      <trkpt lat="39.37405" lon="-8.51443833">
        <ele>15.0</ele>
        <time>2019-05-17T11:48:10.187Z</time>
      </trkpt>
      <trkpt lat="39.37405" lon="-8.51443833">
        <ele>15.0</ele>
        <time>2019-05-17T11:48:11.153Z</time>
      </trkpt>
      <trkpt lat="39.37405" lon="-8.51443833">
        <ele>15.0</ele>
        <time>2019-05-17T11:48:12.159Z</time>
      </trkpt>
      <trkpt lat="39.37405" lon="-8.51443833">
        <ele>15.0</ele>
        <time>2019-05-17T11:48:13.170Z</time>
      </trkpt>
      <trkpt lat="39.37405" lon="-8.51443833">
        <ele>15.0</ele>
        <time>2019-05-17T11:48:14.155Z</time>
      </trkpt>
      <trkpt lat="39.37405" lon="-8.51443833">
        <ele>15.0</ele>
        <time>2019-05-17T11:48:15.150Z</time>
      </trkpt>
      <trkpt lat="39.37405" lon="-8.51443833">
        <ele>15.0</ele>
        <time>2019-05-17T11:48:16.155Z</time>
      </trkpt>
      <trkpt lat="39.37405" lon="-8.51443833">
        <ele>15.0</ele>
        <time>2019-05-17T11:48:17.160Z</time>
      </trkpt>
      <trkpt lat="39.37405" lon="-8.51443833">
        <ele>15.0</ele>
        <time>2019-05-17T11:48:18.173Z</time>
      </trkpt>
      <trkpt lat="39.37405" lon="-8.51443833">
        <ele>15.0</ele>
        <time>2019-05-17T11:48:19.152Z</time>
      </trkpt>
      <trkpt lat="39.37405" lon="-8.51443833">
        <ele>15.0</ele>
        <time>2019-05-17T11:48:20.158Z</time>
      </trkpt>
      <trkpt lat="39.37405" lon="-8.51443833">
        <ele>15.0</ele>
        <time>2019-05-17T11:48:21.164Z</time>
      </trkpt>
      <trkpt lat="39.37405" lon="-8.51443833">
        <ele>15.0</ele>
        <time>2019-05-17T11:48:22.185Z</time>
      </trkpt>
      <trkpt lat="39.37405" lon="-8.51443833">
        <ele>15.0</ele>
        <time>2019-05-17T11:48:23.162Z</time>
      </trkpt>
      <trkpt lat="39.37405" lon="-8.51443833">
        <ele>15.0</ele>
        <time>2019-05-17T11:48:24.186Z</time>
      </trkpt>
      <trkpt lat="39.37405" lon="-8.51443833">
        <ele>15.0</ele>
        <time>2019-05-17T11:48:25.189Z</time>
      </trkpt>
      <trkpt lat="39.37405" lon="-8.51443833">
        <ele>15.0</ele>
        <time>2019-05-17T11:48:26.150Z</time>
      </trkpt>
      <trkpt lat="39.37405" lon="-8.51443833">
        <ele>15.0</ele>
        <time>2019-05-17T11:48:27.185Z</time>
      </trkpt>
      <trkpt lat="39.37405" lon="-8.51443833">
        <ele>15.0</ele>
        <time>2019-05-17T11:48:28.189Z</time>
      </trkpt>
      <trkpt lat="39.37405" lon="-8.51443833">
        <ele>15.0</ele>
        <time>2019-05-17T11:48:29.152Z</time>
      </trkpt>
      <trkpt lat="39.37405" lon="-8.51443833">
        <ele>15.0</ele>
        <time>2019-05-17T11:48:30.185Z</time>
      </trkpt>
      <trkpt lat="39.37405" lon="-8.51443833">
        <ele>15.0</ele>
        <time>2019-05-17T11:48:31.151Z</time>
      </trkpt>
      <trkpt lat="39.37405" lon="-8.51443833">
        <ele>15.0</ele>
        <time>2019-05-17T11:48:32.185Z</time>
      </trkpt>
      <trkpt lat="39.37405" lon="-8.51443833">
        <ele>15.0</ele>
        <time>2019-05-17T11:48:33.155Z</time>
      </trkpt>
      <trkpt lat="39.37405" lon="-8.51443833">
        <ele>15.0</ele>
        <time>2019-05-17T11:48:34.185Z</time>
      </trkpt>
      <trkpt lat="39.37405" lon="-8.51443833">
        <ele>15.0</ele>
        <time>2019-05-17T11:48:35.153Z</time>
      </trkpt>
      <trkpt lat="39.37405" lon="-8.51443833">
        <ele>15.0</ele>
        <time>2019-05-17T11:48:36.184Z</time>
      </trkpt>
      <trkpt lat="39.37405" lon="-8.51443833">
        <ele>15.0</ele>
        <time>2019-05-17T11:48:37.189Z</time>
      </trkpt>
      <trkpt lat="39.37405" lon="-8.51443833">
        <ele>15.0</ele>
        <time>2019-05-17T11:48:38.185Z</time>
      </trkpt>
      <trkpt lat="39.37405" lon="-8.51443833">
        <ele>15.0</ele>
        <time>2019-05-17T11:48:39.187Z</time>
      </trkpt>
      <trkpt lat="39.37405" lon="-8.51443833">
        <ele>15.0</ele>
        <time>2019-05-17T11:48:40.185Z</time>
      </trkpt>
      <trkpt lat="39.37405" lon="-8.51443833">
        <ele>15.0</ele>
        <time>2019-05-17T11:48:41.152Z</time>
      </trkpt>
      <trkpt lat="39.37405" lon="-8.51443833">
        <ele>15.0</ele>
        <time>2019-05-17T11:48:42.184Z</time>
      </trkpt>
      <trkpt lat="39.37405" lon="-8.51443833">
        <ele>15.0</ele>
        <time>2019-05-17T11:48:43.157Z</time>
      </trkpt>
      <trkpt lat="39.37405" lon="-8.51443833">
        <ele>15.0</ele>
        <time>2019-05-17T11:48:44.185Z</time>
      </trkpt>
      <trkpt lat="39.37405" lon="-8.51443833">
        <ele>15.0</ele>
        <time>2019-05-17T11:48:45.183Z</time>
      </trkpt>
      <trkpt lat="39.37405" lon="-8.51443833">
        <ele>15.0</ele>
        <time>2019-05-17T11:48:46.185Z</time>
      </trkpt>
      <trkpt lat="39.37405" lon="-8.51443833">
        <ele>15.0</ele>
        <time>2019-05-17T11:48:47.152Z</time>
      </trkpt>
      <trkpt lat="39.37405" lon="-8.51443833">
        <ele>15.0</ele>
        <time>2019-05-17T11:48:48.185Z</time>
      </trkpt>
      <trkpt lat="39.37405" lon="-8.51443833">
        <ele>15.0</ele>
        <time>2019-05-17T11:48:49.150Z</time>
      </trkpt>
      <trkpt lat="39.37405" lon="-8.51443833">
        <ele>15.0</ele>
        <time>2019-05-17T11:48:50.185Z</time>
      </trkpt>
      <trkpt lat="39.37405" lon="-8.51443833">
        <ele>15.0</ele>
        <time>2019-05-17T11:48:51.150Z</time>
      </trkpt>
      <trkpt lat="39.37405" lon="-8.51443833">
        <ele>15.0</ele>
        <time>2019-05-17T11:48:52.185Z</time>
      </trkpt>
      <trkpt lat="39.37405" lon="-8.51443833">
        <ele>15.0</ele>
        <time>2019-05-17T11:48:53.157Z</time>
      </trkpt>
      <trkpt lat="39.37405" lon="-8.51443833">
        <ele>15.0</ele>
        <time>2019-05-17T11:48:54.185Z</time>
      </trkpt>
      <trkpt lat="39.37405" lon="-8.51443833">
        <ele>15.0</ele>
        <time>2019-05-17T11:48:55.151Z</time>
      </trkpt>
      <trkpt lat="39.37405" lon="-8.51443833">
        <ele>15.0</ele>
        <time>2019-05-17T11:48:56.187Z</time>
      </trkpt>
      <trkpt lat="39.37405" lon="-8.51443833">
        <ele>15.0</ele>
        <time>2019-05-17T11:48:57.150Z</time>
      </trkpt>
      <trkpt lat="39.37405" lon="-8.51443833">
        <ele>15.0</ele>
        <time>2019-05-17T11:48:58.185Z</time>
      </trkpt>
      <trkpt lat="39.37405" lon="-8.51443833">
        <ele>15.0</ele>
        <time>2019-05-17T11:48:59.169Z</time>
      </trkpt>
      <trkpt lat="39.37405" lon="-8.51443833">
        <ele>15.0</ele>
        <time>2019-05-17T11:49:00.153Z</time>
      </trkpt>
      <trkpt lat="39.37405" lon="-8.51443833">
        <ele>15.0</ele>
        <time>2019-05-17T11:49:01.150Z</time>
      </trkpt>
      <trkpt lat="39.37405" lon="-8.51443833">
        <ele>15.0</ele>
        <time>2019-05-17T11:49:02.150Z</time>
      </trkpt>
      <trkpt lat="39.37405" lon="-8.51443833">
        <ele>15.0</ele>
        <time>2019-05-17T11:49:03.158Z</time>
      </trkpt>
      <trkpt lat="39.37405" lon="-8.51443833">
        <ele>15.0</ele>
        <time>2019-05-17T11:49:04.187Z</time>
      </trkpt>
      <trkpt lat="39.37405" lon="-8.51443833">
        <ele>15.0</ele>
        <time>2019-05-17T11:49:05.178Z</time>
      </trkpt>
      <trkpt lat="39.37405" lon="-8.51443833">
        <ele>15.0</ele>
        <time>2019-05-17T11:49:06.164Z</time>
      </trkpt>
      <trkpt lat="39.37405" lon="-8.51443833">
        <ele>15.0</ele>
        <time>2019-05-17T11:49:07.189Z</time>
      </trkpt>
      <trkpt lat="39.37405" lon="-8.51443833">
        <ele>15.0</ele>
        <time>2019-05-17T11:49:08.152Z</time>
      </trkpt>
      <trkpt lat="39.37405" lon="-8.51443833">
        <ele>15.0</ele>
        <time>2019-05-17T11:49:09.184Z</time>
      </trkpt>
      <trkpt lat="39.37405" lon="-8.51443833">
        <ele>15.0</ele>
        <time>2019-05-17T11:49:10.182Z</time>
      </trkpt>
      <trkpt lat="39.37405" lon="-8.51443833">
        <ele>15.0</ele>
        <time>2019-05-17T11:49:11.189Z</time>
      </trkpt>
      <trkpt lat="39.37405" lon="-8.51443833">
        <ele>15.0</ele>
        <time>2019-05-17T11:49:12.154Z</time>
      </trkpt>
      <trkpt lat="39.37405" lon="-8.51443833">
        <ele>15.0</ele>
        <time>2019-05-17T11:49:13.150Z</time>
      </trkpt>
      <trkpt lat="39.37405" lon="-8.51443833">
        <ele>15.0</ele>
        <time>2019-05-17T11:49:14.185Z</time>
      </trkpt>
      <trkpt lat="39.37405" lon="-8.51443833">
        <ele>15.0</ele>
        <time>2019-05-17T11:49:15.150Z</time>
      </trkpt>
      <trkpt lat="39.37405" lon="-8.51443833">
        <ele>15.0</ele>
        <time>2019-05-17T11:49:16.158Z</time>
      </trkpt>
      <trkpt lat="39.37405" lon="-8.51443833">
        <ele>15.0</ele>
        <time>2019-05-17T11:49:17.165Z</time>
      </trkpt>
      <trkpt lat="39.37405" lon="-8.51443833">
        <ele>15.0</ele>
        <time>2019-05-17T11:49:18.189Z</time>
      </trkpt>
      <trkpt lat="39.37405" lon="-8.51443833">
        <ele>15.0</ele>
        <time>2019-05-17T11:49:19.150Z</time>
      </trkpt>
      <trkpt lat="39.37405" lon="-8.51443833">
        <ele>15.0</ele>
        <time>2019-05-17T11:49:20.186Z</time>
      </trkpt>
      <trkpt lat="39.37405" lon="-8.51443833">
        <ele>15.0</ele>
        <time>2019-05-17T11:49:21.188Z</time>
      </trkpt>
      <trkpt lat="39.37405" lon="-8.51443833">
        <ele>15.0</ele>
        <time>2019-05-17T11:49:22.186Z</time>
      </trkpt>
      <trkpt lat="39.37405" lon="-8.51443833">
        <ele>15.0</ele>
        <time>2019-05-17T11:49:23.153Z</time>
      </trkpt>
      <trkpt lat="39.37405" lon="-8.51443833">
        <ele>15.0</ele>
        <time>2019-05-17T11:49:24.185Z</time>
      </trkpt>
      <trkpt lat="39.37405" lon="-8.51443833">
        <ele>15.0</ele>
        <time>2019-05-17T11:49:25.150Z</time>
      </trkpt>
      <trkpt lat="39.37405" lon="-8.51443833">
        <ele>15.0</ele>
        <time>2019-05-17T11:49:26.186Z</time>
      </trkpt>
      <trkpt lat="39.37405" lon="-8.51443833">
        <ele>15.0</ele>
        <time>2019-05-17T11:49:27.150Z</time>
      </trkpt>
      <trkpt lat="39.37405" lon="-8.51443833">
        <ele>15.0</ele>
        <time>2019-05-17T11:49:28.186Z</time>
      </trkpt>
      <trkpt lat="39.37405" lon="-8.51443833">
        <ele>15.0</ele>
        <time>2019-05-17T11:49:29.153Z</time>
      </trkpt>
      <trkpt lat="39.37405" lon="-8.51443833">
        <ele>15.0</ele>
        <time>2019-05-17T11:49:30.185Z</time>
      </trkpt>
      <trkpt lat="39.37405" lon="-8.51443833">
        <ele>15.0</ele>
        <time>2019-05-17T11:49:31.150Z</time>
      </trkpt>
      <trkpt lat="39.37405" lon="-8.51443833">
        <ele>15.0</ele>
        <time>2019-05-17T11:49:32.186Z</time>
      </trkpt>
      <trkpt lat="39.37405" lon="-8.51443833">
        <ele>15.0</ele>
        <time>2019-05-17T11:49:33.170Z</time>
      </trkpt>
      <trkpt lat="39.37405" lon="-8.51443833">
        <ele>15.0</ele>
        <time>2019-05-17T11:49:34.154Z</time>
      </trkpt>
      <trkpt lat="39.37405" lon="-8.51443833">
        <ele>15.0</ele>
        <time>2019-05-17T11:49:35.152Z</time>
      </trkpt>
      <trkpt lat="39.37405" lon="-8.51443833">
        <ele>15.0</ele>
        <time>2019-05-17T11:49:36.187Z</time>
      </trkpt>
      <trkpt lat="39.37405" lon="-8.51443833">
        <ele>15.0</ele>
        <time>2019-05-17T11:49:37.150Z</time>
      </trkpt>
      <trkpt lat="39.37405" lon="-8.51443833">
        <ele>15.0</ele>
        <time>2019-05-17T11:49:38.188Z</time>
      </trkpt>
      <trkpt lat="39.37405" lon="-8.51443833">
        <ele>15.0</ele>
        <time>2019-05-17T11:49:39.189Z</time>
      </trkpt>
      <trkpt lat="39.37405" lon="-8.51443833">
        <ele>15.0</ele>
        <time>2019-05-17T11:49:40.184Z</time>
      </trkpt>
      <trkpt lat="39.37405" lon="-8.51443833">
        <ele>15.0</ele>
        <time>2019-05-17T11:49:41.173Z</time>
      </trkpt>
      <trkpt lat="39.37405" lon="-8.51443833">
        <ele>15.0</ele>
        <time>2019-05-17T11:49:42.158Z</time>
      </trkpt>
      <trkpt lat="39.37405" lon="-8.51443833">
        <ele>15.0</ele>
        <time>2019-05-17T11:49:43.150Z</time>
      </trkpt>
      <trkpt lat="39.37405" lon="-8.51443833">
        <ele>15.0</ele>
        <time>2019-05-17T11:49:44.186Z</time>
      </trkpt>
      <trkpt lat="39.37405" lon="-8.51443833">
        <ele>15.0</ele>
        <time>2019-05-17T11:49:45.189Z</time>
      </trkpt>
      <trkpt lat="39.37405" lon="-8.51443833">
        <ele>15.0</ele>
        <time>2019-05-17T11:49:46.185Z</time>
      </trkpt>
      <trkpt lat="39.37405" lon="-8.51443833">
        <ele>15.0</ele>
        <time>2019-05-17T11:49:47.153Z</time>
      </trkpt>
      <trkpt lat="39.37405" lon="-8.51443833">
        <ele>15.0</ele>
        <time>2019-05-17T11:49:48.185Z</time>
      </trkpt>
      <trkpt lat="39.37405" lon="-8.51443833">
        <ele>15.0</ele>
        <time>2019-05-17T11:49:49.150Z</time>
      </trkpt>
      <trkpt lat="39.37405" lon="-8.51443833">
        <ele>15.0</ele>
        <time>2019-05-17T11:49:50.185Z</time>
      </trkpt>
      <trkpt lat="39.37405" lon="-8.51443833">
        <ele>15.0</ele>
        <time>2019-05-17T11:49:51.190Z</time>
      </trkpt>
      <trkpt lat="39.37405" lon="-8.51443833">
        <ele>15.0</ele>
        <time>2019-05-17T11:49:52.185Z</time>
      </trkpt>
      <trkpt lat="39.37405" lon="-8.51443833">
        <ele>15.0</ele>
        <time>2019-05-17T11:49:53.152Z</time>
      </trkpt>
      <trkpt lat="39.37405" lon="-8.51443833">
        <ele>15.0</ele>
        <time>2019-05-17T11:49:54.180Z</time>
      </trkpt>
      <trkpt lat="39.37405" lon="-8.51443833">
        <ele>15.0</ele>
        <time>2019-05-17T11:49:55.164Z</time>
      </trkpt>
      <trkpt lat="39.37405" lon="-8.51443833">
        <ele>15.0</ele>
        <time>2019-05-17T11:49:56.189Z</time>
      </trkpt>
      <trkpt lat="39.37405" lon="-8.51443833">
        <ele>15.0</ele>
        <time>2019-05-17T11:49:57.189Z</time>
      </trkpt>
      <trkpt lat="39.37405" lon="-8.51443833">
        <ele>15.0</ele>
        <time>2019-05-17T11:49:58.185Z</time>
      </trkpt>
      <trkpt lat="39.37405" lon="-8.51443833">
        <ele>15.0</ele>
        <time>2019-05-17T11:49:59.169Z</time>
      </trkpt>
      <trkpt lat="39.37405" lon="-8.51443833">
        <ele>15.0</ele>
        <time>2019-05-17T11:50:00.153Z</time>
      </trkpt>
      <trkpt lat="39.37405" lon="-8.51443833">
        <ele>15.0</ele>
        <time>2019-05-17T11:50:01.168Z</time>
      </trkpt>
      <trkpt lat="39.37405" lon="-8.51443833">
        <ele>15.0</ele>
        <time>2019-05-17T11:50:02.153Z</time>
      </trkpt>
      <trkpt lat="39.37405" lon="-8.51443833">
        <ele>15.0</ele>
        <time>2019-05-17T11:50:03.150Z</time>
      </trkpt>
      <trkpt lat="39.37405" lon="-8.51443833">
        <ele>15.0</ele>
        <time>2019-05-17T11:50:04.189Z</time>
      </trkpt>
      <trkpt lat="39.37405" lon="-8.51443833">
        <ele>15.0</ele>
        <time>2019-05-17T11:50:05.190Z</time>
      </trkpt>
      <trkpt lat="39.37405" lon="-8.51443833">
        <ele>15.0</ele>
        <time>2019-05-17T11:50:06.158Z</time>
      </trkpt>
      <trkpt lat="39.37405" lon="-8.51443833">
        <ele>15.0</ele>
        <time>2019-05-17T11:50:07.151Z</time>
      </trkpt>
      <trkpt lat="39.37405" lon="-8.51443833">
        <ele>15.0</ele>
        <time>2019-05-17T11:50:08.185Z</time>
      </trkpt>
      <trkpt lat="39.37405" lon="-8.51443833">
        <ele>15.0</ele>
        <time>2019-05-17T11:50:09.184Z</time>
      </trkpt>
      <trkpt lat="39.37405" lon="-8.51443833">
        <ele>15.0</ele>
        <time>2019-05-17T11:50:10.187Z</time>
      </trkpt>
      <trkpt lat="39.37405" lon="-8.51443833">
        <ele>15.0</ele>
        <time>2019-05-17T11:50:11.172Z</time>
      </trkpt>
      <trkpt lat="39.37405" lon="-8.51443833">
        <ele>15.0</ele>
        <time>2019-05-17T11:50:12.156Z</time>
      </trkpt>
      <trkpt lat="39.37405" lon="-8.51443833">
        <ele>15.0</ele>
        <time>2019-05-17T11:50:13.150Z</time>
      </trkpt>
      <trkpt lat="39.37405" lon="-8.51443833">
        <ele>15.0</ele>
        <time>2019-05-17T11:50:14.185Z</time>
      </trkpt>
      <trkpt lat="39.37405" lon="-8.51443833">
        <ele>15.0</ele>
        <time>2019-05-17T11:50:15.150Z</time>
      </trkpt>
      <trkpt lat="39.37405" lon="-8.51443833">
        <ele>15.0</ele>
        <time>2019-05-17T11:50:16.186Z</time>
      </trkpt>
      <trkpt lat="39.37405" lon="-8.51443833">
        <ele>15.0</ele>
        <time>2019-05-17T11:50:17.163Z</time>
      </trkpt>
      <trkpt lat="39.37405" lon="-8.51443833">
        <ele>15.0</ele>
        <time>2019-05-17T11:50:18.150Z</time>
      </trkpt>
      <trkpt lat="39.37405" lon="-8.51443833">
        <ele>15.0</ele>
        <time>2019-05-17T11:50:19.185Z</time>
      </trkpt>
      <trkpt lat="39.37405" lon="-8.51443833">
        <ele>15.0</ele>
        <time>2019-05-17T11:50:20.150Z</time>
      </trkpt>
      <trkpt lat="39.37405" lon="-8.51443833">
        <ele>15.0</ele>
        <time>2019-05-17T11:50:21.185Z</time>
      </trkpt>
      <trkpt lat="39.37405" lon="-8.51443833">
        <ele>15.0</ele>
        <time>2019-05-17T11:50:22.187Z</time>
      </trkpt>
      <trkpt lat="39.37405" lon="-8.51443833">
        <ele>15.0</ele>
        <time>2019-05-17T11:50:23.153Z</time>
      </trkpt>
      <trkpt lat="39.37405" lon="-8.51443833">
        <ele>15.0</ele>
        <time>2019-05-17T11:50:24.185Z</time>
      </trkpt>
      <trkpt lat="39.37405" lon="-8.51443833">
        <ele>15.0</ele>
        <time>2019-05-17T11:50:25.150Z</time>
      </trkpt>
      <trkpt lat="39.37405" lon="-8.51443833">
        <ele>15.0</ele>
        <time>2019-05-17T11:50:26.185Z</time>
      </trkpt>
      <trkpt lat="39.37405" lon="-8.51443833">
        <ele>15.0</ele>
        <time>2019-05-17T11:50:27.190Z</time>
      </trkpt>
      <trkpt lat="39.37405" lon="-8.51443833">
        <ele>15.0</ele>
        <time>2019-05-17T11:50:28.185Z</time>
      </trkpt>
      <trkpt lat="39.37405" lon="-8.51443833">
        <ele>15.0</ele>
        <time>2019-05-17T11:50:29.153Z</time>
      </trkpt>
      <trkpt lat="39.37405" lon="-8.51443833">
        <ele>15.0</ele>
        <time>2019-05-17T11:50:30.185Z</time>
      </trkpt>
      <trkpt lat="39.37405333" lon="-8.51447">
        <ele>18.0</ele>
        <time>2019-05-17T11:50:31.170Z</time>
      </trkpt>
      <trkpt lat="39.37405333" lon="-8.51447">
        <ele>18.0</ele>
        <time>2019-05-17T11:50:32.155Z</time>
      </trkpt>
      <trkpt lat="39.37407333" lon="-8.51445333">
        <ele>17.0</ele>
        <time>2019-05-17T11:50:33.150Z</time>
      </trkpt>
      <trkpt lat="39.37407333" lon="-8.51445333">
        <ele>17.0</ele>
        <time>2019-05-17T11:50:34.185Z</time>
      </trkpt>
      <trkpt lat="39.37410167" lon="-8.51443">
        <ele>17.0</ele>
        <time>2019-05-17T11:50:35.152Z</time>
      </trkpt>
      <trkpt lat="39.37410167" lon="-8.51443">
        <ele>17.0</ele>
        <time>2019-05-17T11:50:36.185Z</time>
      </trkpt>
      <trkpt lat="39.37413667" lon="-8.51438833">
        <ele>17.0</ele>
        <time>2019-05-17T11:50:37.152Z</time>
      </trkpt>
      <trkpt lat="39.37413667" lon="-8.51438833">
        <ele>17.0</ele>
        <time>2019-05-17T11:50:38.185Z</time>
      </trkpt>
      <trkpt lat="39.37417" lon="-8.51435167">
        <ele>17.0</ele>
        <time>2019-05-17T11:50:39.189Z</time>
      </trkpt>
      <trkpt lat="39.37417" lon="-8.51435167">
        <ele>17.0</ele>
        <time>2019-05-17T11:50:40.185Z</time>
      </trkpt>
      <trkpt lat="39.374205" lon="-8.514315">
        <ele>16.0</ele>
        <time>2019-05-17T11:50:41.156Z</time>
      </trkpt>
      <trkpt lat="39.374205" lon="-8.514315">
        <ele>16.0</ele>
        <time>2019-05-17T11:50:42.168Z</time>
      </trkpt>
      <trkpt lat="39.374245" lon="-8.51426833">
        <ele>16.0</ele>
        <time>2019-05-17T11:50:43.162Z</time>
      </trkpt>
      <trkpt lat="39.374245" lon="-8.51426833">
        <ele>16.0</ele>
        <time>2019-05-17T11:50:44.177Z</time>
      </trkpt>
      <trkpt lat="39.37429333" lon="-8.51422333">
        <ele>16.0</ele>
        <time>2019-05-17T11:50:45.157Z</time>
      </trkpt>
      <trkpt lat="39.37429333" lon="-8.51422333">
        <ele>16.0</ele>
        <time>2019-05-17T11:50:46.163Z</time>
      </trkpt>
      <trkpt lat="39.37434333" lon="-8.51417667">
        <ele>16.0</ele>
        <time>2019-05-17T11:50:47.184Z</time>
      </trkpt>
      <trkpt lat="39.37434333" lon="-8.51417667">
        <ele>16.0</ele>
        <time>2019-05-17T11:50:48.150Z</time>
      </trkpt>
      <trkpt lat="39.37439333" lon="-8.514125">
        <ele>16.0</ele>
        <time>2019-05-17T11:50:49.171Z</time>
      </trkpt>
      <trkpt lat="39.37439333" lon="-8.514125">
        <ele>16.0</ele>
        <time>2019-05-17T11:50:50.185Z</time>
      </trkpt>
      <trkpt lat="39.374445" lon="-8.51407667">
        <ele>16.0</ele>
        <time>2019-05-17T11:50:51.164Z</time>
      </trkpt>
      <trkpt lat="39.374445" lon="-8.51407667">
        <ele>16.0</ele>
        <time>2019-05-17T11:50:52.177Z</time>
      </trkpt>
      <trkpt lat="39.37449667" lon="-8.51402167">
        <ele>16.0</ele>
        <time>2019-05-17T11:50:53.166Z</time>
      </trkpt>
      <trkpt lat="39.37449667" lon="-8.51402167">
        <ele>16.0</ele>
        <time>2019-05-17T11:50:54.188Z</time>
      </trkpt>
      <trkpt lat="39.37454667" lon="-8.51397">
        <ele>16.0</ele>
        <time>2019-05-17T11:50:55.166Z</time>
      </trkpt>
      <trkpt lat="39.37454667" lon="-8.51397">
        <ele>16.0</ele>
        <time>2019-05-17T11:50:56.180Z</time>
      </trkpt>
      <trkpt lat="39.37459667" lon="-8.51392">
        <ele>15.0</ele>
        <time>2019-05-17T11:50:57.156Z</time>
      </trkpt>
      <trkpt lat="39.37462333" lon="-8.51389667">
        <ele>15.0</ele>
        <time>2019-05-17T11:50:58.181Z</time>
      </trkpt>
      <trkpt lat="39.37464833" lon="-8.51387">
        <ele>15.0</ele>
        <time>2019-05-17T11:50:59.171Z</time>
      </trkpt>
      <trkpt lat="39.37464833" lon="-8.51387">
        <ele>15.0</ele>
        <time>2019-05-17T11:51:00.176Z</time>
      </trkpt>
      <trkpt lat="39.37469833" lon="-8.51382">
        <ele>15.0</ele>
        <time>2019-05-17T11:51:01.153Z</time>
      </trkpt>
      <trkpt lat="39.374725" lon="-8.51379667">
        <ele>15.0</ele>
        <time>2019-05-17T11:51:02.172Z</time>
      </trkpt>
      <trkpt lat="39.374725" lon="-8.51379667">
        <ele>15.0</ele>
        <time>2019-05-17T11:51:03.179Z</time>
      </trkpt>
      <trkpt lat="39.37478" lon="-8.513745">
        <ele>15.0</ele>
        <time>2019-05-17T11:51:04.155Z</time>
      </trkpt>
      <trkpt lat="39.37480833" lon="-8.51371667">
        <ele>16.0</ele>
        <time>2019-05-17T11:51:05.189Z</time>
      </trkpt>
      <trkpt lat="39.37480833" lon="-8.51371667">
        <ele>16.0</ele>
        <time>2019-05-17T11:51:06.179Z</time>
      </trkpt>
      <trkpt lat="39.37486833" lon="-8.51366167">
        <ele>15.0</ele>
        <time>2019-05-17T11:51:07.162Z</time>
      </trkpt>
      <trkpt lat="39.3749" lon="-8.513635">
        <ele>15.0</ele>
        <time>2019-05-17T11:51:08.177Z</time>
      </trkpt>
      <trkpt lat="39.3749" lon="-8.513635">
        <ele>15.0</ele>
        <time>2019-05-17T11:51:09.167Z</time>
      </trkpt>
      <trkpt lat="39.37496167" lon="-8.51357833">
        <ele>16.0</ele>
        <time>2019-05-17T11:51:10.164Z</time>
      </trkpt>
      <trkpt lat="39.37499167" lon="-8.51354833">
        <ele>16.0</ele>
        <time>2019-05-17T11:51:11.188Z</time>
      </trkpt>
      <trkpt lat="39.37499167" lon="-8.51354833">
        <ele>16.0</ele>
        <time>2019-05-17T11:51:12.178Z</time>
      </trkpt>
      <trkpt lat="39.37505333" lon="-8.51348667">
        <ele>16.0</ele>
        <time>2019-05-17T11:51:13.157Z</time>
      </trkpt>
      <trkpt lat="39.37505333" lon="-8.51348667">
        <ele>16.0</ele>
        <time>2019-05-17T11:51:14.186Z</time>
      </trkpt>
      <trkpt lat="39.37511833" lon="-8.513425">
        <ele>16.0</ele>
        <time>2019-05-17T11:51:15.177Z</time>
      </trkpt>
      <trkpt lat="39.37515333" lon="-8.513395">
        <ele>16.0</ele>
        <time>2019-05-17T11:51:16.171Z</time>
      </trkpt>
      <trkpt lat="39.37518667" lon="-8.513365">
        <ele>16.0</ele>
        <time>2019-05-17T11:51:17.169Z</time>
      </trkpt>
      <trkpt lat="39.37518667" lon="-8.513365">
        <ele>16.0</ele>
        <time>2019-05-17T11:51:18.151Z</time>
      </trkpt>
      <trkpt lat="39.37525667" lon="-8.51330167">
        <ele>16.0</ele>
        <time>2019-05-17T11:51:19.176Z</time>
      </trkpt>
      <trkpt lat="39.37525667" lon="-8.51330167">
        <ele>16.0</ele>
        <time>2019-05-17T11:51:20.189Z</time>
      </trkpt>
      <trkpt lat="39.37532667" lon="-8.51323667">
        <ele>16.0</ele>
        <time>2019-05-17T11:51:21.173Z</time>
      </trkpt>
      <trkpt lat="39.37536" lon="-8.51320333">
        <ele>16.0</ele>
        <time>2019-05-17T11:51:22.171Z</time>
      </trkpt>
      <trkpt lat="39.37539333" lon="-8.51317333">
        <ele>16.0</ele>
        <time>2019-05-17T11:51:23.160Z</time>
      </trkpt>
      <trkpt lat="39.37539333" lon="-8.51317333">
        <ele>16.0</ele>
        <time>2019-05-17T11:51:24.178Z</time>
      </trkpt>
      <trkpt lat="39.37546167" lon="-8.51311">
        <ele>16.0</ele>
        <time>2019-05-17T11:51:25.162Z</time>
      </trkpt>
      <trkpt lat="39.37546167" lon="-8.51311">
        <ele>16.0</ele>
        <time>2019-05-17T11:51:26.183Z</time>
      </trkpt>
      <trkpt lat="39.37553167" lon="-8.51304667">
        <ele>16.0</ele>
        <time>2019-05-17T11:51:27.166Z</time>
      </trkpt>
      <trkpt lat="39.37556667" lon="-8.51301167">
        <ele>16.0</ele>
        <time>2019-05-17T11:51:28.167Z</time>
      </trkpt>
      <trkpt lat="39.3756" lon="-8.51297667">
        <ele>16.0</ele>
        <time>2019-05-17T11:51:29.167Z</time>
      </trkpt>
      <trkpt lat="39.3756" lon="-8.51297667">
        <ele>16.0</ele>
        <time>2019-05-17T11:51:30.177Z</time>
      </trkpt>
      <trkpt lat="39.37566833" lon="-8.51291333">
        <ele>16.0</ele>
        <time>2019-05-17T11:51:31.154Z</time>
      </trkpt>
      <trkpt lat="39.37566833" lon="-8.51291333">
        <ele>16.0</ele>
        <time>2019-05-17T11:51:32.163Z</time>
      </trkpt>
      <trkpt lat="39.37573167" lon="-8.51284667">
        <ele>16.0</ele>
        <time>2019-05-17T11:51:33.182Z</time>
      </trkpt>
      <trkpt lat="39.37576333" lon="-8.51281333">
        <ele>16.0</ele>
        <time>2019-05-17T11:51:34.168Z</time>
      </trkpt>
      <trkpt lat="39.375795" lon="-8.51278167">
        <ele>16.0</ele>
        <time>2019-05-17T11:51:35.187Z</time>
      </trkpt>
      <trkpt lat="39.375795" lon="-8.51278167">
        <ele>16.0</ele>
        <time>2019-05-17T11:51:36.171Z</time>
      </trkpt>
      <trkpt lat="39.37585833" lon="-8.51272">
        <ele>15.0</ele>
        <time>2019-05-17T11:51:37.153Z</time>
      </trkpt>
      <trkpt lat="39.37585833" lon="-8.51272">
        <ele>15.0</ele>
        <time>2019-05-17T11:51:38.165Z</time>
      </trkpt>
      <trkpt lat="39.37591833" lon="-8.51266167">
        <ele>16.0</ele>
        <time>2019-05-17T11:51:39.189Z</time>
      </trkpt>
      <trkpt lat="39.37591833" lon="-8.51266167">
        <ele>16.0</ele>
        <time>2019-05-17T11:51:40.161Z</time>
      </trkpt>
      <trkpt lat="39.375975" lon="-8.51259667">
        <ele>15.0</ele>
        <time>2019-05-17T11:51:41.185Z</time>
      </trkpt>
      <trkpt lat="39.375975" lon="-8.51259667">
        <ele>15.0</ele>
        <time>2019-05-17T11:51:42.153Z</time>
      </trkpt>
      <trkpt lat="39.376035" lon="-8.51254">
        <ele>15.0</ele>
        <time>2019-05-17T11:51:43.164Z</time>
      </trkpt>
      <trkpt lat="39.37606333" lon="-8.51251">
        <ele>15.0</ele>
        <time>2019-05-17T11:51:44.183Z</time>
      </trkpt>
      <trkpt lat="39.37606333" lon="-8.51251">
        <ele>15.0</ele>
        <time>2019-05-17T11:51:45.151Z</time>
      </trkpt>
      <trkpt lat="39.37612167" lon="-8.51244333">
        <ele>15.0</ele>
        <time>2019-05-17T11:51:46.174Z</time>
      </trkpt>
      <trkpt lat="39.37615" lon="-8.51241167">
        <ele>15.0</ele>
        <time>2019-05-17T11:51:47.172Z</time>
      </trkpt>
      <trkpt lat="39.37615" lon="-8.51241167">
        <ele>15.0</ele>
        <time>2019-05-17T11:51:48.152Z</time>
      </trkpt>
      <trkpt lat="39.37620667" lon="-8.51235167">
        <ele>15.0</ele>
        <time>2019-05-17T11:51:49.177Z</time>
      </trkpt>
      <trkpt lat="39.37620667" lon="-8.51235167">
        <ele>15.0</ele>
        <time>2019-05-17T11:51:50.157Z</time>
      </trkpt>
      <trkpt lat="39.37627" lon="-8.51229333">
        <ele>15.0</ele>
        <time>2019-05-17T11:51:51.176Z</time>
      </trkpt>
      <trkpt lat="39.37629833" lon="-8.51226">
        <ele>16.0</ele>
        <time>2019-05-17T11:51:52.177Z</time>
      </trkpt>
      <trkpt lat="39.37632833" lon="-8.51223">
        <ele>15.0</ele>
        <time>2019-05-17T11:51:53.158Z</time>
      </trkpt>
      <trkpt lat="39.37632833" lon="-8.51223">
        <ele>15.0</ele>
        <time>2019-05-17T11:51:54.169Z</time>
      </trkpt>
      <trkpt lat="39.37638667" lon="-8.51216833">
        <ele>15.0</ele>
        <time>2019-05-17T11:51:55.190Z</time>
      </trkpt>
      <trkpt lat="39.376415" lon="-8.512135">
        <ele>15.0</ele>
        <time>2019-05-17T11:51:56.183Z</time>
      </trkpt>
      <trkpt lat="39.376415" lon="-8.512135">
        <ele>15.0</ele>
        <time>2019-05-17T11:51:57.170Z</time>
      </trkpt>
      <trkpt lat="39.37647333" lon="-8.512075">
        <ele>15.0</ele>
        <time>2019-05-17T11:51:58.154Z</time>
      </trkpt>
      <trkpt lat="39.37650333" lon="-8.51204667">
        <ele>15.0</ele>
        <time>2019-05-17T11:51:59.151Z</time>
      </trkpt>
      <trkpt lat="39.37650333" lon="-8.51204667">
        <ele>15.0</ele>
        <time>2019-05-17T11:52:00.167Z</time>
      </trkpt>
      <trkpt lat="39.37656167" lon="-8.51198667">
        <ele>15.0</ele>
        <time>2019-05-17T11:52:01.153Z</time>
      </trkpt>
      <trkpt lat="39.37656167" lon="-8.51198667">
        <ele>15.0</ele>
        <time>2019-05-17T11:52:02.158Z</time>
      </trkpt>
      <trkpt lat="39.37662" lon="-8.51192833">
        <ele>15.0</ele>
        <time>2019-05-17T11:52:03.183Z</time>
      </trkpt>
      <trkpt lat="39.37664833" lon="-8.5119">
        <ele>15.0</ele>
        <time>2019-05-17T11:52:04.164Z</time>
      </trkpt>
      <trkpt lat="39.37667833" lon="-8.51187">
        <ele>15.0</ele>
        <time>2019-05-17T11:52:05.182Z</time>
      </trkpt>
      <trkpt lat="39.37667833" lon="-8.51187">
        <ele>15.0</ele>
        <time>2019-05-17T11:52:06.187Z</time>
      </trkpt>
      <trkpt lat="39.37674" lon="-8.51181333">
        <ele>15.0</ele>
        <time>2019-05-17T11:52:07.166Z</time>
      </trkpt>
      <trkpt lat="39.37674" lon="-8.51181333">
        <ele>15.0</ele>
        <time>2019-05-17T11:52:08.154Z</time>
      </trkpt>
      <trkpt lat="39.37680333" lon="-8.51175167">
        <ele>15.0</ele>
        <time>2019-05-17T11:52:09.157Z</time>
      </trkpt>
      <trkpt lat="39.37680333" lon="-8.51175167">
        <ele>15.0</ele>
        <time>2019-05-17T11:52:10.185Z</time>
      </trkpt>
      <trkpt lat="39.376865" lon="-8.51169333">
        <ele>15.0</ele>
        <time>2019-05-17T11:52:11.174Z</time>
      </trkpt>
      <trkpt lat="39.376865" lon="-8.51169333">
        <ele>15.0</ele>
        <time>2019-05-17T11:52:12.184Z</time>
      </trkpt>
      <trkpt lat="39.37692667" lon="-8.511635">
        <ele>16.0</ele>
        <time>2019-05-17T11:52:13.155Z</time>
      </trkpt>
      <trkpt lat="39.37692667" lon="-8.511635">
        <ele>16.0</ele>
        <time>2019-05-17T11:52:14.160Z</time>
      </trkpt>
      <trkpt lat="39.37698167" lon="-8.51157333">
        <ele>15.0</ele>
        <time>2019-05-17T11:52:15.189Z</time>
      </trkpt>
      <trkpt lat="39.37698167" lon="-8.51157333">
        <ele>15.0</ele>
        <time>2019-05-17T11:52:16.154Z</time>
      </trkpt>
      <trkpt lat="39.37703667" lon="-8.51152">
        <ele>15.0</ele>
        <time>2019-05-17T11:52:17.187Z</time>
      </trkpt>
      <trkpt lat="39.37703667" lon="-8.51152">
        <ele>15.0</ele>
        <time>2019-05-17T11:52:18.154Z</time>
      </trkpt>
      <trkpt lat="39.37709" lon="-8.511465">
        <ele>15.0</ele>
        <time>2019-05-17T11:52:19.172Z</time>
      </trkpt>
      <trkpt lat="39.37711833" lon="-8.51143833">
        <ele>15.0</ele>
        <time>2019-05-17T11:52:20.167Z</time>
      </trkpt>
      <trkpt lat="39.37711833" lon="-8.51143833">
        <ele>15.0</ele>
        <time>2019-05-17T11:52:21.174Z</time>
      </trkpt>
      <trkpt lat="39.37717833" lon="-8.51137833">
        <ele>15.0</ele>
        <time>2019-05-17T11:52:22.155Z</time>
      </trkpt>
      <trkpt lat="39.37720833" lon="-8.51135">
        <ele>15.0</ele>
        <time>2019-05-17T11:52:23.155Z</time>
      </trkpt>
      <trkpt lat="39.37720833" lon="-8.51135">
        <ele>15.0</ele>
        <time>2019-05-17T11:52:24.171Z</time>
      </trkpt>
      <trkpt lat="39.37726833" lon="-8.51129333">
        <ele>15.0</ele>
        <time>2019-05-17T11:52:25.155Z</time>
      </trkpt>
      <trkpt lat="39.37726833" lon="-8.51129333">
        <ele>15.0</ele>
        <time>2019-05-17T11:52:26.169Z</time>
      </trkpt>
      <trkpt lat="39.37732333" lon="-8.51124">
        <ele>15.0</ele>
        <time>2019-05-17T11:52:27.189Z</time>
      </trkpt>
      <trkpt lat="39.37732333" lon="-8.51124">
        <ele>15.0</ele>
        <time>2019-05-17T11:52:28.160Z</time>
      </trkpt>
      <trkpt lat="39.37738333" lon="-8.51118833">
        <ele>15.0</ele>
        <time>2019-05-17T11:52:29.187Z</time>
      </trkpt>
      <trkpt lat="39.37738333" lon="-8.51118833">
        <ele>15.0</ele>
        <time>2019-05-17T11:52:30.152Z</time>
      </trkpt>
      <trkpt lat="39.37744333" lon="-8.51113167">
        <ele>15.0</ele>
        <time>2019-05-17T11:52:31.173Z</time>
      </trkpt>
      <trkpt lat="39.37744333" lon="-8.51113167">
        <ele>15.0</ele>
        <time>2019-05-17T11:52:32.155Z</time>
      </trkpt>
      <trkpt lat="39.37750167" lon="-8.51107833">
        <ele>15.0</ele>
        <time>2019-05-17T11:52:33.180Z</time>
      </trkpt>
      <trkpt lat="39.37750167" lon="-8.51107833">
        <ele>15.0</ele>
        <time>2019-05-17T11:52:34.152Z</time>
      </trkpt>
      <trkpt lat="39.37756" lon="-8.51102">
        <ele>15.0</ele>
        <time>2019-05-17T11:52:35.166Z</time>
      </trkpt>
      <trkpt lat="39.37756" lon="-8.51102">
        <ele>15.0</ele>
        <time>2019-05-17T11:52:36.172Z</time>
      </trkpt>
      <trkpt lat="39.37761833" lon="-8.510965">
        <ele>15.0</ele>
        <time>2019-05-17T11:52:37.152Z</time>
      </trkpt>
      <trkpt lat="39.37764833" lon="-8.510935">
        <ele>15.0</ele>
        <time>2019-05-17T11:52:38.180Z</time>
      </trkpt>
      <trkpt lat="39.37764833" lon="-8.510935">
        <ele>15.0</ele>
        <time>2019-05-17T11:52:39.186Z</time>
      </trkpt>
      <trkpt lat="39.37770667" lon="-8.51087667">
        <ele>15.0</ele>
        <time>2019-05-17T11:52:40.171Z</time>
      </trkpt>
      <trkpt lat="39.37773833" lon="-8.51085">
        <ele>14.0</ele>
        <time>2019-05-17T11:52:41.178Z</time>
      </trkpt>
      <trkpt lat="39.37773833" lon="-8.51085">
        <ele>14.0</ele>
        <time>2019-05-17T11:52:42.183Z</time>
      </trkpt>
      <trkpt lat="39.3778" lon="-8.51079167">
        <ele>14.0</ele>
        <time>2019-05-17T11:52:43.161Z</time>
      </trkpt>
      <trkpt lat="39.3778" lon="-8.51079167">
        <ele>14.0</ele>
        <time>2019-05-17T11:52:44.175Z</time>
      </trkpt>
      <trkpt lat="39.37786167" lon="-8.51073">
        <ele>15.0</ele>
        <time>2019-05-17T11:52:45.155Z</time>
      </trkpt>
      <trkpt lat="39.37786167" lon="-8.51073">
        <ele>15.0</ele>
        <time>2019-05-17T11:52:46.161Z</time>
      </trkpt>
      <trkpt lat="39.37792667" lon="-8.51066667">
        <ele>15.0</ele>
        <time>2019-05-17T11:52:47.182Z</time>
      </trkpt>
      <trkpt lat="39.37792667" lon="-8.51066667">
        <ele>15.0</ele>
        <time>2019-05-17T11:52:48.165Z</time>
      </trkpt>
      <trkpt lat="39.37799" lon="-8.51060333">
        <ele>15.0</ele>
        <time>2019-05-17T11:52:49.151Z</time>
      </trkpt>
      <trkpt lat="39.37799" lon="-8.51060333">
        <ele>15.0</ele>
        <time>2019-05-17T11:52:50.188Z</time>
      </trkpt>
      <trkpt lat="39.37805333" lon="-8.51054167">
        <ele>15.0</ele>
        <time>2019-05-17T11:52:51.177Z</time>
      </trkpt>
      <trkpt lat="39.37805333" lon="-8.51054167">
        <ele>15.0</ele>
        <time>2019-05-17T11:52:52.182Z</time>
      </trkpt>
      <trkpt lat="39.37811667" lon="-8.51048333">
        <ele>15.0</ele>
        <time>2019-05-17T11:52:53.168Z</time>
      </trkpt>
      <trkpt lat="39.37811667" lon="-8.51048333">
        <ele>15.0</ele>
        <time>2019-05-17T11:52:54.173Z</time>
      </trkpt>
      <trkpt lat="39.37818167" lon="-8.51042167">
        <ele>15.0</ele>
        <time>2019-05-17T11:52:55.155Z</time>
      </trkpt>
      <trkpt lat="39.37818167" lon="-8.51042167">
        <ele>15.0</ele>
        <time>2019-05-17T11:52:56.160Z</time>
      </trkpt>
      <trkpt lat="39.37824833" lon="-8.51036">
        <ele>15.0</ele>
        <time>2019-05-17T11:52:57.186Z</time>
      </trkpt>
      <trkpt lat="39.37824833" lon="-8.51036">
        <ele>15.0</ele>
        <time>2019-05-17T11:52:58.154Z</time>
      </trkpt>
      <trkpt lat="39.37831333" lon="-8.51029833">
        <ele>16.0</ele>
        <time>2019-05-17T11:52:59.177Z</time>
      </trkpt>
      <trkpt lat="39.37831333" lon="-8.51029833">
        <ele>16.0</ele>
        <time>2019-05-17T11:53:00.152Z</time>
      </trkpt>
      <trkpt lat="39.378375" lon="-8.51023833">
        <ele>16.0</ele>
        <time>2019-05-17T11:53:01.170Z</time>
      </trkpt>
      <trkpt lat="39.378375" lon="-8.51023833">
        <ele>16.0</ele>
        <time>2019-05-17T11:53:02.157Z</time>
      </trkpt>
      <trkpt lat="39.37843833" lon="-8.51017833">
        <ele>15.0</ele>
        <time>2019-05-17T11:53:03.182Z</time>
      </trkpt>
      <trkpt lat="39.37847" lon="-8.51014833">
        <ele>15.0</ele>
        <time>2019-05-17T11:53:04.170Z</time>
      </trkpt>
      <trkpt lat="39.37850167" lon="-8.51011667">
        <ele>15.0</ele>
        <time>2019-05-17T11:53:05.160Z</time>
      </trkpt>
      <trkpt lat="39.37850167" lon="-8.51011667">
        <ele>15.0</ele>
        <time>2019-05-17T11:53:06.165Z</time>
      </trkpt>
      <trkpt lat="39.37856833" lon="-8.510055">
        <ele>15.0</ele>
        <time>2019-05-17T11:53:07.186Z</time>
      </trkpt>
      <trkpt lat="39.37856833" lon="-8.510055">
        <ele>15.0</ele>
        <time>2019-05-17T11:53:08.152Z</time>
      </trkpt>
      <trkpt lat="39.37863667" lon="-8.50999167">
        <ele>15.0</ele>
        <time>2019-05-17T11:53:09.184Z</time>
      </trkpt>
      <trkpt lat="39.37863667" lon="-8.50999167">
        <ele>15.0</ele>
        <time>2019-05-17T11:53:10.164Z</time>
      </trkpt>
      <trkpt lat="39.378705" lon="-8.50992667">
        <ele>15.0</ele>
        <time>2019-05-17T11:53:11.179Z</time>
      </trkpt>
      <trkpt lat="39.37873833" lon="-8.50989667">
        <ele>15.0</ele>
        <time>2019-05-17T11:53:12.162Z</time>
      </trkpt>
      <trkpt lat="39.37873833" lon="-8.50989667">
        <ele>15.0</ele>
        <time>2019-05-17T11:53:13.168Z</time>
      </trkpt>
      <trkpt lat="39.37880167" lon="-8.50983167">
        <ele>15.0</ele>
        <time>2019-05-17T11:53:14.150Z</time>
      </trkpt>
      <trkpt lat="39.37880167" lon="-8.50983167">
        <ele>15.0</ele>
        <time>2019-05-17T11:53:15.163Z</time>
      </trkpt>
      <trkpt lat="39.37886667" lon="-8.50976833">
        <ele>15.0</ele>
        <time>2019-05-17T11:53:16.183Z</time>
      </trkpt>
      <trkpt lat="39.37889833" lon="-8.50973667">
        <ele>15.0</ele>
        <time>2019-05-17T11:53:17.161Z</time>
      </trkpt>
      <trkpt lat="39.37889833" lon="-8.50973667">
        <ele>15.0</ele>
        <time>2019-05-17T11:53:18.167Z</time>
      </trkpt>
      <trkpt lat="39.37896333" lon="-8.50967167">
        <ele>15.0</ele>
        <time>2019-05-17T11:53:19.162Z</time>
      </trkpt>
      <trkpt lat="39.37896333" lon="-8.50967167">
        <ele>15.0</ele>
        <time>2019-05-17T11:53:20.167Z</time>
      </trkpt>
      <trkpt lat="39.37903" lon="-8.50961167">
        <ele>15.0</ele>
        <time>2019-05-17T11:53:21.155Z</time>
      </trkpt>
      <trkpt lat="39.37903" lon="-8.50961167">
        <ele>15.0</ele>
        <time>2019-05-17T11:53:22.168Z</time>
      </trkpt>
      <trkpt lat="39.37909667" lon="-8.50954667">
        <ele>15.0</ele>
        <time>2019-05-17T11:53:23.189Z</time>
      </trkpt>
      <trkpt lat="39.37909667" lon="-8.50954667">
        <ele>15.0</ele>
        <time>2019-05-17T11:53:24.163Z</time>
      </trkpt>
      <trkpt lat="39.37916167" lon="-8.509485">
        <ele>15.0</ele>
        <time>2019-05-17T11:53:25.181Z</time>
      </trkpt>
      <trkpt lat="39.37916167" lon="-8.509485">
        <ele>15.0</ele>
        <time>2019-05-17T11:53:26.155Z</time>
      </trkpt>
      <trkpt lat="39.37922333" lon="-8.50941833">
        <ele>15.0</ele>
        <time>2019-05-17T11:53:27.180Z</time>
      </trkpt>
      <trkpt lat="39.37922333" lon="-8.50941833">
        <ele>15.0</ele>
        <time>2019-05-17T11:53:28.163Z</time>
      </trkpt>
      <trkpt lat="39.37928667" lon="-8.50935333">
        <ele>15.0</ele>
        <time>2019-05-17T11:53:29.180Z</time>
      </trkpt>
      <trkpt lat="39.37928667" lon="-8.50935333">
        <ele>15.0</ele>
        <time>2019-05-17T11:53:30.152Z</time>
      </trkpt>
      <trkpt lat="39.37935" lon="-8.50929167">
        <ele>15.0</ele>
        <time>2019-05-17T11:53:31.179Z</time>
      </trkpt>
      <trkpt lat="39.37935" lon="-8.50929167">
        <ele>15.0</ele>
        <time>2019-05-17T11:53:32.185Z</time>
      </trkpt>
      <trkpt lat="39.37941" lon="-8.50922833">
        <ele>15.0</ele>
        <time>2019-05-17T11:53:33.174Z</time>
      </trkpt>
      <trkpt lat="39.37941" lon="-8.50922833">
        <ele>15.0</ele>
        <time>2019-05-17T11:53:34.189Z</time>
      </trkpt>
      <trkpt lat="39.37947333" lon="-8.50916667">
        <ele>15.0</ele>
        <time>2019-05-17T11:53:35.172Z</time>
      </trkpt>
      <trkpt lat="39.37947333" lon="-8.50916667">
        <ele>15.0</ele>
        <time>2019-05-17T11:53:36.179Z</time>
      </trkpt>
      <trkpt lat="39.379535" lon="-8.50910167">
        <ele>14.0</ele>
        <time>2019-05-17T11:53:37.159Z</time>
      </trkpt>
      <trkpt lat="39.379535" lon="-8.50910167">
        <ele>14.0</ele>
        <time>2019-05-17T11:53:38.166Z</time>
      </trkpt>
      <trkpt lat="39.37959833" lon="-8.50903833">
        <ele>14.0</ele>
        <time>2019-05-17T11:53:39.154Z</time>
      </trkpt>
      <trkpt lat="39.37963" lon="-8.50900667">
        <ele>14.0</ele>
        <time>2019-05-17T11:53:40.159Z</time>
      </trkpt>
      <trkpt lat="39.37966167" lon="-8.50897333">
        <ele>14.0</ele>
        <time>2019-05-17T11:53:41.184Z</time>
      </trkpt>
      <trkpt lat="39.37966167" lon="-8.50897333">
        <ele>14.0</ele>
        <time>2019-05-17T11:53:42.188Z</time>
      </trkpt>
      <trkpt lat="39.37972333" lon="-8.50891">
        <ele>14.0</ele>
        <time>2019-05-17T11:53:43.165Z</time>
      </trkpt>
      <trkpt lat="39.37972333" lon="-8.50891">
        <ele>14.0</ele>
        <time>2019-05-17T11:53:44.178Z</time>
      </trkpt>
      <trkpt lat="39.379785" lon="-8.508845">
        <ele>14.0</ele>
        <time>2019-05-17T11:53:45.166Z</time>
      </trkpt>
      <trkpt lat="39.379785" lon="-8.508845">
        <ele>14.0</ele>
        <time>2019-05-17T11:53:46.172Z</time>
      </trkpt>
      <trkpt lat="39.37984667" lon="-8.50877833">
        <ele>14.0</ele>
        <time>2019-05-17T11:53:47.157Z</time>
      </trkpt>
      <trkpt lat="39.37984667" lon="-8.50877833">
        <ele>14.0</ele>
        <time>2019-05-17T11:53:48.162Z</time>
      </trkpt>
      <trkpt lat="39.37991" lon="-8.50871333">
        <ele>14.0</ele>
        <time>2019-05-17T11:53:49.186Z</time>
      </trkpt>
      <trkpt lat="39.37991" lon="-8.50871333">
        <ele>14.0</ele>
        <time>2019-05-17T11:53:50.152Z</time>
      </trkpt>
      <trkpt lat="39.379975" lon="-8.50865">
        <ele>14.0</ele>
        <time>2019-05-17T11:53:51.167Z</time>
      </trkpt>
      <trkpt lat="39.379975" lon="-8.50865">
        <ele>14.0</ele>
        <time>2019-05-17T11:53:52.184Z</time>
      </trkpt>
      <trkpt lat="39.38004" lon="-8.50858667">
        <ele>14.0</ele>
        <time>2019-05-17T11:53:53.156Z</time>
      </trkpt>
      <trkpt lat="39.38007167" lon="-8.50855333">
        <ele>14.0</ele>
        <time>2019-05-17T11:53:54.181Z</time>
      </trkpt>
      <trkpt lat="39.38007167" lon="-8.50855333">
        <ele>14.0</ele>
        <time>2019-05-17T11:53:55.157Z</time>
      </trkpt>
      <trkpt lat="39.38013333" lon="-8.50848667">
        <ele>14.0</ele>
        <time>2019-05-17T11:53:56.182Z</time>
      </trkpt>
      <trkpt lat="39.38016333" lon="-8.508455">
        <ele>14.0</ele>
        <time>2019-05-17T11:53:57.163Z</time>
      </trkpt>
      <trkpt lat="39.38016333" lon="-8.508455">
        <ele>14.0</ele>
        <time>2019-05-17T11:53:58.169Z</time>
      </trkpt>
      <trkpt lat="39.38022333" lon="-8.50839167">
        <ele>13.0</ele>
        <time>2019-05-17T11:53:59.150Z</time>
      </trkpt>
      <trkpt lat="39.38022333" lon="-8.50839167">
        <ele>13.0</ele>
        <time>2019-05-17T11:54:00.157Z</time>
      </trkpt>
      <trkpt lat="39.38028333" lon="-8.50833">
        <ele>13.0</ele>
        <time>2019-05-17T11:54:01.182Z</time>
      </trkpt>
      <trkpt lat="39.38031167" lon="-8.5083">
        <ele>12.0</ele>
        <time>2019-05-17T11:54:02.169Z</time>
      </trkpt>
      <trkpt lat="39.38031167" lon="-8.5083">
        <ele>12.0</ele>
        <time>2019-05-17T11:54:03.153Z</time>
      </trkpt>
      <trkpt lat="39.38036833" lon="-8.50823667">
        <ele>12.0</ele>
        <time>2019-05-17T11:54:04.175Z</time>
      </trkpt>
      <trkpt lat="39.38039667" lon="-8.50820667">
        <ele>12.0</ele>
        <time>2019-05-17T11:54:05.166Z</time>
      </trkpt>
      <trkpt lat="39.38039667" lon="-8.50820667">
        <ele>12.0</ele>
        <time>2019-05-17T11:54:06.171Z</time>
      </trkpt>
      <trkpt lat="39.380455" lon="-8.508155">
        <ele>12.0</ele>
        <time>2019-05-17T11:54:07.187Z</time>
      </trkpt>
      <trkpt lat="39.380455" lon="-8.508155">
        <ele>12.0</ele>
        <time>2019-05-17T11:54:08.152Z</time>
      </trkpt>
      <trkpt lat="39.38051667" lon="-8.5081">
        <ele>12.0</ele>
        <time>2019-05-17T11:54:09.190Z</time>
      </trkpt>
      <trkpt lat="39.38054667" lon="-8.50807667">
        <ele>12.0</ele>
        <time>2019-05-17T11:54:10.156Z</time>
      </trkpt>
      <trkpt lat="39.38057833" lon="-8.50805333">
        <ele>12.0</ele>
        <time>2019-05-17T11:54:11.161Z</time>
      </trkpt>
      <trkpt lat="39.38057833" lon="-8.50805333">
        <ele>12.0</ele>
        <time>2019-05-17T11:54:12.182Z</time>
      </trkpt>
      <trkpt lat="39.38063167" lon="-8.50800167">
        <ele>12.0</ele>
        <time>2019-05-17T11:54:13.160Z</time>
      </trkpt>
      <trkpt lat="39.38066167" lon="-8.50797333">
        <ele>12.0</ele>
        <time>2019-05-17T11:54:14.163Z</time>
      </trkpt>
      <trkpt lat="39.38066167" lon="-8.50797333">
        <ele>12.0</ele>
        <time>2019-05-17T11:54:15.168Z</time>
      </trkpt>
      <trkpt lat="39.38071833" lon="-8.50792333">
        <ele>12.0</ele>
        <time>2019-05-17T11:54:16.151Z</time>
      </trkpt>
      <trkpt lat="39.380745" lon="-8.5079">
        <ele>12.0</ele>
        <time>2019-05-17T11:54:17.172Z</time>
      </trkpt>
      <trkpt lat="39.380745" lon="-8.5079">
        <ele>12.0</ele>
        <time>2019-05-17T11:54:18.154Z</time>
      </trkpt>
      <trkpt lat="39.38079667" lon="-8.50785833">
        <ele>12.0</ele>
        <time>2019-05-17T11:54:19.177Z</time>
      </trkpt>
      <trkpt lat="39.38079667" lon="-8.50785833">
        <ele>12.0</ele>
        <time>2019-05-17T11:54:20.186Z</time>
      </trkpt>
      <trkpt lat="39.38085167" lon="-8.50781167">
        <ele>12.0</ele>
        <time>2019-05-17T11:54:21.171Z</time>
      </trkpt>
      <trkpt lat="39.38088" lon="-8.50778667">
        <ele>12.0</ele>
        <time>2019-05-17T11:54:22.154Z</time>
      </trkpt>
      <trkpt lat="39.38090833" lon="-8.50776667">
        <ele>12.0</ele>
        <time>2019-05-17T11:54:23.187Z</time>
      </trkpt>
      <trkpt lat="39.38090833" lon="-8.50776667">
        <ele>12.0</ele>
        <time>2019-05-17T11:54:24.179Z</time>
      </trkpt>
      <trkpt lat="39.38095833" lon="-8.50772833">
        <ele>12.0</ele>
        <time>2019-05-17T11:54:25.162Z</time>
      </trkpt>
      <trkpt lat="39.38095833" lon="-8.50772833">
        <ele>12.0</ele>
        <time>2019-05-17T11:54:26.167Z</time>
      </trkpt>
      <trkpt lat="39.38100667" lon="-8.50769">
        <ele>11.0</ele>
        <time>2019-05-17T11:54:27.165Z</time>
      </trkpt>
      <trkpt lat="39.38100667" lon="-8.50769">
        <ele>11.0</ele>
        <time>2019-05-17T11:54:28.179Z</time>
      </trkpt>
      <trkpt lat="39.381055" lon="-8.50765">
        <ele>11.0</ele>
        <time>2019-05-17T11:54:29.172Z</time>
      </trkpt>
      <trkpt lat="39.381055" lon="-8.50765">
        <ele>11.0</ele>
        <time>2019-05-17T11:54:30.180Z</time>
      </trkpt>
      <trkpt lat="39.38111" lon="-8.50759833">
        <ele>11.0</ele>
        <time>2019-05-17T11:54:31.162Z</time>
      </trkpt>
      <trkpt lat="39.38111" lon="-8.50759833">
        <ele>11.0</ele>
        <time>2019-05-17T11:54:32.168Z</time>
      </trkpt>
      <trkpt lat="39.38116833" lon="-8.507545">
        <ele>11.0</ele>
        <time>2019-05-17T11:54:33.190Z</time>
      </trkpt>
      <trkpt lat="39.38116833" lon="-8.507545">
        <ele>11.0</ele>
        <time>2019-05-17T11:54:34.173Z</time>
      </trkpt>
      <trkpt lat="39.38123" lon="-8.50749">
        <ele>11.0</ele>
        <time>2019-05-17T11:54:35.162Z</time>
      </trkpt>
      <trkpt lat="39.38123" lon="-8.50749">
        <ele>11.0</ele>
        <time>2019-05-17T11:54:36.167Z</time>
      </trkpt>
      <trkpt lat="39.38128833" lon="-8.50743833">
        <ele>11.0</ele>
        <time>2019-05-17T11:54:37.193Z</time>
      </trkpt>
      <trkpt lat="39.38128833" lon="-8.50743833">
        <ele>11.0</ele>
        <time>2019-05-17T11:54:38.157Z</time>
      </trkpt>
      <trkpt lat="39.38134833" lon="-8.50738833">
        <ele>11.0</ele>
        <time>2019-05-17T11:54:39.185Z</time>
      </trkpt>
      <trkpt lat="39.38138" lon="-8.50736333">
        <ele>11.0</ele>
        <time>2019-05-17T11:54:40.189Z</time>
      </trkpt>
      <trkpt lat="39.38141167" lon="-8.50733833">
        <ele>11.0</ele>
        <time>2019-05-17T11:54:41.178Z</time>
      </trkpt>
      <trkpt lat="39.38141167" lon="-8.50733833">
        <ele>11.0</ele>
        <time>2019-05-17T11:54:42.164Z</time>
      </trkpt>
      <trkpt lat="39.38146667" lon="-8.50728833">
        <ele>11.0</ele>
        <time>2019-05-17T11:54:43.187Z</time>
      </trkpt>
      <trkpt lat="39.38146667" lon="-8.50728833">
        <ele>11.0</ele>
        <time>2019-05-17T11:54:44.152Z</time>
      </trkpt>
      <trkpt lat="39.381525" lon="-8.50723333">
        <ele>11.0</ele>
        <time>2019-05-17T11:54:45.175Z</time>
      </trkpt>
      <trkpt lat="39.381525" lon="-8.50723333">
        <ele>11.0</ele>
        <time>2019-05-17T11:54:46.165Z</time>
      </trkpt>
      <trkpt lat="39.381585" lon="-8.50717833">
        <ele>11.0</ele>
        <time>2019-05-17T11:54:47.153Z</time>
      </trkpt>
      <trkpt lat="39.381585" lon="-8.50717833">
        <ele>11.0</ele>
        <time>2019-05-17T11:54:48.178Z</time>
      </trkpt>
      <trkpt lat="39.38165" lon="-8.50712667">
        <ele>11.0</ele>
        <time>2019-05-17T11:54:49.158Z</time>
      </trkpt>
      <trkpt lat="39.38165" lon="-8.50712667">
        <ele>11.0</ele>
        <time>2019-05-17T11:54:50.175Z</time>
      </trkpt>
      <trkpt lat="39.38172167" lon="-8.507075">
        <ele>12.0</ele>
        <time>2019-05-17T11:54:51.161Z</time>
      </trkpt>
      <trkpt lat="39.38172167" lon="-8.507075">
        <ele>12.0</ele>
        <time>2019-05-17T11:54:52.171Z</time>
      </trkpt>
      <trkpt lat="39.38179333" lon="-8.50702">
        <ele>12.0</ele>
        <time>2019-05-17T11:54:53.152Z</time>
      </trkpt>
      <trkpt lat="39.38179333" lon="-8.50702">
        <ele>12.0</ele>
        <time>2019-05-17T11:54:54.158Z</time>
      </trkpt>
      <trkpt lat="39.38186167" lon="-8.50696667">
        <ele>12.0</ele>
        <time>2019-05-17T11:54:55.179Z</time>
      </trkpt>
      <trkpt lat="39.38186167" lon="-8.50696667">
        <ele>12.0</ele>
        <time>2019-05-17T11:54:56.151Z</time>
      </trkpt>
      <trkpt lat="39.38192333" lon="-8.50690333">
        <ele>12.0</ele>
        <time>2019-05-17T11:54:57.186Z</time>
      </trkpt>
      <trkpt lat="39.38192333" lon="-8.50690333">
        <ele>12.0</ele>
        <time>2019-05-17T11:54:58.161Z</time>
      </trkpt>
      <trkpt lat="39.38198667" lon="-8.50683333">
        <ele>12.0</ele>
        <time>2019-05-17T11:54:59.188Z</time>
      </trkpt>
      <trkpt lat="39.38198667" lon="-8.50683333">
        <ele>12.0</ele>
        <time>2019-05-17T11:55:00.152Z</time>
      </trkpt>
      <trkpt lat="39.38205167" lon="-8.50677333">
        <ele>12.0</ele>
        <time>2019-05-17T11:55:01.168Z</time>
      </trkpt>
      <trkpt lat="39.38205167" lon="-8.50677333">
        <ele>12.0</ele>
        <time>2019-05-17T11:55:02.176Z</time>
      </trkpt>
      <trkpt lat="39.38211167" lon="-8.50671833">
        <ele>12.0</ele>
        <time>2019-05-17T11:55:03.168Z</time>
      </trkpt>
      <trkpt lat="39.38211167" lon="-8.50671833">
        <ele>12.0</ele>
        <time>2019-05-17T11:55:04.184Z</time>
      </trkpt>
      <trkpt lat="39.38217333" lon="-8.50666333">
        <ele>11.0</ele>
        <time>2019-05-17T11:55:05.158Z</time>
      </trkpt>
      <trkpt lat="39.38217333" lon="-8.50666333">
        <ele>11.0</ele>
        <time>2019-05-17T11:55:06.166Z</time>
      </trkpt>
      <trkpt lat="39.38223667" lon="-8.50661167">
        <ele>11.0</ele>
        <time>2019-05-17T11:55:07.182Z</time>
      </trkpt>
      <trkpt lat="39.38223667" lon="-8.50661167">
        <ele>11.0</ele>
        <time>2019-05-17T11:55:08.157Z</time>
      </trkpt>
      <trkpt lat="39.38229667" lon="-8.50655833">
        <ele>11.0</ele>
        <time>2019-05-17T11:55:09.151Z</time>
      </trkpt>
      <trkpt lat="39.382325" lon="-8.50653333">
        <ele>11.0</ele>
        <time>2019-05-17T11:55:10.181Z</time>
      </trkpt>
      <trkpt lat="39.38235333" lon="-8.50650667">
        <ele>11.0</ele>
        <time>2019-05-17T11:55:11.159Z</time>
      </trkpt>
      <trkpt lat="39.38235333" lon="-8.50650667">
        <ele>11.0</ele>
        <time>2019-05-17T11:55:12.168Z</time>
      </trkpt>
      <trkpt lat="39.38241" lon="-8.506455">
        <ele>11.0</ele>
        <time>2019-05-17T11:55:13.181Z</time>
      </trkpt>
      <trkpt lat="39.38244" lon="-8.50643">
        <ele>11.0</ele>
        <time>2019-05-17T11:55:14.165Z</time>
      </trkpt>
      <trkpt lat="39.38244" lon="-8.50643">
        <ele>11.0</ele>
        <time>2019-05-17T11:55:15.158Z</time>
      </trkpt>
      <trkpt lat="39.3825" lon="-8.50637833">
        <ele>11.0</ele>
        <time>2019-05-17T11:55:16.178Z</time>
      </trkpt>
      <trkpt lat="39.38253" lon="-8.506355">
        <ele>11.0</ele>
        <time>2019-05-17T11:55:17.159Z</time>
      </trkpt>
      <trkpt lat="39.38253" lon="-8.506355">
        <ele>11.0</ele>
        <time>2019-05-17T11:55:18.164Z</time>
      </trkpt>
      <trkpt lat="39.38259333" lon="-8.506305">
        <ele>12.0</ele>
        <time>2019-05-17T11:55:19.179Z</time>
      </trkpt>
      <trkpt lat="39.38259333" lon="-8.506305">
        <ele>12.0</ele>
        <time>2019-05-17T11:55:20.184Z</time>
      </trkpt>
      <trkpt lat="39.38265833" lon="-8.506255">
        <ele>12.0</ele>
        <time>2019-05-17T11:55:21.170Z</time>
      </trkpt>
      <trkpt lat="39.38265833" lon="-8.506255">
        <ele>12.0</ele>
        <time>2019-05-17T11:55:22.155Z</time>
      </trkpt>
      <trkpt lat="39.38272" lon="-8.50620667">
        <ele>12.0</ele>
        <time>2019-05-17T11:55:23.173Z</time>
      </trkpt>
      <trkpt lat="39.38272" lon="-8.50620667">
        <ele>12.0</ele>
        <time>2019-05-17T11:55:24.181Z</time>
      </trkpt>
      <trkpt lat="39.38278" lon="-8.50615833">
        <ele>12.0</ele>
        <time>2019-05-17T11:55:25.158Z</time>
      </trkpt>
      <trkpt lat="39.38278" lon="-8.50615833">
        <ele>12.0</ele>
        <time>2019-05-17T11:55:26.182Z</time>
      </trkpt>
      <trkpt lat="39.38284" lon="-8.50611333">
        <ele>12.0</ele>
        <time>2019-05-17T11:55:27.163Z</time>
      </trkpt>
      <trkpt lat="39.38284" lon="-8.50611333">
        <ele>12.0</ele>
        <time>2019-05-17T11:55:28.168Z</time>
      </trkpt>
      <trkpt lat="39.38289833" lon="-8.50606833">
        <ele>12.0</ele>
        <time>2019-05-17T11:55:29.188Z</time>
      </trkpt>
      <trkpt lat="39.38289833" lon="-8.50606833">
        <ele>12.0</ele>
        <time>2019-05-17T11:55:30.153Z</time>
      </trkpt>
      <trkpt lat="39.382955" lon="-8.506025">
        <ele>12.0</ele>
        <time>2019-05-17T11:55:31.166Z</time>
      </trkpt>
      <trkpt lat="39.382955" lon="-8.506025">
        <ele>12.0</ele>
        <time>2019-05-17T11:55:32.173Z</time>
      </trkpt>
      <trkpt lat="39.38300667" lon="-8.50597667">
        <ele>12.0</ele>
        <time>2019-05-17T11:55:33.150Z</time>
      </trkpt>
      <trkpt lat="39.38300667" lon="-8.50597667">
        <ele>12.0</ele>
        <time>2019-05-17T11:55:34.158Z</time>
      </trkpt>
      <trkpt lat="39.38306" lon="-8.50593333">
        <ele>12.0</ele>
        <time>2019-05-17T11:55:35.172Z</time>
      </trkpt>
      <trkpt lat="39.38306" lon="-8.50593333">
        <ele>12.0</ele>
        <time>2019-05-17T11:55:36.180Z</time>
      </trkpt>
      <trkpt lat="39.38311833" lon="-8.50588167">
        <ele>13.0</ele>
        <time>2019-05-17T11:55:37.180Z</time>
      </trkpt>
      <trkpt lat="39.38314833" lon="-8.50586">
        <ele>13.0</ele>
        <time>2019-05-17T11:55:38.172Z</time>
      </trkpt>
      <trkpt lat="39.38314833" lon="-8.50586">
        <ele>13.0</ele>
        <time>2019-05-17T11:55:39.177Z</time>
      </trkpt>
      <trkpt lat="39.38320667" lon="-8.50581667">
        <ele>13.0</ele>
        <time>2019-05-17T11:55:40.154Z</time>
      </trkpt>
      <trkpt lat="39.383235" lon="-8.50579333">
        <ele>13.0</ele>
        <time>2019-05-17T11:55:41.181Z</time>
      </trkpt>
      <trkpt lat="39.383235" lon="-8.50579333">
        <ele>13.0</ele>
        <time>2019-05-17T11:55:42.168Z</time>
      </trkpt>
      <trkpt lat="39.383295" lon="-8.50574833">
        <ele>13.0</ele>
        <time>2019-05-17T11:55:43.156Z</time>
      </trkpt>
      <trkpt lat="39.383325" lon="-8.50572333">
        <ele>13.0</ele>
        <time>2019-05-17T11:55:44.185Z</time>
      </trkpt>
      <trkpt lat="39.383325" lon="-8.50572333">
        <ele>13.0</ele>
        <time>2019-05-17T11:55:45.157Z</time>
      </trkpt>
      <trkpt lat="39.383385" lon="-8.50567333">
        <ele>13.0</ele>
        <time>2019-05-17T11:55:46.185Z</time>
      </trkpt>
      <trkpt lat="39.38341333" lon="-8.50564667">
        <ele>13.0</ele>
        <time>2019-05-17T11:55:47.169Z</time>
      </trkpt>
      <trkpt lat="39.38341333" lon="-8.50564667">
        <ele>13.0</ele>
        <time>2019-05-17T11:55:48.177Z</time>
      </trkpt>
      <trkpt lat="39.38347167" lon="-8.50559167">
        <ele>13.0</ele>
        <time>2019-05-17T11:55:49.164Z</time>
      </trkpt>
      <trkpt lat="39.38347167" lon="-8.50559167">
        <ele>13.0</ele>
        <time>2019-05-17T11:55:50.178Z</time>
      </trkpt>
      <trkpt lat="39.38352833" lon="-8.50553333">
        <ele>13.0</ele>
        <time>2019-05-17T11:55:51.159Z</time>
      </trkpt>
      <trkpt lat="39.383555" lon="-8.50550333">
        <ele>13.0</ele>
        <time>2019-05-17T11:55:52.176Z</time>
      </trkpt>
      <trkpt lat="39.38358167" lon="-8.50547">
        <ele>12.0</ele>
        <time>2019-05-17T11:55:53.159Z</time>
      </trkpt>
      <trkpt lat="39.38358167" lon="-8.50547">
        <ele>12.0</ele>
        <time>2019-05-17T11:55:54.167Z</time>
      </trkpt>
      <trkpt lat="39.38363333" lon="-8.50540333">
        <ele>12.0</ele>
        <time>2019-05-17T11:55:55.187Z</time>
      </trkpt>
      <trkpt lat="39.38363333" lon="-8.50540333">
        <ele>12.0</ele>
        <time>2019-05-17T11:55:56.156Z</time>
      </trkpt>
      <trkpt lat="39.38368167" lon="-8.50533833">
        <ele>12.0</ele>
        <time>2019-05-17T11:55:57.173Z</time>
      </trkpt>
      <trkpt lat="39.38368167" lon="-8.50533833">
        <ele>12.0</ele>
        <time>2019-05-17T11:55:58.159Z</time>
      </trkpt>
      <trkpt lat="39.38372833" lon="-8.50527167">
        <ele>12.0</ele>
        <time>2019-05-17T11:55:59.182Z</time>
      </trkpt>
      <trkpt lat="39.38372833" lon="-8.50527167">
        <ele>12.0</ele>
        <time>2019-05-17T11:56:00.156Z</time>
      </trkpt>
      <trkpt lat="39.38377833" lon="-8.50520167">
        <ele>12.0</ele>
        <time>2019-05-17T11:56:01.176Z</time>
      </trkpt>
      <trkpt lat="39.38377833" lon="-8.50520167">
        <ele>12.0</ele>
        <time>2019-05-17T11:56:02.181Z</time>
      </trkpt>
      <trkpt lat="39.38383" lon="-8.50513">
        <ele>12.0</ele>
        <time>2019-05-17T11:56:03.161Z</time>
      </trkpt>
      <trkpt lat="39.38383" lon="-8.50513">
        <ele>12.0</ele>
        <time>2019-05-17T11:56:04.168Z</time>
      </trkpt>
      <trkpt lat="39.38388167" lon="-8.50506">
        <ele>12.0</ele>
        <time>2019-05-17T11:56:05.187Z</time>
      </trkpt>
      <trkpt lat="39.38388167" lon="-8.50506">
        <ele>12.0</ele>
        <time>2019-05-17T11:56:06.160Z</time>
      </trkpt>
      <trkpt lat="39.38393333" lon="-8.50499167">
        <ele>12.0</ele>
        <time>2019-05-17T11:56:07.181Z</time>
      </trkpt>
      <trkpt lat="39.38393333" lon="-8.50499167">
        <ele>12.0</ele>
        <time>2019-05-17T11:56:08.164Z</time>
      </trkpt>
      <trkpt lat="39.38398333" lon="-8.50492167">
        <ele>12.0</ele>
        <time>2019-05-17T11:56:09.162Z</time>
      </trkpt>
      <trkpt lat="39.38401" lon="-8.50488833">
        <ele>12.0</ele>
        <time>2019-05-17T11:56:10.186Z</time>
      </trkpt>
      <trkpt lat="39.38403833" lon="-8.50485333">
        <ele>13.0</ele>
        <time>2019-05-17T11:56:11.166Z</time>
      </trkpt>
      <trkpt lat="39.38403833" lon="-8.50485333">
        <ele>13.0</ele>
        <time>2019-05-17T11:56:12.151Z</time>
      </trkpt>
      <trkpt lat="39.38408667" lon="-8.50477667">
        <ele>12.0</ele>
        <time>2019-05-17T11:56:13.169Z</time>
      </trkpt>
      <trkpt lat="39.38408667" lon="-8.50477667">
        <ele>12.0</ele>
        <time>2019-05-17T11:56:14.179Z</time>
      </trkpt>
      <trkpt lat="39.38413333" lon="-8.50470667">
        <ele>12.0</ele>
        <time>2019-05-17T11:56:15.168Z</time>
      </trkpt>
      <trkpt lat="39.38413333" lon="-8.50470667">
        <ele>12.0</ele>
        <time>2019-05-17T11:56:16.179Z</time>
      </trkpt>
      <trkpt lat="39.38417833" lon="-8.504635">
        <ele>12.0</ele>
        <time>2019-05-17T11:56:17.168Z</time>
      </trkpt>
      <trkpt lat="39.38417833" lon="-8.504635">
        <ele>12.0</ele>
        <time>2019-05-17T11:56:18.178Z</time>
      </trkpt>
      <trkpt lat="39.384225" lon="-8.50457">
        <ele>12.0</ele>
        <time>2019-05-17T11:56:19.167Z</time>
      </trkpt>
      <trkpt lat="39.384225" lon="-8.50457">
        <ele>12.0</ele>
        <time>2019-05-17T11:56:20.185Z</time>
      </trkpt>
      <trkpt lat="39.38427333" lon="-8.50450167">
        <ele>12.0</ele>
        <time>2019-05-17T11:56:21.156Z</time>
      </trkpt>
      <trkpt lat="39.38429833" lon="-8.50446833">
        <ele>12.0</ele>
        <time>2019-05-17T11:56:22.175Z</time>
      </trkpt>
      <trkpt lat="39.38432333" lon="-8.50443667">
        <ele>12.0</ele>
        <time>2019-05-17T11:56:23.172Z</time>
      </trkpt>
      <trkpt lat="39.38432333" lon="-8.50443667">
        <ele>12.0</ele>
        <time>2019-05-17T11:56:24.179Z</time>
      </trkpt>
      <trkpt lat="39.384375" lon="-8.504365">
        <ele>12.0</ele>
        <time>2019-05-17T11:56:25.160Z</time>
      </trkpt>
      <trkpt lat="39.384375" lon="-8.504365">
        <ele>12.0</ele>
        <time>2019-05-17T11:56:26.168Z</time>
      </trkpt>
      <trkpt lat="39.38442667" lon="-8.50429333">
        <ele>12.0</ele>
        <time>2019-05-17T11:56:27.162Z</time>
      </trkpt>
      <trkpt lat="39.38445167" lon="-8.50425833">
        <ele>12.0</ele>
        <time>2019-05-17T11:56:28.171Z</time>
      </trkpt>
      <trkpt lat="39.38447833" lon="-8.504225">
        <ele>12.0</ele>
        <time>2019-05-17T11:56:29.187Z</time>
      </trkpt>
      <trkpt lat="39.38447833" lon="-8.504225">
        <ele>12.0</ele>
        <time>2019-05-17T11:56:30.162Z</time>
      </trkpt>
      <trkpt lat="39.38452667" lon="-8.50415667">
        <ele>12.0</ele>
        <time>2019-05-17T11:56:31.180Z</time>
      </trkpt>
      <trkpt lat="39.38452667" lon="-8.50415667">
        <ele>12.0</ele>
        <time>2019-05-17T11:56:32.184Z</time>
      </trkpt>
      <trkpt lat="39.384575" lon="-8.504085">
        <ele>13.0</ele>
        <time>2019-05-17T11:56:33.172Z</time>
      </trkpt>
      <trkpt lat="39.384575" lon="-8.504085">
        <ele>13.0</ele>
        <time>2019-05-17T11:56:34.154Z</time>
      </trkpt>
      <trkpt lat="39.38462667" lon="-8.50401833">
        <ele>13.0</ele>
        <time>2019-05-17T11:56:35.175Z</time>
      </trkpt>
      <trkpt lat="39.38462667" lon="-8.50401833">
        <ele>13.0</ele>
        <time>2019-05-17T11:56:36.183Z</time>
      </trkpt>
      <trkpt lat="39.38467667" lon="-8.50395">
        <ele>13.0</ele>
        <time>2019-05-17T11:56:37.152Z</time>
      </trkpt>
      <trkpt lat="39.38467667" lon="-8.50395">
        <ele>13.0</ele>
        <time>2019-05-17T11:56:38.158Z</time>
      </trkpt>
      <trkpt lat="39.38472667" lon="-8.50388333">
        <ele>13.0</ele>
        <time>2019-05-17T11:56:39.179Z</time>
      </trkpt>
      <trkpt lat="39.38472667" lon="-8.50388333">
        <ele>13.0</ele>
        <time>2019-05-17T11:56:40.179Z</time>
      </trkpt>
      <trkpt lat="39.38477833" lon="-8.50382">
        <ele>13.0</ele>
        <time>2019-05-17T11:56:41.157Z</time>
      </trkpt>
      <trkpt lat="39.38477833" lon="-8.50382">
        <ele>13.0</ele>
        <time>2019-05-17T11:56:42.164Z</time>
      </trkpt>
      <trkpt lat="39.38482333" lon="-8.50375333">
        <ele>13.0</ele>
        <time>2019-05-17T11:56:43.187Z</time>
      </trkpt>
      <trkpt lat="39.38482333" lon="-8.50375333">
        <ele>13.0</ele>
        <time>2019-05-17T11:56:44.190Z</time>
      </trkpt>
      <trkpt lat="39.38486833" lon="-8.50369333">
        <ele>12.0</ele>
        <time>2019-05-17T11:56:45.174Z</time>
      </trkpt>
      <trkpt lat="39.38486833" lon="-8.50369333">
        <ele>12.0</ele>
        <time>2019-05-17T11:56:46.180Z</time>
      </trkpt>
      <trkpt lat="39.38491667" lon="-8.50363">
        <ele>12.0</ele>
        <time>2019-05-17T11:56:47.167Z</time>
      </trkpt>
      <trkpt lat="39.38493833" lon="-8.50359333">
        <ele>12.0</ele>
        <time>2019-05-17T11:56:48.151Z</time>
      </trkpt>
      <trkpt lat="39.38493833" lon="-8.50359333">
        <ele>12.0</ele>
        <time>2019-05-17T11:56:49.165Z</time>
      </trkpt>
      <trkpt lat="39.38498667" lon="-8.503525">
        <ele>12.0</ele>
        <time>2019-05-17T11:56:50.152Z</time>
      </trkpt>
      <trkpt lat="39.38498667" lon="-8.503525">
        <ele>12.0</ele>
        <time>2019-05-17T11:56:51.157Z</time>
      </trkpt>
      <trkpt lat="39.385035" lon="-8.50345833">
        <ele>12.0</ele>
        <time>2019-05-17T11:56:52.182Z</time>
      </trkpt>
      <trkpt lat="39.38505833" lon="-8.503425">
        <ele>12.0</ele>
        <time>2019-05-17T11:56:53.173Z</time>
      </trkpt>
      <trkpt lat="39.38505833" lon="-8.503425">
        <ele>12.0</ele>
        <time>2019-05-17T11:56:54.181Z</time>
      </trkpt>
      <trkpt lat="39.38510667" lon="-8.50335833">
        <ele>12.0</ele>
        <time>2019-05-17T11:56:55.169Z</time>
      </trkpt>
      <trkpt lat="39.38510667" lon="-8.50335833">
        <ele>12.0</ele>
        <time>2019-05-17T11:56:56.177Z</time>
      </trkpt>
      <trkpt lat="39.385155" lon="-8.50329167">
        <ele>12.0</ele>
        <time>2019-05-17T11:56:57.151Z</time>
      </trkpt>
      <trkpt lat="39.385155" lon="-8.50329167">
        <ele>12.0</ele>
        <time>2019-05-17T11:56:58.167Z</time>
      </trkpt>
      <trkpt lat="39.38520167" lon="-8.50322667">
        <ele>12.0</ele>
        <time>2019-05-17T11:56:59.189Z</time>
      </trkpt>
      <trkpt lat="39.38520167" lon="-8.50322667">
        <ele>12.0</ele>
        <time>2019-05-17T11:57:00.156Z</time>
      </trkpt>
      <trkpt lat="39.38524667" lon="-8.50316">
        <ele>12.0</ele>
        <time>2019-05-17T11:57:01.171Z</time>
      </trkpt>
      <trkpt lat="39.38527" lon="-8.50312833">
        <ele>12.0</ele>
        <time>2019-05-17T11:57:02.169Z</time>
      </trkpt>
      <trkpt lat="39.38527" lon="-8.50312833">
        <ele>12.0</ele>
        <time>2019-05-17T11:57:03.181Z</time>
      </trkpt>
      <trkpt lat="39.38531667" lon="-8.50306333">
        <ele>12.0</ele>
        <time>2019-05-17T11:57:04.150Z</time>
      </trkpt>
      <trkpt lat="39.38534" lon="-8.50303">
        <ele>12.0</ele>
        <time>2019-05-17T11:57:05.182Z</time>
      </trkpt>
      <trkpt lat="39.38534" lon="-8.50303">
        <ele>12.0</ele>
        <time>2019-05-17T11:57:06.188Z</time>
      </trkpt>
      <trkpt lat="39.38539" lon="-8.50296333">
        <ele>12.0</ele>
        <time>2019-05-17T11:57:07.177Z</time>
      </trkpt>
      <trkpt lat="39.38539" lon="-8.50296333">
        <ele>12.0</ele>
        <time>2019-05-17T11:57:08.182Z</time>
      </trkpt>
      <trkpt lat="39.38544" lon="-8.50289667">
        <ele>12.0</ele>
        <time>2019-05-17T11:57:09.172Z</time>
      </trkpt>
      <trkpt lat="39.38546667" lon="-8.50286333">
        <ele>13.0</ele>
        <time>2019-05-17T11:57:10.155Z</time>
      </trkpt>
      <trkpt lat="39.385495" lon="-8.50283167">
        <ele>13.0</ele>
        <time>2019-05-17T11:57:11.177Z</time>
      </trkpt>
      <trkpt lat="39.385495" lon="-8.50283167">
        <ele>13.0</ele>
        <time>2019-05-17T11:57:12.186Z</time>
      </trkpt>
      <trkpt lat="39.38555167" lon="-8.50276667">
        <ele>13.0</ele>
        <time>2019-05-17T11:57:13.162Z</time>
      </trkpt>
      <trkpt lat="39.38555167" lon="-8.50276667">
        <ele>13.0</ele>
        <time>2019-05-17T11:57:14.150Z</time>
      </trkpt>
      <trkpt lat="39.38560833" lon="-8.502705">
        <ele>13.0</ele>
        <time>2019-05-17T11:57:15.176Z</time>
      </trkpt>
      <trkpt lat="39.38560833" lon="-8.502705">
        <ele>13.0</ele>
        <time>2019-05-17T11:57:16.182Z</time>
      </trkpt>
      <trkpt lat="39.38566833" lon="-8.50264667">
        <ele>13.0</ele>
        <time>2019-05-17T11:57:17.183Z</time>
      </trkpt>
      <trkpt lat="39.38566833" lon="-8.50264667">
        <ele>13.0</ele>
        <time>2019-05-17T11:57:18.161Z</time>
      </trkpt>
      <trkpt lat="39.38573" lon="-8.50259167">
        <ele>13.0</ele>
        <time>2019-05-17T11:57:19.179Z</time>
      </trkpt>
      <trkpt lat="39.38573" lon="-8.50259167">
        <ele>13.0</ele>
        <time>2019-05-17T11:57:20.184Z</time>
      </trkpt>
      <trkpt lat="39.38579" lon="-8.50253667">
        <ele>13.0</ele>
        <time>2019-05-17T11:57:21.167Z</time>
      </trkpt>
      <trkpt lat="39.38579" lon="-8.50253667">
        <ele>13.0</ele>
        <time>2019-05-17T11:57:22.179Z</time>
      </trkpt>
      <trkpt lat="39.38585167" lon="-8.50248333">
        <ele>13.0</ele>
        <time>2019-05-17T11:57:23.157Z</time>
      </trkpt>
      <trkpt lat="39.38585167" lon="-8.50248333">
        <ele>13.0</ele>
        <time>2019-05-17T11:57:24.162Z</time>
      </trkpt>
      <trkpt lat="39.385915" lon="-8.50242833">
        <ele>13.0</ele>
        <time>2019-05-17T11:57:25.174Z</time>
      </trkpt>
      <trkpt lat="39.385915" lon="-8.50242833">
        <ele>13.0</ele>
        <time>2019-05-17T11:57:26.180Z</time>
      </trkpt>
      <trkpt lat="39.38597833" lon="-8.502375">
        <ele>13.0</ele>
        <time>2019-05-17T11:57:27.180Z</time>
      </trkpt>
      <trkpt lat="39.38597833" lon="-8.502375">
        <ele>13.0</ele>
        <time>2019-05-17T11:57:28.156Z</time>
      </trkpt>
      <trkpt lat="39.38603833" lon="-8.50232667">
        <ele>14.0</ele>
        <time>2019-05-17T11:57:29.176Z</time>
      </trkpt>
      <trkpt lat="39.38603833" lon="-8.50232667">
        <ele>14.0</ele>
        <time>2019-05-17T11:57:30.181Z</time>
      </trkpt>
      <trkpt lat="39.386095" lon="-8.50227833">
        <ele>13.0</ele>
        <time>2019-05-17T11:57:31.158Z</time>
      </trkpt>
      <trkpt lat="39.386095" lon="-8.50227833">
        <ele>13.0</ele>
        <time>2019-05-17T11:57:32.154Z</time>
      </trkpt>
      <trkpt lat="39.38614833" lon="-8.50223">
        <ele>13.0</ele>
        <time>2019-05-17T11:57:33.170Z</time>
      </trkpt>
      <trkpt lat="39.38614833" lon="-8.50223">
        <ele>13.0</ele>
        <time>2019-05-17T11:57:34.179Z</time>
      </trkpt>
      <trkpt lat="39.3862" lon="-8.50217667">
        <ele>13.0</ele>
        <time>2019-05-17T11:57:35.157Z</time>
      </trkpt>
      <trkpt lat="39.3862" lon="-8.50217667">
        <ele>13.0</ele>
        <time>2019-05-17T11:57:36.168Z</time>
      </trkpt>
      <trkpt lat="39.38624833" lon="-8.50212833">
        <ele>13.0</ele>
        <time>2019-05-17T11:57:37.158Z</time>
      </trkpt>
      <trkpt lat="39.38624833" lon="-8.50212833">
        <ele>13.0</ele>
        <time>2019-05-17T11:57:38.172Z</time>
      </trkpt>
      <trkpt lat="39.38630667" lon="-8.50208833">
        <ele>13.0</ele>
        <time>2019-05-17T11:57:39.150Z</time>
      </trkpt>
      <trkpt lat="39.38630667" lon="-8.50208833">
        <ele>13.0</ele>
        <time>2019-05-17T11:57:40.155Z</time>
      </trkpt>
      <trkpt lat="39.38636167" lon="-8.50204333">
        <ele>13.0</ele>
        <time>2019-05-17T11:57:41.187Z</time>
      </trkpt>
      <trkpt lat="39.38636167" lon="-8.50204333">
        <ele>13.0</ele>
        <time>2019-05-17T11:57:42.152Z</time>
      </trkpt>
      <trkpt lat="39.38642" lon="-8.50199833">
        <ele>14.0</ele>
        <time>2019-05-17T11:57:43.164Z</time>
      </trkpt>
      <trkpt lat="39.38642" lon="-8.50199833">
        <ele>14.0</ele>
        <time>2019-05-17T11:57:44.170Z</time>
      </trkpt>
      <trkpt lat="39.38647333" lon="-8.501955">
        <ele>14.0</ele>
        <time>2019-05-17T11:57:45.189Z</time>
      </trkpt>
      <trkpt lat="39.38647333" lon="-8.501955">
        <ele>14.0</ele>
        <time>2019-05-17T11:57:46.161Z</time>
      </trkpt>
      <trkpt lat="39.38652" lon="-8.50190667">
        <ele>14.0</ele>
        <time>2019-05-17T11:57:47.176Z</time>
      </trkpt>
      <trkpt lat="39.38652" lon="-8.50190667">
        <ele>14.0</ele>
        <time>2019-05-17T11:57:48.183Z</time>
      </trkpt>
      <trkpt lat="39.38657333" lon="-8.50186167">
        <ele>14.0</ele>
        <time>2019-05-17T11:57:49.166Z</time>
      </trkpt>
      <trkpt lat="39.38657333" lon="-8.50186167">
        <ele>14.0</ele>
        <time>2019-05-17T11:57:50.171Z</time>
      </trkpt>
      <trkpt lat="39.38662833" lon="-8.50181167">
        <ele>13.0</ele>
        <time>2019-05-17T11:57:51.188Z</time>
      </trkpt>
      <trkpt lat="39.38665833" lon="-8.501785">
        <ele>13.0</ele>
        <time>2019-05-17T11:57:52.151Z</time>
      </trkpt>
      <trkpt lat="39.38668833" lon="-8.50175833">
        <ele>13.0</ele>
        <time>2019-05-17T11:57:53.168Z</time>
      </trkpt>
      <trkpt lat="39.38668833" lon="-8.50175833">
        <ele>13.0</ele>
        <time>2019-05-17T11:57:54.155Z</time>
      </trkpt>
      <trkpt lat="39.38674833" lon="-8.50170833">
        <ele>13.0</ele>
        <time>2019-05-17T11:57:55.176Z</time>
      </trkpt>
      <trkpt lat="39.38674833" lon="-8.50170833">
        <ele>13.0</ele>
        <time>2019-05-17T11:57:56.182Z</time>
      </trkpt>
      <trkpt lat="39.38681" lon="-8.50166333">
        <ele>14.0</ele>
        <time>2019-05-17T11:57:57.160Z</time>
      </trkpt>
      <trkpt lat="39.38684" lon="-8.50164333">
        <ele>14.0</ele>
        <time>2019-05-17T11:57:58.159Z</time>
      </trkpt>
      <trkpt lat="39.38687167" lon="-8.50162167">
        <ele>14.0</ele>
        <time>2019-05-17T11:57:59.152Z</time>
      </trkpt>
      <trkpt lat="39.38687167" lon="-8.50162167">
        <ele>14.0</ele>
        <time>2019-05-17T11:58:00.158Z</time>
      </trkpt>
      <trkpt lat="39.38693167" lon="-8.50157833">
        <ele>14.0</ele>
        <time>2019-05-17T11:58:01.178Z</time>
      </trkpt>
      <trkpt lat="39.38693167" lon="-8.50157833">
        <ele>14.0</ele>
        <time>2019-05-17T11:58:02.183Z</time>
      </trkpt>
      <trkpt lat="39.38699333" lon="-8.501535">
        <ele>13.0</ele>
        <time>2019-05-17T11:58:03.156Z</time>
      </trkpt>
      <trkpt lat="39.38699333" lon="-8.501535">
        <ele>13.0</ele>
        <time>2019-05-17T11:58:04.162Z</time>
      </trkpt>
      <trkpt lat="39.38705167" lon="-8.50149667">
        <ele>13.0</ele>
        <time>2019-05-17T11:58:05.180Z</time>
      </trkpt>
      <trkpt lat="39.38705167" lon="-8.50149667">
        <ele>13.0</ele>
        <time>2019-05-17T11:58:06.185Z</time>
      </trkpt>
      <trkpt lat="39.38711167" lon="-8.50145">
        <ele>14.0</ele>
        <time>2019-05-17T11:58:07.183Z</time>
      </trkpt>
      <trkpt lat="39.38711167" lon="-8.50145">
        <ele>14.0</ele>
        <time>2019-05-17T11:58:08.161Z</time>
      </trkpt>
      <trkpt lat="39.38717333" lon="-8.50141167">
        <ele>13.0</ele>
        <time>2019-05-17T11:58:09.155Z</time>
      </trkpt>
      <trkpt lat="39.387205" lon="-8.50138833">
        <ele>13.0</ele>
        <time>2019-05-17T11:58:10.181Z</time>
      </trkpt>
      <trkpt lat="39.38723667" lon="-8.50136667">
        <ele>14.0</ele>
        <time>2019-05-17T11:58:11.159Z</time>
      </trkpt>
      <trkpt lat="39.38723667" lon="-8.50136667">
        <ele>14.0</ele>
        <time>2019-05-17T11:58:12.179Z</time>
      </trkpt>
      <trkpt lat="39.3873" lon="-8.501325">
        <ele>14.0</ele>
        <time>2019-05-17T11:58:13.156Z</time>
      </trkpt>
      <trkpt lat="39.3873" lon="-8.501325">
        <ele>14.0</ele>
        <time>2019-05-17T11:58:14.162Z</time>
      </trkpt>
      <trkpt lat="39.38736333" lon="-8.501285">
        <ele>14.0</ele>
        <time>2019-05-17T11:58:15.185Z</time>
      </trkpt>
      <trkpt lat="39.38736333" lon="-8.501285">
        <ele>14.0</ele>
        <time>2019-05-17T11:58:16.164Z</time>
      </trkpt>
      <trkpt lat="39.38742167" lon="-8.501245">
        <ele>14.0</ele>
        <time>2019-05-17T11:58:17.179Z</time>
      </trkpt>
      <trkpt lat="39.38742167" lon="-8.501245">
        <ele>14.0</ele>
        <time>2019-05-17T11:58:18.184Z</time>
      </trkpt>
      <trkpt lat="39.38748167" lon="-8.50120833">
        <ele>15.0</ele>
        <time>2019-05-17T11:58:19.175Z</time>
      </trkpt>
      <trkpt lat="39.38748167" lon="-8.50120833">
        <ele>15.0</ele>
        <time>2019-05-17T11:58:20.186Z</time>
      </trkpt>
      <trkpt lat="39.38754333" lon="-8.50117167">
        <ele>15.0</ele>
        <time>2019-05-17T11:58:21.162Z</time>
      </trkpt>
      <trkpt lat="39.38754333" lon="-8.50117167">
        <ele>15.0</ele>
        <time>2019-05-17T11:58:22.189Z</time>
      </trkpt>
      <trkpt lat="39.387595" lon="-8.501135">
        <ele>14.0</ele>
        <time>2019-05-17T11:58:23.173Z</time>
      </trkpt>
      <trkpt lat="39.387595" lon="-8.501135">
        <ele>14.0</ele>
        <time>2019-05-17T11:58:24.178Z</time>
      </trkpt>
      <trkpt lat="39.38764667" lon="-8.5011">
        <ele>14.0</ele>
        <time>2019-05-17T11:58:25.165Z</time>
      </trkpt>
      <trkpt lat="39.38764667" lon="-8.5011">
        <ele>14.0</ele>
        <time>2019-05-17T11:58:26.185Z</time>
      </trkpt>
      <trkpt lat="39.38769833" lon="-8.50106833">
        <ele>14.0</ele>
        <time>2019-05-17T11:58:27.166Z</time>
      </trkpt>
      <trkpt lat="39.38772" lon="-8.50105333">
        <ele>13.0</ele>
        <time>2019-05-17T11:58:28.171Z</time>
      </trkpt>
      <trkpt lat="39.38774833" lon="-8.501035">
        <ele>13.0</ele>
        <time>2019-05-17T11:58:29.158Z</time>
      </trkpt>
      <trkpt lat="39.38774833" lon="-8.501035">
        <ele>13.0</ele>
        <time>2019-05-17T11:58:30.163Z</time>
      </trkpt>
      <trkpt lat="39.38780333" lon="-8.50099333">
        <ele>12.0</ele>
        <time>2019-05-17T11:58:31.185Z</time>
      </trkpt>
      <trkpt lat="39.38783" lon="-8.50097">
        <ele>12.0</ele>
        <time>2019-05-17T11:58:32.158Z</time>
      </trkpt>
      <trkpt lat="39.38783" lon="-8.50097">
        <ele>12.0</ele>
        <time>2019-05-17T11:58:33.169Z</time>
      </trkpt>
      <trkpt lat="39.38789333" lon="-8.50092333">
        <ele>11.0</ele>
        <time>2019-05-17T11:58:34.167Z</time>
      </trkpt>
      <trkpt lat="39.38792667" lon="-8.5009">
        <ele>12.0</ele>
        <time>2019-05-17T11:58:35.151Z</time>
      </trkpt>
      <trkpt lat="39.38792667" lon="-8.5009">
        <ele>12.0</ele>
        <time>2019-05-17T11:58:36.160Z</time>
      </trkpt>
      <trkpt lat="39.38799667" lon="-8.50085333">
        <ele>11.0</ele>
        <time>2019-05-17T11:58:37.177Z</time>
      </trkpt>
      <trkpt lat="39.38799667" lon="-8.50085333">
        <ele>11.0</ele>
        <time>2019-05-17T11:58:38.189Z</time>
      </trkpt>
      <trkpt lat="39.38807" lon="-8.50079833">
        <ele>12.0</ele>
        <time>2019-05-17T11:58:39.172Z</time>
      </trkpt>
      <trkpt lat="39.38807" lon="-8.50079833">
        <ele>12.0</ele>
        <time>2019-05-17T11:58:40.179Z</time>
      </trkpt>
      <trkpt lat="39.38813667" lon="-8.50075167">
        <ele>12.0</ele>
        <time>2019-05-17T11:58:41.156Z</time>
      </trkpt>
      <trkpt lat="39.38813667" lon="-8.50075167">
        <ele>12.0</ele>
        <time>2019-05-17T11:58:42.169Z</time>
      </trkpt>
      <trkpt lat="39.38819333" lon="-8.50071">
        <ele>12.0</ele>
        <time>2019-05-17T11:58:43.154Z</time>
      </trkpt>
      <trkpt lat="39.38819333" lon="-8.50071">
        <ele>12.0</ele>
        <time>2019-05-17T11:58:44.165Z</time>
      </trkpt>
      <trkpt lat="39.38825167" lon="-8.500675">
        <ele>12.0</ele>
        <time>2019-05-17T11:58:45.183Z</time>
      </trkpt>
      <trkpt lat="39.38825167" lon="-8.500675">
        <ele>12.0</ele>
        <time>2019-05-17T11:58:46.167Z</time>
      </trkpt>
      <trkpt lat="39.38831167" lon="-8.50063167">
        <ele>12.0</ele>
        <time>2019-05-17T11:58:47.183Z</time>
      </trkpt>
      <trkpt lat="39.38831167" lon="-8.50063167">
        <ele>12.0</ele>
        <time>2019-05-17T11:58:48.165Z</time>
      </trkpt>
      <trkpt lat="39.388375" lon="-8.50058833">
        <ele>13.0</ele>
        <time>2019-05-17T11:58:49.178Z</time>
      </trkpt>
      <trkpt lat="39.388375" lon="-8.50058833">
        <ele>13.0</ele>
        <time>2019-05-17T11:58:50.159Z</time>
      </trkpt>
      <trkpt lat="39.38844833" lon="-8.50054">
        <ele>14.0</ele>
        <time>2019-05-17T11:58:51.192Z</time>
      </trkpt>
      <trkpt lat="39.388485" lon="-8.50051333">
        <ele>14.0</ele>
        <time>2019-05-17T11:58:52.162Z</time>
      </trkpt>
      <trkpt lat="39.388525" lon="-8.500485">
        <ele>14.0</ele>
        <time>2019-05-17T11:58:53.184Z</time>
      </trkpt>
      <trkpt lat="39.388525" lon="-8.500485">
        <ele>14.0</ele>
        <time>2019-05-17T11:58:54.189Z</time>
      </trkpt>
      <trkpt lat="39.38861" lon="-8.500425">
        <ele>14.0</ele>
        <time>2019-05-17T11:58:55.165Z</time>
      </trkpt>
      <trkpt lat="39.38861" lon="-8.500425">
        <ele>14.0</ele>
        <time>2019-05-17T11:58:56.169Z</time>
      </trkpt>
      <trkpt lat="39.38868833" lon="-8.50037167">
        <ele>14.0</ele>
        <time>2019-05-17T11:58:57.157Z</time>
      </trkpt>
      <trkpt lat="39.38868833" lon="-8.50037167">
        <ele>14.0</ele>
        <time>2019-05-17T11:58:58.153Z</time>
      </trkpt>
      <trkpt lat="39.38875667" lon="-8.50032333">
        <ele>14.0</ele>
        <time>2019-05-17T11:58:59.154Z</time>
      </trkpt>
      <trkpt lat="39.38875667" lon="-8.50032333">
        <ele>14.0</ele>
        <time>2019-05-17T11:59:00.168Z</time>
      </trkpt>
      <trkpt lat="39.38881667" lon="-8.50028">
        <ele>13.0</ele>
        <time>2019-05-17T11:59:01.153Z</time>
      </trkpt>
      <trkpt lat="39.38881667" lon="-8.50028">
        <ele>13.0</ele>
        <time>2019-05-17T11:59:02.160Z</time>
      </trkpt>
      <trkpt lat="39.388875" lon="-8.50024">
        <ele>14.0</ele>
        <time>2019-05-17T11:59:03.179Z</time>
      </trkpt>
      <trkpt lat="39.388905" lon="-8.50022167">
        <ele>14.0</ele>
        <time>2019-05-17T11:59:04.163Z</time>
      </trkpt>
      <trkpt lat="39.388935" lon="-8.50020167">
        <ele>14.0</ele>
        <time>2019-05-17T11:59:05.181Z</time>
      </trkpt>
      <trkpt lat="39.388935" lon="-8.50020167">
        <ele>14.0</ele>
        <time>2019-05-17T11:59:06.169Z</time>
      </trkpt>
      <trkpt lat="39.38899333" lon="-8.50016333">
        <ele>14.0</ele>
        <time>2019-05-17T11:59:07.152Z</time>
      </trkpt>
      <trkpt lat="39.38902167" lon="-8.50014333">
        <ele>14.0</ele>
        <time>2019-05-17T11:59:08.159Z</time>
      </trkpt>
      <trkpt lat="39.38902167" lon="-8.50014333">
        <ele>14.0</ele>
        <time>2019-05-17T11:59:09.171Z</time>
      </trkpt>
      <trkpt lat="39.38907833" lon="-8.50010333">
        <ele>14.0</ele>
        <time>2019-05-17T11:59:10.153Z</time>
      </trkpt>
      <trkpt lat="39.38910833" lon="-8.50008333">
        <ele>14.0</ele>
        <time>2019-05-17T11:59:11.174Z</time>
      </trkpt>
      <trkpt lat="39.38913833" lon="-8.50006167">
        <ele>14.0</ele>
        <time>2019-05-17T11:59:12.167Z</time>
      </trkpt>
      <trkpt lat="39.38913833" lon="-8.50006167">
        <ele>14.0</ele>
        <time>2019-05-17T11:59:13.156Z</time>
      </trkpt>
      <trkpt lat="39.3892" lon="-8.50001667">
        <ele>14.0</ele>
        <time>2019-05-17T11:59:14.171Z</time>
      </trkpt>
      <trkpt lat="39.3892" lon="-8.50001667">
        <ele>14.0</ele>
        <time>2019-05-17T11:59:15.181Z</time>
      </trkpt>
      <trkpt lat="39.38926167" lon="-8.49997167">
        <ele>14.0</ele>
        <time>2019-05-17T11:59:16.166Z</time>
      </trkpt>
      <trkpt lat="39.38929333" lon="-8.49995333">
        <ele>14.0</ele>
        <time>2019-05-17T11:59:17.176Z</time>
      </trkpt>
      <trkpt lat="39.38929333" lon="-8.49995333">
        <ele>14.0</ele>
        <time>2019-05-17T11:59:18.164Z</time>
      </trkpt>
      <trkpt lat="39.389355" lon="-8.49991333">
        <ele>14.0</ele>
        <time>2019-05-17T11:59:19.153Z</time>
      </trkpt>
      <trkpt lat="39.38938333" lon="-8.49988833">
        <ele>14.0</ele>
        <time>2019-05-17T11:59:20.172Z</time>
      </trkpt>
      <trkpt lat="39.38938333" lon="-8.49988833">
        <ele>14.0</ele>
        <time>2019-05-17T11:59:21.187Z</time>
      </trkpt>
      <trkpt lat="39.38943833" lon="-8.49984667">
        <ele>15.0</ele>
        <time>2019-05-17T11:59:22.171Z</time>
      </trkpt>
      <trkpt lat="39.38946667" lon="-8.499825">
        <ele>15.0</ele>
        <time>2019-05-17T11:59:23.163Z</time>
      </trkpt>
      <trkpt lat="39.38946667" lon="-8.499825">
        <ele>15.0</ele>
        <time>2019-05-17T11:59:24.176Z</time>
      </trkpt>
      <trkpt lat="39.38952333" lon="-8.49978167">
        <ele>15.0</ele>
        <time>2019-05-17T11:59:25.152Z</time>
      </trkpt>
      <trkpt lat="39.38952333" lon="-8.49978167">
        <ele>15.0</ele>
        <time>2019-05-17T11:59:26.158Z</time>
      </trkpt>
      <trkpt lat="39.38958" lon="-8.49974">
        <ele>15.0</ele>
        <time>2019-05-17T11:59:27.177Z</time>
      </trkpt>
      <trkpt lat="39.38958" lon="-8.49974">
        <ele>15.0</ele>
        <time>2019-05-17T11:59:28.188Z</time>
      </trkpt>
      <trkpt lat="39.389635" lon="-8.49969833">
        <ele>15.0</ele>
        <time>2019-05-17T11:59:29.171Z</time>
      </trkpt>
      <trkpt lat="39.389635" lon="-8.49969833">
        <ele>15.0</ele>
        <time>2019-05-17T11:59:30.177Z</time>
      </trkpt>
      <trkpt lat="39.389685" lon="-8.49965667">
        <ele>14.0</ele>
        <time>2019-05-17T11:59:31.162Z</time>
      </trkpt>
      <trkpt lat="39.389685" lon="-8.49965667">
        <ele>14.0</ele>
        <time>2019-05-17T11:59:32.179Z</time>
      </trkpt>
      <trkpt lat="39.38973833" lon="-8.49961833">
        <ele>14.0</ele>
        <time>2019-05-17T11:59:33.166Z</time>
      </trkpt>
      <trkpt lat="39.38973833" lon="-8.49961833">
        <ele>14.0</ele>
        <time>2019-05-17T11:59:34.176Z</time>
      </trkpt>
      <trkpt lat="39.38979333" lon="-8.49958">
        <ele>14.0</ele>
        <time>2019-05-17T11:59:35.163Z</time>
      </trkpt>
      <trkpt lat="39.38979333" lon="-8.49958">
        <ele>14.0</ele>
        <time>2019-05-17T11:59:36.177Z</time>
      </trkpt>
      <trkpt lat="39.38985" lon="-8.499535">
        <ele>14.0</ele>
        <time>2019-05-17T11:59:37.152Z</time>
      </trkpt>
      <trkpt lat="39.38985" lon="-8.499535">
        <ele>14.0</ele>
        <time>2019-05-17T11:59:38.159Z</time>
      </trkpt>
      <trkpt lat="39.38990833" lon="-8.49948667">
        <ele>14.0</ele>
        <time>2019-05-17T11:59:39.185Z</time>
      </trkpt>
      <trkpt lat="39.38990833" lon="-8.49948667">
        <ele>14.0</ele>
        <time>2019-05-17T11:59:40.159Z</time>
      </trkpt>
      <trkpt lat="39.38996833" lon="-8.49944167">
        <ele>14.0</ele>
        <time>2019-05-17T11:59:41.174Z</time>
      </trkpt>
      <trkpt lat="39.38996833" lon="-8.49944167">
        <ele>14.0</ele>
        <time>2019-05-17T11:59:42.153Z</time>
      </trkpt>
      <trkpt lat="39.39003167" lon="-8.49939">
        <ele>15.0</ele>
        <time>2019-05-17T11:59:43.173Z</time>
      </trkpt>
      <trkpt lat="39.39006167" lon="-8.499365">
        <ele>15.0</ele>
        <time>2019-05-17T11:59:44.163Z</time>
      </trkpt>
      <trkpt lat="39.39006167" lon="-8.499365">
        <ele>15.0</ele>
        <time>2019-05-17T11:59:45.179Z</time>
      </trkpt>
      <trkpt lat="39.390125" lon="-8.499315">
        <ele>15.0</ele>
        <time>2019-05-17T11:59:46.153Z</time>
      </trkpt>
      <trkpt lat="39.39015333" lon="-8.49928667">
        <ele>15.0</ele>
        <time>2019-05-17T11:59:47.177Z</time>
      </trkpt>
      <trkpt lat="39.39015333" lon="-8.49928667">
        <ele>15.0</ele>
        <time>2019-05-17T11:59:48.182Z</time>
      </trkpt>
      <trkpt lat="39.39021" lon="-8.49923167">
        <ele>15.0</ele>
        <time>2019-05-17T11:59:49.158Z</time>
      </trkpt>
      <trkpt lat="39.39023833" lon="-8.49920333">
        <ele>15.0</ele>
        <time>2019-05-17T11:59:50.162Z</time>
      </trkpt>
      <trkpt lat="39.39023833" lon="-8.49920333">
        <ele>15.0</ele>
        <time>2019-05-17T11:59:51.177Z</time>
      </trkpt>
      <trkpt lat="39.39028833" lon="-8.49915">
        <ele>15.0</ele>
        <time>2019-05-17T11:59:52.163Z</time>
      </trkpt>
      <trkpt lat="39.39031333" lon="-8.49912333">
        <ele>15.0</ele>
        <time>2019-05-17T11:59:53.150Z</time>
      </trkpt>
      <trkpt lat="39.39031333" lon="-8.49912333">
        <ele>15.0</ele>
        <time>2019-05-17T11:59:54.155Z</time>
      </trkpt>
      <trkpt lat="39.39036667" lon="-8.49907333">
        <ele>15.0</ele>
        <time>2019-05-17T11:59:55.182Z</time>
      </trkpt>
      <trkpt lat="39.39036667" lon="-8.49907333">
        <ele>15.0</ele>
        <time>2019-05-17T11:59:56.187Z</time>
      </trkpt>
      <trkpt lat="39.39041833" lon="-8.49901167">
        <ele>14.0</ele>
        <time>2019-05-17T11:59:57.158Z</time>
      </trkpt>
      <trkpt lat="39.39041833" lon="-8.49901167">
        <ele>14.0</ele>
        <time>2019-05-17T11:59:58.171Z</time>
      </trkpt>
      <trkpt lat="39.39047667" lon="-8.498955">
        <ele>15.0</ele>
        <time>2019-05-17T11:59:59.167Z</time>
      </trkpt>
      <trkpt lat="39.39047667" lon="-8.498955">
        <ele>15.0</ele>
        <time>2019-05-17T12:00:00.182Z</time>
      </trkpt>
      <trkpt lat="39.39053" lon="-8.498885">
        <ele>15.0</ele>
        <time>2019-05-17T12:00:01.163Z</time>
      </trkpt>
      <trkpt lat="39.39053" lon="-8.498885">
        <ele>15.0</ele>
        <time>2019-05-17T12:00:02.170Z</time>
      </trkpt>
      <trkpt lat="39.39058" lon="-8.49881333">
        <ele>14.0</ele>
        <time>2019-05-17T12:00:03.156Z</time>
      </trkpt>
      <trkpt lat="39.39058" lon="-8.49881333">
        <ele>14.0</ele>
        <time>2019-05-17T12:00:04.162Z</time>
      </trkpt>
      <trkpt lat="39.39062167" lon="-8.498735">
        <ele>14.0</ele>
        <time>2019-05-17T12:00:05.183Z</time>
      </trkpt>
      <trkpt lat="39.39062167" lon="-8.498735">
        <ele>14.0</ele>
        <time>2019-05-17T12:00:06.189Z</time>
      </trkpt>
      <trkpt lat="39.39066167" lon="-8.49866">
        <ele>14.0</ele>
        <time>2019-05-17T12:00:07.172Z</time>
      </trkpt>
      <trkpt lat="39.39066167" lon="-8.49866">
        <ele>14.0</ele>
        <time>2019-05-17T12:00:08.154Z</time>
      </trkpt>
      <trkpt lat="39.39070167" lon="-8.49858833">
        <ele>13.0</ele>
        <time>2019-05-17T12:00:09.152Z</time>
      </trkpt>
      <trkpt lat="39.39070167" lon="-8.49858833">
        <ele>13.0</ele>
        <time>2019-05-17T12:00:10.151Z</time>
      </trkpt>
      <trkpt lat="39.39074333" lon="-8.49851667">
        <ele>13.0</ele>
        <time>2019-05-17T12:00:11.168Z</time>
      </trkpt>
      <trkpt lat="39.39074333" lon="-8.49851667">
        <ele>13.0</ele>
        <time>2019-05-17T12:00:12.179Z</time>
      </trkpt>
      <trkpt lat="39.39078167" lon="-8.49843833">
        <ele>13.0</ele>
        <time>2019-05-17T12:00:13.158Z</time>
      </trkpt>
      <trkpt lat="39.39078167" lon="-8.49843833">
        <ele>13.0</ele>
        <time>2019-05-17T12:00:14.164Z</time>
      </trkpt>
      <trkpt lat="39.39081833" lon="-8.498365">
        <ele>13.0</ele>
        <time>2019-05-17T12:00:15.177Z</time>
      </trkpt>
      <trkpt lat="39.39083333" lon="-8.49833833">
        <ele>13.0</ele>
        <time>2019-05-17T12:00:16.176Z</time>
      </trkpt>
      <trkpt lat="39.390855" lon="-8.49830667">
        <ele>13.0</ele>
        <time>2019-05-17T12:00:17.175Z</time>
      </trkpt>
      <trkpt lat="39.390855" lon="-8.49830667">
        <ele>13.0</ele>
        <time>2019-05-17T12:00:18.181Z</time>
      </trkpt>
      <trkpt lat="39.390895" lon="-8.49824167">
        <ele>13.0</ele>
        <time>2019-05-17T12:00:19.168Z</time>
      </trkpt>
      <trkpt lat="39.390895" lon="-8.49824167">
        <ele>13.0</ele>
        <time>2019-05-17T12:00:20.173Z</time>
      </trkpt>
      <trkpt lat="39.39091333" lon="-8.49817333">
        <ele>13.0</ele>
        <time>2019-05-17T12:00:21.150Z</time>
      </trkpt>
      <trkpt lat="39.39091333" lon="-8.49817333">
        <ele>13.0</ele>
        <time>2019-05-17T12:00:22.156Z</time>
      </trkpt>
      <trkpt lat="39.39088333" lon="-8.49812333">
        <ele>13.0</ele>
        <time>2019-05-17T12:00:23.177Z</time>
      </trkpt>
      <trkpt lat="39.39088333" lon="-8.49812333">
        <ele>13.0</ele>
        <time>2019-05-17T12:00:24.159Z</time>
      </trkpt>
      <trkpt lat="39.39083167" lon="-8.498105">
        <ele>13.0</ele>
        <time>2019-05-17T12:00:25.173Z</time>
      </trkpt>
      <trkpt lat="39.39083167" lon="-8.498105">
        <ele>13.0</ele>
        <time>2019-05-17T12:00:26.161Z</time>
      </trkpt>
      <trkpt lat="39.39081" lon="-8.49807167">
        <ele>13.0</ele>
        <time>2019-05-17T12:00:27.183Z</time>
      </trkpt>
      <trkpt lat="39.39081667" lon="-8.49806">
        <ele>13.0</ele>
        <time>2019-05-17T12:00:28.177Z</time>
      </trkpt>
      <trkpt lat="39.39082333" lon="-8.498055">
        <ele>14.0</ele>
        <time>2019-05-17T12:00:29.170Z</time>
      </trkpt>
      <trkpt lat="39.39082333" lon="-8.498055">
        <ele>14.0</ele>
        <time>2019-05-17T12:00:30.182Z</time>
      </trkpt>
      <trkpt lat="39.39082167" lon="-8.49804333">
        <ele>14.0</ele>
        <time>2019-05-17T12:00:31.154Z</time>
      </trkpt>
      <trkpt lat="39.39082167" lon="-8.49804333">
        <ele>14.0</ele>
        <time>2019-05-17T12:00:32.159Z</time>
      </trkpt>
      <trkpt lat="39.39082167" lon="-8.49804333">
        <ele>14.0</ele>
        <time>2019-05-17T12:00:33.187Z</time>
      </trkpt>
      <trkpt lat="39.39082167" lon="-8.49804333">
        <ele>14.0</ele>
        <time>2019-05-17T12:00:34.152Z</time>
      </trkpt>
      <trkpt lat="39.39082167" lon="-8.49804333">
        <ele>14.0</ele>
        <time>2019-05-17T12:00:35.163Z</time>
      </trkpt>
      <trkpt lat="39.39082167" lon="-8.49804333">
        <ele>14.0</ele>
        <time>2019-05-17T12:00:36.169Z</time>
      </trkpt>
      <trkpt lat="39.39082167" lon="-8.49804333">
        <ele>14.0</ele>
        <time>2019-05-17T12:00:37.183Z</time>
      </trkpt>
      <trkpt lat="39.39082167" lon="-8.49804333">
        <ele>14.0</ele>
        <time>2019-05-17T12:00:38.172Z</time>
      </trkpt>
      <trkpt lat="39.39082167" lon="-8.49804333">
        <ele>14.0</ele>
        <time>2019-05-17T12:00:39.158Z</time>
      </trkpt>
      <trkpt lat="39.39082167" lon="-8.49804333">
        <ele>14.0</ele>
        <time>2019-05-17T12:00:40.186Z</time>
      </trkpt>
      <trkpt lat="39.39082167" lon="-8.49804333">
        <ele>14.0</ele>
        <time>2019-05-17T12:00:41.153Z</time>
      </trkpt>
      <trkpt lat="39.39082167" lon="-8.49804333">
        <ele>14.0</ele>
        <time>2019-05-17T12:00:42.161Z</time>
      </trkpt>
      <trkpt lat="39.39082167" lon="-8.49804333">
        <ele>14.0</ele>
        <time>2019-05-17T12:00:43.158Z</time>
      </trkpt>
      <trkpt lat="39.39082167" lon="-8.49804333">
        <ele>14.0</ele>
        <time>2019-05-17T12:00:44.188Z</time>
      </trkpt>
      <trkpt lat="39.39082167" lon="-8.49804333">
        <ele>14.0</ele>
        <time>2019-05-17T12:00:45.153Z</time>
      </trkpt>
      <trkpt lat="39.39082167" lon="-8.49804333">
        <ele>14.0</ele>
        <time>2019-05-17T12:00:46.150Z</time>
      </trkpt>
      <trkpt lat="39.39082167" lon="-8.49804333">
        <ele>14.0</ele>
        <time>2019-05-17T12:00:47.154Z</time>
      </trkpt>
      <trkpt lat="39.39082167" lon="-8.49804333">
        <ele>14.0</ele>
        <time>2019-05-17T12:00:48.187Z</time>
      </trkpt>
      <trkpt lat="39.39082167" lon="-8.49804333">
        <ele>14.0</ele>
        <time>2019-05-17T12:00:49.152Z</time>
      </trkpt>
      <trkpt lat="39.39082167" lon="-8.49804333">
        <ele>14.0</ele>
        <time>2019-05-17T12:00:50.153Z</time>
      </trkpt>
      <trkpt lat="39.39082167" lon="-8.49804333">
        <ele>14.0</ele>
        <time>2019-05-17T12:00:51.151Z</time>
      </trkpt>
      <trkpt lat="39.39082167" lon="-8.49804333">
        <ele>14.0</ele>
        <time>2019-05-17T12:00:52.152Z</time>
      </trkpt>
      <trkpt lat="39.39082167" lon="-8.49804333">
        <ele>14.0</ele>
        <time>2019-05-17T12:00:53.151Z</time>
      </trkpt>
      <trkpt lat="39.39082167" lon="-8.49804333">
        <ele>14.0</ele>
        <time>2019-05-17T12:00:54.187Z</time>
      </trkpt>
      <trkpt lat="39.39082167" lon="-8.49804333">
        <ele>14.0</ele>
        <time>2019-05-17T12:00:55.153Z</time>
      </trkpt>
      <trkpt lat="39.39082167" lon="-8.49804333">
        <ele>14.0</ele>
        <time>2019-05-17T12:00:56.187Z</time>
      </trkpt>
      <trkpt lat="39.39082167" lon="-8.49804333">
        <ele>14.0</ele>
        <time>2019-05-17T12:00:57.152Z</time>
      </trkpt>
      <trkpt lat="39.39082167" lon="-8.49804333">
        <ele>14.0</ele>
        <time>2019-05-17T12:00:58.187Z</time>
      </trkpt>
      <trkpt lat="39.39082167" lon="-8.49804333">
        <ele>14.0</ele>
        <time>2019-05-17T12:00:59.153Z</time>
      </trkpt>
      <trkpt lat="39.39082167" lon="-8.49804333">
        <ele>14.0</ele>
        <time>2019-05-17T12:01:00.189Z</time>
      </trkpt>
      <trkpt lat="39.39082167" lon="-8.49804333">
        <ele>14.0</ele>
        <time>2019-05-17T12:01:01.152Z</time>
      </trkpt>
      <trkpt lat="39.39082167" lon="-8.49804333">
        <ele>14.0</ele>
        <time>2019-05-17T12:01:02.154Z</time>
      </trkpt>
      <trkpt lat="39.39082167" lon="-8.49804333">
        <ele>14.0</ele>
        <time>2019-05-17T12:01:03.187Z</time>
      </trkpt>
      <trkpt lat="39.39082167" lon="-8.49804333">
        <ele>14.0</ele>
        <time>2019-05-17T12:01:04.152Z</time>
      </trkpt>
      <trkpt lat="39.39082167" lon="-8.49804333">
        <ele>14.0</ele>
        <time>2019-05-17T12:01:05.154Z</time>
      </trkpt>
      <trkpt lat="39.39082167" lon="-8.49804333">
        <ele>14.0</ele>
        <time>2019-05-17T12:01:06.152Z</time>
      </trkpt>
      <trkpt lat="39.39082167" lon="-8.49804333">
        <ele>14.0</ele>
        <time>2019-05-17T12:01:07.187Z</time>
      </trkpt>
      <trkpt lat="39.39082167" lon="-8.49804333">
        <ele>14.0</ele>
        <time>2019-05-17T12:01:08.152Z</time>
      </trkpt>
      <trkpt lat="39.39082167" lon="-8.49804333">
        <ele>14.0</ele>
        <time>2019-05-17T12:01:09.151Z</time>
      </trkpt>
      <trkpt lat="39.39082167" lon="-8.49804333">
        <ele>14.0</ele>
        <time>2019-05-17T12:01:10.164Z</time>
      </trkpt>
      <trkpt lat="39.39082167" lon="-8.49804333">
        <ele>14.0</ele>
        <time>2019-05-17T12:01:11.170Z</time>
      </trkpt>
      <trkpt lat="39.39082167" lon="-8.49804333">
        <ele>14.0</ele>
        <time>2019-05-17T12:01:12.189Z</time>
      </trkpt>
      <trkpt lat="39.39082167" lon="-8.49804333">
        <ele>14.0</ele>
        <time>2019-05-17T12:01:13.152Z</time>
      </trkpt>
      <trkpt lat="39.39082167" lon="-8.49804333">
        <ele>14.0</ele>
        <time>2019-05-17T12:01:14.187Z</time>
      </trkpt>
      <trkpt lat="39.39082167" lon="-8.49804333">
        <ele>14.0</ele>
        <time>2019-05-17T12:01:15.152Z</time>
      </trkpt>
      <trkpt lat="39.39082167" lon="-8.49804333">
        <ele>14.0</ele>
        <time>2019-05-17T12:01:16.187Z</time>
      </trkpt>
      <trkpt lat="39.39082167" lon="-8.49804333">
        <ele>14.0</ele>
        <time>2019-05-17T12:01:17.161Z</time>
      </trkpt>
      <trkpt lat="39.39082167" lon="-8.49804333">
        <ele>14.0</ele>
        <time>2019-05-17T12:01:18.152Z</time>
      </trkpt>
      <trkpt lat="39.39082167" lon="-8.49804333">
        <ele>14.0</ele>
        <time>2019-05-17T12:01:19.187Z</time>
      </trkpt>
      <trkpt lat="39.39082167" lon="-8.49804333">
        <ele>14.0</ele>
        <time>2019-05-17T12:01:20.173Z</time>
      </trkpt>
      <trkpt lat="39.39082167" lon="-8.49804333">
        <ele>14.0</ele>
        <time>2019-05-17T12:01:21.158Z</time>
      </trkpt>
      <trkpt lat="39.39082167" lon="-8.49804333">
        <ele>14.0</ele>
        <time>2019-05-17T12:01:22.187Z</time>
      </trkpt>
      <trkpt lat="39.39082167" lon="-8.49804333">
        <ele>14.0</ele>
        <time>2019-05-17T12:01:23.153Z</time>
      </trkpt>
      <trkpt lat="39.39082167" lon="-8.49804333">
        <ele>14.0</ele>
        <time>2019-05-17T12:01:24.187Z</time>
      </trkpt>
      <trkpt lat="39.39082167" lon="-8.49804333">
        <ele>14.0</ele>
        <time>2019-05-17T12:01:25.152Z</time>
      </trkpt>
      <trkpt lat="39.39082167" lon="-8.49804333">
        <ele>14.0</ele>
        <time>2019-05-17T12:01:26.187Z</time>
      </trkpt>
      <trkpt lat="39.39082167" lon="-8.49804333">
        <ele>14.0</ele>
        <time>2019-05-17T12:01:27.152Z</time>
      </trkpt>
      <trkpt lat="39.39082167" lon="-8.49804333">
        <ele>14.0</ele>
        <time>2019-05-17T12:01:28.187Z</time>
      </trkpt>
      <trkpt lat="39.39082167" lon="-8.49804333">
        <ele>14.0</ele>
        <time>2019-05-17T12:01:29.153Z</time>
      </trkpt>
      <trkpt lat="39.39082167" lon="-8.49804333">
        <ele>14.0</ele>
        <time>2019-05-17T12:01:30.184Z</time>
      </trkpt>
      <trkpt lat="39.39082167" lon="-8.49804333">
        <ele>14.0</ele>
        <time>2019-05-17T12:01:31.168Z</time>
      </trkpt>
      <trkpt lat="39.39082167" lon="-8.49804333">
        <ele>14.0</ele>
        <time>2019-05-17T12:01:32.153Z</time>
      </trkpt>
      <trkpt lat="39.39082167" lon="-8.49804333">
        <ele>14.0</ele>
        <time>2019-05-17T12:01:33.152Z</time>
      </trkpt>
      <trkpt lat="39.39082167" lon="-8.49804333">
        <ele>14.0</ele>
        <time>2019-05-17T12:01:34.187Z</time>
      </trkpt>
      <trkpt lat="39.39082167" lon="-8.49804333">
        <ele>14.0</ele>
        <time>2019-05-17T12:01:35.153Z</time>
      </trkpt>
      <trkpt lat="39.39082167" lon="-8.49804333">
        <ele>14.0</ele>
        <time>2019-05-17T12:01:36.179Z</time>
      </trkpt>
      <trkpt lat="39.39082167" lon="-8.49804333">
        <ele>14.0</ele>
        <time>2019-05-17T12:01:37.163Z</time>
      </trkpt>
      <trkpt lat="39.39082167" lon="-8.49804333">
        <ele>14.0</ele>
        <time>2019-05-17T12:01:38.189Z</time>
      </trkpt>
      <trkpt lat="39.39082167" lon="-8.49804333">
        <ele>14.0</ele>
        <time>2019-05-17T12:01:39.151Z</time>
      </trkpt>
      <trkpt lat="39.39082167" lon="-8.49804333">
        <ele>14.0</ele>
        <time>2019-05-17T12:01:40.189Z</time>
      </trkpt>
      <trkpt lat="39.39082167" lon="-8.49804333">
        <ele>14.0</ele>
        <time>2019-05-17T12:01:41.155Z</time>
      </trkpt>
      <trkpt lat="39.39082167" lon="-8.49804333">
        <ele>14.0</ele>
        <time>2019-05-17T12:01:42.187Z</time>
      </trkpt>
      <trkpt lat="39.39082167" lon="-8.49804333">
        <ele>14.0</ele>
        <time>2019-05-17T12:01:43.152Z</time>
      </trkpt>
      <trkpt lat="39.39082167" lon="-8.49804333">
        <ele>14.0</ele>
        <time>2019-05-17T12:01:44.188Z</time>
      </trkpt>
      <trkpt lat="39.39082167" lon="-8.49804333">
        <ele>14.0</ele>
        <time>2019-05-17T12:01:45.158Z</time>
      </trkpt>
      <trkpt lat="39.39082167" lon="-8.49804333">
        <ele>14.0</ele>
        <time>2019-05-17T12:01:46.187Z</time>
      </trkpt>
      <trkpt lat="39.39082167" lon="-8.49804333">
        <ele>14.0</ele>
        <time>2019-05-17T12:01:47.151Z</time>
      </trkpt>
      <trkpt lat="39.39082167" lon="-8.49804333">
        <ele>14.0</ele>
        <time>2019-05-17T12:01:48.187Z</time>
      </trkpt>
      <trkpt lat="39.39082167" lon="-8.49804333">
        <ele>14.0</ele>
        <time>2019-05-17T12:01:49.153Z</time>
      </trkpt>
      <trkpt lat="39.39082167" lon="-8.49804333">
        <ele>14.0</ele>
        <time>2019-05-17T12:01:50.188Z</time>
      </trkpt>
      <trkpt lat="39.39082167" lon="-8.49804333">
        <ele>14.0</ele>
        <time>2019-05-17T12:01:51.152Z</time>
      </trkpt>
      <trkpt lat="39.39082167" lon="-8.49804333">
        <ele>14.0</ele>
        <time>2019-05-17T12:01:52.187Z</time>
      </trkpt>
      <trkpt lat="39.39082167" lon="-8.49804333">
        <ele>14.0</ele>
        <time>2019-05-17T12:01:53.154Z</time>
      </trkpt>
      <trkpt lat="39.39082167" lon="-8.49804333">
        <ele>14.0</ele>
        <time>2019-05-17T12:01:54.187Z</time>
      </trkpt>
      <trkpt lat="39.39082167" lon="-8.49804333">
        <ele>14.0</ele>
        <time>2019-05-17T12:01:55.152Z</time>
      </trkpt>
      <trkpt lat="39.39082167" lon="-8.49804333">
        <ele>14.0</ele>
        <time>2019-05-17T12:01:56.189Z</time>
      </trkpt>
      <trkpt lat="39.39082167" lon="-8.49804333">
        <ele>14.0</ele>
        <time>2019-05-17T12:01:57.152Z</time>
      </trkpt>
      <trkpt lat="39.39082167" lon="-8.49804333">
        <ele>14.0</ele>
        <time>2019-05-17T12:01:58.187Z</time>
      </trkpt>
      <trkpt lat="39.39082167" lon="-8.49804333">
        <ele>14.0</ele>
        <time>2019-05-17T12:01:59.155Z</time>
      </trkpt>
      <trkpt lat="39.39082167" lon="-8.49804333">
        <ele>14.0</ele>
        <time>2019-05-17T12:02:00.187Z</time>
      </trkpt>
      <trkpt lat="39.39082167" lon="-8.49804333">
        <ele>14.0</ele>
        <time>2019-05-17T12:02:01.172Z</time>
      </trkpt>
      <trkpt lat="39.39082167" lon="-8.49804333">
        <ele>14.0</ele>
        <time>2019-05-17T12:02:02.158Z</time>
      </trkpt>
      <trkpt lat="39.39082167" lon="-8.49804333">
        <ele>14.0</ele>
        <time>2019-05-17T12:02:03.152Z</time>
      </trkpt>
      <trkpt lat="39.39082167" lon="-8.49804333">
        <ele>14.0</ele>
        <time>2019-05-17T12:02:04.188Z</time>
      </trkpt>
      <trkpt lat="39.39082167" lon="-8.49804333">
        <ele>14.0</ele>
        <time>2019-05-17T12:02:05.154Z</time>
      </trkpt>
      <trkpt lat="39.39082167" lon="-8.49804333">
        <ele>14.0</ele>
        <time>2019-05-17T12:02:06.156Z</time>
      </trkpt>
      <trkpt lat="39.39082167" lon="-8.49804333">
        <ele>14.0</ele>
        <time>2019-05-17T12:02:07.153Z</time>
      </trkpt>
      <trkpt lat="39.39082167" lon="-8.49804333">
        <ele>14.0</ele>
        <time>2019-05-17T12:02:08.187Z</time>
      </trkpt>
      <trkpt lat="39.39082167" lon="-8.49804333">
        <ele>14.0</ele>
        <time>2019-05-17T12:02:09.188Z</time>
      </trkpt>
      <trkpt lat="39.39082167" lon="-8.49804333">
        <ele>14.0</ele>
        <time>2019-05-17T12:02:10.178Z</time>
      </trkpt>
      <trkpt lat="39.39082167" lon="-8.49804333">
        <ele>14.0</ele>
        <time>2019-05-17T12:02:11.185Z</time>
      </trkpt>
      <trkpt lat="39.39082167" lon="-8.49804333">
        <ele>14.0</ele>
        <time>2019-05-17T12:02:12.151Z</time>
      </trkpt>
      <trkpt lat="39.39082167" lon="-8.49804333">
        <ele>14.0</ele>
        <time>2019-05-17T12:02:13.152Z</time>
      </trkpt>
      <trkpt lat="39.39082167" lon="-8.49804333">
        <ele>14.0</ele>
        <time>2019-05-17T12:02:14.188Z</time>
      </trkpt>
      <trkpt lat="39.39082167" lon="-8.49804333">
        <ele>14.0</ele>
        <time>2019-05-17T12:02:15.153Z</time>
      </trkpt>
      <trkpt lat="39.39082167" lon="-8.49804333">
        <ele>14.0</ele>
        <time>2019-05-17T12:02:16.184Z</time>
      </trkpt>
      <trkpt lat="39.39082167" lon="-8.49804333">
        <ele>14.0</ele>
        <time>2019-05-17T12:02:17.174Z</time>
      </trkpt>
      <trkpt lat="39.39082167" lon="-8.49804333">
        <ele>14.0</ele>
        <time>2019-05-17T12:02:18.164Z</time>
      </trkpt>
      <trkpt lat="39.39082167" lon="-8.49804333">
        <ele>14.0</ele>
        <time>2019-05-17T12:02:19.153Z</time>
      </trkpt>
      <trkpt lat="39.39082167" lon="-8.49804333">
        <ele>14.0</ele>
        <time>2019-05-17T12:02:20.188Z</time>
      </trkpt>
      <trkpt lat="39.39082167" lon="-8.49804333">
        <ele>14.0</ele>
        <time>2019-05-17T12:02:21.152Z</time>
      </trkpt>
      <trkpt lat="39.39082167" lon="-8.49804333">
        <ele>14.0</ele>
        <time>2019-05-17T12:02:22.188Z</time>
      </trkpt>
      <trkpt lat="39.39082167" lon="-8.49804333">
        <ele>14.0</ele>
        <time>2019-05-17T12:02:23.154Z</time>
      </trkpt>
      <trkpt lat="39.39082167" lon="-8.49804333">
        <ele>14.0</ele>
        <time>2019-05-17T12:02:24.188Z</time>
      </trkpt>
      <trkpt lat="39.39082167" lon="-8.49804333">
        <ele>14.0</ele>
        <time>2019-05-17T12:02:25.152Z</time>
      </trkpt>
      <trkpt lat="39.39082167" lon="-8.49804333">
        <ele>14.0</ele>
        <time>2019-05-17T12:02:26.188Z</time>
      </trkpt>
      <trkpt lat="39.39082167" lon="-8.49804333">
        <ele>14.0</ele>
        <time>2019-05-17T12:02:27.152Z</time>
      </trkpt>
      <trkpt lat="39.39082167" lon="-8.49804333">
        <ele>14.0</ele>
        <time>2019-05-17T12:02:28.187Z</time>
      </trkpt>
      <trkpt lat="39.39082167" lon="-8.49804333">
        <ele>14.0</ele>
        <time>2019-05-17T12:02:29.154Z</time>
      </trkpt>
      <trkpt lat="39.39082167" lon="-8.49804333">
        <ele>14.0</ele>
        <time>2019-05-17T12:02:30.187Z</time>
      </trkpt>
      <trkpt lat="39.39082167" lon="-8.49804333">
        <ele>14.0</ele>
        <time>2019-05-17T12:02:31.153Z</time>
      </trkpt>
      <trkpt lat="39.39082167" lon="-8.49804333">
        <ele>14.0</ele>
        <time>2019-05-17T12:02:32.187Z</time>
      </trkpt>
      <trkpt lat="39.39082167" lon="-8.49804333">
        <ele>14.0</ele>
        <time>2019-05-17T12:02:33.152Z</time>
      </trkpt>
      <trkpt lat="39.39082167" lon="-8.49804333">
        <ele>14.0</ele>
        <time>2019-05-17T12:02:34.187Z</time>
      </trkpt>
      <trkpt lat="39.39082167" lon="-8.49804333">
        <ele>14.0</ele>
        <time>2019-05-17T12:02:35.154Z</time>
      </trkpt>
      <trkpt lat="39.39082167" lon="-8.49804333">
        <ele>14.0</ele>
        <time>2019-05-17T12:02:36.187Z</time>
      </trkpt>
      <trkpt lat="39.39082167" lon="-8.49804333">
        <ele>14.0</ele>
        <time>2019-05-17T12:02:37.150Z</time>
      </trkpt>
      <trkpt lat="39.39082167" lon="-8.49804333">
        <ele>14.0</ele>
        <time>2019-05-17T12:02:38.187Z</time>
      </trkpt>
      <trkpt lat="39.39082167" lon="-8.49804333">
        <ele>14.0</ele>
        <time>2019-05-17T12:02:39.152Z</time>
      </trkpt>
      <trkpt lat="39.39082167" lon="-8.49804333">
        <ele>14.0</ele>
        <time>2019-05-17T12:02:40.187Z</time>
      </trkpt>
      <trkpt lat="39.39082167" lon="-8.49804333">
        <ele>14.0</ele>
        <time>2019-05-17T12:02:41.165Z</time>
      </trkpt>
      <trkpt lat="39.39082167" lon="-8.49804333">
        <ele>14.0</ele>
        <time>2019-05-17T12:02:42.150Z</time>
      </trkpt>
      <trkpt lat="39.39082" lon="-8.498025">
        <ele>19.0</ele>
        <time>2019-05-17T12:02:43.153Z</time>
      </trkpt>
      <trkpt lat="39.39082" lon="-8.498025">
        <ele>19.0</ele>
        <time>2019-05-17T12:02:44.188Z</time>
      </trkpt>
      <trkpt lat="39.39083833" lon="-8.49801333">
        <ele>19.0</ele>
        <time>2019-05-17T12:02:45.187Z</time>
      </trkpt>
      <trkpt lat="39.39085" lon="-8.49801333">
        <ele>18.0</ele>
        <time>2019-05-17T12:02:46.171Z</time>
      </trkpt>
      <trkpt lat="39.39086333" lon="-8.49801833">
        <ele>18.0</ele>
        <time>2019-05-17T12:02:47.156Z</time>
      </trkpt>
      <trkpt lat="39.39086333" lon="-8.49801833">
        <ele>18.0</ele>
        <time>2019-05-17T12:02:48.187Z</time>
      </trkpt>
      <trkpt lat="39.39089833" lon="-8.49803333">
        <ele>18.0</ele>
        <time>2019-05-17T12:02:49.152Z</time>
      </trkpt>
      <trkpt lat="39.39089833" lon="-8.49803333">
        <ele>18.0</ele>
        <time>2019-05-17T12:02:50.188Z</time>
      </trkpt>
      <trkpt lat="39.39093" lon="-8.49805667">
        <ele>18.0</ele>
        <time>2019-05-17T12:02:51.188Z</time>
      </trkpt>
      <trkpt lat="39.39093" lon="-8.49805667">
        <ele>18.0</ele>
        <time>2019-05-17T12:02:52.154Z</time>
      </trkpt>
      <trkpt lat="39.39096167" lon="-8.49807333">
        <ele>18.0</ele>
        <time>2019-05-17T12:02:53.183Z</time>
      </trkpt>
      <trkpt lat="39.39096167" lon="-8.49807333">
        <ele>18.0</ele>
        <time>2019-05-17T12:02:54.170Z</time>
      </trkpt>
      <trkpt lat="39.39099167" lon="-8.498065">
        <ele>18.0</ele>
        <time>2019-05-17T12:02:55.162Z</time>
      </trkpt>
      <trkpt lat="39.39099167" lon="-8.498065">
        <ele>18.0</ele>
        <time>2019-05-17T12:02:56.170Z</time>
      </trkpt>
      <trkpt lat="39.39101833" lon="-8.49804">
        <ele>17.0</ele>
        <time>2019-05-17T12:02:57.161Z</time>
      </trkpt>
      <trkpt lat="39.39101833" lon="-8.49804">
        <ele>17.0</ele>
        <time>2019-05-17T12:02:58.166Z</time>
      </trkpt>
      <trkpt lat="39.39104333" lon="-8.498015">
        <ele>17.0</ele>
        <time>2019-05-17T12:02:59.184Z</time>
      </trkpt>
      <trkpt lat="39.39104333" lon="-8.498015">
        <ele>17.0</ele>
        <time>2019-05-17T12:03:00.183Z</time>
      </trkpt>
      <trkpt lat="39.39107" lon="-8.49799">
        <ele>16.0</ele>
        <time>2019-05-17T12:03:01.162Z</time>
      </trkpt>
      <trkpt lat="39.39107" lon="-8.49799">
        <ele>16.0</ele>
        <time>2019-05-17T12:03:02.167Z</time>
      </trkpt>
      <trkpt lat="39.39110333" lon="-8.49796667">
        <ele>16.0</ele>
        <time>2019-05-17T12:03:03.187Z</time>
      </trkpt>
      <trkpt lat="39.39110333" lon="-8.49796667">
        <ele>16.0</ele>
        <time>2019-05-17T12:03:04.152Z</time>
      </trkpt>
      <trkpt lat="39.39114" lon="-8.49793667">
        <ele>15.0</ele>
        <time>2019-05-17T12:03:05.175Z</time>
      </trkpt>
      <trkpt lat="39.39114" lon="-8.49793667">
        <ele>15.0</ele>
        <time>2019-05-17T12:03:06.188Z</time>
      </trkpt>
      <trkpt lat="39.39117833" lon="-8.49790167">
        <ele>15.0</ele>
        <time>2019-05-17T12:03:07.187Z</time>
      </trkpt>
      <trkpt lat="39.39117833" lon="-8.49790167">
        <ele>15.0</ele>
        <time>2019-05-17T12:03:08.157Z</time>
      </trkpt>
      <trkpt lat="39.39121833" lon="-8.49786667">
        <ele>15.0</ele>
        <time>2019-05-17T12:03:09.150Z</time>
      </trkpt>
      <trkpt lat="39.39121833" lon="-8.49786667">
        <ele>15.0</ele>
        <time>2019-05-17T12:03:10.159Z</time>
      </trkpt>
      <trkpt lat="39.39125333" lon="-8.497835">
        <ele>15.0</ele>
        <time>2019-05-17T12:03:11.188Z</time>
      </trkpt>
      <trkpt lat="39.39127" lon="-8.49782">
        <ele>15.0</ele>
        <time>2019-05-17T12:03:12.163Z</time>
      </trkpt>
      <trkpt lat="39.39127" lon="-8.49782">
        <ele>15.0</ele>
        <time>2019-05-17T12:03:13.168Z</time>
      </trkpt>
      <trkpt lat="39.39130167" lon="-8.49779333">
        <ele>15.0</ele>
        <time>2019-05-17T12:03:14.157Z</time>
      </trkpt>
      <trkpt lat="39.39130167" lon="-8.49779333">
        <ele>15.0</ele>
        <time>2019-05-17T12:03:15.166Z</time>
      </trkpt>
      <trkpt lat="39.39133333" lon="-8.497765">
        <ele>14.0</ele>
        <time>2019-05-17T12:03:16.186Z</time>
      </trkpt>
      <trkpt lat="39.39135167" lon="-8.49775">
        <ele>14.0</ele>
        <time>2019-05-17T12:03:17.181Z</time>
      </trkpt>
      <trkpt lat="39.39135167" lon="-8.49775">
        <ele>14.0</ele>
        <time>2019-05-17T12:03:18.165Z</time>
      </trkpt>
      <trkpt lat="39.39139" lon="-8.49771667">
        <ele>14.0</ele>
        <time>2019-05-17T12:03:19.186Z</time>
      </trkpt>
      <trkpt lat="39.39139" lon="-8.49771667">
        <ele>14.0</ele>
        <time>2019-05-17T12:03:20.163Z</time>
      </trkpt>
      <trkpt lat="39.39143" lon="-8.49768333">
        <ele>14.0</ele>
        <time>2019-05-17T12:03:21.186Z</time>
      </trkpt>
      <trkpt lat="39.39143" lon="-8.49768333">
        <ele>14.0</ele>
        <time>2019-05-17T12:03:22.166Z</time>
      </trkpt>
      <trkpt lat="39.39147" lon="-8.49765">
        <ele>13.0</ele>
        <time>2019-05-17T12:03:23.182Z</time>
      </trkpt>
      <trkpt lat="39.39147" lon="-8.49765">
        <ele>13.0</ele>
        <time>2019-05-17T12:03:24.150Z</time>
      </trkpt>
      <trkpt lat="39.39151167" lon="-8.49761333">
        <ele>13.0</ele>
        <time>2019-05-17T12:03:25.181Z</time>
      </trkpt>
      <trkpt lat="39.39151167" lon="-8.49761333">
        <ele>13.0</ele>
        <time>2019-05-17T12:03:26.187Z</time>
      </trkpt>
      <trkpt lat="39.39155667" lon="-8.497575">
        <ele>13.0</ele>
        <time>2019-05-17T12:03:27.180Z</time>
      </trkpt>
      <trkpt lat="39.39155667" lon="-8.497575">
        <ele>13.0</ele>
        <time>2019-05-17T12:03:28.157Z</time>
      </trkpt>
      <trkpt lat="39.39160333" lon="-8.497535">
        <ele>13.0</ele>
        <time>2019-05-17T12:03:29.177Z</time>
      </trkpt>
      <trkpt lat="39.39160333" lon="-8.497535">
        <ele>13.0</ele>
        <time>2019-05-17T12:03:30.189Z</time>
      </trkpt>
      <trkpt lat="39.39165" lon="-8.49749333">
        <ele>13.0</ele>
        <time>2019-05-17T12:03:31.166Z</time>
      </trkpt>
      <trkpt lat="39.39165" lon="-8.49749333">
        <ele>13.0</ele>
        <time>2019-05-17T12:03:32.152Z</time>
      </trkpt>
      <trkpt lat="39.3917" lon="-8.49745">
        <ele>12.0</ele>
        <time>2019-05-17T12:03:33.182Z</time>
      </trkpt>
      <trkpt lat="39.3917" lon="-8.49745">
        <ele>12.0</ele>
        <time>2019-05-17T12:03:34.158Z</time>
      </trkpt>
      <trkpt lat="39.39175" lon="-8.49740833">
        <ele>12.0</ele>
        <time>2019-05-17T12:03:35.180Z</time>
      </trkpt>
      <trkpt lat="39.39175" lon="-8.49740833">
        <ele>12.0</ele>
        <time>2019-05-17T12:03:36.186Z</time>
      </trkpt>
      <trkpt lat="39.39180167" lon="-8.49736333">
        <ele>12.0</ele>
        <time>2019-05-17T12:03:37.164Z</time>
      </trkpt>
      <trkpt lat="39.39180167" lon="-8.49736333">
        <ele>12.0</ele>
        <time>2019-05-17T12:03:38.151Z</time>
      </trkpt>
      <trkpt lat="39.391855" lon="-8.49731333">
        <ele>12.0</ele>
        <time>2019-05-17T12:03:39.157Z</time>
      </trkpt>
      <trkpt lat="39.391855" lon="-8.49731333">
        <ele>12.0</ele>
        <time>2019-05-17T12:03:40.162Z</time>
      </trkpt>
      <trkpt lat="39.39191" lon="-8.49726667">
        <ele>12.0</ele>
        <time>2019-05-17T12:03:41.178Z</time>
      </trkpt>
      <trkpt lat="39.39193667" lon="-8.49724333">
        <ele>12.0</ele>
        <time>2019-05-17T12:03:42.165Z</time>
      </trkpt>
      <trkpt lat="39.39193667" lon="-8.49724333">
        <ele>12.0</ele>
        <time>2019-05-17T12:03:43.172Z</time>
      </trkpt>
      <trkpt lat="39.39199333" lon="-8.49719833">
        <ele>12.0</ele>
        <time>2019-05-17T12:03:44.153Z</time>
      </trkpt>
      <trkpt lat="39.39199333" lon="-8.49719833">
        <ele>12.0</ele>
        <time>2019-05-17T12:03:45.158Z</time>
      </trkpt>
      <trkpt lat="39.392045" lon="-8.49715">
        <ele>12.0</ele>
        <time>2019-05-17T12:03:46.181Z</time>
      </trkpt>
      <trkpt lat="39.39207333" lon="-8.497125">
        <ele>12.0</ele>
        <time>2019-05-17T12:03:47.170Z</time>
      </trkpt>
      <trkpt lat="39.39207333" lon="-8.497125">
        <ele>12.0</ele>
        <time>2019-05-17T12:03:48.182Z</time>
      </trkpt>
      <trkpt lat="39.39212833" lon="-8.49708">
        <ele>12.0</ele>
        <time>2019-05-17T12:03:49.170Z</time>
      </trkpt>
      <trkpt lat="39.39212833" lon="-8.49708">
        <ele>12.0</ele>
        <time>2019-05-17T12:03:50.176Z</time>
      </trkpt>
      <trkpt lat="39.392185" lon="-8.49703333">
        <ele>12.0</ele>
        <time>2019-05-17T12:03:51.190Z</time>
      </trkpt>
      <trkpt lat="39.392185" lon="-8.49703333">
        <ele>12.0</ele>
        <time>2019-05-17T12:03:52.179Z</time>
      </trkpt>
      <trkpt lat="39.39224" lon="-8.496985">
        <ele>12.0</ele>
        <time>2019-05-17T12:03:53.160Z</time>
      </trkpt>
      <trkpt lat="39.39224" lon="-8.496985">
        <ele>12.0</ele>
        <time>2019-05-17T12:03:54.165Z</time>
      </trkpt>
      <trkpt lat="39.392295" lon="-8.49693667">
        <ele>12.0</ele>
        <time>2019-05-17T12:03:55.187Z</time>
      </trkpt>
      <trkpt lat="39.392295" lon="-8.49693667">
        <ele>12.0</ele>
        <time>2019-05-17T12:03:56.153Z</time>
      </trkpt>
      <trkpt lat="39.39235" lon="-8.49688833">
        <ele>11.0</ele>
        <time>2019-05-17T12:03:57.189Z</time>
      </trkpt>
      <trkpt lat="39.39235" lon="-8.49688833">
        <ele>11.0</ele>
        <time>2019-05-17T12:03:58.158Z</time>
      </trkpt>
      <trkpt lat="39.392405" lon="-8.49684167">
        <ele>11.0</ele>
        <time>2019-05-17T12:03:59.173Z</time>
      </trkpt>
      <trkpt lat="39.392405" lon="-8.49684167">
        <ele>11.0</ele>
        <time>2019-05-17T12:04:00.179Z</time>
      </trkpt>
      <trkpt lat="39.39246" lon="-8.496795">
        <ele>11.0</ele>
        <time>2019-05-17T12:04:01.162Z</time>
      </trkpt>
      <trkpt lat="39.39246" lon="-8.496795">
        <ele>11.0</ele>
        <time>2019-05-17T12:04:02.183Z</time>
      </trkpt>
      <trkpt lat="39.39251333" lon="-8.49675">
        <ele>11.0</ele>
        <time>2019-05-17T12:04:03.165Z</time>
      </trkpt>
      <trkpt lat="39.39251333" lon="-8.49675">
        <ele>11.0</ele>
        <time>2019-05-17T12:04:04.171Z</time>
      </trkpt>
      <trkpt lat="39.39256833" lon="-8.49670333">
        <ele>11.0</ele>
        <time>2019-05-17T12:04:05.154Z</time>
      </trkpt>
      <trkpt lat="39.39256833" lon="-8.49670333">
        <ele>11.0</ele>
        <time>2019-05-17T12:04:06.159Z</time>
      </trkpt>
      <trkpt lat="39.39262167" lon="-8.496655">
        <ele>11.0</ele>
        <time>2019-05-17T12:04:07.178Z</time>
      </trkpt>
      <trkpt lat="39.39262167" lon="-8.496655">
        <ele>11.0</ele>
        <time>2019-05-17T12:04:08.158Z</time>
      </trkpt>
      <trkpt lat="39.392675" lon="-8.49660833">
        <ele>11.0</ele>
        <time>2019-05-17T12:04:09.160Z</time>
      </trkpt>
      <trkpt lat="39.392675" lon="-8.49660833">
        <ele>11.0</ele>
        <time>2019-05-17T12:04:10.183Z</time>
      </trkpt>
      <trkpt lat="39.39272667" lon="-8.49656">
        <ele>11.0</ele>
        <time>2019-05-17T12:04:11.166Z</time>
      </trkpt>
      <trkpt lat="39.39272667" lon="-8.49656">
        <ele>11.0</ele>
        <time>2019-05-17T12:04:12.187Z</time>
      </trkpt>
      <trkpt lat="39.39278" lon="-8.496515">
        <ele>11.0</ele>
        <time>2019-05-17T12:04:13.171Z</time>
      </trkpt>
      <trkpt lat="39.39278" lon="-8.496515">
        <ele>11.0</ele>
        <time>2019-05-17T12:04:14.176Z</time>
      </trkpt>
      <trkpt lat="39.39283333" lon="-8.49646833">
        <ele>11.0</ele>
        <time>2019-05-17T12:04:15.157Z</time>
      </trkpt>
      <trkpt lat="39.39286167" lon="-8.496445">
        <ele>11.0</ele>
        <time>2019-05-17T12:04:16.183Z</time>
      </trkpt>
      <trkpt lat="39.39288833" lon="-8.49642167">
        <ele>11.0</ele>
        <time>2019-05-17T12:04:17.170Z</time>
      </trkpt>
      <trkpt lat="39.39288833" lon="-8.49642167">
        <ele>11.0</ele>
        <time>2019-05-17T12:04:18.176Z</time>
      </trkpt>
      <trkpt lat="39.39294" lon="-8.49637833">
        <ele>11.0</ele>
        <time>2019-05-17T12:04:19.155Z</time>
      </trkpt>
      <trkpt lat="39.392965" lon="-8.49635833">
        <ele>11.0</ele>
        <time>2019-05-17T12:04:20.167Z</time>
      </trkpt>
      <trkpt lat="39.392965" lon="-8.49635833">
        <ele>11.0</ele>
        <time>2019-05-17T12:04:21.175Z</time>
      </trkpt>
      <trkpt lat="39.39301667" lon="-8.496315">
        <ele>11.0</ele>
        <time>2019-05-17T12:04:22.162Z</time>
      </trkpt>
      <trkpt lat="39.39304167" lon="-8.496295">
        <ele>11.0</ele>
        <time>2019-05-17T12:04:23.186Z</time>
      </trkpt>
      <trkpt lat="39.39304167" lon="-8.496295">
        <ele>11.0</ele>
        <time>2019-05-17T12:04:24.163Z</time>
      </trkpt>
      <trkpt lat="39.39309" lon="-8.49625667">
        <ele>11.0</ele>
        <time>2019-05-17T12:04:25.185Z</time>
      </trkpt>
      <trkpt lat="39.39311333" lon="-8.49623667">
        <ele>11.0</ele>
        <time>2019-05-17T12:04:26.169Z</time>
      </trkpt>
      <trkpt lat="39.39311333" lon="-8.49623667">
        <ele>11.0</ele>
        <time>2019-05-17T12:04:27.186Z</time>
      </trkpt>
      <trkpt lat="39.39316" lon="-8.496195">
        <ele>11.0</ele>
        <time>2019-05-17T12:04:28.164Z</time>
      </trkpt>
      <trkpt lat="39.393185" lon="-8.49617333">
        <ele>10.0</ele>
        <time>2019-05-17T12:04:29.161Z</time>
      </trkpt>
      <trkpt lat="39.393185" lon="-8.49617333">
        <ele>10.0</ele>
        <time>2019-05-17T12:04:30.167Z</time>
      </trkpt>
      <trkpt lat="39.39323667" lon="-8.49612833">
        <ele>10.0</ele>
        <time>2019-05-17T12:04:31.156Z</time>
      </trkpt>
      <trkpt lat="39.39323667" lon="-8.49612833">
        <ele>10.0</ele>
        <time>2019-05-17T12:04:32.165Z</time>
      </trkpt>
      <trkpt lat="39.39329333" lon="-8.49608">
        <ele>10.0</ele>
        <time>2019-05-17T12:04:33.167Z</time>
      </trkpt>
      <trkpt lat="39.39329333" lon="-8.49608">
        <ele>10.0</ele>
        <time>2019-05-17T12:04:34.159Z</time>
      </trkpt>
      <trkpt lat="39.39335167" lon="-8.49602833">
        <ele>10.0</ele>
        <time>2019-05-17T12:04:35.182Z</time>
      </trkpt>
      <trkpt lat="39.39335167" lon="-8.49602833">
        <ele>10.0</ele>
        <time>2019-05-17T12:04:36.165Z</time>
      </trkpt>
      <trkpt lat="39.39340833" lon="-8.49597833">
        <ele>10.0</ele>
        <time>2019-05-17T12:04:37.185Z</time>
      </trkpt>
      <trkpt lat="39.39340833" lon="-8.49597833">
        <ele>10.0</ele>
        <time>2019-05-17T12:04:38.165Z</time>
      </trkpt>
      <trkpt lat="39.39346333" lon="-8.49592833">
        <ele>10.0</ele>
        <time>2019-05-17T12:04:39.185Z</time>
      </trkpt>
      <trkpt lat="39.39346333" lon="-8.49592833">
        <ele>10.0</ele>
        <time>2019-05-17T12:04:40.150Z</time>
      </trkpt>
      <trkpt lat="39.39352" lon="-8.49588333">
        <ele>10.0</ele>
        <time>2019-05-17T12:04:41.167Z</time>
      </trkpt>
      <trkpt lat="39.39352" lon="-8.49588333">
        <ele>10.0</ele>
        <time>2019-05-17T12:04:42.153Z</time>
      </trkpt>
      <trkpt lat="39.39357333" lon="-8.49583667">
        <ele>10.0</ele>
        <time>2019-05-17T12:04:43.175Z</time>
      </trkpt>
      <trkpt lat="39.39357333" lon="-8.49583667">
        <ele>10.0</ele>
        <time>2019-05-17T12:04:44.187Z</time>
      </trkpt>
      <trkpt lat="39.39362833" lon="-8.49578833">
        <ele>10.0</ele>
        <time>2019-05-17T12:04:45.170Z</time>
      </trkpt>
      <trkpt lat="39.39362833" lon="-8.49578833">
        <ele>10.0</ele>
        <time>2019-05-17T12:04:46.180Z</time>
      </trkpt>
      <trkpt lat="39.39368167" lon="-8.49574333">
        <ele>10.0</ele>
        <time>2019-05-17T12:04:47.172Z</time>
      </trkpt>
      <trkpt lat="39.39368167" lon="-8.49574333">
        <ele>10.0</ele>
        <time>2019-05-17T12:04:48.157Z</time>
      </trkpt>
      <trkpt lat="39.39374" lon="-8.49569667">
        <ele>10.0</ele>
        <time>2019-05-17T12:04:49.178Z</time>
      </trkpt>
      <trkpt lat="39.39374" lon="-8.49569667">
        <ele>10.0</ele>
        <time>2019-05-17T12:04:50.151Z</time>
      </trkpt>
      <trkpt lat="39.39379667" lon="-8.49564333">
        <ele>10.0</ele>
        <time>2019-05-17T12:04:51.169Z</time>
      </trkpt>
      <trkpt lat="39.39379667" lon="-8.49564333">
        <ele>10.0</ele>
        <time>2019-05-17T12:04:52.179Z</time>
      </trkpt>
      <trkpt lat="39.39385333" lon="-8.49559">
        <ele>10.0</ele>
        <time>2019-05-17T12:04:53.155Z</time>
      </trkpt>
      <trkpt lat="39.39385333" lon="-8.49559">
        <ele>10.0</ele>
        <time>2019-05-17T12:04:54.160Z</time>
      </trkpt>
      <trkpt lat="39.39391" lon="-8.49553333">
        <ele>10.0</ele>
        <time>2019-05-17T12:04:55.176Z</time>
      </trkpt>
      <trkpt lat="39.39391" lon="-8.49553333">
        <ele>10.0</ele>
        <time>2019-05-17T12:04:56.185Z</time>
      </trkpt>
      <trkpt lat="39.393965" lon="-8.49548667">
        <ele>10.0</ele>
        <time>2019-05-17T12:04:57.167Z</time>
      </trkpt>
      <trkpt lat="39.393965" lon="-8.49548667">
        <ele>10.0</ele>
        <time>2019-05-17T12:04:58.179Z</time>
      </trkpt>
      <trkpt lat="39.39402" lon="-8.49543667">
        <ele>10.0</ele>
        <time>2019-05-17T12:04:59.157Z</time>
      </trkpt>
      <trkpt lat="39.39402" lon="-8.49543667">
        <ele>10.0</ele>
        <time>2019-05-17T12:05:00.162Z</time>
      </trkpt>
      <trkpt lat="39.394075" lon="-8.49539">
        <ele>10.0</ele>
        <time>2019-05-17T12:05:01.180Z</time>
      </trkpt>
      <trkpt lat="39.394075" lon="-8.49539">
        <ele>10.0</ele>
        <time>2019-05-17T12:05:02.185Z</time>
      </trkpt>
      <trkpt lat="39.39413333" lon="-8.49534">
        <ele>10.0</ele>
        <time>2019-05-17T12:05:03.158Z</time>
      </trkpt>
      <trkpt lat="39.39413333" lon="-8.49534">
        <ele>10.0</ele>
        <time>2019-05-17T12:05:04.164Z</time>
      </trkpt>
      <trkpt lat="39.39419167" lon="-8.49529333">
        <ele>10.0</ele>
        <time>2019-05-17T12:05:05.182Z</time>
      </trkpt>
      <trkpt lat="39.39419167" lon="-8.49529333">
        <ele>10.0</ele>
        <time>2019-05-17T12:05:06.186Z</time>
      </trkpt>
      <trkpt lat="39.39424667" lon="-8.49524667">
        <ele>10.0</ele>
        <time>2019-05-17T12:05:07.172Z</time>
      </trkpt>
      <trkpt lat="39.39424667" lon="-8.49524667">
        <ele>10.0</ele>
        <time>2019-05-17T12:05:08.155Z</time>
      </trkpt>
      <trkpt lat="39.394305" lon="-8.49519833">
        <ele>9.0</ele>
        <time>2019-05-17T12:05:09.166Z</time>
      </trkpt>
      <trkpt lat="39.39433333" lon="-8.49517167">
        <ele>9.0</ele>
        <time>2019-05-17T12:05:10.164Z</time>
      </trkpt>
      <trkpt lat="39.39436167" lon="-8.49514833">
        <ele>9.0</ele>
        <time>2019-05-17T12:05:11.156Z</time>
      </trkpt>
      <trkpt lat="39.39436167" lon="-8.49514833">
        <ele>9.0</ele>
        <time>2019-05-17T12:05:12.164Z</time>
      </trkpt>
      <trkpt lat="39.39441833" lon="-8.49509667">
        <ele>9.0</ele>
        <time>2019-05-17T12:05:13.185Z</time>
      </trkpt>
      <trkpt lat="39.39441833" lon="-8.49509667">
        <ele>9.0</ele>
        <time>2019-05-17T12:05:14.173Z</time>
      </trkpt>
      <trkpt lat="39.394475" lon="-8.495055">
        <ele>9.0</ele>
        <time>2019-05-17T12:05:15.150Z</time>
      </trkpt>
      <trkpt lat="39.394475" lon="-8.495055">
        <ele>9.0</ele>
        <time>2019-05-17T12:05:16.158Z</time>
      </trkpt>
      <trkpt lat="39.39453" lon="-8.49501">
        <ele>10.0</ele>
        <time>2019-05-17T12:05:17.186Z</time>
      </trkpt>
      <trkpt lat="39.39453" lon="-8.49501">
        <ele>10.0</ele>
        <time>2019-05-17T12:05:18.173Z</time>
      </trkpt>
      <trkpt lat="39.394585" lon="-8.49496333">
        <ele>9.0</ele>
        <time>2019-05-17T12:05:19.168Z</time>
      </trkpt>
      <trkpt lat="39.394585" lon="-8.49496333">
        <ele>9.0</ele>
        <time>2019-05-17T12:05:20.182Z</time>
      </trkpt>
      <trkpt lat="39.39464" lon="-8.49491667">
        <ele>9.0</ele>
        <time>2019-05-17T12:05:21.165Z</time>
      </trkpt>
      <trkpt lat="39.39464" lon="-8.49491667">
        <ele>9.0</ele>
        <time>2019-05-17T12:05:22.170Z</time>
      </trkpt>
      <trkpt lat="39.39469333" lon="-8.49486667">
        <ele>9.0</ele>
        <time>2019-05-17T12:05:23.163Z</time>
      </trkpt>
      <trkpt lat="39.39469333" lon="-8.49486667">
        <ele>9.0</ele>
        <time>2019-05-17T12:05:24.169Z</time>
      </trkpt>
      <trkpt lat="39.39474667" lon="-8.49482167">
        <ele>9.0</ele>
        <time>2019-05-17T12:05:25.153Z</time>
      </trkpt>
      <trkpt lat="39.39474667" lon="-8.49482167">
        <ele>9.0</ele>
        <time>2019-05-17T12:05:26.158Z</time>
      </trkpt>
      <trkpt lat="39.394805" lon="-8.49477333">
        <ele>9.0</ele>
        <time>2019-05-17T12:05:27.182Z</time>
      </trkpt>
      <trkpt lat="39.394805" lon="-8.49477333">
        <ele>9.0</ele>
        <time>2019-05-17T12:05:28.150Z</time>
      </trkpt>
      <trkpt lat="39.39486" lon="-8.49472833">
        <ele>9.0</ele>
        <time>2019-05-17T12:05:29.178Z</time>
      </trkpt>
      <trkpt lat="39.39486" lon="-8.49472833">
        <ele>9.0</ele>
        <time>2019-05-17T12:05:30.164Z</time>
      </trkpt>
      <trkpt lat="39.394915" lon="-8.49468">
        <ele>9.0</ele>
        <time>2019-05-17T12:05:31.179Z</time>
      </trkpt>
      <trkpt lat="39.394915" lon="-8.49468">
        <ele>9.0</ele>
        <time>2019-05-17T12:05:32.157Z</time>
      </trkpt>
      <trkpt lat="39.39497167" lon="-8.49463333">
        <ele>8.0</ele>
        <time>2019-05-17T12:05:33.175Z</time>
      </trkpt>
      <trkpt lat="39.39497167" lon="-8.49463333">
        <ele>8.0</ele>
        <time>2019-05-17T12:05:34.158Z</time>
      </trkpt>
      <trkpt lat="39.39503" lon="-8.49458167">
        <ele>8.0</ele>
        <time>2019-05-17T12:05:35.165Z</time>
      </trkpt>
      <trkpt lat="39.39503" lon="-8.49458167">
        <ele>8.0</ele>
        <time>2019-05-17T12:05:36.185Z</time>
      </trkpt>
      <trkpt lat="39.39508833" lon="-8.49453333">
        <ele>8.0</ele>
        <time>2019-05-17T12:05:37.152Z</time>
      </trkpt>
      <trkpt lat="39.39508833" lon="-8.49453333">
        <ele>8.0</ele>
        <time>2019-05-17T12:05:38.158Z</time>
      </trkpt>
      <trkpt lat="39.395145" lon="-8.49448333">
        <ele>8.0</ele>
        <time>2019-05-17T12:05:39.178Z</time>
      </trkpt>
      <trkpt lat="39.395145" lon="-8.49448333">
        <ele>8.0</ele>
        <time>2019-05-17T12:05:40.154Z</time>
      </trkpt>
      <trkpt lat="39.3952" lon="-8.49443667">
        <ele>8.0</ele>
        <time>2019-05-17T12:05:41.161Z</time>
      </trkpt>
      <trkpt lat="39.3952" lon="-8.49443667">
        <ele>8.0</ele>
        <time>2019-05-17T12:05:42.187Z</time>
      </trkpt>
      <trkpt lat="39.39525667" lon="-8.49438833">
        <ele>9.0</ele>
        <time>2019-05-17T12:05:43.178Z</time>
      </trkpt>
      <trkpt lat="39.39525667" lon="-8.49438833">
        <ele>9.0</ele>
        <time>2019-05-17T12:05:44.154Z</time>
      </trkpt>
      <trkpt lat="39.39531333" lon="-8.49434">
        <ele>8.0</ele>
        <time>2019-05-17T12:05:45.161Z</time>
      </trkpt>
      <trkpt lat="39.39531333" lon="-8.49434">
        <ele>8.0</ele>
        <time>2019-05-17T12:05:46.187Z</time>
      </trkpt>
      <trkpt lat="39.39537" lon="-8.49428833">
        <ele>9.0</ele>
        <time>2019-05-17T12:05:47.166Z</time>
      </trkpt>
      <trkpt lat="39.39537" lon="-8.49428833">
        <ele>9.0</ele>
        <time>2019-05-17T12:05:48.172Z</time>
      </trkpt>
      <trkpt lat="39.39543" lon="-8.49423833">
        <ele>9.0</ele>
        <time>2019-05-17T12:05:49.180Z</time>
      </trkpt>
      <trkpt lat="39.39543" lon="-8.49423833">
        <ele>9.0</ele>
        <time>2019-05-17T12:05:50.156Z</time>
      </trkpt>
      <trkpt lat="39.395485" lon="-8.49418833">
        <ele>9.0</ele>
        <time>2019-05-17T12:05:51.185Z</time>
      </trkpt>
      <trkpt lat="39.395485" lon="-8.49418833">
        <ele>9.0</ele>
        <time>2019-05-17T12:05:52.173Z</time>
      </trkpt>
      <trkpt lat="39.39554333" lon="-8.49413833">
        <ele>9.0</ele>
        <time>2019-05-17T12:05:53.183Z</time>
      </trkpt>
      <trkpt lat="39.39554333" lon="-8.49413833">
        <ele>9.0</ele>
        <time>2019-05-17T12:05:54.157Z</time>
      </trkpt>
      <trkpt lat="39.3956" lon="-8.49409">
        <ele>10.0</ele>
        <time>2019-05-17T12:05:55.178Z</time>
      </trkpt>
      <trkpt lat="39.3956" lon="-8.49409">
        <ele>10.0</ele>
        <time>2019-05-17T12:05:56.159Z</time>
      </trkpt>
      <trkpt lat="39.395655" lon="-8.49404167">
        <ele>10.0</ele>
        <time>2019-05-17T12:05:57.187Z</time>
      </trkpt>
      <trkpt lat="39.39568333" lon="-8.49401833">
        <ele>10.0</ele>
        <time>2019-05-17T12:05:58.163Z</time>
      </trkpt>
      <trkpt lat="39.39568333" lon="-8.49401833">
        <ele>10.0</ele>
        <time>2019-05-17T12:05:59.184Z</time>
      </trkpt>
      <trkpt lat="39.39573667" lon="-8.49397">
        <ele>10.0</ele>
        <time>2019-05-17T12:06:00.172Z</time>
      </trkpt>
      <trkpt lat="39.39573667" lon="-8.49397">
        <ele>10.0</ele>
        <time>2019-05-17T12:06:01.152Z</time>
      </trkpt>
      <trkpt lat="39.39579167" lon="-8.49392333">
        <ele>10.0</ele>
        <time>2019-05-17T12:06:02.183Z</time>
      </trkpt>
      <trkpt lat="39.39579167" lon="-8.49392333">
        <ele>10.0</ele>
        <time>2019-05-17T12:06:03.164Z</time>
      </trkpt>
      <trkpt lat="39.39584667" lon="-8.493875">
        <ele>10.0</ele>
        <time>2019-05-17T12:06:04.177Z</time>
      </trkpt>
      <trkpt lat="39.39587667" lon="-8.49385">
        <ele>10.0</ele>
        <time>2019-05-17T12:06:05.158Z</time>
      </trkpt>
      <trkpt lat="39.39587667" lon="-8.49385">
        <ele>10.0</ele>
        <time>2019-05-17T12:06:06.180Z</time>
      </trkpt>
      <trkpt lat="39.39593" lon="-8.493805">
        <ele>10.0</ele>
        <time>2019-05-17T12:06:07.163Z</time>
      </trkpt>
      <trkpt lat="39.39593" lon="-8.493805">
        <ele>10.0</ele>
        <time>2019-05-17T12:06:08.186Z</time>
      </trkpt>
      <trkpt lat="39.39598333" lon="-8.49376">
        <ele>10.0</ele>
        <time>2019-05-17T12:06:09.169Z</time>
      </trkpt>
      <trkpt lat="39.39598333" lon="-8.49376">
        <ele>10.0</ele>
        <time>2019-05-17T12:06:10.185Z</time>
      </trkpt>
      <trkpt lat="39.396035" lon="-8.493715">
        <ele>10.0</ele>
        <time>2019-05-17T12:06:11.152Z</time>
      </trkpt>
      <trkpt lat="39.396035" lon="-8.493715">
        <ele>10.0</ele>
        <time>2019-05-17T12:06:12.157Z</time>
      </trkpt>
      <trkpt lat="39.39608667" lon="-8.49366833">
        <ele>10.0</ele>
        <time>2019-05-17T12:06:13.153Z</time>
      </trkpt>
      <trkpt lat="39.39608667" lon="-8.49366833">
        <ele>10.0</ele>
        <time>2019-05-17T12:06:14.166Z</time>
      </trkpt>
      <trkpt lat="39.39613833" lon="-8.49362167">
        <ele>10.0</ele>
        <time>2019-05-17T12:06:15.173Z</time>
      </trkpt>
      <trkpt lat="39.39613833" lon="-8.49362167">
        <ele>10.0</ele>
        <time>2019-05-17T12:06:16.159Z</time>
      </trkpt>
      <trkpt lat="39.39619167" lon="-8.493575">
        <ele>10.0</ele>
        <time>2019-05-17T12:06:17.153Z</time>
      </trkpt>
      <trkpt lat="39.39619167" lon="-8.493575">
        <ele>10.0</ele>
        <time>2019-05-17T12:06:18.188Z</time>
      </trkpt>
      <trkpt lat="39.39624333" lon="-8.49352667">
        <ele>10.0</ele>
        <time>2019-05-17T12:06:19.154Z</time>
      </trkpt>
      <trkpt lat="39.39624333" lon="-8.49352667">
        <ele>10.0</ele>
        <time>2019-05-17T12:06:20.176Z</time>
      </trkpt>
      <trkpt lat="39.39629667" lon="-8.49347667">
        <ele>10.0</ele>
        <time>2019-05-17T12:06:21.159Z</time>
      </trkpt>
      <trkpt lat="39.39629667" lon="-8.49347667">
        <ele>10.0</ele>
        <time>2019-05-17T12:06:22.176Z</time>
      </trkpt>
      <trkpt lat="39.39635167" lon="-8.49342833">
        <ele>9.0</ele>
        <time>2019-05-17T12:06:23.183Z</time>
      </trkpt>
      <trkpt lat="39.39635167" lon="-8.49342833">
        <ele>9.0</ele>
        <time>2019-05-17T12:06:24.162Z</time>
      </trkpt>
      <trkpt lat="39.39640667" lon="-8.49338333">
        <ele>9.0</ele>
        <time>2019-05-17T12:06:25.172Z</time>
      </trkpt>
      <trkpt lat="39.39640667" lon="-8.49338333">
        <ele>9.0</ele>
        <time>2019-05-17T12:06:26.153Z</time>
      </trkpt>
      <trkpt lat="39.39646167" lon="-8.49333833">
        <ele>9.0</ele>
        <time>2019-05-17T12:06:27.171Z</time>
      </trkpt>
      <trkpt lat="39.39646167" lon="-8.49333833">
        <ele>9.0</ele>
        <time>2019-05-17T12:06:28.150Z</time>
      </trkpt>
      <trkpt lat="39.39651833" lon="-8.49329">
        <ele>9.0</ele>
        <time>2019-05-17T12:06:29.156Z</time>
      </trkpt>
      <trkpt lat="39.39651833" lon="-8.49329">
        <ele>9.0</ele>
        <time>2019-05-17T12:06:30.181Z</time>
      </trkpt>
      <trkpt lat="39.39657833" lon="-8.49324167">
        <ele>9.0</ele>
        <time>2019-05-17T12:06:31.154Z</time>
      </trkpt>
      <trkpt lat="39.39657833" lon="-8.49324167">
        <ele>9.0</ele>
        <time>2019-05-17T12:06:32.180Z</time>
      </trkpt>
      <trkpt lat="39.39663667" lon="-8.49319333">
        <ele>9.0</ele>
        <time>2019-05-17T12:06:33.188Z</time>
      </trkpt>
      <trkpt lat="39.39663667" lon="-8.49319333">
        <ele>9.0</ele>
        <time>2019-05-17T12:06:34.170Z</time>
      </trkpt>
      <trkpt lat="39.396695" lon="-8.49314333">
        <ele>9.0</ele>
        <time>2019-05-17T12:06:35.187Z</time>
      </trkpt>
      <trkpt lat="39.396695" lon="-8.49314333">
        <ele>9.0</ele>
        <time>2019-05-17T12:06:36.159Z</time>
      </trkpt>
      <trkpt lat="39.396755" lon="-8.493095">
        <ele>9.0</ele>
        <time>2019-05-17T12:06:37.165Z</time>
      </trkpt>
      <trkpt lat="39.396755" lon="-8.493095">
        <ele>9.0</ele>
        <time>2019-05-17T12:06:38.189Z</time>
      </trkpt>
      <trkpt lat="39.39681667" lon="-8.49304">
        <ele>9.0</ele>
        <time>2019-05-17T12:06:39.168Z</time>
      </trkpt>
      <trkpt lat="39.39681667" lon="-8.49304">
        <ele>9.0</ele>
        <time>2019-05-17T12:06:40.188Z</time>
      </trkpt>
      <trkpt lat="39.39687833" lon="-8.49298333">
        <ele>9.0</ele>
        <time>2019-05-17T12:06:41.182Z</time>
      </trkpt>
      <trkpt lat="39.39687833" lon="-8.49298333">
        <ele>9.0</ele>
        <time>2019-05-17T12:06:42.161Z</time>
      </trkpt>
      <trkpt lat="39.39694333" lon="-8.49292667">
        <ele>9.0</ele>
        <time>2019-05-17T12:06:43.167Z</time>
      </trkpt>
      <trkpt lat="39.39694333" lon="-8.49292667">
        <ele>9.0</ele>
        <time>2019-05-17T12:06:44.174Z</time>
      </trkpt>
      <trkpt lat="39.39700667" lon="-8.49287167">
        <ele>10.0</ele>
        <time>2019-05-17T12:06:45.171Z</time>
      </trkpt>
      <trkpt lat="39.39700667" lon="-8.49287167">
        <ele>10.0</ele>
        <time>2019-05-17T12:06:46.150Z</time>
      </trkpt>
      <trkpt lat="39.39706833" lon="-8.492825">
        <ele>11.0</ele>
        <time>2019-05-17T12:06:47.158Z</time>
      </trkpt>
      <trkpt lat="39.39706833" lon="-8.492825">
        <ele>11.0</ele>
        <time>2019-05-17T12:06:48.190Z</time>
      </trkpt>
      <trkpt lat="39.39713333" lon="-8.49277667">
        <ele>11.0</ele>
        <time>2019-05-17T12:06:49.187Z</time>
      </trkpt>
      <trkpt lat="39.39713333" lon="-8.49277667">
        <ele>11.0</ele>
        <time>2019-05-17T12:06:50.171Z</time>
      </trkpt>
      <trkpt lat="39.3972" lon="-8.49273333">
        <ele>11.0</ele>
        <time>2019-05-17T12:06:51.178Z</time>
      </trkpt>
      <trkpt lat="39.3972" lon="-8.49273333">
        <ele>11.0</ele>
        <time>2019-05-17T12:06:52.161Z</time>
      </trkpt>
      <trkpt lat="39.39726667" lon="-8.492695">
        <ele>10.0</ele>
        <time>2019-05-17T12:06:53.157Z</time>
      </trkpt>
      <trkpt lat="39.39726667" lon="-8.492695">
        <ele>10.0</ele>
        <time>2019-05-17T12:06:54.188Z</time>
      </trkpt>
      <trkpt lat="39.39734167" lon="-8.49266167">
        <ele>10.0</ele>
        <time>2019-05-17T12:06:55.155Z</time>
      </trkpt>
      <trkpt lat="39.39738" lon="-8.49265">
        <ele>10.0</ele>
        <time>2019-05-17T12:06:56.154Z</time>
      </trkpt>
      <trkpt lat="39.39738" lon="-8.49265">
        <ele>10.0</ele>
        <time>2019-05-17T12:06:57.180Z</time>
      </trkpt>
      <trkpt lat="39.39746167" lon="-8.492625">
        <ele>10.0</ele>
        <time>2019-05-17T12:06:58.186Z</time>
      </trkpt>
      <trkpt lat="39.39750167" lon="-8.49261333">
        <ele>11.0</ele>
        <time>2019-05-17T12:06:59.180Z</time>
      </trkpt>
      <trkpt lat="39.39750167" lon="-8.49261333">
        <ele>11.0</ele>
        <time>2019-05-17T12:07:00.162Z</time>
      </trkpt>
      <trkpt lat="39.39757667" lon="-8.492595">
        <ele>11.0</ele>
        <time>2019-05-17T12:07:01.180Z</time>
      </trkpt>
      <trkpt lat="39.39757667" lon="-8.492595">
        <ele>11.0</ele>
        <time>2019-05-17T12:07:02.161Z</time>
      </trkpt>
      <trkpt lat="39.39765167" lon="-8.49257833">
        <ele>10.0</ele>
        <time>2019-05-17T12:07:03.168Z</time>
      </trkpt>
      <trkpt lat="39.39765167" lon="-8.49257833">
        <ele>10.0</ele>
        <time>2019-05-17T12:07:04.150Z</time>
      </trkpt>
      <trkpt lat="39.39772833" lon="-8.49256167">
        <ele>10.0</ele>
        <time>2019-05-17T12:07:05.174Z</time>
      </trkpt>
      <trkpt lat="39.39772833" lon="-8.49256167">
        <ele>10.0</ele>
        <time>2019-05-17T12:07:06.150Z</time>
      </trkpt>
      <trkpt lat="39.39779833" lon="-8.49254833">
        <ele>10.0</ele>
        <time>2019-05-17T12:07:07.161Z</time>
      </trkpt>
      <trkpt lat="39.39779833" lon="-8.49254833">
        <ele>10.0</ele>
        <time>2019-05-17T12:07:08.187Z</time>
      </trkpt>
      <trkpt lat="39.39786667" lon="-8.492535">
        <ele>10.0</ele>
        <time>2019-05-17T12:07:09.185Z</time>
      </trkpt>
      <trkpt lat="39.39786667" lon="-8.492535">
        <ele>10.0</ele>
        <time>2019-05-17T12:07:10.155Z</time>
      </trkpt>
      <trkpt lat="39.397935" lon="-8.49251833">
        <ele>10.0</ele>
        <time>2019-05-17T12:07:11.164Z</time>
      </trkpt>
      <trkpt lat="39.397935" lon="-8.49251833">
        <ele>10.0</ele>
        <time>2019-05-17T12:07:12.170Z</time>
      </trkpt>
      <trkpt lat="39.39800333" lon="-8.49250167">
        <ele>11.0</ele>
        <time>2019-05-17T12:07:13.184Z</time>
      </trkpt>
      <trkpt lat="39.39803833" lon="-8.492495">
        <ele>11.0</ele>
        <time>2019-05-17T12:07:14.178Z</time>
      </trkpt>
      <trkpt lat="39.39803833" lon="-8.492495">
        <ele>11.0</ele>
        <time>2019-05-17T12:07:15.159Z</time>
      </trkpt>
      <trkpt lat="39.39810667" lon="-8.49248">
        <ele>11.0</ele>
        <time>2019-05-17T12:07:16.166Z</time>
      </trkpt>
      <trkpt lat="39.39814" lon="-8.49247333">
        <ele>11.0</ele>
        <time>2019-05-17T12:07:17.189Z</time>
      </trkpt>
      <trkpt lat="39.39814" lon="-8.49247333">
        <ele>11.0</ele>
        <time>2019-05-17T12:07:18.157Z</time>
      </trkpt>
      <trkpt lat="39.39820833" lon="-8.49245833">
        <ele>12.0</ele>
        <time>2019-05-17T12:07:19.163Z</time>
      </trkpt>
      <trkpt lat="39.39820833" lon="-8.49245833">
        <ele>12.0</ele>
        <time>2019-05-17T12:07:20.177Z</time>
      </trkpt>
      <trkpt lat="39.39827333" lon="-8.49244">
        <ele>12.0</ele>
        <time>2019-05-17T12:07:21.163Z</time>
      </trkpt>
      <trkpt lat="39.39827333" lon="-8.49244">
        <ele>12.0</ele>
        <time>2019-05-17T12:07:22.185Z</time>
      </trkpt>
      <trkpt lat="39.39834" lon="-8.492425">
        <ele>12.0</ele>
        <time>2019-05-17T12:07:23.154Z</time>
      </trkpt>
      <trkpt lat="39.39837333" lon="-8.49241667">
        <ele>12.0</ele>
        <time>2019-05-17T12:07:24.187Z</time>
      </trkpt>
      <trkpt lat="39.39837333" lon="-8.49241667">
        <ele>12.0</ele>
        <time>2019-05-17T12:07:25.169Z</time>
      </trkpt>
      <trkpt lat="39.39844" lon="-8.49240333">
        <ele>12.0</ele>
        <time>2019-05-17T12:07:26.183Z</time>
      </trkpt>
      <trkpt lat="39.39847167" lon="-8.4924">
        <ele>12.0</ele>
        <time>2019-05-17T12:07:27.179Z</time>
      </trkpt>
      <trkpt lat="39.39847167" lon="-8.4924">
        <ele>12.0</ele>
        <time>2019-05-17T12:07:28.158Z</time>
      </trkpt>
      <trkpt lat="39.39853833" lon="-8.49238833">
        <ele>12.0</ele>
        <time>2019-05-17T12:07:29.165Z</time>
      </trkpt>
      <trkpt lat="39.39853833" lon="-8.49238833">
        <ele>12.0</ele>
        <time>2019-05-17T12:07:30.185Z</time>
      </trkpt>
      <trkpt lat="39.3986" lon="-8.49237833">
        <ele>12.0</ele>
        <time>2019-05-17T12:07:31.176Z</time>
      </trkpt>
      <trkpt lat="39.3986" lon="-8.49237833">
        <ele>12.0</ele>
        <time>2019-05-17T12:07:32.154Z</time>
      </trkpt>
      <trkpt lat="39.39866333" lon="-8.49237167">
        <ele>12.0</ele>
        <time>2019-05-17T12:07:33.174Z</time>
      </trkpt>
      <trkpt lat="39.39866333" lon="-8.49237167">
        <ele>12.0</ele>
        <time>2019-05-17T12:07:34.158Z</time>
      </trkpt>
      <trkpt lat="39.39871833" lon="-8.49236">
        <ele>12.0</ele>
        <time>2019-05-17T12:07:35.184Z</time>
      </trkpt>
      <trkpt lat="39.39871833" lon="-8.49236">
        <ele>12.0</ele>
        <time>2019-05-17T12:07:36.165Z</time>
      </trkpt>
      <trkpt lat="39.39877" lon="-8.49234667">
        <ele>12.0</ele>
        <time>2019-05-17T12:07:37.193Z</time>
      </trkpt>
      <trkpt lat="39.39877" lon="-8.49234667">
        <ele>12.0</ele>
        <time>2019-05-17T12:07:38.170Z</time>
      </trkpt>
      <trkpt lat="39.39881833" lon="-8.49233">
        <ele>12.0</ele>
        <time>2019-05-17T12:07:39.184Z</time>
      </trkpt>
      <trkpt lat="39.39881833" lon="-8.49233">
        <ele>12.0</ele>
        <time>2019-05-17T12:07:40.167Z</time>
      </trkpt>
      <trkpt lat="39.39884833" lon="-8.492305">
        <ele>11.0</ele>
        <time>2019-05-17T12:07:41.179Z</time>
      </trkpt>
      <trkpt lat="39.39884833" lon="-8.492305">
        <ele>11.0</ele>
        <time>2019-05-17T12:07:42.159Z</time>
      </trkpt>
      <trkpt lat="39.39886167" lon="-8.49229833">
        <ele>11.0</ele>
        <time>2019-05-17T12:07:43.176Z</time>
      </trkpt>
      <trkpt lat="39.39886167" lon="-8.49229667">
        <ele>10.0</ele>
        <time>2019-05-17T12:07:44.159Z</time>
      </trkpt>
      <trkpt lat="39.39886167" lon="-8.492295">
        <ele>10.0</ele>
        <time>2019-05-17T12:07:45.185Z</time>
      </trkpt>
      <trkpt lat="39.39886167" lon="-8.492295">
        <ele>10.0</ele>
        <time>2019-05-17T12:07:46.164Z</time>
      </trkpt>
      <trkpt lat="39.39886167" lon="-8.492295">
        <ele>10.0</ele>
        <time>2019-05-17T12:07:47.170Z</time>
      </trkpt>
      <trkpt lat="39.39886167" lon="-8.492295">
        <ele>10.0</ele>
        <time>2019-05-17T12:07:48.179Z</time>
      </trkpt>
      <trkpt lat="39.39886167" lon="-8.492295">
        <ele>10.0</ele>
        <time>2019-05-17T12:07:49.313Z</time>
      </trkpt>
      <trkpt lat="39.39886167" lon="-8.492295">
        <ele>10.0</ele>
        <time>2019-05-17T12:07:50.250Z</time>
      </trkpt>
      <trkpt lat="39.39886167" lon="-8.492295">
        <ele>10.0</ele>
        <time>2019-05-17T12:07:51.156Z</time>
      </trkpt>
      <trkpt lat="39.39886167" lon="-8.492295">
        <ele>10.0</ele>
        <time>2019-05-17T12:07:52.173Z</time>
      </trkpt>
      <trkpt lat="39.39886167" lon="-8.492295">
        <ele>10.0</ele>
        <time>2019-05-17T12:07:53.180Z</time>
      </trkpt>
      <trkpt lat="39.39886167" lon="-8.492295">
        <ele>10.0</ele>
        <time>2019-05-17T12:07:54.185Z</time>
      </trkpt>
      <trkpt lat="39.39886167" lon="-8.492295">
        <ele>10.0</ele>
        <time>2019-05-17T12:07:55.154Z</time>
      </trkpt>
      <trkpt lat="39.39886167" lon="-8.492295">
        <ele>10.0</ele>
        <time>2019-05-17T12:07:56.161Z</time>
      </trkpt>
      <trkpt lat="39.39886167" lon="-8.492295">
        <ele>10.0</ele>
        <time>2019-05-17T12:07:57.159Z</time>
      </trkpt>
      <trkpt lat="39.39886167" lon="-8.492295">
        <ele>10.0</ele>
        <time>2019-05-17T12:07:58.152Z</time>
      </trkpt>
      <trkpt lat="39.39886167" lon="-8.492295">
        <ele>10.0</ele>
        <time>2019-05-17T12:07:59.155Z</time>
      </trkpt>
      <trkpt lat="39.39886167" lon="-8.492295">
        <ele>10.0</ele>
        <time>2019-05-17T12:08:00.187Z</time>
      </trkpt>
      <trkpt lat="39.39888833" lon="-8.49231">
        <ele>13.0</ele>
        <time>2019-05-17T12:08:01.152Z</time>
      </trkpt>
      <trkpt lat="39.39888833" lon="-8.49231">
        <ele>13.0</ele>
        <time>2019-05-17T12:08:02.188Z</time>
      </trkpt>
      <trkpt lat="39.39891167" lon="-8.49231667">
        <ele>13.0</ele>
        <time>2019-05-17T12:08:03.159Z</time>
      </trkpt>
      <trkpt lat="39.398925" lon="-8.49231833">
        <ele>13.0</ele>
        <time>2019-05-17T12:08:04.153Z</time>
      </trkpt>
      <trkpt lat="39.39893833" lon="-8.49232">
        <ele>13.0</ele>
        <time>2019-05-17T12:08:05.154Z</time>
      </trkpt>
      <trkpt lat="39.39893833" lon="-8.49232">
        <ele>13.0</ele>
        <time>2019-05-17T12:08:06.188Z</time>
      </trkpt>
      <trkpt lat="39.39897833" lon="-8.49231833">
        <ele>13.0</ele>
        <time>2019-05-17T12:08:07.153Z</time>
      </trkpt>
      <trkpt lat="39.39897833" lon="-8.49231833">
        <ele>13.0</ele>
        <time>2019-05-17T12:08:08.151Z</time>
      </trkpt>
      <trkpt lat="39.399025" lon="-8.49230667">
        <ele>14.0</ele>
        <time>2019-05-17T12:08:09.193Z</time>
      </trkpt>
      <trkpt lat="39.39904667" lon="-8.492305">
        <ele>14.0</ele>
        <time>2019-05-17T12:08:10.169Z</time>
      </trkpt>
      <trkpt lat="39.39906833" lon="-8.492305">
        <ele>14.0</ele>
        <time>2019-05-17T12:08:11.187Z</time>
      </trkpt>
      <trkpt lat="39.39906833" lon="-8.492305">
        <ele>14.0</ele>
        <time>2019-05-17T12:08:12.153Z</time>
      </trkpt>
      <trkpt lat="39.39912" lon="-8.49229">
        <ele>14.0</ele>
        <time>2019-05-17T12:08:13.181Z</time>
      </trkpt>
      <trkpt lat="39.39912" lon="-8.49229">
        <ele>14.0</ele>
        <time>2019-05-17T12:08:14.186Z</time>
      </trkpt>
      <trkpt lat="39.39917333" lon="-8.49227667">
        <ele>14.0</ele>
        <time>2019-05-17T12:08:15.177Z</time>
      </trkpt>
      <trkpt lat="39.39917333" lon="-8.49227667">
        <ele>14.0</ele>
        <time>2019-05-17T12:08:16.183Z</time>
      </trkpt>
      <trkpt lat="39.39922333" lon="-8.49226333">
        <ele>14.0</ele>
        <time>2019-05-17T12:08:17.177Z</time>
      </trkpt>
      <trkpt lat="39.39922333" lon="-8.49226333">
        <ele>14.0</ele>
        <time>2019-05-17T12:08:18.167Z</time>
      </trkpt>
      <trkpt lat="39.399275" lon="-8.49224167">
        <ele>14.0</ele>
        <time>2019-05-17T12:08:19.157Z</time>
      </trkpt>
      <trkpt lat="39.399275" lon="-8.49224167">
        <ele>14.0</ele>
        <time>2019-05-17T12:08:20.172Z</time>
      </trkpt>
      <trkpt lat="39.39933" lon="-8.492215">
        <ele>14.0</ele>
        <time>2019-05-17T12:08:21.166Z</time>
      </trkpt>
      <trkpt lat="39.39933" lon="-8.492215">
        <ele>14.0</ele>
        <time>2019-05-17T12:08:22.180Z</time>
      </trkpt>
      <trkpt lat="39.399385" lon="-8.49217833">
        <ele>14.0</ele>
        <time>2019-05-17T12:08:23.167Z</time>
      </trkpt>
      <trkpt lat="39.399385" lon="-8.49217833">
        <ele>14.0</ele>
        <time>2019-05-17T12:08:24.176Z</time>
      </trkpt>
      <trkpt lat="39.39943667" lon="-8.49214">
        <ele>14.0</ele>
        <time>2019-05-17T12:08:25.177Z</time>
      </trkpt>
      <trkpt lat="39.39943667" lon="-8.49214">
        <ele>14.0</ele>
        <time>2019-05-17T12:08:26.170Z</time>
      </trkpt>
      <trkpt lat="39.39948667" lon="-8.49208833">
        <ele>15.0</ele>
        <time>2019-05-17T12:08:27.167Z</time>
      </trkpt>
      <trkpt lat="39.39948667" lon="-8.49208833">
        <ele>15.0</ele>
        <time>2019-05-17T12:08:28.159Z</time>
      </trkpt>
      <trkpt lat="39.39953167" lon="-8.49202833">
        <ele>15.0</ele>
        <time>2019-05-17T12:08:29.173Z</time>
      </trkpt>
      <trkpt lat="39.39953167" lon="-8.49202833">
        <ele>15.0</ele>
        <time>2019-05-17T12:08:30.150Z</time>
      </trkpt>
      <trkpt lat="39.39957667" lon="-8.49196667">
        <ele>16.0</ele>
        <time>2019-05-17T12:08:31.186Z</time>
      </trkpt>
      <trkpt lat="39.39957667" lon="-8.49196667">
        <ele>16.0</ele>
        <time>2019-05-17T12:08:32.166Z</time>
      </trkpt>
      <trkpt lat="39.39962167" lon="-8.4919">
        <ele>16.0</ele>
        <time>2019-05-17T12:08:33.162Z</time>
      </trkpt>
      <trkpt lat="39.39962167" lon="-8.4919">
        <ele>16.0</ele>
        <time>2019-05-17T12:08:34.182Z</time>
      </trkpt>
      <trkpt lat="39.39966333" lon="-8.491835">
        <ele>16.0</ele>
        <time>2019-05-17T12:08:35.163Z</time>
      </trkpt>
      <trkpt lat="39.39966333" lon="-8.491835">
        <ele>16.0</ele>
        <time>2019-05-17T12:08:36.159Z</time>
      </trkpt>
      <trkpt lat="39.399705" lon="-8.49177333">
        <ele>16.0</ele>
        <time>2019-05-17T12:08:37.193Z</time>
      </trkpt>
      <trkpt lat="39.399705" lon="-8.49177333">
        <ele>16.0</ele>
        <time>2019-05-17T12:08:38.170Z</time>
      </trkpt>
      <trkpt lat="39.39975" lon="-8.49171167">
        <ele>16.0</ele>
        <time>2019-05-17T12:08:39.157Z</time>
      </trkpt>
      <trkpt lat="39.39975" lon="-8.49171167">
        <ele>16.0</ele>
        <time>2019-05-17T12:08:40.181Z</time>
      </trkpt>
      <trkpt lat="39.39979333" lon="-8.49164833">
        <ele>15.0</ele>
        <time>2019-05-17T12:08:41.165Z</time>
      </trkpt>
      <trkpt lat="39.39979333" lon="-8.49164833">
        <ele>15.0</ele>
        <time>2019-05-17T12:08:42.167Z</time>
      </trkpt>
      <trkpt lat="39.39983667" lon="-8.49158667">
        <ele>15.0</ele>
        <time>2019-05-17T12:08:43.177Z</time>
      </trkpt>
      <trkpt lat="39.39983667" lon="-8.49158667">
        <ele>15.0</ele>
        <time>2019-05-17T12:08:44.189Z</time>
      </trkpt>
      <trkpt lat="39.39988" lon="-8.49152167">
        <ele>15.0</ele>
        <time>2019-05-17T12:08:45.180Z</time>
      </trkpt>
      <trkpt lat="39.39988" lon="-8.49152167">
        <ele>15.0</ele>
        <time>2019-05-17T12:08:46.151Z</time>
      </trkpt>
      <trkpt lat="39.39992" lon="-8.49145833">
        <ele>15.0</ele>
        <time>2019-05-17T12:08:47.162Z</time>
      </trkpt>
      <trkpt lat="39.39992" lon="-8.49145833">
        <ele>15.0</ele>
        <time>2019-05-17T12:08:48.180Z</time>
      </trkpt>
      <trkpt lat="39.39996" lon="-8.49139833">
        <ele>15.0</ele>
        <time>2019-05-17T12:08:49.174Z</time>
      </trkpt>
      <trkpt lat="39.39996" lon="-8.49139833">
        <ele>15.0</ele>
        <time>2019-05-17T12:08:50.183Z</time>
      </trkpt>
      <trkpt lat="39.4" lon="-8.49133667">
        <ele>15.0</ele>
        <time>2019-05-17T12:08:51.179Z</time>
      </trkpt>
      <trkpt lat="39.4" lon="-8.49133667">
        <ele>15.0</ele>
        <time>2019-05-17T12:08:52.184Z</time>
      </trkpt>
      <trkpt lat="39.40004" lon="-8.491275">
        <ele>14.0</ele>
        <time>2019-05-17T12:08:53.181Z</time>
      </trkpt>
      <trkpt lat="39.40004" lon="-8.491275">
        <ele>14.0</ele>
        <time>2019-05-17T12:08:54.153Z</time>
      </trkpt>
      <trkpt lat="39.400075" lon="-8.49121167">
        <ele>14.0</ele>
        <time>2019-05-17T12:08:55.195Z</time>
      </trkpt>
      <trkpt lat="39.400075" lon="-8.49121167">
        <ele>14.0</ele>
        <time>2019-05-17T12:08:56.182Z</time>
      </trkpt>
      <trkpt lat="39.40010333" lon="-8.49116">
        <ele>14.0</ele>
        <time>2019-05-17T12:08:57.162Z</time>
      </trkpt>
      <trkpt lat="39.40011667" lon="-8.49113833">
        <ele>14.0</ele>
        <time>2019-05-17T12:08:58.177Z</time>
      </trkpt>
      <trkpt lat="39.40013167" lon="-8.491115">
        <ele>13.0</ele>
        <time>2019-05-17T12:08:59.155Z</time>
      </trkpt>
      <trkpt lat="39.40013167" lon="-8.491115">
        <ele>13.0</ele>
        <time>2019-05-17T12:09:00.160Z</time>
      </trkpt>
      <trkpt lat="39.40017" lon="-8.49106167">
        <ele>13.0</ele>
        <time>2019-05-17T12:09:01.151Z</time>
      </trkpt>
      <trkpt lat="39.40019" lon="-8.491035">
        <ele>13.0</ele>
        <time>2019-05-17T12:09:02.162Z</time>
      </trkpt>
      <trkpt lat="39.40019" lon="-8.491035">
        <ele>13.0</ele>
        <time>2019-05-17T12:09:03.164Z</time>
      </trkpt>
      <trkpt lat="39.400235" lon="-8.490975">
        <ele>13.0</ele>
        <time>2019-05-17T12:09:04.167Z</time>
      </trkpt>
      <trkpt lat="39.40025667" lon="-8.49094333">
        <ele>13.0</ele>
        <time>2019-05-17T12:09:05.163Z</time>
      </trkpt>
      <trkpt lat="39.40025667" lon="-8.49094333">
        <ele>13.0</ele>
        <time>2019-05-17T12:09:06.178Z</time>
      </trkpt>
      <trkpt lat="39.40030167" lon="-8.49088167">
        <ele>12.0</ele>
        <time>2019-05-17T12:09:07.168Z</time>
      </trkpt>
      <trkpt lat="39.40030167" lon="-8.49088167">
        <ele>12.0</ele>
        <time>2019-05-17T12:09:08.165Z</time>
      </trkpt>
      <trkpt lat="39.40034833" lon="-8.49082167">
        <ele>12.0</ele>
        <time>2019-05-17T12:09:09.182Z</time>
      </trkpt>
      <trkpt lat="39.40037" lon="-8.49079167">
        <ele>12.0</ele>
        <time>2019-05-17T12:09:10.164Z</time>
      </trkpt>
      <trkpt lat="39.40039333" lon="-8.49076">
        <ele>12.0</ele>
        <time>2019-05-17T12:09:11.162Z</time>
      </trkpt>
      <trkpt lat="39.40039333" lon="-8.49076">
        <ele>12.0</ele>
        <time>2019-05-17T12:09:12.150Z</time>
      </trkpt>
      <trkpt lat="39.40043333" lon="-8.49069667">
        <ele>13.0</ele>
        <time>2019-05-17T12:09:13.177Z</time>
      </trkpt>
      <trkpt lat="39.40043333" lon="-8.49069667">
        <ele>13.0</ele>
        <time>2019-05-17T12:09:14.152Z</time>
      </trkpt>
      <trkpt lat="39.40048333" lon="-8.49062833">
        <ele>12.0</ele>
        <time>2019-05-17T12:09:15.182Z</time>
      </trkpt>
      <trkpt lat="39.40048333" lon="-8.49062833">
        <ele>12.0</ele>
        <time>2019-05-17T12:09:16.170Z</time>
      </trkpt>
      <trkpt lat="39.40052667" lon="-8.49055667">
        <ele>12.0</ele>
        <time>2019-05-17T12:09:17.166Z</time>
      </trkpt>
      <trkpt lat="39.40052667" lon="-8.49055667">
        <ele>12.0</ele>
        <time>2019-05-17T12:09:18.154Z</time>
      </trkpt>
      <trkpt lat="39.40057" lon="-8.490485">
        <ele>12.0</ele>
        <time>2019-05-17T12:09:19.185Z</time>
      </trkpt>
      <trkpt lat="39.40057" lon="-8.490485">
        <ele>12.0</ele>
        <time>2019-05-17T12:09:20.180Z</time>
      </trkpt>
      <trkpt lat="39.40062" lon="-8.49040833">
        <ele>12.0</ele>
        <time>2019-05-17T12:09:21.173Z</time>
      </trkpt>
      <trkpt lat="39.40064167" lon="-8.49037333">
        <ele>12.0</ele>
        <time>2019-05-17T12:09:22.172Z</time>
      </trkpt>
      <trkpt lat="39.400665" lon="-8.49033833">
        <ele>12.0</ele>
        <time>2019-05-17T12:09:23.173Z</time>
      </trkpt>
      <trkpt lat="39.400665" lon="-8.49033833">
        <ele>12.0</ele>
        <time>2019-05-17T12:09:24.178Z</time>
      </trkpt>
      <trkpt lat="39.40071167" lon="-8.49026667">
        <ele>12.0</ele>
        <time>2019-05-17T12:09:25.174Z</time>
      </trkpt>
      <trkpt lat="39.40071167" lon="-8.49026667">
        <ele>12.0</ele>
        <time>2019-05-17T12:09:26.182Z</time>
      </trkpt>
      <trkpt lat="39.400745" lon="-8.49020833">
        <ele>11.0</ele>
        <time>2019-05-17T12:09:27.172Z</time>
      </trkpt>
      <trkpt lat="39.400745" lon="-8.49020833">
        <ele>11.0</ele>
        <time>2019-05-17T12:09:28.170Z</time>
      </trkpt>
      <trkpt lat="39.40078" lon="-8.49015167">
        <ele>11.0</ele>
        <time>2019-05-17T12:09:29.168Z</time>
      </trkpt>
      <trkpt lat="39.40078" lon="-8.49015167">
        <ele>11.0</ele>
        <time>2019-05-17T12:09:30.182Z</time>
      </trkpt>
      <trkpt lat="39.40082833" lon="-8.490095">
        <ele>11.0</ele>
        <time>2019-05-17T12:09:31.178Z</time>
      </trkpt>
      <trkpt lat="39.400855" lon="-8.49006167">
        <ele>11.0</ele>
        <time>2019-05-17T12:09:32.150Z</time>
      </trkpt>
      <trkpt lat="39.400855" lon="-8.49006167">
        <ele>11.0</ele>
        <time>2019-05-17T12:09:33.180Z</time>
      </trkpt>
      <trkpt lat="39.40089" lon="-8.48999833">
        <ele>10.0</ele>
        <time>2019-05-17T12:09:34.153Z</time>
      </trkpt>
      <trkpt lat="39.400905" lon="-8.48996833">
        <ele>10.0</ele>
        <time>2019-05-17T12:09:35.151Z</time>
      </trkpt>
      <trkpt lat="39.400905" lon="-8.48996833">
        <ele>10.0</ele>
        <time>2019-05-17T12:09:36.167Z</time>
      </trkpt>
      <trkpt lat="39.40094" lon="-8.48990833">
        <ele>9.0</ele>
        <time>2019-05-17T12:09:37.165Z</time>
      </trkpt>
      <trkpt lat="39.40094" lon="-8.48990833">
        <ele>9.0</ele>
        <time>2019-05-17T12:09:38.163Z</time>
      </trkpt>
      <trkpt lat="39.400985" lon="-8.48984">
        <ele>9.0</ele>
        <time>2019-05-17T12:09:39.170Z</time>
      </trkpt>
      <trkpt lat="39.40101333" lon="-8.489805">
        <ele>9.0</ele>
        <time>2019-05-17T12:09:40.166Z</time>
      </trkpt>
      <trkpt lat="39.401035" lon="-8.48977333">
        <ele>10.0</ele>
        <time>2019-05-17T12:09:41.173Z</time>
      </trkpt>
      <trkpt lat="39.401035" lon="-8.48977333">
        <ele>10.0</ele>
        <time>2019-05-17T12:09:42.176Z</time>
      </trkpt>
      <trkpt lat="39.40105" lon="-8.48972">
        <ele>9.0</ele>
        <time>2019-05-17T12:09:43.174Z</time>
      </trkpt>
      <trkpt lat="39.40105" lon="-8.48972">
        <ele>9.0</ele>
        <time>2019-05-17T12:09:44.180Z</time>
      </trkpt>
      <trkpt lat="39.401025" lon="-8.48967167">
        <ele>9.0</ele>
        <time>2019-05-17T12:09:45.175Z</time>
      </trkpt>
      <trkpt lat="39.40100833" lon="-8.48965333">
        <ele>10.0</ele>
        <time>2019-05-17T12:09:46.162Z</time>
      </trkpt>
      <trkpt lat="39.40099167" lon="-8.489635">
        <ele>10.0</ele>
        <time>2019-05-17T12:09:47.195Z</time>
      </trkpt>
      <trkpt lat="39.40099167" lon="-8.489635">
        <ele>10.0</ele>
        <time>2019-05-17T12:09:48.162Z</time>
      </trkpt>
      <trkpt lat="39.40096167" lon="-8.48959">
        <ele>10.0</ele>
        <time>2019-05-17T12:09:49.177Z</time>
      </trkpt>
      <trkpt lat="39.40096167" lon="-8.48959">
        <ele>10.0</ele>
        <time>2019-05-17T12:09:50.169Z</time>
      </trkpt>
      <trkpt lat="39.40094" lon="-8.48955">
        <ele>10.0</ele>
        <time>2019-05-17T12:09:51.170Z</time>
      </trkpt>
      <trkpt lat="39.400935" lon="-8.48952833">
        <ele>10.0</ele>
        <time>2019-05-17T12:09:52.177Z</time>
      </trkpt>
      <trkpt lat="39.40092167" lon="-8.48950667">
        <ele>11.0</ele>
        <time>2019-05-17T12:09:53.187Z</time>
      </trkpt>
      <trkpt lat="39.40092167" lon="-8.48950667">
        <ele>11.0</ele>
        <time>2019-05-17T12:09:54.158Z</time>
      </trkpt>
      <trkpt lat="39.40088833" lon="-8.48947333">
        <ele>11.0</ele>
        <time>2019-05-17T12:09:55.155Z</time>
      </trkpt>
      <trkpt lat="39.40088833" lon="-8.48947333">
        <ele>11.0</ele>
        <time>2019-05-17T12:09:56.178Z</time>
      </trkpt>
      <trkpt lat="39.40085" lon="-8.48943167">
        <ele>11.0</ele>
        <time>2019-05-17T12:09:57.163Z</time>
      </trkpt>
      <trkpt lat="39.40085" lon="-8.48943167">
        <ele>11.0</ele>
        <time>2019-05-17T12:09:58.174Z</time>
      </trkpt>
      <trkpt lat="39.40081167" lon="-8.48938667">
        <ele>11.0</ele>
        <time>2019-05-17T12:09:59.197Z</time>
      </trkpt>
      <trkpt lat="39.40081167" lon="-8.48938667">
        <ele>11.0</ele>
        <time>2019-05-17T12:10:00.180Z</time>
      </trkpt>
      <trkpt lat="39.40077" lon="-8.48934167">
        <ele>12.0</ele>
        <time>2019-05-17T12:10:01.165Z</time>
      </trkpt>
      <trkpt lat="39.40077" lon="-8.48934167">
        <ele>12.0</ele>
        <time>2019-05-17T12:10:02.150Z</time>
      </trkpt>
      <trkpt lat="39.40072833" lon="-8.48928833">
        <ele>12.0</ele>
        <time>2019-05-17T12:10:03.176Z</time>
      </trkpt>
      <trkpt lat="39.40072833" lon="-8.48928833">
        <ele>12.0</ele>
        <time>2019-05-17T12:10:04.152Z</time>
      </trkpt>
      <trkpt lat="39.40068167" lon="-8.48923833">
        <ele>13.0</ele>
        <time>2019-05-17T12:10:05.181Z</time>
      </trkpt>
      <trkpt lat="39.40068167" lon="-8.48923833">
        <ele>13.0</ele>
        <time>2019-05-17T12:10:06.172Z</time>
      </trkpt>
      <trkpt lat="39.40063" lon="-8.48918167">
        <ele>13.0</ele>
        <time>2019-05-17T12:10:07.176Z</time>
      </trkpt>
      <trkpt lat="39.40063" lon="-8.48918167">
        <ele>13.0</ele>
        <time>2019-05-17T12:10:08.158Z</time>
      </trkpt>
      <trkpt lat="39.400575" lon="-8.489125">
        <ele>13.0</ele>
        <time>2019-05-17T12:10:09.178Z</time>
      </trkpt>
      <trkpt lat="39.40055" lon="-8.489095">
        <ele>13.0</ele>
        <time>2019-05-17T12:10:10.186Z</time>
      </trkpt>
      <trkpt lat="39.40052333" lon="-8.489065">
        <ele>13.0</ele>
        <time>2019-05-17T12:10:11.159Z</time>
      </trkpt>
      <trkpt lat="39.40052333" lon="-8.489065">
        <ele>13.0</ele>
        <time>2019-05-17T12:10:12.180Z</time>
      </trkpt>
      <trkpt lat="39.40046333" lon="-8.48899667">
        <ele>14.0</ele>
        <time>2019-05-17T12:10:13.181Z</time>
      </trkpt>
      <trkpt lat="39.40046333" lon="-8.48899667">
        <ele>14.0</ele>
        <time>2019-05-17T12:10:14.179Z</time>
      </trkpt>
      <trkpt lat="39.4004" lon="-8.488925">
        <ele>14.0</ele>
        <time>2019-05-17T12:10:15.181Z</time>
      </trkpt>
      <trkpt lat="39.4004" lon="-8.488925">
        <ele>14.0</ele>
        <time>2019-05-17T12:10:16.178Z</time>
      </trkpt>
      <trkpt lat="39.40034333" lon="-8.48884667">
        <ele>14.0</ele>
        <time>2019-05-17T12:10:17.182Z</time>
      </trkpt>
      <trkpt lat="39.40034333" lon="-8.48884667">
        <ele>14.0</ele>
        <time>2019-05-17T12:10:18.170Z</time>
      </trkpt>
      <trkpt lat="39.40033" lon="-8.48875333">
        <ele>14.0</ele>
        <time>2019-05-17T12:10:19.153Z</time>
      </trkpt>
      <trkpt lat="39.40033" lon="-8.48875333">
        <ele>14.0</ele>
        <time>2019-05-17T12:10:20.159Z</time>
      </trkpt>
      <trkpt lat="39.40033833" lon="-8.488655">
        <ele>14.0</ele>
        <time>2019-05-17T12:10:21.186Z</time>
      </trkpt>
      <trkpt lat="39.40035667" lon="-8.48862">
        <ele>14.0</ele>
        <time>2019-05-17T12:10:22.187Z</time>
      </trkpt>
      <trkpt lat="39.40037667" lon="-8.48858667">
        <ele>15.0</ele>
        <time>2019-05-17T12:10:23.181Z</time>
      </trkpt>
      <trkpt lat="39.40037667" lon="-8.48858667">
        <ele>15.0</ele>
        <time>2019-05-17T12:10:24.162Z</time>
      </trkpt>
      <trkpt lat="39.40040667" lon="-8.48853">
        <ele>15.0</ele>
        <time>2019-05-17T12:10:25.154Z</time>
      </trkpt>
      <trkpt lat="39.40040667" lon="-8.48853">
        <ele>15.0</ele>
        <time>2019-05-17T12:10:26.165Z</time>
      </trkpt>
      <trkpt lat="39.40044667" lon="-8.48847833">
        <ele>14.0</ele>
        <time>2019-05-17T12:10:27.157Z</time>
      </trkpt>
      <trkpt lat="39.40044667" lon="-8.48847833">
        <ele>14.0</ele>
        <time>2019-05-17T12:10:28.168Z</time>
      </trkpt>
      <trkpt lat="39.400485" lon="-8.48841833">
        <ele>14.0</ele>
        <time>2019-05-17T12:10:29.173Z</time>
      </trkpt>
      <trkpt lat="39.400485" lon="-8.48841833">
        <ele>14.0</ele>
        <time>2019-05-17T12:10:30.180Z</time>
      </trkpt>
      <trkpt lat="39.40052667" lon="-8.48836333">
        <ele>14.0</ele>
        <time>2019-05-17T12:10:31.168Z</time>
      </trkpt>
      <trkpt lat="39.40052667" lon="-8.48836333">
        <ele>14.0</ele>
        <time>2019-05-17T12:10:32.169Z</time>
      </trkpt>
      <trkpt lat="39.40057333" lon="-8.48831667">
        <ele>14.0</ele>
        <time>2019-05-17T12:10:33.150Z</time>
      </trkpt>
      <trkpt lat="39.40057333" lon="-8.48831667">
        <ele>14.0</ele>
        <time>2019-05-17T12:10:34.180Z</time>
      </trkpt>
      <trkpt lat="39.40062" lon="-8.48827">
        <ele>15.0</ele>
        <time>2019-05-17T12:10:35.185Z</time>
      </trkpt>
      <trkpt lat="39.40062" lon="-8.48827">
        <ele>15.0</ele>
        <time>2019-05-17T12:10:36.188Z</time>
      </trkpt>
      <trkpt lat="39.40066667" lon="-8.48822333">
        <ele>15.0</ele>
        <time>2019-05-17T12:10:37.150Z</time>
      </trkpt>
      <trkpt lat="39.40066667" lon="-8.48822333">
        <ele>15.0</ele>
        <time>2019-05-17T12:10:38.180Z</time>
      </trkpt>
      <trkpt lat="39.40071167" lon="-8.48817167">
        <ele>15.0</ele>
        <time>2019-05-17T12:10:39.177Z</time>
      </trkpt>
      <trkpt lat="39.40071167" lon="-8.48817167">
        <ele>15.0</ele>
        <time>2019-05-17T12:10:40.152Z</time>
      </trkpt>
      <trkpt lat="39.40075667" lon="-8.48812333">
        <ele>15.0</ele>
        <time>2019-05-17T12:10:41.173Z</time>
      </trkpt>
      <trkpt lat="39.40075667" lon="-8.48812333">
        <ele>15.0</ele>
        <time>2019-05-17T12:10:42.169Z</time>
      </trkpt>
      <trkpt lat="39.4008" lon="-8.488075">
        <ele>15.0</ele>
        <time>2019-05-17T12:10:43.174Z</time>
      </trkpt>
      <trkpt lat="39.4008" lon="-8.488075">
        <ele>15.0</ele>
        <time>2019-05-17T12:10:44.154Z</time>
      </trkpt>
      <trkpt lat="39.40084" lon="-8.48803167">
        <ele>15.0</ele>
        <time>2019-05-17T12:10:45.160Z</time>
      </trkpt>
      <trkpt lat="39.40084" lon="-8.48803167">
        <ele>15.0</ele>
        <time>2019-05-17T12:10:46.172Z</time>
      </trkpt>
      <trkpt lat="39.40088167" lon="-8.48798833">
        <ele>15.0</ele>
        <time>2019-05-17T12:10:47.166Z</time>
      </trkpt>
      <trkpt lat="39.40088167" lon="-8.48798833">
        <ele>15.0</ele>
        <time>2019-05-17T12:10:48.150Z</time>
      </trkpt>
      <trkpt lat="39.40092" lon="-8.48794167">
        <ele>15.0</ele>
        <time>2019-05-17T12:10:49.193Z</time>
      </trkpt>
      <trkpt lat="39.40092" lon="-8.48794167">
        <ele>15.0</ele>
        <time>2019-05-17T12:10:50.169Z</time>
      </trkpt>
      <trkpt lat="39.40096" lon="-8.487895">
        <ele>15.0</ele>
        <time>2019-05-17T12:10:51.175Z</time>
      </trkpt>
      <trkpt lat="39.40098" lon="-8.48786667">
        <ele>15.0</ele>
        <time>2019-05-17T12:10:52.183Z</time>
      </trkpt>
      <trkpt lat="39.400995" lon="-8.48783667">
        <ele>15.0</ele>
        <time>2019-05-17T12:10:53.167Z</time>
      </trkpt>
      <trkpt lat="39.400995" lon="-8.48783667">
        <ele>15.0</ele>
        <time>2019-05-17T12:10:54.158Z</time>
      </trkpt>
      <trkpt lat="39.40102" lon="-8.48777167">
        <ele>15.0</ele>
        <time>2019-05-17T12:10:55.183Z</time>
      </trkpt>
      <trkpt lat="39.40102" lon="-8.48777167">
        <ele>15.0</ele>
        <time>2019-05-17T12:10:56.184Z</time>
      </trkpt>
      <trkpt lat="39.40104667" lon="-8.48772167">
        <ele>14.0</ele>
        <time>2019-05-17T12:10:57.165Z</time>
      </trkpt>
      <trkpt lat="39.40104667" lon="-8.48772167">
        <ele>14.0</ele>
        <time>2019-05-17T12:10:58.160Z</time>
      </trkpt>
      <trkpt lat="39.40107833" lon="-8.48767667">
        <ele>14.0</ele>
        <time>2019-05-17T12:10:59.157Z</time>
      </trkpt>
      <trkpt lat="39.40107833" lon="-8.48767667">
        <ele>14.0</ele>
        <time>2019-05-17T12:11:00.162Z</time>
      </trkpt>
      <trkpt lat="39.40111" lon="-8.48762">
        <ele>14.0</ele>
        <time>2019-05-17T12:11:01.154Z</time>
      </trkpt>
      <trkpt lat="39.40112333" lon="-8.48759333">
        <ele>14.0</ele>
        <time>2019-05-17T12:11:02.178Z</time>
      </trkpt>
      <trkpt lat="39.40112333" lon="-8.48759333">
        <ele>14.0</ele>
        <time>2019-05-17T12:11:03.184Z</time>
      </trkpt>
      <trkpt lat="39.40115333" lon="-8.487555">
        <ele>14.0</ele>
        <time>2019-05-17T12:11:04.152Z</time>
      </trkpt>
      <trkpt lat="39.40116833" lon="-8.48753333">
        <ele>14.0</ele>
        <time>2019-05-17T12:11:05.159Z</time>
      </trkpt>
      <trkpt lat="39.40116833" lon="-8.48753333">
        <ele>14.0</ele>
        <time>2019-05-17T12:11:06.169Z</time>
      </trkpt>
      <trkpt lat="39.4012" lon="-8.48749667">
        <ele>14.0</ele>
        <time>2019-05-17T12:11:07.171Z</time>
      </trkpt>
      <trkpt lat="39.4012" lon="-8.48749667">
        <ele>14.0</ele>
        <time>2019-05-17T12:11:08.188Z</time>
      </trkpt>
      <trkpt lat="39.401225" lon="-8.48746167">
        <ele>15.0</ele>
        <time>2019-05-17T12:11:09.197Z</time>
      </trkpt>
      <trkpt lat="39.401235" lon="-8.48744167">
        <ele>15.0</ele>
        <time>2019-05-17T12:11:10.169Z</time>
      </trkpt>
      <trkpt lat="39.40124833" lon="-8.487425">
        <ele>15.0</ele>
        <time>2019-05-17T12:11:11.154Z</time>
      </trkpt>
      <trkpt lat="39.40124833" lon="-8.487425">
        <ele>15.0</ele>
        <time>2019-05-17T12:11:12.160Z</time>
      </trkpt>
      <trkpt lat="39.40128" lon="-8.48738833">
        <ele>15.0</ele>
        <time>2019-05-17T12:11:13.155Z</time>
      </trkpt>
      <trkpt lat="39.40128" lon="-8.48738833">
        <ele>15.0</ele>
        <time>2019-05-17T12:11:14.190Z</time>
      </trkpt>
      <trkpt lat="39.40131333" lon="-8.48735">
        <ele>16.0</ele>
        <time>2019-05-17T12:11:15.180Z</time>
      </trkpt>
      <trkpt lat="39.40131333" lon="-8.48735">
        <ele>16.0</ele>
        <time>2019-05-17T12:11:16.182Z</time>
      </trkpt>
      <trkpt lat="39.40134667" lon="-8.487315">
        <ele>16.0</ele>
        <time>2019-05-17T12:11:17.181Z</time>
      </trkpt>
      <trkpt lat="39.40134667" lon="-8.487315">
        <ele>16.0</ele>
        <time>2019-05-17T12:11:18.154Z</time>
      </trkpt>
      <trkpt lat="39.401375" lon="-8.487275">
        <ele>16.0</ele>
        <time>2019-05-17T12:11:19.186Z</time>
      </trkpt>
      <trkpt lat="39.401375" lon="-8.487275">
        <ele>16.0</ele>
        <time>2019-05-17T12:11:20.155Z</time>
      </trkpt>
      <trkpt lat="39.40140167" lon="-8.48723833">
        <ele>16.0</ele>
        <time>2019-05-17T12:11:21.185Z</time>
      </trkpt>
      <trkpt lat="39.40140167" lon="-8.48723833">
        <ele>16.0</ele>
        <time>2019-05-17T12:11:22.173Z</time>
      </trkpt>
      <trkpt lat="39.40143167" lon="-8.48720167">
        <ele>17.0</ele>
        <time>2019-05-17T12:11:23.167Z</time>
      </trkpt>
      <trkpt lat="39.40143167" lon="-8.48720167">
        <ele>17.0</ele>
        <time>2019-05-17T12:11:24.157Z</time>
      </trkpt>
      <trkpt lat="39.401455" lon="-8.48717667">
        <ele>17.0</ele>
        <time>2019-05-17T12:11:25.180Z</time>
      </trkpt>
      <trkpt lat="39.401455" lon="-8.48717667">
        <ele>17.0</ele>
        <time>2019-05-17T12:11:26.180Z</time>
      </trkpt>
      <trkpt lat="39.40148167" lon="-8.48716">
        <ele>18.0</ele>
        <time>2019-05-17T12:11:27.184Z</time>
      </trkpt>
      <trkpt lat="39.40148167" lon="-8.48716">
        <ele>18.0</ele>
        <time>2019-05-17T12:11:28.158Z</time>
      </trkpt>
      <trkpt lat="39.40151333" lon="-8.48713">
        <ele>18.0</ele>
        <time>2019-05-17T12:11:29.195Z</time>
      </trkpt>
      <trkpt lat="39.40151333" lon="-8.48713">
        <ele>18.0</ele>
        <time>2019-05-17T12:11:30.159Z</time>
      </trkpt>
      <trkpt lat="39.401535" lon="-8.48708667">
        <ele>20.0</ele>
        <time>2019-05-17T12:11:31.153Z</time>
      </trkpt>
      <trkpt lat="39.401535" lon="-8.48708667">
        <ele>20.0</ele>
        <time>2019-05-17T12:11:32.176Z</time>
      </trkpt>
      <trkpt lat="39.40155833" lon="-8.48704333">
        <ele>20.0</ele>
        <time>2019-05-17T12:11:33.157Z</time>
      </trkpt>
      <trkpt lat="39.40155833" lon="-8.48704333">
        <ele>20.0</ele>
        <time>2019-05-17T12:11:34.161Z</time>
      </trkpt>
      <trkpt lat="39.40158333" lon="-8.48700833">
        <ele>20.0</ele>
        <time>2019-05-17T12:11:35.197Z</time>
      </trkpt>
      <trkpt lat="39.40158333" lon="-8.48700833">
        <ele>20.0</ele>
        <time>2019-05-17T12:11:36.189Z</time>
      </trkpt>
      <trkpt lat="39.401615" lon="-8.487">
        <ele>20.0</ele>
        <time>2019-05-17T12:11:37.170Z</time>
      </trkpt>
      <trkpt lat="39.401615" lon="-8.487">
        <ele>20.0</ele>
        <time>2019-05-17T12:11:38.182Z</time>
      </trkpt>
      <trkpt lat="39.40165333" lon="-8.48699833">
        <ele>20.0</ele>
        <time>2019-05-17T12:11:39.182Z</time>
      </trkpt>
      <trkpt lat="39.40165333" lon="-8.48699833">
        <ele>20.0</ele>
        <time>2019-05-17T12:11:40.189Z</time>
      </trkpt>
      <trkpt lat="39.40169333" lon="-8.48699333">
        <ele>20.0</ele>
        <time>2019-05-17T12:11:41.153Z</time>
      </trkpt>
      <trkpt lat="39.40169333" lon="-8.48699333">
        <ele>20.0</ele>
        <time>2019-05-17T12:11:42.181Z</time>
      </trkpt>
      <trkpt lat="39.401735" lon="-8.48698">
        <ele>20.0</ele>
        <time>2019-05-17T12:11:43.171Z</time>
      </trkpt>
      <trkpt lat="39.401735" lon="-8.48698">
        <ele>20.0</ele>
        <time>2019-05-17T12:11:44.183Z</time>
      </trkpt>
      <trkpt lat="39.40177333" lon="-8.48696167">
        <ele>20.0</ele>
        <time>2019-05-17T12:11:45.181Z</time>
      </trkpt>
      <trkpt lat="39.40179167" lon="-8.48695167">
        <ele>21.0</ele>
        <time>2019-05-17T12:11:46.187Z</time>
      </trkpt>
      <trkpt lat="39.40180833" lon="-8.48693667">
        <ele>21.0</ele>
        <time>2019-05-17T12:11:47.153Z</time>
      </trkpt>
      <trkpt lat="39.40180833" lon="-8.48693667">
        <ele>21.0</ele>
        <time>2019-05-17T12:11:48.159Z</time>
      </trkpt>
      <trkpt lat="39.401845" lon="-8.48690833">
        <ele>21.0</ele>
        <time>2019-05-17T12:11:49.156Z</time>
      </trkpt>
      <trkpt lat="39.401845" lon="-8.48690833">
        <ele>21.0</ele>
        <time>2019-05-17T12:11:50.171Z</time>
      </trkpt>
      <trkpt lat="39.40188167" lon="-8.48688667">
        <ele>21.0</ele>
        <time>2019-05-17T12:11:51.180Z</time>
      </trkpt>
      <trkpt lat="39.4019" lon="-8.48687333">
        <ele>21.0</ele>
        <time>2019-05-17T12:11:52.153Z</time>
      </trkpt>
      <trkpt lat="39.40191667" lon="-8.48686333">
        <ele>21.0</ele>
        <time>2019-05-17T12:11:53.157Z</time>
      </trkpt>
      <trkpt lat="39.40191667" lon="-8.48686333">
        <ele>21.0</ele>
        <time>2019-05-17T12:11:54.162Z</time>
      </trkpt>
      <trkpt lat="39.40194" lon="-8.48684333">
        <ele>21.0</ele>
        <time>2019-05-17T12:11:55.189Z</time>
      </trkpt>
      <trkpt lat="39.40194" lon="-8.48684333">
        <ele>21.0</ele>
        <time>2019-05-17T12:11:56.155Z</time>
      </trkpt>
      <trkpt lat="39.40193667" lon="-8.48681667">
        <ele>22.0</ele>
        <time>2019-05-17T12:11:57.189Z</time>
      </trkpt>
      <trkpt lat="39.40193667" lon="-8.48681667">
        <ele>22.0</ele>
        <time>2019-05-17T12:11:58.156Z</time>
      </trkpt>
      <trkpt lat="39.40193" lon="-8.48681667">
        <ele>22.0</ele>
        <time>2019-05-17T12:11:59.184Z</time>
      </trkpt>
      <trkpt lat="39.40193" lon="-8.48681667">
        <ele>22.0</ele>
        <time>2019-05-17T12:12:00.190Z</time>
      </trkpt>
      <trkpt lat="39.40192667" lon="-8.48681833">
        <ele>23.0</ele>
        <time>2019-05-17T12:12:01.181Z</time>
      </trkpt>
      <trkpt lat="39.40192667" lon="-8.48681833">
        <ele>23.0</ele>
        <time>2019-05-17T12:12:02.155Z</time>
      </trkpt>
      <trkpt lat="39.40192667" lon="-8.48681833">
        <ele>23.0</ele>
        <time>2019-05-17T12:12:03.161Z</time>
      </trkpt>
      <trkpt lat="39.40192667" lon="-8.48681833">
        <ele>23.0</ele>
        <time>2019-05-17T12:12:04.167Z</time>
      </trkpt>
      <trkpt lat="39.40192667" lon="-8.48681833">
        <ele>23.0</ele>
        <time>2019-05-17T12:12:05.163Z</time>
      </trkpt>
      <trkpt lat="39.40192667" lon="-8.48681833">
        <ele>23.0</ele>
        <time>2019-05-17T12:12:06.166Z</time>
      </trkpt>
      <trkpt lat="39.40192667" lon="-8.48681833">
        <ele>23.0</ele>
        <time>2019-05-17T12:12:07.164Z</time>
      </trkpt>
      <trkpt lat="39.40192667" lon="-8.48681833">
        <ele>23.0</ele>
        <time>2019-05-17T12:12:08.155Z</time>
      </trkpt>
      <trkpt lat="39.40192667" lon="-8.48681833">
        <ele>23.0</ele>
        <time>2019-05-17T12:12:09.153Z</time>
      </trkpt>
      <trkpt lat="39.40192667" lon="-8.48681833">
        <ele>23.0</ele>
        <time>2019-05-17T12:12:10.161Z</time>
      </trkpt>
      <trkpt lat="39.40192667" lon="-8.48681833">
        <ele>23.0</ele>
        <time>2019-05-17T12:12:11.156Z</time>
      </trkpt>
      <trkpt lat="39.40192667" lon="-8.48681833">
        <ele>23.0</ele>
        <time>2019-05-17T12:12:12.165Z</time>
      </trkpt>
      <trkpt lat="39.40192667" lon="-8.48681833">
        <ele>23.0</ele>
        <time>2019-05-17T12:12:13.164Z</time>
      </trkpt>
      <trkpt lat="39.40192667" lon="-8.48681833">
        <ele>23.0</ele>
        <time>2019-05-17T12:12:14.177Z</time>
      </trkpt>
      <trkpt lat="39.40192667" lon="-8.48669667">
        <ele>30.0</ele>
        <time>2019-05-17T12:12:15.186Z</time>
      </trkpt>
      <trkpt lat="39.40192667" lon="-8.48669667">
        <ele>30.0</ele>
        <time>2019-05-17T12:12:16.154Z</time>
      </trkpt>
      <trkpt lat="39.40192667" lon="-8.48669667">
        <ele>30.0</ele>
        <time>2019-05-17T12:12:17.161Z</time>
      </trkpt>
      <trkpt lat="39.40192667" lon="-8.48669667">
        <ele>30.0</ele>
        <time>2019-05-17T12:12:18.169Z</time>
      </trkpt>
      <trkpt lat="39.40192667" lon="-8.48669667">
        <ele>30.0</ele>
        <time>2019-05-17T12:12:19.162Z</time>
      </trkpt>
      <trkpt lat="39.40192667" lon="-8.48669667">
        <ele>30.0</ele>
        <time>2019-05-17T12:12:20.169Z</time>
      </trkpt>
      <trkpt lat="39.40192667" lon="-8.48669667">
        <ele>30.0</ele>
        <time>2019-05-17T12:12:21.158Z</time>
      </trkpt>
      <trkpt lat="39.40192667" lon="-8.48669667">
        <ele>30.0</ele>
        <time>2019-05-17T12:12:22.153Z</time>
      </trkpt>
      <trkpt lat="39.40192667" lon="-8.48669667">
        <ele>30.0</ele>
        <time>2019-05-17T12:12:23.189Z</time>
      </trkpt>
      <trkpt lat="39.40192667" lon="-8.48669667">
        <ele>30.0</ele>
        <time>2019-05-17T12:12:24.150Z</time>
      </trkpt>
      <trkpt lat="39.40192667" lon="-8.48669667">
        <ele>30.0</ele>
        <time>2019-05-17T12:12:25.150Z</time>
      </trkpt>
      <trkpt lat="39.40193" lon="-8.48662167">
        <ele>26.0</ele>
        <time>2019-05-17T12:12:26.165Z</time>
      </trkpt>
      <trkpt lat="39.40193" lon="-8.48662167">
        <ele>26.0</ele>
        <time>2019-05-17T12:12:27.150Z</time>
      </trkpt>
      <trkpt lat="39.40193667" lon="-8.48659833">
        <ele>26.0</ele>
        <time>2019-05-17T12:12:28.155Z</time>
      </trkpt>
      <trkpt lat="39.40193667" lon="-8.48659833">
        <ele>26.0</ele>
        <time>2019-05-17T12:12:29.160Z</time>
      </trkpt>
      <trkpt lat="39.40196667" lon="-8.48657167">
        <ele>25.0</ele>
        <time>2019-05-17T12:12:30.165Z</time>
      </trkpt>
      <trkpt lat="39.40199333" lon="-8.48656167">
        <ele>25.0</ele>
        <time>2019-05-17T12:12:31.174Z</time>
      </trkpt>
      <trkpt lat="39.40199333" lon="-8.48656167">
        <ele>25.0</ele>
        <time>2019-05-17T12:12:32.151Z</time>
      </trkpt>
      <trkpt lat="39.40201833" lon="-8.48653167">
        <ele>25.0</ele>
        <time>2019-05-17T12:12:33.171Z</time>
      </trkpt>
      <trkpt lat="39.40203333" lon="-8.486515">
        <ele>25.0</ele>
        <time>2019-05-17T12:12:34.176Z</time>
      </trkpt>
      <trkpt lat="39.40203333" lon="-8.486515">
        <ele>25.0</ele>
        <time>2019-05-17T12:12:35.186Z</time>
      </trkpt>
      <trkpt lat="39.40206833" lon="-8.486515">
        <ele>25.0</ele>
        <time>2019-05-17T12:12:36.185Z</time>
      </trkpt>
      <trkpt lat="39.40206833" lon="-8.486515">
        <ele>25.0</ele>
        <time>2019-05-17T12:12:37.150Z</time>
      </trkpt>
      <trkpt lat="39.40206833" lon="-8.48655667">
        <ele>25.0</ele>
        <time>2019-05-17T12:12:38.165Z</time>
      </trkpt>
      <trkpt lat="39.40206833" lon="-8.48655667">
        <ele>25.0</ele>
        <time>2019-05-17T12:12:39.165Z</time>
      </trkpt>
      <trkpt lat="39.40204833" lon="-8.48658667">
        <ele>25.0</ele>
        <time>2019-05-17T12:12:40.157Z</time>
      </trkpt>
      <trkpt lat="39.40203833" lon="-8.48659667">
        <ele>25.0</ele>
        <time>2019-05-17T12:12:41.166Z</time>
      </trkpt>
      <trkpt lat="39.40203833" lon="-8.48659667">
        <ele>25.0</ele>
        <time>2019-05-17T12:12:42.187Z</time>
      </trkpt>
      <trkpt lat="39.40202" lon="-8.486615">
        <ele>25.0</ele>
        <time>2019-05-17T12:12:43.165Z</time>
      </trkpt>
      <trkpt lat="39.40201167" lon="-8.486625">
        <ele>25.0</ele>
        <time>2019-05-17T12:12:44.153Z</time>
      </trkpt>
      <trkpt lat="39.40201167" lon="-8.486625">
        <ele>25.0</ele>
        <time>2019-05-17T12:12:45.162Z</time>
      </trkpt>
      <trkpt lat="39.40199667" lon="-8.486635">
        <ele>24.0</ele>
        <time>2019-05-17T12:12:46.163Z</time>
      </trkpt>
      <trkpt lat="39.40199667" lon="-8.486635">
        <ele>24.0</ele>
        <time>2019-05-17T12:12:47.185Z</time>
      </trkpt>
      <trkpt lat="39.40198833" lon="-8.48664333">
        <ele>24.0</ele>
        <time>2019-05-17T12:12:48.153Z</time>
      </trkpt>
      <trkpt lat="39.40198833" lon="-8.48664333">
        <ele>24.0</ele>
        <time>2019-05-17T12:12:49.181Z</time>
      </trkpt>
      <trkpt lat="39.401975" lon="-8.48666167">
        <ele>24.0</ele>
        <time>2019-05-17T12:12:50.171Z</time>
      </trkpt>
      <trkpt lat="39.401975" lon="-8.48666167">
        <ele>24.0</ele>
        <time>2019-05-17T12:12:51.183Z</time>
      </trkpt>
      <trkpt lat="39.40195167" lon="-8.48668667">
        <ele>24.0</ele>
        <time>2019-05-17T12:12:52.174Z</time>
      </trkpt>
      <trkpt lat="39.40195167" lon="-8.48668667">
        <ele>24.0</ele>
        <time>2019-05-17T12:12:53.182Z</time>
      </trkpt>
      <trkpt lat="39.40194167" lon="-8.486715">
        <ele>25.0</ele>
        <time>2019-05-17T12:12:54.176Z</time>
      </trkpt>
      <trkpt lat="39.401935" lon="-8.48673333">
        <ele>25.0</ele>
        <time>2019-05-17T12:12:55.174Z</time>
      </trkpt>
      <trkpt lat="39.401935" lon="-8.48675167">
        <ele>25.0</ele>
        <time>2019-05-17T12:12:56.178Z</time>
      </trkpt>
      <trkpt lat="39.401935" lon="-8.48675167">
        <ele>25.0</ele>
        <time>2019-05-17T12:12:57.184Z</time>
      </trkpt>
      <trkpt lat="39.40194833" lon="-8.486785">
        <ele>25.0</ele>
        <time>2019-05-17T12:12:58.151Z</time>
      </trkpt>
      <trkpt lat="39.40194833" lon="-8.486785">
        <ele>25.0</ele>
        <time>2019-05-17T12:12:59.159Z</time>
      </trkpt>
      <trkpt lat="39.40196167" lon="-8.48682333">
        <ele>25.0</ele>
        <time>2019-05-17T12:13:00.189Z</time>
      </trkpt>
      <trkpt lat="39.40196167" lon="-8.48682333">
        <ele>25.0</ele>
        <time>2019-05-17T12:13:01.155Z</time>
      </trkpt>
      <trkpt lat="39.401975" lon="-8.48686">
        <ele>25.0</ele>
        <time>2019-05-17T12:13:02.182Z</time>
      </trkpt>
      <trkpt lat="39.401975" lon="-8.48686">
        <ele>25.0</ele>
        <time>2019-05-17T12:13:03.163Z</time>
      </trkpt>
      <trkpt lat="39.40198167" lon="-8.486885">
        <ele>25.0</ele>
        <time>2019-05-17T12:13:04.159Z</time>
      </trkpt>
      <trkpt lat="39.40198667" lon="-8.48689167">
        <ele>25.0</ele>
        <time>2019-05-17T12:13:05.150Z</time>
      </trkpt>
      <trkpt lat="39.40198667" lon="-8.48689167">
        <ele>25.0</ele>
        <time>2019-05-17T12:13:06.156Z</time>
      </trkpt>
      <trkpt lat="39.40199833" lon="-8.486905">
        <ele>25.0</ele>
        <time>2019-05-17T12:13:07.154Z</time>
      </trkpt>
      <trkpt lat="39.40200833" lon="-8.48690667">
        <ele>25.0</ele>
        <time>2019-05-17T12:13:08.171Z</time>
      </trkpt>
      <trkpt lat="39.40200833" lon="-8.48690667">
        <ele>25.0</ele>
        <time>2019-05-17T12:13:09.166Z</time>
      </trkpt>
      <trkpt lat="39.40202333" lon="-8.4869">
        <ele>25.0</ele>
        <time>2019-05-17T12:13:10.183Z</time>
      </trkpt>
      <trkpt lat="39.40202333" lon="-8.4869">
        <ele>25.0</ele>
        <time>2019-05-17T12:13:11.150Z</time>
      </trkpt>
      <trkpt lat="39.402045" lon="-8.48689667">
        <ele>25.0</ele>
        <time>2019-05-17T12:13:12.188Z</time>
      </trkpt>
      <trkpt lat="39.402045" lon="-8.48689667">
        <ele>25.0</ele>
        <time>2019-05-17T12:13:13.171Z</time>
      </trkpt>
      <trkpt lat="39.40206667" lon="-8.48688333">
        <ele>25.0</ele>
        <time>2019-05-17T12:13:14.171Z</time>
      </trkpt>
      <trkpt lat="39.40206667" lon="-8.48688333">
        <ele>25.0</ele>
        <time>2019-05-17T12:13:15.180Z</time>
      </trkpt>
      <trkpt lat="39.40209" lon="-8.48686833">
        <ele>25.0</ele>
        <time>2019-05-17T12:13:16.185Z</time>
      </trkpt>
      <trkpt lat="39.40209" lon="-8.48686833">
        <ele>25.0</ele>
        <time>2019-05-17T12:13:17.150Z</time>
      </trkpt>
      <trkpt lat="39.40211" lon="-8.48685833">
        <ele>25.0</ele>
        <time>2019-05-17T12:13:18.155Z</time>
      </trkpt>
      <trkpt lat="39.40211" lon="-8.48685833">
        <ele>25.0</ele>
        <time>2019-05-17T12:13:19.180Z</time>
      </trkpt>
      <trkpt lat="39.402145" lon="-8.48686">
        <ele>26.0</ele>
        <time>2019-05-17T12:13:20.170Z</time>
      </trkpt>
      <trkpt lat="39.402145" lon="-8.48686">
        <ele>26.0</ele>
        <time>2019-05-17T12:13:21.150Z</time>
      </trkpt>
      <trkpt lat="39.40218167" lon="-8.48685667">
        <ele>26.0</ele>
        <time>2019-05-17T12:13:22.176Z</time>
      </trkpt>
      <trkpt lat="39.40218167" lon="-8.48685667">
        <ele>26.0</ele>
        <time>2019-05-17T12:13:23.181Z</time>
      </trkpt>
      <trkpt lat="39.40221833" lon="-8.48686">
        <ele>27.0</ele>
        <time>2019-05-17T12:13:24.176Z</time>
      </trkpt>
      <trkpt lat="39.40221833" lon="-8.48686">
        <ele>27.0</ele>
        <time>2019-05-17T12:13:25.183Z</time>
      </trkpt>
      <trkpt lat="39.40225667" lon="-8.48684333">
        <ele>27.0</ele>
        <time>2019-05-17T12:13:26.154Z</time>
      </trkpt>
      <trkpt lat="39.40225667" lon="-8.48684333">
        <ele>27.0</ele>
        <time>2019-05-17T12:13:27.170Z</time>
      </trkpt>
      <trkpt lat="39.40228833" lon="-8.48683167">
        <ele>27.0</ele>
        <time>2019-05-17T12:13:28.183Z</time>
      </trkpt>
      <trkpt lat="39.40228833" lon="-8.48683167">
        <ele>27.0</ele>
        <time>2019-05-17T12:13:29.189Z</time>
      </trkpt>
      <trkpt lat="39.40232167" lon="-8.48680833">
        <ele>28.0</ele>
        <time>2019-05-17T12:13:30.153Z</time>
      </trkpt>
      <trkpt lat="39.40232167" lon="-8.48680833">
        <ele>28.0</ele>
        <time>2019-05-17T12:13:31.174Z</time>
      </trkpt>
      <trkpt lat="39.40236167" lon="-8.48682">
        <ele>28.0</ele>
        <time>2019-05-17T12:13:32.184Z</time>
      </trkpt>
      <trkpt lat="39.40236167" lon="-8.48682">
        <ele>28.0</ele>
        <time>2019-05-17T12:13:33.162Z</time>
      </trkpt>
      <trkpt lat="39.40239167" lon="-8.486805">
        <ele>28.0</ele>
        <time>2019-05-17T12:13:34.166Z</time>
      </trkpt>
      <trkpt lat="39.40239167" lon="-8.486805">
        <ele>28.0</ele>
        <time>2019-05-17T12:13:35.188Z</time>
      </trkpt>
      <trkpt lat="39.40242" lon="-8.48678167">
        <ele>28.0</ele>
        <time>2019-05-17T12:13:36.162Z</time>
      </trkpt>
      <trkpt lat="39.40242" lon="-8.48678167">
        <ele>28.0</ele>
        <time>2019-05-17T12:13:37.168Z</time>
      </trkpt>
      <trkpt lat="39.402455" lon="-8.48677">
        <ele>28.0</ele>
        <time>2019-05-17T12:13:38.157Z</time>
      </trkpt>
      <trkpt lat="39.402455" lon="-8.48677">
        <ele>28.0</ele>
        <time>2019-05-17T12:13:39.180Z</time>
      </trkpt>
      <trkpt lat="39.4025" lon="-8.48675333">
        <ele>29.0</ele>
        <time>2019-05-17T12:13:40.175Z</time>
      </trkpt>
      <trkpt lat="39.4025" lon="-8.48675333">
        <ele>29.0</ele>
        <time>2019-05-17T12:13:41.153Z</time>
      </trkpt>
      <trkpt lat="39.40254833" lon="-8.48673667">
        <ele>29.0</ele>
        <time>2019-05-17T12:13:42.184Z</time>
      </trkpt>
      <trkpt lat="39.40254833" lon="-8.48673667">
        <ele>29.0</ele>
        <time>2019-05-17T12:13:43.189Z</time>
      </trkpt>
      <trkpt lat="39.40259667" lon="-8.48672667">
        <ele>29.0</ele>
        <time>2019-05-17T12:13:44.165Z</time>
      </trkpt>
      <trkpt lat="39.40259667" lon="-8.48672667">
        <ele>29.0</ele>
        <time>2019-05-17T12:13:45.170Z</time>
      </trkpt>
      <trkpt lat="39.40264667" lon="-8.486715">
        <ele>29.0</ele>
        <time>2019-05-17T12:13:46.185Z</time>
      </trkpt>
      <trkpt lat="39.40264667" lon="-8.486715">
        <ele>29.0</ele>
        <time>2019-05-17T12:13:47.152Z</time>
      </trkpt>
      <trkpt lat="39.40269167" lon="-8.48670667">
        <ele>29.0</ele>
        <time>2019-05-17T12:13:48.160Z</time>
      </trkpt>
      <trkpt lat="39.40269167" lon="-8.48670667">
        <ele>29.0</ele>
        <time>2019-05-17T12:13:49.167Z</time>
      </trkpt>
      <trkpt lat="39.402745" lon="-8.486695">
        <ele>29.0</ele>
        <time>2019-05-17T12:13:50.162Z</time>
      </trkpt>
      <trkpt lat="39.402745" lon="-8.486695">
        <ele>29.0</ele>
        <time>2019-05-17T12:13:51.177Z</time>
      </trkpt>
      <trkpt lat="39.402795" lon="-8.48669">
        <ele>31.0</ele>
        <time>2019-05-17T12:13:52.189Z</time>
      </trkpt>
      <trkpt lat="39.402795" lon="-8.48669">
        <ele>31.0</ele>
        <time>2019-05-17T12:13:53.154Z</time>
      </trkpt>
      <trkpt lat="39.40284167" lon="-8.48669">
        <ele>31.0</ele>
        <time>2019-05-17T12:13:54.162Z</time>
      </trkpt>
      <trkpt lat="39.40284167" lon="-8.48669">
        <ele>31.0</ele>
        <time>2019-05-17T12:13:55.167Z</time>
      </trkpt>
      <trkpt lat="39.40289" lon="-8.48669167">
        <ele>31.0</ele>
        <time>2019-05-17T12:13:56.162Z</time>
      </trkpt>
      <trkpt lat="39.40289" lon="-8.48669167">
        <ele>31.0</ele>
        <time>2019-05-17T12:13:57.173Z</time>
      </trkpt>
      <trkpt lat="39.40294167" lon="-8.48668">
        <ele>31.0</ele>
        <time>2019-05-17T12:13:58.172Z</time>
      </trkpt>
      <trkpt lat="39.40294167" lon="-8.48668">
        <ele>31.0</ele>
        <time>2019-05-17T12:13:59.180Z</time>
      </trkpt>
      <trkpt lat="39.40299" lon="-8.48666667">
        <ele>31.0</ele>
        <time>2019-05-17T12:14:00.151Z</time>
      </trkpt>
      <trkpt lat="39.40301333" lon="-8.48666333">
        <ele>30.0</ele>
        <time>2019-05-17T12:14:01.175Z</time>
      </trkpt>
      <trkpt lat="39.40304" lon="-8.48665333">
        <ele>29.0</ele>
        <time>2019-05-17T12:14:02.150Z</time>
      </trkpt>
      <trkpt lat="39.40304" lon="-8.48665333">
        <ele>29.0</ele>
        <time>2019-05-17T12:14:03.156Z</time>
      </trkpt>
      <trkpt lat="39.40308" lon="-8.48664">
        <ele>28.0</ele>
        <time>2019-05-17T12:14:04.161Z</time>
      </trkpt>
      <trkpt lat="39.40308" lon="-8.48664">
        <ele>28.0</ele>
        <time>2019-05-17T12:14:05.181Z</time>
      </trkpt>
      <trkpt lat="39.40312333" lon="-8.48659833">
        <ele>27.0</ele>
        <time>2019-05-17T12:14:06.188Z</time>
      </trkpt>
      <trkpt lat="39.40312333" lon="-8.48659833">
        <ele>27.0</ele>
        <time>2019-05-17T12:14:07.153Z</time>
      </trkpt>
      <trkpt lat="39.40316333" lon="-8.48655667">
        <ele>25.0</ele>
        <time>2019-05-17T12:14:08.186Z</time>
      </trkpt>
      <trkpt lat="39.40316333" lon="-8.48655667">
        <ele>25.0</ele>
        <time>2019-05-17T12:14:09.159Z</time>
      </trkpt>
      <trkpt lat="39.40320167" lon="-8.48652167">
        <ele>23.0</ele>
        <time>2019-05-17T12:14:10.188Z</time>
      </trkpt>
      <trkpt lat="39.40320167" lon="-8.48652167">
        <ele>23.0</ele>
        <time>2019-05-17T12:14:11.169Z</time>
      </trkpt>
      <trkpt lat="39.403245" lon="-8.48648833">
        <ele>25.0</ele>
        <time>2019-05-17T12:14:12.185Z</time>
      </trkpt>
      <trkpt lat="39.403245" lon="-8.48648833">
        <ele>25.0</ele>
        <time>2019-05-17T12:14:13.150Z</time>
      </trkpt>
      <trkpt lat="39.40328333" lon="-8.48645667">
        <ele>26.0</ele>
        <time>2019-05-17T12:14:14.172Z</time>
      </trkpt>
      <trkpt lat="39.40328333" lon="-8.48645667">
        <ele>26.0</ele>
        <time>2019-05-17T12:14:15.185Z</time>
      </trkpt>
      <trkpt lat="39.40332167" lon="-8.48643">
        <ele>26.0</ele>
        <time>2019-05-17T12:14:16.159Z</time>
      </trkpt>
      <trkpt lat="39.40332167" lon="-8.48643">
        <ele>26.0</ele>
        <time>2019-05-17T12:14:17.174Z</time>
      </trkpt>
      <trkpt lat="39.40336167" lon="-8.48640667">
        <ele>27.0</ele>
        <time>2019-05-17T12:14:18.184Z</time>
      </trkpt>
      <trkpt lat="39.40336167" lon="-8.48640667">
        <ele>27.0</ele>
        <time>2019-05-17T12:14:19.165Z</time>
      </trkpt>
      <trkpt lat="39.40340167" lon="-8.48637167">
        <ele>27.0</ele>
        <time>2019-05-17T12:14:20.165Z</time>
      </trkpt>
      <trkpt lat="39.40340167" lon="-8.48637167">
        <ele>27.0</ele>
        <time>2019-05-17T12:14:21.170Z</time>
      </trkpt>
      <trkpt lat="39.403445" lon="-8.48633667">
        <ele>27.0</ele>
        <time>2019-05-17T12:14:22.181Z</time>
      </trkpt>
      <trkpt lat="39.403445" lon="-8.48633667">
        <ele>27.0</ele>
        <time>2019-05-17T12:14:23.187Z</time>
      </trkpt>
      <trkpt lat="39.40347167" lon="-8.48627667">
        <ele>26.0</ele>
        <time>2019-05-17T12:14:24.165Z</time>
      </trkpt>
      <trkpt lat="39.40347167" lon="-8.48627667">
        <ele>26.0</ele>
        <time>2019-05-17T12:14:25.170Z</time>
      </trkpt>
      <trkpt lat="39.403515" lon="-8.48623">
        <ele>26.0</ele>
        <time>2019-05-17T12:14:26.186Z</time>
      </trkpt>
      <trkpt lat="39.403515" lon="-8.48623">
        <ele>26.0</ele>
        <time>2019-05-17T12:14:27.154Z</time>
      </trkpt>
      <trkpt lat="39.40355667" lon="-8.48618833">
        <ele>26.0</ele>
        <time>2019-05-17T12:14:28.174Z</time>
      </trkpt>
      <trkpt lat="39.40355667" lon="-8.48618833">
        <ele>26.0</ele>
        <time>2019-05-17T12:14:29.180Z</time>
      </trkpt>
      <trkpt lat="39.40359167" lon="-8.48617333">
        <ele>26.0</ele>
        <time>2019-05-17T12:14:30.170Z</time>
      </trkpt>
      <trkpt lat="39.40358833" lon="-8.48615167">
        <ele>26.0</ele>
        <time>2019-05-17T12:14:31.158Z</time>
      </trkpt>
      <trkpt lat="39.40358167" lon="-8.48613">
        <ele>26.0</ele>
        <time>2019-05-17T12:14:32.166Z</time>
      </trkpt>
      <trkpt lat="39.40358167" lon="-8.48613">
        <ele>26.0</ele>
        <time>2019-05-17T12:14:33.173Z</time>
      </trkpt>
      <trkpt lat="39.40355333" lon="-8.48608333">
        <ele>26.0</ele>
        <time>2019-05-17T12:14:34.165Z</time>
      </trkpt>
      <trkpt lat="39.40355333" lon="-8.48608333">
        <ele>26.0</ele>
        <time>2019-05-17T12:14:35.170Z</time>
      </trkpt>
      <trkpt lat="39.40353667" lon="-8.48605667">
        <ele>25.0</ele>
        <time>2019-05-17T12:14:36.186Z</time>
      </trkpt>
      <trkpt lat="39.40352833" lon="-8.48604667">
        <ele>24.0</ele>
        <time>2019-05-17T12:14:37.180Z</time>
      </trkpt>
      <trkpt lat="39.403515" lon="-8.48603167">
        <ele>24.0</ele>
        <time>2019-05-17T12:14:38.187Z</time>
      </trkpt>
      <trkpt lat="39.403515" lon="-8.48603167">
        <ele>24.0</ele>
        <time>2019-05-17T12:14:39.152Z</time>
      </trkpt>
      <trkpt lat="39.40347667" lon="-8.48598833">
        <ele>23.0</ele>
        <time>2019-05-17T12:14:40.190Z</time>
      </trkpt>
      <trkpt lat="39.40347667" lon="-8.48598833">
        <ele>23.0</ele>
        <time>2019-05-17T12:14:41.155Z</time>
      </trkpt>
      <trkpt lat="39.403445" lon="-8.48594667">
        <ele>22.0</ele>
        <time>2019-05-17T12:14:42.167Z</time>
      </trkpt>
      <trkpt lat="39.403445" lon="-8.48594667">
        <ele>22.0</ele>
        <time>2019-05-17T12:14:43.173Z</time>
      </trkpt>
      <trkpt lat="39.403415" lon="-8.48591">
        <ele>22.0</ele>
        <time>2019-05-17T12:14:44.157Z</time>
      </trkpt>
      <trkpt lat="39.403415" lon="-8.48591">
        <ele>22.0</ele>
        <time>2019-05-17T12:14:45.177Z</time>
      </trkpt>
      <trkpt lat="39.40338833" lon="-8.48587333">
        <ele>21.0</ele>
        <time>2019-05-17T12:14:46.186Z</time>
      </trkpt>
      <trkpt lat="39.40338833" lon="-8.48587333">
        <ele>21.0</ele>
        <time>2019-05-17T12:14:47.152Z</time>
      </trkpt>
      <trkpt lat="39.40335667" lon="-8.48583833">
        <ele>20.0</ele>
        <time>2019-05-17T12:14:48.158Z</time>
      </trkpt>
      <trkpt lat="39.40335667" lon="-8.48583833">
        <ele>20.0</ele>
        <time>2019-05-17T12:14:49.182Z</time>
      </trkpt>
      <trkpt lat="39.40331833" lon="-8.48580833">
        <ele>20.0</ele>
        <time>2019-05-17T12:14:50.185Z</time>
      </trkpt>
      <trkpt lat="39.40331833" lon="-8.48580833">
        <ele>20.0</ele>
        <time>2019-05-17T12:14:51.151Z</time>
      </trkpt>
      <trkpt lat="39.40328667" lon="-8.48576333">
        <ele>20.0</ele>
        <time>2019-05-17T12:14:52.166Z</time>
      </trkpt>
      <trkpt lat="39.40328667" lon="-8.48576333">
        <ele>20.0</ele>
        <time>2019-05-17T12:14:53.171Z</time>
      </trkpt>
      <trkpt lat="39.40325667" lon="-8.48570833">
        <ele>19.0</ele>
        <time>2019-05-17T12:14:54.176Z</time>
      </trkpt>
      <trkpt lat="39.40325667" lon="-8.48570833">
        <ele>19.0</ele>
        <time>2019-05-17T12:14:55.183Z</time>
      </trkpt>
      <trkpt lat="39.40322167" lon="-8.48566">
        <ele>19.0</ele>
        <time>2019-05-17T12:14:56.158Z</time>
      </trkpt>
      <trkpt lat="39.40322167" lon="-8.48566">
        <ele>19.0</ele>
        <time>2019-05-17T12:14:57.163Z</time>
      </trkpt>
      <trkpt lat="39.40318333" lon="-8.48561667">
        <ele>18.0</ele>
        <time>2019-05-17T12:14:58.173Z</time>
      </trkpt>
      <trkpt lat="39.40318333" lon="-8.48561667">
        <ele>18.0</ele>
        <time>2019-05-17T12:14:59.180Z</time>
      </trkpt>
      <trkpt lat="39.40314667" lon="-8.48557167">
        <ele>18.0</ele>
        <time>2019-05-17T12:15:00.189Z</time>
      </trkpt>
      <trkpt lat="39.40314667" lon="-8.48557167">
        <ele>18.0</ele>
        <time>2019-05-17T12:15:01.154Z</time>
      </trkpt>
      <trkpt lat="39.40311333" lon="-8.48552833">
        <ele>18.0</ele>
        <time>2019-05-17T12:15:02.186Z</time>
      </trkpt>
      <trkpt lat="39.40311333" lon="-8.48552833">
        <ele>18.0</ele>
        <time>2019-05-17T12:15:03.152Z</time>
      </trkpt>
      <trkpt lat="39.40307" lon="-8.485475">
        <ele>17.0</ele>
        <time>2019-05-17T12:15:04.163Z</time>
      </trkpt>
      <trkpt lat="39.40307" lon="-8.485475">
        <ele>17.0</ele>
        <time>2019-05-17T12:15:05.168Z</time>
      </trkpt>
      <trkpt lat="39.40305667" lon="-8.48542167">
        <ele>17.0</ele>
        <time>2019-05-17T12:15:06.165Z</time>
      </trkpt>
      <trkpt lat="39.40305667" lon="-8.48542167">
        <ele>17.0</ele>
        <time>2019-05-17T12:15:07.171Z</time>
      </trkpt>
      <trkpt lat="39.40303" lon="-8.48537833">
        <ele>16.0</ele>
        <time>2019-05-17T12:15:08.177Z</time>
      </trkpt>
      <trkpt lat="39.40303" lon="-8.48537833">
        <ele>16.0</ele>
        <time>2019-05-17T12:15:09.153Z</time>
      </trkpt>
      <trkpt lat="39.40299833" lon="-8.48534167">
        <ele>16.0</ele>
        <time>2019-05-17T12:15:10.150Z</time>
      </trkpt>
      <trkpt lat="39.402985" lon="-8.48532333">
        <ele>15.0</ele>
        <time>2019-05-17T12:15:11.174Z</time>
      </trkpt>
      <trkpt lat="39.402985" lon="-8.48532333">
        <ele>15.0</ele>
        <time>2019-05-17T12:15:12.185Z</time>
      </trkpt>
      <trkpt lat="39.402975" lon="-8.48529667">
        <ele>15.0</ele>
        <time>2019-05-17T12:15:13.155Z</time>
      </trkpt>
      <trkpt lat="39.40297667" lon="-8.48528">
        <ele>15.0</ele>
        <time>2019-05-17T12:15:14.189Z</time>
      </trkpt>
      <trkpt lat="39.40297667" lon="-8.48528">
        <ele>15.0</ele>
        <time>2019-05-17T12:15:15.155Z</time>
      </trkpt>
      <trkpt lat="39.40299333" lon="-8.48524">
        <ele>15.0</ele>
        <time>2019-05-17T12:15:16.161Z</time>
      </trkpt>
      <trkpt lat="39.40299333" lon="-8.48524">
        <ele>15.0</ele>
        <time>2019-05-17T12:15:17.167Z</time>
      </trkpt>
      <trkpt lat="39.40301167" lon="-8.485195">
        <ele>17.0</ele>
        <time>2019-05-17T12:15:18.163Z</time>
      </trkpt>
      <trkpt lat="39.40302" lon="-8.48517167">
        <ele>17.0</ele>
        <time>2019-05-17T12:15:19.175Z</time>
      </trkpt>
      <trkpt lat="39.40302333" lon="-8.48516167">
        <ele>17.0</ele>
        <time>2019-05-17T12:15:20.175Z</time>
      </trkpt>
      <trkpt lat="39.40302333" lon="-8.48516167">
        <ele>17.0</ele>
        <time>2019-05-17T12:15:21.180Z</time>
      </trkpt>
      <trkpt lat="39.40304" lon="-8.48512833">
        <ele>19.0</ele>
        <time>2019-05-17T12:15:22.184Z</time>
      </trkpt>
      <trkpt lat="39.40304" lon="-8.48512833">
        <ele>19.0</ele>
        <time>2019-05-17T12:15:23.151Z</time>
      </trkpt>
      <trkpt lat="39.40304167" lon="-8.48512333">
        <ele>20.0</ele>
        <time>2019-05-17T12:15:24.155Z</time>
      </trkpt>
      <trkpt lat="39.40304167" lon="-8.48512333">
        <ele>20.0</ele>
        <time>2019-05-17T12:15:25.179Z</time>
      </trkpt>
      <trkpt lat="39.40304167" lon="-8.48512333">
        <ele>20.0</ele>
        <time>2019-05-17T12:15:26.154Z</time>
      </trkpt>
      <trkpt lat="39.40304167" lon="-8.48512333">
        <ele>20.0</ele>
        <time>2019-05-17T12:15:27.160Z</time>
      </trkpt>
      <trkpt lat="39.40304167" lon="-8.48512333">
        <ele>20.0</ele>
        <time>2019-05-17T12:15:28.166Z</time>
      </trkpt>
      <trkpt lat="39.40304167" lon="-8.48512333">
        <ele>20.0</ele>
        <time>2019-05-17T12:15:29.153Z</time>
      </trkpt>
      <trkpt lat="39.40304167" lon="-8.48512333">
        <ele>20.0</ele>
        <time>2019-05-17T12:15:30.189Z</time>
      </trkpt>
      <trkpt lat="39.40304167" lon="-8.48512333">
        <ele>20.0</ele>
        <time>2019-05-17T12:15:31.156Z</time>
      </trkpt>
      <trkpt lat="39.40304167" lon="-8.48512333">
        <ele>20.0</ele>
        <time>2019-05-17T12:15:32.153Z</time>
      </trkpt>
      <trkpt lat="39.40304167" lon="-8.48512333">
        <ele>20.0</ele>
        <time>2019-05-17T12:15:33.157Z</time>
      </trkpt>
      <trkpt lat="39.40304" lon="-8.48508167">
        <ele>25.0</ele>
        <time>2019-05-17T12:15:34.153Z</time>
      </trkpt>
      <trkpt lat="39.40304" lon="-8.48508167">
        <ele>25.0</ele>
        <time>2019-05-17T12:15:35.189Z</time>
      </trkpt>
      <trkpt lat="39.403045" lon="-8.48505833">
        <ele>25.0</ele>
        <time>2019-05-17T12:15:36.153Z</time>
      </trkpt>
      <trkpt lat="39.403045" lon="-8.48505833">
        <ele>25.0</ele>
        <time>2019-05-17T12:15:37.189Z</time>
      </trkpt>
      <trkpt lat="39.40308667" lon="-8.48503833">
        <ele>24.0</ele>
        <time>2019-05-17T12:15:38.158Z</time>
      </trkpt>
      <trkpt lat="39.40308667" lon="-8.48503833">
        <ele>24.0</ele>
        <time>2019-05-17T12:15:39.189Z</time>
      </trkpt>
      <trkpt lat="39.40312" lon="-8.485015">
        <ele>23.0</ele>
        <time>2019-05-17T12:15:40.185Z</time>
      </trkpt>
      <trkpt lat="39.40312" lon="-8.485015">
        <ele>23.0</ele>
        <time>2019-05-17T12:15:41.171Z</time>
      </trkpt>
      <trkpt lat="39.403145" lon="-8.48498333">
        <ele>22.0</ele>
        <time>2019-05-17T12:15:42.185Z</time>
      </trkpt>
      <trkpt lat="39.403155" lon="-8.48496167">
        <ele>22.0</ele>
        <time>2019-05-17T12:15:43.151Z</time>
      </trkpt>
      <trkpt lat="39.403165" lon="-8.48494333">
        <ele>22.0</ele>
        <time>2019-05-17T12:15:44.185Z</time>
      </trkpt>
      <trkpt lat="39.403165" lon="-8.48494333">
        <ele>22.0</ele>
        <time>2019-05-17T12:15:45.150Z</time>
      </trkpt>
      <trkpt lat="39.40319833" lon="-8.48491833">
        <ele>22.0</ele>
        <time>2019-05-17T12:15:46.177Z</time>
      </trkpt>
      <trkpt lat="39.40319833" lon="-8.48491833">
        <ele>22.0</ele>
        <time>2019-05-17T12:15:47.183Z</time>
      </trkpt>
      <trkpt lat="39.40323" lon="-8.48488833">
        <ele>21.0</ele>
        <time>2019-05-17T12:15:48.184Z</time>
      </trkpt>
      <trkpt lat="39.40323" lon="-8.48488833">
        <ele>21.0</ele>
        <time>2019-05-17T12:15:49.153Z</time>
      </trkpt>
      <trkpt lat="39.40325667" lon="-8.48486167">
        <ele>22.0</ele>
        <time>2019-05-17T12:15:50.161Z</time>
      </trkpt>
      <trkpt lat="39.40325667" lon="-8.48486167">
        <ele>22.0</ele>
        <time>2019-05-17T12:15:51.174Z</time>
      </trkpt>
      <trkpt lat="39.40328667" lon="-8.484845">
        <ele>21.0</ele>
        <time>2019-05-17T12:15:52.163Z</time>
      </trkpt>
      <trkpt lat="39.40328667" lon="-8.484845">
        <ele>21.0</ele>
        <time>2019-05-17T12:15:53.168Z</time>
      </trkpt>
      <trkpt lat="39.40330667" lon="-8.48482333">
        <ele>20.0</ele>
        <time>2019-05-17T12:15:54.162Z</time>
      </trkpt>
      <trkpt lat="39.40331333" lon="-8.48480833">
        <ele>20.0</ele>
        <time>2019-05-17T12:15:55.180Z</time>
      </trkpt>
      <trkpt lat="39.40331833" lon="-8.48479167">
        <ele>20.0</ele>
        <time>2019-05-17T12:15:56.155Z</time>
      </trkpt>
      <trkpt lat="39.40332833" lon="-8.48477667">
        <ele>19.0</ele>
        <time>2019-05-17T12:15:57.178Z</time>
      </trkpt>
      <trkpt lat="39.40332833" lon="-8.48477667">
        <ele>19.0</ele>
        <time>2019-05-17T12:15:58.183Z</time>
      </trkpt>
      <trkpt lat="39.40335333" lon="-8.48474333">
        <ele>19.0</ele>
        <time>2019-05-17T12:15:59.189Z</time>
      </trkpt>
      <trkpt lat="39.40335333" lon="-8.48474333">
        <ele>19.0</ele>
        <time>2019-05-17T12:16:00.154Z</time>
      </trkpt>
      <trkpt lat="39.40338" lon="-8.48470167">
        <ele>18.0</ele>
        <time>2019-05-17T12:16:01.152Z</time>
      </trkpt>
      <trkpt lat="39.403395" lon="-8.48467833">
        <ele>18.0</ele>
        <time>2019-05-17T12:16:02.182Z</time>
      </trkpt>
      <trkpt lat="39.403395" lon="-8.48467833">
        <ele>18.0</ele>
        <time>2019-05-17T12:16:03.187Z</time>
      </trkpt>
      <trkpt lat="39.40343167" lon="-8.48462833">
        <ele>18.0</ele>
        <time>2019-05-17T12:16:04.156Z</time>
      </trkpt>
      <trkpt lat="39.40343167" lon="-8.48462833">
        <ele>18.0</ele>
        <time>2019-05-17T12:16:05.155Z</time>
      </trkpt>
      <trkpt lat="39.40347333" lon="-8.48457833">
        <ele>17.0</ele>
        <time>2019-05-17T12:16:06.155Z</time>
      </trkpt>
      <trkpt lat="39.40347333" lon="-8.48457833">
        <ele>17.0</ele>
        <time>2019-05-17T12:16:07.164Z</time>
      </trkpt>
      <trkpt lat="39.403505" lon="-8.48451667">
        <ele>17.0</ele>
        <time>2019-05-17T12:16:08.156Z</time>
      </trkpt>
      <trkpt lat="39.403505" lon="-8.48451667">
        <ele>17.0</ele>
        <time>2019-05-17T12:16:09.170Z</time>
      </trkpt>
      <trkpt lat="39.40354833" lon="-8.48446833">
        <ele>16.0</ele>
        <time>2019-05-17T12:16:10.176Z</time>
      </trkpt>
      <trkpt lat="39.40356667" lon="-8.484445">
        <ele>16.0</ele>
        <time>2019-05-17T12:16:11.180Z</time>
      </trkpt>
      <trkpt lat="39.40356667" lon="-8.484445">
        <ele>16.0</ele>
        <time>2019-05-17T12:16:12.185Z</time>
      </trkpt>
      <trkpt lat="39.4036" lon="-8.484395">
        <ele>16.0</ele>
        <time>2019-05-17T12:16:13.173Z</time>
      </trkpt>
      <trkpt lat="39.40362" lon="-8.48436833">
        <ele>16.0</ele>
        <time>2019-05-17T12:16:14.165Z</time>
      </trkpt>
      <trkpt lat="39.40362" lon="-8.48436833">
        <ele>16.0</ele>
        <time>2019-05-17T12:16:15.170Z</time>
      </trkpt>
      <trkpt lat="39.40365833" lon="-8.48431167">
        <ele>16.0</ele>
        <time>2019-05-17T12:16:16.169Z</time>
      </trkpt>
      <trkpt lat="39.40365833" lon="-8.48431167">
        <ele>16.0</ele>
        <time>2019-05-17T12:16:17.177Z</time>
      </trkpt>
      <trkpt lat="39.40369833" lon="-8.48425667">
        <ele>16.0</ele>
        <time>2019-05-17T12:16:18.171Z</time>
      </trkpt>
      <trkpt lat="39.40371833" lon="-8.48423167">
        <ele>16.0</ele>
        <time>2019-05-17T12:16:19.171Z</time>
      </trkpt>
      <trkpt lat="39.40371833" lon="-8.48423167">
        <ele>16.0</ele>
        <time>2019-05-17T12:16:20.150Z</time>
      </trkpt>
      <trkpt lat="39.40376167" lon="-8.48418333">
        <ele>16.0</ele>
        <time>2019-05-17T12:16:21.181Z</time>
      </trkpt>
      <trkpt lat="39.403785" lon="-8.48416333">
        <ele>16.0</ele>
        <time>2019-05-17T12:16:22.181Z</time>
      </trkpt>
      <trkpt lat="39.403785" lon="-8.48416333">
        <ele>16.0</ele>
        <time>2019-05-17T12:16:23.186Z</time>
      </trkpt>
      <trkpt lat="39.40382333" lon="-8.48412333">
        <ele>16.0</ele>
        <time>2019-05-17T12:16:24.181Z</time>
      </trkpt>
      <trkpt lat="39.40382333" lon="-8.48412333">
        <ele>16.0</ele>
        <time>2019-05-17T12:16:25.154Z</time>
      </trkpt>
      <trkpt lat="39.40385833" lon="-8.484085">
        <ele>16.0</ele>
        <time>2019-05-17T12:16:26.156Z</time>
      </trkpt>
      <trkpt lat="39.40387" lon="-8.48406">
        <ele>16.0</ele>
        <time>2019-05-17T12:16:27.187Z</time>
      </trkpt>
      <trkpt lat="39.40387" lon="-8.48406">
        <ele>16.0</ele>
        <time>2019-05-17T12:16:28.152Z</time>
      </trkpt>
      <trkpt lat="39.40389667" lon="-8.484005">
        <ele>16.0</ele>
        <time>2019-05-17T12:16:29.186Z</time>
      </trkpt>
      <trkpt lat="39.40389667" lon="-8.484005">
        <ele>16.0</ele>
        <time>2019-05-17T12:16:30.151Z</time>
      </trkpt>
      <trkpt lat="39.40392667" lon="-8.48396333">
        <ele>16.0</ele>
        <time>2019-05-17T12:16:31.154Z</time>
      </trkpt>
      <trkpt lat="39.40393667" lon="-8.48394667">
        <ele>16.0</ele>
        <time>2019-05-17T12:16:32.161Z</time>
      </trkpt>
      <trkpt lat="39.40393667" lon="-8.48394667">
        <ele>16.0</ele>
        <time>2019-05-17T12:16:33.167Z</time>
      </trkpt>
      <trkpt lat="39.40396167" lon="-8.48391167">
        <ele>16.0</ele>
        <time>2019-05-17T12:16:34.161Z</time>
      </trkpt>
      <trkpt lat="39.40396167" lon="-8.48391167">
        <ele>16.0</ele>
        <time>2019-05-17T12:16:35.180Z</time>
      </trkpt>
      <trkpt lat="39.40398333" lon="-8.48388833">
        <ele>16.0</ele>
        <time>2019-05-17T12:16:36.182Z</time>
      </trkpt>
      <trkpt lat="39.40398333" lon="-8.48388833">
        <ele>16.0</ele>
        <time>2019-05-17T12:16:37.156Z</time>
      </trkpt>
      <trkpt lat="39.40401667" lon="-8.48386833">
        <ele>16.0</ele>
        <time>2019-05-17T12:16:38.155Z</time>
      </trkpt>
      <trkpt lat="39.40401667" lon="-8.48386833">
        <ele>16.0</ele>
        <time>2019-05-17T12:16:39.161Z</time>
      </trkpt>
      <trkpt lat="39.404045" lon="-8.48381667">
        <ele>16.0</ele>
        <time>2019-05-17T12:16:40.165Z</time>
      </trkpt>
      <trkpt lat="39.404045" lon="-8.48381667">
        <ele>16.0</ele>
        <time>2019-05-17T12:16:41.153Z</time>
      </trkpt>
      <trkpt lat="39.40407833" lon="-8.483765">
        <ele>16.0</ele>
        <time>2019-05-17T12:16:42.188Z</time>
      </trkpt>
      <trkpt lat="39.40407833" lon="-8.483765">
        <ele>16.0</ele>
        <time>2019-05-17T12:16:43.153Z</time>
      </trkpt>
      <trkpt lat="39.40411333" lon="-8.48372">
        <ele>16.0</ele>
        <time>2019-05-17T12:16:44.158Z</time>
      </trkpt>
      <trkpt lat="39.40411333" lon="-8.48372">
        <ele>16.0</ele>
        <time>2019-05-17T12:16:45.164Z</time>
      </trkpt>
      <trkpt lat="39.40415167" lon="-8.48368333">
        <ele>16.0</ele>
        <time>2019-05-17T12:16:46.160Z</time>
      </trkpt>
      <trkpt lat="39.40415167" lon="-8.48368333">
        <ele>16.0</ele>
        <time>2019-05-17T12:16:47.183Z</time>
      </trkpt>
      <trkpt lat="39.40419" lon="-8.48364">
        <ele>16.0</ele>
        <time>2019-05-17T12:16:48.175Z</time>
      </trkpt>
      <trkpt lat="39.40419" lon="-8.48364">
        <ele>16.0</ele>
        <time>2019-05-17T12:16:49.182Z</time>
      </trkpt>
      <trkpt lat="39.40422667" lon="-8.48359833">
        <ele>16.0</ele>
        <time>2019-05-17T12:16:50.166Z</time>
      </trkpt>
      <trkpt lat="39.40422667" lon="-8.48359833">
        <ele>16.0</ele>
        <time>2019-05-17T12:16:51.177Z</time>
      </trkpt>
      <trkpt lat="39.40426167" lon="-8.48356">
        <ele>15.0</ele>
        <time>2019-05-17T12:16:52.169Z</time>
      </trkpt>
      <trkpt lat="39.40426167" lon="-8.48356">
        <ele>15.0</ele>
        <time>2019-05-17T12:16:53.175Z</time>
      </trkpt>
      <trkpt lat="39.40429" lon="-8.48351833">
        <ele>15.0</ele>
        <time>2019-05-17T12:16:54.174Z</time>
      </trkpt>
      <trkpt lat="39.40429" lon="-8.48351833">
        <ele>15.0</ele>
        <time>2019-05-17T12:16:55.182Z</time>
      </trkpt>
      <trkpt lat="39.404325" lon="-8.483475">
        <ele>15.0</ele>
        <time>2019-05-17T12:16:56.169Z</time>
      </trkpt>
      <trkpt lat="39.404325" lon="-8.483475">
        <ele>15.0</ele>
        <time>2019-05-17T12:16:57.174Z</time>
      </trkpt>
      <trkpt lat="39.404365" lon="-8.48343">
        <ele>15.0</ele>
        <time>2019-05-17T12:16:58.170Z</time>
      </trkpt>
      <trkpt lat="39.404365" lon="-8.48343">
        <ele>15.0</ele>
        <time>2019-05-17T12:16:59.176Z</time>
      </trkpt>
      <trkpt lat="39.404405" lon="-8.483385">
        <ele>14.0</ele>
        <time>2019-05-17T12:17:00.179Z</time>
      </trkpt>
      <trkpt lat="39.404405" lon="-8.483385">
        <ele>14.0</ele>
        <time>2019-05-17T12:17:01.150Z</time>
      </trkpt>
      <trkpt lat="39.40446833" lon="-8.48331833">
        <ele>17.0</ele>
        <time>2019-05-17T12:17:02.184Z</time>
      </trkpt>
      <trkpt lat="39.40446833" lon="-8.48331833">
        <ele>17.0</ele>
        <time>2019-05-17T12:17:03.189Z</time>
      </trkpt>
      <trkpt lat="39.40451" lon="-8.483275">
        <ele>18.0</ele>
        <time>2019-05-17T12:17:04.174Z</time>
      </trkpt>
      <trkpt lat="39.40451" lon="-8.483275">
        <ele>18.0</ele>
        <time>2019-05-17T12:17:05.155Z</time>
      </trkpt>
      <trkpt lat="39.40454833" lon="-8.48323">
        <ele>18.0</ele>
        <time>2019-05-17T12:17:06.154Z</time>
      </trkpt>
      <trkpt lat="39.40454833" lon="-8.48323">
        <ele>18.0</ele>
        <time>2019-05-17T12:17:07.170Z</time>
      </trkpt>
      <trkpt lat="39.40458" lon="-8.48318833">
        <ele>19.0</ele>
        <time>2019-05-17T12:17:08.151Z</time>
      </trkpt>
      <trkpt lat="39.40458" lon="-8.48318833">
        <ele>19.0</ele>
        <time>2019-05-17T12:17:09.163Z</time>
      </trkpt>
      <trkpt lat="39.40461333" lon="-8.48317333">
        <ele>19.0</ele>
        <time>2019-05-17T12:17:10.176Z</time>
      </trkpt>
      <trkpt lat="39.40461333" lon="-8.48317333">
        <ele>19.0</ele>
        <time>2019-05-17T12:17:11.155Z</time>
      </trkpt>
      <trkpt lat="39.40465167" lon="-8.48314167">
        <ele>19.0</ele>
        <time>2019-05-17T12:17:12.183Z</time>
      </trkpt>
      <trkpt lat="39.40465167" lon="-8.48314167">
        <ele>19.0</ele>
        <time>2019-05-17T12:17:13.189Z</time>
      </trkpt>
      <trkpt lat="39.404695" lon="-8.48310833">
        <ele>20.0</ele>
        <time>2019-05-17T12:17:14.156Z</time>
      </trkpt>
      <trkpt lat="39.404695" lon="-8.48310833">
        <ele>20.0</ele>
        <time>2019-05-17T12:17:15.177Z</time>
      </trkpt>
      <trkpt lat="39.40474333" lon="-8.483075">
        <ele>21.0</ele>
        <time>2019-05-17T12:17:16.172Z</time>
      </trkpt>
      <trkpt lat="39.40474333" lon="-8.483075">
        <ele>21.0</ele>
        <time>2019-05-17T12:17:17.181Z</time>
      </trkpt>
      <trkpt lat="39.40478833" lon="-8.48304">
        <ele>21.0</ele>
        <time>2019-05-17T12:17:18.180Z</time>
      </trkpt>
      <trkpt lat="39.40478833" lon="-8.48304">
        <ele>21.0</ele>
        <time>2019-05-17T12:17:19.185Z</time>
      </trkpt>
      <trkpt lat="39.40483333" lon="-8.48300833">
        <ele>21.0</ele>
        <time>2019-05-17T12:17:20.170Z</time>
      </trkpt>
      <trkpt lat="39.40483333" lon="-8.48300833">
        <ele>21.0</ele>
        <time>2019-05-17T12:17:21.183Z</time>
      </trkpt>
      <trkpt lat="39.40488333" lon="-8.48296">
        <ele>22.0</ele>
        <time>2019-05-17T12:17:22.185Z</time>
      </trkpt>
      <trkpt lat="39.40488333" lon="-8.48296">
        <ele>22.0</ele>
        <time>2019-05-17T12:17:23.150Z</time>
      </trkpt>
      <trkpt lat="39.40492833" lon="-8.48291833">
        <ele>23.0</ele>
        <time>2019-05-17T12:17:24.156Z</time>
      </trkpt>
      <trkpt lat="39.40492833" lon="-8.48291833">
        <ele>23.0</ele>
        <time>2019-05-17T12:17:25.161Z</time>
      </trkpt>
      <trkpt lat="39.404975" lon="-8.48287833">
        <ele>23.0</ele>
        <time>2019-05-17T12:17:26.173Z</time>
      </trkpt>
      <trkpt lat="39.404975" lon="-8.48287833">
        <ele>23.0</ele>
        <time>2019-05-17T12:17:27.181Z</time>
      </trkpt>
      <trkpt lat="39.40502167" lon="-8.482845">
        <ele>23.0</ele>
        <time>2019-05-17T12:17:28.171Z</time>
      </trkpt>
      <trkpt lat="39.40502167" lon="-8.482845">
        <ele>23.0</ele>
        <time>2019-05-17T12:17:29.179Z</time>
      </trkpt>
      <trkpt lat="39.40507167" lon="-8.48280833">
        <ele>22.0</ele>
        <time>2019-05-17T12:17:30.181Z</time>
      </trkpt>
      <trkpt lat="39.40507167" lon="-8.48280833">
        <ele>22.0</ele>
        <time>2019-05-17T12:17:31.152Z</time>
      </trkpt>
      <trkpt lat="39.405115" lon="-8.48277">
        <ele>22.0</ele>
        <time>2019-05-17T12:17:32.161Z</time>
      </trkpt>
      <trkpt lat="39.405115" lon="-8.48277">
        <ele>22.0</ele>
        <time>2019-05-17T12:17:33.166Z</time>
      </trkpt>
      <trkpt lat="39.40515833" lon="-8.48273667">
        <ele>22.0</ele>
        <time>2019-05-17T12:17:34.163Z</time>
      </trkpt>
      <trkpt lat="39.40515833" lon="-8.48273667">
        <ele>22.0</ele>
        <time>2019-05-17T12:17:35.159Z</time>
      </trkpt>
      <trkpt lat="39.40521167" lon="-8.48270333">
        <ele>23.0</ele>
        <time>2019-05-17T12:17:36.171Z</time>
      </trkpt>
      <trkpt lat="39.40521167" lon="-8.48270333">
        <ele>23.0</ele>
        <time>2019-05-17T12:17:37.185Z</time>
      </trkpt>
      <trkpt lat="39.40526333" lon="-8.48268167">
        <ele>23.0</ele>
        <time>2019-05-17T12:17:38.170Z</time>
      </trkpt>
      <trkpt lat="39.40526333" lon="-8.48268167">
        <ele>23.0</ele>
        <time>2019-05-17T12:17:39.153Z</time>
      </trkpt>
      <trkpt lat="39.40531" lon="-8.48266167">
        <ele>23.0</ele>
        <time>2019-05-17T12:17:40.155Z</time>
      </trkpt>
      <trkpt lat="39.40531" lon="-8.48266167">
        <ele>23.0</ele>
        <time>2019-05-17T12:17:41.160Z</time>
      </trkpt>
      <trkpt lat="39.40536167" lon="-8.48264833">
        <ele>22.0</ele>
        <time>2019-05-17T12:17:42.156Z</time>
      </trkpt>
      <trkpt lat="39.40538833" lon="-8.48264667">
        <ele>22.0</ele>
        <time>2019-05-17T12:17:43.184Z</time>
      </trkpt>
      <trkpt lat="39.40538833" lon="-8.48264667">
        <ele>22.0</ele>
        <time>2019-05-17T12:17:44.189Z</time>
      </trkpt>
      <trkpt lat="39.40544333" lon="-8.48263667">
        <ele>22.0</ele>
        <time>2019-05-17T12:17:45.183Z</time>
      </trkpt>
      <trkpt lat="39.40544333" lon="-8.48263667">
        <ele>22.0</ele>
        <time>2019-05-17T12:17:46.165Z</time>
      </trkpt>
      <trkpt lat="39.40549667" lon="-8.48262">
        <ele>22.0</ele>
        <time>2019-05-17T12:17:47.155Z</time>
      </trkpt>
      <trkpt lat="39.40549667" lon="-8.48262">
        <ele>22.0</ele>
        <time>2019-05-17T12:17:48.160Z</time>
      </trkpt>
      <trkpt lat="39.40553667" lon="-8.48259167">
        <ele>22.0</ele>
        <time>2019-05-17T12:17:49.153Z</time>
      </trkpt>
      <trkpt lat="39.405555" lon="-8.48257833">
        <ele>22.0</ele>
        <time>2019-05-17T12:17:50.151Z</time>
      </trkpt>
      <trkpt lat="39.405555" lon="-8.48257833">
        <ele>22.0</ele>
        <time>2019-05-17T12:17:51.157Z</time>
      </trkpt>
      <trkpt lat="39.40558833" lon="-8.482555">
        <ele>22.0</ele>
        <time>2019-05-17T12:17:52.150Z</time>
      </trkpt>
      <trkpt lat="39.40558833" lon="-8.482555">
        <ele>22.0</ele>
        <time>2019-05-17T12:17:53.182Z</time>
      </trkpt>
      <trkpt lat="39.40562" lon="-8.48253">
        <ele>21.0</ele>
        <time>2019-05-17T12:17:54.165Z</time>
      </trkpt>
      <trkpt lat="39.40562" lon="-8.48253">
        <ele>21.0</ele>
        <time>2019-05-17T12:17:55.183Z</time>
      </trkpt>
      <trkpt lat="39.40564833" lon="-8.48250667">
        <ele>20.0</ele>
        <time>2019-05-17T12:17:56.178Z</time>
      </trkpt>
      <trkpt lat="39.40564833" lon="-8.48250667">
        <ele>20.0</ele>
        <time>2019-05-17T12:17:57.183Z</time>
      </trkpt>
      <trkpt lat="39.405685" lon="-8.482475">
        <ele>20.0</ele>
        <time>2019-05-17T12:17:58.161Z</time>
      </trkpt>
      <trkpt lat="39.405685" lon="-8.482475">
        <ele>20.0</ele>
        <time>2019-05-17T12:17:59.180Z</time>
      </trkpt>
      <trkpt lat="39.405725" lon="-8.48244167">
        <ele>20.0</ele>
        <time>2019-05-17T12:18:00.182Z</time>
      </trkpt>
      <trkpt lat="39.405725" lon="-8.48244167">
        <ele>20.0</ele>
        <time>2019-05-17T12:18:01.157Z</time>
      </trkpt>
      <trkpt lat="39.40576833" lon="-8.48240333">
        <ele>20.0</ele>
        <time>2019-05-17T12:18:02.168Z</time>
      </trkpt>
      <trkpt lat="39.40576833" lon="-8.48240333">
        <ele>20.0</ele>
        <time>2019-05-17T12:18:03.173Z</time>
      </trkpt>
      <trkpt lat="39.40581167" lon="-8.48236">
        <ele>19.0</ele>
        <time>2019-05-17T12:18:04.160Z</time>
      </trkpt>
      <trkpt lat="39.40581167" lon="-8.48236">
        <ele>19.0</ele>
        <time>2019-05-17T12:18:05.165Z</time>
      </trkpt>
      <trkpt lat="39.40585833" lon="-8.48232">
        <ele>19.0</ele>
        <time>2019-05-17T12:18:06.170Z</time>
      </trkpt>
      <trkpt lat="39.40585833" lon="-8.48232">
        <ele>19.0</ele>
        <time>2019-05-17T12:18:07.184Z</time>
      </trkpt>
      <trkpt lat="39.405905" lon="-8.482285">
        <ele>19.0</ele>
        <time>2019-05-17T12:18:08.179Z</time>
      </trkpt>
      <trkpt lat="39.405905" lon="-8.482285">
        <ele>19.0</ele>
        <time>2019-05-17T12:18:09.158Z</time>
      </trkpt>
      <trkpt lat="39.40595333" lon="-8.48224833">
        <ele>19.0</ele>
        <time>2019-05-17T12:18:10.172Z</time>
      </trkpt>
      <trkpt lat="39.40595333" lon="-8.48224833">
        <ele>19.0</ele>
        <time>2019-05-17T12:18:11.157Z</time>
      </trkpt>
      <trkpt lat="39.40599833" lon="-8.48221667">
        <ele>18.0</ele>
        <time>2019-05-17T12:18:12.185Z</time>
      </trkpt>
      <trkpt lat="39.40599833" lon="-8.48221667">
        <ele>18.0</ele>
        <time>2019-05-17T12:18:13.151Z</time>
      </trkpt>
      <trkpt lat="39.40605333" lon="-8.48217167">
        <ele>18.0</ele>
        <time>2019-05-17T12:18:14.162Z</time>
      </trkpt>
      <trkpt lat="39.40605333" lon="-8.48217167">
        <ele>18.0</ele>
        <time>2019-05-17T12:18:15.187Z</time>
      </trkpt>
      <trkpt lat="39.40610667" lon="-8.48211833">
        <ele>18.0</ele>
        <time>2019-05-17T12:18:16.183Z</time>
      </trkpt>
      <trkpt lat="39.40610667" lon="-8.48211833">
        <ele>18.0</ele>
        <time>2019-05-17T12:18:17.188Z</time>
      </trkpt>
      <trkpt lat="39.40615667" lon="-8.48206833">
        <ele>17.0</ele>
        <time>2019-05-17T12:18:18.166Z</time>
      </trkpt>
      <trkpt lat="39.40615667" lon="-8.48206833">
        <ele>17.0</ele>
        <time>2019-05-17T12:18:19.167Z</time>
      </trkpt>
      <trkpt lat="39.40621333" lon="-8.48201833">
        <ele>17.0</ele>
        <time>2019-05-17T12:18:20.164Z</time>
      </trkpt>
      <trkpt lat="39.40621333" lon="-8.48201833">
        <ele>17.0</ele>
        <time>2019-05-17T12:18:21.183Z</time>
      </trkpt>
      <trkpt lat="39.40627833" lon="-8.48199333">
        <ele>20.0</ele>
        <time>2019-05-17T12:18:22.172Z</time>
      </trkpt>
      <trkpt lat="39.40627833" lon="-8.48199333">
        <ele>20.0</ele>
        <time>2019-05-17T12:18:23.150Z</time>
      </trkpt>
      <trkpt lat="39.40633667" lon="-8.481965">
        <ele>20.0</ele>
        <time>2019-05-17T12:18:24.165Z</time>
      </trkpt>
      <trkpt lat="39.40633667" lon="-8.481965">
        <ele>20.0</ele>
        <time>2019-05-17T12:18:25.184Z</time>
      </trkpt>
      <trkpt lat="39.40639167" lon="-8.481935">
        <ele>19.0</ele>
        <time>2019-05-17T12:18:26.168Z</time>
      </trkpt>
      <trkpt lat="39.40639167" lon="-8.481935">
        <ele>19.0</ele>
        <time>2019-05-17T12:18:27.179Z</time>
      </trkpt>
      <trkpt lat="39.40644667" lon="-8.48188667">
        <ele>19.0</ele>
        <time>2019-05-17T12:18:28.166Z</time>
      </trkpt>
      <trkpt lat="39.40644667" lon="-8.48188667">
        <ele>19.0</ele>
        <time>2019-05-17T12:18:29.156Z</time>
      </trkpt>
      <trkpt lat="39.406495" lon="-8.48185">
        <ele>19.0</ele>
        <time>2019-05-17T12:18:30.159Z</time>
      </trkpt>
      <trkpt lat="39.406495" lon="-8.48185">
        <ele>19.0</ele>
        <time>2019-05-17T12:18:31.164Z</time>
      </trkpt>
      <trkpt lat="39.40654167" lon="-8.48181">
        <ele>19.0</ele>
        <time>2019-05-17T12:18:32.166Z</time>
      </trkpt>
      <trkpt lat="39.40654167" lon="-8.48181">
        <ele>19.0</ele>
        <time>2019-05-17T12:18:33.159Z</time>
      </trkpt>
      <trkpt lat="39.406595" lon="-8.48177">
        <ele>19.0</ele>
        <time>2019-05-17T12:18:34.185Z</time>
      </trkpt>
      <trkpt lat="39.406595" lon="-8.48177">
        <ele>19.0</ele>
        <time>2019-05-17T12:18:35.150Z</time>
      </trkpt>
      <trkpt lat="39.40665" lon="-8.48173167">
        <ele>19.0</ele>
        <time>2019-05-17T12:18:36.157Z</time>
      </trkpt>
      <trkpt lat="39.40665" lon="-8.48173167">
        <ele>19.0</ele>
        <time>2019-05-17T12:18:37.170Z</time>
      </trkpt>
      <trkpt lat="39.406705" lon="-8.48169">
        <ele>19.0</ele>
        <time>2019-05-17T12:18:38.162Z</time>
      </trkpt>
      <trkpt lat="39.406705" lon="-8.48169">
        <ele>19.0</ele>
        <time>2019-05-17T12:18:39.167Z</time>
      </trkpt>
      <trkpt lat="39.40675833" lon="-8.481645">
        <ele>18.0</ele>
        <time>2019-05-17T12:18:40.150Z</time>
      </trkpt>
      <trkpt lat="39.40675833" lon="-8.481645">
        <ele>18.0</ele>
        <time>2019-05-17T12:18:41.173Z</time>
      </trkpt>
      <trkpt lat="39.40681833" lon="-8.48160333">
        <ele>18.0</ele>
        <time>2019-05-17T12:18:42.175Z</time>
      </trkpt>
      <trkpt lat="39.40681833" lon="-8.48160333">
        <ele>18.0</ele>
        <time>2019-05-17T12:18:43.180Z</time>
      </trkpt>
      <trkpt lat="39.40687833" lon="-8.481565">
        <ele>18.0</ele>
        <time>2019-05-17T12:18:44.185Z</time>
      </trkpt>
      <trkpt lat="39.40687833" lon="-8.481565">
        <ele>18.0</ele>
        <time>2019-05-17T12:18:45.150Z</time>
      </trkpt>
      <trkpt lat="39.40692" lon="-8.48153167">
        <ele>18.0</ele>
        <time>2019-05-17T12:18:46.185Z</time>
      </trkpt>
      <trkpt lat="39.40692" lon="-8.48153167">
        <ele>18.0</ele>
        <time>2019-05-17T12:18:47.150Z</time>
      </trkpt>
      <trkpt lat="39.40696667" lon="-8.48150167">
        <ele>18.0</ele>
        <time>2019-05-17T12:18:48.185Z</time>
      </trkpt>
      <trkpt lat="39.40696667" lon="-8.48150167">
        <ele>18.0</ele>
        <time>2019-05-17T12:18:49.157Z</time>
      </trkpt>
      <trkpt lat="39.40701667" lon="-8.48145833">
        <ele>18.0</ele>
        <time>2019-05-17T12:18:50.186Z</time>
      </trkpt>
      <trkpt lat="39.40701667" lon="-8.48145833">
        <ele>18.0</ele>
        <time>2019-05-17T12:18:51.159Z</time>
      </trkpt>
      <trkpt lat="39.407075" lon="-8.48142167">
        <ele>19.0</ele>
        <time>2019-05-17T12:18:52.166Z</time>
      </trkpt>
      <trkpt lat="39.407075" lon="-8.48142167">
        <ele>19.0</ele>
        <time>2019-05-17T12:18:53.184Z</time>
      </trkpt>
      <trkpt lat="39.40713" lon="-8.48137667">
        <ele>19.0</ele>
        <time>2019-05-17T12:18:54.180Z</time>
      </trkpt>
      <trkpt lat="39.40715833" lon="-8.481355">
        <ele>19.0</ele>
        <time>2019-05-17T12:18:55.180Z</time>
      </trkpt>
      <trkpt lat="39.40718333" lon="-8.481335">
        <ele>19.0</ele>
        <time>2019-05-17T12:18:56.160Z</time>
      </trkpt>
      <trkpt lat="39.40718333" lon="-8.481335">
        <ele>19.0</ele>
        <time>2019-05-17T12:18:57.164Z</time>
      </trkpt>
      <trkpt lat="39.40723833" lon="-8.48129">
        <ele>18.0</ele>
        <time>2019-05-17T12:18:58.185Z</time>
      </trkpt>
      <trkpt lat="39.40723833" lon="-8.48129">
        <ele>18.0</ele>
        <time>2019-05-17T12:18:59.189Z</time>
      </trkpt>
      <trkpt lat="39.40730333" lon="-8.48124667">
        <ele>18.0</ele>
        <time>2019-05-17T12:19:00.177Z</time>
      </trkpt>
      <trkpt lat="39.40730333" lon="-8.48124667">
        <ele>18.0</ele>
        <time>2019-05-17T12:19:01.181Z</time>
      </trkpt>
      <trkpt lat="39.407365" lon="-8.48119667">
        <ele>18.0</ele>
        <time>2019-05-17T12:19:02.185Z</time>
      </trkpt>
      <trkpt lat="39.407365" lon="-8.48119667">
        <ele>18.0</ele>
        <time>2019-05-17T12:19:03.159Z</time>
      </trkpt>
      <trkpt lat="39.40742" lon="-8.481145">
        <ele>18.0</ele>
        <time>2019-05-17T12:19:04.154Z</time>
      </trkpt>
      <trkpt lat="39.40742" lon="-8.481145">
        <ele>18.0</ele>
        <time>2019-05-17T12:19:05.160Z</time>
      </trkpt>
      <trkpt lat="39.40748333" lon="-8.481075">
        <ele>20.0</ele>
        <time>2019-05-17T12:19:06.155Z</time>
      </trkpt>
      <trkpt lat="39.40748333" lon="-8.481075">
        <ele>20.0</ele>
        <time>2019-05-17T12:19:07.189Z</time>
      </trkpt>
      <trkpt lat="39.40754333" lon="-8.48102">
        <ele>20.0</ele>
        <time>2019-05-17T12:19:08.177Z</time>
      </trkpt>
      <trkpt lat="39.40754333" lon="-8.48102">
        <ele>20.0</ele>
        <time>2019-05-17T12:19:09.152Z</time>
      </trkpt>
      <trkpt lat="39.40759667" lon="-8.48096333">
        <ele>21.0</ele>
        <time>2019-05-17T12:19:10.170Z</time>
      </trkpt>
      <trkpt lat="39.40759667" lon="-8.48096333">
        <ele>21.0</ele>
        <time>2019-05-17T12:19:11.165Z</time>
      </trkpt>
      <trkpt lat="39.40763667" lon="-8.48090167">
        <ele>21.0</ele>
        <time>2019-05-17T12:19:12.175Z</time>
      </trkpt>
      <trkpt lat="39.40763667" lon="-8.48090167">
        <ele>21.0</ele>
        <time>2019-05-17T12:19:13.161Z</time>
      </trkpt>
      <trkpt lat="39.40769167" lon="-8.48087333">
        <ele>21.0</ele>
        <time>2019-05-17T12:19:14.153Z</time>
      </trkpt>
      <trkpt lat="39.40769167" lon="-8.48087333">
        <ele>21.0</ele>
        <time>2019-05-17T12:19:15.168Z</time>
      </trkpt>
      <trkpt lat="39.40774667" lon="-8.480835">
        <ele>21.0</ele>
        <time>2019-05-17T12:19:16.187Z</time>
      </trkpt>
      <trkpt lat="39.40774667" lon="-8.480835">
        <ele>21.0</ele>
        <time>2019-05-17T12:19:17.172Z</time>
      </trkpt>
      <trkpt lat="39.40779833" lon="-8.480805">
        <ele>20.0</ele>
        <time>2019-05-17T12:19:18.182Z</time>
      </trkpt>
      <trkpt lat="39.40779833" lon="-8.480805">
        <ele>20.0</ele>
        <time>2019-05-17T12:19:19.165Z</time>
      </trkpt>
      <trkpt lat="39.40785333" lon="-8.48075833">
        <ele>20.0</ele>
        <time>2019-05-17T12:19:20.163Z</time>
      </trkpt>
      <trkpt lat="39.40785333" lon="-8.48075833">
        <ele>20.0</ele>
        <time>2019-05-17T12:19:21.182Z</time>
      </trkpt>
      <trkpt lat="39.407905" lon="-8.48070667">
        <ele>19.0</ele>
        <time>2019-05-17T12:19:22.185Z</time>
      </trkpt>
      <trkpt lat="39.407905" lon="-8.48070667">
        <ele>19.0</ele>
        <time>2019-05-17T12:19:23.189Z</time>
      </trkpt>
      <trkpt lat="39.407955" lon="-8.48065167">
        <ele>20.0</ele>
        <time>2019-05-17T12:19:24.181Z</time>
      </trkpt>
      <trkpt lat="39.407955" lon="-8.48065167">
        <ele>20.0</ele>
        <time>2019-05-17T12:19:25.187Z</time>
      </trkpt>
      <trkpt lat="39.40800333" lon="-8.48061167">
        <ele>20.0</ele>
        <time>2019-05-17T12:19:26.155Z</time>
      </trkpt>
      <trkpt lat="39.40800333" lon="-8.48061167">
        <ele>20.0</ele>
        <time>2019-05-17T12:19:27.188Z</time>
      </trkpt>
      <trkpt lat="39.40802667" lon="-8.48060333">
        <ele>20.0</ele>
        <time>2019-05-17T12:19:28.168Z</time>
      </trkpt>
      <trkpt lat="39.40802667" lon="-8.48060333">
        <ele>20.0</ele>
        <time>2019-05-17T12:19:29.174Z</time>
      </trkpt>
      <trkpt lat="39.40803333" lon="-8.48060167">
        <ele>20.0</ele>
        <time>2019-05-17T12:19:30.181Z</time>
      </trkpt>
      <trkpt lat="39.408045" lon="-8.48060167">
        <ele>20.0</ele>
        <time>2019-05-17T12:19:31.163Z</time>
      </trkpt>
      <trkpt lat="39.40805833" lon="-8.480595">
        <ele>20.0</ele>
        <time>2019-05-17T12:19:32.170Z</time>
      </trkpt>
      <trkpt lat="39.40805833" lon="-8.480595">
        <ele>20.0</ele>
        <time>2019-05-17T12:19:33.178Z</time>
      </trkpt>
      <trkpt lat="39.40809167" lon="-8.480575">
        <ele>19.0</ele>
        <time>2019-05-17T12:19:34.185Z</time>
      </trkpt>
      <trkpt lat="39.40811167" lon="-8.48055833">
        <ele>19.0</ele>
        <time>2019-05-17T12:19:35.170Z</time>
      </trkpt>
      <trkpt lat="39.40811167" lon="-8.48055833">
        <ele>19.0</ele>
        <time>2019-05-17T12:19:36.155Z</time>
      </trkpt>
      <trkpt lat="39.408155" lon="-8.48051167">
        <ele>19.0</ele>
        <time>2019-05-17T12:19:37.165Z</time>
      </trkpt>
      <trkpt lat="39.408155" lon="-8.48051167">
        <ele>19.0</ele>
        <time>2019-05-17T12:19:38.185Z</time>
      </trkpt>
      <trkpt lat="39.408205" lon="-8.48046667">
        <ele>19.0</ele>
        <time>2019-05-17T12:19:39.184Z</time>
      </trkpt>
      <trkpt lat="39.408205" lon="-8.48046667">
        <ele>19.0</ele>
        <time>2019-05-17T12:19:40.163Z</time>
      </trkpt>
      <trkpt lat="39.40824833" lon="-8.48041333">
        <ele>18.0</ele>
        <time>2019-05-17T12:19:41.159Z</time>
      </trkpt>
      <trkpt lat="39.40824833" lon="-8.48041333">
        <ele>18.0</ele>
        <time>2019-05-17T12:19:42.167Z</time>
      </trkpt>
      <trkpt lat="39.40829667" lon="-8.480365">
        <ele>18.0</ele>
        <time>2019-05-17T12:19:43.153Z</time>
      </trkpt>
      <trkpt lat="39.40832333" lon="-8.48034167">
        <ele>17.0</ele>
        <time>2019-05-17T12:19:44.169Z</time>
      </trkpt>
      <trkpt lat="39.40832333" lon="-8.48034167">
        <ele>17.0</ele>
        <time>2019-05-17T12:19:45.171Z</time>
      </trkpt>
      <trkpt lat="39.40837333" lon="-8.48029333">
        <ele>17.0</ele>
        <time>2019-05-17T12:19:46.163Z</time>
      </trkpt>
      <trkpt lat="39.40837333" lon="-8.48029333">
        <ele>17.0</ele>
        <time>2019-05-17T12:19:47.150Z</time>
      </trkpt>
      <trkpt lat="39.40842333" lon="-8.48025">
        <ele>17.0</ele>
        <time>2019-05-17T12:19:48.177Z</time>
      </trkpt>
      <trkpt lat="39.40842333" lon="-8.48025">
        <ele>17.0</ele>
        <time>2019-05-17T12:19:49.187Z</time>
      </trkpt>
      <trkpt lat="39.40847167" lon="-8.48019667">
        <ele>16.0</ele>
        <time>2019-05-17T12:19:50.179Z</time>
      </trkpt>
      <trkpt lat="39.40847167" lon="-8.48019667">
        <ele>16.0</ele>
        <time>2019-05-17T12:19:51.185Z</time>
      </trkpt>
      <trkpt lat="39.40852167" lon="-8.480145">
        <ele>16.0</ele>
        <time>2019-05-17T12:19:52.186Z</time>
      </trkpt>
      <trkpt lat="39.40852167" lon="-8.480145">
        <ele>16.0</ele>
        <time>2019-05-17T12:19:53.151Z</time>
      </trkpt>
      <trkpt lat="39.40857333" lon="-8.48009333">
        <ele>16.0</ele>
        <time>2019-05-17T12:19:54.154Z</time>
      </trkpt>
      <trkpt lat="39.40857333" lon="-8.48009333">
        <ele>16.0</ele>
        <time>2019-05-17T12:19:55.165Z</time>
      </trkpt>
      <trkpt lat="39.40862667" lon="-8.48004">
        <ele>16.0</ele>
        <time>2019-05-17T12:19:56.189Z</time>
      </trkpt>
      <trkpt lat="39.40862667" lon="-8.48004">
        <ele>16.0</ele>
        <time>2019-05-17T12:19:57.154Z</time>
      </trkpt>
      <trkpt lat="39.40868" lon="-8.47998833">
        <ele>15.0</ele>
        <time>2019-05-17T12:19:58.152Z</time>
      </trkpt>
      <trkpt lat="39.40868" lon="-8.47998833">
        <ele>15.0</ele>
        <time>2019-05-17T12:19:59.160Z</time>
      </trkpt>
      <trkpt lat="39.40873167" lon="-8.47993833">
        <ele>15.0</ele>
        <time>2019-05-17T12:20:00.189Z</time>
      </trkpt>
      <trkpt lat="39.40873167" lon="-8.47993833">
        <ele>15.0</ele>
        <time>2019-05-17T12:20:01.169Z</time>
      </trkpt>
      <trkpt lat="39.408785" lon="-8.47988333">
        <ele>15.0</ele>
        <time>2019-05-17T12:20:02.173Z</time>
      </trkpt>
      <trkpt lat="39.408785" lon="-8.47988333">
        <ele>15.0</ele>
        <time>2019-05-17T12:20:03.150Z</time>
      </trkpt>
      <trkpt lat="39.40883333" lon="-8.47982167">
        <ele>14.0</ele>
        <time>2019-05-17T12:20:04.182Z</time>
      </trkpt>
      <trkpt lat="39.40883333" lon="-8.47982167">
        <ele>14.0</ele>
        <time>2019-05-17T12:20:05.158Z</time>
      </trkpt>
      <trkpt lat="39.40888833" lon="-8.479765">
        <ele>14.0</ele>
        <time>2019-05-17T12:20:06.176Z</time>
      </trkpt>
      <trkpt lat="39.40888833" lon="-8.479765">
        <ele>14.0</ele>
        <time>2019-05-17T12:20:07.153Z</time>
      </trkpt>
      <trkpt lat="39.40894" lon="-8.47970833">
        <ele>13.0</ele>
        <time>2019-05-17T12:20:08.155Z</time>
      </trkpt>
      <trkpt lat="39.40894" lon="-8.47970833">
        <ele>13.0</ele>
        <time>2019-05-17T12:20:09.183Z</time>
      </trkpt>
      <trkpt lat="39.40899" lon="-8.47965333">
        <ele>13.0</ele>
        <time>2019-05-17T12:20:10.165Z</time>
      </trkpt>
      <trkpt lat="39.40901167" lon="-8.47962667">
        <ele>13.0</ele>
        <time>2019-05-17T12:20:11.177Z</time>
      </trkpt>
      <trkpt lat="39.40901167" lon="-8.47962667">
        <ele>13.0</ele>
        <time>2019-05-17T12:20:12.150Z</time>
      </trkpt>
      <trkpt lat="39.40904667" lon="-8.47956">
        <ele>13.0</ele>
        <time>2019-05-17T12:20:13.184Z</time>
      </trkpt>
      <trkpt lat="39.40906333" lon="-8.47952667">
        <ele>13.0</ele>
        <time>2019-05-17T12:20:14.175Z</time>
      </trkpt>
      <trkpt lat="39.40906333" lon="-8.47952667">
        <ele>13.0</ele>
        <time>2019-05-17T12:20:15.181Z</time>
      </trkpt>
      <trkpt lat="39.40910333" lon="-8.47946667">
        <ele>13.0</ele>
        <time>2019-05-17T12:20:16.179Z</time>
      </trkpt>
      <trkpt lat="39.40910333" lon="-8.47946667">
        <ele>13.0</ele>
        <time>2019-05-17T12:20:17.164Z</time>
      </trkpt>
      <trkpt lat="39.40914167" lon="-8.479415">
        <ele>13.0</ele>
        <time>2019-05-17T12:20:18.155Z</time>
      </trkpt>
      <trkpt lat="39.40914167" lon="-8.479415">
        <ele>13.0</ele>
        <time>2019-05-17T12:20:19.154Z</time>
      </trkpt>
      <trkpt lat="39.40917833" lon="-8.479365">
        <ele>12.0</ele>
        <time>2019-05-17T12:20:20.185Z</time>
      </trkpt>
      <trkpt lat="39.40917833" lon="-8.479365">
        <ele>12.0</ele>
        <time>2019-05-17T12:20:21.162Z</time>
      </trkpt>
      <trkpt lat="39.409215" lon="-8.47931167">
        <ele>12.0</ele>
        <time>2019-05-17T12:20:22.186Z</time>
      </trkpt>
      <trkpt lat="39.409215" lon="-8.47931167">
        <ele>12.0</ele>
        <time>2019-05-17T12:20:23.151Z</time>
      </trkpt>
      <trkpt lat="39.40925333" lon="-8.47926">
        <ele>12.0</ele>
        <time>2019-05-17T12:20:24.184Z</time>
      </trkpt>
      <trkpt lat="39.40925333" lon="-8.47926">
        <ele>12.0</ele>
        <time>2019-05-17T12:20:25.162Z</time>
      </trkpt>
      <trkpt lat="39.40929" lon="-8.47920167">
        <ele>12.0</ele>
        <time>2019-05-17T12:20:26.185Z</time>
      </trkpt>
      <trkpt lat="39.40929" lon="-8.47920167">
        <ele>12.0</ele>
        <time>2019-05-17T12:20:27.190Z</time>
      </trkpt>
      <trkpt lat="39.40933167" lon="-8.47915">
        <ele>12.0</ele>
        <time>2019-05-17T12:20:28.182Z</time>
      </trkpt>
      <trkpt lat="39.40933167" lon="-8.47915">
        <ele>12.0</ele>
        <time>2019-05-17T12:20:29.188Z</time>
      </trkpt>
      <trkpt lat="39.40937" lon="-8.47909833">
        <ele>12.0</ele>
        <time>2019-05-17T12:20:30.192Z</time>
      </trkpt>
      <trkpt lat="39.40937" lon="-8.47909833">
        <ele>12.0</ele>
        <time>2019-05-17T12:20:31.150Z</time>
      </trkpt>
      <trkpt lat="39.40941" lon="-8.47905333">
        <ele>12.0</ele>
        <time>2019-05-17T12:20:32.187Z</time>
      </trkpt>
      <trkpt lat="39.40941" lon="-8.47905333">
        <ele>12.0</ele>
        <time>2019-05-17T12:20:33.160Z</time>
      </trkpt>
      <trkpt lat="39.40944333" lon="-8.47901">
        <ele>12.0</ele>
        <time>2019-05-17T12:20:34.161Z</time>
      </trkpt>
      <trkpt lat="39.40944333" lon="-8.47901">
        <ele>12.0</ele>
        <time>2019-05-17T12:20:35.187Z</time>
      </trkpt>
      <trkpt lat="39.40947667" lon="-8.478965">
        <ele>12.0</ele>
        <time>2019-05-17T12:20:36.172Z</time>
      </trkpt>
      <trkpt lat="39.40947667" lon="-8.478965">
        <ele>12.0</ele>
        <time>2019-05-17T12:20:37.178Z</time>
      </trkpt>
      <trkpt lat="39.40951667" lon="-8.47891">
        <ele>12.0</ele>
        <time>2019-05-17T12:20:38.159Z</time>
      </trkpt>
      <trkpt lat="39.40951667" lon="-8.47891">
        <ele>12.0</ele>
        <time>2019-05-17T12:20:39.165Z</time>
      </trkpt>
      <trkpt lat="39.40955833" lon="-8.478855">
        <ele>12.0</ele>
        <time>2019-05-17T12:20:40.155Z</time>
      </trkpt>
      <trkpt lat="39.40955833" lon="-8.478855">
        <ele>12.0</ele>
        <time>2019-05-17T12:20:41.160Z</time>
      </trkpt>
      <trkpt lat="39.40960167" lon="-8.47880333">
        <ele>13.0</ele>
        <time>2019-05-17T12:20:42.155Z</time>
      </trkpt>
      <trkpt lat="39.40962167" lon="-8.47877667">
        <ele>13.0</ele>
        <time>2019-05-17T12:20:43.169Z</time>
      </trkpt>
      <trkpt lat="39.40962167" lon="-8.47877667">
        <ele>13.0</ele>
        <time>2019-05-17T12:20:44.175Z</time>
      </trkpt>
      <trkpt lat="39.40966333" lon="-8.47872667">
        <ele>13.0</ele>
        <time>2019-05-17T12:20:45.180Z</time>
      </trkpt>
      <trkpt lat="39.40966333" lon="-8.47872667">
        <ele>13.0</ele>
        <time>2019-05-17T12:20:46.186Z</time>
      </trkpt>
      <trkpt lat="39.409705" lon="-8.478675">
        <ele>13.0</ele>
        <time>2019-05-17T12:20:47.154Z</time>
      </trkpt>
      <trkpt lat="39.409705" lon="-8.478675">
        <ele>13.0</ele>
        <time>2019-05-17T12:20:48.181Z</time>
      </trkpt>
      <trkpt lat="39.40974833" lon="-8.47861833">
        <ele>13.0</ele>
        <time>2019-05-17T12:20:49.164Z</time>
      </trkpt>
      <trkpt lat="39.40977167" lon="-8.478585">
        <ele>12.0</ele>
        <time>2019-05-17T12:20:50.172Z</time>
      </trkpt>
      <trkpt lat="39.40977167" lon="-8.478585">
        <ele>12.0</ele>
        <time>2019-05-17T12:20:51.183Z</time>
      </trkpt>
      <trkpt lat="39.40981667" lon="-8.47853167">
        <ele>13.0</ele>
        <time>2019-05-17T12:20:52.173Z</time>
      </trkpt>
      <trkpt lat="39.40981667" lon="-8.47853167">
        <ele>13.0</ele>
        <time>2019-05-17T12:20:53.183Z</time>
      </trkpt>
      <trkpt lat="39.40985667" lon="-8.47847">
        <ele>13.0</ele>
        <time>2019-05-17T12:20:54.183Z</time>
      </trkpt>
      <trkpt lat="39.40985667" lon="-8.47847">
        <ele>13.0</ele>
        <time>2019-05-17T12:20:55.157Z</time>
      </trkpt>
      <trkpt lat="39.40989167" lon="-8.47840333">
        <ele>13.0</ele>
        <time>2019-05-17T12:20:56.185Z</time>
      </trkpt>
      <trkpt lat="39.40989167" lon="-8.47840333">
        <ele>13.0</ele>
        <time>2019-05-17T12:20:57.151Z</time>
      </trkpt>
      <trkpt lat="39.40993333" lon="-8.47833833">
        <ele>13.0</ele>
        <time>2019-05-17T12:20:58.176Z</time>
      </trkpt>
      <trkpt lat="39.40993333" lon="-8.47833833">
        <ele>13.0</ele>
        <time>2019-05-17T12:20:59.184Z</time>
      </trkpt>
      <trkpt lat="39.409975" lon="-8.47827667">
        <ele>13.0</ele>
        <time>2019-05-17T12:21:00.154Z</time>
      </trkpt>
      <trkpt lat="39.409975" lon="-8.47827667">
        <ele>13.0</ele>
        <time>2019-05-17T12:21:01.180Z</time>
      </trkpt>
      <trkpt lat="39.41001167" lon="-8.47821333">
        <ele>13.0</ele>
        <time>2019-05-17T12:21:02.179Z</time>
      </trkpt>
      <trkpt lat="39.41001167" lon="-8.47821333">
        <ele>13.0</ele>
        <time>2019-05-17T12:21:03.185Z</time>
      </trkpt>
      <trkpt lat="39.41005833" lon="-8.47815167">
        <ele>13.0</ele>
        <time>2019-05-17T12:21:04.173Z</time>
      </trkpt>
      <trkpt lat="39.41005833" lon="-8.47815167">
        <ele>13.0</ele>
        <time>2019-05-17T12:21:05.181Z</time>
      </trkpt>
      <trkpt lat="39.41010167" lon="-8.47809167">
        <ele>13.0</ele>
        <time>2019-05-17T12:21:06.185Z</time>
      </trkpt>
      <trkpt lat="39.41010167" lon="-8.47809167">
        <ele>13.0</ele>
        <time>2019-05-17T12:21:07.161Z</time>
      </trkpt>
      <trkpt lat="39.41014" lon="-8.47802833">
        <ele>13.0</ele>
        <time>2019-05-17T12:21:08.155Z</time>
      </trkpt>
      <trkpt lat="39.41014" lon="-8.47802833">
        <ele>13.0</ele>
        <time>2019-05-17T12:21:09.162Z</time>
      </trkpt>
      <trkpt lat="39.41018167" lon="-8.47796333">
        <ele>13.0</ele>
        <time>2019-05-17T12:21:10.190Z</time>
      </trkpt>
      <trkpt lat="39.41018167" lon="-8.47796333">
        <ele>13.0</ele>
        <time>2019-05-17T12:21:11.155Z</time>
      </trkpt>
      <trkpt lat="39.41021833" lon="-8.47790667">
        <ele>13.0</ele>
        <time>2019-05-17T12:21:12.155Z</time>
      </trkpt>
      <trkpt lat="39.41021833" lon="-8.47790667">
        <ele>13.0</ele>
        <time>2019-05-17T12:21:13.170Z</time>
      </trkpt>
      <trkpt lat="39.41025" lon="-8.47785333">
        <ele>13.0</ele>
        <time>2019-05-17T12:21:14.152Z</time>
      </trkpt>
      <trkpt lat="39.41025" lon="-8.47785333">
        <ele>13.0</ele>
        <time>2019-05-17T12:21:15.157Z</time>
      </trkpt>
      <trkpt lat="39.41028" lon="-8.47779833">
        <ele>12.0</ele>
        <time>2019-05-17T12:21:16.185Z</time>
      </trkpt>
      <trkpt lat="39.41028" lon="-8.47779833">
        <ele>12.0</ele>
        <time>2019-05-17T12:21:17.165Z</time>
      </trkpt>
      <trkpt lat="39.41031833" lon="-8.47774167">
        <ele>12.0</ele>
        <time>2019-05-17T12:21:18.185Z</time>
      </trkpt>
      <trkpt lat="39.41031833" lon="-8.47774167">
        <ele>12.0</ele>
        <time>2019-05-17T12:21:19.163Z</time>
      </trkpt>
      <trkpt lat="39.41035667" lon="-8.47768833">
        <ele>12.0</ele>
        <time>2019-05-17T12:21:20.152Z</time>
      </trkpt>
      <trkpt lat="39.41035667" lon="-8.47768833">
        <ele>12.0</ele>
        <time>2019-05-17T12:21:21.163Z</time>
      </trkpt>
      <trkpt lat="39.41039167" lon="-8.47763167">
        <ele>12.0</ele>
        <time>2019-05-17T12:21:22.175Z</time>
      </trkpt>
      <trkpt lat="39.41039167" lon="-8.47763167">
        <ele>12.0</ele>
        <time>2019-05-17T12:21:23.183Z</time>
      </trkpt>
      <trkpt lat="39.41043" lon="-8.47757333">
        <ele>12.0</ele>
        <time>2019-05-17T12:21:24.181Z</time>
      </trkpt>
      <trkpt lat="39.41044667" lon="-8.47754667">
        <ele>12.0</ele>
        <time>2019-05-17T12:21:25.176Z</time>
      </trkpt>
      <trkpt lat="39.41046667" lon="-8.47751833">
        <ele>13.0</ele>
        <time>2019-05-17T12:21:26.185Z</time>
      </trkpt>
      <trkpt lat="39.41046667" lon="-8.47751833">
        <ele>13.0</ele>
        <time>2019-05-17T12:21:27.158Z</time>
      </trkpt>
      <trkpt lat="39.41050667" lon="-8.47746333">
        <ele>13.0</ele>
        <time>2019-05-17T12:21:28.155Z</time>
      </trkpt>
      <trkpt lat="39.41050667" lon="-8.47746333">
        <ele>13.0</ele>
        <time>2019-05-17T12:21:29.163Z</time>
      </trkpt>
      <trkpt lat="39.41053667" lon="-8.47740833">
        <ele>13.0</ele>
        <time>2019-05-17T12:21:30.157Z</time>
      </trkpt>
      <trkpt lat="39.41053667" lon="-8.47740833">
        <ele>13.0</ele>
        <time>2019-05-17T12:21:31.162Z</time>
      </trkpt>
      <trkpt lat="39.41057833" lon="-8.47735167">
        <ele>13.0</ele>
        <time>2019-05-17T12:21:32.177Z</time>
      </trkpt>
      <trkpt lat="39.41057833" lon="-8.47735167">
        <ele>13.0</ele>
        <time>2019-05-17T12:21:33.164Z</time>
      </trkpt>
      <trkpt lat="39.41061667" lon="-8.47729667">
        <ele>13.0</ele>
        <time>2019-05-17T12:21:34.175Z</time>
      </trkpt>
      <trkpt lat="39.41061667" lon="-8.47729667">
        <ele>13.0</ele>
        <time>2019-05-17T12:21:35.186Z</time>
      </trkpt>
      <trkpt lat="39.41066167" lon="-8.47724167">
        <ele>13.0</ele>
        <time>2019-05-17T12:21:36.186Z</time>
      </trkpt>
      <trkpt lat="39.41066167" lon="-8.47724167">
        <ele>13.0</ele>
        <time>2019-05-17T12:21:37.151Z</time>
      </trkpt>
      <trkpt lat="39.4107" lon="-8.477185">
        <ele>13.0</ele>
        <time>2019-05-17T12:21:38.185Z</time>
      </trkpt>
      <trkpt lat="39.4107" lon="-8.477185">
        <ele>13.0</ele>
        <time>2019-05-17T12:21:39.158Z</time>
      </trkpt>
      <trkpt lat="39.41074" lon="-8.47712833">
        <ele>13.0</ele>
        <time>2019-05-17T12:21:40.186Z</time>
      </trkpt>
      <trkpt lat="39.41074" lon="-8.47712833">
        <ele>13.0</ele>
        <time>2019-05-17T12:21:41.151Z</time>
      </trkpt>
      <trkpt lat="39.41077833" lon="-8.47706667">
        <ele>13.0</ele>
        <time>2019-05-17T12:21:42.175Z</time>
      </trkpt>
      <trkpt lat="39.41077833" lon="-8.47706667">
        <ele>13.0</ele>
        <time>2019-05-17T12:21:43.181Z</time>
      </trkpt>
      <trkpt lat="39.41081333" lon="-8.477005">
        <ele>12.0</ele>
        <time>2019-05-17T12:21:44.172Z</time>
      </trkpt>
      <trkpt lat="39.41081333" lon="-8.477005">
        <ele>12.0</ele>
        <time>2019-05-17T12:21:45.177Z</time>
      </trkpt>
      <trkpt lat="39.41085333" lon="-8.47695333">
        <ele>12.0</ele>
        <time>2019-05-17T12:21:46.172Z</time>
      </trkpt>
      <trkpt lat="39.41085333" lon="-8.47695333">
        <ele>12.0</ele>
        <time>2019-05-17T12:21:47.178Z</time>
      </trkpt>
      <trkpt lat="39.41089167" lon="-8.47689">
        <ele>12.0</ele>
        <time>2019-05-17T12:21:48.187Z</time>
      </trkpt>
      <trkpt lat="39.41089167" lon="-8.47689">
        <ele>12.0</ele>
        <time>2019-05-17T12:21:49.152Z</time>
      </trkpt>
      <trkpt lat="39.41093" lon="-8.47683167">
        <ele>12.0</ele>
        <time>2019-05-17T12:21:50.181Z</time>
      </trkpt>
      <trkpt lat="39.41093" lon="-8.47683167">
        <ele>12.0</ele>
        <time>2019-05-17T12:21:51.186Z</time>
      </trkpt>
      <trkpt lat="39.41096167" lon="-8.47676667">
        <ele>11.0</ele>
        <time>2019-05-17T12:21:52.155Z</time>
      </trkpt>
      <trkpt lat="39.41096167" lon="-8.47676667">
        <ele>11.0</ele>
        <time>2019-05-17T12:21:53.159Z</time>
      </trkpt>
      <trkpt lat="39.41100333" lon="-8.47670333">
        <ele>11.0</ele>
        <time>2019-05-17T12:21:54.193Z</time>
      </trkpt>
      <trkpt lat="39.41100333" lon="-8.47670333">
        <ele>11.0</ele>
        <time>2019-05-17T12:21:55.169Z</time>
      </trkpt>
      <trkpt lat="39.41104167" lon="-8.47664333">
        <ele>11.0</ele>
        <time>2019-05-17T12:21:56.154Z</time>
      </trkpt>
      <trkpt lat="39.41104167" lon="-8.47664333">
        <ele>11.0</ele>
        <time>2019-05-17T12:21:57.159Z</time>
      </trkpt>
      <trkpt lat="39.41107833" lon="-8.47658333">
        <ele>11.0</ele>
        <time>2019-05-17T12:21:58.165Z</time>
      </trkpt>
      <trkpt lat="39.41107833" lon="-8.47658333">
        <ele>11.0</ele>
        <time>2019-05-17T12:21:59.185Z</time>
      </trkpt>
      <trkpt lat="39.411125" lon="-8.47652833">
        <ele>11.0</ele>
        <time>2019-05-17T12:22:00.186Z</time>
      </trkpt>
      <trkpt lat="39.411125" lon="-8.47652833">
        <ele>11.0</ele>
        <time>2019-05-17T12:22:01.157Z</time>
      </trkpt>
      <trkpt lat="39.41115833" lon="-8.47648333">
        <ele>12.0</ele>
        <time>2019-05-17T12:22:02.176Z</time>
      </trkpt>
      <trkpt lat="39.41115833" lon="-8.47648333">
        <ele>12.0</ele>
        <time>2019-05-17T12:22:03.184Z</time>
      </trkpt>
      <trkpt lat="39.41117833" lon="-8.476445">
        <ele>13.0</ele>
        <time>2019-05-17T12:22:04.187Z</time>
      </trkpt>
      <trkpt lat="39.41117833" lon="-8.476445">
        <ele>13.0</ele>
        <time>2019-05-17T12:22:05.152Z</time>
      </trkpt>
      <trkpt lat="39.41119333" lon="-8.47641167">
        <ele>14.0</ele>
        <time>2019-05-17T12:22:06.189Z</time>
      </trkpt>
      <trkpt lat="39.41119333" lon="-8.47641167">
        <ele>14.0</ele>
        <time>2019-05-17T12:22:07.159Z</time>
      </trkpt>
      <trkpt lat="39.411215" lon="-8.47637667">
        <ele>14.0</ele>
        <time>2019-05-17T12:22:08.158Z</time>
      </trkpt>
      <trkpt lat="39.411215" lon="-8.47637667">
        <ele>14.0</ele>
        <time>2019-05-17T12:22:09.185Z</time>
      </trkpt>
      <trkpt lat="39.41124667" lon="-8.47634667">
        <ele>14.0</ele>
        <time>2019-05-17T12:22:10.162Z</time>
      </trkpt>
      <trkpt lat="39.41126667" lon="-8.47632833">
        <ele>14.0</ele>
        <time>2019-05-17T12:22:11.155Z</time>
      </trkpt>
      <trkpt lat="39.41126667" lon="-8.47632833">
        <ele>14.0</ele>
        <time>2019-05-17T12:22:12.161Z</time>
      </trkpt>
      <trkpt lat="39.41130333" lon="-8.47628167">
        <ele>14.0</ele>
        <time>2019-05-17T12:22:13.155Z</time>
      </trkpt>
      <trkpt lat="39.41132" lon="-8.47625833">
        <ele>14.0</ele>
        <time>2019-05-17T12:22:14.160Z</time>
      </trkpt>
      <trkpt lat="39.41132" lon="-8.47625833">
        <ele>14.0</ele>
        <time>2019-05-17T12:22:15.169Z</time>
      </trkpt>
      <trkpt lat="39.41135" lon="-8.47621167">
        <ele>14.0</ele>
        <time>2019-05-17T12:22:16.168Z</time>
      </trkpt>
      <trkpt lat="39.41135" lon="-8.47621167">
        <ele>14.0</ele>
        <time>2019-05-17T12:22:17.173Z</time>
      </trkpt>
      <trkpt lat="39.41138" lon="-8.47616333">
        <ele>14.0</ele>
        <time>2019-05-17T12:22:18.165Z</time>
      </trkpt>
      <trkpt lat="39.41138" lon="-8.47616333">
        <ele>14.0</ele>
        <time>2019-05-17T12:22:19.170Z</time>
      </trkpt>
      <trkpt lat="39.41141667" lon="-8.47611667">
        <ele>14.0</ele>
        <time>2019-05-17T12:22:20.165Z</time>
      </trkpt>
      <trkpt lat="39.41141667" lon="-8.47611667">
        <ele>14.0</ele>
        <time>2019-05-17T12:22:21.151Z</time>
      </trkpt>
      <trkpt lat="39.41144833" lon="-8.476065">
        <ele>14.0</ele>
        <time>2019-05-17T12:22:22.189Z</time>
      </trkpt>
      <trkpt lat="39.41146667" lon="-8.47604333">
        <ele>14.0</ele>
        <time>2019-05-17T12:22:23.174Z</time>
      </trkpt>
      <trkpt lat="39.41146667" lon="-8.47604333">
        <ele>14.0</ele>
        <time>2019-05-17T12:22:24.180Z</time>
      </trkpt>
      <trkpt lat="39.41149833" lon="-8.47599833">
        <ele>14.0</ele>
        <time>2019-05-17T12:22:25.180Z</time>
      </trkpt>
      <trkpt lat="39.41151167" lon="-8.47597">
        <ele>14.0</ele>
        <time>2019-05-17T12:22:26.173Z</time>
      </trkpt>
      <trkpt lat="39.41151167" lon="-8.47597">
        <ele>14.0</ele>
        <time>2019-05-17T12:22:27.157Z</time>
      </trkpt>
      <trkpt lat="39.41154333" lon="-8.47591333">
        <ele>14.0</ele>
        <time>2019-05-17T12:22:28.150Z</time>
      </trkpt>
      <trkpt lat="39.41154333" lon="-8.47591333">
        <ele>14.0</ele>
        <time>2019-05-17T12:22:29.157Z</time>
      </trkpt>
      <trkpt lat="39.41157667" lon="-8.475855">
        <ele>14.0</ele>
        <time>2019-05-17T12:22:30.152Z</time>
      </trkpt>
      <trkpt lat="39.41157667" lon="-8.475855">
        <ele>14.0</ele>
        <time>2019-05-17T12:22:31.157Z</time>
      </trkpt>
      <trkpt lat="39.41161167" lon="-8.4758">
        <ele>14.0</ele>
        <time>2019-05-17T12:22:32.153Z</time>
      </trkpt>
      <trkpt lat="39.41161167" lon="-8.4758">
        <ele>14.0</ele>
        <time>2019-05-17T12:22:33.163Z</time>
      </trkpt>
      <trkpt lat="39.411645" lon="-8.47575">
        <ele>14.0</ele>
        <time>2019-05-17T12:22:34.156Z</time>
      </trkpt>
      <trkpt lat="39.411645" lon="-8.47575">
        <ele>14.0</ele>
        <time>2019-05-17T12:22:35.161Z</time>
      </trkpt>
      <trkpt lat="39.41167833" lon="-8.4757">
        <ele>13.0</ele>
        <time>2019-05-17T12:22:36.185Z</time>
      </trkpt>
      <trkpt lat="39.41167833" lon="-8.4757">
        <ele>13.0</ele>
        <time>2019-05-17T12:22:37.162Z</time>
      </trkpt>
      <trkpt lat="39.41170833" lon="-8.47564333">
        <ele>13.0</ele>
        <time>2019-05-17T12:22:38.152Z</time>
      </trkpt>
      <trkpt lat="39.41170833" lon="-8.47564333">
        <ele>13.0</ele>
        <time>2019-05-17T12:22:39.179Z</time>
      </trkpt>
      <trkpt lat="39.41174667" lon="-8.47558667">
        <ele>13.0</ele>
        <time>2019-05-17T12:22:40.156Z</time>
      </trkpt>
      <trkpt lat="39.41174667" lon="-8.47558667">
        <ele>13.0</ele>
        <time>2019-05-17T12:22:41.164Z</time>
      </trkpt>
      <trkpt lat="39.411785" lon="-8.47553">
        <ele>13.0</ele>
        <time>2019-05-17T12:22:42.154Z</time>
      </trkpt>
      <trkpt lat="39.411785" lon="-8.47553">
        <ele>13.0</ele>
        <time>2019-05-17T12:22:43.160Z</time>
      </trkpt>
      <trkpt lat="39.411825" lon="-8.475475">
        <ele>13.0</ele>
        <time>2019-05-17T12:22:44.162Z</time>
      </trkpt>
      <trkpt lat="39.411825" lon="-8.475475">
        <ele>13.0</ele>
        <time>2019-05-17T12:22:45.167Z</time>
      </trkpt>
      <trkpt lat="39.41186333" lon="-8.47541833">
        <ele>13.0</ele>
        <time>2019-05-17T12:22:46.172Z</time>
      </trkpt>
      <trkpt lat="39.41186333" lon="-8.47541833">
        <ele>13.0</ele>
        <time>2019-05-17T12:22:47.150Z</time>
      </trkpt>
      <trkpt lat="39.41190167" lon="-8.47536667">
        <ele>13.0</ele>
        <time>2019-05-17T12:22:48.173Z</time>
      </trkpt>
      <trkpt lat="39.41190167" lon="-8.47536667">
        <ele>13.0</ele>
        <time>2019-05-17T12:22:49.156Z</time>
      </trkpt>
      <trkpt lat="39.411945" lon="-8.47531167">
        <ele>13.0</ele>
        <time>2019-05-17T12:22:50.162Z</time>
      </trkpt>
      <trkpt lat="39.411945" lon="-8.47531167">
        <ele>13.0</ele>
        <time>2019-05-17T12:22:51.167Z</time>
      </trkpt>
      <trkpt lat="39.41198833" lon="-8.47525667">
        <ele>13.0</ele>
        <time>2019-05-17T12:22:52.162Z</time>
      </trkpt>
      <trkpt lat="39.41198833" lon="-8.47525667">
        <ele>13.0</ele>
        <time>2019-05-17T12:22:53.186Z</time>
      </trkpt>
      <trkpt lat="39.41203167" lon="-8.47520167">
        <ele>13.0</ele>
        <time>2019-05-17T12:22:54.175Z</time>
      </trkpt>
      <trkpt lat="39.41203167" lon="-8.47520167">
        <ele>13.0</ele>
        <time>2019-05-17T12:22:55.153Z</time>
      </trkpt>
      <trkpt lat="39.41207167" lon="-8.475145">
        <ele>13.0</ele>
        <time>2019-05-17T12:22:56.180Z</time>
      </trkpt>
      <trkpt lat="39.41207167" lon="-8.475145">
        <ele>13.0</ele>
        <time>2019-05-17T12:22:57.188Z</time>
      </trkpt>
      <trkpt lat="39.41211" lon="-8.47508667">
        <ele>12.0</ele>
        <time>2019-05-17T12:22:58.171Z</time>
      </trkpt>
      <trkpt lat="39.41211" lon="-8.47508667">
        <ele>12.0</ele>
        <time>2019-05-17T12:22:59.181Z</time>
      </trkpt>
      <trkpt lat="39.41216167" lon="-8.47503167">
        <ele>13.0</ele>
        <time>2019-05-17T12:23:00.178Z</time>
      </trkpt>
      <trkpt lat="39.41216167" lon="-8.47503167">
        <ele>13.0</ele>
        <time>2019-05-17T12:23:01.159Z</time>
      </trkpt>
      <trkpt lat="39.41220833" lon="-8.47497833">
        <ele>13.0</ele>
        <time>2019-05-17T12:23:02.175Z</time>
      </trkpt>
      <trkpt lat="39.41220833" lon="-8.47497833">
        <ele>13.0</ele>
        <time>2019-05-17T12:23:03.152Z</time>
      </trkpt>
      <trkpt lat="39.41225667" lon="-8.474925">
        <ele>13.0</ele>
        <time>2019-05-17T12:23:04.191Z</time>
      </trkpt>
      <trkpt lat="39.41225667" lon="-8.474925">
        <ele>13.0</ele>
        <time>2019-05-17T12:23:05.155Z</time>
      </trkpt>
      <trkpt lat="39.41230833" lon="-8.47486833">
        <ele>13.0</ele>
        <time>2019-05-17T12:23:06.185Z</time>
      </trkpt>
      <trkpt lat="39.41230833" lon="-8.47486833">
        <ele>13.0</ele>
        <time>2019-05-17T12:23:07.190Z</time>
      </trkpt>
      <trkpt lat="39.41235333" lon="-8.47482333">
        <ele>12.0</ele>
        <time>2019-05-17T12:23:08.167Z</time>
      </trkpt>
      <trkpt lat="39.41235333" lon="-8.47482333">
        <ele>12.0</ele>
        <time>2019-05-17T12:23:09.183Z</time>
      </trkpt>
      <trkpt lat="39.41239667" lon="-8.47477833">
        <ele>12.0</ele>
        <time>2019-05-17T12:23:10.162Z</time>
      </trkpt>
      <trkpt lat="39.41241667" lon="-8.474755">
        <ele>12.0</ele>
        <time>2019-05-17T12:23:11.188Z</time>
      </trkpt>
      <trkpt lat="39.41241667" lon="-8.474755">
        <ele>12.0</ele>
        <time>2019-05-17T12:23:12.153Z</time>
      </trkpt>
      <trkpt lat="39.412455" lon="-8.47470333">
        <ele>12.0</ele>
        <time>2019-05-17T12:23:13.152Z</time>
      </trkpt>
      <trkpt lat="39.412475" lon="-8.47467667">
        <ele>12.0</ele>
        <time>2019-05-17T12:23:14.157Z</time>
      </trkpt>
      <trkpt lat="39.412475" lon="-8.47467667">
        <ele>12.0</ele>
        <time>2019-05-17T12:23:15.162Z</time>
      </trkpt>
      <trkpt lat="39.412515" lon="-8.47462167">
        <ele>13.0</ele>
        <time>2019-05-17T12:23:16.160Z</time>
      </trkpt>
      <trkpt lat="39.412515" lon="-8.47462167">
        <ele>13.0</ele>
        <time>2019-05-17T12:23:17.182Z</time>
      </trkpt>
      <trkpt lat="39.41255833" lon="-8.47457333">
        <ele>13.0</ele>
        <time>2019-05-17T12:23:18.171Z</time>
      </trkpt>
      <trkpt lat="39.41255833" lon="-8.47457333">
        <ele>13.0</ele>
        <time>2019-05-17T12:23:19.184Z</time>
      </trkpt>
      <trkpt lat="39.41259833" lon="-8.47452167">
        <ele>13.0</ele>
        <time>2019-05-17T12:23:20.158Z</time>
      </trkpt>
      <trkpt lat="39.41259833" lon="-8.47452167">
        <ele>13.0</ele>
        <time>2019-05-17T12:23:21.172Z</time>
      </trkpt>
      <trkpt lat="39.41264" lon="-8.47446833">
        <ele>13.0</ele>
        <time>2019-05-17T12:23:22.157Z</time>
      </trkpt>
      <trkpt lat="39.41265833" lon="-8.47444333">
        <ele>13.0</ele>
        <time>2019-05-17T12:23:23.168Z</time>
      </trkpt>
      <trkpt lat="39.41265833" lon="-8.47444333">
        <ele>13.0</ele>
        <time>2019-05-17T12:23:24.182Z</time>
      </trkpt>
      <trkpt lat="39.41269833" lon="-8.47439667">
        <ele>13.0</ele>
        <time>2019-05-17T12:23:25.174Z</time>
      </trkpt>
      <trkpt lat="39.41269833" lon="-8.47439667">
        <ele>13.0</ele>
        <time>2019-05-17T12:23:26.186Z</time>
      </trkpt>
      <trkpt lat="39.41273333" lon="-8.47435">
        <ele>13.0</ele>
        <time>2019-05-17T12:23:27.155Z</time>
      </trkpt>
      <trkpt lat="39.41275" lon="-8.47432667">
        <ele>13.0</ele>
        <time>2019-05-17T12:23:28.152Z</time>
      </trkpt>
      <trkpt lat="39.41275" lon="-8.47432667">
        <ele>13.0</ele>
        <time>2019-05-17T12:23:29.160Z</time>
      </trkpt>
      <trkpt lat="39.412785" lon="-8.47428667">
        <ele>13.0</ele>
        <time>2019-05-17T12:23:30.150Z</time>
      </trkpt>
      <trkpt lat="39.412785" lon="-8.47428667">
        <ele>13.0</ele>
        <time>2019-05-17T12:23:31.166Z</time>
      </trkpt>
      <trkpt lat="39.41281667" lon="-8.47424167">
        <ele>13.0</ele>
        <time>2019-05-17T12:23:32.154Z</time>
      </trkpt>
      <trkpt lat="39.41281667" lon="-8.47424167">
        <ele>13.0</ele>
        <time>2019-05-17T12:23:33.152Z</time>
      </trkpt>
      <trkpt lat="39.41285333" lon="-8.4742">
        <ele>13.0</ele>
        <time>2019-05-17T12:23:34.184Z</time>
      </trkpt>
      <trkpt lat="39.41285333" lon="-8.4742">
        <ele>13.0</ele>
        <time>2019-05-17T12:23:35.189Z</time>
      </trkpt>
      <trkpt lat="39.41289167" lon="-8.47415333">
        <ele>14.0</ele>
        <time>2019-05-17T12:23:36.150Z</time>
      </trkpt>
      <trkpt lat="39.41289167" lon="-8.47415333">
        <ele>14.0</ele>
        <time>2019-05-17T12:23:37.165Z</time>
      </trkpt>
      <trkpt lat="39.41292667" lon="-8.47411167">
        <ele>13.0</ele>
        <time>2019-05-17T12:23:38.157Z</time>
      </trkpt>
      <trkpt lat="39.41292667" lon="-8.47411167">
        <ele>13.0</ele>
        <time>2019-05-17T12:23:39.162Z</time>
      </trkpt>
      <trkpt lat="39.41296167" lon="-8.47407">
        <ele>13.0</ele>
        <time>2019-05-17T12:23:40.160Z</time>
      </trkpt>
      <trkpt lat="39.41296167" lon="-8.47407">
        <ele>13.0</ele>
        <time>2019-05-17T12:23:41.165Z</time>
      </trkpt>
      <trkpt lat="39.41299833" lon="-8.47402833">
        <ele>14.0</ele>
        <time>2019-05-17T12:23:42.180Z</time>
      </trkpt>
      <trkpt lat="39.41301667" lon="-8.47400667">
        <ele>14.0</ele>
        <time>2019-05-17T12:23:43.174Z</time>
      </trkpt>
      <trkpt lat="39.41301667" lon="-8.47400667">
        <ele>14.0</ele>
        <time>2019-05-17T12:23:44.185Z</time>
      </trkpt>
      <trkpt lat="39.41304833" lon="-8.47396333">
        <ele>14.0</ele>
        <time>2019-05-17T12:23:45.155Z</time>
      </trkpt>
      <trkpt lat="39.41306667" lon="-8.47394333">
        <ele>14.0</ele>
        <time>2019-05-17T12:23:46.157Z</time>
      </trkpt>
      <trkpt lat="39.41306667" lon="-8.47394333">
        <ele>14.0</ele>
        <time>2019-05-17T12:23:47.162Z</time>
      </trkpt>
      <trkpt lat="39.413105" lon="-8.47390333">
        <ele>14.0</ele>
        <time>2019-05-17T12:23:48.160Z</time>
      </trkpt>
      <trkpt lat="39.413105" lon="-8.47390333">
        <ele>14.0</ele>
        <time>2019-05-17T12:23:49.181Z</time>
      </trkpt>
      <trkpt lat="39.41314333" lon="-8.47385667">
        <ele>14.0</ele>
        <time>2019-05-17T12:23:50.173Z</time>
      </trkpt>
      <trkpt lat="39.41314333" lon="-8.47385667">
        <ele>14.0</ele>
        <time>2019-05-17T12:23:51.181Z</time>
      </trkpt>
      <trkpt lat="39.41318" lon="-8.47381">
        <ele>14.0</ele>
        <time>2019-05-17T12:23:52.189Z</time>
      </trkpt>
      <trkpt lat="39.41318" lon="-8.47381">
        <ele>14.0</ele>
        <time>2019-05-17T12:23:53.153Z</time>
      </trkpt>
      <trkpt lat="39.41321333" lon="-8.47376333">
        <ele>14.0</ele>
        <time>2019-05-17T12:23:54.172Z</time>
      </trkpt>
      <trkpt lat="39.41321333" lon="-8.47376333">
        <ele>14.0</ele>
        <time>2019-05-17T12:23:55.187Z</time>
      </trkpt>
      <trkpt lat="39.41324333" lon="-8.47372167">
        <ele>14.0</ele>
        <time>2019-05-17T12:23:56.177Z</time>
      </trkpt>
      <trkpt lat="39.41324333" lon="-8.47372167">
        <ele>14.0</ele>
        <time>2019-05-17T12:23:57.157Z</time>
      </trkpt>
      <trkpt lat="39.41327" lon="-8.47368667">
        <ele>14.0</ele>
        <time>2019-05-17T12:23:58.170Z</time>
      </trkpt>
      <trkpt lat="39.41327" lon="-8.47368667">
        <ele>14.0</ele>
        <time>2019-05-17T12:23:59.175Z</time>
      </trkpt>
      <trkpt lat="39.41329833" lon="-8.47365333">
        <ele>15.0</ele>
        <time>2019-05-17T12:24:00.176Z</time>
      </trkpt>
      <trkpt lat="39.413315" lon="-8.47363167">
        <ele>15.0</ele>
        <time>2019-05-17T12:24:01.175Z</time>
      </trkpt>
      <trkpt lat="39.413315" lon="-8.47363167">
        <ele>15.0</ele>
        <time>2019-05-17T12:24:02.184Z</time>
      </trkpt>
      <trkpt lat="39.41334333" lon="-8.47359333">
        <ele>15.0</ele>
        <time>2019-05-17T12:24:03.151Z</time>
      </trkpt>
      <trkpt lat="39.41334333" lon="-8.47359333">
        <ele>15.0</ele>
        <time>2019-05-17T12:24:04.156Z</time>
      </trkpt>
      <trkpt lat="39.41337333" lon="-8.47355167">
        <ele>15.0</ele>
        <time>2019-05-17T12:24:05.194Z</time>
      </trkpt>
      <trkpt lat="39.41337333" lon="-8.47355167">
        <ele>15.0</ele>
        <time>2019-05-17T12:24:06.159Z</time>
      </trkpt>
      <trkpt lat="39.413405" lon="-8.47350833">
        <ele>15.0</ele>
        <time>2019-05-17T12:24:07.156Z</time>
      </trkpt>
      <trkpt lat="39.41342" lon="-8.473485">
        <ele>15.0</ele>
        <time>2019-05-17T12:24:08.174Z</time>
      </trkpt>
      <trkpt lat="39.41342" lon="-8.473485">
        <ele>15.0</ele>
        <time>2019-05-17T12:24:09.186Z</time>
      </trkpt>
      <trkpt lat="39.41345167" lon="-8.47344">
        <ele>15.0</ele>
        <time>2019-05-17T12:24:10.174Z</time>
      </trkpt>
      <trkpt lat="39.41345167" lon="-8.47344">
        <ele>15.0</ele>
        <time>2019-05-17T12:24:11.174Z</time>
      </trkpt>
      <trkpt lat="39.41348333" lon="-8.47339333">
        <ele>15.0</ele>
        <time>2019-05-17T12:24:12.174Z</time>
      </trkpt>
      <trkpt lat="39.41348333" lon="-8.47339333">
        <ele>15.0</ele>
        <time>2019-05-17T12:24:13.184Z</time>
      </trkpt>
      <trkpt lat="39.41352" lon="-8.47335167">
        <ele>15.0</ele>
        <time>2019-05-17T12:24:14.151Z</time>
      </trkpt>
      <trkpt lat="39.41353667" lon="-8.47332833">
        <ele>15.0</ele>
        <time>2019-05-17T12:24:15.163Z</time>
      </trkpt>
      <trkpt lat="39.41353667" lon="-8.47332833">
        <ele>15.0</ele>
        <time>2019-05-17T12:24:16.169Z</time>
      </trkpt>
      <trkpt lat="39.41356833" lon="-8.47328167">
        <ele>15.0</ele>
        <time>2019-05-17T12:24:17.165Z</time>
      </trkpt>
      <trkpt lat="39.41358667" lon="-8.47326">
        <ele>15.0</ele>
        <time>2019-05-17T12:24:18.174Z</time>
      </trkpt>
      <trkpt lat="39.41358667" lon="-8.47326">
        <ele>15.0</ele>
        <time>2019-05-17T12:24:19.180Z</time>
      </trkpt>
      <trkpt lat="39.41361833" lon="-8.473215">
        <ele>15.0</ele>
        <time>2019-05-17T12:24:20.182Z</time>
      </trkpt>
      <trkpt lat="39.41361833" lon="-8.473215">
        <ele>15.0</ele>
        <time>2019-05-17T12:24:21.158Z</time>
      </trkpt>
      <trkpt lat="39.41364833" lon="-8.47316167">
        <ele>15.0</ele>
        <time>2019-05-17T12:24:22.187Z</time>
      </trkpt>
      <trkpt lat="39.41364833" lon="-8.47316167">
        <ele>15.0</ele>
        <time>2019-05-17T12:24:23.159Z</time>
      </trkpt>
      <trkpt lat="39.41367833" lon="-8.47311">
        <ele>15.0</ele>
        <time>2019-05-17T12:24:24.186Z</time>
      </trkpt>
      <trkpt lat="39.41367833" lon="-8.47311">
        <ele>15.0</ele>
        <time>2019-05-17T12:24:25.169Z</time>
      </trkpt>
      <trkpt lat="39.41371" lon="-8.47306333">
        <ele>15.0</ele>
        <time>2019-05-17T12:24:26.183Z</time>
      </trkpt>
      <trkpt lat="39.41371" lon="-8.47306333">
        <ele>15.0</ele>
        <time>2019-05-17T12:24:27.157Z</time>
      </trkpt>
      <trkpt lat="39.41374" lon="-8.47301333">
        <ele>15.0</ele>
        <time>2019-05-17T12:24:28.155Z</time>
      </trkpt>
      <trkpt lat="39.41375833" lon="-8.47299">
        <ele>14.0</ele>
        <time>2019-05-17T12:24:29.174Z</time>
      </trkpt>
      <trkpt lat="39.41375833" lon="-8.47299">
        <ele>14.0</ele>
        <time>2019-05-17T12:24:30.183Z</time>
      </trkpt>
      <trkpt lat="39.41379" lon="-8.47293667">
        <ele>14.0</ele>
        <time>2019-05-17T12:24:31.175Z</time>
      </trkpt>
      <trkpt lat="39.413805" lon="-8.47290667">
        <ele>14.0</ele>
        <time>2019-05-17T12:24:32.153Z</time>
      </trkpt>
      <trkpt lat="39.413805" lon="-8.47290667">
        <ele>14.0</ele>
        <time>2019-05-17T12:24:33.175Z</time>
      </trkpt>
      <trkpt lat="39.41384167" lon="-8.47285">
        <ele>14.0</ele>
        <time>2019-05-17T12:24:34.168Z</time>
      </trkpt>
      <trkpt lat="39.41384167" lon="-8.47285">
        <ele>14.0</ele>
        <time>2019-05-17T12:24:35.185Z</time>
      </trkpt>
      <trkpt lat="39.41387833" lon="-8.472795">
        <ele>14.0</ele>
        <time>2019-05-17T12:24:36.177Z</time>
      </trkpt>
      <trkpt lat="39.41387833" lon="-8.472795">
        <ele>14.0</ele>
        <time>2019-05-17T12:24:37.188Z</time>
      </trkpt>
      <trkpt lat="39.41391167" lon="-8.47274">
        <ele>14.0</ele>
        <time>2019-05-17T12:24:38.177Z</time>
      </trkpt>
      <trkpt lat="39.41391167" lon="-8.47274">
        <ele>14.0</ele>
        <time>2019-05-17T12:24:39.184Z</time>
      </trkpt>
      <trkpt lat="39.41395167" lon="-8.47268667">
        <ele>14.0</ele>
        <time>2019-05-17T12:24:40.176Z</time>
      </trkpt>
      <trkpt lat="39.41395167" lon="-8.47268667">
        <ele>14.0</ele>
        <time>2019-05-17T12:24:41.182Z</time>
      </trkpt>
      <trkpt lat="39.41398833" lon="-8.47263833">
        <ele>14.0</ele>
        <time>2019-05-17T12:24:42.153Z</time>
      </trkpt>
      <trkpt lat="39.41398833" lon="-8.47263833">
        <ele>14.0</ele>
        <time>2019-05-17T12:24:43.152Z</time>
      </trkpt>
      <trkpt lat="39.41402667" lon="-8.47258667">
        <ele>14.0</ele>
        <time>2019-05-17T12:24:44.165Z</time>
      </trkpt>
      <trkpt lat="39.41402667" lon="-8.47258667">
        <ele>14.0</ele>
        <time>2019-05-17T12:24:45.171Z</time>
      </trkpt>
      <trkpt lat="39.41406333" lon="-8.47254">
        <ele>14.0</ele>
        <time>2019-05-17T12:24:46.176Z</time>
      </trkpt>
      <trkpt lat="39.41406333" lon="-8.47254">
        <ele>14.0</ele>
        <time>2019-05-17T12:24:47.185Z</time>
      </trkpt>
      <trkpt lat="39.41409833" lon="-8.47249">
        <ele>14.0</ele>
        <time>2019-05-17T12:24:48.175Z</time>
      </trkpt>
      <trkpt lat="39.41409833" lon="-8.47249">
        <ele>14.0</ele>
        <time>2019-05-17T12:24:49.185Z</time>
      </trkpt>
      <trkpt lat="39.41413667" lon="-8.472435">
        <ele>14.0</ele>
        <time>2019-05-17T12:24:50.187Z</time>
      </trkpt>
      <trkpt lat="39.41415667" lon="-8.47241167">
        <ele>14.0</ele>
        <time>2019-05-17T12:24:51.151Z</time>
      </trkpt>
      <trkpt lat="39.41415667" lon="-8.47241167">
        <ele>14.0</ele>
        <time>2019-05-17T12:24:52.158Z</time>
      </trkpt>
      <trkpt lat="39.41419667" lon="-8.47236">
        <ele>14.0</ele>
        <time>2019-05-17T12:24:53.155Z</time>
      </trkpt>
      <trkpt lat="39.41421667" lon="-8.47233667">
        <ele>14.0</ele>
        <time>2019-05-17T12:24:54.175Z</time>
      </trkpt>
      <trkpt lat="39.41423667" lon="-8.47231">
        <ele>14.0</ele>
        <time>2019-05-17T12:24:55.171Z</time>
      </trkpt>
      <trkpt lat="39.41425667" lon="-8.472285">
        <ele>14.0</ele>
        <time>2019-05-17T12:24:56.172Z</time>
      </trkpt>
      <trkpt lat="39.41425667" lon="-8.472285">
        <ele>14.0</ele>
        <time>2019-05-17T12:24:57.183Z</time>
      </trkpt>
      <trkpt lat="39.414295" lon="-8.47223333">
        <ele>14.0</ele>
        <time>2019-05-17T12:24:58.176Z</time>
      </trkpt>
      <trkpt lat="39.414295" lon="-8.47223333">
        <ele>14.0</ele>
        <time>2019-05-17T12:24:59.183Z</time>
      </trkpt>
      <trkpt lat="39.414335" lon="-8.47218">
        <ele>14.0</ele>
        <time>2019-05-17T12:25:00.185Z</time>
      </trkpt>
      <trkpt lat="39.414335" lon="-8.47218">
        <ele>14.0</ele>
        <time>2019-05-17T12:25:01.151Z</time>
      </trkpt>
      <trkpt lat="39.41437667" lon="-8.47212167">
        <ele>14.0</ele>
        <time>2019-05-17T12:25:02.189Z</time>
      </trkpt>
      <trkpt lat="39.41437667" lon="-8.47212167">
        <ele>14.0</ele>
        <time>2019-05-17T12:25:03.155Z</time>
      </trkpt>
      <trkpt lat="39.41441833" lon="-8.47206">
        <ele>14.0</ele>
        <time>2019-05-17T12:25:04.161Z</time>
      </trkpt>
      <trkpt lat="39.41441833" lon="-8.47206">
        <ele>14.0</ele>
        <time>2019-05-17T12:25:05.182Z</time>
      </trkpt>
      <trkpt lat="39.41444667" lon="-8.47199833">
        <ele>14.0</ele>
        <time>2019-05-17T12:25:06.173Z</time>
      </trkpt>
      <trkpt lat="39.41444667" lon="-8.47199833">
        <ele>14.0</ele>
        <time>2019-05-17T12:25:07.181Z</time>
      </trkpt>
      <trkpt lat="39.41448333" lon="-8.47193667">
        <ele>14.0</ele>
        <time>2019-05-17T12:25:08.184Z</time>
      </trkpt>
      <trkpt lat="39.41448333" lon="-8.47193667">
        <ele>14.0</ele>
        <time>2019-05-17T12:25:09.160Z</time>
      </trkpt>
      <trkpt lat="39.41451833" lon="-8.47188167">
        <ele>13.0</ele>
        <time>2019-05-17T12:25:10.197Z</time>
      </trkpt>
      <trkpt lat="39.41451833" lon="-8.47188167">
        <ele>13.0</ele>
        <time>2019-05-17T12:25:11.176Z</time>
      </trkpt>
      <trkpt lat="39.41455667" lon="-8.47182">
        <ele>13.0</ele>
        <time>2019-05-17T12:25:12.179Z</time>
      </trkpt>
      <trkpt lat="39.41455667" lon="-8.47182">
        <ele>13.0</ele>
        <time>2019-05-17T12:25:13.185Z</time>
      </trkpt>
      <trkpt lat="39.4146" lon="-8.471755">
        <ele>13.0</ele>
        <time>2019-05-17T12:25:14.185Z</time>
      </trkpt>
      <trkpt lat="39.4146" lon="-8.471755">
        <ele>13.0</ele>
        <time>2019-05-17T12:25:15.169Z</time>
      </trkpt>
      <trkpt lat="39.41464833" lon="-8.471695">
        <ele>13.0</ele>
        <time>2019-05-17T12:25:16.165Z</time>
      </trkpt>
      <trkpt lat="39.41464833" lon="-8.471695">
        <ele>13.0</ele>
        <time>2019-05-17T12:25:17.186Z</time>
      </trkpt>
      <trkpt lat="39.41469167" lon="-8.47163167">
        <ele>13.0</ele>
        <time>2019-05-17T12:25:18.180Z</time>
      </trkpt>
      <trkpt lat="39.41469167" lon="-8.47163167">
        <ele>13.0</ele>
        <time>2019-05-17T12:25:19.185Z</time>
      </trkpt>
      <trkpt lat="39.41472667" lon="-8.47158">
        <ele>13.0</ele>
        <time>2019-05-17T12:25:20.184Z</time>
      </trkpt>
      <trkpt lat="39.41472667" lon="-8.47158">
        <ele>13.0</ele>
        <time>2019-05-17T12:25:21.164Z</time>
      </trkpt>
      <trkpt lat="39.41476667" lon="-8.47152667">
        <ele>13.0</ele>
        <time>2019-05-17T12:25:22.174Z</time>
      </trkpt>
      <trkpt lat="39.41476667" lon="-8.47152667">
        <ele>13.0</ele>
        <time>2019-05-17T12:25:23.163Z</time>
      </trkpt>
      <trkpt lat="39.41480833" lon="-8.47147333">
        <ele>12.0</ele>
        <time>2019-05-17T12:25:24.165Z</time>
      </trkpt>
      <trkpt lat="39.41480833" lon="-8.47147333">
        <ele>12.0</ele>
        <time>2019-05-17T12:25:25.170Z</time>
      </trkpt>
      <trkpt lat="39.41485" lon="-8.47141667">
        <ele>12.0</ele>
        <time>2019-05-17T12:25:26.160Z</time>
      </trkpt>
      <trkpt lat="39.41485" lon="-8.47141667">
        <ele>12.0</ele>
        <time>2019-05-17T12:25:27.166Z</time>
      </trkpt>
      <trkpt lat="39.4149" lon="-8.47136333">
        <ele>12.0</ele>
        <time>2019-05-17T12:25:28.165Z</time>
      </trkpt>
      <trkpt lat="39.414925" lon="-8.471335">
        <ele>12.0</ele>
        <time>2019-05-17T12:25:29.184Z</time>
      </trkpt>
      <trkpt lat="39.414925" lon="-8.471335">
        <ele>12.0</ele>
        <time>2019-05-17T12:25:30.189Z</time>
      </trkpt>
      <trkpt lat="39.41497667" lon="-8.47128167">
        <ele>13.0</ele>
        <time>2019-05-17T12:25:31.183Z</time>
      </trkpt>
      <trkpt lat="39.415" lon="-8.47125">
        <ele>13.0</ele>
        <time>2019-05-17T12:25:32.155Z</time>
      </trkpt>
      <trkpt lat="39.415" lon="-8.47125">
        <ele>13.0</ele>
        <time>2019-05-17T12:25:33.160Z</time>
      </trkpt>
      <trkpt lat="39.41504833" lon="-8.471185">
        <ele>14.0</ele>
        <time>2019-05-17T12:25:34.183Z</time>
      </trkpt>
      <trkpt lat="39.41507333" lon="-8.47115667">
        <ele>14.0</ele>
        <time>2019-05-17T12:25:35.178Z</time>
      </trkpt>
      <trkpt lat="39.41507333" lon="-8.47115667">
        <ele>14.0</ele>
        <time>2019-05-17T12:25:36.150Z</time>
      </trkpt>
      <trkpt lat="39.415125" lon="-8.47110167">
        <ele>15.0</ele>
        <time>2019-05-17T12:25:37.186Z</time>
      </trkpt>
      <trkpt lat="39.41514667" lon="-8.47107">
        <ele>15.0</ele>
        <time>2019-05-17T12:25:38.195Z</time>
      </trkpt>
      <trkpt lat="39.41514667" lon="-8.47107">
        <ele>15.0</ele>
        <time>2019-05-17T12:25:39.172Z</time>
      </trkpt>
      <trkpt lat="39.41519333" lon="-8.47101333">
        <ele>15.0</ele>
        <time>2019-05-17T12:25:40.165Z</time>
      </trkpt>
      <trkpt lat="39.41519333" lon="-8.47101333">
        <ele>15.0</ele>
        <time>2019-05-17T12:25:41.183Z</time>
      </trkpt>
      <trkpt lat="39.41523667" lon="-8.470955">
        <ele>15.0</ele>
        <time>2019-05-17T12:25:42.181Z</time>
      </trkpt>
      <trkpt lat="39.41523667" lon="-8.470955">
        <ele>15.0</ele>
        <time>2019-05-17T12:25:43.186Z</time>
      </trkpt>
      <trkpt lat="39.415285" lon="-8.47089667">
        <ele>15.0</ele>
        <time>2019-05-17T12:25:44.180Z</time>
      </trkpt>
      <trkpt lat="39.415285" lon="-8.47089667">
        <ele>15.0</ele>
        <time>2019-05-17T12:25:45.163Z</time>
      </trkpt>
      <trkpt lat="39.41533333" lon="-8.470835">
        <ele>15.0</ele>
        <time>2019-05-17T12:25:46.152Z</time>
      </trkpt>
      <trkpt lat="39.41533333" lon="-8.470835">
        <ele>15.0</ele>
        <time>2019-05-17T12:25:47.162Z</time>
      </trkpt>
      <trkpt lat="39.41538167" lon="-8.470775">
        <ele>15.0</ele>
        <time>2019-05-17T12:25:48.162Z</time>
      </trkpt>
      <trkpt lat="39.41538167" lon="-8.470775">
        <ele>15.0</ele>
        <time>2019-05-17T12:25:49.153Z</time>
      </trkpt>
      <trkpt lat="39.415435" lon="-8.47072167">
        <ele>15.0</ele>
        <time>2019-05-17T12:25:50.154Z</time>
      </trkpt>
      <trkpt lat="39.415435" lon="-8.47072167">
        <ele>15.0</ele>
        <time>2019-05-17T12:25:51.189Z</time>
      </trkpt>
      <trkpt lat="39.41549" lon="-8.470665">
        <ele>15.0</ele>
        <time>2019-05-17T12:25:52.187Z</time>
      </trkpt>
      <trkpt lat="39.41551833" lon="-8.47063667">
        <ele>15.0</ele>
        <time>2019-05-17T12:25:53.181Z</time>
      </trkpt>
      <trkpt lat="39.41554333" lon="-8.47060833">
        <ele>16.0</ele>
        <time>2019-05-17T12:25:54.177Z</time>
      </trkpt>
      <trkpt lat="39.41554333" lon="-8.47060833">
        <ele>16.0</ele>
        <time>2019-05-17T12:25:55.187Z</time>
      </trkpt>
      <trkpt lat="39.41559333" lon="-8.47055">
        <ele>15.0</ele>
        <time>2019-05-17T12:25:56.172Z</time>
      </trkpt>
      <trkpt lat="39.41559333" lon="-8.47055">
        <ele>15.0</ele>
        <time>2019-05-17T12:25:57.181Z</time>
      </trkpt>
      <trkpt lat="39.41563667" lon="-8.47048667">
        <ele>15.0</ele>
        <time>2019-05-17T12:25:58.169Z</time>
      </trkpt>
      <trkpt lat="39.41563667" lon="-8.47048667">
        <ele>15.0</ele>
        <time>2019-05-17T12:25:59.176Z</time>
      </trkpt>
      <trkpt lat="39.41568" lon="-8.47043">
        <ele>14.0</ele>
        <time>2019-05-17T12:26:00.177Z</time>
      </trkpt>
      <trkpt lat="39.41570167" lon="-8.4704">
        <ele>14.0</ele>
        <time>2019-05-17T12:26:01.171Z</time>
      </trkpt>
      <trkpt lat="39.41572167" lon="-8.47037167">
        <ele>14.0</ele>
        <time>2019-05-17T12:26:02.152Z</time>
      </trkpt>
      <trkpt lat="39.41572167" lon="-8.47037167">
        <ele>14.0</ele>
        <time>2019-05-17T12:26:03.158Z</time>
      </trkpt>
      <trkpt lat="39.41576167" lon="-8.47030667">
        <ele>13.0</ele>
        <time>2019-05-17T12:26:04.161Z</time>
      </trkpt>
      <trkpt lat="39.415785" lon="-8.47027333">
        <ele>13.0</ele>
        <time>2019-05-17T12:26:05.178Z</time>
      </trkpt>
      <trkpt lat="39.415785" lon="-8.47027333">
        <ele>13.0</ele>
        <time>2019-05-17T12:26:06.183Z</time>
      </trkpt>
      <trkpt lat="39.41582667" lon="-8.47020833">
        <ele>13.0</ele>
        <time>2019-05-17T12:26:07.176Z</time>
      </trkpt>
      <trkpt lat="39.415845" lon="-8.47017167">
        <ele>13.0</ele>
        <time>2019-05-17T12:26:08.175Z</time>
      </trkpt>
      <trkpt lat="39.415845" lon="-8.47017167">
        <ele>13.0</ele>
        <time>2019-05-17T12:26:09.166Z</time>
      </trkpt>
      <trkpt lat="39.41588833" lon="-8.47010333">
        <ele>13.0</ele>
        <time>2019-05-17T12:26:10.175Z</time>
      </trkpt>
      <trkpt lat="39.41591" lon="-8.47007">
        <ele>12.0</ele>
        <time>2019-05-17T12:26:11.160Z</time>
      </trkpt>
      <trkpt lat="39.41593333" lon="-8.470035">
        <ele>13.0</ele>
        <time>2019-05-17T12:26:12.165Z</time>
      </trkpt>
      <trkpt lat="39.41593333" lon="-8.470035">
        <ele>13.0</ele>
        <time>2019-05-17T12:26:13.185Z</time>
      </trkpt>
      <trkpt lat="39.41597333" lon="-8.46996333">
        <ele>13.0</ele>
        <time>2019-05-17T12:26:14.185Z</time>
      </trkpt>
      <trkpt lat="39.41597333" lon="-8.46996333">
        <ele>13.0</ele>
        <time>2019-05-17T12:26:15.189Z</time>
      </trkpt>
      <trkpt lat="39.41601" lon="-8.46989167">
        <ele>13.0</ele>
        <time>2019-05-17T12:26:16.185Z</time>
      </trkpt>
      <trkpt lat="39.41601" lon="-8.46989167">
        <ele>13.0</ele>
        <time>2019-05-17T12:26:17.151Z</time>
      </trkpt>
      <trkpt lat="39.41604167" lon="-8.46981667">
        <ele>13.0</ele>
        <time>2019-05-17T12:26:18.182Z</time>
      </trkpt>
      <trkpt lat="39.41605667" lon="-8.46977667">
        <ele>13.0</ele>
        <time>2019-05-17T12:26:19.170Z</time>
      </trkpt>
      <trkpt lat="39.41605667" lon="-8.46977667">
        <ele>13.0</ele>
        <time>2019-05-17T12:26:20.188Z</time>
      </trkpt>
      <trkpt lat="39.41608833" lon="-8.469695">
        <ele>13.0</ele>
        <time>2019-05-17T12:26:21.188Z</time>
      </trkpt>
      <trkpt lat="39.416105" lon="-8.469655">
        <ele>13.0</ele>
        <time>2019-05-17T12:26:22.152Z</time>
      </trkpt>
      <trkpt lat="39.416105" lon="-8.469655">
        <ele>13.0</ele>
        <time>2019-05-17T12:26:23.156Z</time>
      </trkpt>
      <trkpt lat="39.416135" lon="-8.469575">
        <ele>13.0</ele>
        <time>2019-05-17T12:26:24.165Z</time>
      </trkpt>
      <trkpt lat="39.416135" lon="-8.469575">
        <ele>13.0</ele>
        <time>2019-05-17T12:26:25.185Z</time>
      </trkpt>
      <trkpt lat="39.41616833" lon="-8.469495">
        <ele>13.0</ele>
        <time>2019-05-17T12:26:26.170Z</time>
      </trkpt>
      <trkpt lat="39.41616833" lon="-8.469495">
        <ele>13.0</ele>
        <time>2019-05-17T12:26:27.175Z</time>
      </trkpt>
      <trkpt lat="39.416205" lon="-8.46942167">
        <ele>13.0</ele>
        <time>2019-05-17T12:26:28.176Z</time>
      </trkpt>
      <trkpt lat="39.416205" lon="-8.46942167">
        <ele>13.0</ele>
        <time>2019-05-17T12:26:29.181Z</time>
      </trkpt>
      <trkpt lat="39.41624" lon="-8.46935333">
        <ele>13.0</ele>
        <time>2019-05-17T12:26:30.155Z</time>
      </trkpt>
      <trkpt lat="39.41624" lon="-8.46935333">
        <ele>13.0</ele>
        <time>2019-05-17T12:26:31.160Z</time>
      </trkpt>
      <trkpt lat="39.41627" lon="-8.469295">
        <ele>13.0</ele>
        <time>2019-05-17T12:26:32.155Z</time>
      </trkpt>
      <trkpt lat="39.41627" lon="-8.469295">
        <ele>13.0</ele>
        <time>2019-05-17T12:26:33.160Z</time>
      </trkpt>
      <trkpt lat="39.41629833" lon="-8.46924167">
        <ele>13.0</ele>
        <time>2019-05-17T12:26:34.181Z</time>
      </trkpt>
      <trkpt lat="39.416315" lon="-8.469215">
        <ele>13.0</ele>
        <time>2019-05-17T12:26:35.185Z</time>
      </trkpt>
      <trkpt lat="39.416315" lon="-8.469215">
        <ele>13.0</ele>
        <time>2019-05-17T12:26:36.151Z</time>
      </trkpt>
      <trkpt lat="39.41635333" lon="-8.46916">
        <ele>13.0</ele>
        <time>2019-05-17T12:26:37.177Z</time>
      </trkpt>
      <trkpt lat="39.41637333" lon="-8.46913333">
        <ele>13.0</ele>
        <time>2019-05-17T12:26:38.169Z</time>
      </trkpt>
      <trkpt lat="39.416395" lon="-8.469105">
        <ele>13.0</ele>
        <time>2019-05-17T12:26:39.187Z</time>
      </trkpt>
      <trkpt lat="39.416395" lon="-8.469105">
        <ele>13.0</ele>
        <time>2019-05-17T12:26:40.159Z</time>
      </trkpt>
      <trkpt lat="39.41643667" lon="-8.46905333">
        <ele>13.0</ele>
        <time>2019-05-17T12:26:41.158Z</time>
      </trkpt>
      <trkpt lat="39.41643667" lon="-8.46905333">
        <ele>13.0</ele>
        <time>2019-05-17T12:26:42.162Z</time>
      </trkpt>
      <trkpt lat="39.41647333" lon="-8.46901167">
        <ele>13.0</ele>
        <time>2019-05-17T12:26:43.162Z</time>
      </trkpt>
      <trkpt lat="39.41649" lon="-8.46899">
        <ele>13.0</ele>
        <time>2019-05-17T12:26:44.174Z</time>
      </trkpt>
      <trkpt lat="39.41649" lon="-8.46899">
        <ele>13.0</ele>
        <time>2019-05-17T12:26:45.182Z</time>
      </trkpt>
      <trkpt lat="39.41652667" lon="-8.46895333">
        <ele>12.0</ele>
        <time>2019-05-17T12:26:46.171Z</time>
      </trkpt>
      <trkpt lat="39.41652667" lon="-8.46895333">
        <ele>12.0</ele>
        <time>2019-05-17T12:26:47.175Z</time>
      </trkpt>
      <trkpt lat="39.41656667" lon="-8.46891">
        <ele>13.0</ele>
        <time>2019-05-17T12:26:48.179Z</time>
      </trkpt>
      <trkpt lat="39.41656667" lon="-8.46891">
        <ele>13.0</ele>
        <time>2019-05-17T12:26:49.184Z</time>
      </trkpt>
      <trkpt lat="39.41660667" lon="-8.46886167">
        <ele>13.0</ele>
        <time>2019-05-17T12:26:50.174Z</time>
      </trkpt>
      <trkpt lat="39.41660667" lon="-8.46886167">
        <ele>13.0</ele>
        <time>2019-05-17T12:26:51.157Z</time>
      </trkpt>
      <trkpt lat="39.41664833" lon="-8.468815">
        <ele>13.0</ele>
        <time>2019-05-17T12:26:52.164Z</time>
      </trkpt>
      <trkpt lat="39.41667167" lon="-8.46879">
        <ele>13.0</ele>
        <time>2019-05-17T12:26:53.171Z</time>
      </trkpt>
      <trkpt lat="39.41667167" lon="-8.46879">
        <ele>13.0</ele>
        <time>2019-05-17T12:26:54.183Z</time>
      </trkpt>
      <trkpt lat="39.41671833" lon="-8.46874167">
        <ele>13.0</ele>
        <time>2019-05-17T12:26:55.155Z</time>
      </trkpt>
      <trkpt lat="39.41674333" lon="-8.46871833">
        <ele>13.0</ele>
        <time>2019-05-17T12:26:56.164Z</time>
      </trkpt>
      <trkpt lat="39.41674333" lon="-8.46871833">
        <ele>13.0</ele>
        <time>2019-05-17T12:26:57.170Z</time>
      </trkpt>
      <trkpt lat="39.41679333" lon="-8.46867">
        <ele>13.0</ele>
        <time>2019-05-17T12:26:58.185Z</time>
      </trkpt>
      <trkpt lat="39.41682" lon="-8.46865">
        <ele>13.0</ele>
        <time>2019-05-17T12:26:59.176Z</time>
      </trkpt>
      <trkpt lat="39.41682" lon="-8.46865">
        <ele>13.0</ele>
        <time>2019-05-17T12:27:00.185Z</time>
      </trkpt>
      <trkpt lat="39.41687167" lon="-8.46860333">
        <ele>13.0</ele>
        <time>2019-05-17T12:27:01.185Z</time>
      </trkpt>
      <trkpt lat="39.41689667" lon="-8.46858167">
        <ele>13.0</ele>
        <time>2019-05-17T12:27:02.190Z</time>
      </trkpt>
      <trkpt lat="39.41689667" lon="-8.46858167">
        <ele>13.0</ele>
        <time>2019-05-17T12:27:03.160Z</time>
      </trkpt>
      <trkpt lat="39.41694833" lon="-8.46853333">
        <ele>13.0</ele>
        <time>2019-05-17T12:27:04.151Z</time>
      </trkpt>
      <trkpt lat="39.41694833" lon="-8.46853333">
        <ele>13.0</ele>
        <time>2019-05-17T12:27:05.183Z</time>
      </trkpt>
      <trkpt lat="39.41700167" lon="-8.46849">
        <ele>14.0</ele>
        <time>2019-05-17T12:27:06.159Z</time>
      </trkpt>
      <trkpt lat="39.41700167" lon="-8.46849">
        <ele>14.0</ele>
        <time>2019-05-17T12:27:07.163Z</time>
      </trkpt>
      <trkpt lat="39.41705" lon="-8.468445">
        <ele>14.0</ele>
        <time>2019-05-17T12:27:08.172Z</time>
      </trkpt>
      <trkpt lat="39.41705" lon="-8.468445">
        <ele>14.0</ele>
        <time>2019-05-17T12:27:09.167Z</time>
      </trkpt>
      <trkpt lat="39.41709333" lon="-8.46840167">
        <ele>13.0</ele>
        <time>2019-05-17T12:27:10.185Z</time>
      </trkpt>
      <trkpt lat="39.41709333" lon="-8.46840167">
        <ele>13.0</ele>
        <time>2019-05-17T12:27:11.151Z</time>
      </trkpt>
      <trkpt lat="39.41713833" lon="-8.46835333">
        <ele>13.0</ele>
        <time>2019-05-17T12:27:12.150Z</time>
      </trkpt>
      <trkpt lat="39.41713833" lon="-8.46835333">
        <ele>13.0</ele>
        <time>2019-05-17T12:27:13.156Z</time>
      </trkpt>
      <trkpt lat="39.41718" lon="-8.468305">
        <ele>13.0</ele>
        <time>2019-05-17T12:27:14.161Z</time>
      </trkpt>
      <trkpt lat="39.41718" lon="-8.468305">
        <ele>13.0</ele>
        <time>2019-05-17T12:27:15.186Z</time>
      </trkpt>
      <trkpt lat="39.41722667" lon="-8.46825667">
        <ele>13.0</ele>
        <time>2019-05-17T12:27:16.169Z</time>
      </trkpt>
      <trkpt lat="39.41722667" lon="-8.46825667">
        <ele>13.0</ele>
        <time>2019-05-17T12:27:17.150Z</time>
      </trkpt>
      <trkpt lat="39.41727667" lon="-8.46821667">
        <ele>13.0</ele>
        <time>2019-05-17T12:27:18.179Z</time>
      </trkpt>
      <trkpt lat="39.41727667" lon="-8.46821667">
        <ele>13.0</ele>
        <time>2019-05-17T12:27:19.185Z</time>
      </trkpt>
      <trkpt lat="39.417325" lon="-8.46817833">
        <ele>13.0</ele>
        <time>2019-05-17T12:27:20.182Z</time>
      </trkpt>
      <trkpt lat="39.417325" lon="-8.46817833">
        <ele>13.0</ele>
        <time>2019-05-17T12:27:21.155Z</time>
      </trkpt>
      <trkpt lat="39.41736667" lon="-8.46812833">
        <ele>13.0</ele>
        <time>2019-05-17T12:27:22.180Z</time>
      </trkpt>
      <trkpt lat="39.41736667" lon="-8.46812833">
        <ele>13.0</ele>
        <time>2019-05-17T12:27:23.186Z</time>
      </trkpt>
      <trkpt lat="39.41741" lon="-8.46808333">
        <ele>13.0</ele>
        <time>2019-05-17T12:27:24.179Z</time>
      </trkpt>
      <trkpt lat="39.41743333" lon="-8.46806333">
        <ele>13.0</ele>
        <time>2019-05-17T12:27:25.169Z</time>
      </trkpt>
      <trkpt lat="39.41745333" lon="-8.46804">
        <ele>13.0</ele>
        <time>2019-05-17T12:27:26.182Z</time>
      </trkpt>
      <trkpt lat="39.41745333" lon="-8.46804">
        <ele>13.0</ele>
        <time>2019-05-17T12:27:27.186Z</time>
      </trkpt>
      <trkpt lat="39.41749667" lon="-8.46799167">
        <ele>13.0</ele>
        <time>2019-05-17T12:27:28.185Z</time>
      </trkpt>
      <trkpt lat="39.41751667" lon="-8.46797">
        <ele>13.0</ele>
        <time>2019-05-17T12:27:29.175Z</time>
      </trkpt>
      <trkpt lat="39.41751667" lon="-8.46797">
        <ele>13.0</ele>
        <time>2019-05-17T12:27:30.182Z</time>
      </trkpt>
      <trkpt lat="39.41755667" lon="-8.46793">
        <ele>13.0</ele>
        <time>2019-05-17T12:27:31.181Z</time>
      </trkpt>
      <trkpt lat="39.41757667" lon="-8.46791">
        <ele>13.0</ele>
        <time>2019-05-17T12:27:32.169Z</time>
      </trkpt>
      <trkpt lat="39.41757667" lon="-8.46791">
        <ele>13.0</ele>
        <time>2019-05-17T12:27:33.176Z</time>
      </trkpt>
      <trkpt lat="39.41761667" lon="-8.46786667">
        <ele>13.0</ele>
        <time>2019-05-17T12:27:34.165Z</time>
      </trkpt>
      <trkpt lat="39.41761667" lon="-8.46786667">
        <ele>13.0</ele>
        <time>2019-05-17T12:27:35.184Z</time>
      </trkpt>
      <trkpt lat="39.41766" lon="-8.467825">
        <ele>13.0</ele>
        <time>2019-05-17T12:27:36.177Z</time>
      </trkpt>
      <trkpt lat="39.41768167" lon="-8.46780333">
        <ele>13.0</ele>
        <time>2019-05-17T12:27:37.186Z</time>
      </trkpt>
      <trkpt lat="39.417705" lon="-8.46778">
        <ele>13.0</ele>
        <time>2019-05-17T12:27:38.188Z</time>
      </trkpt>
      <trkpt lat="39.417705" lon="-8.46778">
        <ele>13.0</ele>
        <time>2019-05-17T12:27:39.155Z</time>
      </trkpt>
      <trkpt lat="39.41775" lon="-8.46773833">
        <ele>13.0</ele>
        <time>2019-05-17T12:27:40.178Z</time>
      </trkpt>
      <trkpt lat="39.41777333" lon="-8.46771833">
        <ele>13.0</ele>
        <time>2019-05-17T12:27:41.169Z</time>
      </trkpt>
      <trkpt lat="39.41777333" lon="-8.46771833">
        <ele>13.0</ele>
        <time>2019-05-17T12:27:42.175Z</time>
      </trkpt>
      <trkpt lat="39.41781833" lon="-8.46767667">
        <ele>13.0</ele>
        <time>2019-05-17T12:27:43.168Z</time>
      </trkpt>
      <trkpt lat="39.41781833" lon="-8.46767667">
        <ele>13.0</ele>
        <time>2019-05-17T12:27:44.174Z</time>
      </trkpt>
      <trkpt lat="39.417865" lon="-8.467635">
        <ele>13.0</ele>
        <time>2019-05-17T12:27:45.175Z</time>
      </trkpt>
      <trkpt lat="39.417865" lon="-8.467635">
        <ele>13.0</ele>
        <time>2019-05-17T12:27:46.187Z</time>
      </trkpt>
      <trkpt lat="39.41790667" lon="-8.46758833">
        <ele>13.0</ele>
        <time>2019-05-17T12:27:47.172Z</time>
      </trkpt>
      <trkpt lat="39.41790667" lon="-8.46758833">
        <ele>13.0</ele>
        <time>2019-05-17T12:27:48.178Z</time>
      </trkpt>
      <trkpt lat="39.41795667" lon="-8.46754667">
        <ele>13.0</ele>
        <time>2019-05-17T12:27:49.162Z</time>
      </trkpt>
      <trkpt lat="39.41798" lon="-8.467525">
        <ele>13.0</ele>
        <time>2019-05-17T12:27:50.161Z</time>
      </trkpt>
      <trkpt lat="39.41798" lon="-8.467525">
        <ele>13.0</ele>
        <time>2019-05-17T12:27:51.157Z</time>
      </trkpt>
      <trkpt lat="39.41803167" lon="-8.46748667">
        <ele>14.0</ele>
        <time>2019-05-17T12:27:52.161Z</time>
      </trkpt>
      <trkpt lat="39.41805667" lon="-8.46746833">
        <ele>13.0</ele>
        <time>2019-05-17T12:27:53.155Z</time>
      </trkpt>
      <trkpt lat="39.41805667" lon="-8.46746833">
        <ele>13.0</ele>
        <time>2019-05-17T12:27:54.160Z</time>
      </trkpt>
      <trkpt lat="39.41810667" lon="-8.46744">
        <ele>13.0</ele>
        <time>2019-05-17T12:27:55.164Z</time>
      </trkpt>
      <trkpt lat="39.41813" lon="-8.46742167">
        <ele>13.0</ele>
        <time>2019-05-17T12:27:56.154Z</time>
      </trkpt>
      <trkpt lat="39.41815333" lon="-8.46740167">
        <ele>13.0</ele>
        <time>2019-05-17T12:27:57.181Z</time>
      </trkpt>
      <trkpt lat="39.41815333" lon="-8.46740167">
        <ele>13.0</ele>
        <time>2019-05-17T12:27:58.187Z</time>
      </trkpt>
      <trkpt lat="39.418205" lon="-8.46736667">
        <ele>14.0</ele>
        <time>2019-05-17T12:27:59.165Z</time>
      </trkpt>
      <trkpt lat="39.418205" lon="-8.46736667">
        <ele>14.0</ele>
        <time>2019-05-17T12:28:00.183Z</time>
      </trkpt>
      <trkpt lat="39.41825667" lon="-8.46733167">
        <ele>14.0</ele>
        <time>2019-05-17T12:28:01.171Z</time>
      </trkpt>
      <trkpt lat="39.41828333" lon="-8.46731333">
        <ele>14.0</ele>
        <time>2019-05-17T12:28:02.159Z</time>
      </trkpt>
      <trkpt lat="39.41828333" lon="-8.46731333">
        <ele>14.0</ele>
        <time>2019-05-17T12:28:03.164Z</time>
      </trkpt>
      <trkpt lat="39.41833667" lon="-8.46727667">
        <ele>13.0</ele>
        <time>2019-05-17T12:28:04.160Z</time>
      </trkpt>
      <trkpt lat="39.41833667" lon="-8.46727667">
        <ele>13.0</ele>
        <time>2019-05-17T12:28:05.151Z</time>
      </trkpt>
      <trkpt lat="39.41839333" lon="-8.46724667">
        <ele>14.0</ele>
        <time>2019-05-17T12:28:06.155Z</time>
      </trkpt>
      <trkpt lat="39.41842" lon="-8.46723167">
        <ele>14.0</ele>
        <time>2019-05-17T12:28:07.190Z</time>
      </trkpt>
      <trkpt lat="39.41842" lon="-8.46723167">
        <ele>14.0</ele>
        <time>2019-05-17T12:28:08.155Z</time>
      </trkpt>
      <trkpt lat="39.41846833" lon="-8.46720333">
        <ele>14.0</ele>
        <time>2019-05-17T12:28:09.185Z</time>
      </trkpt>
      <trkpt lat="39.41849167" lon="-8.46718667">
        <ele>14.0</ele>
        <time>2019-05-17T12:28:10.155Z</time>
      </trkpt>
      <trkpt lat="39.418515" lon="-8.46717333">
        <ele>14.0</ele>
        <time>2019-05-17T12:28:11.155Z</time>
      </trkpt>
      <trkpt lat="39.418515" lon="-8.46717333">
        <ele>14.0</ele>
        <time>2019-05-17T12:28:12.160Z</time>
      </trkpt>
      <trkpt lat="39.41856167" lon="-8.46714667">
        <ele>14.0</ele>
        <time>2019-05-17T12:28:13.189Z</time>
      </trkpt>
      <trkpt lat="39.418585" lon="-8.46713">
        <ele>14.0</ele>
        <time>2019-05-17T12:28:14.163Z</time>
      </trkpt>
      <trkpt lat="39.418585" lon="-8.46713">
        <ele>14.0</ele>
        <time>2019-05-17T12:28:15.167Z</time>
      </trkpt>
      <trkpt lat="39.41863333" lon="-8.467105">
        <ele>15.0</ele>
        <time>2019-05-17T12:28:16.160Z</time>
      </trkpt>
      <trkpt lat="39.41865167" lon="-8.46709">
        <ele>15.0</ele>
        <time>2019-05-17T12:28:17.181Z</time>
      </trkpt>
      <trkpt lat="39.41865167" lon="-8.46709">
        <ele>15.0</ele>
        <time>2019-05-17T12:28:18.187Z</time>
      </trkpt>
      <trkpt lat="39.41868333" lon="-8.46705">
        <ele>15.0</ele>
        <time>2019-05-17T12:28:19.172Z</time>
      </trkpt>
      <trkpt lat="39.41869667" lon="-8.467025">
        <ele>15.0</ele>
        <time>2019-05-17T12:28:20.162Z</time>
      </trkpt>
      <trkpt lat="39.41869667" lon="-8.467025">
        <ele>15.0</ele>
        <time>2019-05-17T12:28:21.152Z</time>
      </trkpt>
      <trkpt lat="39.41871667" lon="-8.46697">
        <ele>15.0</ele>
        <time>2019-05-17T12:28:22.161Z</time>
      </trkpt>
      <trkpt lat="39.41871667" lon="-8.46697">
        <ele>15.0</ele>
        <time>2019-05-17T12:28:23.155Z</time>
      </trkpt>
      <trkpt lat="39.41871833" lon="-8.46691333">
        <ele>16.0</ele>
        <time>2019-05-17T12:28:24.187Z</time>
      </trkpt>
      <trkpt lat="39.41871833" lon="-8.46691333">
        <ele>16.0</ele>
        <time>2019-05-17T12:28:25.154Z</time>
      </trkpt>
      <trkpt lat="39.41870167" lon="-8.46686333">
        <ele>16.0</ele>
        <time>2019-05-17T12:28:26.154Z</time>
      </trkpt>
      <trkpt lat="39.41870167" lon="-8.46686333">
        <ele>16.0</ele>
        <time>2019-05-17T12:28:27.182Z</time>
      </trkpt>
      <trkpt lat="39.418675" lon="-8.46681333">
        <ele>16.0</ele>
        <time>2019-05-17T12:28:28.183Z</time>
      </trkpt>
      <trkpt lat="39.418675" lon="-8.46681333">
        <ele>16.0</ele>
        <time>2019-05-17T12:28:29.189Z</time>
      </trkpt>
      <trkpt lat="39.41863667" lon="-8.46676333">
        <ele>16.0</ele>
        <time>2019-05-17T12:28:30.184Z</time>
      </trkpt>
      <trkpt lat="39.41863667" lon="-8.46676333">
        <ele>16.0</ele>
        <time>2019-05-17T12:28:31.189Z</time>
      </trkpt>
      <trkpt lat="39.41859333" lon="-8.46670667">
        <ele>15.0</ele>
        <time>2019-05-17T12:28:32.193Z</time>
      </trkpt>
      <trkpt lat="39.41859333" lon="-8.46670667">
        <ele>15.0</ele>
        <time>2019-05-17T12:28:33.160Z</time>
      </trkpt>
      <trkpt lat="39.41854833" lon="-8.46667167">
        <ele>15.0</ele>
        <time>2019-05-17T12:28:34.174Z</time>
      </trkpt>
      <trkpt lat="39.41854833" lon="-8.46667167">
        <ele>15.0</ele>
        <time>2019-05-17T12:28:35.165Z</time>
      </trkpt>
      <trkpt lat="39.418515" lon="-8.46665833">
        <ele>15.0</ele>
        <time>2019-05-17T12:28:36.172Z</time>
      </trkpt>
      <trkpt lat="39.418515" lon="-8.46665833">
        <ele>15.0</ele>
        <time>2019-05-17T12:28:37.152Z</time>
      </trkpt>
      <trkpt lat="39.41849167" lon="-8.46663667">
        <ele>15.0</ele>
        <time>2019-05-17T12:28:38.180Z</time>
      </trkpt>
      <trkpt lat="39.41849167" lon="-8.46663667">
        <ele>15.0</ele>
        <time>2019-05-17T12:28:39.153Z</time>
      </trkpt>
      <trkpt lat="39.418465" lon="-8.46660667">
        <ele>15.0</ele>
        <time>2019-05-17T12:28:40.189Z</time>
      </trkpt>
      <trkpt lat="39.418465" lon="-8.46660667">
        <ele>15.0</ele>
        <time>2019-05-17T12:28:41.155Z</time>
      </trkpt>
      <trkpt lat="39.418435" lon="-8.46657333">
        <ele>15.0</ele>
        <time>2019-05-17T12:28:42.185Z</time>
      </trkpt>
      <trkpt lat="39.41842333" lon="-8.46656">
        <ele>15.0</ele>
        <time>2019-05-17T12:28:43.175Z</time>
      </trkpt>
      <trkpt lat="39.418415" lon="-8.46655333">
        <ele>14.0</ele>
        <time>2019-05-17T12:28:44.175Z</time>
      </trkpt>
      <trkpt lat="39.418415" lon="-8.46655333">
        <ele>14.0</ele>
        <time>2019-05-17T12:28:45.155Z</time>
      </trkpt>
      <trkpt lat="39.41841333" lon="-8.46655333">
        <ele>14.0</ele>
        <time>2019-05-17T12:28:46.189Z</time>
      </trkpt>
      <trkpt lat="39.41841333" lon="-8.46655333">
        <ele>14.0</ele>
        <time>2019-05-17T12:28:47.161Z</time>
      </trkpt>
      <trkpt lat="39.41841333" lon="-8.46655333">
        <ele>14.0</ele>
        <time>2019-05-17T12:28:48.168Z</time>
      </trkpt>
      <trkpt lat="39.41841333" lon="-8.46655333">
        <ele>14.0</ele>
        <time>2019-05-17T12:28:49.173Z</time>
      </trkpt>
      <trkpt lat="39.41841333" lon="-8.46655333">
        <ele>14.0</ele>
        <time>2019-05-17T12:28:50.188Z</time>
      </trkpt>
      <trkpt lat="39.41841333" lon="-8.46655333">
        <ele>14.0</ele>
        <time>2019-05-17T12:28:51.155Z</time>
      </trkpt>
      <trkpt lat="39.41841333" lon="-8.46655333">
        <ele>14.0</ele>
        <time>2019-05-17T12:28:52.150Z</time>
      </trkpt>
      <trkpt lat="39.41841333" lon="-8.46655333">
        <ele>14.0</ele>
        <time>2019-05-17T12:28:53.170Z</time>
      </trkpt>
      <trkpt lat="39.41841333" lon="-8.46655333">
        <ele>14.0</ele>
        <time>2019-05-17T12:28:54.157Z</time>
      </trkpt>
      <trkpt lat="39.41841333" lon="-8.46655333">
        <ele>14.0</ele>
        <time>2019-05-17T12:28:55.186Z</time>
      </trkpt>
      <trkpt lat="39.41841333" lon="-8.46655333">
        <ele>14.0</ele>
        <time>2019-05-17T12:28:56.171Z</time>
      </trkpt>
      <trkpt lat="39.41841333" lon="-8.46655333">
        <ele>14.0</ele>
        <time>2019-05-17T12:28:57.157Z</time>
      </trkpt>
      <trkpt lat="39.41841333" lon="-8.46655333">
        <ele>14.0</ele>
        <time>2019-05-17T12:28:58.157Z</time>
      </trkpt>
      <trkpt lat="39.41841333" lon="-8.46655333">
        <ele>14.0</ele>
        <time>2019-05-17T12:28:59.152Z</time>
      </trkpt>
      <trkpt lat="39.41841333" lon="-8.46655333">
        <ele>14.0</ele>
        <time>2019-05-17T12:29:00.153Z</time>
      </trkpt>
      <trkpt lat="39.41841333" lon="-8.46655333">
        <ele>14.0</ele>
        <time>2019-05-17T12:29:01.155Z</time>
      </trkpt>
      <trkpt lat="39.41841333" lon="-8.46655333">
        <ele>14.0</ele>
        <time>2019-05-17T12:29:02.157Z</time>
      </trkpt>
      <trkpt lat="39.41841333" lon="-8.46655333">
        <ele>14.0</ele>
        <time>2019-05-17T12:29:03.153Z</time>
      </trkpt>
      <trkpt lat="39.41841333" lon="-8.46655333">
        <ele>14.0</ele>
        <time>2019-05-17T12:29:04.154Z</time>
      </trkpt>
      <trkpt lat="39.41841333" lon="-8.46655333">
        <ele>14.0</ele>
        <time>2019-05-17T12:29:05.156Z</time>
      </trkpt>
      <trkpt lat="39.41841333" lon="-8.46655333">
        <ele>14.0</ele>
        <time>2019-05-17T12:29:06.156Z</time>
      </trkpt>
      <trkpt lat="39.41841333" lon="-8.46655333">
        <ele>14.0</ele>
        <time>2019-05-17T12:29:07.190Z</time>
      </trkpt>
      <trkpt lat="39.41841333" lon="-8.46655333">
        <ele>14.0</ele>
        <time>2019-05-17T12:29:08.177Z</time>
      </trkpt>
      <trkpt lat="39.41841333" lon="-8.46655333">
        <ele>14.0</ele>
        <time>2019-05-17T12:29:09.162Z</time>
      </trkpt>
      <trkpt lat="39.41841333" lon="-8.46655333">
        <ele>14.0</ele>
        <time>2019-05-17T12:29:10.174Z</time>
      </trkpt>
      <trkpt lat="39.41841333" lon="-8.46655333">
        <ele>14.0</ele>
        <time>2019-05-17T12:29:11.187Z</time>
      </trkpt>
      <trkpt lat="39.41841333" lon="-8.46655333">
        <ele>14.0</ele>
        <time>2019-05-17T12:29:12.153Z</time>
      </trkpt>
      <trkpt lat="39.41841333" lon="-8.46655333">
        <ele>14.0</ele>
        <time>2019-05-17T12:29:13.159Z</time>
      </trkpt>
      <trkpt lat="39.41841333" lon="-8.46655333">
        <ele>14.0</ele>
        <time>2019-05-17T12:29:14.159Z</time>
      </trkpt>
      <trkpt lat="39.41841333" lon="-8.46655333">
        <ele>14.0</ele>
        <time>2019-05-17T12:29:15.155Z</time>
      </trkpt>
      <trkpt lat="39.41841333" lon="-8.46655333">
        <ele>14.0</ele>
        <time>2019-05-17T12:29:16.150Z</time>
      </trkpt>
      <trkpt lat="39.41841333" lon="-8.46655333">
        <ele>14.0</ele>
        <time>2019-05-17T12:29:17.155Z</time>
      </trkpt>
      <trkpt lat="39.41841333" lon="-8.46655333">
        <ele>14.0</ele>
        <time>2019-05-17T12:29:18.156Z</time>
      </trkpt>
      <trkpt lat="39.41841333" lon="-8.46655333">
        <ele>14.0</ele>
        <time>2019-05-17T12:29:19.153Z</time>
      </trkpt>
      <trkpt lat="39.41841333" lon="-8.46655333">
        <ele>14.0</ele>
        <time>2019-05-17T12:29:20.157Z</time>
      </trkpt>
      <trkpt lat="39.41841333" lon="-8.46655333">
        <ele>14.0</ele>
        <time>2019-05-17T12:29:21.153Z</time>
      </trkpt>
      <trkpt lat="39.41841333" lon="-8.46655333">
        <ele>14.0</ele>
        <time>2019-05-17T12:29:22.155Z</time>
      </trkpt>
      <trkpt lat="39.41841333" lon="-8.46655333">
        <ele>14.0</ele>
        <time>2019-05-17T12:29:23.156Z</time>
      </trkpt>
      <trkpt lat="39.41841333" lon="-8.46655333">
        <ele>14.0</ele>
        <time>2019-05-17T12:29:24.190Z</time>
      </trkpt>
      <trkpt lat="39.41841333" lon="-8.46655333">
        <ele>14.0</ele>
        <time>2019-05-17T12:29:25.155Z</time>
      </trkpt>
      <trkpt lat="39.41841333" lon="-8.46655333">
        <ele>14.0</ele>
        <time>2019-05-17T12:29:26.157Z</time>
      </trkpt>
      <trkpt lat="39.41841333" lon="-8.46655333">
        <ele>14.0</ele>
        <time>2019-05-17T12:29:27.156Z</time>
      </trkpt>
      <trkpt lat="39.41841333" lon="-8.46655333">
        <ele>14.0</ele>
        <time>2019-05-17T12:29:28.150Z</time>
      </trkpt>
      <trkpt lat="39.41841333" lon="-8.46655333">
        <ele>14.0</ele>
        <time>2019-05-17T12:29:29.154Z</time>
      </trkpt>
      <trkpt lat="39.41841333" lon="-8.46655333">
        <ele>14.0</ele>
        <time>2019-05-17T12:29:30.155Z</time>
      </trkpt>
      <trkpt lat="39.41841333" lon="-8.46655333">
        <ele>14.0</ele>
        <time>2019-05-17T12:29:31.153Z</time>
      </trkpt>
      <trkpt lat="39.41841333" lon="-8.46655333">
        <ele>14.0</ele>
        <time>2019-05-17T12:29:32.157Z</time>
      </trkpt>
      <trkpt lat="39.41841333" lon="-8.46655333">
        <ele>14.0</ele>
        <time>2019-05-17T12:29:33.190Z</time>
      </trkpt>
      <trkpt lat="39.41841333" lon="-8.46655333">
        <ele>14.0</ele>
        <time>2019-05-17T12:29:34.175Z</time>
      </trkpt>
      <trkpt lat="39.41841333" lon="-8.46655333">
        <ele>14.0</ele>
        <time>2019-05-17T12:29:35.160Z</time>
      </trkpt>
      <trkpt lat="39.41841333" lon="-8.46655333">
        <ele>14.0</ele>
        <time>2019-05-17T12:29:36.189Z</time>
      </trkpt>
      <trkpt lat="39.41841333" lon="-8.46655333">
        <ele>14.0</ele>
        <time>2019-05-17T12:29:37.156Z</time>
      </trkpt>
      <trkpt lat="39.41841333" lon="-8.46655333">
        <ele>14.0</ele>
        <time>2019-05-17T12:29:38.154Z</time>
      </trkpt>
      <trkpt lat="39.41841333" lon="-8.46655333">
        <ele>14.0</ele>
        <time>2019-05-17T12:29:39.155Z</time>
      </trkpt>
      <trkpt lat="39.41841333" lon="-8.46655333">
        <ele>14.0</ele>
        <time>2019-05-17T12:29:40.154Z</time>
      </trkpt>
      <trkpt lat="39.41841333" lon="-8.46655333">
        <ele>14.0</ele>
        <time>2019-05-17T12:29:41.150Z</time>
      </trkpt>
      <trkpt lat="39.41841333" lon="-8.46655333">
        <ele>14.0</ele>
        <time>2019-05-17T12:29:42.155Z</time>
      </trkpt>
      <trkpt lat="39.41841333" lon="-8.46655333">
        <ele>14.0</ele>
        <time>2019-05-17T12:29:43.152Z</time>
      </trkpt>
      <trkpt lat="39.41841333" lon="-8.46655333">
        <ele>14.0</ele>
        <time>2019-05-17T12:29:44.158Z</time>
      </trkpt>
      <trkpt lat="39.41841333" lon="-8.46655333">
        <ele>14.0</ele>
        <time>2019-05-17T12:29:45.153Z</time>
      </trkpt>
      <trkpt lat="39.41841333" lon="-8.46655333">
        <ele>14.0</ele>
        <time>2019-05-17T12:29:46.155Z</time>
      </trkpt>
      <trkpt lat="39.41841333" lon="-8.46655333">
        <ele>14.0</ele>
        <time>2019-05-17T12:29:47.156Z</time>
      </trkpt>
      <trkpt lat="39.41841333" lon="-8.46655333">
        <ele>14.0</ele>
        <time>2019-05-17T12:29:48.152Z</time>
      </trkpt>
      <trkpt lat="39.41841333" lon="-8.46655333">
        <ele>14.0</ele>
        <time>2019-05-17T12:29:49.152Z</time>
      </trkpt>
      <trkpt lat="39.41841333" lon="-8.46655333">
        <ele>14.0</ele>
        <time>2019-05-17T12:29:50.166Z</time>
      </trkpt>
      <trkpt lat="39.41841333" lon="-8.46655333">
        <ele>14.0</ele>
        <time>2019-05-17T12:29:51.155Z</time>
      </trkpt>
      <trkpt lat="39.41841333" lon="-8.46655333">
        <ele>14.0</ele>
        <time>2019-05-17T12:29:52.189Z</time>
      </trkpt>
      <trkpt lat="39.41841333" lon="-8.46655333">
        <ele>14.0</ele>
        <time>2019-05-17T12:29:53.156Z</time>
      </trkpt>
      <trkpt lat="39.41841333" lon="-8.46655333">
        <ele>14.0</ele>
        <time>2019-05-17T12:29:54.150Z</time>
      </trkpt>
      <trkpt lat="39.41841333" lon="-8.46655333">
        <ele>14.0</ele>
        <time>2019-05-17T12:29:55.155Z</time>
      </trkpt>
      <trkpt lat="39.41841333" lon="-8.46655333">
        <ele>14.0</ele>
        <time>2019-05-17T12:29:56.188Z</time>
      </trkpt>
      <trkpt lat="39.41841333" lon="-8.46655333">
        <ele>14.0</ele>
        <time>2019-05-17T12:29:57.154Z</time>
      </trkpt>
      <trkpt lat="39.41841333" lon="-8.46655333">
        <ele>14.0</ele>
        <time>2019-05-17T12:29:58.155Z</time>
      </trkpt>
      <trkpt lat="39.41841333" lon="-8.46655333">
        <ele>14.0</ele>
        <time>2019-05-17T12:29:59.155Z</time>
      </trkpt>
      <trkpt lat="39.41841333" lon="-8.46655333">
        <ele>14.0</ele>
        <time>2019-05-17T12:30:00.189Z</time>
      </trkpt>
      <trkpt lat="39.41841333" lon="-8.46655333">
        <ele>14.0</ele>
        <time>2019-05-17T12:30:01.152Z</time>
      </trkpt>
      <trkpt lat="39.41841333" lon="-8.46655333">
        <ele>14.0</ele>
        <time>2019-05-17T12:30:02.152Z</time>
      </trkpt>
      <trkpt lat="39.41841333" lon="-8.46655333">
        <ele>14.0</ele>
        <time>2019-05-17T12:30:03.154Z</time>
      </trkpt>
      <trkpt lat="39.41841333" lon="-8.46655333">
        <ele>14.0</ele>
        <time>2019-05-17T12:30:04.153Z</time>
      </trkpt>
      <trkpt lat="39.41841333" lon="-8.46655333">
        <ele>14.0</ele>
        <time>2019-05-17T12:30:05.155Z</time>
      </trkpt>
      <trkpt lat="39.41841333" lon="-8.46655333">
        <ele>14.0</ele>
        <time>2019-05-17T12:30:06.150Z</time>
      </trkpt>
      <trkpt lat="39.41841333" lon="-8.46655333">
        <ele>14.0</ele>
        <time>2019-05-17T12:30:07.155Z</time>
      </trkpt>
      <trkpt lat="39.41841333" lon="-8.46655333">
        <ele>14.0</ele>
        <time>2019-05-17T12:30:08.151Z</time>
      </trkpt>
      <trkpt lat="39.41841333" lon="-8.46655333">
        <ele>14.0</ele>
        <time>2019-05-17T12:30:09.157Z</time>
      </trkpt>
      <trkpt lat="39.41841333" lon="-8.46655333">
        <ele>14.0</ele>
        <time>2019-05-17T12:30:10.173Z</time>
      </trkpt>
      <trkpt lat="39.41841333" lon="-8.46655333">
        <ele>14.0</ele>
        <time>2019-05-17T12:30:11.184Z</time>
      </trkpt>
      <trkpt lat="39.41841333" lon="-8.46655333">
        <ele>14.0</ele>
        <time>2019-05-17T12:30:12.155Z</time>
      </trkpt>
      <trkpt lat="39.41841333" lon="-8.46655333">
        <ele>14.0</ele>
        <time>2019-05-17T12:30:13.151Z</time>
      </trkpt>
      <trkpt lat="39.41841333" lon="-8.46655333">
        <ele>14.0</ele>
        <time>2019-05-17T12:30:14.157Z</time>
      </trkpt>
      <trkpt lat="39.41841333" lon="-8.46655333">
        <ele>14.0</ele>
        <time>2019-05-17T12:30:15.156Z</time>
      </trkpt>
      <trkpt lat="39.41841333" lon="-8.46655333">
        <ele>14.0</ele>
        <time>2019-05-17T12:30:16.154Z</time>
      </trkpt>
      <trkpt lat="39.41841333" lon="-8.46655333">
        <ele>14.0</ele>
        <time>2019-05-17T12:30:17.154Z</time>
      </trkpt>
      <trkpt lat="39.41841333" lon="-8.46655333">
        <ele>14.0</ele>
        <time>2019-05-17T12:30:18.155Z</time>
      </trkpt>
      <trkpt lat="39.41841333" lon="-8.46655333">
        <ele>14.0</ele>
        <time>2019-05-17T12:30:19.155Z</time>
      </trkpt>
      <trkpt lat="39.41841333" lon="-8.46655333">
        <ele>14.0</ele>
        <time>2019-05-17T12:30:20.152Z</time>
      </trkpt>
      <trkpt lat="39.41841333" lon="-8.46655333">
        <ele>14.0</ele>
        <time>2019-05-17T12:30:21.157Z</time>
      </trkpt>
      <trkpt lat="39.41841333" lon="-8.46655333">
        <ele>14.0</ele>
        <time>2019-05-17T12:30:22.150Z</time>
      </trkpt>
      <trkpt lat="39.41841333" lon="-8.46655333">
        <ele>14.0</ele>
        <time>2019-05-17T12:30:23.155Z</time>
      </trkpt>
      <trkpt lat="39.41841333" lon="-8.46655333">
        <ele>14.0</ele>
        <time>2019-05-17T12:30:24.153Z</time>
      </trkpt>
      <trkpt lat="39.41841333" lon="-8.46655333">
        <ele>14.0</ele>
        <time>2019-05-17T12:30:25.156Z</time>
      </trkpt>
      <trkpt lat="39.41841333" lon="-8.46655333">
        <ele>14.0</ele>
        <time>2019-05-17T12:30:26.170Z</time>
      </trkpt>
      <trkpt lat="39.41841333" lon="-8.46655333">
        <ele>14.0</ele>
        <time>2019-05-17T12:30:27.155Z</time>
      </trkpt>
      <trkpt lat="39.41841333" lon="-8.46655333">
        <ele>14.0</ele>
        <time>2019-05-17T12:30:28.150Z</time>
      </trkpt>
      <trkpt lat="39.41841333" lon="-8.46655333">
        <ele>14.0</ele>
        <time>2019-05-17T12:30:29.154Z</time>
      </trkpt>
      <trkpt lat="39.41841333" lon="-8.46655333">
        <ele>14.0</ele>
        <time>2019-05-17T12:30:30.154Z</time>
      </trkpt>
      <trkpt lat="39.41839167" lon="-8.46653333">
        <ele>14.0</ele>
        <time>2019-05-17T12:30:31.156Z</time>
      </trkpt>
      <trkpt lat="39.41839167" lon="-8.46653333">
        <ele>14.0</ele>
        <time>2019-05-17T12:30:32.151Z</time>
      </trkpt>
      <trkpt lat="39.41838167" lon="-8.466525">
        <ele>14.0</ele>
        <time>2019-05-17T12:30:33.156Z</time>
      </trkpt>
      <trkpt lat="39.41838167" lon="-8.466525">
        <ele>14.0</ele>
        <time>2019-05-17T12:30:34.150Z</time>
      </trkpt>
      <trkpt lat="39.41838" lon="-8.466525">
        <ele>14.0</ele>
        <time>2019-05-17T12:30:35.154Z</time>
      </trkpt>
      <trkpt lat="39.41838" lon="-8.466525">
        <ele>14.0</ele>
        <time>2019-05-17T12:30:36.150Z</time>
      </trkpt>
      <trkpt lat="39.41838" lon="-8.466525">
        <ele>14.0</ele>
        <time>2019-05-17T12:30:37.155Z</time>
      </trkpt>
      <trkpt lat="39.41838" lon="-8.466525">
        <ele>14.0</ele>
        <time>2019-05-17T12:30:38.152Z</time>
      </trkpt>
      <trkpt lat="39.41838" lon="-8.466525">
        <ele>14.0</ele>
        <time>2019-05-17T12:30:39.154Z</time>
      </trkpt>
      <trkpt lat="39.41838" lon="-8.466525">
        <ele>14.0</ele>
        <time>2019-05-17T12:30:40.150Z</time>
      </trkpt>
      <trkpt lat="39.41838" lon="-8.466525">
        <ele>14.0</ele>
        <time>2019-05-17T12:30:41.155Z</time>
      </trkpt>
      <trkpt lat="39.41838" lon="-8.466525">
        <ele>14.0</ele>
        <time>2019-05-17T12:30:42.190Z</time>
      </trkpt>
      <trkpt lat="39.41838" lon="-8.466525">
        <ele>14.0</ele>
        <time>2019-05-17T12:30:43.154Z</time>
      </trkpt>
      <trkpt lat="39.41838" lon="-8.466525">
        <ele>14.0</ele>
        <time>2019-05-17T12:30:44.157Z</time>
      </trkpt>
      <trkpt lat="39.41838" lon="-8.466525">
        <ele>14.0</ele>
        <time>2019-05-17T12:30:45.187Z</time>
      </trkpt>
      <trkpt lat="39.41838" lon="-8.466525">
        <ele>14.0</ele>
        <time>2019-05-17T12:30:46.152Z</time>
      </trkpt>
      <trkpt lat="39.41838" lon="-8.466525">
        <ele>14.0</ele>
        <time>2019-05-17T12:30:47.150Z</time>
      </trkpt>
      <trkpt lat="39.41838" lon="-8.466525">
        <ele>14.0</ele>
        <time>2019-05-17T12:30:48.175Z</time>
      </trkpt>
      <trkpt lat="39.41838" lon="-8.466525">
        <ele>14.0</ele>
        <time>2019-05-17T12:30:49.160Z</time>
      </trkpt>
      <trkpt lat="39.41838" lon="-8.466525">
        <ele>14.0</ele>
        <time>2019-05-17T12:30:50.162Z</time>
      </trkpt>
      <trkpt lat="39.41838" lon="-8.466525">
        <ele>14.0</ele>
        <time>2019-05-17T12:30:51.150Z</time>
      </trkpt>
      <trkpt lat="39.41838" lon="-8.466525">
        <ele>14.0</ele>
        <time>2019-05-17T12:30:52.152Z</time>
      </trkpt>
      <trkpt lat="39.41838" lon="-8.466525">
        <ele>14.0</ele>
        <time>2019-05-17T12:30:53.150Z</time>
      </trkpt>
      <trkpt lat="39.41838" lon="-8.466525">
        <ele>14.0</ele>
        <time>2019-05-17T12:30:54.167Z</time>
      </trkpt>
      <trkpt lat="39.41838" lon="-8.466525">
        <ele>14.0</ele>
        <time>2019-05-17T12:30:55.152Z</time>
      </trkpt>
      <trkpt lat="39.41836667" lon="-8.46650333">
        <ele>14.0</ele>
        <time>2019-05-17T12:30:56.189Z</time>
      </trkpt>
      <trkpt lat="39.41835333" lon="-8.466495">
        <ele>14.0</ele>
        <time>2019-05-17T12:30:57.154Z</time>
      </trkpt>
      <trkpt lat="39.41835333" lon="-8.466495">
        <ele>14.0</ele>
        <time>2019-05-17T12:30:58.150Z</time>
      </trkpt>
      <trkpt lat="39.41832333" lon="-8.46647167">
        <ele>14.0</ele>
        <time>2019-05-17T12:30:59.154Z</time>
      </trkpt>
      <trkpt lat="39.41830667" lon="-8.46646">
        <ele>14.0</ele>
        <time>2019-05-17T12:31:00.155Z</time>
      </trkpt>
      <trkpt lat="39.41829" lon="-8.466445">
        <ele>14.0</ele>
        <time>2019-05-17T12:31:01.184Z</time>
      </trkpt>
      <trkpt lat="39.41829" lon="-8.466445">
        <ele>14.0</ele>
        <time>2019-05-17T12:31:02.159Z</time>
      </trkpt>
      <trkpt lat="39.418255" lon="-8.46641667">
        <ele>14.0</ele>
        <time>2019-05-17T12:31:03.165Z</time>
      </trkpt>
      <trkpt lat="39.41824" lon="-8.46639833">
        <ele>14.0</ele>
        <time>2019-05-17T12:31:04.165Z</time>
      </trkpt>
      <trkpt lat="39.41824" lon="-8.46639833">
        <ele>14.0</ele>
        <time>2019-05-17T12:31:05.170Z</time>
      </trkpt>
      <trkpt lat="39.418205" lon="-8.46636667">
        <ele>14.0</ele>
        <time>2019-05-17T12:31:06.184Z</time>
      </trkpt>
      <trkpt lat="39.418205" lon="-8.46636667">
        <ele>14.0</ele>
        <time>2019-05-17T12:31:07.158Z</time>
      </trkpt>
      <trkpt lat="39.41817" lon="-8.46633833">
        <ele>14.0</ele>
        <time>2019-05-17T12:31:08.187Z</time>
      </trkpt>
      <trkpt lat="39.41817" lon="-8.46633833">
        <ele>14.0</ele>
        <time>2019-05-17T12:31:09.167Z</time>
      </trkpt>
      <trkpt lat="39.41814" lon="-8.46631833">
        <ele>14.0</ele>
        <time>2019-05-17T12:31:10.168Z</time>
      </trkpt>
      <trkpt lat="39.41814" lon="-8.46631833">
        <ele>14.0</ele>
        <time>2019-05-17T12:31:11.183Z</time>
      </trkpt>
      <trkpt lat="39.41811" lon="-8.46629667">
        <ele>14.0</ele>
        <time>2019-05-17T12:31:12.165Z</time>
      </trkpt>
      <trkpt lat="39.41811" lon="-8.46629667">
        <ele>14.0</ele>
        <time>2019-05-17T12:31:13.170Z</time>
      </trkpt>
      <trkpt lat="39.418065" lon="-8.46626">
        <ele>14.0</ele>
        <time>2019-05-17T12:31:14.165Z</time>
      </trkpt>
      <trkpt lat="39.418065" lon="-8.46626">
        <ele>14.0</ele>
        <time>2019-05-17T12:31:15.182Z</time>
      </trkpt>
      <trkpt lat="39.41801167" lon="-8.466215">
        <ele>14.0</ele>
        <time>2019-05-17T12:31:16.178Z</time>
      </trkpt>
      <trkpt lat="39.41801167" lon="-8.466215">
        <ele>14.0</ele>
        <time>2019-05-17T12:31:17.183Z</time>
      </trkpt>
      <trkpt lat="39.41796167" lon="-8.46617167">
        <ele>13.0</ele>
        <time>2019-05-17T12:31:18.152Z</time>
      </trkpt>
      <trkpt lat="39.41796167" lon="-8.46617167">
        <ele>13.0</ele>
        <time>2019-05-17T12:31:19.157Z</time>
      </trkpt>
      <trkpt lat="39.41791833" lon="-8.46613">
        <ele>13.0</ele>
        <time>2019-05-17T12:31:20.190Z</time>
      </trkpt>
      <trkpt lat="39.41791833" lon="-8.46613">
        <ele>13.0</ele>
        <time>2019-05-17T12:31:21.155Z</time>
      </trkpt>
      <trkpt lat="39.41786667" lon="-8.466085">
        <ele>13.0</ele>
        <time>2019-05-17T12:31:22.155Z</time>
      </trkpt>
      <trkpt lat="39.41786667" lon="-8.466085">
        <ele>13.0</ele>
        <time>2019-05-17T12:31:23.185Z</time>
      </trkpt>
      <trkpt lat="39.41781167" lon="-8.46603667">
        <ele>13.0</ele>
        <time>2019-05-17T12:31:24.179Z</time>
      </trkpt>
      <trkpt lat="39.41778667" lon="-8.466015">
        <ele>13.0</ele>
        <time>2019-05-17T12:31:25.156Z</time>
      </trkpt>
      <trkpt lat="39.41776167" lon="-8.46599">
        <ele>13.0</ele>
        <time>2019-05-17T12:31:26.172Z</time>
      </trkpt>
      <trkpt lat="39.41776167" lon="-8.46599">
        <ele>13.0</ele>
        <time>2019-05-17T12:31:27.178Z</time>
      </trkpt>
      <trkpt lat="39.41771833" lon="-8.46594">
        <ele>13.0</ele>
        <time>2019-05-17T12:31:28.175Z</time>
      </trkpt>
      <trkpt lat="39.41771833" lon="-8.46594">
        <ele>13.0</ele>
        <time>2019-05-17T12:31:29.189Z</time>
      </trkpt>
      <trkpt lat="39.41767" lon="-8.46590167">
        <ele>13.0</ele>
        <time>2019-05-17T12:31:30.185Z</time>
      </trkpt>
      <trkpt lat="39.41767" lon="-8.46590167">
        <ele>13.0</ele>
        <time>2019-05-17T12:31:31.154Z</time>
      </trkpt>
      <trkpt lat="39.41763333" lon="-8.46586">
        <ele>13.0</ele>
        <time>2019-05-17T12:31:32.150Z</time>
      </trkpt>
      <trkpt lat="39.41763333" lon="-8.46586">
        <ele>13.0</ele>
        <time>2019-05-17T12:31:33.170Z</time>
      </trkpt>
      <trkpt lat="39.41761333" lon="-8.465815">
        <ele>13.0</ele>
        <time>2019-05-17T12:31:34.175Z</time>
      </trkpt>
      <trkpt lat="39.41761333" lon="-8.465815">
        <ele>13.0</ele>
        <time>2019-05-17T12:31:35.156Z</time>
      </trkpt>
      <trkpt lat="39.41761333" lon="-8.46577667">
        <ele>13.0</ele>
        <time>2019-05-17T12:31:36.165Z</time>
      </trkpt>
      <trkpt lat="39.41761333" lon="-8.46577667">
        <ele>13.0</ele>
        <time>2019-05-17T12:31:37.178Z</time>
      </trkpt>
      <trkpt lat="39.41764" lon="-8.46573833">
        <ele>13.0</ele>
        <time>2019-05-17T12:31:38.173Z</time>
      </trkpt>
      <trkpt lat="39.41764" lon="-8.46573833">
        <ele>13.0</ele>
        <time>2019-05-17T12:31:39.178Z</time>
      </trkpt>
      <trkpt lat="39.41768667" lon="-8.46571667">
        <ele>13.0</ele>
        <time>2019-05-17T12:31:40.179Z</time>
      </trkpt>
      <trkpt lat="39.41768667" lon="-8.46571667">
        <ele>13.0</ele>
        <time>2019-05-17T12:31:41.186Z</time>
      </trkpt>
      <trkpt lat="39.41773833" lon="-8.46569667">
        <ele>13.0</ele>
        <time>2019-05-17T12:31:42.173Z</time>
      </trkpt>
      <trkpt lat="39.41773833" lon="-8.46569667">
        <ele>13.0</ele>
        <time>2019-05-17T12:31:43.180Z</time>
      </trkpt>
      <trkpt lat="39.417795" lon="-8.46568">
        <ele>13.0</ele>
        <time>2019-05-17T12:31:44.165Z</time>
      </trkpt>
      <trkpt lat="39.417795" lon="-8.46568">
        <ele>13.0</ele>
        <time>2019-05-17T12:31:45.179Z</time>
      </trkpt>
      <trkpt lat="39.41785333" lon="-8.46566167">
        <ele>13.0</ele>
        <time>2019-05-17T12:31:46.187Z</time>
      </trkpt>
      <trkpt lat="39.41785333" lon="-8.46566167">
        <ele>13.0</ele>
        <time>2019-05-17T12:31:47.152Z</time>
      </trkpt>
      <trkpt lat="39.41791667" lon="-8.46564333">
        <ele>13.0</ele>
        <time>2019-05-17T12:31:48.185Z</time>
      </trkpt>
      <trkpt lat="39.41791667" lon="-8.46564333">
        <ele>13.0</ele>
        <time>2019-05-17T12:31:49.159Z</time>
      </trkpt>
      <trkpt lat="39.41798" lon="-8.46562667">
        <ele>13.0</ele>
        <time>2019-05-17T12:31:50.165Z</time>
      </trkpt>
      <trkpt lat="39.41798" lon="-8.46562667">
        <ele>13.0</ele>
        <time>2019-05-17T12:31:51.183Z</time>
      </trkpt>
      <trkpt lat="39.41804167" lon="-8.46560667">
        <ele>13.0</ele>
        <time>2019-05-17T12:31:52.175Z</time>
      </trkpt>
      <trkpt lat="39.41804167" lon="-8.46560667">
        <ele>13.0</ele>
        <time>2019-05-17T12:31:53.182Z</time>
      </trkpt>
      <trkpt lat="39.41810333" lon="-8.46559167">
        <ele>13.0</ele>
        <time>2019-05-17T12:31:54.160Z</time>
      </trkpt>
      <trkpt lat="39.418135" lon="-8.465585">
        <ele>13.0</ele>
        <time>2019-05-17T12:31:55.150Z</time>
      </trkpt>
      <trkpt lat="39.418165" lon="-8.46557667">
        <ele>13.0</ele>
        <time>2019-05-17T12:31:56.166Z</time>
      </trkpt>
      <trkpt lat="39.418165" lon="-8.46557667">
        <ele>13.0</ele>
        <time>2019-05-17T12:31:57.174Z</time>
      </trkpt>
      <trkpt lat="39.418225" lon="-8.46555833">
        <ele>14.0</ele>
        <time>2019-05-17T12:31:58.171Z</time>
      </trkpt>
      <trkpt lat="39.418225" lon="-8.46555833">
        <ele>14.0</ele>
        <time>2019-05-17T12:31:59.181Z</time>
      </trkpt>
      <trkpt lat="39.41828833" lon="-8.46554167">
        <ele>14.0</ele>
        <time>2019-05-17T12:32:00.187Z</time>
      </trkpt>
      <trkpt lat="39.41832" lon="-8.46553333">
        <ele>14.0</ele>
        <time>2019-05-17T12:32:01.182Z</time>
      </trkpt>
      <trkpt lat="39.41835" lon="-8.46552333">
        <ele>14.0</ele>
        <time>2019-05-17T12:32:02.175Z</time>
      </trkpt>
      <trkpt lat="39.41835" lon="-8.46552333">
        <ele>14.0</ele>
        <time>2019-05-17T12:32:03.180Z</time>
      </trkpt>
      <trkpt lat="39.418415" lon="-8.46550833">
        <ele>14.0</ele>
        <time>2019-05-17T12:32:04.187Z</time>
      </trkpt>
      <trkpt lat="39.418415" lon="-8.46550833">
        <ele>14.0</ele>
        <time>2019-05-17T12:32:05.169Z</time>
      </trkpt>
      <trkpt lat="39.41848333" lon="-8.46548833">
        <ele>14.0</ele>
        <time>2019-05-17T12:32:06.173Z</time>
      </trkpt>
      <trkpt lat="39.41848333" lon="-8.46548833">
        <ele>14.0</ele>
        <time>2019-05-17T12:32:07.150Z</time>
      </trkpt>
      <trkpt lat="39.41855167" lon="-8.46546833">
        <ele>14.0</ele>
        <time>2019-05-17T12:32:08.181Z</time>
      </trkpt>
      <trkpt lat="39.41855167" lon="-8.46546833">
        <ele>14.0</ele>
        <time>2019-05-17T12:32:09.153Z</time>
      </trkpt>
      <trkpt lat="39.41861833" lon="-8.465445">
        <ele>14.0</ele>
        <time>2019-05-17T12:32:10.177Z</time>
      </trkpt>
      <trkpt lat="39.41865167" lon="-8.46543667">
        <ele>14.0</ele>
        <time>2019-05-17T12:32:11.154Z</time>
      </trkpt>
      <trkpt lat="39.41865167" lon="-8.46543667">
        <ele>14.0</ele>
        <time>2019-05-17T12:32:12.177Z</time>
      </trkpt>
      <trkpt lat="39.41872" lon="-8.46541167">
        <ele>14.0</ele>
        <time>2019-05-17T12:32:13.177Z</time>
      </trkpt>
      <trkpt lat="39.41875333" lon="-8.46540167">
        <ele>14.0</ele>
        <time>2019-05-17T12:32:14.183Z</time>
      </trkpt>
      <trkpt lat="39.41878833" lon="-8.46539">
        <ele>14.0</ele>
        <time>2019-05-17T12:32:15.170Z</time>
      </trkpt>
      <trkpt lat="39.41878833" lon="-8.46539">
        <ele>14.0</ele>
        <time>2019-05-17T12:32:16.187Z</time>
      </trkpt>
      <trkpt lat="39.41885667" lon="-8.46536667">
        <ele>14.0</ele>
        <time>2019-05-17T12:32:17.171Z</time>
      </trkpt>
      <trkpt lat="39.41885667" lon="-8.46536667">
        <ele>14.0</ele>
        <time>2019-05-17T12:32:18.179Z</time>
      </trkpt>
      <trkpt lat="39.418925" lon="-8.46535">
        <ele>14.0</ele>
        <time>2019-05-17T12:32:19.173Z</time>
      </trkpt>
      <trkpt lat="39.41895833" lon="-8.46533833">
        <ele>14.0</ele>
        <time>2019-05-17T12:32:20.189Z</time>
      </trkpt>
      <trkpt lat="39.41895833" lon="-8.46533833">
        <ele>14.0</ele>
        <time>2019-05-17T12:32:21.154Z</time>
      </trkpt>
      <trkpt lat="39.41902667" lon="-8.46531833">
        <ele>14.0</ele>
        <time>2019-05-17T12:32:22.152Z</time>
      </trkpt>
      <trkpt lat="39.41902667" lon="-8.46531833">
        <ele>14.0</ele>
        <time>2019-05-17T12:32:23.157Z</time>
      </trkpt>
      <trkpt lat="39.41909333" lon="-8.46530167">
        <ele>14.0</ele>
        <time>2019-05-17T12:32:24.152Z</time>
      </trkpt>
      <trkpt lat="39.41912667" lon="-8.46529167">
        <ele>14.0</ele>
        <time>2019-05-17T12:32:25.150Z</time>
      </trkpt>
      <trkpt lat="39.41916" lon="-8.46528167">
        <ele>14.0</ele>
        <time>2019-05-17T12:32:26.185Z</time>
      </trkpt>
      <trkpt lat="39.41916" lon="-8.46528167">
        <ele>14.0</ele>
        <time>2019-05-17T12:32:27.150Z</time>
      </trkpt>
      <trkpt lat="39.41922833" lon="-8.46525833">
        <ele>15.0</ele>
        <time>2019-05-17T12:32:28.158Z</time>
      </trkpt>
      <trkpt lat="39.41926167" lon="-8.465245">
        <ele>15.0</ele>
        <time>2019-05-17T12:32:29.172Z</time>
      </trkpt>
      <trkpt lat="39.41926167" lon="-8.465245">
        <ele>15.0</ele>
        <time>2019-05-17T12:32:30.153Z</time>
      </trkpt>
      <trkpt lat="39.41932833" lon="-8.46522">
        <ele>15.0</ele>
        <time>2019-05-17T12:32:31.171Z</time>
      </trkpt>
      <trkpt lat="39.41936167" lon="-8.46520833">
        <ele>15.0</ele>
        <time>2019-05-17T12:32:32.170Z</time>
      </trkpt>
      <trkpt lat="39.41936167" lon="-8.46520833">
        <ele>15.0</ele>
        <time>2019-05-17T12:32:33.167Z</time>
      </trkpt>
      <trkpt lat="39.41942667" lon="-8.46517833">
        <ele>15.0</ele>
        <time>2019-05-17T12:32:34.159Z</time>
      </trkpt>
      <trkpt lat="39.41942667" lon="-8.46517833">
        <ele>15.0</ele>
        <time>2019-05-17T12:32:35.164Z</time>
      </trkpt>
      <trkpt lat="39.41949" lon="-8.46514667">
        <ele>15.0</ele>
        <time>2019-05-17T12:32:36.169Z</time>
      </trkpt>
      <trkpt lat="39.41949" lon="-8.46514667">
        <ele>15.0</ele>
        <time>2019-05-17T12:32:37.185Z</time>
      </trkpt>
      <trkpt lat="39.419555" lon="-8.46511167">
        <ele>15.0</ele>
        <time>2019-05-17T12:32:38.182Z</time>
      </trkpt>
      <trkpt lat="39.419555" lon="-8.46511167">
        <ele>15.0</ele>
        <time>2019-05-17T12:32:39.188Z</time>
      </trkpt>
      <trkpt lat="39.41961667" lon="-8.46507">
        <ele>15.0</ele>
        <time>2019-05-17T12:32:40.185Z</time>
      </trkpt>
      <trkpt lat="39.41961667" lon="-8.46507">
        <ele>15.0</ele>
        <time>2019-05-17T12:32:41.150Z</time>
      </trkpt>
      <trkpt lat="39.419675" lon="-8.46502333">
        <ele>15.0</ele>
        <time>2019-05-17T12:32:42.150Z</time>
      </trkpt>
      <trkpt lat="39.419675" lon="-8.46502333">
        <ele>15.0</ele>
        <time>2019-05-17T12:32:43.155Z</time>
      </trkpt>
      <trkpt lat="39.41973" lon="-8.464975">
        <ele>15.0</ele>
        <time>2019-05-17T12:32:44.186Z</time>
      </trkpt>
      <trkpt lat="39.41973" lon="-8.464975">
        <ele>15.0</ele>
        <time>2019-05-17T12:32:45.161Z</time>
      </trkpt>
      <trkpt lat="39.41978167" lon="-8.46492833">
        <ele>15.0</ele>
        <time>2019-05-17T12:32:46.165Z</time>
      </trkpt>
      <trkpt lat="39.41978167" lon="-8.46492833">
        <ele>15.0</ele>
        <time>2019-05-17T12:32:47.183Z</time>
      </trkpt>
      <trkpt lat="39.41983167" lon="-8.46488">
        <ele>15.0</ele>
        <time>2019-05-17T12:32:48.153Z</time>
      </trkpt>
      <trkpt lat="39.41985833" lon="-8.464855">
        <ele>15.0</ele>
        <time>2019-05-17T12:32:49.173Z</time>
      </trkpt>
      <trkpt lat="39.419885" lon="-8.46483">
        <ele>15.0</ele>
        <time>2019-05-17T12:32:50.151Z</time>
      </trkpt>
      <trkpt lat="39.419885" lon="-8.46483">
        <ele>15.0</ele>
        <time>2019-05-17T12:32:51.185Z</time>
      </trkpt>
      <trkpt lat="39.41993667" lon="-8.46477833">
        <ele>15.0</ele>
        <time>2019-05-17T12:32:52.183Z</time>
      </trkpt>
      <trkpt lat="39.41993667" lon="-8.46477833">
        <ele>15.0</ele>
        <time>2019-05-17T12:32:53.188Z</time>
      </trkpt>
      <trkpt lat="39.41998833" lon="-8.46473">
        <ele>15.0</ele>
        <time>2019-05-17T12:32:54.182Z</time>
      </trkpt>
      <trkpt lat="39.41998833" lon="-8.46473">
        <ele>15.0</ele>
        <time>2019-05-17T12:32:55.187Z</time>
      </trkpt>
      <trkpt lat="39.42004" lon="-8.46468167">
        <ele>14.0</ele>
        <time>2019-05-17T12:32:56.184Z</time>
      </trkpt>
      <trkpt lat="39.42004" lon="-8.46468167">
        <ele>14.0</ele>
        <time>2019-05-17T12:32:57.189Z</time>
      </trkpt>
      <trkpt lat="39.42009" lon="-8.46463333">
        <ele>14.0</ele>
        <time>2019-05-17T12:32:58.184Z</time>
      </trkpt>
      <trkpt lat="39.42009" lon="-8.46463333">
        <ele>14.0</ele>
        <time>2019-05-17T12:32:59.152Z</time>
      </trkpt>
      <trkpt lat="39.42013833" lon="-8.46458833">
        <ele>14.0</ele>
        <time>2019-05-17T12:33:00.156Z</time>
      </trkpt>
      <trkpt lat="39.42013833" lon="-8.46458833">
        <ele>14.0</ele>
        <time>2019-05-17T12:33:01.163Z</time>
      </trkpt>
      <trkpt lat="39.42019" lon="-8.46454167">
        <ele>14.0</ele>
        <time>2019-05-17T12:33:02.187Z</time>
      </trkpt>
      <trkpt lat="39.42019" lon="-8.46454167">
        <ele>14.0</ele>
        <time>2019-05-17T12:33:03.152Z</time>
      </trkpt>
      <trkpt lat="39.42024167" lon="-8.464495">
        <ele>15.0</ele>
        <time>2019-05-17T12:33:04.185Z</time>
      </trkpt>
      <trkpt lat="39.42026833" lon="-8.46447">
        <ele>14.0</ele>
        <time>2019-05-17T12:33:05.182Z</time>
      </trkpt>
      <trkpt lat="39.42026833" lon="-8.46447">
        <ele>14.0</ele>
        <time>2019-05-17T12:33:06.188Z</time>
      </trkpt>
      <trkpt lat="39.42032167" lon="-8.46442">
        <ele>14.0</ele>
        <time>2019-05-17T12:33:07.185Z</time>
      </trkpt>
      <trkpt lat="39.42034667" lon="-8.46439667">
        <ele>15.0</ele>
        <time>2019-05-17T12:33:08.151Z</time>
      </trkpt>
      <trkpt lat="39.42034667" lon="-8.46439667">
        <ele>15.0</ele>
        <time>2019-05-17T12:33:09.171Z</time>
      </trkpt>
      <trkpt lat="39.4204" lon="-8.464345">
        <ele>15.0</ele>
        <time>2019-05-17T12:33:10.182Z</time>
      </trkpt>
      <trkpt lat="39.42042667" lon="-8.46432">
        <ele>15.0</ele>
        <time>2019-05-17T12:33:11.178Z</time>
      </trkpt>
      <trkpt lat="39.42042667" lon="-8.46432">
        <ele>15.0</ele>
        <time>2019-05-17T12:33:12.159Z</time>
      </trkpt>
      <trkpt lat="39.42048" lon="-8.46426833">
        <ele>15.0</ele>
        <time>2019-05-17T12:33:13.183Z</time>
      </trkpt>
      <trkpt lat="39.42050833" lon="-8.464245">
        <ele>15.0</ele>
        <time>2019-05-17T12:33:14.152Z</time>
      </trkpt>
      <trkpt lat="39.42050833" lon="-8.464245">
        <ele>15.0</ele>
        <time>2019-05-17T12:33:15.157Z</time>
      </trkpt>
      <trkpt lat="39.42056167" lon="-8.46419333">
        <ele>15.0</ele>
        <time>2019-05-17T12:33:16.151Z</time>
      </trkpt>
      <trkpt lat="39.42056167" lon="-8.46419333">
        <ele>15.0</ele>
        <time>2019-05-17T12:33:17.157Z</time>
      </trkpt>
      <trkpt lat="39.42061667" lon="-8.464145">
        <ele>15.0</ele>
        <time>2019-05-17T12:33:18.191Z</time>
      </trkpt>
      <trkpt lat="39.42061667" lon="-8.464145">
        <ele>15.0</ele>
        <time>2019-05-17T12:33:19.158Z</time>
      </trkpt>
      <trkpt lat="39.42067" lon="-8.46409833">
        <ele>15.0</ele>
        <time>2019-05-17T12:33:20.190Z</time>
      </trkpt>
      <trkpt lat="39.42067" lon="-8.46409833">
        <ele>15.0</ele>
        <time>2019-05-17T12:33:21.154Z</time>
      </trkpt>
      <trkpt lat="39.42072833" lon="-8.46405333">
        <ele>15.0</ele>
        <time>2019-05-17T12:33:22.156Z</time>
      </trkpt>
      <trkpt lat="39.42072833" lon="-8.46405333">
        <ele>15.0</ele>
        <time>2019-05-17T12:33:23.152Z</time>
      </trkpt>
      <trkpt lat="39.42078667" lon="-8.46401167">
        <ele>15.0</ele>
        <time>2019-05-17T12:33:24.159Z</time>
      </trkpt>
      <trkpt lat="39.42078667" lon="-8.46401167">
        <ele>15.0</ele>
        <time>2019-05-17T12:33:25.180Z</time>
      </trkpt>
      <trkpt lat="39.42084833" lon="-8.463975">
        <ele>15.0</ele>
        <time>2019-05-17T12:33:26.173Z</time>
      </trkpt>
      <trkpt lat="39.42084833" lon="-8.463975">
        <ele>15.0</ele>
        <time>2019-05-17T12:33:27.183Z</time>
      </trkpt>
      <trkpt lat="39.42091" lon="-8.46394">
        <ele>15.0</ele>
        <time>2019-05-17T12:33:28.176Z</time>
      </trkpt>
      <trkpt lat="39.42091" lon="-8.46394">
        <ele>15.0</ele>
        <time>2019-05-17T12:33:29.151Z</time>
      </trkpt>
      <trkpt lat="39.42097333" lon="-8.46390833">
        <ele>15.0</ele>
        <time>2019-05-17T12:33:30.164Z</time>
      </trkpt>
      <trkpt lat="39.42097333" lon="-8.46390833">
        <ele>15.0</ele>
        <time>2019-05-17T12:33:31.170Z</time>
      </trkpt>
      <trkpt lat="39.42103833" lon="-8.46387833">
        <ele>15.0</ele>
        <time>2019-05-17T12:33:32.160Z</time>
      </trkpt>
      <trkpt lat="39.42103833" lon="-8.46387833">
        <ele>15.0</ele>
        <time>2019-05-17T12:33:33.179Z</time>
      </trkpt>
      <trkpt lat="39.421105" lon="-8.46384333">
        <ele>15.0</ele>
        <time>2019-05-17T12:33:34.172Z</time>
      </trkpt>
      <trkpt lat="39.421105" lon="-8.46384333">
        <ele>15.0</ele>
        <time>2019-05-17T12:33:35.178Z</time>
      </trkpt>
      <trkpt lat="39.421175" lon="-8.46381333">
        <ele>15.0</ele>
        <time>2019-05-17T12:33:36.172Z</time>
      </trkpt>
      <trkpt lat="39.421175" lon="-8.46381333">
        <ele>15.0</ele>
        <time>2019-05-17T12:33:37.185Z</time>
      </trkpt>
      <trkpt lat="39.421245" lon="-8.46378167">
        <ele>15.0</ele>
        <time>2019-05-17T12:33:38.185Z</time>
      </trkpt>
      <trkpt lat="39.421245" lon="-8.46378167">
        <ele>15.0</ele>
        <time>2019-05-17T12:33:39.162Z</time>
      </trkpt>
      <trkpt lat="39.42131333" lon="-8.46375333">
        <ele>16.0</ele>
        <time>2019-05-17T12:33:40.155Z</time>
      </trkpt>
      <trkpt lat="39.42131333" lon="-8.46375333">
        <ele>16.0</ele>
        <time>2019-05-17T12:33:41.153Z</time>
      </trkpt>
      <trkpt lat="39.42137833" lon="-8.46372333">
        <ele>16.0</ele>
        <time>2019-05-17T12:33:42.186Z</time>
      </trkpt>
      <trkpt lat="39.42137833" lon="-8.46372333">
        <ele>16.0</ele>
        <time>2019-05-17T12:33:43.152Z</time>
      </trkpt>
      <trkpt lat="39.42144167" lon="-8.46369">
        <ele>16.0</ele>
        <time>2019-05-17T12:33:44.151Z</time>
      </trkpt>
      <trkpt lat="39.42144167" lon="-8.46369">
        <ele>16.0</ele>
        <time>2019-05-17T12:33:45.162Z</time>
      </trkpt>
      <trkpt lat="39.42150667" lon="-8.46366167">
        <ele>16.0</ele>
        <time>2019-05-17T12:33:46.162Z</time>
      </trkpt>
      <trkpt lat="39.42150667" lon="-8.46366167">
        <ele>16.0</ele>
        <time>2019-05-17T12:33:47.179Z</time>
      </trkpt>
      <trkpt lat="39.42157" lon="-8.46362833">
        <ele>16.0</ele>
        <time>2019-05-17T12:33:48.171Z</time>
      </trkpt>
      <trkpt lat="39.42157" lon="-8.46362833">
        <ele>16.0</ele>
        <time>2019-05-17T12:33:49.178Z</time>
      </trkpt>
      <trkpt lat="39.421635" lon="-8.463595">
        <ele>16.0</ele>
        <time>2019-05-17T12:33:50.175Z</time>
      </trkpt>
      <trkpt lat="39.421635" lon="-8.463595">
        <ele>16.0</ele>
        <time>2019-05-17T12:33:51.182Z</time>
      </trkpt>
      <trkpt lat="39.42170333" lon="-8.46356333">
        <ele>16.0</ele>
        <time>2019-05-17T12:33:52.186Z</time>
      </trkpt>
      <trkpt lat="39.42170333" lon="-8.46356333">
        <ele>16.0</ele>
        <time>2019-05-17T12:33:53.151Z</time>
      </trkpt>
      <trkpt lat="39.42176833" lon="-8.46353">
        <ele>16.0</ele>
        <time>2019-05-17T12:33:54.188Z</time>
      </trkpt>
      <trkpt lat="39.42176833" lon="-8.46353">
        <ele>16.0</ele>
        <time>2019-05-17T12:33:55.157Z</time>
      </trkpt>
      <trkpt lat="39.42183333" lon="-8.46349667">
        <ele>16.0</ele>
        <time>2019-05-17T12:33:56.185Z</time>
      </trkpt>
      <trkpt lat="39.42183333" lon="-8.46349667">
        <ele>16.0</ele>
        <time>2019-05-17T12:33:57.151Z</time>
      </trkpt>
      <trkpt lat="39.42189667" lon="-8.46346667">
        <ele>16.0</ele>
        <time>2019-05-17T12:33:58.150Z</time>
      </trkpt>
      <trkpt lat="39.42189667" lon="-8.46346667">
        <ele>16.0</ele>
        <time>2019-05-17T12:33:59.184Z</time>
      </trkpt>
      <trkpt lat="39.421955" lon="-8.46344">
        <ele>16.0</ele>
        <time>2019-05-17T12:34:00.175Z</time>
      </trkpt>
      <trkpt lat="39.421955" lon="-8.46344">
        <ele>16.0</ele>
        <time>2019-05-17T12:34:01.182Z</time>
      </trkpt>
      <trkpt lat="39.42200333" lon="-8.46341">
        <ele>16.0</ele>
        <time>2019-05-17T12:34:02.171Z</time>
      </trkpt>
      <trkpt lat="39.42200333" lon="-8.46341">
        <ele>16.0</ele>
        <time>2019-05-17T12:34:03.184Z</time>
      </trkpt>
      <trkpt lat="39.42205" lon="-8.46339167">
        <ele>16.0</ele>
        <time>2019-05-17T12:34:04.182Z</time>
      </trkpt>
      <trkpt lat="39.42207167" lon="-8.46337833">
        <ele>16.0</ele>
        <time>2019-05-17T12:34:05.176Z</time>
      </trkpt>
      <trkpt lat="39.42207167" lon="-8.46337833">
        <ele>16.0</ele>
        <time>2019-05-17T12:34:06.185Z</time>
      </trkpt>
      <trkpt lat="39.42212667" lon="-8.46335">
        <ele>16.0</ele>
        <time>2019-05-17T12:34:07.188Z</time>
      </trkpt>
      <trkpt lat="39.422155" lon="-8.46333167">
        <ele>16.0</ele>
        <time>2019-05-17T12:34:08.156Z</time>
      </trkpt>
      <trkpt lat="39.422155" lon="-8.46333167">
        <ele>16.0</ele>
        <time>2019-05-17T12:34:09.183Z</time>
      </trkpt>
      <trkpt lat="39.42222833" lon="-8.46328667">
        <ele>17.0</ele>
        <time>2019-05-17T12:34:10.185Z</time>
      </trkpt>
      <trkpt lat="39.42222833" lon="-8.46328667">
        <ele>17.0</ele>
        <time>2019-05-17T12:34:11.150Z</time>
      </trkpt>
      <trkpt lat="39.42231667" lon="-8.46323">
        <ele>17.0</ele>
        <time>2019-05-17T12:34:12.153Z</time>
      </trkpt>
      <trkpt lat="39.42231667" lon="-8.46323">
        <ele>17.0</ele>
        <time>2019-05-17T12:34:13.182Z</time>
      </trkpt>
      <trkpt lat="39.42240333" lon="-8.46317167">
        <ele>17.0</ele>
        <time>2019-05-17T12:34:14.165Z</time>
      </trkpt>
      <trkpt lat="39.42240333" lon="-8.46317167">
        <ele>17.0</ele>
        <time>2019-05-17T12:34:15.170Z</time>
      </trkpt>
      <trkpt lat="39.42248333" lon="-8.46312">
        <ele>17.0</ele>
        <time>2019-05-17T12:34:16.177Z</time>
      </trkpt>
      <trkpt lat="39.42252" lon="-8.46309333">
        <ele>17.0</ele>
        <time>2019-05-17T12:34:17.155Z</time>
      </trkpt>
      <trkpt lat="39.42252" lon="-8.46309333">
        <ele>17.0</ele>
        <time>2019-05-17T12:34:18.188Z</time>
      </trkpt>
      <trkpt lat="39.42259167" lon="-8.46304167">
        <ele>17.0</ele>
        <time>2019-05-17T12:34:19.157Z</time>
      </trkpt>
      <trkpt lat="39.422625" lon="-8.463015">
        <ele>17.0</ele>
        <time>2019-05-17T12:34:20.155Z</time>
      </trkpt>
      <trkpt lat="39.422625" lon="-8.463015">
        <ele>17.0</ele>
        <time>2019-05-17T12:34:21.160Z</time>
      </trkpt>
      <trkpt lat="39.42269" lon="-8.46297">
        <ele>17.0</ele>
        <time>2019-05-17T12:34:22.155Z</time>
      </trkpt>
      <trkpt lat="39.42269" lon="-8.46297">
        <ele>17.0</ele>
        <time>2019-05-17T12:34:23.168Z</time>
      </trkpt>
      <trkpt lat="39.42275333" lon="-8.462925">
        <ele>17.0</ele>
        <time>2019-05-17T12:34:24.156Z</time>
      </trkpt>
      <trkpt lat="39.42275333" lon="-8.462925">
        <ele>17.0</ele>
        <time>2019-05-17T12:34:25.181Z</time>
      </trkpt>
      <trkpt lat="39.42281667" lon="-8.46288667">
        <ele>18.0</ele>
        <time>2019-05-17T12:34:26.174Z</time>
      </trkpt>
      <trkpt lat="39.42281667" lon="-8.46288667">
        <ele>18.0</ele>
        <time>2019-05-17T12:34:27.182Z</time>
      </trkpt>
      <trkpt lat="39.42287667" lon="-8.462845">
        <ele>18.0</ele>
        <time>2019-05-17T12:34:28.180Z</time>
      </trkpt>
      <trkpt lat="39.42287667" lon="-8.462845">
        <ele>18.0</ele>
        <time>2019-05-17T12:34:29.166Z</time>
      </trkpt>
      <trkpt lat="39.42293667" lon="-8.462805">
        <ele>18.0</ele>
        <time>2019-05-17T12:34:30.165Z</time>
      </trkpt>
      <trkpt lat="39.42293667" lon="-8.462805">
        <ele>18.0</ele>
        <time>2019-05-17T12:34:31.171Z</time>
      </trkpt>
      <trkpt lat="39.42299833" lon="-8.46276167">
        <ele>17.0</ele>
        <time>2019-05-17T12:34:32.165Z</time>
      </trkpt>
      <trkpt lat="39.42299833" lon="-8.46276167">
        <ele>17.0</ele>
        <time>2019-05-17T12:34:33.176Z</time>
      </trkpt>
      <trkpt lat="39.42306167" lon="-8.462715">
        <ele>18.0</ele>
        <time>2019-05-17T12:34:34.205Z</time>
      </trkpt>
      <trkpt lat="39.42306167" lon="-8.462715">
        <ele>18.0</ele>
        <time>2019-05-17T12:34:35.157Z</time>
      </trkpt>
      <trkpt lat="39.423125" lon="-8.46266833">
        <ele>18.0</ele>
        <time>2019-05-17T12:34:36.153Z</time>
      </trkpt>
      <trkpt lat="39.423125" lon="-8.46266833">
        <ele>18.0</ele>
        <time>2019-05-17T12:34:37.171Z</time>
      </trkpt>
      <trkpt lat="39.42319167" lon="-8.46262667">
        <ele>18.0</ele>
        <time>2019-05-17T12:34:38.155Z</time>
      </trkpt>
      <trkpt lat="39.42319167" lon="-8.46262667">
        <ele>18.0</ele>
        <time>2019-05-17T12:34:39.187Z</time>
      </trkpt>
      <trkpt lat="39.42325667" lon="-8.462585">
        <ele>18.0</ele>
        <time>2019-05-17T12:34:40.189Z</time>
      </trkpt>
      <trkpt lat="39.42325667" lon="-8.462585">
        <ele>18.0</ele>
        <time>2019-05-17T12:34:41.155Z</time>
      </trkpt>
      <trkpt lat="39.42332167" lon="-8.46255">
        <ele>18.0</ele>
        <time>2019-05-17T12:34:42.159Z</time>
      </trkpt>
      <trkpt lat="39.42332167" lon="-8.46255">
        <ele>18.0</ele>
        <time>2019-05-17T12:34:43.165Z</time>
      </trkpt>
      <trkpt lat="39.42338667" lon="-8.462515">
        <ele>18.0</ele>
        <time>2019-05-17T12:34:44.157Z</time>
      </trkpt>
      <trkpt lat="39.42338667" lon="-8.462515">
        <ele>18.0</ele>
        <time>2019-05-17T12:34:45.162Z</time>
      </trkpt>
      <trkpt lat="39.42345333" lon="-8.46248333">
        <ele>18.0</ele>
        <time>2019-05-17T12:34:46.155Z</time>
      </trkpt>
      <trkpt lat="39.42345333" lon="-8.46248333">
        <ele>18.0</ele>
        <time>2019-05-17T12:34:47.159Z</time>
      </trkpt>
      <trkpt lat="39.42352" lon="-8.46245333">
        <ele>18.0</ele>
        <time>2019-05-17T12:34:48.155Z</time>
      </trkpt>
      <trkpt lat="39.42355333" lon="-8.46243667">
        <ele>18.0</ele>
        <time>2019-05-17T12:34:49.160Z</time>
      </trkpt>
      <trkpt lat="39.42358833" lon="-8.46242167">
        <ele>18.0</ele>
        <time>2019-05-17T12:34:50.168Z</time>
      </trkpt>
      <trkpt lat="39.42358833" lon="-8.46242167">
        <ele>18.0</ele>
        <time>2019-05-17T12:34:51.173Z</time>
      </trkpt>
      <trkpt lat="39.42365833" lon="-8.46239167">
        <ele>18.0</ele>
        <time>2019-05-17T12:34:52.167Z</time>
      </trkpt>
      <trkpt lat="39.42369333" lon="-8.46237667">
        <ele>18.0</ele>
        <time>2019-05-17T12:34:53.167Z</time>
      </trkpt>
      <trkpt lat="39.42369333" lon="-8.46237667">
        <ele>18.0</ele>
        <time>2019-05-17T12:34:54.172Z</time>
      </trkpt>
      <trkpt lat="39.423765" lon="-8.46235167">
        <ele>18.0</ele>
        <time>2019-05-17T12:34:55.171Z</time>
      </trkpt>
      <trkpt lat="39.42380167" lon="-8.46233667">
        <ele>17.0</ele>
        <time>2019-05-17T12:34:56.159Z</time>
      </trkpt>
      <trkpt lat="39.42380167" lon="-8.46233667">
        <ele>17.0</ele>
        <time>2019-05-17T12:34:57.172Z</time>
      </trkpt>
      <trkpt lat="39.42386667" lon="-8.46231167">
        <ele>17.0</ele>
        <time>2019-05-17T12:34:58.172Z</time>
      </trkpt>
      <trkpt lat="39.42390333" lon="-8.46230167">
        <ele>17.0</ele>
        <time>2019-05-17T12:34:59.172Z</time>
      </trkpt>
      <trkpt lat="39.42390333" lon="-8.46230167">
        <ele>17.0</ele>
        <time>2019-05-17T12:35:00.183Z</time>
      </trkpt>
      <trkpt lat="39.42397333" lon="-8.46227667">
        <ele>17.0</ele>
        <time>2019-05-17T12:35:01.174Z</time>
      </trkpt>
      <trkpt lat="39.42400833" lon="-8.46226333">
        <ele>17.0</ele>
        <time>2019-05-17T12:35:02.172Z</time>
      </trkpt>
      <trkpt lat="39.42400833" lon="-8.46226333">
        <ele>17.0</ele>
        <time>2019-05-17T12:35:03.165Z</time>
      </trkpt>
      <trkpt lat="39.42407833" lon="-8.462235">
        <ele>17.0</ele>
        <time>2019-05-17T12:35:04.155Z</time>
      </trkpt>
      <trkpt lat="39.42407833" lon="-8.462235">
        <ele>17.0</ele>
        <time>2019-05-17T12:35:05.161Z</time>
      </trkpt>
      <trkpt lat="39.42414833" lon="-8.46221333">
        <ele>17.0</ele>
        <time>2019-05-17T12:35:06.187Z</time>
      </trkpt>
      <trkpt lat="39.42418333" lon="-8.462205">
        <ele>17.0</ele>
        <time>2019-05-17T12:35:07.176Z</time>
      </trkpt>
      <trkpt lat="39.42421833" lon="-8.462195">
        <ele>17.0</ele>
        <time>2019-05-17T12:35:08.185Z</time>
      </trkpt>
      <trkpt lat="39.42421833" lon="-8.462195">
        <ele>17.0</ele>
        <time>2019-05-17T12:35:09.182Z</time>
      </trkpt>
      <trkpt lat="39.42428333" lon="-8.46218167">
        <ele>17.0</ele>
        <time>2019-05-17T12:35:10.164Z</time>
      </trkpt>
      <trkpt lat="39.42428333" lon="-8.46218167">
        <ele>17.0</ele>
        <time>2019-05-17T12:35:11.188Z</time>
      </trkpt>
      <trkpt lat="39.42435" lon="-8.46216167">
        <ele>17.0</ele>
        <time>2019-05-17T12:35:12.192Z</time>
      </trkpt>
      <trkpt lat="39.42435" lon="-8.46216167">
        <ele>17.0</ele>
        <time>2019-05-17T12:35:13.157Z</time>
      </trkpt>
      <trkpt lat="39.42441833" lon="-8.46215">
        <ele>17.0</ele>
        <time>2019-05-17T12:35:14.174Z</time>
      </trkpt>
      <trkpt lat="39.42441833" lon="-8.46215">
        <ele>17.0</ele>
        <time>2019-05-17T12:35:15.187Z</time>
      </trkpt>
      <trkpt lat="39.42449" lon="-8.46213833">
        <ele>17.0</ele>
        <time>2019-05-17T12:35:16.187Z</time>
      </trkpt>
      <trkpt lat="39.42449" lon="-8.46213833">
        <ele>17.0</ele>
        <time>2019-05-17T12:35:17.166Z</time>
      </trkpt>
      <trkpt lat="39.42455833" lon="-8.46212833">
        <ele>17.0</ele>
        <time>2019-05-17T12:35:18.181Z</time>
      </trkpt>
      <trkpt lat="39.42455833" lon="-8.46212833">
        <ele>17.0</ele>
        <time>2019-05-17T12:35:19.187Z</time>
      </trkpt>
      <trkpt lat="39.42462833" lon="-8.46212">
        <ele>17.0</ele>
        <time>2019-05-17T12:35:20.189Z</time>
      </trkpt>
      <trkpt lat="39.42462833" lon="-8.46212">
        <ele>17.0</ele>
        <time>2019-05-17T12:35:21.155Z</time>
      </trkpt>
      <trkpt lat="39.42469833" lon="-8.46210667">
        <ele>17.0</ele>
        <time>2019-05-17T12:35:22.160Z</time>
      </trkpt>
      <trkpt lat="39.42469833" lon="-8.46210667">
        <ele>17.0</ele>
        <time>2019-05-17T12:35:23.183Z</time>
      </trkpt>
      <trkpt lat="39.42476667" lon="-8.462095">
        <ele>17.0</ele>
        <time>2019-05-17T12:35:24.175Z</time>
      </trkpt>
      <trkpt lat="39.42480333" lon="-8.46208667">
        <ele>17.0</ele>
        <time>2019-05-17T12:35:25.175Z</time>
      </trkpt>
      <trkpt lat="39.42480333" lon="-8.46208667">
        <ele>17.0</ele>
        <time>2019-05-17T12:35:26.154Z</time>
      </trkpt>
      <trkpt lat="39.424875" lon="-8.46207167">
        <ele>17.0</ele>
        <time>2019-05-17T12:35:27.183Z</time>
      </trkpt>
      <trkpt lat="39.424875" lon="-8.46207167">
        <ele>17.0</ele>
        <time>2019-05-17T12:35:28.188Z</time>
      </trkpt>
      <trkpt lat="39.424945" lon="-8.46206167">
        <ele>17.0</ele>
        <time>2019-05-17T12:35:29.150Z</time>
      </trkpt>
      <trkpt lat="39.424945" lon="-8.46206167">
        <ele>17.0</ele>
        <time>2019-05-17T12:35:30.168Z</time>
      </trkpt>
      <trkpt lat="39.42501667" lon="-8.46205167">
        <ele>17.0</ele>
        <time>2019-05-17T12:35:31.155Z</time>
      </trkpt>
      <trkpt lat="39.42505167" lon="-8.46204667">
        <ele>17.0</ele>
        <time>2019-05-17T12:35:32.154Z</time>
      </trkpt>
      <trkpt lat="39.42505167" lon="-8.46204667">
        <ele>17.0</ele>
        <time>2019-05-17T12:35:33.180Z</time>
      </trkpt>
      <trkpt lat="39.42512167" lon="-8.462035">
        <ele>17.0</ele>
        <time>2019-05-17T12:35:34.179Z</time>
      </trkpt>
      <trkpt lat="39.42512167" lon="-8.462035">
        <ele>17.0</ele>
        <time>2019-05-17T12:35:35.187Z</time>
      </trkpt>
      <trkpt lat="39.425195" lon="-8.462025">
        <ele>17.0</ele>
        <time>2019-05-17T12:35:36.184Z</time>
      </trkpt>
      <trkpt lat="39.425195" lon="-8.462025">
        <ele>17.0</ele>
        <time>2019-05-17T12:35:37.154Z</time>
      </trkpt>
      <trkpt lat="39.42526667" lon="-8.46201167">
        <ele>16.0</ele>
        <time>2019-05-17T12:35:38.159Z</time>
      </trkpt>
      <trkpt lat="39.42526667" lon="-8.46201167">
        <ele>16.0</ele>
        <time>2019-05-17T12:35:39.185Z</time>
      </trkpt>
      <trkpt lat="39.42533667" lon="-8.46199667">
        <ele>16.0</ele>
        <time>2019-05-17T12:35:40.182Z</time>
      </trkpt>
      <trkpt lat="39.42533667" lon="-8.46199667">
        <ele>16.0</ele>
        <time>2019-05-17T12:35:41.166Z</time>
      </trkpt>
      <trkpt lat="39.42540833" lon="-8.461985">
        <ele>16.0</ele>
        <time>2019-05-17T12:35:42.162Z</time>
      </trkpt>
      <trkpt lat="39.42540833" lon="-8.461985">
        <ele>16.0</ele>
        <time>2019-05-17T12:35:43.167Z</time>
      </trkpt>
      <trkpt lat="39.42548333" lon="-8.46197333">
        <ele>16.0</ele>
        <time>2019-05-17T12:35:44.154Z</time>
      </trkpt>
      <trkpt lat="39.42548333" lon="-8.46197333">
        <ele>16.0</ele>
        <time>2019-05-17T12:35:45.160Z</time>
      </trkpt>
      <trkpt lat="39.42555667" lon="-8.46196">
        <ele>16.0</ele>
        <time>2019-05-17T12:35:46.188Z</time>
      </trkpt>
      <trkpt lat="39.42555667" lon="-8.46196">
        <ele>16.0</ele>
        <time>2019-05-17T12:35:47.172Z</time>
      </trkpt>
      <trkpt lat="39.42562667" lon="-8.461945">
        <ele>16.0</ele>
        <time>2019-05-17T12:35:48.194Z</time>
      </trkpt>
      <trkpt lat="39.42562667" lon="-8.461945">
        <ele>16.0</ele>
        <time>2019-05-17T12:35:49.162Z</time>
      </trkpt>
      <trkpt lat="39.42569333" lon="-8.461935">
        <ele>16.0</ele>
        <time>2019-05-17T12:35:50.189Z</time>
      </trkpt>
      <trkpt lat="39.42569333" lon="-8.461935">
        <ele>16.0</ele>
        <time>2019-05-17T12:35:51.154Z</time>
      </trkpt>
      <trkpt lat="39.42576167" lon="-8.461925">
        <ele>16.0</ele>
        <time>2019-05-17T12:35:52.181Z</time>
      </trkpt>
      <trkpt lat="39.42576167" lon="-8.461925">
        <ele>16.0</ele>
        <time>2019-05-17T12:35:53.157Z</time>
      </trkpt>
      <trkpt lat="39.42583" lon="-8.46191167">
        <ele>16.0</ele>
        <time>2019-05-17T12:35:54.161Z</time>
      </trkpt>
      <trkpt lat="39.42583" lon="-8.46191167">
        <ele>16.0</ele>
        <time>2019-05-17T12:35:55.185Z</time>
      </trkpt>
      <trkpt lat="39.4259" lon="-8.4619">
        <ele>16.0</ele>
        <time>2019-05-17T12:35:56.179Z</time>
      </trkpt>
      <trkpt lat="39.4259" lon="-8.4619">
        <ele>16.0</ele>
        <time>2019-05-17T12:35:57.184Z</time>
      </trkpt>
      <trkpt lat="39.42596667" lon="-8.46188833">
        <ele>17.0</ele>
        <time>2019-05-17T12:35:58.194Z</time>
      </trkpt>
      <trkpt lat="39.42596667" lon="-8.46188833">
        <ele>17.0</ele>
        <time>2019-05-17T12:35:59.162Z</time>
      </trkpt>
      <trkpt lat="39.42603333" lon="-8.46188">
        <ele>17.0</ele>
        <time>2019-05-17T12:36:00.150Z</time>
      </trkpt>
      <trkpt lat="39.42603333" lon="-8.46188">
        <ele>17.0</ele>
        <time>2019-05-17T12:36:01.155Z</time>
      </trkpt>
      <trkpt lat="39.4261" lon="-8.46187333">
        <ele>17.0</ele>
        <time>2019-05-17T12:36:02.155Z</time>
      </trkpt>
      <trkpt lat="39.4261" lon="-8.46187333">
        <ele>17.0</ele>
        <time>2019-05-17T12:36:03.188Z</time>
      </trkpt>
      <trkpt lat="39.42617667" lon="-8.46185667">
        <ele>17.0</ele>
        <time>2019-05-17T12:36:04.152Z</time>
      </trkpt>
      <trkpt lat="39.42617667" lon="-8.46185667">
        <ele>17.0</ele>
        <time>2019-05-17T12:36:05.157Z</time>
      </trkpt>
      <trkpt lat="39.42624833" lon="-8.46184167">
        <ele>17.0</ele>
        <time>2019-05-17T12:36:06.156Z</time>
      </trkpt>
      <trkpt lat="39.42624833" lon="-8.46184167">
        <ele>17.0</ele>
        <time>2019-05-17T12:36:07.161Z</time>
      </trkpt>
      <trkpt lat="39.42632" lon="-8.46182333">
        <ele>17.0</ele>
        <time>2019-05-17T12:36:08.167Z</time>
      </trkpt>
      <trkpt lat="39.42632" lon="-8.46182333">
        <ele>17.0</ele>
        <time>2019-05-17T12:36:09.154Z</time>
      </trkpt>
      <trkpt lat="39.42639167" lon="-8.46180667">
        <ele>17.0</ele>
        <time>2019-05-17T12:36:10.191Z</time>
      </trkpt>
      <trkpt lat="39.42642833" lon="-8.461795">
        <ele>17.0</ele>
        <time>2019-05-17T12:36:11.165Z</time>
      </trkpt>
      <trkpt lat="39.42642833" lon="-8.461795">
        <ele>17.0</ele>
        <time>2019-05-17T12:36:12.176Z</time>
      </trkpt>
      <trkpt lat="39.42649667" lon="-8.461775">
        <ele>17.0</ele>
        <time>2019-05-17T12:36:13.178Z</time>
      </trkpt>
      <trkpt lat="39.42649667" lon="-8.461775">
        <ele>17.0</ele>
        <time>2019-05-17T12:36:14.183Z</time>
      </trkpt>
      <trkpt lat="39.426565" lon="-8.46175833">
        <ele>17.0</ele>
        <time>2019-05-17T12:36:15.190Z</time>
      </trkpt>
      <trkpt lat="39.426565" lon="-8.46175833">
        <ele>17.0</ele>
        <time>2019-05-17T12:36:16.172Z</time>
      </trkpt>
      <trkpt lat="39.426635" lon="-8.46173833">
        <ele>17.0</ele>
        <time>2019-05-17T12:36:17.162Z</time>
      </trkpt>
      <trkpt lat="39.426635" lon="-8.46173833">
        <ele>17.0</ele>
        <time>2019-05-17T12:36:18.185Z</time>
      </trkpt>
      <trkpt lat="39.426705" lon="-8.46172">
        <ele>17.0</ele>
        <time>2019-05-17T12:36:19.185Z</time>
      </trkpt>
      <trkpt lat="39.42674" lon="-8.46170833">
        <ele>17.0</ele>
        <time>2019-05-17T12:36:20.171Z</time>
      </trkpt>
      <trkpt lat="39.42674" lon="-8.46170833">
        <ele>17.0</ele>
        <time>2019-05-17T12:36:21.189Z</time>
      </trkpt>
      <trkpt lat="39.42681167" lon="-8.46168333">
        <ele>17.0</ele>
        <time>2019-05-17T12:36:22.155Z</time>
      </trkpt>
      <trkpt lat="39.42681167" lon="-8.46168333">
        <ele>17.0</ele>
        <time>2019-05-17T12:36:23.170Z</time>
      </trkpt>
      <trkpt lat="39.426885" lon="-8.46166167">
        <ele>17.0</ele>
        <time>2019-05-17T12:36:24.185Z</time>
      </trkpt>
      <trkpt lat="39.426885" lon="-8.46166167">
        <ele>17.0</ele>
        <time>2019-05-17T12:36:25.189Z</time>
      </trkpt>
      <trkpt lat="39.42695833" lon="-8.46164333">
        <ele>17.0</ele>
        <time>2019-05-17T12:36:26.185Z</time>
      </trkpt>
      <trkpt lat="39.42695833" lon="-8.46164333">
        <ele>17.0</ele>
        <time>2019-05-17T12:36:27.150Z</time>
      </trkpt>
      <trkpt lat="39.42703333" lon="-8.461625">
        <ele>17.0</ele>
        <time>2019-05-17T12:36:28.179Z</time>
      </trkpt>
      <trkpt lat="39.42703333" lon="-8.461625">
        <ele>17.0</ele>
        <time>2019-05-17T12:36:29.185Z</time>
      </trkpt>
      <trkpt lat="39.427105" lon="-8.46160333">
        <ele>17.0</ele>
        <time>2019-05-17T12:36:30.174Z</time>
      </trkpt>
      <trkpt lat="39.427105" lon="-8.46160333">
        <ele>17.0</ele>
        <time>2019-05-17T12:36:31.184Z</time>
      </trkpt>
      <trkpt lat="39.42717667" lon="-8.46158">
        <ele>17.0</ele>
        <time>2019-05-17T12:36:32.180Z</time>
      </trkpt>
      <trkpt lat="39.42717667" lon="-8.46158">
        <ele>17.0</ele>
        <time>2019-05-17T12:36:33.185Z</time>
      </trkpt>
      <trkpt lat="39.42725167" lon="-8.46155667">
        <ele>17.0</ele>
        <time>2019-05-17T12:36:34.162Z</time>
      </trkpt>
      <trkpt lat="39.42725167" lon="-8.46155667">
        <ele>17.0</ele>
        <time>2019-05-17T12:36:35.168Z</time>
      </trkpt>
      <trkpt lat="39.42732" lon="-8.46153833">
        <ele>17.0</ele>
        <time>2019-05-17T12:36:36.157Z</time>
      </trkpt>
      <trkpt lat="39.42732" lon="-8.46153833">
        <ele>17.0</ele>
        <time>2019-05-17T12:36:37.162Z</time>
      </trkpt>
      <trkpt lat="39.42739" lon="-8.46151667">
        <ele>17.0</ele>
        <time>2019-05-17T12:36:38.162Z</time>
      </trkpt>
      <trkpt lat="39.42739" lon="-8.46151667">
        <ele>17.0</ele>
        <time>2019-05-17T12:36:39.179Z</time>
      </trkpt>
      <trkpt lat="39.42745667" lon="-8.46149167">
        <ele>17.0</ele>
        <time>2019-05-17T12:36:40.177Z</time>
      </trkpt>
      <trkpt lat="39.42745667" lon="-8.46149167">
        <ele>17.0</ele>
        <time>2019-05-17T12:36:41.185Z</time>
      </trkpt>
      <trkpt lat="39.42752333" lon="-8.46146833">
        <ele>17.0</ele>
        <time>2019-05-17T12:36:42.180Z</time>
      </trkpt>
      <trkpt lat="39.42752333" lon="-8.46146833">
        <ele>17.0</ele>
        <time>2019-05-17T12:36:43.159Z</time>
      </trkpt>
      <trkpt lat="39.42758667" lon="-8.46144833">
        <ele>17.0</ele>
        <time>2019-05-17T12:36:44.155Z</time>
      </trkpt>
      <trkpt lat="39.42758667" lon="-8.46144833">
        <ele>17.0</ele>
        <time>2019-05-17T12:36:45.153Z</time>
      </trkpt>
      <trkpt lat="39.42765333" lon="-8.46143167">
        <ele>17.0</ele>
        <time>2019-05-17T12:36:46.151Z</time>
      </trkpt>
      <trkpt lat="39.42765333" lon="-8.46143167">
        <ele>17.0</ele>
        <time>2019-05-17T12:36:47.186Z</time>
      </trkpt>
      <trkpt lat="39.42772" lon="-8.46141167">
        <ele>17.0</ele>
        <time>2019-05-17T12:36:48.181Z</time>
      </trkpt>
      <trkpt lat="39.42772" lon="-8.46141167">
        <ele>17.0</ele>
        <time>2019-05-17T12:36:49.154Z</time>
      </trkpt>
      <trkpt lat="39.42778" lon="-8.46139">
        <ele>17.0</ele>
        <time>2019-05-17T12:36:50.181Z</time>
      </trkpt>
      <trkpt lat="39.42778" lon="-8.46139">
        <ele>17.0</ele>
        <time>2019-05-17T12:36:51.185Z</time>
      </trkpt>
      <trkpt lat="39.42784167" lon="-8.461365">
        <ele>17.0</ele>
        <time>2019-05-17T12:36:52.181Z</time>
      </trkpt>
      <trkpt lat="39.42784167" lon="-8.461365">
        <ele>17.0</ele>
        <time>2019-05-17T12:36:53.165Z</time>
      </trkpt>
      <trkpt lat="39.42789833" lon="-8.461335">
        <ele>17.0</ele>
        <time>2019-05-17T12:36:54.165Z</time>
      </trkpt>
      <trkpt lat="39.42789833" lon="-8.461335">
        <ele>17.0</ele>
        <time>2019-05-17T12:36:55.156Z</time>
      </trkpt>
      <trkpt lat="39.427955" lon="-8.46130667">
        <ele>17.0</ele>
        <time>2019-05-17T12:36:56.160Z</time>
      </trkpt>
      <trkpt lat="39.427955" lon="-8.46130667">
        <ele>17.0</ele>
        <time>2019-05-17T12:36:57.189Z</time>
      </trkpt>
      <trkpt lat="39.42801333" lon="-8.46127333">
        <ele>17.0</ele>
        <time>2019-05-17T12:36:58.179Z</time>
      </trkpt>
      <trkpt lat="39.42801333" lon="-8.46127333">
        <ele>17.0</ele>
        <time>2019-05-17T12:36:59.187Z</time>
      </trkpt>
      <trkpt lat="39.42807" lon="-8.46124167">
        <ele>17.0</ele>
        <time>2019-05-17T12:37:00.171Z</time>
      </trkpt>
      <trkpt lat="39.42807" lon="-8.46124167">
        <ele>17.0</ele>
        <time>2019-05-17T12:37:01.185Z</time>
      </trkpt>
      <trkpt lat="39.42812833" lon="-8.46120667">
        <ele>16.0</ele>
        <time>2019-05-17T12:37:02.179Z</time>
      </trkpt>
      <trkpt lat="39.42812833" lon="-8.46120667">
        <ele>16.0</ele>
        <time>2019-05-17T12:37:03.152Z</time>
      </trkpt>
      <trkpt lat="39.428185" lon="-8.461175">
        <ele>16.0</ele>
        <time>2019-05-17T12:37:04.155Z</time>
      </trkpt>
      <trkpt lat="39.42821333" lon="-8.46115833">
        <ele>16.0</ele>
        <time>2019-05-17T12:37:05.153Z</time>
      </trkpt>
      <trkpt lat="39.42821333" lon="-8.46115833">
        <ele>16.0</ele>
        <time>2019-05-17T12:37:06.157Z</time>
      </trkpt>
      <trkpt lat="39.42827333" lon="-8.46113">
        <ele>16.0</ele>
        <time>2019-05-17T12:37:07.157Z</time>
      </trkpt>
      <trkpt lat="39.42830333" lon="-8.46111667">
        <ele>16.0</ele>
        <time>2019-05-17T12:37:08.175Z</time>
      </trkpt>
      <trkpt lat="39.42830333" lon="-8.46111667">
        <ele>16.0</ele>
        <time>2019-05-17T12:37:09.187Z</time>
      </trkpt>
      <trkpt lat="39.42836167" lon="-8.46108667">
        <ele>16.0</ele>
        <time>2019-05-17T12:37:10.160Z</time>
      </trkpt>
      <trkpt lat="39.42836167" lon="-8.46108667">
        <ele>16.0</ele>
        <time>2019-05-17T12:37:11.165Z</time>
      </trkpt>
      <trkpt lat="39.42842167" lon="-8.46106">
        <ele>16.0</ele>
        <time>2019-05-17T12:37:12.151Z</time>
      </trkpt>
      <trkpt lat="39.42842167" lon="-8.46106">
        <ele>16.0</ele>
        <time>2019-05-17T12:37:13.170Z</time>
      </trkpt>
      <trkpt lat="39.42848167" lon="-8.46103667">
        <ele>16.0</ele>
        <time>2019-05-17T12:37:14.185Z</time>
      </trkpt>
      <trkpt lat="39.42851167" lon="-8.46102667">
        <ele>16.0</ele>
        <time>2019-05-17T12:37:15.175Z</time>
      </trkpt>
      <trkpt lat="39.42851167" lon="-8.46102667">
        <ele>16.0</ele>
        <time>2019-05-17T12:37:16.182Z</time>
      </trkpt>
      <trkpt lat="39.42857167" lon="-8.46101">
        <ele>16.0</ele>
        <time>2019-05-17T12:37:17.172Z</time>
      </trkpt>
      <trkpt lat="39.42857167" lon="-8.46101">
        <ele>16.0</ele>
        <time>2019-05-17T12:37:18.179Z</time>
      </trkpt>
      <trkpt lat="39.42863333" lon="-8.46099333">
        <ele>15.0</ele>
        <time>2019-05-17T12:37:19.154Z</time>
      </trkpt>
      <trkpt lat="39.42866167" lon="-8.460985">
        <ele>15.0</ele>
        <time>2019-05-17T12:37:20.151Z</time>
      </trkpt>
      <trkpt lat="39.42866167" lon="-8.460985">
        <ele>15.0</ele>
        <time>2019-05-17T12:37:21.156Z</time>
      </trkpt>
      <trkpt lat="39.42872" lon="-8.46097167">
        <ele>16.0</ele>
        <time>2019-05-17T12:37:22.157Z</time>
      </trkpt>
      <trkpt lat="39.42872" lon="-8.46097167">
        <ele>16.0</ele>
        <time>2019-05-17T12:37:23.182Z</time>
      </trkpt>
      <trkpt lat="39.42878167" lon="-8.46095833">
        <ele>15.0</ele>
        <time>2019-05-17T12:37:24.176Z</time>
      </trkpt>
      <trkpt lat="39.42878167" lon="-8.46095833">
        <ele>15.0</ele>
        <time>2019-05-17T12:37:25.156Z</time>
      </trkpt>
      <trkpt lat="39.42884167" lon="-8.46094667">
        <ele>15.0</ele>
        <time>2019-05-17T12:37:26.151Z</time>
      </trkpt>
      <trkpt lat="39.42884167" lon="-8.46094667">
        <ele>15.0</ele>
        <time>2019-05-17T12:37:27.156Z</time>
      </trkpt>
      <trkpt lat="39.42890167" lon="-8.46093333">
        <ele>15.0</ele>
        <time>2019-05-17T12:37:28.186Z</time>
      </trkpt>
      <trkpt lat="39.42893" lon="-8.460925">
        <ele>15.0</ele>
        <time>2019-05-17T12:37:29.173Z</time>
      </trkpt>
      <trkpt lat="39.42893" lon="-8.460925">
        <ele>15.0</ele>
        <time>2019-05-17T12:37:30.179Z</time>
      </trkpt>
      <trkpt lat="39.42899" lon="-8.460905">
        <ele>15.0</ele>
        <time>2019-05-17T12:37:31.178Z</time>
      </trkpt>
      <trkpt lat="39.42902" lon="-8.46089667">
        <ele>15.0</ele>
        <time>2019-05-17T12:37:32.168Z</time>
      </trkpt>
      <trkpt lat="39.42902" lon="-8.46089667">
        <ele>15.0</ele>
        <time>2019-05-17T12:37:33.190Z</time>
      </trkpt>
      <trkpt lat="39.42908333" lon="-8.46087833">
        <ele>15.0</ele>
        <time>2019-05-17T12:37:34.180Z</time>
      </trkpt>
      <trkpt lat="39.42908333" lon="-8.46087833">
        <ele>15.0</ele>
        <time>2019-05-17T12:37:35.185Z</time>
      </trkpt>
      <trkpt lat="39.429145" lon="-8.46085667">
        <ele>15.0</ele>
        <time>2019-05-17T12:37:36.156Z</time>
      </trkpt>
      <trkpt lat="39.429145" lon="-8.46085667">
        <ele>15.0</ele>
        <time>2019-05-17T12:37:37.165Z</time>
      </trkpt>
      <trkpt lat="39.42920833" lon="-8.46083333">
        <ele>15.0</ele>
        <time>2019-05-17T12:37:38.164Z</time>
      </trkpt>
      <trkpt lat="39.42920833" lon="-8.46083333">
        <ele>15.0</ele>
        <time>2019-05-17T12:37:39.183Z</time>
      </trkpt>
      <trkpt lat="39.42927" lon="-8.460815">
        <ele>15.0</ele>
        <time>2019-05-17T12:37:40.185Z</time>
      </trkpt>
      <trkpt lat="39.42927" lon="-8.460815">
        <ele>15.0</ele>
        <time>2019-05-17T12:37:41.155Z</time>
      </trkpt>
      <trkpt lat="39.42932833" lon="-8.46079167">
        <ele>15.0</ele>
        <time>2019-05-17T12:37:42.156Z</time>
      </trkpt>
      <trkpt lat="39.42932833" lon="-8.46079167">
        <ele>15.0</ele>
        <time>2019-05-17T12:37:43.169Z</time>
      </trkpt>
      <trkpt lat="39.429385" lon="-8.46076">
        <ele>15.0</ele>
        <time>2019-05-17T12:37:44.162Z</time>
      </trkpt>
      <trkpt lat="39.429385" lon="-8.46076">
        <ele>15.0</ele>
        <time>2019-05-17T12:37:45.175Z</time>
      </trkpt>
      <trkpt lat="39.42944333" lon="-8.46073">
        <ele>15.0</ele>
        <time>2019-05-17T12:37:46.152Z</time>
      </trkpt>
      <trkpt lat="39.42944333" lon="-8.46073">
        <ele>15.0</ele>
        <time>2019-05-17T12:37:47.172Z</time>
      </trkpt>
      <trkpt lat="39.42950333" lon="-8.4607">
        <ele>15.0</ele>
        <time>2019-05-17T12:37:48.175Z</time>
      </trkpt>
      <trkpt lat="39.42950333" lon="-8.4607">
        <ele>15.0</ele>
        <time>2019-05-17T12:37:49.182Z</time>
      </trkpt>
      <trkpt lat="39.42956" lon="-8.46067167">
        <ele>15.0</ele>
        <time>2019-05-17T12:37:50.158Z</time>
      </trkpt>
      <trkpt lat="39.42956" lon="-8.46067167">
        <ele>15.0</ele>
        <time>2019-05-17T12:37:51.163Z</time>
      </trkpt>
      <trkpt lat="39.42961333" lon="-8.460645">
        <ele>15.0</ele>
        <time>2019-05-17T12:37:52.169Z</time>
      </trkpt>
      <trkpt lat="39.42961333" lon="-8.460645">
        <ele>15.0</ele>
        <time>2019-05-17T12:37:53.152Z</time>
      </trkpt>
      <trkpt lat="39.42966167" lon="-8.46062">
        <ele>15.0</ele>
        <time>2019-05-17T12:37:54.153Z</time>
      </trkpt>
      <trkpt lat="39.42966167" lon="-8.46062">
        <ele>15.0</ele>
        <time>2019-05-17T12:37:55.162Z</time>
      </trkpt>
      <trkpt lat="39.42971" lon="-8.460595">
        <ele>15.0</ele>
        <time>2019-05-17T12:37:56.190Z</time>
      </trkpt>
      <trkpt lat="39.42971" lon="-8.460595">
        <ele>15.0</ele>
        <time>2019-05-17T12:37:57.155Z</time>
      </trkpt>
      <trkpt lat="39.42976" lon="-8.46057">
        <ele>15.0</ele>
        <time>2019-05-17T12:37:58.161Z</time>
      </trkpt>
      <trkpt lat="39.42976" lon="-8.46057">
        <ele>15.0</ele>
        <time>2019-05-17T12:37:59.173Z</time>
      </trkpt>
      <trkpt lat="39.42981167" lon="-8.46054167">
        <ele>15.0</ele>
        <time>2019-05-17T12:38:00.180Z</time>
      </trkpt>
      <trkpt lat="39.42981167" lon="-8.46054167">
        <ele>15.0</ele>
        <time>2019-05-17T12:38:01.186Z</time>
      </trkpt>
      <trkpt lat="39.42986667" lon="-8.46051167">
        <ele>15.0</ele>
        <time>2019-05-17T12:38:02.177Z</time>
      </trkpt>
      <trkpt lat="39.42986667" lon="-8.46051167">
        <ele>15.0</ele>
        <time>2019-05-17T12:38:03.185Z</time>
      </trkpt>
      <trkpt lat="39.42992" lon="-8.46048">
        <ele>15.0</ele>
        <time>2019-05-17T12:38:04.177Z</time>
      </trkpt>
      <trkpt lat="39.42992" lon="-8.46048">
        <ele>15.0</ele>
        <time>2019-05-17T12:38:05.156Z</time>
      </trkpt>
      <trkpt lat="39.42997833" lon="-8.46045">
        <ele>15.0</ele>
        <time>2019-05-17T12:38:06.181Z</time>
      </trkpt>
      <trkpt lat="39.42997833" lon="-8.46045">
        <ele>15.0</ele>
        <time>2019-05-17T12:38:07.186Z</time>
      </trkpt>
      <trkpt lat="39.43003667" lon="-8.46042667">
        <ele>15.0</ele>
        <time>2019-05-17T12:38:08.176Z</time>
      </trkpt>
      <trkpt lat="39.43003667" lon="-8.46042667">
        <ele>15.0</ele>
        <time>2019-05-17T12:38:09.150Z</time>
      </trkpt>
      <trkpt lat="39.430095" lon="-8.46039667">
        <ele>15.0</ele>
        <time>2019-05-17T12:38:10.175Z</time>
      </trkpt>
      <trkpt lat="39.430095" lon="-8.46039667">
        <ele>15.0</ele>
        <time>2019-05-17T12:38:11.183Z</time>
      </trkpt>
      <trkpt lat="39.43015333" lon="-8.46036333">
        <ele>15.0</ele>
        <time>2019-05-17T12:38:12.151Z</time>
      </trkpt>
      <trkpt lat="39.43015333" lon="-8.46036333">
        <ele>15.0</ele>
        <time>2019-05-17T12:38:13.159Z</time>
      </trkpt>
      <trkpt lat="39.43021" lon="-8.46032833">
        <ele>15.0</ele>
        <time>2019-05-17T12:38:14.157Z</time>
      </trkpt>
      <trkpt lat="39.43021" lon="-8.46032833">
        <ele>15.0</ele>
        <time>2019-05-17T12:38:15.166Z</time>
      </trkpt>
      <trkpt lat="39.43026667" lon="-8.460295">
        <ele>15.0</ele>
        <time>2019-05-17T12:38:16.152Z</time>
      </trkpt>
      <trkpt lat="39.43026667" lon="-8.460295">
        <ele>15.0</ele>
        <time>2019-05-17T12:38:17.161Z</time>
      </trkpt>
      <trkpt lat="39.430325" lon="-8.46026167">
        <ele>15.0</ele>
        <time>2019-05-17T12:38:18.155Z</time>
      </trkpt>
      <trkpt lat="39.430325" lon="-8.46026167">
        <ele>15.0</ele>
        <time>2019-05-17T12:38:19.186Z</time>
      </trkpt>
      <trkpt lat="39.43038333" lon="-8.46023667">
        <ele>15.0</ele>
        <time>2019-05-17T12:38:20.171Z</time>
      </trkpt>
      <trkpt lat="39.43038333" lon="-8.46023667">
        <ele>15.0</ele>
        <time>2019-05-17T12:38:21.154Z</time>
      </trkpt>
      <trkpt lat="39.43044333" lon="-8.46022333">
        <ele>15.0</ele>
        <time>2019-05-17T12:38:22.157Z</time>
      </trkpt>
      <trkpt lat="39.43044333" lon="-8.46022333">
        <ele>15.0</ele>
        <time>2019-05-17T12:38:23.163Z</time>
      </trkpt>
      <trkpt lat="39.43050833" lon="-8.46022167">
        <ele>15.0</ele>
        <time>2019-05-17T12:38:24.162Z</time>
      </trkpt>
      <trkpt lat="39.43054" lon="-8.460225">
        <ele>15.0</ele>
        <time>2019-05-17T12:38:25.177Z</time>
      </trkpt>
      <trkpt lat="39.43057167" lon="-8.46022667">
        <ele>15.0</ele>
        <time>2019-05-17T12:38:26.174Z</time>
      </trkpt>
      <trkpt lat="39.43057167" lon="-8.46022667">
        <ele>15.0</ele>
        <time>2019-05-17T12:38:27.152Z</time>
      </trkpt>
      <trkpt lat="39.43063667" lon="-8.46023167">
        <ele>15.0</ele>
        <time>2019-05-17T12:38:28.153Z</time>
      </trkpt>
      <trkpt lat="39.43063667" lon="-8.46023167">
        <ele>15.0</ele>
        <time>2019-05-17T12:38:29.174Z</time>
      </trkpt>
      <trkpt lat="39.43070167" lon="-8.46024">
        <ele>15.0</ele>
        <time>2019-05-17T12:38:30.157Z</time>
      </trkpt>
      <trkpt lat="39.43073333" lon="-8.46024667">
        <ele>15.0</ele>
        <time>2019-05-17T12:38:31.161Z</time>
      </trkpt>
      <trkpt lat="39.430765" lon="-8.46025167">
        <ele>15.0</ele>
        <time>2019-05-17T12:38:32.164Z</time>
      </trkpt>
      <trkpt lat="39.430765" lon="-8.46025167">
        <ele>15.0</ele>
        <time>2019-05-17T12:38:33.169Z</time>
      </trkpt>
      <trkpt lat="39.43082667" lon="-8.460265">
        <ele>15.0</ele>
        <time>2019-05-17T12:38:34.166Z</time>
      </trkpt>
      <trkpt lat="39.43082667" lon="-8.460265">
        <ele>15.0</ele>
        <time>2019-05-17T12:38:35.171Z</time>
      </trkpt>
      <trkpt lat="39.43088833" lon="-8.46027667">
        <ele>15.0</ele>
        <time>2019-05-17T12:38:36.173Z</time>
      </trkpt>
      <trkpt lat="39.43088833" lon="-8.46027667">
        <ele>15.0</ele>
        <time>2019-05-17T12:38:37.184Z</time>
      </trkpt>
      <trkpt lat="39.43095667" lon="-8.46028667">
        <ele>15.0</ele>
        <time>2019-05-17T12:38:38.181Z</time>
      </trkpt>
      <trkpt lat="39.43095667" lon="-8.46028667">
        <ele>15.0</ele>
        <time>2019-05-17T12:38:39.187Z</time>
      </trkpt>
      <trkpt lat="39.43101667" lon="-8.46030333">
        <ele>15.0</ele>
        <time>2019-05-17T12:38:40.175Z</time>
      </trkpt>
      <trkpt lat="39.43101667" lon="-8.46030333">
        <ele>15.0</ele>
        <time>2019-05-17T12:38:41.185Z</time>
      </trkpt>
      <trkpt lat="39.43107833" lon="-8.460315">
        <ele>15.0</ele>
        <time>2019-05-17T12:38:42.179Z</time>
      </trkpt>
      <trkpt lat="39.43110833" lon="-8.46032167">
        <ele>15.0</ele>
        <time>2019-05-17T12:38:43.171Z</time>
      </trkpt>
      <trkpt lat="39.43113667" lon="-8.46032833">
        <ele>15.0</ele>
        <time>2019-05-17T12:38:44.175Z</time>
      </trkpt>
      <trkpt lat="39.43113667" lon="-8.46032833">
        <ele>15.0</ele>
        <time>2019-05-17T12:38:45.181Z</time>
      </trkpt>
      <trkpt lat="39.43119833" lon="-8.46034667">
        <ele>15.0</ele>
        <time>2019-05-17T12:38:46.174Z</time>
      </trkpt>
      <trkpt lat="39.43123" lon="-8.46035833">
        <ele>16.0</ele>
        <time>2019-05-17T12:38:47.175Z</time>
      </trkpt>
      <trkpt lat="39.43123" lon="-8.46035833">
        <ele>16.0</ele>
        <time>2019-05-17T12:38:48.190Z</time>
      </trkpt>
      <trkpt lat="39.43129167" lon="-8.46038833">
        <ele>16.0</ele>
        <time>2019-05-17T12:38:49.151Z</time>
      </trkpt>
      <trkpt lat="39.43132167" lon="-8.46040667">
        <ele>16.0</ele>
        <time>2019-05-17T12:38:50.165Z</time>
      </trkpt>
      <trkpt lat="39.43132167" lon="-8.46040667">
        <ele>16.0</ele>
        <time>2019-05-17T12:38:51.169Z</time>
      </trkpt>
      <trkpt lat="39.43138333" lon="-8.46044333">
        <ele>16.0</ele>
        <time>2019-05-17T12:38:52.164Z</time>
      </trkpt>
      <trkpt lat="39.43138333" lon="-8.46044333">
        <ele>16.0</ele>
        <time>2019-05-17T12:38:53.187Z</time>
      </trkpt>
      <trkpt lat="39.43144333" lon="-8.46048167">
        <ele>16.0</ele>
        <time>2019-05-17T12:38:54.177Z</time>
      </trkpt>
      <trkpt lat="39.43144333" lon="-8.46048167">
        <ele>16.0</ele>
        <time>2019-05-17T12:38:55.189Z</time>
      </trkpt>
      <trkpt lat="39.431505" lon="-8.46052">
        <ele>16.0</ele>
        <time>2019-05-17T12:38:56.155Z</time>
      </trkpt>
      <trkpt lat="39.431505" lon="-8.46052">
        <ele>16.0</ele>
        <time>2019-05-17T12:38:57.171Z</time>
      </trkpt>
      <trkpt lat="39.43156667" lon="-8.46056333">
        <ele>16.0</ele>
        <time>2019-05-17T12:38:58.155Z</time>
      </trkpt>
      <trkpt lat="39.43156667" lon="-8.46056333">
        <ele>16.0</ele>
        <time>2019-05-17T12:38:59.164Z</time>
      </trkpt>
      <trkpt lat="39.43162667" lon="-8.46060667">
        <ele>16.0</ele>
        <time>2019-05-17T12:39:00.185Z</time>
      </trkpt>
      <trkpt lat="39.43162667" lon="-8.46060667">
        <ele>16.0</ele>
        <time>2019-05-17T12:39:01.161Z</time>
      </trkpt>
      <trkpt lat="39.43168667" lon="-8.46064667">
        <ele>16.0</ele>
        <time>2019-05-17T12:39:02.173Z</time>
      </trkpt>
      <trkpt lat="39.43168667" lon="-8.46064667">
        <ele>16.0</ele>
        <time>2019-05-17T12:39:03.154Z</time>
      </trkpt>
      <trkpt lat="39.431745" lon="-8.46068667">
        <ele>16.0</ele>
        <time>2019-05-17T12:39:04.173Z</time>
      </trkpt>
      <trkpt lat="39.43177333" lon="-8.46070667">
        <ele>16.0</ele>
        <time>2019-05-17T12:39:05.169Z</time>
      </trkpt>
      <trkpt lat="39.43177333" lon="-8.46070667">
        <ele>16.0</ele>
        <time>2019-05-17T12:39:06.186Z</time>
      </trkpt>
      <trkpt lat="39.43183" lon="-8.46074667">
        <ele>16.0</ele>
        <time>2019-05-17T12:39:07.185Z</time>
      </trkpt>
      <trkpt lat="39.43185833" lon="-8.46076667">
        <ele>16.0</ele>
        <time>2019-05-17T12:39:08.170Z</time>
      </trkpt>
      <trkpt lat="39.43185833" lon="-8.46076667">
        <ele>16.0</ele>
        <time>2019-05-17T12:39:09.170Z</time>
      </trkpt>
      <trkpt lat="39.43191667" lon="-8.46080667">
        <ele>16.0</ele>
        <time>2019-05-17T12:39:10.165Z</time>
      </trkpt>
      <trkpt lat="39.43191667" lon="-8.46080667">
        <ele>16.0</ele>
        <time>2019-05-17T12:39:11.173Z</time>
      </trkpt>
      <trkpt lat="39.43197167" lon="-8.46084833">
        <ele>16.0</ele>
        <time>2019-05-17T12:39:12.155Z</time>
      </trkpt>
      <trkpt lat="39.43197167" lon="-8.46084833">
        <ele>16.0</ele>
        <time>2019-05-17T12:39:13.174Z</time>
      </trkpt>
      <trkpt lat="39.43202833" lon="-8.46088833">
        <ele>16.0</ele>
        <time>2019-05-17T12:39:14.181Z</time>
      </trkpt>
      <trkpt lat="39.43202833" lon="-8.46088833">
        <ele>16.0</ele>
        <time>2019-05-17T12:39:15.175Z</time>
      </trkpt>
      <trkpt lat="39.43209" lon="-8.46092667">
        <ele>16.0</ele>
        <time>2019-05-17T12:39:16.187Z</time>
      </trkpt>
      <trkpt lat="39.43209" lon="-8.46092667">
        <ele>16.0</ele>
        <time>2019-05-17T12:39:17.160Z</time>
      </trkpt>
      <trkpt lat="39.43215" lon="-8.46096667">
        <ele>17.0</ele>
        <time>2019-05-17T12:39:18.155Z</time>
      </trkpt>
      <trkpt lat="39.43215" lon="-8.46096667">
        <ele>17.0</ele>
        <time>2019-05-17T12:39:19.162Z</time>
      </trkpt>
      <trkpt lat="39.43220667" lon="-8.46100833">
        <ele>17.0</ele>
        <time>2019-05-17T12:39:20.165Z</time>
      </trkpt>
      <trkpt lat="39.43220667" lon="-8.46100833">
        <ele>17.0</ele>
        <time>2019-05-17T12:39:21.176Z</time>
      </trkpt>
      <trkpt lat="39.432265" lon="-8.46104833">
        <ele>17.0</ele>
        <time>2019-05-17T12:39:22.166Z</time>
      </trkpt>
      <trkpt lat="39.432265" lon="-8.46104833">
        <ele>17.0</ele>
        <time>2019-05-17T12:39:23.171Z</time>
      </trkpt>
      <trkpt lat="39.43232333" lon="-8.461085">
        <ele>17.0</ele>
        <time>2019-05-17T12:39:24.181Z</time>
      </trkpt>
      <trkpt lat="39.43232333" lon="-8.461085">
        <ele>17.0</ele>
        <time>2019-05-17T12:39:25.186Z</time>
      </trkpt>
      <trkpt lat="39.43237333" lon="-8.46112167">
        <ele>17.0</ele>
        <time>2019-05-17T12:39:26.168Z</time>
      </trkpt>
      <trkpt lat="39.43237333" lon="-8.46112167">
        <ele>17.0</ele>
        <time>2019-05-17T12:39:27.182Z</time>
      </trkpt>
      <trkpt lat="39.43242333" lon="-8.46115333">
        <ele>17.0</ele>
        <time>2019-05-17T12:39:28.180Z</time>
      </trkpt>
      <trkpt lat="39.43242333" lon="-8.46115333">
        <ele>17.0</ele>
        <time>2019-05-17T12:39:29.186Z</time>
      </trkpt>
      <trkpt lat="39.43247333" lon="-8.461185">
        <ele>17.0</ele>
        <time>2019-05-17T12:39:30.181Z</time>
      </trkpt>
      <trkpt lat="39.43247333" lon="-8.461185">
        <ele>17.0</ele>
        <time>2019-05-17T12:39:31.157Z</time>
      </trkpt>
      <trkpt lat="39.43252833" lon="-8.461215">
        <ele>17.0</ele>
        <time>2019-05-17T12:39:32.159Z</time>
      </trkpt>
      <trkpt lat="39.43252833" lon="-8.461215">
        <ele>17.0</ele>
        <time>2019-05-17T12:39:33.171Z</time>
      </trkpt>
      <trkpt lat="39.43258167" lon="-8.46124">
        <ele>17.0</ele>
        <time>2019-05-17T12:39:34.163Z</time>
      </trkpt>
      <trkpt lat="39.43258167" lon="-8.46124">
        <ele>17.0</ele>
        <time>2019-05-17T12:39:35.184Z</time>
      </trkpt>
      <trkpt lat="39.432635" lon="-8.46126833">
        <ele>17.0</ele>
        <time>2019-05-17T12:39:36.182Z</time>
      </trkpt>
      <trkpt lat="39.432635" lon="-8.46126833">
        <ele>17.0</ele>
        <time>2019-05-17T12:39:37.187Z</time>
      </trkpt>
      <trkpt lat="39.43269167" lon="-8.46129">
        <ele>17.0</ele>
        <time>2019-05-17T12:39:38.175Z</time>
      </trkpt>
      <trkpt lat="39.43269167" lon="-8.46129">
        <ele>17.0</ele>
        <time>2019-05-17T12:39:39.186Z</time>
      </trkpt>
      <trkpt lat="39.43275167" lon="-8.46130833">
        <ele>17.0</ele>
        <time>2019-05-17T12:39:40.186Z</time>
      </trkpt>
      <trkpt lat="39.43275167" lon="-8.46130833">
        <ele>17.0</ele>
        <time>2019-05-17T12:39:41.186Z</time>
      </trkpt>
      <trkpt lat="39.43281" lon="-8.46132167">
        <ele>17.0</ele>
        <time>2019-05-17T12:39:42.154Z</time>
      </trkpt>
      <trkpt lat="39.43281" lon="-8.46132167">
        <ele>17.0</ele>
        <time>2019-05-17T12:39:43.164Z</time>
      </trkpt>
      <trkpt lat="39.43286667" lon="-8.46132833">
        <ele>17.0</ele>
        <time>2019-05-17T12:39:44.176Z</time>
      </trkpt>
      <trkpt lat="39.43286667" lon="-8.46132833">
        <ele>17.0</ele>
        <time>2019-05-17T12:39:45.184Z</time>
      </trkpt>
      <trkpt lat="39.43292333" lon="-8.46132667">
        <ele>17.0</ele>
        <time>2019-05-17T12:39:46.181Z</time>
      </trkpt>
      <trkpt lat="39.43292333" lon="-8.46132667">
        <ele>17.0</ele>
        <time>2019-05-17T12:39:47.159Z</time>
      </trkpt>
      <trkpt lat="39.43298" lon="-8.46132833">
        <ele>17.0</ele>
        <time>2019-05-17T12:39:48.153Z</time>
      </trkpt>
      <trkpt lat="39.43298" lon="-8.46132833">
        <ele>17.0</ele>
        <time>2019-05-17T12:39:49.163Z</time>
      </trkpt>
      <trkpt lat="39.43303667" lon="-8.461325">
        <ele>17.0</ele>
        <time>2019-05-17T12:39:50.151Z</time>
      </trkpt>
      <trkpt lat="39.43303667" lon="-8.461325">
        <ele>17.0</ele>
        <time>2019-05-17T12:39:51.171Z</time>
      </trkpt>
      <trkpt lat="39.43309667" lon="-8.461315">
        <ele>17.0</ele>
        <time>2019-05-17T12:39:52.185Z</time>
      </trkpt>
      <trkpt lat="39.43309667" lon="-8.461315">
        <ele>17.0</ele>
        <time>2019-05-17T12:39:53.152Z</time>
      </trkpt>
      <trkpt lat="39.43316" lon="-8.46130333">
        <ele>16.0</ele>
        <time>2019-05-17T12:39:54.189Z</time>
      </trkpt>
      <trkpt lat="39.43316" lon="-8.46130333">
        <ele>16.0</ele>
        <time>2019-05-17T12:39:55.154Z</time>
      </trkpt>
      <trkpt lat="39.43322167" lon="-8.46128833">
        <ele>16.0</ele>
        <time>2019-05-17T12:39:56.158Z</time>
      </trkpt>
      <trkpt lat="39.43322167" lon="-8.46128833">
        <ele>16.0</ele>
        <time>2019-05-17T12:39:57.167Z</time>
      </trkpt>
      <trkpt lat="39.43328333" lon="-8.46127167">
        <ele>16.0</ele>
        <time>2019-05-17T12:39:58.163Z</time>
      </trkpt>
      <trkpt lat="39.43328333" lon="-8.46127167">
        <ele>16.0</ele>
        <time>2019-05-17T12:39:59.175Z</time>
      </trkpt>
      <trkpt lat="39.43334667" lon="-8.46125667">
        <ele>16.0</ele>
        <time>2019-05-17T12:40:00.158Z</time>
      </trkpt>
      <trkpt lat="39.43334667" lon="-8.46125667">
        <ele>16.0</ele>
        <time>2019-05-17T12:40:01.185Z</time>
      </trkpt>
      <trkpt lat="39.43341" lon="-8.46124667">
        <ele>16.0</ele>
        <time>2019-05-17T12:40:02.172Z</time>
      </trkpt>
      <trkpt lat="39.43341" lon="-8.46124667">
        <ele>16.0</ele>
        <time>2019-05-17T12:40:03.150Z</time>
      </trkpt>
      <trkpt lat="39.43347333" lon="-8.461235">
        <ele>16.0</ele>
        <time>2019-05-17T12:40:04.158Z</time>
      </trkpt>
      <trkpt lat="39.43347333" lon="-8.461235">
        <ele>16.0</ele>
        <time>2019-05-17T12:40:05.153Z</time>
      </trkpt>
      <trkpt lat="39.43353667" lon="-8.46122167">
        <ele>16.0</ele>
        <time>2019-05-17T12:40:06.161Z</time>
      </trkpt>
      <trkpt lat="39.43353667" lon="-8.46122167">
        <ele>16.0</ele>
        <time>2019-05-17T12:40:07.185Z</time>
      </trkpt>
      <trkpt lat="39.43360333" lon="-8.46121">
        <ele>16.0</ele>
        <time>2019-05-17T12:40:08.173Z</time>
      </trkpt>
      <trkpt lat="39.43360333" lon="-8.46121">
        <ele>16.0</ele>
        <time>2019-05-17T12:40:09.186Z</time>
      </trkpt>
      <trkpt lat="39.43366833" lon="-8.4612">
        <ele>17.0</ele>
        <time>2019-05-17T12:40:10.156Z</time>
      </trkpt>
      <trkpt lat="39.43366833" lon="-8.4612">
        <ele>17.0</ele>
        <time>2019-05-17T12:40:11.179Z</time>
      </trkpt>
      <trkpt lat="39.43373" lon="-8.46119">
        <ele>17.0</ele>
        <time>2019-05-17T12:40:12.171Z</time>
      </trkpt>
      <trkpt lat="39.43376167" lon="-8.461185">
        <ele>17.0</ele>
        <time>2019-05-17T12:40:13.164Z</time>
      </trkpt>
      <trkpt lat="39.43376167" lon="-8.461185">
        <ele>17.0</ele>
        <time>2019-05-17T12:40:14.152Z</time>
      </trkpt>
      <trkpt lat="39.43382" lon="-8.46117">
        <ele>17.0</ele>
        <time>2019-05-17T12:40:15.154Z</time>
      </trkpt>
      <trkpt lat="39.433845" lon="-8.46116333">
        <ele>17.0</ele>
        <time>2019-05-17T12:40:16.171Z</time>
      </trkpt>
      <trkpt lat="39.433845" lon="-8.46116333">
        <ele>17.0</ele>
        <time>2019-05-17T12:40:17.179Z</time>
      </trkpt>
      <trkpt lat="39.433875" lon="-8.46115">
        <ele>17.0</ele>
        <time>2019-05-17T12:40:18.185Z</time>
      </trkpt>
      <trkpt lat="39.433875" lon="-8.46115">
        <ele>17.0</ele>
        <time>2019-05-17T12:40:19.150Z</time>
      </trkpt>
      <trkpt lat="39.43387667" lon="-8.46115333">
        <ele>17.0</ele>
        <time>2019-05-17T12:40:20.176Z</time>
      </trkpt>
      <trkpt lat="39.43387667" lon="-8.46115333">
        <ele>17.0</ele>
        <time>2019-05-17T12:40:21.156Z</time>
      </trkpt>
      <trkpt lat="39.433875" lon="-8.46115333">
        <ele>17.0</ele>
        <time>2019-05-17T12:40:22.157Z</time>
      </trkpt>
      <trkpt lat="39.433875" lon="-8.46115333">
        <ele>17.0</ele>
        <time>2019-05-17T12:40:23.162Z</time>
      </trkpt>
      <trkpt lat="39.433875" lon="-8.46115333">
        <ele>17.0</ele>
        <time>2019-05-17T12:40:24.168Z</time>
      </trkpt>
      <trkpt lat="39.433875" lon="-8.46115333">
        <ele>17.0</ele>
        <time>2019-05-17T12:40:25.174Z</time>
      </trkpt>
      <trkpt lat="39.433875" lon="-8.46115333">
        <ele>17.0</ele>
        <time>2019-05-17T12:40:26.153Z</time>
      </trkpt>
      <trkpt lat="39.433875" lon="-8.46115333">
        <ele>17.0</ele>
        <time>2019-05-17T12:40:27.159Z</time>
      </trkpt>
      <trkpt lat="39.433875" lon="-8.46115333">
        <ele>17.0</ele>
        <time>2019-05-17T12:40:28.164Z</time>
      </trkpt>
      <trkpt lat="39.433875" lon="-8.46115333">
        <ele>17.0</ele>
        <time>2019-05-17T12:40:29.189Z</time>
      </trkpt>
      <trkpt lat="39.433875" lon="-8.46115333">
        <ele>17.0</ele>
        <time>2019-05-17T12:40:30.150Z</time>
      </trkpt>
      <trkpt lat="39.433875" lon="-8.46115333">
        <ele>17.0</ele>
        <time>2019-05-17T12:40:31.159Z</time>
      </trkpt>
      <trkpt lat="39.433875" lon="-8.46115333">
        <ele>17.0</ele>
        <time>2019-05-17T12:40:32.159Z</time>
      </trkpt>
      <trkpt lat="39.433875" lon="-8.46115333">
        <ele>17.0</ele>
        <time>2019-05-17T12:40:33.150Z</time>
      </trkpt>
      <trkpt lat="39.433875" lon="-8.46115333">
        <ele>17.0</ele>
        <time>2019-05-17T12:40:34.162Z</time>
      </trkpt>
      <trkpt lat="39.433875" lon="-8.46115333">
        <ele>17.0</ele>
        <time>2019-05-17T12:40:35.151Z</time>
      </trkpt>
      <trkpt lat="39.433875" lon="-8.46115333">
        <ele>17.0</ele>
        <time>2019-05-17T12:40:36.155Z</time>
      </trkpt>
      <trkpt lat="39.433875" lon="-8.46115333">
        <ele>17.0</ele>
        <time>2019-05-17T12:40:37.151Z</time>
      </trkpt>
      <trkpt lat="39.433875" lon="-8.46115333">
        <ele>17.0</ele>
        <time>2019-05-17T12:40:38.159Z</time>
      </trkpt>
      <trkpt lat="39.433875" lon="-8.46115333">
        <ele>17.0</ele>
        <time>2019-05-17T12:40:39.154Z</time>
      </trkpt>
      <trkpt lat="39.433875" lon="-8.46115333">
        <ele>17.0</ele>
        <time>2019-05-17T12:40:40.151Z</time>
      </trkpt>
      <trkpt lat="39.433875" lon="-8.46115333">
        <ele>17.0</ele>
        <time>2019-05-17T12:40:41.156Z</time>
      </trkpt>
      <trkpt lat="39.433875" lon="-8.46115333">
        <ele>17.0</ele>
        <time>2019-05-17T12:40:42.151Z</time>
      </trkpt>
      <trkpt lat="39.433875" lon="-8.46115333">
        <ele>17.0</ele>
        <time>2019-05-17T12:40:43.156Z</time>
      </trkpt>
      <trkpt lat="39.433875" lon="-8.46115333">
        <ele>17.0</ele>
        <time>2019-05-17T12:40:44.159Z</time>
      </trkpt>
      <trkpt lat="39.433875" lon="-8.46115333">
        <ele>17.0</ele>
        <time>2019-05-17T12:40:45.156Z</time>
      </trkpt>
      <trkpt lat="39.433875" lon="-8.46115333">
        <ele>17.0</ele>
        <time>2019-05-17T12:40:46.151Z</time>
      </trkpt>
      <trkpt lat="39.433875" lon="-8.46115333">
        <ele>17.0</ele>
        <time>2019-05-17T12:40:47.161Z</time>
      </trkpt>
      <trkpt lat="39.433875" lon="-8.46115333">
        <ele>17.0</ele>
        <time>2019-05-17T12:40:48.153Z</time>
      </trkpt>
      <trkpt lat="39.433875" lon="-8.46115333">
        <ele>17.0</ele>
        <time>2019-05-17T12:40:49.155Z</time>
      </trkpt>
      <trkpt lat="39.433875" lon="-8.46115333">
        <ele>17.0</ele>
        <time>2019-05-17T12:40:50.168Z</time>
      </trkpt>
      <trkpt lat="39.433875" lon="-8.46115333">
        <ele>17.0</ele>
        <time>2019-05-17T12:40:51.169Z</time>
      </trkpt>
      <trkpt lat="39.43387833" lon="-8.46115667">
        <ele>17.0</ele>
        <time>2019-05-17T12:40:52.157Z</time>
      </trkpt>
      <trkpt lat="39.433895" lon="-8.46115667">
        <ele>17.0</ele>
        <time>2019-05-17T12:40:53.154Z</time>
      </trkpt>
      <trkpt lat="39.433895" lon="-8.46115667">
        <ele>17.0</ele>
        <time>2019-05-17T12:40:54.151Z</time>
      </trkpt>
      <trkpt lat="39.43393333" lon="-8.46114667">
        <ele>17.0</ele>
        <time>2019-05-17T12:40:55.156Z</time>
      </trkpt>
      <trkpt lat="39.433955" lon="-8.46114333">
        <ele>17.0</ele>
        <time>2019-05-17T12:40:56.154Z</time>
      </trkpt>
      <trkpt lat="39.433955" lon="-8.46114333">
        <ele>17.0</ele>
        <time>2019-05-17T12:40:57.151Z</time>
      </trkpt>
      <trkpt lat="39.43400167" lon="-8.46114">
        <ele>17.0</ele>
        <time>2019-05-17T12:40:58.160Z</time>
      </trkpt>
      <trkpt lat="39.43400167" lon="-8.46114">
        <ele>17.0</ele>
        <time>2019-05-17T12:40:59.151Z</time>
      </trkpt>
      <trkpt lat="39.43404833" lon="-8.46113167">
        <ele>17.0</ele>
        <time>2019-05-17T12:41:00.172Z</time>
      </trkpt>
      <trkpt lat="39.43404833" lon="-8.46113167">
        <ele>17.0</ele>
        <time>2019-05-17T12:41:01.150Z</time>
      </trkpt>
      <trkpt lat="39.43409833" lon="-8.46112333">
        <ele>16.0</ele>
        <time>2019-05-17T12:41:02.183Z</time>
      </trkpt>
      <trkpt lat="39.43409833" lon="-8.46112333">
        <ele>16.0</ele>
        <time>2019-05-17T12:41:03.152Z</time>
      </trkpt>
      <trkpt lat="39.434145" lon="-8.46112">
        <ele>16.0</ele>
        <time>2019-05-17T12:41:04.157Z</time>
      </trkpt>
      <trkpt lat="39.434145" lon="-8.46112">
        <ele>16.0</ele>
        <time>2019-05-17T12:41:05.162Z</time>
      </trkpt>
      <trkpt lat="39.43419" lon="-8.46111333">
        <ele>16.0</ele>
        <time>2019-05-17T12:41:06.165Z</time>
      </trkpt>
      <trkpt lat="39.43419" lon="-8.46111333">
        <ele>16.0</ele>
        <time>2019-05-17T12:41:07.170Z</time>
      </trkpt>
      <trkpt lat="39.43424" lon="-8.461105">
        <ele>16.0</ele>
        <time>2019-05-17T12:41:08.159Z</time>
      </trkpt>
      <trkpt lat="39.43424" lon="-8.461105">
        <ele>16.0</ele>
        <time>2019-05-17T12:41:09.160Z</time>
      </trkpt>
      <trkpt lat="39.43429667" lon="-8.461095">
        <ele>16.0</ele>
        <time>2019-05-17T12:41:10.161Z</time>
      </trkpt>
      <trkpt lat="39.43429667" lon="-8.461095">
        <ele>16.0</ele>
        <time>2019-05-17T12:41:11.151Z</time>
      </trkpt>
      <trkpt lat="39.434355" lon="-8.46108167">
        <ele>16.0</ele>
        <time>2019-05-17T12:41:12.190Z</time>
      </trkpt>
      <trkpt lat="39.434355" lon="-8.46108167">
        <ele>16.0</ele>
        <time>2019-05-17T12:41:13.155Z</time>
      </trkpt>
      <trkpt lat="39.43441667" lon="-8.461075">
        <ele>16.0</ele>
        <time>2019-05-17T12:41:14.189Z</time>
      </trkpt>
      <trkpt lat="39.43441667" lon="-8.461075">
        <ele>16.0</ele>
        <time>2019-05-17T12:41:15.154Z</time>
      </trkpt>
      <trkpt lat="39.43447667" lon="-8.46106167">
        <ele>16.0</ele>
        <time>2019-05-17T12:41:16.184Z</time>
      </trkpt>
      <trkpt lat="39.43447667" lon="-8.46106167">
        <ele>16.0</ele>
        <time>2019-05-17T12:41:17.189Z</time>
      </trkpt>
      <trkpt lat="39.43453833" lon="-8.46104833">
        <ele>16.0</ele>
        <time>2019-05-17T12:41:18.193Z</time>
      </trkpt>
      <trkpt lat="39.43453833" lon="-8.46104833">
        <ele>16.0</ele>
        <time>2019-05-17T12:41:19.168Z</time>
      </trkpt>
      <trkpt lat="39.4346" lon="-8.46103333">
        <ele>16.0</ele>
        <time>2019-05-17T12:41:20.161Z</time>
      </trkpt>
      <trkpt lat="39.4346" lon="-8.46103333">
        <ele>16.0</ele>
        <time>2019-05-17T12:41:21.175Z</time>
      </trkpt>
      <trkpt lat="39.43466167" lon="-8.46101833">
        <ele>16.0</ele>
        <time>2019-05-17T12:41:22.177Z</time>
      </trkpt>
      <trkpt lat="39.43466167" lon="-8.46101833">
        <ele>16.0</ele>
        <time>2019-05-17T12:41:23.158Z</time>
      </trkpt>
      <trkpt lat="39.43472" lon="-8.46099667">
        <ele>16.0</ele>
        <time>2019-05-17T12:41:24.150Z</time>
      </trkpt>
      <trkpt lat="39.43472" lon="-8.46099667">
        <ele>16.0</ele>
        <time>2019-05-17T12:41:25.161Z</time>
      </trkpt>
      <trkpt lat="39.43477667" lon="-8.46097167">
        <ele>16.0</ele>
        <time>2019-05-17T12:41:26.156Z</time>
      </trkpt>
      <trkpt lat="39.43477667" lon="-8.46097167">
        <ele>16.0</ele>
        <time>2019-05-17T12:41:27.163Z</time>
      </trkpt>
      <trkpt lat="39.43483167" lon="-8.46094333">
        <ele>16.0</ele>
        <time>2019-05-17T12:41:28.161Z</time>
      </trkpt>
      <trkpt lat="39.43483167" lon="-8.46094333">
        <ele>16.0</ele>
        <time>2019-05-17T12:41:29.167Z</time>
      </trkpt>
      <trkpt lat="39.43488833" lon="-8.46091333">
        <ele>16.0</ele>
        <time>2019-05-17T12:41:30.183Z</time>
      </trkpt>
      <trkpt lat="39.43488833" lon="-8.46091333">
        <ele>16.0</ele>
        <time>2019-05-17T12:41:31.189Z</time>
      </trkpt>
      <trkpt lat="39.43494167" lon="-8.46087667">
        <ele>16.0</ele>
        <time>2019-05-17T12:41:32.155Z</time>
      </trkpt>
      <trkpt lat="39.43494167" lon="-8.46087667">
        <ele>16.0</ele>
        <time>2019-05-17T12:41:33.170Z</time>
      </trkpt>
      <trkpt lat="39.434995" lon="-8.46083833">
        <ele>16.0</ele>
        <time>2019-05-17T12:41:34.173Z</time>
      </trkpt>
      <trkpt lat="39.434995" lon="-8.46083833">
        <ele>16.0</ele>
        <time>2019-05-17T12:41:35.185Z</time>
      </trkpt>
      <trkpt lat="39.435045" lon="-8.46079333">
        <ele>16.0</ele>
        <time>2019-05-17T12:41:36.184Z</time>
      </trkpt>
      <trkpt lat="39.435045" lon="-8.46079333">
        <ele>16.0</ele>
        <time>2019-05-17T12:41:37.150Z</time>
      </trkpt>
      <trkpt lat="39.43509333" lon="-8.46074667">
        <ele>16.0</ele>
        <time>2019-05-17T12:41:38.181Z</time>
      </trkpt>
      <trkpt lat="39.43509333" lon="-8.46074667">
        <ele>16.0</ele>
        <time>2019-05-17T12:41:39.186Z</time>
      </trkpt>
      <trkpt lat="39.43514333" lon="-8.460695">
        <ele>17.0</ele>
        <time>2019-05-17T12:41:40.175Z</time>
      </trkpt>
      <trkpt lat="39.43514333" lon="-8.460695">
        <ele>17.0</ele>
        <time>2019-05-17T12:41:41.182Z</time>
      </trkpt>
      <trkpt lat="39.43519167" lon="-8.46064333">
        <ele>17.0</ele>
        <time>2019-05-17T12:41:42.163Z</time>
      </trkpt>
      <trkpt lat="39.43519167" lon="-8.46064333">
        <ele>17.0</ele>
        <time>2019-05-17T12:41:43.174Z</time>
      </trkpt>
      <trkpt lat="39.43524167" lon="-8.46059167">
        <ele>17.0</ele>
        <time>2019-05-17T12:41:44.170Z</time>
      </trkpt>
      <trkpt lat="39.43524167" lon="-8.46059167">
        <ele>17.0</ele>
        <time>2019-05-17T12:41:45.169Z</time>
      </trkpt>
      <trkpt lat="39.43529167" lon="-8.46054167">
        <ele>17.0</ele>
        <time>2019-05-17T12:41:46.173Z</time>
      </trkpt>
      <trkpt lat="39.43529167" lon="-8.46054167">
        <ele>17.0</ele>
        <time>2019-05-17T12:41:47.162Z</time>
      </trkpt>
      <trkpt lat="39.43533833" lon="-8.460485">
        <ele>17.0</ele>
        <time>2019-05-17T12:41:48.187Z</time>
      </trkpt>
      <trkpt lat="39.43533833" lon="-8.460485">
        <ele>17.0</ele>
        <time>2019-05-17T12:41:49.152Z</time>
      </trkpt>
      <trkpt lat="39.43538833" lon="-8.46043167">
        <ele>17.0</ele>
        <time>2019-05-17T12:41:50.155Z</time>
      </trkpt>
      <trkpt lat="39.43538833" lon="-8.46043167">
        <ele>17.0</ele>
        <time>2019-05-17T12:41:51.169Z</time>
      </trkpt>
      <trkpt lat="39.43543833" lon="-8.46037667">
        <ele>17.0</ele>
        <time>2019-05-17T12:41:52.165Z</time>
      </trkpt>
      <trkpt lat="39.43543833" lon="-8.46037667">
        <ele>17.0</ele>
        <time>2019-05-17T12:41:53.171Z</time>
      </trkpt>
      <trkpt lat="39.43548667" lon="-8.46032167">
        <ele>17.0</ele>
        <time>2019-05-17T12:41:54.154Z</time>
      </trkpt>
      <trkpt lat="39.43548667" lon="-8.46032167">
        <ele>17.0</ele>
        <time>2019-05-17T12:41:55.160Z</time>
      </trkpt>
      <trkpt lat="39.43553667" lon="-8.46026833">
        <ele>17.0</ele>
        <time>2019-05-17T12:41:56.152Z</time>
      </trkpt>
      <trkpt lat="39.43553667" lon="-8.46026833">
        <ele>17.0</ele>
        <time>2019-05-17T12:41:57.189Z</time>
      </trkpt>
      <trkpt lat="39.435585" lon="-8.460215">
        <ele>17.0</ele>
        <time>2019-05-17T12:41:58.188Z</time>
      </trkpt>
      <trkpt lat="39.435585" lon="-8.460215">
        <ele>17.0</ele>
        <time>2019-05-17T12:41:59.154Z</time>
      </trkpt>
      <trkpt lat="39.43563333" lon="-8.460165">
        <ele>17.0</ele>
        <time>2019-05-17T12:42:00.193Z</time>
      </trkpt>
      <trkpt lat="39.43563333" lon="-8.460165">
        <ele>17.0</ele>
        <time>2019-05-17T12:42:01.169Z</time>
      </trkpt>
      <trkpt lat="39.43568" lon="-8.460115">
        <ele>17.0</ele>
        <time>2019-05-17T12:42:02.167Z</time>
      </trkpt>
      <trkpt lat="39.43568" lon="-8.460115">
        <ele>17.0</ele>
        <time>2019-05-17T12:42:03.180Z</time>
      </trkpt>
      <trkpt lat="39.43572833" lon="-8.46006333">
        <ele>17.0</ele>
        <time>2019-05-17T12:42:04.176Z</time>
      </trkpt>
      <trkpt lat="39.43572833" lon="-8.46006333">
        <ele>17.0</ele>
        <time>2019-05-17T12:42:05.164Z</time>
      </trkpt>
      <trkpt lat="39.435775" lon="-8.46001">
        <ele>17.0</ele>
        <time>2019-05-17T12:42:06.159Z</time>
      </trkpt>
      <trkpt lat="39.435775" lon="-8.46001">
        <ele>17.0</ele>
        <time>2019-05-17T12:42:07.161Z</time>
      </trkpt>
      <trkpt lat="39.435825" lon="-8.45995667">
        <ele>17.0</ele>
        <time>2019-05-17T12:42:08.169Z</time>
      </trkpt>
      <trkpt lat="39.435825" lon="-8.45995667">
        <ele>17.0</ele>
        <time>2019-05-17T12:42:09.185Z</time>
      </trkpt>
      <trkpt lat="39.43587667" lon="-8.4599">
        <ele>17.0</ele>
        <time>2019-05-17T12:42:10.194Z</time>
      </trkpt>
      <trkpt lat="39.43590333" lon="-8.45987333">
        <ele>17.0</ele>
        <time>2019-05-17T12:42:11.168Z</time>
      </trkpt>
      <trkpt lat="39.43590333" lon="-8.45987333">
        <ele>17.0</ele>
        <time>2019-05-17T12:42:12.155Z</time>
      </trkpt>
      <trkpt lat="39.435955" lon="-8.45981833">
        <ele>18.0</ele>
        <time>2019-05-17T12:42:13.185Z</time>
      </trkpt>
      <trkpt lat="39.43598167" lon="-8.45979167">
        <ele>18.0</ele>
        <time>2019-05-17T12:42:14.165Z</time>
      </trkpt>
      <trkpt lat="39.43598167" lon="-8.45979167">
        <ele>18.0</ele>
        <time>2019-05-17T12:42:15.187Z</time>
      </trkpt>
      <trkpt lat="39.43603" lon="-8.45973833">
        <ele>18.0</ele>
        <time>2019-05-17T12:42:16.179Z</time>
      </trkpt>
      <trkpt lat="39.436055" lon="-8.45971333">
        <ele>18.0</ele>
        <time>2019-05-17T12:42:17.166Z</time>
      </trkpt>
      <trkpt lat="39.436055" lon="-8.45971333">
        <ele>18.0</ele>
        <time>2019-05-17T12:42:18.170Z</time>
      </trkpt>
      <trkpt lat="39.436105" lon="-8.45966">
        <ele>18.0</ele>
        <time>2019-05-17T12:42:19.188Z</time>
      </trkpt>
      <trkpt lat="39.43613" lon="-8.45963167">
        <ele>18.0</ele>
        <time>2019-05-17T12:42:20.187Z</time>
      </trkpt>
      <trkpt lat="39.43613" lon="-8.45963167">
        <ele>18.0</ele>
        <time>2019-05-17T12:42:21.153Z</time>
      </trkpt>
      <trkpt lat="39.43618167" lon="-8.45957667">
        <ele>18.0</ele>
        <time>2019-05-17T12:42:22.179Z</time>
      </trkpt>
      <trkpt lat="39.43620667" lon="-8.45954833">
        <ele>18.0</ele>
        <time>2019-05-17T12:42:23.183Z</time>
      </trkpt>
      <trkpt lat="39.43620667" lon="-8.45954833">
        <ele>18.0</ele>
        <time>2019-05-17T12:42:24.189Z</time>
      </trkpt>
      <trkpt lat="39.43625833" lon="-8.45949333">
        <ele>18.0</ele>
        <time>2019-05-17T12:42:25.184Z</time>
      </trkpt>
      <trkpt lat="39.436285" lon="-8.459465">
        <ele>18.0</ele>
        <time>2019-05-17T12:42:26.183Z</time>
      </trkpt>
      <trkpt lat="39.436285" lon="-8.459465">
        <ele>18.0</ele>
        <time>2019-05-17T12:42:27.153Z</time>
      </trkpt>
      <trkpt lat="39.43633833" lon="-8.45940833">
        <ele>18.0</ele>
        <time>2019-05-17T12:42:28.186Z</time>
      </trkpt>
      <trkpt lat="39.43633833" lon="-8.45940833">
        <ele>18.0</ele>
        <time>2019-05-17T12:42:29.151Z</time>
      </trkpt>
      <trkpt lat="39.43638833" lon="-8.45935333">
        <ele>18.0</ele>
        <time>2019-05-17T12:42:30.170Z</time>
      </trkpt>
      <trkpt lat="39.43638833" lon="-8.45935333">
        <ele>18.0</ele>
        <time>2019-05-17T12:42:31.175Z</time>
      </trkpt>
      <trkpt lat="39.43643833" lon="-8.45929833">
        <ele>18.0</ele>
        <time>2019-05-17T12:42:32.181Z</time>
      </trkpt>
      <trkpt lat="39.43643833" lon="-8.45929833">
        <ele>18.0</ele>
        <time>2019-05-17T12:42:33.163Z</time>
      </trkpt>
      <trkpt lat="39.43649167" lon="-8.45924333">
        <ele>18.0</ele>
        <time>2019-05-17T12:42:34.165Z</time>
      </trkpt>
      <trkpt lat="39.43649167" lon="-8.45924333">
        <ele>18.0</ele>
        <time>2019-05-17T12:42:35.179Z</time>
      </trkpt>
      <trkpt lat="39.436545" lon="-8.45918833">
        <ele>18.0</ele>
        <time>2019-05-17T12:42:36.189Z</time>
      </trkpt>
      <trkpt lat="39.436545" lon="-8.45918833">
        <ele>18.0</ele>
        <time>2019-05-17T12:42:37.154Z</time>
      </trkpt>
      <trkpt lat="39.43659667" lon="-8.45913167">
        <ele>18.0</ele>
        <time>2019-05-17T12:42:38.193Z</time>
      </trkpt>
      <trkpt lat="39.43659667" lon="-8.45913167">
        <ele>18.0</ele>
        <time>2019-05-17T12:42:39.159Z</time>
      </trkpt>
      <trkpt lat="39.43664833" lon="-8.459075">
        <ele>18.0</ele>
        <time>2019-05-17T12:42:40.158Z</time>
      </trkpt>
      <trkpt lat="39.43664833" lon="-8.459075">
        <ele>18.0</ele>
        <time>2019-05-17T12:42:41.187Z</time>
      </trkpt>
      <trkpt lat="39.43669833" lon="-8.45901833">
        <ele>18.0</ele>
        <time>2019-05-17T12:42:42.183Z</time>
      </trkpt>
      <trkpt lat="39.43669833" lon="-8.45901833">
        <ele>18.0</ele>
        <time>2019-05-17T12:42:43.189Z</time>
      </trkpt>
      <trkpt lat="39.43675" lon="-8.45896">
        <ele>18.0</ele>
        <time>2019-05-17T12:42:44.185Z</time>
      </trkpt>
      <trkpt lat="39.43675" lon="-8.45896">
        <ele>18.0</ele>
        <time>2019-05-17T12:42:45.150Z</time>
      </trkpt>
      <trkpt lat="39.43680333" lon="-8.4589">
        <ele>18.0</ele>
        <time>2019-05-17T12:42:46.186Z</time>
      </trkpt>
      <trkpt lat="39.43680333" lon="-8.4589">
        <ele>18.0</ele>
        <time>2019-05-17T12:42:47.151Z</time>
      </trkpt>
      <trkpt lat="39.43685833" lon="-8.45883667">
        <ele>18.0</ele>
        <time>2019-05-17T12:42:48.182Z</time>
      </trkpt>
      <trkpt lat="39.43685833" lon="-8.45883667">
        <ele>18.0</ele>
        <time>2019-05-17T12:42:49.188Z</time>
      </trkpt>
      <trkpt lat="39.43691167" lon="-8.45877167">
        <ele>18.0</ele>
        <time>2019-05-17T12:42:50.185Z</time>
      </trkpt>
      <trkpt lat="39.43691167" lon="-8.45877167">
        <ele>18.0</ele>
        <time>2019-05-17T12:42:51.167Z</time>
      </trkpt>
      <trkpt lat="39.43696333" lon="-8.45870333">
        <ele>18.0</ele>
        <time>2019-05-17T12:42:52.164Z</time>
      </trkpt>
      <trkpt lat="39.43696333" lon="-8.45870333">
        <ele>18.0</ele>
        <time>2019-05-17T12:42:53.176Z</time>
      </trkpt>
      <trkpt lat="39.437015" lon="-8.45864">
        <ele>18.0</ele>
        <time>2019-05-17T12:42:54.152Z</time>
      </trkpt>
      <trkpt lat="39.437015" lon="-8.45864">
        <ele>18.0</ele>
        <time>2019-05-17T12:42:55.157Z</time>
      </trkpt>
      <trkpt lat="39.43706333" lon="-8.458575">
        <ele>18.0</ele>
        <time>2019-05-17T12:42:56.158Z</time>
      </trkpt>
      <trkpt lat="39.43706333" lon="-8.458575">
        <ele>18.0</ele>
        <time>2019-05-17T12:42:57.165Z</time>
      </trkpt>
      <trkpt lat="39.43711167" lon="-8.45851">
        <ele>18.0</ele>
        <time>2019-05-17T12:42:58.155Z</time>
      </trkpt>
      <trkpt lat="39.43711167" lon="-8.45851">
        <ele>18.0</ele>
        <time>2019-05-17T12:42:59.185Z</time>
      </trkpt>
      <trkpt lat="39.43716167" lon="-8.45844167">
        <ele>18.0</ele>
        <time>2019-05-17T12:43:00.170Z</time>
      </trkpt>
      <trkpt lat="39.43716167" lon="-8.45844167">
        <ele>18.0</ele>
        <time>2019-05-17T12:43:01.182Z</time>
      </trkpt>
      <trkpt lat="39.43721" lon="-8.458375">
        <ele>18.0</ele>
        <time>2019-05-17T12:43:02.168Z</time>
      </trkpt>
      <trkpt lat="39.43721" lon="-8.458375">
        <ele>18.0</ele>
        <time>2019-05-17T12:43:03.174Z</time>
      </trkpt>
      <trkpt lat="39.43726" lon="-8.45830833">
        <ele>18.0</ele>
        <time>2019-05-17T12:43:04.166Z</time>
      </trkpt>
      <trkpt lat="39.43726" lon="-8.45830833">
        <ele>18.0</ele>
        <time>2019-05-17T12:43:05.171Z</time>
      </trkpt>
      <trkpt lat="39.43730833" lon="-8.45823833">
        <ele>18.0</ele>
        <time>2019-05-17T12:43:06.162Z</time>
      </trkpt>
      <trkpt lat="39.43730833" lon="-8.45823833">
        <ele>18.0</ele>
        <time>2019-05-17T12:43:07.187Z</time>
      </trkpt>
      <trkpt lat="39.43735333" lon="-8.45817333">
        <ele>18.0</ele>
        <time>2019-05-17T12:43:08.166Z</time>
      </trkpt>
      <trkpt lat="39.43735333" lon="-8.45817333">
        <ele>18.0</ele>
        <time>2019-05-17T12:43:09.186Z</time>
      </trkpt>
      <trkpt lat="39.43739833" lon="-8.45811">
        <ele>18.0</ele>
        <time>2019-05-17T12:43:10.166Z</time>
      </trkpt>
      <trkpt lat="39.43739833" lon="-8.45811">
        <ele>18.0</ele>
        <time>2019-05-17T12:43:11.176Z</time>
      </trkpt>
      <trkpt lat="39.43743833" lon="-8.45804833">
        <ele>18.0</ele>
        <time>2019-05-17T12:43:12.175Z</time>
      </trkpt>
      <trkpt lat="39.43743833" lon="-8.45804833">
        <ele>18.0</ele>
        <time>2019-05-17T12:43:13.183Z</time>
      </trkpt>
      <trkpt lat="39.43748" lon="-8.45798833">
        <ele>18.0</ele>
        <time>2019-05-17T12:43:14.187Z</time>
      </trkpt>
      <trkpt lat="39.43748" lon="-8.45798833">
        <ele>18.0</ele>
        <time>2019-05-17T12:43:15.159Z</time>
      </trkpt>
      <trkpt lat="39.43752333" lon="-8.45792667">
        <ele>18.0</ele>
        <time>2019-05-17T12:43:16.178Z</time>
      </trkpt>
      <trkpt lat="39.43752333" lon="-8.45792667">
        <ele>18.0</ele>
        <time>2019-05-17T12:43:17.160Z</time>
      </trkpt>
      <trkpt lat="39.43756333" lon="-8.45786333">
        <ele>18.0</ele>
        <time>2019-05-17T12:43:18.174Z</time>
      </trkpt>
      <trkpt lat="39.437585" lon="-8.45783">
        <ele>18.0</ele>
        <time>2019-05-17T12:43:19.175Z</time>
      </trkpt>
      <trkpt lat="39.43760833" lon="-8.45779833">
        <ele>18.0</ele>
        <time>2019-05-17T12:43:20.174Z</time>
      </trkpt>
      <trkpt lat="39.43760833" lon="-8.45779833">
        <ele>18.0</ele>
        <time>2019-05-17T12:43:21.183Z</time>
      </trkpt>
      <trkpt lat="39.43765167" lon="-8.45773667">
        <ele>18.0</ele>
        <time>2019-05-17T12:43:22.185Z</time>
      </trkpt>
      <trkpt lat="39.43765167" lon="-8.45773667">
        <ele>18.0</ele>
        <time>2019-05-17T12:43:23.158Z</time>
      </trkpt>
      <trkpt lat="39.43769333" lon="-8.45767167">
        <ele>18.0</ele>
        <time>2019-05-17T12:43:24.187Z</time>
      </trkpt>
      <trkpt lat="39.43769333" lon="-8.45767167">
        <ele>18.0</ele>
        <time>2019-05-17T12:43:25.159Z</time>
      </trkpt>
      <trkpt lat="39.437735" lon="-8.45760667">
        <ele>18.0</ele>
        <time>2019-05-17T12:43:26.158Z</time>
      </trkpt>
      <trkpt lat="39.437735" lon="-8.45760667">
        <ele>18.0</ele>
        <time>2019-05-17T12:43:27.163Z</time>
      </trkpt>
      <trkpt lat="39.43777667" lon="-8.45754167">
        <ele>18.0</ele>
        <time>2019-05-17T12:43:28.165Z</time>
      </trkpt>
      <trkpt lat="39.43777667" lon="-8.45754167">
        <ele>18.0</ele>
        <time>2019-05-17T12:43:29.173Z</time>
      </trkpt>
      <trkpt lat="39.43782" lon="-8.45747667">
        <ele>17.0</ele>
        <time>2019-05-17T12:43:30.151Z</time>
      </trkpt>
      <trkpt lat="39.43782" lon="-8.45747667">
        <ele>17.0</ele>
        <time>2019-05-17T12:43:31.162Z</time>
      </trkpt>
      <trkpt lat="39.43786333" lon="-8.45741167">
        <ele>17.0</ele>
        <time>2019-05-17T12:43:32.155Z</time>
      </trkpt>
      <trkpt lat="39.43786333" lon="-8.45741167">
        <ele>17.0</ele>
        <time>2019-05-17T12:43:33.161Z</time>
      </trkpt>
      <trkpt lat="39.43790667" lon="-8.457345">
        <ele>17.0</ele>
        <time>2019-05-17T12:43:34.157Z</time>
      </trkpt>
      <trkpt lat="39.43790667" lon="-8.457345">
        <ele>17.0</ele>
        <time>2019-05-17T12:43:35.180Z</time>
      </trkpt>
      <trkpt lat="39.43795167" lon="-8.45727833">
        <ele>17.0</ele>
        <time>2019-05-17T12:43:36.179Z</time>
      </trkpt>
      <trkpt lat="39.437975" lon="-8.457245">
        <ele>17.0</ele>
        <time>2019-05-17T12:43:37.172Z</time>
      </trkpt>
      <trkpt lat="39.43799833" lon="-8.45721167">
        <ele>17.0</ele>
        <time>2019-05-17T12:43:38.185Z</time>
      </trkpt>
      <trkpt lat="39.43799833" lon="-8.45721167">
        <ele>17.0</ele>
        <time>2019-05-17T12:43:39.154Z</time>
      </trkpt>
      <trkpt lat="39.43804667" lon="-8.457145">
        <ele>17.0</ele>
        <time>2019-05-17T12:43:40.195Z</time>
      </trkpt>
      <trkpt lat="39.43804667" lon="-8.457145">
        <ele>17.0</ele>
        <time>2019-05-17T12:43:41.160Z</time>
      </trkpt>
      <trkpt lat="39.43809167" lon="-8.457075">
        <ele>17.0</ele>
        <time>2019-05-17T12:43:42.151Z</time>
      </trkpt>
      <trkpt lat="39.43809167" lon="-8.457075">
        <ele>17.0</ele>
        <time>2019-05-17T12:43:43.175Z</time>
      </trkpt>
      <trkpt lat="39.43813667" lon="-8.457005">
        <ele>17.0</ele>
        <time>2019-05-17T12:43:44.175Z</time>
      </trkpt>
      <trkpt lat="39.43813667" lon="-8.457005">
        <ele>17.0</ele>
        <time>2019-05-17T12:43:45.183Z</time>
      </trkpt>
      <trkpt lat="39.43818167" lon="-8.45693667">
        <ele>17.0</ele>
        <time>2019-05-17T12:43:46.173Z</time>
      </trkpt>
      <trkpt lat="39.43818167" lon="-8.45693667">
        <ele>17.0</ele>
        <time>2019-05-17T12:43:47.175Z</time>
      </trkpt>
      <trkpt lat="39.43822667" lon="-8.45686333">
        <ele>17.0</ele>
        <time>2019-05-17T12:43:48.176Z</time>
      </trkpt>
      <trkpt lat="39.43822667" lon="-8.45686333">
        <ele>17.0</ele>
        <time>2019-05-17T12:43:49.181Z</time>
      </trkpt>
      <trkpt lat="39.43827" lon="-8.45679333">
        <ele>17.0</ele>
        <time>2019-05-17T12:43:50.188Z</time>
      </trkpt>
      <trkpt lat="39.43827" lon="-8.45679333">
        <ele>17.0</ele>
        <time>2019-05-17T12:43:51.158Z</time>
      </trkpt>
      <trkpt lat="39.438315" lon="-8.45672667">
        <ele>17.0</ele>
        <time>2019-05-17T12:43:52.180Z</time>
      </trkpt>
      <trkpt lat="39.438315" lon="-8.45672667">
        <ele>17.0</ele>
        <time>2019-05-17T12:43:53.186Z</time>
      </trkpt>
      <trkpt lat="39.43836" lon="-8.45666333">
        <ele>17.0</ele>
        <time>2019-05-17T12:43:54.162Z</time>
      </trkpt>
      <trkpt lat="39.43838167" lon="-8.45663">
        <ele>17.0</ele>
        <time>2019-05-17T12:43:55.185Z</time>
      </trkpt>
      <trkpt lat="39.43840333" lon="-8.456595">
        <ele>17.0</ele>
        <time>2019-05-17T12:43:56.155Z</time>
      </trkpt>
      <trkpt lat="39.43840333" lon="-8.456595">
        <ele>17.0</ele>
        <time>2019-05-17T12:43:57.167Z</time>
      </trkpt>
      <trkpt lat="39.43845" lon="-8.45652333">
        <ele>17.0</ele>
        <time>2019-05-17T12:43:58.181Z</time>
      </trkpt>
      <trkpt lat="39.43847333" lon="-8.456485">
        <ele>17.0</ele>
        <time>2019-05-17T12:43:59.166Z</time>
      </trkpt>
      <trkpt lat="39.43849833" lon="-8.45644667">
        <ele>17.0</ele>
        <time>2019-05-17T12:44:00.153Z</time>
      </trkpt>
      <trkpt lat="39.43849833" lon="-8.45644667">
        <ele>17.0</ele>
        <time>2019-05-17T12:44:01.180Z</time>
      </trkpt>
      <trkpt lat="39.43854333" lon="-8.456375">
        <ele>17.0</ele>
        <time>2019-05-17T12:44:02.151Z</time>
      </trkpt>
      <trkpt lat="39.43854333" lon="-8.456375">
        <ele>17.0</ele>
        <time>2019-05-17T12:44:03.168Z</time>
      </trkpt>
      <trkpt lat="39.43858833" lon="-8.45630833">
        <ele>17.0</ele>
        <time>2019-05-17T12:44:04.169Z</time>
      </trkpt>
      <trkpt lat="39.43858833" lon="-8.45630833">
        <ele>17.0</ele>
        <time>2019-05-17T12:44:05.151Z</time>
      </trkpt>
      <trkpt lat="39.438635" lon="-8.45624333">
        <ele>17.0</ele>
        <time>2019-05-17T12:44:06.185Z</time>
      </trkpt>
      <trkpt lat="39.438635" lon="-8.45624333">
        <ele>17.0</ele>
        <time>2019-05-17T12:44:07.154Z</time>
      </trkpt>
      <trkpt lat="39.43868167" lon="-8.45617667">
        <ele>17.0</ele>
        <time>2019-05-17T12:44:08.165Z</time>
      </trkpt>
      <trkpt lat="39.43868167" lon="-8.45617667">
        <ele>17.0</ele>
        <time>2019-05-17T12:44:09.167Z</time>
      </trkpt>
      <trkpt lat="39.43872833" lon="-8.45611">
        <ele>17.0</ele>
        <time>2019-05-17T12:44:10.162Z</time>
      </trkpt>
      <trkpt lat="39.43875167" lon="-8.45607333">
        <ele>16.0</ele>
        <time>2019-05-17T12:44:11.177Z</time>
      </trkpt>
      <trkpt lat="39.43875167" lon="-8.45607333">
        <ele>16.0</ele>
        <time>2019-05-17T12:44:12.153Z</time>
      </trkpt>
      <trkpt lat="39.43879833" lon="-8.456">
        <ele>16.0</ele>
        <time>2019-05-17T12:44:13.179Z</time>
      </trkpt>
      <trkpt lat="39.43882" lon="-8.45596333">
        <ele>16.0</ele>
        <time>2019-05-17T12:44:14.195Z</time>
      </trkpt>
      <trkpt lat="39.43882" lon="-8.45596333">
        <ele>16.0</ele>
        <time>2019-05-17T12:44:15.165Z</time>
      </trkpt>
      <trkpt lat="39.43886667" lon="-8.45589333">
        <ele>16.0</ele>
        <time>2019-05-17T12:44:16.163Z</time>
      </trkpt>
      <trkpt lat="39.43886667" lon="-8.45589333">
        <ele>16.0</ele>
        <time>2019-05-17T12:44:17.176Z</time>
      </trkpt>
      <trkpt lat="39.43891" lon="-8.45583">
        <ele>16.0</ele>
        <time>2019-05-17T12:44:18.180Z</time>
      </trkpt>
      <trkpt lat="39.43891" lon="-8.45583">
        <ele>16.0</ele>
        <time>2019-05-17T12:44:19.185Z</time>
      </trkpt>
      <trkpt lat="39.43895" lon="-8.45577167">
        <ele>16.0</ele>
        <time>2019-05-17T12:44:20.178Z</time>
      </trkpt>
      <trkpt lat="39.43895" lon="-8.45577167">
        <ele>16.0</ele>
        <time>2019-05-17T12:44:21.185Z</time>
      </trkpt>
      <trkpt lat="39.43899" lon="-8.45571333">
        <ele>16.0</ele>
        <time>2019-05-17T12:44:22.184Z</time>
      </trkpt>
      <trkpt lat="39.43899" lon="-8.45571333">
        <ele>16.0</ele>
        <time>2019-05-17T12:44:23.160Z</time>
      </trkpt>
      <trkpt lat="39.43903167" lon="-8.45565167">
        <ele>16.0</ele>
        <time>2019-05-17T12:44:24.164Z</time>
      </trkpt>
      <trkpt lat="39.43903167" lon="-8.45565167">
        <ele>16.0</ele>
        <time>2019-05-17T12:44:25.151Z</time>
      </trkpt>
      <trkpt lat="39.439075" lon="-8.45559">
        <ele>16.0</ele>
        <time>2019-05-17T12:44:26.159Z</time>
      </trkpt>
      <trkpt lat="39.439075" lon="-8.45559">
        <ele>16.0</ele>
        <time>2019-05-17T12:44:27.184Z</time>
      </trkpt>
      <trkpt lat="39.43911667" lon="-8.45552833">
        <ele>16.0</ele>
        <time>2019-05-17T12:44:28.161Z</time>
      </trkpt>
      <trkpt lat="39.43911667" lon="-8.45552833">
        <ele>16.0</ele>
        <time>2019-05-17T12:44:29.173Z</time>
      </trkpt>
      <trkpt lat="39.439155" lon="-8.45546667">
        <ele>16.0</ele>
        <time>2019-05-17T12:44:30.165Z</time>
      </trkpt>
      <trkpt lat="39.439155" lon="-8.45546667">
        <ele>16.0</ele>
        <time>2019-05-17T12:44:31.170Z</time>
      </trkpt>
      <trkpt lat="39.43919667" lon="-8.45540667">
        <ele>16.0</ele>
        <time>2019-05-17T12:44:32.166Z</time>
      </trkpt>
      <trkpt lat="39.43919667" lon="-8.45540667">
        <ele>16.0</ele>
        <time>2019-05-17T12:44:33.186Z</time>
      </trkpt>
      <trkpt lat="39.43924" lon="-8.45534333">
        <ele>16.0</ele>
        <time>2019-05-17T12:44:34.168Z</time>
      </trkpt>
      <trkpt lat="39.43924" lon="-8.45534333">
        <ele>16.0</ele>
        <time>2019-05-17T12:44:35.162Z</time>
      </trkpt>
      <trkpt lat="39.439285" lon="-8.45527667">
        <ele>16.0</ele>
        <time>2019-05-17T12:44:36.165Z</time>
      </trkpt>
      <trkpt lat="39.439285" lon="-8.45527667">
        <ele>16.0</ele>
        <time>2019-05-17T12:44:37.156Z</time>
      </trkpt>
      <trkpt lat="39.43933" lon="-8.45521167">
        <ele>16.0</ele>
        <time>2019-05-17T12:44:38.153Z</time>
      </trkpt>
      <trkpt lat="39.43933" lon="-8.45521167">
        <ele>16.0</ele>
        <time>2019-05-17T12:44:39.158Z</time>
      </trkpt>
      <trkpt lat="39.43937667" lon="-8.455145">
        <ele>16.0</ele>
        <time>2019-05-17T12:44:40.156Z</time>
      </trkpt>
      <trkpt lat="39.43937667" lon="-8.455145">
        <ele>16.0</ele>
        <time>2019-05-17T12:44:41.161Z</time>
      </trkpt>
      <trkpt lat="39.43942" lon="-8.45507833">
        <ele>16.0</ele>
        <time>2019-05-17T12:44:42.179Z</time>
      </trkpt>
      <trkpt lat="39.43942" lon="-8.45507833">
        <ele>16.0</ele>
        <time>2019-05-17T12:44:43.181Z</time>
      </trkpt>
      <trkpt lat="39.43946667" lon="-8.45501333">
        <ele>16.0</ele>
        <time>2019-05-17T12:44:44.166Z</time>
      </trkpt>
      <trkpt lat="39.43946667" lon="-8.45501333">
        <ele>16.0</ele>
        <time>2019-05-17T12:44:45.157Z</time>
      </trkpt>
      <trkpt lat="39.43951333" lon="-8.45495">
        <ele>16.0</ele>
        <time>2019-05-17T12:44:46.189Z</time>
      </trkpt>
      <trkpt lat="39.43953667" lon="-8.45491667">
        <ele>16.0</ele>
        <time>2019-05-17T12:44:47.183Z</time>
      </trkpt>
      <trkpt lat="39.43953667" lon="-8.45491667">
        <ele>16.0</ele>
        <time>2019-05-17T12:44:48.152Z</time>
      </trkpt>
      <trkpt lat="39.43958" lon="-8.45485167">
        <ele>16.0</ele>
        <time>2019-05-17T12:44:49.153Z</time>
      </trkpt>
      <trkpt lat="39.43960333" lon="-8.45482167">
        <ele>16.0</ele>
        <time>2019-05-17T12:44:50.151Z</time>
      </trkpt>
      <trkpt lat="39.43960333" lon="-8.45482167">
        <ele>16.0</ele>
        <time>2019-05-17T12:44:51.168Z</time>
      </trkpt>
      <trkpt lat="39.43965" lon="-8.45476667">
        <ele>16.0</ele>
        <time>2019-05-17T12:44:52.172Z</time>
      </trkpt>
      <trkpt lat="39.43965" lon="-8.45476667">
        <ele>16.0</ele>
        <time>2019-05-17T12:44:53.183Z</time>
      </trkpt>
      <trkpt lat="39.43969167" lon="-8.45470833">
        <ele>17.0</ele>
        <time>2019-05-17T12:44:54.169Z</time>
      </trkpt>
      <trkpt lat="39.43969167" lon="-8.45470833">
        <ele>17.0</ele>
        <time>2019-05-17T12:44:55.174Z</time>
      </trkpt>
      <trkpt lat="39.43973333" lon="-8.45466">
        <ele>17.0</ele>
        <time>2019-05-17T12:44:56.183Z</time>
      </trkpt>
      <trkpt lat="39.43973333" lon="-8.45466">
        <ele>17.0</ele>
        <time>2019-05-17T12:44:57.167Z</time>
      </trkpt>
      <trkpt lat="39.43977" lon="-8.45461833">
        <ele>17.0</ele>
        <time>2019-05-17T12:44:58.157Z</time>
      </trkpt>
      <trkpt lat="39.43977" lon="-8.45461833">
        <ele>17.0</ele>
        <time>2019-05-17T12:44:59.169Z</time>
      </trkpt>
      <trkpt lat="39.43980667" lon="-8.45457167">
        <ele>17.0</ele>
        <time>2019-05-17T12:45:00.166Z</time>
      </trkpt>
      <trkpt lat="39.439825" lon="-8.45454333">
        <ele>18.0</ele>
        <time>2019-05-17T12:45:01.168Z</time>
      </trkpt>
      <trkpt lat="39.43984667" lon="-8.45451167">
        <ele>18.0</ele>
        <time>2019-05-17T12:45:02.187Z</time>
      </trkpt>
      <trkpt lat="39.43984667" lon="-8.45451167">
        <ele>18.0</ele>
        <time>2019-05-17T12:45:03.160Z</time>
      </trkpt>
      <trkpt lat="39.439895" lon="-8.45445333">
        <ele>18.0</ele>
        <time>2019-05-17T12:45:04.165Z</time>
      </trkpt>
      <trkpt lat="39.439895" lon="-8.45445333">
        <ele>18.0</ele>
        <time>2019-05-17T12:45:05.170Z</time>
      </trkpt>
      <trkpt lat="39.439935" lon="-8.454405">
        <ele>18.0</ele>
        <time>2019-05-17T12:45:06.157Z</time>
      </trkpt>
      <trkpt lat="39.43995333" lon="-8.45438167">
        <ele>18.0</ele>
        <time>2019-05-17T12:45:07.164Z</time>
      </trkpt>
      <trkpt lat="39.43995333" lon="-8.45438167">
        <ele>18.0</ele>
        <time>2019-05-17T12:45:08.187Z</time>
      </trkpt>
      <trkpt lat="39.43998833" lon="-8.45433333">
        <ele>18.0</ele>
        <time>2019-05-17T12:45:09.217Z</time>
      </trkpt>
      <trkpt lat="39.440005" lon="-8.45430833">
        <ele>18.0</ele>
        <time>2019-05-17T12:45:10.162Z</time>
      </trkpt>
      <trkpt lat="39.44002167" lon="-8.45428333">
        <ele>18.0</ele>
        <time>2019-05-17T12:45:11.159Z</time>
      </trkpt>
      <trkpt lat="39.44002167" lon="-8.45428333">
        <ele>18.0</ele>
        <time>2019-05-17T12:45:12.174Z</time>
      </trkpt>
      <trkpt lat="39.440055" lon="-8.45423833">
        <ele>18.0</ele>
        <time>2019-05-17T12:45:13.174Z</time>
      </trkpt>
      <trkpt lat="39.44006833" lon="-8.45421667">
        <ele>19.0</ele>
        <time>2019-05-17T12:45:14.165Z</time>
      </trkpt>
      <trkpt lat="39.44006833" lon="-8.45421667">
        <ele>19.0</ele>
        <time>2019-05-17T12:45:15.170Z</time>
      </trkpt>
      <trkpt lat="39.440095" lon="-8.454175">
        <ele>19.0</ele>
        <time>2019-05-17T12:45:16.168Z</time>
      </trkpt>
      <trkpt lat="39.440095" lon="-8.454175">
        <ele>19.0</ele>
        <time>2019-05-17T12:45:17.189Z</time>
      </trkpt>
      <trkpt lat="39.440125" lon="-8.45413">
        <ele>19.0</ele>
        <time>2019-05-17T12:45:18.174Z</time>
      </trkpt>
      <trkpt lat="39.440125" lon="-8.45413">
        <ele>19.0</ele>
        <time>2019-05-17T12:45:19.164Z</time>
      </trkpt>
      <trkpt lat="39.44015667" lon="-8.45409667">
        <ele>19.0</ele>
        <time>2019-05-17T12:45:20.161Z</time>
      </trkpt>
      <trkpt lat="39.44015667" lon="-8.45409667">
        <ele>19.0</ele>
        <time>2019-05-17T12:45:21.165Z</time>
      </trkpt>
      <trkpt lat="39.44018167" lon="-8.45407">
        <ele>19.0</ele>
        <time>2019-05-17T12:45:22.155Z</time>
      </trkpt>
      <trkpt lat="39.44018167" lon="-8.45407">
        <ele>19.0</ele>
        <time>2019-05-17T12:45:23.161Z</time>
      </trkpt>
      <trkpt lat="39.44020167" lon="-8.45405333">
        <ele>19.0</ele>
        <time>2019-05-17T12:45:24.155Z</time>
      </trkpt>
      <trkpt lat="39.44020167" lon="-8.45405333">
        <ele>19.0</ele>
        <time>2019-05-17T12:45:25.160Z</time>
      </trkpt>
      <trkpt lat="39.44020333" lon="-8.454055">
        <ele>19.0</ele>
        <time>2019-05-17T12:45:26.155Z</time>
      </trkpt>
      <trkpt lat="39.44020333" lon="-8.454055">
        <ele>19.0</ele>
        <time>2019-05-17T12:45:27.157Z</time>
      </trkpt>
      <trkpt lat="39.44020167" lon="-8.45405833">
        <ele>19.0</ele>
        <time>2019-05-17T12:45:28.155Z</time>
      </trkpt>
      <trkpt lat="39.44020167" lon="-8.45405833">
        <ele>19.0</ele>
        <time>2019-05-17T12:45:29.164Z</time>
      </trkpt>
      <trkpt lat="39.44020167" lon="-8.45405833">
        <ele>19.0</ele>
        <time>2019-05-17T12:45:30.170Z</time>
      </trkpt>
      <trkpt lat="39.44020167" lon="-8.45405833">
        <ele>19.0</ele>
        <time>2019-05-17T12:45:31.176Z</time>
      </trkpt>
      <trkpt lat="39.44020167" lon="-8.45405833">
        <ele>19.0</ele>
        <time>2019-05-17T12:45:32.189Z</time>
      </trkpt>
      <trkpt lat="39.44020167" lon="-8.45405833">
        <ele>19.0</ele>
        <time>2019-05-17T12:45:33.165Z</time>
      </trkpt>
      <trkpt lat="39.44020167" lon="-8.45405833">
        <ele>19.0</ele>
        <time>2019-05-17T12:45:34.157Z</time>
      </trkpt>
      <trkpt lat="39.44020167" lon="-8.45405833">
        <ele>19.0</ele>
        <time>2019-05-17T12:45:35.151Z</time>
      </trkpt>
      <trkpt lat="39.44020167" lon="-8.45405833">
        <ele>19.0</ele>
        <time>2019-05-17T12:45:36.157Z</time>
      </trkpt>
      <trkpt lat="39.44020167" lon="-8.45405833">
        <ele>19.0</ele>
        <time>2019-05-17T12:45:37.151Z</time>
      </trkpt>
      <trkpt lat="39.44020167" lon="-8.45405833">
        <ele>19.0</ele>
        <time>2019-05-17T12:45:38.158Z</time>
      </trkpt>
      <trkpt lat="39.44020167" lon="-8.45405833">
        <ele>19.0</ele>
        <time>2019-05-17T12:45:39.151Z</time>
      </trkpt>
      <trkpt lat="39.44020167" lon="-8.45405833">
        <ele>19.0</ele>
        <time>2019-05-17T12:45:40.157Z</time>
      </trkpt>
      <trkpt lat="39.44020167" lon="-8.45405833">
        <ele>19.0</ele>
        <time>2019-05-17T12:45:41.154Z</time>
      </trkpt>
      <trkpt lat="39.44020167" lon="-8.45405833">
        <ele>19.0</ele>
        <time>2019-05-17T12:45:42.151Z</time>
      </trkpt>
      <trkpt lat="39.44020167" lon="-8.45405833">
        <ele>19.0</ele>
        <time>2019-05-17T12:45:43.156Z</time>
      </trkpt>
      <trkpt lat="39.44020167" lon="-8.45405833">
        <ele>19.0</ele>
        <time>2019-05-17T12:45:44.153Z</time>
      </trkpt>
      <trkpt lat="39.44020167" lon="-8.45405833">
        <ele>19.0</ele>
        <time>2019-05-17T12:45:45.156Z</time>
      </trkpt>
      <trkpt lat="39.44020167" lon="-8.45405833">
        <ele>19.0</ele>
        <time>2019-05-17T12:45:46.156Z</time>
      </trkpt>
      <trkpt lat="39.44020167" lon="-8.45405833">
        <ele>19.0</ele>
        <time>2019-05-17T12:45:47.158Z</time>
      </trkpt>
      <trkpt lat="39.44020167" lon="-8.45405833">
        <ele>19.0</ele>
        <time>2019-05-17T12:45:48.151Z</time>
      </trkpt>
      <trkpt lat="39.44020167" lon="-8.45405833">
        <ele>19.0</ele>
        <time>2019-05-17T12:45:49.156Z</time>
      </trkpt>
      <trkpt lat="39.44020167" lon="-8.45405833">
        <ele>19.0</ele>
        <time>2019-05-17T12:45:50.165Z</time>
      </trkpt>
      <trkpt lat="39.44020167" lon="-8.45405833">
        <ele>19.0</ele>
        <time>2019-05-17T12:45:51.177Z</time>
      </trkpt>
      <trkpt lat="39.44020167" lon="-8.45405833">
        <ele>19.0</ele>
        <time>2019-05-17T12:45:52.163Z</time>
      </trkpt>
      <trkpt lat="39.44020167" lon="-8.45405833">
        <ele>19.0</ele>
        <time>2019-05-17T12:45:53.156Z</time>
      </trkpt>
      <trkpt lat="39.44020167" lon="-8.45405833">
        <ele>19.0</ele>
        <time>2019-05-17T12:45:54.151Z</time>
      </trkpt>
      <trkpt lat="39.44020167" lon="-8.45405833">
        <ele>19.0</ele>
        <time>2019-05-17T12:45:55.156Z</time>
      </trkpt>
      <trkpt lat="39.44020167" lon="-8.45405833">
        <ele>19.0</ele>
        <time>2019-05-17T12:45:56.155Z</time>
      </trkpt>
      <trkpt lat="39.44020167" lon="-8.45405833">
        <ele>19.0</ele>
        <time>2019-05-17T12:45:57.157Z</time>
      </trkpt>
      <trkpt lat="39.44020167" lon="-8.45405833">
        <ele>19.0</ele>
        <time>2019-05-17T12:45:58.158Z</time>
      </trkpt>
      <trkpt lat="39.44020167" lon="-8.45405833">
        <ele>19.0</ele>
        <time>2019-05-17T12:45:59.156Z</time>
      </trkpt>
      <trkpt lat="39.44020167" lon="-8.45405833">
        <ele>19.0</ele>
        <time>2019-05-17T12:46:00.151Z</time>
      </trkpt>
      <trkpt lat="39.44020167" lon="-8.45405833">
        <ele>19.0</ele>
        <time>2019-05-17T12:46:01.155Z</time>
      </trkpt>
      <trkpt lat="39.44020167" lon="-8.45405833">
        <ele>19.0</ele>
        <time>2019-05-17T12:46:02.158Z</time>
      </trkpt>
      <trkpt lat="39.44020167" lon="-8.45405833">
        <ele>19.0</ele>
        <time>2019-05-17T12:46:03.151Z</time>
      </trkpt>
      <trkpt lat="39.44020167" lon="-8.45405833">
        <ele>19.0</ele>
        <time>2019-05-17T12:46:04.155Z</time>
      </trkpt>
      <trkpt lat="39.44020167" lon="-8.45405833">
        <ele>19.0</ele>
        <time>2019-05-17T12:46:05.158Z</time>
      </trkpt>
      <trkpt lat="39.44020167" lon="-8.45405833">
        <ele>19.0</ele>
        <time>2019-05-17T12:46:06.157Z</time>
      </trkpt>
      <trkpt lat="39.44020167" lon="-8.45405833">
        <ele>19.0</ele>
        <time>2019-05-17T12:46:07.152Z</time>
      </trkpt>
      <trkpt lat="39.44020167" lon="-8.45405833">
        <ele>19.0</ele>
        <time>2019-05-17T12:46:08.158Z</time>
      </trkpt>
      <trkpt lat="39.44020167" lon="-8.45405833">
        <ele>19.0</ele>
        <time>2019-05-17T12:46:09.189Z</time>
      </trkpt>
      <trkpt lat="39.44021167" lon="-8.454065">
        <ele>23.0</ele>
        <time>2019-05-17T12:46:10.185Z</time>
      </trkpt>
      <trkpt lat="39.440225" lon="-8.45405">
        <ele>23.0</ele>
        <time>2019-05-17T12:46:11.151Z</time>
      </trkpt>
      <trkpt lat="39.440225" lon="-8.45405">
        <ele>23.0</ele>
        <time>2019-05-17T12:46:12.156Z</time>
      </trkpt>
      <trkpt lat="39.44025167" lon="-8.45401333">
        <ele>23.0</ele>
        <time>2019-05-17T12:46:13.154Z</time>
      </trkpt>
      <trkpt lat="39.44025167" lon="-8.45401333">
        <ele>23.0</ele>
        <time>2019-05-17T12:46:14.189Z</time>
      </trkpt>
      <trkpt lat="39.44028333" lon="-8.45397167">
        <ele>23.0</ele>
        <time>2019-05-17T12:46:15.157Z</time>
      </trkpt>
      <trkpt lat="39.44030333" lon="-8.45394833">
        <ele>23.0</ele>
        <time>2019-05-17T12:46:16.184Z</time>
      </trkpt>
      <trkpt lat="39.44030333" lon="-8.45394833">
        <ele>23.0</ele>
        <time>2019-05-17T12:46:17.166Z</time>
      </trkpt>
      <trkpt lat="39.44034333" lon="-8.45389667">
        <ele>23.0</ele>
        <time>2019-05-17T12:46:18.171Z</time>
      </trkpt>
      <trkpt lat="39.44034333" lon="-8.45389667">
        <ele>23.0</ele>
        <time>2019-05-17T12:46:19.184Z</time>
      </trkpt>
      <trkpt lat="39.44038" lon="-8.45384833">
        <ele>23.0</ele>
        <time>2019-05-17T12:46:20.160Z</time>
      </trkpt>
      <trkpt lat="39.44038" lon="-8.45384833">
        <ele>23.0</ele>
        <time>2019-05-17T12:46:21.177Z</time>
      </trkpt>
      <trkpt lat="39.44041333" lon="-8.45381">
        <ele>23.0</ele>
        <time>2019-05-17T12:46:22.151Z</time>
      </trkpt>
      <trkpt lat="39.44041333" lon="-8.45381">
        <ele>23.0</ele>
        <time>2019-05-17T12:46:23.173Z</time>
      </trkpt>
      <trkpt lat="39.44044167" lon="-8.45377">
        <ele>23.0</ele>
        <time>2019-05-17T12:46:24.173Z</time>
      </trkpt>
      <trkpt lat="39.44044167" lon="-8.45377">
        <ele>23.0</ele>
        <time>2019-05-17T12:46:25.184Z</time>
      </trkpt>
      <trkpt lat="39.44047333" lon="-8.45373333">
        <ele>23.0</ele>
        <time>2019-05-17T12:46:26.157Z</time>
      </trkpt>
      <trkpt lat="39.44047333" lon="-8.45373333">
        <ele>23.0</ele>
        <time>2019-05-17T12:46:27.177Z</time>
      </trkpt>
      <trkpt lat="39.44050833" lon="-8.453695">
        <ele>23.0</ele>
        <time>2019-05-17T12:46:28.184Z</time>
      </trkpt>
      <trkpt lat="39.44052667" lon="-8.45367333">
        <ele>23.0</ele>
        <time>2019-05-17T12:46:29.174Z</time>
      </trkpt>
      <trkpt lat="39.44052667" lon="-8.45367333">
        <ele>23.0</ele>
        <time>2019-05-17T12:46:30.185Z</time>
      </trkpt>
      <trkpt lat="39.44056333" lon="-8.45362667">
        <ele>23.0</ele>
        <time>2019-05-17T12:46:31.178Z</time>
      </trkpt>
      <trkpt lat="39.44058333" lon="-8.4536">
        <ele>23.0</ele>
        <time>2019-05-17T12:46:32.168Z</time>
      </trkpt>
      <trkpt lat="39.44058333" lon="-8.4536">
        <ele>23.0</ele>
        <time>2019-05-17T12:46:33.184Z</time>
      </trkpt>
      <trkpt lat="39.44062167" lon="-8.45354333">
        <ele>23.0</ele>
        <time>2019-05-17T12:46:34.184Z</time>
      </trkpt>
      <trkpt lat="39.44062167" lon="-8.45354333">
        <ele>23.0</ele>
        <time>2019-05-17T12:46:35.161Z</time>
      </trkpt>
      <trkpt lat="39.440665" lon="-8.45348333">
        <ele>23.0</ele>
        <time>2019-05-17T12:46:36.179Z</time>
      </trkpt>
      <trkpt lat="39.440665" lon="-8.45348333">
        <ele>23.0</ele>
        <time>2019-05-17T12:46:37.151Z</time>
      </trkpt>
      <trkpt lat="39.44071333" lon="-8.45342833">
        <ele>23.0</ele>
        <time>2019-05-17T12:46:38.156Z</time>
      </trkpt>
      <trkpt lat="39.44071333" lon="-8.45342833">
        <ele>23.0</ele>
        <time>2019-05-17T12:46:39.174Z</time>
      </trkpt>
      <trkpt lat="39.44075833" lon="-8.45336833">
        <ele>23.0</ele>
        <time>2019-05-17T12:46:40.185Z</time>
      </trkpt>
      <trkpt lat="39.44075833" lon="-8.45336833">
        <ele>23.0</ele>
        <time>2019-05-17T12:46:41.162Z</time>
      </trkpt>
      <trkpt lat="39.440805" lon="-8.45331333">
        <ele>23.0</ele>
        <time>2019-05-17T12:46:42.151Z</time>
      </trkpt>
      <trkpt lat="39.440805" lon="-8.45331333">
        <ele>23.0</ele>
        <time>2019-05-17T12:46:43.173Z</time>
      </trkpt>
      <trkpt lat="39.44085167" lon="-8.45325333">
        <ele>23.0</ele>
        <time>2019-05-17T12:46:44.164Z</time>
      </trkpt>
      <trkpt lat="39.44085167" lon="-8.45325333">
        <ele>23.0</ele>
        <time>2019-05-17T12:46:45.185Z</time>
      </trkpt>
      <trkpt lat="39.4409" lon="-8.45319833">
        <ele>22.0</ele>
        <time>2019-05-17T12:46:46.160Z</time>
      </trkpt>
      <trkpt lat="39.4409" lon="-8.45319833">
        <ele>22.0</ele>
        <time>2019-05-17T12:46:47.182Z</time>
      </trkpt>
      <trkpt lat="39.44094333" lon="-8.45313833">
        <ele>22.0</ele>
        <time>2019-05-17T12:46:48.184Z</time>
      </trkpt>
      <trkpt lat="39.44094333" lon="-8.45313833">
        <ele>22.0</ele>
        <time>2019-05-17T12:46:49.189Z</time>
      </trkpt>
      <trkpt lat="39.44099" lon="-8.453075">
        <ele>22.0</ele>
        <time>2019-05-17T12:46:50.162Z</time>
      </trkpt>
      <trkpt lat="39.44099" lon="-8.453075">
        <ele>22.0</ele>
        <time>2019-05-17T12:46:51.167Z</time>
      </trkpt>
      <trkpt lat="39.44103667" lon="-8.45301333">
        <ele>22.0</ele>
        <time>2019-05-17T12:46:52.176Z</time>
      </trkpt>
      <trkpt lat="39.44103667" lon="-8.45301333">
        <ele>22.0</ele>
        <time>2019-05-17T12:46:53.181Z</time>
      </trkpt>
      <trkpt lat="39.44108333" lon="-8.45295">
        <ele>22.0</ele>
        <time>2019-05-17T12:46:54.155Z</time>
      </trkpt>
      <trkpt lat="39.44108333" lon="-8.45295">
        <ele>22.0</ele>
        <time>2019-05-17T12:46:55.166Z</time>
      </trkpt>
      <trkpt lat="39.44112833" lon="-8.452885">
        <ele>22.0</ele>
        <time>2019-05-17T12:46:56.181Z</time>
      </trkpt>
      <trkpt lat="39.44112833" lon="-8.452885">
        <ele>22.0</ele>
        <time>2019-05-17T12:46:57.186Z</time>
      </trkpt>
      <trkpt lat="39.44116833" lon="-8.45282667">
        <ele>21.0</ele>
        <time>2019-05-17T12:46:58.157Z</time>
      </trkpt>
      <trkpt lat="39.44116833" lon="-8.45282667">
        <ele>21.0</ele>
        <time>2019-05-17T12:46:59.177Z</time>
      </trkpt>
      <trkpt lat="39.44120667" lon="-8.45277333">
        <ele>21.0</ele>
        <time>2019-05-17T12:47:00.157Z</time>
      </trkpt>
      <trkpt lat="39.44120667" lon="-8.45277333">
        <ele>21.0</ele>
        <time>2019-05-17T12:47:01.163Z</time>
      </trkpt>
      <trkpt lat="39.44124667" lon="-8.45271333">
        <ele>21.0</ele>
        <time>2019-05-17T12:47:02.156Z</time>
      </trkpt>
      <trkpt lat="39.44124667" lon="-8.45271333">
        <ele>21.0</ele>
        <time>2019-05-17T12:47:03.184Z</time>
      </trkpt>
      <trkpt lat="39.44129167" lon="-8.45265833">
        <ele>21.0</ele>
        <time>2019-05-17T12:47:04.150Z</time>
      </trkpt>
      <trkpt lat="39.44131333" lon="-8.45263333">
        <ele>21.0</ele>
        <time>2019-05-17T12:47:05.159Z</time>
      </trkpt>
      <trkpt lat="39.44131333" lon="-8.45263333">
        <ele>21.0</ele>
        <time>2019-05-17T12:47:06.177Z</time>
      </trkpt>
      <trkpt lat="39.44135333" lon="-8.45258167">
        <ele>21.0</ele>
        <time>2019-05-17T12:47:07.175Z</time>
      </trkpt>
      <trkpt lat="39.441375" lon="-8.45256167">
        <ele>21.0</ele>
        <time>2019-05-17T12:47:08.168Z</time>
      </trkpt>
      <trkpt lat="39.441375" lon="-8.45256167">
        <ele>21.0</ele>
        <time>2019-05-17T12:47:09.184Z</time>
      </trkpt>
      <trkpt lat="39.44142667" lon="-8.452535">
        <ele>21.0</ele>
        <time>2019-05-17T12:47:10.185Z</time>
      </trkpt>
      <trkpt lat="39.441455" lon="-8.45253667">
        <ele>21.0</ele>
        <time>2019-05-17T12:47:11.152Z</time>
      </trkpt>
      <trkpt lat="39.441455" lon="-8.45253667">
        <ele>21.0</ele>
        <time>2019-05-17T12:47:12.189Z</time>
      </trkpt>
      <trkpt lat="39.44150333" lon="-8.45253333">
        <ele>21.0</ele>
        <time>2019-05-17T12:47:13.152Z</time>
      </trkpt>
      <trkpt lat="39.441525" lon="-8.452525">
        <ele>21.0</ele>
        <time>2019-05-17T12:47:14.155Z</time>
      </trkpt>
      <trkpt lat="39.441525" lon="-8.452525">
        <ele>21.0</ele>
        <time>2019-05-17T12:47:15.186Z</time>
      </trkpt>
      <trkpt lat="39.44157667" lon="-8.45250667">
        <ele>21.0</ele>
        <time>2019-05-17T12:47:16.155Z</time>
      </trkpt>
      <trkpt lat="39.44157667" lon="-8.45250667">
        <ele>21.0</ele>
        <time>2019-05-17T12:47:17.182Z</time>
      </trkpt>
      <trkpt lat="39.44162" lon="-8.45248333">
        <ele>21.0</ele>
        <time>2019-05-17T12:47:18.178Z</time>
      </trkpt>
      <trkpt lat="39.44162" lon="-8.45248333">
        <ele>21.0</ele>
        <time>2019-05-17T12:47:19.189Z</time>
      </trkpt>
      <trkpt lat="39.44166333" lon="-8.45246333">
        <ele>21.0</ele>
        <time>2019-05-17T12:47:20.172Z</time>
      </trkpt>
      <trkpt lat="39.44166333" lon="-8.45246333">
        <ele>21.0</ele>
        <time>2019-05-17T12:47:21.181Z</time>
      </trkpt>
      <trkpt lat="39.44171" lon="-8.45243333">
        <ele>21.0</ele>
        <time>2019-05-17T12:47:22.165Z</time>
      </trkpt>
      <trkpt lat="39.44171" lon="-8.45243333">
        <ele>21.0</ele>
        <time>2019-05-17T12:47:23.171Z</time>
      </trkpt>
      <trkpt lat="39.44176" lon="-8.45240333">
        <ele>21.0</ele>
        <time>2019-05-17T12:47:24.162Z</time>
      </trkpt>
      <trkpt lat="39.44176" lon="-8.45240333">
        <ele>21.0</ele>
        <time>2019-05-17T12:47:25.187Z</time>
      </trkpt>
      <trkpt lat="39.44181667" lon="-8.45237167">
        <ele>21.0</ele>
        <time>2019-05-17T12:47:26.183Z</time>
      </trkpt>
      <trkpt lat="39.44181667" lon="-8.45237167">
        <ele>21.0</ele>
        <time>2019-05-17T12:47:27.161Z</time>
      </trkpt>
      <trkpt lat="39.44187167" lon="-8.45234167">
        <ele>21.0</ele>
        <time>2019-05-17T12:47:28.155Z</time>
      </trkpt>
      <trkpt lat="39.44187167" lon="-8.45234167">
        <ele>21.0</ele>
        <time>2019-05-17T12:47:29.161Z</time>
      </trkpt>
      <trkpt lat="39.44192667" lon="-8.452315">
        <ele>21.0</ele>
        <time>2019-05-17T12:47:30.153Z</time>
      </trkpt>
      <trkpt lat="39.44192667" lon="-8.452315">
        <ele>21.0</ele>
        <time>2019-05-17T12:47:31.158Z</time>
      </trkpt>
      <trkpt lat="39.44197833" lon="-8.45229">
        <ele>21.0</ele>
        <time>2019-05-17T12:47:32.189Z</time>
      </trkpt>
      <trkpt lat="39.44197833" lon="-8.45229">
        <ele>21.0</ele>
        <time>2019-05-17T12:47:33.154Z</time>
      </trkpt>
      <trkpt lat="39.44203167" lon="-8.452255">
        <ele>22.0</ele>
        <time>2019-05-17T12:47:34.185Z</time>
      </trkpt>
      <trkpt lat="39.44203167" lon="-8.452255">
        <ele>22.0</ele>
        <time>2019-05-17T12:47:35.150Z</time>
      </trkpt>
      <trkpt lat="39.44208667" lon="-8.45222333">
        <ele>22.0</ele>
        <time>2019-05-17T12:47:36.171Z</time>
      </trkpt>
      <trkpt lat="39.44208667" lon="-8.45222333">
        <ele>22.0</ele>
        <time>2019-05-17T12:47:37.184Z</time>
      </trkpt>
      <trkpt lat="39.442145" lon="-8.452195">
        <ele>22.0</ele>
        <time>2019-05-17T12:47:38.180Z</time>
      </trkpt>
      <trkpt lat="39.442145" lon="-8.452195">
        <ele>22.0</ele>
        <time>2019-05-17T12:47:39.154Z</time>
      </trkpt>
      <trkpt lat="39.442205" lon="-8.45216333">
        <ele>22.0</ele>
        <time>2019-05-17T12:47:40.191Z</time>
      </trkpt>
      <trkpt lat="39.442205" lon="-8.45216333">
        <ele>22.0</ele>
        <time>2019-05-17T12:47:41.188Z</time>
      </trkpt>
      <trkpt lat="39.44226167" lon="-8.45213">
        <ele>22.0</ele>
        <time>2019-05-17T12:47:42.179Z</time>
      </trkpt>
      <trkpt lat="39.44226167" lon="-8.45213">
        <ele>22.0</ele>
        <time>2019-05-17T12:47:43.163Z</time>
      </trkpt>
      <trkpt lat="39.44231833" lon="-8.45209667">
        <ele>23.0</ele>
        <time>2019-05-17T12:47:44.151Z</time>
      </trkpt>
      <trkpt lat="39.44231833" lon="-8.45209667">
        <ele>23.0</ele>
        <time>2019-05-17T12:47:45.181Z</time>
      </trkpt>
      <trkpt lat="39.44238667" lon="-8.45206">
        <ele>23.0</ele>
        <time>2019-05-17T12:47:46.171Z</time>
      </trkpt>
      <trkpt lat="39.44238667" lon="-8.45206">
        <ele>23.0</ele>
        <time>2019-05-17T12:47:47.176Z</time>
      </trkpt>
      <trkpt lat="39.44244167" lon="-8.45202667">
        <ele>23.0</ele>
        <time>2019-05-17T12:47:48.187Z</time>
      </trkpt>
      <trkpt lat="39.44247167" lon="-8.45200833">
        <ele>23.0</ele>
        <time>2019-05-17T12:47:49.175Z</time>
      </trkpt>
      <trkpt lat="39.44250333" lon="-8.45199167">
        <ele>23.0</ele>
        <time>2019-05-17T12:47:50.156Z</time>
      </trkpt>
      <trkpt lat="39.44250333" lon="-8.45199167">
        <ele>23.0</ele>
        <time>2019-05-17T12:47:51.175Z</time>
      </trkpt>
      <trkpt lat="39.44256833" lon="-8.451955">
        <ele>23.0</ele>
        <time>2019-05-17T12:47:52.195Z</time>
      </trkpt>
      <trkpt lat="39.44256833" lon="-8.451955">
        <ele>23.0</ele>
        <time>2019-05-17T12:47:53.165Z</time>
      </trkpt>
      <trkpt lat="39.44263167" lon="-8.45192">
        <ele>23.0</ele>
        <time>2019-05-17T12:47:54.161Z</time>
      </trkpt>
      <trkpt lat="39.44263167" lon="-8.45192">
        <ele>23.0</ele>
        <time>2019-05-17T12:47:55.182Z</time>
      </trkpt>
      <trkpt lat="39.442695" lon="-8.45188">
        <ele>24.0</ele>
        <time>2019-05-17T12:47:56.175Z</time>
      </trkpt>
      <trkpt lat="39.442695" lon="-8.45188">
        <ele>24.0</ele>
        <time>2019-05-17T12:47:57.159Z</time>
      </trkpt>
      <trkpt lat="39.44275667" lon="-8.45184167">
        <ele>24.0</ele>
        <time>2019-05-17T12:47:58.166Z</time>
      </trkpt>
      <trkpt lat="39.44275667" lon="-8.45184167">
        <ele>24.0</ele>
        <time>2019-05-17T12:47:59.187Z</time>
      </trkpt>
      <trkpt lat="39.44282" lon="-8.45180833">
        <ele>24.0</ele>
        <time>2019-05-17T12:48:00.189Z</time>
      </trkpt>
      <trkpt lat="39.44282" lon="-8.45180833">
        <ele>24.0</ele>
        <time>2019-05-17T12:48:01.170Z</time>
      </trkpt>
      <trkpt lat="39.44287833" lon="-8.45176833">
        <ele>24.0</ele>
        <time>2019-05-17T12:48:02.172Z</time>
      </trkpt>
      <trkpt lat="39.44287833" lon="-8.45176833">
        <ele>24.0</ele>
        <time>2019-05-17T12:48:03.156Z</time>
      </trkpt>
      <trkpt lat="39.44294167" lon="-8.45172333">
        <ele>24.0</ele>
        <time>2019-05-17T12:48:04.187Z</time>
      </trkpt>
      <trkpt lat="39.44294167" lon="-8.45172333">
        <ele>24.0</ele>
        <time>2019-05-17T12:48:05.171Z</time>
      </trkpt>
      <trkpt lat="39.44300833" lon="-8.451685">
        <ele>24.0</ele>
        <time>2019-05-17T12:48:06.179Z</time>
      </trkpt>
      <trkpt lat="39.44304167" lon="-8.451665">
        <ele>24.0</ele>
        <time>2019-05-17T12:48:07.176Z</time>
      </trkpt>
      <trkpt lat="39.443075" lon="-8.45164333">
        <ele>24.0</ele>
        <time>2019-05-17T12:48:08.160Z</time>
      </trkpt>
      <trkpt lat="39.443075" lon="-8.45164333">
        <ele>24.0</ele>
        <time>2019-05-17T12:48:09.150Z</time>
      </trkpt>
      <trkpt lat="39.44314167" lon="-8.45160333">
        <ele>23.0</ele>
        <time>2019-05-17T12:48:10.168Z</time>
      </trkpt>
      <trkpt lat="39.44317667" lon="-8.45158333">
        <ele>23.0</ele>
        <time>2019-05-17T12:48:11.176Z</time>
      </trkpt>
      <trkpt lat="39.44320833" lon="-8.451565">
        <ele>23.0</ele>
        <time>2019-05-17T12:48:12.173Z</time>
      </trkpt>
      <trkpt lat="39.44320833" lon="-8.451565">
        <ele>23.0</ele>
        <time>2019-05-17T12:48:13.162Z</time>
      </trkpt>
      <trkpt lat="39.44325667" lon="-8.45153333">
        <ele>24.0</ele>
        <time>2019-05-17T12:48:14.157Z</time>
      </trkpt>
      <trkpt lat="39.44325667" lon="-8.45153333">
        <ele>24.0</ele>
        <time>2019-05-17T12:48:15.163Z</time>
      </trkpt>
      <trkpt lat="39.44331833" lon="-8.45149667">
        <ele>24.0</ele>
        <time>2019-05-17T12:48:16.155Z</time>
      </trkpt>
      <trkpt lat="39.44331833" lon="-8.45149667">
        <ele>24.0</ele>
        <time>2019-05-17T12:48:17.160Z</time>
      </trkpt>
      <trkpt lat="39.44338" lon="-8.45145833">
        <ele>24.0</ele>
        <time>2019-05-17T12:48:18.165Z</time>
      </trkpt>
      <trkpt lat="39.44338" lon="-8.45145833">
        <ele>24.0</ele>
        <time>2019-05-17T12:48:19.181Z</time>
      </trkpt>
      <trkpt lat="39.44344667" lon="-8.451405">
        <ele>23.0</ele>
        <time>2019-05-17T12:48:20.163Z</time>
      </trkpt>
      <trkpt lat="39.44344667" lon="-8.451405">
        <ele>23.0</ele>
        <time>2019-05-17T12:48:21.184Z</time>
      </trkpt>
      <trkpt lat="39.443515" lon="-8.45136333">
        <ele>23.0</ele>
        <time>2019-05-17T12:48:22.185Z</time>
      </trkpt>
      <trkpt lat="39.443515" lon="-8.45136333">
        <ele>23.0</ele>
        <time>2019-05-17T12:48:23.169Z</time>
      </trkpt>
      <trkpt lat="39.44359" lon="-8.451325">
        <ele>23.0</ele>
        <time>2019-05-17T12:48:24.155Z</time>
      </trkpt>
      <trkpt lat="39.44363" lon="-8.45130333">
        <ele>23.0</ele>
        <time>2019-05-17T12:48:25.170Z</time>
      </trkpt>
      <trkpt lat="39.443665" lon="-8.45128167">
        <ele>23.0</ele>
        <time>2019-05-17T12:48:26.155Z</time>
      </trkpt>
      <trkpt lat="39.443665" lon="-8.45128167">
        <ele>23.0</ele>
        <time>2019-05-17T12:48:27.160Z</time>
      </trkpt>
      <trkpt lat="39.443735" lon="-8.45124833">
        <ele>23.0</ele>
        <time>2019-05-17T12:48:28.159Z</time>
      </trkpt>
      <trkpt lat="39.443735" lon="-8.45124833">
        <ele>23.0</ele>
        <time>2019-05-17T12:48:29.185Z</time>
      </trkpt>
      <trkpt lat="39.443815" lon="-8.45120667">
        <ele>23.0</ele>
        <time>2019-05-17T12:48:30.187Z</time>
      </trkpt>
      <trkpt lat="39.443815" lon="-8.45120667">
        <ele>23.0</ele>
        <time>2019-05-17T12:48:31.153Z</time>
      </trkpt>
      <trkpt lat="39.443895" lon="-8.45116333">
        <ele>23.0</ele>
        <time>2019-05-17T12:48:32.157Z</time>
      </trkpt>
      <trkpt lat="39.443895" lon="-8.45116333">
        <ele>23.0</ele>
        <time>2019-05-17T12:48:33.154Z</time>
      </trkpt>
      <trkpt lat="39.443975" lon="-8.45111333">
        <ele>23.0</ele>
        <time>2019-05-17T12:48:34.160Z</time>
      </trkpt>
      <trkpt lat="39.443975" lon="-8.45111333">
        <ele>23.0</ele>
        <time>2019-05-17T12:48:35.171Z</time>
      </trkpt>
      <trkpt lat="39.44404" lon="-8.45107833">
        <ele>24.0</ele>
        <time>2019-05-17T12:48:36.159Z</time>
      </trkpt>
      <trkpt lat="39.44404" lon="-8.45107833">
        <ele>24.0</ele>
        <time>2019-05-17T12:48:37.186Z</time>
      </trkpt>
      <trkpt lat="39.44410667" lon="-8.45104667">
        <ele>24.0</ele>
        <time>2019-05-17T12:48:38.177Z</time>
      </trkpt>
      <trkpt lat="39.44410667" lon="-8.45104667">
        <ele>24.0</ele>
        <time>2019-05-17T12:48:39.155Z</time>
      </trkpt>
      <trkpt lat="39.444175" lon="-8.45101167">
        <ele>24.0</ele>
        <time>2019-05-17T12:48:40.184Z</time>
      </trkpt>
      <trkpt lat="39.444175" lon="-8.45101167">
        <ele>24.0</ele>
        <time>2019-05-17T12:48:41.160Z</time>
      </trkpt>
      <trkpt lat="39.44423333" lon="-8.45097">
        <ele>23.0</ele>
        <time>2019-05-17T12:48:42.164Z</time>
      </trkpt>
      <trkpt lat="39.44423333" lon="-8.45097">
        <ele>23.0</ele>
        <time>2019-05-17T12:48:43.189Z</time>
      </trkpt>
      <trkpt lat="39.44428" lon="-8.45091">
        <ele>23.0</ele>
        <time>2019-05-17T12:48:44.169Z</time>
      </trkpt>
      <trkpt lat="39.44428" lon="-8.45091">
        <ele>23.0</ele>
        <time>2019-05-17T12:48:45.186Z</time>
      </trkpt>
      <trkpt lat="39.44432" lon="-8.450845">
        <ele>23.0</ele>
        <time>2019-05-17T12:48:46.167Z</time>
      </trkpt>
      <trkpt lat="39.44432" lon="-8.450845">
        <ele>23.0</ele>
        <time>2019-05-17T12:48:47.155Z</time>
      </trkpt>
      <trkpt lat="39.444365" lon="-8.45077">
        <ele>23.0</ele>
        <time>2019-05-17T12:48:48.178Z</time>
      </trkpt>
      <trkpt lat="39.444365" lon="-8.45077">
        <ele>23.0</ele>
        <time>2019-05-17T12:48:49.161Z</time>
      </trkpt>
      <trkpt lat="39.44440833" lon="-8.45069333">
        <ele>23.0</ele>
        <time>2019-05-17T12:48:50.151Z</time>
      </trkpt>
      <trkpt lat="39.44440833" lon="-8.45069333">
        <ele>23.0</ele>
        <time>2019-05-17T12:48:51.165Z</time>
      </trkpt>
      <trkpt lat="39.44445333" lon="-8.45061833">
        <ele>23.0</ele>
        <time>2019-05-17T12:48:52.165Z</time>
      </trkpt>
      <trkpt lat="39.44445333" lon="-8.45061833">
        <ele>23.0</ele>
        <time>2019-05-17T12:48:53.172Z</time>
      </trkpt>
      <trkpt lat="39.44449167" lon="-8.45054833">
        <ele>23.0</ele>
        <time>2019-05-17T12:48:54.175Z</time>
      </trkpt>
      <trkpt lat="39.44451" lon="-8.45051167">
        <ele>23.0</ele>
        <time>2019-05-17T12:48:55.155Z</time>
      </trkpt>
      <trkpt lat="39.44452667" lon="-8.45047667">
        <ele>23.0</ele>
        <time>2019-05-17T12:48:56.154Z</time>
      </trkpt>
      <trkpt lat="39.44452667" lon="-8.45047667">
        <ele>23.0</ele>
        <time>2019-05-17T12:48:57.152Z</time>
      </trkpt>
      <trkpt lat="39.44456667" lon="-8.450405">
        <ele>22.0</ele>
        <time>2019-05-17T12:48:58.176Z</time>
      </trkpt>
      <trkpt lat="39.44456667" lon="-8.450405">
        <ele>22.0</ele>
        <time>2019-05-17T12:48:59.183Z</time>
      </trkpt>
      <trkpt lat="39.44461" lon="-8.45033167">
        <ele>22.0</ele>
        <time>2019-05-17T12:49:00.184Z</time>
      </trkpt>
      <trkpt lat="39.44461" lon="-8.45033167">
        <ele>22.0</ele>
        <time>2019-05-17T12:49:01.157Z</time>
      </trkpt>
      <trkpt lat="39.44465333" lon="-8.450255">
        <ele>22.0</ele>
        <time>2019-05-17T12:49:02.184Z</time>
      </trkpt>
      <trkpt lat="39.44465333" lon="-8.450255">
        <ele>22.0</ele>
        <time>2019-05-17T12:49:03.150Z</time>
      </trkpt>
      <trkpt lat="39.44469333" lon="-8.45018333">
        <ele>22.0</ele>
        <time>2019-05-17T12:49:04.183Z</time>
      </trkpt>
      <trkpt lat="39.44469333" lon="-8.45018333">
        <ele>22.0</ele>
        <time>2019-05-17T12:49:05.187Z</time>
      </trkpt>
      <trkpt lat="39.444735" lon="-8.45011">
        <ele>22.0</ele>
        <time>2019-05-17T12:49:06.184Z</time>
      </trkpt>
      <trkpt lat="39.444735" lon="-8.45011">
        <ele>22.0</ele>
        <time>2019-05-17T12:49:07.152Z</time>
      </trkpt>
      <trkpt lat="39.44478" lon="-8.45004333">
        <ele>22.0</ele>
        <time>2019-05-17T12:49:08.182Z</time>
      </trkpt>
      <trkpt lat="39.44478" lon="-8.45004333">
        <ele>22.0</ele>
        <time>2019-05-17T12:49:09.154Z</time>
      </trkpt>
      <trkpt lat="39.44483" lon="-8.449975">
        <ele>22.0</ele>
        <time>2019-05-17T12:49:10.170Z</time>
      </trkpt>
      <trkpt lat="39.44483" lon="-8.449975">
        <ele>22.0</ele>
        <time>2019-05-17T12:49:11.187Z</time>
      </trkpt>
      <trkpt lat="39.44488167" lon="-8.4499">
        <ele>22.0</ele>
        <time>2019-05-17T12:49:12.178Z</time>
      </trkpt>
      <trkpt lat="39.44488167" lon="-8.4499">
        <ele>22.0</ele>
        <time>2019-05-17T12:49:13.184Z</time>
      </trkpt>
      <trkpt lat="39.44493333" lon="-8.44982333">
        <ele>22.0</ele>
        <time>2019-05-17T12:49:14.179Z</time>
      </trkpt>
      <trkpt lat="39.44493333" lon="-8.44982333">
        <ele>22.0</ele>
        <time>2019-05-17T12:49:15.153Z</time>
      </trkpt>
      <trkpt lat="39.44498167" lon="-8.44973833">
        <ele>22.0</ele>
        <time>2019-05-17T12:49:16.169Z</time>
      </trkpt>
      <trkpt lat="39.44498167" lon="-8.44973833">
        <ele>22.0</ele>
        <time>2019-05-17T12:49:17.152Z</time>
      </trkpt>
      <trkpt lat="39.44503" lon="-8.44965667">
        <ele>22.0</ele>
        <time>2019-05-17T12:49:18.185Z</time>
      </trkpt>
      <trkpt lat="39.44503" lon="-8.44965667">
        <ele>22.0</ele>
        <time>2019-05-17T12:49:19.158Z</time>
      </trkpt>
      <trkpt lat="39.44507333" lon="-8.44958167">
        <ele>22.0</ele>
        <time>2019-05-17T12:49:20.186Z</time>
      </trkpt>
      <trkpt lat="39.44507333" lon="-8.44958167">
        <ele>22.0</ele>
        <time>2019-05-17T12:49:21.173Z</time>
      </trkpt>
      <trkpt lat="39.44511" lon="-8.449515">
        <ele>22.0</ele>
        <time>2019-05-17T12:49:22.173Z</time>
      </trkpt>
      <trkpt lat="39.44511" lon="-8.449515">
        <ele>22.0</ele>
        <time>2019-05-17T12:49:23.173Z</time>
      </trkpt>
      <trkpt lat="39.44514667" lon="-8.44944167">
        <ele>22.0</ele>
        <time>2019-05-17T12:49:24.183Z</time>
      </trkpt>
      <trkpt lat="39.44514667" lon="-8.44944167">
        <ele>22.0</ele>
        <time>2019-05-17T12:49:25.166Z</time>
      </trkpt>
      <trkpt lat="39.44518667" lon="-8.44937">
        <ele>22.0</ele>
        <time>2019-05-17T12:49:26.172Z</time>
      </trkpt>
      <trkpt lat="39.44518667" lon="-8.44937">
        <ele>22.0</ele>
        <time>2019-05-17T12:49:27.177Z</time>
      </trkpt>
      <trkpt lat="39.44523333" lon="-8.44930333">
        <ele>22.0</ele>
        <time>2019-05-17T12:49:28.175Z</time>
      </trkpt>
      <trkpt lat="39.44523333" lon="-8.44930333">
        <ele>22.0</ele>
        <time>2019-05-17T12:49:29.182Z</time>
      </trkpt>
      <trkpt lat="39.44528167" lon="-8.44923333">
        <ele>22.0</ele>
        <time>2019-05-17T12:49:30.171Z</time>
      </trkpt>
      <trkpt lat="39.44528167" lon="-8.44923333">
        <ele>22.0</ele>
        <time>2019-05-17T12:49:31.158Z</time>
      </trkpt>
      <trkpt lat="39.44533333" lon="-8.44914333">
        <ele>22.0</ele>
        <time>2019-05-17T12:49:32.154Z</time>
      </trkpt>
      <trkpt lat="39.44533333" lon="-8.44914333">
        <ele>22.0</ele>
        <time>2019-05-17T12:49:33.176Z</time>
      </trkpt>
      <trkpt lat="39.44538333" lon="-8.44907">
        <ele>21.0</ele>
        <time>2019-05-17T12:49:34.180Z</time>
      </trkpt>
      <trkpt lat="39.44538333" lon="-8.44907">
        <ele>21.0</ele>
        <time>2019-05-17T12:49:35.160Z</time>
      </trkpt>
      <trkpt lat="39.44543333" lon="-8.44898333">
        <ele>21.0</ele>
        <time>2019-05-17T12:49:36.154Z</time>
      </trkpt>
      <trkpt lat="39.44546" lon="-8.44893167">
        <ele>21.0</ele>
        <time>2019-05-17T12:49:37.171Z</time>
      </trkpt>
      <trkpt lat="39.44548833" lon="-8.44888667">
        <ele>21.0</ele>
        <time>2019-05-17T12:49:38.170Z</time>
      </trkpt>
      <trkpt lat="39.44548833" lon="-8.44888667">
        <ele>21.0</ele>
        <time>2019-05-17T12:49:39.177Z</time>
      </trkpt>
      <trkpt lat="39.44555333" lon="-8.44881167">
        <ele>21.0</ele>
        <time>2019-05-17T12:49:40.165Z</time>
      </trkpt>
      <trkpt lat="39.44559333" lon="-8.448795">
        <ele>21.0</ele>
        <time>2019-05-17T12:49:41.156Z</time>
      </trkpt>
      <trkpt lat="39.44559333" lon="-8.448795">
        <ele>21.0</ele>
        <time>2019-05-17T12:49:42.159Z</time>
      </trkpt>
      <trkpt lat="39.44567" lon="-8.44879333">
        <ele>21.0</ele>
        <time>2019-05-17T12:49:43.156Z</time>
      </trkpt>
      <trkpt lat="39.44570333" lon="-8.4488">
        <ele>21.0</ele>
        <time>2019-05-17T12:49:44.150Z</time>
      </trkpt>
      <trkpt lat="39.44570333" lon="-8.4488">
        <ele>21.0</ele>
        <time>2019-05-17T12:49:45.161Z</time>
      </trkpt>
      <trkpt lat="39.44576833" lon="-8.448805">
        <ele>20.0</ele>
        <time>2019-05-17T12:49:46.154Z</time>
      </trkpt>
      <trkpt lat="39.44576833" lon="-8.448805">
        <ele>20.0</ele>
        <time>2019-05-17T12:49:47.181Z</time>
      </trkpt>
      <trkpt lat="39.44582167" lon="-8.44882167">
        <ele>20.0</ele>
        <time>2019-05-17T12:49:48.176Z</time>
      </trkpt>
      <trkpt lat="39.44582167" lon="-8.44882167">
        <ele>20.0</ele>
        <time>2019-05-17T12:49:49.186Z</time>
      </trkpt>
      <trkpt lat="39.44586833" lon="-8.44884167">
        <ele>20.0</ele>
        <time>2019-05-17T12:49:50.178Z</time>
      </trkpt>
      <trkpt lat="39.44586833" lon="-8.44884167">
        <ele>20.0</ele>
        <time>2019-05-17T12:49:51.163Z</time>
      </trkpt>
      <trkpt lat="39.44592833" lon="-8.44885167">
        <ele>20.0</ele>
        <time>2019-05-17T12:49:52.174Z</time>
      </trkpt>
      <trkpt lat="39.44592833" lon="-8.44885167">
        <ele>20.0</ele>
        <time>2019-05-17T12:49:53.186Z</time>
      </trkpt>
      <trkpt lat="39.445985" lon="-8.44886167">
        <ele>20.0</ele>
        <time>2019-05-17T12:49:54.185Z</time>
      </trkpt>
      <trkpt lat="39.445985" lon="-8.44886167">
        <ele>20.0</ele>
        <time>2019-05-17T12:49:55.150Z</time>
      </trkpt>
      <trkpt lat="39.44604167" lon="-8.44887">
        <ele>20.0</ele>
        <time>2019-05-17T12:49:56.166Z</time>
      </trkpt>
      <trkpt lat="39.44604167" lon="-8.44887">
        <ele>20.0</ele>
        <time>2019-05-17T12:49:57.151Z</time>
      </trkpt>
      <trkpt lat="39.4461" lon="-8.44888333">
        <ele>21.0</ele>
        <time>2019-05-17T12:49:58.173Z</time>
      </trkpt>
      <trkpt lat="39.4461" lon="-8.44888333">
        <ele>21.0</ele>
        <time>2019-05-17T12:49:59.177Z</time>
      </trkpt>
      <trkpt lat="39.44615667" lon="-8.44890167">
        <ele>21.0</ele>
        <time>2019-05-17T12:50:00.182Z</time>
      </trkpt>
      <trkpt lat="39.44615667" lon="-8.44890167">
        <ele>21.0</ele>
        <time>2019-05-17T12:50:01.189Z</time>
      </trkpt>
      <trkpt lat="39.44620833" lon="-8.448905">
        <ele>21.0</ele>
        <time>2019-05-17T12:50:02.152Z</time>
      </trkpt>
      <trkpt lat="39.44620833" lon="-8.448905">
        <ele>21.0</ele>
        <time>2019-05-17T12:50:03.157Z</time>
      </trkpt>
      <trkpt lat="39.44626333" lon="-8.44891333">
        <ele>20.0</ele>
        <time>2019-05-17T12:50:04.150Z</time>
      </trkpt>
      <trkpt lat="39.44626333" lon="-8.44891333">
        <ele>20.0</ele>
        <time>2019-05-17T12:50:05.157Z</time>
      </trkpt>
      <trkpt lat="39.446315" lon="-8.448925">
        <ele>20.0</ele>
        <time>2019-05-17T12:50:06.190Z</time>
      </trkpt>
      <trkpt lat="39.44634" lon="-8.44892833">
        <ele>21.0</ele>
        <time>2019-05-17T12:50:07.150Z</time>
      </trkpt>
      <trkpt lat="39.44636667" lon="-8.44893333">
        <ele>21.0</ele>
        <time>2019-05-17T12:50:08.178Z</time>
      </trkpt>
      <trkpt lat="39.44636667" lon="-8.44893333">
        <ele>21.0</ele>
        <time>2019-05-17T12:50:09.153Z</time>
      </trkpt>
      <trkpt lat="39.44642" lon="-8.448945">
        <ele>21.0</ele>
        <time>2019-05-17T12:50:10.153Z</time>
      </trkpt>
      <trkpt lat="39.44642" lon="-8.448945">
        <ele>21.0</ele>
        <time>2019-05-17T12:50:11.176Z</time>
      </trkpt>
      <trkpt lat="39.446475" lon="-8.44895167">
        <ele>22.0</ele>
        <time>2019-05-17T12:50:12.181Z</time>
      </trkpt>
      <trkpt lat="39.446475" lon="-8.44895167">
        <ele>22.0</ele>
        <time>2019-05-17T12:50:13.161Z</time>
      </trkpt>
      <trkpt lat="39.44652833" lon="-8.44896333">
        <ele>22.0</ele>
        <time>2019-05-17T12:50:14.153Z</time>
      </trkpt>
      <trkpt lat="39.44652833" lon="-8.44896333">
        <ele>22.0</ele>
        <time>2019-05-17T12:50:15.178Z</time>
      </trkpt>
      <trkpt lat="39.44657833" lon="-8.44898167">
        <ele>22.0</ele>
        <time>2019-05-17T12:50:16.155Z</time>
      </trkpt>
      <trkpt lat="39.44657833" lon="-8.44898167">
        <ele>22.0</ele>
        <time>2019-05-17T12:50:17.160Z</time>
      </trkpt>
      <trkpt lat="39.44663" lon="-8.44900333">
        <ele>22.0</ele>
        <time>2019-05-17T12:50:18.156Z</time>
      </trkpt>
      <trkpt lat="39.44663" lon="-8.44900333">
        <ele>22.0</ele>
        <time>2019-05-17T12:50:19.176Z</time>
      </trkpt>
      <trkpt lat="39.44668" lon="-8.44903167">
        <ele>22.0</ele>
        <time>2019-05-17T12:50:20.174Z</time>
      </trkpt>
      <trkpt lat="39.44668" lon="-8.44903167">
        <ele>22.0</ele>
        <time>2019-05-17T12:50:21.157Z</time>
      </trkpt>
      <trkpt lat="39.44673667" lon="-8.44907167">
        <ele>23.0</ele>
        <time>2019-05-17T12:50:22.181Z</time>
      </trkpt>
      <trkpt lat="39.44673667" lon="-8.44907167">
        <ele>23.0</ele>
        <time>2019-05-17T12:50:23.187Z</time>
      </trkpt>
      <trkpt lat="39.44679167" lon="-8.44910667">
        <ele>22.0</ele>
        <time>2019-05-17T12:50:24.165Z</time>
      </trkpt>
      <trkpt lat="39.446815" lon="-8.44912667">
        <ele>22.0</ele>
        <time>2019-05-17T12:50:25.189Z</time>
      </trkpt>
      <trkpt lat="39.44684" lon="-8.44915">
        <ele>22.0</ele>
        <time>2019-05-17T12:50:26.185Z</time>
      </trkpt>
      <trkpt lat="39.44684" lon="-8.44915">
        <ele>22.0</ele>
        <time>2019-05-17T12:50:27.159Z</time>
      </trkpt>
      <trkpt lat="39.44688667" lon="-8.44919667">
        <ele>22.0</ele>
        <time>2019-05-17T12:50:28.166Z</time>
      </trkpt>
      <trkpt lat="39.44688667" lon="-8.44919667">
        <ele>22.0</ele>
        <time>2019-05-17T12:50:29.171Z</time>
      </trkpt>
      <trkpt lat="39.44691833" lon="-8.44926">
        <ele>22.0</ele>
        <time>2019-05-17T12:50:30.157Z</time>
      </trkpt>
      <trkpt lat="39.44691833" lon="-8.44926">
        <ele>22.0</ele>
        <time>2019-05-17T12:50:31.181Z</time>
      </trkpt>
      <trkpt lat="39.44694833" lon="-8.449325">
        <ele>22.0</ele>
        <time>2019-05-17T12:50:32.157Z</time>
      </trkpt>
      <trkpt lat="39.44694833" lon="-8.449325">
        <ele>22.0</ele>
        <time>2019-05-17T12:50:33.190Z</time>
      </trkpt>
      <trkpt lat="39.446985" lon="-8.449395">
        <ele>21.0</ele>
        <time>2019-05-17T12:50:34.165Z</time>
      </trkpt>
      <trkpt lat="39.446985" lon="-8.449395">
        <ele>21.0</ele>
        <time>2019-05-17T12:50:35.169Z</time>
      </trkpt>
      <trkpt lat="39.44701667" lon="-8.44946333">
        <ele>21.0</ele>
        <time>2019-05-17T12:50:36.180Z</time>
      </trkpt>
      <trkpt lat="39.44701667" lon="-8.44946333">
        <ele>21.0</ele>
        <time>2019-05-17T12:50:37.150Z</time>
      </trkpt>
      <trkpt lat="39.44704667" lon="-8.44953">
        <ele>21.0</ele>
        <time>2019-05-17T12:50:38.180Z</time>
      </trkpt>
      <trkpt lat="39.44704667" lon="-8.44953">
        <ele>21.0</ele>
        <time>2019-05-17T12:50:39.167Z</time>
      </trkpt>
      <trkpt lat="39.44708167" lon="-8.449595">
        <ele>21.0</ele>
        <time>2019-05-17T12:50:40.165Z</time>
      </trkpt>
      <trkpt lat="39.44708167" lon="-8.449595">
        <ele>21.0</ele>
        <time>2019-05-17T12:50:41.158Z</time>
      </trkpt>
      <trkpt lat="39.44712" lon="-8.449665">
        <ele>20.0</ele>
        <time>2019-05-17T12:50:42.155Z</time>
      </trkpt>
      <trkpt lat="39.44712" lon="-8.449665">
        <ele>20.0</ele>
        <time>2019-05-17T12:50:43.160Z</time>
      </trkpt>
      <trkpt lat="39.44716167" lon="-8.44973167">
        <ele>20.0</ele>
        <time>2019-05-17T12:50:44.189Z</time>
      </trkpt>
      <trkpt lat="39.44716167" lon="-8.44973167">
        <ele>20.0</ele>
        <time>2019-05-17T12:50:45.154Z</time>
      </trkpt>
      <trkpt lat="39.44720667" lon="-8.44978667">
        <ele>20.0</ele>
        <time>2019-05-17T12:50:46.170Z</time>
      </trkpt>
      <trkpt lat="39.44720667" lon="-8.44978667">
        <ele>20.0</ele>
        <time>2019-05-17T12:50:47.178Z</time>
      </trkpt>
      <trkpt lat="39.44725333" lon="-8.44983667">
        <ele>20.0</ele>
        <time>2019-05-17T12:50:48.165Z</time>
      </trkpt>
      <trkpt lat="39.44725333" lon="-8.44983667">
        <ele>20.0</ele>
        <time>2019-05-17T12:50:49.175Z</time>
      </trkpt>
      <trkpt lat="39.447305" lon="-8.44987667">
        <ele>20.0</ele>
        <time>2019-05-17T12:50:50.174Z</time>
      </trkpt>
      <trkpt lat="39.447305" lon="-8.44987667">
        <ele>20.0</ele>
        <time>2019-05-17T12:50:51.185Z</time>
      </trkpt>
      <trkpt lat="39.44735833" lon="-8.449905">
        <ele>20.0</ele>
        <time>2019-05-17T12:50:52.174Z</time>
      </trkpt>
      <trkpt lat="39.44735833" lon="-8.449905">
        <ele>20.0</ele>
        <time>2019-05-17T12:50:53.157Z</time>
      </trkpt>
      <trkpt lat="39.44741667" lon="-8.44991833">
        <ele>20.0</ele>
        <time>2019-05-17T12:50:54.173Z</time>
      </trkpt>
      <trkpt lat="39.44741667" lon="-8.44991833">
        <ele>20.0</ele>
        <time>2019-05-17T12:50:55.152Z</time>
      </trkpt>
      <trkpt lat="39.44747833" lon="-8.44992167">
        <ele>20.0</ele>
        <time>2019-05-17T12:50:56.190Z</time>
      </trkpt>
      <trkpt lat="39.44747833" lon="-8.44992167">
        <ele>20.0</ele>
        <time>2019-05-17T12:50:57.184Z</time>
      </trkpt>
      <trkpt lat="39.447535" lon="-8.44992333">
        <ele>21.0</ele>
        <time>2019-05-17T12:50:58.180Z</time>
      </trkpt>
      <trkpt lat="39.447535" lon="-8.44992333">
        <ele>21.0</ele>
        <time>2019-05-17T12:50:59.163Z</time>
      </trkpt>
      <trkpt lat="39.44759" lon="-8.44992833">
        <ele>21.0</ele>
        <time>2019-05-17T12:51:00.156Z</time>
      </trkpt>
      <trkpt lat="39.44759" lon="-8.44992833">
        <ele>21.0</ele>
        <time>2019-05-17T12:51:01.162Z</time>
      </trkpt>
      <trkpt lat="39.44764167" lon="-8.44993">
        <ele>21.0</ele>
        <time>2019-05-17T12:51:02.156Z</time>
      </trkpt>
      <trkpt lat="39.44764167" lon="-8.44993">
        <ele>21.0</ele>
        <time>2019-05-17T12:51:03.161Z</time>
      </trkpt>
      <trkpt lat="39.44769167" lon="-8.44992833">
        <ele>21.0</ele>
        <time>2019-05-17T12:51:04.173Z</time>
      </trkpt>
      <trkpt lat="39.44769167" lon="-8.44992833">
        <ele>21.0</ele>
        <time>2019-05-17T12:51:05.187Z</time>
      </trkpt>
      <trkpt lat="39.447745" lon="-8.44993333">
        <ele>21.0</ele>
        <time>2019-05-17T12:51:06.181Z</time>
      </trkpt>
      <trkpt lat="39.447745" lon="-8.44993333">
        <ele>21.0</ele>
        <time>2019-05-17T12:51:07.150Z</time>
      </trkpt>
      <trkpt lat="39.44780167" lon="-8.44993333">
        <ele>21.0</ele>
        <time>2019-05-17T12:51:08.191Z</time>
      </trkpt>
      <trkpt lat="39.44780167" lon="-8.44993333">
        <ele>21.0</ele>
        <time>2019-05-17T12:51:09.150Z</time>
      </trkpt>
      <trkpt lat="39.44785833" lon="-8.44992833">
        <ele>21.0</ele>
        <time>2019-05-17T12:51:10.155Z</time>
      </trkpt>
      <trkpt lat="39.447885" lon="-8.44992667">
        <ele>21.0</ele>
        <time>2019-05-17T12:51:11.176Z</time>
      </trkpt>
      <trkpt lat="39.447885" lon="-8.44992667">
        <ele>21.0</ele>
        <time>2019-05-17T12:51:12.158Z</time>
      </trkpt>
      <trkpt lat="39.44794167" lon="-8.44992333">
        <ele>21.0</ele>
        <time>2019-05-17T12:51:13.162Z</time>
      </trkpt>
      <trkpt lat="39.44797" lon="-8.44992167">
        <ele>21.0</ele>
        <time>2019-05-17T12:51:14.153Z</time>
      </trkpt>
      <trkpt lat="39.44797" lon="-8.44992167">
        <ele>21.0</ele>
        <time>2019-05-17T12:51:15.188Z</time>
      </trkpt>
      <trkpt lat="39.44802833" lon="-8.449925">
        <ele>21.0</ele>
        <time>2019-05-17T12:51:16.177Z</time>
      </trkpt>
      <trkpt lat="39.44802833" lon="-8.449925">
        <ele>21.0</ele>
        <time>2019-05-17T12:51:17.162Z</time>
      </trkpt>
      <trkpt lat="39.44808833" lon="-8.44992167">
        <ele>21.0</ele>
        <time>2019-05-17T12:51:18.166Z</time>
      </trkpt>
      <trkpt lat="39.44808833" lon="-8.44992167">
        <ele>21.0</ele>
        <time>2019-05-17T12:51:19.171Z</time>
      </trkpt>
      <trkpt lat="39.44815167" lon="-8.44992">
        <ele>21.0</ele>
        <time>2019-05-17T12:51:20.180Z</time>
      </trkpt>
      <trkpt lat="39.44815167" lon="-8.44992">
        <ele>21.0</ele>
        <time>2019-05-17T12:51:21.186Z</time>
      </trkpt>
      <trkpt lat="39.44821333" lon="-8.44991833">
        <ele>21.0</ele>
        <time>2019-05-17T12:51:22.175Z</time>
      </trkpt>
      <trkpt lat="39.44821333" lon="-8.44991833">
        <ele>21.0</ele>
        <time>2019-05-17T12:51:23.185Z</time>
      </trkpt>
      <trkpt lat="39.448275" lon="-8.44991833">
        <ele>21.0</ele>
        <time>2019-05-17T12:51:24.187Z</time>
      </trkpt>
      <trkpt lat="39.448275" lon="-8.44991833">
        <ele>21.0</ele>
        <time>2019-05-17T12:51:25.156Z</time>
      </trkpt>
      <trkpt lat="39.448335" lon="-8.44991167">
        <ele>21.0</ele>
        <time>2019-05-17T12:51:26.188Z</time>
      </trkpt>
      <trkpt lat="39.448335" lon="-8.44991167">
        <ele>21.0</ele>
        <time>2019-05-17T12:51:27.158Z</time>
      </trkpt>
      <trkpt lat="39.448395" lon="-8.449905">
        <ele>21.0</ele>
        <time>2019-05-17T12:51:28.150Z</time>
      </trkpt>
      <trkpt lat="39.448395" lon="-8.449905">
        <ele>21.0</ele>
        <time>2019-05-17T12:51:29.156Z</time>
      </trkpt>
      <trkpt lat="39.44845667" lon="-8.44990333">
        <ele>21.0</ele>
        <time>2019-05-17T12:51:30.189Z</time>
      </trkpt>
      <trkpt lat="39.44848667" lon="-8.44990167">
        <ele>21.0</ele>
        <time>2019-05-17T12:51:31.178Z</time>
      </trkpt>
      <trkpt lat="39.44851833" lon="-8.4499">
        <ele>21.0</ele>
        <time>2019-05-17T12:51:32.171Z</time>
      </trkpt>
      <trkpt lat="39.44851833" lon="-8.4499">
        <ele>21.0</ele>
        <time>2019-05-17T12:51:33.177Z</time>
      </trkpt>
      <trkpt lat="39.44858333" lon="-8.44989833">
        <ele>20.0</ele>
        <time>2019-05-17T12:51:34.169Z</time>
      </trkpt>
      <trkpt lat="39.448615" lon="-8.44989667">
        <ele>20.0</ele>
        <time>2019-05-17T12:51:35.153Z</time>
      </trkpt>
      <trkpt lat="39.448615" lon="-8.44989667">
        <ele>20.0</ele>
        <time>2019-05-17T12:51:36.154Z</time>
      </trkpt>
      <trkpt lat="39.44867833" lon="-8.44989667">
        <ele>20.0</ele>
        <time>2019-05-17T12:51:37.194Z</time>
      </trkpt>
      <trkpt lat="39.44870833" lon="-8.449895">
        <ele>20.0</ele>
        <time>2019-05-17T12:51:38.181Z</time>
      </trkpt>
      <trkpt lat="39.44870833" lon="-8.449895">
        <ele>20.0</ele>
        <time>2019-05-17T12:51:39.188Z</time>
      </trkpt>
      <trkpt lat="39.44877167" lon="-8.44989167">
        <ele>20.0</ele>
        <time>2019-05-17T12:51:40.182Z</time>
      </trkpt>
      <trkpt lat="39.44877167" lon="-8.44989167">
        <ele>20.0</ele>
        <time>2019-05-17T12:51:41.164Z</time>
      </trkpt>
      <trkpt lat="39.44883667" lon="-8.44988833">
        <ele>20.0</ele>
        <time>2019-05-17T12:51:42.154Z</time>
      </trkpt>
      <trkpt lat="39.44883667" lon="-8.44988833">
        <ele>20.0</ele>
        <time>2019-05-17T12:51:43.185Z</time>
      </trkpt>
      <trkpt lat="39.44890333" lon="-8.44989">
        <ele>20.0</ele>
        <time>2019-05-17T12:51:44.156Z</time>
      </trkpt>
      <trkpt lat="39.44890333" lon="-8.44989">
        <ele>20.0</ele>
        <time>2019-05-17T12:51:45.187Z</time>
      </trkpt>
      <trkpt lat="39.44897" lon="-8.44989">
        <ele>20.0</ele>
        <time>2019-05-17T12:51:46.177Z</time>
      </trkpt>
      <trkpt lat="39.44897" lon="-8.44989">
        <ele>20.0</ele>
        <time>2019-05-17T12:51:47.184Z</time>
      </trkpt>
      <trkpt lat="39.44904" lon="-8.44988667">
        <ele>20.0</ele>
        <time>2019-05-17T12:51:48.186Z</time>
      </trkpt>
      <trkpt lat="39.449075" lon="-8.44988667">
        <ele>20.0</ele>
        <time>2019-05-17T12:51:49.160Z</time>
      </trkpt>
      <trkpt lat="39.44910833" lon="-8.449885">
        <ele>20.0</ele>
        <time>2019-05-17T12:51:50.185Z</time>
      </trkpt>
      <trkpt lat="39.44910833" lon="-8.449885">
        <ele>20.0</ele>
        <time>2019-05-17T12:51:51.167Z</time>
      </trkpt>
      <trkpt lat="39.44917667" lon="-8.44987833">
        <ele>20.0</ele>
        <time>2019-05-17T12:51:52.168Z</time>
      </trkpt>
      <trkpt lat="39.44917667" lon="-8.44987833">
        <ele>20.0</ele>
        <time>2019-05-17T12:51:53.157Z</time>
      </trkpt>
      <trkpt lat="39.449245" lon="-8.44985833">
        <ele>20.0</ele>
        <time>2019-05-17T12:51:54.151Z</time>
      </trkpt>
      <trkpt lat="39.44927833" lon="-8.449845">
        <ele>20.0</ele>
        <time>2019-05-17T12:51:55.188Z</time>
      </trkpt>
      <trkpt lat="39.44931" lon="-8.44983167">
        <ele>20.0</ele>
        <time>2019-05-17T12:51:56.188Z</time>
      </trkpt>
      <trkpt lat="39.44931" lon="-8.44983167">
        <ele>20.0</ele>
        <time>2019-05-17T12:51:57.161Z</time>
      </trkpt>
      <trkpt lat="39.44937333" lon="-8.44979667">
        <ele>20.0</ele>
        <time>2019-05-17T12:51:58.165Z</time>
      </trkpt>
      <trkpt lat="39.44937333" lon="-8.44979667">
        <ele>20.0</ele>
        <time>2019-05-17T12:51:59.170Z</time>
      </trkpt>
      <trkpt lat="39.44943167" lon="-8.44975333">
        <ele>20.0</ele>
        <time>2019-05-17T12:52:00.175Z</time>
      </trkpt>
      <trkpt lat="39.44946" lon="-8.44973167">
        <ele>20.0</ele>
        <time>2019-05-17T12:52:01.182Z</time>
      </trkpt>
      <trkpt lat="39.44948667" lon="-8.44970667">
        <ele>20.0</ele>
        <time>2019-05-17T12:52:02.161Z</time>
      </trkpt>
      <trkpt lat="39.44948667" lon="-8.44970667">
        <ele>20.0</ele>
        <time>2019-05-17T12:52:03.153Z</time>
      </trkpt>
      <trkpt lat="39.44953333" lon="-8.44966">
        <ele>20.0</ele>
        <time>2019-05-17T12:52:04.186Z</time>
      </trkpt>
      <trkpt lat="39.44953333" lon="-8.44966">
        <ele>20.0</ele>
        <time>2019-05-17T12:52:05.163Z</time>
      </trkpt>
      <trkpt lat="39.44957833" lon="-8.44960833">
        <ele>20.0</ele>
        <time>2019-05-17T12:52:06.167Z</time>
      </trkpt>
      <trkpt lat="39.44957833" lon="-8.44960833">
        <ele>20.0</ele>
        <time>2019-05-17T12:52:07.178Z</time>
      </trkpt>
      <trkpt lat="39.44962667" lon="-8.44955833">
        <ele>20.0</ele>
        <time>2019-05-17T12:52:08.185Z</time>
      </trkpt>
      <trkpt lat="39.44962667" lon="-8.44955833">
        <ele>20.0</ele>
        <time>2019-05-17T12:52:09.162Z</time>
      </trkpt>
      <trkpt lat="39.44968167" lon="-8.44950833">
        <ele>20.0</ele>
        <time>2019-05-17T12:52:10.179Z</time>
      </trkpt>
      <trkpt lat="39.44971" lon="-8.44948333">
        <ele>20.0</ele>
        <time>2019-05-17T12:52:11.176Z</time>
      </trkpt>
      <trkpt lat="39.44971" lon="-8.44948333">
        <ele>20.0</ele>
        <time>2019-05-17T12:52:12.175Z</time>
      </trkpt>
      <trkpt lat="39.44976167" lon="-8.44942833">
        <ele>20.0</ele>
        <time>2019-05-17T12:52:13.153Z</time>
      </trkpt>
      <trkpt lat="39.44978667" lon="-8.4494">
        <ele>20.0</ele>
        <time>2019-05-17T12:52:14.161Z</time>
      </trkpt>
      <trkpt lat="39.44978667" lon="-8.4494">
        <ele>20.0</ele>
        <time>2019-05-17T12:52:15.179Z</time>
      </trkpt>
      <trkpt lat="39.44983833" lon="-8.44934833">
        <ele>20.0</ele>
        <time>2019-05-17T12:52:16.175Z</time>
      </trkpt>
      <trkpt lat="39.44986167" lon="-8.449325">
        <ele>20.0</ele>
        <time>2019-05-17T12:52:17.162Z</time>
      </trkpt>
      <trkpt lat="39.44986167" lon="-8.449325">
        <ele>20.0</ele>
        <time>2019-05-17T12:52:18.179Z</time>
      </trkpt>
      <trkpt lat="39.44991" lon="-8.44927667">
        <ele>19.0</ele>
        <time>2019-05-17T12:52:19.165Z</time>
      </trkpt>
      <trkpt lat="39.44993333" lon="-8.44925167">
        <ele>19.0</ele>
        <time>2019-05-17T12:52:20.154Z</time>
      </trkpt>
      <trkpt lat="39.44993333" lon="-8.44925167">
        <ele>19.0</ele>
        <time>2019-05-17T12:52:21.160Z</time>
      </trkpt>
      <trkpt lat="39.44998" lon="-8.44919833">
        <ele>19.0</ele>
        <time>2019-05-17T12:52:22.175Z</time>
      </trkpt>
      <trkpt lat="39.44998" lon="-8.44919833">
        <ele>19.0</ele>
        <time>2019-05-17T12:52:23.162Z</time>
      </trkpt>
      <trkpt lat="39.45002667" lon="-8.44913833">
        <ele>19.0</ele>
        <time>2019-05-17T12:52:24.176Z</time>
      </trkpt>
      <trkpt lat="39.45005167" lon="-8.44910833">
        <ele>19.0</ele>
        <time>2019-05-17T12:52:25.187Z</time>
      </trkpt>
      <trkpt lat="39.450075" lon="-8.44908">
        <ele>19.0</ele>
        <time>2019-05-17T12:52:26.189Z</time>
      </trkpt>
      <trkpt lat="39.450075" lon="-8.44908">
        <ele>19.0</ele>
        <time>2019-05-17T12:52:27.154Z</time>
      </trkpt>
      <trkpt lat="39.45012833" lon="-8.44903">
        <ele>19.0</ele>
        <time>2019-05-17T12:52:28.151Z</time>
      </trkpt>
      <trkpt lat="39.45012833" lon="-8.44903">
        <ele>19.0</ele>
        <time>2019-05-17T12:52:29.163Z</time>
      </trkpt>
      <trkpt lat="39.45018" lon="-8.448985">
        <ele>18.0</ele>
        <time>2019-05-17T12:52:30.157Z</time>
      </trkpt>
      <trkpt lat="39.45018" lon="-8.448985">
        <ele>18.0</ele>
        <time>2019-05-17T12:52:31.162Z</time>
      </trkpt>
      <trkpt lat="39.45023" lon="-8.448935">
        <ele>18.0</ele>
        <time>2019-05-17T12:52:32.156Z</time>
      </trkpt>
      <trkpt lat="39.45023" lon="-8.448935">
        <ele>18.0</ele>
        <time>2019-05-17T12:52:33.163Z</time>
      </trkpt>
      <trkpt lat="39.45028" lon="-8.44887833">
        <ele>19.0</ele>
        <time>2019-05-17T12:52:34.157Z</time>
      </trkpt>
      <trkpt lat="39.45031" lon="-8.44884833">
        <ele>19.0</ele>
        <time>2019-05-17T12:52:35.150Z</time>
      </trkpt>
      <trkpt lat="39.45031" lon="-8.44884833">
        <ele>19.0</ele>
        <time>2019-05-17T12:52:36.187Z</time>
      </trkpt>
      <trkpt lat="39.45036333" lon="-8.44879">
        <ele>19.0</ele>
        <time>2019-05-17T12:52:37.167Z</time>
      </trkpt>
      <trkpt lat="39.45039" lon="-8.448765">
        <ele>19.0</ele>
        <time>2019-05-17T12:52:38.192Z</time>
      </trkpt>
      <trkpt lat="39.45039" lon="-8.448765">
        <ele>19.0</ele>
        <time>2019-05-17T12:52:39.160Z</time>
      </trkpt>
      <trkpt lat="39.45044167" lon="-8.44871167">
        <ele>19.0</ele>
        <time>2019-05-17T12:52:40.187Z</time>
      </trkpt>
      <trkpt lat="39.450465" lon="-8.448685">
        <ele>19.0</ele>
        <time>2019-05-17T12:52:41.186Z</time>
      </trkpt>
      <trkpt lat="39.450465" lon="-8.448685">
        <ele>19.0</ele>
        <time>2019-05-17T12:52:42.168Z</time>
      </trkpt>
      <trkpt lat="39.45051833" lon="-8.44863167">
        <ele>19.0</ele>
        <time>2019-05-17T12:52:43.164Z</time>
      </trkpt>
      <trkpt lat="39.45054667" lon="-8.44860167">
        <ele>19.0</ele>
        <time>2019-05-17T12:52:44.176Z</time>
      </trkpt>
      <trkpt lat="39.45054667" lon="-8.44860167">
        <ele>19.0</ele>
        <time>2019-05-17T12:52:45.187Z</time>
      </trkpt>
      <trkpt lat="39.45060167" lon="-8.448545">
        <ele>19.0</ele>
        <time>2019-05-17T12:52:46.176Z</time>
      </trkpt>
      <trkpt lat="39.45060167" lon="-8.448545">
        <ele>19.0</ele>
        <time>2019-05-17T12:52:47.185Z</time>
      </trkpt>
      <trkpt lat="39.45065667" lon="-8.44848833">
        <ele>19.0</ele>
        <time>2019-05-17T12:52:48.190Z</time>
      </trkpt>
      <trkpt lat="39.45065667" lon="-8.44848833">
        <ele>19.0</ele>
        <time>2019-05-17T12:52:49.159Z</time>
      </trkpt>
      <trkpt lat="39.45070667" lon="-8.44843">
        <ele>19.0</ele>
        <time>2019-05-17T12:52:50.155Z</time>
      </trkpt>
      <trkpt lat="39.45070667" lon="-8.44843">
        <ele>19.0</ele>
        <time>2019-05-17T12:52:51.176Z</time>
      </trkpt>
      <trkpt lat="39.45076" lon="-8.44837333">
        <ele>19.0</ele>
        <time>2019-05-17T12:52:52.174Z</time>
      </trkpt>
      <trkpt lat="39.45076" lon="-8.44837333">
        <ele>19.0</ele>
        <time>2019-05-17T12:52:53.179Z</time>
      </trkpt>
      <trkpt lat="39.45081333" lon="-8.44831167">
        <ele>20.0</ele>
        <time>2019-05-17T12:52:54.183Z</time>
      </trkpt>
      <trkpt lat="39.45081333" lon="-8.44831167">
        <ele>20.0</ele>
        <time>2019-05-17T12:52:55.182Z</time>
      </trkpt>
      <trkpt lat="39.45086333" lon="-8.44825167">
        <ele>20.0</ele>
        <time>2019-05-17T12:52:56.179Z</time>
      </trkpt>
      <trkpt lat="39.45086333" lon="-8.44825167">
        <ele>20.0</ele>
        <time>2019-05-17T12:52:57.187Z</time>
      </trkpt>
      <trkpt lat="39.45091833" lon="-8.44819333">
        <ele>20.0</ele>
        <time>2019-05-17T12:52:58.185Z</time>
      </trkpt>
      <trkpt lat="39.45091833" lon="-8.44819333">
        <ele>20.0</ele>
        <time>2019-05-17T12:52:59.155Z</time>
      </trkpt>
      <trkpt lat="39.45097167" lon="-8.44813667">
        <ele>20.0</ele>
        <time>2019-05-17T12:53:00.187Z</time>
      </trkpt>
      <trkpt lat="39.45099667" lon="-8.44810667">
        <ele>20.0</ele>
        <time>2019-05-17T12:53:01.172Z</time>
      </trkpt>
      <trkpt lat="39.45099667" lon="-8.44810667">
        <ele>20.0</ele>
        <time>2019-05-17T12:53:02.180Z</time>
      </trkpt>
      <trkpt lat="39.45104667" lon="-8.44804167">
        <ele>20.0</ele>
        <time>2019-05-17T12:53:03.181Z</time>
      </trkpt>
      <trkpt lat="39.45104667" lon="-8.44804167">
        <ele>20.0</ele>
        <time>2019-05-17T12:53:04.155Z</time>
      </trkpt>
      <trkpt lat="39.45109833" lon="-8.447975">
        <ele>20.0</ele>
        <time>2019-05-17T12:53:05.171Z</time>
      </trkpt>
      <trkpt lat="39.45112333" lon="-8.44794167">
        <ele>20.0</ele>
        <time>2019-05-17T12:53:06.156Z</time>
      </trkpt>
      <trkpt lat="39.45112333" lon="-8.44794167">
        <ele>20.0</ele>
        <time>2019-05-17T12:53:07.162Z</time>
      </trkpt>
      <trkpt lat="39.451175" lon="-8.44788">
        <ele>19.0</ele>
        <time>2019-05-17T12:53:08.162Z</time>
      </trkpt>
      <trkpt lat="39.451175" lon="-8.44788">
        <ele>19.0</ele>
        <time>2019-05-17T12:53:09.162Z</time>
      </trkpt>
      <trkpt lat="39.45123" lon="-8.44782">
        <ele>19.0</ele>
        <time>2019-05-17T12:53:10.195Z</time>
      </trkpt>
      <trkpt lat="39.45123" lon="-8.44782">
        <ele>19.0</ele>
        <time>2019-05-17T12:53:11.160Z</time>
      </trkpt>
      <trkpt lat="39.45127667" lon="-8.44776167">
        <ele>19.0</ele>
        <time>2019-05-17T12:53:12.185Z</time>
      </trkpt>
      <trkpt lat="39.45127667" lon="-8.44776167">
        <ele>19.0</ele>
        <time>2019-05-17T12:53:13.150Z</time>
      </trkpt>
      <trkpt lat="39.451325" lon="-8.447695">
        <ele>19.0</ele>
        <time>2019-05-17T12:53:14.176Z</time>
      </trkpt>
      <trkpt lat="39.451325" lon="-8.447695">
        <ele>19.0</ele>
        <time>2019-05-17T12:53:15.157Z</time>
      </trkpt>
      <trkpt lat="39.451375" lon="-8.44762167">
        <ele>19.0</ele>
        <time>2019-05-17T12:53:16.182Z</time>
      </trkpt>
      <trkpt lat="39.451375" lon="-8.44762167">
        <ele>19.0</ele>
        <time>2019-05-17T12:53:17.150Z</time>
      </trkpt>
      <trkpt lat="39.45142167" lon="-8.44755333">
        <ele>20.0</ele>
        <time>2019-05-17T12:53:18.156Z</time>
      </trkpt>
      <trkpt lat="39.45144833" lon="-8.44752333">
        <ele>20.0</ele>
        <time>2019-05-17T12:53:19.156Z</time>
      </trkpt>
      <trkpt lat="39.45147167" lon="-8.44748833">
        <ele>20.0</ele>
        <time>2019-05-17T12:53:20.161Z</time>
      </trkpt>
      <trkpt lat="39.45147167" lon="-8.44748833">
        <ele>20.0</ele>
        <time>2019-05-17T12:53:21.166Z</time>
      </trkpt>
      <trkpt lat="39.451515" lon="-8.44742167">
        <ele>21.0</ele>
        <time>2019-05-17T12:53:22.160Z</time>
      </trkpt>
      <trkpt lat="39.451515" lon="-8.44742167">
        <ele>21.0</ele>
        <time>2019-05-17T12:53:23.188Z</time>
      </trkpt>
      <trkpt lat="39.451555" lon="-8.447355">
        <ele>21.0</ele>
        <time>2019-05-17T12:53:24.155Z</time>
      </trkpt>
      <trkpt lat="39.451555" lon="-8.447355">
        <ele>21.0</ele>
        <time>2019-05-17T12:53:25.167Z</time>
      </trkpt>
      <trkpt lat="39.45159833" lon="-8.44728833">
        <ele>20.0</ele>
        <time>2019-05-17T12:53:26.158Z</time>
      </trkpt>
      <trkpt lat="39.45159833" lon="-8.44728833">
        <ele>20.0</ele>
        <time>2019-05-17T12:53:27.178Z</time>
      </trkpt>
      <trkpt lat="39.45164" lon="-8.44721833">
        <ele>20.0</ele>
        <time>2019-05-17T12:53:28.183Z</time>
      </trkpt>
      <trkpt lat="39.45164" lon="-8.44721833">
        <ele>20.0</ele>
        <time>2019-05-17T12:53:29.159Z</time>
      </trkpt>
      <trkpt lat="39.45168333" lon="-8.44715167">
        <ele>20.0</ele>
        <time>2019-05-17T12:53:30.184Z</time>
      </trkpt>
      <trkpt lat="39.45168333" lon="-8.44715167">
        <ele>20.0</ele>
        <time>2019-05-17T12:53:31.187Z</time>
      </trkpt>
      <trkpt lat="39.45172667" lon="-8.44708333">
        <ele>20.0</ele>
        <time>2019-05-17T12:53:32.185Z</time>
      </trkpt>
      <trkpt lat="39.45172667" lon="-8.44708333">
        <ele>20.0</ele>
        <time>2019-05-17T12:53:33.150Z</time>
      </trkpt>
      <trkpt lat="39.45177333" lon="-8.44702333">
        <ele>20.0</ele>
        <time>2019-05-17T12:53:34.155Z</time>
      </trkpt>
      <trkpt lat="39.45177333" lon="-8.44702333">
        <ele>20.0</ele>
        <time>2019-05-17T12:53:35.167Z</time>
      </trkpt>
      <trkpt lat="39.45182167" lon="-8.44695667">
        <ele>20.0</ele>
        <time>2019-05-17T12:53:36.175Z</time>
      </trkpt>
      <trkpt lat="39.45182167" lon="-8.44695667">
        <ele>20.0</ele>
        <time>2019-05-17T12:53:37.154Z</time>
      </trkpt>
      <trkpt lat="39.45187" lon="-8.44689833">
        <ele>20.0</ele>
        <time>2019-05-17T12:53:38.191Z</time>
      </trkpt>
      <trkpt lat="39.45187" lon="-8.44689833">
        <ele>20.0</ele>
        <time>2019-05-17T12:53:39.167Z</time>
      </trkpt>
      <trkpt lat="39.45191667" lon="-8.44683333">
        <ele>20.0</ele>
        <time>2019-05-17T12:53:40.155Z</time>
      </trkpt>
      <trkpt lat="39.45191667" lon="-8.44683333">
        <ele>20.0</ele>
        <time>2019-05-17T12:53:41.160Z</time>
      </trkpt>
      <trkpt lat="39.45196333" lon="-8.446775">
        <ele>20.0</ele>
        <time>2019-05-17T12:53:42.151Z</time>
      </trkpt>
      <trkpt lat="39.45196333" lon="-8.446775">
        <ele>20.0</ele>
        <time>2019-05-17T12:53:43.151Z</time>
      </trkpt>
      <trkpt lat="39.452015" lon="-8.44671667">
        <ele>20.0</ele>
        <time>2019-05-17T12:53:44.184Z</time>
      </trkpt>
      <trkpt lat="39.452015" lon="-8.44671667">
        <ele>20.0</ele>
        <time>2019-05-17T12:53:45.161Z</time>
      </trkpt>
      <trkpt lat="39.45206833" lon="-8.44665833">
        <ele>19.0</ele>
        <time>2019-05-17T12:53:46.185Z</time>
      </trkpt>
      <trkpt lat="39.45206833" lon="-8.44665833">
        <ele>19.0</ele>
        <time>2019-05-17T12:53:47.162Z</time>
      </trkpt>
      <trkpt lat="39.45212167" lon="-8.446595">
        <ele>19.0</ele>
        <time>2019-05-17T12:53:48.177Z</time>
      </trkpt>
      <trkpt lat="39.45212167" lon="-8.446595">
        <ele>19.0</ele>
        <time>2019-05-17T12:53:49.188Z</time>
      </trkpt>
      <trkpt lat="39.452175" lon="-8.44653833">
        <ele>19.0</ele>
        <time>2019-05-17T12:53:50.159Z</time>
      </trkpt>
      <trkpt lat="39.452175" lon="-8.44653833">
        <ele>19.0</ele>
        <time>2019-05-17T12:53:51.164Z</time>
      </trkpt>
      <trkpt lat="39.45223167" lon="-8.44649">
        <ele>20.0</ele>
        <time>2019-05-17T12:53:52.187Z</time>
      </trkpt>
      <trkpt lat="39.45223167" lon="-8.44649">
        <ele>20.0</ele>
        <time>2019-05-17T12:53:53.180Z</time>
      </trkpt>
      <trkpt lat="39.45229167" lon="-8.44645667">
        <ele>20.0</ele>
        <time>2019-05-17T12:53:54.173Z</time>
      </trkpt>
      <trkpt lat="39.45232667" lon="-8.44645167">
        <ele>21.0</ele>
        <time>2019-05-17T12:53:55.173Z</time>
      </trkpt>
      <trkpt lat="39.45236" lon="-8.44645333">
        <ele>21.0</ele>
        <time>2019-05-17T12:53:56.193Z</time>
      </trkpt>
      <trkpt lat="39.45236" lon="-8.44645333">
        <ele>21.0</ele>
        <time>2019-05-17T12:53:57.158Z</time>
      </trkpt>
      <trkpt lat="39.45241833" lon="-8.446475">
        <ele>21.0</ele>
        <time>2019-05-17T12:53:58.176Z</time>
      </trkpt>
      <trkpt lat="39.45241833" lon="-8.446475">
        <ele>21.0</ele>
        <time>2019-05-17T12:53:59.171Z</time>
      </trkpt>
      <trkpt lat="39.45247333" lon="-8.4465">
        <ele>21.0</ele>
        <time>2019-05-17T12:54:00.186Z</time>
      </trkpt>
      <trkpt lat="39.45249833" lon="-8.44651167">
        <ele>21.0</ele>
        <time>2019-05-17T12:54:01.185Z</time>
      </trkpt>
      <trkpt lat="39.45252167" lon="-8.44652167">
        <ele>21.0</ele>
        <time>2019-05-17T12:54:02.185Z</time>
      </trkpt>
      <trkpt lat="39.45252167" lon="-8.44652167">
        <ele>21.0</ele>
        <time>2019-05-17T12:54:03.190Z</time>
      </trkpt>
      <trkpt lat="39.45256" lon="-8.44654">
        <ele>22.0</ele>
        <time>2019-05-17T12:54:04.186Z</time>
      </trkpt>
      <trkpt lat="39.45258167" lon="-8.44654333">
        <ele>22.0</ele>
        <time>2019-05-17T12:54:05.152Z</time>
      </trkpt>
      <trkpt lat="39.45258167" lon="-8.44654333">
        <ele>22.0</ele>
        <time>2019-05-17T12:54:06.157Z</time>
      </trkpt>
      <trkpt lat="39.45262333" lon="-8.446555">
        <ele>22.0</ele>
        <time>2019-05-17T12:54:07.150Z</time>
      </trkpt>
      <trkpt lat="39.45265333" lon="-8.44655833">
        <ele>22.0</ele>
        <time>2019-05-17T12:54:08.168Z</time>
      </trkpt>
      <trkpt lat="39.45265333" lon="-8.44655833">
        <ele>22.0</ele>
        <time>2019-05-17T12:54:09.171Z</time>
      </trkpt>
      <trkpt lat="39.452705" lon="-8.44656167">
        <ele>23.0</ele>
        <time>2019-05-17T12:54:10.161Z</time>
      </trkpt>
      <trkpt lat="39.452705" lon="-8.44656167">
        <ele>23.0</ele>
        <time>2019-05-17T12:54:11.187Z</time>
      </trkpt>
      <trkpt lat="39.45275833" lon="-8.44655167">
        <ele>23.0</ele>
        <time>2019-05-17T12:54:12.153Z</time>
      </trkpt>
      <trkpt lat="39.45275833" lon="-8.44655167">
        <ele>23.0</ele>
        <time>2019-05-17T12:54:13.167Z</time>
      </trkpt>
      <trkpt lat="39.45280833" lon="-8.446535">
        <ele>23.0</ele>
        <time>2019-05-17T12:54:14.189Z</time>
      </trkpt>
      <trkpt lat="39.45280833" lon="-8.446535">
        <ele>23.0</ele>
        <time>2019-05-17T12:54:15.154Z</time>
      </trkpt>
      <trkpt lat="39.45285833" lon="-8.44651333">
        <ele>24.0</ele>
        <time>2019-05-17T12:54:16.156Z</time>
      </trkpt>
      <trkpt lat="39.45288167" lon="-8.44649833">
        <ele>23.0</ele>
        <time>2019-05-17T12:54:17.174Z</time>
      </trkpt>
      <trkpt lat="39.45288167" lon="-8.44649833">
        <ele>23.0</ele>
        <time>2019-05-17T12:54:18.166Z</time>
      </trkpt>
      <trkpt lat="39.45293667" lon="-8.44645667">
        <ele>23.0</ele>
        <time>2019-05-17T12:54:19.167Z</time>
      </trkpt>
      <trkpt lat="39.45296" lon="-8.44643167">
        <ele>24.0</ele>
        <time>2019-05-17T12:54:20.161Z</time>
      </trkpt>
      <trkpt lat="39.45296" lon="-8.44643167">
        <ele>24.0</ele>
        <time>2019-05-17T12:54:21.159Z</time>
      </trkpt>
      <trkpt lat="39.453" lon="-8.446395">
        <ele>24.0</ele>
        <time>2019-05-17T12:54:22.159Z</time>
      </trkpt>
      <trkpt lat="39.453" lon="-8.446395">
        <ele>24.0</ele>
        <time>2019-05-17T12:54:23.166Z</time>
      </trkpt>
      <trkpt lat="39.45304167" lon="-8.44636667">
        <ele>24.0</ele>
        <time>2019-05-17T12:54:24.174Z</time>
      </trkpt>
      <trkpt lat="39.45306" lon="-8.446355">
        <ele>24.0</ele>
        <time>2019-05-17T12:54:25.155Z</time>
      </trkpt>
      <trkpt lat="39.45307667" lon="-8.44633833">
        <ele>24.0</ele>
        <time>2019-05-17T12:54:26.163Z</time>
      </trkpt>
      <trkpt lat="39.45307667" lon="-8.44633833">
        <ele>24.0</ele>
        <time>2019-05-17T12:54:27.173Z</time>
      </trkpt>
      <trkpt lat="39.45310833" lon="-8.4463">
        <ele>24.0</ele>
        <time>2019-05-17T12:54:28.173Z</time>
      </trkpt>
      <trkpt lat="39.45310833" lon="-8.4463">
        <ele>24.0</ele>
        <time>2019-05-17T12:54:29.152Z</time>
      </trkpt>
      <trkpt lat="39.45315333" lon="-8.44628167">
        <ele>24.0</ele>
        <time>2019-05-17T12:54:30.187Z</time>
      </trkpt>
      <trkpt lat="39.45315333" lon="-8.44628167">
        <ele>24.0</ele>
        <time>2019-05-17T12:54:31.152Z</time>
      </trkpt>
      <trkpt lat="39.453195" lon="-8.44626167">
        <ele>24.0</ele>
        <time>2019-05-17T12:54:32.153Z</time>
      </trkpt>
      <trkpt lat="39.453195" lon="-8.44626167">
        <ele>24.0</ele>
        <time>2019-05-17T12:54:33.161Z</time>
      </trkpt>
      <trkpt lat="39.45322333" lon="-8.446245">
        <ele>23.0</ele>
        <time>2019-05-17T12:54:34.161Z</time>
      </trkpt>
      <trkpt lat="39.45322333" lon="-8.446245">
        <ele>23.0</ele>
        <time>2019-05-17T12:54:35.188Z</time>
      </trkpt>
      <trkpt lat="39.453225" lon="-8.44624667">
        <ele>23.0</ele>
        <time>2019-05-17T12:54:36.179Z</time>
      </trkpt>
      <trkpt lat="39.453225" lon="-8.44624833">
        <ele>23.0</ele>
        <time>2019-05-17T12:54:37.153Z</time>
      </trkpt>
      <trkpt lat="39.453225" lon="-8.44624833">
        <ele>23.0</ele>
        <time>2019-05-17T12:54:38.159Z</time>
      </trkpt>
      <trkpt lat="39.453225" lon="-8.44624833">
        <ele>23.0</ele>
        <time>2019-05-17T12:54:39.166Z</time>
      </trkpt>
      <trkpt lat="39.453225" lon="-8.44624833">
        <ele>23.0</ele>
        <time>2019-05-17T12:54:40.171Z</time>
      </trkpt>
      <trkpt lat="39.453225" lon="-8.44624833">
        <ele>23.0</ele>
        <time>2019-05-17T12:54:41.159Z</time>
      </trkpt>
      <trkpt lat="39.453225" lon="-8.44624833">
        <ele>23.0</ele>
        <time>2019-05-17T12:54:42.153Z</time>
      </trkpt>
      <trkpt lat="39.453225" lon="-8.44624833">
        <ele>23.0</ele>
        <time>2019-05-17T12:54:43.171Z</time>
      </trkpt>
      <trkpt lat="39.453225" lon="-8.44624833">
        <ele>23.0</ele>
        <time>2019-05-17T12:54:44.161Z</time>
      </trkpt>
      <trkpt lat="39.453225" lon="-8.44624833">
        <ele>23.0</ele>
        <time>2019-05-17T12:54:45.151Z</time>
      </trkpt>
      <trkpt lat="39.453255" lon="-8.446205">
        <ele>22.0</ele>
        <time>2019-05-17T12:54:46.155Z</time>
      </trkpt>
      <trkpt lat="39.453255" lon="-8.446205">
        <ele>22.0</ele>
        <time>2019-05-17T12:54:47.153Z</time>
      </trkpt>
      <trkpt lat="39.45329333" lon="-8.446175">
        <ele>22.0</ele>
        <time>2019-05-17T12:54:48.158Z</time>
      </trkpt>
      <trkpt lat="39.45329333" lon="-8.446175">
        <ele>22.0</ele>
        <time>2019-05-17T12:54:49.153Z</time>
      </trkpt>
      <trkpt lat="39.45334667" lon="-8.44613167">
        <ele>22.0</ele>
        <time>2019-05-17T12:54:50.166Z</time>
      </trkpt>
      <trkpt lat="39.45334667" lon="-8.44613167">
        <ele>22.0</ele>
        <time>2019-05-17T12:54:51.153Z</time>
      </trkpt>
      <trkpt lat="39.453395" lon="-8.446085">
        <ele>22.0</ele>
        <time>2019-05-17T12:54:52.175Z</time>
      </trkpt>
      <trkpt lat="39.453395" lon="-8.446085">
        <ele>22.0</ele>
        <time>2019-05-17T12:54:53.186Z</time>
      </trkpt>
      <trkpt lat="39.45344667" lon="-8.44603667">
        <ele>22.0</ele>
        <time>2019-05-17T12:54:54.185Z</time>
      </trkpt>
      <trkpt lat="39.45344667" lon="-8.44603667">
        <ele>22.0</ele>
        <time>2019-05-17T12:54:55.150Z</time>
      </trkpt>
      <trkpt lat="39.45349333" lon="-8.445985">
        <ele>22.0</ele>
        <time>2019-05-17T12:54:56.183Z</time>
      </trkpt>
      <trkpt lat="39.45349333" lon="-8.445985">
        <ele>22.0</ele>
        <time>2019-05-17T12:54:57.187Z</time>
      </trkpt>
      <trkpt lat="39.45353667" lon="-8.44594">
        <ele>22.0</ele>
        <time>2019-05-17T12:54:58.155Z</time>
      </trkpt>
      <trkpt lat="39.45353667" lon="-8.44594">
        <ele>22.0</ele>
        <time>2019-05-17T12:54:59.187Z</time>
      </trkpt>
      <trkpt lat="39.45357667" lon="-8.44590333">
        <ele>22.0</ele>
        <time>2019-05-17T12:55:00.185Z</time>
      </trkpt>
      <trkpt lat="39.45357667" lon="-8.44590333">
        <ele>22.0</ele>
        <time>2019-05-17T12:55:01.150Z</time>
      </trkpt>
      <trkpt lat="39.45362" lon="-8.44586667">
        <ele>21.0</ele>
        <time>2019-05-17T12:55:02.179Z</time>
      </trkpt>
      <trkpt lat="39.45362" lon="-8.44586667">
        <ele>21.0</ele>
        <time>2019-05-17T12:55:03.151Z</time>
      </trkpt>
      <trkpt lat="39.45366333" lon="-8.44583">
        <ele>22.0</ele>
        <time>2019-05-17T12:55:04.183Z</time>
      </trkpt>
      <trkpt lat="39.45366333" lon="-8.44583">
        <ele>22.0</ele>
        <time>2019-05-17T12:55:05.188Z</time>
      </trkpt>
      <trkpt lat="39.45370667" lon="-8.44578833">
        <ele>21.0</ele>
        <time>2019-05-17T12:55:06.162Z</time>
      </trkpt>
      <trkpt lat="39.45370667" lon="-8.44578833">
        <ele>21.0</ele>
        <time>2019-05-17T12:55:07.188Z</time>
      </trkpt>
      <trkpt lat="39.45374667" lon="-8.44574333">
        <ele>22.0</ele>
        <time>2019-05-17T12:55:08.175Z</time>
      </trkpt>
      <trkpt lat="39.45374667" lon="-8.44574333">
        <ele>22.0</ele>
        <time>2019-05-17T12:55:09.187Z</time>
      </trkpt>
      <trkpt lat="39.45378833" lon="-8.44570833">
        <ele>22.0</ele>
        <time>2019-05-17T12:55:10.182Z</time>
      </trkpt>
      <trkpt lat="39.45378833" lon="-8.44570833">
        <ele>22.0</ele>
        <time>2019-05-17T12:55:11.175Z</time>
      </trkpt>
      <trkpt lat="39.45383" lon="-8.44567333">
        <ele>22.0</ele>
        <time>2019-05-17T12:55:12.175Z</time>
      </trkpt>
      <trkpt lat="39.45383" lon="-8.44567333">
        <ele>22.0</ele>
        <time>2019-05-17T12:55:13.180Z</time>
      </trkpt>
      <trkpt lat="39.45387167" lon="-8.44563">
        <ele>22.0</ele>
        <time>2019-05-17T12:55:14.176Z</time>
      </trkpt>
      <trkpt lat="39.45387167" lon="-8.44563">
        <ele>22.0</ele>
        <time>2019-05-17T12:55:15.186Z</time>
      </trkpt>
      <trkpt lat="39.45391667" lon="-8.445585">
        <ele>22.0</ele>
        <time>2019-05-17T12:55:16.159Z</time>
      </trkpt>
      <trkpt lat="39.45391667" lon="-8.445585">
        <ele>22.0</ele>
        <time>2019-05-17T12:55:17.180Z</time>
      </trkpt>
      <trkpt lat="39.45397" lon="-8.44552667">
        <ele>22.0</ele>
        <time>2019-05-17T12:55:18.173Z</time>
      </trkpt>
      <trkpt lat="39.45397" lon="-8.44552667">
        <ele>22.0</ele>
        <time>2019-05-17T12:55:19.185Z</time>
      </trkpt>
      <trkpt lat="39.45402833" lon="-8.44547">
        <ele>23.0</ele>
        <time>2019-05-17T12:55:20.185Z</time>
      </trkpt>
      <trkpt lat="39.45402833" lon="-8.44547">
        <ele>23.0</ele>
        <time>2019-05-17T12:55:21.150Z</time>
      </trkpt>
      <trkpt lat="39.45408833" lon="-8.445415">
        <ele>23.0</ele>
        <time>2019-05-17T12:55:22.152Z</time>
      </trkpt>
      <trkpt lat="39.45408833" lon="-8.445415">
        <ele>23.0</ele>
        <time>2019-05-17T12:55:23.158Z</time>
      </trkpt>
      <trkpt lat="39.45414333" lon="-8.44535333">
        <ele>23.0</ele>
        <time>2019-05-17T12:55:24.155Z</time>
      </trkpt>
      <trkpt lat="39.45417333" lon="-8.44532333">
        <ele>23.0</ele>
        <time>2019-05-17T12:55:25.172Z</time>
      </trkpt>
      <trkpt lat="39.454205" lon="-8.44529333">
        <ele>23.0</ele>
        <time>2019-05-17T12:55:26.174Z</time>
      </trkpt>
      <trkpt lat="39.454205" lon="-8.44529333">
        <ele>23.0</ele>
        <time>2019-05-17T12:55:27.162Z</time>
      </trkpt>
      <trkpt lat="39.454265" lon="-8.44523667">
        <ele>23.0</ele>
        <time>2019-05-17T12:55:28.154Z</time>
      </trkpt>
      <trkpt lat="39.454265" lon="-8.44523667">
        <ele>23.0</ele>
        <time>2019-05-17T12:55:29.181Z</time>
      </trkpt>
      <trkpt lat="39.45432333" lon="-8.44518">
        <ele>23.0</ele>
        <time>2019-05-17T12:55:30.165Z</time>
      </trkpt>
      <trkpt lat="39.45432333" lon="-8.44518">
        <ele>23.0</ele>
        <time>2019-05-17T12:55:31.189Z</time>
      </trkpt>
      <trkpt lat="39.45437833" lon="-8.44513">
        <ele>23.0</ele>
        <time>2019-05-17T12:55:32.162Z</time>
      </trkpt>
      <trkpt lat="39.45437833" lon="-8.44513">
        <ele>23.0</ele>
        <time>2019-05-17T12:55:33.171Z</time>
      </trkpt>
      <trkpt lat="39.45443" lon="-8.44507833">
        <ele>23.0</ele>
        <time>2019-05-17T12:55:34.172Z</time>
      </trkpt>
      <trkpt lat="39.45443" lon="-8.44507833">
        <ele>23.0</ele>
        <time>2019-05-17T12:55:35.163Z</time>
      </trkpt>
      <trkpt lat="39.45448" lon="-8.44502667">
        <ele>23.0</ele>
        <time>2019-05-17T12:55:36.153Z</time>
      </trkpt>
      <trkpt lat="39.45448" lon="-8.44502667">
        <ele>23.0</ele>
        <time>2019-05-17T12:55:37.167Z</time>
      </trkpt>
      <trkpt lat="39.45453" lon="-8.44497667">
        <ele>22.0</ele>
        <time>2019-05-17T12:55:38.167Z</time>
      </trkpt>
      <trkpt lat="39.45453" lon="-8.44497667">
        <ele>22.0</ele>
        <time>2019-05-17T12:55:39.172Z</time>
      </trkpt>
      <trkpt lat="39.45458" lon="-8.44492833">
        <ele>22.0</ele>
        <time>2019-05-17T12:55:40.159Z</time>
      </trkpt>
      <trkpt lat="39.45458" lon="-8.44492833">
        <ele>22.0</ele>
        <time>2019-05-17T12:55:41.165Z</time>
      </trkpt>
      <trkpt lat="39.45463333" lon="-8.44488167">
        <ele>22.0</ele>
        <time>2019-05-17T12:55:42.165Z</time>
      </trkpt>
      <trkpt lat="39.45463333" lon="-8.44488167">
        <ele>22.0</ele>
        <time>2019-05-17T12:55:43.170Z</time>
      </trkpt>
      <trkpt lat="39.45468833" lon="-8.44483">
        <ele>22.0</ele>
        <time>2019-05-17T12:55:44.173Z</time>
      </trkpt>
      <trkpt lat="39.45468833" lon="-8.44483">
        <ele>22.0</ele>
        <time>2019-05-17T12:55:45.178Z</time>
      </trkpt>
      <trkpt lat="39.45473833" lon="-8.444775">
        <ele>22.0</ele>
        <time>2019-05-17T12:55:46.185Z</time>
      </trkpt>
      <trkpt lat="39.45473833" lon="-8.444775">
        <ele>22.0</ele>
        <time>2019-05-17T12:55:47.150Z</time>
      </trkpt>
      <trkpt lat="39.45479" lon="-8.444725">
        <ele>22.0</ele>
        <time>2019-05-17T12:55:48.187Z</time>
      </trkpt>
      <trkpt lat="39.45479" lon="-8.444725">
        <ele>22.0</ele>
        <time>2019-05-17T12:55:49.168Z</time>
      </trkpt>
      <trkpt lat="39.45484" lon="-8.44467333">
        <ele>22.0</ele>
        <time>2019-05-17T12:55:50.183Z</time>
      </trkpt>
      <trkpt lat="39.45484" lon="-8.44467333">
        <ele>22.0</ele>
        <time>2019-05-17T12:55:51.152Z</time>
      </trkpt>
      <trkpt lat="39.45489167" lon="-8.444625">
        <ele>22.0</ele>
        <time>2019-05-17T12:55:52.182Z</time>
      </trkpt>
      <trkpt lat="39.45489167" lon="-8.444625">
        <ele>22.0</ele>
        <time>2019-05-17T12:55:53.151Z</time>
      </trkpt>
      <trkpt lat="39.45494167" lon="-8.44457">
        <ele>21.0</ele>
        <time>2019-05-17T12:55:54.179Z</time>
      </trkpt>
      <trkpt lat="39.45494167" lon="-8.44457">
        <ele>21.0</ele>
        <time>2019-05-17T12:55:55.186Z</time>
      </trkpt>
      <trkpt lat="39.45499167" lon="-8.44451833">
        <ele>21.0</ele>
        <time>2019-05-17T12:55:56.170Z</time>
      </trkpt>
      <trkpt lat="39.45499167" lon="-8.44451833">
        <ele>21.0</ele>
        <time>2019-05-17T12:55:57.175Z</time>
      </trkpt>
      <trkpt lat="39.455045" lon="-8.44446833">
        <ele>21.0</ele>
        <time>2019-05-17T12:55:58.168Z</time>
      </trkpt>
      <trkpt lat="39.455045" lon="-8.44446833">
        <ele>21.0</ele>
        <time>2019-05-17T12:55:59.178Z</time>
      </trkpt>
      <trkpt lat="39.45509667" lon="-8.44441667">
        <ele>21.0</ele>
        <time>2019-05-17T12:56:00.189Z</time>
      </trkpt>
      <trkpt lat="39.45509667" lon="-8.44441667">
        <ele>21.0</ele>
        <time>2019-05-17T12:56:01.174Z</time>
      </trkpt>
      <trkpt lat="39.45515" lon="-8.44436833">
        <ele>21.0</ele>
        <time>2019-05-17T12:56:02.164Z</time>
      </trkpt>
      <trkpt lat="39.45515" lon="-8.44436833">
        <ele>21.0</ele>
        <time>2019-05-17T12:56:03.150Z</time>
      </trkpt>
      <trkpt lat="39.45520333" lon="-8.44431667">
        <ele>21.0</ele>
        <time>2019-05-17T12:56:04.175Z</time>
      </trkpt>
      <trkpt lat="39.45520333" lon="-8.44431667">
        <ele>21.0</ele>
        <time>2019-05-17T12:56:05.163Z</time>
      </trkpt>
      <trkpt lat="39.45525" lon="-8.44426833">
        <ele>21.0</ele>
        <time>2019-05-17T12:56:06.158Z</time>
      </trkpt>
      <trkpt lat="39.45525" lon="-8.44426833">
        <ele>21.0</ele>
        <time>2019-05-17T12:56:07.177Z</time>
      </trkpt>
      <trkpt lat="39.45529833" lon="-8.44422333">
        <ele>20.0</ele>
        <time>2019-05-17T12:56:08.185Z</time>
      </trkpt>
      <trkpt lat="39.45529833" lon="-8.44422333">
        <ele>20.0</ele>
        <time>2019-05-17T12:56:09.173Z</time>
      </trkpt>
      <trkpt lat="39.455345" lon="-8.44417833">
        <ele>20.0</ele>
        <time>2019-05-17T12:56:10.186Z</time>
      </trkpt>
      <trkpt lat="39.455345" lon="-8.44417833">
        <ele>20.0</ele>
        <time>2019-05-17T12:56:11.153Z</time>
      </trkpt>
      <trkpt lat="39.45539333" lon="-8.44413667">
        <ele>20.0</ele>
        <time>2019-05-17T12:56:12.151Z</time>
      </trkpt>
      <trkpt lat="39.45539333" lon="-8.44413667">
        <ele>20.0</ele>
        <time>2019-05-17T12:56:13.163Z</time>
      </trkpt>
      <trkpt lat="39.455445" lon="-8.44409667">
        <ele>20.0</ele>
        <time>2019-05-17T12:56:14.159Z</time>
      </trkpt>
      <trkpt lat="39.455445" lon="-8.44409667">
        <ele>20.0</ele>
        <time>2019-05-17T12:56:15.177Z</time>
      </trkpt>
      <trkpt lat="39.455495" lon="-8.44406">
        <ele>20.0</ele>
        <time>2019-05-17T12:56:16.179Z</time>
      </trkpt>
      <trkpt lat="39.455495" lon="-8.44406">
        <ele>20.0</ele>
        <time>2019-05-17T12:56:17.186Z</time>
      </trkpt>
      <trkpt lat="39.45554667" lon="-8.44402667">
        <ele>20.0</ele>
        <time>2019-05-17T12:56:18.188Z</time>
      </trkpt>
      <trkpt lat="39.45554667" lon="-8.44402667">
        <ele>20.0</ele>
        <time>2019-05-17T12:56:19.166Z</time>
      </trkpt>
      <trkpt lat="39.45561167" lon="-8.44399">
        <ele>20.0</ele>
        <time>2019-05-17T12:56:20.154Z</time>
      </trkpt>
      <trkpt lat="39.45561167" lon="-8.44399">
        <ele>20.0</ele>
        <time>2019-05-17T12:56:21.184Z</time>
      </trkpt>
      <trkpt lat="39.45567333" lon="-8.44395833">
        <ele>20.0</ele>
        <time>2019-05-17T12:56:22.157Z</time>
      </trkpt>
      <trkpt lat="39.45567333" lon="-8.44395833">
        <ele>20.0</ele>
        <time>2019-05-17T12:56:23.175Z</time>
      </trkpt>
      <trkpt lat="39.45572833" lon="-8.44392667">
        <ele>20.0</ele>
        <time>2019-05-17T12:56:24.166Z</time>
      </trkpt>
      <trkpt lat="39.45572833" lon="-8.44392667">
        <ele>20.0</ele>
        <time>2019-05-17T12:56:25.189Z</time>
      </trkpt>
      <trkpt lat="39.45578167" lon="-8.44390167">
        <ele>20.0</ele>
        <time>2019-05-17T12:56:26.185Z</time>
      </trkpt>
      <trkpt lat="39.45578167" lon="-8.44390167">
        <ele>20.0</ele>
        <time>2019-05-17T12:56:27.167Z</time>
      </trkpt>
      <trkpt lat="39.45582667" lon="-8.44387667">
        <ele>20.0</ele>
        <time>2019-05-17T12:56:28.187Z</time>
      </trkpt>
      <trkpt lat="39.45582667" lon="-8.44387667">
        <ele>20.0</ele>
        <time>2019-05-17T12:56:29.169Z</time>
      </trkpt>
      <trkpt lat="39.455875" lon="-8.44384667">
        <ele>20.0</ele>
        <time>2019-05-17T12:56:30.177Z</time>
      </trkpt>
      <trkpt lat="39.455875" lon="-8.44384667">
        <ele>20.0</ele>
        <time>2019-05-17T12:56:31.189Z</time>
      </trkpt>
      <trkpt lat="39.45592667" lon="-8.443815">
        <ele>19.0</ele>
        <time>2019-05-17T12:56:32.185Z</time>
      </trkpt>
      <trkpt lat="39.45592667" lon="-8.443815">
        <ele>19.0</ele>
        <time>2019-05-17T12:56:33.168Z</time>
      </trkpt>
      <trkpt lat="39.45598167" lon="-8.44377833">
        <ele>19.0</ele>
        <time>2019-05-17T12:56:34.165Z</time>
      </trkpt>
      <trkpt lat="39.45598167" lon="-8.44377833">
        <ele>19.0</ele>
        <time>2019-05-17T12:56:35.169Z</time>
      </trkpt>
      <trkpt lat="39.456035" lon="-8.44374">
        <ele>19.0</ele>
        <time>2019-05-17T12:56:36.153Z</time>
      </trkpt>
      <trkpt lat="39.456035" lon="-8.44374">
        <ele>19.0</ele>
        <time>2019-05-17T12:56:37.172Z</time>
      </trkpt>
      <trkpt lat="39.45608833" lon="-8.44369667">
        <ele>19.0</ele>
        <time>2019-05-17T12:56:38.169Z</time>
      </trkpt>
      <trkpt lat="39.45608833" lon="-8.44369667">
        <ele>19.0</ele>
        <time>2019-05-17T12:56:39.175Z</time>
      </trkpt>
      <trkpt lat="39.45614333" lon="-8.44366167">
        <ele>19.0</ele>
        <time>2019-05-17T12:56:40.150Z</time>
      </trkpt>
      <trkpt lat="39.45614333" lon="-8.44366167">
        <ele>19.0</ele>
        <time>2019-05-17T12:56:41.165Z</time>
      </trkpt>
      <trkpt lat="39.45620167" lon="-8.44363167">
        <ele>19.0</ele>
        <time>2019-05-17T12:56:42.163Z</time>
      </trkpt>
      <trkpt lat="39.45620167" lon="-8.44363167">
        <ele>19.0</ele>
        <time>2019-05-17T12:56:43.177Z</time>
      </trkpt>
      <trkpt lat="39.45625833" lon="-8.44360833">
        <ele>19.0</ele>
        <time>2019-05-17T12:56:44.177Z</time>
      </trkpt>
      <trkpt lat="39.45625833" lon="-8.44360833">
        <ele>19.0</ele>
        <time>2019-05-17T12:56:45.174Z</time>
      </trkpt>
      <trkpt lat="39.45631667" lon="-8.443585">
        <ele>19.0</ele>
        <time>2019-05-17T12:56:46.161Z</time>
      </trkpt>
      <trkpt lat="39.45631667" lon="-8.443585">
        <ele>19.0</ele>
        <time>2019-05-17T12:56:47.167Z</time>
      </trkpt>
      <trkpt lat="39.45637667" lon="-8.44356">
        <ele>19.0</ele>
        <time>2019-05-17T12:56:48.179Z</time>
      </trkpt>
      <trkpt lat="39.45637667" lon="-8.44356">
        <ele>19.0</ele>
        <time>2019-05-17T12:56:49.186Z</time>
      </trkpt>
      <trkpt lat="39.45643833" lon="-8.44354333">
        <ele>19.0</ele>
        <time>2019-05-17T12:56:50.170Z</time>
      </trkpt>
      <trkpt lat="39.45643833" lon="-8.44354333">
        <ele>19.0</ele>
        <time>2019-05-17T12:56:51.182Z</time>
      </trkpt>
      <trkpt lat="39.4565" lon="-8.44353167">
        <ele>19.0</ele>
        <time>2019-05-17T12:56:52.180Z</time>
      </trkpt>
      <trkpt lat="39.4565" lon="-8.44353167">
        <ele>19.0</ele>
        <time>2019-05-17T12:56:53.188Z</time>
      </trkpt>
      <trkpt lat="39.45656167" lon="-8.44352333">
        <ele>19.0</ele>
        <time>2019-05-17T12:56:54.164Z</time>
      </trkpt>
      <trkpt lat="39.45656167" lon="-8.44352333">
        <ele>19.0</ele>
        <time>2019-05-17T12:56:55.169Z</time>
      </trkpt>
      <trkpt lat="39.45661667" lon="-8.44353">
        <ele>19.0</ele>
        <time>2019-05-17T12:56:56.162Z</time>
      </trkpt>
      <trkpt lat="39.45661667" lon="-8.44353">
        <ele>19.0</ele>
        <time>2019-05-17T12:56:57.160Z</time>
      </trkpt>
      <trkpt lat="39.45666833" lon="-8.44352167">
        <ele>19.0</ele>
        <time>2019-05-17T12:56:58.165Z</time>
      </trkpt>
      <trkpt lat="39.45666833" lon="-8.44352167">
        <ele>19.0</ele>
        <time>2019-05-17T12:56:59.178Z</time>
      </trkpt>
      <trkpt lat="39.45672" lon="-8.44351">
        <ele>19.0</ele>
        <time>2019-05-17T12:57:00.188Z</time>
      </trkpt>
      <trkpt lat="39.45672" lon="-8.44351">
        <ele>19.0</ele>
        <time>2019-05-17T12:57:01.172Z</time>
      </trkpt>
      <trkpt lat="39.45676833" lon="-8.44349667">
        <ele>19.0</ele>
        <time>2019-05-17T12:57:02.174Z</time>
      </trkpt>
      <trkpt lat="39.45676833" lon="-8.44349667">
        <ele>19.0</ele>
        <time>2019-05-17T12:57:03.158Z</time>
      </trkpt>
      <trkpt lat="39.45681333" lon="-8.44347667">
        <ele>18.0</ele>
        <time>2019-05-17T12:57:04.185Z</time>
      </trkpt>
      <trkpt lat="39.45681333" lon="-8.44347667">
        <ele>18.0</ele>
        <time>2019-05-17T12:57:05.150Z</time>
      </trkpt>
      <trkpt lat="39.456855" lon="-8.44344833">
        <ele>18.0</ele>
        <time>2019-05-17T12:57:06.187Z</time>
      </trkpt>
      <trkpt lat="39.456855" lon="-8.44344833">
        <ele>18.0</ele>
        <time>2019-05-17T12:57:07.153Z</time>
      </trkpt>
      <trkpt lat="39.45689833" lon="-8.44341667">
        <ele>18.0</ele>
        <time>2019-05-17T12:57:08.187Z</time>
      </trkpt>
      <trkpt lat="39.45689833" lon="-8.44341667">
        <ele>18.0</ele>
        <time>2019-05-17T12:57:09.184Z</time>
      </trkpt>
      <trkpt lat="39.456945" lon="-8.44336667">
        <ele>18.0</ele>
        <time>2019-05-17T12:57:10.315Z</time>
      </trkpt>
      <trkpt lat="39.45696833" lon="-8.44333833">
        <ele>18.0</ele>
        <time>2019-05-17T12:57:11.184Z</time>
      </trkpt>
      <trkpt lat="39.45696833" lon="-8.44333833">
        <ele>18.0</ele>
        <time>2019-05-17T12:57:12.167Z</time>
      </trkpt>
      <trkpt lat="39.45702167" lon="-8.44328">
        <ele>17.0</ele>
        <time>2019-05-17T12:57:13.167Z</time>
      </trkpt>
      <trkpt lat="39.45705167" lon="-8.44325333">
        <ele>17.0</ele>
        <time>2019-05-17T12:57:14.175Z</time>
      </trkpt>
      <trkpt lat="39.45705167" lon="-8.44325333">
        <ele>17.0</ele>
        <time>2019-05-17T12:57:15.186Z</time>
      </trkpt>
      <trkpt lat="39.45711333" lon="-8.44319833">
        <ele>17.0</ele>
        <time>2019-05-17T12:57:16.162Z</time>
      </trkpt>
      <trkpt lat="39.45711333" lon="-8.44319833">
        <ele>17.0</ele>
        <time>2019-05-17T12:57:17.186Z</time>
      </trkpt>
      <trkpt lat="39.457175" lon="-8.44314333">
        <ele>17.0</ele>
        <time>2019-05-17T12:57:18.176Z</time>
      </trkpt>
      <trkpt lat="39.457175" lon="-8.44314333">
        <ele>17.0</ele>
        <time>2019-05-17T12:57:19.186Z</time>
      </trkpt>
      <trkpt lat="39.45725167" lon="-8.443095">
        <ele>16.0</ele>
        <time>2019-05-17T12:57:20.170Z</time>
      </trkpt>
      <trkpt lat="39.45725167" lon="-8.443095">
        <ele>16.0</ele>
        <time>2019-05-17T12:57:21.182Z</time>
      </trkpt>
      <trkpt lat="39.45733667" lon="-8.44305">
        <ele>16.0</ele>
        <time>2019-05-17T12:57:22.180Z</time>
      </trkpt>
      <trkpt lat="39.45733667" lon="-8.44305">
        <ele>16.0</ele>
        <time>2019-05-17T12:57:23.154Z</time>
      </trkpt>
      <trkpt lat="39.45742333" lon="-8.44301333">
        <ele>15.0</ele>
        <time>2019-05-17T12:57:24.181Z</time>
      </trkpt>
      <trkpt lat="39.45742333" lon="-8.44301333">
        <ele>15.0</ele>
        <time>2019-05-17T12:57:25.188Z</time>
      </trkpt>
      <trkpt lat="39.45750833" lon="-8.44298833">
        <ele>15.0</ele>
        <time>2019-05-17T12:57:26.151Z</time>
      </trkpt>
      <trkpt lat="39.45750833" lon="-8.44298833">
        <ele>15.0</ele>
        <time>2019-05-17T12:57:27.172Z</time>
      </trkpt>
      <trkpt lat="39.45759667" lon="-8.44297333">
        <ele>15.0</ele>
        <time>2019-05-17T12:57:28.164Z</time>
      </trkpt>
      <trkpt lat="39.45759667" lon="-8.44297333">
        <ele>15.0</ele>
        <time>2019-05-17T12:57:29.152Z</time>
      </trkpt>
      <trkpt lat="39.45768167" lon="-8.442965">
        <ele>15.0</ele>
        <time>2019-05-17T12:57:30.195Z</time>
      </trkpt>
      <trkpt lat="39.45772333" lon="-8.442965">
        <ele>15.0</ele>
        <time>2019-05-17T12:57:31.160Z</time>
      </trkpt>
      <trkpt lat="39.457765" lon="-8.44296333">
        <ele>15.0</ele>
        <time>2019-05-17T12:57:32.167Z</time>
      </trkpt>
      <trkpt lat="39.457765" lon="-8.44296333">
        <ele>15.0</ele>
        <time>2019-05-17T12:57:33.161Z</time>
      </trkpt>
      <trkpt lat="39.45784333" lon="-8.442955">
        <ele>15.0</ele>
        <time>2019-05-17T12:57:34.189Z</time>
      </trkpt>
      <trkpt lat="39.45784333" lon="-8.442955">
        <ele>15.0</ele>
        <time>2019-05-17T12:57:35.154Z</time>
      </trkpt>
      <trkpt lat="39.45791667" lon="-8.44294833">
        <ele>15.0</ele>
        <time>2019-05-17T12:57:36.184Z</time>
      </trkpt>
      <trkpt lat="39.45791667" lon="-8.44294833">
        <ele>15.0</ele>
        <time>2019-05-17T12:57:37.150Z</time>
      </trkpt>
      <trkpt lat="39.45798667" lon="-8.44295167">
        <ele>16.0</ele>
        <time>2019-05-17T12:57:38.175Z</time>
      </trkpt>
      <trkpt lat="39.45798667" lon="-8.44295167">
        <ele>16.0</ele>
        <time>2019-05-17T12:57:39.156Z</time>
      </trkpt>
      <trkpt lat="39.458055" lon="-8.44295">
        <ele>16.0</ele>
        <time>2019-05-17T12:57:40.185Z</time>
      </trkpt>
      <trkpt lat="39.458085" lon="-8.44294667">
        <ele>17.0</ele>
        <time>2019-05-17T12:57:41.176Z</time>
      </trkpt>
      <trkpt lat="39.458085" lon="-8.44294667">
        <ele>17.0</ele>
        <time>2019-05-17T12:57:42.189Z</time>
      </trkpt>
      <trkpt lat="39.45814667" lon="-8.44294833">
        <ele>17.0</ele>
        <time>2019-05-17T12:57:43.185Z</time>
      </trkpt>
      <trkpt lat="39.45818" lon="-8.44295167">
        <ele>17.0</ele>
        <time>2019-05-17T12:57:44.155Z</time>
      </trkpt>
      <trkpt lat="39.45818" lon="-8.44295167">
        <ele>17.0</ele>
        <time>2019-05-17T12:57:45.183Z</time>
      </trkpt>
      <trkpt lat="39.45824333" lon="-8.44296167">
        <ele>18.0</ele>
        <time>2019-05-17T12:57:46.185Z</time>
      </trkpt>
      <trkpt lat="39.45824333" lon="-8.44296167">
        <ele>18.0</ele>
        <time>2019-05-17T12:57:47.178Z</time>
      </trkpt>
      <trkpt lat="39.45831167" lon="-8.44296167">
        <ele>18.0</ele>
        <time>2019-05-17T12:57:48.153Z</time>
      </trkpt>
      <trkpt lat="39.45831167" lon="-8.44296167">
        <ele>18.0</ele>
        <time>2019-05-17T12:57:49.176Z</time>
      </trkpt>
      <trkpt lat="39.45837833" lon="-8.44296">
        <ele>18.0</ele>
        <time>2019-05-17T12:57:50.175Z</time>
      </trkpt>
      <trkpt lat="39.45837833" lon="-8.44296">
        <ele>18.0</ele>
        <time>2019-05-17T12:57:51.180Z</time>
      </trkpt>
      <trkpt lat="39.45844833" lon="-8.44297">
        <ele>19.0</ele>
        <time>2019-05-17T12:57:52.165Z</time>
      </trkpt>
      <trkpt lat="39.45844833" lon="-8.44297">
        <ele>19.0</ele>
        <time>2019-05-17T12:57:53.170Z</time>
      </trkpt>
      <trkpt lat="39.45852" lon="-8.44297833">
        <ele>20.0</ele>
        <time>2019-05-17T12:57:54.151Z</time>
      </trkpt>
      <trkpt lat="39.45852" lon="-8.44297833">
        <ele>20.0</ele>
        <time>2019-05-17T12:57:55.182Z</time>
      </trkpt>
      <trkpt lat="39.45858667" lon="-8.44297833">
        <ele>20.0</ele>
        <time>2019-05-17T12:57:56.162Z</time>
      </trkpt>
      <trkpt lat="39.45858667" lon="-8.44297833">
        <ele>20.0</ele>
        <time>2019-05-17T12:57:57.184Z</time>
      </trkpt>
      <trkpt lat="39.458655" lon="-8.44297667">
        <ele>20.0</ele>
        <time>2019-05-17T12:57:58.182Z</time>
      </trkpt>
      <trkpt lat="39.458655" lon="-8.44297667">
        <ele>20.0</ele>
        <time>2019-05-17T12:57:59.153Z</time>
      </trkpt>
      <trkpt lat="39.45872" lon="-8.44298333">
        <ele>21.0</ele>
        <time>2019-05-17T12:58:00.181Z</time>
      </trkpt>
      <trkpt lat="39.45872" lon="-8.44298333">
        <ele>21.0</ele>
        <time>2019-05-17T12:58:01.189Z</time>
      </trkpt>
      <trkpt lat="39.45879" lon="-8.44298333">
        <ele>21.0</ele>
        <time>2019-05-17T12:58:02.188Z</time>
      </trkpt>
      <trkpt lat="39.45879" lon="-8.44298333">
        <ele>21.0</ele>
        <time>2019-05-17T12:58:03.153Z</time>
      </trkpt>
      <trkpt lat="39.458865" lon="-8.442995">
        <ele>21.0</ele>
        <time>2019-05-17T12:58:04.185Z</time>
      </trkpt>
      <trkpt lat="39.458865" lon="-8.442995">
        <ele>21.0</ele>
        <time>2019-05-17T12:58:05.152Z</time>
      </trkpt>
      <trkpt lat="39.458945" lon="-8.44299">
        <ele>21.0</ele>
        <time>2019-05-17T12:58:06.182Z</time>
      </trkpt>
      <trkpt lat="39.458945" lon="-8.44299">
        <ele>21.0</ele>
        <time>2019-05-17T12:58:07.188Z</time>
      </trkpt>
      <trkpt lat="39.45903833" lon="-8.44299167">
        <ele>21.0</ele>
        <time>2019-05-17T12:58:08.175Z</time>
      </trkpt>
      <trkpt lat="39.45903833" lon="-8.44299167">
        <ele>21.0</ele>
        <time>2019-05-17T12:58:09.189Z</time>
      </trkpt>
      <trkpt lat="39.45912333" lon="-8.44299833">
        <ele>22.0</ele>
        <time>2019-05-17T12:58:10.165Z</time>
      </trkpt>
      <trkpt lat="39.45916667" lon="-8.443">
        <ele>22.0</ele>
        <time>2019-05-17T12:58:11.188Z</time>
      </trkpt>
      <trkpt lat="39.45916667" lon="-8.443">
        <ele>22.0</ele>
        <time>2019-05-17T12:58:12.154Z</time>
      </trkpt>
      <trkpt lat="39.45925333" lon="-8.443005">
        <ele>22.0</ele>
        <time>2019-05-17T12:58:13.165Z</time>
      </trkpt>
      <trkpt lat="39.459295" lon="-8.44300833">
        <ele>22.0</ele>
        <time>2019-05-17T12:58:14.153Z</time>
      </trkpt>
      <trkpt lat="39.459295" lon="-8.44300833">
        <ele>22.0</ele>
        <time>2019-05-17T12:58:15.164Z</time>
      </trkpt>
      <trkpt lat="39.45938" lon="-8.44301333">
        <ele>22.0</ele>
        <time>2019-05-17T12:58:16.155Z</time>
      </trkpt>
      <trkpt lat="39.45938" lon="-8.44301333">
        <ele>22.0</ele>
        <time>2019-05-17T12:58:17.164Z</time>
      </trkpt>
      <trkpt lat="39.459465" lon="-8.44302">
        <ele>22.0</ele>
        <time>2019-05-17T12:58:18.161Z</time>
      </trkpt>
      <trkpt lat="39.459465" lon="-8.44302">
        <ele>22.0</ele>
        <time>2019-05-17T12:58:19.177Z</time>
      </trkpt>
      <trkpt lat="39.45955" lon="-8.44303333">
        <ele>23.0</ele>
        <time>2019-05-17T12:58:20.155Z</time>
      </trkpt>
      <trkpt lat="39.45955" lon="-8.44303333">
        <ele>23.0</ele>
        <time>2019-05-17T12:58:21.187Z</time>
      </trkpt>
      <trkpt lat="39.45964" lon="-8.44303333">
        <ele>23.0</ele>
        <time>2019-05-17T12:58:22.178Z</time>
      </trkpt>
      <trkpt lat="39.45968667" lon="-8.44303833">
        <ele>23.0</ele>
        <time>2019-05-17T12:58:23.162Z</time>
      </trkpt>
      <trkpt lat="39.45968667" lon="-8.44303833">
        <ele>23.0</ele>
        <time>2019-05-17T12:58:24.186Z</time>
      </trkpt>
      <trkpt lat="39.45975833" lon="-8.44304833">
        <ele>25.0</ele>
        <time>2019-05-17T12:58:25.188Z</time>
      </trkpt>
      <trkpt lat="39.45978167" lon="-8.44305">
        <ele>25.0</ele>
        <time>2019-05-17T12:58:26.155Z</time>
      </trkpt>
      <trkpt lat="39.45978167" lon="-8.44305">
        <ele>25.0</ele>
        <time>2019-05-17T12:58:27.161Z</time>
      </trkpt>
      <trkpt lat="39.45980167" lon="-8.44305667">
        <ele>25.0</ele>
        <time>2019-05-17T12:58:28.165Z</time>
      </trkpt>
      <trkpt lat="39.45980167" lon="-8.44305667">
        <ele>25.0</ele>
        <time>2019-05-17T12:58:29.170Z</time>
      </trkpt>
      <trkpt lat="39.45980333" lon="-8.443055">
        <ele>26.0</ele>
        <time>2019-05-17T12:58:30.163Z</time>
      </trkpt>
      <trkpt lat="39.45980333" lon="-8.443055">
        <ele>26.0</ele>
        <time>2019-05-17T12:58:31.163Z</time>
      </trkpt>
      <trkpt lat="39.45980333" lon="-8.443055">
        <ele>26.0</ele>
        <time>2019-05-17T12:58:32.168Z</time>
      </trkpt>
      <trkpt lat="39.45980333" lon="-8.443055">
        <ele>26.0</ele>
        <time>2019-05-17T12:58:33.174Z</time>
      </trkpt>
      <trkpt lat="39.45980333" lon="-8.443055">
        <ele>26.0</ele>
        <time>2019-05-17T12:58:34.180Z</time>
      </trkpt>
      <trkpt lat="39.45980333" lon="-8.443055">
        <ele>26.0</ele>
        <time>2019-05-17T12:58:35.165Z</time>
      </trkpt>
      <trkpt lat="39.45980333" lon="-8.443055">
        <ele>26.0</ele>
        <time>2019-05-17T12:58:36.160Z</time>
      </trkpt>
      <trkpt lat="39.45980333" lon="-8.443055">
        <ele>26.0</ele>
        <time>2019-05-17T12:58:37.154Z</time>
      </trkpt>
      <trkpt lat="39.45980333" lon="-8.443055">
        <ele>26.0</ele>
        <time>2019-05-17T12:58:38.182Z</time>
      </trkpt>
      <trkpt lat="39.45980333" lon="-8.443055">
        <ele>26.0</ele>
        <time>2019-05-17T12:58:39.168Z</time>
      </trkpt>
      <trkpt lat="39.45980333" lon="-8.443055">
        <ele>26.0</ele>
        <time>2019-05-17T12:58:40.158Z</time>
      </trkpt>
      <trkpt lat="39.45980333" lon="-8.443055">
        <ele>26.0</ele>
        <time>2019-05-17T12:58:41.154Z</time>
      </trkpt>
      <trkpt lat="39.45980333" lon="-8.443055">
        <ele>26.0</ele>
        <time>2019-05-17T12:58:42.160Z</time>
      </trkpt>
      <trkpt lat="39.45980333" lon="-8.443055">
        <ele>26.0</ele>
        <time>2019-05-17T12:58:43.154Z</time>
      </trkpt>
      <trkpt lat="39.45980333" lon="-8.443055">
        <ele>26.0</ele>
        <time>2019-05-17T12:58:44.182Z</time>
      </trkpt>
      <trkpt lat="39.45980333" lon="-8.443055">
        <ele>26.0</ele>
        <time>2019-05-17T12:58:45.168Z</time>
      </trkpt>
      <trkpt lat="39.45980333" lon="-8.443055">
        <ele>26.0</ele>
        <time>2019-05-17T12:58:46.165Z</time>
      </trkpt>
      <trkpt lat="39.45980333" lon="-8.443055">
        <ele>26.0</ele>
        <time>2019-05-17T12:58:47.154Z</time>
      </trkpt>
      <trkpt lat="39.45980333" lon="-8.443055">
        <ele>26.0</ele>
        <time>2019-05-17T12:58:48.160Z</time>
      </trkpt>
      <trkpt lat="39.45980333" lon="-8.443055">
        <ele>26.0</ele>
        <time>2019-05-17T12:58:49.161Z</time>
      </trkpt>
      <trkpt lat="39.45980333" lon="-8.443055">
        <ele>26.0</ele>
        <time>2019-05-17T12:58:50.164Z</time>
      </trkpt>
      <trkpt lat="39.45980333" lon="-8.443055">
        <ele>26.0</ele>
        <time>2019-05-17T12:58:51.163Z</time>
      </trkpt>
      <trkpt lat="39.45980333" lon="-8.443055">
        <ele>26.0</ele>
        <time>2019-05-17T12:58:52.154Z</time>
      </trkpt>
      <trkpt lat="39.45980333" lon="-8.443055">
        <ele>26.0</ele>
        <time>2019-05-17T12:58:53.159Z</time>
      </trkpt>
      <trkpt lat="39.45980333" lon="-8.443055">
        <ele>26.0</ele>
        <time>2019-05-17T12:58:54.161Z</time>
      </trkpt>
      <trkpt lat="39.45980333" lon="-8.443055">
        <ele>26.0</ele>
        <time>2019-05-17T12:58:55.160Z</time>
      </trkpt>
      <trkpt lat="39.45980333" lon="-8.443055">
        <ele>26.0</ele>
        <time>2019-05-17T12:58:56.161Z</time>
      </trkpt>
      <trkpt lat="39.45980333" lon="-8.443055">
        <ele>26.0</ele>
        <time>2019-05-17T12:58:57.154Z</time>
      </trkpt>
      <trkpt lat="39.45980333" lon="-8.443055">
        <ele>26.0</ele>
        <time>2019-05-17T12:58:58.158Z</time>
      </trkpt>
      <trkpt lat="39.45980333" lon="-8.443055">
        <ele>26.0</ele>
        <time>2019-05-17T12:58:59.154Z</time>
      </trkpt>
      <trkpt lat="39.45980333" lon="-8.443055">
        <ele>26.0</ele>
        <time>2019-05-17T12:59:00.160Z</time>
      </trkpt>
      <trkpt lat="39.45980333" lon="-8.443055">
        <ele>26.0</ele>
        <time>2019-05-17T12:59:01.152Z</time>
      </trkpt>
      <trkpt lat="39.45980333" lon="-8.443055">
        <ele>26.0</ele>
        <time>2019-05-17T12:59:02.176Z</time>
      </trkpt>
      <trkpt lat="39.45980333" lon="-8.443055">
        <ele>26.0</ele>
        <time>2019-05-17T12:59:03.161Z</time>
      </trkpt>
      <trkpt lat="39.45980333" lon="-8.443055">
        <ele>26.0</ele>
        <time>2019-05-17T12:59:04.156Z</time>
      </trkpt>
      <trkpt lat="39.45980333" lon="-8.443055">
        <ele>26.0</ele>
        <time>2019-05-17T12:59:05.155Z</time>
      </trkpt>
      <trkpt lat="39.45980333" lon="-8.443055">
        <ele>26.0</ele>
        <time>2019-05-17T12:59:06.158Z</time>
      </trkpt>
      <trkpt lat="39.45980333" lon="-8.443055">
        <ele>26.0</ele>
        <time>2019-05-17T12:59:07.154Z</time>
      </trkpt>
      <trkpt lat="39.45980333" lon="-8.443055">
        <ele>26.0</ele>
        <time>2019-05-17T12:59:08.161Z</time>
      </trkpt>
      <trkpt lat="39.45980333" lon="-8.443055">
        <ele>26.0</ele>
        <time>2019-05-17T12:59:09.167Z</time>
      </trkpt>
      <trkpt lat="39.45980333" lon="-8.443055">
        <ele>26.0</ele>
        <time>2019-05-17T12:59:10.152Z</time>
      </trkpt>
      <trkpt lat="39.45980333" lon="-8.443055">
        <ele>26.0</ele>
        <time>2019-05-17T12:59:11.158Z</time>
      </trkpt>
      <trkpt lat="39.45980333" lon="-8.443055">
        <ele>26.0</ele>
        <time>2019-05-17T12:59:12.163Z</time>
      </trkpt>
      <trkpt lat="39.45980333" lon="-8.443055">
        <ele>26.0</ele>
        <time>2019-05-17T12:59:13.160Z</time>
      </trkpt>
      <trkpt lat="39.45980333" lon="-8.443055">
        <ele>26.0</ele>
        <time>2019-05-17T12:59:14.161Z</time>
      </trkpt>
      <trkpt lat="39.45980333" lon="-8.443055">
        <ele>26.0</ele>
        <time>2019-05-17T12:59:15.154Z</time>
      </trkpt>
      <trkpt lat="39.45980333" lon="-8.443055">
        <ele>26.0</ele>
        <time>2019-05-17T12:59:16.159Z</time>
      </trkpt>
      <trkpt lat="39.45980333" lon="-8.443055">
        <ele>26.0</ele>
        <time>2019-05-17T12:59:17.155Z</time>
      </trkpt>
      <trkpt lat="39.45980333" lon="-8.443055">
        <ele>26.0</ele>
        <time>2019-05-17T12:59:18.160Z</time>
      </trkpt>
      <trkpt lat="39.45980333" lon="-8.443055">
        <ele>26.0</ele>
        <time>2019-05-17T12:59:19.154Z</time>
      </trkpt>
      <trkpt lat="39.45980333" lon="-8.443055">
        <ele>26.0</ele>
        <time>2019-05-17T12:59:20.162Z</time>
      </trkpt>
      <trkpt lat="39.45980333" lon="-8.443055">
        <ele>26.0</ele>
        <time>2019-05-17T12:59:21.150Z</time>
      </trkpt>
      <trkpt lat="39.45980333" lon="-8.443055">
        <ele>26.0</ele>
        <time>2019-05-17T12:59:22.160Z</time>
      </trkpt>
      <trkpt lat="39.45980333" lon="-8.443055">
        <ele>26.0</ele>
        <time>2019-05-17T12:59:23.158Z</time>
      </trkpt>
      <trkpt lat="39.45980333" lon="-8.443055">
        <ele>26.0</ele>
        <time>2019-05-17T12:59:24.161Z</time>
      </trkpt>
      <trkpt lat="39.45980333" lon="-8.443055">
        <ele>26.0</ele>
        <time>2019-05-17T12:59:25.154Z</time>
      </trkpt>
      <trkpt lat="39.45980333" lon="-8.443055">
        <ele>26.0</ele>
        <time>2019-05-17T12:59:26.162Z</time>
      </trkpt>
      <trkpt lat="39.45980333" lon="-8.443055">
        <ele>26.0</ele>
        <time>2019-05-17T12:59:27.154Z</time>
      </trkpt>
      <trkpt lat="39.45980333" lon="-8.443055">
        <ele>26.0</ele>
        <time>2019-05-17T12:59:28.180Z</time>
      </trkpt>
      <trkpt lat="39.45980333" lon="-8.443055">
        <ele>26.0</ele>
        <time>2019-05-17T12:59:29.181Z</time>
      </trkpt>
      <trkpt lat="39.45980333" lon="-8.443055">
        <ele>26.0</ele>
        <time>2019-05-17T12:59:30.167Z</time>
      </trkpt>
      <trkpt lat="39.45980333" lon="-8.443055">
        <ele>26.0</ele>
        <time>2019-05-17T12:59:31.177Z</time>
      </trkpt>
      <trkpt lat="39.45980333" lon="-8.443055">
        <ele>26.0</ele>
        <time>2019-05-17T12:59:32.163Z</time>
      </trkpt>
      <trkpt lat="39.45980333" lon="-8.443055">
        <ele>26.0</ele>
        <time>2019-05-17T12:59:33.152Z</time>
      </trkpt>
      <trkpt lat="39.45980333" lon="-8.443055">
        <ele>26.0</ele>
        <time>2019-05-17T12:59:34.160Z</time>
      </trkpt>
      <trkpt lat="39.45980333" lon="-8.443055">
        <ele>26.0</ele>
        <time>2019-05-17T12:59:35.154Z</time>
      </trkpt>
      <trkpt lat="39.45980333" lon="-8.443055">
        <ele>26.0</ele>
        <time>2019-05-17T12:59:36.160Z</time>
      </trkpt>
      <trkpt lat="39.45980333" lon="-8.443055">
        <ele>26.0</ele>
        <time>2019-05-17T12:59:37.154Z</time>
      </trkpt>
      <trkpt lat="39.45980333" lon="-8.443055">
        <ele>26.0</ele>
        <time>2019-05-17T12:59:38.182Z</time>
      </trkpt>
      <trkpt lat="39.45980333" lon="-8.443055">
        <ele>26.0</ele>
        <time>2019-05-17T12:59:39.167Z</time>
      </trkpt>
      <trkpt lat="39.45980333" lon="-8.443055">
        <ele>26.0</ele>
        <time>2019-05-17T12:59:40.160Z</time>
      </trkpt>
      <trkpt lat="39.45980333" lon="-8.443055">
        <ele>26.0</ele>
        <time>2019-05-17T12:59:41.162Z</time>
      </trkpt>
      <trkpt lat="39.45980333" lon="-8.443055">
        <ele>26.0</ele>
        <time>2019-05-17T12:59:42.154Z</time>
      </trkpt>
      <trkpt lat="39.45980333" lon="-8.443055">
        <ele>26.0</ele>
        <time>2019-05-17T12:59:43.160Z</time>
      </trkpt>
      <trkpt lat="39.45980333" lon="-8.443055">
        <ele>26.0</ele>
        <time>2019-05-17T12:59:44.159Z</time>
      </trkpt>
      <trkpt lat="39.45980333" lon="-8.443055">
        <ele>26.0</ele>
        <time>2019-05-17T12:59:45.160Z</time>
      </trkpt>
      <trkpt lat="39.45980333" lon="-8.443055">
        <ele>26.0</ele>
        <time>2019-05-17T12:59:46.156Z</time>
      </trkpt>
      <trkpt lat="39.45980333" lon="-8.443055">
        <ele>26.0</ele>
        <time>2019-05-17T12:59:47.160Z</time>
      </trkpt>
      <trkpt lat="39.45980333" lon="-8.443055">
        <ele>26.0</ele>
        <time>2019-05-17T12:59:48.157Z</time>
      </trkpt>
      <trkpt lat="39.45980333" lon="-8.443055">
        <ele>26.0</ele>
        <time>2019-05-17T12:59:49.161Z</time>
      </trkpt>
      <trkpt lat="39.45980333" lon="-8.443055">
        <ele>26.0</ele>
        <time>2019-05-17T12:59:50.163Z</time>
      </trkpt>
      <trkpt lat="39.45980333" lon="-8.443055">
        <ele>26.0</ele>
        <time>2019-05-17T12:59:51.160Z</time>
      </trkpt>
      <trkpt lat="39.45980333" lon="-8.443055">
        <ele>26.0</ele>
        <time>2019-05-17T12:59:52.154Z</time>
      </trkpt>
      <trkpt lat="39.45980333" lon="-8.443055">
        <ele>26.0</ele>
        <time>2019-05-17T12:59:53.160Z</time>
      </trkpt>
      <trkpt lat="39.45980333" lon="-8.443055">
        <ele>26.0</ele>
        <time>2019-05-17T12:59:54.155Z</time>
      </trkpt>
      <trkpt lat="39.45980333" lon="-8.443055">
        <ele>26.0</ele>
        <time>2019-05-17T12:59:55.160Z</time>
      </trkpt>
      <trkpt lat="39.45980333" lon="-8.443055">
        <ele>26.0</ele>
        <time>2019-05-17T12:59:56.157Z</time>
      </trkpt>
      <trkpt lat="39.45980333" lon="-8.443055">
        <ele>26.0</ele>
        <time>2019-05-17T12:59:57.160Z</time>
      </trkpt>
      <trkpt lat="39.45980333" lon="-8.443055">
        <ele>26.0</ele>
        <time>2019-05-17T12:59:58.157Z</time>
      </trkpt>
      <trkpt lat="39.45980333" lon="-8.443055">
        <ele>26.0</ele>
        <time>2019-05-17T12:59:59.160Z</time>
      </trkpt>
      <trkpt lat="39.45980333" lon="-8.443055">
        <ele>26.0</ele>
        <time>2019-05-17T13:00:00.160Z</time>
      </trkpt>
      <trkpt lat="39.45980333" lon="-8.443055">
        <ele>26.0</ele>
        <time>2019-05-17T13:00:01.155Z</time>
      </trkpt>
      <trkpt lat="39.45980333" lon="-8.443055">
        <ele>26.0</ele>
        <time>2019-05-17T13:00:02.166Z</time>
      </trkpt>
      <trkpt lat="39.45980333" lon="-8.443055">
        <ele>26.0</ele>
        <time>2019-05-17T13:00:03.155Z</time>
      </trkpt>
      <trkpt lat="39.45980333" lon="-8.443055">
        <ele>26.0</ele>
        <time>2019-05-17T13:00:04.180Z</time>
      </trkpt>
      <trkpt lat="39.45980333" lon="-8.443055">
        <ele>26.0</ele>
        <time>2019-05-17T13:00:05.164Z</time>
      </trkpt>
      <trkpt lat="39.45980333" lon="-8.443055">
        <ele>26.0</ele>
        <time>2019-05-17T13:00:06.160Z</time>
      </trkpt>
      <trkpt lat="39.45980333" lon="-8.443055">
        <ele>26.0</ele>
        <time>2019-05-17T13:00:07.154Z</time>
      </trkpt>
      <trkpt lat="39.45980333" lon="-8.443055">
        <ele>26.0</ele>
        <time>2019-05-17T13:00:08.180Z</time>
      </trkpt>
      <trkpt lat="39.45980333" lon="-8.443055">
        <ele>26.0</ele>
        <time>2019-05-17T13:00:09.171Z</time>
      </trkpt>
      <trkpt lat="39.45980333" lon="-8.443055">
        <ele>26.0</ele>
        <time>2019-05-17T13:00:10.162Z</time>
      </trkpt>
      <trkpt lat="39.45980333" lon="-8.443055">
        <ele>26.0</ele>
        <time>2019-05-17T13:00:11.168Z</time>
      </trkpt>
      <trkpt lat="39.45980333" lon="-8.443055">
        <ele>26.0</ele>
        <time>2019-05-17T13:00:12.173Z</time>
      </trkpt>
      <trkpt lat="39.45980333" lon="-8.443055">
        <ele>26.0</ele>
        <time>2019-05-17T13:00:13.159Z</time>
      </trkpt>
      <trkpt lat="39.45980333" lon="-8.443055">
        <ele>26.0</ele>
        <time>2019-05-17T13:00:14.164Z</time>
      </trkpt>
      <trkpt lat="39.45980333" lon="-8.443055">
        <ele>26.0</ele>
        <time>2019-05-17T13:00:15.167Z</time>
      </trkpt>
      <trkpt lat="39.45980333" lon="-8.443055">
        <ele>26.0</ele>
        <time>2019-05-17T13:00:16.161Z</time>
      </trkpt>
      <trkpt lat="39.45980333" lon="-8.443055">
        <ele>26.0</ele>
        <time>2019-05-17T13:00:17.155Z</time>
      </trkpt>
      <trkpt lat="39.45980333" lon="-8.443055">
        <ele>26.0</ele>
        <time>2019-05-17T13:00:18.158Z</time>
      </trkpt>
      <trkpt lat="39.45980333" lon="-8.443055">
        <ele>26.0</ele>
        <time>2019-05-17T13:00:19.155Z</time>
      </trkpt>
      <trkpt lat="39.45980333" lon="-8.443055">
        <ele>26.0</ele>
        <time>2019-05-17T13:00:20.163Z</time>
      </trkpt>
      <trkpt lat="39.45980333" lon="-8.443055">
        <ele>26.0</ele>
        <time>2019-05-17T13:00:21.158Z</time>
      </trkpt>
      <trkpt lat="39.45980333" lon="-8.443055">
        <ele>26.0</ele>
        <time>2019-05-17T13:00:22.160Z</time>
      </trkpt>
      <trkpt lat="39.45980333" lon="-8.443055">
        <ele>26.0</ele>
        <time>2019-05-17T13:00:23.155Z</time>
      </trkpt>
      <trkpt lat="39.45980333" lon="-8.443055">
        <ele>26.0</ele>
        <time>2019-05-17T13:00:24.160Z</time>
      </trkpt>
      <trkpt lat="39.45980333" lon="-8.443055">
        <ele>26.0</ele>
        <time>2019-05-17T13:00:25.154Z</time>
      </trkpt>
      <trkpt lat="39.45980333" lon="-8.443055">
        <ele>26.0</ele>
        <time>2019-05-17T13:00:26.161Z</time>
      </trkpt>
      <trkpt lat="39.45980333" lon="-8.443055">
        <ele>26.0</ele>
        <time>2019-05-17T13:00:27.155Z</time>
      </trkpt>
      <trkpt lat="39.45980333" lon="-8.443055">
        <ele>26.0</ele>
        <time>2019-05-17T13:00:28.160Z</time>
      </trkpt>
      <trkpt lat="39.45980333" lon="-8.443055">
        <ele>26.0</ele>
        <time>2019-05-17T13:00:29.155Z</time>
      </trkpt>
      <trkpt lat="39.45980333" lon="-8.443055">
        <ele>26.0</ele>
        <time>2019-05-17T13:00:30.160Z</time>
      </trkpt>
      <trkpt lat="39.45980333" lon="-8.443055">
        <ele>26.0</ele>
        <time>2019-05-17T13:00:31.157Z</time>
      </trkpt>
      <trkpt lat="39.45980333" lon="-8.443055">
        <ele>26.0</ele>
        <time>2019-05-17T13:00:32.176Z</time>
      </trkpt>
      <trkpt lat="39.45980333" lon="-8.443055">
        <ele>26.0</ele>
        <time>2019-05-17T13:00:33.161Z</time>
      </trkpt>
      <trkpt lat="39.45980333" lon="-8.443055">
        <ele>26.0</ele>
        <time>2019-05-17T13:00:34.160Z</time>
      </trkpt>
      <trkpt lat="39.45980333" lon="-8.443055">
        <ele>26.0</ele>
        <time>2019-05-17T13:00:35.155Z</time>
      </trkpt>
      <trkpt lat="39.45980333" lon="-8.443055">
        <ele>26.0</ele>
        <time>2019-05-17T13:00:36.160Z</time>
      </trkpt>
      <trkpt lat="39.45980333" lon="-8.443055">
        <ele>26.0</ele>
        <time>2019-05-17T13:00:37.153Z</time>
      </trkpt>
      <trkpt lat="39.45980333" lon="-8.443055">
        <ele>26.0</ele>
        <time>2019-05-17T13:00:38.162Z</time>
      </trkpt>
      <trkpt lat="39.45980333" lon="-8.443055">
        <ele>26.0</ele>
        <time>2019-05-17T13:00:39.182Z</time>
      </trkpt>
      <trkpt lat="39.45980333" lon="-8.443055">
        <ele>26.0</ele>
        <time>2019-05-17T13:00:40.167Z</time>
      </trkpt>
      <trkpt lat="39.45980333" lon="-8.443055">
        <ele>26.0</ele>
        <time>2019-05-17T13:00:41.165Z</time>
      </trkpt>
      <trkpt lat="39.45980333" lon="-8.443055">
        <ele>26.0</ele>
        <time>2019-05-17T13:00:42.163Z</time>
      </trkpt>
      <trkpt lat="39.45980333" lon="-8.443055">
        <ele>26.0</ele>
        <time>2019-05-17T13:00:43.160Z</time>
      </trkpt>
      <trkpt lat="39.45980333" lon="-8.443055">
        <ele>26.0</ele>
        <time>2019-05-17T13:00:44.163Z</time>
      </trkpt>
      <trkpt lat="39.45980333" lon="-8.443055">
        <ele>26.0</ele>
        <time>2019-05-17T13:00:45.179Z</time>
      </trkpt>
      <trkpt lat="39.45980333" lon="-8.443055">
        <ele>26.0</ele>
        <time>2019-05-17T13:00:46.164Z</time>
      </trkpt>
      <trkpt lat="39.45980333" lon="-8.443055">
        <ele>26.0</ele>
        <time>2019-05-17T13:00:47.160Z</time>
      </trkpt>
      <trkpt lat="39.45980333" lon="-8.443055">
        <ele>26.0</ele>
        <time>2019-05-17T13:00:48.155Z</time>
      </trkpt>
      <trkpt lat="39.45980333" lon="-8.443055">
        <ele>26.0</ele>
        <time>2019-05-17T13:00:49.160Z</time>
      </trkpt>
      <trkpt lat="39.45980333" lon="-8.443055">
        <ele>26.0</ele>
        <time>2019-05-17T13:00:50.164Z</time>
      </trkpt>
      <trkpt lat="39.45980333" lon="-8.443055">
        <ele>26.0</ele>
        <time>2019-05-17T13:00:51.154Z</time>
      </trkpt>
      <trkpt lat="39.45980333" lon="-8.443055">
        <ele>26.0</ele>
        <time>2019-05-17T13:00:52.157Z</time>
      </trkpt>
      <trkpt lat="39.45980333" lon="-8.443055">
        <ele>26.0</ele>
        <time>2019-05-17T13:00:53.154Z</time>
      </trkpt>
      <trkpt lat="39.45980333" lon="-8.443055">
        <ele>26.0</ele>
        <time>2019-05-17T13:00:54.160Z</time>
      </trkpt>
      <trkpt lat="39.45980333" lon="-8.443055">
        <ele>26.0</ele>
        <time>2019-05-17T13:00:55.154Z</time>
      </trkpt>
      <trkpt lat="39.45988833" lon="-8.44303833">
        <ele>26.0</ele>
        <time>2019-05-17T13:00:56.161Z</time>
      </trkpt>
      <trkpt lat="39.45988833" lon="-8.44303833">
        <ele>26.0</ele>
        <time>2019-05-17T13:00:57.154Z</time>
      </trkpt>
      <trkpt lat="39.45992" lon="-8.44305">
        <ele>26.0</ele>
        <time>2019-05-17T13:00:58.159Z</time>
      </trkpt>
      <trkpt lat="39.45992" lon="-8.44305">
        <ele>26.0</ele>
        <time>2019-05-17T13:00:59.154Z</time>
      </trkpt>
      <trkpt lat="39.45994833" lon="-8.443075">
        <ele>26.0</ele>
        <time>2019-05-17T13:01:00.159Z</time>
      </trkpt>
      <trkpt lat="39.45994833" lon="-8.443075">
        <ele>26.0</ele>
        <time>2019-05-17T13:01:01.154Z</time>
      </trkpt>
      <trkpt lat="39.45998833" lon="-8.44309">
        <ele>26.0</ele>
        <time>2019-05-17T13:01:02.181Z</time>
      </trkpt>
      <trkpt lat="39.45998833" lon="-8.44309">
        <ele>26.0</ele>
        <time>2019-05-17T13:01:03.187Z</time>
      </trkpt>
      <trkpt lat="39.460025" lon="-8.44309667">
        <ele>26.0</ele>
        <time>2019-05-17T13:01:04.184Z</time>
      </trkpt>
      <trkpt lat="39.460025" lon="-8.44309667">
        <ele>26.0</ele>
        <time>2019-05-17T13:01:05.153Z</time>
      </trkpt>
      <trkpt lat="39.46006667" lon="-8.44310333">
        <ele>26.0</ele>
        <time>2019-05-17T13:01:06.189Z</time>
      </trkpt>
      <trkpt lat="39.46006667" lon="-8.44310333">
        <ele>26.0</ele>
        <time>2019-05-17T13:01:07.154Z</time>
      </trkpt>
      <trkpt lat="39.46010833" lon="-8.44311">
        <ele>26.0</ele>
        <time>2019-05-17T13:01:08.155Z</time>
      </trkpt>
      <trkpt lat="39.46010833" lon="-8.44311">
        <ele>26.0</ele>
        <time>2019-05-17T13:01:09.178Z</time>
      </trkpt>
      <trkpt lat="39.46015167" lon="-8.443115">
        <ele>26.0</ele>
        <time>2019-05-17T13:01:10.159Z</time>
      </trkpt>
      <trkpt lat="39.46017333" lon="-8.44312">
        <ele>26.0</ele>
        <time>2019-05-17T13:01:11.169Z</time>
      </trkpt>
      <trkpt lat="39.46017333" lon="-8.44312">
        <ele>26.0</ele>
        <time>2019-05-17T13:01:12.187Z</time>
      </trkpt>
      <trkpt lat="39.460215" lon="-8.44312167">
        <ele>26.0</ele>
        <time>2019-05-17T13:01:13.153Z</time>
      </trkpt>
      <trkpt lat="39.46023667" lon="-8.44312333">
        <ele>27.0</ele>
        <time>2019-05-17T13:01:14.174Z</time>
      </trkpt>
      <trkpt lat="39.46023667" lon="-8.44312333">
        <ele>27.0</ele>
        <time>2019-05-17T13:01:15.180Z</time>
      </trkpt>
      <trkpt lat="39.46028167" lon="-8.443135">
        <ele>26.0</ele>
        <time>2019-05-17T13:01:16.168Z</time>
      </trkpt>
      <trkpt lat="39.46028167" lon="-8.443135">
        <ele>26.0</ele>
        <time>2019-05-17T13:01:17.177Z</time>
      </trkpt>
      <trkpt lat="39.46032333" lon="-8.443135">
        <ele>27.0</ele>
        <time>2019-05-17T13:01:18.177Z</time>
      </trkpt>
      <trkpt lat="39.46034833" lon="-8.44313833">
        <ele>26.0</ele>
        <time>2019-05-17T13:01:19.187Z</time>
      </trkpt>
      <trkpt lat="39.46037" lon="-8.44313833">
        <ele>26.0</ele>
        <time>2019-05-17T13:01:20.182Z</time>
      </trkpt>
      <trkpt lat="39.46037" lon="-8.44313833">
        <ele>26.0</ele>
        <time>2019-05-17T13:01:21.156Z</time>
      </trkpt>
      <trkpt lat="39.46042" lon="-8.443145">
        <ele>27.0</ele>
        <time>2019-05-17T13:01:22.162Z</time>
      </trkpt>
      <trkpt lat="39.46044667" lon="-8.44314667">
        <ele>27.0</ele>
        <time>2019-05-17T13:01:23.169Z</time>
      </trkpt>
      <trkpt lat="39.46044667" lon="-8.44314667">
        <ele>27.0</ele>
        <time>2019-05-17T13:01:24.159Z</time>
      </trkpt>
      <trkpt lat="39.46049667" lon="-8.44314833">
        <ele>27.0</ele>
        <time>2019-05-17T13:01:25.165Z</time>
      </trkpt>
      <trkpt lat="39.46052167" lon="-8.44314833">
        <ele>27.0</ele>
        <time>2019-05-17T13:01:26.162Z</time>
      </trkpt>
      <trkpt lat="39.46052167" lon="-8.44314833">
        <ele>27.0</ele>
        <time>2019-05-17T13:01:27.167Z</time>
      </trkpt>
      <trkpt lat="39.46057333" lon="-8.443145">
        <ele>27.0</ele>
        <time>2019-05-17T13:01:28.165Z</time>
      </trkpt>
      <trkpt lat="39.46057333" lon="-8.443145">
        <ele>27.0</ele>
        <time>2019-05-17T13:01:29.171Z</time>
      </trkpt>
      <trkpt lat="39.46062333" lon="-8.443145">
        <ele>27.0</ele>
        <time>2019-05-17T13:01:30.151Z</time>
      </trkpt>
      <trkpt lat="39.46062333" lon="-8.443145">
        <ele>27.0</ele>
        <time>2019-05-17T13:01:31.157Z</time>
      </trkpt>
      <trkpt lat="39.46067" lon="-8.44314">
        <ele>27.0</ele>
        <time>2019-05-17T13:01:32.182Z</time>
      </trkpt>
      <trkpt lat="39.46067" lon="-8.44314">
        <ele>27.0</ele>
        <time>2019-05-17T13:01:33.189Z</time>
      </trkpt>
      <trkpt lat="39.46071833" lon="-8.443135">
        <ele>27.0</ele>
        <time>2019-05-17T13:01:34.185Z</time>
      </trkpt>
      <trkpt lat="39.46071833" lon="-8.443135">
        <ele>27.0</ele>
        <time>2019-05-17T13:01:35.154Z</time>
      </trkpt>
      <trkpt lat="39.460765" lon="-8.44313167">
        <ele>28.0</ele>
        <time>2019-05-17T13:01:36.153Z</time>
      </trkpt>
      <trkpt lat="39.460765" lon="-8.44313167">
        <ele>28.0</ele>
        <time>2019-05-17T13:01:37.170Z</time>
      </trkpt>
      <trkpt lat="39.46081333" lon="-8.44313167">
        <ele>28.0</ele>
        <time>2019-05-17T13:01:38.165Z</time>
      </trkpt>
      <trkpt lat="39.46081333" lon="-8.44313167">
        <ele>28.0</ele>
        <time>2019-05-17T13:01:39.171Z</time>
      </trkpt>
      <trkpt lat="39.46086" lon="-8.44312833">
        <ele>29.0</ele>
        <time>2019-05-17T13:01:40.164Z</time>
      </trkpt>
      <trkpt lat="39.46086" lon="-8.44312833">
        <ele>29.0</ele>
        <time>2019-05-17T13:01:41.152Z</time>
      </trkpt>
      <trkpt lat="39.46090167" lon="-8.443125">
        <ele>29.0</ele>
        <time>2019-05-17T13:01:42.156Z</time>
      </trkpt>
      <trkpt lat="39.46090167" lon="-8.443125">
        <ele>29.0</ele>
        <time>2019-05-17T13:01:43.154Z</time>
      </trkpt>
      <trkpt lat="39.46094167" lon="-8.44311833">
        <ele>29.0</ele>
        <time>2019-05-17T13:01:44.188Z</time>
      </trkpt>
      <trkpt lat="39.46094167" lon="-8.44311833">
        <ele>29.0</ele>
        <time>2019-05-17T13:01:45.152Z</time>
      </trkpt>
      <trkpt lat="39.46098667" lon="-8.44311333">
        <ele>30.0</ele>
        <time>2019-05-17T13:01:46.159Z</time>
      </trkpt>
      <trkpt lat="39.46098667" lon="-8.44311333">
        <ele>30.0</ele>
        <time>2019-05-17T13:01:47.150Z</time>
      </trkpt>
      <trkpt lat="39.46103167" lon="-8.44310667">
        <ele>30.0</ele>
        <time>2019-05-17T13:01:48.184Z</time>
      </trkpt>
      <trkpt lat="39.46103167" lon="-8.44310667">
        <ele>30.0</ele>
        <time>2019-05-17T13:01:49.190Z</time>
      </trkpt>
      <trkpt lat="39.461075" lon="-8.44309333">
        <ele>30.0</ele>
        <time>2019-05-17T13:01:50.180Z</time>
      </trkpt>
      <trkpt lat="39.461075" lon="-8.44309333">
        <ele>30.0</ele>
        <time>2019-05-17T13:01:51.152Z</time>
      </trkpt>
      <trkpt lat="39.46112" lon="-8.44308667">
        <ele>31.0</ele>
        <time>2019-05-17T13:01:52.185Z</time>
      </trkpt>
      <trkpt lat="39.46112" lon="-8.44308667">
        <ele>31.0</ele>
        <time>2019-05-17T13:01:53.150Z</time>
      </trkpt>
      <trkpt lat="39.461165" lon="-8.44308167">
        <ele>31.0</ele>
        <time>2019-05-17T13:01:54.155Z</time>
      </trkpt>
      <trkpt lat="39.461165" lon="-8.44308167">
        <ele>31.0</ele>
        <time>2019-05-17T13:01:55.175Z</time>
      </trkpt>
      <trkpt lat="39.46120333" lon="-8.44307667">
        <ele>32.0</ele>
        <time>2019-05-17T13:01:56.165Z</time>
      </trkpt>
      <trkpt lat="39.46120333" lon="-8.44307667">
        <ele>32.0</ele>
        <time>2019-05-17T13:01:57.184Z</time>
      </trkpt>
      <trkpt lat="39.46123167" lon="-8.44306833">
        <ele>34.0</ele>
        <time>2019-05-17T13:01:58.198Z</time>
      </trkpt>
      <trkpt lat="39.46123167" lon="-8.44306833">
        <ele>34.0</ele>
        <time>2019-05-17T13:01:59.165Z</time>
      </trkpt>
      <trkpt lat="39.46127333" lon="-8.44306333">
        <ele>35.0</ele>
        <time>2019-05-17T13:02:00.166Z</time>
      </trkpt>
      <trkpt lat="39.46127333" lon="-8.44306333">
        <ele>35.0</ele>
        <time>2019-05-17T13:02:01.171Z</time>
      </trkpt>
      <trkpt lat="39.461325" lon="-8.44305667">
        <ele>35.0</ele>
        <time>2019-05-17T13:02:02.160Z</time>
      </trkpt>
      <trkpt lat="39.461325" lon="-8.44305667">
        <ele>35.0</ele>
        <time>2019-05-17T13:02:03.172Z</time>
      </trkpt>
      <trkpt lat="39.46137333" lon="-8.44304833">
        <ele>35.0</ele>
        <time>2019-05-17T13:02:04.175Z</time>
      </trkpt>
      <trkpt lat="39.46137333" lon="-8.44304833">
        <ele>35.0</ele>
        <time>2019-05-17T13:02:05.180Z</time>
      </trkpt>
      <trkpt lat="39.461415" lon="-8.44303833">
        <ele>35.0</ele>
        <time>2019-05-17T13:02:06.186Z</time>
      </trkpt>
      <trkpt lat="39.461415" lon="-8.44303833">
        <ele>35.0</ele>
        <time>2019-05-17T13:02:07.160Z</time>
      </trkpt>
      <trkpt lat="39.46146333" lon="-8.44302667">
        <ele>35.0</ele>
        <time>2019-05-17T13:02:08.154Z</time>
      </trkpt>
      <trkpt lat="39.46146333" lon="-8.44302667">
        <ele>35.0</ele>
        <time>2019-05-17T13:02:09.151Z</time>
      </trkpt>
      <trkpt lat="39.46151333" lon="-8.443015">
        <ele>35.0</ele>
        <time>2019-05-17T13:02:10.186Z</time>
      </trkpt>
      <trkpt lat="39.46151333" lon="-8.443015">
        <ele>35.0</ele>
        <time>2019-05-17T13:02:11.152Z</time>
      </trkpt>
      <trkpt lat="39.46156167" lon="-8.44299667">
        <ele>34.0</ele>
        <time>2019-05-17T13:02:12.182Z</time>
      </trkpt>
      <trkpt lat="39.46156167" lon="-8.44299667">
        <ele>34.0</ele>
        <time>2019-05-17T13:02:13.158Z</time>
      </trkpt>
      <trkpt lat="39.461605" lon="-8.442985">
        <ele>34.0</ele>
        <time>2019-05-17T13:02:14.191Z</time>
      </trkpt>
      <trkpt lat="39.461605" lon="-8.442985">
        <ele>34.0</ele>
        <time>2019-05-17T13:02:15.156Z</time>
      </trkpt>
      <trkpt lat="39.46165167" lon="-8.44297667">
        <ele>34.0</ele>
        <time>2019-05-17T13:02:16.158Z</time>
      </trkpt>
      <trkpt lat="39.46165167" lon="-8.44297667">
        <ele>34.0</ele>
        <time>2019-05-17T13:02:17.178Z</time>
      </trkpt>
      <trkpt lat="39.46171167" lon="-8.44296667">
        <ele>35.0</ele>
        <time>2019-05-17T13:02:18.152Z</time>
      </trkpt>
      <trkpt lat="39.46171167" lon="-8.44296667">
        <ele>35.0</ele>
        <time>2019-05-17T13:02:19.157Z</time>
      </trkpt>
      <trkpt lat="39.46176" lon="-8.44294">
        <ele>34.0</ele>
        <time>2019-05-17T13:02:20.169Z</time>
      </trkpt>
      <trkpt lat="39.46176" lon="-8.44294">
        <ele>34.0</ele>
        <time>2019-05-17T13:02:21.173Z</time>
      </trkpt>
      <trkpt lat="39.461805" lon="-8.442915">
        <ele>34.0</ele>
        <time>2019-05-17T13:02:22.179Z</time>
      </trkpt>
      <trkpt lat="39.461805" lon="-8.442915">
        <ele>34.0</ele>
        <time>2019-05-17T13:02:23.162Z</time>
      </trkpt>
      <trkpt lat="39.46184667" lon="-8.4429">
        <ele>34.0</ele>
        <time>2019-05-17T13:02:24.165Z</time>
      </trkpt>
      <trkpt lat="39.46184667" lon="-8.4429">
        <ele>34.0</ele>
        <time>2019-05-17T13:02:25.170Z</time>
      </trkpt>
      <trkpt lat="39.461885" lon="-8.44287667">
        <ele>34.0</ele>
        <time>2019-05-17T13:02:26.175Z</time>
      </trkpt>
      <trkpt lat="39.461885" lon="-8.44287667">
        <ele>34.0</ele>
        <time>2019-05-17T13:02:27.152Z</time>
      </trkpt>
      <trkpt lat="39.46192167" lon="-8.44285167">
        <ele>34.0</ele>
        <time>2019-05-17T13:02:28.155Z</time>
      </trkpt>
      <trkpt lat="39.46192167" lon="-8.44285167">
        <ele>34.0</ele>
        <time>2019-05-17T13:02:29.169Z</time>
      </trkpt>
      <trkpt lat="39.46195833" lon="-8.44285167">
        <ele>34.0</ele>
        <time>2019-05-17T13:02:30.173Z</time>
      </trkpt>
      <trkpt lat="39.46195833" lon="-8.44285167">
        <ele>34.0</ele>
        <time>2019-05-17T13:02:31.159Z</time>
      </trkpt>
      <trkpt lat="39.46199333" lon="-8.44286167">
        <ele>34.0</ele>
        <time>2019-05-17T13:02:32.157Z</time>
      </trkpt>
      <trkpt lat="39.46199333" lon="-8.44286167">
        <ele>34.0</ele>
        <time>2019-05-17T13:02:33.162Z</time>
      </trkpt>
      <trkpt lat="39.46203" lon="-8.44287167">
        <ele>34.0</ele>
        <time>2019-05-17T13:02:34.151Z</time>
      </trkpt>
      <trkpt lat="39.46203" lon="-8.44287167">
        <ele>34.0</ele>
        <time>2019-05-17T13:02:35.167Z</time>
      </trkpt>
      <trkpt lat="39.46205833" lon="-8.442865">
        <ele>34.0</ele>
        <time>2019-05-17T13:02:36.157Z</time>
      </trkpt>
      <trkpt lat="39.46205833" lon="-8.442865">
        <ele>34.0</ele>
        <time>2019-05-17T13:02:37.169Z</time>
      </trkpt>
      <trkpt lat="39.46209333" lon="-8.44284833">
        <ele>34.0</ele>
        <time>2019-05-17T13:02:38.173Z</time>
      </trkpt>
      <trkpt lat="39.46209333" lon="-8.44284833">
        <ele>34.0</ele>
        <time>2019-05-17T13:02:39.161Z</time>
      </trkpt>
      <trkpt lat="39.46213" lon="-8.44283333">
        <ele>34.0</ele>
        <time>2019-05-17T13:02:40.187Z</time>
      </trkpt>
      <trkpt lat="39.46213" lon="-8.44283333">
        <ele>34.0</ele>
        <time>2019-05-17T13:02:41.163Z</time>
      </trkpt>
      <trkpt lat="39.46216667" lon="-8.44281333">
        <ele>34.0</ele>
        <time>2019-05-17T13:02:42.185Z</time>
      </trkpt>
      <trkpt lat="39.46216667" lon="-8.44281333">
        <ele>34.0</ele>
        <time>2019-05-17T13:02:43.150Z</time>
      </trkpt>
      <trkpt lat="39.462205" lon="-8.44279667">
        <ele>34.0</ele>
        <time>2019-05-17T13:02:44.185Z</time>
      </trkpt>
      <trkpt lat="39.462205" lon="-8.44279667">
        <ele>34.0</ele>
        <time>2019-05-17T13:02:45.150Z</time>
      </trkpt>
      <trkpt lat="39.46224667" lon="-8.44277667">
        <ele>34.0</ele>
        <time>2019-05-17T13:02:46.183Z</time>
      </trkpt>
      <trkpt lat="39.46224667" lon="-8.44277667">
        <ele>34.0</ele>
        <time>2019-05-17T13:02:47.166Z</time>
      </trkpt>
      <trkpt lat="39.46228167" lon="-8.442755">
        <ele>34.0</ele>
        <time>2019-05-17T13:02:48.155Z</time>
      </trkpt>
      <trkpt lat="39.46228167" lon="-8.442755">
        <ele>34.0</ele>
        <time>2019-05-17T13:02:49.188Z</time>
      </trkpt>
      <trkpt lat="39.46231833" lon="-8.44273">
        <ele>34.0</ele>
        <time>2019-05-17T13:02:50.152Z</time>
      </trkpt>
      <trkpt lat="39.46231833" lon="-8.44273">
        <ele>34.0</ele>
        <time>2019-05-17T13:02:51.157Z</time>
      </trkpt>
      <trkpt lat="39.46236333" lon="-8.44270667">
        <ele>34.0</ele>
        <time>2019-05-17T13:02:52.188Z</time>
      </trkpt>
      <trkpt lat="39.46236333" lon="-8.44270667">
        <ele>34.0</ele>
        <time>2019-05-17T13:02:53.172Z</time>
      </trkpt>
      <trkpt lat="39.46240333" lon="-8.442685">
        <ele>34.0</ele>
        <time>2019-05-17T13:02:54.165Z</time>
      </trkpt>
      <trkpt lat="39.46242167" lon="-8.44267333">
        <ele>34.0</ele>
        <time>2019-05-17T13:02:55.164Z</time>
      </trkpt>
      <trkpt lat="39.46243833" lon="-8.44265833">
        <ele>34.0</ele>
        <time>2019-05-17T13:02:56.167Z</time>
      </trkpt>
      <trkpt lat="39.46243833" lon="-8.44265833">
        <ele>34.0</ele>
        <time>2019-05-17T13:02:57.189Z</time>
      </trkpt>
      <trkpt lat="39.46247833" lon="-8.44263">
        <ele>34.0</ele>
        <time>2019-05-17T13:02:58.169Z</time>
      </trkpt>
      <trkpt lat="39.46247833" lon="-8.44263">
        <ele>34.0</ele>
        <time>2019-05-17T13:02:59.188Z</time>
      </trkpt>
      <trkpt lat="39.46252" lon="-8.44261">
        <ele>34.0</ele>
        <time>2019-05-17T13:03:00.184Z</time>
      </trkpt>
      <trkpt lat="39.46252" lon="-8.44261">
        <ele>34.0</ele>
        <time>2019-05-17T13:03:01.166Z</time>
      </trkpt>
      <trkpt lat="39.46256333" lon="-8.4426">
        <ele>34.0</ele>
        <time>2019-05-17T13:03:02.161Z</time>
      </trkpt>
      <trkpt lat="39.46256333" lon="-8.4426">
        <ele>34.0</ele>
        <time>2019-05-17T13:03:03.166Z</time>
      </trkpt>
      <trkpt lat="39.46260667" lon="-8.44258333">
        <ele>34.0</ele>
        <time>2019-05-17T13:03:04.153Z</time>
      </trkpt>
      <trkpt lat="39.46260667" lon="-8.44258333">
        <ele>34.0</ele>
        <time>2019-05-17T13:03:05.156Z</time>
      </trkpt>
      <trkpt lat="39.46264333" lon="-8.44256167">
        <ele>34.0</ele>
        <time>2019-05-17T13:03:06.153Z</time>
      </trkpt>
      <trkpt lat="39.46266333" lon="-8.44254833">
        <ele>34.0</ele>
        <time>2019-05-17T13:03:07.184Z</time>
      </trkpt>
      <trkpt lat="39.462685" lon="-8.44253667">
        <ele>34.0</ele>
        <time>2019-05-17T13:03:08.180Z</time>
      </trkpt>
      <trkpt lat="39.462685" lon="-8.44253667">
        <ele>34.0</ele>
        <time>2019-05-17T13:03:09.156Z</time>
      </trkpt>
      <trkpt lat="39.46273" lon="-8.44252">
        <ele>33.0</ele>
        <time>2019-05-17T13:03:10.181Z</time>
      </trkpt>
      <trkpt lat="39.46275333" lon="-8.44251">
        <ele>34.0</ele>
        <time>2019-05-17T13:03:11.176Z</time>
      </trkpt>
      <trkpt lat="39.46275333" lon="-8.44251">
        <ele>34.0</ele>
        <time>2019-05-17T13:03:12.187Z</time>
      </trkpt>
      <trkpt lat="39.46280333" lon="-8.44248833">
        <ele>33.0</ele>
        <time>2019-05-17T13:03:13.177Z</time>
      </trkpt>
      <trkpt lat="39.46282667" lon="-8.44247833">
        <ele>33.0</ele>
        <time>2019-05-17T13:03:14.155Z</time>
      </trkpt>
      <trkpt lat="39.46282667" lon="-8.44247833">
        <ele>33.0</ele>
        <time>2019-05-17T13:03:15.189Z</time>
      </trkpt>
      <trkpt lat="39.46287167" lon="-8.44245167">
        <ele>33.0</ele>
        <time>2019-05-17T13:03:16.186Z</time>
      </trkpt>
      <trkpt lat="39.46287167" lon="-8.44245167">
        <ele>33.0</ele>
        <time>2019-05-17T13:03:17.171Z</time>
      </trkpt>
      <trkpt lat="39.46289833" lon="-8.44241833">
        <ele>33.0</ele>
        <time>2019-05-17T13:03:18.165Z</time>
      </trkpt>
      <trkpt lat="39.46290667" lon="-8.4424">
        <ele>33.0</ele>
        <time>2019-05-17T13:03:19.161Z</time>
      </trkpt>
      <trkpt lat="39.46291333" lon="-8.44238167">
        <ele>33.0</ele>
        <time>2019-05-17T13:03:20.183Z</time>
      </trkpt>
      <trkpt lat="39.46291333" lon="-8.44238167">
        <ele>33.0</ele>
        <time>2019-05-17T13:03:21.187Z</time>
      </trkpt>
      <trkpt lat="39.46292833" lon="-8.442345">
        <ele>32.0</ele>
        <time>2019-05-17T13:03:22.161Z</time>
      </trkpt>
      <trkpt lat="39.46292833" lon="-8.442345">
        <ele>32.0</ele>
        <time>2019-05-17T13:03:23.150Z</time>
      </trkpt>
      <trkpt lat="39.46294167" lon="-8.4423">
        <ele>32.0</ele>
        <time>2019-05-17T13:03:24.180Z</time>
      </trkpt>
      <trkpt lat="39.46295833" lon="-8.44227833">
        <ele>32.0</ele>
        <time>2019-05-17T13:03:25.157Z</time>
      </trkpt>
      <trkpt lat="39.46298167" lon="-8.44226667">
        <ele>33.0</ele>
        <time>2019-05-17T13:03:26.155Z</time>
      </trkpt>
      <trkpt lat="39.46298167" lon="-8.44226667">
        <ele>33.0</ele>
        <time>2019-05-17T13:03:27.151Z</time>
      </trkpt>
      <trkpt lat="39.46303" lon="-8.44227167">
        <ele>33.0</ele>
        <time>2019-05-17T13:03:28.182Z</time>
      </trkpt>
      <trkpt lat="39.46303" lon="-8.44227167">
        <ele>33.0</ele>
        <time>2019-05-17T13:03:29.189Z</time>
      </trkpt>
      <trkpt lat="39.46307833" lon="-8.442265">
        <ele>33.0</ele>
        <time>2019-05-17T13:03:30.176Z</time>
      </trkpt>
      <trkpt lat="39.4631" lon="-8.44226">
        <ele>33.0</ele>
        <time>2019-05-17T13:03:31.185Z</time>
      </trkpt>
      <trkpt lat="39.46312333" lon="-8.44225333">
        <ele>33.0</ele>
        <time>2019-05-17T13:03:32.165Z</time>
      </trkpt>
      <trkpt lat="39.46312333" lon="-8.44225333">
        <ele>33.0</ele>
        <time>2019-05-17T13:03:33.177Z</time>
      </trkpt>
      <trkpt lat="39.46317167" lon="-8.442235">
        <ele>34.0</ele>
        <time>2019-05-17T13:03:34.164Z</time>
      </trkpt>
      <trkpt lat="39.46317167" lon="-8.442235">
        <ele>34.0</ele>
        <time>2019-05-17T13:03:35.180Z</time>
      </trkpt>
      <trkpt lat="39.46322" lon="-8.44221333">
        <ele>34.0</ele>
        <time>2019-05-17T13:03:36.155Z</time>
      </trkpt>
      <trkpt lat="39.46324" lon="-8.44220333">
        <ele>34.0</ele>
        <time>2019-05-17T13:03:37.173Z</time>
      </trkpt>
      <trkpt lat="39.46325667" lon="-8.44219167">
        <ele>34.0</ele>
        <time>2019-05-17T13:03:38.162Z</time>
      </trkpt>
      <trkpt lat="39.46325667" lon="-8.44219167">
        <ele>34.0</ele>
        <time>2019-05-17T13:03:39.167Z</time>
      </trkpt>
      <trkpt lat="39.46329167" lon="-8.44216833">
        <ele>34.0</ele>
        <time>2019-05-17T13:03:40.165Z</time>
      </trkpt>
      <trkpt lat="39.46329167" lon="-8.44216833">
        <ele>34.0</ele>
        <time>2019-05-17T13:03:41.169Z</time>
      </trkpt>
      <trkpt lat="39.46332667" lon="-8.442145">
        <ele>35.0</ele>
        <time>2019-05-17T13:03:42.178Z</time>
      </trkpt>
      <trkpt lat="39.46332667" lon="-8.442145">
        <ele>35.0</ele>
        <time>2019-05-17T13:03:43.165Z</time>
      </trkpt>
      <trkpt lat="39.46336167" lon="-8.44212">
        <ele>35.0</ele>
        <time>2019-05-17T13:03:44.163Z</time>
      </trkpt>
      <trkpt lat="39.46336167" lon="-8.44212">
        <ele>35.0</ele>
        <time>2019-05-17T13:03:45.188Z</time>
      </trkpt>
      <trkpt lat="39.46340167" lon="-8.44209333">
        <ele>35.0</ele>
        <time>2019-05-17T13:03:46.150Z</time>
      </trkpt>
      <trkpt lat="39.46340167" lon="-8.44209333">
        <ele>35.0</ele>
        <time>2019-05-17T13:03:47.185Z</time>
      </trkpt>
      <trkpt lat="39.46344167" lon="-8.442065">
        <ele>35.0</ele>
        <time>2019-05-17T13:03:48.175Z</time>
      </trkpt>
      <trkpt lat="39.46344167" lon="-8.442065">
        <ele>35.0</ele>
        <time>2019-05-17T13:03:49.157Z</time>
      </trkpt>
      <trkpt lat="39.46347833" lon="-8.44203667">
        <ele>35.0</ele>
        <time>2019-05-17T13:03:50.154Z</time>
      </trkpt>
      <trkpt lat="39.46347833" lon="-8.44203667">
        <ele>35.0</ele>
        <time>2019-05-17T13:03:51.175Z</time>
      </trkpt>
      <trkpt lat="39.46351" lon="-8.442025">
        <ele>35.0</ele>
        <time>2019-05-17T13:03:52.173Z</time>
      </trkpt>
      <trkpt lat="39.46351" lon="-8.442025">
        <ele>35.0</ele>
        <time>2019-05-17T13:03:53.180Z</time>
      </trkpt>
      <trkpt lat="39.46352333" lon="-8.44203167">
        <ele>35.0</ele>
        <time>2019-05-17T13:03:54.190Z</time>
      </trkpt>
      <trkpt lat="39.46352333" lon="-8.44203167">
        <ele>35.0</ele>
        <time>2019-05-17T13:03:55.162Z</time>
      </trkpt>
      <trkpt lat="39.463525" lon="-8.44204">
        <ele>35.0</ele>
        <time>2019-05-17T13:03:56.177Z</time>
      </trkpt>
      <trkpt lat="39.463525" lon="-8.44204">
        <ele>35.0</ele>
        <time>2019-05-17T13:03:57.171Z</time>
      </trkpt>
      <trkpt lat="39.463525" lon="-8.44204">
        <ele>35.0</ele>
        <time>2019-05-17T13:03:58.177Z</time>
      </trkpt>
      <trkpt lat="39.463525" lon="-8.44204">
        <ele>35.0</ele>
        <time>2019-05-17T13:03:59.188Z</time>
      </trkpt>
      <trkpt lat="39.463525" lon="-8.44204">
        <ele>35.0</ele>
        <time>2019-05-17T13:04:00.154Z</time>
      </trkpt>
      <trkpt lat="39.46354167" lon="-8.44204833">
        <ele>35.0</ele>
        <time>2019-05-17T13:04:01.151Z</time>
      </trkpt>
      <trkpt lat="39.46354167" lon="-8.44204833">
        <ele>35.0</ele>
        <time>2019-05-17T13:04:02.178Z</time>
      </trkpt>
      <trkpt lat="39.46355333" lon="-8.442045">
        <ele>35.0</ele>
        <time>2019-05-17T13:04:03.164Z</time>
      </trkpt>
      <trkpt lat="39.46355333" lon="-8.442045">
        <ele>35.0</ele>
        <time>2019-05-17T13:04:04.161Z</time>
      </trkpt>
      <trkpt lat="39.46357167" lon="-8.44203333">
        <ele>35.0</ele>
        <time>2019-05-17T13:04:05.160Z</time>
      </trkpt>
      <trkpt lat="39.46357167" lon="-8.44203333">
        <ele>35.0</ele>
        <time>2019-05-17T13:04:06.156Z</time>
      </trkpt>
      <trkpt lat="39.46359" lon="-8.44204167">
        <ele>35.0</ele>
        <time>2019-05-17T13:04:07.160Z</time>
      </trkpt>
      <trkpt lat="39.46359333" lon="-8.44205167">
        <ele>35.0</ele>
        <time>2019-05-17T13:04:08.168Z</time>
      </trkpt>
      <trkpt lat="39.46359333" lon="-8.44205167">
        <ele>35.0</ele>
        <time>2019-05-17T13:04:09.177Z</time>
      </trkpt>
      <trkpt lat="39.46359833" lon="-8.44206833">
        <ele>35.0</ele>
        <time>2019-05-17T13:04:10.165Z</time>
      </trkpt>
      <trkpt lat="39.46359833" lon="-8.44206833">
        <ele>35.0</ele>
        <time>2019-05-17T13:04:11.171Z</time>
      </trkpt>
      <trkpt lat="39.46361" lon="-8.442075">
        <ele>34.0</ele>
        <time>2019-05-17T13:04:12.175Z</time>
      </trkpt>
      <trkpt lat="39.46361" lon="-8.442075">
        <ele>34.0</ele>
        <time>2019-05-17T13:04:13.187Z</time>
      </trkpt>
      <trkpt lat="39.46362" lon="-8.44207167">
        <ele>34.0</ele>
        <time>2019-05-17T13:04:14.190Z</time>
      </trkpt>
      <trkpt lat="39.46362" lon="-8.44207167">
        <ele>34.0</ele>
        <time>2019-05-17T13:04:15.164Z</time>
      </trkpt>
      <trkpt lat="39.46363" lon="-8.442065">
        <ele>34.0</ele>
        <time>2019-05-17T13:04:16.172Z</time>
      </trkpt>
      <trkpt lat="39.46363" lon="-8.442065">
        <ele>34.0</ele>
        <time>2019-05-17T13:04:17.177Z</time>
      </trkpt>
      <trkpt lat="39.46364667" lon="-8.442055">
        <ele>34.0</ele>
        <time>2019-05-17T13:04:18.193Z</time>
      </trkpt>
      <trkpt lat="39.463655" lon="-8.44205333">
        <ele>34.0</ele>
        <time>2019-05-17T13:04:19.156Z</time>
      </trkpt>
      <trkpt lat="39.46366333" lon="-8.44205333">
        <ele>34.0</ele>
        <time>2019-05-17T13:04:20.155Z</time>
      </trkpt>
      <trkpt lat="39.46366333" lon="-8.44205333">
        <ele>34.0</ele>
        <time>2019-05-17T13:04:21.160Z</time>
      </trkpt>
      <trkpt lat="39.46367667" lon="-8.44207167">
        <ele>34.0</ele>
        <time>2019-05-17T13:04:22.157Z</time>
      </trkpt>
      <trkpt lat="39.46367667" lon="-8.44207167">
        <ele>34.0</ele>
        <time>2019-05-17T13:04:23.162Z</time>
      </trkpt>
      <trkpt lat="39.46367833" lon="-8.44209167">
        <ele>34.0</ele>
        <time>2019-05-17T13:04:24.189Z</time>
      </trkpt>
      <trkpt lat="39.46367833" lon="-8.44209167">
        <ele>34.0</ele>
        <time>2019-05-17T13:04:25.154Z</time>
      </trkpt>
      <trkpt lat="39.463675" lon="-8.44209167">
        <ele>34.0</ele>
        <time>2019-05-17T13:04:26.185Z</time>
      </trkpt>
      <trkpt lat="39.463675" lon="-8.44209167">
        <ele>34.0</ele>
        <time>2019-05-17T13:04:27.162Z</time>
      </trkpt>
      <trkpt lat="39.46367667" lon="-8.44209167">
        <ele>34.0</ele>
        <time>2019-05-17T13:04:28.169Z</time>
      </trkpt>
      <trkpt lat="39.46367667" lon="-8.44209167">
        <ele>34.0</ele>
        <time>2019-05-17T13:04:29.174Z</time>
      </trkpt>
      <trkpt lat="39.46367667" lon="-8.44209167">
        <ele>34.0</ele>
        <time>2019-05-17T13:04:30.166Z</time>
      </trkpt>
      <trkpt lat="39.46367667" lon="-8.44209167">
        <ele>34.0</ele>
        <time>2019-05-17T13:04:31.156Z</time>
      </trkpt>
      <trkpt lat="39.46367667" lon="-8.44209167">
        <ele>34.0</ele>
        <time>2019-05-17T13:04:32.162Z</time>
      </trkpt>
      <trkpt lat="39.46367667" lon="-8.44209167">
        <ele>34.0</ele>
        <time>2019-05-17T13:04:33.155Z</time>
      </trkpt>
      <trkpt lat="39.4637" lon="-8.44211333">
        <ele>33.0</ele>
        <time>2019-05-17T13:04:34.160Z</time>
      </trkpt>
      <trkpt lat="39.4637" lon="-8.44211333">
        <ele>33.0</ele>
        <time>2019-05-17T13:04:35.156Z</time>
      </trkpt>
      <trkpt lat="39.46372667" lon="-8.44214167">
        <ele>33.0</ele>
        <time>2019-05-17T13:04:36.160Z</time>
      </trkpt>
      <trkpt lat="39.46372667" lon="-8.44214167">
        <ele>33.0</ele>
        <time>2019-05-17T13:04:37.155Z</time>
      </trkpt>
      <trkpt lat="39.46376167" lon="-8.442165">
        <ele>33.0</ele>
        <time>2019-05-17T13:04:38.155Z</time>
      </trkpt>
      <trkpt lat="39.46376167" lon="-8.442165">
        <ele>33.0</ele>
        <time>2019-05-17T13:04:39.178Z</time>
      </trkpt>
      <trkpt lat="39.46380167" lon="-8.44219833">
        <ele>33.0</ele>
        <time>2019-05-17T13:04:40.175Z</time>
      </trkpt>
      <trkpt lat="39.46380167" lon="-8.44219833">
        <ele>33.0</ele>
        <time>2019-05-17T13:04:41.151Z</time>
      </trkpt>
      <trkpt lat="39.46384167" lon="-8.44224">
        <ele>33.0</ele>
        <time>2019-05-17T13:04:42.151Z</time>
      </trkpt>
      <trkpt lat="39.46386167" lon="-8.44225833">
        <ele>33.0</ele>
        <time>2019-05-17T13:04:43.184Z</time>
      </trkpt>
      <trkpt lat="39.46388333" lon="-8.44227833">
        <ele>33.0</ele>
        <time>2019-05-17T13:04:44.175Z</time>
      </trkpt>
      <trkpt lat="39.46388333" lon="-8.44227833">
        <ele>33.0</ele>
        <time>2019-05-17T13:04:45.187Z</time>
      </trkpt>
      <trkpt lat="39.46393" lon="-8.442315">
        <ele>33.0</ele>
        <time>2019-05-17T13:04:46.187Z</time>
      </trkpt>
      <trkpt lat="39.46393" lon="-8.442315">
        <ele>33.0</ele>
        <time>2019-05-17T13:04:47.163Z</time>
      </trkpt>
      <trkpt lat="39.46398" lon="-8.44235333">
        <ele>32.0</ele>
        <time>2019-05-17T13:04:48.165Z</time>
      </trkpt>
      <trkpt lat="39.46398" lon="-8.44235333">
        <ele>32.0</ele>
        <time>2019-05-17T13:04:49.170Z</time>
      </trkpt>
      <trkpt lat="39.46403333" lon="-8.44239">
        <ele>32.0</ele>
        <time>2019-05-17T13:04:50.161Z</time>
      </trkpt>
      <trkpt lat="39.46403333" lon="-8.44239">
        <ele>32.0</ele>
        <time>2019-05-17T13:04:51.154Z</time>
      </trkpt>
      <trkpt lat="39.46408833" lon="-8.44242333">
        <ele>32.0</ele>
        <time>2019-05-17T13:04:52.186Z</time>
      </trkpt>
      <trkpt lat="39.46408833" lon="-8.44242333">
        <ele>32.0</ele>
        <time>2019-05-17T13:04:53.171Z</time>
      </trkpt>
      <trkpt lat="39.46414" lon="-8.44245667">
        <ele>32.0</ele>
        <time>2019-05-17T13:04:54.175Z</time>
      </trkpt>
      <trkpt lat="39.46414" lon="-8.44245667">
        <ele>32.0</ele>
        <time>2019-05-17T13:04:55.187Z</time>
      </trkpt>
      <trkpt lat="39.46419" lon="-8.44248167">
        <ele>32.0</ele>
        <time>2019-05-17T13:04:56.158Z</time>
      </trkpt>
      <trkpt lat="39.46419" lon="-8.44248167">
        <ele>32.0</ele>
        <time>2019-05-17T13:04:57.179Z</time>
      </trkpt>
      <trkpt lat="39.46424" lon="-8.44251667">
        <ele>31.0</ele>
        <time>2019-05-17T13:04:58.165Z</time>
      </trkpt>
      <trkpt lat="39.46424" lon="-8.44251667">
        <ele>31.0</ele>
        <time>2019-05-17T13:04:59.163Z</time>
      </trkpt>
      <trkpt lat="39.46429" lon="-8.44255">
        <ele>31.0</ele>
        <time>2019-05-17T13:05:00.164Z</time>
      </trkpt>
      <trkpt lat="39.46431667" lon="-8.442565">
        <ele>31.0</ele>
        <time>2019-05-17T13:05:01.190Z</time>
      </trkpt>
      <trkpt lat="39.464345" lon="-8.44257833">
        <ele>31.0</ele>
        <time>2019-05-17T13:05:02.183Z</time>
      </trkpt>
      <trkpt lat="39.464345" lon="-8.44257833">
        <ele>31.0</ele>
        <time>2019-05-17T13:05:03.160Z</time>
      </trkpt>
      <trkpt lat="39.4644" lon="-8.44261">
        <ele>31.0</ele>
        <time>2019-05-17T13:05:04.156Z</time>
      </trkpt>
      <trkpt lat="39.464425" lon="-8.44263333">
        <ele>31.0</ele>
        <time>2019-05-17T13:05:05.185Z</time>
      </trkpt>
      <trkpt lat="39.464425" lon="-8.44263333">
        <ele>31.0</ele>
        <time>2019-05-17T13:05:06.157Z</time>
      </trkpt>
      <trkpt lat="39.46447667" lon="-8.44267667">
        <ele>31.0</ele>
        <time>2019-05-17T13:05:07.152Z</time>
      </trkpt>
      <trkpt lat="39.464505" lon="-8.44269167">
        <ele>31.0</ele>
        <time>2019-05-17T13:05:08.151Z</time>
      </trkpt>
      <trkpt lat="39.464505" lon="-8.44269167">
        <ele>31.0</ele>
        <time>2019-05-17T13:05:09.153Z</time>
      </trkpt>
      <trkpt lat="39.46456" lon="-8.44273">
        <ele>30.0</ele>
        <time>2019-05-17T13:05:10.175Z</time>
      </trkpt>
      <trkpt lat="39.464585" lon="-8.44275333">
        <ele>30.0</ele>
        <time>2019-05-17T13:05:11.165Z</time>
      </trkpt>
      <trkpt lat="39.464585" lon="-8.44275333">
        <ele>30.0</ele>
        <time>2019-05-17T13:05:12.155Z</time>
      </trkpt>
      <trkpt lat="39.46463" lon="-8.4428">
        <ele>30.0</ele>
        <time>2019-05-17T13:05:13.165Z</time>
      </trkpt>
      <trkpt lat="39.46463" lon="-8.4428">
        <ele>30.0</ele>
        <time>2019-05-17T13:05:14.170Z</time>
      </trkpt>
      <trkpt lat="39.46467333" lon="-8.44285833">
        <ele>31.0</ele>
        <time>2019-05-17T13:05:15.168Z</time>
      </trkpt>
      <trkpt lat="39.46467333" lon="-8.44285833">
        <ele>31.0</ele>
        <time>2019-05-17T13:05:16.150Z</time>
      </trkpt>
      <trkpt lat="39.464715" lon="-8.44292">
        <ele>31.0</ele>
        <time>2019-05-17T13:05:17.175Z</time>
      </trkpt>
      <trkpt lat="39.464715" lon="-8.44292">
        <ele>31.0</ele>
        <time>2019-05-17T13:05:18.180Z</time>
      </trkpt>
      <trkpt lat="39.46475833" lon="-8.44297333">
        <ele>31.0</ele>
        <time>2019-05-17T13:05:19.167Z</time>
      </trkpt>
      <trkpt lat="39.46477833" lon="-8.443005">
        <ele>32.0</ele>
        <time>2019-05-17T13:05:20.165Z</time>
      </trkpt>
      <trkpt lat="39.46477833" lon="-8.443005">
        <ele>32.0</ele>
        <time>2019-05-17T13:05:21.163Z</time>
      </trkpt>
      <trkpt lat="39.46481833" lon="-8.44305">
        <ele>32.0</ele>
        <time>2019-05-17T13:05:22.157Z</time>
      </trkpt>
      <trkpt lat="39.46481833" lon="-8.44305">
        <ele>32.0</ele>
        <time>2019-05-17T13:05:23.168Z</time>
      </trkpt>
      <trkpt lat="39.46485833" lon="-8.44309667">
        <ele>32.0</ele>
        <time>2019-05-17T13:05:24.186Z</time>
      </trkpt>
      <trkpt lat="39.46485833" lon="-8.44309667">
        <ele>32.0</ele>
        <time>2019-05-17T13:05:25.175Z</time>
      </trkpt>
      <trkpt lat="39.46489833" lon="-8.44314167">
        <ele>32.0</ele>
        <time>2019-05-17T13:05:26.171Z</time>
      </trkpt>
      <trkpt lat="39.46489833" lon="-8.44314167">
        <ele>32.0</ele>
        <time>2019-05-17T13:05:27.176Z</time>
      </trkpt>
      <trkpt lat="39.46494167" lon="-8.44318667">
        <ele>31.0</ele>
        <time>2019-05-17T13:05:28.175Z</time>
      </trkpt>
      <trkpt lat="39.46494167" lon="-8.44318667">
        <ele>31.0</ele>
        <time>2019-05-17T13:05:29.168Z</time>
      </trkpt>
      <trkpt lat="39.46498167" lon="-8.44323667">
        <ele>31.0</ele>
        <time>2019-05-17T13:05:30.165Z</time>
      </trkpt>
      <trkpt lat="39.465" lon="-8.443265">
        <ele>31.0</ele>
        <time>2019-05-17T13:05:31.181Z</time>
      </trkpt>
      <trkpt lat="39.46502" lon="-8.44328833">
        <ele>31.0</ele>
        <time>2019-05-17T13:05:32.183Z</time>
      </trkpt>
      <trkpt lat="39.46502" lon="-8.44328833">
        <ele>31.0</ele>
        <time>2019-05-17T13:05:33.167Z</time>
      </trkpt>
      <trkpt lat="39.46505833" lon="-8.44332167">
        <ele>31.0</ele>
        <time>2019-05-17T13:05:34.169Z</time>
      </trkpt>
      <trkpt lat="39.46507667" lon="-8.44333833">
        <ele>31.0</ele>
        <time>2019-05-17T13:05:35.152Z</time>
      </trkpt>
      <trkpt lat="39.46507667" lon="-8.44333833">
        <ele>31.0</ele>
        <time>2019-05-17T13:05:36.169Z</time>
      </trkpt>
      <trkpt lat="39.4651" lon="-8.44337667">
        <ele>31.0</ele>
        <time>2019-05-17T13:05:37.171Z</time>
      </trkpt>
      <trkpt lat="39.4651" lon="-8.44337667">
        <ele>31.0</ele>
        <time>2019-05-17T13:05:38.189Z</time>
      </trkpt>
      <trkpt lat="39.46514" lon="-8.44342667">
        <ele>32.0</ele>
        <time>2019-05-17T13:05:39.151Z</time>
      </trkpt>
      <trkpt lat="39.46516" lon="-8.44345167">
        <ele>32.0</ele>
        <time>2019-05-17T13:05:40.187Z</time>
      </trkpt>
      <trkpt lat="39.46516" lon="-8.44345167">
        <ele>32.0</ele>
        <time>2019-05-17T13:05:41.152Z</time>
      </trkpt>
      <trkpt lat="39.46519333" lon="-8.44350167">
        <ele>33.0</ele>
        <time>2019-05-17T13:05:42.189Z</time>
      </trkpt>
      <trkpt lat="39.46519333" lon="-8.44350167">
        <ele>33.0</ele>
        <time>2019-05-17T13:05:43.155Z</time>
      </trkpt>
      <trkpt lat="39.46523" lon="-8.44354833">
        <ele>33.0</ele>
        <time>2019-05-17T13:05:44.191Z</time>
      </trkpt>
      <trkpt lat="39.46523" lon="-8.44354833">
        <ele>33.0</ele>
        <time>2019-05-17T13:05:45.155Z</time>
      </trkpt>
      <trkpt lat="39.46526833" lon="-8.44359833">
        <ele>34.0</ele>
        <time>2019-05-17T13:05:46.170Z</time>
      </trkpt>
      <trkpt lat="39.46526833" lon="-8.44359833">
        <ele>34.0</ele>
        <time>2019-05-17T13:05:47.166Z</time>
      </trkpt>
      <trkpt lat="39.46531" lon="-8.44365333">
        <ele>34.0</ele>
        <time>2019-05-17T13:05:48.155Z</time>
      </trkpt>
      <trkpt lat="39.46531" lon="-8.44365333">
        <ele>34.0</ele>
        <time>2019-05-17T13:05:49.164Z</time>
      </trkpt>
      <trkpt lat="39.46534333" lon="-8.44370167">
        <ele>35.0</ele>
        <time>2019-05-17T13:05:50.150Z</time>
      </trkpt>
      <trkpt lat="39.46534333" lon="-8.44370167">
        <ele>35.0</ele>
        <time>2019-05-17T13:05:51.157Z</time>
      </trkpt>
      <trkpt lat="39.46538" lon="-8.44375">
        <ele>34.0</ele>
        <time>2019-05-17T13:05:52.186Z</time>
      </trkpt>
      <trkpt lat="39.46538" lon="-8.44375">
        <ele>34.0</ele>
        <time>2019-05-17T13:05:53.151Z</time>
      </trkpt>
      <trkpt lat="39.46542" lon="-8.44380167">
        <ele>34.0</ele>
        <time>2019-05-17T13:05:54.153Z</time>
      </trkpt>
      <trkpt lat="39.46542" lon="-8.44380167">
        <ele>34.0</ele>
        <time>2019-05-17T13:05:55.189Z</time>
      </trkpt>
      <trkpt lat="39.46546" lon="-8.443855">
        <ele>34.0</ele>
        <time>2019-05-17T13:05:56.153Z</time>
      </trkpt>
      <trkpt lat="39.46546" lon="-8.443855">
        <ele>34.0</ele>
        <time>2019-05-17T13:05:57.156Z</time>
      </trkpt>
      <trkpt lat="39.46550167" lon="-8.443905">
        <ele>33.0</ele>
        <time>2019-05-17T13:05:58.188Z</time>
      </trkpt>
      <trkpt lat="39.46550167" lon="-8.443905">
        <ele>33.0</ele>
        <time>2019-05-17T13:05:59.154Z</time>
      </trkpt>
      <trkpt lat="39.46554333" lon="-8.44396">
        <ele>33.0</ele>
        <time>2019-05-17T13:06:00.156Z</time>
      </trkpt>
      <trkpt lat="39.46554333" lon="-8.44396">
        <ele>33.0</ele>
        <time>2019-05-17T13:06:01.165Z</time>
      </trkpt>
      <trkpt lat="39.465585" lon="-8.44401">
        <ele>32.0</ele>
        <time>2019-05-17T13:06:02.170Z</time>
      </trkpt>
      <trkpt lat="39.465585" lon="-8.44401">
        <ele>32.0</ele>
        <time>2019-05-17T13:06:03.175Z</time>
      </trkpt>
      <trkpt lat="39.46562667" lon="-8.44406667">
        <ele>32.0</ele>
        <time>2019-05-17T13:06:04.163Z</time>
      </trkpt>
      <trkpt lat="39.46565" lon="-8.44409333">
        <ele>32.0</ele>
        <time>2019-05-17T13:06:05.185Z</time>
      </trkpt>
      <trkpt lat="39.46565" lon="-8.44409333">
        <ele>32.0</ele>
        <time>2019-05-17T13:06:06.161Z</time>
      </trkpt>
      <trkpt lat="39.46569333" lon="-8.444145">
        <ele>31.0</ele>
        <time>2019-05-17T13:06:07.172Z</time>
      </trkpt>
      <trkpt lat="39.46571" lon="-8.44417667">
        <ele>31.0</ele>
        <time>2019-05-17T13:06:08.178Z</time>
      </trkpt>
      <trkpt lat="39.46571" lon="-8.44417667">
        <ele>31.0</ele>
        <time>2019-05-17T13:06:09.189Z</time>
      </trkpt>
      <trkpt lat="39.46575" lon="-8.44422833">
        <ele>31.0</ele>
        <time>2019-05-17T13:06:10.175Z</time>
      </trkpt>
      <trkpt lat="39.46577167" lon="-8.44425167">
        <ele>31.0</ele>
        <time>2019-05-17T13:06:11.167Z</time>
      </trkpt>
      <trkpt lat="39.46577167" lon="-8.44425167">
        <ele>31.0</ele>
        <time>2019-05-17T13:06:12.172Z</time>
      </trkpt>
      <trkpt lat="39.46581333" lon="-8.4443">
        <ele>31.0</ele>
        <time>2019-05-17T13:06:13.163Z</time>
      </trkpt>
      <trkpt lat="39.46583167" lon="-8.444325">
        <ele>31.0</ele>
        <time>2019-05-17T13:06:14.158Z</time>
      </trkpt>
      <trkpt lat="39.46583167" lon="-8.444325">
        <ele>31.0</ele>
        <time>2019-05-17T13:06:15.163Z</time>
      </trkpt>
      <trkpt lat="39.46586833" lon="-8.44437833">
        <ele>31.0</ele>
        <time>2019-05-17T13:06:16.187Z</time>
      </trkpt>
      <trkpt lat="39.46586833" lon="-8.44437833">
        <ele>31.0</ele>
        <time>2019-05-17T13:06:17.152Z</time>
      </trkpt>
      <trkpt lat="39.465905" lon="-8.44442">
        <ele>31.0</ele>
        <time>2019-05-17T13:06:18.151Z</time>
      </trkpt>
      <trkpt lat="39.465905" lon="-8.44442">
        <ele>31.0</ele>
        <time>2019-05-17T13:06:19.167Z</time>
      </trkpt>
      <trkpt lat="39.46593667" lon="-8.44446">
        <ele>30.0</ele>
        <time>2019-05-17T13:06:20.181Z</time>
      </trkpt>
      <trkpt lat="39.46593667" lon="-8.44446">
        <ele>30.0</ele>
        <time>2019-05-17T13:06:21.164Z</time>
      </trkpt>
      <trkpt lat="39.46596667" lon="-8.44450167">
        <ele>30.0</ele>
        <time>2019-05-17T13:06:22.165Z</time>
      </trkpt>
      <trkpt lat="39.46596667" lon="-8.44450167">
        <ele>30.0</ele>
        <time>2019-05-17T13:06:23.170Z</time>
      </trkpt>
      <trkpt lat="39.466" lon="-8.44454">
        <ele>30.0</ele>
        <time>2019-05-17T13:06:24.175Z</time>
      </trkpt>
      <trkpt lat="39.466" lon="-8.44454">
        <ele>30.0</ele>
        <time>2019-05-17T13:06:25.176Z</time>
      </trkpt>
      <trkpt lat="39.46603167" lon="-8.444585">
        <ele>30.0</ele>
        <time>2019-05-17T13:06:26.161Z</time>
      </trkpt>
      <trkpt lat="39.46603167" lon="-8.444585">
        <ele>30.0</ele>
        <time>2019-05-17T13:06:27.172Z</time>
      </trkpt>
      <trkpt lat="39.466065" lon="-8.44462833">
        <ele>30.0</ele>
        <time>2019-05-17T13:06:28.163Z</time>
      </trkpt>
      <trkpt lat="39.466065" lon="-8.44462833">
        <ele>30.0</ele>
        <time>2019-05-17T13:06:29.170Z</time>
      </trkpt>
      <trkpt lat="39.4661" lon="-8.44467">
        <ele>30.0</ele>
        <time>2019-05-17T13:06:30.174Z</time>
      </trkpt>
      <trkpt lat="39.4661" lon="-8.44467">
        <ele>30.0</ele>
        <time>2019-05-17T13:06:31.184Z</time>
      </trkpt>
      <trkpt lat="39.466135" lon="-8.44471333">
        <ele>31.0</ele>
        <time>2019-05-17T13:06:32.174Z</time>
      </trkpt>
      <trkpt lat="39.466135" lon="-8.44471333">
        <ele>31.0</ele>
        <time>2019-05-17T13:06:33.150Z</time>
      </trkpt>
      <trkpt lat="39.46617" lon="-8.44475667">
        <ele>31.0</ele>
        <time>2019-05-17T13:06:34.184Z</time>
      </trkpt>
      <trkpt lat="39.46617" lon="-8.44475667">
        <ele>31.0</ele>
        <time>2019-05-17T13:06:35.170Z</time>
      </trkpt>
      <trkpt lat="39.466205" lon="-8.4448">
        <ele>32.0</ele>
        <time>2019-05-17T13:06:36.175Z</time>
      </trkpt>
      <trkpt lat="39.466205" lon="-8.4448">
        <ele>32.0</ele>
        <time>2019-05-17T13:06:37.187Z</time>
      </trkpt>
      <trkpt lat="39.46624" lon="-8.44484167">
        <ele>32.0</ele>
        <time>2019-05-17T13:06:38.151Z</time>
      </trkpt>
      <trkpt lat="39.46624" lon="-8.44484167">
        <ele>32.0</ele>
        <time>2019-05-17T13:06:39.175Z</time>
      </trkpt>
      <trkpt lat="39.46627167" lon="-8.44488167">
        <ele>33.0</ele>
        <time>2019-05-17T13:06:40.165Z</time>
      </trkpt>
      <trkpt lat="39.46627167" lon="-8.44488167">
        <ele>33.0</ele>
        <time>2019-05-17T13:06:41.169Z</time>
      </trkpt>
      <trkpt lat="39.46630333" lon="-8.444925">
        <ele>33.0</ele>
        <time>2019-05-17T13:06:42.178Z</time>
      </trkpt>
      <trkpt lat="39.46630333" lon="-8.444925">
        <ele>33.0</ele>
        <time>2019-05-17T13:06:43.189Z</time>
      </trkpt>
      <trkpt lat="39.46633167" lon="-8.44496667">
        <ele>33.0</ele>
        <time>2019-05-17T13:06:44.150Z</time>
      </trkpt>
      <trkpt lat="39.46633167" lon="-8.44496667">
        <ele>33.0</ele>
        <time>2019-05-17T13:06:45.179Z</time>
      </trkpt>
      <trkpt lat="39.46636167" lon="-8.445005">
        <ele>34.0</ele>
        <time>2019-05-17T13:06:46.175Z</time>
      </trkpt>
      <trkpt lat="39.46636167" lon="-8.445005">
        <ele>34.0</ele>
        <time>2019-05-17T13:06:47.174Z</time>
      </trkpt>
      <trkpt lat="39.46638667" lon="-8.44505167">
        <ele>34.0</ele>
        <time>2019-05-17T13:06:48.154Z</time>
      </trkpt>
      <trkpt lat="39.46638667" lon="-8.44505167">
        <ele>34.0</ele>
        <time>2019-05-17T13:06:49.160Z</time>
      </trkpt>
      <trkpt lat="39.466415" lon="-8.44509">
        <ele>33.0</ele>
        <time>2019-05-17T13:06:50.179Z</time>
      </trkpt>
      <trkpt lat="39.466415" lon="-8.44509">
        <ele>33.0</ele>
        <time>2019-05-17T13:06:51.157Z</time>
      </trkpt>
      <trkpt lat="39.46644" lon="-8.445125">
        <ele>34.0</ele>
        <time>2019-05-17T13:06:52.186Z</time>
      </trkpt>
      <trkpt lat="39.46644" lon="-8.445125">
        <ele>34.0</ele>
        <time>2019-05-17T13:06:53.151Z</time>
      </trkpt>
      <trkpt lat="39.46646833" lon="-8.445165">
        <ele>34.0</ele>
        <time>2019-05-17T13:06:54.187Z</time>
      </trkpt>
      <trkpt lat="39.46646833" lon="-8.445165">
        <ele>34.0</ele>
        <time>2019-05-17T13:06:55.153Z</time>
      </trkpt>
      <trkpt lat="39.4665" lon="-8.4452">
        <ele>34.0</ele>
        <time>2019-05-17T13:06:56.165Z</time>
      </trkpt>
      <trkpt lat="39.4665" lon="-8.4452">
        <ele>34.0</ele>
        <time>2019-05-17T13:06:57.151Z</time>
      </trkpt>
      <trkpt lat="39.46652833" lon="-8.44524667">
        <ele>34.0</ele>
        <time>2019-05-17T13:06:58.155Z</time>
      </trkpt>
      <trkpt lat="39.46652833" lon="-8.44524667">
        <ele>34.0</ele>
        <time>2019-05-17T13:06:59.174Z</time>
      </trkpt>
      <trkpt lat="39.46655667" lon="-8.44528667">
        <ele>35.0</ele>
        <time>2019-05-17T13:07:00.175Z</time>
      </trkpt>
      <trkpt lat="39.46655667" lon="-8.44528667">
        <ele>35.0</ele>
        <time>2019-05-17T13:07:01.157Z</time>
      </trkpt>
      <trkpt lat="39.466585" lon="-8.445335">
        <ele>35.0</ele>
        <time>2019-05-17T13:07:02.179Z</time>
      </trkpt>
      <trkpt lat="39.466585" lon="-8.445335">
        <ele>35.0</ele>
        <time>2019-05-17T13:07:03.162Z</time>
      </trkpt>
      <trkpt lat="39.46659833" lon="-8.44539833">
        <ele>36.0</ele>
        <time>2019-05-17T13:07:04.163Z</time>
      </trkpt>
      <trkpt lat="39.46659833" lon="-8.44539833">
        <ele>36.0</ele>
        <time>2019-05-17T13:07:05.170Z</time>
      </trkpt>
      <trkpt lat="39.46663" lon="-8.44543667">
        <ele>36.0</ele>
        <time>2019-05-17T13:07:06.164Z</time>
      </trkpt>
      <trkpt lat="39.466645" lon="-8.44545333">
        <ele>36.0</ele>
        <time>2019-05-17T13:07:07.165Z</time>
      </trkpt>
      <trkpt lat="39.46666333" lon="-8.44546167">
        <ele>36.0</ele>
        <time>2019-05-17T13:07:08.182Z</time>
      </trkpt>
      <trkpt lat="39.46666333" lon="-8.44546167">
        <ele>36.0</ele>
        <time>2019-05-17T13:07:09.168Z</time>
      </trkpt>
      <trkpt lat="39.46669833" lon="-8.44548333">
        <ele>37.0</ele>
        <time>2019-05-17T13:07:10.169Z</time>
      </trkpt>
      <trkpt lat="39.46671167" lon="-8.44549">
        <ele>37.0</ele>
        <time>2019-05-17T13:07:11.160Z</time>
      </trkpt>
      <trkpt lat="39.46671167" lon="-8.44549">
        <ele>37.0</ele>
        <time>2019-05-17T13:07:12.171Z</time>
      </trkpt>
      <trkpt lat="39.466745" lon="-8.44550833">
        <ele>39.0</ele>
        <time>2019-05-17T13:07:13.188Z</time>
      </trkpt>
      <trkpt lat="39.466765" lon="-8.445515">
        <ele>39.0</ele>
        <time>2019-05-17T13:07:14.185Z</time>
      </trkpt>
      <trkpt lat="39.466765" lon="-8.445515">
        <ele>39.0</ele>
        <time>2019-05-17T13:07:15.150Z</time>
      </trkpt>
      <trkpt lat="39.466805" lon="-8.445525">
        <ele>39.0</ele>
        <time>2019-05-17T13:07:16.177Z</time>
      </trkpt>
      <trkpt lat="39.466805" lon="-8.445525">
        <ele>39.0</ele>
        <time>2019-05-17T13:07:17.168Z</time>
      </trkpt>
      <trkpt lat="39.466835" lon="-8.44553833">
        <ele>40.0</ele>
        <time>2019-05-17T13:07:18.165Z</time>
      </trkpt>
      <trkpt lat="39.466835" lon="-8.44553833">
        <ele>40.0</ele>
        <time>2019-05-17T13:07:19.170Z</time>
      </trkpt>
      <trkpt lat="39.46687333" lon="-8.44555833">
        <ele>41.0</ele>
        <time>2019-05-17T13:07:20.168Z</time>
      </trkpt>
      <trkpt lat="39.46687333" lon="-8.44555833">
        <ele>41.0</ele>
        <time>2019-05-17T13:07:21.153Z</time>
      </trkpt>
      <trkpt lat="39.46691167" lon="-8.44557333">
        <ele>41.0</ele>
        <time>2019-05-17T13:07:22.155Z</time>
      </trkpt>
      <trkpt lat="39.46691167" lon="-8.44557333">
        <ele>41.0</ele>
        <time>2019-05-17T13:07:23.178Z</time>
      </trkpt>
      <trkpt lat="39.46695" lon="-8.445595">
        <ele>42.0</ele>
        <time>2019-05-17T13:07:24.168Z</time>
      </trkpt>
      <trkpt lat="39.46695" lon="-8.445595">
        <ele>42.0</ele>
        <time>2019-05-17T13:07:25.180Z</time>
      </trkpt>
      <trkpt lat="39.466985" lon="-8.44560667">
        <ele>43.0</ele>
        <time>2019-05-17T13:07:26.154Z</time>
      </trkpt>
      <trkpt lat="39.466985" lon="-8.44560667">
        <ele>43.0</ele>
        <time>2019-05-17T13:07:27.180Z</time>
      </trkpt>
      <trkpt lat="39.46702" lon="-8.44561833">
        <ele>43.0</ele>
        <time>2019-05-17T13:07:28.195Z</time>
      </trkpt>
      <trkpt lat="39.46702" lon="-8.44561833">
        <ele>43.0</ele>
        <time>2019-05-17T13:07:29.170Z</time>
      </trkpt>
      <trkpt lat="39.46705333" lon="-8.445625">
        <ele>43.0</ele>
        <time>2019-05-17T13:07:30.165Z</time>
      </trkpt>
      <trkpt lat="39.46705333" lon="-8.445625">
        <ele>43.0</ele>
        <time>2019-05-17T13:07:31.156Z</time>
      </trkpt>
      <trkpt lat="39.46708667" lon="-8.44563667">
        <ele>43.0</ele>
        <time>2019-05-17T13:07:32.191Z</time>
      </trkpt>
      <trkpt lat="39.46708667" lon="-8.44563667">
        <ele>43.0</ele>
        <time>2019-05-17T13:07:33.176Z</time>
      </trkpt>
      <trkpt lat="39.46712" lon="-8.44565167">
        <ele>43.0</ele>
        <time>2019-05-17T13:07:34.168Z</time>
      </trkpt>
      <trkpt lat="39.46712" lon="-8.44565167">
        <ele>43.0</ele>
        <time>2019-05-17T13:07:35.182Z</time>
      </trkpt>
      <trkpt lat="39.46714667" lon="-8.44567">
        <ele>44.0</ele>
        <time>2019-05-17T13:07:36.188Z</time>
      </trkpt>
      <trkpt lat="39.46714667" lon="-8.44567">
        <ele>44.0</ele>
        <time>2019-05-17T13:07:37.174Z</time>
      </trkpt>
      <trkpt lat="39.46717333" lon="-8.445685">
        <ele>45.0</ele>
        <time>2019-05-17T13:07:38.177Z</time>
      </trkpt>
      <trkpt lat="39.46717333" lon="-8.445685">
        <ele>45.0</ele>
        <time>2019-05-17T13:07:39.174Z</time>
      </trkpt>
      <trkpt lat="39.467205" lon="-8.44569333">
        <ele>45.0</ele>
        <time>2019-05-17T13:07:40.167Z</time>
      </trkpt>
      <trkpt lat="39.467205" lon="-8.44569333">
        <ele>45.0</ele>
        <time>2019-05-17T13:07:41.155Z</time>
      </trkpt>
      <trkpt lat="39.46724" lon="-8.44571">
        <ele>44.0</ele>
        <time>2019-05-17T13:07:42.172Z</time>
      </trkpt>
      <trkpt lat="39.467255" lon="-8.44572">
        <ele>45.0</ele>
        <time>2019-05-17T13:07:43.165Z</time>
      </trkpt>
      <trkpt lat="39.46727167" lon="-8.44572833">
        <ele>45.0</ele>
        <time>2019-05-17T13:07:44.158Z</time>
      </trkpt>
      <trkpt lat="39.46727167" lon="-8.44572833">
        <ele>45.0</ele>
        <time>2019-05-17T13:07:45.188Z</time>
      </trkpt>
      <trkpt lat="39.46730167" lon="-8.44573833">
        <ele>45.0</ele>
        <time>2019-05-17T13:07:46.154Z</time>
      </trkpt>
      <trkpt lat="39.46730167" lon="-8.44573833">
        <ele>45.0</ele>
        <time>2019-05-17T13:07:47.180Z</time>
      </trkpt>
      <trkpt lat="39.46733667" lon="-8.44574667">
        <ele>45.0</ele>
        <time>2019-05-17T13:07:48.187Z</time>
      </trkpt>
      <trkpt lat="39.46733667" lon="-8.44574667">
        <ele>45.0</ele>
        <time>2019-05-17T13:07:49.163Z</time>
      </trkpt>
      <trkpt lat="39.46736833" lon="-8.44575833">
        <ele>45.0</ele>
        <time>2019-05-17T13:07:50.180Z</time>
      </trkpt>
      <trkpt lat="39.46736833" lon="-8.44575833">
        <ele>45.0</ele>
        <time>2019-05-17T13:07:51.174Z</time>
      </trkpt>
      <trkpt lat="39.467405" lon="-8.44576833">
        <ele>45.0</ele>
        <time>2019-05-17T13:07:52.175Z</time>
      </trkpt>
      <trkpt lat="39.467405" lon="-8.44576833">
        <ele>45.0</ele>
        <time>2019-05-17T13:07:53.151Z</time>
      </trkpt>
      <trkpt lat="39.46743667" lon="-8.44577667">
        <ele>45.0</ele>
        <time>2019-05-17T13:07:54.183Z</time>
      </trkpt>
      <trkpt lat="39.46743667" lon="-8.44577667">
        <ele>45.0</ele>
        <time>2019-05-17T13:07:55.159Z</time>
      </trkpt>
      <trkpt lat="39.46745667" lon="-8.4458">
        <ele>47.0</ele>
        <time>2019-05-17T13:07:56.183Z</time>
      </trkpt>
      <trkpt lat="39.46745667" lon="-8.4458">
        <ele>47.0</ele>
        <time>2019-05-17T13:07:57.183Z</time>
      </trkpt>
      <trkpt lat="39.46749333" lon="-8.44581">
        <ele>47.0</ele>
        <time>2019-05-17T13:07:58.169Z</time>
      </trkpt>
      <trkpt lat="39.46749333" lon="-8.44581">
        <ele>47.0</ele>
        <time>2019-05-17T13:07:59.151Z</time>
      </trkpt>
      <trkpt lat="39.46753" lon="-8.445825">
        <ele>47.0</ele>
        <time>2019-05-17T13:08:00.187Z</time>
      </trkpt>
      <trkpt lat="39.46753" lon="-8.445825">
        <ele>47.0</ele>
        <time>2019-05-17T13:08:01.176Z</time>
      </trkpt>
      <trkpt lat="39.467565" lon="-8.44584167">
        <ele>48.0</ele>
        <time>2019-05-17T13:08:02.170Z</time>
      </trkpt>
      <trkpt lat="39.467565" lon="-8.44584167">
        <ele>48.0</ele>
        <time>2019-05-17T13:08:03.176Z</time>
      </trkpt>
      <trkpt lat="39.46760667" lon="-8.445855">
        <ele>48.0</ele>
        <time>2019-05-17T13:08:04.150Z</time>
      </trkpt>
      <trkpt lat="39.46762667" lon="-8.445865">
        <ele>48.0</ele>
        <time>2019-05-17T13:08:05.180Z</time>
      </trkpt>
      <trkpt lat="39.46762667" lon="-8.445865">
        <ele>48.0</ele>
        <time>2019-05-17T13:08:06.187Z</time>
      </trkpt>
      <trkpt lat="39.46766833" lon="-8.44587833">
        <ele>49.0</ele>
        <time>2019-05-17T13:08:07.175Z</time>
      </trkpt>
      <trkpt lat="39.46768667" lon="-8.445885">
        <ele>49.0</ele>
        <time>2019-05-17T13:08:08.153Z</time>
      </trkpt>
      <trkpt lat="39.46768667" lon="-8.445885">
        <ele>49.0</ele>
        <time>2019-05-17T13:08:09.162Z</time>
      </trkpt>
      <trkpt lat="39.46772833" lon="-8.44589833">
        <ele>48.0</ele>
        <time>2019-05-17T13:08:10.155Z</time>
      </trkpt>
      <trkpt lat="39.46774667" lon="-8.445905">
        <ele>49.0</ele>
        <time>2019-05-17T13:08:11.152Z</time>
      </trkpt>
      <trkpt lat="39.467765" lon="-8.44590833">
        <ele>49.0</ele>
        <time>2019-05-17T13:08:12.179Z</time>
      </trkpt>
      <trkpt lat="39.467765" lon="-8.44590833">
        <ele>49.0</ele>
        <time>2019-05-17T13:08:13.150Z</time>
      </trkpt>
      <trkpt lat="39.46780333" lon="-8.44591667">
        <ele>49.0</ele>
        <time>2019-05-17T13:08:14.150Z</time>
      </trkpt>
      <trkpt lat="39.46780333" lon="-8.44591667">
        <ele>49.0</ele>
        <time>2019-05-17T13:08:15.150Z</time>
      </trkpt>
      <trkpt lat="39.46783667" lon="-8.445925">
        <ele>49.0</ele>
        <time>2019-05-17T13:08:16.188Z</time>
      </trkpt>
      <trkpt lat="39.46783667" lon="-8.445925">
        <ele>49.0</ele>
        <time>2019-05-17T13:08:17.169Z</time>
      </trkpt>
      <trkpt lat="39.46786833" lon="-8.445935">
        <ele>49.0</ele>
        <time>2019-05-17T13:08:18.169Z</time>
      </trkpt>
      <trkpt lat="39.46786833" lon="-8.445935">
        <ele>49.0</ele>
        <time>2019-05-17T13:08:19.175Z</time>
      </trkpt>
      <trkpt lat="39.46790833" lon="-8.44594833">
        <ele>49.0</ele>
        <time>2019-05-17T13:08:20.170Z</time>
      </trkpt>
      <trkpt lat="39.46790833" lon="-8.44594833">
        <ele>49.0</ele>
        <time>2019-05-17T13:08:21.165Z</time>
      </trkpt>
      <trkpt lat="39.46795" lon="-8.44596167">
        <ele>49.0</ele>
        <time>2019-05-17T13:08:22.165Z</time>
      </trkpt>
      <trkpt lat="39.46795" lon="-8.44596167">
        <ele>49.0</ele>
        <time>2019-05-17T13:08:23.176Z</time>
      </trkpt>
      <trkpt lat="39.46798167" lon="-8.445975">
        <ele>49.0</ele>
        <time>2019-05-17T13:08:24.161Z</time>
      </trkpt>
      <trkpt lat="39.46798167" lon="-8.445975">
        <ele>49.0</ele>
        <time>2019-05-17T13:08:25.189Z</time>
      </trkpt>
      <trkpt lat="39.46801" lon="-8.44598333">
        <ele>50.0</ele>
        <time>2019-05-17T13:08:26.165Z</time>
      </trkpt>
      <trkpt lat="39.46801" lon="-8.44598333">
        <ele>50.0</ele>
        <time>2019-05-17T13:08:27.176Z</time>
      </trkpt>
      <trkpt lat="39.46804333" lon="-8.445995">
        <ele>50.0</ele>
        <time>2019-05-17T13:08:28.177Z</time>
      </trkpt>
      <trkpt lat="39.46804333" lon="-8.445995">
        <ele>50.0</ele>
        <time>2019-05-17T13:08:29.151Z</time>
      </trkpt>
      <trkpt lat="39.468075" lon="-8.44600667">
        <ele>50.0</ele>
        <time>2019-05-17T13:08:30.177Z</time>
      </trkpt>
      <trkpt lat="39.468075" lon="-8.44600667">
        <ele>50.0</ele>
        <time>2019-05-17T13:08:31.156Z</time>
      </trkpt>
      <trkpt lat="39.46811" lon="-8.44602">
        <ele>50.0</ele>
        <time>2019-05-17T13:08:32.154Z</time>
      </trkpt>
      <trkpt lat="39.46811" lon="-8.44602">
        <ele>50.0</ele>
        <time>2019-05-17T13:08:33.150Z</time>
      </trkpt>
      <trkpt lat="39.46814667" lon="-8.44603333">
        <ele>50.0</ele>
        <time>2019-05-17T13:08:34.155Z</time>
      </trkpt>
      <trkpt lat="39.46814667" lon="-8.44603333">
        <ele>50.0</ele>
        <time>2019-05-17T13:08:35.166Z</time>
      </trkpt>
      <trkpt lat="39.468185" lon="-8.44604167">
        <ele>50.0</ele>
        <time>2019-05-17T13:08:36.165Z</time>
      </trkpt>
      <trkpt lat="39.468185" lon="-8.44604167">
        <ele>50.0</ele>
        <time>2019-05-17T13:08:37.172Z</time>
      </trkpt>
      <trkpt lat="39.46822" lon="-8.446045">
        <ele>50.0</ele>
        <time>2019-05-17T13:08:38.181Z</time>
      </trkpt>
      <trkpt lat="39.46823667" lon="-8.44604833">
        <ele>51.0</ele>
        <time>2019-05-17T13:08:39.155Z</time>
      </trkpt>
      <trkpt lat="39.46823667" lon="-8.44604833">
        <ele>51.0</ele>
        <time>2019-05-17T13:08:40.150Z</time>
      </trkpt>
      <trkpt lat="39.468275" lon="-8.446055">
        <ele>51.0</ele>
        <time>2019-05-17T13:08:41.170Z</time>
      </trkpt>
      <trkpt lat="39.468275" lon="-8.446055">
        <ele>51.0</ele>
        <time>2019-05-17T13:08:42.177Z</time>
      </trkpt>
      <trkpt lat="39.46831333" lon="-8.44606333">
        <ele>51.0</ele>
        <time>2019-05-17T13:08:43.178Z</time>
      </trkpt>
      <trkpt lat="39.46833333" lon="-8.44606667">
        <ele>51.0</ele>
        <time>2019-05-17T13:08:44.175Z</time>
      </trkpt>
      <trkpt lat="39.46833333" lon="-8.44606667">
        <ele>51.0</ele>
        <time>2019-05-17T13:08:45.180Z</time>
      </trkpt>
      <trkpt lat="39.46836833" lon="-8.44607">
        <ele>51.0</ele>
        <time>2019-05-17T13:08:46.167Z</time>
      </trkpt>
      <trkpt lat="39.46836833" lon="-8.44607">
        <ele>51.0</ele>
        <time>2019-05-17T13:08:47.173Z</time>
      </trkpt>
      <trkpt lat="39.46840667" lon="-8.44607667">
        <ele>51.0</ele>
        <time>2019-05-17T13:08:48.181Z</time>
      </trkpt>
      <trkpt lat="39.46840667" lon="-8.44607667">
        <ele>51.0</ele>
        <time>2019-05-17T13:08:49.188Z</time>
      </trkpt>
      <trkpt lat="39.46843833" lon="-8.446085">
        <ele>51.0</ele>
        <time>2019-05-17T13:08:50.175Z</time>
      </trkpt>
      <trkpt lat="39.46843833" lon="-8.446085">
        <ele>51.0</ele>
        <time>2019-05-17T13:08:51.175Z</time>
      </trkpt>
      <trkpt lat="39.46847833" lon="-8.44609333">
        <ele>51.0</ele>
        <time>2019-05-17T13:08:52.165Z</time>
      </trkpt>
      <trkpt lat="39.46849167" lon="-8.44609833">
        <ele>51.0</ele>
        <time>2019-05-17T13:08:53.165Z</time>
      </trkpt>
      <trkpt lat="39.46849167" lon="-8.44609833">
        <ele>51.0</ele>
        <time>2019-05-17T13:08:54.172Z</time>
      </trkpt>
      <trkpt lat="39.46852833" lon="-8.446105">
        <ele>51.0</ele>
        <time>2019-05-17T13:08:55.173Z</time>
      </trkpt>
      <trkpt lat="39.46852833" lon="-8.446105">
        <ele>51.0</ele>
        <time>2019-05-17T13:08:56.158Z</time>
      </trkpt>
      <trkpt lat="39.46857167" lon="-8.44610833">
        <ele>51.0</ele>
        <time>2019-05-17T13:08:57.162Z</time>
      </trkpt>
      <trkpt lat="39.46857167" lon="-8.44610833">
        <ele>51.0</ele>
        <time>2019-05-17T13:08:58.187Z</time>
      </trkpt>
      <trkpt lat="39.46861" lon="-8.44611333">
        <ele>51.0</ele>
        <time>2019-05-17T13:08:59.188Z</time>
      </trkpt>
      <trkpt lat="39.46861" lon="-8.44611333">
        <ele>51.0</ele>
        <time>2019-05-17T13:09:00.150Z</time>
      </trkpt>
      <trkpt lat="39.468655" lon="-8.44611333">
        <ele>51.0</ele>
        <time>2019-05-17T13:09:01.174Z</time>
      </trkpt>
      <trkpt lat="39.46868" lon="-8.44611833">
        <ele>51.0</ele>
        <time>2019-05-17T13:09:02.182Z</time>
      </trkpt>
      <trkpt lat="39.46868" lon="-8.44611833">
        <ele>51.0</ele>
        <time>2019-05-17T13:09:03.165Z</time>
      </trkpt>
      <trkpt lat="39.468725" lon="-8.44612667">
        <ele>52.0</ele>
        <time>2019-05-17T13:09:04.153Z</time>
      </trkpt>
      <trkpt lat="39.46875167" lon="-8.44612667">
        <ele>51.0</ele>
        <time>2019-05-17T13:09:05.158Z</time>
      </trkpt>
      <trkpt lat="39.46875167" lon="-8.44612667">
        <ele>51.0</ele>
        <time>2019-05-17T13:09:06.183Z</time>
      </trkpt>
      <trkpt lat="39.46879667" lon="-8.44612833">
        <ele>51.0</ele>
        <time>2019-05-17T13:09:07.185Z</time>
      </trkpt>
      <trkpt lat="39.46881833" lon="-8.44613167">
        <ele>52.0</ele>
        <time>2019-05-17T13:09:08.155Z</time>
      </trkpt>
      <trkpt lat="39.46881833" lon="-8.44613167">
        <ele>52.0</ele>
        <time>2019-05-17T13:09:09.189Z</time>
      </trkpt>
      <trkpt lat="39.46886" lon="-8.44613667">
        <ele>52.0</ele>
        <time>2019-05-17T13:09:10.184Z</time>
      </trkpt>
      <trkpt lat="39.46886" lon="-8.44613667">
        <ele>52.0</ele>
        <time>2019-05-17T13:09:11.169Z</time>
      </trkpt>
      <trkpt lat="39.4689" lon="-8.44613667">
        <ele>53.0</ele>
        <time>2019-05-17T13:09:12.158Z</time>
      </trkpt>
      <trkpt lat="39.4689" lon="-8.44613667">
        <ele>53.0</ele>
        <time>2019-05-17T13:09:13.169Z</time>
      </trkpt>
      <trkpt lat="39.46894" lon="-8.446145">
        <ele>53.0</ele>
        <time>2019-05-17T13:09:14.161Z</time>
      </trkpt>
      <trkpt lat="39.46894" lon="-8.446145">
        <ele>53.0</ele>
        <time>2019-05-17T13:09:15.178Z</time>
      </trkpt>
      <trkpt lat="39.46898" lon="-8.44615333">
        <ele>53.0</ele>
        <time>2019-05-17T13:09:16.167Z</time>
      </trkpt>
      <trkpt lat="39.46898" lon="-8.44615333">
        <ele>53.0</ele>
        <time>2019-05-17T13:09:17.172Z</time>
      </trkpt>
      <trkpt lat="39.46902167" lon="-8.446155">
        <ele>53.0</ele>
        <time>2019-05-17T13:09:18.156Z</time>
      </trkpt>
      <trkpt lat="39.46902167" lon="-8.446155">
        <ele>53.0</ele>
        <time>2019-05-17T13:09:19.187Z</time>
      </trkpt>
      <trkpt lat="39.46907" lon="-8.44615333">
        <ele>53.0</ele>
        <time>2019-05-17T13:09:20.190Z</time>
      </trkpt>
      <trkpt lat="39.46907" lon="-8.44615333">
        <ele>53.0</ele>
        <time>2019-05-17T13:09:21.155Z</time>
      </trkpt>
      <trkpt lat="39.46911" lon="-8.44615833">
        <ele>54.0</ele>
        <time>2019-05-17T13:09:22.155Z</time>
      </trkpt>
      <trkpt lat="39.46911" lon="-8.44615833">
        <ele>54.0</ele>
        <time>2019-05-17T13:09:23.183Z</time>
      </trkpt>
      <trkpt lat="39.46915" lon="-8.44616">
        <ele>55.0</ele>
        <time>2019-05-17T13:09:24.152Z</time>
      </trkpt>
      <trkpt lat="39.46915" lon="-8.44616">
        <ele>55.0</ele>
        <time>2019-05-17T13:09:25.166Z</time>
      </trkpt>
      <trkpt lat="39.46919667" lon="-8.44615833">
        <ele>54.0</ele>
        <time>2019-05-17T13:09:26.180Z</time>
      </trkpt>
      <trkpt lat="39.46919667" lon="-8.44615833">
        <ele>54.0</ele>
        <time>2019-05-17T13:09:27.156Z</time>
      </trkpt>
      <trkpt lat="39.469245" lon="-8.44616167">
        <ele>54.0</ele>
        <time>2019-05-17T13:09:28.183Z</time>
      </trkpt>
      <trkpt lat="39.469245" lon="-8.44616167">
        <ele>54.0</ele>
        <time>2019-05-17T13:09:29.189Z</time>
      </trkpt>
      <trkpt lat="39.46929333" lon="-8.44616667">
        <ele>55.0</ele>
        <time>2019-05-17T13:09:30.183Z</time>
      </trkpt>
      <trkpt lat="39.46929333" lon="-8.44616667">
        <ele>55.0</ele>
        <time>2019-05-17T13:09:31.150Z</time>
      </trkpt>
      <trkpt lat="39.46934" lon="-8.44617667">
        <ele>54.0</ele>
        <time>2019-05-17T13:09:32.155Z</time>
      </trkpt>
      <trkpt lat="39.46934" lon="-8.44617667">
        <ele>54.0</ele>
        <time>2019-05-17T13:09:33.163Z</time>
      </trkpt>
      <trkpt lat="39.46939" lon="-8.44618167">
        <ele>54.0</ele>
        <time>2019-05-17T13:09:34.150Z</time>
      </trkpt>
      <trkpt lat="39.46939" lon="-8.44618167">
        <ele>54.0</ele>
        <time>2019-05-17T13:09:35.158Z</time>
      </trkpt>
      <trkpt lat="39.46943167" lon="-8.446195">
        <ele>54.0</ele>
        <time>2019-05-17T13:09:36.190Z</time>
      </trkpt>
      <trkpt lat="39.46943167" lon="-8.446195">
        <ele>54.0</ele>
        <time>2019-05-17T13:09:37.155Z</time>
      </trkpt>
      <trkpt lat="39.469475" lon="-8.44621">
        <ele>53.0</ele>
        <time>2019-05-17T13:09:38.167Z</time>
      </trkpt>
      <trkpt lat="39.469475" lon="-8.44621">
        <ele>53.0</ele>
        <time>2019-05-17T13:09:39.165Z</time>
      </trkpt>
      <trkpt lat="39.46951667" lon="-8.44622">
        <ele>53.0</ele>
        <time>2019-05-17T13:09:40.158Z</time>
      </trkpt>
      <trkpt lat="39.46951667" lon="-8.44622">
        <ele>53.0</ele>
        <time>2019-05-17T13:09:41.185Z</time>
      </trkpt>
      <trkpt lat="39.46955333" lon="-8.446235">
        <ele>52.0</ele>
        <time>2019-05-17T13:09:42.155Z</time>
      </trkpt>
      <trkpt lat="39.46955333" lon="-8.446235">
        <ele>52.0</ele>
        <time>2019-05-17T13:09:43.187Z</time>
      </trkpt>
      <trkpt lat="39.469595" lon="-8.44625">
        <ele>52.0</ele>
        <time>2019-05-17T13:09:44.159Z</time>
      </trkpt>
      <trkpt lat="39.469595" lon="-8.44625">
        <ele>52.0</ele>
        <time>2019-05-17T13:09:45.150Z</time>
      </trkpt>
      <trkpt lat="39.46963833" lon="-8.44626167">
        <ele>52.0</ele>
        <time>2019-05-17T13:09:46.168Z</time>
      </trkpt>
      <trkpt lat="39.46963833" lon="-8.44626167">
        <ele>52.0</ele>
        <time>2019-05-17T13:09:47.189Z</time>
      </trkpt>
      <trkpt lat="39.46968167" lon="-8.44628">
        <ele>52.0</ele>
        <time>2019-05-17T13:09:48.150Z</time>
      </trkpt>
      <trkpt lat="39.46968167" lon="-8.44628">
        <ele>52.0</ele>
        <time>2019-05-17T13:09:49.181Z</time>
      </trkpt>
      <trkpt lat="39.46972333" lon="-8.44630333">
        <ele>52.0</ele>
        <time>2019-05-17T13:09:50.176Z</time>
      </trkpt>
      <trkpt lat="39.46972333" lon="-8.44630333">
        <ele>52.0</ele>
        <time>2019-05-17T13:09:51.151Z</time>
      </trkpt>
      <trkpt lat="39.46976667" lon="-8.44633">
        <ele>52.0</ele>
        <time>2019-05-17T13:09:52.175Z</time>
      </trkpt>
      <trkpt lat="39.46976667" lon="-8.44633">
        <ele>52.0</ele>
        <time>2019-05-17T13:09:53.166Z</time>
      </trkpt>
      <trkpt lat="39.46980833" lon="-8.44635667">
        <ele>53.0</ele>
        <time>2019-05-17T13:09:54.150Z</time>
      </trkpt>
      <trkpt lat="39.46983333" lon="-8.446375">
        <ele>53.0</ele>
        <time>2019-05-17T13:09:55.183Z</time>
      </trkpt>
      <trkpt lat="39.46985167" lon="-8.446395">
        <ele>53.0</ele>
        <time>2019-05-17T13:09:56.180Z</time>
      </trkpt>
      <trkpt lat="39.46985167" lon="-8.446395">
        <ele>53.0</ele>
        <time>2019-05-17T13:09:57.151Z</time>
      </trkpt>
      <trkpt lat="39.46989" lon="-8.44642167">
        <ele>53.0</ele>
        <time>2019-05-17T13:09:58.155Z</time>
      </trkpt>
      <trkpt lat="39.46989" lon="-8.44642167">
        <ele>53.0</ele>
        <time>2019-05-17T13:09:59.166Z</time>
      </trkpt>
      <trkpt lat="39.46993" lon="-8.44644">
        <ele>53.0</ele>
        <time>2019-05-17T13:10:00.152Z</time>
      </trkpt>
      <trkpt lat="39.46994833" lon="-8.446445">
        <ele>53.0</ele>
        <time>2019-05-17T13:10:01.163Z</time>
      </trkpt>
      <trkpt lat="39.46996333" lon="-8.44645">
        <ele>53.0</ele>
        <time>2019-05-17T13:10:02.178Z</time>
      </trkpt>
      <trkpt lat="39.46996333" lon="-8.44645">
        <ele>53.0</ele>
        <time>2019-05-17T13:10:03.184Z</time>
      </trkpt>
      <trkpt lat="39.46998" lon="-8.44648">
        <ele>53.0</ele>
        <time>2019-05-17T13:10:04.183Z</time>
      </trkpt>
      <trkpt lat="39.46998" lon="-8.44648">
        <ele>53.0</ele>
        <time>2019-05-17T13:10:05.168Z</time>
      </trkpt>
      <trkpt lat="39.47000667" lon="-8.44650667">
        <ele>53.0</ele>
        <time>2019-05-17T13:10:06.191Z</time>
      </trkpt>
      <trkpt lat="39.47002" lon="-8.44652">
        <ele>53.0</ele>
        <time>2019-05-17T13:10:07.160Z</time>
      </trkpt>
      <trkpt lat="39.47003667" lon="-8.44653">
        <ele>53.0</ele>
        <time>2019-05-17T13:10:08.176Z</time>
      </trkpt>
      <trkpt lat="39.47003667" lon="-8.44653">
        <ele>53.0</ele>
        <time>2019-05-17T13:10:09.177Z</time>
      </trkpt>
      <trkpt lat="39.47006167" lon="-8.44655">
        <ele>53.0</ele>
        <time>2019-05-17T13:10:10.166Z</time>
      </trkpt>
      <trkpt lat="39.47006167" lon="-8.44655">
        <ele>53.0</ele>
        <time>2019-05-17T13:10:11.171Z</time>
      </trkpt>
      <trkpt lat="39.470065" lon="-8.446555">
        <ele>53.0</ele>
        <time>2019-05-17T13:10:12.152Z</time>
      </trkpt>
      <trkpt lat="39.470065" lon="-8.446555">
        <ele>53.0</ele>
        <time>2019-05-17T13:10:13.170Z</time>
      </trkpt>
      <trkpt lat="39.47006667" lon="-8.44655167">
        <ele>53.0</ele>
        <time>2019-05-17T13:10:14.175Z</time>
      </trkpt>
      <trkpt lat="39.47006667" lon="-8.44655167">
        <ele>53.0</ele>
        <time>2019-05-17T13:10:15.180Z</time>
      </trkpt>
      <trkpt lat="39.47006667" lon="-8.44655167">
        <ele>53.0</ele>
        <time>2019-05-17T13:10:16.188Z</time>
      </trkpt>
      <trkpt lat="39.47006667" lon="-8.44655167">
        <ele>53.0</ele>
        <time>2019-05-17T13:10:17.155Z</time>
      </trkpt>
      <trkpt lat="39.47006667" lon="-8.44655167">
        <ele>53.0</ele>
        <time>2019-05-17T13:10:18.161Z</time>
      </trkpt>
      <trkpt lat="39.47006667" lon="-8.44655167">
        <ele>53.0</ele>
        <time>2019-05-17T13:10:19.170Z</time>
      </trkpt>
      <trkpt lat="39.47006667" lon="-8.44655167">
        <ele>53.0</ele>
        <time>2019-05-17T13:10:20.168Z</time>
      </trkpt>
      <trkpt lat="39.47006667" lon="-8.44655167">
        <ele>53.0</ele>
        <time>2019-05-17T13:10:21.156Z</time>
      </trkpt>
      <trkpt lat="39.47006667" lon="-8.44655167">
        <ele>53.0</ele>
        <time>2019-05-17T13:10:22.160Z</time>
      </trkpt>
      <trkpt lat="39.47006667" lon="-8.44655167">
        <ele>53.0</ele>
        <time>2019-05-17T13:10:23.155Z</time>
      </trkpt>
      <trkpt lat="39.47006667" lon="-8.44655167">
        <ele>53.0</ele>
        <time>2019-05-17T13:10:24.160Z</time>
      </trkpt>
      <trkpt lat="39.47006667" lon="-8.44655167">
        <ele>53.0</ele>
        <time>2019-05-17T13:10:25.159Z</time>
      </trkpt>
      <trkpt lat="39.47006667" lon="-8.44655167">
        <ele>53.0</ele>
        <time>2019-05-17T13:10:26.157Z</time>
      </trkpt>
      <trkpt lat="39.47006667" lon="-8.44655167">
        <ele>53.0</ele>
        <time>2019-05-17T13:10:27.159Z</time>
      </trkpt>
      <trkpt lat="39.47006667" lon="-8.44655167">
        <ele>53.0</ele>
        <time>2019-05-17T13:10:28.187Z</time>
      </trkpt>
      <trkpt lat="39.47006667" lon="-8.44655167">
        <ele>53.0</ele>
        <time>2019-05-17T13:10:29.173Z</time>
      </trkpt>
      <trkpt lat="39.47006667" lon="-8.44655167">
        <ele>53.0</ele>
        <time>2019-05-17T13:10:30.160Z</time>
      </trkpt>
      <trkpt lat="39.47006667" lon="-8.44655167">
        <ele>53.0</ele>
        <time>2019-05-17T13:10:31.154Z</time>
      </trkpt>
      <trkpt lat="39.47006667" lon="-8.44655167">
        <ele>53.0</ele>
        <time>2019-05-17T13:10:32.162Z</time>
      </trkpt>
      <trkpt lat="39.47006667" lon="-8.44655167">
        <ele>53.0</ele>
        <time>2019-05-17T13:10:33.155Z</time>
      </trkpt>
      <trkpt lat="39.47006667" lon="-8.44655167">
        <ele>53.0</ele>
        <time>2019-05-17T13:10:34.161Z</time>
      </trkpt>
      <trkpt lat="39.47006667" lon="-8.44655167">
        <ele>53.0</ele>
        <time>2019-05-17T13:10:35.160Z</time>
      </trkpt>
      <trkpt lat="39.47006667" lon="-8.44655167">
        <ele>53.0</ele>
        <time>2019-05-17T13:10:36.155Z</time>
      </trkpt>
      <trkpt lat="39.47006667" lon="-8.44655167">
        <ele>53.0</ele>
        <time>2019-05-17T13:10:37.155Z</time>
      </trkpt>
      <trkpt lat="39.47006667" lon="-8.44655167">
        <ele>53.0</ele>
        <time>2019-05-17T13:10:38.182Z</time>
      </trkpt>
      <trkpt lat="39.47006667" lon="-8.44655167">
        <ele>53.0</ele>
        <time>2019-05-17T13:10:39.168Z</time>
      </trkpt>
      <trkpt lat="39.47006667" lon="-8.44655167">
        <ele>53.0</ele>
        <time>2019-05-17T13:10:40.160Z</time>
      </trkpt>
      <trkpt lat="39.47006667" lon="-8.44655167">
        <ele>53.0</ele>
        <time>2019-05-17T13:10:41.155Z</time>
      </trkpt>
      <trkpt lat="39.47006667" lon="-8.44655167">
        <ele>53.0</ele>
        <time>2019-05-17T13:10:42.160Z</time>
      </trkpt>
      <trkpt lat="39.47006667" lon="-8.44655167">
        <ele>53.0</ele>
        <time>2019-05-17T13:10:43.155Z</time>
      </trkpt>
      <trkpt lat="39.47006667" lon="-8.44655167">
        <ele>53.0</ele>
        <time>2019-05-17T13:10:44.161Z</time>
      </trkpt>
      <trkpt lat="39.47006667" lon="-8.44655167">
        <ele>53.0</ele>
        <time>2019-05-17T13:10:45.154Z</time>
      </trkpt>
      <trkpt lat="39.47006667" lon="-8.44655167">
        <ele>53.0</ele>
        <time>2019-05-17T13:10:46.160Z</time>
      </trkpt>
      <trkpt lat="39.47006667" lon="-8.44655167">
        <ele>53.0</ele>
        <time>2019-05-17T13:10:47.153Z</time>
      </trkpt>
      <trkpt lat="39.47006667" lon="-8.44655167">
        <ele>53.0</ele>
        <time>2019-05-17T13:10:48.160Z</time>
      </trkpt>
      <trkpt lat="39.47006667" lon="-8.44655167">
        <ele>53.0</ele>
        <time>2019-05-17T13:10:49.155Z</time>
      </trkpt>
      <trkpt lat="39.47006667" lon="-8.44655167">
        <ele>53.0</ele>
        <time>2019-05-17T13:10:50.160Z</time>
      </trkpt>
      <trkpt lat="39.47006667" lon="-8.44655167">
        <ele>53.0</ele>
        <time>2019-05-17T13:10:51.155Z</time>
      </trkpt>
      <trkpt lat="39.47006667" lon="-8.44655167">
        <ele>53.0</ele>
        <time>2019-05-17T13:10:52.160Z</time>
      </trkpt>
      <trkpt lat="39.47006667" lon="-8.44655167">
        <ele>53.0</ele>
        <time>2019-05-17T13:10:53.160Z</time>
      </trkpt>
      <trkpt lat="39.47006667" lon="-8.44655167">
        <ele>53.0</ele>
        <time>2019-05-17T13:10:54.155Z</time>
      </trkpt>
      <trkpt lat="39.47006667" lon="-8.44655167">
        <ele>53.0</ele>
        <time>2019-05-17T13:10:55.160Z</time>
      </trkpt>
      <trkpt lat="39.47006667" lon="-8.44655167">
        <ele>53.0</ele>
        <time>2019-05-17T13:10:56.161Z</time>
      </trkpt>
      <trkpt lat="39.47006667" lon="-8.44655167">
        <ele>53.0</ele>
        <time>2019-05-17T13:10:57.163Z</time>
      </trkpt>
      <trkpt lat="39.47006667" lon="-8.44655167">
        <ele>53.0</ele>
        <time>2019-05-17T13:10:58.157Z</time>
      </trkpt>
      <trkpt lat="39.47006667" lon="-8.44655167">
        <ele>53.0</ele>
        <time>2019-05-17T13:10:59.159Z</time>
      </trkpt>
      <trkpt lat="39.47006667" lon="-8.44655167">
        <ele>53.0</ele>
        <time>2019-05-17T13:11:00.160Z</time>
      </trkpt>
      <trkpt lat="39.47006667" lon="-8.44655167">
        <ele>53.0</ele>
        <time>2019-05-17T13:11:01.157Z</time>
      </trkpt>
      <trkpt lat="39.47006667" lon="-8.44655167">
        <ele>53.0</ele>
        <time>2019-05-17T13:11:02.165Z</time>
      </trkpt>
      <trkpt lat="39.47006667" lon="-8.44655167">
        <ele>53.0</ele>
        <time>2019-05-17T13:11:03.160Z</time>
      </trkpt>
      <trkpt lat="39.47006667" lon="-8.44655167">
        <ele>53.0</ele>
        <time>2019-05-17T13:11:04.155Z</time>
      </trkpt>
      <trkpt lat="39.47006667" lon="-8.44655167">
        <ele>53.0</ele>
        <time>2019-05-17T13:11:05.158Z</time>
      </trkpt>
      <trkpt lat="39.47006667" lon="-8.44655167">
        <ele>53.0</ele>
        <time>2019-05-17T13:11:06.156Z</time>
      </trkpt>
      <trkpt lat="39.47006667" lon="-8.44655167">
        <ele>53.0</ele>
        <time>2019-05-17T13:11:07.160Z</time>
      </trkpt>
      <trkpt lat="39.47006667" lon="-8.44655167">
        <ele>53.0</ele>
        <time>2019-05-17T13:11:08.163Z</time>
      </trkpt>
      <trkpt lat="39.47006667" lon="-8.44655167">
        <ele>53.0</ele>
        <time>2019-05-17T13:11:09.156Z</time>
      </trkpt>
      <trkpt lat="39.47006667" lon="-8.44655167">
        <ele>53.0</ele>
        <time>2019-05-17T13:11:10.179Z</time>
      </trkpt>
      <trkpt lat="39.470115" lon="-8.44658667">
        <ele>50.0</ele>
        <time>2019-05-17T13:11:11.186Z</time>
      </trkpt>
      <trkpt lat="39.470115" lon="-8.44658667">
        <ele>50.0</ele>
        <time>2019-05-17T13:11:12.155Z</time>
      </trkpt>
      <trkpt lat="39.47013833" lon="-8.44661167">
        <ele>50.0</ele>
        <time>2019-05-17T13:11:13.162Z</time>
      </trkpt>
      <trkpt lat="39.47015333" lon="-8.44662">
        <ele>50.0</ele>
        <time>2019-05-17T13:11:14.162Z</time>
      </trkpt>
      <trkpt lat="39.47015333" lon="-8.44662">
        <ele>50.0</ele>
        <time>2019-05-17T13:11:15.155Z</time>
      </trkpt>
      <trkpt lat="39.47018833" lon="-8.44664167">
        <ele>50.0</ele>
        <time>2019-05-17T13:11:16.150Z</time>
      </trkpt>
      <trkpt lat="39.47018833" lon="-8.44664167">
        <ele>50.0</ele>
        <time>2019-05-17T13:11:17.151Z</time>
      </trkpt>
      <trkpt lat="39.470235" lon="-8.44668333">
        <ele>50.0</ele>
        <time>2019-05-17T13:11:18.177Z</time>
      </trkpt>
      <trkpt lat="39.470235" lon="-8.44668333">
        <ele>50.0</ele>
        <time>2019-05-17T13:11:19.161Z</time>
      </trkpt>
      <trkpt lat="39.470275" lon="-8.44673667">
        <ele>49.0</ele>
        <time>2019-05-17T13:11:20.162Z</time>
      </trkpt>
      <trkpt lat="39.470275" lon="-8.44673667">
        <ele>49.0</ele>
        <time>2019-05-17T13:11:21.167Z</time>
      </trkpt>
      <trkpt lat="39.47031833" lon="-8.44679">
        <ele>49.0</ele>
        <time>2019-05-17T13:11:22.165Z</time>
      </trkpt>
      <trkpt lat="39.47031833" lon="-8.44679">
        <ele>49.0</ele>
        <time>2019-05-17T13:11:23.170Z</time>
      </trkpt>
      <trkpt lat="39.47035667" lon="-8.44684333">
        <ele>49.0</ele>
        <time>2019-05-17T13:11:24.155Z</time>
      </trkpt>
      <trkpt lat="39.47035667" lon="-8.44684333">
        <ele>49.0</ele>
        <time>2019-05-17T13:11:25.160Z</time>
      </trkpt>
      <trkpt lat="39.470395" lon="-8.44690333">
        <ele>49.0</ele>
        <time>2019-05-17T13:11:26.177Z</time>
      </trkpt>
      <trkpt lat="39.470395" lon="-8.44690333">
        <ele>49.0</ele>
        <time>2019-05-17T13:11:27.177Z</time>
      </trkpt>
      <trkpt lat="39.470435" lon="-8.446975">
        <ele>49.0</ele>
        <time>2019-05-17T13:11:28.189Z</time>
      </trkpt>
      <trkpt lat="39.470435" lon="-8.446975">
        <ele>49.0</ele>
        <time>2019-05-17T13:11:29.163Z</time>
      </trkpt>
      <trkpt lat="39.47048333" lon="-8.44705">
        <ele>48.0</ele>
        <time>2019-05-17T13:11:30.189Z</time>
      </trkpt>
      <trkpt lat="39.47048333" lon="-8.44705">
        <ele>48.0</ele>
        <time>2019-05-17T13:11:31.173Z</time>
      </trkpt>
      <trkpt lat="39.470535" lon="-8.44712333">
        <ele>48.0</ele>
        <time>2019-05-17T13:11:32.150Z</time>
      </trkpt>
      <trkpt lat="39.470535" lon="-8.44712333">
        <ele>48.0</ele>
        <time>2019-05-17T13:11:33.175Z</time>
      </trkpt>
      <trkpt lat="39.47058833" lon="-8.447195">
        <ele>48.0</ele>
        <time>2019-05-17T13:11:34.176Z</time>
      </trkpt>
      <trkpt lat="39.47058833" lon="-8.447195">
        <ele>48.0</ele>
        <time>2019-05-17T13:11:35.154Z</time>
      </trkpt>
      <trkpt lat="39.47063833" lon="-8.44726833">
        <ele>48.0</ele>
        <time>2019-05-17T13:11:36.164Z</time>
      </trkpt>
      <trkpt lat="39.47066333" lon="-8.44730333">
        <ele>47.0</ele>
        <time>2019-05-17T13:11:37.165Z</time>
      </trkpt>
      <trkpt lat="39.47068833" lon="-8.44733833">
        <ele>47.0</ele>
        <time>2019-05-17T13:11:38.165Z</time>
      </trkpt>
      <trkpt lat="39.47068833" lon="-8.44733833">
        <ele>47.0</ele>
        <time>2019-05-17T13:11:39.183Z</time>
      </trkpt>
      <trkpt lat="39.47073333" lon="-8.44740833">
        <ele>47.0</ele>
        <time>2019-05-17T13:11:40.178Z</time>
      </trkpt>
      <trkpt lat="39.47073333" lon="-8.44740833">
        <ele>47.0</ele>
        <time>2019-05-17T13:11:41.170Z</time>
      </trkpt>
      <trkpt lat="39.47077667" lon="-8.44747">
        <ele>48.0</ele>
        <time>2019-05-17T13:11:42.157Z</time>
      </trkpt>
      <trkpt lat="39.47079667" lon="-8.44750167">
        <ele>48.0</ele>
        <time>2019-05-17T13:11:43.174Z</time>
      </trkpt>
      <trkpt lat="39.47081833" lon="-8.44753333">
        <ele>47.0</ele>
        <time>2019-05-17T13:11:44.173Z</time>
      </trkpt>
      <trkpt lat="39.47081833" lon="-8.44753333">
        <ele>47.0</ele>
        <time>2019-05-17T13:11:45.161Z</time>
      </trkpt>
      <trkpt lat="39.47086333" lon="-8.447595">
        <ele>47.0</ele>
        <time>2019-05-17T13:11:46.156Z</time>
      </trkpt>
      <trkpt lat="39.47086333" lon="-8.447595">
        <ele>47.0</ele>
        <time>2019-05-17T13:11:47.172Z</time>
      </trkpt>
      <trkpt lat="39.47091" lon="-8.44765667">
        <ele>47.0</ele>
        <time>2019-05-17T13:11:48.167Z</time>
      </trkpt>
      <trkpt lat="39.47091" lon="-8.44765667">
        <ele>47.0</ele>
        <time>2019-05-17T13:11:49.156Z</time>
      </trkpt>
      <trkpt lat="39.470955" lon="-8.44772333">
        <ele>48.0</ele>
        <time>2019-05-17T13:11:50.187Z</time>
      </trkpt>
      <trkpt lat="39.470955" lon="-8.44772333">
        <ele>48.0</ele>
        <time>2019-05-17T13:11:51.186Z</time>
      </trkpt>
      <trkpt lat="39.47099667" lon="-8.44778333">
        <ele>48.0</ele>
        <time>2019-05-17T13:11:52.186Z</time>
      </trkpt>
      <trkpt lat="39.47099667" lon="-8.44778333">
        <ele>48.0</ele>
        <time>2019-05-17T13:11:53.176Z</time>
      </trkpt>
      <trkpt lat="39.47103667" lon="-8.44784333">
        <ele>48.0</ele>
        <time>2019-05-17T13:11:54.176Z</time>
      </trkpt>
      <trkpt lat="39.47103667" lon="-8.44784333">
        <ele>48.0</ele>
        <time>2019-05-17T13:11:55.187Z</time>
      </trkpt>
      <trkpt lat="39.47108" lon="-8.447905">
        <ele>48.0</ele>
        <time>2019-05-17T13:11:56.167Z</time>
      </trkpt>
      <trkpt lat="39.47108" lon="-8.447905">
        <ele>48.0</ele>
        <time>2019-05-17T13:11:57.165Z</time>
      </trkpt>
      <trkpt lat="39.471125" lon="-8.44796833">
        <ele>48.0</ele>
        <time>2019-05-17T13:11:58.175Z</time>
      </trkpt>
      <trkpt lat="39.47114667" lon="-8.448">
        <ele>48.0</ele>
        <time>2019-05-17T13:11:59.166Z</time>
      </trkpt>
      <trkpt lat="39.47114667" lon="-8.448">
        <ele>48.0</ele>
        <time>2019-05-17T13:12:00.175Z</time>
      </trkpt>
      <trkpt lat="39.47119167" lon="-8.448065">
        <ele>48.0</ele>
        <time>2019-05-17T13:12:01.157Z</time>
      </trkpt>
      <trkpt lat="39.471215" lon="-8.448095">
        <ele>49.0</ele>
        <time>2019-05-17T13:12:02.185Z</time>
      </trkpt>
      <trkpt lat="39.471215" lon="-8.448095">
        <ele>49.0</ele>
        <time>2019-05-17T13:12:03.162Z</time>
      </trkpt>
      <trkpt lat="39.47126" lon="-8.44815667">
        <ele>49.0</ele>
        <time>2019-05-17T13:12:04.155Z</time>
      </trkpt>
      <trkpt lat="39.47126" lon="-8.44815667">
        <ele>49.0</ele>
        <time>2019-05-17T13:12:05.160Z</time>
      </trkpt>
      <trkpt lat="39.47130833" lon="-8.44821833">
        <ele>49.0</ele>
        <time>2019-05-17T13:12:06.155Z</time>
      </trkpt>
      <trkpt lat="39.47133167" lon="-8.44824833">
        <ele>49.0</ele>
        <time>2019-05-17T13:12:07.164Z</time>
      </trkpt>
      <trkpt lat="39.471355" lon="-8.44827833">
        <ele>49.0</ele>
        <time>2019-05-17T13:12:08.164Z</time>
      </trkpt>
      <trkpt lat="39.471355" lon="-8.44827833">
        <ele>49.0</ele>
        <time>2019-05-17T13:12:09.150Z</time>
      </trkpt>
      <trkpt lat="39.4714" lon="-8.44834">
        <ele>49.0</ele>
        <time>2019-05-17T13:12:10.178Z</time>
      </trkpt>
      <trkpt lat="39.4714" lon="-8.44834">
        <ele>49.0</ele>
        <time>2019-05-17T13:12:11.151Z</time>
      </trkpt>
      <trkpt lat="39.47144333" lon="-8.4484">
        <ele>49.0</ele>
        <time>2019-05-17T13:12:12.188Z</time>
      </trkpt>
      <trkpt lat="39.47144333" lon="-8.4484">
        <ele>49.0</ele>
        <time>2019-05-17T13:12:13.154Z</time>
      </trkpt>
      <trkpt lat="39.47149" lon="-8.44845667">
        <ele>49.0</ele>
        <time>2019-05-17T13:12:14.162Z</time>
      </trkpt>
      <trkpt lat="39.47149" lon="-8.44845667">
        <ele>49.0</ele>
        <time>2019-05-17T13:12:15.168Z</time>
      </trkpt>
      <trkpt lat="39.471535" lon="-8.448515">
        <ele>49.0</ele>
        <time>2019-05-17T13:12:16.174Z</time>
      </trkpt>
      <trkpt lat="39.471535" lon="-8.448515">
        <ele>49.0</ele>
        <time>2019-05-17T13:12:17.179Z</time>
      </trkpt>
      <trkpt lat="39.47158" lon="-8.44857">
        <ele>49.0</ele>
        <time>2019-05-17T13:12:18.158Z</time>
      </trkpt>
      <trkpt lat="39.47160167" lon="-8.44859833">
        <ele>49.0</ele>
        <time>2019-05-17T13:12:19.195Z</time>
      </trkpt>
      <trkpt lat="39.47162333" lon="-8.44862833">
        <ele>49.0</ele>
        <time>2019-05-17T13:12:20.189Z</time>
      </trkpt>
      <trkpt lat="39.47162333" lon="-8.44862833">
        <ele>49.0</ele>
        <time>2019-05-17T13:12:21.154Z</time>
      </trkpt>
      <trkpt lat="39.47166833" lon="-8.44868667">
        <ele>50.0</ele>
        <time>2019-05-17T13:12:22.155Z</time>
      </trkpt>
      <trkpt lat="39.47166833" lon="-8.44868667">
        <ele>50.0</ele>
        <time>2019-05-17T13:12:23.164Z</time>
      </trkpt>
      <trkpt lat="39.47171667" lon="-8.448745">
        <ele>49.0</ele>
        <time>2019-05-17T13:12:24.193Z</time>
      </trkpt>
      <trkpt lat="39.47171667" lon="-8.448745">
        <ele>49.0</ele>
        <time>2019-05-17T13:12:25.178Z</time>
      </trkpt>
      <trkpt lat="39.47176167" lon="-8.448805">
        <ele>49.0</ele>
        <time>2019-05-17T13:12:26.178Z</time>
      </trkpt>
      <trkpt lat="39.47176167" lon="-8.448805">
        <ele>49.0</ele>
        <time>2019-05-17T13:12:27.156Z</time>
      </trkpt>
      <trkpt lat="39.47180667" lon="-8.44886333">
        <ele>49.0</ele>
        <time>2019-05-17T13:12:28.183Z</time>
      </trkpt>
      <trkpt lat="39.47180667" lon="-8.44886333">
        <ele>49.0</ele>
        <time>2019-05-17T13:12:29.172Z</time>
      </trkpt>
      <trkpt lat="39.47184833" lon="-8.44892">
        <ele>50.0</ele>
        <time>2019-05-17T13:12:30.165Z</time>
      </trkpt>
      <trkpt lat="39.47187" lon="-8.44894833">
        <ele>50.0</ele>
        <time>2019-05-17T13:12:31.151Z</time>
      </trkpt>
      <trkpt lat="39.47189167" lon="-8.44897667">
        <ele>50.0</ele>
        <time>2019-05-17T13:12:32.181Z</time>
      </trkpt>
      <trkpt lat="39.47189167" lon="-8.44897667">
        <ele>50.0</ele>
        <time>2019-05-17T13:12:33.170Z</time>
      </trkpt>
      <trkpt lat="39.471935" lon="-8.44903">
        <ele>50.0</ele>
        <time>2019-05-17T13:12:34.160Z</time>
      </trkpt>
      <trkpt lat="39.471935" lon="-8.44903">
        <ele>50.0</ele>
        <time>2019-05-17T13:12:35.167Z</time>
      </trkpt>
      <trkpt lat="39.47197667" lon="-8.449085">
        <ele>50.0</ele>
        <time>2019-05-17T13:12:36.161Z</time>
      </trkpt>
      <trkpt lat="39.47197667" lon="-8.449085">
        <ele>50.0</ele>
        <time>2019-05-17T13:12:37.166Z</time>
      </trkpt>
      <trkpt lat="39.472015" lon="-8.449145">
        <ele>51.0</ele>
        <time>2019-05-17T13:12:38.164Z</time>
      </trkpt>
      <trkpt lat="39.47203333" lon="-8.44917667">
        <ele>51.0</ele>
        <time>2019-05-17T13:12:39.176Z</time>
      </trkpt>
      <trkpt lat="39.47203333" lon="-8.44917667">
        <ele>51.0</ele>
        <time>2019-05-17T13:12:40.152Z</time>
      </trkpt>
      <trkpt lat="39.47207" lon="-8.44924">
        <ele>51.0</ele>
        <time>2019-05-17T13:12:41.193Z</time>
      </trkpt>
      <trkpt lat="39.47207" lon="-8.44924">
        <ele>51.0</ele>
        <time>2019-05-17T13:12:42.166Z</time>
      </trkpt>
      <trkpt lat="39.47210833" lon="-8.449305">
        <ele>51.0</ele>
        <time>2019-05-17T13:12:43.175Z</time>
      </trkpt>
      <trkpt lat="39.47212833" lon="-8.44933667">
        <ele>51.0</ele>
        <time>2019-05-17T13:12:44.168Z</time>
      </trkpt>
      <trkpt lat="39.47212833" lon="-8.44933667">
        <ele>51.0</ele>
        <time>2019-05-17T13:12:45.187Z</time>
      </trkpt>
      <trkpt lat="39.47216833" lon="-8.44940167">
        <ele>50.0</ele>
        <time>2019-05-17T13:12:46.155Z</time>
      </trkpt>
      <trkpt lat="39.47216833" lon="-8.44940167">
        <ele>50.0</ele>
        <time>2019-05-17T13:12:47.165Z</time>
      </trkpt>
      <trkpt lat="39.472205" lon="-8.44947167">
        <ele>51.0</ele>
        <time>2019-05-17T13:12:48.158Z</time>
      </trkpt>
      <trkpt lat="39.472205" lon="-8.44947167">
        <ele>51.0</ele>
        <time>2019-05-17T13:12:49.165Z</time>
      </trkpt>
      <trkpt lat="39.47224667" lon="-8.44955167">
        <ele>50.0</ele>
        <time>2019-05-17T13:12:50.165Z</time>
      </trkpt>
      <trkpt lat="39.47224667" lon="-8.44955167">
        <ele>50.0</ele>
        <time>2019-05-17T13:12:51.163Z</time>
      </trkpt>
      <trkpt lat="39.472285" lon="-8.44962667">
        <ele>50.0</ele>
        <time>2019-05-17T13:12:52.154Z</time>
      </trkpt>
      <trkpt lat="39.472285" lon="-8.44962667">
        <ele>50.0</ele>
        <time>2019-05-17T13:12:53.165Z</time>
      </trkpt>
      <trkpt lat="39.47232333" lon="-8.44970167">
        <ele>50.0</ele>
        <time>2019-05-17T13:12:54.160Z</time>
      </trkpt>
      <trkpt lat="39.47232333" lon="-8.44970167">
        <ele>50.0</ele>
        <time>2019-05-17T13:12:55.165Z</time>
      </trkpt>
      <trkpt lat="39.472365" lon="-8.44977667">
        <ele>50.0</ele>
        <time>2019-05-17T13:12:56.161Z</time>
      </trkpt>
      <trkpt lat="39.47238667" lon="-8.449815">
        <ele>49.0</ele>
        <time>2019-05-17T13:12:57.156Z</time>
      </trkpt>
      <trkpt lat="39.47238667" lon="-8.449815">
        <ele>49.0</ele>
        <time>2019-05-17T13:12:58.165Z</time>
      </trkpt>
      <trkpt lat="39.47243167" lon="-8.44989167">
        <ele>49.0</ele>
        <time>2019-05-17T13:12:59.169Z</time>
      </trkpt>
      <trkpt lat="39.47243167" lon="-8.44989167">
        <ele>49.0</ele>
        <time>2019-05-17T13:13:00.175Z</time>
      </trkpt>
      <trkpt lat="39.472475" lon="-8.44996667">
        <ele>49.0</ele>
        <time>2019-05-17T13:13:01.176Z</time>
      </trkpt>
      <trkpt lat="39.47249833" lon="-8.45000667">
        <ele>48.0</ele>
        <time>2019-05-17T13:13:02.155Z</time>
      </trkpt>
      <trkpt lat="39.47249833" lon="-8.45000667">
        <ele>48.0</ele>
        <time>2019-05-17T13:13:03.174Z</time>
      </trkpt>
      <trkpt lat="39.47253833" lon="-8.45008333">
        <ele>48.0</ele>
        <time>2019-05-17T13:13:04.165Z</time>
      </trkpt>
      <trkpt lat="39.47253833" lon="-8.45008333">
        <ele>48.0</ele>
        <time>2019-05-17T13:13:05.174Z</time>
      </trkpt>
      <trkpt lat="39.47258333" lon="-8.45016">
        <ele>48.0</ele>
        <time>2019-05-17T13:13:06.175Z</time>
      </trkpt>
      <trkpt lat="39.47258333" lon="-8.45016">
        <ele>48.0</ele>
        <time>2019-05-17T13:13:07.181Z</time>
      </trkpt>
      <trkpt lat="39.47263" lon="-8.45024167">
        <ele>48.0</ele>
        <time>2019-05-17T13:13:08.178Z</time>
      </trkpt>
      <trkpt lat="39.47263" lon="-8.45024167">
        <ele>48.0</ele>
        <time>2019-05-17T13:13:09.178Z</time>
      </trkpt>
      <trkpt lat="39.47268" lon="-8.45033">
        <ele>48.0</ele>
        <time>2019-05-17T13:13:10.175Z</time>
      </trkpt>
      <trkpt lat="39.47268" lon="-8.45033">
        <ele>48.0</ele>
        <time>2019-05-17T13:13:11.181Z</time>
      </trkpt>
      <trkpt lat="39.47273" lon="-8.45041333">
        <ele>47.0</ele>
        <time>2019-05-17T13:13:12.172Z</time>
      </trkpt>
      <trkpt lat="39.47273" lon="-8.45041333">
        <ele>47.0</ele>
        <time>2019-05-17T13:13:13.178Z</time>
      </trkpt>
      <trkpt lat="39.47278" lon="-8.45049167">
        <ele>47.0</ele>
        <time>2019-05-17T13:13:14.175Z</time>
      </trkpt>
      <trkpt lat="39.47278" lon="-8.45049167">
        <ele>47.0</ele>
        <time>2019-05-17T13:13:15.152Z</time>
      </trkpt>
      <trkpt lat="39.47283167" lon="-8.450565">
        <ele>47.0</ele>
        <time>2019-05-17T13:13:16.182Z</time>
      </trkpt>
      <trkpt lat="39.47283167" lon="-8.450565">
        <ele>47.0</ele>
        <time>2019-05-17T13:13:17.151Z</time>
      </trkpt>
      <trkpt lat="39.47287833" lon="-8.45063">
        <ele>47.0</ele>
        <time>2019-05-17T13:13:18.185Z</time>
      </trkpt>
      <trkpt lat="39.47287833" lon="-8.45063">
        <ele>47.0</ele>
        <time>2019-05-17T13:13:19.150Z</time>
      </trkpt>
      <trkpt lat="39.47292667" lon="-8.45068833">
        <ele>47.0</ele>
        <time>2019-05-17T13:13:20.174Z</time>
      </trkpt>
      <trkpt lat="39.47292667" lon="-8.45068833">
        <ele>47.0</ele>
        <time>2019-05-17T13:13:21.154Z</time>
      </trkpt>
      <trkpt lat="39.472975" lon="-8.45074167">
        <ele>47.0</ele>
        <time>2019-05-17T13:13:22.152Z</time>
      </trkpt>
      <trkpt lat="39.472975" lon="-8.45074167">
        <ele>47.0</ele>
        <time>2019-05-17T13:13:23.160Z</time>
      </trkpt>
      <trkpt lat="39.47302667" lon="-8.45079167">
        <ele>47.0</ele>
        <time>2019-05-17T13:13:24.155Z</time>
      </trkpt>
      <trkpt lat="39.47305167" lon="-8.45081333">
        <ele>48.0</ele>
        <time>2019-05-17T13:13:25.175Z</time>
      </trkpt>
      <trkpt lat="39.47307667" lon="-8.450835">
        <ele>48.0</ele>
        <time>2019-05-17T13:13:26.175Z</time>
      </trkpt>
      <trkpt lat="39.47307667" lon="-8.450835">
        <ele>48.0</ele>
        <time>2019-05-17T13:13:27.180Z</time>
      </trkpt>
      <trkpt lat="39.47313" lon="-8.45087667">
        <ele>48.0</ele>
        <time>2019-05-17T13:13:28.188Z</time>
      </trkpt>
      <trkpt lat="39.47313" lon="-8.45087667">
        <ele>48.0</ele>
        <time>2019-05-17T13:13:29.153Z</time>
      </trkpt>
      <trkpt lat="39.47318" lon="-8.45091667">
        <ele>48.0</ele>
        <time>2019-05-17T13:13:30.180Z</time>
      </trkpt>
      <trkpt lat="39.47318" lon="-8.45091667">
        <ele>48.0</ele>
        <time>2019-05-17T13:13:31.165Z</time>
      </trkpt>
      <trkpt lat="39.47322667" lon="-8.45095833">
        <ele>48.0</ele>
        <time>2019-05-17T13:13:32.153Z</time>
      </trkpt>
      <trkpt lat="39.47322667" lon="-8.45095833">
        <ele>48.0</ele>
        <time>2019-05-17T13:13:33.178Z</time>
      </trkpt>
      <trkpt lat="39.47327333" lon="-8.45099833">
        <ele>48.0</ele>
        <time>2019-05-17T13:13:34.187Z</time>
      </trkpt>
      <trkpt lat="39.47327333" lon="-8.45099833">
        <ele>48.0</ele>
        <time>2019-05-17T13:13:35.152Z</time>
      </trkpt>
      <trkpt lat="39.473325" lon="-8.45103667">
        <ele>48.0</ele>
        <time>2019-05-17T13:13:36.165Z</time>
      </trkpt>
      <trkpt lat="39.473325" lon="-8.45103667">
        <ele>48.0</ele>
        <time>2019-05-17T13:13:37.178Z</time>
      </trkpt>
      <trkpt lat="39.473375" lon="-8.45107333">
        <ele>48.0</ele>
        <time>2019-05-17T13:13:38.185Z</time>
      </trkpt>
      <trkpt lat="39.473375" lon="-8.45107333">
        <ele>48.0</ele>
        <time>2019-05-17T13:13:39.150Z</time>
      </trkpt>
      <trkpt lat="39.47342333" lon="-8.45111">
        <ele>49.0</ele>
        <time>2019-05-17T13:13:40.185Z</time>
      </trkpt>
      <trkpt lat="39.47342333" lon="-8.45111">
        <ele>49.0</ele>
        <time>2019-05-17T13:13:41.150Z</time>
      </trkpt>
      <trkpt lat="39.47347333" lon="-8.45114333">
        <ele>49.0</ele>
        <time>2019-05-17T13:13:42.188Z</time>
      </trkpt>
      <trkpt lat="39.47347333" lon="-8.45114333">
        <ele>49.0</ele>
        <time>2019-05-17T13:13:43.153Z</time>
      </trkpt>
      <trkpt lat="39.473525" lon="-8.45117333">
        <ele>49.0</ele>
        <time>2019-05-17T13:13:44.161Z</time>
      </trkpt>
      <trkpt lat="39.473525" lon="-8.45117333">
        <ele>49.0</ele>
        <time>2019-05-17T13:13:45.171Z</time>
      </trkpt>
      <trkpt lat="39.47357833" lon="-8.451205">
        <ele>48.0</ele>
        <time>2019-05-17T13:13:46.175Z</time>
      </trkpt>
      <trkpt lat="39.47357833" lon="-8.451205">
        <ele>48.0</ele>
        <time>2019-05-17T13:13:47.160Z</time>
      </trkpt>
      <trkpt lat="39.47362667" lon="-8.45123667">
        <ele>48.0</ele>
        <time>2019-05-17T13:13:48.150Z</time>
      </trkpt>
      <trkpt lat="39.47362667" lon="-8.45123667">
        <ele>48.0</ele>
        <time>2019-05-17T13:13:49.168Z</time>
      </trkpt>
      <trkpt lat="39.47367333" lon="-8.45125667">
        <ele>49.0</ele>
        <time>2019-05-17T13:13:50.155Z</time>
      </trkpt>
      <trkpt lat="39.47367333" lon="-8.45125667">
        <ele>49.0</ele>
        <time>2019-05-17T13:13:51.159Z</time>
      </trkpt>
      <trkpt lat="39.47371333" lon="-8.45128">
        <ele>49.0</ele>
        <time>2019-05-17T13:13:52.188Z</time>
      </trkpt>
      <trkpt lat="39.47371333" lon="-8.45128">
        <ele>49.0</ele>
        <time>2019-05-17T13:13:53.153Z</time>
      </trkpt>
      <trkpt lat="39.47375833" lon="-8.45130333">
        <ele>49.0</ele>
        <time>2019-05-17T13:13:54.158Z</time>
      </trkpt>
      <trkpt lat="39.47375833" lon="-8.45130333">
        <ele>49.0</ele>
        <time>2019-05-17T13:13:55.163Z</time>
      </trkpt>
      <trkpt lat="39.47380833" lon="-8.45132667">
        <ele>50.0</ele>
        <time>2019-05-17T13:13:56.185Z</time>
      </trkpt>
      <trkpt lat="39.47380833" lon="-8.45132667">
        <ele>50.0</ele>
        <time>2019-05-17T13:13:57.152Z</time>
      </trkpt>
      <trkpt lat="39.47386167" lon="-8.45135333">
        <ele>50.0</ele>
        <time>2019-05-17T13:13:58.188Z</time>
      </trkpt>
      <trkpt lat="39.47388833" lon="-8.45136833">
        <ele>50.0</ele>
        <time>2019-05-17T13:13:59.165Z</time>
      </trkpt>
      <trkpt lat="39.47388833" lon="-8.45136833">
        <ele>50.0</ele>
        <time>2019-05-17T13:14:00.161Z</time>
      </trkpt>
      <trkpt lat="39.473935" lon="-8.45139833">
        <ele>50.0</ele>
        <time>2019-05-17T13:14:01.180Z</time>
      </trkpt>
      <trkpt lat="39.473955" lon="-8.45140833">
        <ele>51.0</ele>
        <time>2019-05-17T13:14:02.150Z</time>
      </trkpt>
      <trkpt lat="39.473955" lon="-8.45140833">
        <ele>51.0</ele>
        <time>2019-05-17T13:14:03.165Z</time>
      </trkpt>
      <trkpt lat="39.474" lon="-8.451435">
        <ele>51.0</ele>
        <time>2019-05-17T13:14:04.174Z</time>
      </trkpt>
      <trkpt lat="39.474" lon="-8.451435">
        <ele>51.0</ele>
        <time>2019-05-17T13:14:05.181Z</time>
      </trkpt>
      <trkpt lat="39.47404667" lon="-8.451465">
        <ele>51.0</ele>
        <time>2019-05-17T13:14:06.155Z</time>
      </trkpt>
      <trkpt lat="39.47404667" lon="-8.451465">
        <ele>51.0</ele>
        <time>2019-05-17T13:14:07.187Z</time>
      </trkpt>
      <trkpt lat="39.474095" lon="-8.45149333">
        <ele>51.0</ele>
        <time>2019-05-17T13:14:08.168Z</time>
      </trkpt>
      <trkpt lat="39.474095" lon="-8.45149333">
        <ele>51.0</ele>
        <time>2019-05-17T13:14:09.167Z</time>
      </trkpt>
      <trkpt lat="39.47414833" lon="-8.45151833">
        <ele>51.0</ele>
        <time>2019-05-17T13:14:10.165Z</time>
      </trkpt>
      <trkpt lat="39.47414833" lon="-8.45151833">
        <ele>51.0</ele>
        <time>2019-05-17T13:14:11.151Z</time>
      </trkpt>
      <trkpt lat="39.47420333" lon="-8.45154833">
        <ele>51.0</ele>
        <time>2019-05-17T13:14:12.155Z</time>
      </trkpt>
      <trkpt lat="39.47420333" lon="-8.45154833">
        <ele>51.0</ele>
        <time>2019-05-17T13:14:13.169Z</time>
      </trkpt>
      <trkpt lat="39.47425333" lon="-8.45158333">
        <ele>51.0</ele>
        <time>2019-05-17T13:14:14.155Z</time>
      </trkpt>
      <trkpt lat="39.47425333" lon="-8.45158333">
        <ele>51.0</ele>
        <time>2019-05-17T13:14:15.176Z</time>
      </trkpt>
      <trkpt lat="39.47430833" lon="-8.45160667">
        <ele>52.0</ele>
        <time>2019-05-17T13:14:16.181Z</time>
      </trkpt>
      <trkpt lat="39.47430833" lon="-8.45160667">
        <ele>52.0</ele>
        <time>2019-05-17T13:14:17.187Z</time>
      </trkpt>
      <trkpt lat="39.47436833" lon="-8.451635">
        <ele>52.0</ele>
        <time>2019-05-17T13:14:18.179Z</time>
      </trkpt>
      <trkpt lat="39.47436833" lon="-8.451635">
        <ele>52.0</ele>
        <time>2019-05-17T13:14:19.160Z</time>
      </trkpt>
      <trkpt lat="39.474425" lon="-8.451665">
        <ele>52.0</ele>
        <time>2019-05-17T13:14:20.166Z</time>
      </trkpt>
      <trkpt lat="39.474425" lon="-8.451665">
        <ele>52.0</ele>
        <time>2019-05-17T13:14:21.184Z</time>
      </trkpt>
      <trkpt lat="39.47448" lon="-8.45169833">
        <ele>52.0</ele>
        <time>2019-05-17T13:14:22.190Z</time>
      </trkpt>
      <trkpt lat="39.47448" lon="-8.45169833">
        <ele>52.0</ele>
        <time>2019-05-17T13:14:23.171Z</time>
      </trkpt>
      <trkpt lat="39.47453667" lon="-8.45172833">
        <ele>52.0</ele>
        <time>2019-05-17T13:14:24.154Z</time>
      </trkpt>
      <trkpt lat="39.47456333" lon="-8.45174167">
        <ele>52.0</ele>
        <time>2019-05-17T13:14:25.155Z</time>
      </trkpt>
      <trkpt lat="39.47459167" lon="-8.451755">
        <ele>52.0</ele>
        <time>2019-05-17T13:14:26.169Z</time>
      </trkpt>
      <trkpt lat="39.47459167" lon="-8.451755">
        <ele>52.0</ele>
        <time>2019-05-17T13:14:27.175Z</time>
      </trkpt>
      <trkpt lat="39.47465167" lon="-8.451785">
        <ele>52.0</ele>
        <time>2019-05-17T13:14:28.175Z</time>
      </trkpt>
      <trkpt lat="39.47465167" lon="-8.451785">
        <ele>52.0</ele>
        <time>2019-05-17T13:14:29.155Z</time>
      </trkpt>
      <trkpt lat="39.47470833" lon="-8.45182167">
        <ele>52.0</ele>
        <time>2019-05-17T13:14:30.155Z</time>
      </trkpt>
      <trkpt lat="39.47470833" lon="-8.45182167">
        <ele>52.0</ele>
        <time>2019-05-17T13:14:31.166Z</time>
      </trkpt>
      <trkpt lat="39.47477167" lon="-8.45185333">
        <ele>52.0</ele>
        <time>2019-05-17T13:14:32.159Z</time>
      </trkpt>
      <trkpt lat="39.47477167" lon="-8.45185333">
        <ele>52.0</ele>
        <time>2019-05-17T13:14:33.166Z</time>
      </trkpt>
      <trkpt lat="39.474835" lon="-8.45188167">
        <ele>51.0</ele>
        <time>2019-05-17T13:14:34.154Z</time>
      </trkpt>
      <trkpt lat="39.474835" lon="-8.45188167">
        <ele>51.0</ele>
        <time>2019-05-17T13:14:35.159Z</time>
      </trkpt>
      <trkpt lat="39.474895" lon="-8.45191">
        <ele>51.0</ele>
        <time>2019-05-17T13:14:36.159Z</time>
      </trkpt>
      <trkpt lat="39.474895" lon="-8.45191">
        <ele>51.0</ele>
        <time>2019-05-17T13:14:37.164Z</time>
      </trkpt>
      <trkpt lat="39.47495667" lon="-8.45193333">
        <ele>51.0</ele>
        <time>2019-05-17T13:14:38.159Z</time>
      </trkpt>
      <trkpt lat="39.47495667" lon="-8.45193333">
        <ele>51.0</ele>
        <time>2019-05-17T13:14:39.166Z</time>
      </trkpt>
      <trkpt lat="39.47502" lon="-8.45195167">
        <ele>51.0</ele>
        <time>2019-05-17T13:14:40.184Z</time>
      </trkpt>
      <trkpt lat="39.47502" lon="-8.45195167">
        <ele>51.0</ele>
        <time>2019-05-17T13:14:41.166Z</time>
      </trkpt>
      <trkpt lat="39.47508" lon="-8.45196667">
        <ele>51.0</ele>
        <time>2019-05-17T13:14:42.160Z</time>
      </trkpt>
      <trkpt lat="39.47508" lon="-8.45196667">
        <ele>51.0</ele>
        <time>2019-05-17T13:14:43.165Z</time>
      </trkpt>
      <trkpt lat="39.47513833" lon="-8.451975">
        <ele>52.0</ele>
        <time>2019-05-17T13:14:44.163Z</time>
      </trkpt>
      <trkpt lat="39.47513833" lon="-8.451975">
        <ele>52.0</ele>
        <time>2019-05-17T13:14:45.157Z</time>
      </trkpt>
      <trkpt lat="39.47519833" lon="-8.45198833">
        <ele>52.0</ele>
        <time>2019-05-17T13:14:46.160Z</time>
      </trkpt>
      <trkpt lat="39.47519833" lon="-8.45198833">
        <ele>52.0</ele>
        <time>2019-05-17T13:14:47.165Z</time>
      </trkpt>
      <trkpt lat="39.47526167" lon="-8.45199667">
        <ele>52.0</ele>
        <time>2019-05-17T13:14:48.159Z</time>
      </trkpt>
      <trkpt lat="39.475295" lon="-8.45199833">
        <ele>52.0</ele>
        <time>2019-05-17T13:14:49.152Z</time>
      </trkpt>
      <trkpt lat="39.47532667" lon="-8.45200167">
        <ele>52.0</ele>
        <time>2019-05-17T13:14:50.180Z</time>
      </trkpt>
      <trkpt lat="39.47532667" lon="-8.45200167">
        <ele>52.0</ele>
        <time>2019-05-17T13:14:51.188Z</time>
      </trkpt>
      <trkpt lat="39.47539667" lon="-8.45201">
        <ele>52.0</ele>
        <time>2019-05-17T13:14:52.151Z</time>
      </trkpt>
      <trkpt lat="39.47539667" lon="-8.45201">
        <ele>52.0</ele>
        <time>2019-05-17T13:14:53.156Z</time>
      </trkpt>
      <trkpt lat="39.47546" lon="-8.45201167">
        <ele>51.0</ele>
        <time>2019-05-17T13:14:54.175Z</time>
      </trkpt>
      <trkpt lat="39.47546" lon="-8.45201167">
        <ele>51.0</ele>
        <time>2019-05-17T13:14:55.157Z</time>
      </trkpt>
      <trkpt lat="39.47552" lon="-8.45201333">
        <ele>51.0</ele>
        <time>2019-05-17T13:14:56.159Z</time>
      </trkpt>
      <trkpt lat="39.47552" lon="-8.45201333">
        <ele>51.0</ele>
        <time>2019-05-17T13:14:57.174Z</time>
      </trkpt>
      <trkpt lat="39.47558" lon="-8.45201833">
        <ele>51.0</ele>
        <time>2019-05-17T13:14:58.185Z</time>
      </trkpt>
      <trkpt lat="39.47558" lon="-8.45201833">
        <ele>51.0</ele>
        <time>2019-05-17T13:14:59.152Z</time>
      </trkpt>
      <trkpt lat="39.47564" lon="-8.45202333">
        <ele>51.0</ele>
        <time>2019-05-17T13:15:00.165Z</time>
      </trkpt>
      <trkpt lat="39.47564" lon="-8.45202333">
        <ele>51.0</ele>
        <time>2019-05-17T13:15:01.172Z</time>
      </trkpt>
      <trkpt lat="39.47570167" lon="-8.45203">
        <ele>51.0</ele>
        <time>2019-05-17T13:15:02.172Z</time>
      </trkpt>
      <trkpt lat="39.47570167" lon="-8.45203">
        <ele>51.0</ele>
        <time>2019-05-17T13:15:03.177Z</time>
      </trkpt>
      <trkpt lat="39.47576667" lon="-8.452035">
        <ele>51.0</ele>
        <time>2019-05-17T13:15:04.174Z</time>
      </trkpt>
      <trkpt lat="39.47576667" lon="-8.452035">
        <ele>51.0</ele>
        <time>2019-05-17T13:15:05.184Z</time>
      </trkpt>
      <trkpt lat="39.47583167" lon="-8.45204333">
        <ele>50.0</ele>
        <time>2019-05-17T13:15:06.175Z</time>
      </trkpt>
      <trkpt lat="39.47583167" lon="-8.45204333">
        <ele>50.0</ele>
        <time>2019-05-17T13:15:07.158Z</time>
      </trkpt>
      <trkpt lat="39.47589333" lon="-8.45204667">
        <ele>50.0</ele>
        <time>2019-05-17T13:15:08.168Z</time>
      </trkpt>
      <trkpt lat="39.47589333" lon="-8.45204667">
        <ele>50.0</ele>
        <time>2019-05-17T13:15:09.177Z</time>
      </trkpt>
      <trkpt lat="39.47595167" lon="-8.45205167">
        <ele>50.0</ele>
        <time>2019-05-17T13:15:10.168Z</time>
      </trkpt>
      <trkpt lat="39.47595167" lon="-8.45205167">
        <ele>50.0</ele>
        <time>2019-05-17T13:15:11.184Z</time>
      </trkpt>
      <trkpt lat="39.476005" lon="-8.45205667">
        <ele>50.0</ele>
        <time>2019-05-17T13:15:12.192Z</time>
      </trkpt>
      <trkpt lat="39.476005" lon="-8.45205667">
        <ele>50.0</ele>
        <time>2019-05-17T13:15:13.150Z</time>
      </trkpt>
      <trkpt lat="39.47605667" lon="-8.45206167">
        <ele>50.0</ele>
        <time>2019-05-17T13:15:14.175Z</time>
      </trkpt>
      <trkpt lat="39.47605667" lon="-8.45206167">
        <ele>50.0</ele>
        <time>2019-05-17T13:15:15.156Z</time>
      </trkpt>
      <trkpt lat="39.47611" lon="-8.45206833">
        <ele>50.0</ele>
        <time>2019-05-17T13:15:16.177Z</time>
      </trkpt>
      <trkpt lat="39.47611" lon="-8.45206833">
        <ele>50.0</ele>
        <time>2019-05-17T13:15:17.165Z</time>
      </trkpt>
      <trkpt lat="39.47616167" lon="-8.45207167">
        <ele>50.0</ele>
        <time>2019-05-17T13:15:18.158Z</time>
      </trkpt>
      <trkpt lat="39.47616167" lon="-8.45207167">
        <ele>50.0</ele>
        <time>2019-05-17T13:15:19.162Z</time>
      </trkpt>
      <trkpt lat="39.476215" lon="-8.45208167">
        <ele>50.0</ele>
        <time>2019-05-17T13:15:20.155Z</time>
      </trkpt>
      <trkpt lat="39.476215" lon="-8.45208167">
        <ele>50.0</ele>
        <time>2019-05-17T13:15:21.169Z</time>
      </trkpt>
      <trkpt lat="39.47627" lon="-8.45208167">
        <ele>50.0</ele>
        <time>2019-05-17T13:15:22.155Z</time>
      </trkpt>
      <trkpt lat="39.47627" lon="-8.45208167">
        <ele>50.0</ele>
        <time>2019-05-17T13:15:23.165Z</time>
      </trkpt>
      <trkpt lat="39.47632333" lon="-8.45207667">
        <ele>50.0</ele>
        <time>2019-05-17T13:15:24.163Z</time>
      </trkpt>
      <trkpt lat="39.47632333" lon="-8.45207667">
        <ele>50.0</ele>
        <time>2019-05-17T13:15:25.182Z</time>
      </trkpt>
      <trkpt lat="39.47638" lon="-8.452075">
        <ele>49.0</ele>
        <time>2019-05-17T13:15:26.175Z</time>
      </trkpt>
      <trkpt lat="39.47638" lon="-8.452075">
        <ele>49.0</ele>
        <time>2019-05-17T13:15:27.171Z</time>
      </trkpt>
      <trkpt lat="39.47643333" lon="-8.45207833">
        <ele>49.0</ele>
        <time>2019-05-17T13:15:28.168Z</time>
      </trkpt>
      <trkpt lat="39.47643333" lon="-8.45207833">
        <ele>49.0</ele>
        <time>2019-05-17T13:15:29.184Z</time>
      </trkpt>
      <trkpt lat="39.47649167" lon="-8.45208">
        <ele>49.0</ele>
        <time>2019-05-17T13:15:30.157Z</time>
      </trkpt>
      <trkpt lat="39.47649167" lon="-8.45208">
        <ele>49.0</ele>
        <time>2019-05-17T13:15:31.187Z</time>
      </trkpt>
      <trkpt lat="39.47654833" lon="-8.45207667">
        <ele>49.0</ele>
        <time>2019-05-17T13:15:32.180Z</time>
      </trkpt>
      <trkpt lat="39.47654833" lon="-8.45207667">
        <ele>49.0</ele>
        <time>2019-05-17T13:15:33.187Z</time>
      </trkpt>
      <trkpt lat="39.47660667" lon="-8.45207833">
        <ele>48.0</ele>
        <time>2019-05-17T13:15:34.185Z</time>
      </trkpt>
      <trkpt lat="39.47660667" lon="-8.45207833">
        <ele>48.0</ele>
        <time>2019-05-17T13:15:35.157Z</time>
      </trkpt>
      <trkpt lat="39.47666167" lon="-8.45207833">
        <ele>48.0</ele>
        <time>2019-05-17T13:15:36.152Z</time>
      </trkpt>
      <trkpt lat="39.47666167" lon="-8.45207833">
        <ele>48.0</ele>
        <time>2019-05-17T13:15:37.161Z</time>
      </trkpt>
      <trkpt lat="39.47672" lon="-8.452075">
        <ele>48.0</ele>
        <time>2019-05-17T13:15:38.179Z</time>
      </trkpt>
      <trkpt lat="39.47672" lon="-8.452075">
        <ele>48.0</ele>
        <time>2019-05-17T13:15:39.188Z</time>
      </trkpt>
      <trkpt lat="39.47678" lon="-8.45207833">
        <ele>48.0</ele>
        <time>2019-05-17T13:15:40.165Z</time>
      </trkpt>
      <trkpt lat="39.47678" lon="-8.45207833">
        <ele>48.0</ele>
        <time>2019-05-17T13:15:41.171Z</time>
      </trkpt>
      <trkpt lat="39.47683667" lon="-8.452075">
        <ele>48.0</ele>
        <time>2019-05-17T13:15:42.168Z</time>
      </trkpt>
      <trkpt lat="39.47683667" lon="-8.452075">
        <ele>48.0</ele>
        <time>2019-05-17T13:15:43.188Z</time>
      </trkpt>
      <trkpt lat="39.47689167" lon="-8.45206">
        <ele>48.0</ele>
        <time>2019-05-17T13:15:44.184Z</time>
      </trkpt>
      <trkpt lat="39.47689167" lon="-8.45206">
        <ele>48.0</ele>
        <time>2019-05-17T13:15:45.161Z</time>
      </trkpt>
      <trkpt lat="39.476945" lon="-8.452055">
        <ele>48.0</ele>
        <time>2019-05-17T13:15:46.152Z</time>
      </trkpt>
      <trkpt lat="39.476945" lon="-8.452055">
        <ele>48.0</ele>
        <time>2019-05-17T13:15:47.158Z</time>
      </trkpt>
      <trkpt lat="39.47700167" lon="-8.45205333">
        <ele>48.0</ele>
        <time>2019-05-17T13:15:48.166Z</time>
      </trkpt>
      <trkpt lat="39.47700167" lon="-8.45205333">
        <ele>48.0</ele>
        <time>2019-05-17T13:15:49.171Z</time>
      </trkpt>
      <trkpt lat="39.47706333" lon="-8.45205333">
        <ele>49.0</ele>
        <time>2019-05-17T13:15:50.170Z</time>
      </trkpt>
      <trkpt lat="39.47706333" lon="-8.45205333">
        <ele>49.0</ele>
        <time>2019-05-17T13:15:51.176Z</time>
      </trkpt>
      <trkpt lat="39.47713" lon="-8.452055">
        <ele>49.0</ele>
        <time>2019-05-17T13:15:52.183Z</time>
      </trkpt>
      <trkpt lat="39.47713" lon="-8.452055">
        <ele>49.0</ele>
        <time>2019-05-17T13:15:53.157Z</time>
      </trkpt>
      <trkpt lat="39.47718833" lon="-8.45204667">
        <ele>49.0</ele>
        <time>2019-05-17T13:15:54.188Z</time>
      </trkpt>
      <trkpt lat="39.47718833" lon="-8.45204667">
        <ele>49.0</ele>
        <time>2019-05-17T13:15:55.153Z</time>
      </trkpt>
      <trkpt lat="39.47724833" lon="-8.452035">
        <ele>49.0</ele>
        <time>2019-05-17T13:15:56.166Z</time>
      </trkpt>
      <trkpt lat="39.47724833" lon="-8.452035">
        <ele>49.0</ele>
        <time>2019-05-17T13:15:57.176Z</time>
      </trkpt>
      <trkpt lat="39.47729333" lon="-8.45202167">
        <ele>49.0</ele>
        <time>2019-05-17T13:15:58.181Z</time>
      </trkpt>
      <trkpt lat="39.47729333" lon="-8.45202167">
        <ele>49.0</ele>
        <time>2019-05-17T13:15:59.188Z</time>
      </trkpt>
      <trkpt lat="39.477325" lon="-8.45199">
        <ele>50.0</ele>
        <time>2019-05-17T13:16:00.161Z</time>
      </trkpt>
      <trkpt lat="39.477325" lon="-8.45199">
        <ele>50.0</ele>
        <time>2019-05-17T13:16:01.175Z</time>
      </trkpt>
      <trkpt lat="39.47735" lon="-8.45196167">
        <ele>52.0</ele>
        <time>2019-05-17T13:16:02.172Z</time>
      </trkpt>
      <trkpt lat="39.47735" lon="-8.45196167">
        <ele>52.0</ele>
        <time>2019-05-17T13:16:03.190Z</time>
      </trkpt>
      <trkpt lat="39.47738167" lon="-8.45193833">
        <ele>52.0</ele>
        <time>2019-05-17T13:16:04.172Z</time>
      </trkpt>
      <trkpt lat="39.47738167" lon="-8.45193833">
        <ele>52.0</ele>
        <time>2019-05-17T13:16:05.183Z</time>
      </trkpt>
      <trkpt lat="39.47742167" lon="-8.45194333">
        <ele>52.0</ele>
        <time>2019-05-17T13:16:06.180Z</time>
      </trkpt>
      <trkpt lat="39.47742167" lon="-8.45194333">
        <ele>52.0</ele>
        <time>2019-05-17T13:16:07.171Z</time>
      </trkpt>
      <trkpt lat="39.47746167" lon="-8.45196167">
        <ele>52.0</ele>
        <time>2019-05-17T13:16:08.185Z</time>
      </trkpt>
      <trkpt lat="39.47746167" lon="-8.45196167">
        <ele>52.0</ele>
        <time>2019-05-17T13:16:09.159Z</time>
      </trkpt>
      <trkpt lat="39.47750667" lon="-8.45197833">
        <ele>52.0</ele>
        <time>2019-05-17T13:16:10.164Z</time>
      </trkpt>
      <trkpt lat="39.47750667" lon="-8.45197833">
        <ele>52.0</ele>
        <time>2019-05-17T13:16:11.180Z</time>
      </trkpt>
      <trkpt lat="39.47755667" lon="-8.45198833">
        <ele>52.0</ele>
        <time>2019-05-17T13:16:12.175Z</time>
      </trkpt>
      <trkpt lat="39.47755667" lon="-8.45198833">
        <ele>52.0</ele>
        <time>2019-05-17T13:16:13.166Z</time>
      </trkpt>
      <trkpt lat="39.47761" lon="-8.452">
        <ele>52.0</ele>
        <time>2019-05-17T13:16:14.175Z</time>
      </trkpt>
      <trkpt lat="39.47761" lon="-8.452">
        <ele>52.0</ele>
        <time>2019-05-17T13:16:15.180Z</time>
      </trkpt>
      <trkpt lat="39.477665" lon="-8.45201">
        <ele>52.0</ele>
        <time>2019-05-17T13:16:16.165Z</time>
      </trkpt>
      <trkpt lat="39.477665" lon="-8.45201">
        <ele>52.0</ele>
        <time>2019-05-17T13:16:17.150Z</time>
      </trkpt>
      <trkpt lat="39.47772" lon="-8.452015">
        <ele>52.0</ele>
        <time>2019-05-17T13:16:18.185Z</time>
      </trkpt>
      <trkpt lat="39.47772" lon="-8.452015">
        <ele>52.0</ele>
        <time>2019-05-17T13:16:19.150Z</time>
      </trkpt>
      <trkpt lat="39.477775" lon="-8.45201833">
        <ele>52.0</ele>
        <time>2019-05-17T13:16:20.177Z</time>
      </trkpt>
      <trkpt lat="39.477775" lon="-8.45201833">
        <ele>52.0</ele>
        <time>2019-05-17T13:16:21.188Z</time>
      </trkpt>
      <trkpt lat="39.47783" lon="-8.452015">
        <ele>52.0</ele>
        <time>2019-05-17T13:16:22.185Z</time>
      </trkpt>
      <trkpt lat="39.47783" lon="-8.452015">
        <ele>52.0</ele>
        <time>2019-05-17T13:16:23.166Z</time>
      </trkpt>
      <trkpt lat="39.47788167" lon="-8.45201333">
        <ele>52.0</ele>
        <time>2019-05-17T13:16:24.184Z</time>
      </trkpt>
      <trkpt lat="39.47788167" lon="-8.45201333">
        <ele>52.0</ele>
        <time>2019-05-17T13:16:25.161Z</time>
      </trkpt>
      <trkpt lat="39.47794" lon="-8.452015">
        <ele>52.0</ele>
        <time>2019-05-17T13:16:26.153Z</time>
      </trkpt>
      <trkpt lat="39.47794" lon="-8.452015">
        <ele>52.0</ele>
        <time>2019-05-17T13:16:27.168Z</time>
      </trkpt>
      <trkpt lat="39.47799167" lon="-8.45200833">
        <ele>52.0</ele>
        <time>2019-05-17T13:16:28.189Z</time>
      </trkpt>
      <trkpt lat="39.47799167" lon="-8.45200833">
        <ele>52.0</ele>
        <time>2019-05-17T13:16:29.175Z</time>
      </trkpt>
      <trkpt lat="39.478035" lon="-8.45200167">
        <ele>52.0</ele>
        <time>2019-05-17T13:16:30.189Z</time>
      </trkpt>
      <trkpt lat="39.478035" lon="-8.45200167">
        <ele>52.0</ele>
        <time>2019-05-17T13:16:31.171Z</time>
      </trkpt>
      <trkpt lat="39.47807833" lon="-8.45200167">
        <ele>52.0</ele>
        <time>2019-05-17T13:16:32.179Z</time>
      </trkpt>
      <trkpt lat="39.47807833" lon="-8.45200167">
        <ele>52.0</ele>
        <time>2019-05-17T13:16:33.151Z</time>
      </trkpt>
      <trkpt lat="39.47813" lon="-8.45200667">
        <ele>52.0</ele>
        <time>2019-05-17T13:16:34.190Z</time>
      </trkpt>
      <trkpt lat="39.47813" lon="-8.45200667">
        <ele>52.0</ele>
        <time>2019-05-17T13:16:35.176Z</time>
      </trkpt>
      <trkpt lat="39.47818167" lon="-8.45201333">
        <ele>52.0</ele>
        <time>2019-05-17T13:16:36.169Z</time>
      </trkpt>
      <trkpt lat="39.47818167" lon="-8.45201333">
        <ele>52.0</ele>
        <time>2019-05-17T13:16:37.178Z</time>
      </trkpt>
      <trkpt lat="39.47824" lon="-8.45200667">
        <ele>52.0</ele>
        <time>2019-05-17T13:16:38.155Z</time>
      </trkpt>
      <trkpt lat="39.47824" lon="-8.45200667">
        <ele>52.0</ele>
        <time>2019-05-17T13:16:39.166Z</time>
      </trkpt>
      <trkpt lat="39.47829667" lon="-8.45201167">
        <ele>52.0</ele>
        <time>2019-05-17T13:16:40.181Z</time>
      </trkpt>
      <trkpt lat="39.47829667" lon="-8.45201167">
        <ele>52.0</ele>
        <time>2019-05-17T13:16:41.150Z</time>
      </trkpt>
      <trkpt lat="39.47834833" lon="-8.45202667">
        <ele>52.0</ele>
        <time>2019-05-17T13:16:42.175Z</time>
      </trkpt>
      <trkpt lat="39.478375" lon="-8.45202833">
        <ele>52.0</ele>
        <time>2019-05-17T13:16:43.184Z</time>
      </trkpt>
      <trkpt lat="39.478375" lon="-8.45202833">
        <ele>52.0</ele>
        <time>2019-05-17T13:16:44.150Z</time>
      </trkpt>
      <trkpt lat="39.47843" lon="-8.45203">
        <ele>53.0</ele>
        <time>2019-05-17T13:16:45.155Z</time>
      </trkpt>
      <trkpt lat="39.478455" lon="-8.452035">
        <ele>53.0</ele>
        <time>2019-05-17T13:16:46.156Z</time>
      </trkpt>
      <trkpt lat="39.478455" lon="-8.452035">
        <ele>53.0</ele>
        <time>2019-05-17T13:16:47.161Z</time>
      </trkpt>
      <trkpt lat="39.47850167" lon="-8.45203833">
        <ele>53.0</ele>
        <time>2019-05-17T13:16:48.162Z</time>
      </trkpt>
      <trkpt lat="39.47850167" lon="-8.45203833">
        <ele>53.0</ele>
        <time>2019-05-17T13:16:49.167Z</time>
      </trkpt>
      <trkpt lat="39.47854167" lon="-8.45203833">
        <ele>53.0</ele>
        <time>2019-05-17T13:16:50.156Z</time>
      </trkpt>
      <trkpt lat="39.47854167" lon="-8.45203833">
        <ele>53.0</ele>
        <time>2019-05-17T13:16:51.168Z</time>
      </trkpt>
      <trkpt lat="39.47857667" lon="-8.45203">
        <ele>52.0</ele>
        <time>2019-05-17T13:16:52.185Z</time>
      </trkpt>
      <trkpt lat="39.47857667" lon="-8.45203">
        <ele>52.0</ele>
        <time>2019-05-17T13:16:53.150Z</time>
      </trkpt>
      <trkpt lat="39.47861667" lon="-8.45203667">
        <ele>52.0</ele>
        <time>2019-05-17T13:16:54.164Z</time>
      </trkpt>
      <trkpt lat="39.47861667" lon="-8.45203667">
        <ele>52.0</ele>
        <time>2019-05-17T13:16:55.178Z</time>
      </trkpt>
      <trkpt lat="39.47866" lon="-8.45204">
        <ele>52.0</ele>
        <time>2019-05-17T13:16:56.181Z</time>
      </trkpt>
      <trkpt lat="39.47866" lon="-8.45204">
        <ele>52.0</ele>
        <time>2019-05-17T13:16:57.167Z</time>
      </trkpt>
      <trkpt lat="39.47870667" lon="-8.452035">
        <ele>52.0</ele>
        <time>2019-05-17T13:16:58.156Z</time>
      </trkpt>
      <trkpt lat="39.47870667" lon="-8.452035">
        <ele>52.0</ele>
        <time>2019-05-17T13:16:59.182Z</time>
      </trkpt>
      <trkpt lat="39.47875333" lon="-8.45203833">
        <ele>53.0</ele>
        <time>2019-05-17T13:17:00.172Z</time>
      </trkpt>
      <trkpt lat="39.47875333" lon="-8.45203833">
        <ele>53.0</ele>
        <time>2019-05-17T13:17:01.178Z</time>
      </trkpt>
      <trkpt lat="39.47880333" lon="-8.452045">
        <ele>53.0</ele>
        <time>2019-05-17T13:17:02.164Z</time>
      </trkpt>
      <trkpt lat="39.47880333" lon="-8.452045">
        <ele>53.0</ele>
        <time>2019-05-17T13:17:03.154Z</time>
      </trkpt>
      <trkpt lat="39.47884667" lon="-8.45204667">
        <ele>54.0</ele>
        <time>2019-05-17T13:17:04.183Z</time>
      </trkpt>
      <trkpt lat="39.47884667" lon="-8.45204667">
        <ele>54.0</ele>
        <time>2019-05-17T13:17:05.188Z</time>
      </trkpt>
      <trkpt lat="39.47889667" lon="-8.45204667">
        <ele>55.0</ele>
        <time>2019-05-17T13:17:06.153Z</time>
      </trkpt>
      <trkpt lat="39.47889667" lon="-8.45204667">
        <ele>55.0</ele>
        <time>2019-05-17T13:17:07.152Z</time>
      </trkpt>
      <trkpt lat="39.47894667" lon="-8.45204833">
        <ele>55.0</ele>
        <time>2019-05-17T13:17:08.168Z</time>
      </trkpt>
      <trkpt lat="39.47894667" lon="-8.45204833">
        <ele>55.0</ele>
        <time>2019-05-17T13:17:09.181Z</time>
      </trkpt>
      <trkpt lat="39.47899667" lon="-8.45205">
        <ele>57.0</ele>
        <time>2019-05-17T13:17:10.150Z</time>
      </trkpt>
      <trkpt lat="39.47899667" lon="-8.45205">
        <ele>57.0</ele>
        <time>2019-05-17T13:17:11.174Z</time>
      </trkpt>
      <trkpt lat="39.47904167" lon="-8.45203833">
        <ele>58.0</ele>
        <time>2019-05-17T13:17:12.164Z</time>
      </trkpt>
      <trkpt lat="39.47904167" lon="-8.45203833">
        <ele>58.0</ele>
        <time>2019-05-17T13:17:13.160Z</time>
      </trkpt>
      <trkpt lat="39.47909" lon="-8.452045">
        <ele>58.0</ele>
        <time>2019-05-17T13:17:14.154Z</time>
      </trkpt>
      <trkpt lat="39.47909" lon="-8.452045">
        <ele>58.0</ele>
        <time>2019-05-17T13:17:15.166Z</time>
      </trkpt>
      <trkpt lat="39.479135" lon="-8.452055">
        <ele>59.0</ele>
        <time>2019-05-17T13:17:16.168Z</time>
      </trkpt>
      <trkpt lat="39.479135" lon="-8.452055">
        <ele>59.0</ele>
        <time>2019-05-17T13:17:17.173Z</time>
      </trkpt>
      <trkpt lat="39.47918667" lon="-8.45205333">
        <ele>60.0</ele>
        <time>2019-05-17T13:17:18.173Z</time>
      </trkpt>
      <trkpt lat="39.47921" lon="-8.45205333">
        <ele>60.0</ele>
        <time>2019-05-17T13:17:19.177Z</time>
      </trkpt>
      <trkpt lat="39.47923333" lon="-8.45205333">
        <ele>60.0</ele>
        <time>2019-05-17T13:17:20.157Z</time>
      </trkpt>
      <trkpt lat="39.47923333" lon="-8.45205333">
        <ele>60.0</ele>
        <time>2019-05-17T13:17:21.162Z</time>
      </trkpt>
      <trkpt lat="39.47927833" lon="-8.45205667">
        <ele>60.0</ele>
        <time>2019-05-17T13:17:22.165Z</time>
      </trkpt>
      <trkpt lat="39.47927833" lon="-8.45205667">
        <ele>60.0</ele>
        <time>2019-05-17T13:17:23.170Z</time>
      </trkpt>
      <trkpt lat="39.47931667" lon="-8.452055">
        <ele>60.0</ele>
        <time>2019-05-17T13:17:24.185Z</time>
      </trkpt>
      <trkpt lat="39.47931667" lon="-8.452055">
        <ele>60.0</ele>
        <time>2019-05-17T13:17:25.189Z</time>
      </trkpt>
      <trkpt lat="39.47935833" lon="-8.45205167">
        <ele>60.0</ele>
        <time>2019-05-17T13:17:26.155Z</time>
      </trkpt>
      <trkpt lat="39.47935833" lon="-8.45205167">
        <ele>60.0</ele>
        <time>2019-05-17T13:17:27.160Z</time>
      </trkpt>
      <trkpt lat="39.4794" lon="-8.45205">
        <ele>60.0</ele>
        <time>2019-05-17T13:17:28.188Z</time>
      </trkpt>
      <trkpt lat="39.4794" lon="-8.45205">
        <ele>60.0</ele>
        <time>2019-05-17T13:17:29.153Z</time>
      </trkpt>
      <trkpt lat="39.479445" lon="-8.45204333">
        <ele>60.0</ele>
        <time>2019-05-17T13:17:30.186Z</time>
      </trkpt>
      <trkpt lat="39.479445" lon="-8.45204333">
        <ele>60.0</ele>
        <time>2019-05-17T13:17:31.158Z</time>
      </trkpt>
      <trkpt lat="39.47949" lon="-8.452045">
        <ele>59.0</ele>
        <time>2019-05-17T13:17:32.158Z</time>
      </trkpt>
      <trkpt lat="39.47949" lon="-8.452045">
        <ele>59.0</ele>
        <time>2019-05-17T13:17:33.169Z</time>
      </trkpt>
      <trkpt lat="39.47953167" lon="-8.45204667">
        <ele>59.0</ele>
        <time>2019-05-17T13:17:34.165Z</time>
      </trkpt>
      <trkpt lat="39.47953167" lon="-8.45204667">
        <ele>59.0</ele>
        <time>2019-05-17T13:17:35.169Z</time>
      </trkpt>
      <trkpt lat="39.479575" lon="-8.45204833">
        <ele>58.0</ele>
        <time>2019-05-17T13:17:36.160Z</time>
      </trkpt>
      <trkpt lat="39.479575" lon="-8.45204833">
        <ele>58.0</ele>
        <time>2019-05-17T13:17:37.150Z</time>
      </trkpt>
      <trkpt lat="39.47961667" lon="-8.45204167">
        <ele>57.0</ele>
        <time>2019-05-17T13:17:38.186Z</time>
      </trkpt>
      <trkpt lat="39.47961667" lon="-8.45204167">
        <ele>57.0</ele>
        <time>2019-05-17T13:17:39.152Z</time>
      </trkpt>
      <trkpt lat="39.479665" lon="-8.45201833">
        <ele>57.0</ele>
        <time>2019-05-17T13:17:40.162Z</time>
      </trkpt>
      <trkpt lat="39.479665" lon="-8.45201833">
        <ele>57.0</ele>
        <time>2019-05-17T13:17:41.172Z</time>
      </trkpt>
      <trkpt lat="39.47971167" lon="-8.45200667">
        <ele>56.0</ele>
        <time>2019-05-17T13:17:42.166Z</time>
      </trkpt>
      <trkpt lat="39.47971167" lon="-8.45200667">
        <ele>56.0</ele>
        <time>2019-05-17T13:17:43.178Z</time>
      </trkpt>
      <trkpt lat="39.47975" lon="-8.452005">
        <ele>57.0</ele>
        <time>2019-05-17T13:17:44.186Z</time>
      </trkpt>
      <trkpt lat="39.47975" lon="-8.452005">
        <ele>57.0</ele>
        <time>2019-05-17T13:17:45.151Z</time>
      </trkpt>
      <trkpt lat="39.47979" lon="-8.45200833">
        <ele>57.0</ele>
        <time>2019-05-17T13:17:46.181Z</time>
      </trkpt>
      <trkpt lat="39.47979" lon="-8.45200833">
        <ele>57.0</ele>
        <time>2019-05-17T13:17:47.150Z</time>
      </trkpt>
      <trkpt lat="39.47983833" lon="-8.45200667">
        <ele>57.0</ele>
        <time>2019-05-17T13:17:48.161Z</time>
      </trkpt>
      <trkpt lat="39.47983833" lon="-8.45200667">
        <ele>57.0</ele>
        <time>2019-05-17T13:17:49.184Z</time>
      </trkpt>
      <trkpt lat="39.47988667" lon="-8.45200333">
        <ele>57.0</ele>
        <time>2019-05-17T13:17:50.179Z</time>
      </trkpt>
      <trkpt lat="39.47988667" lon="-8.45200333">
        <ele>57.0</ele>
        <time>2019-05-17T13:17:51.152Z</time>
      </trkpt>
      <trkpt lat="39.47993333" lon="-8.45199667">
        <ele>57.0</ele>
        <time>2019-05-17T13:17:52.179Z</time>
      </trkpt>
      <trkpt lat="39.47993333" lon="-8.45199667">
        <ele>57.0</ele>
        <time>2019-05-17T13:17:53.159Z</time>
      </trkpt>
      <trkpt lat="39.47998" lon="-8.45198667">
        <ele>57.0</ele>
        <time>2019-05-17T13:17:54.181Z</time>
      </trkpt>
      <trkpt lat="39.47998" lon="-8.45198667">
        <ele>57.0</ele>
        <time>2019-05-17T13:17:55.188Z</time>
      </trkpt>
      <trkpt lat="39.48003" lon="-8.45198">
        <ele>57.0</ele>
        <time>2019-05-17T13:17:56.170Z</time>
      </trkpt>
      <trkpt lat="39.48003" lon="-8.45198">
        <ele>57.0</ele>
        <time>2019-05-17T13:17:57.185Z</time>
      </trkpt>
      <trkpt lat="39.48007667" lon="-8.45196667">
        <ele>57.0</ele>
        <time>2019-05-17T13:17:58.182Z</time>
      </trkpt>
      <trkpt lat="39.4801" lon="-8.45196167">
        <ele>56.0</ele>
        <time>2019-05-17T13:17:59.186Z</time>
      </trkpt>
      <trkpt lat="39.4801" lon="-8.45196167">
        <ele>56.0</ele>
        <time>2019-05-17T13:18:00.157Z</time>
      </trkpt>
      <trkpt lat="39.480145" lon="-8.451955">
        <ele>56.0</ele>
        <time>2019-05-17T13:18:01.152Z</time>
      </trkpt>
      <trkpt lat="39.48016833" lon="-8.45195167">
        <ele>57.0</ele>
        <time>2019-05-17T13:18:02.165Z</time>
      </trkpt>
      <trkpt lat="39.48016833" lon="-8.45195167">
        <ele>57.0</ele>
        <time>2019-05-17T13:18:03.171Z</time>
      </trkpt>
      <trkpt lat="39.480215" lon="-8.45194">
        <ele>56.0</ele>
        <time>2019-05-17T13:18:04.158Z</time>
      </trkpt>
      <trkpt lat="39.480215" lon="-8.45194">
        <ele>56.0</ele>
        <time>2019-05-17T13:18:05.167Z</time>
      </trkpt>
      <trkpt lat="39.480265" lon="-8.451935">
        <ele>56.0</ele>
        <time>2019-05-17T13:18:06.175Z</time>
      </trkpt>
      <trkpt lat="39.480265" lon="-8.451935">
        <ele>56.0</ele>
        <time>2019-05-17T13:18:07.165Z</time>
      </trkpt>
      <trkpt lat="39.480315" lon="-8.451925">
        <ele>56.0</ele>
        <time>2019-05-17T13:18:08.162Z</time>
      </trkpt>
      <trkpt lat="39.480315" lon="-8.451925">
        <ele>56.0</ele>
        <time>2019-05-17T13:18:09.155Z</time>
      </trkpt>
      <trkpt lat="39.48036667" lon="-8.45190667">
        <ele>55.0</ele>
        <time>2019-05-17T13:18:10.152Z</time>
      </trkpt>
      <trkpt lat="39.48038833" lon="-8.45189667">
        <ele>55.0</ele>
        <time>2019-05-17T13:18:11.189Z</time>
      </trkpt>
      <trkpt lat="39.48041333" lon="-8.45188667">
        <ele>55.0</ele>
        <time>2019-05-17T13:18:12.176Z</time>
      </trkpt>
      <trkpt lat="39.48041333" lon="-8.45188667">
        <ele>55.0</ele>
        <time>2019-05-17T13:18:13.182Z</time>
      </trkpt>
      <trkpt lat="39.480455" lon="-8.45187167">
        <ele>55.0</ele>
        <time>2019-05-17T13:18:14.181Z</time>
      </trkpt>
      <trkpt lat="39.480455" lon="-8.45187167">
        <ele>55.0</ele>
        <time>2019-05-17T13:18:15.154Z</time>
      </trkpt>
      <trkpt lat="39.48050167" lon="-8.45186667">
        <ele>54.0</ele>
        <time>2019-05-17T13:18:16.185Z</time>
      </trkpt>
      <trkpt lat="39.48050167" lon="-8.45186667">
        <ele>54.0</ele>
        <time>2019-05-17T13:18:17.159Z</time>
      </trkpt>
      <trkpt lat="39.48055833" lon="-8.451855">
        <ele>54.0</ele>
        <time>2019-05-17T13:18:18.182Z</time>
      </trkpt>
      <trkpt lat="39.48055833" lon="-8.451855">
        <ele>54.0</ele>
        <time>2019-05-17T13:18:19.189Z</time>
      </trkpt>
      <trkpt lat="39.48061" lon="-8.45185">
        <ele>54.0</ele>
        <time>2019-05-17T13:18:20.185Z</time>
      </trkpt>
      <trkpt lat="39.48061" lon="-8.45185">
        <ele>54.0</ele>
        <time>2019-05-17T13:18:21.173Z</time>
      </trkpt>
      <trkpt lat="39.480655" lon="-8.45184167">
        <ele>55.0</ele>
        <time>2019-05-17T13:18:22.173Z</time>
      </trkpt>
      <trkpt lat="39.480655" lon="-8.45184167">
        <ele>55.0</ele>
        <time>2019-05-17T13:18:23.157Z</time>
      </trkpt>
      <trkpt lat="39.48070333" lon="-8.45183833">
        <ele>56.0</ele>
        <time>2019-05-17T13:18:24.174Z</time>
      </trkpt>
      <trkpt lat="39.48073" lon="-8.45183167">
        <ele>57.0</ele>
        <time>2019-05-17T13:18:25.185Z</time>
      </trkpt>
      <trkpt lat="39.48073" lon="-8.45183167">
        <ele>57.0</ele>
        <time>2019-05-17T13:18:26.153Z</time>
      </trkpt>
      <trkpt lat="39.48077167" lon="-8.45182167">
        <ele>59.0</ele>
        <time>2019-05-17T13:18:27.155Z</time>
      </trkpt>
      <trkpt lat="39.48077167" lon="-8.45182167">
        <ele>59.0</ele>
        <time>2019-05-17T13:18:28.163Z</time>
      </trkpt>
      <trkpt lat="39.480815" lon="-8.45181">
        <ele>61.0</ele>
        <time>2019-05-17T13:18:29.184Z</time>
      </trkpt>
      <trkpt lat="39.480815" lon="-8.45181">
        <ele>61.0</ele>
        <time>2019-05-17T13:18:30.189Z</time>
      </trkpt>
      <trkpt lat="39.48085333" lon="-8.45179167">
        <ele>62.0</ele>
        <time>2019-05-17T13:18:31.185Z</time>
      </trkpt>
      <trkpt lat="39.48087167" lon="-8.45178667">
        <ele>62.0</ele>
        <time>2019-05-17T13:18:32.155Z</time>
      </trkpt>
      <trkpt lat="39.48087167" lon="-8.45178667">
        <ele>62.0</ele>
        <time>2019-05-17T13:18:33.162Z</time>
      </trkpt>
      <trkpt lat="39.48089667" lon="-8.451775">
        <ele>63.0</ele>
        <time>2019-05-17T13:18:34.165Z</time>
      </trkpt>
      <trkpt lat="39.48089667" lon="-8.451775">
        <ele>63.0</ele>
        <time>2019-05-17T13:18:35.170Z</time>
      </trkpt>
      <trkpt lat="39.48090667" lon="-8.45177">
        <ele>63.0</ele>
        <time>2019-05-17T13:18:36.162Z</time>
      </trkpt>
      <trkpt lat="39.48090667" lon="-8.45177">
        <ele>63.0</ele>
        <time>2019-05-17T13:18:37.150Z</time>
      </trkpt>
      <trkpt lat="39.48090833" lon="-8.45176833">
        <ele>62.0</ele>
        <time>2019-05-17T13:18:38.157Z</time>
      </trkpt>
      <trkpt lat="39.48090833" lon="-8.45176833">
        <ele>62.0</ele>
        <time>2019-05-17T13:18:39.162Z</time>
      </trkpt>
      <trkpt lat="39.48090833" lon="-8.45176833">
        <ele>62.0</ele>
        <time>2019-05-17T13:18:40.161Z</time>
      </trkpt>
      <trkpt lat="39.48090833" lon="-8.45176833">
        <ele>62.0</ele>
        <time>2019-05-17T13:18:41.161Z</time>
      </trkpt>
      <trkpt lat="39.48090833" lon="-8.45176833">
        <ele>62.0</ele>
        <time>2019-05-17T13:18:42.156Z</time>
      </trkpt>
      <trkpt lat="39.48090833" lon="-8.45176833">
        <ele>62.0</ele>
        <time>2019-05-17T13:18:43.162Z</time>
      </trkpt>
      <trkpt lat="39.48090833" lon="-8.45176833">
        <ele>62.0</ele>
        <time>2019-05-17T13:18:44.170Z</time>
      </trkpt>
      <trkpt lat="39.48090833" lon="-8.45176833">
        <ele>62.0</ele>
        <time>2019-05-17T13:18:45.176Z</time>
      </trkpt>
      <trkpt lat="39.48090833" lon="-8.45176833">
        <ele>62.0</ele>
        <time>2019-05-17T13:18:46.160Z</time>
      </trkpt>
      <trkpt lat="39.48090833" lon="-8.45176833">
        <ele>62.0</ele>
        <time>2019-05-17T13:18:47.155Z</time>
      </trkpt>
      <trkpt lat="39.48090833" lon="-8.45176833">
        <ele>62.0</ele>
        <time>2019-05-17T13:18:48.160Z</time>
      </trkpt>
      <trkpt lat="39.48090833" lon="-8.45176833">
        <ele>62.0</ele>
        <time>2019-05-17T13:18:49.155Z</time>
      </trkpt>
      <trkpt lat="39.48090833" lon="-8.45176833">
        <ele>62.0</ele>
        <time>2019-05-17T13:18:50.162Z</time>
      </trkpt>
      <trkpt lat="39.48090833" lon="-8.45176833">
        <ele>62.0</ele>
        <time>2019-05-17T13:18:51.156Z</time>
      </trkpt>
      <trkpt lat="39.48090833" lon="-8.45176833">
        <ele>62.0</ele>
        <time>2019-05-17T13:18:52.161Z</time>
      </trkpt>
      <trkpt lat="39.48090833" lon="-8.45176833">
        <ele>62.0</ele>
        <time>2019-05-17T13:18:53.156Z</time>
      </trkpt>
      <trkpt lat="39.48090833" lon="-8.45176833">
        <ele>62.0</ele>
        <time>2019-05-17T13:18:54.161Z</time>
      </trkpt>
      <trkpt lat="39.48090833" lon="-8.45176833">
        <ele>62.0</ele>
        <time>2019-05-17T13:18:55.156Z</time>
      </trkpt>
      <trkpt lat="39.48090833" lon="-8.45176833">
        <ele>62.0</ele>
        <time>2019-05-17T13:18:56.162Z</time>
      </trkpt>
      <trkpt lat="39.48090833" lon="-8.45176833">
        <ele>62.0</ele>
        <time>2019-05-17T13:18:57.155Z</time>
      </trkpt>
      <trkpt lat="39.48090833" lon="-8.45176833">
        <ele>62.0</ele>
        <time>2019-05-17T13:18:58.181Z</time>
      </trkpt>
      <trkpt lat="39.48090833" lon="-8.45176833">
        <ele>62.0</ele>
        <time>2019-05-17T13:18:59.166Z</time>
      </trkpt>
      <trkpt lat="39.48090833" lon="-8.45176833">
        <ele>62.0</ele>
        <time>2019-05-17T13:19:00.160Z</time>
      </trkpt>
      <trkpt lat="39.48090833" lon="-8.45176833">
        <ele>62.0</ele>
        <time>2019-05-17T13:19:01.155Z</time>
      </trkpt>
      <trkpt lat="39.48090833" lon="-8.45176833">
        <ele>62.0</ele>
        <time>2019-05-17T13:19:02.160Z</time>
      </trkpt>
      <trkpt lat="39.48090833" lon="-8.45176833">
        <ele>62.0</ele>
        <time>2019-05-17T13:19:03.155Z</time>
      </trkpt>
      <trkpt lat="39.48090833" lon="-8.45176833">
        <ele>62.0</ele>
        <time>2019-05-17T13:19:04.161Z</time>
      </trkpt>
      <trkpt lat="39.48090833" lon="-8.45176833">
        <ele>62.0</ele>
        <time>2019-05-17T13:19:05.155Z</time>
      </trkpt>
      <trkpt lat="39.48090833" lon="-8.45176833">
        <ele>62.0</ele>
        <time>2019-05-17T13:19:06.160Z</time>
      </trkpt>
      <trkpt lat="39.48090833" lon="-8.45176833">
        <ele>62.0</ele>
        <time>2019-05-17T13:19:07.155Z</time>
      </trkpt>
      <trkpt lat="39.48090833" lon="-8.45176833">
        <ele>62.0</ele>
        <time>2019-05-17T13:19:08.183Z</time>
      </trkpt>
      <trkpt lat="39.48090833" lon="-8.45176833">
        <ele>62.0</ele>
        <time>2019-05-17T13:19:09.182Z</time>
      </trkpt>
      <trkpt lat="39.48090833" lon="-8.45176833">
        <ele>62.0</ele>
        <time>2019-05-17T13:19:10.162Z</time>
      </trkpt>
      <trkpt lat="39.48090833" lon="-8.45176833">
        <ele>62.0</ele>
        <time>2019-05-17T13:19:11.168Z</time>
      </trkpt>
      <trkpt lat="39.48090833" lon="-8.45176833">
        <ele>62.0</ele>
        <time>2019-05-17T13:19:12.155Z</time>
      </trkpt>
      <trkpt lat="39.48090833" lon="-8.45176833">
        <ele>62.0</ele>
        <time>2019-05-17T13:19:13.160Z</time>
      </trkpt>
      <trkpt lat="39.48090833" lon="-8.45176833">
        <ele>62.0</ele>
        <time>2019-05-17T13:19:14.163Z</time>
      </trkpt>
      <trkpt lat="39.48090833" lon="-8.45176833">
        <ele>62.0</ele>
        <time>2019-05-17T13:19:15.166Z</time>
      </trkpt>
      <trkpt lat="39.48090833" lon="-8.45176833">
        <ele>62.0</ele>
        <time>2019-05-17T13:19:16.160Z</time>
      </trkpt>
      <trkpt lat="39.48090833" lon="-8.45176833">
        <ele>62.0</ele>
        <time>2019-05-17T13:19:17.155Z</time>
      </trkpt>
      <trkpt lat="39.48090833" lon="-8.45176833">
        <ele>62.0</ele>
        <time>2019-05-17T13:19:18.158Z</time>
      </trkpt>
      <trkpt lat="39.48090833" lon="-8.45176833">
        <ele>62.0</ele>
        <time>2019-05-17T13:19:19.161Z</time>
      </trkpt>
      <trkpt lat="39.48090833" lon="-8.45176833">
        <ele>62.0</ele>
        <time>2019-05-17T13:19:20.158Z</time>
      </trkpt>
      <trkpt lat="39.48090833" lon="-8.45176833">
        <ele>62.0</ele>
        <time>2019-05-17T13:19:21.158Z</time>
      </trkpt>
      <trkpt lat="39.48090833" lon="-8.45176833">
        <ele>62.0</ele>
        <time>2019-05-17T13:19:22.160Z</time>
      </trkpt>
      <trkpt lat="39.48090833" lon="-8.45176833">
        <ele>62.0</ele>
        <time>2019-05-17T13:19:23.160Z</time>
      </trkpt>
      <trkpt lat="39.48090833" lon="-8.45176833">
        <ele>62.0</ele>
        <time>2019-05-17T13:19:24.187Z</time>
      </trkpt>
      <trkpt lat="39.48090833" lon="-8.45176833">
        <ele>62.0</ele>
        <time>2019-05-17T13:19:25.153Z</time>
      </trkpt>
      <trkpt lat="39.48090833" lon="-8.45176833">
        <ele>62.0</ele>
        <time>2019-05-17T13:19:26.159Z</time>
      </trkpt>
      <trkpt lat="39.48090833" lon="-8.45176833">
        <ele>62.0</ele>
        <time>2019-05-17T13:19:27.166Z</time>
      </trkpt>
      <trkpt lat="39.48090833" lon="-8.45176833">
        <ele>62.0</ele>
        <time>2019-05-17T13:19:28.155Z</time>
      </trkpt>
      <trkpt lat="39.48090833" lon="-8.45176833">
        <ele>62.0</ele>
        <time>2019-05-17T13:19:29.161Z</time>
      </trkpt>
      <trkpt lat="39.48090833" lon="-8.45176833">
        <ele>62.0</ele>
        <time>2019-05-17T13:19:30.161Z</time>
      </trkpt>
      <trkpt lat="39.48090833" lon="-8.45176833">
        <ele>62.0</ele>
        <time>2019-05-17T13:19:31.161Z</time>
      </trkpt>
      <trkpt lat="39.48090833" lon="-8.45176833">
        <ele>62.0</ele>
        <time>2019-05-17T13:19:32.176Z</time>
      </trkpt>
      <trkpt lat="39.48090833" lon="-8.45176833">
        <ele>62.0</ele>
        <time>2019-05-17T13:19:33.162Z</time>
      </trkpt>
      <trkpt lat="39.48090833" lon="-8.45176833">
        <ele>62.0</ele>
        <time>2019-05-17T13:19:34.160Z</time>
      </trkpt>
      <trkpt lat="39.48090833" lon="-8.45176833">
        <ele>62.0</ele>
        <time>2019-05-17T13:19:35.160Z</time>
      </trkpt>
      <trkpt lat="39.48090833" lon="-8.45176833">
        <ele>62.0</ele>
        <time>2019-05-17T13:19:36.155Z</time>
      </trkpt>
      <trkpt lat="39.48090833" lon="-8.45176833">
        <ele>62.0</ele>
        <time>2019-05-17T13:19:37.160Z</time>
      </trkpt>
      <trkpt lat="39.48090833" lon="-8.45176833">
        <ele>62.0</ele>
        <time>2019-05-17T13:19:38.162Z</time>
      </trkpt>
      <trkpt lat="39.48090833" lon="-8.45176833">
        <ele>62.0</ele>
        <time>2019-05-17T13:19:39.157Z</time>
      </trkpt>
      <trkpt lat="39.48090833" lon="-8.45176833">
        <ele>62.0</ele>
        <time>2019-05-17T13:19:40.161Z</time>
      </trkpt>
      <trkpt lat="39.48090833" lon="-8.45176833">
        <ele>62.0</ele>
        <time>2019-05-17T13:19:41.155Z</time>
      </trkpt>
      <trkpt lat="39.48090833" lon="-8.45176833">
        <ele>62.0</ele>
        <time>2019-05-17T13:19:42.156Z</time>
      </trkpt>
      <trkpt lat="39.48090833" lon="-8.45176833">
        <ele>62.0</ele>
        <time>2019-05-17T13:19:43.161Z</time>
      </trkpt>
      <trkpt lat="39.48090833" lon="-8.45176833">
        <ele>62.0</ele>
        <time>2019-05-17T13:19:44.174Z</time>
      </trkpt>
      <trkpt lat="39.48090833" lon="-8.45176833">
        <ele>62.0</ele>
        <time>2019-05-17T13:19:45.161Z</time>
      </trkpt>
      <trkpt lat="39.48090833" lon="-8.45176833">
        <ele>62.0</ele>
        <time>2019-05-17T13:19:46.160Z</time>
      </trkpt>
      <trkpt lat="39.48090833" lon="-8.45176833">
        <ele>62.0</ele>
        <time>2019-05-17T13:19:47.156Z</time>
      </trkpt>
      <trkpt lat="39.48090833" lon="-8.45176833">
        <ele>62.0</ele>
        <time>2019-05-17T13:19:48.161Z</time>
      </trkpt>
      <trkpt lat="39.48090833" lon="-8.45176833">
        <ele>62.0</ele>
        <time>2019-05-17T13:19:49.156Z</time>
      </trkpt>
      <trkpt lat="39.48090833" lon="-8.45176833">
        <ele>62.0</ele>
        <time>2019-05-17T13:19:50.166Z</time>
      </trkpt>
      <trkpt lat="39.48090833" lon="-8.45176833">
        <ele>62.0</ele>
        <time>2019-05-17T13:19:51.161Z</time>
      </trkpt>
      <trkpt lat="39.48090833" lon="-8.45176833">
        <ele>62.0</ele>
        <time>2019-05-17T13:19:52.154Z</time>
      </trkpt>
      <trkpt lat="39.48090833" lon="-8.45176833">
        <ele>62.0</ele>
        <time>2019-05-17T13:19:53.161Z</time>
      </trkpt>
      <trkpt lat="39.48090833" lon="-8.45176833">
        <ele>62.0</ele>
        <time>2019-05-17T13:19:54.156Z</time>
      </trkpt>
      <trkpt lat="39.48090833" lon="-8.45176833">
        <ele>62.0</ele>
        <time>2019-05-17T13:19:55.160Z</time>
      </trkpt>
      <trkpt lat="39.48090833" lon="-8.45176833">
        <ele>62.0</ele>
        <time>2019-05-17T13:19:56.158Z</time>
      </trkpt>
      <trkpt lat="39.48090833" lon="-8.45176833">
        <ele>62.0</ele>
        <time>2019-05-17T13:19:57.160Z</time>
      </trkpt>
      <trkpt lat="39.48090833" lon="-8.45176833">
        <ele>62.0</ele>
        <time>2019-05-17T13:19:58.162Z</time>
      </trkpt>
      <trkpt lat="39.48090833" lon="-8.45176833">
        <ele>62.0</ele>
        <time>2019-05-17T13:19:59.156Z</time>
      </trkpt>
      <trkpt lat="39.48090833" lon="-8.45176833">
        <ele>62.0</ele>
        <time>2019-05-17T13:20:00.160Z</time>
      </trkpt>
      <trkpt lat="39.48090833" lon="-8.45176833">
        <ele>62.0</ele>
        <time>2019-05-17T13:20:01.156Z</time>
      </trkpt>
      <trkpt lat="39.48090833" lon="-8.45176833">
        <ele>62.0</ele>
        <time>2019-05-17T13:20:02.181Z</time>
      </trkpt>
      <trkpt lat="39.48090833" lon="-8.45176833">
        <ele>62.0</ele>
        <time>2019-05-17T13:20:03.167Z</time>
      </trkpt>
      <trkpt lat="39.48090833" lon="-8.45176833">
        <ele>62.0</ele>
        <time>2019-05-17T13:20:04.155Z</time>
      </trkpt>
      <trkpt lat="39.48090833" lon="-8.45176833">
        <ele>62.0</ele>
        <time>2019-05-17T13:20:05.161Z</time>
      </trkpt>
      <trkpt lat="39.48090833" lon="-8.45176833">
        <ele>62.0</ele>
        <time>2019-05-17T13:20:06.156Z</time>
      </trkpt>
      <trkpt lat="39.48090833" lon="-8.45176833">
        <ele>62.0</ele>
        <time>2019-05-17T13:20:07.160Z</time>
      </trkpt>
      <trkpt lat="39.48090833" lon="-8.45176833">
        <ele>62.0</ele>
        <time>2019-05-17T13:20:08.162Z</time>
      </trkpt>
      <trkpt lat="39.48090833" lon="-8.45176833">
        <ele>62.0</ele>
        <time>2019-05-17T13:20:09.187Z</time>
      </trkpt>
      <trkpt lat="39.48090833" lon="-8.45176833">
        <ele>62.0</ele>
        <time>2019-05-17T13:20:10.174Z</time>
      </trkpt>
      <trkpt lat="39.48090833" lon="-8.45176833">
        <ele>62.0</ele>
        <time>2019-05-17T13:20:11.180Z</time>
      </trkpt>
      <trkpt lat="39.48090833" lon="-8.45176833">
        <ele>62.0</ele>
        <time>2019-05-17T13:20:12.151Z</time>
      </trkpt>
      <trkpt lat="39.48090833" lon="-8.45176833">
        <ele>62.0</ele>
        <time>2019-05-17T13:20:13.177Z</time>
      </trkpt>
      <trkpt lat="39.48090833" lon="-8.45176833">
        <ele>62.0</ele>
        <time>2019-05-17T13:20:14.163Z</time>
      </trkpt>
      <trkpt lat="39.48090833" lon="-8.45176833">
        <ele>62.0</ele>
        <time>2019-05-17T13:20:15.162Z</time>
      </trkpt>
      <trkpt lat="39.48090833" lon="-8.45176833">
        <ele>62.0</ele>
        <time>2019-05-17T13:20:16.156Z</time>
      </trkpt>
      <trkpt lat="39.48090833" lon="-8.45176833">
        <ele>62.0</ele>
        <time>2019-05-17T13:20:17.161Z</time>
      </trkpt>
      <trkpt lat="39.48090833" lon="-8.45176833">
        <ele>62.0</ele>
        <time>2019-05-17T13:20:18.156Z</time>
      </trkpt>
      <trkpt lat="39.48090833" lon="-8.45176833">
        <ele>62.0</ele>
        <time>2019-05-17T13:20:19.161Z</time>
      </trkpt>
      <trkpt lat="39.48090833" lon="-8.45176833">
        <ele>62.0</ele>
        <time>2019-05-17T13:20:20.159Z</time>
      </trkpt>
      <trkpt lat="39.48090833" lon="-8.45176833">
        <ele>62.0</ele>
        <time>2019-05-17T13:20:21.180Z</time>
      </trkpt>
      <trkpt lat="39.48090833" lon="-8.45176833">
        <ele>62.0</ele>
        <time>2019-05-17T13:20:22.167Z</time>
      </trkpt>
      <trkpt lat="39.48090833" lon="-8.45176833">
        <ele>62.0</ele>
        <time>2019-05-17T13:20:23.162Z</time>
      </trkpt>
      <trkpt lat="39.48090833" lon="-8.45176833">
        <ele>62.0</ele>
        <time>2019-05-17T13:20:24.161Z</time>
      </trkpt>
      <trkpt lat="39.48090833" lon="-8.45176833">
        <ele>62.0</ele>
        <time>2019-05-17T13:20:25.156Z</time>
      </trkpt>
      <trkpt lat="39.48090833" lon="-8.45176833">
        <ele>62.0</ele>
        <time>2019-05-17T13:20:26.163Z</time>
      </trkpt>
      <trkpt lat="39.48090833" lon="-8.45176833">
        <ele>62.0</ele>
        <time>2019-05-17T13:20:27.156Z</time>
      </trkpt>
      <trkpt lat="39.48090833" lon="-8.45176833">
        <ele>62.0</ele>
        <time>2019-05-17T13:20:28.181Z</time>
      </trkpt>
      <trkpt lat="39.48090833" lon="-8.45176833">
        <ele>62.0</ele>
        <time>2019-05-17T13:20:29.167Z</time>
      </trkpt>
      <trkpt lat="39.48090833" lon="-8.45176833">
        <ele>62.0</ele>
        <time>2019-05-17T13:20:30.161Z</time>
      </trkpt>
      <trkpt lat="39.48090833" lon="-8.45176833">
        <ele>62.0</ele>
        <time>2019-05-17T13:20:31.160Z</time>
      </trkpt>
      <trkpt lat="39.48090833" lon="-8.45176833">
        <ele>62.0</ele>
        <time>2019-05-17T13:20:32.162Z</time>
      </trkpt>
      <trkpt lat="39.48090833" lon="-8.45176833">
        <ele>62.0</ele>
        <time>2019-05-17T13:20:33.156Z</time>
      </trkpt>
      <trkpt lat="39.48090833" lon="-8.45176833">
        <ele>62.0</ele>
        <time>2019-05-17T13:20:34.182Z</time>
      </trkpt>
      <trkpt lat="39.48090833" lon="-8.45176833">
        <ele>62.0</ele>
        <time>2019-05-17T13:20:35.167Z</time>
      </trkpt>
      <trkpt lat="39.48090833" lon="-8.45176833">
        <ele>62.0</ele>
        <time>2019-05-17T13:20:36.161Z</time>
      </trkpt>
      <trkpt lat="39.48090833" lon="-8.45176833">
        <ele>62.0</ele>
        <time>2019-05-17T13:20:37.151Z</time>
      </trkpt>
      <trkpt lat="39.48090833" lon="-8.45176833">
        <ele>62.0</ele>
        <time>2019-05-17T13:20:38.177Z</time>
      </trkpt>
      <trkpt lat="39.48090833" lon="-8.45176833">
        <ele>62.0</ele>
        <time>2019-05-17T13:20:39.163Z</time>
      </trkpt>
      <trkpt lat="39.48090833" lon="-8.45176833">
        <ele>62.0</ele>
        <time>2019-05-17T13:20:40.155Z</time>
      </trkpt>
      <trkpt lat="39.48090833" lon="-8.45176833">
        <ele>62.0</ele>
        <time>2019-05-17T13:20:41.160Z</time>
      </trkpt>
      <trkpt lat="39.48090833" lon="-8.45176833">
        <ele>62.0</ele>
        <time>2019-05-17T13:20:42.156Z</time>
      </trkpt>
      <trkpt lat="39.48090833" lon="-8.45176833">
        <ele>62.0</ele>
        <time>2019-05-17T13:20:43.161Z</time>
      </trkpt>
      <trkpt lat="39.48090833" lon="-8.45176833">
        <ele>62.0</ele>
        <time>2019-05-17T13:20:44.157Z</time>
      </trkpt>
      <trkpt lat="39.48090833" lon="-8.45176833">
        <ele>62.0</ele>
        <time>2019-05-17T13:20:45.159Z</time>
      </trkpt>
      <trkpt lat="39.48090833" lon="-8.45176833">
        <ele>62.0</ele>
        <time>2019-05-17T13:20:46.155Z</time>
      </trkpt>
      <trkpt lat="39.48090833" lon="-8.45176833">
        <ele>62.0</ele>
        <time>2019-05-17T13:20:47.160Z</time>
      </trkpt>
      <trkpt lat="39.48090833" lon="-8.45176833">
        <ele>62.0</ele>
        <time>2019-05-17T13:20:48.156Z</time>
      </trkpt>
      <trkpt lat="39.48090833" lon="-8.45176833">
        <ele>62.0</ele>
        <time>2019-05-17T13:20:49.160Z</time>
      </trkpt>
      <trkpt lat="39.48090833" lon="-8.45176833">
        <ele>62.0</ele>
        <time>2019-05-17T13:20:50.162Z</time>
      </trkpt>
      <trkpt lat="39.48090833" lon="-8.45176833">
        <ele>62.0</ele>
        <time>2019-05-17T13:20:51.155Z</time>
      </trkpt>
      <trkpt lat="39.48090833" lon="-8.45176833">
        <ele>62.0</ele>
        <time>2019-05-17T13:20:52.160Z</time>
      </trkpt>
      <trkpt lat="39.48090833" lon="-8.45176833">
        <ele>62.0</ele>
        <time>2019-05-17T13:20:53.152Z</time>
      </trkpt>
      <trkpt lat="39.48090833" lon="-8.45176833">
        <ele>62.0</ele>
        <time>2019-05-17T13:20:54.180Z</time>
      </trkpt>
      <trkpt lat="39.48090833" lon="-8.45176833">
        <ele>62.0</ele>
        <time>2019-05-17T13:20:55.166Z</time>
      </trkpt>
      <trkpt lat="39.48090833" lon="-8.45176833">
        <ele>62.0</ele>
        <time>2019-05-17T13:20:56.162Z</time>
      </trkpt>
      <trkpt lat="39.48090833" lon="-8.45176833">
        <ele>62.0</ele>
        <time>2019-05-17T13:20:57.155Z</time>
      </trkpt>
      <trkpt lat="39.48090833" lon="-8.45176833">
        <ele>62.0</ele>
        <time>2019-05-17T13:20:58.181Z</time>
      </trkpt>
      <trkpt lat="39.48090833" lon="-8.45176833">
        <ele>62.0</ele>
        <time>2019-05-17T13:20:59.165Z</time>
      </trkpt>
      <trkpt lat="39.48090833" lon="-8.45176833">
        <ele>62.0</ele>
        <time>2019-05-17T13:21:00.160Z</time>
      </trkpt>
      <trkpt lat="39.48090833" lon="-8.45176833">
        <ele>62.0</ele>
        <time>2019-05-17T13:21:01.155Z</time>
      </trkpt>
      <trkpt lat="39.48090833" lon="-8.45176833">
        <ele>62.0</ele>
        <time>2019-05-17T13:21:02.160Z</time>
      </trkpt>
      <trkpt lat="39.48090833" lon="-8.45176833">
        <ele>62.0</ele>
        <time>2019-05-17T13:21:03.155Z</time>
      </trkpt>
      <trkpt lat="39.48090833" lon="-8.45176833">
        <ele>62.0</ele>
        <time>2019-05-17T13:21:04.161Z</time>
      </trkpt>
      <trkpt lat="39.48090833" lon="-8.45176833">
        <ele>62.0</ele>
        <time>2019-05-17T13:21:05.155Z</time>
      </trkpt>
      <trkpt lat="39.48090833" lon="-8.45176833">
        <ele>62.0</ele>
        <time>2019-05-17T13:21:06.161Z</time>
      </trkpt>
      <trkpt lat="39.48090833" lon="-8.45176833">
        <ele>62.0</ele>
        <time>2019-05-17T13:21:07.160Z</time>
      </trkpt>
      <trkpt lat="39.48090833" lon="-8.45176833">
        <ele>62.0</ele>
        <time>2019-05-17T13:21:08.157Z</time>
      </trkpt>
      <trkpt lat="39.48090833" lon="-8.45176833">
        <ele>62.0</ele>
        <time>2019-05-17T13:21:09.158Z</time>
      </trkpt>
      <trkpt lat="39.48090833" lon="-8.45176833">
        <ele>62.0</ele>
        <time>2019-05-17T13:21:10.166Z</time>
      </trkpt>
      <trkpt lat="39.48090833" lon="-8.45176833">
        <ele>62.0</ele>
        <time>2019-05-17T13:21:11.172Z</time>
      </trkpt>
      <trkpt lat="39.48090833" lon="-8.45176833">
        <ele>62.0</ele>
        <time>2019-05-17T13:21:12.183Z</time>
      </trkpt>
      <trkpt lat="39.48090833" lon="-8.45176833">
        <ele>62.0</ele>
        <time>2019-05-17T13:21:13.163Z</time>
      </trkpt>
      <trkpt lat="39.48090833" lon="-8.45176833">
        <ele>62.0</ele>
        <time>2019-05-17T13:21:14.178Z</time>
      </trkpt>
      <trkpt lat="39.48090833" lon="-8.45176833">
        <ele>62.0</ele>
        <time>2019-05-17T13:21:15.177Z</time>
      </trkpt>
      <trkpt lat="39.48090833" lon="-8.45176833">
        <ele>62.0</ele>
        <time>2019-05-17T13:21:16.162Z</time>
      </trkpt>
      <trkpt lat="39.48090833" lon="-8.45176833">
        <ele>62.0</ele>
        <time>2019-05-17T13:21:17.155Z</time>
      </trkpt>
      <trkpt lat="39.48090833" lon="-8.45176833">
        <ele>62.0</ele>
        <time>2019-05-17T13:21:18.160Z</time>
      </trkpt>
      <trkpt lat="39.48090833" lon="-8.45176833">
        <ele>62.0</ele>
        <time>2019-05-17T13:21:19.157Z</time>
      </trkpt>
      <trkpt lat="39.48090833" lon="-8.45176833">
        <ele>62.0</ele>
        <time>2019-05-17T13:21:20.162Z</time>
      </trkpt>
      <trkpt lat="39.48090833" lon="-8.45176833">
        <ele>62.0</ele>
        <time>2019-05-17T13:21:21.155Z</time>
      </trkpt>
      <trkpt lat="39.48090833" lon="-8.45176833">
        <ele>62.0</ele>
        <time>2019-05-17T13:21:22.169Z</time>
      </trkpt>
      <trkpt lat="39.48090833" lon="-8.45176833">
        <ele>62.0</ele>
        <time>2019-05-17T13:21:23.165Z</time>
      </trkpt>
      <trkpt lat="39.48090833" lon="-8.45176833">
        <ele>62.0</ele>
        <time>2019-05-17T13:21:24.156Z</time>
      </trkpt>
      <trkpt lat="39.48090833" lon="-8.45176833">
        <ele>62.0</ele>
        <time>2019-05-17T13:21:25.157Z</time>
      </trkpt>
      <trkpt lat="39.48090833" lon="-8.45176833">
        <ele>62.0</ele>
        <time>2019-05-17T13:21:26.162Z</time>
      </trkpt>
      <trkpt lat="39.48090833" lon="-8.45176833">
        <ele>62.0</ele>
        <time>2019-05-17T13:21:27.156Z</time>
      </trkpt>
      <trkpt lat="39.48090833" lon="-8.45176833">
        <ele>62.0</ele>
        <time>2019-05-17T13:21:28.160Z</time>
      </trkpt>
      <trkpt lat="39.48090833" lon="-8.45176833">
        <ele>62.0</ele>
        <time>2019-05-17T13:21:29.155Z</time>
      </trkpt>
      <trkpt lat="39.48090833" lon="-8.45176833">
        <ele>62.0</ele>
        <time>2019-05-17T13:21:30.160Z</time>
      </trkpt>
      <trkpt lat="39.48090833" lon="-8.45176833">
        <ele>62.0</ele>
        <time>2019-05-17T13:21:31.155Z</time>
      </trkpt>
      <trkpt lat="39.48090833" lon="-8.45176833">
        <ele>62.0</ele>
        <time>2019-05-17T13:21:32.162Z</time>
      </trkpt>
      <trkpt lat="39.48090833" lon="-8.45176833">
        <ele>62.0</ele>
        <time>2019-05-17T13:21:33.155Z</time>
      </trkpt>
      <trkpt lat="39.48090833" lon="-8.45176833">
        <ele>62.0</ele>
        <time>2019-05-17T13:21:34.160Z</time>
      </trkpt>
      <trkpt lat="39.48090833" lon="-8.45176833">
        <ele>62.0</ele>
        <time>2019-05-17T13:21:35.155Z</time>
      </trkpt>
      <trkpt lat="39.48090833" lon="-8.45176833">
        <ele>62.0</ele>
        <time>2019-05-17T13:21:36.160Z</time>
      </trkpt>
      <trkpt lat="39.48090833" lon="-8.45176833">
        <ele>62.0</ele>
        <time>2019-05-17T13:21:37.155Z</time>
      </trkpt>
      <trkpt lat="39.48090833" lon="-8.45176833">
        <ele>62.0</ele>
        <time>2019-05-17T13:21:38.163Z</time>
      </trkpt>
      <trkpt lat="39.48090833" lon="-8.45176833">
        <ele>62.0</ele>
        <time>2019-05-17T13:21:39.155Z</time>
      </trkpt>
      <trkpt lat="39.48090833" lon="-8.45176833">
        <ele>62.0</ele>
        <time>2019-05-17T13:21:40.161Z</time>
      </trkpt>
      <trkpt lat="39.48090833" lon="-8.45176833">
        <ele>62.0</ele>
        <time>2019-05-17T13:21:41.155Z</time>
      </trkpt>
      <trkpt lat="39.48090833" lon="-8.45176833">
        <ele>62.0</ele>
        <time>2019-05-17T13:21:42.160Z</time>
      </trkpt>
      <trkpt lat="39.48090833" lon="-8.45176833">
        <ele>62.0</ele>
        <time>2019-05-17T13:21:43.155Z</time>
      </trkpt>
      <trkpt lat="39.48090833" lon="-8.45176833">
        <ele>62.0</ele>
        <time>2019-05-17T13:21:44.182Z</time>
      </trkpt>
      <trkpt lat="39.48090833" lon="-8.45176833">
        <ele>62.0</ele>
        <time>2019-05-17T13:21:45.167Z</time>
      </trkpt>
      <trkpt lat="39.48090833" lon="-8.45176833">
        <ele>62.0</ele>
        <time>2019-05-17T13:21:46.160Z</time>
      </trkpt>
      <trkpt lat="39.48090833" lon="-8.45176833">
        <ele>62.0</ele>
        <time>2019-05-17T13:21:47.155Z</time>
      </trkpt>
      <trkpt lat="39.48090833" lon="-8.45176833">
        <ele>62.0</ele>
        <time>2019-05-17T13:21:48.161Z</time>
      </trkpt>
      <trkpt lat="39.48090833" lon="-8.45176833">
        <ele>62.0</ele>
        <time>2019-05-17T13:21:49.157Z</time>
      </trkpt>
      <trkpt lat="39.48090833" lon="-8.45176833">
        <ele>62.0</ele>
        <time>2019-05-17T13:21:50.163Z</time>
      </trkpt>
      <trkpt lat="39.48090833" lon="-8.45176833">
        <ele>62.0</ele>
        <time>2019-05-17T13:21:51.160Z</time>
      </trkpt>
      <trkpt lat="39.48090833" lon="-8.45176833">
        <ele>62.0</ele>
        <time>2019-05-17T13:21:52.155Z</time>
      </trkpt>
      <trkpt lat="39.48090833" lon="-8.45176833">
        <ele>62.0</ele>
        <time>2019-05-17T13:21:53.160Z</time>
      </trkpt>
      <trkpt lat="39.48090833" lon="-8.45176833">
        <ele>62.0</ele>
        <time>2019-05-17T13:21:54.162Z</time>
      </trkpt>
      <trkpt lat="39.48090833" lon="-8.45176833">
        <ele>62.0</ele>
        <time>2019-05-17T13:21:55.156Z</time>
      </trkpt>
      <trkpt lat="39.48090833" lon="-8.45176833">
        <ele>62.0</ele>
        <time>2019-05-17T13:21:56.162Z</time>
      </trkpt>
      <trkpt lat="39.48090833" lon="-8.45176833">
        <ele>62.0</ele>
        <time>2019-05-17T13:21:57.155Z</time>
      </trkpt>
      <trkpt lat="39.48090833" lon="-8.45176833">
        <ele>62.0</ele>
        <time>2019-05-17T13:21:58.160Z</time>
      </trkpt>
      <trkpt lat="39.48090833" lon="-8.45176833">
        <ele>62.0</ele>
        <time>2019-05-17T13:21:59.155Z</time>
      </trkpt>
      <trkpt lat="39.48090833" lon="-8.45176833">
        <ele>62.0</ele>
        <time>2019-05-17T13:22:00.160Z</time>
      </trkpt>
      <trkpt lat="39.48090833" lon="-8.45176833">
        <ele>62.0</ele>
        <time>2019-05-17T13:22:01.155Z</time>
      </trkpt>
      <trkpt lat="39.48090833" lon="-8.45176833">
        <ele>62.0</ele>
        <time>2019-05-17T13:22:02.163Z</time>
      </trkpt>
      <trkpt lat="39.48090833" lon="-8.45176833">
        <ele>62.0</ele>
        <time>2019-05-17T13:22:03.158Z</time>
      </trkpt>
      <trkpt lat="39.48090833" lon="-8.45176833">
        <ele>62.0</ele>
        <time>2019-05-17T13:22:04.160Z</time>
      </trkpt>
      <trkpt lat="39.48090833" lon="-8.45176833">
        <ele>62.0</ele>
        <time>2019-05-17T13:22:05.155Z</time>
      </trkpt>
      <trkpt lat="39.48090833" lon="-8.45176833">
        <ele>62.0</ele>
        <time>2019-05-17T13:22:06.160Z</time>
      </trkpt>
      <trkpt lat="39.48090833" lon="-8.45176833">
        <ele>62.0</ele>
        <time>2019-05-17T13:22:07.155Z</time>
      </trkpt>
      <trkpt lat="39.48095667" lon="-8.451765">
        <ele>64.0</ele>
        <time>2019-05-17T13:22:08.162Z</time>
      </trkpt>
      <trkpt lat="39.48095667" lon="-8.451765">
        <ele>64.0</ele>
        <time>2019-05-17T13:22:09.176Z</time>
      </trkpt>
      <trkpt lat="39.48100167" lon="-8.45174833">
        <ele>64.0</ele>
        <time>2019-05-17T13:22:10.183Z</time>
      </trkpt>
      <trkpt lat="39.481025" lon="-8.451735">
        <ele>64.0</ele>
        <time>2019-05-17T13:22:11.189Z</time>
      </trkpt>
      <trkpt lat="39.481025" lon="-8.451735">
        <ele>64.0</ele>
        <time>2019-05-17T13:22:12.155Z</time>
      </trkpt>
      <trkpt lat="39.481075" lon="-8.45170667">
        <ele>64.0</ele>
        <time>2019-05-17T13:22:13.175Z</time>
      </trkpt>
      <trkpt lat="39.48109667" lon="-8.45169333">
        <ele>64.0</ele>
        <time>2019-05-17T13:22:14.172Z</time>
      </trkpt>
      <trkpt lat="39.48109667" lon="-8.45169333">
        <ele>64.0</ele>
        <time>2019-05-17T13:22:15.176Z</time>
      </trkpt>
      <trkpt lat="39.48114167" lon="-8.45166667">
        <ele>64.0</ele>
        <time>2019-05-17T13:22:16.176Z</time>
      </trkpt>
      <trkpt lat="39.48114167" lon="-8.45166667">
        <ele>64.0</ele>
        <time>2019-05-17T13:22:17.185Z</time>
      </trkpt>
      <trkpt lat="39.48118667" lon="-8.45164">
        <ele>64.0</ele>
        <time>2019-05-17T13:22:18.155Z</time>
      </trkpt>
      <trkpt lat="39.48118667" lon="-8.45164">
        <ele>64.0</ele>
        <time>2019-05-17T13:22:19.170Z</time>
      </trkpt>
      <trkpt lat="39.48122833" lon="-8.45161667">
        <ele>63.0</ele>
        <time>2019-05-17T13:22:20.166Z</time>
      </trkpt>
      <trkpt lat="39.48122833" lon="-8.45161667">
        <ele>63.0</ele>
        <time>2019-05-17T13:22:21.156Z</time>
      </trkpt>
      <trkpt lat="39.48126833" lon="-8.45159333">
        <ele>63.0</ele>
        <time>2019-05-17T13:22:22.163Z</time>
      </trkpt>
      <trkpt lat="39.48126833" lon="-8.45159333">
        <ele>63.0</ele>
        <time>2019-05-17T13:22:23.185Z</time>
      </trkpt>
      <trkpt lat="39.48131333" lon="-8.45157">
        <ele>63.0</ele>
        <time>2019-05-17T13:22:24.176Z</time>
      </trkpt>
      <trkpt lat="39.48131333" lon="-8.45157">
        <ele>63.0</ele>
        <time>2019-05-17T13:22:25.150Z</time>
      </trkpt>
      <trkpt lat="39.48135667" lon="-8.45154667">
        <ele>62.0</ele>
        <time>2019-05-17T13:22:26.183Z</time>
      </trkpt>
      <trkpt lat="39.48135667" lon="-8.45154667">
        <ele>62.0</ele>
        <time>2019-05-17T13:22:27.176Z</time>
      </trkpt>
      <trkpt lat="39.48139833" lon="-8.45153">
        <ele>62.0</ele>
        <time>2019-05-17T13:22:28.155Z</time>
      </trkpt>
      <trkpt lat="39.48139833" lon="-8.45153">
        <ele>62.0</ele>
        <time>2019-05-17T13:22:29.168Z</time>
      </trkpt>
      <trkpt lat="39.48143667" lon="-8.451515">
        <ele>63.0</ele>
        <time>2019-05-17T13:22:30.175Z</time>
      </trkpt>
      <trkpt lat="39.48143667" lon="-8.451515">
        <ele>63.0</ele>
        <time>2019-05-17T13:22:31.151Z</time>
      </trkpt>
      <trkpt lat="39.48147833" lon="-8.4515">
        <ele>63.0</ele>
        <time>2019-05-17T13:22:32.184Z</time>
      </trkpt>
      <trkpt lat="39.48147833" lon="-8.4515">
        <ele>63.0</ele>
        <time>2019-05-17T13:22:33.176Z</time>
      </trkpt>
      <trkpt lat="39.48151667" lon="-8.45148">
        <ele>63.0</ele>
        <time>2019-05-17T13:22:34.174Z</time>
      </trkpt>
      <trkpt lat="39.481535" lon="-8.45147">
        <ele>63.0</ele>
        <time>2019-05-17T13:22:35.157Z</time>
      </trkpt>
      <trkpt lat="39.481535" lon="-8.45147">
        <ele>63.0</ele>
        <time>2019-05-17T13:22:36.162Z</time>
      </trkpt>
      <trkpt lat="39.48157333" lon="-8.45144833">
        <ele>63.0</ele>
        <time>2019-05-17T13:22:37.182Z</time>
      </trkpt>
      <trkpt lat="39.48159333" lon="-8.45143667">
        <ele>63.0</ele>
        <time>2019-05-17T13:22:38.152Z</time>
      </trkpt>
      <trkpt lat="39.48159333" lon="-8.45143667">
        <ele>63.0</ele>
        <time>2019-05-17T13:22:39.150Z</time>
      </trkpt>
      <trkpt lat="39.48163" lon="-8.45141667">
        <ele>62.0</ele>
        <time>2019-05-17T13:22:40.185Z</time>
      </trkpt>
      <trkpt lat="39.48163" lon="-8.45141667">
        <ele>62.0</ele>
        <time>2019-05-17T13:22:41.157Z</time>
      </trkpt>
      <trkpt lat="39.481655" lon="-8.451385">
        <ele>62.0</ele>
        <time>2019-05-17T13:22:42.151Z</time>
      </trkpt>
      <trkpt lat="39.481655" lon="-8.451385">
        <ele>62.0</ele>
        <time>2019-05-17T13:22:43.179Z</time>
      </trkpt>
      <trkpt lat="39.481685" lon="-8.45135833">
        <ele>62.0</ele>
        <time>2019-05-17T13:22:44.155Z</time>
      </trkpt>
      <trkpt lat="39.481685" lon="-8.45135833">
        <ele>62.0</ele>
        <time>2019-05-17T13:22:45.150Z</time>
      </trkpt>
      <trkpt lat="39.481725" lon="-8.45133667">
        <ele>62.0</ele>
        <time>2019-05-17T13:22:46.160Z</time>
      </trkpt>
      <trkpt lat="39.481725" lon="-8.45133667">
        <ele>62.0</ele>
        <time>2019-05-17T13:22:47.171Z</time>
      </trkpt>
      <trkpt lat="39.48178667" lon="-8.45131">
        <ele>62.0</ele>
        <time>2019-05-17T13:22:48.159Z</time>
      </trkpt>
      <trkpt lat="39.48178667" lon="-8.45131">
        <ele>62.0</ele>
        <time>2019-05-17T13:22:49.165Z</time>
      </trkpt>
      <trkpt lat="39.48183167" lon="-8.45129167">
        <ele>62.0</ele>
        <time>2019-05-17T13:22:50.160Z</time>
      </trkpt>
      <trkpt lat="39.48183167" lon="-8.45129167">
        <ele>62.0</ele>
        <time>2019-05-17T13:22:51.184Z</time>
      </trkpt>
      <trkpt lat="39.48186167" lon="-8.45127">
        <ele>63.0</ele>
        <time>2019-05-17T13:22:52.180Z</time>
      </trkpt>
      <trkpt lat="39.48186167" lon="-8.45127">
        <ele>63.0</ele>
        <time>2019-05-17T13:22:53.187Z</time>
      </trkpt>
      <trkpt lat="39.481885" lon="-8.45125">
        <ele>63.0</ele>
        <time>2019-05-17T13:22:54.179Z</time>
      </trkpt>
      <trkpt lat="39.481885" lon="-8.45125">
        <ele>63.0</ele>
        <time>2019-05-17T13:22:55.185Z</time>
      </trkpt>
      <trkpt lat="39.48192167" lon="-8.45122833">
        <ele>63.0</ele>
        <time>2019-05-17T13:22:56.153Z</time>
      </trkpt>
      <trkpt lat="39.48192167" lon="-8.45122833">
        <ele>63.0</ele>
        <time>2019-05-17T13:22:57.155Z</time>
      </trkpt>
      <trkpt lat="39.48195833" lon="-8.45120667">
        <ele>63.0</ele>
        <time>2019-05-17T13:22:58.150Z</time>
      </trkpt>
      <trkpt lat="39.48195833" lon="-8.45120667">
        <ele>63.0</ele>
        <time>2019-05-17T13:22:59.152Z</time>
      </trkpt>
      <trkpt lat="39.48198833" lon="-8.45119167">
        <ele>63.0</ele>
        <time>2019-05-17T13:23:00.190Z</time>
      </trkpt>
      <trkpt lat="39.48198833" lon="-8.45119167">
        <ele>63.0</ele>
        <time>2019-05-17T13:23:01.155Z</time>
      </trkpt>
      <trkpt lat="39.48202" lon="-8.45117167">
        <ele>63.0</ele>
        <time>2019-05-17T13:23:02.185Z</time>
      </trkpt>
      <trkpt lat="39.48202" lon="-8.45117167">
        <ele>63.0</ele>
        <time>2019-05-17T13:23:03.150Z</time>
      </trkpt>
      <trkpt lat="39.48205667" lon="-8.45115">
        <ele>64.0</ele>
        <time>2019-05-17T13:23:04.181Z</time>
      </trkpt>
      <trkpt lat="39.48205667" lon="-8.45115">
        <ele>64.0</ele>
        <time>2019-05-17T13:23:05.154Z</time>
      </trkpt>
      <trkpt lat="39.48209167" lon="-8.45112333">
        <ele>64.0</ele>
        <time>2019-05-17T13:23:06.155Z</time>
      </trkpt>
      <trkpt lat="39.48209167" lon="-8.45112333">
        <ele>64.0</ele>
        <time>2019-05-17T13:23:07.162Z</time>
      </trkpt>
      <trkpt lat="39.482125" lon="-8.4511">
        <ele>64.0</ele>
        <time>2019-05-17T13:23:08.163Z</time>
      </trkpt>
      <trkpt lat="39.482125" lon="-8.4511">
        <ele>64.0</ele>
        <time>2019-05-17T13:23:09.166Z</time>
      </trkpt>
      <trkpt lat="39.48216167" lon="-8.451075">
        <ele>64.0</ele>
        <time>2019-05-17T13:23:10.175Z</time>
      </trkpt>
      <trkpt lat="39.48216167" lon="-8.451075">
        <ele>64.0</ele>
        <time>2019-05-17T13:23:11.189Z</time>
      </trkpt>
      <trkpt lat="39.4822" lon="-8.45104833">
        <ele>64.0</ele>
        <time>2019-05-17T13:23:12.153Z</time>
      </trkpt>
      <trkpt lat="39.4822" lon="-8.45104833">
        <ele>64.0</ele>
        <time>2019-05-17T13:23:13.176Z</time>
      </trkpt>
      <trkpt lat="39.48225333" lon="-8.45101833">
        <ele>64.0</ele>
        <time>2019-05-17T13:23:14.175Z</time>
      </trkpt>
      <trkpt lat="39.48225333" lon="-8.45101833">
        <ele>64.0</ele>
        <time>2019-05-17T13:23:15.160Z</time>
      </trkpt>
      <trkpt lat="39.48229167" lon="-8.45099333">
        <ele>65.0</ele>
        <time>2019-05-17T13:23:16.195Z</time>
      </trkpt>
      <trkpt lat="39.48229167" lon="-8.45099333">
        <ele>65.0</ele>
        <time>2019-05-17T13:23:17.175Z</time>
      </trkpt>
      <trkpt lat="39.482325" lon="-8.45097167">
        <ele>65.0</ele>
        <time>2019-05-17T13:23:18.171Z</time>
      </trkpt>
      <trkpt lat="39.482325" lon="-8.45097167">
        <ele>65.0</ele>
        <time>2019-05-17T13:23:19.176Z</time>
      </trkpt>
      <trkpt lat="39.48236" lon="-8.45094667">
        <ele>66.0</ele>
        <time>2019-05-17T13:23:20.169Z</time>
      </trkpt>
      <trkpt lat="39.48236" lon="-8.45094667">
        <ele>66.0</ele>
        <time>2019-05-17T13:23:21.175Z</time>
      </trkpt>
      <trkpt lat="39.48239167" lon="-8.45093">
        <ele>67.0</ele>
        <time>2019-05-17T13:23:22.181Z</time>
      </trkpt>
      <trkpt lat="39.48239167" lon="-8.45093">
        <ele>67.0</ele>
        <time>2019-05-17T13:23:23.184Z</time>
      </trkpt>
      <trkpt lat="39.48242667" lon="-8.45091">
        <ele>67.0</ele>
        <time>2019-05-17T13:23:24.183Z</time>
      </trkpt>
      <trkpt lat="39.48242667" lon="-8.45091">
        <ele>67.0</ele>
        <time>2019-05-17T13:23:25.189Z</time>
      </trkpt>
      <trkpt lat="39.48246167" lon="-8.45088667">
        <ele>68.0</ele>
        <time>2019-05-17T13:23:26.154Z</time>
      </trkpt>
      <trkpt lat="39.48246167" lon="-8.45088667">
        <ele>68.0</ele>
        <time>2019-05-17T13:23:27.173Z</time>
      </trkpt>
      <trkpt lat="39.48250333" lon="-8.45085833">
        <ele>69.0</ele>
        <time>2019-05-17T13:23:28.163Z</time>
      </trkpt>
      <trkpt lat="39.48250333" lon="-8.45085833">
        <ele>69.0</ele>
        <time>2019-05-17T13:23:29.189Z</time>
      </trkpt>
      <trkpt lat="39.48254333" lon="-8.45083">
        <ele>69.0</ele>
        <time>2019-05-17T13:23:30.181Z</time>
      </trkpt>
      <trkpt lat="39.48254333" lon="-8.45083">
        <ele>69.0</ele>
        <time>2019-05-17T13:23:31.188Z</time>
      </trkpt>
      <trkpt lat="39.48258167" lon="-8.45081167">
        <ele>69.0</ele>
        <time>2019-05-17T13:23:32.186Z</time>
      </trkpt>
      <trkpt lat="39.48258167" lon="-8.45081167">
        <ele>69.0</ele>
        <time>2019-05-17T13:23:33.168Z</time>
      </trkpt>
      <trkpt lat="39.48261667" lon="-8.45078667">
        <ele>70.0</ele>
        <time>2019-05-17T13:23:34.170Z</time>
      </trkpt>
      <trkpt lat="39.48261667" lon="-8.45078667">
        <ele>70.0</ele>
        <time>2019-05-17T13:23:35.175Z</time>
      </trkpt>
      <trkpt lat="39.48265" lon="-8.45076333">
        <ele>70.0</ele>
        <time>2019-05-17T13:23:36.166Z</time>
      </trkpt>
      <trkpt lat="39.48265" lon="-8.45076333">
        <ele>70.0</ele>
        <time>2019-05-17T13:23:37.150Z</time>
      </trkpt>
      <trkpt lat="39.48268333" lon="-8.45073833">
        <ele>71.0</ele>
        <time>2019-05-17T13:23:38.175Z</time>
      </trkpt>
      <trkpt lat="39.48268333" lon="-8.45073833">
        <ele>71.0</ele>
        <time>2019-05-17T13:23:39.179Z</time>
      </trkpt>
      <trkpt lat="39.48271667" lon="-8.45071333">
        <ele>71.0</ele>
        <time>2019-05-17T13:23:40.172Z</time>
      </trkpt>
      <trkpt lat="39.48271667" lon="-8.45071333">
        <ele>71.0</ele>
        <time>2019-05-17T13:23:41.179Z</time>
      </trkpt>
      <trkpt lat="39.482745" lon="-8.45069">
        <ele>72.0</ele>
        <time>2019-05-17T13:23:42.175Z</time>
      </trkpt>
      <trkpt lat="39.482745" lon="-8.45069">
        <ele>72.0</ele>
        <time>2019-05-17T13:23:43.183Z</time>
      </trkpt>
      <trkpt lat="39.48277333" lon="-8.45066667">
        <ele>72.0</ele>
        <time>2019-05-17T13:23:44.152Z</time>
      </trkpt>
      <trkpt lat="39.48277333" lon="-8.45066667">
        <ele>72.0</ele>
        <time>2019-05-17T13:23:45.157Z</time>
      </trkpt>
      <trkpt lat="39.48281333" lon="-8.45065167">
        <ele>73.0</ele>
        <time>2019-05-17T13:23:46.172Z</time>
      </trkpt>
      <trkpt lat="39.48281333" lon="-8.45065167">
        <ele>73.0</ele>
        <time>2019-05-17T13:23:47.182Z</time>
      </trkpt>
      <trkpt lat="39.482845" lon="-8.45063167">
        <ele>73.0</ele>
        <time>2019-05-17T13:23:48.189Z</time>
      </trkpt>
      <trkpt lat="39.482845" lon="-8.45063167">
        <ele>73.0</ele>
        <time>2019-05-17T13:23:49.154Z</time>
      </trkpt>
      <trkpt lat="39.48287667" lon="-8.45060167">
        <ele>74.0</ele>
        <time>2019-05-17T13:23:50.153Z</time>
      </trkpt>
      <trkpt lat="39.48287667" lon="-8.45060167">
        <ele>74.0</ele>
        <time>2019-05-17T13:23:51.160Z</time>
      </trkpt>
      <trkpt lat="39.48290667" lon="-8.45056333">
        <ele>74.0</ele>
        <time>2019-05-17T13:23:52.158Z</time>
      </trkpt>
      <trkpt lat="39.48290667" lon="-8.45056333">
        <ele>74.0</ele>
        <time>2019-05-17T13:23:53.163Z</time>
      </trkpt>
      <trkpt lat="39.48294" lon="-8.45052">
        <ele>74.0</ele>
        <time>2019-05-17T13:23:54.164Z</time>
      </trkpt>
      <trkpt lat="39.48296" lon="-8.45049833">
        <ele>74.0</ele>
        <time>2019-05-17T13:23:55.173Z</time>
      </trkpt>
      <trkpt lat="39.48298" lon="-8.450475">
        <ele>74.0</ele>
        <time>2019-05-17T13:23:56.190Z</time>
      </trkpt>
      <trkpt lat="39.48298" lon="-8.450475">
        <ele>74.0</ele>
        <time>2019-05-17T13:23:57.168Z</time>
      </trkpt>
      <trkpt lat="39.48302167" lon="-8.45042">
        <ele>74.0</ele>
        <time>2019-05-17T13:23:58.153Z</time>
      </trkpt>
      <trkpt lat="39.48302167" lon="-8.45042">
        <ele>74.0</ele>
        <time>2019-05-17T13:23:59.160Z</time>
      </trkpt>
      <trkpt lat="39.48306" lon="-8.45036833">
        <ele>75.0</ele>
        <time>2019-05-17T13:24:00.166Z</time>
      </trkpt>
      <trkpt lat="39.48306" lon="-8.45036833">
        <ele>75.0</ele>
        <time>2019-05-17T13:24:01.152Z</time>
      </trkpt>
      <trkpt lat="39.48310167" lon="-8.45031333">
        <ele>74.0</ele>
        <time>2019-05-17T13:24:02.186Z</time>
      </trkpt>
      <trkpt lat="39.48310167" lon="-8.45031333">
        <ele>74.0</ele>
        <time>2019-05-17T13:24:03.170Z</time>
      </trkpt>
      <trkpt lat="39.48314" lon="-8.450265">
        <ele>74.0</ele>
        <time>2019-05-17T13:24:04.171Z</time>
      </trkpt>
      <trkpt lat="39.48314" lon="-8.450265">
        <ele>74.0</ele>
        <time>2019-05-17T13:24:05.186Z</time>
      </trkpt>
      <trkpt lat="39.48317667" lon="-8.45022">
        <ele>74.0</ele>
        <time>2019-05-17T13:24:06.177Z</time>
      </trkpt>
      <trkpt lat="39.48317667" lon="-8.45022">
        <ele>74.0</ele>
        <time>2019-05-17T13:24:07.188Z</time>
      </trkpt>
      <trkpt lat="39.48322" lon="-8.450175">
        <ele>75.0</ele>
        <time>2019-05-17T13:24:08.182Z</time>
      </trkpt>
      <trkpt lat="39.48322" lon="-8.450175">
        <ele>75.0</ele>
        <time>2019-05-17T13:24:09.185Z</time>
      </trkpt>
      <trkpt lat="39.48326167" lon="-8.45011833">
        <ele>75.0</ele>
        <time>2019-05-17T13:24:10.175Z</time>
      </trkpt>
      <trkpt lat="39.483285" lon="-8.45008333">
        <ele>74.0</ele>
        <time>2019-05-17T13:24:11.186Z</time>
      </trkpt>
      <trkpt lat="39.483285" lon="-8.45008333">
        <ele>74.0</ele>
        <time>2019-05-17T13:24:12.168Z</time>
      </trkpt>
      <trkpt lat="39.48334333" lon="-8.45000833">
        <ele>74.0</ele>
        <time>2019-05-17T13:24:13.164Z</time>
      </trkpt>
      <trkpt lat="39.48337167" lon="-8.44997">
        <ele>74.0</ele>
        <time>2019-05-17T13:24:14.169Z</time>
      </trkpt>
      <trkpt lat="39.48337167" lon="-8.44997">
        <ele>74.0</ele>
        <time>2019-05-17T13:24:15.174Z</time>
      </trkpt>
      <trkpt lat="39.48342667" lon="-8.44989167">
        <ele>73.0</ele>
        <time>2019-05-17T13:24:16.158Z</time>
      </trkpt>
      <trkpt lat="39.48342667" lon="-8.44989167">
        <ele>73.0</ele>
        <time>2019-05-17T13:24:17.163Z</time>
      </trkpt>
      <trkpt lat="39.48347667" lon="-8.44982167">
        <ele>73.0</ele>
        <time>2019-05-17T13:24:18.161Z</time>
      </trkpt>
      <trkpt lat="39.48347667" lon="-8.44982167">
        <ele>73.0</ele>
        <time>2019-05-17T13:24:19.168Z</time>
      </trkpt>
      <trkpt lat="39.48351167" lon="-8.44978">
        <ele>72.0</ele>
        <time>2019-05-17T13:24:20.155Z</time>
      </trkpt>
      <trkpt lat="39.48351167" lon="-8.44978">
        <ele>72.0</ele>
        <time>2019-05-17T13:24:21.154Z</time>
      </trkpt>
      <trkpt lat="39.48354667" lon="-8.449735">
        <ele>72.0</ele>
        <time>2019-05-17T13:24:22.155Z</time>
      </trkpt>
      <trkpt lat="39.48354667" lon="-8.449735">
        <ele>72.0</ele>
        <time>2019-05-17T13:24:23.167Z</time>
      </trkpt>
      <trkpt lat="39.48359167" lon="-8.44967833">
        <ele>71.0</ele>
        <time>2019-05-17T13:24:24.195Z</time>
      </trkpt>
      <trkpt lat="39.48359167" lon="-8.44967833">
        <ele>71.0</ele>
        <time>2019-05-17T13:24:25.171Z</time>
      </trkpt>
      <trkpt lat="39.48364333" lon="-8.44961333">
        <ele>71.0</ele>
        <time>2019-05-17T13:24:26.164Z</time>
      </trkpt>
      <trkpt lat="39.48364333" lon="-8.44961333">
        <ele>71.0</ele>
        <time>2019-05-17T13:24:27.180Z</time>
      </trkpt>
      <trkpt lat="39.48369833" lon="-8.44954">
        <ele>71.0</ele>
        <time>2019-05-17T13:24:28.184Z</time>
      </trkpt>
      <trkpt lat="39.48369833" lon="-8.44954">
        <ele>71.0</ele>
        <time>2019-05-17T13:24:29.152Z</time>
      </trkpt>
      <trkpt lat="39.48376167" lon="-8.449455">
        <ele>70.0</ele>
        <time>2019-05-17T13:24:30.167Z</time>
      </trkpt>
      <trkpt lat="39.48376167" lon="-8.449455">
        <ele>70.0</ele>
        <time>2019-05-17T13:24:31.188Z</time>
      </trkpt>
      <trkpt lat="39.483835" lon="-8.44935833">
        <ele>69.0</ele>
        <time>2019-05-17T13:24:32.185Z</time>
      </trkpt>
      <trkpt lat="39.483835" lon="-8.44935833">
        <ele>69.0</ele>
        <time>2019-05-17T13:24:33.156Z</time>
      </trkpt>
      <trkpt lat="39.48391833" lon="-8.44924833">
        <ele>69.0</ele>
        <time>2019-05-17T13:24:34.182Z</time>
      </trkpt>
      <trkpt lat="39.48391833" lon="-8.44924833">
        <ele>69.0</ele>
        <time>2019-05-17T13:24:35.152Z</time>
      </trkpt>
      <trkpt lat="39.48400833" lon="-8.44913333">
        <ele>68.0</ele>
        <time>2019-05-17T13:24:36.182Z</time>
      </trkpt>
      <trkpt lat="39.48400833" lon="-8.44913333">
        <ele>68.0</ele>
        <time>2019-05-17T13:24:37.164Z</time>
      </trkpt>
      <trkpt lat="39.484095" lon="-8.44901667">
        <ele>67.0</ele>
        <time>2019-05-17T13:24:38.189Z</time>
      </trkpt>
      <trkpt lat="39.484095" lon="-8.44901667">
        <ele>67.0</ele>
        <time>2019-05-17T13:24:39.169Z</time>
      </trkpt>
      <trkpt lat="39.484185" lon="-8.44890333">
        <ele>67.0</ele>
        <time>2019-05-17T13:24:40.158Z</time>
      </trkpt>
      <trkpt lat="39.484185" lon="-8.44890333">
        <ele>67.0</ele>
        <time>2019-05-17T13:24:41.163Z</time>
      </trkpt>
      <trkpt lat="39.48426667" lon="-8.44880167">
        <ele>66.0</ele>
        <time>2019-05-17T13:24:42.181Z</time>
      </trkpt>
      <trkpt lat="39.48426667" lon="-8.44880167">
        <ele>66.0</ele>
        <time>2019-05-17T13:24:43.176Z</time>
      </trkpt>
      <trkpt lat="39.48434167" lon="-8.448705">
        <ele>66.0</ele>
        <time>2019-05-17T13:24:44.157Z</time>
      </trkpt>
      <trkpt lat="39.48434167" lon="-8.448705">
        <ele>66.0</ele>
        <time>2019-05-17T13:24:45.155Z</time>
      </trkpt>
      <trkpt lat="39.484425" lon="-8.44861833">
        <ele>66.0</ele>
        <time>2019-05-17T13:24:46.153Z</time>
      </trkpt>
      <trkpt lat="39.484425" lon="-8.44861833">
        <ele>66.0</ele>
        <time>2019-05-17T13:24:47.160Z</time>
      </trkpt>
      <trkpt lat="39.48449167" lon="-8.448535">
        <ele>66.0</ele>
        <time>2019-05-17T13:24:48.155Z</time>
      </trkpt>
      <trkpt lat="39.48449167" lon="-8.448535">
        <ele>66.0</ele>
        <time>2019-05-17T13:24:49.168Z</time>
      </trkpt>
      <trkpt lat="39.48455333" lon="-8.44844833">
        <ele>66.0</ele>
        <time>2019-05-17T13:24:50.158Z</time>
      </trkpt>
      <trkpt lat="39.48455333" lon="-8.44844833">
        <ele>66.0</ele>
        <time>2019-05-17T13:24:51.189Z</time>
      </trkpt>
      <trkpt lat="39.48461667" lon="-8.44836167">
        <ele>66.0</ele>
        <time>2019-05-17T13:24:52.155Z</time>
      </trkpt>
      <trkpt lat="39.48461667" lon="-8.44836167">
        <ele>66.0</ele>
        <time>2019-05-17T13:24:53.170Z</time>
      </trkpt>
      <trkpt lat="39.48467667" lon="-8.44827167">
        <ele>66.0</ele>
        <time>2019-05-17T13:24:54.170Z</time>
      </trkpt>
      <trkpt lat="39.48467667" lon="-8.44827167">
        <ele>66.0</ele>
        <time>2019-05-17T13:24:55.190Z</time>
      </trkpt>
      <trkpt lat="39.48474167" lon="-8.448185">
        <ele>67.0</ele>
        <time>2019-05-17T13:24:56.155Z</time>
      </trkpt>
      <trkpt lat="39.48474167" lon="-8.448185">
        <ele>67.0</ele>
        <time>2019-05-17T13:24:57.188Z</time>
      </trkpt>
      <trkpt lat="39.484805" lon="-8.44809833">
        <ele>66.0</ele>
        <time>2019-05-17T13:24:58.159Z</time>
      </trkpt>
      <trkpt lat="39.484805" lon="-8.44809833">
        <ele>66.0</ele>
        <time>2019-05-17T13:24:59.157Z</time>
      </trkpt>
      <trkpt lat="39.484865" lon="-8.44801833">
        <ele>67.0</ele>
        <time>2019-05-17T13:25:00.160Z</time>
      </trkpt>
      <trkpt lat="39.484865" lon="-8.44801833">
        <ele>67.0</ele>
        <time>2019-05-17T13:25:01.175Z</time>
      </trkpt>
      <trkpt lat="39.48492833" lon="-8.44793667">
        <ele>67.0</ele>
        <time>2019-05-17T13:25:02.171Z</time>
      </trkpt>
      <trkpt lat="39.48492833" lon="-8.44793667">
        <ele>67.0</ele>
        <time>2019-05-17T13:25:03.158Z</time>
      </trkpt>
      <trkpt lat="39.48499" lon="-8.447855">
        <ele>67.0</ele>
        <time>2019-05-17T13:25:04.183Z</time>
      </trkpt>
      <trkpt lat="39.48499" lon="-8.447855">
        <ele>67.0</ele>
        <time>2019-05-17T13:25:05.177Z</time>
      </trkpt>
      <trkpt lat="39.48504833" lon="-8.44777167">
        <ele>68.0</ele>
        <time>2019-05-17T13:25:06.192Z</time>
      </trkpt>
      <trkpt lat="39.48504833" lon="-8.44777167">
        <ele>68.0</ele>
        <time>2019-05-17T13:25:07.167Z</time>
      </trkpt>
      <trkpt lat="39.48510833" lon="-8.44768833">
        <ele>68.0</ele>
        <time>2019-05-17T13:25:08.155Z</time>
      </trkpt>
      <trkpt lat="39.48510833" lon="-8.44768833">
        <ele>68.0</ele>
        <time>2019-05-17T13:25:09.178Z</time>
      </trkpt>
      <trkpt lat="39.48517333" lon="-8.447605">
        <ele>68.0</ele>
        <time>2019-05-17T13:25:10.167Z</time>
      </trkpt>
      <trkpt lat="39.48520833" lon="-8.44756333">
        <ele>68.0</ele>
        <time>2019-05-17T13:25:11.169Z</time>
      </trkpt>
      <trkpt lat="39.48520833" lon="-8.44756333">
        <ele>68.0</ele>
        <time>2019-05-17T13:25:12.175Z</time>
      </trkpt>
      <trkpt lat="39.485275" lon="-8.44747667">
        <ele>68.0</ele>
        <time>2019-05-17T13:25:13.173Z</time>
      </trkpt>
      <trkpt lat="39.48531" lon="-8.44743167">
        <ele>68.0</ele>
        <time>2019-05-17T13:25:14.194Z</time>
      </trkpt>
      <trkpt lat="39.48531" lon="-8.44743167">
        <ele>68.0</ele>
        <time>2019-05-17T13:25:15.151Z</time>
      </trkpt>
      <trkpt lat="39.48538" lon="-8.44733833">
        <ele>68.0</ele>
        <time>2019-05-17T13:25:16.154Z</time>
      </trkpt>
      <trkpt lat="39.48538" lon="-8.44733833">
        <ele>68.0</ele>
        <time>2019-05-17T13:25:17.159Z</time>
      </trkpt>
      <trkpt lat="39.48546" lon="-8.44723833">
        <ele>68.0</ele>
        <time>2019-05-17T13:25:18.167Z</time>
      </trkpt>
      <trkpt lat="39.48546" lon="-8.44723833">
        <ele>68.0</ele>
        <time>2019-05-17T13:25:19.173Z</time>
      </trkpt>
      <trkpt lat="39.48553667" lon="-8.44713667">
        <ele>68.0</ele>
        <time>2019-05-17T13:25:20.169Z</time>
      </trkpt>
      <trkpt lat="39.48553667" lon="-8.44713667">
        <ele>68.0</ele>
        <time>2019-05-17T13:25:21.155Z</time>
      </trkpt>
      <trkpt lat="39.48561333" lon="-8.447035">
        <ele>68.0</ele>
        <time>2019-05-17T13:25:22.194Z</time>
      </trkpt>
      <trkpt lat="39.485655" lon="-8.446985">
        <ele>67.0</ele>
        <time>2019-05-17T13:25:23.176Z</time>
      </trkpt>
      <trkpt lat="39.485655" lon="-8.446985">
        <ele>67.0</ele>
        <time>2019-05-17T13:25:24.181Z</time>
      </trkpt>
      <trkpt lat="39.48573833" lon="-8.44687167">
        <ele>67.0</ele>
        <time>2019-05-17T13:25:25.181Z</time>
      </trkpt>
      <trkpt lat="39.48578167" lon="-8.446815">
        <ele>66.0</ele>
        <time>2019-05-17T13:25:26.159Z</time>
      </trkpt>
      <trkpt lat="39.48578167" lon="-8.446815">
        <ele>66.0</ele>
        <time>2019-05-17T13:25:27.168Z</time>
      </trkpt>
      <trkpt lat="39.48587333" lon="-8.44669833">
        <ele>66.0</ele>
        <time>2019-05-17T13:25:28.175Z</time>
      </trkpt>
      <trkpt lat="39.48587333" lon="-8.44669833">
        <ele>66.0</ele>
        <time>2019-05-17T13:25:29.188Z</time>
      </trkpt>
      <trkpt lat="39.48596833" lon="-8.44658">
        <ele>65.0</ele>
        <time>2019-05-17T13:25:30.182Z</time>
      </trkpt>
      <trkpt lat="39.48596833" lon="-8.44658">
        <ele>65.0</ele>
        <time>2019-05-17T13:25:31.150Z</time>
      </trkpt>
      <trkpt lat="39.48606167" lon="-8.44646">
        <ele>64.0</ele>
        <time>2019-05-17T13:25:32.177Z</time>
      </trkpt>
      <trkpt lat="39.48606167" lon="-8.44646">
        <ele>64.0</ele>
        <time>2019-05-17T13:25:33.161Z</time>
      </trkpt>
      <trkpt lat="39.486155" lon="-8.44634333">
        <ele>64.0</ele>
        <time>2019-05-17T13:25:34.160Z</time>
      </trkpt>
      <trkpt lat="39.486155" lon="-8.44634333">
        <ele>64.0</ele>
        <time>2019-05-17T13:25:35.163Z</time>
      </trkpt>
      <trkpt lat="39.48624167" lon="-8.446225">
        <ele>64.0</ele>
        <time>2019-05-17T13:25:36.165Z</time>
      </trkpt>
      <trkpt lat="39.48624167" lon="-8.446225">
        <ele>64.0</ele>
        <time>2019-05-17T13:25:37.150Z</time>
      </trkpt>
      <trkpt lat="39.48632167" lon="-8.44611833">
        <ele>64.0</ele>
        <time>2019-05-17T13:25:38.155Z</time>
      </trkpt>
      <trkpt lat="39.48632167" lon="-8.44611833">
        <ele>64.0</ele>
        <time>2019-05-17T13:25:39.160Z</time>
      </trkpt>
      <trkpt lat="39.48639" lon="-8.446025">
        <ele>64.0</ele>
        <time>2019-05-17T13:25:40.189Z</time>
      </trkpt>
      <trkpt lat="39.48639" lon="-8.446025">
        <ele>64.0</ele>
        <time>2019-05-17T13:25:41.158Z</time>
      </trkpt>
      <trkpt lat="39.486425" lon="-8.44594667">
        <ele>65.0</ele>
        <time>2019-05-17T13:25:42.186Z</time>
      </trkpt>
      <trkpt lat="39.486425" lon="-8.44594667">
        <ele>65.0</ele>
        <time>2019-05-17T13:25:43.151Z</time>
      </trkpt>
      <trkpt lat="39.48641667" lon="-8.44589">
        <ele>65.0</ele>
        <time>2019-05-17T13:25:44.183Z</time>
      </trkpt>
      <trkpt lat="39.48641667" lon="-8.44589">
        <ele>65.0</ele>
        <time>2019-05-17T13:25:45.173Z</time>
      </trkpt>
      <trkpt lat="39.48639333" lon="-8.44585167">
        <ele>65.0</ele>
        <time>2019-05-17T13:25:46.179Z</time>
      </trkpt>
      <trkpt lat="39.48639333" lon="-8.44585167">
        <ele>65.0</ele>
        <time>2019-05-17T13:25:47.161Z</time>
      </trkpt>
      <trkpt lat="39.48636833" lon="-8.44581333">
        <ele>65.0</ele>
        <time>2019-05-17T13:25:48.167Z</time>
      </trkpt>
      <trkpt lat="39.48636833" lon="-8.44581333">
        <ele>65.0</ele>
        <time>2019-05-17T13:25:49.164Z</time>
      </trkpt>
      <trkpt lat="39.48635333" lon="-8.44576833">
        <ele>65.0</ele>
        <time>2019-05-17T13:25:50.155Z</time>
      </trkpt>
      <trkpt lat="39.48635333" lon="-8.44576833">
        <ele>65.0</ele>
        <time>2019-05-17T13:25:51.153Z</time>
      </trkpt>
      <trkpt lat="39.48634167" lon="-8.445725">
        <ele>65.0</ele>
        <time>2019-05-17T13:25:52.151Z</time>
      </trkpt>
      <trkpt lat="39.48634167" lon="-8.445725">
        <ele>65.0</ele>
        <time>2019-05-17T13:25:53.160Z</time>
      </trkpt>
      <trkpt lat="39.48633667" lon="-8.44568167">
        <ele>65.0</ele>
        <time>2019-05-17T13:25:54.157Z</time>
      </trkpt>
      <trkpt lat="39.48633333" lon="-8.44566">
        <ele>65.0</ele>
        <time>2019-05-17T13:25:55.185Z</time>
      </trkpt>
      <trkpt lat="39.48633333" lon="-8.44563833">
        <ele>65.0</ele>
        <time>2019-05-17T13:25:56.176Z</time>
      </trkpt>
      <trkpt lat="39.48633333" lon="-8.44563833">
        <ele>65.0</ele>
        <time>2019-05-17T13:25:57.175Z</time>
      </trkpt>
      <trkpt lat="39.486335" lon="-8.44559667">
        <ele>66.0</ele>
        <time>2019-05-17T13:25:58.152Z</time>
      </trkpt>
      <trkpt lat="39.486335" lon="-8.44559667">
        <ele>66.0</ele>
        <time>2019-05-17T13:25:59.162Z</time>
      </trkpt>
      <trkpt lat="39.48633167" lon="-8.44554">
        <ele>66.0</ele>
        <time>2019-05-17T13:26:00.165Z</time>
      </trkpt>
      <trkpt lat="39.48632833" lon="-8.44550833">
        <ele>66.0</ele>
        <time>2019-05-17T13:26:01.163Z</time>
      </trkpt>
      <trkpt lat="39.48632667" lon="-8.44547333">
        <ele>66.0</ele>
        <time>2019-05-17T13:26:02.167Z</time>
      </trkpt>
      <trkpt lat="39.48632667" lon="-8.44547333">
        <ele>66.0</ele>
        <time>2019-05-17T13:26:03.173Z</time>
      </trkpt>
      <trkpt lat="39.486325" lon="-8.445405">
        <ele>67.0</ele>
        <time>2019-05-17T13:26:04.185Z</time>
      </trkpt>
      <trkpt lat="39.486325" lon="-8.445405">
        <ele>67.0</ele>
        <time>2019-05-17T13:26:05.152Z</time>
      </trkpt>
      <trkpt lat="39.48632167" lon="-8.44533167">
        <ele>67.0</ele>
        <time>2019-05-17T13:26:06.150Z</time>
      </trkpt>
      <trkpt lat="39.48632167" lon="-8.44533167">
        <ele>67.0</ele>
        <time>2019-05-17T13:26:07.155Z</time>
      </trkpt>
      <trkpt lat="39.48631333" lon="-8.445275">
        <ele>67.0</ele>
        <time>2019-05-17T13:26:08.163Z</time>
      </trkpt>
      <trkpt lat="39.48631333" lon="-8.445275">
        <ele>67.0</ele>
        <time>2019-05-17T13:26:09.185Z</time>
      </trkpt>
      <trkpt lat="39.48630167" lon="-8.44522833">
        <ele>67.0</ele>
        <time>2019-05-17T13:26:10.163Z</time>
      </trkpt>
      <trkpt lat="39.48629833" lon="-8.44520333">
        <ele>67.0</ele>
        <time>2019-05-17T13:26:11.152Z</time>
      </trkpt>
      <trkpt lat="39.48629833" lon="-8.44520333">
        <ele>67.0</ele>
        <time>2019-05-17T13:26:12.157Z</time>
      </trkpt>
      <trkpt lat="39.486295" lon="-8.445155">
        <ele>67.0</ele>
        <time>2019-05-17T13:26:13.151Z</time>
      </trkpt>
      <trkpt lat="39.486295" lon="-8.44512833">
        <ele>67.0</ele>
        <time>2019-05-17T13:26:14.185Z</time>
      </trkpt>
      <trkpt lat="39.486295" lon="-8.44512833">
        <ele>67.0</ele>
        <time>2019-05-17T13:26:15.171Z</time>
      </trkpt>
      <trkpt lat="39.48628667" lon="-8.44508">
        <ele>67.0</ele>
        <time>2019-05-17T13:26:16.170Z</time>
      </trkpt>
      <trkpt lat="39.48628667" lon="-8.44508">
        <ele>67.0</ele>
        <time>2019-05-17T13:26:17.153Z</time>
      </trkpt>
      <trkpt lat="39.486265" lon="-8.44502667">
        <ele>67.0</ele>
        <time>2019-05-17T13:26:18.187Z</time>
      </trkpt>
      <trkpt lat="39.486265" lon="-8.44502667">
        <ele>67.0</ele>
        <time>2019-05-17T13:26:19.179Z</time>
      </trkpt>
      <trkpt lat="39.48624333" lon="-8.444965">
        <ele>67.0</ele>
        <time>2019-05-17T13:26:20.174Z</time>
      </trkpt>
      <trkpt lat="39.48624333" lon="-8.444965">
        <ele>67.0</ele>
        <time>2019-05-17T13:26:21.154Z</time>
      </trkpt>
      <trkpt lat="39.486225" lon="-8.44489833">
        <ele>67.0</ele>
        <time>2019-05-17T13:26:22.185Z</time>
      </trkpt>
      <trkpt lat="39.486225" lon="-8.44489833">
        <ele>67.0</ele>
        <time>2019-05-17T13:26:23.162Z</time>
      </trkpt>
      <trkpt lat="39.48622167" lon="-8.44482167">
        <ele>67.0</ele>
        <time>2019-05-17T13:26:24.156Z</time>
      </trkpt>
      <trkpt lat="39.48622167" lon="-8.44482167">
        <ele>67.0</ele>
        <time>2019-05-17T13:26:25.166Z</time>
      </trkpt>
      <trkpt lat="39.48621333" lon="-8.44474667">
        <ele>67.0</ele>
        <time>2019-05-17T13:26:26.168Z</time>
      </trkpt>
      <trkpt lat="39.48621333" lon="-8.44474667">
        <ele>67.0</ele>
        <time>2019-05-17T13:26:27.177Z</time>
      </trkpt>
      <trkpt lat="39.4862" lon="-8.44466833">
        <ele>67.0</ele>
        <time>2019-05-17T13:26:28.180Z</time>
      </trkpt>
      <trkpt lat="39.4862" lon="-8.44466833">
        <ele>67.0</ele>
        <time>2019-05-17T13:26:29.189Z</time>
      </trkpt>
      <trkpt lat="39.48618667" lon="-8.44460167">
        <ele>68.0</ele>
        <time>2019-05-17T13:26:30.186Z</time>
      </trkpt>
      <trkpt lat="39.48618667" lon="-8.44460167">
        <ele>68.0</ele>
        <time>2019-05-17T13:26:31.161Z</time>
      </trkpt>
      <trkpt lat="39.486175" lon="-8.444535">
        <ele>68.0</ele>
        <time>2019-05-17T13:26:32.175Z</time>
      </trkpt>
      <trkpt lat="39.486175" lon="-8.444535">
        <ele>68.0</ele>
        <time>2019-05-17T13:26:33.158Z</time>
      </trkpt>
      <trkpt lat="39.48615167" lon="-8.44447333">
        <ele>68.0</ele>
        <time>2019-05-17T13:26:34.153Z</time>
      </trkpt>
      <trkpt lat="39.48615167" lon="-8.44447333">
        <ele>68.0</ele>
        <time>2019-05-17T13:26:35.162Z</time>
      </trkpt>
      <trkpt lat="39.48612833" lon="-8.44441">
        <ele>68.0</ele>
        <time>2019-05-17T13:26:36.161Z</time>
      </trkpt>
      <trkpt lat="39.48612833" lon="-8.44441">
        <ele>68.0</ele>
        <time>2019-05-17T13:26:37.154Z</time>
      </trkpt>
      <trkpt lat="39.4861" lon="-8.44435167">
        <ele>68.0</ele>
        <time>2019-05-17T13:26:38.194Z</time>
      </trkpt>
      <trkpt lat="39.4861" lon="-8.44435167">
        <ele>68.0</ele>
        <time>2019-05-17T13:26:39.167Z</time>
      </trkpt>
      <trkpt lat="39.48606333" lon="-8.44429667">
        <ele>68.0</ele>
        <time>2019-05-17T13:26:40.155Z</time>
      </trkpt>
      <trkpt lat="39.48606333" lon="-8.44429667">
        <ele>68.0</ele>
        <time>2019-05-17T13:26:41.176Z</time>
      </trkpt>
      <trkpt lat="39.48601667" lon="-8.44422833">
        <ele>67.0</ele>
        <time>2019-05-17T13:26:42.166Z</time>
      </trkpt>
      <trkpt lat="39.48601667" lon="-8.44422833">
        <ele>67.0</ele>
        <time>2019-05-17T13:26:43.171Z</time>
      </trkpt>
      <trkpt lat="39.48595333" lon="-8.44415167">
        <ele>67.0</ele>
        <time>2019-05-17T13:26:44.176Z</time>
      </trkpt>
      <trkpt lat="39.48595333" lon="-8.44415167">
        <ele>67.0</ele>
        <time>2019-05-17T13:26:45.166Z</time>
      </trkpt>
      <trkpt lat="39.48588667" lon="-8.44406833">
        <ele>67.0</ele>
        <time>2019-05-17T13:26:46.157Z</time>
      </trkpt>
      <trkpt lat="39.48588667" lon="-8.44406833">
        <ele>67.0</ele>
        <time>2019-05-17T13:26:47.162Z</time>
      </trkpt>
      <trkpt lat="39.48581667" lon="-8.44398833">
        <ele>66.0</ele>
        <time>2019-05-17T13:26:48.172Z</time>
      </trkpt>
      <trkpt lat="39.48578" lon="-8.443955">
        <ele>66.0</ele>
        <time>2019-05-17T13:26:49.175Z</time>
      </trkpt>
      <trkpt lat="39.48574" lon="-8.44392667">
        <ele>66.0</ele>
        <time>2019-05-17T13:26:50.172Z</time>
      </trkpt>
      <trkpt lat="39.48574" lon="-8.44392667">
        <ele>66.0</ele>
        <time>2019-05-17T13:26:51.177Z</time>
      </trkpt>
      <trkpt lat="39.48566667" lon="-8.44388">
        <ele>66.0</ele>
        <time>2019-05-17T13:26:52.165Z</time>
      </trkpt>
      <trkpt lat="39.48566667" lon="-8.44388">
        <ele>66.0</ele>
        <time>2019-05-17T13:26:53.180Z</time>
      </trkpt>
      <trkpt lat="39.48560833" lon="-8.44383">
        <ele>66.0</ele>
        <time>2019-05-17T13:26:54.165Z</time>
      </trkpt>
      <trkpt lat="39.48560833" lon="-8.44383">
        <ele>66.0</ele>
        <time>2019-05-17T13:26:55.154Z</time>
      </trkpt>
      <trkpt lat="39.485575" lon="-8.44377667">
        <ele>67.0</ele>
        <time>2019-05-17T13:26:56.161Z</time>
      </trkpt>
      <trkpt lat="39.485575" lon="-8.44377667">
        <ele>67.0</ele>
        <time>2019-05-17T13:26:57.150Z</time>
      </trkpt>
      <trkpt lat="39.48555167" lon="-8.44372167">
        <ele>67.0</ele>
        <time>2019-05-17T13:26:58.187Z</time>
      </trkpt>
      <trkpt lat="39.48555167" lon="-8.44372167">
        <ele>67.0</ele>
        <time>2019-05-17T13:26:59.157Z</time>
      </trkpt>
      <trkpt lat="39.48554" lon="-8.44367167">
        <ele>68.0</ele>
        <time>2019-05-17T13:27:00.185Z</time>
      </trkpt>
      <trkpt lat="39.48554" lon="-8.44367167">
        <ele>68.0</ele>
        <time>2019-05-17T13:27:01.150Z</time>
      </trkpt>
      <trkpt lat="39.48553167" lon="-8.44362">
        <ele>68.0</ele>
        <time>2019-05-17T13:27:02.174Z</time>
      </trkpt>
      <trkpt lat="39.48553167" lon="-8.44362">
        <ele>68.0</ele>
        <time>2019-05-17T13:27:03.171Z</time>
      </trkpt>
      <trkpt lat="39.48552667" lon="-8.44356667">
        <ele>68.0</ele>
        <time>2019-05-17T13:27:04.165Z</time>
      </trkpt>
      <trkpt lat="39.48552667" lon="-8.44356667">
        <ele>68.0</ele>
        <time>2019-05-17T13:27:05.170Z</time>
      </trkpt>
      <trkpt lat="39.485525" lon="-8.443515">
        <ele>68.0</ele>
        <time>2019-05-17T13:27:06.157Z</time>
      </trkpt>
      <trkpt lat="39.485525" lon="-8.443515">
        <ele>68.0</ele>
        <time>2019-05-17T13:27:07.151Z</time>
      </trkpt>
      <trkpt lat="39.485525" lon="-8.44347">
        <ele>69.0</ele>
        <time>2019-05-17T13:27:08.185Z</time>
      </trkpt>
      <trkpt lat="39.485525" lon="-8.44347">
        <ele>69.0</ele>
        <time>2019-05-17T13:27:09.165Z</time>
      </trkpt>
      <trkpt lat="39.485525" lon="-8.443425">
        <ele>70.0</ele>
        <time>2019-05-17T13:27:10.155Z</time>
      </trkpt>
      <trkpt lat="39.485525" lon="-8.44340167">
        <ele>70.0</ele>
        <time>2019-05-17T13:27:11.161Z</time>
      </trkpt>
      <trkpt lat="39.485525" lon="-8.44340167">
        <ele>70.0</ele>
        <time>2019-05-17T13:27:12.175Z</time>
      </trkpt>
      <trkpt lat="39.485525" lon="-8.443355">
        <ele>71.0</ele>
        <time>2019-05-17T13:27:13.171Z</time>
      </trkpt>
      <trkpt lat="39.48552333" lon="-8.443335">
        <ele>71.0</ele>
        <time>2019-05-17T13:27:14.175Z</time>
      </trkpt>
      <trkpt lat="39.48552333" lon="-8.443335">
        <ele>71.0</ele>
        <time>2019-05-17T13:27:15.159Z</time>
      </trkpt>
      <trkpt lat="39.48552333" lon="-8.44328667">
        <ele>71.0</ele>
        <time>2019-05-17T13:27:16.172Z</time>
      </trkpt>
      <trkpt lat="39.48552333" lon="-8.44328667">
        <ele>71.0</ele>
        <time>2019-05-17T13:27:17.154Z</time>
      </trkpt>
      <trkpt lat="39.48553" lon="-8.44324">
        <ele>71.0</ele>
        <time>2019-05-17T13:27:18.152Z</time>
      </trkpt>
      <trkpt lat="39.48553333" lon="-8.44321333">
        <ele>72.0</ele>
        <time>2019-05-17T13:27:19.173Z</time>
      </trkpt>
      <trkpt lat="39.48553667" lon="-8.44318667">
        <ele>72.0</ele>
        <time>2019-05-17T13:27:20.178Z</time>
      </trkpt>
      <trkpt lat="39.48553667" lon="-8.44318667">
        <ele>72.0</ele>
        <time>2019-05-17T13:27:21.188Z</time>
      </trkpt>
      <trkpt lat="39.48554333" lon="-8.44314167">
        <ele>72.0</ele>
        <time>2019-05-17T13:27:22.184Z</time>
      </trkpt>
      <trkpt lat="39.48554333" lon="-8.44314167">
        <ele>72.0</ele>
        <time>2019-05-17T13:27:23.154Z</time>
      </trkpt>
      <trkpt lat="39.48555" lon="-8.44310167">
        <ele>72.0</ele>
        <time>2019-05-17T13:27:24.155Z</time>
      </trkpt>
      <trkpt lat="39.485555" lon="-8.44308">
        <ele>72.0</ele>
        <time>2019-05-17T13:27:25.178Z</time>
      </trkpt>
      <trkpt lat="39.48555667" lon="-8.44306">
        <ele>72.0</ele>
        <time>2019-05-17T13:27:26.177Z</time>
      </trkpt>
      <trkpt lat="39.48555667" lon="-8.44306">
        <ele>72.0</ele>
        <time>2019-05-17T13:27:27.150Z</time>
      </trkpt>
      <trkpt lat="39.48556167" lon="-8.44302167">
        <ele>72.0</ele>
        <time>2019-05-17T13:27:28.181Z</time>
      </trkpt>
      <trkpt lat="39.48556167" lon="-8.44302167">
        <ele>72.0</ele>
        <time>2019-05-17T13:27:29.166Z</time>
      </trkpt>
      <trkpt lat="39.48556333" lon="-8.44298667">
        <ele>72.0</ele>
        <time>2019-05-17T13:27:30.181Z</time>
      </trkpt>
      <trkpt lat="39.48556333" lon="-8.44298667">
        <ele>72.0</ele>
        <time>2019-05-17T13:27:31.159Z</time>
      </trkpt>
      <trkpt lat="39.48556833" lon="-8.44295167">
        <ele>72.0</ele>
        <time>2019-05-17T13:27:32.174Z</time>
      </trkpt>
      <trkpt lat="39.48556833" lon="-8.44295167">
        <ele>72.0</ele>
        <time>2019-05-17T13:27:33.180Z</time>
      </trkpt>
      <trkpt lat="39.48558167" lon="-8.44291667">
        <ele>72.0</ele>
        <time>2019-05-17T13:27:34.172Z</time>
      </trkpt>
      <trkpt lat="39.48558167" lon="-8.44291667">
        <ele>72.0</ele>
        <time>2019-05-17T13:27:35.168Z</time>
      </trkpt>
      <trkpt lat="39.48559" lon="-8.44287333">
        <ele>73.0</ele>
        <time>2019-05-17T13:27:36.162Z</time>
      </trkpt>
      <trkpt lat="39.48559" lon="-8.44287333">
        <ele>73.0</ele>
        <time>2019-05-17T13:27:37.172Z</time>
      </trkpt>
      <trkpt lat="39.48559667" lon="-8.44283333">
        <ele>73.0</ele>
        <time>2019-05-17T13:27:38.180Z</time>
      </trkpt>
      <trkpt lat="39.48559667" lon="-8.44283333">
        <ele>73.0</ele>
        <time>2019-05-17T13:27:39.174Z</time>
      </trkpt>
      <trkpt lat="39.485605" lon="-8.44279333">
        <ele>73.0</ele>
        <time>2019-05-17T13:27:40.167Z</time>
      </trkpt>
      <trkpt lat="39.485605" lon="-8.44279333">
        <ele>73.0</ele>
        <time>2019-05-17T13:27:41.172Z</time>
      </trkpt>
      <trkpt lat="39.48560333" lon="-8.44274667">
        <ele>74.0</ele>
        <time>2019-05-17T13:27:42.165Z</time>
      </trkpt>
      <trkpt lat="39.48560333" lon="-8.44274667">
        <ele>74.0</ele>
        <time>2019-05-17T13:27:43.182Z</time>
      </trkpt>
      <trkpt lat="39.4856" lon="-8.442695">
        <ele>74.0</ele>
        <time>2019-05-17T13:27:44.175Z</time>
      </trkpt>
      <trkpt lat="39.4856" lon="-8.442695">
        <ele>74.0</ele>
        <time>2019-05-17T13:27:45.155Z</time>
      </trkpt>
      <trkpt lat="39.48560167" lon="-8.442655">
        <ele>75.0</ele>
        <time>2019-05-17T13:27:46.187Z</time>
      </trkpt>
      <trkpt lat="39.48560167" lon="-8.442635">
        <ele>75.0</ele>
        <time>2019-05-17T13:27:47.176Z</time>
      </trkpt>
      <trkpt lat="39.48560167" lon="-8.442635">
        <ele>75.0</ele>
        <time>2019-05-17T13:27:48.180Z</time>
      </trkpt>
      <trkpt lat="39.48559667" lon="-8.44259167">
        <ele>76.0</ele>
        <time>2019-05-17T13:27:49.180Z</time>
      </trkpt>
      <trkpt lat="39.48559167" lon="-8.44257">
        <ele>76.0</ele>
        <time>2019-05-17T13:27:50.183Z</time>
      </trkpt>
      <trkpt lat="39.48559167" lon="-8.44257">
        <ele>76.0</ele>
        <time>2019-05-17T13:27:51.158Z</time>
      </trkpt>
      <trkpt lat="39.48558" lon="-8.44252333">
        <ele>76.0</ele>
        <time>2019-05-17T13:27:52.155Z</time>
      </trkpt>
      <trkpt lat="39.48558" lon="-8.44252333">
        <ele>76.0</ele>
        <time>2019-05-17T13:27:53.164Z</time>
      </trkpt>
      <trkpt lat="39.48556833" lon="-8.44247333">
        <ele>77.0</ele>
        <time>2019-05-17T13:27:54.169Z</time>
      </trkpt>
      <trkpt lat="39.48556833" lon="-8.44247333">
        <ele>77.0</ele>
        <time>2019-05-17T13:27:55.175Z</time>
      </trkpt>
      <trkpt lat="39.48555333" lon="-8.442415">
        <ele>77.0</ele>
        <time>2019-05-17T13:27:56.195Z</time>
      </trkpt>
      <trkpt lat="39.48555333" lon="-8.442415">
        <ele>77.0</ele>
        <time>2019-05-17T13:27:57.159Z</time>
      </trkpt>
      <trkpt lat="39.48553833" lon="-8.44236">
        <ele>78.0</ele>
        <time>2019-05-17T13:27:58.194Z</time>
      </trkpt>
      <trkpt lat="39.48553833" lon="-8.44236">
        <ele>78.0</ele>
        <time>2019-05-17T13:27:59.161Z</time>
      </trkpt>
      <trkpt lat="39.48553167" lon="-8.44230833">
        <ele>78.0</ele>
        <time>2019-05-17T13:28:00.182Z</time>
      </trkpt>
      <trkpt lat="39.48553167" lon="-8.44230833">
        <ele>78.0</ele>
        <time>2019-05-17T13:28:01.159Z</time>
      </trkpt>
      <trkpt lat="39.48552833" lon="-8.44225833">
        <ele>79.0</ele>
        <time>2019-05-17T13:28:02.161Z</time>
      </trkpt>
      <trkpt lat="39.48552833" lon="-8.44225833">
        <ele>79.0</ele>
        <time>2019-05-17T13:28:03.182Z</time>
      </trkpt>
      <trkpt lat="39.485515" lon="-8.44221">
        <ele>80.0</ele>
        <time>2019-05-17T13:28:04.176Z</time>
      </trkpt>
      <trkpt lat="39.485515" lon="-8.44221">
        <ele>80.0</ele>
        <time>2019-05-17T13:28:05.159Z</time>
      </trkpt>
      <trkpt lat="39.48550333" lon="-8.44216167">
        <ele>80.0</ele>
        <time>2019-05-17T13:28:06.155Z</time>
      </trkpt>
      <trkpt lat="39.48550333" lon="-8.44216167">
        <ele>80.0</ele>
        <time>2019-05-17T13:28:07.176Z</time>
      </trkpt>
      <trkpt lat="39.485485" lon="-8.442125">
        <ele>80.0</ele>
        <time>2019-05-17T13:28:08.185Z</time>
      </trkpt>
      <trkpt lat="39.485485" lon="-8.442125">
        <ele>80.0</ele>
        <time>2019-05-17T13:28:09.180Z</time>
      </trkpt>
      <trkpt lat="39.48546667" lon="-8.44209">
        <ele>81.0</ele>
        <time>2019-05-17T13:28:10.170Z</time>
      </trkpt>
      <trkpt lat="39.48546667" lon="-8.44209">
        <ele>81.0</ele>
        <time>2019-05-17T13:28:11.157Z</time>
      </trkpt>
      <trkpt lat="39.48544833" lon="-8.44205167">
        <ele>81.0</ele>
        <time>2019-05-17T13:28:12.185Z</time>
      </trkpt>
      <trkpt lat="39.48544" lon="-8.44203167">
        <ele>81.0</ele>
        <time>2019-05-17T13:28:13.181Z</time>
      </trkpt>
      <trkpt lat="39.48543167" lon="-8.44201167">
        <ele>81.0</ele>
        <time>2019-05-17T13:28:14.157Z</time>
      </trkpt>
      <trkpt lat="39.48543167" lon="-8.44201167">
        <ele>81.0</ele>
        <time>2019-05-17T13:28:15.163Z</time>
      </trkpt>
      <trkpt lat="39.48540833" lon="-8.44197333">
        <ele>81.0</ele>
        <time>2019-05-17T13:28:16.165Z</time>
      </trkpt>
      <trkpt lat="39.48540833" lon="-8.44197333">
        <ele>81.0</ele>
        <time>2019-05-17T13:28:17.171Z</time>
      </trkpt>
      <trkpt lat="39.48538667" lon="-8.44194">
        <ele>82.0</ele>
        <time>2019-05-17T13:28:18.165Z</time>
      </trkpt>
      <trkpt lat="39.48537833" lon="-8.441925">
        <ele>82.0</ele>
        <time>2019-05-17T13:28:19.186Z</time>
      </trkpt>
      <trkpt lat="39.48537167" lon="-8.44190667">
        <ele>82.0</ele>
        <time>2019-05-17T13:28:20.162Z</time>
      </trkpt>
      <trkpt lat="39.48537167" lon="-8.44190667">
        <ele>82.0</ele>
        <time>2019-05-17T13:28:21.181Z</time>
      </trkpt>
      <trkpt lat="39.48536167" lon="-8.441865">
        <ele>82.0</ele>
        <time>2019-05-17T13:28:22.168Z</time>
      </trkpt>
      <trkpt lat="39.48536167" lon="-8.441865">
        <ele>82.0</ele>
        <time>2019-05-17T13:28:23.180Z</time>
      </trkpt>
      <trkpt lat="39.48535167" lon="-8.44182333">
        <ele>82.0</ele>
        <time>2019-05-17T13:28:24.182Z</time>
      </trkpt>
      <trkpt lat="39.48534667" lon="-8.44180167">
        <ele>82.0</ele>
        <time>2019-05-17T13:28:25.154Z</time>
      </trkpt>
      <trkpt lat="39.48534" lon="-8.44178">
        <ele>82.0</ele>
        <time>2019-05-17T13:28:26.168Z</time>
      </trkpt>
      <trkpt lat="39.48534" lon="-8.44178">
        <ele>82.0</ele>
        <time>2019-05-17T13:28:27.172Z</time>
      </trkpt>
      <trkpt lat="39.48532833" lon="-8.441745">
        <ele>82.0</ele>
        <time>2019-05-17T13:28:28.166Z</time>
      </trkpt>
      <trkpt lat="39.48532833" lon="-8.441745">
        <ele>82.0</ele>
        <time>2019-05-17T13:28:29.167Z</time>
      </trkpt>
      <trkpt lat="39.48533" lon="-8.44174">
        <ele>82.0</ele>
        <time>2019-05-17T13:28:30.162Z</time>
      </trkpt>
      <trkpt lat="39.48533" lon="-8.44174">
        <ele>82.0</ele>
        <time>2019-05-17T13:28:31.168Z</time>
      </trkpt>
      <trkpt lat="39.48533" lon="-8.44174">
        <ele>82.0</ele>
        <time>2019-05-17T13:28:32.164Z</time>
      </trkpt>
      <trkpt lat="39.48533" lon="-8.44174">
        <ele>82.0</ele>
        <time>2019-05-17T13:28:33.151Z</time>
      </trkpt>
      <trkpt lat="39.48533" lon="-8.44174">
        <ele>82.0</ele>
        <time>2019-05-17T13:28:34.157Z</time>
      </trkpt>
      <trkpt lat="39.48533" lon="-8.44174">
        <ele>82.0</ele>
        <time>2019-05-17T13:28:35.163Z</time>
      </trkpt>
      <trkpt lat="39.48533" lon="-8.44174">
        <ele>82.0</ele>
        <time>2019-05-17T13:28:36.169Z</time>
      </trkpt>
      <trkpt lat="39.48533" lon="-8.44174">
        <ele>82.0</ele>
        <time>2019-05-17T13:28:37.174Z</time>
      </trkpt>
      <trkpt lat="39.48533" lon="-8.44174">
        <ele>82.0</ele>
        <time>2019-05-17T13:28:38.165Z</time>
      </trkpt>
      <trkpt lat="39.48533" lon="-8.44174">
        <ele>82.0</ele>
        <time>2019-05-17T13:28:39.157Z</time>
      </trkpt>
      <trkpt lat="39.48533" lon="-8.44174">
        <ele>82.0</ele>
        <time>2019-05-17T13:28:40.162Z</time>
      </trkpt>
      <trkpt lat="39.48533" lon="-8.44174">
        <ele>82.0</ele>
        <time>2019-05-17T13:28:41.167Z</time>
      </trkpt>
      <trkpt lat="39.48533" lon="-8.44174">
        <ele>82.0</ele>
        <time>2019-05-17T13:28:42.162Z</time>
      </trkpt>
      <trkpt lat="39.48533" lon="-8.44174">
        <ele>82.0</ele>
        <time>2019-05-17T13:28:43.157Z</time>
      </trkpt>
      <trkpt lat="39.48533" lon="-8.44174">
        <ele>82.0</ele>
        <time>2019-05-17T13:28:44.165Z</time>
      </trkpt>
      <trkpt lat="39.48533" lon="-8.44174">
        <ele>82.0</ele>
        <time>2019-05-17T13:28:45.157Z</time>
      </trkpt>
      <trkpt lat="39.48533" lon="-8.44174">
        <ele>82.0</ele>
        <time>2019-05-17T13:28:46.162Z</time>
      </trkpt>
      <trkpt lat="39.48533" lon="-8.44174">
        <ele>82.0</ele>
        <time>2019-05-17T13:28:47.157Z</time>
      </trkpt>
      <trkpt lat="39.48533" lon="-8.44174">
        <ele>82.0</ele>
        <time>2019-05-17T13:28:48.162Z</time>
      </trkpt>
      <trkpt lat="39.48533" lon="-8.44174">
        <ele>82.0</ele>
        <time>2019-05-17T13:28:49.164Z</time>
      </trkpt>
      <trkpt lat="39.48533" lon="-8.44174">
        <ele>82.0</ele>
        <time>2019-05-17T13:28:50.163Z</time>
      </trkpt>
      <trkpt lat="39.48533" lon="-8.44174">
        <ele>82.0</ele>
        <time>2019-05-17T13:28:51.160Z</time>
      </trkpt>
      <trkpt lat="39.48533" lon="-8.44174">
        <ele>82.0</ele>
        <time>2019-05-17T13:28:52.157Z</time>
      </trkpt>
      <trkpt lat="39.48533" lon="-8.44174">
        <ele>82.0</ele>
        <time>2019-05-17T13:28:53.160Z</time>
      </trkpt>
      <trkpt lat="39.48533" lon="-8.44174">
        <ele>82.0</ele>
        <time>2019-05-17T13:28:54.156Z</time>
      </trkpt>
      <trkpt lat="39.48533" lon="-8.44174">
        <ele>82.0</ele>
        <time>2019-05-17T13:28:55.163Z</time>
      </trkpt>
      <trkpt lat="39.48533" lon="-8.44174">
        <ele>82.0</ele>
        <time>2019-05-17T13:28:56.163Z</time>
      </trkpt>
      <trkpt lat="39.48533" lon="-8.44174">
        <ele>82.0</ele>
        <time>2019-05-17T13:28:57.159Z</time>
      </trkpt>
      <trkpt lat="39.48533" lon="-8.44174">
        <ele>82.0</ele>
        <time>2019-05-17T13:28:58.161Z</time>
      </trkpt>
      <trkpt lat="39.48533" lon="-8.44174">
        <ele>82.0</ele>
        <time>2019-05-17T13:28:59.157Z</time>
      </trkpt>
      <trkpt lat="39.48533" lon="-8.44174">
        <ele>82.0</ele>
        <time>2019-05-17T13:29:00.161Z</time>
      </trkpt>
      <trkpt lat="39.48533" lon="-8.44174">
        <ele>82.0</ele>
        <time>2019-05-17T13:29:01.157Z</time>
      </trkpt>
      <trkpt lat="39.48533" lon="-8.44174">
        <ele>82.0</ele>
        <time>2019-05-17T13:29:02.161Z</time>
      </trkpt>
      <trkpt lat="39.48533" lon="-8.44174">
        <ele>82.0</ele>
        <time>2019-05-17T13:29:03.156Z</time>
      </trkpt>
      <trkpt lat="39.48533" lon="-8.44174">
        <ele>82.0</ele>
        <time>2019-05-17T13:29:04.162Z</time>
      </trkpt>
      <trkpt lat="39.48533" lon="-8.44174">
        <ele>82.0</ele>
        <time>2019-05-17T13:29:05.157Z</time>
      </trkpt>
      <trkpt lat="39.48533" lon="-8.44174">
        <ele>82.0</ele>
        <time>2019-05-17T13:29:06.162Z</time>
      </trkpt>
      <trkpt lat="39.48533" lon="-8.44174">
        <ele>82.0</ele>
        <time>2019-05-17T13:29:07.157Z</time>
      </trkpt>
      <trkpt lat="39.48533" lon="-8.44174">
        <ele>82.0</ele>
        <time>2019-05-17T13:29:08.183Z</time>
      </trkpt>
      <trkpt lat="39.48533" lon="-8.44174">
        <ele>82.0</ele>
        <time>2019-05-17T13:29:09.153Z</time>
      </trkpt>
      <trkpt lat="39.48533" lon="-8.44174">
        <ele>82.0</ele>
        <time>2019-05-17T13:29:10.164Z</time>
      </trkpt>
      <trkpt lat="39.48533" lon="-8.44174">
        <ele>82.0</ele>
        <time>2019-05-17T13:29:11.170Z</time>
      </trkpt>
      <trkpt lat="39.48533" lon="-8.44174">
        <ele>82.0</ele>
        <time>2019-05-17T13:29:12.175Z</time>
      </trkpt>
      <trkpt lat="39.48533" lon="-8.44174">
        <ele>82.0</ele>
        <time>2019-05-17T13:29:13.163Z</time>
      </trkpt>
      <trkpt lat="39.48533" lon="-8.44174">
        <ele>82.0</ele>
        <time>2019-05-17T13:29:14.165Z</time>
      </trkpt>
      <trkpt lat="39.48533" lon="-8.44174">
        <ele>82.0</ele>
        <time>2019-05-17T13:29:15.160Z</time>
      </trkpt>
      <trkpt lat="39.48533" lon="-8.44174">
        <ele>82.0</ele>
        <time>2019-05-17T13:29:16.162Z</time>
      </trkpt>
      <trkpt lat="39.48533" lon="-8.44174">
        <ele>82.0</ele>
        <time>2019-05-17T13:29:17.152Z</time>
      </trkpt>
      <trkpt lat="39.48533" lon="-8.44174">
        <ele>82.0</ele>
        <time>2019-05-17T13:29:18.178Z</time>
      </trkpt>
      <trkpt lat="39.48533" lon="-8.44174">
        <ele>82.0</ele>
        <time>2019-05-17T13:29:19.163Z</time>
      </trkpt>
      <trkpt lat="39.48533" lon="-8.44174">
        <ele>82.0</ele>
        <time>2019-05-17T13:29:20.163Z</time>
      </trkpt>
      <trkpt lat="39.48533" lon="-8.44174">
        <ele>82.0</ele>
        <time>2019-05-17T13:29:21.156Z</time>
      </trkpt>
      <trkpt lat="39.48533" lon="-8.44174">
        <ele>82.0</ele>
        <time>2019-05-17T13:29:22.162Z</time>
      </trkpt>
      <trkpt lat="39.48533" lon="-8.44174">
        <ele>82.0</ele>
        <time>2019-05-17T13:29:23.160Z</time>
      </trkpt>
      <trkpt lat="39.48533" lon="-8.44174">
        <ele>82.0</ele>
        <time>2019-05-17T13:29:24.162Z</time>
      </trkpt>
      <trkpt lat="39.48533" lon="-8.44174">
        <ele>82.0</ele>
        <time>2019-05-17T13:29:25.155Z</time>
      </trkpt>
      <trkpt lat="39.48533" lon="-8.44174">
        <ele>82.0</ele>
        <time>2019-05-17T13:29:26.164Z</time>
      </trkpt>
      <trkpt lat="39.48533" lon="-8.44174">
        <ele>82.0</ele>
        <time>2019-05-17T13:29:27.154Z</time>
      </trkpt>
      <trkpt lat="39.48533" lon="-8.44174">
        <ele>82.0</ele>
        <time>2019-05-17T13:29:28.181Z</time>
      </trkpt>
      <trkpt lat="39.48533" lon="-8.44174">
        <ele>82.0</ele>
        <time>2019-05-17T13:29:29.167Z</time>
      </trkpt>
      <trkpt lat="39.48533" lon="-8.44174">
        <ele>82.0</ele>
        <time>2019-05-17T13:29:30.162Z</time>
      </trkpt>
      <trkpt lat="39.48533" lon="-8.44174">
        <ele>82.0</ele>
        <time>2019-05-17T13:29:31.156Z</time>
      </trkpt>
      <trkpt lat="39.48533" lon="-8.44174">
        <ele>82.0</ele>
        <time>2019-05-17T13:29:32.161Z</time>
      </trkpt>
      <trkpt lat="39.48533" lon="-8.44174">
        <ele>82.0</ele>
        <time>2019-05-17T13:29:33.156Z</time>
      </trkpt>
      <trkpt lat="39.48533" lon="-8.44174">
        <ele>82.0</ele>
        <time>2019-05-17T13:29:34.166Z</time>
      </trkpt>
      <trkpt lat="39.48533" lon="-8.44174">
        <ele>82.0</ele>
        <time>2019-05-17T13:29:35.156Z</time>
      </trkpt>
      <trkpt lat="39.48533" lon="-8.44174">
        <ele>82.0</ele>
        <time>2019-05-17T13:29:36.162Z</time>
      </trkpt>
      <trkpt lat="39.48533" lon="-8.44174">
        <ele>82.0</ele>
        <time>2019-05-17T13:29:37.152Z</time>
      </trkpt>
      <trkpt lat="39.48533" lon="-8.44174">
        <ele>82.0</ele>
        <time>2019-05-17T13:29:38.178Z</time>
      </trkpt>
      <trkpt lat="39.48533" lon="-8.44174">
        <ele>82.0</ele>
        <time>2019-05-17T13:29:39.163Z</time>
      </trkpt>
      <trkpt lat="39.48533" lon="-8.44174">
        <ele>82.0</ele>
        <time>2019-05-17T13:29:40.162Z</time>
      </trkpt>
      <trkpt lat="39.48533" lon="-8.44174">
        <ele>82.0</ele>
        <time>2019-05-17T13:29:41.156Z</time>
      </trkpt>
      <trkpt lat="39.48533" lon="-8.44174">
        <ele>82.0</ele>
        <time>2019-05-17T13:29:42.162Z</time>
      </trkpt>
      <trkpt lat="39.48533" lon="-8.44174">
        <ele>82.0</ele>
        <time>2019-05-17T13:29:43.160Z</time>
      </trkpt>
      <trkpt lat="39.48533" lon="-8.44174">
        <ele>82.0</ele>
        <time>2019-05-17T13:29:44.164Z</time>
      </trkpt>
      <trkpt lat="39.48533" lon="-8.44174">
        <ele>82.0</ele>
        <time>2019-05-17T13:29:45.156Z</time>
      </trkpt>
      <trkpt lat="39.48533" lon="-8.44174">
        <ele>82.0</ele>
        <time>2019-05-17T13:29:46.164Z</time>
      </trkpt>
      <trkpt lat="39.48533" lon="-8.44174">
        <ele>82.0</ele>
        <time>2019-05-17T13:29:47.152Z</time>
      </trkpt>
      <trkpt lat="39.48533" lon="-8.44174">
        <ele>82.0</ele>
        <time>2019-05-17T13:29:48.181Z</time>
      </trkpt>
      <trkpt lat="39.48533" lon="-8.44174">
        <ele>82.0</ele>
        <time>2019-05-17T13:29:49.166Z</time>
      </trkpt>
      <trkpt lat="39.48533" lon="-8.44174">
        <ele>82.0</ele>
        <time>2019-05-17T13:29:50.166Z</time>
      </trkpt>
      <trkpt lat="39.48533" lon="-8.44174">
        <ele>82.0</ele>
        <time>2019-05-17T13:29:51.164Z</time>
      </trkpt>
      <trkpt lat="39.48533" lon="-8.44174">
        <ele>82.0</ele>
        <time>2019-05-17T13:29:52.156Z</time>
      </trkpt>
      <trkpt lat="39.48533" lon="-8.44174">
        <ele>82.0</ele>
        <time>2019-05-17T13:29:53.164Z</time>
      </trkpt>
      <trkpt lat="39.48533" lon="-8.44174">
        <ele>82.0</ele>
        <time>2019-05-17T13:29:54.157Z</time>
      </trkpt>
      <trkpt lat="39.48533" lon="-8.44174">
        <ele>82.0</ele>
        <time>2019-05-17T13:29:55.156Z</time>
      </trkpt>
      <trkpt lat="39.48533" lon="-8.44174">
        <ele>82.0</ele>
        <time>2019-05-17T13:29:56.164Z</time>
      </trkpt>
      <trkpt lat="39.48533" lon="-8.44174">
        <ele>82.0</ele>
        <time>2019-05-17T13:29:57.154Z</time>
      </trkpt>
      <trkpt lat="39.48533" lon="-8.44174">
        <ele>82.0</ele>
        <time>2019-05-17T13:29:58.151Z</time>
      </trkpt>
      <trkpt lat="39.48533" lon="-8.44174">
        <ele>82.0</ele>
        <time>2019-05-17T13:29:59.177Z</time>
      </trkpt>
      <trkpt lat="39.48533" lon="-8.44174">
        <ele>82.0</ele>
        <time>2019-05-17T13:30:00.162Z</time>
      </trkpt>
      <trkpt lat="39.48533" lon="-8.44174">
        <ele>82.0</ele>
        <time>2019-05-17T13:30:01.164Z</time>
      </trkpt>
      <trkpt lat="39.48533" lon="-8.44174">
        <ele>82.0</ele>
        <time>2019-05-17T13:30:02.165Z</time>
      </trkpt>
      <trkpt lat="39.48533" lon="-8.44174">
        <ele>82.0</ele>
        <time>2019-05-17T13:30:03.155Z</time>
      </trkpt>
      <trkpt lat="39.48533" lon="-8.44174">
        <ele>82.0</ele>
        <time>2019-05-17T13:30:04.164Z</time>
      </trkpt>
      <trkpt lat="39.48533" lon="-8.44174">
        <ele>82.0</ele>
        <time>2019-05-17T13:30:05.156Z</time>
      </trkpt>
      <trkpt lat="39.48533" lon="-8.44174">
        <ele>82.0</ele>
        <time>2019-05-17T13:30:06.164Z</time>
      </trkpt>
      <trkpt lat="39.48533" lon="-8.44174">
        <ele>82.0</ele>
        <time>2019-05-17T13:30:07.163Z</time>
      </trkpt>
      <trkpt lat="39.48533" lon="-8.44174">
        <ele>82.0</ele>
        <time>2019-05-17T13:30:08.158Z</time>
      </trkpt>
      <trkpt lat="39.48533" lon="-8.44174">
        <ele>82.0</ele>
        <time>2019-05-17T13:30:09.166Z</time>
      </trkpt>
      <trkpt lat="39.48533" lon="-8.44174">
        <ele>82.0</ele>
        <time>2019-05-17T13:30:10.185Z</time>
      </trkpt>
      <trkpt lat="39.48533" lon="-8.44174">
        <ele>82.0</ele>
        <time>2019-05-17T13:30:11.151Z</time>
      </trkpt>
      <trkpt lat="39.48533" lon="-8.44174">
        <ele>82.0</ele>
        <time>2019-05-17T13:30:12.157Z</time>
      </trkpt>
      <trkpt lat="39.48533" lon="-8.44174">
        <ele>82.0</ele>
        <time>2019-05-17T13:30:13.163Z</time>
      </trkpt>
      <trkpt lat="39.48533" lon="-8.44174">
        <ele>82.0</ele>
        <time>2019-05-17T13:30:14.165Z</time>
      </trkpt>
      <trkpt lat="39.48533" lon="-8.44174">
        <ele>82.0</ele>
        <time>2019-05-17T13:30:15.156Z</time>
      </trkpt>
      <trkpt lat="39.48533" lon="-8.44174">
        <ele>82.0</ele>
        <time>2019-05-17T13:30:16.172Z</time>
      </trkpt>
      <trkpt lat="39.48533" lon="-8.44174">
        <ele>82.0</ele>
        <time>2019-05-17T13:30:17.167Z</time>
      </trkpt>
      <trkpt lat="39.48533" lon="-8.44174">
        <ele>82.0</ele>
        <time>2019-05-17T13:30:18.163Z</time>
      </trkpt>
      <trkpt lat="39.48533" lon="-8.44174">
        <ele>82.0</ele>
        <time>2019-05-17T13:30:19.163Z</time>
      </trkpt>
      <trkpt lat="39.48533" lon="-8.44174">
        <ele>82.0</ele>
        <time>2019-05-17T13:30:20.158Z</time>
      </trkpt>
      <trkpt lat="39.48535" lon="-8.44171167">
        <ele>79.0</ele>
        <time>2019-05-17T13:30:21.164Z</time>
      </trkpt>
      <trkpt lat="39.48534833" lon="-8.44169333">
        <ele>79.0</ele>
        <time>2019-05-17T13:30:22.163Z</time>
      </trkpt>
      <trkpt lat="39.48534667" lon="-8.441665">
        <ele>79.0</ele>
        <time>2019-05-17T13:30:23.162Z</time>
      </trkpt>
      <trkpt lat="39.485345" lon="-8.44163333">
        <ele>79.0</ele>
        <time>2019-05-17T13:30:24.163Z</time>
      </trkpt>
      <trkpt lat="39.485345" lon="-8.44163333">
        <ele>79.0</ele>
        <time>2019-05-17T13:30:25.156Z</time>
      </trkpt>
      <trkpt lat="39.48533167" lon="-8.441565">
        <ele>79.0</ele>
        <time>2019-05-17T13:30:26.180Z</time>
      </trkpt>
      <trkpt lat="39.48533167" lon="-8.441565">
        <ele>79.0</ele>
        <time>2019-05-17T13:30:27.160Z</time>
      </trkpt>
      <trkpt lat="39.48532167" lon="-8.44150167">
        <ele>80.0</ele>
        <time>2019-05-17T13:30:28.153Z</time>
      </trkpt>
      <trkpt lat="39.48532167" lon="-8.44150167">
        <ele>80.0</ele>
        <time>2019-05-17T13:30:29.161Z</time>
      </trkpt>
      <trkpt lat="39.48531" lon="-8.44144333">
        <ele>80.0</ele>
        <time>2019-05-17T13:30:30.165Z</time>
      </trkpt>
      <trkpt lat="39.48531" lon="-8.44144333">
        <ele>80.0</ele>
        <time>2019-05-17T13:30:31.170Z</time>
      </trkpt>
      <trkpt lat="39.48529667" lon="-8.44138667">
        <ele>80.0</ele>
        <time>2019-05-17T13:30:32.153Z</time>
      </trkpt>
      <trkpt lat="39.48529667" lon="-8.44138667">
        <ele>80.0</ele>
        <time>2019-05-17T13:30:33.176Z</time>
      </trkpt>
      <trkpt lat="39.48528333" lon="-8.44133167">
        <ele>81.0</ele>
        <time>2019-05-17T13:30:34.181Z</time>
      </trkpt>
      <trkpt lat="39.48528333" lon="-8.44133167">
        <ele>81.0</ele>
        <time>2019-05-17T13:30:35.166Z</time>
      </trkpt>
      <trkpt lat="39.48527" lon="-8.44128167">
        <ele>81.0</ele>
        <time>2019-05-17T13:30:36.175Z</time>
      </trkpt>
      <trkpt lat="39.48527" lon="-8.44128167">
        <ele>81.0</ele>
        <time>2019-05-17T13:30:37.153Z</time>
      </trkpt>
      <trkpt lat="39.48526167" lon="-8.44122667">
        <ele>81.0</ele>
        <time>2019-05-17T13:30:38.193Z</time>
      </trkpt>
      <trkpt lat="39.48526167" lon="-8.44122667">
        <ele>81.0</ele>
        <time>2019-05-17T13:30:39.165Z</time>
      </trkpt>
      <trkpt lat="39.48525167" lon="-8.44117333">
        <ele>82.0</ele>
        <time>2019-05-17T13:30:40.155Z</time>
      </trkpt>
      <trkpt lat="39.48525167" lon="-8.44117333">
        <ele>82.0</ele>
        <time>2019-05-17T13:30:41.168Z</time>
      </trkpt>
      <trkpt lat="39.48524333" lon="-8.44112667">
        <ele>82.0</ele>
        <time>2019-05-17T13:30:42.161Z</time>
      </trkpt>
      <trkpt lat="39.48524333" lon="-8.44112667">
        <ele>82.0</ele>
        <time>2019-05-17T13:30:43.182Z</time>
      </trkpt>
      <trkpt lat="39.48524167" lon="-8.44107833">
        <ele>82.0</ele>
        <time>2019-05-17T13:30:44.185Z</time>
      </trkpt>
      <trkpt lat="39.48524167" lon="-8.44107833">
        <ele>82.0</ele>
        <time>2019-05-17T13:30:45.180Z</time>
      </trkpt>
      <trkpt lat="39.48523333" lon="-8.44103833">
        <ele>83.0</ele>
        <time>2019-05-17T13:30:46.175Z</time>
      </trkpt>
      <trkpt lat="39.48523333" lon="-8.44103833">
        <ele>83.0</ele>
        <time>2019-05-17T13:30:47.152Z</time>
      </trkpt>
      <trkpt lat="39.48522667" lon="-8.440995">
        <ele>83.0</ele>
        <time>2019-05-17T13:30:48.179Z</time>
      </trkpt>
      <trkpt lat="39.48522667" lon="-8.440995">
        <ele>83.0</ele>
        <time>2019-05-17T13:30:49.154Z</time>
      </trkpt>
      <trkpt lat="39.48521833" lon="-8.44094667">
        <ele>83.0</ele>
        <time>2019-05-17T13:30:50.155Z</time>
      </trkpt>
      <trkpt lat="39.48521833" lon="-8.44094667">
        <ele>83.0</ele>
        <time>2019-05-17T13:30:51.168Z</time>
      </trkpt>
      <trkpt lat="39.48521" lon="-8.44088333">
        <ele>84.0</ele>
        <time>2019-05-17T13:30:52.162Z</time>
      </trkpt>
      <trkpt lat="39.48521" lon="-8.44088333">
        <ele>84.0</ele>
        <time>2019-05-17T13:30:53.150Z</time>
      </trkpt>
      <trkpt lat="39.48519333" lon="-8.44081667">
        <ele>85.0</ele>
        <time>2019-05-17T13:30:54.155Z</time>
      </trkpt>
      <trkpt lat="39.48519333" lon="-8.44081667">
        <ele>85.0</ele>
        <time>2019-05-17T13:30:55.185Z</time>
      </trkpt>
      <trkpt lat="39.48517333" lon="-8.44076333">
        <ele>86.0</ele>
        <time>2019-05-17T13:30:56.185Z</time>
      </trkpt>
      <trkpt lat="39.48517333" lon="-8.44076333">
        <ele>86.0</ele>
        <time>2019-05-17T13:30:57.166Z</time>
      </trkpt>
      <trkpt lat="39.48515167" lon="-8.44072333">
        <ele>86.0</ele>
        <time>2019-05-17T13:30:58.183Z</time>
      </trkpt>
      <trkpt lat="39.48515167" lon="-8.44072333">
        <ele>86.0</ele>
        <time>2019-05-17T13:30:59.151Z</time>
      </trkpt>
      <trkpt lat="39.48512167" lon="-8.44069167">
        <ele>85.0</ele>
        <time>2019-05-17T13:31:00.151Z</time>
      </trkpt>
      <trkpt lat="39.48512167" lon="-8.44069167">
        <ele>85.0</ele>
        <time>2019-05-17T13:31:01.183Z</time>
      </trkpt>
      <trkpt lat="39.48508667" lon="-8.44066167">
        <ele>85.0</ele>
        <time>2019-05-17T13:31:02.188Z</time>
      </trkpt>
      <trkpt lat="39.48508667" lon="-8.44066167">
        <ele>85.0</ele>
        <time>2019-05-17T13:31:03.161Z</time>
      </trkpt>
      <trkpt lat="39.48505167" lon="-8.44063">
        <ele>86.0</ele>
        <time>2019-05-17T13:31:04.189Z</time>
      </trkpt>
      <trkpt lat="39.48505167" lon="-8.44063">
        <ele>86.0</ele>
        <time>2019-05-17T13:31:05.154Z</time>
      </trkpt>
      <trkpt lat="39.48502" lon="-8.4406">
        <ele>86.0</ele>
        <time>2019-05-17T13:31:06.166Z</time>
      </trkpt>
      <trkpt lat="39.48502" lon="-8.4406">
        <ele>86.0</ele>
        <time>2019-05-17T13:31:07.171Z</time>
      </trkpt>
      <trkpt lat="39.48499333" lon="-8.44056">
        <ele>87.0</ele>
        <time>2019-05-17T13:31:08.175Z</time>
      </trkpt>
      <trkpt lat="39.48499333" lon="-8.44056">
        <ele>87.0</ele>
        <time>2019-05-17T13:31:09.167Z</time>
      </trkpt>
      <trkpt lat="39.48496667" lon="-8.44052">
        <ele>87.0</ele>
        <time>2019-05-17T13:31:10.166Z</time>
      </trkpt>
      <trkpt lat="39.48496667" lon="-8.44052">
        <ele>87.0</ele>
        <time>2019-05-17T13:31:11.154Z</time>
      </trkpt>
      <trkpt lat="39.48494333" lon="-8.44047333">
        <ele>88.0</ele>
        <time>2019-05-17T13:31:12.185Z</time>
      </trkpt>
      <trkpt lat="39.48494333" lon="-8.44047333">
        <ele>88.0</ele>
        <time>2019-05-17T13:31:13.170Z</time>
      </trkpt>
      <trkpt lat="39.48492833" lon="-8.440425">
        <ele>88.0</ele>
        <time>2019-05-17T13:31:14.155Z</time>
      </trkpt>
      <trkpt lat="39.48492833" lon="-8.440425">
        <ele>88.0</ele>
        <time>2019-05-17T13:31:15.178Z</time>
      </trkpt>
      <trkpt lat="39.48490833" lon="-8.44038333">
        <ele>89.0</ele>
        <time>2019-05-17T13:31:16.178Z</time>
      </trkpt>
      <trkpt lat="39.48490833" lon="-8.44038333">
        <ele>89.0</ele>
        <time>2019-05-17T13:31:17.155Z</time>
      </trkpt>
      <trkpt lat="39.484895" lon="-8.44034">
        <ele>89.0</ele>
        <time>2019-05-17T13:31:18.184Z</time>
      </trkpt>
      <trkpt lat="39.484895" lon="-8.44034">
        <ele>89.0</ele>
        <time>2019-05-17T13:31:19.159Z</time>
      </trkpt>
      <trkpt lat="39.48488333" lon="-8.44029833">
        <ele>89.0</ele>
        <time>2019-05-17T13:31:20.190Z</time>
      </trkpt>
      <trkpt lat="39.48488333" lon="-8.44029833">
        <ele>89.0</ele>
        <time>2019-05-17T13:31:21.174Z</time>
      </trkpt>
      <trkpt lat="39.48487333" lon="-8.44024833">
        <ele>89.0</ele>
        <time>2019-05-17T13:31:22.163Z</time>
      </trkpt>
      <trkpt lat="39.48487333" lon="-8.44024833">
        <ele>89.0</ele>
        <time>2019-05-17T13:31:23.177Z</time>
      </trkpt>
      <trkpt lat="39.48486167" lon="-8.44019167">
        <ele>89.0</ele>
        <time>2019-05-17T13:31:24.152Z</time>
      </trkpt>
      <trkpt lat="39.48486167" lon="-8.44019167">
        <ele>89.0</ele>
        <time>2019-05-17T13:31:25.165Z</time>
      </trkpt>
      <trkpt lat="39.48484833" lon="-8.44013">
        <ele>89.0</ele>
        <time>2019-05-17T13:31:26.171Z</time>
      </trkpt>
      <trkpt lat="39.48484833" lon="-8.44013">
        <ele>89.0</ele>
        <time>2019-05-17T13:31:27.154Z</time>
      </trkpt>
      <trkpt lat="39.48483667" lon="-8.44006">
        <ele>89.0</ele>
        <time>2019-05-17T13:31:28.155Z</time>
      </trkpt>
      <trkpt lat="39.48483667" lon="-8.44006">
        <ele>89.0</ele>
        <time>2019-05-17T13:31:29.161Z</time>
      </trkpt>
      <trkpt lat="39.48483167" lon="-8.439985">
        <ele>89.0</ele>
        <time>2019-05-17T13:31:30.177Z</time>
      </trkpt>
      <trkpt lat="39.48483167" lon="-8.439985">
        <ele>89.0</ele>
        <time>2019-05-17T13:31:31.185Z</time>
      </trkpt>
      <trkpt lat="39.48483" lon="-8.43990333">
        <ele>89.0</ele>
        <time>2019-05-17T13:31:32.175Z</time>
      </trkpt>
      <trkpt lat="39.48483" lon="-8.43990333">
        <ele>89.0</ele>
        <time>2019-05-17T13:31:33.160Z</time>
      </trkpt>
      <trkpt lat="39.48483167" lon="-8.43981333">
        <ele>89.0</ele>
        <time>2019-05-17T13:31:34.155Z</time>
      </trkpt>
      <trkpt lat="39.48483167" lon="-8.43981333">
        <ele>89.0</ele>
        <time>2019-05-17T13:31:35.185Z</time>
      </trkpt>
      <trkpt lat="39.484825" lon="-8.43973167">
        <ele>89.0</ele>
        <time>2019-05-17T13:31:36.174Z</time>
      </trkpt>
      <trkpt lat="39.484825" lon="-8.43973167">
        <ele>89.0</ele>
        <time>2019-05-17T13:31:37.157Z</time>
      </trkpt>
      <trkpt lat="39.48481333" lon="-8.439665">
        <ele>88.0</ele>
        <time>2019-05-17T13:31:38.160Z</time>
      </trkpt>
      <trkpt lat="39.48481333" lon="-8.439665">
        <ele>88.0</ele>
        <time>2019-05-17T13:31:39.165Z</time>
      </trkpt>
      <trkpt lat="39.48479667" lon="-8.43961">
        <ele>89.0</ele>
        <time>2019-05-17T13:31:40.167Z</time>
      </trkpt>
      <trkpt lat="39.48479667" lon="-8.43961">
        <ele>89.0</ele>
        <time>2019-05-17T13:31:41.172Z</time>
      </trkpt>
      <trkpt lat="39.48477333" lon="-8.43955667">
        <ele>89.0</ele>
        <time>2019-05-17T13:31:42.159Z</time>
      </trkpt>
      <trkpt lat="39.48477333" lon="-8.43955667">
        <ele>89.0</ele>
        <time>2019-05-17T13:31:43.154Z</time>
      </trkpt>
      <trkpt lat="39.48474667" lon="-8.439515">
        <ele>90.0</ele>
        <time>2019-05-17T13:31:44.155Z</time>
      </trkpt>
      <trkpt lat="39.48474667" lon="-8.439515">
        <ele>90.0</ele>
        <time>2019-05-17T13:31:45.154Z</time>
      </trkpt>
      <trkpt lat="39.48471833" lon="-8.43946333">
        <ele>91.0</ele>
        <time>2019-05-17T13:31:46.152Z</time>
      </trkpt>
      <trkpt lat="39.48471833" lon="-8.43946333">
        <ele>91.0</ele>
        <time>2019-05-17T13:31:47.157Z</time>
      </trkpt>
      <trkpt lat="39.48469333" lon="-8.4394">
        <ele>91.0</ele>
        <time>2019-05-17T13:31:48.190Z</time>
      </trkpt>
      <trkpt lat="39.48469333" lon="-8.4394">
        <ele>91.0</ele>
        <time>2019-05-17T13:31:49.155Z</time>
      </trkpt>
      <trkpt lat="39.48466833" lon="-8.43932667">
        <ele>92.0</ele>
        <time>2019-05-17T13:31:50.169Z</time>
      </trkpt>
      <trkpt lat="39.48466833" lon="-8.43932667">
        <ele>92.0</ele>
        <time>2019-05-17T13:31:51.177Z</time>
      </trkpt>
      <trkpt lat="39.48465833" lon="-8.43925">
        <ele>92.0</ele>
        <time>2019-05-17T13:31:52.177Z</time>
      </trkpt>
      <trkpt lat="39.48465833" lon="-8.43925">
        <ele>92.0</ele>
        <time>2019-05-17T13:31:53.164Z</time>
      </trkpt>
      <trkpt lat="39.48465833" lon="-8.43916833">
        <ele>93.0</ele>
        <time>2019-05-17T13:31:54.165Z</time>
      </trkpt>
      <trkpt lat="39.48465833" lon="-8.43916833">
        <ele>93.0</ele>
        <time>2019-05-17T13:31:55.170Z</time>
      </trkpt>
      <trkpt lat="39.484665" lon="-8.43908">
        <ele>93.0</ele>
        <time>2019-05-17T13:31:56.174Z</time>
      </trkpt>
      <trkpt lat="39.484665" lon="-8.43908">
        <ele>93.0</ele>
        <time>2019-05-17T13:31:57.169Z</time>
      </trkpt>
      <trkpt lat="39.48467667" lon="-8.439">
        <ele>94.0</ele>
        <time>2019-05-17T13:31:58.181Z</time>
      </trkpt>
      <trkpt lat="39.48467667" lon="-8.439">
        <ele>94.0</ele>
        <time>2019-05-17T13:31:59.153Z</time>
      </trkpt>
      <trkpt lat="39.48468167" lon="-8.438925">
        <ele>94.0</ele>
        <time>2019-05-17T13:32:00.189Z</time>
      </trkpt>
      <trkpt lat="39.48468167" lon="-8.438925">
        <ele>94.0</ele>
        <time>2019-05-17T13:32:01.154Z</time>
      </trkpt>
      <trkpt lat="39.48468833" lon="-8.43885833">
        <ele>95.0</ele>
        <time>2019-05-17T13:32:02.164Z</time>
      </trkpt>
      <trkpt lat="39.48468833" lon="-8.43885833">
        <ele>95.0</ele>
        <time>2019-05-17T13:32:03.157Z</time>
      </trkpt>
      <trkpt lat="39.48469833" lon="-8.43880833">
        <ele>95.0</ele>
        <time>2019-05-17T13:32:04.155Z</time>
      </trkpt>
      <trkpt lat="39.48469833" lon="-8.43880833">
        <ele>95.0</ele>
        <time>2019-05-17T13:32:05.159Z</time>
      </trkpt>
      <trkpt lat="39.48470667" lon="-8.438765">
        <ele>95.0</ele>
        <time>2019-05-17T13:32:06.167Z</time>
      </trkpt>
      <trkpt lat="39.48470667" lon="-8.438765">
        <ele>95.0</ele>
        <time>2019-05-17T13:32:07.165Z</time>
      </trkpt>
      <trkpt lat="39.48471833" lon="-8.43872">
        <ele>95.0</ele>
        <time>2019-05-17T13:32:08.150Z</time>
      </trkpt>
      <trkpt lat="39.48471833" lon="-8.43872">
        <ele>95.0</ele>
        <time>2019-05-17T13:32:09.176Z</time>
      </trkpt>
      <trkpt lat="39.48473167" lon="-8.438675">
        <ele>95.0</ele>
        <time>2019-05-17T13:32:10.155Z</time>
      </trkpt>
      <trkpt lat="39.48473167" lon="-8.438675">
        <ele>95.0</ele>
        <time>2019-05-17T13:32:11.157Z</time>
      </trkpt>
      <trkpt lat="39.48473833" lon="-8.438635">
        <ele>95.0</ele>
        <time>2019-05-17T13:32:12.153Z</time>
      </trkpt>
      <trkpt lat="39.48473833" lon="-8.438635">
        <ele>95.0</ele>
        <time>2019-05-17T13:32:13.181Z</time>
      </trkpt>
      <trkpt lat="39.48475167" lon="-8.43859333">
        <ele>95.0</ele>
        <time>2019-05-17T13:32:14.185Z</time>
      </trkpt>
      <trkpt lat="39.48475167" lon="-8.43859333">
        <ele>95.0</ele>
        <time>2019-05-17T13:32:15.160Z</time>
      </trkpt>
      <trkpt lat="39.48477" lon="-8.438555">
        <ele>95.0</ele>
        <time>2019-05-17T13:32:16.165Z</time>
      </trkpt>
      <trkpt lat="39.48477" lon="-8.438555">
        <ele>95.0</ele>
        <time>2019-05-17T13:32:17.170Z</time>
      </trkpt>
      <trkpt lat="39.48479333" lon="-8.43851667">
        <ele>96.0</ele>
        <time>2019-05-17T13:32:18.172Z</time>
      </trkpt>
      <trkpt lat="39.48479333" lon="-8.43851667">
        <ele>96.0</ele>
        <time>2019-05-17T13:32:19.181Z</time>
      </trkpt>
      <trkpt lat="39.484815" lon="-8.43847333">
        <ele>97.0</ele>
        <time>2019-05-17T13:32:20.172Z</time>
      </trkpt>
      <trkpt lat="39.484815" lon="-8.43847333">
        <ele>97.0</ele>
        <time>2019-05-17T13:32:21.166Z</time>
      </trkpt>
      <trkpt lat="39.48484333" lon="-8.43844333">
        <ele>98.0</ele>
        <time>2019-05-17T13:32:22.160Z</time>
      </trkpt>
      <trkpt lat="39.48484333" lon="-8.43844333">
        <ele>98.0</ele>
        <time>2019-05-17T13:32:23.171Z</time>
      </trkpt>
      <trkpt lat="39.48486667" lon="-8.4384">
        <ele>98.0</ele>
        <time>2019-05-17T13:32:24.185Z</time>
      </trkpt>
      <trkpt lat="39.48486667" lon="-8.4384">
        <ele>98.0</ele>
        <time>2019-05-17T13:32:25.155Z</time>
      </trkpt>
      <trkpt lat="39.48488833" lon="-8.43835667">
        <ele>99.0</ele>
        <time>2019-05-17T13:32:26.155Z</time>
      </trkpt>
      <trkpt lat="39.48488833" lon="-8.43835667">
        <ele>99.0</ele>
        <time>2019-05-17T13:32:27.165Z</time>
      </trkpt>
      <trkpt lat="39.48491833" lon="-8.438315">
        <ele>99.0</ele>
        <time>2019-05-17T13:32:28.157Z</time>
      </trkpt>
      <trkpt lat="39.48491833" lon="-8.438315">
        <ele>99.0</ele>
        <time>2019-05-17T13:32:29.162Z</time>
      </trkpt>
      <trkpt lat="39.48495" lon="-8.43827333">
        <ele>99.0</ele>
        <time>2019-05-17T13:32:30.156Z</time>
      </trkpt>
      <trkpt lat="39.48495" lon="-8.43827333">
        <ele>99.0</ele>
        <time>2019-05-17T13:32:31.170Z</time>
      </trkpt>
      <trkpt lat="39.48497667" lon="-8.43821833">
        <ele>100.0</ele>
        <time>2019-05-17T13:32:32.150Z</time>
      </trkpt>
      <trkpt lat="39.48497667" lon="-8.43821833">
        <ele>100.0</ele>
        <time>2019-05-17T13:32:33.156Z</time>
      </trkpt>
      <trkpt lat="39.48500667" lon="-8.43816">
        <ele>100.0</ele>
        <time>2019-05-17T13:32:34.156Z</time>
      </trkpt>
      <trkpt lat="39.48500667" lon="-8.43816">
        <ele>100.0</ele>
        <time>2019-05-17T13:32:35.167Z</time>
      </trkpt>
      <trkpt lat="39.48503833" lon="-8.43809667">
        <ele>100.0</ele>
        <time>2019-05-17T13:32:36.151Z</time>
      </trkpt>
      <trkpt lat="39.48503833" lon="-8.43809667">
        <ele>100.0</ele>
        <time>2019-05-17T13:32:37.189Z</time>
      </trkpt>
      <trkpt lat="39.48506667" lon="-8.43804167">
        <ele>100.0</ele>
        <time>2019-05-17T13:32:38.183Z</time>
      </trkpt>
      <trkpt lat="39.48506667" lon="-8.43804167">
        <ele>100.0</ele>
        <time>2019-05-17T13:32:39.153Z</time>
      </trkpt>
      <trkpt lat="39.48509" lon="-8.43799">
        <ele>100.0</ele>
        <time>2019-05-17T13:32:40.195Z</time>
      </trkpt>
      <trkpt lat="39.48509" lon="-8.43799">
        <ele>100.0</ele>
        <time>2019-05-17T13:32:41.168Z</time>
      </trkpt>
      <trkpt lat="39.485115" lon="-8.43793667">
        <ele>101.0</ele>
        <time>2019-05-17T13:32:42.185Z</time>
      </trkpt>
      <trkpt lat="39.485115" lon="-8.43793667">
        <ele>101.0</ele>
        <time>2019-05-17T13:32:43.169Z</time>
      </trkpt>
      <trkpt lat="39.48514" lon="-8.437885">
        <ele>101.0</ele>
        <time>2019-05-17T13:32:44.167Z</time>
      </trkpt>
      <trkpt lat="39.48514" lon="-8.437885">
        <ele>101.0</ele>
        <time>2019-05-17T13:32:45.161Z</time>
      </trkpt>
      <trkpt lat="39.48516167" lon="-8.43783833">
        <ele>101.0</ele>
        <time>2019-05-17T13:32:46.164Z</time>
      </trkpt>
      <trkpt lat="39.48516167" lon="-8.43783833">
        <ele>101.0</ele>
        <time>2019-05-17T13:32:47.171Z</time>
      </trkpt>
      <trkpt lat="39.48518333" lon="-8.437795">
        <ele>102.0</ele>
        <time>2019-05-17T13:32:48.168Z</time>
      </trkpt>
      <trkpt lat="39.48518333" lon="-8.437795">
        <ele>102.0</ele>
        <time>2019-05-17T13:32:49.173Z</time>
      </trkpt>
      <trkpt lat="39.48521" lon="-8.437745">
        <ele>102.0</ele>
        <time>2019-05-17T13:32:50.166Z</time>
      </trkpt>
      <trkpt lat="39.48521" lon="-8.437745">
        <ele>102.0</ele>
        <time>2019-05-17T13:32:51.154Z</time>
      </trkpt>
      <trkpt lat="39.485235" lon="-8.4377">
        <ele>102.0</ele>
        <time>2019-05-17T13:32:52.183Z</time>
      </trkpt>
      <trkpt lat="39.485235" lon="-8.4377">
        <ele>102.0</ele>
        <time>2019-05-17T13:32:53.169Z</time>
      </trkpt>
      <trkpt lat="39.485265" lon="-8.43765833">
        <ele>103.0</ele>
        <time>2019-05-17T13:32:54.172Z</time>
      </trkpt>
      <trkpt lat="39.485265" lon="-8.43765833">
        <ele>103.0</ele>
        <time>2019-05-17T13:32:55.162Z</time>
      </trkpt>
      <trkpt lat="39.48529167" lon="-8.437615">
        <ele>103.0</ele>
        <time>2019-05-17T13:32:56.161Z</time>
      </trkpt>
      <trkpt lat="39.48529167" lon="-8.437615">
        <ele>103.0</ele>
        <time>2019-05-17T13:32:57.189Z</time>
      </trkpt>
      <trkpt lat="39.48532667" lon="-8.43756667">
        <ele>103.0</ele>
        <time>2019-05-17T13:32:58.154Z</time>
      </trkpt>
      <trkpt lat="39.48532667" lon="-8.43756667">
        <ele>103.0</ele>
        <time>2019-05-17T13:32:59.174Z</time>
      </trkpt>
      <trkpt lat="39.48536333" lon="-8.43752">
        <ele>104.0</ele>
        <time>2019-05-17T13:33:00.165Z</time>
      </trkpt>
      <trkpt lat="39.48536333" lon="-8.43752">
        <ele>104.0</ele>
        <time>2019-05-17T13:33:01.177Z</time>
      </trkpt>
      <trkpt lat="39.48539" lon="-8.437495">
        <ele>104.0</ele>
        <time>2019-05-17T13:33:02.171Z</time>
      </trkpt>
      <trkpt lat="39.48539" lon="-8.437495">
        <ele>104.0</ele>
        <time>2019-05-17T13:33:03.168Z</time>
      </trkpt>
      <trkpt lat="39.485415" lon="-8.43747">
        <ele>104.0</ele>
        <time>2019-05-17T13:33:04.165Z</time>
      </trkpt>
      <trkpt lat="39.485415" lon="-8.43747">
        <ele>104.0</ele>
        <time>2019-05-17T13:33:05.189Z</time>
      </trkpt>
      <trkpt lat="39.48544" lon="-8.437445">
        <ele>104.0</ele>
        <time>2019-05-17T13:33:06.175Z</time>
      </trkpt>
      <trkpt lat="39.48544" lon="-8.437445">
        <ele>104.0</ele>
        <time>2019-05-17T13:33:07.189Z</time>
      </trkpt>
      <trkpt lat="39.48547" lon="-8.43741">
        <ele>105.0</ele>
        <time>2019-05-17T13:33:08.181Z</time>
      </trkpt>
      <trkpt lat="39.48547" lon="-8.43741">
        <ele>105.0</ele>
        <time>2019-05-17T13:33:09.186Z</time>
      </trkpt>
      <trkpt lat="39.48551" lon="-8.43737667">
        <ele>105.0</ele>
        <time>2019-05-17T13:33:10.158Z</time>
      </trkpt>
      <trkpt lat="39.48552833" lon="-8.43736167">
        <ele>105.0</ele>
        <time>2019-05-17T13:33:11.185Z</time>
      </trkpt>
      <trkpt lat="39.48552833" lon="-8.43736167">
        <ele>105.0</ele>
        <time>2019-05-17T13:33:12.151Z</time>
      </trkpt>
      <trkpt lat="39.48556667" lon="-8.43733167">
        <ele>105.0</ele>
        <time>2019-05-17T13:33:13.175Z</time>
      </trkpt>
      <trkpt lat="39.485585" lon="-8.437315">
        <ele>105.0</ele>
        <time>2019-05-17T13:33:14.180Z</time>
      </trkpt>
      <trkpt lat="39.485585" lon="-8.437315">
        <ele>105.0</ele>
        <time>2019-05-17T13:33:15.167Z</time>
      </trkpt>
      <trkpt lat="39.48561667" lon="-8.43728833">
        <ele>106.0</ele>
        <time>2019-05-17T13:33:16.155Z</time>
      </trkpt>
      <trkpt lat="39.48561667" lon="-8.43728833">
        <ele>106.0</ele>
        <time>2019-05-17T13:33:17.158Z</time>
      </trkpt>
      <trkpt lat="39.48565167" lon="-8.43725833">
        <ele>106.0</ele>
        <time>2019-05-17T13:33:18.155Z</time>
      </trkpt>
      <trkpt lat="39.48565167" lon="-8.43725833">
        <ele>106.0</ele>
        <time>2019-05-17T13:33:19.168Z</time>
      </trkpt>
      <trkpt lat="39.48568833" lon="-8.43723">
        <ele>107.0</ele>
        <time>2019-05-17T13:33:20.178Z</time>
      </trkpt>
      <trkpt lat="39.48568833" lon="-8.43723">
        <ele>107.0</ele>
        <time>2019-05-17T13:33:21.166Z</time>
      </trkpt>
      <trkpt lat="39.48572833" lon="-8.43720833">
        <ele>107.0</ele>
        <time>2019-05-17T13:33:22.165Z</time>
      </trkpt>
      <trkpt lat="39.48572833" lon="-8.43720833">
        <ele>107.0</ele>
        <time>2019-05-17T13:33:23.170Z</time>
      </trkpt>
      <trkpt lat="39.48577833" lon="-8.437185">
        <ele>107.0</ele>
        <time>2019-05-17T13:33:24.171Z</time>
      </trkpt>
      <trkpt lat="39.48577833" lon="-8.437185">
        <ele>107.0</ele>
        <time>2019-05-17T13:33:25.189Z</time>
      </trkpt>
      <trkpt lat="39.48581" lon="-8.43716">
        <ele>108.0</ele>
        <time>2019-05-17T13:33:26.156Z</time>
      </trkpt>
      <trkpt lat="39.48581" lon="-8.43716">
        <ele>108.0</ele>
        <time>2019-05-17T13:33:27.166Z</time>
      </trkpt>
      <trkpt lat="39.48584167" lon="-8.437135">
        <ele>108.0</ele>
        <time>2019-05-17T13:33:28.168Z</time>
      </trkpt>
      <trkpt lat="39.48584167" lon="-8.437135">
        <ele>108.0</ele>
        <time>2019-05-17T13:33:29.174Z</time>
      </trkpt>
      <trkpt lat="39.48587" lon="-8.43711333">
        <ele>109.0</ele>
        <time>2019-05-17T13:33:30.178Z</time>
      </trkpt>
      <trkpt lat="39.48587" lon="-8.43711333">
        <ele>109.0</ele>
        <time>2019-05-17T13:33:31.189Z</time>
      </trkpt>
      <trkpt lat="39.48589667" lon="-8.43708167">
        <ele>109.0</ele>
        <time>2019-05-17T13:33:32.174Z</time>
      </trkpt>
      <trkpt lat="39.48589667" lon="-8.43708167">
        <ele>109.0</ele>
        <time>2019-05-17T13:33:33.157Z</time>
      </trkpt>
      <trkpt lat="39.48593333" lon="-8.43705333">
        <ele>110.0</ele>
        <time>2019-05-17T13:33:34.175Z</time>
      </trkpt>
      <trkpt lat="39.48593333" lon="-8.43705333">
        <ele>110.0</ele>
        <time>2019-05-17T13:33:35.160Z</time>
      </trkpt>
      <trkpt lat="39.485965" lon="-8.437035">
        <ele>111.0</ele>
        <time>2019-05-17T13:33:36.155Z</time>
      </trkpt>
      <trkpt lat="39.485965" lon="-8.437035">
        <ele>111.0</ele>
        <time>2019-05-17T13:33:37.170Z</time>
      </trkpt>
      <trkpt lat="39.48599333" lon="-8.43700667">
        <ele>111.0</ele>
        <time>2019-05-17T13:33:38.155Z</time>
      </trkpt>
      <trkpt lat="39.48599333" lon="-8.43700667">
        <ele>111.0</ele>
        <time>2019-05-17T13:33:39.150Z</time>
      </trkpt>
      <trkpt lat="39.48602167" lon="-8.43697833">
        <ele>112.0</ele>
        <time>2019-05-17T13:33:40.181Z</time>
      </trkpt>
      <trkpt lat="39.48602167" lon="-8.43697833">
        <ele>112.0</ele>
        <time>2019-05-17T13:33:41.186Z</time>
      </trkpt>
      <trkpt lat="39.48605" lon="-8.43695333">
        <ele>113.0</ele>
        <time>2019-05-17T13:33:42.179Z</time>
      </trkpt>
      <trkpt lat="39.48605" lon="-8.43695333">
        <ele>113.0</ele>
        <time>2019-05-17T13:33:43.153Z</time>
      </trkpt>
      <trkpt lat="39.48607333" lon="-8.43692833">
        <ele>113.0</ele>
        <time>2019-05-17T13:33:44.187Z</time>
      </trkpt>
      <trkpt lat="39.48607333" lon="-8.43692833">
        <ele>113.0</ele>
        <time>2019-05-17T13:33:45.159Z</time>
      </trkpt>
      <trkpt lat="39.4861" lon="-8.43691167">
        <ele>114.0</ele>
        <time>2019-05-17T13:33:46.166Z</time>
      </trkpt>
      <trkpt lat="39.4861" lon="-8.43691167">
        <ele>114.0</ele>
        <time>2019-05-17T13:33:47.170Z</time>
      </trkpt>
      <trkpt lat="39.48612167" lon="-8.436905">
        <ele>114.0</ele>
        <time>2019-05-17T13:33:48.171Z</time>
      </trkpt>
      <trkpt lat="39.48612167" lon="-8.436905">
        <ele>114.0</ele>
        <time>2019-05-17T13:33:49.176Z</time>
      </trkpt>
      <trkpt lat="39.48612333" lon="-8.436905">
        <ele>114.0</ele>
        <time>2019-05-17T13:33:50.155Z</time>
      </trkpt>
      <trkpt lat="39.48612333" lon="-8.436905">
        <ele>114.0</ele>
        <time>2019-05-17T13:33:51.165Z</time>
      </trkpt>
      <trkpt lat="39.486125" lon="-8.436905">
        <ele>114.0</ele>
        <time>2019-05-17T13:33:52.150Z</time>
      </trkpt>
      <trkpt lat="39.486125" lon="-8.436905">
        <ele>114.0</ele>
        <time>2019-05-17T13:33:53.159Z</time>
      </trkpt>
      <trkpt lat="39.486125" lon="-8.436905">
        <ele>114.0</ele>
        <time>2019-05-17T13:33:54.165Z</time>
      </trkpt>
      <trkpt lat="39.486125" lon="-8.436905">
        <ele>114.0</ele>
        <time>2019-05-17T13:33:55.171Z</time>
      </trkpt>
      <trkpt lat="39.486125" lon="-8.436905">
        <ele>114.0</ele>
        <time>2019-05-17T13:33:56.176Z</time>
      </trkpt>
      <trkpt lat="39.486125" lon="-8.436905">
        <ele>114.0</ele>
        <time>2019-05-17T13:33:57.182Z</time>
      </trkpt>
      <trkpt lat="39.486125" lon="-8.436905">
        <ele>114.0</ele>
        <time>2019-05-17T13:33:58.163Z</time>
      </trkpt>
      <trkpt lat="39.486125" lon="-8.436905">
        <ele>114.0</ele>
        <time>2019-05-17T13:33:59.166Z</time>
      </trkpt>
      <trkpt lat="39.486125" lon="-8.436905">
        <ele>114.0</ele>
        <time>2019-05-17T13:34:00.163Z</time>
      </trkpt>
      <trkpt lat="39.486125" lon="-8.436905">
        <ele>114.0</ele>
        <time>2019-05-17T13:34:01.156Z</time>
      </trkpt>
      <trkpt lat="39.486125" lon="-8.436905">
        <ele>114.0</ele>
        <time>2019-05-17T13:34:02.164Z</time>
      </trkpt>
      <trkpt lat="39.486125" lon="-8.436905">
        <ele>114.0</ele>
        <time>2019-05-17T13:34:03.156Z</time>
      </trkpt>
      <trkpt lat="39.486125" lon="-8.436905">
        <ele>114.0</ele>
        <time>2019-05-17T13:34:04.166Z</time>
      </trkpt>
      <trkpt lat="39.486125" lon="-8.436905">
        <ele>114.0</ele>
        <time>2019-05-17T13:34:05.156Z</time>
      </trkpt>
      <trkpt lat="39.486125" lon="-8.436905">
        <ele>114.0</ele>
        <time>2019-05-17T13:34:06.163Z</time>
      </trkpt>
      <trkpt lat="39.486125" lon="-8.436905">
        <ele>114.0</ele>
        <time>2019-05-17T13:34:07.177Z</time>
      </trkpt>
      <trkpt lat="39.486125" lon="-8.436905">
        <ele>114.0</ele>
        <time>2019-05-17T13:34:08.177Z</time>
      </trkpt>
      <trkpt lat="39.486125" lon="-8.436905">
        <ele>114.0</ele>
        <time>2019-05-17T13:34:09.186Z</time>
      </trkpt>
      <trkpt lat="39.486125" lon="-8.436905">
        <ele>114.0</ele>
        <time>2019-05-17T13:34:10.188Z</time>
      </trkpt>
      <trkpt lat="39.486125" lon="-8.436905">
        <ele>114.0</ele>
        <time>2019-05-17T13:34:11.154Z</time>
      </trkpt>
      <trkpt lat="39.486125" lon="-8.436905">
        <ele>114.0</ele>
        <time>2019-05-17T13:34:12.160Z</time>
      </trkpt>
      <trkpt lat="39.486125" lon="-8.436905">
        <ele>114.0</ele>
        <time>2019-05-17T13:34:13.186Z</time>
      </trkpt>
      <trkpt lat="39.486125" lon="-8.436905">
        <ele>114.0</ele>
        <time>2019-05-17T13:34:14.174Z</time>
      </trkpt>
      <trkpt lat="39.486125" lon="-8.436905">
        <ele>114.0</ele>
        <time>2019-05-17T13:34:15.177Z</time>
      </trkpt>
      <trkpt lat="39.486125" lon="-8.436905">
        <ele>114.0</ele>
        <time>2019-05-17T13:34:16.163Z</time>
      </trkpt>
      <trkpt lat="39.486125" lon="-8.436905">
        <ele>114.0</ele>
        <time>2019-05-17T13:34:17.163Z</time>
      </trkpt>
      <trkpt lat="39.486125" lon="-8.436905">
        <ele>114.0</ele>
        <time>2019-05-17T13:34:18.157Z</time>
      </trkpt>
      <trkpt lat="39.486125" lon="-8.436905">
        <ele>114.0</ele>
        <time>2019-05-17T13:34:19.166Z</time>
      </trkpt>
      <trkpt lat="39.486125" lon="-8.436905">
        <ele>114.0</ele>
        <time>2019-05-17T13:34:20.165Z</time>
      </trkpt>
      <trkpt lat="39.486125" lon="-8.436905">
        <ele>114.0</ele>
        <time>2019-05-17T13:34:21.156Z</time>
      </trkpt>
      <trkpt lat="39.486125" lon="-8.436905">
        <ele>114.0</ele>
        <time>2019-05-17T13:34:22.164Z</time>
      </trkpt>
      <trkpt lat="39.486125" lon="-8.436905">
        <ele>114.0</ele>
        <time>2019-05-17T13:34:23.157Z</time>
      </trkpt>
      <trkpt lat="39.486125" lon="-8.436905">
        <ele>114.0</ele>
        <time>2019-05-17T13:34:24.163Z</time>
      </trkpt>
      <trkpt lat="39.486125" lon="-8.436905">
        <ele>114.0</ele>
        <time>2019-05-17T13:34:25.156Z</time>
      </trkpt>
      <trkpt lat="39.486125" lon="-8.436905">
        <ele>114.0</ele>
        <time>2019-05-17T13:34:26.161Z</time>
      </trkpt>
      <trkpt lat="39.486125" lon="-8.436905">
        <ele>114.0</ele>
        <time>2019-05-17T13:34:27.156Z</time>
      </trkpt>
      <trkpt lat="39.486125" lon="-8.436905">
        <ele>114.0</ele>
        <time>2019-05-17T13:34:28.164Z</time>
      </trkpt>
      <trkpt lat="39.486125" lon="-8.436905">
        <ele>114.0</ele>
        <time>2019-05-17T13:34:29.159Z</time>
      </trkpt>
      <trkpt lat="39.486125" lon="-8.436905">
        <ele>114.0</ele>
        <time>2019-05-17T13:34:30.163Z</time>
      </trkpt>
      <trkpt lat="39.486125" lon="-8.436905">
        <ele>114.0</ele>
        <time>2019-05-17T13:34:31.163Z</time>
      </trkpt>
      <trkpt lat="39.486125" lon="-8.436905">
        <ele>114.0</ele>
        <time>2019-05-17T13:34:32.161Z</time>
      </trkpt>
      <trkpt lat="39.486125" lon="-8.436905">
        <ele>114.0</ele>
        <time>2019-05-17T13:34:33.156Z</time>
      </trkpt>
      <trkpt lat="39.486125" lon="-8.436905">
        <ele>114.0</ele>
        <time>2019-05-17T13:34:34.162Z</time>
      </trkpt>
      <trkpt lat="39.486125" lon="-8.436905">
        <ele>114.0</ele>
        <time>2019-05-17T13:34:35.157Z</time>
      </trkpt>
      <trkpt lat="39.486125" lon="-8.436905">
        <ele>114.0</ele>
        <time>2019-05-17T13:34:36.163Z</time>
      </trkpt>
      <trkpt lat="39.486125" lon="-8.436905">
        <ele>114.0</ele>
        <time>2019-05-17T13:34:37.156Z</time>
      </trkpt>
      <trkpt lat="39.486125" lon="-8.436905">
        <ele>114.0</ele>
        <time>2019-05-17T13:34:38.165Z</time>
      </trkpt>
      <trkpt lat="39.486125" lon="-8.436905">
        <ele>114.0</ele>
        <time>2019-05-17T13:34:39.160Z</time>
      </trkpt>
      <trkpt lat="39.486125" lon="-8.436905">
        <ele>114.0</ele>
        <time>2019-05-17T13:34:40.163Z</time>
      </trkpt>
      <trkpt lat="39.486125" lon="-8.436905">
        <ele>114.0</ele>
        <time>2019-05-17T13:34:41.156Z</time>
      </trkpt>
      <trkpt lat="39.486125" lon="-8.436905">
        <ele>114.0</ele>
        <time>2019-05-17T13:34:42.163Z</time>
      </trkpt>
      <trkpt lat="39.486125" lon="-8.436905">
        <ele>114.0</ele>
        <time>2019-05-17T13:34:43.161Z</time>
      </trkpt>
      <trkpt lat="39.486125" lon="-8.436905">
        <ele>114.0</ele>
        <time>2019-05-17T13:34:44.165Z</time>
      </trkpt>
      <trkpt lat="39.486125" lon="-8.436905">
        <ele>114.0</ele>
        <time>2019-05-17T13:34:45.155Z</time>
      </trkpt>
      <trkpt lat="39.486125" lon="-8.436905">
        <ele>114.0</ele>
        <time>2019-05-17T13:34:46.163Z</time>
      </trkpt>
      <trkpt lat="39.486125" lon="-8.436905">
        <ele>114.0</ele>
        <time>2019-05-17T13:34:47.156Z</time>
      </trkpt>
      <trkpt lat="39.486125" lon="-8.436905">
        <ele>114.0</ele>
        <time>2019-05-17T13:34:48.163Z</time>
      </trkpt>
      <trkpt lat="39.486125" lon="-8.436905">
        <ele>114.0</ele>
        <time>2019-05-17T13:34:49.157Z</time>
      </trkpt>
      <trkpt lat="39.486125" lon="-8.436905">
        <ele>114.0</ele>
        <time>2019-05-17T13:34:50.167Z</time>
      </trkpt>
      <trkpt lat="39.486125" lon="-8.436905">
        <ele>114.0</ele>
        <time>2019-05-17T13:34:51.156Z</time>
      </trkpt>
      <trkpt lat="39.486125" lon="-8.436905">
        <ele>114.0</ele>
        <time>2019-05-17T13:34:52.164Z</time>
      </trkpt>
      <trkpt lat="39.486125" lon="-8.436905">
        <ele>114.0</ele>
        <time>2019-05-17T13:34:53.156Z</time>
      </trkpt>
      <trkpt lat="39.486125" lon="-8.436905">
        <ele>114.0</ele>
        <time>2019-05-17T13:34:54.163Z</time>
      </trkpt>
      <trkpt lat="39.486125" lon="-8.436905">
        <ele>114.0</ele>
        <time>2019-05-17T13:34:55.157Z</time>
      </trkpt>
      <trkpt lat="39.486125" lon="-8.436905">
        <ele>114.0</ele>
        <time>2019-05-17T13:34:56.165Z</time>
      </trkpt>
      <trkpt lat="39.486125" lon="-8.436905">
        <ele>114.0</ele>
        <time>2019-05-17T13:34:57.156Z</time>
      </trkpt>
      <trkpt lat="39.486125" lon="-8.436905">
        <ele>114.0</ele>
        <time>2019-05-17T13:34:58.163Z</time>
      </trkpt>
      <trkpt lat="39.486125" lon="-8.436905">
        <ele>114.0</ele>
        <time>2019-05-17T13:34:59.156Z</time>
      </trkpt>
      <trkpt lat="39.486125" lon="-8.436905">
        <ele>114.0</ele>
        <time>2019-05-17T13:35:00.162Z</time>
      </trkpt>
      <trkpt lat="39.486125" lon="-8.436905">
        <ele>114.0</ele>
        <time>2019-05-17T13:35:01.162Z</time>
      </trkpt>
      <trkpt lat="39.486125" lon="-8.436905">
        <ele>114.0</ele>
        <time>2019-05-17T13:35:02.164Z</time>
      </trkpt>
      <trkpt lat="39.486125" lon="-8.436905">
        <ele>114.0</ele>
        <time>2019-05-17T13:35:03.156Z</time>
      </trkpt>
      <trkpt lat="39.486125" lon="-8.436905">
        <ele>114.0</ele>
        <time>2019-05-17T13:35:04.163Z</time>
      </trkpt>
      <trkpt lat="39.486125" lon="-8.436905">
        <ele>114.0</ele>
        <time>2019-05-17T13:35:05.156Z</time>
      </trkpt>
      <trkpt lat="39.486125" lon="-8.436905">
        <ele>114.0</ele>
        <time>2019-05-17T13:35:06.162Z</time>
      </trkpt>
      <trkpt lat="39.486125" lon="-8.436905">
        <ele>114.0</ele>
        <time>2019-05-17T13:35:07.156Z</time>
      </trkpt>
      <trkpt lat="39.486125" lon="-8.436905">
        <ele>114.0</ele>
        <time>2019-05-17T13:35:08.161Z</time>
      </trkpt>
      <trkpt lat="39.486125" lon="-8.436905">
        <ele>114.0</ele>
        <time>2019-05-17T13:35:09.156Z</time>
      </trkpt>
      <trkpt lat="39.486125" lon="-8.436905">
        <ele>114.0</ele>
        <time>2019-05-17T13:35:10.186Z</time>
      </trkpt>
      <trkpt lat="39.486125" lon="-8.436905">
        <ele>114.0</ele>
        <time>2019-05-17T13:35:11.154Z</time>
      </trkpt>
      <trkpt lat="39.486125" lon="-8.436905">
        <ele>114.0</ele>
        <time>2019-05-17T13:35:12.161Z</time>
      </trkpt>
      <trkpt lat="39.486125" lon="-8.436905">
        <ele>114.0</ele>
        <time>2019-05-17T13:35:13.163Z</time>
      </trkpt>
      <trkpt lat="39.486125" lon="-8.436905">
        <ele>114.0</ele>
        <time>2019-05-17T13:35:14.161Z</time>
      </trkpt>
      <trkpt lat="39.486125" lon="-8.436905">
        <ele>114.0</ele>
        <time>2019-05-17T13:35:15.170Z</time>
      </trkpt>
      <trkpt lat="39.486125" lon="-8.436905">
        <ele>114.0</ele>
        <time>2019-05-17T13:35:16.163Z</time>
      </trkpt>
      <trkpt lat="39.486125" lon="-8.436905">
        <ele>114.0</ele>
        <time>2019-05-17T13:35:17.154Z</time>
      </trkpt>
      <trkpt lat="39.486125" lon="-8.436905">
        <ele>114.0</ele>
        <time>2019-05-17T13:35:18.163Z</time>
      </trkpt>
      <trkpt lat="39.486125" lon="-8.436905">
        <ele>114.0</ele>
        <time>2019-05-17T13:35:19.161Z</time>
      </trkpt>
      <trkpt lat="39.486125" lon="-8.436905">
        <ele>114.0</ele>
        <time>2019-05-17T13:35:20.162Z</time>
      </trkpt>
      <trkpt lat="39.486125" lon="-8.436905">
        <ele>114.0</ele>
        <time>2019-05-17T13:35:21.163Z</time>
      </trkpt>
      <trkpt lat="39.486125" lon="-8.436905">
        <ele>114.0</ele>
        <time>2019-05-17T13:35:22.164Z</time>
      </trkpt>
      <trkpt lat="39.486125" lon="-8.436905">
        <ele>114.0</ele>
        <time>2019-05-17T13:35:23.157Z</time>
      </trkpt>
      <trkpt lat="39.486125" lon="-8.436905">
        <ele>114.0</ele>
        <time>2019-05-17T13:35:24.164Z</time>
      </trkpt>
      <trkpt lat="39.486125" lon="-8.436905">
        <ele>114.0</ele>
        <time>2019-05-17T13:35:25.157Z</time>
      </trkpt>
      <trkpt lat="39.486125" lon="-8.436905">
        <ele>114.0</ele>
        <time>2019-05-17T13:35:26.165Z</time>
      </trkpt>
      <trkpt lat="39.486125" lon="-8.436905">
        <ele>114.0</ele>
        <time>2019-05-17T13:35:27.156Z</time>
      </trkpt>
      <trkpt lat="39.486125" lon="-8.436905">
        <ele>114.0</ele>
        <time>2019-05-17T13:35:28.166Z</time>
      </trkpt>
      <trkpt lat="39.486125" lon="-8.436905">
        <ele>114.0</ele>
        <time>2019-05-17T13:35:29.156Z</time>
      </trkpt>
      <trkpt lat="39.486125" lon="-8.436905">
        <ele>114.0</ele>
        <time>2019-05-17T13:35:30.175Z</time>
      </trkpt>
      <trkpt lat="39.486125" lon="-8.436905">
        <ele>114.0</ele>
        <time>2019-05-17T13:35:31.165Z</time>
      </trkpt>
      <trkpt lat="39.486125" lon="-8.436905">
        <ele>114.0</ele>
        <time>2019-05-17T13:35:32.166Z</time>
      </trkpt>
      <trkpt lat="39.486125" lon="-8.436905">
        <ele>114.0</ele>
        <time>2019-05-17T13:35:33.159Z</time>
      </trkpt>
      <trkpt lat="39.486125" lon="-8.436905">
        <ele>114.0</ele>
        <time>2019-05-17T13:35:34.165Z</time>
      </trkpt>
      <trkpt lat="39.486125" lon="-8.436905">
        <ele>114.0</ele>
        <time>2019-05-17T13:35:35.156Z</time>
      </trkpt>
      <trkpt lat="39.486125" lon="-8.436905">
        <ele>114.0</ele>
        <time>2019-05-17T13:35:36.165Z</time>
      </trkpt>
      <trkpt lat="39.486125" lon="-8.436905">
        <ele>114.0</ele>
        <time>2019-05-17T13:35:37.156Z</time>
      </trkpt>
      <trkpt lat="39.486125" lon="-8.436905">
        <ele>114.0</ele>
        <time>2019-05-17T13:35:38.162Z</time>
      </trkpt>
      <trkpt lat="39.486125" lon="-8.436905">
        <ele>114.0</ele>
        <time>2019-05-17T13:35:39.157Z</time>
      </trkpt>
      <trkpt lat="39.486125" lon="-8.436905">
        <ele>114.0</ele>
        <time>2019-05-17T13:35:40.166Z</time>
      </trkpt>
      <trkpt lat="39.486125" lon="-8.436905">
        <ele>114.0</ele>
        <time>2019-05-17T13:35:41.157Z</time>
      </trkpt>
      <trkpt lat="39.486125" lon="-8.436905">
        <ele>114.0</ele>
        <time>2019-05-17T13:35:42.165Z</time>
      </trkpt>
      <trkpt lat="39.486125" lon="-8.436905">
        <ele>114.0</ele>
        <time>2019-05-17T13:35:43.157Z</time>
      </trkpt>
      <trkpt lat="39.486125" lon="-8.436905">
        <ele>114.0</ele>
        <time>2019-05-17T13:35:44.184Z</time>
      </trkpt>
      <trkpt lat="39.486125" lon="-8.436905">
        <ele>114.0</ele>
        <time>2019-05-17T13:35:45.176Z</time>
      </trkpt>
      <trkpt lat="39.486125" lon="-8.436905">
        <ele>114.0</ele>
        <time>2019-05-17T13:35:46.166Z</time>
      </trkpt>
      <trkpt lat="39.486125" lon="-8.436905">
        <ele>114.0</ele>
        <time>2019-05-17T13:35:47.157Z</time>
      </trkpt>
      <trkpt lat="39.486125" lon="-8.436905">
        <ele>114.0</ele>
        <time>2019-05-17T13:35:48.165Z</time>
      </trkpt>
      <trkpt lat="39.486125" lon="-8.436905">
        <ele>114.0</ele>
        <time>2019-05-17T13:35:49.156Z</time>
      </trkpt>
      <trkpt lat="39.486125" lon="-8.436905">
        <ele>114.0</ele>
        <time>2019-05-17T13:35:50.169Z</time>
      </trkpt>
      <trkpt lat="39.486125" lon="-8.436905">
        <ele>114.0</ele>
        <time>2019-05-17T13:35:51.156Z</time>
      </trkpt>
      <trkpt lat="39.486125" lon="-8.436905">
        <ele>114.0</ele>
        <time>2019-05-17T13:35:52.164Z</time>
      </trkpt>
      <trkpt lat="39.486125" lon="-8.436905">
        <ele>114.0</ele>
        <time>2019-05-17T13:35:53.157Z</time>
      </trkpt>
      <trkpt lat="39.486125" lon="-8.436905">
        <ele>114.0</ele>
        <time>2019-05-17T13:35:54.163Z</time>
      </trkpt>
      <trkpt lat="39.486125" lon="-8.436905">
        <ele>114.0</ele>
        <time>2019-05-17T13:35:55.156Z</time>
      </trkpt>
      <trkpt lat="39.486125" lon="-8.436905">
        <ele>114.0</ele>
        <time>2019-05-17T13:35:56.165Z</time>
      </trkpt>
      <trkpt lat="39.486125" lon="-8.436905">
        <ele>114.0</ele>
        <time>2019-05-17T13:35:57.157Z</time>
      </trkpt>
      <trkpt lat="39.486125" lon="-8.436905">
        <ele>114.0</ele>
        <time>2019-05-17T13:35:58.163Z</time>
      </trkpt>
      <trkpt lat="39.486125" lon="-8.436905">
        <ele>114.0</ele>
        <time>2019-05-17T13:35:59.156Z</time>
      </trkpt>
      <trkpt lat="39.486125" lon="-8.436905">
        <ele>114.0</ele>
        <time>2019-05-17T13:36:00.166Z</time>
      </trkpt>
      <trkpt lat="39.486125" lon="-8.436905">
        <ele>114.0</ele>
        <time>2019-05-17T13:36:01.156Z</time>
      </trkpt>
      <trkpt lat="39.486125" lon="-8.436905">
        <ele>114.0</ele>
        <time>2019-05-17T13:36:02.164Z</time>
      </trkpt>
      <trkpt lat="39.486125" lon="-8.436905">
        <ele>114.0</ele>
        <time>2019-05-17T13:36:03.157Z</time>
      </trkpt>
      <trkpt lat="39.486125" lon="-8.436905">
        <ele>114.0</ele>
        <time>2019-05-17T13:36:04.163Z</time>
      </trkpt>
      <trkpt lat="39.486125" lon="-8.436905">
        <ele>114.0</ele>
        <time>2019-05-17T13:36:05.156Z</time>
      </trkpt>
      <trkpt lat="39.486125" lon="-8.436905">
        <ele>114.0</ele>
        <time>2019-05-17T13:36:06.163Z</time>
      </trkpt>
      <trkpt lat="39.486125" lon="-8.436905">
        <ele>114.0</ele>
        <time>2019-05-17T13:36:07.156Z</time>
      </trkpt>
      <trkpt lat="39.486125" lon="-8.436905">
        <ele>114.0</ele>
        <time>2019-05-17T13:36:08.164Z</time>
      </trkpt>
      <trkpt lat="39.486125" lon="-8.436905">
        <ele>114.0</ele>
        <time>2019-05-17T13:36:09.168Z</time>
      </trkpt>
      <trkpt lat="39.486125" lon="-8.436905">
        <ele>114.0</ele>
        <time>2019-05-17T13:36:10.164Z</time>
      </trkpt>
      <trkpt lat="39.486125" lon="-8.436905">
        <ele>114.0</ele>
        <time>2019-05-17T13:36:11.170Z</time>
      </trkpt>
      <trkpt lat="39.486125" lon="-8.436905">
        <ele>114.0</ele>
        <time>2019-05-17T13:36:12.176Z</time>
      </trkpt>
      <trkpt lat="39.486125" lon="-8.436905">
        <ele>114.0</ele>
        <time>2019-05-17T13:36:13.163Z</time>
      </trkpt>
      <trkpt lat="39.486125" lon="-8.436905">
        <ele>114.0</ele>
        <time>2019-05-17T13:36:14.169Z</time>
      </trkpt>
      <trkpt lat="39.486125" lon="-8.436905">
        <ele>114.0</ele>
        <time>2019-05-17T13:36:15.168Z</time>
      </trkpt>
      <trkpt lat="39.486125" lon="-8.436905">
        <ele>114.0</ele>
        <time>2019-05-17T13:36:16.163Z</time>
      </trkpt>
      <trkpt lat="39.486125" lon="-8.436905">
        <ele>114.0</ele>
        <time>2019-05-17T13:36:17.163Z</time>
      </trkpt>
      <trkpt lat="39.486125" lon="-8.436905">
        <ele>114.0</ele>
        <time>2019-05-17T13:36:18.157Z</time>
      </trkpt>
      <trkpt lat="39.486125" lon="-8.436905">
        <ele>114.0</ele>
        <time>2019-05-17T13:36:19.163Z</time>
      </trkpt>
      <trkpt lat="39.486125" lon="-8.436905">
        <ele>114.0</ele>
        <time>2019-05-17T13:36:20.167Z</time>
      </trkpt>
      <trkpt lat="39.486125" lon="-8.436905">
        <ele>114.0</ele>
        <time>2019-05-17T13:36:21.154Z</time>
      </trkpt>
      <trkpt lat="39.486125" lon="-8.436905">
        <ele>114.0</ele>
        <time>2019-05-17T13:36:22.164Z</time>
      </trkpt>
      <trkpt lat="39.486125" lon="-8.436905">
        <ele>114.0</ele>
        <time>2019-05-17T13:36:23.159Z</time>
      </trkpt>
      <trkpt lat="39.486125" lon="-8.436905">
        <ele>114.0</ele>
        <time>2019-05-17T13:36:24.163Z</time>
      </trkpt>
      <trkpt lat="39.486125" lon="-8.436905">
        <ele>114.0</ele>
        <time>2019-05-17T13:36:25.156Z</time>
      </trkpt>
      <trkpt lat="39.486125" lon="-8.436905">
        <ele>114.0</ele>
        <time>2019-05-17T13:36:26.164Z</time>
      </trkpt>
      <trkpt lat="39.486125" lon="-8.436905">
        <ele>114.0</ele>
        <time>2019-05-17T13:36:27.159Z</time>
      </trkpt>
      <trkpt lat="39.486125" lon="-8.436905">
        <ele>114.0</ele>
        <time>2019-05-17T13:36:28.165Z</time>
      </trkpt>
      <trkpt lat="39.486125" lon="-8.436905">
        <ele>114.0</ele>
        <time>2019-05-17T13:36:29.157Z</time>
      </trkpt>
      <trkpt lat="39.48616" lon="-8.436905">
        <ele>113.0</ele>
        <time>2019-05-17T13:36:30.175Z</time>
      </trkpt>
      <trkpt lat="39.48616" lon="-8.436905">
        <ele>113.0</ele>
        <time>2019-05-17T13:36:31.161Z</time>
      </trkpt>
      <trkpt lat="39.48619667" lon="-8.43688667">
        <ele>113.0</ele>
        <time>2019-05-17T13:36:32.165Z</time>
      </trkpt>
      <trkpt lat="39.48619667" lon="-8.43688667">
        <ele>113.0</ele>
        <time>2019-05-17T13:36:33.156Z</time>
      </trkpt>
      <trkpt lat="39.486245" lon="-8.43686667">
        <ele>112.0</ele>
        <time>2019-05-17T13:36:34.169Z</time>
      </trkpt>
      <trkpt lat="39.486245" lon="-8.43686667">
        <ele>112.0</ele>
        <time>2019-05-17T13:36:35.152Z</time>
      </trkpt>
      <trkpt lat="39.48629" lon="-8.43684">
        <ele>111.0</ele>
        <time>2019-05-17T13:36:36.183Z</time>
      </trkpt>
      <trkpt lat="39.48629" lon="-8.43684">
        <ele>111.0</ele>
        <time>2019-05-17T13:36:37.151Z</time>
      </trkpt>
      <trkpt lat="39.48633167" lon="-8.43681333">
        <ele>110.0</ele>
        <time>2019-05-17T13:36:38.181Z</time>
      </trkpt>
      <trkpt lat="39.48633167" lon="-8.43681333">
        <ele>110.0</ele>
        <time>2019-05-17T13:36:39.161Z</time>
      </trkpt>
      <trkpt lat="39.486365" lon="-8.43677167">
        <ele>109.0</ele>
        <time>2019-05-17T13:36:40.186Z</time>
      </trkpt>
      <trkpt lat="39.486365" lon="-8.43677167">
        <ele>109.0</ele>
        <time>2019-05-17T13:36:41.160Z</time>
      </trkpt>
      <trkpt lat="39.4864" lon="-8.43671333">
        <ele>108.0</ele>
        <time>2019-05-17T13:36:42.158Z</time>
      </trkpt>
      <trkpt lat="39.4864" lon="-8.43671333">
        <ele>108.0</ele>
        <time>2019-05-17T13:36:43.189Z</time>
      </trkpt>
      <trkpt lat="39.48643333" lon="-8.43664333">
        <ele>107.0</ele>
        <time>2019-05-17T13:36:44.170Z</time>
      </trkpt>
      <trkpt lat="39.48643333" lon="-8.43664333">
        <ele>107.0</ele>
        <time>2019-05-17T13:36:45.167Z</time>
      </trkpt>
      <trkpt lat="39.486455" lon="-8.43656667">
        <ele>106.0</ele>
        <time>2019-05-17T13:36:46.162Z</time>
      </trkpt>
      <trkpt lat="39.486455" lon="-8.43656667">
        <ele>106.0</ele>
        <time>2019-05-17T13:36:47.161Z</time>
      </trkpt>
      <trkpt lat="39.486475" lon="-8.43648833">
        <ele>105.0</ele>
        <time>2019-05-17T13:36:48.157Z</time>
      </trkpt>
      <trkpt lat="39.486475" lon="-8.43648833">
        <ele>105.0</ele>
        <time>2019-05-17T13:36:49.165Z</time>
      </trkpt>
      <trkpt lat="39.48649" lon="-8.43641667">
        <ele>105.0</ele>
        <time>2019-05-17T13:36:50.160Z</time>
      </trkpt>
      <trkpt lat="39.48649" lon="-8.43641667">
        <ele>105.0</ele>
        <time>2019-05-17T13:36:51.166Z</time>
      </trkpt>
      <trkpt lat="39.48650667" lon="-8.43634667">
        <ele>104.0</ele>
        <time>2019-05-17T13:36:52.161Z</time>
      </trkpt>
      <trkpt lat="39.48650667" lon="-8.43634667">
        <ele>104.0</ele>
        <time>2019-05-17T13:36:53.150Z</time>
      </trkpt>
      <trkpt lat="39.48652333" lon="-8.43627333">
        <ele>104.0</ele>
        <time>2019-05-17T13:36:54.181Z</time>
      </trkpt>
      <trkpt lat="39.48652333" lon="-8.43627333">
        <ele>104.0</ele>
        <time>2019-05-17T13:36:55.162Z</time>
      </trkpt>
      <trkpt lat="39.48653667" lon="-8.43620667">
        <ele>104.0</ele>
        <time>2019-05-17T13:36:56.175Z</time>
      </trkpt>
      <trkpt lat="39.48654" lon="-8.43617167">
        <ele>104.0</ele>
        <time>2019-05-17T13:36:57.171Z</time>
      </trkpt>
      <trkpt lat="39.48654" lon="-8.43617167">
        <ele>104.0</ele>
        <time>2019-05-17T13:36:58.152Z</time>
      </trkpt>
      <trkpt lat="39.48654833" lon="-8.43611167">
        <ele>104.0</ele>
        <time>2019-05-17T13:36:59.154Z</time>
      </trkpt>
      <trkpt lat="39.48655333" lon="-8.436085">
        <ele>104.0</ele>
        <time>2019-05-17T13:37:00.162Z</time>
      </trkpt>
      <trkpt lat="39.48655333" lon="-8.436085">
        <ele>104.0</ele>
        <time>2019-05-17T13:37:01.173Z</time>
      </trkpt>
      <trkpt lat="39.48656167" lon="-8.43603">
        <ele>103.0</ele>
        <time>2019-05-17T13:37:02.173Z</time>
      </trkpt>
      <trkpt lat="39.48656167" lon="-8.43603">
        <ele>103.0</ele>
        <time>2019-05-17T13:37:03.177Z</time>
      </trkpt>
      <trkpt lat="39.48656667" lon="-8.43596833">
        <ele>103.0</ele>
        <time>2019-05-17T13:37:04.170Z</time>
      </trkpt>
      <trkpt lat="39.48656667" lon="-8.43596833">
        <ele>103.0</ele>
        <time>2019-05-17T13:37:05.189Z</time>
      </trkpt>
      <trkpt lat="39.48657" lon="-8.43591">
        <ele>103.0</ele>
        <time>2019-05-17T13:37:06.179Z</time>
      </trkpt>
      <trkpt lat="39.48657" lon="-8.43591">
        <ele>103.0</ele>
        <time>2019-05-17T13:37:07.185Z</time>
      </trkpt>
      <trkpt lat="39.48657" lon="-8.43586167">
        <ele>103.0</ele>
        <time>2019-05-17T13:37:08.180Z</time>
      </trkpt>
      <trkpt lat="39.48657" lon="-8.43586167">
        <ele>103.0</ele>
        <time>2019-05-17T13:37:09.170Z</time>
      </trkpt>
      <trkpt lat="39.48656833" lon="-8.43579333">
        <ele>102.0</ele>
        <time>2019-05-17T13:37:10.179Z</time>
      </trkpt>
      <trkpt lat="39.48656833" lon="-8.43575">
        <ele>102.0</ele>
        <time>2019-05-17T13:37:11.177Z</time>
      </trkpt>
      <trkpt lat="39.48656833" lon="-8.43575">
        <ele>102.0</ele>
        <time>2019-05-17T13:37:12.169Z</time>
      </trkpt>
      <trkpt lat="39.48656833" lon="-8.43566333">
        <ele>101.0</ele>
        <time>2019-05-17T13:37:13.170Z</time>
      </trkpt>
      <trkpt lat="39.48656667" lon="-8.43562167">
        <ele>101.0</ele>
        <time>2019-05-17T13:37:14.165Z</time>
      </trkpt>
      <trkpt lat="39.48656667" lon="-8.43562167">
        <ele>101.0</ele>
        <time>2019-05-17T13:37:15.173Z</time>
      </trkpt>
      <trkpt lat="39.486565" lon="-8.43553167">
        <ele>101.0</ele>
        <time>2019-05-17T13:37:16.175Z</time>
      </trkpt>
      <trkpt lat="39.486565" lon="-8.43553167">
        <ele>101.0</ele>
        <time>2019-05-17T13:37:17.180Z</time>
      </trkpt>
      <trkpt lat="39.48657333" lon="-8.43545">
        <ele>100.0</ele>
        <time>2019-05-17T13:37:18.155Z</time>
      </trkpt>
      <trkpt lat="39.486575" lon="-8.43541167">
        <ele>100.0</ele>
        <time>2019-05-17T13:37:19.175Z</time>
      </trkpt>
      <trkpt lat="39.48658" lon="-8.43536333">
        <ele>100.0</ele>
        <time>2019-05-17T13:37:20.175Z</time>
      </trkpt>
      <trkpt lat="39.48658" lon="-8.43536333">
        <ele>100.0</ele>
        <time>2019-05-17T13:37:21.153Z</time>
      </trkpt>
      <trkpt lat="39.48658667" lon="-8.43526667">
        <ele>100.0</ele>
        <time>2019-05-17T13:37:22.157Z</time>
      </trkpt>
      <trkpt lat="39.48658667" lon="-8.43526667">
        <ele>100.0</ele>
        <time>2019-05-17T13:37:23.166Z</time>
      </trkpt>
      <trkpt lat="39.48659167" lon="-8.43518167">
        <ele>100.0</ele>
        <time>2019-05-17T13:37:24.165Z</time>
      </trkpt>
      <trkpt lat="39.48659167" lon="-8.43518167">
        <ele>100.0</ele>
        <time>2019-05-17T13:37:25.170Z</time>
      </trkpt>
      <trkpt lat="39.48658333" lon="-8.43510167">
        <ele>99.0</ele>
        <time>2019-05-17T13:37:26.168Z</time>
      </trkpt>
      <trkpt lat="39.48658333" lon="-8.43510167">
        <ele>99.0</ele>
        <time>2019-05-17T13:37:27.174Z</time>
      </trkpt>
      <trkpt lat="39.48657333" lon="-8.43502167">
        <ele>99.0</ele>
        <time>2019-05-17T13:37:28.173Z</time>
      </trkpt>
      <trkpt lat="39.48657333" lon="-8.43502167">
        <ele>99.0</ele>
        <time>2019-05-17T13:37:29.178Z</time>
      </trkpt>
      <trkpt lat="39.48658667" lon="-8.434945">
        <ele>99.0</ele>
        <time>2019-05-17T13:37:30.181Z</time>
      </trkpt>
      <trkpt lat="39.48658667" lon="-8.434945">
        <ele>99.0</ele>
        <time>2019-05-17T13:37:31.179Z</time>
      </trkpt>
      <trkpt lat="39.48662333" lon="-8.43486">
        <ele>98.0</ele>
        <time>2019-05-17T13:37:32.173Z</time>
      </trkpt>
      <trkpt lat="39.48662333" lon="-8.43486">
        <ele>98.0</ele>
        <time>2019-05-17T13:37:33.172Z</time>
      </trkpt>
      <trkpt lat="39.486655" lon="-8.434805">
        <ele>98.0</ele>
        <time>2019-05-17T13:37:34.161Z</time>
      </trkpt>
      <trkpt lat="39.486655" lon="-8.434805">
        <ele>98.0</ele>
        <time>2019-05-17T13:37:35.169Z</time>
      </trkpt>
      <trkpt lat="39.486675" lon="-8.43475333">
        <ele>98.0</ele>
        <time>2019-05-17T13:37:36.174Z</time>
      </trkpt>
      <trkpt lat="39.486675" lon="-8.43475333">
        <ele>98.0</ele>
        <time>2019-05-17T13:37:37.181Z</time>
      </trkpt>
      <trkpt lat="39.48669333" lon="-8.434695">
        <ele>97.0</ele>
        <time>2019-05-17T13:37:38.155Z</time>
      </trkpt>
      <trkpt lat="39.48669333" lon="-8.434695">
        <ele>97.0</ele>
        <time>2019-05-17T13:37:39.174Z</time>
      </trkpt>
      <trkpt lat="39.48671333" lon="-8.43463333">
        <ele>97.0</ele>
        <time>2019-05-17T13:37:40.181Z</time>
      </trkpt>
      <trkpt lat="39.48671333" lon="-8.43463333">
        <ele>97.0</ele>
        <time>2019-05-17T13:37:41.163Z</time>
      </trkpt>
      <trkpt lat="39.48674" lon="-8.43458">
        <ele>96.0</ele>
        <time>2019-05-17T13:37:42.152Z</time>
      </trkpt>
      <trkpt lat="39.486755" lon="-8.434545">
        <ele>96.0</ele>
        <time>2019-05-17T13:37:43.161Z</time>
      </trkpt>
      <trkpt lat="39.48677333" lon="-8.43451">
        <ele>96.0</ele>
        <time>2019-05-17T13:37:44.164Z</time>
      </trkpt>
      <trkpt lat="39.48677333" lon="-8.43451">
        <ele>96.0</ele>
        <time>2019-05-17T13:37:45.165Z</time>
      </trkpt>
      <trkpt lat="39.48681" lon="-8.43444667">
        <ele>96.0</ele>
        <time>2019-05-17T13:37:46.153Z</time>
      </trkpt>
      <trkpt lat="39.48681" lon="-8.43444667">
        <ele>96.0</ele>
        <time>2019-05-17T13:37:47.169Z</time>
      </trkpt>
      <trkpt lat="39.48685167" lon="-8.434375">
        <ele>95.0</ele>
        <time>2019-05-17T13:37:48.167Z</time>
      </trkpt>
      <trkpt lat="39.48685167" lon="-8.434375">
        <ele>95.0</ele>
        <time>2019-05-17T13:37:49.174Z</time>
      </trkpt>
      <trkpt lat="39.48689333" lon="-8.43431">
        <ele>95.0</ele>
        <time>2019-05-17T13:37:50.165Z</time>
      </trkpt>
      <trkpt lat="39.48689333" lon="-8.43431">
        <ele>95.0</ele>
        <time>2019-05-17T13:37:51.170Z</time>
      </trkpt>
      <trkpt lat="39.48692833" lon="-8.434245">
        <ele>95.0</ele>
        <time>2019-05-17T13:37:52.158Z</time>
      </trkpt>
      <trkpt lat="39.48692833" lon="-8.434245">
        <ele>95.0</ele>
        <time>2019-05-17T13:37:53.168Z</time>
      </trkpt>
      <trkpt lat="39.48695833" lon="-8.43417667">
        <ele>94.0</ele>
        <time>2019-05-17T13:37:54.175Z</time>
      </trkpt>
      <trkpt lat="39.48695833" lon="-8.43417667">
        <ele>94.0</ele>
        <time>2019-05-17T13:37:55.182Z</time>
      </trkpt>
      <trkpt lat="39.48700667" lon="-8.43413167">
        <ele>94.0</ele>
        <time>2019-05-17T13:37:56.195Z</time>
      </trkpt>
      <trkpt lat="39.48700667" lon="-8.43413167">
        <ele>94.0</ele>
        <time>2019-05-17T13:37:57.160Z</time>
      </trkpt>
      <trkpt lat="39.48704667" lon="-8.43407833">
        <ele>94.0</ele>
        <time>2019-05-17T13:37:58.157Z</time>
      </trkpt>
      <trkpt lat="39.48704667" lon="-8.43407833">
        <ele>94.0</ele>
        <time>2019-05-17T13:37:59.169Z</time>
      </trkpt>
      <trkpt lat="39.48707667" lon="-8.43403667">
        <ele>94.0</ele>
        <time>2019-05-17T13:38:00.179Z</time>
      </trkpt>
      <trkpt lat="39.48707667" lon="-8.43403667">
        <ele>94.0</ele>
        <time>2019-05-17T13:38:01.152Z</time>
      </trkpt>
      <trkpt lat="39.4871" lon="-8.433995">
        <ele>94.0</ele>
        <time>2019-05-17T13:38:02.181Z</time>
      </trkpt>
      <trkpt lat="39.4871" lon="-8.433995">
        <ele>94.0</ele>
        <time>2019-05-17T13:38:03.189Z</time>
      </trkpt>
      <trkpt lat="39.487115" lon="-8.433955">
        <ele>94.0</ele>
        <time>2019-05-17T13:38:04.184Z</time>
      </trkpt>
      <trkpt lat="39.48712333" lon="-8.433935">
        <ele>94.0</ele>
        <time>2019-05-17T13:38:05.185Z</time>
      </trkpt>
      <trkpt lat="39.48712333" lon="-8.433935">
        <ele>94.0</ele>
        <time>2019-05-17T13:38:06.165Z</time>
      </trkpt>
      <trkpt lat="39.48714833" lon="-8.43388333">
        <ele>94.0</ele>
        <time>2019-05-17T13:38:07.161Z</time>
      </trkpt>
      <trkpt lat="39.48716833" lon="-8.43386167">
        <ele>94.0</ele>
        <time>2019-05-17T13:38:08.183Z</time>
      </trkpt>
      <trkpt lat="39.48716833" lon="-8.43386167">
        <ele>94.0</ele>
        <time>2019-05-17T13:38:09.176Z</time>
      </trkpt>
      <trkpt lat="39.487205" lon="-8.43379167">
        <ele>94.0</ele>
        <time>2019-05-17T13:38:10.157Z</time>
      </trkpt>
      <trkpt lat="39.487205" lon="-8.43379167">
        <ele>94.0</ele>
        <time>2019-05-17T13:38:11.164Z</time>
      </trkpt>
      <trkpt lat="39.48724833" lon="-8.43372833">
        <ele>94.0</ele>
        <time>2019-05-17T13:38:12.180Z</time>
      </trkpt>
      <trkpt lat="39.48724833" lon="-8.43372833">
        <ele>94.0</ele>
        <time>2019-05-17T13:38:13.189Z</time>
      </trkpt>
      <trkpt lat="39.48729333" lon="-8.43366167">
        <ele>94.0</ele>
        <time>2019-05-17T13:38:14.185Z</time>
      </trkpt>
      <trkpt lat="39.48729333" lon="-8.43366167">
        <ele>94.0</ele>
        <time>2019-05-17T13:38:15.151Z</time>
      </trkpt>
      <trkpt lat="39.48734" lon="-8.43360167">
        <ele>93.0</ele>
        <time>2019-05-17T13:38:16.183Z</time>
      </trkpt>
      <trkpt lat="39.48734" lon="-8.43360167">
        <ele>93.0</ele>
        <time>2019-05-17T13:38:17.185Z</time>
      </trkpt>
      <trkpt lat="39.48738833" lon="-8.43354667">
        <ele>93.0</ele>
        <time>2019-05-17T13:38:18.188Z</time>
      </trkpt>
      <trkpt lat="39.48738833" lon="-8.43354667">
        <ele>93.0</ele>
        <time>2019-05-17T13:38:19.153Z</time>
      </trkpt>
      <trkpt lat="39.48743" lon="-8.43350333">
        <ele>94.0</ele>
        <time>2019-05-17T13:38:20.182Z</time>
      </trkpt>
      <trkpt lat="39.48743" lon="-8.43350333">
        <ele>94.0</ele>
        <time>2019-05-17T13:38:21.156Z</time>
      </trkpt>
      <trkpt lat="39.48746667" lon="-8.433465">
        <ele>94.0</ele>
        <time>2019-05-17T13:38:22.173Z</time>
      </trkpt>
      <trkpt lat="39.48746667" lon="-8.433465">
        <ele>94.0</ele>
        <time>2019-05-17T13:38:23.157Z</time>
      </trkpt>
      <trkpt lat="39.48749833" lon="-8.43343167">
        <ele>93.0</ele>
        <time>2019-05-17T13:38:24.153Z</time>
      </trkpt>
      <trkpt lat="39.487515" lon="-8.43341667">
        <ele>93.0</ele>
        <time>2019-05-17T13:38:25.180Z</time>
      </trkpt>
      <trkpt lat="39.48753167" lon="-8.43340167">
        <ele>93.0</ele>
        <time>2019-05-17T13:38:26.172Z</time>
      </trkpt>
      <trkpt lat="39.48753167" lon="-8.43340167">
        <ele>93.0</ele>
        <time>2019-05-17T13:38:27.179Z</time>
      </trkpt>
      <trkpt lat="39.48756" lon="-8.433365">
        <ele>93.0</ele>
        <time>2019-05-17T13:38:28.182Z</time>
      </trkpt>
      <trkpt lat="39.48756" lon="-8.433365">
        <ele>93.0</ele>
        <time>2019-05-17T13:38:29.153Z</time>
      </trkpt>
      <trkpt lat="39.48759833" lon="-8.43333167">
        <ele>93.0</ele>
        <time>2019-05-17T13:38:30.185Z</time>
      </trkpt>
      <trkpt lat="39.487615" lon="-8.43331667">
        <ele>93.0</ele>
        <time>2019-05-17T13:38:31.181Z</time>
      </trkpt>
      <trkpt lat="39.48763333" lon="-8.43330333">
        <ele>93.0</ele>
        <time>2019-05-17T13:38:32.150Z</time>
      </trkpt>
      <trkpt lat="39.48763333" lon="-8.43330333">
        <ele>93.0</ele>
        <time>2019-05-17T13:38:33.175Z</time>
      </trkpt>
      <trkpt lat="39.48767667" lon="-8.43327167">
        <ele>93.0</ele>
        <time>2019-05-17T13:38:34.186Z</time>
      </trkpt>
      <trkpt lat="39.48769667" lon="-8.43325833">
        <ele>93.0</ele>
        <time>2019-05-17T13:38:35.180Z</time>
      </trkpt>
      <trkpt lat="39.48769667" lon="-8.43325833">
        <ele>93.0</ele>
        <time>2019-05-17T13:38:36.187Z</time>
      </trkpt>
      <trkpt lat="39.48773167" lon="-8.43322167">
        <ele>93.0</ele>
        <time>2019-05-17T13:38:37.189Z</time>
      </trkpt>
      <trkpt lat="39.48775" lon="-8.4332">
        <ele>93.0</ele>
        <time>2019-05-17T13:38:38.187Z</time>
      </trkpt>
      <trkpt lat="39.48775" lon="-8.4332">
        <ele>93.0</ele>
        <time>2019-05-17T13:38:39.169Z</time>
      </trkpt>
      <trkpt lat="39.48778833" lon="-8.43314">
        <ele>93.0</ele>
        <time>2019-05-17T13:38:40.166Z</time>
      </trkpt>
      <trkpt lat="39.48778833" lon="-8.43314">
        <ele>93.0</ele>
        <time>2019-05-17T13:38:41.166Z</time>
      </trkpt>
      <trkpt lat="39.487825" lon="-8.43307833">
        <ele>93.0</ele>
        <time>2019-05-17T13:38:42.151Z</time>
      </trkpt>
      <trkpt lat="39.487825" lon="-8.43307833">
        <ele>93.0</ele>
        <time>2019-05-17T13:38:43.179Z</time>
      </trkpt>
      <trkpt lat="39.48786667" lon="-8.43301333">
        <ele>92.0</ele>
        <time>2019-05-17T13:38:44.181Z</time>
      </trkpt>
      <trkpt lat="39.48786667" lon="-8.43301333">
        <ele>92.0</ele>
        <time>2019-05-17T13:38:45.160Z</time>
      </trkpt>
      <trkpt lat="39.48791167" lon="-8.43294333">
        <ele>92.0</ele>
        <time>2019-05-17T13:38:46.157Z</time>
      </trkpt>
      <trkpt lat="39.48791167" lon="-8.43294333">
        <ele>92.0</ele>
        <time>2019-05-17T13:38:47.182Z</time>
      </trkpt>
      <trkpt lat="39.48795" lon="-8.43289667">
        <ele>93.0</ele>
        <time>2019-05-17T13:38:48.179Z</time>
      </trkpt>
      <trkpt lat="39.48795" lon="-8.43289667">
        <ele>93.0</ele>
        <time>2019-05-17T13:38:49.189Z</time>
      </trkpt>
      <trkpt lat="39.48798667" lon="-8.43285167">
        <ele>93.0</ele>
        <time>2019-05-17T13:38:50.163Z</time>
      </trkpt>
      <trkpt lat="39.48798667" lon="-8.43285167">
        <ele>93.0</ele>
        <time>2019-05-17T13:38:51.168Z</time>
      </trkpt>
      <trkpt lat="39.48803" lon="-8.43281">
        <ele>93.0</ele>
        <time>2019-05-17T13:38:52.175Z</time>
      </trkpt>
      <trkpt lat="39.48803" lon="-8.43281">
        <ele>93.0</ele>
        <time>2019-05-17T13:38:53.181Z</time>
      </trkpt>
      <trkpt lat="39.48806667" lon="-8.432785">
        <ele>93.0</ele>
        <time>2019-05-17T13:38:54.176Z</time>
      </trkpt>
      <trkpt lat="39.48806667" lon="-8.432785">
        <ele>93.0</ele>
        <time>2019-05-17T13:38:55.158Z</time>
      </trkpt>
      <trkpt lat="39.4881" lon="-8.43277833">
        <ele>93.0</ele>
        <time>2019-05-17T13:38:56.157Z</time>
      </trkpt>
      <trkpt lat="39.4881" lon="-8.43277833">
        <ele>93.0</ele>
        <time>2019-05-17T13:38:57.172Z</time>
      </trkpt>
      <trkpt lat="39.48813" lon="-8.43277">
        <ele>93.0</ele>
        <time>2019-05-17T13:38:58.170Z</time>
      </trkpt>
      <trkpt lat="39.48813" lon="-8.43277">
        <ele>93.0</ele>
        <time>2019-05-17T13:38:59.153Z</time>
      </trkpt>
      <trkpt lat="39.48816167" lon="-8.43276">
        <ele>93.0</ele>
        <time>2019-05-17T13:39:00.175Z</time>
      </trkpt>
      <trkpt lat="39.48816167" lon="-8.43276">
        <ele>93.0</ele>
        <time>2019-05-17T13:39:01.159Z</time>
      </trkpt>
      <trkpt lat="39.48819667" lon="-8.43276833">
        <ele>94.0</ele>
        <time>2019-05-17T13:39:02.176Z</time>
      </trkpt>
      <trkpt lat="39.48819667" lon="-8.43276833">
        <ele>94.0</ele>
        <time>2019-05-17T13:39:03.150Z</time>
      </trkpt>
      <trkpt lat="39.48823833" lon="-8.432765">
        <ele>94.0</ele>
        <time>2019-05-17T13:39:04.151Z</time>
      </trkpt>
      <trkpt lat="39.48823833" lon="-8.432765">
        <ele>94.0</ele>
        <time>2019-05-17T13:39:05.178Z</time>
      </trkpt>
      <trkpt lat="39.48829333" lon="-8.43276167">
        <ele>95.0</ele>
        <time>2019-05-17T13:39:06.179Z</time>
      </trkpt>
      <trkpt lat="39.48829333" lon="-8.43276167">
        <ele>95.0</ele>
        <time>2019-05-17T13:39:07.174Z</time>
      </trkpt>
      <trkpt lat="39.48831833" lon="-8.43274667">
        <ele>95.0</ele>
        <time>2019-05-17T13:39:08.180Z</time>
      </trkpt>
      <trkpt lat="39.48831833" lon="-8.43274667">
        <ele>95.0</ele>
        <time>2019-05-17T13:39:09.172Z</time>
      </trkpt>
      <trkpt lat="39.48834833" lon="-8.43273667">
        <ele>96.0</ele>
        <time>2019-05-17T13:39:10.155Z</time>
      </trkpt>
      <trkpt lat="39.48834833" lon="-8.43273667">
        <ele>96.0</ele>
        <time>2019-05-17T13:39:11.177Z</time>
      </trkpt>
      <trkpt lat="39.488385" lon="-8.432725">
        <ele>96.0</ele>
        <time>2019-05-17T13:39:12.150Z</time>
      </trkpt>
      <trkpt lat="39.488385" lon="-8.432725">
        <ele>96.0</ele>
        <time>2019-05-17T13:39:13.159Z</time>
      </trkpt>
      <trkpt lat="39.488415" lon="-8.43271167">
        <ele>96.0</ele>
        <time>2019-05-17T13:39:14.165Z</time>
      </trkpt>
      <trkpt lat="39.488415" lon="-8.43271167">
        <ele>96.0</ele>
        <time>2019-05-17T13:39:15.160Z</time>
      </trkpt>
      <trkpt lat="39.48845333" lon="-8.432705">
        <ele>96.0</ele>
        <time>2019-05-17T13:39:16.164Z</time>
      </trkpt>
      <trkpt lat="39.48845333" lon="-8.432705">
        <ele>96.0</ele>
        <time>2019-05-17T13:39:17.155Z</time>
      </trkpt>
      <trkpt lat="39.48849667" lon="-8.43269167">
        <ele>95.0</ele>
        <time>2019-05-17T13:39:18.155Z</time>
      </trkpt>
      <trkpt lat="39.48849667" lon="-8.43269167">
        <ele>95.0</ele>
        <time>2019-05-17T13:39:19.165Z</time>
      </trkpt>
      <trkpt lat="39.48854333" lon="-8.43268333">
        <ele>96.0</ele>
        <time>2019-05-17T13:39:20.151Z</time>
      </trkpt>
      <trkpt lat="39.48854333" lon="-8.43268333">
        <ele>96.0</ele>
        <time>2019-05-17T13:39:21.165Z</time>
      </trkpt>
      <trkpt lat="39.48859" lon="-8.43266333">
        <ele>96.0</ele>
        <time>2019-05-17T13:39:22.153Z</time>
      </trkpt>
      <trkpt lat="39.48859" lon="-8.43266333">
        <ele>96.0</ele>
        <time>2019-05-17T13:39:23.157Z</time>
      </trkpt>
      <trkpt lat="39.48864833" lon="-8.432645">
        <ele>96.0</ele>
        <time>2019-05-17T13:39:24.157Z</time>
      </trkpt>
      <trkpt lat="39.48864833" lon="-8.432645">
        <ele>96.0</ele>
        <time>2019-05-17T13:39:25.172Z</time>
      </trkpt>
      <trkpt lat="39.48870833" lon="-8.432615">
        <ele>96.0</ele>
        <time>2019-05-17T13:39:26.165Z</time>
      </trkpt>
      <trkpt lat="39.48870833" lon="-8.432615">
        <ele>96.0</ele>
        <time>2019-05-17T13:39:27.185Z</time>
      </trkpt>
      <trkpt lat="39.488775" lon="-8.43258">
        <ele>96.0</ele>
        <time>2019-05-17T13:39:28.153Z</time>
      </trkpt>
      <trkpt lat="39.488775" lon="-8.43258">
        <ele>96.0</ele>
        <time>2019-05-17T13:39:29.161Z</time>
      </trkpt>
      <trkpt lat="39.48884333" lon="-8.432545">
        <ele>96.0</ele>
        <time>2019-05-17T13:39:30.158Z</time>
      </trkpt>
      <trkpt lat="39.48884333" lon="-8.432545">
        <ele>96.0</ele>
        <time>2019-05-17T13:39:31.176Z</time>
      </trkpt>
      <trkpt lat="39.48891333" lon="-8.43251">
        <ele>96.0</ele>
        <time>2019-05-17T13:39:32.175Z</time>
      </trkpt>
      <trkpt lat="39.48891333" lon="-8.43251">
        <ele>96.0</ele>
        <time>2019-05-17T13:39:33.180Z</time>
      </trkpt>
      <trkpt lat="39.48897667" lon="-8.43247333">
        <ele>96.0</ele>
        <time>2019-05-17T13:39:34.185Z</time>
      </trkpt>
      <trkpt lat="39.48897667" lon="-8.43247333">
        <ele>96.0</ele>
        <time>2019-05-17T13:39:35.153Z</time>
      </trkpt>
      <trkpt lat="39.489045" lon="-8.43242333">
        <ele>96.0</ele>
        <time>2019-05-17T13:39:36.150Z</time>
      </trkpt>
      <trkpt lat="39.489045" lon="-8.43242333">
        <ele>96.0</ele>
        <time>2019-05-17T13:39:37.160Z</time>
      </trkpt>
      <trkpt lat="39.48912" lon="-8.43237667">
        <ele>96.0</ele>
        <time>2019-05-17T13:39:38.175Z</time>
      </trkpt>
      <trkpt lat="39.48912" lon="-8.43237667">
        <ele>96.0</ele>
        <time>2019-05-17T13:39:39.182Z</time>
      </trkpt>
      <trkpt lat="39.48919167" lon="-8.43232833">
        <ele>96.0</ele>
        <time>2019-05-17T13:39:40.192Z</time>
      </trkpt>
      <trkpt lat="39.48919167" lon="-8.43232833">
        <ele>96.0</ele>
        <time>2019-05-17T13:39:41.175Z</time>
      </trkpt>
      <trkpt lat="39.48925167" lon="-8.43229833">
        <ele>96.0</ele>
        <time>2019-05-17T13:39:42.165Z</time>
      </trkpt>
      <trkpt lat="39.48928333" lon="-8.43228333">
        <ele>96.0</ele>
        <time>2019-05-17T13:39:43.178Z</time>
      </trkpt>
      <trkpt lat="39.48931667" lon="-8.43226667">
        <ele>96.0</ele>
        <time>2019-05-17T13:39:44.185Z</time>
      </trkpt>
      <trkpt lat="39.48931667" lon="-8.43226667">
        <ele>96.0</ele>
        <time>2019-05-17T13:39:45.155Z</time>
      </trkpt>
      <trkpt lat="39.48937167" lon="-8.43224333">
        <ele>95.0</ele>
        <time>2019-05-17T13:39:46.188Z</time>
      </trkpt>
      <trkpt lat="39.48937167" lon="-8.43224333">
        <ele>95.0</ele>
        <time>2019-05-17T13:39:47.169Z</time>
      </trkpt>
      <trkpt lat="39.48942667" lon="-8.432215">
        <ele>95.0</ele>
        <time>2019-05-17T13:39:48.160Z</time>
      </trkpt>
      <trkpt lat="39.48942667" lon="-8.432215">
        <ele>95.0</ele>
        <time>2019-05-17T13:39:49.163Z</time>
      </trkpt>
      <trkpt lat="39.48947333" lon="-8.43220667">
        <ele>95.0</ele>
        <time>2019-05-17T13:39:50.159Z</time>
      </trkpt>
      <trkpt lat="39.48947333" lon="-8.43220667">
        <ele>95.0</ele>
        <time>2019-05-17T13:39:51.164Z</time>
      </trkpt>
      <trkpt lat="39.48951833" lon="-8.43219">
        <ele>96.0</ele>
        <time>2019-05-17T13:39:52.195Z</time>
      </trkpt>
      <trkpt lat="39.48951833" lon="-8.43219">
        <ele>96.0</ele>
        <time>2019-05-17T13:39:53.154Z</time>
      </trkpt>
      <trkpt lat="39.48957" lon="-8.432175">
        <ele>96.0</ele>
        <time>2019-05-17T13:39:54.173Z</time>
      </trkpt>
      <trkpt lat="39.48957" lon="-8.432175">
        <ele>96.0</ele>
        <time>2019-05-17T13:39:55.161Z</time>
      </trkpt>
      <trkpt lat="39.489625" lon="-8.43216333">
        <ele>96.0</ele>
        <time>2019-05-17T13:39:56.164Z</time>
      </trkpt>
      <trkpt lat="39.489625" lon="-8.43216333">
        <ele>96.0</ele>
        <time>2019-05-17T13:39:57.151Z</time>
      </trkpt>
      <trkpt lat="39.48968" lon="-8.43215167">
        <ele>96.0</ele>
        <time>2019-05-17T13:39:58.186Z</time>
      </trkpt>
      <trkpt lat="39.48970667" lon="-8.43214333">
        <ele>96.0</ele>
        <time>2019-05-17T13:39:59.155Z</time>
      </trkpt>
      <trkpt lat="39.48970667" lon="-8.43214333">
        <ele>96.0</ele>
        <time>2019-05-17T13:40:00.164Z</time>
      </trkpt>
      <trkpt lat="39.48976333" lon="-8.43212833">
        <ele>96.0</ele>
        <time>2019-05-17T13:40:01.165Z</time>
      </trkpt>
      <trkpt lat="39.48978833" lon="-8.432125">
        <ele>96.0</ele>
        <time>2019-05-17T13:40:02.180Z</time>
      </trkpt>
      <trkpt lat="39.48978833" lon="-8.432125">
        <ele>96.0</ele>
        <time>2019-05-17T13:40:03.189Z</time>
      </trkpt>
      <trkpt lat="39.48983833" lon="-8.432125">
        <ele>96.0</ele>
        <time>2019-05-17T13:40:04.151Z</time>
      </trkpt>
      <trkpt lat="39.48986167" lon="-8.43212">
        <ele>97.0</ele>
        <time>2019-05-17T13:40:05.161Z</time>
      </trkpt>
      <trkpt lat="39.48986167" lon="-8.43212">
        <ele>97.0</ele>
        <time>2019-05-17T13:40:06.156Z</time>
      </trkpt>
      <trkpt lat="39.48991" lon="-8.43209833">
        <ele>97.0</ele>
        <time>2019-05-17T13:40:07.165Z</time>
      </trkpt>
      <trkpt lat="39.48993833" lon="-8.43209167">
        <ele>96.0</ele>
        <time>2019-05-17T13:40:08.175Z</time>
      </trkpt>
      <trkpt lat="39.48993833" lon="-8.43209167">
        <ele>96.0</ele>
        <time>2019-05-17T13:40:09.186Z</time>
      </trkpt>
      <trkpt lat="39.48999667" lon="-8.43207333">
        <ele>96.0</ele>
        <time>2019-05-17T13:40:10.165Z</time>
      </trkpt>
      <trkpt lat="39.49002833" lon="-8.43206667">
        <ele>96.0</ele>
        <time>2019-05-17T13:40:11.185Z</time>
      </trkpt>
      <trkpt lat="39.49002833" lon="-8.43206667">
        <ele>96.0</ele>
        <time>2019-05-17T13:40:12.150Z</time>
      </trkpt>
      <trkpt lat="39.49009833" lon="-8.43205167">
        <ele>96.0</ele>
        <time>2019-05-17T13:40:13.183Z</time>
      </trkpt>
      <trkpt lat="39.49013333" lon="-8.43204667">
        <ele>96.0</ele>
        <time>2019-05-17T13:40:14.165Z</time>
      </trkpt>
      <trkpt lat="39.49016833" lon="-8.43204">
        <ele>96.0</ele>
        <time>2019-05-17T13:40:15.153Z</time>
      </trkpt>
      <trkpt lat="39.49016833" lon="-8.43204">
        <ele>96.0</ele>
        <time>2019-05-17T13:40:16.182Z</time>
      </trkpt>
      <trkpt lat="39.49024" lon="-8.43202333">
        <ele>96.0</ele>
        <time>2019-05-17T13:40:17.187Z</time>
      </trkpt>
      <trkpt lat="39.49024" lon="-8.43202333">
        <ele>96.0</ele>
        <time>2019-05-17T13:40:18.151Z</time>
      </trkpt>
      <trkpt lat="39.49032" lon="-8.432015">
        <ele>95.0</ele>
        <time>2019-05-17T13:40:19.173Z</time>
      </trkpt>
      <trkpt lat="39.49035833" lon="-8.43201333">
        <ele>95.0</ele>
        <time>2019-05-17T13:40:20.179Z</time>
      </trkpt>
      <trkpt lat="39.49035833" lon="-8.43201333">
        <ele>95.0</ele>
        <time>2019-05-17T13:40:21.184Z</time>
      </trkpt>
      <trkpt lat="39.49043" lon="-8.43202667">
        <ele>95.0</ele>
        <time>2019-05-17T13:40:22.185Z</time>
      </trkpt>
      <trkpt lat="39.49043" lon="-8.43202667">
        <ele>95.0</ele>
        <time>2019-05-17T13:40:23.151Z</time>
      </trkpt>
      <trkpt lat="39.49048833" lon="-8.43206333">
        <ele>95.0</ele>
        <time>2019-05-17T13:40:24.151Z</time>
      </trkpt>
      <trkpt lat="39.49052" lon="-8.43208333">
        <ele>95.0</ele>
        <time>2019-05-17T13:40:25.162Z</time>
      </trkpt>
      <trkpt lat="39.49054833" lon="-8.43211">
        <ele>95.0</ele>
        <time>2019-05-17T13:40:26.155Z</time>
      </trkpt>
      <trkpt lat="39.49054833" lon="-8.43211">
        <ele>95.0</ele>
        <time>2019-05-17T13:40:27.160Z</time>
      </trkpt>
      <trkpt lat="39.49059667" lon="-8.43216667">
        <ele>94.0</ele>
        <time>2019-05-17T13:40:28.185Z</time>
      </trkpt>
      <trkpt lat="39.49059667" lon="-8.43216667">
        <ele>94.0</ele>
        <time>2019-05-17T13:40:29.157Z</time>
      </trkpt>
      <trkpt lat="39.49062833" lon="-8.43222333">
        <ele>94.0</ele>
        <time>2019-05-17T13:40:30.188Z</time>
      </trkpt>
      <trkpt lat="39.49062833" lon="-8.43222333">
        <ele>94.0</ele>
        <time>2019-05-17T13:40:31.164Z</time>
      </trkpt>
      <trkpt lat="39.490655" lon="-8.43227333">
        <ele>94.0</ele>
        <time>2019-05-17T13:40:32.167Z</time>
      </trkpt>
      <trkpt lat="39.490655" lon="-8.43227333">
        <ele>94.0</ele>
        <time>2019-05-17T13:40:33.172Z</time>
      </trkpt>
      <trkpt lat="39.49067833" lon="-8.432325">
        <ele>94.0</ele>
        <time>2019-05-17T13:40:34.159Z</time>
      </trkpt>
      <trkpt lat="39.49067833" lon="-8.432325">
        <ele>94.0</ele>
        <time>2019-05-17T13:40:35.177Z</time>
      </trkpt>
      <trkpt lat="39.49069667" lon="-8.43238">
        <ele>94.0</ele>
        <time>2019-05-17T13:40:36.160Z</time>
      </trkpt>
      <trkpt lat="39.49069667" lon="-8.43238">
        <ele>94.0</ele>
        <time>2019-05-17T13:40:37.178Z</time>
      </trkpt>
      <trkpt lat="39.49071667" lon="-8.43245">
        <ele>93.0</ele>
        <time>2019-05-17T13:40:38.156Z</time>
      </trkpt>
      <trkpt lat="39.49071667" lon="-8.43245">
        <ele>93.0</ele>
        <time>2019-05-17T13:40:39.164Z</time>
      </trkpt>
      <trkpt lat="39.49073833" lon="-8.43252667">
        <ele>93.0</ele>
        <time>2019-05-17T13:40:40.165Z</time>
      </trkpt>
      <trkpt lat="39.49073833" lon="-8.43252667">
        <ele>93.0</ele>
        <time>2019-05-17T13:40:41.173Z</time>
      </trkpt>
      <trkpt lat="39.49076333" lon="-8.43260833">
        <ele>92.0</ele>
        <time>2019-05-17T13:40:42.154Z</time>
      </trkpt>
      <trkpt lat="39.49076333" lon="-8.43260833">
        <ele>92.0</ele>
        <time>2019-05-17T13:40:43.172Z</time>
      </trkpt>
      <trkpt lat="39.49079" lon="-8.43269">
        <ele>92.0</ele>
        <time>2019-05-17T13:40:44.164Z</time>
      </trkpt>
      <trkpt lat="39.49079" lon="-8.43269">
        <ele>92.0</ele>
        <time>2019-05-17T13:40:45.151Z</time>
      </trkpt>
      <trkpt lat="39.49082667" lon="-8.432765">
        <ele>92.0</ele>
        <time>2019-05-17T13:40:46.150Z</time>
      </trkpt>
      <trkpt lat="39.49082667" lon="-8.432765">
        <ele>92.0</ele>
        <time>2019-05-17T13:40:47.163Z</time>
      </trkpt>
      <trkpt lat="39.49087167" lon="-8.43284333">
        <ele>91.0</ele>
        <time>2019-05-17T13:40:48.167Z</time>
      </trkpt>
      <trkpt lat="39.49087167" lon="-8.43284333">
        <ele>91.0</ele>
        <time>2019-05-17T13:40:49.173Z</time>
      </trkpt>
      <trkpt lat="39.49091667" lon="-8.43292667">
        <ele>91.0</ele>
        <time>2019-05-17T13:40:50.175Z</time>
      </trkpt>
      <trkpt lat="39.49091667" lon="-8.43292667">
        <ele>91.0</ele>
        <time>2019-05-17T13:40:51.180Z</time>
      </trkpt>
      <trkpt lat="39.49095" lon="-8.433005">
        <ele>91.0</ele>
        <time>2019-05-17T13:40:52.172Z</time>
      </trkpt>
      <trkpt lat="39.49095" lon="-8.433005">
        <ele>91.0</ele>
        <time>2019-05-17T13:40:53.183Z</time>
      </trkpt>
      <trkpt lat="39.49099167" lon="-8.433065">
        <ele>90.0</ele>
        <time>2019-05-17T13:40:54.179Z</time>
      </trkpt>
      <trkpt lat="39.49101167" lon="-8.43309167">
        <ele>90.0</ele>
        <time>2019-05-17T13:40:55.153Z</time>
      </trkpt>
      <trkpt lat="39.49103" lon="-8.43312167">
        <ele>90.0</ele>
        <time>2019-05-17T13:40:56.167Z</time>
      </trkpt>
      <trkpt lat="39.49103" lon="-8.43312167">
        <ele>90.0</ele>
        <time>2019-05-17T13:40:57.161Z</time>
      </trkpt>
      <trkpt lat="39.49106" lon="-8.43318333">
        <ele>90.0</ele>
        <time>2019-05-17T13:40:58.188Z</time>
      </trkpt>
      <trkpt lat="39.49106" lon="-8.43318333">
        <ele>90.0</ele>
        <time>2019-05-17T13:40:59.154Z</time>
      </trkpt>
      <trkpt lat="39.49108" lon="-8.433255">
        <ele>90.0</ele>
        <time>2019-05-17T13:41:00.154Z</time>
      </trkpt>
      <trkpt lat="39.49108" lon="-8.433255">
        <ele>90.0</ele>
        <time>2019-05-17T13:41:01.150Z</time>
      </trkpt>
      <trkpt lat="39.49109333" lon="-8.43334">
        <ele>89.0</ele>
        <time>2019-05-17T13:41:02.152Z</time>
      </trkpt>
      <trkpt lat="39.49109333" lon="-8.43334">
        <ele>89.0</ele>
        <time>2019-05-17T13:41:03.189Z</time>
      </trkpt>
      <trkpt lat="39.49108833" lon="-8.433455">
        <ele>89.0</ele>
        <time>2019-05-17T13:41:04.152Z</time>
      </trkpt>
      <trkpt lat="39.49108833" lon="-8.433455">
        <ele>89.0</ele>
        <time>2019-05-17T13:41:05.179Z</time>
      </trkpt>
      <trkpt lat="39.49106833" lon="-8.43356333">
        <ele>88.0</ele>
        <time>2019-05-17T13:41:06.154Z</time>
      </trkpt>
      <trkpt lat="39.49106833" lon="-8.43356333">
        <ele>88.0</ele>
        <time>2019-05-17T13:41:07.165Z</time>
      </trkpt>
      <trkpt lat="39.49104833" lon="-8.43365167">
        <ele>88.0</ele>
        <time>2019-05-17T13:41:08.167Z</time>
      </trkpt>
      <trkpt lat="39.49104833" lon="-8.43365167">
        <ele>88.0</ele>
        <time>2019-05-17T13:41:09.177Z</time>
      </trkpt>
      <trkpt lat="39.49102833" lon="-8.43372">
        <ele>88.0</ele>
        <time>2019-05-17T13:41:10.177Z</time>
      </trkpt>
      <trkpt lat="39.49102167" lon="-8.43375167">
        <ele>89.0</ele>
        <time>2019-05-17T13:41:11.185Z</time>
      </trkpt>
      <trkpt lat="39.49102167" lon="-8.43375167">
        <ele>89.0</ele>
        <time>2019-05-17T13:41:12.165Z</time>
      </trkpt>
      <trkpt lat="39.49102" lon="-8.43379833">
        <ele>89.0</ele>
        <time>2019-05-17T13:41:13.153Z</time>
      </trkpt>
      <trkpt lat="39.49102333" lon="-8.433815">
        <ele>89.0</ele>
        <time>2019-05-17T13:41:14.185Z</time>
      </trkpt>
      <trkpt lat="39.49102333" lon="-8.433815">
        <ele>89.0</ele>
        <time>2019-05-17T13:41:15.159Z</time>
      </trkpt>
      <trkpt lat="39.49104833" lon="-8.433835">
        <ele>89.0</ele>
        <time>2019-05-17T13:41:16.188Z</time>
      </trkpt>
      <trkpt lat="39.49104833" lon="-8.433835">
        <ele>89.0</ele>
        <time>2019-05-17T13:41:17.161Z</time>
      </trkpt>
      <trkpt lat="39.49108333" lon="-8.43384">
        <ele>90.0</ele>
        <time>2019-05-17T13:41:18.159Z</time>
      </trkpt>
      <trkpt lat="39.49109333" lon="-8.433835">
        <ele>90.0</ele>
        <time>2019-05-17T13:41:19.182Z</time>
      </trkpt>
      <trkpt lat="39.491105" lon="-8.43383">
        <ele>90.0</ele>
        <time>2019-05-17T13:41:20.166Z</time>
      </trkpt>
      <trkpt lat="39.49111167" lon="-8.43382333">
        <ele>90.0</ele>
        <time>2019-05-17T13:41:21.155Z</time>
      </trkpt>
      <trkpt lat="39.49111167" lon="-8.43382333">
        <ele>90.0</ele>
        <time>2019-05-17T13:41:22.183Z</time>
      </trkpt>
      <trkpt lat="39.491125" lon="-8.43381">
        <ele>91.0</ele>
        <time>2019-05-17T13:41:23.167Z</time>
      </trkpt>
      <trkpt lat="39.49113833" lon="-8.43380333">
        <ele>91.0</ele>
        <time>2019-05-17T13:41:24.183Z</time>
      </trkpt>
      <trkpt lat="39.49113833" lon="-8.43380333">
        <ele>91.0</ele>
        <time>2019-05-17T13:41:25.151Z</time>
      </trkpt>
      <trkpt lat="39.491165" lon="-8.43379">
        <ele>92.0</ele>
        <time>2019-05-17T13:41:26.157Z</time>
      </trkpt>
      <trkpt lat="39.491165" lon="-8.43379">
        <ele>92.0</ele>
        <time>2019-05-17T13:41:27.157Z</time>
      </trkpt>
      <trkpt lat="39.49119" lon="-8.43379667">
        <ele>93.0</ele>
        <time>2019-05-17T13:41:28.160Z</time>
      </trkpt>
      <trkpt lat="39.49119" lon="-8.43379667">
        <ele>93.0</ele>
        <time>2019-05-17T13:41:29.150Z</time>
      </trkpt>
      <trkpt lat="39.49118833" lon="-8.433805">
        <ele>94.0</ele>
        <time>2019-05-17T13:41:30.185Z</time>
      </trkpt>
      <trkpt lat="39.49118833" lon="-8.433805">
        <ele>94.0</ele>
        <time>2019-05-17T13:41:31.151Z</time>
      </trkpt>
      <trkpt lat="39.49118833" lon="-8.43380667">
        <ele>94.0</ele>
        <time>2019-05-17T13:41:32.159Z</time>
      </trkpt>
      <trkpt lat="39.49118833" lon="-8.43380667">
        <ele>94.0</ele>
        <time>2019-05-17T13:41:33.156Z</time>
      </trkpt>
      <trkpt lat="39.49118833" lon="-8.43380667">
        <ele>94.0</ele>
        <time>2019-05-17T13:41:34.161Z</time>
      </trkpt>
      <trkpt lat="39.49118833" lon="-8.43380667">
        <ele>94.0</ele>
        <time>2019-05-17T13:41:35.167Z</time>
      </trkpt>
      <trkpt lat="39.49118833" lon="-8.43380667">
        <ele>94.0</ele>
        <time>2019-05-17T13:41:36.154Z</time>
      </trkpt>
      <trkpt lat="39.49118833" lon="-8.43380667">
        <ele>94.0</ele>
        <time>2019-05-17T13:41:37.181Z</time>
      </trkpt>
      <trkpt lat="39.49118833" lon="-8.43380667">
        <ele>94.0</ele>
        <time>2019-05-17T13:41:38.167Z</time>
      </trkpt>
      <trkpt lat="39.49118833" lon="-8.43380667">
        <ele>94.0</ele>
        <time>2019-05-17T13:41:39.171Z</time>
      </trkpt>
      <trkpt lat="39.49121333" lon="-8.433795">
        <ele>94.0</ele>
        <time>2019-05-17T13:41:40.163Z</time>
      </trkpt>
      <trkpt lat="39.49121333" lon="-8.433795">
        <ele>94.0</ele>
        <time>2019-05-17T13:41:41.155Z</time>
      </trkpt>
      <trkpt lat="39.49122333" lon="-8.43378333">
        <ele>94.0</ele>
        <time>2019-05-17T13:41:42.159Z</time>
      </trkpt>
      <trkpt lat="39.49122333" lon="-8.43378333">
        <ele>94.0</ele>
        <time>2019-05-17T13:41:43.157Z</time>
      </trkpt>
      <trkpt lat="39.49123333" lon="-8.43377167">
        <ele>94.0</ele>
        <time>2019-05-17T13:41:44.184Z</time>
      </trkpt>
      <trkpt lat="39.49123333" lon="-8.43377167">
        <ele>94.0</ele>
        <time>2019-05-17T13:41:45.176Z</time>
      </trkpt>
      <trkpt lat="39.491235" lon="-8.43377167">
        <ele>94.0</ele>
        <time>2019-05-17T13:41:46.157Z</time>
      </trkpt>
      <trkpt lat="39.491235" lon="-8.43377167">
        <ele>94.0</ele>
        <time>2019-05-17T13:41:47.178Z</time>
      </trkpt>
      <trkpt lat="39.491235" lon="-8.43377167">
        <ele>94.0</ele>
        <time>2019-05-17T13:41:48.184Z</time>
      </trkpt>
      <trkpt lat="39.491235" lon="-8.43377167">
        <ele>94.0</ele>
        <time>2019-05-17T13:41:49.167Z</time>
      </trkpt>
      <trkpt lat="39.49123333" lon="-8.43375">
        <ele>94.0</ele>
        <time>2019-05-17T13:41:50.173Z</time>
      </trkpt>
      <trkpt lat="39.49123333" lon="-8.43375">
        <ele>94.0</ele>
        <time>2019-05-17T13:41:51.179Z</time>
      </trkpt>
      <trkpt lat="39.49123167" lon="-8.43374833">
        <ele>94.0</ele>
        <time>2019-05-17T13:41:52.162Z</time>
      </trkpt>
      <trkpt lat="39.49123167" lon="-8.43374833">
        <ele>94.0</ele>
        <time>2019-05-17T13:41:53.158Z</time>
      </trkpt>
      <trkpt lat="39.49123333" lon="-8.433745">
        <ele>94.0</ele>
        <time>2019-05-17T13:41:54.162Z</time>
      </trkpt>
      <trkpt lat="39.49123333" lon="-8.433745">
        <ele>94.0</ele>
        <time>2019-05-17T13:41:55.158Z</time>
      </trkpt>
      <trkpt lat="39.49123333" lon="-8.433745">
        <ele>94.0</ele>
        <time>2019-05-17T13:41:56.165Z</time>
      </trkpt>
      <trkpt lat="39.49123333" lon="-8.433745">
        <ele>94.0</ele>
        <time>2019-05-17T13:41:57.158Z</time>
      </trkpt>
      <trkpt lat="39.49123333" lon="-8.433745">
        <ele>94.0</ele>
        <time>2019-05-17T13:41:58.163Z</time>
      </trkpt>
      <trkpt lat="39.49123333" lon="-8.433745">
        <ele>94.0</ele>
        <time>2019-05-17T13:41:59.157Z</time>
      </trkpt>
      <trkpt lat="39.49123333" lon="-8.433745">
        <ele>94.0</ele>
        <time>2019-05-17T13:42:00.162Z</time>
      </trkpt>
      <trkpt lat="39.49123333" lon="-8.433745">
        <ele>94.0</ele>
        <time>2019-05-17T13:42:01.157Z</time>
      </trkpt>
      <trkpt lat="39.49123333" lon="-8.433745">
        <ele>94.0</ele>
        <time>2019-05-17T13:42:02.164Z</time>
      </trkpt>
      <trkpt lat="39.49123333" lon="-8.433745">
        <ele>94.0</ele>
        <time>2019-05-17T13:42:03.157Z</time>
      </trkpt>
      <trkpt lat="39.49123333" lon="-8.433745">
        <ele>94.0</ele>
        <time>2019-05-17T13:42:04.162Z</time>
      </trkpt>
      <trkpt lat="39.49123333" lon="-8.433745">
        <ele>94.0</ele>
        <time>2019-05-17T13:42:05.157Z</time>
      </trkpt>
      <trkpt lat="39.49123333" lon="-8.433745">
        <ele>94.0</ele>
        <time>2019-05-17T13:42:06.162Z</time>
      </trkpt>
      <trkpt lat="39.49123333" lon="-8.433745">
        <ele>94.0</ele>
        <time>2019-05-17T13:42:07.157Z</time>
      </trkpt>
      <trkpt lat="39.49123333" lon="-8.433745">
        <ele>94.0</ele>
        <time>2019-05-17T13:42:08.166Z</time>
      </trkpt>
      <trkpt lat="39.49123333" lon="-8.433745">
        <ele>94.0</ele>
        <time>2019-05-17T13:42:09.174Z</time>
      </trkpt>
      <trkpt lat="39.49123333" lon="-8.433745">
        <ele>94.0</ele>
        <time>2019-05-17T13:42:10.162Z</time>
      </trkpt>
      <trkpt lat="39.49123333" lon="-8.433745">
        <ele>94.0</ele>
        <time>2019-05-17T13:42:11.168Z</time>
      </trkpt>
      <trkpt lat="39.49123333" lon="-8.433745">
        <ele>94.0</ele>
        <time>2019-05-17T13:42:12.173Z</time>
      </trkpt>
      <trkpt lat="39.49123333" lon="-8.433745">
        <ele>94.0</ele>
        <time>2019-05-17T13:42:13.180Z</time>
      </trkpt>
      <trkpt lat="39.49123333" lon="-8.433745">
        <ele>94.0</ele>
        <time>2019-05-17T13:42:14.165Z</time>
      </trkpt>
      <trkpt lat="39.49123333" lon="-8.433745">
        <ele>94.0</ele>
        <time>2019-05-17T13:42:15.172Z</time>
      </trkpt>
      <trkpt lat="39.49123333" lon="-8.433745">
        <ele>94.0</ele>
        <time>2019-05-17T13:42:16.163Z</time>
      </trkpt>
      <trkpt lat="39.49123333" lon="-8.433745">
        <ele>94.0</ele>
        <time>2019-05-17T13:42:17.163Z</time>
      </trkpt>
      <trkpt lat="39.49123333" lon="-8.433745">
        <ele>94.0</ele>
        <time>2019-05-17T13:42:18.158Z</time>
      </trkpt>
      <trkpt lat="39.49123333" lon="-8.433745">
        <ele>94.0</ele>
        <time>2019-05-17T13:42:19.162Z</time>
      </trkpt>
      <trkpt lat="39.49123333" lon="-8.433745">
        <ele>94.0</ele>
        <time>2019-05-17T13:42:20.164Z</time>
      </trkpt>
      <trkpt lat="39.49123333" lon="-8.433745">
        <ele>94.0</ele>
        <time>2019-05-17T13:42:21.157Z</time>
      </trkpt>
      <trkpt lat="39.49123333" lon="-8.433745">
        <ele>94.0</ele>
        <time>2019-05-17T13:42:22.163Z</time>
      </trkpt>
      <trkpt lat="39.49123333" lon="-8.433745">
        <ele>94.0</ele>
        <time>2019-05-17T13:42:23.158Z</time>
      </trkpt>
      <trkpt lat="39.49123333" lon="-8.433745">
        <ele>94.0</ele>
        <time>2019-05-17T13:42:24.162Z</time>
      </trkpt>
      <trkpt lat="39.49123333" lon="-8.433745">
        <ele>94.0</ele>
        <time>2019-05-17T13:42:25.157Z</time>
      </trkpt>
      <trkpt lat="39.49123333" lon="-8.433745">
        <ele>94.0</ele>
        <time>2019-05-17T13:42:26.165Z</time>
      </trkpt>
      <trkpt lat="39.49123333" lon="-8.433745">
        <ele>94.0</ele>
        <time>2019-05-17T13:42:27.157Z</time>
      </trkpt>
      <trkpt lat="39.49123333" lon="-8.433745">
        <ele>94.0</ele>
        <time>2019-05-17T13:42:28.162Z</time>
      </trkpt>
      <trkpt lat="39.49123333" lon="-8.433745">
        <ele>94.0</ele>
        <time>2019-05-17T13:42:29.157Z</time>
      </trkpt>
      <trkpt lat="39.49123333" lon="-8.433745">
        <ele>94.0</ele>
        <time>2019-05-17T13:42:30.163Z</time>
      </trkpt>
      <trkpt lat="39.49123333" lon="-8.433745">
        <ele>94.0</ele>
        <time>2019-05-17T13:42:31.160Z</time>
      </trkpt>
      <trkpt lat="39.49123333" lon="-8.433745">
        <ele>94.0</ele>
        <time>2019-05-17T13:42:32.165Z</time>
      </trkpt>
      <trkpt lat="39.49123333" lon="-8.433745">
        <ele>94.0</ele>
        <time>2019-05-17T13:42:33.157Z</time>
      </trkpt>
      <trkpt lat="39.49123333" lon="-8.433745">
        <ele>94.0</ele>
        <time>2019-05-17T13:42:34.176Z</time>
      </trkpt>
      <trkpt lat="39.49123333" lon="-8.433745">
        <ele>94.0</ele>
        <time>2019-05-17T13:42:35.162Z</time>
      </trkpt>
      <trkpt lat="39.49123333" lon="-8.433745">
        <ele>94.0</ele>
        <time>2019-05-17T13:42:36.161Z</time>
      </trkpt>
      <trkpt lat="39.49123333" lon="-8.433745">
        <ele>94.0</ele>
        <time>2019-05-17T13:42:37.157Z</time>
      </trkpt>
      <trkpt lat="39.49123333" lon="-8.433745">
        <ele>94.0</ele>
        <time>2019-05-17T13:42:38.184Z</time>
      </trkpt>
      <trkpt lat="39.49123333" lon="-8.433745">
        <ele>94.0</ele>
        <time>2019-05-17T13:42:39.177Z</time>
      </trkpt>
      <trkpt lat="39.49123333" lon="-8.433745">
        <ele>94.0</ele>
        <time>2019-05-17T13:42:40.164Z</time>
      </trkpt>
      <trkpt lat="39.49123333" lon="-8.433745">
        <ele>94.0</ele>
        <time>2019-05-17T13:42:41.157Z</time>
      </trkpt>
      <trkpt lat="39.49123333" lon="-8.433745">
        <ele>94.0</ele>
        <time>2019-05-17T13:42:42.162Z</time>
      </trkpt>
      <trkpt lat="39.49123333" lon="-8.433745">
        <ele>94.0</ele>
        <time>2019-05-17T13:42:43.157Z</time>
      </trkpt>
      <trkpt lat="39.49123333" lon="-8.433745">
        <ele>94.0</ele>
        <time>2019-05-17T13:42:44.164Z</time>
      </trkpt>
      <trkpt lat="39.49123333" lon="-8.433745">
        <ele>94.0</ele>
        <time>2019-05-17T13:42:45.154Z</time>
      </trkpt>
      <trkpt lat="39.49123333" lon="-8.433745">
        <ele>94.0</ele>
        <time>2019-05-17T13:42:46.162Z</time>
      </trkpt>
      <trkpt lat="39.49123333" lon="-8.433745">
        <ele>94.0</ele>
        <time>2019-05-17T13:42:47.157Z</time>
      </trkpt>
      <trkpt lat="39.49123333" lon="-8.433745">
        <ele>94.0</ele>
        <time>2019-05-17T13:42:48.162Z</time>
      </trkpt>
      <trkpt lat="39.49123333" lon="-8.433745">
        <ele>94.0</ele>
        <time>2019-05-17T13:42:49.157Z</time>
      </trkpt>
      <trkpt lat="39.49123333" lon="-8.433745">
        <ele>94.0</ele>
        <time>2019-05-17T13:42:50.166Z</time>
      </trkpt>
      <trkpt lat="39.49123333" lon="-8.433745">
        <ele>94.0</ele>
        <time>2019-05-17T13:42:51.157Z</time>
      </trkpt>
      <trkpt lat="39.49123333" lon="-8.433745">
        <ele>94.0</ele>
        <time>2019-05-17T13:42:52.162Z</time>
      </trkpt>
      <trkpt lat="39.49123333" lon="-8.433745">
        <ele>94.0</ele>
        <time>2019-05-17T13:42:53.157Z</time>
      </trkpt>
      <trkpt lat="39.491255" lon="-8.43374333">
        <ele>95.0</ele>
        <time>2019-05-17T13:42:54.162Z</time>
      </trkpt>
      <trkpt lat="39.49126167" lon="-8.433745">
        <ele>96.0</ele>
        <time>2019-05-17T13:42:55.161Z</time>
      </trkpt>
      <trkpt lat="39.49126667" lon="-8.433745">
        <ele>96.0</ele>
        <time>2019-05-17T13:42:56.164Z</time>
      </trkpt>
      <trkpt lat="39.49126667" lon="-8.433745">
        <ele>96.0</ele>
        <time>2019-05-17T13:42:57.157Z</time>
      </trkpt>
      <trkpt lat="39.491285" lon="-8.43374167">
        <ele>95.0</ele>
        <time>2019-05-17T13:42:58.156Z</time>
      </trkpt>
      <trkpt lat="39.491285" lon="-8.43374167">
        <ele>95.0</ele>
        <time>2019-05-17T13:42:59.151Z</time>
      </trkpt>
      <trkpt lat="39.49130167" lon="-8.433745">
        <ele>96.0</ele>
        <time>2019-05-17T13:43:00.166Z</time>
      </trkpt>
      <trkpt lat="39.49130167" lon="-8.433745">
        <ele>96.0</ele>
        <time>2019-05-17T13:43:01.186Z</time>
      </trkpt>
      <trkpt lat="39.49132833" lon="-8.433755">
        <ele>95.0</ele>
        <time>2019-05-17T13:43:02.174Z</time>
      </trkpt>
      <trkpt lat="39.49132833" lon="-8.433755">
        <ele>95.0</ele>
        <time>2019-05-17T13:43:03.152Z</time>
      </trkpt>
      <trkpt lat="39.49134333" lon="-8.433755">
        <ele>95.0</ele>
        <time>2019-05-17T13:43:04.176Z</time>
      </trkpt>
      <trkpt lat="39.49135167" lon="-8.43375167">
        <ele>95.0</ele>
        <time>2019-05-17T13:43:05.155Z</time>
      </trkpt>
      <trkpt lat="39.49135167" lon="-8.43375167">
        <ele>95.0</ele>
        <time>2019-05-17T13:43:06.150Z</time>
      </trkpt>
      <trkpt lat="39.491365" lon="-8.43374833">
        <ele>95.0</ele>
        <time>2019-05-17T13:43:07.175Z</time>
      </trkpt>
      <trkpt lat="39.491365" lon="-8.43374833">
        <ele>95.0</ele>
        <time>2019-05-17T13:43:08.177Z</time>
      </trkpt>
      <trkpt lat="39.49137" lon="-8.433745">
        <ele>95.0</ele>
        <time>2019-05-17T13:43:09.165Z</time>
      </trkpt>
      <trkpt lat="39.49137" lon="-8.433745">
        <ele>95.0</ele>
        <time>2019-05-17T13:43:10.152Z</time>
      </trkpt>
      <trkpt lat="39.49137" lon="-8.433745">
        <ele>95.0</ele>
        <time>2019-05-17T13:43:11.158Z</time>
      </trkpt>
      <trkpt lat="39.49137" lon="-8.433745">
        <ele>95.0</ele>
        <time>2019-05-17T13:43:12.163Z</time>
      </trkpt>
      <trkpt lat="39.49137" lon="-8.433745">
        <ele>95.0</ele>
        <time>2019-05-17T13:43:13.170Z</time>
      </trkpt>
      <trkpt lat="39.49137" lon="-8.433745">
        <ele>95.0</ele>
        <time>2019-05-17T13:43:14.176Z</time>
      </trkpt>
      <trkpt lat="39.49137" lon="-8.433745">
        <ele>95.0</ele>
        <time>2019-05-17T13:43:15.162Z</time>
      </trkpt>
      <trkpt lat="39.49138" lon="-8.43373333">
        <ele>95.0</ele>
        <time>2019-05-17T13:43:16.163Z</time>
      </trkpt>
      <trkpt lat="39.49139333" lon="-8.433725">
        <ele>95.0</ele>
        <time>2019-05-17T13:43:17.160Z</time>
      </trkpt>
      <trkpt lat="39.49139333" lon="-8.433725">
        <ele>95.0</ele>
        <time>2019-05-17T13:43:18.165Z</time>
      </trkpt>
      <trkpt lat="39.49142333" lon="-8.43371333">
        <ele>94.0</ele>
        <time>2019-05-17T13:43:19.164Z</time>
      </trkpt>
      <trkpt lat="39.49143833" lon="-8.433705">
        <ele>94.0</ele>
        <time>2019-05-17T13:43:20.164Z</time>
      </trkpt>
      <trkpt lat="39.49145333" lon="-8.433695">
        <ele>94.0</ele>
        <time>2019-05-17T13:43:21.160Z</time>
      </trkpt>
      <trkpt lat="39.49145333" lon="-8.433695">
        <ele>94.0</ele>
        <time>2019-05-17T13:43:22.150Z</time>
      </trkpt>
      <trkpt lat="39.49148167" lon="-8.43367833">
        <ele>94.0</ele>
        <time>2019-05-17T13:43:23.152Z</time>
      </trkpt>
      <trkpt lat="39.49148167" lon="-8.43367833">
        <ele>94.0</ele>
        <time>2019-05-17T13:43:24.157Z</time>
      </trkpt>
      <trkpt lat="39.49150667" lon="-8.43365833">
        <ele>94.0</ele>
        <time>2019-05-17T13:43:25.155Z</time>
      </trkpt>
      <trkpt lat="39.49151833" lon="-8.433645">
        <ele>94.0</ele>
        <time>2019-05-17T13:43:26.175Z</time>
      </trkpt>
      <trkpt lat="39.49151833" lon="-8.433645">
        <ele>94.0</ele>
        <time>2019-05-17T13:43:27.153Z</time>
      </trkpt>
      <trkpt lat="39.49154333" lon="-8.43361667">
        <ele>94.0</ele>
        <time>2019-05-17T13:43:28.155Z</time>
      </trkpt>
      <trkpt lat="39.49154333" lon="-8.43361667">
        <ele>94.0</ele>
        <time>2019-05-17T13:43:29.160Z</time>
      </trkpt>
      <trkpt lat="39.491575" lon="-8.43358167">
        <ele>94.0</ele>
        <time>2019-05-17T13:43:30.151Z</time>
      </trkpt>
      <trkpt lat="39.491575" lon="-8.43358167">
        <ele>94.0</ele>
        <time>2019-05-17T13:43:31.164Z</time>
      </trkpt>
      <trkpt lat="39.49161167" lon="-8.433545">
        <ele>93.0</ele>
        <time>2019-05-17T13:43:32.174Z</time>
      </trkpt>
      <trkpt lat="39.49161167" lon="-8.433545">
        <ele>93.0</ele>
        <time>2019-05-17T13:43:33.187Z</time>
      </trkpt>
      <trkpt lat="39.491655" lon="-8.43351833">
        <ele>92.0</ele>
        <time>2019-05-17T13:43:34.176Z</time>
      </trkpt>
      <trkpt lat="39.491655" lon="-8.43351833">
        <ele>92.0</ele>
        <time>2019-05-17T13:43:35.181Z</time>
      </trkpt>
      <trkpt lat="39.491685" lon="-8.43349">
        <ele>92.0</ele>
        <time>2019-05-17T13:43:36.185Z</time>
      </trkpt>
      <trkpt lat="39.491685" lon="-8.43349">
        <ele>92.0</ele>
        <time>2019-05-17T13:43:37.154Z</time>
      </trkpt>
      <trkpt lat="39.491715" lon="-8.43346">
        <ele>91.0</ele>
        <time>2019-05-17T13:43:38.181Z</time>
      </trkpt>
      <trkpt lat="39.491715" lon="-8.43346">
        <ele>91.0</ele>
        <time>2019-05-17T13:43:39.187Z</time>
      </trkpt>
      <trkpt lat="39.49175833" lon="-8.43342667">
        <ele>90.0</ele>
        <time>2019-05-17T13:43:40.153Z</time>
      </trkpt>
      <trkpt lat="39.49175833" lon="-8.43342667">
        <ele>90.0</ele>
        <time>2019-05-17T13:43:41.189Z</time>
      </trkpt>
      <trkpt lat="39.4918" lon="-8.43339833">
        <ele>89.0</ele>
        <time>2019-05-17T13:43:42.185Z</time>
      </trkpt>
      <trkpt lat="39.49182167" lon="-8.43338">
        <ele>89.0</ele>
        <time>2019-05-17T13:43:43.180Z</time>
      </trkpt>
      <trkpt lat="39.491845" lon="-8.433355">
        <ele>88.0</ele>
        <time>2019-05-17T13:43:44.189Z</time>
      </trkpt>
      <trkpt lat="39.491845" lon="-8.433355">
        <ele>88.0</ele>
        <time>2019-05-17T13:43:45.168Z</time>
      </trkpt>
      <trkpt lat="39.49187667" lon="-8.43330667">
        <ele>89.0</ele>
        <time>2019-05-17T13:43:46.165Z</time>
      </trkpt>
      <trkpt lat="39.49187667" lon="-8.43330667">
        <ele>89.0</ele>
        <time>2019-05-17T13:43:47.158Z</time>
      </trkpt>
      <trkpt lat="39.49191833" lon="-8.43325">
        <ele>89.0</ele>
        <time>2019-05-17T13:43:48.167Z</time>
      </trkpt>
      <trkpt lat="39.49191833" lon="-8.43325">
        <ele>89.0</ele>
        <time>2019-05-17T13:43:49.177Z</time>
      </trkpt>
      <trkpt lat="39.49196167" lon="-8.43319">
        <ele>89.0</ele>
        <time>2019-05-17T13:43:50.162Z</time>
      </trkpt>
      <trkpt lat="39.49196167" lon="-8.43319">
        <ele>89.0</ele>
        <time>2019-05-17T13:43:51.174Z</time>
      </trkpt>
      <trkpt lat="39.49201167" lon="-8.43312167">
        <ele>89.0</ele>
        <time>2019-05-17T13:43:52.165Z</time>
      </trkpt>
      <trkpt lat="39.49201167" lon="-8.43312167">
        <ele>89.0</ele>
        <time>2019-05-17T13:43:53.152Z</time>
      </trkpt>
      <trkpt lat="39.492065" lon="-8.43305333">
        <ele>89.0</ele>
        <time>2019-05-17T13:43:54.185Z</time>
      </trkpt>
      <trkpt lat="39.492065" lon="-8.43305333">
        <ele>89.0</ele>
        <time>2019-05-17T13:43:55.167Z</time>
      </trkpt>
      <trkpt lat="39.49211167" lon="-8.43298833">
        <ele>89.0</ele>
        <time>2019-05-17T13:43:56.155Z</time>
      </trkpt>
      <trkpt lat="39.49211167" lon="-8.43298833">
        <ele>89.0</ele>
        <time>2019-05-17T13:43:57.179Z</time>
      </trkpt>
      <trkpt lat="39.49215" lon="-8.432935">
        <ele>90.0</ele>
        <time>2019-05-17T13:43:58.169Z</time>
      </trkpt>
      <trkpt lat="39.49215" lon="-8.432935">
        <ele>90.0</ele>
        <time>2019-05-17T13:43:59.157Z</time>
      </trkpt>
      <trkpt lat="39.492185" lon="-8.43289167">
        <ele>91.0</ele>
        <time>2019-05-17T13:44:00.181Z</time>
      </trkpt>
      <trkpt lat="39.492185" lon="-8.43289167">
        <ele>91.0</ele>
        <time>2019-05-17T13:44:01.154Z</time>
      </trkpt>
      <trkpt lat="39.49221667" lon="-8.43285333">
        <ele>92.0</ele>
        <time>2019-05-17T13:44:02.195Z</time>
      </trkpt>
      <trkpt lat="39.49221667" lon="-8.43285333">
        <ele>92.0</ele>
        <time>2019-05-17T13:44:03.178Z</time>
      </trkpt>
      <trkpt lat="39.49223667" lon="-8.43283167">
        <ele>93.0</ele>
        <time>2019-05-17T13:44:04.180Z</time>
      </trkpt>
      <trkpt lat="39.49223667" lon="-8.43283167">
        <ele>93.0</ele>
        <time>2019-05-17T13:44:05.175Z</time>
      </trkpt>
      <trkpt lat="39.49223833" lon="-8.43283">
        <ele>93.0</ele>
        <time>2019-05-17T13:44:06.185Z</time>
      </trkpt>
      <trkpt lat="39.49223833" lon="-8.43283">
        <ele>93.0</ele>
        <time>2019-05-17T13:44:07.189Z</time>
      </trkpt>
      <trkpt lat="39.49223833" lon="-8.43283167">
        <ele>93.0</ele>
        <time>2019-05-17T13:44:08.155Z</time>
      </trkpt>
      <trkpt lat="39.49223833" lon="-8.43283167">
        <ele>93.0</ele>
        <time>2019-05-17T13:44:09.176Z</time>
      </trkpt>
      <trkpt lat="39.49223833" lon="-8.43283167">
        <ele>93.0</ele>
        <time>2019-05-17T13:44:10.165Z</time>
      </trkpt>
      <trkpt lat="39.49223833" lon="-8.43283167">
        <ele>93.0</ele>
        <time>2019-05-17T13:44:11.172Z</time>
      </trkpt>
      <trkpt lat="39.49223833" lon="-8.43283167">
        <ele>93.0</ele>
        <time>2019-05-17T13:44:12.177Z</time>
      </trkpt>
      <trkpt lat="39.49223833" lon="-8.43283167">
        <ele>93.0</ele>
        <time>2019-05-17T13:44:13.164Z</time>
      </trkpt>
      <trkpt lat="39.49223833" lon="-8.43283167">
        <ele>93.0</ele>
        <time>2019-05-17T13:44:14.165Z</time>
      </trkpt>
      <trkpt lat="39.49223833" lon="-8.43283167">
        <ele>93.0</ele>
        <time>2019-05-17T13:44:15.170Z</time>
      </trkpt>
      <trkpt lat="39.49223833" lon="-8.43283167">
        <ele>93.0</ele>
        <time>2019-05-17T13:44:16.163Z</time>
      </trkpt>
      <trkpt lat="39.49223833" lon="-8.43283167">
        <ele>93.0</ele>
        <time>2019-05-17T13:44:17.157Z</time>
      </trkpt>
      <trkpt lat="39.49223833" lon="-8.43283167">
        <ele>93.0</ele>
        <time>2019-05-17T13:44:18.165Z</time>
      </trkpt>
      <trkpt lat="39.49223833" lon="-8.43283167">
        <ele>93.0</ele>
        <time>2019-05-17T13:44:19.158Z</time>
      </trkpt>
      <trkpt lat="39.49223833" lon="-8.43283167">
        <ele>93.0</ele>
        <time>2019-05-17T13:44:20.165Z</time>
      </trkpt>
      <trkpt lat="39.49223833" lon="-8.43283167">
        <ele>93.0</ele>
        <time>2019-05-17T13:44:21.154Z</time>
      </trkpt>
      <trkpt lat="39.49223833" lon="-8.43283167">
        <ele>93.0</ele>
        <time>2019-05-17T13:44:22.163Z</time>
      </trkpt>
      <trkpt lat="39.49223833" lon="-8.43283167">
        <ele>93.0</ele>
        <time>2019-05-17T13:44:23.162Z</time>
      </trkpt>
      <trkpt lat="39.49223833" lon="-8.43283167">
        <ele>93.0</ele>
        <time>2019-05-17T13:44:24.165Z</time>
      </trkpt>
      <trkpt lat="39.49227333" lon="-8.43281">
        <ele>95.0</ele>
        <time>2019-05-17T13:44:25.162Z</time>
      </trkpt>
      <trkpt lat="39.492275" lon="-8.43281">
        <ele>95.0</ele>
        <time>2019-05-17T13:44:26.164Z</time>
      </trkpt>
      <trkpt lat="39.492275" lon="-8.43281">
        <ele>95.0</ele>
        <time>2019-05-17T13:44:27.158Z</time>
      </trkpt>
      <trkpt lat="39.49228833" lon="-8.43279667">
        <ele>95.0</ele>
        <time>2019-05-17T13:44:28.162Z</time>
      </trkpt>
      <trkpt lat="39.49228833" lon="-8.43279667">
        <ele>95.0</ele>
        <time>2019-05-17T13:44:29.158Z</time>
      </trkpt>
      <trkpt lat="39.492305" lon="-8.43278167">
        <ele>96.0</ele>
        <time>2019-05-17T13:44:30.162Z</time>
      </trkpt>
      <trkpt lat="39.492305" lon="-8.43278167">
        <ele>96.0</ele>
        <time>2019-05-17T13:44:31.157Z</time>
      </trkpt>
      <trkpt lat="39.49232" lon="-8.43276333">
        <ele>96.0</ele>
        <time>2019-05-17T13:44:32.164Z</time>
      </trkpt>
      <trkpt lat="39.49232" lon="-8.43276333">
        <ele>96.0</ele>
        <time>2019-05-17T13:44:33.157Z</time>
      </trkpt>
      <trkpt lat="39.49233333" lon="-8.43274167">
        <ele>96.0</ele>
        <time>2019-05-17T13:44:34.195Z</time>
      </trkpt>
      <trkpt lat="39.49233333" lon="-8.43274167">
        <ele>96.0</ele>
        <time>2019-05-17T13:44:35.151Z</time>
      </trkpt>
      <trkpt lat="39.49234333" lon="-8.432735">
        <ele>96.0</ele>
        <time>2019-05-17T13:44:36.186Z</time>
      </trkpt>
      <trkpt lat="39.49234333" lon="-8.432735">
        <ele>96.0</ele>
        <time>2019-05-17T13:44:37.151Z</time>
      </trkpt>
      <trkpt lat="39.49235167" lon="-8.43272667">
        <ele>97.0</ele>
        <time>2019-05-17T13:44:38.180Z</time>
      </trkpt>
      <trkpt lat="39.49235167" lon="-8.43272667">
        <ele>97.0</ele>
        <time>2019-05-17T13:44:39.186Z</time>
      </trkpt>
      <trkpt lat="39.49236167" lon="-8.43271">
        <ele>97.0</ele>
        <time>2019-05-17T13:44:40.177Z</time>
      </trkpt>
      <trkpt lat="39.49236167" lon="-8.43271">
        <ele>97.0</ele>
        <time>2019-05-17T13:44:41.190Z</time>
      </trkpt>
      <trkpt lat="39.49236833" lon="-8.43270333">
        <ele>98.0</ele>
        <time>2019-05-17T13:44:42.186Z</time>
      </trkpt>
      <trkpt lat="39.49236833" lon="-8.43270333">
        <ele>98.0</ele>
        <time>2019-05-17T13:44:43.152Z</time>
      </trkpt>
      <trkpt lat="39.49237667" lon="-8.432705">
        <ele>98.0</ele>
        <time>2019-05-17T13:44:44.175Z</time>
      </trkpt>
      <trkpt lat="39.49237667" lon="-8.432705">
        <ele>98.0</ele>
        <time>2019-05-17T13:44:45.171Z</time>
      </trkpt>
      <trkpt lat="39.49237667" lon="-8.432705">
        <ele>98.0</ele>
        <time>2019-05-17T13:44:46.177Z</time>
      </trkpt>
      <trkpt lat="39.49237667" lon="-8.432705">
        <ele>98.0</ele>
        <time>2019-05-17T13:44:47.183Z</time>
      </trkpt>
      <trkpt lat="39.49237667" lon="-8.432705">
        <ele>98.0</ele>
        <time>2019-05-17T13:44:48.151Z</time>
      </trkpt>
      <trkpt lat="39.49237667" lon="-8.432705">
        <ele>98.0</ele>
        <time>2019-05-17T13:44:49.157Z</time>
      </trkpt>
      <trkpt lat="39.49237667" lon="-8.432705">
        <ele>98.0</ele>
        <time>2019-05-17T13:44:50.167Z</time>
      </trkpt>
      <trkpt lat="39.49237667" lon="-8.432705">
        <ele>98.0</ele>
        <time>2019-05-17T13:44:51.170Z</time>
      </trkpt>
      <trkpt lat="39.49237667" lon="-8.432705">
        <ele>98.0</ele>
        <time>2019-05-17T13:44:52.162Z</time>
      </trkpt>
      <trkpt lat="39.49237667" lon="-8.432705">
        <ele>98.0</ele>
        <time>2019-05-17T13:44:53.154Z</time>
      </trkpt>
      <trkpt lat="39.49237667" lon="-8.432705">
        <ele>98.0</ele>
        <time>2019-05-17T13:44:54.159Z</time>
      </trkpt>
      <trkpt lat="39.49237667" lon="-8.432705">
        <ele>98.0</ele>
        <time>2019-05-17T13:44:55.153Z</time>
      </trkpt>
      <trkpt lat="39.49237667" lon="-8.432705">
        <ele>98.0</ele>
        <time>2019-05-17T13:44:56.178Z</time>
      </trkpt>
      <trkpt lat="39.49237667" lon="-8.432705">
        <ele>98.0</ele>
        <time>2019-05-17T13:44:57.163Z</time>
      </trkpt>
      <trkpt lat="39.49237667" lon="-8.432705">
        <ele>98.0</ele>
        <time>2019-05-17T13:44:58.163Z</time>
      </trkpt>
      <trkpt lat="39.49237667" lon="-8.432705">
        <ele>98.0</ele>
        <time>2019-05-17T13:44:59.158Z</time>
      </trkpt>
      <trkpt lat="39.49237667" lon="-8.432705">
        <ele>98.0</ele>
        <time>2019-05-17T13:45:00.162Z</time>
      </trkpt>
      <trkpt lat="39.49237667" lon="-8.432705">
        <ele>98.0</ele>
        <time>2019-05-17T13:45:01.157Z</time>
      </trkpt>
      <trkpt lat="39.49237667" lon="-8.432705">
        <ele>98.0</ele>
        <time>2019-05-17T13:45:02.162Z</time>
      </trkpt>
      <trkpt lat="39.49237667" lon="-8.432705">
        <ele>98.0</ele>
        <time>2019-05-17T13:45:03.157Z</time>
      </trkpt>
      <trkpt lat="39.49237667" lon="-8.432705">
        <ele>98.0</ele>
        <time>2019-05-17T13:45:04.163Z</time>
      </trkpt>
      <trkpt lat="39.49237667" lon="-8.432705">
        <ele>98.0</ele>
        <time>2019-05-17T13:45:05.158Z</time>
      </trkpt>
      <trkpt lat="39.49237667" lon="-8.432705">
        <ele>98.0</ele>
        <time>2019-05-17T13:45:06.163Z</time>
      </trkpt>
      <trkpt lat="39.49237667" lon="-8.432705">
        <ele>98.0</ele>
        <time>2019-05-17T13:45:07.158Z</time>
      </trkpt>
      <trkpt lat="39.49237667" lon="-8.432705">
        <ele>98.0</ele>
        <time>2019-05-17T13:45:08.166Z</time>
      </trkpt>
      <trkpt lat="39.49237667" lon="-8.432705">
        <ele>98.0</ele>
        <time>2019-05-17T13:45:09.165Z</time>
      </trkpt>
      <trkpt lat="39.49237667" lon="-8.432705">
        <ele>98.0</ele>
        <time>2019-05-17T13:45:10.168Z</time>
      </trkpt>
      <trkpt lat="39.49237667" lon="-8.432705">
        <ele>98.0</ele>
        <time>2019-05-17T13:45:11.174Z</time>
      </trkpt>
      <trkpt lat="39.49237667" lon="-8.432705">
        <ele>98.0</ele>
        <time>2019-05-17T13:45:12.180Z</time>
      </trkpt>
      <trkpt lat="39.49237667" lon="-8.432705">
        <ele>98.0</ele>
        <time>2019-05-17T13:45:13.157Z</time>
      </trkpt>
      <trkpt lat="39.49237667" lon="-8.432705">
        <ele>98.0</ele>
        <time>2019-05-17T13:45:14.164Z</time>
      </trkpt>
      <trkpt lat="39.49237667" lon="-8.432705">
        <ele>98.0</ele>
        <time>2019-05-17T13:45:15.187Z</time>
      </trkpt>
      <trkpt lat="39.49237667" lon="-8.432705">
        <ele>98.0</ele>
        <time>2019-05-17T13:45:16.173Z</time>
      </trkpt>
      <trkpt lat="39.49237667" lon="-8.432705">
        <ele>98.0</ele>
        <time>2019-05-17T13:45:17.159Z</time>
      </trkpt>
      <trkpt lat="39.492405" lon="-8.43268167">
        <ele>98.0</ele>
        <time>2019-05-17T13:45:18.162Z</time>
      </trkpt>
      <trkpt lat="39.492415" lon="-8.43267167">
        <ele>99.0</ele>
        <time>2019-05-17T13:45:19.163Z</time>
      </trkpt>
      <trkpt lat="39.492415" lon="-8.43267167">
        <ele>99.0</ele>
        <time>2019-05-17T13:45:20.159Z</time>
      </trkpt>
      <trkpt lat="39.49242667" lon="-8.43265667">
        <ele>99.0</ele>
        <time>2019-05-17T13:45:21.155Z</time>
      </trkpt>
      <trkpt lat="39.49242667" lon="-8.43265667">
        <ele>99.0</ele>
        <time>2019-05-17T13:45:22.168Z</time>
      </trkpt>
      <trkpt lat="39.49244" lon="-8.43264333">
        <ele>100.0</ele>
        <time>2019-05-17T13:45:23.165Z</time>
      </trkpt>
      <trkpt lat="39.49244" lon="-8.43264333">
        <ele>100.0</ele>
        <time>2019-05-17T13:45:24.155Z</time>
      </trkpt>
      <trkpt lat="39.49245167" lon="-8.43263167">
        <ele>100.0</ele>
        <time>2019-05-17T13:45:25.162Z</time>
      </trkpt>
      <trkpt lat="39.49245833" lon="-8.432625">
        <ele>100.0</ele>
        <time>2019-05-17T13:45:26.182Z</time>
      </trkpt>
      <trkpt lat="39.49245833" lon="-8.432625">
        <ele>100.0</ele>
        <time>2019-05-17T13:45:27.190Z</time>
      </trkpt>
      <trkpt lat="39.49247333" lon="-8.43260833">
        <ele>101.0</ele>
        <time>2019-05-17T13:45:28.167Z</time>
      </trkpt>
      <trkpt lat="39.49247333" lon="-8.43260833">
        <ele>101.0</ele>
        <time>2019-05-17T13:45:29.174Z</time>
      </trkpt>
      <trkpt lat="39.49249167" lon="-8.432595">
        <ele>101.0</ele>
        <time>2019-05-17T13:45:30.183Z</time>
      </trkpt>
      <trkpt lat="39.49249167" lon="-8.432595">
        <ele>101.0</ele>
        <time>2019-05-17T13:45:31.150Z</time>
      </trkpt>
      <trkpt lat="39.49250333" lon="-8.43258333">
        <ele>101.0</ele>
        <time>2019-05-17T13:45:32.175Z</time>
      </trkpt>
      <trkpt lat="39.49250333" lon="-8.43258333">
        <ele>101.0</ele>
        <time>2019-05-17T13:45:33.176Z</time>
      </trkpt>
      <trkpt lat="39.49251667" lon="-8.43257">
        <ele>101.0</ele>
        <time>2019-05-17T13:45:34.179Z</time>
      </trkpt>
      <trkpt lat="39.49251667" lon="-8.43257">
        <ele>101.0</ele>
        <time>2019-05-17T13:45:35.174Z</time>
      </trkpt>
      <trkpt lat="39.49252333" lon="-8.432565">
        <ele>102.0</ele>
        <time>2019-05-17T13:45:36.168Z</time>
      </trkpt>
      <trkpt lat="39.49252333" lon="-8.432565">
        <ele>102.0</ele>
        <time>2019-05-17T13:45:37.173Z</time>
      </trkpt>
      <trkpt lat="39.49253" lon="-8.43256">
        <ele>102.0</ele>
        <time>2019-05-17T13:45:38.169Z</time>
      </trkpt>
      <trkpt lat="39.49253" lon="-8.43256">
        <ele>102.0</ele>
        <time>2019-05-17T13:45:39.174Z</time>
      </trkpt>
      <trkpt lat="39.49253" lon="-8.43256">
        <ele>102.0</ele>
        <time>2019-05-17T13:45:40.180Z</time>
      </trkpt>
      <trkpt lat="39.49253" lon="-8.43256">
        <ele>102.0</ele>
        <time>2019-05-17T13:45:41.150Z</time>
      </trkpt>
      <trkpt lat="39.49253" lon="-8.43256">
        <ele>102.0</ele>
        <time>2019-05-17T13:45:42.156Z</time>
      </trkpt>
      <trkpt lat="39.49253" lon="-8.43256">
        <ele>102.0</ele>
        <time>2019-05-17T13:45:43.163Z</time>
      </trkpt>
      <trkpt lat="39.49254333" lon="-8.43254333">
        <ele>102.0</ele>
        <time>2019-05-17T13:45:44.164Z</time>
      </trkpt>
      <trkpt lat="39.49254333" lon="-8.43254333">
        <ele>102.0</ele>
        <time>2019-05-17T13:45:45.173Z</time>
      </trkpt>
      <trkpt lat="39.49255833" lon="-8.43253">
        <ele>102.0</ele>
        <time>2019-05-17T13:45:46.162Z</time>
      </trkpt>
      <trkpt lat="39.49256667" lon="-8.432525">
        <ele>102.0</ele>
        <time>2019-05-17T13:45:47.176Z</time>
      </trkpt>
      <trkpt lat="39.49257667" lon="-8.43252">
        <ele>102.0</ele>
        <time>2019-05-17T13:45:48.167Z</time>
      </trkpt>
      <trkpt lat="39.49257667" lon="-8.43252">
        <ele>102.0</ele>
        <time>2019-05-17T13:45:49.158Z</time>
      </trkpt>
      <trkpt lat="39.492595" lon="-8.4325">
        <ele>102.0</ele>
        <time>2019-05-17T13:45:50.157Z</time>
      </trkpt>
      <trkpt lat="39.492595" lon="-8.4325">
        <ele>102.0</ele>
        <time>2019-05-17T13:45:51.180Z</time>
      </trkpt>
      <trkpt lat="39.49261167" lon="-8.43247167">
        <ele>102.0</ele>
        <time>2019-05-17T13:45:52.177Z</time>
      </trkpt>
      <trkpt lat="39.49261167" lon="-8.43247167">
        <ele>102.0</ele>
        <time>2019-05-17T13:45:53.169Z</time>
      </trkpt>
      <trkpt lat="39.49262167" lon="-8.43246">
        <ele>102.0</ele>
        <time>2019-05-17T13:45:54.155Z</time>
      </trkpt>
      <trkpt lat="39.49262167" lon="-8.43246">
        <ele>102.0</ele>
        <time>2019-05-17T13:45:55.162Z</time>
      </trkpt>
      <trkpt lat="39.49262167" lon="-8.432465">
        <ele>102.0</ele>
        <time>2019-05-17T13:45:56.164Z</time>
      </trkpt>
      <trkpt lat="39.49262167" lon="-8.432465">
        <ele>102.0</ele>
        <time>2019-05-17T13:45:57.170Z</time>
      </trkpt>
      <trkpt lat="39.49262333" lon="-8.43246667">
        <ele>102.0</ele>
        <time>2019-05-17T13:45:58.176Z</time>
      </trkpt>
      <trkpt lat="39.49262333" lon="-8.43246667">
        <ele>102.0</ele>
        <time>2019-05-17T13:45:59.182Z</time>
      </trkpt>
      <trkpt lat="39.49262333" lon="-8.43246667">
        <ele>102.0</ele>
        <time>2019-05-17T13:46:00.150Z</time>
      </trkpt>
      <trkpt lat="39.49262333" lon="-8.43246667">
        <ele>102.0</ele>
        <time>2019-05-17T13:46:01.176Z</time>
      </trkpt>
      <trkpt lat="39.49262333" lon="-8.43246667">
        <ele>102.0</ele>
        <time>2019-05-17T13:46:02.164Z</time>
      </trkpt>
      <trkpt lat="39.49262333" lon="-8.43246667">
        <ele>102.0</ele>
        <time>2019-05-17T13:46:03.184Z</time>
      </trkpt>
      <trkpt lat="39.49265" lon="-8.43245">
        <ele>102.0</ele>
        <time>2019-05-17T13:46:04.170Z</time>
      </trkpt>
      <trkpt lat="39.49265" lon="-8.43245">
        <ele>102.0</ele>
        <time>2019-05-17T13:46:05.158Z</time>
      </trkpt>
      <trkpt lat="39.49266" lon="-8.43244333">
        <ele>102.0</ele>
        <time>2019-05-17T13:46:06.162Z</time>
      </trkpt>
      <trkpt lat="39.49266" lon="-8.43244333">
        <ele>102.0</ele>
        <time>2019-05-17T13:46:07.157Z</time>
      </trkpt>
      <trkpt lat="39.49266167" lon="-8.43244167">
        <ele>102.0</ele>
        <time>2019-05-17T13:46:08.165Z</time>
      </trkpt>
      <trkpt lat="39.49266167" lon="-8.43244167">
        <ele>102.0</ele>
        <time>2019-05-17T13:46:09.173Z</time>
      </trkpt>
      <trkpt lat="39.49267167" lon="-8.43243167">
        <ele>102.0</ele>
        <time>2019-05-17T13:46:10.188Z</time>
      </trkpt>
      <trkpt lat="39.49267167" lon="-8.43243167">
        <ele>102.0</ele>
        <time>2019-05-17T13:46:11.153Z</time>
      </trkpt>
      <trkpt lat="39.49268167" lon="-8.43241667">
        <ele>103.0</ele>
        <time>2019-05-17T13:46:12.159Z</time>
      </trkpt>
      <trkpt lat="39.49269167" lon="-8.43240167">
        <ele>103.0</ele>
        <time>2019-05-17T13:46:13.185Z</time>
      </trkpt>
      <trkpt lat="39.49269167" lon="-8.43240167">
        <ele>103.0</ele>
        <time>2019-05-17T13:46:14.165Z</time>
      </trkpt>
      <trkpt lat="39.49271333" lon="-8.43237">
        <ele>103.0</ele>
        <time>2019-05-17T13:46:15.155Z</time>
      </trkpt>
      <trkpt lat="39.49271333" lon="-8.43237">
        <ele>103.0</ele>
        <time>2019-05-17T13:46:16.172Z</time>
      </trkpt>
      <trkpt lat="39.49274" lon="-8.432335">
        <ele>103.0</ele>
        <time>2019-05-17T13:46:17.174Z</time>
      </trkpt>
      <trkpt lat="39.49274" lon="-8.432335">
        <ele>103.0</ele>
        <time>2019-05-17T13:46:18.152Z</time>
      </trkpt>
      <trkpt lat="39.492765" lon="-8.43231">
        <ele>103.0</ele>
        <time>2019-05-17T13:46:19.181Z</time>
      </trkpt>
      <trkpt lat="39.49277333" lon="-8.43230167">
        <ele>103.0</ele>
        <time>2019-05-17T13:46:20.188Z</time>
      </trkpt>
      <trkpt lat="39.49277333" lon="-8.43230167">
        <ele>103.0</ele>
        <time>2019-05-17T13:46:21.158Z</time>
      </trkpt>
      <trkpt lat="39.49279333" lon="-8.432275">
        <ele>103.0</ele>
        <time>2019-05-17T13:46:22.172Z</time>
      </trkpt>
      <trkpt lat="39.49279333" lon="-8.432275">
        <ele>103.0</ele>
        <time>2019-05-17T13:46:23.178Z</time>
      </trkpt>
      <trkpt lat="39.492815" lon="-8.43225">
        <ele>103.0</ele>
        <time>2019-05-17T13:46:24.155Z</time>
      </trkpt>
      <trkpt lat="39.49282667" lon="-8.43224">
        <ele>103.0</ele>
        <time>2019-05-17T13:46:25.165Z</time>
      </trkpt>
      <trkpt lat="39.49282667" lon="-8.43224">
        <ele>103.0</ele>
        <time>2019-05-17T13:46:26.154Z</time>
      </trkpt>
      <trkpt lat="39.49284833" lon="-8.43221333">
        <ele>104.0</ele>
        <time>2019-05-17T13:46:27.180Z</time>
      </trkpt>
      <trkpt lat="39.49286" lon="-8.43220167">
        <ele>104.0</ele>
        <time>2019-05-17T13:46:28.188Z</time>
      </trkpt>
      <trkpt lat="39.49286" lon="-8.43220167">
        <ele>104.0</ele>
        <time>2019-05-17T13:46:29.160Z</time>
      </trkpt>
      <trkpt lat="39.492875" lon="-8.43218">
        <ele>104.0</ele>
        <time>2019-05-17T13:46:30.164Z</time>
      </trkpt>
      <trkpt lat="39.492875" lon="-8.43218">
        <ele>104.0</ele>
        <time>2019-05-17T13:46:31.178Z</time>
      </trkpt>
      <trkpt lat="39.492895" lon="-8.43216">
        <ele>104.0</ele>
        <time>2019-05-17T13:46:32.179Z</time>
      </trkpt>
      <trkpt lat="39.492895" lon="-8.43216">
        <ele>104.0</ele>
        <time>2019-05-17T13:46:33.152Z</time>
      </trkpt>
      <trkpt lat="39.49291333" lon="-8.432135">
        <ele>105.0</ele>
        <time>2019-05-17T13:46:34.174Z</time>
      </trkpt>
      <trkpt lat="39.49291333" lon="-8.432135">
        <ele>105.0</ele>
        <time>2019-05-17T13:46:35.151Z</time>
      </trkpt>
      <trkpt lat="39.49293167" lon="-8.43210833">
        <ele>105.0</ele>
        <time>2019-05-17T13:46:36.159Z</time>
      </trkpt>
      <trkpt lat="39.49293167" lon="-8.43210833">
        <ele>105.0</ele>
        <time>2019-05-17T13:46:37.164Z</time>
      </trkpt>
      <trkpt lat="39.49295" lon="-8.43207833">
        <ele>105.0</ele>
        <time>2019-05-17T13:46:38.159Z</time>
      </trkpt>
      <trkpt lat="39.49295" lon="-8.43207833">
        <ele>105.0</ele>
        <time>2019-05-17T13:46:39.182Z</time>
      </trkpt>
      <trkpt lat="39.49297" lon="-8.43205333">
        <ele>106.0</ele>
        <time>2019-05-17T13:46:40.176Z</time>
      </trkpt>
      <trkpt lat="39.49297" lon="-8.43205333">
        <ele>106.0</ele>
        <time>2019-05-17T13:46:41.179Z</time>
      </trkpt>
      <trkpt lat="39.49297" lon="-8.43204833">
        <ele>106.0</ele>
        <time>2019-05-17T13:46:42.150Z</time>
      </trkpt>
      <trkpt lat="39.49297" lon="-8.43204833">
        <ele>106.0</ele>
        <time>2019-05-17T13:46:43.155Z</time>
      </trkpt>
      <trkpt lat="39.49296667" lon="-8.43204667">
        <ele>106.0</ele>
        <time>2019-05-17T13:46:44.151Z</time>
      </trkpt>
      <trkpt lat="39.49296667" lon="-8.43204667">
        <ele>106.0</ele>
        <time>2019-05-17T13:46:45.164Z</time>
      </trkpt>
      <trkpt lat="39.49296667" lon="-8.43204667">
        <ele>106.0</ele>
        <time>2019-05-17T13:46:46.170Z</time>
      </trkpt>
      <trkpt lat="39.49296667" lon="-8.43204667">
        <ele>106.0</ele>
        <time>2019-05-17T13:46:47.176Z</time>
      </trkpt>
      <trkpt lat="39.49296667" lon="-8.43204667">
        <ele>106.0</ele>
        <time>2019-05-17T13:46:48.182Z</time>
      </trkpt>
      <trkpt lat="39.49296667" lon="-8.43204667">
        <ele>106.0</ele>
        <time>2019-05-17T13:46:49.158Z</time>
      </trkpt>
      <trkpt lat="39.49296667" lon="-8.43204667">
        <ele>106.0</ele>
        <time>2019-05-17T13:46:50.185Z</time>
      </trkpt>
      <trkpt lat="39.49296667" lon="-8.43204667">
        <ele>106.0</ele>
        <time>2019-05-17T13:46:51.173Z</time>
      </trkpt>
      <trkpt lat="39.49296667" lon="-8.43204667">
        <ele>106.0</ele>
        <time>2019-05-17T13:46:52.161Z</time>
      </trkpt>
      <trkpt lat="39.49296667" lon="-8.43204667">
        <ele>106.0</ele>
        <time>2019-05-17T13:46:53.158Z</time>
      </trkpt>
      <trkpt lat="39.49296667" lon="-8.43204667">
        <ele>106.0</ele>
        <time>2019-05-17T13:46:54.183Z</time>
      </trkpt>
      <trkpt lat="39.49296667" lon="-8.43204667">
        <ele>106.0</ele>
        <time>2019-05-17T13:46:55.168Z</time>
      </trkpt>
      <trkpt lat="39.49296667" lon="-8.43204667">
        <ele>106.0</ele>
        <time>2019-05-17T13:46:56.157Z</time>
      </trkpt>
      <trkpt lat="39.49296667" lon="-8.43204667">
        <ele>106.0</ele>
        <time>2019-05-17T13:46:57.162Z</time>
      </trkpt>
      <trkpt lat="39.49296667" lon="-8.43204667">
        <ele>106.0</ele>
        <time>2019-05-17T13:46:58.158Z</time>
      </trkpt>
      <trkpt lat="39.49296667" lon="-8.43204667">
        <ele>106.0</ele>
        <time>2019-05-17T13:46:59.174Z</time>
      </trkpt>
      <trkpt lat="39.49296667" lon="-8.43204667">
        <ele>106.0</ele>
        <time>2019-05-17T13:47:00.164Z</time>
      </trkpt>
      <trkpt lat="39.49296667" lon="-8.43204667">
        <ele>106.0</ele>
        <time>2019-05-17T13:47:01.157Z</time>
      </trkpt>
      <trkpt lat="39.49296667" lon="-8.43204667">
        <ele>106.0</ele>
        <time>2019-05-17T13:47:02.164Z</time>
      </trkpt>
      <trkpt lat="39.49296667" lon="-8.43204667">
        <ele>106.0</ele>
        <time>2019-05-17T13:47:03.158Z</time>
      </trkpt>
      <trkpt lat="39.49296667" lon="-8.43204667">
        <ele>106.0</ele>
        <time>2019-05-17T13:47:04.164Z</time>
      </trkpt>
      <trkpt lat="39.49296667" lon="-8.43204667">
        <ele>106.0</ele>
        <time>2019-05-17T13:47:05.162Z</time>
      </trkpt>
      <trkpt lat="39.49296667" lon="-8.43204667">
        <ele>106.0</ele>
        <time>2019-05-17T13:47:06.157Z</time>
      </trkpt>
      <trkpt lat="39.49296667" lon="-8.43204667">
        <ele>106.0</ele>
        <time>2019-05-17T13:47:07.162Z</time>
      </trkpt>
      <trkpt lat="39.49296667" lon="-8.43204667">
        <ele>106.0</ele>
        <time>2019-05-17T13:47:08.166Z</time>
      </trkpt>
      <trkpt lat="39.49296667" lon="-8.43204667">
        <ele>106.0</ele>
        <time>2019-05-17T13:47:09.177Z</time>
      </trkpt>
      <trkpt lat="39.49296667" lon="-8.43204667">
        <ele>106.0</ele>
        <time>2019-05-17T13:47:10.161Z</time>
      </trkpt>
      <trkpt lat="39.49296667" lon="-8.43204667">
        <ele>106.0</ele>
        <time>2019-05-17T13:47:11.167Z</time>
      </trkpt>
      <trkpt lat="39.49296667" lon="-8.43204667">
        <ele>106.0</ele>
        <time>2019-05-17T13:47:12.172Z</time>
      </trkpt>
      <trkpt lat="39.49296667" lon="-8.43204667">
        <ele>106.0</ele>
        <time>2019-05-17T13:47:13.160Z</time>
      </trkpt>
      <trkpt lat="39.49296667" lon="-8.43204667">
        <ele>106.0</ele>
        <time>2019-05-17T13:47:14.164Z</time>
      </trkpt>
      <trkpt lat="39.49296667" lon="-8.43204667">
        <ele>106.0</ele>
        <time>2019-05-17T13:47:15.171Z</time>
      </trkpt>
      <trkpt lat="39.49296667" lon="-8.43204667">
        <ele>106.0</ele>
        <time>2019-05-17T13:47:16.166Z</time>
      </trkpt>
      <trkpt lat="39.49296667" lon="-8.43204667">
        <ele>106.0</ele>
        <time>2019-05-17T13:47:17.158Z</time>
      </trkpt>
      <trkpt lat="39.49296667" lon="-8.43204667">
        <ele>106.0</ele>
        <time>2019-05-17T13:47:18.162Z</time>
      </trkpt>
      <trkpt lat="39.49296667" lon="-8.43204667">
        <ele>106.0</ele>
        <time>2019-05-17T13:47:19.158Z</time>
      </trkpt>
      <trkpt lat="39.49296667" lon="-8.43204667">
        <ele>106.0</ele>
        <time>2019-05-17T13:47:20.165Z</time>
      </trkpt>
      <trkpt lat="39.49296667" lon="-8.43204667">
        <ele>106.0</ele>
        <time>2019-05-17T13:47:21.164Z</time>
      </trkpt>
      <trkpt lat="39.49296667" lon="-8.43204667">
        <ele>106.0</ele>
        <time>2019-05-17T13:47:22.158Z</time>
      </trkpt>
      <trkpt lat="39.49296667" lon="-8.43203333">
        <ele>109.0</ele>
        <time>2019-05-17T13:47:23.163Z</time>
      </trkpt>
      <trkpt lat="39.49296667" lon="-8.43203333">
        <ele>109.0</ele>
        <time>2019-05-17T13:47:24.158Z</time>
      </trkpt>
      <trkpt lat="39.49297833" lon="-8.43202333">
        <ele>109.0</ele>
        <time>2019-05-17T13:47:25.163Z</time>
      </trkpt>
      <trkpt lat="39.49297833" lon="-8.43202333">
        <ele>109.0</ele>
        <time>2019-05-17T13:47:26.175Z</time>
      </trkpt>
      <trkpt lat="39.492985" lon="-8.432015">
        <ele>109.0</ele>
        <time>2019-05-17T13:47:27.162Z</time>
      </trkpt>
      <trkpt lat="39.49299167" lon="-8.43200833">
        <ele>109.0</ele>
        <time>2019-05-17T13:47:28.163Z</time>
      </trkpt>
      <trkpt lat="39.492995" lon="-8.43200667">
        <ele>110.0</ele>
        <time>2019-05-17T13:47:29.164Z</time>
      </trkpt>
      <trkpt lat="39.492995" lon="-8.43200667">
        <ele>110.0</ele>
        <time>2019-05-17T13:47:30.158Z</time>
      </trkpt>
      <trkpt lat="39.49300833" lon="-8.43200167">
        <ele>110.0</ele>
        <time>2019-05-17T13:47:31.163Z</time>
      </trkpt>
      <trkpt lat="39.49301333" lon="-8.43199833">
        <ele>110.0</ele>
        <time>2019-05-17T13:47:32.165Z</time>
      </trkpt>
      <trkpt lat="39.49301333" lon="-8.43199833">
        <ele>110.0</ele>
        <time>2019-05-17T13:47:33.154Z</time>
      </trkpt>
      <trkpt lat="39.49302333" lon="-8.43199833">
        <ele>111.0</ele>
        <time>2019-05-17T13:47:34.159Z</time>
      </trkpt>
      <trkpt lat="39.49302333" lon="-8.43199833">
        <ele>111.0</ele>
        <time>2019-05-17T13:47:35.156Z</time>
      </trkpt>
      <trkpt lat="39.49303167" lon="-8.43199333">
        <ele>111.0</ele>
        <time>2019-05-17T13:47:36.155Z</time>
      </trkpt>
      <trkpt lat="39.49303167" lon="-8.43199333">
        <ele>111.0</ele>
        <time>2019-05-17T13:47:37.158Z</time>
      </trkpt>
      <trkpt lat="39.49303333" lon="-8.431995">
        <ele>111.0</ele>
        <time>2019-05-17T13:47:38.165Z</time>
      </trkpt>
      <trkpt lat="39.49303333" lon="-8.431995">
        <ele>111.0</ele>
        <time>2019-05-17T13:47:39.172Z</time>
      </trkpt>
      <trkpt lat="39.493035" lon="-8.431995">
        <ele>111.0</ele>
        <time>2019-05-17T13:47:40.178Z</time>
      </trkpt>
      <trkpt lat="39.493035" lon="-8.431995">
        <ele>111.0</ele>
        <time>2019-05-17T13:47:41.184Z</time>
      </trkpt>
      <trkpt lat="39.493035" lon="-8.431995">
        <ele>111.0</ele>
        <time>2019-05-17T13:47:42.163Z</time>
      </trkpt>
      <trkpt lat="39.493035" lon="-8.431995">
        <ele>111.0</ele>
        <time>2019-05-17T13:47:43.168Z</time>
      </trkpt>
      <trkpt lat="39.493055" lon="-8.43198">
        <ele>111.0</ele>
        <time>2019-05-17T13:47:44.165Z</time>
      </trkpt>
      <trkpt lat="39.493055" lon="-8.43198">
        <ele>111.0</ele>
        <time>2019-05-17T13:47:45.158Z</time>
      </trkpt>
      <trkpt lat="39.49306" lon="-8.431975">
        <ele>112.0</ele>
        <time>2019-05-17T13:47:46.164Z</time>
      </trkpt>
      <trkpt lat="39.49306" lon="-8.431975">
        <ele>112.0</ele>
        <time>2019-05-17T13:47:47.158Z</time>
      </trkpt>
      <trkpt lat="39.49306167" lon="-8.43197167">
        <ele>112.0</ele>
        <time>2019-05-17T13:47:48.160Z</time>
      </trkpt>
      <trkpt lat="39.49306167" lon="-8.43197167">
        <ele>112.0</ele>
        <time>2019-05-17T13:47:49.163Z</time>
      </trkpt>
      <trkpt lat="39.49306167" lon="-8.43197167">
        <ele>112.0</ele>
        <time>2019-05-17T13:47:50.161Z</time>
      </trkpt>
      <trkpt lat="39.49306167" lon="-8.43197167">
        <ele>112.0</ele>
        <time>2019-05-17T13:47:51.163Z</time>
      </trkpt>
      <trkpt lat="39.49306167" lon="-8.43197167">
        <ele>112.0</ele>
        <time>2019-05-17T13:47:52.158Z</time>
      </trkpt>
      <trkpt lat="39.49307167" lon="-8.43195">
        <ele>112.0</ele>
        <time>2019-05-17T13:47:53.163Z</time>
      </trkpt>
      <trkpt lat="39.49307167" lon="-8.43195">
        <ele>112.0</ele>
        <time>2019-05-17T13:47:54.171Z</time>
      </trkpt>
      <trkpt lat="39.49307667" lon="-8.431935">
        <ele>113.0</ele>
        <time>2019-05-17T13:47:55.184Z</time>
      </trkpt>
      <trkpt lat="39.49308" lon="-8.43192833">
        <ele>113.0</ele>
        <time>2019-05-17T13:47:56.169Z</time>
      </trkpt>
      <trkpt lat="39.49308" lon="-8.43192833">
        <ele>113.0</ele>
        <time>2019-05-17T13:47:57.175Z</time>
      </trkpt>
      <trkpt lat="39.49308833" lon="-8.431925">
        <ele>113.0</ele>
        <time>2019-05-17T13:47:58.168Z</time>
      </trkpt>
      <trkpt lat="39.49308833" lon="-8.431925">
        <ele>113.0</ele>
        <time>2019-05-17T13:47:59.183Z</time>
      </trkpt>
      <trkpt lat="39.49309167" lon="-8.43192167">
        <ele>113.0</ele>
        <time>2019-05-17T13:48:00.160Z</time>
      </trkpt>
      <trkpt lat="39.49309167" lon="-8.43192167">
        <ele>113.0</ele>
        <time>2019-05-17T13:48:01.158Z</time>
      </trkpt>
      <trkpt lat="39.49309167" lon="-8.43192167">
        <ele>113.0</ele>
        <time>2019-05-17T13:48:02.156Z</time>
      </trkpt>
      <trkpt lat="39.49309167" lon="-8.43192167">
        <ele>113.0</ele>
        <time>2019-05-17T13:48:03.168Z</time>
      </trkpt>
      <trkpt lat="39.49309167" lon="-8.43192167">
        <ele>113.0</ele>
        <time>2019-05-17T13:48:04.175Z</time>
      </trkpt>
      <trkpt lat="39.49309167" lon="-8.43192167">
        <ele>113.0</ele>
        <time>2019-05-17T13:48:05.181Z</time>
      </trkpt>
      <trkpt lat="39.49309167" lon="-8.43192167">
        <ele>113.0</ele>
        <time>2019-05-17T13:48:06.179Z</time>
      </trkpt>
      <trkpt lat="39.49309167" lon="-8.43192167">
        <ele>113.0</ele>
        <time>2019-05-17T13:48:07.164Z</time>
      </trkpt>
      <trkpt lat="39.49309167" lon="-8.43192167">
        <ele>113.0</ele>
        <time>2019-05-17T13:48:08.162Z</time>
      </trkpt>
      <trkpt lat="39.49309167" lon="-8.43192167">
        <ele>113.0</ele>
        <time>2019-05-17T13:48:09.166Z</time>
      </trkpt>
      <trkpt lat="39.49309167" lon="-8.43192167">
        <ele>113.0</ele>
        <time>2019-05-17T13:48:10.162Z</time>
      </trkpt>
      <trkpt lat="39.49309167" lon="-8.43192167">
        <ele>113.0</ele>
        <time>2019-05-17T13:48:11.177Z</time>
      </trkpt>
      <trkpt lat="39.49309167" lon="-8.43192167">
        <ele>113.0</ele>
        <time>2019-05-17T13:48:12.183Z</time>
      </trkpt>
      <trkpt lat="39.49309167" lon="-8.43192167">
        <ele>113.0</ele>
        <time>2019-05-17T13:48:13.163Z</time>
      </trkpt>
      <trkpt lat="39.49309167" lon="-8.43192167">
        <ele>113.0</ele>
        <time>2019-05-17T13:48:14.165Z</time>
      </trkpt>
      <trkpt lat="39.49309167" lon="-8.43192167">
        <ele>113.0</ele>
        <time>2019-05-17T13:48:15.157Z</time>
      </trkpt>
      <trkpt lat="39.49309167" lon="-8.43192167">
        <ele>113.0</ele>
        <time>2019-05-17T13:48:16.160Z</time>
      </trkpt>
      <trkpt lat="39.49309167" lon="-8.43192167">
        <ele>113.0</ele>
        <time>2019-05-17T13:48:17.161Z</time>
      </trkpt>
      <trkpt lat="39.49309167" lon="-8.43192167">
        <ele>113.0</ele>
        <time>2019-05-17T13:48:18.160Z</time>
      </trkpt>
      <trkpt lat="39.49309167" lon="-8.43192167">
        <ele>113.0</ele>
        <time>2019-05-17T13:48:19.154Z</time>
      </trkpt>
      <trkpt lat="39.49309167" lon="-8.43192167">
        <ele>113.0</ele>
        <time>2019-05-17T13:48:20.180Z</time>
      </trkpt>
      <trkpt lat="39.49309167" lon="-8.43192167">
        <ele>113.0</ele>
        <time>2019-05-17T13:48:21.165Z</time>
      </trkpt>
      <trkpt lat="39.49309167" lon="-8.43192167">
        <ele>113.0</ele>
        <time>2019-05-17T13:48:22.160Z</time>
      </trkpt>
      <trkpt lat="39.49309167" lon="-8.43192167">
        <ele>113.0</ele>
        <time>2019-05-17T13:48:23.166Z</time>
      </trkpt>
      <trkpt lat="39.49309167" lon="-8.43192167">
        <ele>113.0</ele>
        <time>2019-05-17T13:48:24.164Z</time>
      </trkpt>
      <trkpt lat="39.49309167" lon="-8.43192167">
        <ele>113.0</ele>
        <time>2019-05-17T13:48:25.163Z</time>
      </trkpt>
      <trkpt lat="39.49309167" lon="-8.43192167">
        <ele>113.0</ele>
        <time>2019-05-17T13:48:26.164Z</time>
      </trkpt>
      <trkpt lat="39.49309167" lon="-8.43192167">
        <ele>113.0</ele>
        <time>2019-05-17T13:48:27.158Z</time>
      </trkpt>
      <trkpt lat="39.49309167" lon="-8.43192167">
        <ele>113.0</ele>
        <time>2019-05-17T13:48:28.164Z</time>
      </trkpt>
      <trkpt lat="39.49314667" lon="-8.43187667">
        <ele>115.0</ele>
        <time>2019-05-17T13:48:29.162Z</time>
      </trkpt>
      <trkpt lat="39.49314667" lon="-8.43187667">
        <ele>115.0</ele>
        <time>2019-05-17T13:48:30.158Z</time>
      </trkpt>
      <trkpt lat="39.49315667" lon="-8.43186333">
        <ele>115.0</ele>
        <time>2019-05-17T13:48:31.176Z</time>
      </trkpt>
      <trkpt lat="39.49316" lon="-8.43186">
        <ele>116.0</ele>
        <time>2019-05-17T13:48:32.174Z</time>
      </trkpt>
      <trkpt lat="39.49316" lon="-8.43186">
        <ele>116.0</ele>
        <time>2019-05-17T13:48:33.169Z</time>
      </trkpt>
      <trkpt lat="39.493165" lon="-8.43185">
        <ele>116.0</ele>
        <time>2019-05-17T13:48:34.160Z</time>
      </trkpt>
      <trkpt lat="39.493165" lon="-8.43185">
        <ele>116.0</ele>
        <time>2019-05-17T13:48:35.174Z</time>
      </trkpt>
      <trkpt lat="39.49316" lon="-8.431845">
        <ele>116.0</ele>
        <time>2019-05-17T13:48:36.174Z</time>
      </trkpt>
      <trkpt lat="39.49316" lon="-8.431845">
        <ele>116.0</ele>
        <time>2019-05-17T13:48:37.151Z</time>
      </trkpt>
      <trkpt lat="39.49316167" lon="-8.43184333">
        <ele>116.0</ele>
        <time>2019-05-17T13:48:38.170Z</time>
      </trkpt>
      <trkpt lat="39.49316167" lon="-8.43184333">
        <ele>116.0</ele>
        <time>2019-05-17T13:48:39.150Z</time>
      </trkpt>
      <trkpt lat="39.49316167" lon="-8.43184333">
        <ele>116.0</ele>
        <time>2019-05-17T13:48:40.183Z</time>
      </trkpt>
      <trkpt lat="39.49316167" lon="-8.43184333">
        <ele>116.0</ele>
        <time>2019-05-17T13:48:41.168Z</time>
      </trkpt>
      <trkpt lat="39.49316167" lon="-8.43184333">
        <ele>116.0</ele>
        <time>2019-05-17T13:48:42.174Z</time>
      </trkpt>
      <trkpt lat="39.49316167" lon="-8.43184333">
        <ele>116.0</ele>
        <time>2019-05-17T13:48:43.180Z</time>
      </trkpt>
      <trkpt lat="39.49316167" lon="-8.43184333">
        <ele>116.0</ele>
        <time>2019-05-17T13:48:44.186Z</time>
      </trkpt>
      <trkpt lat="39.49316167" lon="-8.43184333">
        <ele>116.0</ele>
        <time>2019-05-17T13:48:45.157Z</time>
      </trkpt>
      <trkpt lat="39.49316167" lon="-8.43184333">
        <ele>116.0</ele>
        <time>2019-05-17T13:48:46.164Z</time>
      </trkpt>
      <trkpt lat="39.49316167" lon="-8.43184333">
        <ele>116.0</ele>
        <time>2019-05-17T13:48:47.161Z</time>
      </trkpt>
      <trkpt lat="39.49316167" lon="-8.43184333">
        <ele>116.0</ele>
        <time>2019-05-17T13:48:48.163Z</time>
      </trkpt>
      <trkpt lat="39.49316167" lon="-8.43184333">
        <ele>116.0</ele>
        <time>2019-05-17T13:48:49.158Z</time>
      </trkpt>
      <trkpt lat="39.49316167" lon="-8.43184333">
        <ele>116.0</ele>
        <time>2019-05-17T13:48:50.172Z</time>
      </trkpt>
      <trkpt lat="39.49316167" lon="-8.43184333">
        <ele>116.0</ele>
        <time>2019-05-17T13:48:51.160Z</time>
      </trkpt>
      <trkpt lat="39.49316167" lon="-8.43181833">
        <ele>117.0</ele>
        <time>2019-05-17T13:48:52.164Z</time>
      </trkpt>
      <trkpt lat="39.49316167" lon="-8.43181833">
        <ele>117.0</ele>
        <time>2019-05-17T13:48:53.158Z</time>
      </trkpt>
      <trkpt lat="39.49316667" lon="-8.43181">
        <ele>117.0</ele>
        <time>2019-05-17T13:48:54.162Z</time>
      </trkpt>
      <trkpt lat="39.49316667" lon="-8.43181">
        <ele>117.0</ele>
        <time>2019-05-17T13:48:55.157Z</time>
      </trkpt>
      <trkpt lat="39.49317" lon="-8.431815">
        <ele>117.0</ele>
        <time>2019-05-17T13:48:56.162Z</time>
      </trkpt>
      <trkpt lat="39.49317" lon="-8.431815">
        <ele>117.0</ele>
        <time>2019-05-17T13:48:57.153Z</time>
      </trkpt>
      <trkpt lat="39.49318333" lon="-8.43181667">
        <ele>117.0</ele>
        <time>2019-05-17T13:48:58.178Z</time>
      </trkpt>
      <trkpt lat="39.49318833" lon="-8.43181833">
        <ele>117.0</ele>
        <time>2019-05-17T13:48:59.164Z</time>
      </trkpt>
      <trkpt lat="39.49319167" lon="-8.43181667">
        <ele>117.0</ele>
        <time>2019-05-17T13:49:00.163Z</time>
      </trkpt>
      <trkpt lat="39.49319167" lon="-8.43181667">
        <ele>117.0</ele>
        <time>2019-05-17T13:49:01.157Z</time>
      </trkpt>
      <trkpt lat="39.49319833" lon="-8.43181167">
        <ele>117.0</ele>
        <time>2019-05-17T13:49:02.155Z</time>
      </trkpt>
      <trkpt lat="39.49319833" lon="-8.43181167">
        <ele>117.0</ele>
        <time>2019-05-17T13:49:03.168Z</time>
      </trkpt>
      <trkpt lat="39.49320667" lon="-8.43180333">
        <ele>117.0</ele>
        <time>2019-05-17T13:49:04.175Z</time>
      </trkpt>
      <trkpt lat="39.49321167" lon="-8.43179833">
        <ele>117.0</ele>
        <time>2019-05-17T13:49:05.180Z</time>
      </trkpt>
      <trkpt lat="39.49321167" lon="-8.43179833">
        <ele>117.0</ele>
        <time>2019-05-17T13:49:06.161Z</time>
      </trkpt>
      <trkpt lat="39.49321833" lon="-8.43179">
        <ele>117.0</ele>
        <time>2019-05-17T13:49:07.168Z</time>
      </trkpt>
      <trkpt lat="39.49322" lon="-8.43178833">
        <ele>117.0</ele>
        <time>2019-05-17T13:49:08.169Z</time>
      </trkpt>
      <trkpt lat="39.49322" lon="-8.43178833">
        <ele>117.0</ele>
        <time>2019-05-17T13:49:09.189Z</time>
      </trkpt>
      <trkpt lat="39.49322" lon="-8.43178667">
        <ele>117.0</ele>
        <time>2019-05-17T13:49:10.179Z</time>
      </trkpt>
      <trkpt lat="39.49322" lon="-8.43178667">
        <ele>117.0</ele>
        <time>2019-05-17T13:49:11.164Z</time>
      </trkpt>
      <trkpt lat="39.49322" lon="-8.43178667">
        <ele>117.0</ele>
        <time>2019-05-17T13:49:12.169Z</time>
      </trkpt>
      <trkpt lat="39.49322833" lon="-8.43176833">
        <ele>117.0</ele>
        <time>2019-05-17T13:49:13.188Z</time>
      </trkpt>
      <trkpt lat="39.493235" lon="-8.43176333">
        <ele>118.0</ele>
        <time>2019-05-17T13:49:14.163Z</time>
      </trkpt>
      <trkpt lat="39.493235" lon="-8.43176333">
        <ele>118.0</ele>
        <time>2019-05-17T13:49:15.183Z</time>
      </trkpt>
      <trkpt lat="39.49324167" lon="-8.43175333">
        <ele>118.0</ele>
        <time>2019-05-17T13:49:16.194Z</time>
      </trkpt>
      <trkpt lat="39.49324667" lon="-8.431745">
        <ele>118.0</ele>
        <time>2019-05-17T13:49:17.168Z</time>
      </trkpt>
      <trkpt lat="39.49324667" lon="-8.431745">
        <ele>118.0</ele>
        <time>2019-05-17T13:49:18.173Z</time>
      </trkpt>
      <trkpt lat="39.49325833" lon="-8.43172833">
        <ele>118.0</ele>
        <time>2019-05-17T13:49:19.185Z</time>
      </trkpt>
      <trkpt lat="39.49326333" lon="-8.43172">
        <ele>118.0</ele>
        <time>2019-05-17T13:49:20.168Z</time>
      </trkpt>
      <trkpt lat="39.49326333" lon="-8.43172">
        <ele>118.0</ele>
        <time>2019-05-17T13:49:21.172Z</time>
      </trkpt>
      <trkpt lat="39.49327833" lon="-8.43169833">
        <ele>118.0</ele>
        <time>2019-05-17T13:49:22.178Z</time>
      </trkpt>
      <trkpt lat="39.49327833" lon="-8.43169833">
        <ele>118.0</ele>
        <time>2019-05-17T13:49:23.183Z</time>
      </trkpt>
      <trkpt lat="39.493295" lon="-8.43167667">
        <ele>119.0</ele>
        <time>2019-05-17T13:49:24.155Z</time>
      </trkpt>
      <trkpt lat="39.493295" lon="-8.43167667">
        <ele>119.0</ele>
        <time>2019-05-17T13:49:25.179Z</time>
      </trkpt>
      <trkpt lat="39.49331" lon="-8.43164167">
        <ele>119.0</ele>
        <time>2019-05-17T13:49:26.174Z</time>
      </trkpt>
      <trkpt lat="39.49331" lon="-8.43164167">
        <ele>119.0</ele>
        <time>2019-05-17T13:49:27.156Z</time>
      </trkpt>
      <trkpt lat="39.49332667" lon="-8.43161833">
        <ele>119.0</ele>
        <time>2019-05-17T13:49:28.155Z</time>
      </trkpt>
      <trkpt lat="39.49332667" lon="-8.43161833">
        <ele>119.0</ele>
        <time>2019-05-17T13:49:29.162Z</time>
      </trkpt>
      <trkpt lat="39.49334333" lon="-8.43159333">
        <ele>119.0</ele>
        <time>2019-05-17T13:49:30.160Z</time>
      </trkpt>
      <trkpt lat="39.49334333" lon="-8.43159333">
        <ele>119.0</ele>
        <time>2019-05-17T13:49:31.157Z</time>
      </trkpt>
      <trkpt lat="39.49336167" lon="-8.43157">
        <ele>120.0</ele>
        <time>2019-05-17T13:49:32.155Z</time>
      </trkpt>
      <trkpt lat="39.49336167" lon="-8.43157">
        <ele>120.0</ele>
        <time>2019-05-17T13:49:33.169Z</time>
      </trkpt>
      <trkpt lat="39.493365" lon="-8.43156167">
        <ele>120.0</ele>
        <time>2019-05-17T13:49:34.156Z</time>
      </trkpt>
      <trkpt lat="39.493365" lon="-8.43156167">
        <ele>120.0</ele>
        <time>2019-05-17T13:49:35.170Z</time>
      </trkpt>
      <trkpt lat="39.49336667" lon="-8.43156333">
        <ele>121.0</ele>
        <time>2019-05-17T13:49:36.165Z</time>
      </trkpt>
      <trkpt lat="39.49336667" lon="-8.43156333">
        <ele>121.0</ele>
        <time>2019-05-17T13:49:37.179Z</time>
      </trkpt>
      <trkpt lat="39.493365" lon="-8.43154667">
        <ele>121.0</ele>
        <time>2019-05-17T13:49:38.185Z</time>
      </trkpt>
      <trkpt lat="39.493365" lon="-8.43154667">
        <ele>121.0</ele>
        <time>2019-05-17T13:49:39.151Z</time>
      </trkpt>
      <trkpt lat="39.493365" lon="-8.43153833">
        <ele>121.0</ele>
        <time>2019-05-17T13:49:40.150Z</time>
      </trkpt>
      <trkpt lat="39.493365" lon="-8.43153833">
        <ele>121.0</ele>
        <time>2019-05-17T13:49:41.164Z</time>
      </trkpt>
      <trkpt lat="39.49336667" lon="-8.43154167">
        <ele>121.0</ele>
        <time>2019-05-17T13:49:42.175Z</time>
      </trkpt>
      <trkpt lat="39.49336667" lon="-8.43154167">
        <ele>121.0</ele>
        <time>2019-05-17T13:49:43.153Z</time>
      </trkpt>
      <trkpt lat="39.49336667" lon="-8.43154167">
        <ele>121.0</ele>
        <time>2019-05-17T13:49:44.160Z</time>
      </trkpt>
      <trkpt lat="39.49336667" lon="-8.43154167">
        <ele>121.0</ele>
        <time>2019-05-17T13:49:45.166Z</time>
      </trkpt>
      <trkpt lat="39.49336667" lon="-8.43154167">
        <ele>121.0</ele>
        <time>2019-05-17T13:49:46.171Z</time>
      </trkpt>
      <trkpt lat="39.49336667" lon="-8.43154167">
        <ele>121.0</ele>
        <time>2019-05-17T13:49:47.164Z</time>
      </trkpt>
      <trkpt lat="39.49336667" lon="-8.43154167">
        <ele>121.0</ele>
        <time>2019-05-17T13:49:48.159Z</time>
      </trkpt>
      <trkpt lat="39.49336667" lon="-8.43154167">
        <ele>121.0</ele>
        <time>2019-05-17T13:49:49.165Z</time>
      </trkpt>
      <trkpt lat="39.49336667" lon="-8.43154167">
        <ele>121.0</ele>
        <time>2019-05-17T13:49:50.166Z</time>
      </trkpt>
      <trkpt lat="39.49336667" lon="-8.43154167">
        <ele>121.0</ele>
        <time>2019-05-17T13:49:51.158Z</time>
      </trkpt>
      <trkpt lat="39.49336667" lon="-8.43154167">
        <ele>121.0</ele>
        <time>2019-05-17T13:49:52.163Z</time>
      </trkpt>
      <trkpt lat="39.49336667" lon="-8.43154167">
        <ele>121.0</ele>
        <time>2019-05-17T13:49:53.158Z</time>
      </trkpt>
      <trkpt lat="39.49336667" lon="-8.43154167">
        <ele>121.0</ele>
        <time>2019-05-17T13:49:54.162Z</time>
      </trkpt>
      <trkpt lat="39.49336667" lon="-8.43154167">
        <ele>121.0</ele>
        <time>2019-05-17T13:49:55.162Z</time>
      </trkpt>
      <trkpt lat="39.49336667" lon="-8.43154167">
        <ele>121.0</ele>
        <time>2019-05-17T13:49:56.166Z</time>
      </trkpt>
      <trkpt lat="39.49336667" lon="-8.43154167">
        <ele>121.0</ele>
        <time>2019-05-17T13:49:57.157Z</time>
      </trkpt>
      <trkpt lat="39.49336667" lon="-8.43154167">
        <ele>121.0</ele>
        <time>2019-05-17T13:49:58.182Z</time>
      </trkpt>
      <trkpt lat="39.49336667" lon="-8.43154167">
        <ele>121.0</ele>
        <time>2019-05-17T13:49:59.167Z</time>
      </trkpt>
      <trkpt lat="39.49336667" lon="-8.43154167">
        <ele>121.0</ele>
        <time>2019-05-17T13:50:00.158Z</time>
      </trkpt>
      <trkpt lat="39.49336667" lon="-8.43154167">
        <ele>121.0</ele>
        <time>2019-05-17T13:50:01.161Z</time>
      </trkpt>
      <trkpt lat="39.49336667" lon="-8.43154167">
        <ele>121.0</ele>
        <time>2019-05-17T13:50:02.165Z</time>
      </trkpt>
      <trkpt lat="39.49336667" lon="-8.43154167">
        <ele>121.0</ele>
        <time>2019-05-17T13:50:03.158Z</time>
      </trkpt>
      <trkpt lat="39.49336667" lon="-8.43154167">
        <ele>121.0</ele>
        <time>2019-05-17T13:50:04.163Z</time>
      </trkpt>
      <trkpt lat="39.49336667" lon="-8.43154167">
        <ele>121.0</ele>
        <time>2019-05-17T13:50:05.158Z</time>
      </trkpt>
      <trkpt lat="39.49336667" lon="-8.43154167">
        <ele>121.0</ele>
        <time>2019-05-17T13:50:06.162Z</time>
      </trkpt>
      <trkpt lat="39.49336667" lon="-8.43154167">
        <ele>121.0</ele>
        <time>2019-05-17T13:50:07.158Z</time>
      </trkpt>
      <trkpt lat="39.49336667" lon="-8.43154167">
        <ele>121.0</ele>
        <time>2019-05-17T13:50:08.180Z</time>
      </trkpt>
      <trkpt lat="39.49336667" lon="-8.43154167">
        <ele>121.0</ele>
        <time>2019-05-17T13:50:09.177Z</time>
      </trkpt>
      <trkpt lat="39.49336667" lon="-8.43154167">
        <ele>121.0</ele>
        <time>2019-05-17T13:50:10.158Z</time>
      </trkpt>
      <trkpt lat="39.49336667" lon="-8.43154167">
        <ele>121.0</ele>
        <time>2019-05-17T13:50:11.164Z</time>
      </trkpt>
      <trkpt lat="39.49336667" lon="-8.43154167">
        <ele>121.0</ele>
        <time>2019-05-17T13:50:12.170Z</time>
      </trkpt>
      <trkpt lat="39.49336667" lon="-8.43154167">
        <ele>121.0</ele>
        <time>2019-05-17T13:50:13.160Z</time>
      </trkpt>
      <trkpt lat="39.49336667" lon="-8.43154167">
        <ele>121.0</ele>
        <time>2019-05-17T13:50:14.162Z</time>
      </trkpt>
      <trkpt lat="39.49336667" lon="-8.43154167">
        <ele>121.0</ele>
        <time>2019-05-17T13:50:15.171Z</time>
      </trkpt>
      <trkpt lat="39.49336667" lon="-8.43154167">
        <ele>121.0</ele>
        <time>2019-05-17T13:50:16.163Z</time>
      </trkpt>
      <trkpt lat="39.49336667" lon="-8.43154167">
        <ele>121.0</ele>
        <time>2019-05-17T13:50:17.154Z</time>
      </trkpt>
      <trkpt lat="39.49336667" lon="-8.43154167">
        <ele>121.0</ele>
        <time>2019-05-17T13:50:18.159Z</time>
      </trkpt>
      <trkpt lat="39.49336667" lon="-8.43154167">
        <ele>121.0</ele>
        <time>2019-05-17T13:50:19.162Z</time>
      </trkpt>
      <trkpt lat="39.49336667" lon="-8.43154167">
        <ele>121.0</ele>
        <time>2019-05-17T13:50:20.164Z</time>
      </trkpt>
      <trkpt lat="39.49336667" lon="-8.43154167">
        <ele>121.0</ele>
        <time>2019-05-17T13:50:21.158Z</time>
      </trkpt>
      <trkpt lat="39.49336667" lon="-8.43154167">
        <ele>121.0</ele>
        <time>2019-05-17T13:50:22.163Z</time>
      </trkpt>
      <trkpt lat="39.49336667" lon="-8.43154167">
        <ele>121.0</ele>
        <time>2019-05-17T13:50:23.158Z</time>
      </trkpt>
      <trkpt lat="39.49336667" lon="-8.43154167">
        <ele>121.0</ele>
        <time>2019-05-17T13:50:24.164Z</time>
      </trkpt>
      <trkpt lat="39.49336667" lon="-8.43154167">
        <ele>121.0</ele>
        <time>2019-05-17T13:50:25.157Z</time>
      </trkpt>
      <trkpt lat="39.49336667" lon="-8.43154167">
        <ele>121.0</ele>
        <time>2019-05-17T13:50:26.165Z</time>
      </trkpt>
      <trkpt lat="39.49336667" lon="-8.43154167">
        <ele>121.0</ele>
        <time>2019-05-17T13:50:27.157Z</time>
      </trkpt>
      <trkpt lat="39.49336667" lon="-8.43154167">
        <ele>121.0</ele>
        <time>2019-05-17T13:50:28.154Z</time>
      </trkpt>
      <trkpt lat="39.49336667" lon="-8.43154167">
        <ele>121.0</ele>
        <time>2019-05-17T13:50:29.179Z</time>
      </trkpt>
      <trkpt lat="39.49336667" lon="-8.43154167">
        <ele>121.0</ele>
        <time>2019-05-17T13:50:30.165Z</time>
      </trkpt>
      <trkpt lat="39.49336667" lon="-8.43154167">
        <ele>121.0</ele>
        <time>2019-05-17T13:50:31.158Z</time>
      </trkpt>
      <trkpt lat="39.49336667" lon="-8.43154167">
        <ele>121.0</ele>
        <time>2019-05-17T13:50:32.164Z</time>
      </trkpt>
      <trkpt lat="39.49336667" lon="-8.43154167">
        <ele>121.0</ele>
        <time>2019-05-17T13:50:33.173Z</time>
      </trkpt>
      <trkpt lat="39.49336667" lon="-8.43154167">
        <ele>121.0</ele>
        <time>2019-05-17T13:50:34.163Z</time>
      </trkpt>
      <trkpt lat="39.49336667" lon="-8.43154167">
        <ele>121.0</ele>
        <time>2019-05-17T13:50:35.157Z</time>
      </trkpt>
      <trkpt lat="39.49336667" lon="-8.43154167">
        <ele>121.0</ele>
        <time>2019-05-17T13:50:36.163Z</time>
      </trkpt>
      <trkpt lat="39.49336667" lon="-8.43154167">
        <ele>121.0</ele>
        <time>2019-05-17T13:50:37.158Z</time>
      </trkpt>
      <trkpt lat="39.49336667" lon="-8.43154167">
        <ele>121.0</ele>
        <time>2019-05-17T13:50:38.184Z</time>
      </trkpt>
      <trkpt lat="39.49336667" lon="-8.43154167">
        <ele>121.0</ele>
        <time>2019-05-17T13:50:39.176Z</time>
      </trkpt>
      <trkpt lat="39.49336667" lon="-8.43154167">
        <ele>121.0</ele>
        <time>2019-05-17T13:50:40.163Z</time>
      </trkpt>
      <trkpt lat="39.49336667" lon="-8.43154167">
        <ele>121.0</ele>
        <time>2019-05-17T13:50:41.157Z</time>
      </trkpt>
      <trkpt lat="39.49336667" lon="-8.43154167">
        <ele>121.0</ele>
        <time>2019-05-17T13:50:42.163Z</time>
      </trkpt>
      <trkpt lat="39.49336667" lon="-8.43154167">
        <ele>121.0</ele>
        <time>2019-05-17T13:50:43.162Z</time>
      </trkpt>
      <trkpt lat="39.49336667" lon="-8.43154167">
        <ele>121.0</ele>
        <time>2019-05-17T13:50:44.160Z</time>
      </trkpt>
      <trkpt lat="39.49336667" lon="-8.43154167">
        <ele>121.0</ele>
        <time>2019-05-17T13:50:45.161Z</time>
      </trkpt>
      <trkpt lat="39.49336667" lon="-8.43154167">
        <ele>121.0</ele>
        <time>2019-05-17T13:50:46.163Z</time>
      </trkpt>
      <trkpt lat="39.49336667" lon="-8.43154167">
        <ele>121.0</ele>
        <time>2019-05-17T13:50:47.162Z</time>
      </trkpt>
      <trkpt lat="39.49336667" lon="-8.43154167">
        <ele>121.0</ele>
        <time>2019-05-17T13:50:48.155Z</time>
      </trkpt>
      <trkpt lat="39.49336667" lon="-8.43154167">
        <ele>121.0</ele>
        <time>2019-05-17T13:50:49.182Z</time>
      </trkpt>
      <trkpt lat="39.49336667" lon="-8.43154167">
        <ele>121.0</ele>
        <time>2019-05-17T13:50:50.169Z</time>
      </trkpt>
      <trkpt lat="39.49336667" lon="-8.43154167">
        <ele>121.0</ele>
        <time>2019-05-17T13:50:51.158Z</time>
      </trkpt>
      <trkpt lat="39.49336667" lon="-8.43154167">
        <ele>121.0</ele>
        <time>2019-05-17T13:50:52.164Z</time>
      </trkpt>
      <trkpt lat="39.49336667" lon="-8.43154167">
        <ele>121.0</ele>
        <time>2019-05-17T13:50:53.158Z</time>
      </trkpt>
      <trkpt lat="39.49336667" lon="-8.43154167">
        <ele>121.0</ele>
        <time>2019-05-17T13:50:54.174Z</time>
      </trkpt>
      <trkpt lat="39.49336667" lon="-8.43154167">
        <ele>121.0</ele>
        <time>2019-05-17T13:50:55.167Z</time>
      </trkpt>
      <trkpt lat="39.49336667" lon="-8.43154167">
        <ele>121.0</ele>
        <time>2019-05-17T13:50:56.164Z</time>
      </trkpt>
      <trkpt lat="39.49336667" lon="-8.43154167">
        <ele>121.0</ele>
        <time>2019-05-17T13:50:57.157Z</time>
      </trkpt>
      <trkpt lat="39.49336667" lon="-8.43154167">
        <ele>121.0</ele>
        <time>2019-05-17T13:50:58.183Z</time>
      </trkpt>
      <trkpt lat="39.49336667" lon="-8.43154167">
        <ele>121.0</ele>
        <time>2019-05-17T13:50:59.169Z</time>
      </trkpt>
      <trkpt lat="39.49336667" lon="-8.43154167">
        <ele>121.0</ele>
        <time>2019-05-17T13:51:00.158Z</time>
      </trkpt>
      <trkpt lat="39.49336667" lon="-8.43154167">
        <ele>121.0</ele>
        <time>2019-05-17T13:51:01.159Z</time>
      </trkpt>
      <trkpt lat="39.49336667" lon="-8.43154167">
        <ele>121.0</ele>
        <time>2019-05-17T13:51:02.165Z</time>
      </trkpt>
      <trkpt lat="39.49336667" lon="-8.43154167">
        <ele>121.0</ele>
        <time>2019-05-17T13:51:03.158Z</time>
      </trkpt>
      <trkpt lat="39.49336667" lon="-8.43154167">
        <ele>121.0</ele>
        <time>2019-05-17T13:51:04.162Z</time>
      </trkpt>
      <trkpt lat="39.49336667" lon="-8.43154167">
        <ele>121.0</ele>
        <time>2019-05-17T13:51:05.157Z</time>
      </trkpt>
      <trkpt lat="39.49336667" lon="-8.43154167">
        <ele>121.0</ele>
        <time>2019-05-17T13:51:06.162Z</time>
      </trkpt>
      <trkpt lat="39.49336667" lon="-8.43154167">
        <ele>121.0</ele>
        <time>2019-05-17T13:51:07.158Z</time>
      </trkpt>
      <trkpt lat="39.49336667" lon="-8.43154167">
        <ele>121.0</ele>
        <time>2019-05-17T13:51:08.162Z</time>
      </trkpt>
      <trkpt lat="39.49336667" lon="-8.43154167">
        <ele>121.0</ele>
        <time>2019-05-17T13:51:09.167Z</time>
      </trkpt>
      <trkpt lat="39.49336667" lon="-8.43154167">
        <ele>121.0</ele>
        <time>2019-05-17T13:51:10.154Z</time>
      </trkpt>
      <trkpt lat="39.49336667" lon="-8.43154167">
        <ele>121.0</ele>
        <time>2019-05-17T13:51:11.160Z</time>
      </trkpt>
      <trkpt lat="39.49336667" lon="-8.43154167">
        <ele>121.0</ele>
        <time>2019-05-17T13:51:12.166Z</time>
      </trkpt>
      <trkpt lat="39.49336667" lon="-8.43154167">
        <ele>121.0</ele>
        <time>2019-05-17T13:51:13.163Z</time>
      </trkpt>
      <trkpt lat="39.49336667" lon="-8.43154167">
        <ele>121.0</ele>
        <time>2019-05-17T13:51:14.163Z</time>
      </trkpt>
      <trkpt lat="39.49336667" lon="-8.43154167">
        <ele>121.0</ele>
        <time>2019-05-17T13:51:15.163Z</time>
      </trkpt>
      <trkpt lat="39.49336667" lon="-8.43154167">
        <ele>121.0</ele>
        <time>2019-05-17T13:51:16.155Z</time>
      </trkpt>
      <trkpt lat="39.49336667" lon="-8.43154167">
        <ele>121.0</ele>
        <time>2019-05-17T13:51:17.160Z</time>
      </trkpt>
      <trkpt lat="39.49336667" lon="-8.43154167">
        <ele>121.0</ele>
        <time>2019-05-17T13:51:18.161Z</time>
      </trkpt>
      <trkpt lat="39.49336667" lon="-8.43154167">
        <ele>121.0</ele>
        <time>2019-05-17T13:51:19.182Z</time>
      </trkpt>
      <trkpt lat="39.49336667" lon="-8.43154167">
        <ele>121.0</ele>
        <time>2019-05-17T13:51:20.169Z</time>
      </trkpt>
      <trkpt lat="39.49336667" lon="-8.43154167">
        <ele>121.0</ele>
        <time>2019-05-17T13:51:21.158Z</time>
      </trkpt>
      <trkpt lat="39.49336667" lon="-8.43154167">
        <ele>121.0</ele>
        <time>2019-05-17T13:51:22.163Z</time>
      </trkpt>
      <trkpt lat="39.49336667" lon="-8.43154167">
        <ele>121.0</ele>
        <time>2019-05-17T13:51:23.158Z</time>
      </trkpt>
      <trkpt lat="39.49336667" lon="-8.43154167">
        <ele>121.0</ele>
        <time>2019-05-17T13:51:24.163Z</time>
      </trkpt>
      <trkpt lat="39.49336667" lon="-8.43154167">
        <ele>121.0</ele>
        <time>2019-05-17T13:51:25.158Z</time>
      </trkpt>
      <trkpt lat="39.49336667" lon="-8.43154167">
        <ele>121.0</ele>
        <time>2019-05-17T13:51:26.165Z</time>
      </trkpt>
      <trkpt lat="39.49336667" lon="-8.43154167">
        <ele>121.0</ele>
        <time>2019-05-17T13:51:27.158Z</time>
      </trkpt>
      <trkpt lat="39.49337167" lon="-8.431565">
        <ele>123.0</ele>
        <time>2019-05-17T13:51:28.159Z</time>
      </trkpt>
      <trkpt lat="39.49338" lon="-8.43156167">
        <ele>123.0</ele>
        <time>2019-05-17T13:51:29.163Z</time>
      </trkpt>
      <trkpt lat="39.49338" lon="-8.43156167">
        <ele>123.0</ele>
        <time>2019-05-17T13:51:30.157Z</time>
      </trkpt>
      <trkpt lat="39.49339333" lon="-8.43155667">
        <ele>123.0</ele>
        <time>2019-05-17T13:51:31.163Z</time>
      </trkpt>
      <trkpt lat="39.493395" lon="-8.43155667">
        <ele>123.0</ele>
        <time>2019-05-17T13:51:32.162Z</time>
      </trkpt>
      <trkpt lat="39.493395" lon="-8.43155667">
        <ele>123.0</ele>
        <time>2019-05-17T13:51:33.172Z</time>
      </trkpt>
      <trkpt lat="39.493395" lon="-8.43155667">
        <ele>123.0</ele>
        <time>2019-05-17T13:51:34.162Z</time>
      </trkpt>
      <trkpt lat="39.493395" lon="-8.43155667">
        <ele>123.0</ele>
        <time>2019-05-17T13:51:35.168Z</time>
      </trkpt>
      <trkpt lat="39.493395" lon="-8.43155667">
        <ele>123.0</ele>
        <time>2019-05-17T13:51:36.173Z</time>
      </trkpt>
      <trkpt lat="39.493395" lon="-8.43155667">
        <ele>123.0</ele>
        <time>2019-05-17T13:51:37.179Z</time>
      </trkpt>
      <trkpt lat="39.493395" lon="-8.43155667">
        <ele>123.0</ele>
        <time>2019-05-17T13:51:38.162Z</time>
      </trkpt>
      <trkpt lat="39.493395" lon="-8.43155667">
        <ele>123.0</ele>
        <time>2019-05-17T13:51:39.158Z</time>
      </trkpt>
      <trkpt lat="39.493425" lon="-8.43154">
        <ele>123.0</ele>
        <time>2019-05-17T13:51:40.163Z</time>
      </trkpt>
      <trkpt lat="39.493425" lon="-8.43154">
        <ele>123.0</ele>
        <time>2019-05-17T13:51:41.158Z</time>
      </trkpt>
      <trkpt lat="39.49344833" lon="-8.43150833">
        <ele>123.0</ele>
        <time>2019-05-17T13:51:42.150Z</time>
      </trkpt>
      <trkpt lat="39.49344833" lon="-8.43150833">
        <ele>123.0</ele>
        <time>2019-05-17T13:51:43.158Z</time>
      </trkpt>
      <trkpt lat="39.49347333" lon="-8.43146833">
        <ele>123.0</ele>
        <time>2019-05-17T13:51:44.158Z</time>
      </trkpt>
      <trkpt lat="39.49347333" lon="-8.43146833">
        <ele>123.0</ele>
        <time>2019-05-17T13:51:45.176Z</time>
      </trkpt>
      <trkpt lat="39.49349833" lon="-8.431435">
        <ele>123.0</ele>
        <time>2019-05-17T13:51:46.175Z</time>
      </trkpt>
      <trkpt lat="39.49351" lon="-8.43141667">
        <ele>124.0</ele>
        <time>2019-05-17T13:51:47.189Z</time>
      </trkpt>
      <trkpt lat="39.49351" lon="-8.43141667">
        <ele>124.0</ele>
        <time>2019-05-17T13:51:48.155Z</time>
      </trkpt>
      <trkpt lat="39.493535" lon="-8.431385">
        <ele>124.0</ele>
        <time>2019-05-17T13:51:49.189Z</time>
      </trkpt>
      <trkpt lat="39.493545" lon="-8.43137">
        <ele>124.0</ele>
        <time>2019-05-17T13:51:50.158Z</time>
      </trkpt>
      <trkpt lat="39.493545" lon="-8.43137">
        <ele>124.0</ele>
        <time>2019-05-17T13:51:51.163Z</time>
      </trkpt>
      <trkpt lat="39.49356667" lon="-8.43133833">
        <ele>123.0</ele>
        <time>2019-05-17T13:51:52.161Z</time>
      </trkpt>
      <trkpt lat="39.49356667" lon="-8.43133833">
        <ele>123.0</ele>
        <time>2019-05-17T13:51:53.169Z</time>
      </trkpt>
      <trkpt lat="39.49359333" lon="-8.431305">
        <ele>123.0</ele>
        <time>2019-05-17T13:51:54.160Z</time>
      </trkpt>
      <trkpt lat="39.49359333" lon="-8.431305">
        <ele>123.0</ele>
        <time>2019-05-17T13:51:55.159Z</time>
      </trkpt>
      <trkpt lat="39.49363833" lon="-8.431265">
        <ele>123.0</ele>
        <time>2019-05-17T13:51:56.165Z</time>
      </trkpt>
      <trkpt lat="39.49363833" lon="-8.431265">
        <ele>123.0</ele>
        <time>2019-05-17T13:51:57.170Z</time>
      </trkpt>
      <trkpt lat="39.4937" lon="-8.4312">
        <ele>122.0</ele>
        <time>2019-05-17T13:51:58.165Z</time>
      </trkpt>
      <trkpt lat="39.49374167" lon="-8.431155">
        <ele>122.0</ele>
        <time>2019-05-17T13:51:59.156Z</time>
      </trkpt>
      <trkpt lat="39.49374167" lon="-8.431155">
        <ele>122.0</ele>
        <time>2019-05-17T13:52:00.186Z</time>
      </trkpt>
      <trkpt lat="39.49386" lon="-8.43105333">
        <ele>121.0</ele>
        <time>2019-05-17T13:52:01.172Z</time>
      </trkpt>
      <trkpt lat="39.49392333" lon="-8.43099833">
        <ele>121.0</ele>
        <time>2019-05-17T13:52:02.169Z</time>
      </trkpt>
      <trkpt lat="39.49392333" lon="-8.43099833">
        <ele>121.0</ele>
        <time>2019-05-17T13:52:03.159Z</time>
      </trkpt>
      <trkpt lat="39.49402333" lon="-8.43091167">
        <ele>121.0</ele>
        <time>2019-05-17T13:52:04.155Z</time>
      </trkpt>
      <trkpt lat="39.49406167" lon="-8.43087667">
        <ele>121.0</ele>
        <time>2019-05-17T13:52:05.188Z</time>
      </trkpt>
      <trkpt lat="39.49406167" lon="-8.43087667">
        <ele>121.0</ele>
        <time>2019-05-17T13:52:06.170Z</time>
      </trkpt>
      <trkpt lat="39.4941" lon="-8.43083833">
        <ele>121.0</ele>
        <time>2019-05-17T13:52:07.168Z</time>
      </trkpt>
      <trkpt lat="39.49411833" lon="-8.43082667">
        <ele>121.0</ele>
        <time>2019-05-17T13:52:08.151Z</time>
      </trkpt>
      <trkpt lat="39.49411833" lon="-8.43082667">
        <ele>121.0</ele>
        <time>2019-05-17T13:52:09.155Z</time>
      </trkpt>
      <trkpt lat="39.494145" lon="-8.43080167">
        <ele>121.0</ele>
        <time>2019-05-17T13:52:10.157Z</time>
      </trkpt>
      <trkpt lat="39.49417" lon="-8.43078833">
        <ele>121.0</ele>
        <time>2019-05-17T13:52:11.187Z</time>
      </trkpt>
      <trkpt lat="39.49417" lon="-8.43078833">
        <ele>121.0</ele>
        <time>2019-05-17T13:52:12.152Z</time>
      </trkpt>
      <trkpt lat="39.494205" lon="-8.43076">
        <ele>122.0</ele>
        <time>2019-05-17T13:52:13.186Z</time>
      </trkpt>
      <trkpt lat="39.49422333" lon="-8.43075167">
        <ele>122.0</ele>
        <time>2019-05-17T13:52:14.189Z</time>
      </trkpt>
      <trkpt lat="39.49422333" lon="-8.43075167">
        <ele>122.0</ele>
        <time>2019-05-17T13:52:15.153Z</time>
      </trkpt>
      <trkpt lat="39.494255" lon="-8.43075333">
        <ele>123.0</ele>
        <time>2019-05-17T13:52:16.188Z</time>
      </trkpt>
      <trkpt lat="39.494255" lon="-8.43075333">
        <ele>123.0</ele>
        <time>2019-05-17T13:52:17.170Z</time>
      </trkpt>
      <trkpt lat="39.49425667" lon="-8.43074667">
        <ele>123.0</ele>
        <time>2019-05-17T13:52:18.162Z</time>
      </trkpt>
      <trkpt lat="39.49425667" lon="-8.43074667">
        <ele>123.0</ele>
        <time>2019-05-17T13:52:19.187Z</time>
      </trkpt>
      <trkpt lat="39.49425667" lon="-8.43074667">
        <ele>123.0</ele>
        <time>2019-05-17T13:52:20.182Z</time>
      </trkpt>
      <trkpt lat="39.49425667" lon="-8.43074667">
        <ele>123.0</ele>
        <time>2019-05-17T13:52:21.150Z</time>
      </trkpt>
      <trkpt lat="39.49425667" lon="-8.43074667">
        <ele>123.0</ele>
        <time>2019-05-17T13:52:22.156Z</time>
      </trkpt>
      <trkpt lat="39.49425667" lon="-8.43074667">
        <ele>123.0</ele>
        <time>2019-05-17T13:52:23.162Z</time>
      </trkpt>
      <trkpt lat="39.49425667" lon="-8.43074667">
        <ele>123.0</ele>
        <time>2019-05-17T13:52:24.168Z</time>
      </trkpt>
      <trkpt lat="39.49425667" lon="-8.43074667">
        <ele>123.0</ele>
        <time>2019-05-17T13:52:25.174Z</time>
      </trkpt>
      <trkpt lat="39.49425667" lon="-8.43074667">
        <ele>123.0</ele>
        <time>2019-05-17T13:52:26.180Z</time>
      </trkpt>
      <trkpt lat="39.49425667" lon="-8.43074667">
        <ele>123.0</ele>
        <time>2019-05-17T13:52:27.166Z</time>
      </trkpt>
      <trkpt lat="39.49425667" lon="-8.43074667">
        <ele>123.0</ele>
        <time>2019-05-17T13:52:28.159Z</time>
      </trkpt>
      <trkpt lat="39.49425667" lon="-8.43074667">
        <ele>123.0</ele>
        <time>2019-05-17T13:52:29.157Z</time>
      </trkpt>
      <trkpt lat="39.49425667" lon="-8.43074667">
        <ele>123.0</ele>
        <time>2019-05-17T13:52:30.160Z</time>
      </trkpt>
      <trkpt lat="39.49425667" lon="-8.43074667">
        <ele>123.0</ele>
        <time>2019-05-17T13:52:31.158Z</time>
      </trkpt>
      <trkpt lat="39.49425667" lon="-8.43074667">
        <ele>123.0</ele>
        <time>2019-05-17T13:52:32.166Z</time>
      </trkpt>
      <trkpt lat="39.49425667" lon="-8.43074667">
        <ele>123.0</ele>
        <time>2019-05-17T13:52:33.158Z</time>
      </trkpt>
      <trkpt lat="39.49425667" lon="-8.43074667">
        <ele>123.0</ele>
        <time>2019-05-17T13:52:34.161Z</time>
      </trkpt>
      <trkpt lat="39.49425667" lon="-8.43074667">
        <ele>123.0</ele>
        <time>2019-05-17T13:52:35.158Z</time>
      </trkpt>
      <trkpt lat="39.49425667" lon="-8.43074667">
        <ele>123.0</ele>
        <time>2019-05-17T13:52:36.162Z</time>
      </trkpt>
      <trkpt lat="39.49425667" lon="-8.43074667">
        <ele>123.0</ele>
        <time>2019-05-17T13:52:37.158Z</time>
      </trkpt>
      <trkpt lat="39.49425667" lon="-8.43074667">
        <ele>123.0</ele>
        <time>2019-05-17T13:52:38.164Z</time>
      </trkpt>
      <trkpt lat="39.49425667" lon="-8.43074667">
        <ele>123.0</ele>
        <time>2019-05-17T13:52:39.157Z</time>
      </trkpt>
      <trkpt lat="39.49425667" lon="-8.43074667">
        <ele>123.0</ele>
        <time>2019-05-17T13:52:40.163Z</time>
      </trkpt>
      <trkpt lat="39.49425667" lon="-8.43074667">
        <ele>123.0</ele>
        <time>2019-05-17T13:52:41.158Z</time>
      </trkpt>
      <trkpt lat="39.49425667" lon="-8.43074667">
        <ele>123.0</ele>
        <time>2019-05-17T13:52:42.162Z</time>
      </trkpt>
      <trkpt lat="39.49425667" lon="-8.43074667">
        <ele>123.0</ele>
        <time>2019-05-17T13:52:43.158Z</time>
      </trkpt>
      <trkpt lat="39.49425667" lon="-8.43074667">
        <ele>123.0</ele>
        <time>2019-05-17T13:52:44.165Z</time>
      </trkpt>
      <trkpt lat="39.49425667" lon="-8.43074667">
        <ele>123.0</ele>
        <time>2019-05-17T13:52:45.158Z</time>
      </trkpt>
      <trkpt lat="39.49425667" lon="-8.43074667">
        <ele>123.0</ele>
        <time>2019-05-17T13:52:46.163Z</time>
      </trkpt>
      <trkpt lat="39.49425667" lon="-8.43074667">
        <ele>123.0</ele>
        <time>2019-05-17T13:52:47.158Z</time>
      </trkpt>
      <trkpt lat="39.49425667" lon="-8.43074667">
        <ele>123.0</ele>
        <time>2019-05-17T13:52:48.160Z</time>
      </trkpt>
      <trkpt lat="39.49425667" lon="-8.43074667">
        <ele>123.0</ele>
        <time>2019-05-17T13:52:49.161Z</time>
      </trkpt>
      <trkpt lat="39.49425667" lon="-8.43074667">
        <ele>123.0</ele>
        <time>2019-05-17T13:52:50.168Z</time>
      </trkpt>
      <trkpt lat="39.49425667" lon="-8.43074667">
        <ele>123.0</ele>
        <time>2019-05-17T13:52:51.158Z</time>
      </trkpt>
      <trkpt lat="39.49425667" lon="-8.43074667">
        <ele>123.0</ele>
        <time>2019-05-17T13:52:52.163Z</time>
      </trkpt>
      <trkpt lat="39.49425667" lon="-8.43074667">
        <ele>123.0</ele>
        <time>2019-05-17T13:52:53.154Z</time>
      </trkpt>
      <trkpt lat="39.49425667" lon="-8.43074667">
        <ele>123.0</ele>
        <time>2019-05-17T13:52:54.174Z</time>
      </trkpt>
      <trkpt lat="39.49425667" lon="-8.43074667">
        <ele>123.0</ele>
        <time>2019-05-17T13:52:55.160Z</time>
      </trkpt>
      <trkpt lat="39.49425667" lon="-8.43074667">
        <ele>123.0</ele>
        <time>2019-05-17T13:52:56.165Z</time>
      </trkpt>
      <trkpt lat="39.49425667" lon="-8.43074667">
        <ele>123.0</ele>
        <time>2019-05-17T13:52:57.158Z</time>
      </trkpt>
      <trkpt lat="39.49425667" lon="-8.43074667">
        <ele>123.0</ele>
        <time>2019-05-17T13:52:58.160Z</time>
      </trkpt>
      <trkpt lat="39.49425667" lon="-8.43074667">
        <ele>123.0</ele>
        <time>2019-05-17T13:52:59.163Z</time>
      </trkpt>
      <trkpt lat="39.49425667" lon="-8.43074667">
        <ele>123.0</ele>
        <time>2019-05-17T13:53:00.163Z</time>
      </trkpt>
      <trkpt lat="39.49425667" lon="-8.43074667">
        <ele>123.0</ele>
        <time>2019-05-17T13:53:01.158Z</time>
      </trkpt>
      <trkpt lat="39.49425667" lon="-8.43074667">
        <ele>123.0</ele>
        <time>2019-05-17T13:53:02.164Z</time>
      </trkpt>
      <trkpt lat="39.49425667" lon="-8.43074667">
        <ele>123.0</ele>
        <time>2019-05-17T13:53:03.163Z</time>
      </trkpt>
      <trkpt lat="39.49425667" lon="-8.43074667">
        <ele>123.0</ele>
        <time>2019-05-17T13:53:04.158Z</time>
      </trkpt>
      <trkpt lat="39.49425667" lon="-8.43074667">
        <ele>123.0</ele>
        <time>2019-05-17T13:53:05.162Z</time>
      </trkpt>
      <trkpt lat="39.49425667" lon="-8.43074667">
        <ele>123.0</ele>
        <time>2019-05-17T13:53:06.158Z</time>
      </trkpt>
      <trkpt lat="39.49425667" lon="-8.43074667">
        <ele>123.0</ele>
        <time>2019-05-17T13:53:07.163Z</time>
      </trkpt>
      <trkpt lat="39.49425667" lon="-8.43074667">
        <ele>123.0</ele>
        <time>2019-05-17T13:53:08.160Z</time>
      </trkpt>
      <trkpt lat="39.49425667" lon="-8.43074667">
        <ele>123.0</ele>
        <time>2019-05-17T13:53:09.176Z</time>
      </trkpt>
      <trkpt lat="39.49425667" lon="-8.43074667">
        <ele>123.0</ele>
        <time>2019-05-17T13:53:10.189Z</time>
      </trkpt>
      <trkpt lat="39.49425667" lon="-8.43074667">
        <ele>123.0</ele>
        <time>2019-05-17T13:53:11.155Z</time>
      </trkpt>
      <trkpt lat="39.49425667" lon="-8.43074667">
        <ele>123.0</ele>
        <time>2019-05-17T13:53:12.161Z</time>
      </trkpt>
      <trkpt lat="39.49425667" lon="-8.43074667">
        <ele>123.0</ele>
        <time>2019-05-17T13:53:13.162Z</time>
      </trkpt>
      <trkpt lat="39.49425667" lon="-8.43074667">
        <ele>123.0</ele>
        <time>2019-05-17T13:53:14.157Z</time>
      </trkpt>
      <trkpt lat="39.49425667" lon="-8.43074667">
        <ele>123.0</ele>
        <time>2019-05-17T13:53:15.163Z</time>
      </trkpt>
      <trkpt lat="39.49425667" lon="-8.43074667">
        <ele>123.0</ele>
        <time>2019-05-17T13:53:16.158Z</time>
      </trkpt>
      <trkpt lat="39.49425667" lon="-8.43074667">
        <ele>123.0</ele>
        <time>2019-05-17T13:53:17.163Z</time>
      </trkpt>
      <trkpt lat="39.49425667" lon="-8.43074667">
        <ele>123.0</ele>
        <time>2019-05-17T13:53:18.159Z</time>
      </trkpt>
      <trkpt lat="39.49425667" lon="-8.43074667">
        <ele>123.0</ele>
        <time>2019-05-17T13:53:19.169Z</time>
      </trkpt>
      <trkpt lat="39.49425667" lon="-8.43074667">
        <ele>123.0</ele>
        <time>2019-05-17T13:53:20.165Z</time>
      </trkpt>
      <trkpt lat="39.49425667" lon="-8.43074667">
        <ele>123.0</ele>
        <time>2019-05-17T13:53:21.158Z</time>
      </trkpt>
      <trkpt lat="39.49425667" lon="-8.43074667">
        <ele>123.0</ele>
        <time>2019-05-17T13:53:22.164Z</time>
      </trkpt>
      <trkpt lat="39.49425667" lon="-8.43074667">
        <ele>123.0</ele>
        <time>2019-05-17T13:53:23.158Z</time>
      </trkpt>
      <trkpt lat="39.49425667" lon="-8.43074667">
        <ele>123.0</ele>
        <time>2019-05-17T13:53:24.164Z</time>
      </trkpt>
      <trkpt lat="39.49425667" lon="-8.43074667">
        <ele>123.0</ele>
        <time>2019-05-17T13:53:25.160Z</time>
      </trkpt>
      <trkpt lat="39.49425667" lon="-8.43074667">
        <ele>123.0</ele>
        <time>2019-05-17T13:53:26.165Z</time>
      </trkpt>
      <trkpt lat="39.49425667" lon="-8.43074667">
        <ele>123.0</ele>
        <time>2019-05-17T13:53:27.158Z</time>
      </trkpt>
      <trkpt lat="39.49425667" lon="-8.43074667">
        <ele>123.0</ele>
        <time>2019-05-17T13:53:28.160Z</time>
      </trkpt>
      <trkpt lat="39.49425667" lon="-8.43074667">
        <ele>123.0</ele>
        <time>2019-05-17T13:53:29.167Z</time>
      </trkpt>
      <trkpt lat="39.49425667" lon="-8.43074667">
        <ele>123.0</ele>
        <time>2019-05-17T13:53:30.158Z</time>
      </trkpt>
      <trkpt lat="39.49425667" lon="-8.43074667">
        <ele>123.0</ele>
        <time>2019-05-17T13:53:31.163Z</time>
      </trkpt>
      <trkpt lat="39.49425667" lon="-8.43074667">
        <ele>123.0</ele>
        <time>2019-05-17T13:53:32.169Z</time>
      </trkpt>
      <trkpt lat="39.49425667" lon="-8.43074667">
        <ele>123.0</ele>
        <time>2019-05-17T13:53:33.159Z</time>
      </trkpt>
      <trkpt lat="39.49425667" lon="-8.43074667">
        <ele>123.0</ele>
        <time>2019-05-17T13:53:34.163Z</time>
      </trkpt>
      <trkpt lat="39.49425667" lon="-8.43074667">
        <ele>123.0</ele>
        <time>2019-05-17T13:53:35.158Z</time>
      </trkpt>
      <trkpt lat="39.49425667" lon="-8.43074667">
        <ele>123.0</ele>
        <time>2019-05-17T13:53:36.162Z</time>
      </trkpt>
      <trkpt lat="39.49425667" lon="-8.43074667">
        <ele>123.0</ele>
        <time>2019-05-17T13:53:37.163Z</time>
      </trkpt>
      <trkpt lat="39.49425667" lon="-8.43074667">
        <ele>123.0</ele>
        <time>2019-05-17T13:53:38.164Z</time>
      </trkpt>
      <trkpt lat="39.49425667" lon="-8.43074667">
        <ele>123.0</ele>
        <time>2019-05-17T13:53:39.161Z</time>
      </trkpt>
      <trkpt lat="39.49425667" lon="-8.43074667">
        <ele>123.0</ele>
        <time>2019-05-17T13:53:40.163Z</time>
      </trkpt>
      <trkpt lat="39.49425667" lon="-8.43074667">
        <ele>123.0</ele>
        <time>2019-05-17T13:53:41.163Z</time>
      </trkpt>
      <trkpt lat="39.49425667" lon="-8.43074667">
        <ele>123.0</ele>
        <time>2019-05-17T13:53:42.163Z</time>
      </trkpt>
      <trkpt lat="39.49425667" lon="-8.43074667">
        <ele>123.0</ele>
        <time>2019-05-17T13:53:43.158Z</time>
      </trkpt>
      <trkpt lat="39.49425667" lon="-8.43074667">
        <ele>123.0</ele>
        <time>2019-05-17T13:53:44.185Z</time>
      </trkpt>
      <trkpt lat="39.49425667" lon="-8.43074667">
        <ele>123.0</ele>
        <time>2019-05-17T13:53:45.170Z</time>
      </trkpt>
      <trkpt lat="39.49425667" lon="-8.43074667">
        <ele>123.0</ele>
        <time>2019-05-17T13:53:46.159Z</time>
      </trkpt>
      <trkpt lat="39.49425667" lon="-8.43074667">
        <ele>123.0</ele>
        <time>2019-05-17T13:53:47.163Z</time>
      </trkpt>
      <trkpt lat="39.49425667" lon="-8.43074667">
        <ele>123.0</ele>
        <time>2019-05-17T13:53:48.158Z</time>
      </trkpt>
      <trkpt lat="39.49425667" lon="-8.43074667">
        <ele>123.0</ele>
        <time>2019-05-17T13:53:49.171Z</time>
      </trkpt>
      <trkpt lat="39.49425667" lon="-8.43074667">
        <ele>123.0</ele>
        <time>2019-05-17T13:53:50.176Z</time>
      </trkpt>
      <trkpt lat="39.49425667" lon="-8.43074667">
        <ele>123.0</ele>
        <time>2019-05-17T13:53:51.162Z</time>
      </trkpt>
      <trkpt lat="39.49425667" lon="-8.43074667">
        <ele>123.0</ele>
        <time>2019-05-17T13:53:52.163Z</time>
      </trkpt>
      <trkpt lat="39.49425667" lon="-8.43074667">
        <ele>123.0</ele>
        <time>2019-05-17T13:53:53.158Z</time>
      </trkpt>
      <trkpt lat="39.49425667" lon="-8.43074667">
        <ele>123.0</ele>
        <time>2019-05-17T13:53:54.163Z</time>
      </trkpt>
      <trkpt lat="39.49425667" lon="-8.43074667">
        <ele>123.0</ele>
        <time>2019-05-17T13:53:55.158Z</time>
      </trkpt>
      <trkpt lat="39.49425667" lon="-8.43074667">
        <ele>123.0</ele>
        <time>2019-05-17T13:53:56.162Z</time>
      </trkpt>
      <trkpt lat="39.49425667" lon="-8.43074667">
        <ele>123.0</ele>
        <time>2019-05-17T13:53:57.156Z</time>
      </trkpt>
      <trkpt lat="39.49425667" lon="-8.43074667">
        <ele>123.0</ele>
        <time>2019-05-17T13:53:58.159Z</time>
      </trkpt>
      <trkpt lat="39.49425667" lon="-8.43075">
        <ele>127.0</ele>
        <time>2019-05-17T13:53:59.165Z</time>
      </trkpt>
      <trkpt lat="39.49425667" lon="-8.43075">
        <ele>127.0</ele>
        <time>2019-05-17T13:54:00.158Z</time>
      </trkpt>
      <trkpt lat="39.49427167" lon="-8.43073167">
        <ele>126.0</ele>
        <time>2019-05-17T13:54:01.162Z</time>
      </trkpt>
      <trkpt lat="39.49427833" lon="-8.43072167">
        <ele>126.0</ele>
        <time>2019-05-17T13:54:02.165Z</time>
      </trkpt>
      <trkpt lat="39.49427833" lon="-8.43072167">
        <ele>126.0</ele>
        <time>2019-05-17T13:54:03.159Z</time>
      </trkpt>
      <trkpt lat="39.494295" lon="-8.43070333">
        <ele>126.0</ele>
        <time>2019-05-17T13:54:04.162Z</time>
      </trkpt>
      <trkpt lat="39.494295" lon="-8.43070333">
        <ele>126.0</ele>
        <time>2019-05-17T13:54:05.158Z</time>
      </trkpt>
      <trkpt lat="39.494315" lon="-8.43068">
        <ele>126.0</ele>
        <time>2019-05-17T13:54:06.162Z</time>
      </trkpt>
      <trkpt lat="39.494315" lon="-8.43068">
        <ele>126.0</ele>
        <time>2019-05-17T13:54:07.158Z</time>
      </trkpt>
      <trkpt lat="39.49433167" lon="-8.430665">
        <ele>125.0</ele>
        <time>2019-05-17T13:54:08.193Z</time>
      </trkpt>
      <trkpt lat="39.49433167" lon="-8.430665">
        <ele>125.0</ele>
        <time>2019-05-17T13:54:09.158Z</time>
      </trkpt>
      <trkpt lat="39.494345" lon="-8.43064167">
        <ele>125.0</ele>
        <time>2019-05-17T13:54:10.180Z</time>
      </trkpt>
      <trkpt lat="39.49435333" lon="-8.43062667">
        <ele>125.0</ele>
        <time>2019-05-17T13:54:11.162Z</time>
      </trkpt>
      <trkpt lat="39.494365" lon="-8.43060667">
        <ele>125.0</ele>
        <time>2019-05-17T13:54:12.188Z</time>
      </trkpt>
      <trkpt lat="39.494365" lon="-8.43060667">
        <ele>125.0</ele>
        <time>2019-05-17T13:54:13.172Z</time>
      </trkpt>
      <trkpt lat="39.494395" lon="-8.43055833">
        <ele>125.0</ele>
        <time>2019-05-17T13:54:14.175Z</time>
      </trkpt>
      <trkpt lat="39.494395" lon="-8.43055833">
        <ele>125.0</ele>
        <time>2019-05-17T13:54:15.182Z</time>
      </trkpt>
      <trkpt lat="39.49443167" lon="-8.43050167">
        <ele>124.0</ele>
        <time>2019-05-17T13:54:16.165Z</time>
      </trkpt>
      <trkpt lat="39.49443167" lon="-8.43050167">
        <ele>124.0</ele>
        <time>2019-05-17T13:54:17.159Z</time>
      </trkpt>
      <trkpt lat="39.49446667" lon="-8.43044667">
        <ele>124.0</ele>
        <time>2019-05-17T13:54:18.187Z</time>
      </trkpt>
      <trkpt lat="39.49446667" lon="-8.43044667">
        <ele>124.0</ele>
        <time>2019-05-17T13:54:19.189Z</time>
      </trkpt>
      <trkpt lat="39.4945" lon="-8.43039667">
        <ele>124.0</ele>
        <time>2019-05-17T13:54:20.182Z</time>
      </trkpt>
      <trkpt lat="39.4945" lon="-8.43039667">
        <ele>124.0</ele>
        <time>2019-05-17T13:54:21.187Z</time>
      </trkpt>
      <trkpt lat="39.494545" lon="-8.43035833">
        <ele>123.0</ele>
        <time>2019-05-17T13:54:22.151Z</time>
      </trkpt>
      <trkpt lat="39.494545" lon="-8.43035833">
        <ele>123.0</ele>
        <time>2019-05-17T13:54:23.171Z</time>
      </trkpt>
      <trkpt lat="39.49459" lon="-8.43031">
        <ele>123.0</ele>
        <time>2019-05-17T13:54:24.162Z</time>
      </trkpt>
      <trkpt lat="39.49459" lon="-8.43031">
        <ele>123.0</ele>
        <time>2019-05-17T13:54:25.169Z</time>
      </trkpt>
      <trkpt lat="39.49462833" lon="-8.430265">
        <ele>123.0</ele>
        <time>2019-05-17T13:54:26.166Z</time>
      </trkpt>
      <trkpt lat="39.49462833" lon="-8.430265">
        <ele>123.0</ele>
        <time>2019-05-17T13:54:27.157Z</time>
      </trkpt>
      <trkpt lat="39.494665" lon="-8.43022833">
        <ele>123.0</ele>
        <time>2019-05-17T13:54:28.157Z</time>
      </trkpt>
      <trkpt lat="39.494665" lon="-8.43022833">
        <ele>123.0</ele>
        <time>2019-05-17T13:54:29.162Z</time>
      </trkpt>
      <trkpt lat="39.49469833" lon="-8.43019">
        <ele>123.0</ele>
        <time>2019-05-17T13:54:30.195Z</time>
      </trkpt>
      <trkpt lat="39.49471667" lon="-8.43016833">
        <ele>123.0</ele>
        <time>2019-05-17T13:54:31.162Z</time>
      </trkpt>
      <trkpt lat="39.49473167" lon="-8.43014667">
        <ele>123.0</ele>
        <time>2019-05-17T13:54:32.188Z</time>
      </trkpt>
      <trkpt lat="39.49473167" lon="-8.43014667">
        <ele>123.0</ele>
        <time>2019-05-17T13:54:33.167Z</time>
      </trkpt>
      <trkpt lat="39.49476333" lon="-8.43011167">
        <ele>123.0</ele>
        <time>2019-05-17T13:54:34.170Z</time>
      </trkpt>
      <trkpt lat="39.49476333" lon="-8.43011167">
        <ele>123.0</ele>
        <time>2019-05-17T13:54:35.181Z</time>
      </trkpt>
      <trkpt lat="39.49479667" lon="-8.430075">
        <ele>123.0</ele>
        <time>2019-05-17T13:54:36.152Z</time>
      </trkpt>
      <trkpt lat="39.49479667" lon="-8.430075">
        <ele>123.0</ele>
        <time>2019-05-17T13:54:37.153Z</time>
      </trkpt>
      <trkpt lat="39.49482833" lon="-8.43003833">
        <ele>124.0</ele>
        <time>2019-05-17T13:54:38.155Z</time>
      </trkpt>
      <trkpt lat="39.49482833" lon="-8.43003833">
        <ele>124.0</ele>
        <time>2019-05-17T13:54:39.160Z</time>
      </trkpt>
      <trkpt lat="39.494855" lon="-8.42999333">
        <ele>124.0</ele>
        <time>2019-05-17T13:54:40.170Z</time>
      </trkpt>
      <trkpt lat="39.49486667" lon="-8.42997667">
        <ele>124.0</ele>
        <time>2019-05-17T13:54:41.155Z</time>
      </trkpt>
      <trkpt lat="39.49486667" lon="-8.42997667">
        <ele>124.0</ele>
        <time>2019-05-17T13:54:42.164Z</time>
      </trkpt>
      <trkpt lat="39.49489" lon="-8.429935">
        <ele>124.0</ele>
        <time>2019-05-17T13:54:43.162Z</time>
      </trkpt>
      <trkpt lat="39.49489" lon="-8.429935">
        <ele>124.0</ele>
        <time>2019-05-17T13:54:44.177Z</time>
      </trkpt>
      <trkpt lat="39.49491667" lon="-8.42989">
        <ele>124.0</ele>
        <time>2019-05-17T13:54:45.173Z</time>
      </trkpt>
      <trkpt lat="39.49491667" lon="-8.42989">
        <ele>124.0</ele>
        <time>2019-05-17T13:54:46.160Z</time>
      </trkpt>
      <trkpt lat="39.49494333" lon="-8.42985">
        <ele>124.0</ele>
        <time>2019-05-17T13:54:47.178Z</time>
      </trkpt>
      <trkpt lat="39.49494333" lon="-8.42985">
        <ele>124.0</ele>
        <time>2019-05-17T13:54:48.184Z</time>
      </trkpt>
      <trkpt lat="39.49497833" lon="-8.42981333">
        <ele>123.0</ele>
        <time>2019-05-17T13:54:49.176Z</time>
      </trkpt>
      <trkpt lat="39.49499833" lon="-8.42979667">
        <ele>123.0</ele>
        <time>2019-05-17T13:54:50.156Z</time>
      </trkpt>
      <trkpt lat="39.49499833" lon="-8.42979667">
        <ele>123.0</ele>
        <time>2019-05-17T13:54:51.168Z</time>
      </trkpt>
      <trkpt lat="39.49503833" lon="-8.42975667">
        <ele>123.0</ele>
        <time>2019-05-17T13:54:52.165Z</time>
      </trkpt>
      <trkpt lat="39.49503833" lon="-8.42975667">
        <ele>123.0</ele>
        <time>2019-05-17T13:54:53.157Z</time>
      </trkpt>
      <trkpt lat="39.49507833" lon="-8.42971167">
        <ele>123.0</ele>
        <time>2019-05-17T13:54:54.150Z</time>
      </trkpt>
      <trkpt lat="39.49507833" lon="-8.42971167">
        <ele>123.0</ele>
        <time>2019-05-17T13:54:55.168Z</time>
      </trkpt>
      <trkpt lat="39.49512167" lon="-8.42966">
        <ele>123.0</ele>
        <time>2019-05-17T13:54:56.219Z</time>
      </trkpt>
      <trkpt lat="39.49512167" lon="-8.42966">
        <ele>123.0</ele>
        <time>2019-05-17T13:54:57.155Z</time>
      </trkpt>
      <trkpt lat="39.49516833" lon="-8.42960167">
        <ele>122.0</ele>
        <time>2019-05-17T13:54:58.155Z</time>
      </trkpt>
      <trkpt lat="39.49516833" lon="-8.42960167">
        <ele>122.0</ele>
        <time>2019-05-17T13:54:59.153Z</time>
      </trkpt>
      <trkpt lat="39.49521667" lon="-8.42953">
        <ele>122.0</ele>
        <time>2019-05-17T13:55:00.185Z</time>
      </trkpt>
      <trkpt lat="39.49521667" lon="-8.42953">
        <ele>122.0</ele>
        <time>2019-05-17T13:55:01.150Z</time>
      </trkpt>
      <trkpt lat="39.495265" lon="-8.42945">
        <ele>121.0</ele>
        <time>2019-05-17T13:55:02.175Z</time>
      </trkpt>
      <trkpt lat="39.495265" lon="-8.42945">
        <ele>121.0</ele>
        <time>2019-05-17T13:55:03.184Z</time>
      </trkpt>
      <trkpt lat="39.49531333" lon="-8.42937833">
        <ele>121.0</ele>
        <time>2019-05-17T13:55:04.169Z</time>
      </trkpt>
      <trkpt lat="39.49531333" lon="-8.42937833">
        <ele>121.0</ele>
        <time>2019-05-17T13:55:05.176Z</time>
      </trkpt>
      <trkpt lat="39.49536833" lon="-8.429315">
        <ele>120.0</ele>
        <time>2019-05-17T13:55:06.175Z</time>
      </trkpt>
      <trkpt lat="39.49539667" lon="-8.42928333">
        <ele>119.0</ele>
        <time>2019-05-17T13:55:07.185Z</time>
      </trkpt>
      <trkpt lat="39.49542833" lon="-8.42925">
        <ele>119.0</ele>
        <time>2019-05-17T13:55:08.186Z</time>
      </trkpt>
      <trkpt lat="39.49542833" lon="-8.42925">
        <ele>119.0</ele>
        <time>2019-05-17T13:55:09.178Z</time>
      </trkpt>
      <trkpt lat="39.49550333" lon="-8.42916667">
        <ele>118.0</ele>
        <time>2019-05-17T13:55:10.189Z</time>
      </trkpt>
      <trkpt lat="39.495545" lon="-8.42911833">
        <ele>118.0</ele>
        <time>2019-05-17T13:55:11.155Z</time>
      </trkpt>
      <trkpt lat="39.495545" lon="-8.42911833">
        <ele>118.0</ele>
        <time>2019-05-17T13:55:12.150Z</time>
      </trkpt>
      <trkpt lat="39.49562167" lon="-8.42901167">
        <ele>118.0</ele>
        <time>2019-05-17T13:55:13.180Z</time>
      </trkpt>
      <trkpt lat="39.495655" lon="-8.42896">
        <ele>118.0</ele>
        <time>2019-05-17T13:55:14.180Z</time>
      </trkpt>
      <trkpt lat="39.495655" lon="-8.42896">
        <ele>118.0</ele>
        <time>2019-05-17T13:55:15.169Z</time>
      </trkpt>
      <trkpt lat="39.495725" lon="-8.42886833">
        <ele>119.0</ele>
        <time>2019-05-17T13:55:16.165Z</time>
      </trkpt>
      <trkpt lat="39.495725" lon="-8.42886833">
        <ele>119.0</ele>
        <time>2019-05-17T13:55:17.175Z</time>
      </trkpt>
      <trkpt lat="39.495785" lon="-8.42879667">
        <ele>119.0</ele>
        <time>2019-05-17T13:55:18.177Z</time>
      </trkpt>
      <trkpt lat="39.49581" lon="-8.428765">
        <ele>119.0</ele>
        <time>2019-05-17T13:55:19.178Z</time>
      </trkpt>
      <trkpt lat="39.49583333" lon="-8.42873667">
        <ele>119.0</ele>
        <time>2019-05-17T13:55:20.180Z</time>
      </trkpt>
      <trkpt lat="39.49583333" lon="-8.42873667">
        <ele>119.0</ele>
        <time>2019-05-17T13:55:21.154Z</time>
      </trkpt>
      <trkpt lat="39.49588" lon="-8.428685">
        <ele>119.0</ele>
        <time>2019-05-17T13:55:22.181Z</time>
      </trkpt>
      <trkpt lat="39.49588" lon="-8.428685">
        <ele>119.0</ele>
        <time>2019-05-17T13:55:23.155Z</time>
      </trkpt>
      <trkpt lat="39.49592333" lon="-8.42863333">
        <ele>119.0</ele>
        <time>2019-05-17T13:55:24.155Z</time>
      </trkpt>
      <trkpt lat="39.49594333" lon="-8.42860667">
        <ele>120.0</ele>
        <time>2019-05-17T13:55:25.155Z</time>
      </trkpt>
      <trkpt lat="39.49596667" lon="-8.42858167">
        <ele>120.0</ele>
        <time>2019-05-17T13:55:26.173Z</time>
      </trkpt>
      <trkpt lat="39.49596667" lon="-8.42858167">
        <ele>120.0</ele>
        <time>2019-05-17T13:55:27.163Z</time>
      </trkpt>
      <trkpt lat="39.49601333" lon="-8.42852667">
        <ele>120.0</ele>
        <time>2019-05-17T13:55:28.170Z</time>
      </trkpt>
      <trkpt lat="39.49601333" lon="-8.42852667">
        <ele>120.0</ele>
        <time>2019-05-17T13:55:29.164Z</time>
      </trkpt>
      <trkpt lat="39.496055" lon="-8.42847167">
        <ele>120.0</ele>
        <time>2019-05-17T13:55:30.175Z</time>
      </trkpt>
      <trkpt lat="39.496055" lon="-8.42847167">
        <ele>120.0</ele>
        <time>2019-05-17T13:55:31.181Z</time>
      </trkpt>
      <trkpt lat="39.49610167" lon="-8.42841833">
        <ele>120.0</ele>
        <time>2019-05-17T13:55:32.150Z</time>
      </trkpt>
      <trkpt lat="39.49610167" lon="-8.42841833">
        <ele>120.0</ele>
        <time>2019-05-17T13:55:33.165Z</time>
      </trkpt>
      <trkpt lat="39.49615" lon="-8.42835833">
        <ele>121.0</ele>
        <time>2019-05-17T13:55:34.167Z</time>
      </trkpt>
      <trkpt lat="39.49615" lon="-8.42835833">
        <ele>121.0</ele>
        <time>2019-05-17T13:55:35.156Z</time>
      </trkpt>
      <trkpt lat="39.49619833" lon="-8.42829833">
        <ele>121.0</ele>
        <time>2019-05-17T13:55:36.150Z</time>
      </trkpt>
      <trkpt lat="39.49619833" lon="-8.42829833">
        <ele>121.0</ele>
        <time>2019-05-17T13:55:37.172Z</time>
      </trkpt>
      <trkpt lat="39.49623333" lon="-8.42825167">
        <ele>121.0</ele>
        <time>2019-05-17T13:55:38.178Z</time>
      </trkpt>
      <trkpt lat="39.49623333" lon="-8.42825167">
        <ele>121.0</ele>
        <time>2019-05-17T13:55:39.163Z</time>
      </trkpt>
      <trkpt lat="39.496265" lon="-8.42820667">
        <ele>121.0</ele>
        <time>2019-05-17T13:55:40.159Z</time>
      </trkpt>
      <trkpt lat="39.496265" lon="-8.42820667">
        <ele>121.0</ele>
        <time>2019-05-17T13:55:41.164Z</time>
      </trkpt>
      <trkpt lat="39.49629667" lon="-8.42816167">
        <ele>122.0</ele>
        <time>2019-05-17T13:55:42.165Z</time>
      </trkpt>
      <trkpt lat="39.49629667" lon="-8.42816167">
        <ele>122.0</ele>
        <time>2019-05-17T13:55:43.150Z</time>
      </trkpt>
      <trkpt lat="39.496335" lon="-8.42811667">
        <ele>122.0</ele>
        <time>2019-05-17T13:55:44.185Z</time>
      </trkpt>
      <trkpt lat="39.496335" lon="-8.42811667">
        <ele>122.0</ele>
        <time>2019-05-17T13:55:45.157Z</time>
      </trkpt>
      <trkpt lat="39.496375" lon="-8.42807333">
        <ele>122.0</ele>
        <time>2019-05-17T13:55:46.156Z</time>
      </trkpt>
      <trkpt lat="39.496375" lon="-8.42807333">
        <ele>122.0</ele>
        <time>2019-05-17T13:55:47.151Z</time>
      </trkpt>
      <trkpt lat="39.49641167" lon="-8.42803">
        <ele>122.0</ele>
        <time>2019-05-17T13:55:48.185Z</time>
      </trkpt>
      <trkpt lat="39.49641167" lon="-8.42803">
        <ele>122.0</ele>
        <time>2019-05-17T13:55:49.160Z</time>
      </trkpt>
      <trkpt lat="39.49644167" lon="-8.42799">
        <ele>123.0</ele>
        <time>2019-05-17T13:55:50.155Z</time>
      </trkpt>
      <trkpt lat="39.49644167" lon="-8.42799">
        <ele>123.0</ele>
        <time>2019-05-17T13:55:51.166Z</time>
      </trkpt>
      <trkpt lat="39.49647167" lon="-8.427955">
        <ele>123.0</ele>
        <time>2019-05-17T13:55:52.158Z</time>
      </trkpt>
      <trkpt lat="39.49647167" lon="-8.427955">
        <ele>123.0</ele>
        <time>2019-05-17T13:55:53.158Z</time>
      </trkpt>
      <trkpt lat="39.496495" lon="-8.42792167">
        <ele>123.0</ele>
        <time>2019-05-17T13:55:54.170Z</time>
      </trkpt>
      <trkpt lat="39.49650833" lon="-8.42790333">
        <ele>123.0</ele>
        <time>2019-05-17T13:55:55.154Z</time>
      </trkpt>
      <trkpt lat="39.496525" lon="-8.42788667">
        <ele>124.0</ele>
        <time>2019-05-17T13:55:56.177Z</time>
      </trkpt>
      <trkpt lat="39.496525" lon="-8.42788667">
        <ele>124.0</ele>
        <time>2019-05-17T13:55:57.178Z</time>
      </trkpt>
      <trkpt lat="39.49656833" lon="-8.42783667">
        <ele>124.0</ele>
        <time>2019-05-17T13:55:58.165Z</time>
      </trkpt>
      <trkpt lat="39.49656833" lon="-8.42783667">
        <ele>124.0</ele>
        <time>2019-05-17T13:55:59.189Z</time>
      </trkpt>
      <trkpt lat="39.49660667" lon="-8.42778">
        <ele>124.0</ele>
        <time>2019-05-17T13:56:00.160Z</time>
      </trkpt>
      <trkpt lat="39.49662167" lon="-8.427755">
        <ele>124.0</ele>
        <time>2019-05-17T13:56:01.164Z</time>
      </trkpt>
      <trkpt lat="39.49663833" lon="-8.42773">
        <ele>124.0</ele>
        <time>2019-05-17T13:56:02.177Z</time>
      </trkpt>
      <trkpt lat="39.49663833" lon="-8.42773">
        <ele>124.0</ele>
        <time>2019-05-17T13:56:03.154Z</time>
      </trkpt>
      <trkpt lat="39.496665" lon="-8.42767333">
        <ele>124.0</ele>
        <time>2019-05-17T13:56:04.183Z</time>
      </trkpt>
      <trkpt lat="39.496665" lon="-8.42767333">
        <ele>124.0</ele>
        <time>2019-05-17T13:56:05.189Z</time>
      </trkpt>
      <trkpt lat="39.49669333" lon="-8.42761833">
        <ele>123.0</ele>
        <time>2019-05-17T13:56:06.183Z</time>
      </trkpt>
      <trkpt lat="39.49669333" lon="-8.42761833">
        <ele>123.0</ele>
        <time>2019-05-17T13:56:07.172Z</time>
      </trkpt>
      <trkpt lat="39.49671833" lon="-8.42756333">
        <ele>124.0</ele>
        <time>2019-05-17T13:56:08.168Z</time>
      </trkpt>
      <trkpt lat="39.49671833" lon="-8.42756333">
        <ele>124.0</ele>
        <time>2019-05-17T13:56:09.183Z</time>
      </trkpt>
      <trkpt lat="39.49674" lon="-8.4275">
        <ele>124.0</ele>
        <time>2019-05-17T13:56:10.189Z</time>
      </trkpt>
      <trkpt lat="39.49674" lon="-8.4275">
        <ele>124.0</ele>
        <time>2019-05-17T13:56:11.156Z</time>
      </trkpt>
      <trkpt lat="39.49676167" lon="-8.42743167">
        <ele>124.0</ele>
        <time>2019-05-17T13:56:12.185Z</time>
      </trkpt>
      <trkpt lat="39.49676167" lon="-8.42743167">
        <ele>124.0</ele>
        <time>2019-05-17T13:56:13.165Z</time>
      </trkpt>
      <trkpt lat="39.49677667" lon="-8.42735333">
        <ele>124.0</ele>
        <time>2019-05-17T13:56:14.152Z</time>
      </trkpt>
      <trkpt lat="39.49677667" lon="-8.42735333">
        <ele>124.0</ele>
        <time>2019-05-17T13:56:15.177Z</time>
      </trkpt>
      <trkpt lat="39.49679" lon="-8.42727333">
        <ele>125.0</ele>
        <time>2019-05-17T13:56:16.175Z</time>
      </trkpt>
      <trkpt lat="39.49679" lon="-8.42727333">
        <ele>125.0</ele>
        <time>2019-05-17T13:56:17.156Z</time>
      </trkpt>
      <trkpt lat="39.49680833" lon="-8.42720833">
        <ele>125.0</ele>
        <time>2019-05-17T13:56:18.164Z</time>
      </trkpt>
      <trkpt lat="39.49680833" lon="-8.42720833">
        <ele>125.0</ele>
        <time>2019-05-17T13:56:19.181Z</time>
      </trkpt>
      <trkpt lat="39.49681833" lon="-8.42713833">
        <ele>126.0</ele>
        <time>2019-05-17T13:56:20.173Z</time>
      </trkpt>
      <trkpt lat="39.49681833" lon="-8.42713833">
        <ele>126.0</ele>
        <time>2019-05-17T13:56:21.150Z</time>
      </trkpt>
      <trkpt lat="39.496825" lon="-8.42707667">
        <ele>126.0</ele>
        <time>2019-05-17T13:56:22.185Z</time>
      </trkpt>
      <trkpt lat="39.496825" lon="-8.42707667">
        <ele>126.0</ele>
        <time>2019-05-17T13:56:23.161Z</time>
      </trkpt>
      <trkpt lat="39.49683167" lon="-8.427005">
        <ele>126.0</ele>
        <time>2019-05-17T13:56:24.195Z</time>
      </trkpt>
      <trkpt lat="39.496835" lon="-8.42696833">
        <ele>126.0</ele>
        <time>2019-05-17T13:56:25.152Z</time>
      </trkpt>
      <trkpt lat="39.49683833" lon="-8.42693167">
        <ele>126.0</ele>
        <time>2019-05-17T13:56:26.165Z</time>
      </trkpt>
      <trkpt lat="39.49683833" lon="-8.42693167">
        <ele>126.0</ele>
        <time>2019-05-17T13:56:27.153Z</time>
      </trkpt>
      <trkpt lat="39.496845" lon="-8.42686">
        <ele>126.0</ele>
        <time>2019-05-17T13:56:28.154Z</time>
      </trkpt>
      <trkpt lat="39.49684667" lon="-8.42682833">
        <ele>126.0</ele>
        <time>2019-05-17T13:56:29.172Z</time>
      </trkpt>
      <trkpt lat="39.49684667" lon="-8.42682833">
        <ele>126.0</ele>
        <time>2019-05-17T13:56:30.185Z</time>
      </trkpt>
      <trkpt lat="39.49685333" lon="-8.42676">
        <ele>127.0</ele>
        <time>2019-05-17T13:56:31.185Z</time>
      </trkpt>
      <trkpt lat="39.49685833" lon="-8.42672833">
        <ele>127.0</ele>
        <time>2019-05-17T13:56:32.170Z</time>
      </trkpt>
      <trkpt lat="39.49685833" lon="-8.42672833">
        <ele>127.0</ele>
        <time>2019-05-17T13:56:33.157Z</time>
      </trkpt>
      <trkpt lat="39.49686833" lon="-8.42666333">
        <ele>127.0</ele>
        <time>2019-05-17T13:56:34.155Z</time>
      </trkpt>
      <trkpt lat="39.49687333" lon="-8.42663">
        <ele>127.0</ele>
        <time>2019-05-17T13:56:35.169Z</time>
      </trkpt>
      <trkpt lat="39.49687333" lon="-8.42663">
        <ele>127.0</ele>
        <time>2019-05-17T13:56:36.175Z</time>
      </trkpt>
      <trkpt lat="39.49688" lon="-8.42656">
        <ele>127.0</ele>
        <time>2019-05-17T13:56:37.165Z</time>
      </trkpt>
      <trkpt lat="39.49688333" lon="-8.42652667">
        <ele>128.0</ele>
        <time>2019-05-17T13:56:38.175Z</time>
      </trkpt>
      <trkpt lat="39.49688333" lon="-8.42652667">
        <ele>128.0</ele>
        <time>2019-05-17T13:56:39.173Z</time>
      </trkpt>
      <trkpt lat="39.49688833" lon="-8.42646">
        <ele>128.0</ele>
        <time>2019-05-17T13:56:40.172Z</time>
      </trkpt>
      <trkpt lat="39.49688833" lon="-8.42646">
        <ele>128.0</ele>
        <time>2019-05-17T13:56:41.177Z</time>
      </trkpt>
      <trkpt lat="39.49689167" lon="-8.42639667">
        <ele>128.0</ele>
        <time>2019-05-17T13:56:42.181Z</time>
      </trkpt>
      <trkpt lat="39.49689167" lon="-8.42639667">
        <ele>128.0</ele>
        <time>2019-05-17T13:56:43.154Z</time>
      </trkpt>
      <trkpt lat="39.49689333" lon="-8.42633">
        <ele>129.0</ele>
        <time>2019-05-17T13:56:44.151Z</time>
      </trkpt>
      <trkpt lat="39.49689333" lon="-8.42633">
        <ele>129.0</ele>
        <time>2019-05-17T13:56:45.187Z</time>
      </trkpt>
      <trkpt lat="39.49689667" lon="-8.42626333">
        <ele>129.0</ele>
        <time>2019-05-17T13:56:46.176Z</time>
      </trkpt>
      <trkpt lat="39.49689667" lon="-8.42626333">
        <ele>129.0</ele>
        <time>2019-05-17T13:56:47.182Z</time>
      </trkpt>
      <trkpt lat="39.49689333" lon="-8.42621167">
        <ele>129.0</ele>
        <time>2019-05-17T13:56:48.187Z</time>
      </trkpt>
      <trkpt lat="39.49689333" lon="-8.42621167">
        <ele>129.0</ele>
        <time>2019-05-17T13:56:49.153Z</time>
      </trkpt>
      <trkpt lat="39.49690167" lon="-8.42615">
        <ele>129.0</ele>
        <time>2019-05-17T13:56:50.154Z</time>
      </trkpt>
      <trkpt lat="39.49690167" lon="-8.42615">
        <ele>129.0</ele>
        <time>2019-05-17T13:56:51.182Z</time>
      </trkpt>
      <trkpt lat="39.49690667" lon="-8.42609167">
        <ele>129.0</ele>
        <time>2019-05-17T13:56:52.191Z</time>
      </trkpt>
      <trkpt lat="39.49690667" lon="-8.42609167">
        <ele>129.0</ele>
        <time>2019-05-17T13:56:53.181Z</time>
      </trkpt>
      <trkpt lat="39.49690333" lon="-8.42603667">
        <ele>129.0</ele>
        <time>2019-05-17T13:56:54.180Z</time>
      </trkpt>
      <trkpt lat="39.49690333" lon="-8.42603667">
        <ele>129.0</ele>
        <time>2019-05-17T13:56:55.185Z</time>
      </trkpt>
      <trkpt lat="39.49691167" lon="-8.425985">
        <ele>130.0</ele>
        <time>2019-05-17T13:56:56.190Z</time>
      </trkpt>
      <trkpt lat="39.49691167" lon="-8.425985">
        <ele>130.0</ele>
        <time>2019-05-17T13:56:57.169Z</time>
      </trkpt>
      <trkpt lat="39.49691" lon="-8.42594">
        <ele>130.0</ele>
        <time>2019-05-17T13:56:58.156Z</time>
      </trkpt>
      <trkpt lat="39.49691" lon="-8.42594">
        <ele>130.0</ele>
        <time>2019-05-17T13:56:59.168Z</time>
      </trkpt>
      <trkpt lat="39.496905" lon="-8.42590333">
        <ele>130.0</ele>
        <time>2019-05-17T13:57:00.165Z</time>
      </trkpt>
      <trkpt lat="39.496905" lon="-8.42590333">
        <ele>130.0</ele>
        <time>2019-05-17T13:57:01.170Z</time>
      </trkpt>
      <trkpt lat="39.49689833" lon="-8.42585833">
        <ele>130.0</ele>
        <time>2019-05-17T13:57:02.175Z</time>
      </trkpt>
      <trkpt lat="39.49689833" lon="-8.42585833">
        <ele>130.0</ele>
        <time>2019-05-17T13:57:03.152Z</time>
      </trkpt>
      <trkpt lat="39.49689833" lon="-8.42580333">
        <ele>130.0</ele>
        <time>2019-05-17T13:57:04.151Z</time>
      </trkpt>
      <trkpt lat="39.49689833" lon="-8.42580333">
        <ele>130.0</ele>
        <time>2019-05-17T13:57:05.157Z</time>
      </trkpt>
      <trkpt lat="39.49690333" lon="-8.42576167">
        <ele>131.0</ele>
        <time>2019-05-17T13:57:06.152Z</time>
      </trkpt>
      <trkpt lat="39.49690333" lon="-8.42576167">
        <ele>131.0</ele>
        <time>2019-05-17T13:57:07.166Z</time>
      </trkpt>
      <trkpt lat="39.49691333" lon="-8.425715">
        <ele>131.0</ele>
        <time>2019-05-17T13:57:08.152Z</time>
      </trkpt>
      <trkpt lat="39.49691333" lon="-8.425715">
        <ele>131.0</ele>
        <time>2019-05-17T13:57:09.160Z</time>
      </trkpt>
      <trkpt lat="39.49690833" lon="-8.42567833">
        <ele>131.0</ele>
        <time>2019-05-17T13:57:10.187Z</time>
      </trkpt>
      <trkpt lat="39.496915" lon="-8.425655">
        <ele>131.0</ele>
        <time>2019-05-17T13:57:11.173Z</time>
      </trkpt>
      <trkpt lat="39.496915" lon="-8.425655">
        <ele>131.0</ele>
        <time>2019-05-17T13:57:12.183Z</time>
      </trkpt>
      <trkpt lat="39.496915" lon="-8.42561167">
        <ele>132.0</ele>
        <time>2019-05-17T13:57:13.169Z</time>
      </trkpt>
      <trkpt lat="39.49691167" lon="-8.42559833">
        <ele>132.0</ele>
        <time>2019-05-17T13:57:14.159Z</time>
      </trkpt>
      <trkpt lat="39.49691167" lon="-8.42559833">
        <ele>132.0</ele>
        <time>2019-05-17T13:57:15.182Z</time>
      </trkpt>
      <trkpt lat="39.496925" lon="-8.42555">
        <ele>133.0</ele>
        <time>2019-05-17T13:57:16.159Z</time>
      </trkpt>
      <trkpt lat="39.496925" lon="-8.42555">
        <ele>133.0</ele>
        <time>2019-05-17T13:57:17.167Z</time>
      </trkpt>
      <trkpt lat="39.49693667" lon="-8.425505">
        <ele>133.0</ele>
        <time>2019-05-17T13:57:18.161Z</time>
      </trkpt>
      <trkpt lat="39.49694167" lon="-8.425475">
        <ele>133.0</ele>
        <time>2019-05-17T13:57:19.176Z</time>
      </trkpt>
      <trkpt lat="39.49694167" lon="-8.42545167">
        <ele>133.0</ele>
        <time>2019-05-17T13:57:20.184Z</time>
      </trkpt>
      <trkpt lat="39.49694167" lon="-8.42545167">
        <ele>133.0</ele>
        <time>2019-05-17T13:57:21.151Z</time>
      </trkpt>
      <trkpt lat="39.49693833" lon="-8.42540167">
        <ele>133.0</ele>
        <time>2019-05-17T13:57:22.187Z</time>
      </trkpt>
      <trkpt lat="39.49693833" lon="-8.42540167">
        <ele>133.0</ele>
        <time>2019-05-17T13:57:23.170Z</time>
      </trkpt>
      <trkpt lat="39.49695" lon="-8.42534">
        <ele>134.0</ele>
        <time>2019-05-17T13:57:24.173Z</time>
      </trkpt>
      <trkpt lat="39.49695" lon="-8.42534">
        <ele>134.0</ele>
        <time>2019-05-17T13:57:25.173Z</time>
      </trkpt>
      <trkpt lat="39.49695333" lon="-8.42528333">
        <ele>134.0</ele>
        <time>2019-05-17T13:57:26.163Z</time>
      </trkpt>
      <trkpt lat="39.49695333" lon="-8.42528333">
        <ele>134.0</ele>
        <time>2019-05-17T13:57:27.153Z</time>
      </trkpt>
      <trkpt lat="39.49697" lon="-8.42522833">
        <ele>135.0</ele>
        <time>2019-05-17T13:57:28.195Z</time>
      </trkpt>
      <trkpt lat="39.49697" lon="-8.42522833">
        <ele>135.0</ele>
        <time>2019-05-17T13:57:29.169Z</time>
      </trkpt>
      <trkpt lat="39.49698" lon="-8.42517167">
        <ele>135.0</ele>
        <time>2019-05-17T13:57:30.173Z</time>
      </trkpt>
      <trkpt lat="39.49698" lon="-8.42517167">
        <ele>135.0</ele>
        <time>2019-05-17T13:57:31.160Z</time>
      </trkpt>
      <trkpt lat="39.496995" lon="-8.42512167">
        <ele>135.0</ele>
        <time>2019-05-17T13:57:32.174Z</time>
      </trkpt>
      <trkpt lat="39.496995" lon="-8.42512167">
        <ele>135.0</ele>
        <time>2019-05-17T13:57:33.183Z</time>
      </trkpt>
      <trkpt lat="39.49699833" lon="-8.425085">
        <ele>136.0</ele>
        <time>2019-05-17T13:57:34.179Z</time>
      </trkpt>
      <trkpt lat="39.49699833" lon="-8.425085">
        <ele>136.0</ele>
        <time>2019-05-17T13:57:35.150Z</time>
      </trkpt>
      <trkpt lat="39.496995" lon="-8.42503667">
        <ele>136.0</ele>
        <time>2019-05-17T13:57:36.155Z</time>
      </trkpt>
      <trkpt lat="39.496995" lon="-8.42503667">
        <ele>136.0</ele>
        <time>2019-05-17T13:57:37.160Z</time>
      </trkpt>
      <trkpt lat="39.49699333" lon="-8.42499333">
        <ele>136.0</ele>
        <time>2019-05-17T13:57:38.151Z</time>
      </trkpt>
      <trkpt lat="39.49699333" lon="-8.42499333">
        <ele>136.0</ele>
        <time>2019-05-17T13:57:39.155Z</time>
      </trkpt>
      <trkpt lat="39.49699833" lon="-8.424965">
        <ele>137.0</ele>
        <time>2019-05-17T13:57:40.157Z</time>
      </trkpt>
      <trkpt lat="39.49699833" lon="-8.424965">
        <ele>137.0</ele>
        <time>2019-05-17T13:57:41.161Z</time>
      </trkpt>
      <trkpt lat="39.49700333" lon="-8.42495667">
        <ele>137.0</ele>
        <time>2019-05-17T13:57:42.170Z</time>
      </trkpt>
      <trkpt lat="39.49700333" lon="-8.42495667">
        <ele>137.0</ele>
        <time>2019-05-17T13:57:43.178Z</time>
      </trkpt>
      <trkpt lat="39.49700333" lon="-8.42495667">
        <ele>137.0</ele>
        <time>2019-05-17T13:57:44.161Z</time>
      </trkpt>
      <trkpt lat="39.49700333" lon="-8.42495667">
        <ele>137.0</ele>
        <time>2019-05-17T13:57:45.167Z</time>
      </trkpt>
      <trkpt lat="39.49700333" lon="-8.42495667">
        <ele>137.0</ele>
        <time>2019-05-17T13:57:46.173Z</time>
      </trkpt>
      <trkpt lat="39.49700333" lon="-8.42495667">
        <ele>137.0</ele>
        <time>2019-05-17T13:57:47.179Z</time>
      </trkpt>
      <trkpt lat="39.49700333" lon="-8.42495667">
        <ele>137.0</ele>
        <time>2019-05-17T13:57:48.155Z</time>
      </trkpt>
      <trkpt lat="39.49700333" lon="-8.42495667">
        <ele>137.0</ele>
        <time>2019-05-17T13:57:49.165Z</time>
      </trkpt>
      <trkpt lat="39.49700333" lon="-8.42495667">
        <ele>137.0</ele>
        <time>2019-05-17T13:57:50.166Z</time>
      </trkpt>
      <trkpt lat="39.49700333" lon="-8.42495667">
        <ele>137.0</ele>
        <time>2019-05-17T13:57:51.165Z</time>
      </trkpt>
      <trkpt lat="39.49700333" lon="-8.42495667">
        <ele>137.0</ele>
        <time>2019-05-17T13:57:52.159Z</time>
      </trkpt>
      <trkpt lat="39.49700333" lon="-8.42495667">
        <ele>137.0</ele>
        <time>2019-05-17T13:57:53.165Z</time>
      </trkpt>
      <trkpt lat="39.49700333" lon="-8.42495667">
        <ele>137.0</ele>
        <time>2019-05-17T13:57:54.159Z</time>
      </trkpt>
      <trkpt lat="39.49700333" lon="-8.42495667">
        <ele>137.0</ele>
        <time>2019-05-17T13:57:55.164Z</time>
      </trkpt>
      <trkpt lat="39.49700333" lon="-8.42495667">
        <ele>137.0</ele>
        <time>2019-05-17T13:57:56.161Z</time>
      </trkpt>
      <trkpt lat="39.49700333" lon="-8.42495667">
        <ele>137.0</ele>
        <time>2019-05-17T13:57:57.164Z</time>
      </trkpt>
      <trkpt lat="39.49700333" lon="-8.42495667">
        <ele>137.0</ele>
        <time>2019-05-17T13:57:58.164Z</time>
      </trkpt>
      <trkpt lat="39.49700333" lon="-8.42495667">
        <ele>137.0</ele>
        <time>2019-05-17T13:57:59.159Z</time>
      </trkpt>
      <trkpt lat="39.49700333" lon="-8.42495667">
        <ele>137.0</ele>
        <time>2019-05-17T13:58:00.163Z</time>
      </trkpt>
      <trkpt lat="39.49700333" lon="-8.42495667">
        <ele>137.0</ele>
        <time>2019-05-17T13:58:01.164Z</time>
      </trkpt>
      <trkpt lat="39.49700333" lon="-8.42495667">
        <ele>137.0</ele>
        <time>2019-05-17T13:58:02.156Z</time>
      </trkpt>
      <trkpt lat="39.49700333" lon="-8.42495667">
        <ele>137.0</ele>
        <time>2019-05-17T13:58:03.163Z</time>
      </trkpt>
      <trkpt lat="39.49702" lon="-8.42488667">
        <ele>139.0</ele>
        <time>2019-05-17T13:58:04.166Z</time>
      </trkpt>
      <trkpt lat="39.49702" lon="-8.42488667">
        <ele>139.0</ele>
        <time>2019-05-17T13:58:05.164Z</time>
      </trkpt>
      <trkpt lat="39.49701667" lon="-8.42485333">
        <ele>139.0</ele>
        <time>2019-05-17T13:58:06.163Z</time>
      </trkpt>
      <trkpt lat="39.49702" lon="-8.42483333">
        <ele>139.0</ele>
        <time>2019-05-17T13:58:07.164Z</time>
      </trkpt>
      <trkpt lat="39.49702" lon="-8.42483333">
        <ele>139.0</ele>
        <time>2019-05-17T13:58:08.161Z</time>
      </trkpt>
      <trkpt lat="39.49701333" lon="-8.42477833">
        <ele>139.0</ele>
        <time>2019-05-17T13:58:09.184Z</time>
      </trkpt>
      <trkpt lat="39.49701333" lon="-8.42477833">
        <ele>139.0</ele>
        <time>2019-05-17T13:58:10.154Z</time>
      </trkpt>
      <trkpt lat="39.497" lon="-8.42471167">
        <ele>138.0</ele>
        <time>2019-05-17T13:58:11.150Z</time>
      </trkpt>
      <trkpt lat="39.497" lon="-8.42471167">
        <ele>138.0</ele>
        <time>2019-05-17T13:58:12.160Z</time>
      </trkpt>
      <trkpt lat="39.49700667" lon="-8.42464833">
        <ele>138.0</ele>
        <time>2019-05-17T13:58:13.153Z</time>
      </trkpt>
      <trkpt lat="39.49700833" lon="-8.42462167">
        <ele>138.0</ele>
        <time>2019-05-17T13:58:14.180Z</time>
      </trkpt>
      <trkpt lat="39.49700833" lon="-8.424595">
        <ele>138.0</ele>
        <time>2019-05-17T13:58:15.169Z</time>
      </trkpt>
      <trkpt lat="39.49700833" lon="-8.424595">
        <ele>138.0</ele>
        <time>2019-05-17T13:58:16.150Z</time>
      </trkpt>
      <trkpt lat="39.49702" lon="-8.42453333">
        <ele>138.0</ele>
        <time>2019-05-17T13:58:17.183Z</time>
      </trkpt>
      <trkpt lat="39.49702" lon="-8.42453333">
        <ele>138.0</ele>
        <time>2019-05-17T13:58:18.153Z</time>
      </trkpt>
      <trkpt lat="39.49702333" lon="-8.42446">
        <ele>138.0</ele>
        <time>2019-05-17T13:58:19.150Z</time>
      </trkpt>
      <trkpt lat="39.49701833" lon="-8.42443167">
        <ele>139.0</ele>
        <time>2019-05-17T13:58:20.151Z</time>
      </trkpt>
      <trkpt lat="39.49701833" lon="-8.42443167">
        <ele>139.0</ele>
        <time>2019-05-17T13:58:21.178Z</time>
      </trkpt>
      <trkpt lat="39.49702" lon="-8.424375">
        <ele>139.0</ele>
        <time>2019-05-17T13:58:22.180Z</time>
      </trkpt>
      <trkpt lat="39.49702167" lon="-8.424345">
        <ele>139.0</ele>
        <time>2019-05-17T13:58:23.155Z</time>
      </trkpt>
      <trkpt lat="39.49702167" lon="-8.424345">
        <ele>139.0</ele>
        <time>2019-05-17T13:58:24.167Z</time>
      </trkpt>
      <trkpt lat="39.497025" lon="-8.42429167">
        <ele>139.0</ele>
        <time>2019-05-17T13:58:25.175Z</time>
      </trkpt>
      <trkpt lat="39.49702167" lon="-8.42425833">
        <ele>139.0</ele>
        <time>2019-05-17T13:58:26.185Z</time>
      </trkpt>
      <trkpt lat="39.49702167" lon="-8.42425833">
        <ele>139.0</ele>
        <time>2019-05-17T13:58:27.177Z</time>
      </trkpt>
      <trkpt lat="39.497035" lon="-8.42419333">
        <ele>139.0</ele>
        <time>2019-05-17T13:58:28.169Z</time>
      </trkpt>
      <trkpt lat="39.497035" lon="-8.42419333">
        <ele>139.0</ele>
        <time>2019-05-17T13:58:29.174Z</time>
      </trkpt>
      <trkpt lat="39.49704167" lon="-8.42414">
        <ele>139.0</ele>
        <time>2019-05-17T13:58:30.168Z</time>
      </trkpt>
      <trkpt lat="39.49704167" lon="-8.42414">
        <ele>139.0</ele>
        <time>2019-05-17T13:58:31.183Z</time>
      </trkpt>
      <trkpt lat="39.49704833" lon="-8.42408333">
        <ele>139.0</ele>
        <time>2019-05-17T13:58:32.180Z</time>
      </trkpt>
      <trkpt lat="39.49704833" lon="-8.42408333">
        <ele>139.0</ele>
        <time>2019-05-17T13:58:33.151Z</time>
      </trkpt>
      <trkpt lat="39.497055" lon="-8.42401167">
        <ele>140.0</ele>
        <time>2019-05-17T13:58:34.185Z</time>
      </trkpt>
      <trkpt lat="39.497055" lon="-8.42401167">
        <ele>140.0</ele>
        <time>2019-05-17T13:58:35.165Z</time>
      </trkpt>
      <trkpt lat="39.497045" lon="-8.42392333">
        <ele>140.0</ele>
        <time>2019-05-17T13:58:36.155Z</time>
      </trkpt>
      <trkpt lat="39.49704667" lon="-8.42388833">
        <ele>140.0</ele>
        <time>2019-05-17T13:58:37.190Z</time>
      </trkpt>
      <trkpt lat="39.49704167" lon="-8.42385833">
        <ele>140.0</ele>
        <time>2019-05-17T13:58:38.157Z</time>
      </trkpt>
      <trkpt lat="39.49704167" lon="-8.42385833">
        <ele>140.0</ele>
        <time>2019-05-17T13:58:39.168Z</time>
      </trkpt>
      <trkpt lat="39.497035" lon="-8.423785">
        <ele>140.0</ele>
        <time>2019-05-17T13:58:40.209Z</time>
      </trkpt>
      <trkpt lat="39.497035" lon="-8.423785">
        <ele>140.0</ele>
        <time>2019-05-17T13:58:41.156Z</time>
      </trkpt>
      <trkpt lat="39.49702833" lon="-8.42371333">
        <ele>140.0</ele>
        <time>2019-05-17T13:58:42.156Z</time>
      </trkpt>
      <trkpt lat="39.49702333" lon="-8.42368333">
        <ele>140.0</ele>
        <time>2019-05-17T13:58:43.181Z</time>
      </trkpt>
      <trkpt lat="39.49702667" lon="-8.42365667">
        <ele>140.0</ele>
        <time>2019-05-17T13:58:44.174Z</time>
      </trkpt>
      <trkpt lat="39.49702667" lon="-8.42365667">
        <ele>140.0</ele>
        <time>2019-05-17T13:58:45.157Z</time>
      </trkpt>
      <trkpt lat="39.49704" lon="-8.42360167">
        <ele>140.0</ele>
        <time>2019-05-17T13:58:46.151Z</time>
      </trkpt>
      <trkpt lat="39.49704667" lon="-8.42357667">
        <ele>140.0</ele>
        <time>2019-05-17T13:58:47.185Z</time>
      </trkpt>
      <trkpt lat="39.49704667" lon="-8.42357667">
        <ele>140.0</ele>
        <time>2019-05-17T13:58:48.152Z</time>
      </trkpt>
      <trkpt lat="39.49705833" lon="-8.42354333">
        <ele>140.0</ele>
        <time>2019-05-17T13:58:49.179Z</time>
      </trkpt>
      <trkpt lat="39.49706667" lon="-8.423525">
        <ele>140.0</ele>
        <time>2019-05-17T13:58:50.159Z</time>
      </trkpt>
      <trkpt lat="39.49706667" lon="-8.423525">
        <ele>140.0</ele>
        <time>2019-05-17T13:58:51.168Z</time>
      </trkpt>
      <trkpt lat="39.49708833" lon="-8.4235">
        <ele>141.0</ele>
        <time>2019-05-17T13:58:52.163Z</time>
      </trkpt>
      <trkpt lat="39.49710167" lon="-8.42349833">
        <ele>141.0</ele>
        <time>2019-05-17T13:58:53.172Z</time>
      </trkpt>
      <trkpt lat="39.49710167" lon="-8.42349833">
        <ele>141.0</ele>
        <time>2019-05-17T13:58:54.156Z</time>
      </trkpt>
      <trkpt lat="39.497135" lon="-8.42350167">
        <ele>141.0</ele>
        <time>2019-05-17T13:58:55.167Z</time>
      </trkpt>
      <trkpt lat="39.49715" lon="-8.42351">
        <ele>141.0</ele>
        <time>2019-05-17T13:58:56.178Z</time>
      </trkpt>
      <trkpt lat="39.49715" lon="-8.42351">
        <ele>141.0</ele>
        <time>2019-05-17T13:58:57.184Z</time>
      </trkpt>
      <trkpt lat="39.49717167" lon="-8.42352833">
        <ele>141.0</ele>
        <time>2019-05-17T13:58:58.191Z</time>
      </trkpt>
      <trkpt lat="39.49717167" lon="-8.42352833">
        <ele>141.0</ele>
        <time>2019-05-17T13:58:59.156Z</time>
      </trkpt>
      <trkpt lat="39.49719167" lon="-8.42353167">
        <ele>141.0</ele>
        <time>2019-05-17T13:59:00.181Z</time>
      </trkpt>
      <trkpt lat="39.49719167" lon="-8.42353167">
        <ele>141.0</ele>
        <time>2019-05-17T13:59:01.188Z</time>
      </trkpt>
      <trkpt lat="39.49721667" lon="-8.42353833">
        <ele>141.0</ele>
        <time>2019-05-17T13:59:02.163Z</time>
      </trkpt>
      <trkpt lat="39.49721667" lon="-8.42353833">
        <ele>141.0</ele>
        <time>2019-05-17T13:59:03.159Z</time>
      </trkpt>
      <trkpt lat="39.49723667" lon="-8.42351333">
        <ele>141.0</ele>
        <time>2019-05-17T13:59:04.165Z</time>
      </trkpt>
      <trkpt lat="39.49723667" lon="-8.42351333">
        <ele>141.0</ele>
        <time>2019-05-17T13:59:05.170Z</time>
      </trkpt>
      <trkpt lat="39.49724333" lon="-8.42347">
        <ele>141.0</ele>
        <time>2019-05-17T13:59:06.165Z</time>
      </trkpt>
      <trkpt lat="39.49724333" lon="-8.42347">
        <ele>141.0</ele>
        <time>2019-05-17T13:59:07.182Z</time>
      </trkpt>
      <trkpt lat="39.497245" lon="-8.42341167">
        <ele>140.0</ele>
        <time>2019-05-17T13:59:08.173Z</time>
      </trkpt>
      <trkpt lat="39.497245" lon="-8.42341167">
        <ele>140.0</ele>
        <time>2019-05-17T13:59:09.159Z</time>
      </trkpt>
      <trkpt lat="39.49723167" lon="-8.42335167">
        <ele>140.0</ele>
        <time>2019-05-17T13:59:10.186Z</time>
      </trkpt>
      <trkpt lat="39.497225" lon="-8.42332167">
        <ele>139.0</ele>
        <time>2019-05-17T13:59:11.193Z</time>
      </trkpt>
      <trkpt lat="39.497225" lon="-8.42332167">
        <ele>139.0</ele>
        <time>2019-05-17T13:59:12.180Z</time>
      </trkpt>
      <trkpt lat="39.49722167" lon="-8.42326333">
        <ele>139.0</ele>
        <time>2019-05-17T13:59:13.190Z</time>
      </trkpt>
      <trkpt lat="39.49722167" lon="-8.42326333">
        <ele>139.0</ele>
        <time>2019-05-17T13:59:14.189Z</time>
      </trkpt>
      <trkpt lat="39.49722" lon="-8.42320667">
        <ele>138.0</ele>
        <time>2019-05-17T13:59:15.184Z</time>
      </trkpt>
      <trkpt lat="39.49721833" lon="-8.42318">
        <ele>138.0</ele>
        <time>2019-05-17T13:59:16.188Z</time>
      </trkpt>
      <trkpt lat="39.49721833" lon="-8.42318">
        <ele>138.0</ele>
        <time>2019-05-17T13:59:17.161Z</time>
      </trkpt>
      <trkpt lat="39.49722333" lon="-8.42312833">
        <ele>137.0</ele>
        <time>2019-05-17T13:59:18.185Z</time>
      </trkpt>
      <trkpt lat="39.49722833" lon="-8.42309667">
        <ele>137.0</ele>
        <time>2019-05-17T13:59:19.195Z</time>
      </trkpt>
      <trkpt lat="39.49722833" lon="-8.42309667">
        <ele>137.0</ele>
        <time>2019-05-17T13:59:20.170Z</time>
      </trkpt>
      <trkpt lat="39.49723333" lon="-8.42303167">
        <ele>136.0</ele>
        <time>2019-05-17T13:59:21.160Z</time>
      </trkpt>
      <trkpt lat="39.49723333" lon="-8.42303167">
        <ele>136.0</ele>
        <time>2019-05-17T13:59:22.178Z</time>
      </trkpt>
      <trkpt lat="39.49724833" lon="-8.42295833">
        <ele>135.0</ele>
        <time>2019-05-17T13:59:23.171Z</time>
      </trkpt>
      <trkpt lat="39.49724833" lon="-8.42295833">
        <ele>135.0</ele>
        <time>2019-05-17T13:59:24.177Z</time>
      </trkpt>
      <trkpt lat="39.497265" lon="-8.422895">
        <ele>134.0</ele>
        <time>2019-05-17T13:59:25.174Z</time>
      </trkpt>
      <trkpt lat="39.497265" lon="-8.422895">
        <ele>134.0</ele>
        <time>2019-05-17T13:59:26.180Z</time>
      </trkpt>
      <trkpt lat="39.49729167" lon="-8.42282833">
        <ele>133.0</ele>
        <time>2019-05-17T13:59:27.193Z</time>
      </trkpt>
      <trkpt lat="39.49729167" lon="-8.42282833">
        <ele>133.0</ele>
        <time>2019-05-17T13:59:28.164Z</time>
      </trkpt>
      <trkpt lat="39.49732833" lon="-8.422755">
        <ele>132.0</ele>
        <time>2019-05-17T13:59:29.162Z</time>
      </trkpt>
      <trkpt lat="39.49734667" lon="-8.42273">
        <ele>132.0</ele>
        <time>2019-05-17T13:59:30.180Z</time>
      </trkpt>
      <trkpt lat="39.49734667" lon="-8.42273">
        <ele>132.0</ele>
        <time>2019-05-17T13:59:31.157Z</time>
      </trkpt>
      <trkpt lat="39.49737833" lon="-8.42268333">
        <ele>131.0</ele>
        <time>2019-05-17T13:59:32.158Z</time>
      </trkpt>
      <trkpt lat="39.49737833" lon="-8.42268333">
        <ele>131.0</ele>
        <time>2019-05-17T13:59:33.165Z</time>
      </trkpt>
      <trkpt lat="39.49741833" lon="-8.42264333">
        <ele>130.0</ele>
        <time>2019-05-17T13:59:34.171Z</time>
      </trkpt>
      <trkpt lat="39.49741833" lon="-8.42264333">
        <ele>130.0</ele>
        <time>2019-05-17T13:59:35.176Z</time>
      </trkpt>
      <trkpt lat="39.49746" lon="-8.42259667">
        <ele>129.0</ele>
        <time>2019-05-17T13:59:36.172Z</time>
      </trkpt>
      <trkpt lat="39.49746" lon="-8.42259667">
        <ele>129.0</ele>
        <time>2019-05-17T13:59:37.178Z</time>
      </trkpt>
      <trkpt lat="39.497495" lon="-8.422555">
        <ele>128.0</ele>
        <time>2019-05-17T13:59:38.174Z</time>
      </trkpt>
      <trkpt lat="39.497495" lon="-8.422555">
        <ele>128.0</ele>
        <time>2019-05-17T13:59:39.151Z</time>
      </trkpt>
      <trkpt lat="39.49753667" lon="-8.42251">
        <ele>128.0</ele>
        <time>2019-05-17T13:59:40.188Z</time>
      </trkpt>
      <trkpt lat="39.49753667" lon="-8.42251">
        <ele>128.0</ele>
        <time>2019-05-17T13:59:41.154Z</time>
      </trkpt>
      <trkpt lat="39.49757333" lon="-8.42246833">
        <ele>127.0</ele>
        <time>2019-05-17T13:59:42.175Z</time>
      </trkpt>
      <trkpt lat="39.49757333" lon="-8.42246833">
        <ele>127.0</ele>
        <time>2019-05-17T13:59:43.181Z</time>
      </trkpt>
      <trkpt lat="39.497605" lon="-8.42243833">
        <ele>126.0</ele>
        <time>2019-05-17T13:59:44.184Z</time>
      </trkpt>
      <trkpt lat="39.497605" lon="-8.42243833">
        <ele>126.0</ele>
        <time>2019-05-17T13:59:45.155Z</time>
      </trkpt>
      <trkpt lat="39.49763667" lon="-8.42239667">
        <ele>125.0</ele>
        <time>2019-05-17T13:59:46.174Z</time>
      </trkpt>
      <trkpt lat="39.49763667" lon="-8.42239667">
        <ele>125.0</ele>
        <time>2019-05-17T13:59:47.151Z</time>
      </trkpt>
      <trkpt lat="39.49766833" lon="-8.42235167">
        <ele>124.0</ele>
        <time>2019-05-17T13:59:48.157Z</time>
      </trkpt>
      <trkpt lat="39.49766833" lon="-8.42235167">
        <ele>124.0</ele>
        <time>2019-05-17T13:59:49.173Z</time>
      </trkpt>
      <trkpt lat="39.49772667" lon="-8.42228667">
        <ele>123.0</ele>
        <time>2019-05-17T13:59:50.165Z</time>
      </trkpt>
      <trkpt lat="39.49772667" lon="-8.42228667">
        <ele>123.0</ele>
        <time>2019-05-17T13:59:51.156Z</time>
      </trkpt>
      <trkpt lat="39.4978" lon="-8.42222167">
        <ele>122.0</ele>
        <time>2019-05-17T13:59:52.151Z</time>
      </trkpt>
      <trkpt lat="39.4978" lon="-8.42222167">
        <ele>122.0</ele>
        <time>2019-05-17T13:59:53.160Z</time>
      </trkpt>
      <trkpt lat="39.49785167" lon="-8.42216167">
        <ele>122.0</ele>
        <time>2019-05-17T13:59:54.153Z</time>
      </trkpt>
      <trkpt lat="39.49785167" lon="-8.42216167">
        <ele>122.0</ele>
        <time>2019-05-17T13:59:55.188Z</time>
      </trkpt>
      <trkpt lat="39.49789833" lon="-8.42208667">
        <ele>121.0</ele>
        <time>2019-05-17T13:59:56.175Z</time>
      </trkpt>
      <trkpt lat="39.49789833" lon="-8.42208667">
        <ele>121.0</ele>
        <time>2019-05-17T13:59:57.158Z</time>
      </trkpt>
      <trkpt lat="39.49796167" lon="-8.42201667">
        <ele>120.0</ele>
        <time>2019-05-17T13:59:58.154Z</time>
      </trkpt>
      <trkpt lat="39.49796167" lon="-8.42201667">
        <ele>120.0</ele>
        <time>2019-05-17T13:59:59.183Z</time>
      </trkpt>
      <trkpt lat="39.498025" lon="-8.42195">
        <ele>119.0</ele>
        <time>2019-05-17T14:00:00.160Z</time>
      </trkpt>
      <trkpt lat="39.498025" lon="-8.42195">
        <ele>119.0</ele>
        <time>2019-05-17T14:00:01.184Z</time>
      </trkpt>
      <trkpt lat="39.4981" lon="-8.42185667">
        <ele>118.0</ele>
        <time>2019-05-17T14:00:02.175Z</time>
      </trkpt>
      <trkpt lat="39.4981" lon="-8.42185667">
        <ele>118.0</ele>
        <time>2019-05-17T14:00:03.180Z</time>
      </trkpt>
      <trkpt lat="39.49818667" lon="-8.42174167">
        <ele>117.0</ele>
        <time>2019-05-17T14:00:04.186Z</time>
      </trkpt>
      <trkpt lat="39.49818667" lon="-8.42174167">
        <ele>117.0</ele>
        <time>2019-05-17T14:00:05.169Z</time>
      </trkpt>
      <trkpt lat="39.49827833" lon="-8.42162167">
        <ele>116.0</ele>
        <time>2019-05-17T14:00:06.158Z</time>
      </trkpt>
      <trkpt lat="39.49831333" lon="-8.42157833">
        <ele>115.0</ele>
        <time>2019-05-17T14:00:07.159Z</time>
      </trkpt>
      <trkpt lat="39.49831333" lon="-8.42157833">
        <ele>115.0</ele>
        <time>2019-05-17T14:00:08.156Z</time>
      </trkpt>
      <trkpt lat="39.49837167" lon="-8.42151167">
        <ele>114.0</ele>
        <time>2019-05-17T14:00:09.159Z</time>
      </trkpt>
      <trkpt lat="39.49837167" lon="-8.42151167">
        <ele>114.0</ele>
        <time>2019-05-17T14:00:10.177Z</time>
      </trkpt>
      <trkpt lat="39.49842333" lon="-8.42145667">
        <ele>113.0</ele>
        <time>2019-05-17T14:00:11.182Z</time>
      </trkpt>
      <trkpt lat="39.498445" lon="-8.42143333">
        <ele>112.0</ele>
        <time>2019-05-17T14:00:12.188Z</time>
      </trkpt>
      <trkpt lat="39.498445" lon="-8.42143333">
        <ele>112.0</ele>
        <time>2019-05-17T14:00:13.174Z</time>
      </trkpt>
      <trkpt lat="39.49848333" lon="-8.42138667">
        <ele>111.0</ele>
        <time>2019-05-17T14:00:14.151Z</time>
      </trkpt>
      <trkpt lat="39.49848333" lon="-8.42138667">
        <ele>111.0</ele>
        <time>2019-05-17T14:00:15.170Z</time>
      </trkpt>
      <trkpt lat="39.49851667" lon="-8.42135">
        <ele>111.0</ele>
        <time>2019-05-17T14:00:16.164Z</time>
      </trkpt>
      <trkpt lat="39.49851667" lon="-8.42135">
        <ele>111.0</ele>
        <time>2019-05-17T14:00:17.151Z</time>
      </trkpt>
      <trkpt lat="39.49854667" lon="-8.42131667">
        <ele>110.0</ele>
        <time>2019-05-17T14:00:18.191Z</time>
      </trkpt>
      <trkpt lat="39.49856333" lon="-8.421295">
        <ele>110.0</ele>
        <time>2019-05-17T14:00:19.182Z</time>
      </trkpt>
      <trkpt lat="39.49856333" lon="-8.421295">
        <ele>110.0</ele>
        <time>2019-05-17T14:00:20.153Z</time>
      </trkpt>
      <trkpt lat="39.498595" lon="-8.421255">
        <ele>110.0</ele>
        <time>2019-05-17T14:00:21.190Z</time>
      </trkpt>
      <trkpt lat="39.49861" lon="-8.421235">
        <ele>110.0</ele>
        <time>2019-05-17T14:00:22.164Z</time>
      </trkpt>
      <trkpt lat="39.49861" lon="-8.421235">
        <ele>110.0</ele>
        <time>2019-05-17T14:00:23.184Z</time>
      </trkpt>
      <trkpt lat="39.49864333" lon="-8.42118833">
        <ele>109.0</ele>
        <time>2019-05-17T14:00:24.157Z</time>
      </trkpt>
      <trkpt lat="39.49866333" lon="-8.421165">
        <ele>109.0</ele>
        <time>2019-05-17T14:00:25.154Z</time>
      </trkpt>
      <trkpt lat="39.49866333" lon="-8.421165">
        <ele>109.0</ele>
        <time>2019-05-17T14:00:26.184Z</time>
      </trkpt>
      <trkpt lat="39.49870167" lon="-8.42111333">
        <ele>110.0</ele>
        <time>2019-05-17T14:00:27.167Z</time>
      </trkpt>
      <trkpt lat="39.49870167" lon="-8.42111333">
        <ele>110.0</ele>
        <time>2019-05-17T14:00:28.168Z</time>
      </trkpt>
      <trkpt lat="39.49874" lon="-8.42106833">
        <ele>110.0</ele>
        <time>2019-05-17T14:00:29.191Z</time>
      </trkpt>
      <trkpt lat="39.49874" lon="-8.42106833">
        <ele>110.0</ele>
        <time>2019-05-17T14:00:30.186Z</time>
      </trkpt>
      <trkpt lat="39.49876667" lon="-8.42103333">
        <ele>110.0</ele>
        <time>2019-05-17T14:00:31.185Z</time>
      </trkpt>
      <trkpt lat="39.49876667" lon="-8.42103333">
        <ele>110.0</ele>
        <time>2019-05-17T14:00:32.150Z</time>
      </trkpt>
      <trkpt lat="39.498795" lon="-8.421">
        <ele>110.0</ele>
        <time>2019-05-17T14:00:33.174Z</time>
      </trkpt>
      <trkpt lat="39.49881167" lon="-8.42098">
        <ele>110.0</ele>
        <time>2019-05-17T14:00:34.155Z</time>
      </trkpt>
      <trkpt lat="39.49881167" lon="-8.42098">
        <ele>110.0</ele>
        <time>2019-05-17T14:00:35.165Z</time>
      </trkpt>
      <trkpt lat="39.49882667" lon="-8.42096333">
        <ele>111.0</ele>
        <time>2019-05-17T14:00:36.156Z</time>
      </trkpt>
      <trkpt lat="39.498825" lon="-8.42096667">
        <ele>111.0</ele>
        <time>2019-05-17T14:00:37.161Z</time>
      </trkpt>
      <trkpt lat="39.49882667" lon="-8.42096333">
        <ele>111.0</ele>
        <time>2019-05-17T14:00:38.165Z</time>
      </trkpt>
      <trkpt lat="39.49882667" lon="-8.42096333">
        <ele>111.0</ele>
        <time>2019-05-17T14:00:39.151Z</time>
      </trkpt>
      <trkpt lat="39.49882667" lon="-8.42096333">
        <ele>111.0</ele>
        <time>2019-05-17T14:00:40.157Z</time>
      </trkpt>
      <trkpt lat="39.49882667" lon="-8.42096333">
        <ele>111.0</ele>
        <time>2019-05-17T14:00:41.163Z</time>
      </trkpt>
      <trkpt lat="39.49882667" lon="-8.42096333">
        <ele>111.0</ele>
        <time>2019-05-17T14:00:42.174Z</time>
      </trkpt>
      <trkpt lat="39.49882667" lon="-8.42096333">
        <ele>111.0</ele>
        <time>2019-05-17T14:00:43.166Z</time>
      </trkpt>
      <trkpt lat="39.49882667" lon="-8.42096333">
        <ele>111.0</ele>
        <time>2019-05-17T14:00:44.162Z</time>
      </trkpt>
      <trkpt lat="39.49882667" lon="-8.42096333">
        <ele>111.0</ele>
        <time>2019-05-17T14:00:45.179Z</time>
      </trkpt>
      <trkpt lat="39.49882667" lon="-8.42096333">
        <ele>111.0</ele>
        <time>2019-05-17T14:00:46.165Z</time>
      </trkpt>
      <trkpt lat="39.49882667" lon="-8.42096333">
        <ele>111.0</ele>
        <time>2019-05-17T14:00:47.163Z</time>
      </trkpt>
      <trkpt lat="39.49882667" lon="-8.42096333">
        <ele>111.0</ele>
        <time>2019-05-17T14:00:48.165Z</time>
      </trkpt>
      <trkpt lat="39.49882667" lon="-8.42096333">
        <ele>111.0</ele>
        <time>2019-05-17T14:00:49.159Z</time>
      </trkpt>
      <trkpt lat="39.49882667" lon="-8.42096333">
        <ele>111.0</ele>
        <time>2019-05-17T14:00:50.168Z</time>
      </trkpt>
      <trkpt lat="39.49882667" lon="-8.42096333">
        <ele>111.0</ele>
        <time>2019-05-17T14:00:51.159Z</time>
      </trkpt>
      <trkpt lat="39.49882667" lon="-8.42096333">
        <ele>111.0</ele>
        <time>2019-05-17T14:00:52.165Z</time>
      </trkpt>
      <trkpt lat="39.49882667" lon="-8.42096333">
        <ele>111.0</ele>
        <time>2019-05-17T14:00:53.166Z</time>
      </trkpt>
      <trkpt lat="39.49882667" lon="-8.42096333">
        <ele>111.0</ele>
        <time>2019-05-17T14:00:54.162Z</time>
      </trkpt>
      <trkpt lat="39.49882667" lon="-8.42096333">
        <ele>111.0</ele>
        <time>2019-05-17T14:00:55.159Z</time>
      </trkpt>
      <trkpt lat="39.49888833" lon="-8.420905">
        <ele>113.0</ele>
        <time>2019-05-17T14:00:56.166Z</time>
      </trkpt>
      <trkpt lat="39.49888833" lon="-8.420905">
        <ele>113.0</ele>
        <time>2019-05-17T14:00:57.163Z</time>
      </trkpt>
      <trkpt lat="39.49892" lon="-8.42085833">
        <ele>112.0</ele>
        <time>2019-05-17T14:00:58.164Z</time>
      </trkpt>
      <trkpt lat="39.49894167" lon="-8.42083667">
        <ele>112.0</ele>
        <time>2019-05-17T14:00:59.165Z</time>
      </trkpt>
      <trkpt lat="39.49894167" lon="-8.42083667">
        <ele>112.0</ele>
        <time>2019-05-17T14:01:00.163Z</time>
      </trkpt>
      <trkpt lat="39.49899" lon="-8.42078333">
        <ele>111.0</ele>
        <time>2019-05-17T14:01:01.172Z</time>
      </trkpt>
      <trkpt lat="39.49901667" lon="-8.42075833">
        <ele>111.0</ele>
        <time>2019-05-17T14:01:02.164Z</time>
      </trkpt>
      <trkpt lat="39.49901667" lon="-8.42075833">
        <ele>111.0</ele>
        <time>2019-05-17T14:01:03.184Z</time>
      </trkpt>
      <trkpt lat="39.49906167" lon="-8.42070167">
        <ele>110.0</ele>
        <time>2019-05-17T14:01:04.154Z</time>
      </trkpt>
      <trkpt lat="39.49906167" lon="-8.42070167">
        <ele>110.0</ele>
        <time>2019-05-17T14:01:05.160Z</time>
      </trkpt>
      <trkpt lat="39.49910667" lon="-8.420645">
        <ele>108.0</ele>
        <time>2019-05-17T14:01:06.165Z</time>
      </trkpt>
      <trkpt lat="39.49910667" lon="-8.420645">
        <ele>108.0</ele>
        <time>2019-05-17T14:01:07.180Z</time>
      </trkpt>
      <trkpt lat="39.49915333" lon="-8.42059667">
        <ele>107.0</ele>
        <time>2019-05-17T14:01:08.185Z</time>
      </trkpt>
      <trkpt lat="39.49915333" lon="-8.42059667">
        <ele>107.0</ele>
        <time>2019-05-17T14:01:09.156Z</time>
      </trkpt>
      <trkpt lat="39.49920167" lon="-8.42054">
        <ele>106.0</ele>
        <time>2019-05-17T14:01:10.175Z</time>
      </trkpt>
      <trkpt lat="39.49924167" lon="-8.42050167">
        <ele>105.0</ele>
        <time>2019-05-17T14:01:11.190Z</time>
      </trkpt>
      <trkpt lat="39.49928333" lon="-8.42046">
        <ele>104.0</ele>
        <time>2019-05-17T14:01:12.184Z</time>
      </trkpt>
      <trkpt lat="39.49928333" lon="-8.42046">
        <ele>104.0</ele>
        <time>2019-05-17T14:01:13.168Z</time>
      </trkpt>
      <trkpt lat="39.49937167" lon="-8.42036667">
        <ele>103.0</ele>
        <time>2019-05-17T14:01:14.154Z</time>
      </trkpt>
      <trkpt lat="39.49937167" lon="-8.42036667">
        <ele>103.0</ele>
        <time>2019-05-17T14:01:15.157Z</time>
      </trkpt>
      <trkpt lat="39.49943167" lon="-8.42028">
        <ele>102.0</ele>
        <time>2019-05-17T14:01:16.185Z</time>
      </trkpt>
      <trkpt lat="39.49943167" lon="-8.42028">
        <ele>102.0</ele>
        <time>2019-05-17T14:01:17.152Z</time>
      </trkpt>
      <trkpt lat="39.49948667" lon="-8.42020333">
        <ele>101.0</ele>
        <time>2019-05-17T14:01:18.182Z</time>
      </trkpt>
      <trkpt lat="39.49951833" lon="-8.42016333">
        <ele>100.0</ele>
        <time>2019-05-17T14:01:19.159Z</time>
      </trkpt>
      <trkpt lat="39.49951833" lon="-8.42016333">
        <ele>100.0</ele>
        <time>2019-05-17T14:01:20.187Z</time>
      </trkpt>
      <trkpt lat="39.499585" lon="-8.42007667">
        <ele>100.0</ele>
        <time>2019-05-17T14:01:21.187Z</time>
      </trkpt>
      <trkpt lat="39.49962333" lon="-8.42002833">
        <ele>99.0</ele>
        <time>2019-05-17T14:01:22.190Z</time>
      </trkpt>
      <trkpt lat="39.49962333" lon="-8.42002833">
        <ele>99.0</ele>
        <time>2019-05-17T14:01:23.170Z</time>
      </trkpt>
      <trkpt lat="39.49969" lon="-8.419935">
        <ele>99.0</ele>
        <time>2019-05-17T14:01:24.162Z</time>
      </trkpt>
      <trkpt lat="39.49969" lon="-8.419935">
        <ele>99.0</ele>
        <time>2019-05-17T14:01:25.168Z</time>
      </trkpt>
      <trkpt lat="39.49977167" lon="-8.41983">
        <ele>98.0</ele>
        <time>2019-05-17T14:01:26.175Z</time>
      </trkpt>
      <trkpt lat="39.49977167" lon="-8.41983">
        <ele>98.0</ele>
        <time>2019-05-17T14:01:27.152Z</time>
      </trkpt>
      <trkpt lat="39.49986833" lon="-8.41971833">
        <ele>97.0</ele>
        <time>2019-05-17T14:01:28.152Z</time>
      </trkpt>
      <trkpt lat="39.499925" lon="-8.41966833">
        <ele>97.0</ele>
        <time>2019-05-17T14:01:29.173Z</time>
      </trkpt>
      <trkpt lat="39.499925" lon="-8.41966833">
        <ele>97.0</ele>
        <time>2019-05-17T14:01:30.155Z</time>
      </trkpt>
      <trkpt lat="39.49998167" lon="-8.41958833">
        <ele>96.0</ele>
        <time>2019-05-17T14:01:31.155Z</time>
      </trkpt>
      <trkpt lat="39.50000167" lon="-8.41956833">
        <ele>96.0</ele>
        <time>2019-05-17T14:01:32.194Z</time>
      </trkpt>
      <trkpt lat="39.50000167" lon="-8.41956833">
        <ele>96.0</ele>
        <time>2019-05-17T14:01:33.177Z</time>
      </trkpt>
      <trkpt lat="39.50003333" lon="-8.41952833">
        <ele>96.0</ele>
        <time>2019-05-17T14:01:34.172Z</time>
      </trkpt>
      <trkpt lat="39.50005333" lon="-8.41951">
        <ele>96.0</ele>
        <time>2019-05-17T14:01:35.170Z</time>
      </trkpt>
      <trkpt lat="39.50005333" lon="-8.41951">
        <ele>96.0</ele>
        <time>2019-05-17T14:01:36.185Z</time>
      </trkpt>
      <trkpt lat="39.50006333" lon="-8.41949167">
        <ele>95.0</ele>
        <time>2019-05-17T14:01:37.167Z</time>
      </trkpt>
      <trkpt lat="39.500065" lon="-8.41949333">
        <ele>95.0</ele>
        <time>2019-05-17T14:01:38.160Z</time>
      </trkpt>
      <trkpt lat="39.50006167" lon="-8.41949333">
        <ele>95.0</ele>
        <time>2019-05-17T14:01:39.151Z</time>
      </trkpt>
      <trkpt lat="39.50006167" lon="-8.41949333">
        <ele>95.0</ele>
        <time>2019-05-17T14:01:40.157Z</time>
      </trkpt>
      <trkpt lat="39.50006167" lon="-8.41949333">
        <ele>95.0</ele>
        <time>2019-05-17T14:01:41.163Z</time>
      </trkpt>
      <trkpt lat="39.50006167" lon="-8.41949333">
        <ele>95.0</ele>
        <time>2019-05-17T14:01:42.173Z</time>
      </trkpt>
      <trkpt lat="39.50006167" lon="-8.41949333">
        <ele>95.0</ele>
        <time>2019-05-17T14:01:43.164Z</time>
      </trkpt>
      <trkpt lat="39.50006167" lon="-8.41949333">
        <ele>95.0</ele>
        <time>2019-05-17T14:01:44.164Z</time>
      </trkpt>
      <trkpt lat="39.50006167" lon="-8.41949333">
        <ele>95.0</ele>
        <time>2019-05-17T14:01:45.165Z</time>
      </trkpt>
      <trkpt lat="39.50006167" lon="-8.41949333">
        <ele>95.0</ele>
        <time>2019-05-17T14:01:46.167Z</time>
      </trkpt>
      <trkpt lat="39.50006167" lon="-8.41949333">
        <ele>95.0</ele>
        <time>2019-05-17T14:01:47.163Z</time>
      </trkpt>
      <trkpt lat="39.50006167" lon="-8.41949333">
        <ele>95.0</ele>
        <time>2019-05-17T14:01:48.164Z</time>
      </trkpt>
      <trkpt lat="39.50006167" lon="-8.41949333">
        <ele>95.0</ele>
        <time>2019-05-17T14:01:49.161Z</time>
      </trkpt>
      <trkpt lat="39.50006167" lon="-8.41949333">
        <ele>95.0</ele>
        <time>2019-05-17T14:01:50.168Z</time>
      </trkpt>
      <trkpt lat="39.50006167" lon="-8.41949333">
        <ele>95.0</ele>
        <time>2019-05-17T14:01:51.166Z</time>
      </trkpt>
      <trkpt lat="39.50006167" lon="-8.41949333">
        <ele>95.0</ele>
        <time>2019-05-17T14:01:52.160Z</time>
      </trkpt>
      <trkpt lat="39.50006167" lon="-8.41949333">
        <ele>95.0</ele>
        <time>2019-05-17T14:01:53.165Z</time>
      </trkpt>
      <trkpt lat="39.50006167" lon="-8.41949333">
        <ele>95.0</ele>
        <time>2019-05-17T14:01:54.160Z</time>
      </trkpt>
      <trkpt lat="39.50006167" lon="-8.41949333">
        <ele>95.0</ele>
        <time>2019-05-17T14:01:55.165Z</time>
      </trkpt>
      <trkpt lat="39.50006167" lon="-8.41949333">
        <ele>95.0</ele>
        <time>2019-05-17T14:01:56.161Z</time>
      </trkpt>
      <trkpt lat="39.50006167" lon="-8.41949333">
        <ele>95.0</ele>
        <time>2019-05-17T14:01:57.163Z</time>
      </trkpt>
      <trkpt lat="39.50006167" lon="-8.41949333">
        <ele>95.0</ele>
        <time>2019-05-17T14:01:58.165Z</time>
      </trkpt>
      <trkpt lat="39.50006167" lon="-8.41949333">
        <ele>95.0</ele>
        <time>2019-05-17T14:01:59.165Z</time>
      </trkpt>
      <trkpt lat="39.50006167" lon="-8.41949333">
        <ele>95.0</ele>
        <time>2019-05-17T14:02:00.162Z</time>
      </trkpt>
      <trkpt lat="39.50006167" lon="-8.41949333">
        <ele>95.0</ele>
        <time>2019-05-17T14:02:01.165Z</time>
      </trkpt>
      <trkpt lat="39.50006167" lon="-8.41949333">
        <ele>95.0</ele>
        <time>2019-05-17T14:02:02.161Z</time>
      </trkpt>
      <trkpt lat="39.50006167" lon="-8.41949333">
        <ele>95.0</ele>
        <time>2019-05-17T14:02:03.166Z</time>
      </trkpt>
      <trkpt lat="39.50006167" lon="-8.41949333">
        <ele>95.0</ele>
        <time>2019-05-17T14:02:04.160Z</time>
      </trkpt>
      <trkpt lat="39.50006167" lon="-8.41949333">
        <ele>95.0</ele>
        <time>2019-05-17T14:02:05.165Z</time>
      </trkpt>
      <trkpt lat="39.50006167" lon="-8.41949333">
        <ele>95.0</ele>
        <time>2019-05-17T14:02:06.166Z</time>
      </trkpt>
      <trkpt lat="39.50006167" lon="-8.41949333">
        <ele>95.0</ele>
        <time>2019-05-17T14:02:07.160Z</time>
      </trkpt>
      <trkpt lat="39.50006167" lon="-8.41949333">
        <ele>95.0</ele>
        <time>2019-05-17T14:02:08.187Z</time>
      </trkpt>
      <trkpt lat="39.50006167" lon="-8.41949333">
        <ele>95.0</ele>
        <time>2019-05-17T14:02:09.157Z</time>
      </trkpt>
      <trkpt lat="39.50006167" lon="-8.41949333">
        <ele>95.0</ele>
        <time>2019-05-17T14:02:10.176Z</time>
      </trkpt>
      <trkpt lat="39.50006167" lon="-8.41949333">
        <ele>95.0</ele>
        <time>2019-05-17T14:02:11.181Z</time>
      </trkpt>
      <trkpt lat="39.50006167" lon="-8.41949333">
        <ele>95.0</ele>
        <time>2019-05-17T14:02:12.187Z</time>
      </trkpt>
      <trkpt lat="39.50006167" lon="-8.41949333">
        <ele>95.0</ele>
        <time>2019-05-17T14:02:13.162Z</time>
      </trkpt>
      <trkpt lat="39.50006167" lon="-8.41949333">
        <ele>95.0</ele>
        <time>2019-05-17T14:02:14.164Z</time>
      </trkpt>
      <trkpt lat="39.50006167" lon="-8.41949333">
        <ele>95.0</ele>
        <time>2019-05-17T14:02:15.163Z</time>
      </trkpt>
      <trkpt lat="39.50006167" lon="-8.41949333">
        <ele>95.0</ele>
        <time>2019-05-17T14:02:16.160Z</time>
      </trkpt>
      <trkpt lat="39.50006167" lon="-8.41949333">
        <ele>95.0</ele>
        <time>2019-05-17T14:02:17.178Z</time>
      </trkpt>
      <trkpt lat="39.50006167" lon="-8.41949333">
        <ele>95.0</ele>
        <time>2019-05-17T14:02:18.170Z</time>
      </trkpt>
      <trkpt lat="39.50006167" lon="-8.41949333">
        <ele>95.0</ele>
        <time>2019-05-17T14:02:19.160Z</time>
      </trkpt>
      <trkpt lat="39.50006167" lon="-8.41949333">
        <ele>95.0</ele>
        <time>2019-05-17T14:02:20.166Z</time>
      </trkpt>
      <trkpt lat="39.50006167" lon="-8.41949333">
        <ele>95.0</ele>
        <time>2019-05-17T14:02:21.165Z</time>
      </trkpt>
      <trkpt lat="39.50006167" lon="-8.41949333">
        <ele>95.0</ele>
        <time>2019-05-17T14:02:22.160Z</time>
      </trkpt>
      <trkpt lat="39.50006167" lon="-8.41949333">
        <ele>95.0</ele>
        <time>2019-05-17T14:02:23.165Z</time>
      </trkpt>
      <trkpt lat="39.50006167" lon="-8.41949333">
        <ele>95.0</ele>
        <time>2019-05-17T14:02:24.163Z</time>
      </trkpt>
      <trkpt lat="39.50006167" lon="-8.41949333">
        <ele>95.0</ele>
        <time>2019-05-17T14:02:25.165Z</time>
      </trkpt>
      <trkpt lat="39.50006167" lon="-8.41949333">
        <ele>95.0</ele>
        <time>2019-05-17T14:02:26.161Z</time>
      </trkpt>
      <trkpt lat="39.50006167" lon="-8.41949333">
        <ele>95.0</ele>
        <time>2019-05-17T14:02:27.165Z</time>
      </trkpt>
      <trkpt lat="39.50006167" lon="-8.41949333">
        <ele>95.0</ele>
        <time>2019-05-17T14:02:28.167Z</time>
      </trkpt>
      <trkpt lat="39.50006167" lon="-8.41949333">
        <ele>95.0</ele>
        <time>2019-05-17T14:02:29.160Z</time>
      </trkpt>
      <trkpt lat="39.50006167" lon="-8.41949333">
        <ele>95.0</ele>
        <time>2019-05-17T14:02:30.164Z</time>
      </trkpt>
      <trkpt lat="39.50006167" lon="-8.41949333">
        <ele>95.0</ele>
        <time>2019-05-17T14:02:31.162Z</time>
      </trkpt>
      <trkpt lat="39.50006167" lon="-8.41949333">
        <ele>95.0</ele>
        <time>2019-05-17T14:02:32.168Z</time>
      </trkpt>
      <trkpt lat="39.50006167" lon="-8.41949333">
        <ele>95.0</ele>
        <time>2019-05-17T14:02:33.163Z</time>
      </trkpt>
      <trkpt lat="39.50006167" lon="-8.41949333">
        <ele>95.0</ele>
        <time>2019-05-17T14:02:34.165Z</time>
      </trkpt>
      <trkpt lat="39.50008167" lon="-8.41948833">
        <ele>98.0</ele>
        <time>2019-05-17T14:02:35.165Z</time>
      </trkpt>
      <trkpt lat="39.50008167" lon="-8.41948833">
        <ele>98.0</ele>
        <time>2019-05-17T14:02:36.163Z</time>
      </trkpt>
      <trkpt lat="39.500105" lon="-8.41945333">
        <ele>98.0</ele>
        <time>2019-05-17T14:02:37.165Z</time>
      </trkpt>
      <trkpt lat="39.500105" lon="-8.41945333">
        <ele>98.0</ele>
        <time>2019-05-17T14:02:38.161Z</time>
      </trkpt>
      <trkpt lat="39.50014" lon="-8.41941">
        <ele>98.0</ele>
        <time>2019-05-17T14:02:39.164Z</time>
      </trkpt>
      <trkpt lat="39.50014" lon="-8.41941">
        <ele>98.0</ele>
        <time>2019-05-17T14:02:40.166Z</time>
      </trkpt>
      <trkpt lat="39.50016667" lon="-8.41936667">
        <ele>97.0</ele>
        <time>2019-05-17T14:02:41.165Z</time>
      </trkpt>
      <trkpt lat="39.50016667" lon="-8.41936667">
        <ele>97.0</ele>
        <time>2019-05-17T14:02:42.163Z</time>
      </trkpt>
      <trkpt lat="39.50019167" lon="-8.41932667">
        <ele>97.0</ele>
        <time>2019-05-17T14:02:43.188Z</time>
      </trkpt>
      <trkpt lat="39.50019167" lon="-8.41932667">
        <ele>97.0</ele>
        <time>2019-05-17T14:02:44.156Z</time>
      </trkpt>
      <trkpt lat="39.50021667" lon="-8.41928833">
        <ele>97.0</ele>
        <time>2019-05-17T14:02:45.158Z</time>
      </trkpt>
      <trkpt lat="39.50023167" lon="-8.419275">
        <ele>97.0</ele>
        <time>2019-05-17T14:02:46.183Z</time>
      </trkpt>
      <trkpt lat="39.50023167" lon="-8.419275">
        <ele>97.0</ele>
        <time>2019-05-17T14:02:47.164Z</time>
      </trkpt>
      <trkpt lat="39.50025333" lon="-8.41925167">
        <ele>97.0</ele>
        <time>2019-05-17T14:02:48.153Z</time>
      </trkpt>
      <trkpt lat="39.50025333" lon="-8.41925167">
        <ele>97.0</ele>
        <time>2019-05-17T14:02:49.183Z</time>
      </trkpt>
      <trkpt lat="39.50027" lon="-8.41921667">
        <ele>97.0</ele>
        <time>2019-05-17T14:02:50.184Z</time>
      </trkpt>
      <trkpt lat="39.50027" lon="-8.41921667">
        <ele>97.0</ele>
        <time>2019-05-17T14:02:51.170Z</time>
      </trkpt>
      <trkpt lat="39.50029" lon="-8.41919">
        <ele>97.0</ele>
        <time>2019-05-17T14:02:52.164Z</time>
      </trkpt>
      <trkpt lat="39.5003" lon="-8.41917333">
        <ele>97.0</ele>
        <time>2019-05-17T14:02:53.177Z</time>
      </trkpt>
      <trkpt lat="39.5003" lon="-8.41917333">
        <ele>97.0</ele>
        <time>2019-05-17T14:02:54.171Z</time>
      </trkpt>
      <trkpt lat="39.50032167" lon="-8.41914">
        <ele>97.0</ele>
        <time>2019-05-17T14:02:55.170Z</time>
      </trkpt>
      <trkpt lat="39.50032167" lon="-8.41914">
        <ele>97.0</ele>
        <time>2019-05-17T14:02:56.175Z</time>
      </trkpt>
      <trkpt lat="39.50034" lon="-8.41911167">
        <ele>97.0</ele>
        <time>2019-05-17T14:02:57.181Z</time>
      </trkpt>
      <trkpt lat="39.50034" lon="-8.41911167">
        <ele>97.0</ele>
        <time>2019-05-17T14:02:58.162Z</time>
      </trkpt>
      <trkpt lat="39.500365" lon="-8.41906667">
        <ele>97.0</ele>
        <time>2019-05-17T14:02:59.155Z</time>
      </trkpt>
      <trkpt lat="39.500365" lon="-8.41906667">
        <ele>97.0</ele>
        <time>2019-05-17T14:03:00.167Z</time>
      </trkpt>
      <trkpt lat="39.50039" lon="-8.41903333">
        <ele>97.0</ele>
        <time>2019-05-17T14:03:01.159Z</time>
      </trkpt>
      <trkpt lat="39.50040333" lon="-8.41901333">
        <ele>97.0</ele>
        <time>2019-05-17T14:03:02.185Z</time>
      </trkpt>
      <trkpt lat="39.50040333" lon="-8.41901333">
        <ele>97.0</ele>
        <time>2019-05-17T14:03:03.153Z</time>
      </trkpt>
      <trkpt lat="39.50044" lon="-8.41897333">
        <ele>97.0</ele>
        <time>2019-05-17T14:03:04.185Z</time>
      </trkpt>
      <trkpt lat="39.50045333" lon="-8.41895333">
        <ele>97.0</ele>
        <time>2019-05-17T14:03:05.185Z</time>
      </trkpt>
      <trkpt lat="39.50045333" lon="-8.41895333">
        <ele>97.0</ele>
        <time>2019-05-17T14:03:06.154Z</time>
      </trkpt>
      <trkpt lat="39.50047667" lon="-8.41892833">
        <ele>97.0</ele>
        <time>2019-05-17T14:03:07.187Z</time>
      </trkpt>
      <trkpt lat="39.50048667" lon="-8.41891667">
        <ele>97.0</ele>
        <time>2019-05-17T14:03:08.185Z</time>
      </trkpt>
      <trkpt lat="39.50048667" lon="-8.41891667">
        <ele>97.0</ele>
        <time>2019-05-17T14:03:09.162Z</time>
      </trkpt>
      <trkpt lat="39.50050667" lon="-8.41889333">
        <ele>97.0</ele>
        <time>2019-05-17T14:03:10.175Z</time>
      </trkpt>
      <trkpt lat="39.50051833" lon="-8.41888833">
        <ele>97.0</ele>
        <time>2019-05-17T14:03:11.186Z</time>
      </trkpt>
      <trkpt lat="39.50051833" lon="-8.41888833">
        <ele>97.0</ele>
        <time>2019-05-17T14:03:12.181Z</time>
      </trkpt>
      <trkpt lat="39.50054333" lon="-8.41886333">
        <ele>97.0</ele>
        <time>2019-05-17T14:03:13.151Z</time>
      </trkpt>
      <trkpt lat="39.50055167" lon="-8.418855">
        <ele>98.0</ele>
        <time>2019-05-17T14:03:14.187Z</time>
      </trkpt>
      <trkpt lat="39.50055167" lon="-8.418855">
        <ele>98.0</ele>
        <time>2019-05-17T14:03:15.167Z</time>
      </trkpt>
      <trkpt lat="39.50057667" lon="-8.41882667">
        <ele>98.0</ele>
        <time>2019-05-17T14:03:16.165Z</time>
      </trkpt>
      <trkpt lat="39.50057667" lon="-8.41882667">
        <ele>98.0</ele>
        <time>2019-05-17T14:03:17.171Z</time>
      </trkpt>
      <trkpt lat="39.5006" lon="-8.418795">
        <ele>98.0</ele>
        <time>2019-05-17T14:03:18.169Z</time>
      </trkpt>
      <trkpt lat="39.5006" lon="-8.418795">
        <ele>98.0</ele>
        <time>2019-05-17T14:03:19.154Z</time>
      </trkpt>
      <trkpt lat="39.50063167" lon="-8.41877333">
        <ele>98.0</ele>
        <time>2019-05-17T14:03:20.155Z</time>
      </trkpt>
      <trkpt lat="39.50063167" lon="-8.41877333">
        <ele>98.0</ele>
        <time>2019-05-17T14:03:21.181Z</time>
      </trkpt>
      <trkpt lat="39.500655" lon="-8.41874833">
        <ele>98.0</ele>
        <time>2019-05-17T14:03:22.185Z</time>
      </trkpt>
      <trkpt lat="39.500655" lon="-8.41874833">
        <ele>98.0</ele>
        <time>2019-05-17T14:03:23.153Z</time>
      </trkpt>
      <trkpt lat="39.500685" lon="-8.418715">
        <ele>98.0</ele>
        <time>2019-05-17T14:03:24.182Z</time>
      </trkpt>
      <trkpt lat="39.500685" lon="-8.418715">
        <ele>98.0</ele>
        <time>2019-05-17T14:03:25.158Z</time>
      </trkpt>
      <trkpt lat="39.50071" lon="-8.418685">
        <ele>98.0</ele>
        <time>2019-05-17T14:03:26.195Z</time>
      </trkpt>
      <trkpt lat="39.50071" lon="-8.418685">
        <ele>98.0</ele>
        <time>2019-05-17T14:03:27.176Z</time>
      </trkpt>
      <trkpt lat="39.50073167" lon="-8.41865">
        <ele>99.0</ele>
        <time>2019-05-17T14:03:28.175Z</time>
      </trkpt>
      <trkpt lat="39.50073167" lon="-8.41865">
        <ele>99.0</ele>
        <time>2019-05-17T14:03:29.186Z</time>
      </trkpt>
      <trkpt lat="39.50075" lon="-8.418615">
        <ele>99.0</ele>
        <time>2019-05-17T14:03:30.190Z</time>
      </trkpt>
      <trkpt lat="39.50075" lon="-8.418615">
        <ele>99.0</ele>
        <time>2019-05-17T14:03:31.155Z</time>
      </trkpt>
      <trkpt lat="39.50077" lon="-8.41858">
        <ele>100.0</ele>
        <time>2019-05-17T14:03:32.188Z</time>
      </trkpt>
      <trkpt lat="39.50077" lon="-8.41858">
        <ele>100.0</ele>
        <time>2019-05-17T14:03:33.159Z</time>
      </trkpt>
      <trkpt lat="39.50079" lon="-8.41855333">
        <ele>100.0</ele>
        <time>2019-05-17T14:03:34.187Z</time>
      </trkpt>
      <trkpt lat="39.50079" lon="-8.41855333">
        <ele>100.0</ele>
        <time>2019-05-17T14:03:35.153Z</time>
      </trkpt>
      <trkpt lat="39.50081167" lon="-8.418525">
        <ele>101.0</ele>
        <time>2019-05-17T14:03:36.176Z</time>
      </trkpt>
      <trkpt lat="39.50081167" lon="-8.418525">
        <ele>101.0</ele>
        <time>2019-05-17T14:03:37.185Z</time>
      </trkpt>
      <trkpt lat="39.50083333" lon="-8.41850833">
        <ele>101.0</ele>
        <time>2019-05-17T14:03:38.193Z</time>
      </trkpt>
      <trkpt lat="39.50083333" lon="-8.41850833">
        <ele>101.0</ele>
        <time>2019-05-17T14:03:39.164Z</time>
      </trkpt>
      <trkpt lat="39.50085" lon="-8.41848167">
        <ele>102.0</ele>
        <time>2019-05-17T14:03:40.155Z</time>
      </trkpt>
      <trkpt lat="39.50085" lon="-8.41848167">
        <ele>102.0</ele>
        <time>2019-05-17T14:03:41.154Z</time>
      </trkpt>
      <trkpt lat="39.50087" lon="-8.41847">
        <ele>102.0</ele>
        <time>2019-05-17T14:03:42.185Z</time>
      </trkpt>
      <trkpt lat="39.50087833" lon="-8.41845833">
        <ele>102.0</ele>
        <time>2019-05-17T14:03:43.172Z</time>
      </trkpt>
      <trkpt lat="39.50087833" lon="-8.41845833">
        <ele>102.0</ele>
        <time>2019-05-17T14:03:44.177Z</time>
      </trkpt>
      <trkpt lat="39.50090167" lon="-8.41842833">
        <ele>102.0</ele>
        <time>2019-05-17T14:03:45.175Z</time>
      </trkpt>
      <trkpt lat="39.50090167" lon="-8.41842833">
        <ele>102.0</ele>
        <time>2019-05-17T14:03:46.180Z</time>
      </trkpt>
      <trkpt lat="39.50092333" lon="-8.418395">
        <ele>102.0</ele>
        <time>2019-05-17T14:03:47.172Z</time>
      </trkpt>
      <trkpt lat="39.50092333" lon="-8.418395">
        <ele>102.0</ele>
        <time>2019-05-17T14:03:48.180Z</time>
      </trkpt>
      <trkpt lat="39.50094667" lon="-8.41836333">
        <ele>102.0</ele>
        <time>2019-05-17T14:03:49.186Z</time>
      </trkpt>
      <trkpt lat="39.50096" lon="-8.41834667">
        <ele>102.0</ele>
        <time>2019-05-17T14:03:50.176Z</time>
      </trkpt>
      <trkpt lat="39.50096" lon="-8.41834667">
        <ele>102.0</ele>
        <time>2019-05-17T14:03:51.182Z</time>
      </trkpt>
      <trkpt lat="39.50099167" lon="-8.41831333">
        <ele>102.0</ele>
        <time>2019-05-17T14:03:52.159Z</time>
      </trkpt>
      <trkpt lat="39.50099167" lon="-8.41831333">
        <ele>102.0</ele>
        <time>2019-05-17T14:03:53.180Z</time>
      </trkpt>
      <trkpt lat="39.501015" lon="-8.418285">
        <ele>102.0</ele>
        <time>2019-05-17T14:03:54.157Z</time>
      </trkpt>
      <trkpt lat="39.501015" lon="-8.418285">
        <ele>102.0</ele>
        <time>2019-05-17T14:03:55.163Z</time>
      </trkpt>
      <trkpt lat="39.50104" lon="-8.41825667">
        <ele>102.0</ele>
        <time>2019-05-17T14:03:56.156Z</time>
      </trkpt>
      <trkpt lat="39.50104" lon="-8.41825667">
        <ele>102.0</ele>
        <time>2019-05-17T14:03:57.161Z</time>
      </trkpt>
      <trkpt lat="39.50108" lon="-8.41821333">
        <ele>102.0</ele>
        <time>2019-05-17T14:03:58.179Z</time>
      </trkpt>
      <trkpt lat="39.501105" lon="-8.41818667">
        <ele>102.0</ele>
        <time>2019-05-17T14:03:59.168Z</time>
      </trkpt>
      <trkpt lat="39.50112667" lon="-8.41815833">
        <ele>102.0</ele>
        <time>2019-05-17T14:04:00.170Z</time>
      </trkpt>
      <trkpt lat="39.50112667" lon="-8.41815833">
        <ele>102.0</ele>
        <time>2019-05-17T14:04:01.175Z</time>
      </trkpt>
      <trkpt lat="39.50117" lon="-8.41810667">
        <ele>102.0</ele>
        <time>2019-05-17T14:04:02.170Z</time>
      </trkpt>
      <trkpt lat="39.50117" lon="-8.41810667">
        <ele>102.0</ele>
        <time>2019-05-17T14:04:03.175Z</time>
      </trkpt>
      <trkpt lat="39.50119667" lon="-8.41807333">
        <ele>102.0</ele>
        <time>2019-05-17T14:04:04.165Z</time>
      </trkpt>
      <trkpt lat="39.50119667" lon="-8.41807333">
        <ele>102.0</ele>
        <time>2019-05-17T14:04:05.170Z</time>
      </trkpt>
      <trkpt lat="39.50121833" lon="-8.41804">
        <ele>102.0</ele>
        <time>2019-05-17T14:04:06.165Z</time>
      </trkpt>
      <trkpt lat="39.50121833" lon="-8.41804">
        <ele>102.0</ele>
        <time>2019-05-17T14:04:07.171Z</time>
      </trkpt>
      <trkpt lat="39.501245" lon="-8.41800333">
        <ele>103.0</ele>
        <time>2019-05-17T14:04:08.155Z</time>
      </trkpt>
      <trkpt lat="39.501245" lon="-8.41800333">
        <ele>103.0</ele>
        <time>2019-05-17T14:04:09.175Z</time>
      </trkpt>
      <trkpt lat="39.50126667" lon="-8.41796333">
        <ele>103.0</ele>
        <time>2019-05-17T14:04:10.189Z</time>
      </trkpt>
      <trkpt lat="39.50127667" lon="-8.41794">
        <ele>103.0</ele>
        <time>2019-05-17T14:04:11.158Z</time>
      </trkpt>
      <trkpt lat="39.50128833" lon="-8.41792167">
        <ele>103.0</ele>
        <time>2019-05-17T14:04:12.190Z</time>
      </trkpt>
      <trkpt lat="39.50128833" lon="-8.41792167">
        <ele>103.0</ele>
        <time>2019-05-17T14:04:13.158Z</time>
      </trkpt>
      <trkpt lat="39.501315" lon="-8.41789167">
        <ele>104.0</ele>
        <time>2019-05-17T14:04:14.180Z</time>
      </trkpt>
      <trkpt lat="39.501315" lon="-8.41789167">
        <ele>104.0</ele>
        <time>2019-05-17T14:04:15.153Z</time>
      </trkpt>
      <trkpt lat="39.50134667" lon="-8.41785833">
        <ele>104.0</ele>
        <time>2019-05-17T14:04:16.151Z</time>
      </trkpt>
      <trkpt lat="39.50134667" lon="-8.41785833">
        <ele>104.0</ele>
        <time>2019-05-17T14:04:17.182Z</time>
      </trkpt>
      <trkpt lat="39.501385" lon="-8.417815">
        <ele>104.0</ele>
        <time>2019-05-17T14:04:18.174Z</time>
      </trkpt>
      <trkpt lat="39.501385" lon="-8.417815">
        <ele>104.0</ele>
        <time>2019-05-17T14:04:19.171Z</time>
      </trkpt>
      <trkpt lat="39.50141833" lon="-8.41777">
        <ele>104.0</ele>
        <time>2019-05-17T14:04:20.172Z</time>
      </trkpt>
      <trkpt lat="39.50141833" lon="-8.41777">
        <ele>104.0</ele>
        <time>2019-05-17T14:04:21.154Z</time>
      </trkpt>
      <trkpt lat="39.50144333" lon="-8.417745">
        <ele>104.0</ele>
        <time>2019-05-17T14:04:22.186Z</time>
      </trkpt>
      <trkpt lat="39.50144333" lon="-8.417745">
        <ele>104.0</ele>
        <time>2019-05-17T14:04:23.155Z</time>
      </trkpt>
      <trkpt lat="39.50145667" lon="-8.41773167">
        <ele>104.0</ele>
        <time>2019-05-17T14:04:24.165Z</time>
      </trkpt>
      <trkpt lat="39.50145667" lon="-8.41773167">
        <ele>104.0</ele>
        <time>2019-05-17T14:04:25.185Z</time>
      </trkpt>
      <trkpt lat="39.50146167" lon="-8.417725">
        <ele>105.0</ele>
        <time>2019-05-17T14:04:26.153Z</time>
      </trkpt>
      <trkpt lat="39.50146167" lon="-8.417725">
        <ele>105.0</ele>
        <time>2019-05-17T14:04:27.186Z</time>
      </trkpt>
      <trkpt lat="39.50146167" lon="-8.41772333">
        <ele>105.0</ele>
        <time>2019-05-17T14:04:28.173Z</time>
      </trkpt>
      <trkpt lat="39.50146167" lon="-8.41772333">
        <ele>105.0</ele>
        <time>2019-05-17T14:04:29.164Z</time>
      </trkpt>
      <trkpt lat="39.50146167" lon="-8.41772333">
        <ele>105.0</ele>
        <time>2019-05-17T14:04:30.170Z</time>
      </trkpt>
      <trkpt lat="39.50146167" lon="-8.41772333">
        <ele>105.0</ele>
        <time>2019-05-17T14:04:31.175Z</time>
      </trkpt>
      <trkpt lat="39.50146167" lon="-8.41772333">
        <ele>105.0</ele>
        <time>2019-05-17T14:04:32.182Z</time>
      </trkpt>
      <trkpt lat="39.50146167" lon="-8.41772333">
        <ele>105.0</ele>
        <time>2019-05-17T14:04:33.152Z</time>
      </trkpt>
      <trkpt lat="39.50146167" lon="-8.41772333">
        <ele>105.0</ele>
        <time>2019-05-17T14:04:34.179Z</time>
      </trkpt>
      <trkpt lat="39.50146167" lon="-8.41772333">
        <ele>105.0</ele>
        <time>2019-05-17T14:04:35.167Z</time>
      </trkpt>
      <trkpt lat="39.50146167" lon="-8.41772333">
        <ele>105.0</ele>
        <time>2019-05-17T14:04:36.160Z</time>
      </trkpt>
      <trkpt lat="39.50146167" lon="-8.41772333">
        <ele>105.0</ele>
        <time>2019-05-17T14:04:37.163Z</time>
      </trkpt>
      <trkpt lat="39.50146167" lon="-8.41772333">
        <ele>105.0</ele>
        <time>2019-05-17T14:04:38.188Z</time>
      </trkpt>
      <trkpt lat="39.50146167" lon="-8.41772333">
        <ele>105.0</ele>
        <time>2019-05-17T14:04:39.177Z</time>
      </trkpt>
      <trkpt lat="39.50148167" lon="-8.41773">
        <ele>107.0</ele>
        <time>2019-05-17T14:04:40.165Z</time>
      </trkpt>
      <trkpt lat="39.50148167" lon="-8.41773">
        <ele>107.0</ele>
        <time>2019-05-17T14:04:41.159Z</time>
      </trkpt>
      <trkpt lat="39.50148833" lon="-8.41773333">
        <ele>107.0</ele>
        <time>2019-05-17T14:04:42.164Z</time>
      </trkpt>
      <trkpt lat="39.50148833" lon="-8.41773333">
        <ele>107.0</ele>
        <time>2019-05-17T14:04:43.160Z</time>
      </trkpt>
      <trkpt lat="39.50149333" lon="-8.41773167">
        <ele>107.0</ele>
        <time>2019-05-17T14:04:44.164Z</time>
      </trkpt>
      <trkpt lat="39.50149333" lon="-8.41773167">
        <ele>107.0</ele>
        <time>2019-05-17T14:04:45.160Z</time>
      </trkpt>
      <trkpt lat="39.50149333" lon="-8.41773167">
        <ele>107.0</ele>
        <time>2019-05-17T14:04:46.165Z</time>
      </trkpt>
      <trkpt lat="39.50149333" lon="-8.41773167">
        <ele>107.0</ele>
        <time>2019-05-17T14:04:47.160Z</time>
      </trkpt>
      <trkpt lat="39.50149333" lon="-8.41773167">
        <ele>107.0</ele>
        <time>2019-05-17T14:04:48.164Z</time>
      </trkpt>
      <trkpt lat="39.50149333" lon="-8.41773167">
        <ele>107.0</ele>
        <time>2019-05-17T14:04:49.160Z</time>
      </trkpt>
      <trkpt lat="39.50149333" lon="-8.41773167">
        <ele>107.0</ele>
        <time>2019-05-17T14:04:50.167Z</time>
      </trkpt>
      <trkpt lat="39.50149333" lon="-8.41773167">
        <ele>107.0</ele>
        <time>2019-05-17T14:04:51.160Z</time>
      </trkpt>
      <trkpt lat="39.50150333" lon="-8.41772167">
        <ele>107.0</ele>
        <time>2019-05-17T14:04:52.165Z</time>
      </trkpt>
      <trkpt lat="39.50150333" lon="-8.41772167">
        <ele>107.0</ele>
        <time>2019-05-17T14:04:53.160Z</time>
      </trkpt>
      <trkpt lat="39.50150333" lon="-8.41772167">
        <ele>107.0</ele>
        <time>2019-05-17T14:04:54.185Z</time>
      </trkpt>
      <trkpt lat="39.50150333" lon="-8.41772167">
        <ele>107.0</ele>
        <time>2019-05-17T14:04:55.170Z</time>
      </trkpt>
      <trkpt lat="39.50150333" lon="-8.41772167">
        <ele>107.0</ele>
        <time>2019-05-17T14:04:56.162Z</time>
      </trkpt>
      <trkpt lat="39.50150333" lon="-8.41772167">
        <ele>107.0</ele>
        <time>2019-05-17T14:04:57.165Z</time>
      </trkpt>
      <trkpt lat="39.50150333" lon="-8.41772167">
        <ele>107.0</ele>
        <time>2019-05-17T14:04:58.160Z</time>
      </trkpt>
      <trkpt lat="39.50150333" lon="-8.41772167">
        <ele>107.0</ele>
        <time>2019-05-17T14:04:59.164Z</time>
      </trkpt>
      <trkpt lat="39.50150333" lon="-8.41772167">
        <ele>107.0</ele>
        <time>2019-05-17T14:05:00.160Z</time>
      </trkpt>
      <trkpt lat="39.50150333" lon="-8.41772167">
        <ele>107.0</ele>
        <time>2019-05-17T14:05:01.186Z</time>
      </trkpt>
      <trkpt lat="39.50150333" lon="-8.41772167">
        <ele>107.0</ele>
        <time>2019-05-17T14:05:02.173Z</time>
      </trkpt>
      <trkpt lat="39.50150333" lon="-8.41772167">
        <ele>107.0</ele>
        <time>2019-05-17T14:05:03.160Z</time>
      </trkpt>
      <trkpt lat="39.50150333" lon="-8.41772167">
        <ele>107.0</ele>
        <time>2019-05-17T14:05:04.164Z</time>
      </trkpt>
      <trkpt lat="39.50150333" lon="-8.41772167">
        <ele>107.0</ele>
        <time>2019-05-17T14:05:05.165Z</time>
      </trkpt>
      <trkpt lat="39.50150333" lon="-8.41772167">
        <ele>107.0</ele>
        <time>2019-05-17T14:05:06.173Z</time>
      </trkpt>
      <trkpt lat="39.50150333" lon="-8.41772167">
        <ele>107.0</ele>
        <time>2019-05-17T14:05:07.164Z</time>
      </trkpt>
      <trkpt lat="39.50150333" lon="-8.41772167">
        <ele>107.0</ele>
        <time>2019-05-17T14:05:08.167Z</time>
      </trkpt>
      <trkpt lat="39.50150333" lon="-8.41772167">
        <ele>107.0</ele>
        <time>2019-05-17T14:05:09.166Z</time>
      </trkpt>
      <trkpt lat="39.50150667" lon="-8.41769333">
        <ele>107.0</ele>
        <time>2019-05-17T14:05:10.158Z</time>
      </trkpt>
      <trkpt lat="39.50151333" lon="-8.41767167">
        <ele>107.0</ele>
        <time>2019-05-17T14:05:11.164Z</time>
      </trkpt>
      <trkpt lat="39.50151333" lon="-8.41767167">
        <ele>107.0</ele>
        <time>2019-05-17T14:05:12.170Z</time>
      </trkpt>
      <trkpt lat="39.50153167" lon="-8.41763">
        <ele>107.0</ele>
        <time>2019-05-17T14:05:13.177Z</time>
      </trkpt>
      <trkpt lat="39.50153833" lon="-8.417605">
        <ele>107.0</ele>
        <time>2019-05-17T14:05:14.168Z</time>
      </trkpt>
      <trkpt lat="39.50153833" lon="-8.417605">
        <ele>107.0</ele>
        <time>2019-05-17T14:05:15.181Z</time>
      </trkpt>
      <trkpt lat="39.501565" lon="-8.417565">
        <ele>107.0</ele>
        <time>2019-05-17T14:05:16.168Z</time>
      </trkpt>
      <trkpt lat="39.50157667" lon="-8.41755333">
        <ele>107.0</ele>
        <time>2019-05-17T14:05:17.150Z</time>
      </trkpt>
      <trkpt lat="39.50157667" lon="-8.41755333">
        <ele>107.0</ele>
        <time>2019-05-17T14:05:18.176Z</time>
      </trkpt>
      <trkpt lat="39.50158667" lon="-8.41752667">
        <ele>107.0</ele>
        <time>2019-05-17T14:05:19.184Z</time>
      </trkpt>
      <trkpt lat="39.50159833" lon="-8.41751833">
        <ele>107.0</ele>
        <time>2019-05-17T14:05:20.175Z</time>
      </trkpt>
      <trkpt lat="39.50159833" lon="-8.41751833">
        <ele>107.0</ele>
        <time>2019-05-17T14:05:21.183Z</time>
      </trkpt>
      <trkpt lat="39.50162833" lon="-8.41750333">
        <ele>107.0</ele>
        <time>2019-05-17T14:05:22.175Z</time>
      </trkpt>
      <trkpt lat="39.50162833" lon="-8.41750333">
        <ele>107.0</ele>
        <time>2019-05-17T14:05:23.184Z</time>
      </trkpt>
      <trkpt lat="39.50165" lon="-8.41747167">
        <ele>107.0</ele>
        <time>2019-05-17T14:05:24.173Z</time>
      </trkpt>
      <trkpt lat="39.50165" lon="-8.41747167">
        <ele>107.0</ele>
        <time>2019-05-17T14:05:25.181Z</time>
      </trkpt>
      <trkpt lat="39.50167333" lon="-8.41742667">
        <ele>107.0</ele>
        <time>2019-05-17T14:05:26.185Z</time>
      </trkpt>
      <trkpt lat="39.50167333" lon="-8.41742667">
        <ele>107.0</ele>
        <time>2019-05-17T14:05:27.150Z</time>
      </trkpt>
      <trkpt lat="39.50169333" lon="-8.41737">
        <ele>107.0</ele>
        <time>2019-05-17T14:05:28.152Z</time>
      </trkpt>
      <trkpt lat="39.50170667" lon="-8.417345">
        <ele>107.0</ele>
        <time>2019-05-17T14:05:29.157Z</time>
      </trkpt>
      <trkpt lat="39.50170667" lon="-8.417345">
        <ele>107.0</ele>
        <time>2019-05-17T14:05:30.163Z</time>
      </trkpt>
      <trkpt lat="39.50172833" lon="-8.41729667">
        <ele>107.0</ele>
        <time>2019-05-17T14:05:31.156Z</time>
      </trkpt>
      <trkpt lat="39.50173833" lon="-8.41727167">
        <ele>106.0</ele>
        <time>2019-05-17T14:05:32.170Z</time>
      </trkpt>
      <trkpt lat="39.50173833" lon="-8.41727167">
        <ele>106.0</ele>
        <time>2019-05-17T14:05:33.156Z</time>
      </trkpt>
      <trkpt lat="39.50175833" lon="-8.41721">
        <ele>107.0</ele>
        <time>2019-05-17T14:05:34.169Z</time>
      </trkpt>
      <trkpt lat="39.50175833" lon="-8.41721">
        <ele>107.0</ele>
        <time>2019-05-17T14:05:35.183Z</time>
      </trkpt>
      <trkpt lat="39.50178" lon="-8.41714167">
        <ele>107.0</ele>
        <time>2019-05-17T14:05:36.174Z</time>
      </trkpt>
      <trkpt lat="39.50179333" lon="-8.41710833">
        <ele>107.0</ele>
        <time>2019-05-17T14:05:37.187Z</time>
      </trkpt>
      <trkpt lat="39.501805" lon="-8.41707167">
        <ele>107.0</ele>
        <time>2019-05-17T14:05:38.164Z</time>
      </trkpt>
      <trkpt lat="39.501805" lon="-8.41707167">
        <ele>107.0</ele>
        <time>2019-05-17T14:05:39.183Z</time>
      </trkpt>
      <trkpt lat="39.50182667" lon="-8.41700167">
        <ele>107.0</ele>
        <time>2019-05-17T14:05:40.165Z</time>
      </trkpt>
      <trkpt lat="39.50182667" lon="-8.41700167">
        <ele>107.0</ele>
        <time>2019-05-17T14:05:41.182Z</time>
      </trkpt>
      <trkpt lat="39.50185" lon="-8.41693833">
        <ele>107.0</ele>
        <time>2019-05-17T14:05:42.195Z</time>
      </trkpt>
      <trkpt lat="39.50185" lon="-8.41693833">
        <ele>107.0</ele>
        <time>2019-05-17T14:05:43.160Z</time>
      </trkpt>
      <trkpt lat="39.50187167" lon="-8.41687333">
        <ele>107.0</ele>
        <time>2019-05-17T14:05:44.162Z</time>
      </trkpt>
      <trkpt lat="39.50187167" lon="-8.41687333">
        <ele>107.0</ele>
        <time>2019-05-17T14:05:45.167Z</time>
      </trkpt>
      <trkpt lat="39.50189667" lon="-8.416805">
        <ele>107.0</ele>
        <time>2019-05-17T14:05:46.159Z</time>
      </trkpt>
      <trkpt lat="39.50189667" lon="-8.416805">
        <ele>107.0</ele>
        <time>2019-05-17T14:05:47.164Z</time>
      </trkpt>
      <trkpt lat="39.50192667" lon="-8.416735">
        <ele>106.0</ele>
        <time>2019-05-17T14:05:48.167Z</time>
      </trkpt>
      <trkpt lat="39.50192667" lon="-8.416735">
        <ele>106.0</ele>
        <time>2019-05-17T14:05:49.185Z</time>
      </trkpt>
      <trkpt lat="39.50196667" lon="-8.416655">
        <ele>105.0</ele>
        <time>2019-05-17T14:05:50.184Z</time>
      </trkpt>
      <trkpt lat="39.50196667" lon="-8.416655">
        <ele>105.0</ele>
        <time>2019-05-17T14:05:51.154Z</time>
      </trkpt>
      <trkpt lat="39.502015" lon="-8.41657667">
        <ele>104.0</ele>
        <time>2019-05-17T14:05:52.188Z</time>
      </trkpt>
      <trkpt lat="39.502015" lon="-8.41657667">
        <ele>104.0</ele>
        <time>2019-05-17T14:05:53.154Z</time>
      </trkpt>
      <trkpt lat="39.50206833" lon="-8.416515">
        <ele>104.0</ele>
        <time>2019-05-17T14:05:54.157Z</time>
      </trkpt>
      <trkpt lat="39.50206833" lon="-8.416515">
        <ele>104.0</ele>
        <time>2019-05-17T14:05:55.183Z</time>
      </trkpt>
      <trkpt lat="39.50212167" lon="-8.41648833">
        <ele>103.0</ele>
        <time>2019-05-17T14:05:56.175Z</time>
      </trkpt>
      <trkpt lat="39.50212167" lon="-8.41648833">
        <ele>103.0</ele>
        <time>2019-05-17T14:05:57.168Z</time>
      </trkpt>
      <trkpt lat="39.50217833" lon="-8.41647833">
        <ele>103.0</ele>
        <time>2019-05-17T14:05:58.170Z</time>
      </trkpt>
      <trkpt lat="39.50220333" lon="-8.41647667">
        <ele>103.0</ele>
        <time>2019-05-17T14:05:59.186Z</time>
      </trkpt>
      <trkpt lat="39.50223167" lon="-8.41648333">
        <ele>102.0</ele>
        <time>2019-05-17T14:06:00.160Z</time>
      </trkpt>
      <trkpt lat="39.50223167" lon="-8.41648333">
        <ele>102.0</ele>
        <time>2019-05-17T14:06:01.171Z</time>
      </trkpt>
      <trkpt lat="39.502305" lon="-8.41649667">
        <ele>102.0</ele>
        <time>2019-05-17T14:06:02.155Z</time>
      </trkpt>
      <trkpt lat="39.502305" lon="-8.41649667">
        <ele>102.0</ele>
        <time>2019-05-17T14:06:03.165Z</time>
      </trkpt>
      <trkpt lat="39.502395" lon="-8.41651333">
        <ele>101.0</ele>
        <time>2019-05-17T14:06:04.175Z</time>
      </trkpt>
      <trkpt lat="39.502395" lon="-8.41651333">
        <ele>101.0</ele>
        <time>2019-05-17T14:06:05.154Z</time>
      </trkpt>
      <trkpt lat="39.50250333" lon="-8.41652667">
        <ele>101.0</ele>
        <time>2019-05-17T14:06:06.189Z</time>
      </trkpt>
      <trkpt lat="39.50256167" lon="-8.41653333">
        <ele>100.0</ele>
        <time>2019-05-17T14:06:07.156Z</time>
      </trkpt>
      <trkpt lat="39.50261333" lon="-8.416535">
        <ele>100.0</ele>
        <time>2019-05-17T14:06:08.175Z</time>
      </trkpt>
      <trkpt lat="39.50261333" lon="-8.416535">
        <ele>100.0</ele>
        <time>2019-05-17T14:06:09.154Z</time>
      </trkpt>
      <trkpt lat="39.50270167" lon="-8.41652167">
        <ele>98.0</ele>
        <time>2019-05-17T14:06:10.153Z</time>
      </trkpt>
      <trkpt lat="39.50273833" lon="-8.416505">
        <ele>98.0</ele>
        <time>2019-05-17T14:06:11.170Z</time>
      </trkpt>
      <trkpt lat="39.50273833" lon="-8.416505">
        <ele>98.0</ele>
        <time>2019-05-17T14:06:12.183Z</time>
      </trkpt>
      <trkpt lat="39.502805" lon="-8.416445">
        <ele>97.0</ele>
        <time>2019-05-17T14:06:13.185Z</time>
      </trkpt>
      <trkpt lat="39.502825" lon="-8.41640333">
        <ele>96.0</ele>
        <time>2019-05-17T14:06:14.169Z</time>
      </trkpt>
      <trkpt lat="39.50284333" lon="-8.41635833">
        <ele>95.0</ele>
        <time>2019-05-17T14:06:15.175Z</time>
      </trkpt>
      <trkpt lat="39.50284333" lon="-8.41635833">
        <ele>95.0</ele>
        <time>2019-05-17T14:06:16.161Z</time>
      </trkpt>
      <trkpt lat="39.50286667" lon="-8.41626">
        <ele>94.0</ele>
        <time>2019-05-17T14:06:17.159Z</time>
      </trkpt>
      <trkpt lat="39.50286667" lon="-8.41626">
        <ele>94.0</ele>
        <time>2019-05-17T14:06:18.172Z</time>
      </trkpt>
      <trkpt lat="39.50287333" lon="-8.41620833">
        <ele>94.0</ele>
        <time>2019-05-17T14:06:19.176Z</time>
      </trkpt>
      <trkpt lat="39.50287333" lon="-8.416205">
        <ele>94.0</ele>
        <time>2019-05-17T14:06:20.155Z</time>
      </trkpt>
      <trkpt lat="39.50287333" lon="-8.416205">
        <ele>94.0</ele>
        <time>2019-05-17T14:06:21.162Z</time>
      </trkpt>
      <trkpt lat="39.502885" lon="-8.41621">
        <ele>94.0</ele>
        <time>2019-05-17T14:06:22.184Z</time>
      </trkpt>
      <trkpt lat="39.502885" lon="-8.41621">
        <ele>94.0</ele>
        <time>2019-05-17T14:06:23.158Z</time>
      </trkpt>
      <trkpt lat="39.502885" lon="-8.41621">
        <ele>94.0</ele>
        <time>2019-05-17T14:06:24.152Z</time>
      </trkpt>
      <trkpt lat="39.502885" lon="-8.41621">
        <ele>94.0</ele>
        <time>2019-05-17T14:06:25.165Z</time>
      </trkpt>
      <trkpt lat="39.502885" lon="-8.41621">
        <ele>94.0</ele>
        <time>2019-05-17T14:06:26.177Z</time>
      </trkpt>
      <trkpt lat="39.502885" lon="-8.41621">
        <ele>94.0</ele>
        <time>2019-05-17T14:06:27.171Z</time>
      </trkpt>
      <trkpt lat="39.502885" lon="-8.41621">
        <ele>94.0</ele>
        <time>2019-05-17T14:06:28.168Z</time>
      </trkpt>
      <trkpt lat="39.502885" lon="-8.41621">
        <ele>94.0</ele>
        <time>2019-05-17T14:06:29.164Z</time>
      </trkpt>
      <trkpt lat="39.502885" lon="-8.41621">
        <ele>94.0</ele>
        <time>2019-05-17T14:06:30.170Z</time>
      </trkpt>
      <trkpt lat="39.502885" lon="-8.41621">
        <ele>94.0</ele>
        <time>2019-05-17T14:06:31.167Z</time>
      </trkpt>
      <trkpt lat="39.50288833" lon="-8.41615">
        <ele>96.0</ele>
        <time>2019-05-17T14:06:32.169Z</time>
      </trkpt>
      <trkpt lat="39.50288833" lon="-8.41615">
        <ele>96.0</ele>
        <time>2019-05-17T14:06:33.165Z</time>
      </trkpt>
      <trkpt lat="39.50288833" lon="-8.4161">
        <ele>96.0</ele>
        <time>2019-05-17T14:06:34.167Z</time>
      </trkpt>
      <trkpt lat="39.50288833" lon="-8.4161">
        <ele>96.0</ele>
        <time>2019-05-17T14:06:35.167Z</time>
      </trkpt>
      <trkpt lat="39.50289167" lon="-8.41603833">
        <ele>96.0</ele>
        <time>2019-05-17T14:06:36.168Z</time>
      </trkpt>
      <trkpt lat="39.50289167" lon="-8.41603833">
        <ele>96.0</ele>
        <time>2019-05-17T14:06:37.164Z</time>
      </trkpt>
      <trkpt lat="39.50290333" lon="-8.41597333">
        <ele>95.0</ele>
        <time>2019-05-17T14:06:38.170Z</time>
      </trkpt>
      <trkpt lat="39.50290333" lon="-8.41597333">
        <ele>95.0</ele>
        <time>2019-05-17T14:06:39.178Z</time>
      </trkpt>
      <trkpt lat="39.50291333" lon="-8.41589">
        <ele>95.0</ele>
        <time>2019-05-17T14:06:40.174Z</time>
      </trkpt>
      <trkpt lat="39.50291333" lon="-8.41589">
        <ele>95.0</ele>
        <time>2019-05-17T14:06:41.170Z</time>
      </trkpt>
      <trkpt lat="39.50291833" lon="-8.41580667">
        <ele>95.0</ele>
        <time>2019-05-17T14:06:42.162Z</time>
      </trkpt>
      <trkpt lat="39.50291833" lon="-8.41580667">
        <ele>95.0</ele>
        <time>2019-05-17T14:06:43.186Z</time>
      </trkpt>
      <trkpt lat="39.50291833" lon="-8.41572333">
        <ele>95.0</ele>
        <time>2019-05-17T14:06:44.180Z</time>
      </trkpt>
      <trkpt lat="39.50291833" lon="-8.41572333">
        <ele>95.0</ele>
        <time>2019-05-17T14:06:45.169Z</time>
      </trkpt>
      <trkpt lat="39.50292667" lon="-8.41562167">
        <ele>94.0</ele>
        <time>2019-05-17T14:06:46.172Z</time>
      </trkpt>
      <trkpt lat="39.50292667" lon="-8.41562167">
        <ele>94.0</ele>
        <time>2019-05-17T14:06:47.160Z</time>
      </trkpt>
      <trkpt lat="39.50297833" lon="-8.41549167">
        <ele>93.0</ele>
        <time>2019-05-17T14:06:48.170Z</time>
      </trkpt>
      <trkpt lat="39.50301167" lon="-8.41542833">
        <ele>93.0</ele>
        <time>2019-05-17T14:06:49.162Z</time>
      </trkpt>
      <trkpt lat="39.50304167" lon="-8.41537">
        <ele>92.0</ele>
        <time>2019-05-17T14:06:50.159Z</time>
      </trkpt>
      <trkpt lat="39.50304167" lon="-8.41537">
        <ele>92.0</ele>
        <time>2019-05-17T14:06:51.161Z</time>
      </trkpt>
      <trkpt lat="39.50310333" lon="-8.41527667">
        <ele>90.0</ele>
        <time>2019-05-17T14:06:52.175Z</time>
      </trkpt>
      <trkpt lat="39.50310333" lon="-8.41527667">
        <ele>90.0</ele>
        <time>2019-05-17T14:06:53.169Z</time>
      </trkpt>
      <trkpt lat="39.50317" lon="-8.41521833">
        <ele>89.0</ele>
        <time>2019-05-17T14:06:54.160Z</time>
      </trkpt>
      <trkpt lat="39.50319167" lon="-8.41518667">
        <ele>89.0</ele>
        <time>2019-05-17T14:06:55.170Z</time>
      </trkpt>
      <trkpt lat="39.503215" lon="-8.41515833">
        <ele>89.0</ele>
        <time>2019-05-17T14:06:56.175Z</time>
      </trkpt>
      <trkpt lat="39.503215" lon="-8.41515833">
        <ele>89.0</ele>
        <time>2019-05-17T14:06:57.159Z</time>
      </trkpt>
      <trkpt lat="39.50325833" lon="-8.41511167">
        <ele>89.0</ele>
        <time>2019-05-17T14:06:58.167Z</time>
      </trkpt>
      <trkpt lat="39.50327667" lon="-8.415095">
        <ele>88.0</ele>
        <time>2019-05-17T14:06:59.189Z</time>
      </trkpt>
      <trkpt lat="39.50327667" lon="-8.415095">
        <ele>88.0</ele>
        <time>2019-05-17T14:07:00.169Z</time>
      </trkpt>
      <trkpt lat="39.50332167" lon="-8.41507">
        <ele>88.0</ele>
        <time>2019-05-17T14:07:01.175Z</time>
      </trkpt>
      <trkpt lat="39.50334833" lon="-8.41506">
        <ele>88.0</ele>
        <time>2019-05-17T14:07:02.171Z</time>
      </trkpt>
      <trkpt lat="39.50334833" lon="-8.41506">
        <ele>88.0</ele>
        <time>2019-05-17T14:07:03.177Z</time>
      </trkpt>
      <trkpt lat="39.50343" lon="-8.41504167">
        <ele>87.0</ele>
        <time>2019-05-17T14:07:04.155Z</time>
      </trkpt>
      <trkpt lat="39.503485" lon="-8.41504167">
        <ele>87.0</ele>
        <time>2019-05-17T14:07:05.174Z</time>
      </trkpt>
      <trkpt lat="39.503485" lon="-8.41504167">
        <ele>87.0</ele>
        <time>2019-05-17T14:07:06.181Z</time>
      </trkpt>
      <trkpt lat="39.50360833" lon="-8.41504667">
        <ele>87.0</ele>
        <time>2019-05-17T14:07:07.216Z</time>
      </trkpt>
      <trkpt lat="39.50360833" lon="-8.41504667">
        <ele>87.0</ele>
        <time>2019-05-17T14:07:08.159Z</time>
      </trkpt>
      <trkpt lat="39.50372" lon="-8.41504333">
        <ele>86.0</ele>
        <time>2019-05-17T14:07:09.165Z</time>
      </trkpt>
      <trkpt lat="39.50372" lon="-8.41504333">
        <ele>86.0</ele>
        <time>2019-05-17T14:07:10.168Z</time>
      </trkpt>
      <trkpt lat="39.50382" lon="-8.41503333">
        <ele>86.0</ele>
        <time>2019-05-17T14:07:11.160Z</time>
      </trkpt>
      <trkpt lat="39.50382" lon="-8.41503333">
        <ele>86.0</ele>
        <time>2019-05-17T14:07:12.180Z</time>
      </trkpt>
      <trkpt lat="39.50388" lon="-8.414995">
        <ele>85.0</ele>
        <time>2019-05-17T14:07:13.155Z</time>
      </trkpt>
      <trkpt lat="39.503895" lon="-8.41499333">
        <ele>86.0</ele>
        <time>2019-05-17T14:07:14.175Z</time>
      </trkpt>
      <trkpt lat="39.503895" lon="-8.41499333">
        <ele>86.0</ele>
        <time>2019-05-17T14:07:15.155Z</time>
      </trkpt>
      <trkpt lat="39.5039" lon="-8.41499667">
        <ele>85.0</ele>
        <time>2019-05-17T14:07:16.178Z</time>
      </trkpt>
      <trkpt lat="39.5039" lon="-8.41499667">
        <ele>85.0</ele>
        <time>2019-05-17T14:07:17.158Z</time>
      </trkpt>
      <trkpt lat="39.50389833" lon="-8.41500167">
        <ele>86.0</ele>
        <time>2019-05-17T14:07:18.158Z</time>
      </trkpt>
      <trkpt lat="39.50389833" lon="-8.41500167">
        <ele>86.0</ele>
        <time>2019-05-17T14:07:19.155Z</time>
      </trkpt>
      <trkpt lat="39.50389833" lon="-8.41500167">
        <ele>86.0</ele>
        <time>2019-05-17T14:07:20.162Z</time>
      </trkpt>
      <trkpt lat="39.50389833" lon="-8.41500167">
        <ele>86.0</ele>
        <time>2019-05-17T14:07:21.170Z</time>
      </trkpt>
      <trkpt lat="39.50389833" lon="-8.41500167">
        <ele>86.0</ele>
        <time>2019-05-17T14:07:22.165Z</time>
      </trkpt>
      <trkpt lat="39.50389833" lon="-8.41500167">
        <ele>86.0</ele>
        <time>2019-05-17T14:07:23.161Z</time>
      </trkpt>
      <trkpt lat="39.50389833" lon="-8.41500167">
        <ele>86.0</ele>
        <time>2019-05-17T14:07:24.165Z</time>
      </trkpt>
      <trkpt lat="39.50389833" lon="-8.41500167">
        <ele>86.0</ele>
        <time>2019-05-17T14:07:25.165Z</time>
      </trkpt>
      <trkpt lat="39.50389833" lon="-8.41500167">
        <ele>86.0</ele>
        <time>2019-05-17T14:07:26.163Z</time>
      </trkpt>
      <trkpt lat="39.50389833" lon="-8.41500167">
        <ele>86.0</ele>
        <time>2019-05-17T14:07:27.164Z</time>
      </trkpt>
      <trkpt lat="39.50389833" lon="-8.41500167">
        <ele>86.0</ele>
        <time>2019-05-17T14:07:28.166Z</time>
      </trkpt>
      <trkpt lat="39.50389833" lon="-8.41500167">
        <ele>86.0</ele>
        <time>2019-05-17T14:07:29.161Z</time>
      </trkpt>
      <trkpt lat="39.50389833" lon="-8.41500167">
        <ele>86.0</ele>
        <time>2019-05-17T14:07:30.165Z</time>
      </trkpt>
      <trkpt lat="39.50389833" lon="-8.41500167">
        <ele>86.0</ele>
        <time>2019-05-17T14:07:31.161Z</time>
      </trkpt>
      <trkpt lat="39.50389833" lon="-8.41500167">
        <ele>86.0</ele>
        <time>2019-05-17T14:07:32.167Z</time>
      </trkpt>
      <trkpt lat="39.50389833" lon="-8.41500167">
        <ele>86.0</ele>
        <time>2019-05-17T14:07:33.160Z</time>
      </trkpt>
      <trkpt lat="39.50393333" lon="-8.41501167">
        <ele>85.0</ele>
        <time>2019-05-17T14:07:34.166Z</time>
      </trkpt>
      <trkpt lat="39.50393333" lon="-8.41501167">
        <ele>85.0</ele>
        <time>2019-05-17T14:07:35.160Z</time>
      </trkpt>
      <trkpt lat="39.50396167" lon="-8.41501">
        <ele>86.0</ele>
        <time>2019-05-17T14:07:36.166Z</time>
      </trkpt>
      <trkpt lat="39.50396167" lon="-8.41501">
        <ele>86.0</ele>
        <time>2019-05-17T14:07:37.160Z</time>
      </trkpt>
      <trkpt lat="39.50402" lon="-8.415005">
        <ele>85.0</ele>
        <time>2019-05-17T14:07:38.168Z</time>
      </trkpt>
      <trkpt lat="39.50402" lon="-8.415005">
        <ele>85.0</ele>
        <time>2019-05-17T14:07:39.160Z</time>
      </trkpt>
      <trkpt lat="39.50409167" lon="-8.414995">
        <ele>85.0</ele>
        <time>2019-05-17T14:07:40.163Z</time>
      </trkpt>
      <trkpt lat="39.50409167" lon="-8.414995">
        <ele>85.0</ele>
        <time>2019-05-17T14:07:41.160Z</time>
      </trkpt>
      <trkpt lat="39.50417833" lon="-8.41498667">
        <ele>84.0</ele>
        <time>2019-05-17T14:07:42.187Z</time>
      </trkpt>
      <trkpt lat="39.50417833" lon="-8.41498667">
        <ele>84.0</ele>
        <time>2019-05-17T14:07:43.165Z</time>
      </trkpt>
      <trkpt lat="39.50426667" lon="-8.41498833">
        <ele>84.0</ele>
        <time>2019-05-17T14:07:44.169Z</time>
      </trkpt>
      <trkpt lat="39.50426667" lon="-8.41498833">
        <ele>84.0</ele>
        <time>2019-05-17T14:07:45.154Z</time>
      </trkpt>
      <trkpt lat="39.50434167" lon="-8.41499167">
        <ele>83.0</ele>
        <time>2019-05-17T14:07:46.151Z</time>
      </trkpt>
      <trkpt lat="39.50434167" lon="-8.41499167">
        <ele>83.0</ele>
        <time>2019-05-17T14:07:47.181Z</time>
      </trkpt>
      <trkpt lat="39.504385" lon="-8.414975">
        <ele>83.0</ele>
        <time>2019-05-17T14:07:48.165Z</time>
      </trkpt>
      <trkpt lat="39.504385" lon="-8.414975">
        <ele>83.0</ele>
        <time>2019-05-17T14:07:49.154Z</time>
      </trkpt>
      <trkpt lat="39.504415" lon="-8.41494167">
        <ele>82.0</ele>
        <time>2019-05-17T14:07:50.155Z</time>
      </trkpt>
      <trkpt lat="39.504415" lon="-8.41494167">
        <ele>82.0</ele>
        <time>2019-05-17T14:07:51.180Z</time>
      </trkpt>
      <trkpt lat="39.50442833" lon="-8.41489167">
        <ele>81.0</ele>
        <time>2019-05-17T14:07:52.174Z</time>
      </trkpt>
      <trkpt lat="39.50442833" lon="-8.41489167">
        <ele>81.0</ele>
        <time>2019-05-17T14:07:53.164Z</time>
      </trkpt>
      <trkpt lat="39.50441833" lon="-8.41483667">
        <ele>80.0</ele>
        <time>2019-05-17T14:07:54.194Z</time>
      </trkpt>
      <trkpt lat="39.50441" lon="-8.414815">
        <ele>80.0</ele>
        <time>2019-05-17T14:07:55.168Z</time>
      </trkpt>
      <trkpt lat="39.504405" lon="-8.414805">
        <ele>79.0</ele>
        <time>2019-05-17T14:07:56.163Z</time>
      </trkpt>
      <trkpt lat="39.504405" lon="-8.414805">
        <ele>79.0</ele>
        <time>2019-05-17T14:07:57.177Z</time>
      </trkpt>
      <trkpt lat="39.504405" lon="-8.41480167">
        <ele>79.0</ele>
        <time>2019-05-17T14:07:58.168Z</time>
      </trkpt>
      <trkpt lat="39.50440667" lon="-8.41479833">
        <ele>79.0</ele>
        <time>2019-05-17T14:07:59.150Z</time>
      </trkpt>
      <trkpt lat="39.50440667" lon="-8.41479833">
        <ele>79.0</ele>
        <time>2019-05-17T14:08:00.155Z</time>
      </trkpt>
      <trkpt lat="39.5044" lon="-8.414785">
        <ele>79.0</ele>
        <time>2019-05-17T14:08:01.162Z</time>
      </trkpt>
      <trkpt lat="39.504395" lon="-8.41476667">
        <ele>79.0</ele>
        <time>2019-05-17T14:08:02.168Z</time>
      </trkpt>
      <trkpt lat="39.504395" lon="-8.41476667">
        <ele>79.0</ele>
        <time>2019-05-17T14:08:03.175Z</time>
      </trkpt>
      <trkpt lat="39.504385" lon="-8.414725">
        <ele>79.0</ele>
        <time>2019-05-17T14:08:04.181Z</time>
      </trkpt>
      <trkpt lat="39.504385" lon="-8.414725">
        <ele>79.0</ele>
        <time>2019-05-17T14:08:05.188Z</time>
      </trkpt>
      <trkpt lat="39.50437167" lon="-8.41468167">
        <ele>79.0</ele>
        <time>2019-05-17T14:08:06.174Z</time>
      </trkpt>
      <trkpt lat="39.50437167" lon="-8.41468167">
        <ele>79.0</ele>
        <time>2019-05-17T14:08:07.172Z</time>
      </trkpt>
      <trkpt lat="39.504345" lon="-8.41463">
        <ele>78.0</ele>
        <time>2019-05-17T14:08:08.165Z</time>
      </trkpt>
      <trkpt lat="39.504345" lon="-8.41463">
        <ele>78.0</ele>
        <time>2019-05-17T14:08:09.167Z</time>
      </trkpt>
      <trkpt lat="39.50432" lon="-8.41457333">
        <ele>78.0</ele>
        <time>2019-05-17T14:08:10.169Z</time>
      </trkpt>
      <trkpt lat="39.504305" lon="-8.41455">
        <ele>78.0</ele>
        <time>2019-05-17T14:08:11.175Z</time>
      </trkpt>
      <trkpt lat="39.504305" lon="-8.41455">
        <ele>78.0</ele>
        <time>2019-05-17T14:08:12.152Z</time>
      </trkpt>
      <trkpt lat="39.50427333" lon="-8.414495">
        <ele>77.0</ele>
        <time>2019-05-17T14:08:13.177Z</time>
      </trkpt>
      <trkpt lat="39.50425833" lon="-8.41446667">
        <ele>77.0</ele>
        <time>2019-05-17T14:08:14.150Z</time>
      </trkpt>
      <trkpt lat="39.50425833" lon="-8.41446667">
        <ele>77.0</ele>
        <time>2019-05-17T14:08:15.171Z</time>
      </trkpt>
      <trkpt lat="39.50423667" lon="-8.41441167">
        <ele>77.0</ele>
        <time>2019-05-17T14:08:16.175Z</time>
      </trkpt>
      <trkpt lat="39.50423667" lon="-8.41441167">
        <ele>77.0</ele>
        <time>2019-05-17T14:08:17.158Z</time>
      </trkpt>
      <trkpt lat="39.504215" lon="-8.41435167">
        <ele>77.0</ele>
        <time>2019-05-17T14:08:18.189Z</time>
      </trkpt>
      <trkpt lat="39.504215" lon="-8.41435167">
        <ele>77.0</ele>
        <time>2019-05-17T14:08:19.163Z</time>
      </trkpt>
      <trkpt lat="39.50419167" lon="-8.414285">
        <ele>77.0</ele>
        <time>2019-05-17T14:08:20.154Z</time>
      </trkpt>
      <trkpt lat="39.50419167" lon="-8.414285">
        <ele>77.0</ele>
        <time>2019-05-17T14:08:21.179Z</time>
      </trkpt>
      <trkpt lat="39.50416833" lon="-8.41421167">
        <ele>76.0</ele>
        <time>2019-05-17T14:08:22.175Z</time>
      </trkpt>
      <trkpt lat="39.50416833" lon="-8.41421167">
        <ele>76.0</ele>
        <time>2019-05-17T14:08:23.151Z</time>
      </trkpt>
      <trkpt lat="39.50413833" lon="-8.41411833">
        <ele>77.0</ele>
        <time>2019-05-17T14:08:24.152Z</time>
      </trkpt>
      <trkpt lat="39.50413833" lon="-8.41411833">
        <ele>77.0</ele>
        <time>2019-05-17T14:08:25.157Z</time>
      </trkpt>
      <trkpt lat="39.50411167" lon="-8.414025">
        <ele>77.0</ele>
        <time>2019-05-17T14:08:26.155Z</time>
      </trkpt>
      <trkpt lat="39.50411167" lon="-8.414025">
        <ele>77.0</ele>
        <time>2019-05-17T14:08:27.184Z</time>
      </trkpt>
      <trkpt lat="39.50409" lon="-8.41394">
        <ele>77.0</ele>
        <time>2019-05-17T14:08:28.171Z</time>
      </trkpt>
      <trkpt lat="39.50409" lon="-8.41394">
        <ele>77.0</ele>
        <time>2019-05-17T14:08:29.163Z</time>
      </trkpt>
      <trkpt lat="39.50407" lon="-8.413865">
        <ele>78.0</ele>
        <time>2019-05-17T14:08:30.182Z</time>
      </trkpt>
      <trkpt lat="39.50407" lon="-8.413865">
        <ele>78.0</ele>
        <time>2019-05-17T14:08:31.154Z</time>
      </trkpt>
      <trkpt lat="39.50405" lon="-8.41380167">
        <ele>78.0</ele>
        <time>2019-05-17T14:08:32.151Z</time>
      </trkpt>
      <trkpt lat="39.50405" lon="-8.41380167">
        <ele>78.0</ele>
        <time>2019-05-17T14:08:33.159Z</time>
      </trkpt>
      <trkpt lat="39.50402667" lon="-8.41374833">
        <ele>79.0</ele>
        <time>2019-05-17T14:08:34.150Z</time>
      </trkpt>
      <trkpt lat="39.50402667" lon="-8.41374833">
        <ele>79.0</ele>
        <time>2019-05-17T14:08:35.158Z</time>
      </trkpt>
      <trkpt lat="39.50400667" lon="-8.4137">
        <ele>79.0</ele>
        <time>2019-05-17T14:08:36.157Z</time>
      </trkpt>
      <trkpt lat="39.50400667" lon="-8.4137">
        <ele>79.0</ele>
        <time>2019-05-17T14:08:37.169Z</time>
      </trkpt>
      <trkpt lat="39.50398833" lon="-8.41365">
        <ele>79.0</ele>
        <time>2019-05-17T14:08:38.166Z</time>
      </trkpt>
      <trkpt lat="39.50398833" lon="-8.41365">
        <ele>79.0</ele>
        <time>2019-05-17T14:08:39.172Z</time>
      </trkpt>
      <trkpt lat="39.50396667" lon="-8.413605">
        <ele>79.0</ele>
        <time>2019-05-17T14:08:40.155Z</time>
      </trkpt>
      <trkpt lat="39.50396667" lon="-8.413605">
        <ele>79.0</ele>
        <time>2019-05-17T14:08:41.189Z</time>
      </trkpt>
      <trkpt lat="39.50395" lon="-8.41355667">
        <ele>79.0</ele>
        <time>2019-05-17T14:08:42.192Z</time>
      </trkpt>
      <trkpt lat="39.50395" lon="-8.41355667">
        <ele>79.0</ele>
        <time>2019-05-17T14:08:43.178Z</time>
      </trkpt>
      <trkpt lat="39.50393667" lon="-8.413505">
        <ele>79.0</ele>
        <time>2019-05-17T14:08:44.175Z</time>
      </trkpt>
      <trkpt lat="39.50393667" lon="-8.413505">
        <ele>79.0</ele>
        <time>2019-05-17T14:08:45.154Z</time>
      </trkpt>
      <trkpt lat="39.50392" lon="-8.413455">
        <ele>79.0</ele>
        <time>2019-05-17T14:08:46.151Z</time>
      </trkpt>
      <trkpt lat="39.50392" lon="-8.413455">
        <ele>79.0</ele>
        <time>2019-05-17T14:08:47.156Z</time>
      </trkpt>
      <trkpt lat="39.50390667" lon="-8.413405">
        <ele>79.0</ele>
        <time>2019-05-17T14:08:48.193Z</time>
      </trkpt>
      <trkpt lat="39.5039" lon="-8.41338333">
        <ele>79.0</ele>
        <time>2019-05-17T14:08:49.185Z</time>
      </trkpt>
      <trkpt lat="39.50389167" lon="-8.41336333">
        <ele>79.0</ele>
        <time>2019-05-17T14:08:50.156Z</time>
      </trkpt>
      <trkpt lat="39.50389167" lon="-8.41336333">
        <ele>79.0</ele>
        <time>2019-05-17T14:08:51.181Z</time>
      </trkpt>
      <trkpt lat="39.50388" lon="-8.413315">
        <ele>79.0</ele>
        <time>2019-05-17T14:08:52.180Z</time>
      </trkpt>
      <trkpt lat="39.50388" lon="-8.413315">
        <ele>79.0</ele>
        <time>2019-05-17T14:08:53.176Z</time>
      </trkpt>
      <trkpt lat="39.50386667" lon="-8.41327333">
        <ele>79.0</ele>
        <time>2019-05-17T14:08:54.183Z</time>
      </trkpt>
      <trkpt lat="39.50386667" lon="-8.41327333">
        <ele>79.0</ele>
        <time>2019-05-17T14:08:55.150Z</time>
      </trkpt>
      <trkpt lat="39.50384833" lon="-8.41322167">
        <ele>79.0</ele>
        <time>2019-05-17T14:08:56.173Z</time>
      </trkpt>
      <trkpt lat="39.50384833" lon="-8.41322167">
        <ele>79.0</ele>
        <time>2019-05-17T14:08:57.186Z</time>
      </trkpt>
      <trkpt lat="39.50382833" lon="-8.41317833">
        <ele>79.0</ele>
        <time>2019-05-17T14:08:58.180Z</time>
      </trkpt>
      <trkpt lat="39.50382833" lon="-8.41317833">
        <ele>79.0</ele>
        <time>2019-05-17T14:08:59.160Z</time>
      </trkpt>
      <trkpt lat="39.503815" lon="-8.413135">
        <ele>79.0</ele>
        <time>2019-05-17T14:09:00.154Z</time>
      </trkpt>
      <trkpt lat="39.503815" lon="-8.413135">
        <ele>79.0</ele>
        <time>2019-05-17T14:09:01.164Z</time>
      </trkpt>
      <trkpt lat="39.5038" lon="-8.41308333">
        <ele>79.0</ele>
        <time>2019-05-17T14:09:02.168Z</time>
      </trkpt>
      <trkpt lat="39.5038" lon="-8.41308333">
        <ele>79.0</ele>
        <time>2019-05-17T14:09:03.170Z</time>
      </trkpt>
      <trkpt lat="39.50378667" lon="-8.41304">
        <ele>79.0</ele>
        <time>2019-05-17T14:09:04.179Z</time>
      </trkpt>
      <trkpt lat="39.50378" lon="-8.41302">
        <ele>79.0</ele>
        <time>2019-05-17T14:09:05.162Z</time>
      </trkpt>
      <trkpt lat="39.503775" lon="-8.41299833">
        <ele>79.0</ele>
        <time>2019-05-17T14:09:06.156Z</time>
      </trkpt>
      <trkpt lat="39.503775" lon="-8.41299833">
        <ele>79.0</ele>
        <time>2019-05-17T14:09:07.155Z</time>
      </trkpt>
      <trkpt lat="39.50376167" lon="-8.412955">
        <ele>79.0</ele>
        <time>2019-05-17T14:09:08.167Z</time>
      </trkpt>
      <trkpt lat="39.50376167" lon="-8.412955">
        <ele>79.0</ele>
        <time>2019-05-17T14:09:09.181Z</time>
      </trkpt>
      <trkpt lat="39.50374667" lon="-8.41291">
        <ele>79.0</ele>
        <time>2019-05-17T14:09:10.152Z</time>
      </trkpt>
      <trkpt lat="39.50374667" lon="-8.41291">
        <ele>79.0</ele>
        <time>2019-05-17T14:09:11.167Z</time>
      </trkpt>
      <trkpt lat="39.503735" lon="-8.41286667">
        <ele>79.0</ele>
        <time>2019-05-17T14:09:12.162Z</time>
      </trkpt>
      <trkpt lat="39.503735" lon="-8.41286667">
        <ele>79.0</ele>
        <time>2019-05-17T14:09:13.179Z</time>
      </trkpt>
      <trkpt lat="39.50371833" lon="-8.41283167">
        <ele>79.0</ele>
        <time>2019-05-17T14:09:14.173Z</time>
      </trkpt>
      <trkpt lat="39.50371833" lon="-8.41283167">
        <ele>79.0</ele>
        <time>2019-05-17T14:09:15.159Z</time>
      </trkpt>
      <trkpt lat="39.50370667" lon="-8.4128">
        <ele>78.0</ele>
        <time>2019-05-17T14:09:16.156Z</time>
      </trkpt>
      <trkpt lat="39.50370667" lon="-8.4128">
        <ele>78.0</ele>
        <time>2019-05-17T14:09:17.167Z</time>
      </trkpt>
      <trkpt lat="39.50369667" lon="-8.412795">
        <ele>79.0</ele>
        <time>2019-05-17T14:09:18.167Z</time>
      </trkpt>
      <trkpt lat="39.50369667" lon="-8.412795">
        <ele>79.0</ele>
        <time>2019-05-17T14:09:19.172Z</time>
      </trkpt>
      <trkpt lat="39.50369167" lon="-8.41279333">
        <ele>79.0</ele>
        <time>2019-05-17T14:09:20.159Z</time>
      </trkpt>
      <trkpt lat="39.50369167" lon="-8.41279333">
        <ele>79.0</ele>
        <time>2019-05-17T14:09:21.175Z</time>
      </trkpt>
      <trkpt lat="39.50369167" lon="-8.41279333">
        <ele>79.0</ele>
        <time>2019-05-17T14:09:22.181Z</time>
      </trkpt>
      <trkpt lat="39.50369167" lon="-8.41279333">
        <ele>79.0</ele>
        <time>2019-05-17T14:09:23.187Z</time>
      </trkpt>
      <trkpt lat="39.50369167" lon="-8.41279333">
        <ele>79.0</ele>
        <time>2019-05-17T14:09:24.166Z</time>
      </trkpt>
      <trkpt lat="39.50369167" lon="-8.41279333">
        <ele>79.0</ele>
        <time>2019-05-17T14:09:25.161Z</time>
      </trkpt>
      <trkpt lat="39.50369167" lon="-8.41279333">
        <ele>79.0</ele>
        <time>2019-05-17T14:09:26.161Z</time>
      </trkpt>
      <trkpt lat="39.50369167" lon="-8.41279333">
        <ele>79.0</ele>
        <time>2019-05-17T14:09:27.161Z</time>
      </trkpt>
      <trkpt lat="39.50369167" lon="-8.41279333">
        <ele>79.0</ele>
        <time>2019-05-17T14:09:28.187Z</time>
      </trkpt>
      <trkpt lat="39.50369167" lon="-8.41279333">
        <ele>79.0</ele>
        <time>2019-05-17T14:09:29.173Z</time>
      </trkpt>
      <trkpt lat="39.50369167" lon="-8.41279333">
        <ele>79.0</ele>
        <time>2019-05-17T14:09:30.166Z</time>
      </trkpt>
      <trkpt lat="39.50369167" lon="-8.41279333">
        <ele>79.0</ele>
        <time>2019-05-17T14:09:31.161Z</time>
      </trkpt>
      <trkpt lat="39.50369167" lon="-8.41279333">
        <ele>79.0</ele>
        <time>2019-05-17T14:09:32.168Z</time>
      </trkpt>
      <trkpt lat="39.50369167" lon="-8.41279333">
        <ele>79.0</ele>
        <time>2019-05-17T14:09:33.161Z</time>
      </trkpt>
      <trkpt lat="39.50369167" lon="-8.41279333">
        <ele>79.0</ele>
        <time>2019-05-17T14:09:34.166Z</time>
      </trkpt>
      <trkpt lat="39.50369167" lon="-8.41279333">
        <ele>79.0</ele>
        <time>2019-05-17T14:09:35.160Z</time>
      </trkpt>
      <trkpt lat="39.50369167" lon="-8.41279333">
        <ele>79.0</ele>
        <time>2019-05-17T14:09:36.165Z</time>
      </trkpt>
      <trkpt lat="39.50369167" lon="-8.41279333">
        <ele>79.0</ele>
        <time>2019-05-17T14:09:37.161Z</time>
      </trkpt>
      <trkpt lat="39.50369167" lon="-8.41279333">
        <ele>79.0</ele>
        <time>2019-05-17T14:09:38.188Z</time>
      </trkpt>
      <trkpt lat="39.50369167" lon="-8.41279333">
        <ele>79.0</ele>
        <time>2019-05-17T14:09:39.176Z</time>
      </trkpt>
      <trkpt lat="39.50369167" lon="-8.41279333">
        <ele>79.0</ele>
        <time>2019-05-17T14:09:40.166Z</time>
      </trkpt>
      <trkpt lat="39.50369167" lon="-8.41279333">
        <ele>79.0</ele>
        <time>2019-05-17T14:09:41.161Z</time>
      </trkpt>
      <trkpt lat="39.50369167" lon="-8.41279333">
        <ele>79.0</ele>
        <time>2019-05-17T14:09:42.165Z</time>
      </trkpt>
      <trkpt lat="39.50369167" lon="-8.41279333">
        <ele>79.0</ele>
        <time>2019-05-17T14:09:43.162Z</time>
      </trkpt>
      <trkpt lat="39.50369167" lon="-8.41279333">
        <ele>79.0</ele>
        <time>2019-05-17T14:09:44.170Z</time>
      </trkpt>
      <trkpt lat="39.50369167" lon="-8.41279333">
        <ele>79.0</ele>
        <time>2019-05-17T14:09:45.160Z</time>
      </trkpt>
      <trkpt lat="39.50369167" lon="-8.41279333">
        <ele>79.0</ele>
        <time>2019-05-17T14:09:46.165Z</time>
      </trkpt>
      <trkpt lat="39.50369167" lon="-8.41279333">
        <ele>79.0</ele>
        <time>2019-05-17T14:09:47.161Z</time>
      </trkpt>
      <trkpt lat="39.50369167" lon="-8.41279333">
        <ele>79.0</ele>
        <time>2019-05-17T14:09:48.158Z</time>
      </trkpt>
      <trkpt lat="39.50369167" lon="-8.41279333">
        <ele>79.0</ele>
        <time>2019-05-17T14:09:49.186Z</time>
      </trkpt>
      <trkpt lat="39.50369167" lon="-8.41279333">
        <ele>79.0</ele>
        <time>2019-05-17T14:09:50.172Z</time>
      </trkpt>
      <trkpt lat="39.50369167" lon="-8.41279333">
        <ele>79.0</ele>
        <time>2019-05-17T14:09:51.186Z</time>
      </trkpt>
      <trkpt lat="39.50369167" lon="-8.41279333">
        <ele>79.0</ele>
        <time>2019-05-17T14:09:52.171Z</time>
      </trkpt>
      <trkpt lat="39.50369167" lon="-8.41279333">
        <ele>79.0</ele>
        <time>2019-05-17T14:09:53.166Z</time>
      </trkpt>
      <trkpt lat="39.50369167" lon="-8.41279333">
        <ele>79.0</ele>
        <time>2019-05-17T14:09:54.161Z</time>
      </trkpt>
      <trkpt lat="39.50369167" lon="-8.41279333">
        <ele>79.0</ele>
        <time>2019-05-17T14:09:55.166Z</time>
      </trkpt>
      <trkpt lat="39.50369167" lon="-8.41279333">
        <ele>79.0</ele>
        <time>2019-05-17T14:09:56.168Z</time>
      </trkpt>
      <trkpt lat="39.50369167" lon="-8.41279333">
        <ele>79.0</ele>
        <time>2019-05-17T14:09:57.161Z</time>
      </trkpt>
      <trkpt lat="39.50369167" lon="-8.41279333">
        <ele>79.0</ele>
        <time>2019-05-17T14:09:58.165Z</time>
      </trkpt>
      <trkpt lat="39.50369167" lon="-8.41279333">
        <ele>79.0</ele>
        <time>2019-05-17T14:09:59.165Z</time>
      </trkpt>
      <trkpt lat="39.50369167" lon="-8.41279333">
        <ele>79.0</ele>
        <time>2019-05-17T14:10:00.160Z</time>
      </trkpt>
      <trkpt lat="39.50369167" lon="-8.41279333">
        <ele>79.0</ele>
        <time>2019-05-17T14:10:01.165Z</time>
      </trkpt>
      <trkpt lat="39.50369167" lon="-8.41279333">
        <ele>79.0</ele>
        <time>2019-05-17T14:10:02.165Z</time>
      </trkpt>
      <trkpt lat="39.50369167" lon="-8.41279333">
        <ele>79.0</ele>
        <time>2019-05-17T14:10:03.161Z</time>
      </trkpt>
      <trkpt lat="39.50369167" lon="-8.41279333">
        <ele>79.0</ele>
        <time>2019-05-17T14:10:04.165Z</time>
      </trkpt>
      <trkpt lat="39.50369167" lon="-8.41279333">
        <ele>79.0</ele>
        <time>2019-05-17T14:10:05.161Z</time>
      </trkpt>
      <trkpt lat="39.50369167" lon="-8.41279333">
        <ele>79.0</ele>
        <time>2019-05-17T14:10:06.163Z</time>
      </trkpt>
      <trkpt lat="39.50369167" lon="-8.41279333">
        <ele>79.0</ele>
        <time>2019-05-17T14:10:07.161Z</time>
      </trkpt>
      <trkpt lat="39.50369167" lon="-8.41279333">
        <ele>79.0</ele>
        <time>2019-05-17T14:10:08.188Z</time>
      </trkpt>
      <trkpt lat="39.50369167" lon="-8.41279333">
        <ele>79.0</ele>
        <time>2019-05-17T14:10:09.177Z</time>
      </trkpt>
      <trkpt lat="39.50369167" lon="-8.41279333">
        <ele>79.0</ele>
        <time>2019-05-17T14:10:10.157Z</time>
      </trkpt>
      <trkpt lat="39.50369167" lon="-8.41279333">
        <ele>79.0</ele>
        <time>2019-05-17T14:10:11.164Z</time>
      </trkpt>
      <trkpt lat="39.50369167" lon="-8.41279333">
        <ele>79.0</ele>
        <time>2019-05-17T14:10:12.171Z</time>
      </trkpt>
      <trkpt lat="39.50369167" lon="-8.41279333">
        <ele>79.0</ele>
        <time>2019-05-17T14:10:13.177Z</time>
      </trkpt>
      <trkpt lat="39.50369167" lon="-8.41279333">
        <ele>79.0</ele>
        <time>2019-05-17T14:10:14.175Z</time>
      </trkpt>
      <trkpt lat="39.50369167" lon="-8.41279333">
        <ele>79.0</ele>
        <time>2019-05-17T14:10:15.176Z</time>
      </trkpt>
      <trkpt lat="39.50369167" lon="-8.41279333">
        <ele>79.0</ele>
        <time>2019-05-17T14:10:16.166Z</time>
      </trkpt>
      <trkpt lat="39.50369167" lon="-8.41279333">
        <ele>79.0</ele>
        <time>2019-05-17T14:10:17.161Z</time>
      </trkpt>
      <trkpt lat="39.50369167" lon="-8.41279333">
        <ele>79.0</ele>
        <time>2019-05-17T14:10:18.166Z</time>
      </trkpt>
      <trkpt lat="39.50369167" lon="-8.41279333">
        <ele>79.0</ele>
        <time>2019-05-17T14:10:19.161Z</time>
      </trkpt>
      <trkpt lat="39.50369167" lon="-8.41279333">
        <ele>79.0</ele>
        <time>2019-05-17T14:10:20.168Z</time>
      </trkpt>
      <trkpt lat="39.50369167" lon="-8.41279333">
        <ele>79.0</ele>
        <time>2019-05-17T14:10:21.161Z</time>
      </trkpt>
      <trkpt lat="39.50369167" lon="-8.41279333">
        <ele>79.0</ele>
        <time>2019-05-17T14:10:22.166Z</time>
      </trkpt>
      <trkpt lat="39.50369167" lon="-8.41279333">
        <ele>79.0</ele>
        <time>2019-05-17T14:10:23.161Z</time>
      </trkpt>
      <trkpt lat="39.50369167" lon="-8.41279333">
        <ele>79.0</ele>
        <time>2019-05-17T14:10:24.166Z</time>
      </trkpt>
      <trkpt lat="39.50369167" lon="-8.41279333">
        <ele>79.0</ele>
        <time>2019-05-17T14:10:25.161Z</time>
      </trkpt>
      <trkpt lat="39.50369167" lon="-8.41279333">
        <ele>79.0</ele>
        <time>2019-05-17T14:10:26.167Z</time>
      </trkpt>
      <trkpt lat="39.50369167" lon="-8.41279333">
        <ele>79.0</ele>
        <time>2019-05-17T14:10:27.166Z</time>
      </trkpt>
      <trkpt lat="39.50369167" lon="-8.41279333">
        <ele>79.0</ele>
        <time>2019-05-17T14:10:28.160Z</time>
      </trkpt>
      <trkpt lat="39.50369167" lon="-8.41279333">
        <ele>79.0</ele>
        <time>2019-05-17T14:10:29.163Z</time>
      </trkpt>
      <trkpt lat="39.50369167" lon="-8.41279333">
        <ele>79.0</ele>
        <time>2019-05-17T14:10:30.166Z</time>
      </trkpt>
      <trkpt lat="39.50369167" lon="-8.41279333">
        <ele>79.0</ele>
        <time>2019-05-17T14:10:31.161Z</time>
      </trkpt>
      <trkpt lat="39.50369167" lon="-8.41279333">
        <ele>79.0</ele>
        <time>2019-05-17T14:10:32.167Z</time>
      </trkpt>
      <trkpt lat="39.50369167" lon="-8.41279333">
        <ele>79.0</ele>
        <time>2019-05-17T14:10:33.161Z</time>
      </trkpt>
      <trkpt lat="39.50369167" lon="-8.41279333">
        <ele>79.0</ele>
        <time>2019-05-17T14:10:34.180Z</time>
      </trkpt>
      <trkpt lat="39.50369167" lon="-8.41279333">
        <ele>79.0</ele>
        <time>2019-05-17T14:10:35.166Z</time>
      </trkpt>
      <trkpt lat="39.50369167" lon="-8.41279333">
        <ele>79.0</ele>
        <time>2019-05-17T14:10:36.166Z</time>
      </trkpt>
      <trkpt lat="39.50369167" lon="-8.41279333">
        <ele>79.0</ele>
        <time>2019-05-17T14:10:37.161Z</time>
      </trkpt>
      <trkpt lat="39.50368667" lon="-8.412775">
        <ele>82.0</ele>
        <time>2019-05-17T14:10:38.165Z</time>
      </trkpt>
      <trkpt lat="39.50368667" lon="-8.412775">
        <ele>82.0</ele>
        <time>2019-05-17T14:10:39.161Z</time>
      </trkpt>
      <trkpt lat="39.503675" lon="-8.41273333">
        <ele>82.0</ele>
        <time>2019-05-17T14:10:40.166Z</time>
      </trkpt>
      <trkpt lat="39.503675" lon="-8.41273333">
        <ele>82.0</ele>
        <time>2019-05-17T14:10:41.161Z</time>
      </trkpt>
      <trkpt lat="39.50365333" lon="-8.41267">
        <ele>82.0</ele>
        <time>2019-05-17T14:10:42.167Z</time>
      </trkpt>
      <trkpt lat="39.50365333" lon="-8.41267">
        <ele>82.0</ele>
        <time>2019-05-17T14:10:43.160Z</time>
      </trkpt>
      <trkpt lat="39.50363333" lon="-8.41261333">
        <ele>82.0</ele>
        <time>2019-05-17T14:10:44.157Z</time>
      </trkpt>
      <trkpt lat="39.50363333" lon="-8.41261333">
        <ele>82.0</ele>
        <time>2019-05-17T14:10:45.163Z</time>
      </trkpt>
      <trkpt lat="39.50361667" lon="-8.41256">
        <ele>83.0</ele>
        <time>2019-05-17T14:10:46.155Z</time>
      </trkpt>
      <trkpt lat="39.50361667" lon="-8.41256">
        <ele>83.0</ele>
        <time>2019-05-17T14:10:47.182Z</time>
      </trkpt>
      <trkpt lat="39.50360333" lon="-8.41251333">
        <ele>83.0</ele>
        <time>2019-05-17T14:10:48.178Z</time>
      </trkpt>
      <trkpt lat="39.50360333" lon="-8.41251333">
        <ele>83.0</ele>
        <time>2019-05-17T14:10:49.157Z</time>
      </trkpt>
      <trkpt lat="39.50358833" lon="-8.41246833">
        <ele>83.0</ele>
        <time>2019-05-17T14:10:50.162Z</time>
      </trkpt>
      <trkpt lat="39.50358833" lon="-8.41246833">
        <ele>83.0</ele>
        <time>2019-05-17T14:10:51.169Z</time>
      </trkpt>
      <trkpt lat="39.50357167" lon="-8.41243">
        <ele>83.0</ele>
        <time>2019-05-17T14:10:52.178Z</time>
      </trkpt>
      <trkpt lat="39.50357167" lon="-8.41243">
        <ele>83.0</ele>
        <time>2019-05-17T14:10:53.156Z</time>
      </trkpt>
      <trkpt lat="39.50356" lon="-8.41239333">
        <ele>83.0</ele>
        <time>2019-05-17T14:10:54.163Z</time>
      </trkpt>
      <trkpt lat="39.50356" lon="-8.41239333">
        <ele>83.0</ele>
        <time>2019-05-17T14:10:55.159Z</time>
      </trkpt>
      <trkpt lat="39.50354667" lon="-8.41234833">
        <ele>83.0</ele>
        <time>2019-05-17T14:10:56.151Z</time>
      </trkpt>
      <trkpt lat="39.50354667" lon="-8.41234833">
        <ele>83.0</ele>
        <time>2019-05-17T14:10:57.172Z</time>
      </trkpt>
      <trkpt lat="39.50353" lon="-8.41229667">
        <ele>84.0</ele>
        <time>2019-05-17T14:10:58.155Z</time>
      </trkpt>
      <trkpt lat="39.50353" lon="-8.41229667">
        <ele>84.0</ele>
        <time>2019-05-17T14:10:59.178Z</time>
      </trkpt>
      <trkpt lat="39.50350833" lon="-8.412255">
        <ele>84.0</ele>
        <time>2019-05-17T14:11:00.165Z</time>
      </trkpt>
      <trkpt lat="39.50350833" lon="-8.412255">
        <ele>84.0</ele>
        <time>2019-05-17T14:11:01.170Z</time>
      </trkpt>
      <trkpt lat="39.50349" lon="-8.412215">
        <ele>85.0</ele>
        <time>2019-05-17T14:11:02.174Z</time>
      </trkpt>
      <trkpt lat="39.50349" lon="-8.412215">
        <ele>85.0</ele>
        <time>2019-05-17T14:11:03.150Z</time>
      </trkpt>
      <trkpt lat="39.50347" lon="-8.41218167">
        <ele>85.0</ele>
        <time>2019-05-17T14:11:04.161Z</time>
      </trkpt>
      <trkpt lat="39.50347" lon="-8.41218167">
        <ele>85.0</ele>
        <time>2019-05-17T14:11:05.155Z</time>
      </trkpt>
      <trkpt lat="39.50345167" lon="-8.41214167">
        <ele>85.0</ele>
        <time>2019-05-17T14:11:06.187Z</time>
      </trkpt>
      <trkpt lat="39.50345167" lon="-8.41214167">
        <ele>85.0</ele>
        <time>2019-05-17T14:11:07.153Z</time>
      </trkpt>
      <trkpt lat="39.50343667" lon="-8.412105">
        <ele>86.0</ele>
        <time>2019-05-17T14:11:08.161Z</time>
      </trkpt>
      <trkpt lat="39.50343667" lon="-8.412105">
        <ele>86.0</ele>
        <time>2019-05-17T14:11:09.179Z</time>
      </trkpt>
      <trkpt lat="39.50342333" lon="-8.41207">
        <ele>86.0</ele>
        <time>2019-05-17T14:11:10.190Z</time>
      </trkpt>
      <trkpt lat="39.50342333" lon="-8.41207">
        <ele>86.0</ele>
        <time>2019-05-17T14:11:11.167Z</time>
      </trkpt>
      <trkpt lat="39.50340833" lon="-8.41205667">
        <ele>87.0</ele>
        <time>2019-05-17T14:11:12.168Z</time>
      </trkpt>
      <trkpt lat="39.50340833" lon="-8.41205667">
        <ele>87.0</ele>
        <time>2019-05-17T14:11:13.174Z</time>
      </trkpt>
      <trkpt lat="39.50339333" lon="-8.41202333">
        <ele>88.0</ele>
        <time>2019-05-17T14:11:14.173Z</time>
      </trkpt>
      <trkpt lat="39.50339333" lon="-8.41202333">
        <ele>88.0</ele>
        <time>2019-05-17T14:11:15.169Z</time>
      </trkpt>
      <trkpt lat="39.50337667" lon="-8.41198667">
        <ele>88.0</ele>
        <time>2019-05-17T14:11:16.154Z</time>
      </trkpt>
      <trkpt lat="39.50337667" lon="-8.41198667">
        <ele>88.0</ele>
        <time>2019-05-17T14:11:17.184Z</time>
      </trkpt>
      <trkpt lat="39.50335833" lon="-8.41193667">
        <ele>89.0</ele>
        <time>2019-05-17T14:11:18.177Z</time>
      </trkpt>
      <trkpt lat="39.50335833" lon="-8.41193667">
        <ele>89.0</ele>
        <time>2019-05-17T14:11:19.186Z</time>
      </trkpt>
      <trkpt lat="39.50334667" lon="-8.41189667">
        <ele>89.0</ele>
        <time>2019-05-17T14:11:20.159Z</time>
      </trkpt>
      <trkpt lat="39.50334667" lon="-8.41189667">
        <ele>89.0</ele>
        <time>2019-05-17T14:11:21.164Z</time>
      </trkpt>
      <trkpt lat="39.503335" lon="-8.411855">
        <ele>90.0</ele>
        <time>2019-05-17T14:11:22.155Z</time>
      </trkpt>
      <trkpt lat="39.503335" lon="-8.411855">
        <ele>90.0</ele>
        <time>2019-05-17T14:11:23.158Z</time>
      </trkpt>
      <trkpt lat="39.50332333" lon="-8.41180833">
        <ele>90.0</ele>
        <time>2019-05-17T14:11:24.166Z</time>
      </trkpt>
      <trkpt lat="39.50332333" lon="-8.41180833">
        <ele>90.0</ele>
        <time>2019-05-17T14:11:25.156Z</time>
      </trkpt>
      <trkpt lat="39.50330833" lon="-8.41176667">
        <ele>91.0</ele>
        <time>2019-05-17T14:11:26.155Z</time>
      </trkpt>
      <trkpt lat="39.50330833" lon="-8.41176667">
        <ele>91.0</ele>
        <time>2019-05-17T14:11:27.167Z</time>
      </trkpt>
      <trkpt lat="39.50330167" lon="-8.41172167">
        <ele>91.0</ele>
        <time>2019-05-17T14:11:28.176Z</time>
      </trkpt>
      <trkpt lat="39.50330167" lon="-8.41172167">
        <ele>91.0</ele>
        <time>2019-05-17T14:11:29.170Z</time>
      </trkpt>
      <trkpt lat="39.5033" lon="-8.41167833">
        <ele>92.0</ele>
        <time>2019-05-17T14:11:30.155Z</time>
      </trkpt>
      <trkpt lat="39.5033" lon="-8.41167833">
        <ele>92.0</ele>
        <time>2019-05-17T14:11:31.159Z</time>
      </trkpt>
      <trkpt lat="39.50330167" lon="-8.41163833">
        <ele>92.0</ele>
        <time>2019-05-17T14:11:32.154Z</time>
      </trkpt>
      <trkpt lat="39.50330167" lon="-8.41163833">
        <ele>92.0</ele>
        <time>2019-05-17T14:11:33.171Z</time>
      </trkpt>
      <trkpt lat="39.50330333" lon="-8.411595">
        <ele>93.0</ele>
        <time>2019-05-17T14:11:34.174Z</time>
      </trkpt>
      <trkpt lat="39.50330333" lon="-8.411595">
        <ele>93.0</ele>
        <time>2019-05-17T14:11:35.163Z</time>
      </trkpt>
      <trkpt lat="39.503295" lon="-8.41155833">
        <ele>93.0</ele>
        <time>2019-05-17T14:11:36.171Z</time>
      </trkpt>
      <trkpt lat="39.503295" lon="-8.41155833">
        <ele>93.0</ele>
        <time>2019-05-17T14:11:37.162Z</time>
      </trkpt>
      <trkpt lat="39.50330333" lon="-8.41151833">
        <ele>93.0</ele>
        <time>2019-05-17T14:11:38.164Z</time>
      </trkpt>
      <trkpt lat="39.50330333" lon="-8.41151833">
        <ele>93.0</ele>
        <time>2019-05-17T14:11:39.180Z</time>
      </trkpt>
      <trkpt lat="39.50331167" lon="-8.41147833">
        <ele>94.0</ele>
        <time>2019-05-17T14:11:40.175Z</time>
      </trkpt>
      <trkpt lat="39.50331167" lon="-8.41147833">
        <ele>94.0</ele>
        <time>2019-05-17T14:11:41.180Z</time>
      </trkpt>
      <trkpt lat="39.50331667" lon="-8.41144667">
        <ele>94.0</ele>
        <time>2019-05-17T14:11:42.184Z</time>
      </trkpt>
      <trkpt lat="39.50331667" lon="-8.41144667">
        <ele>94.0</ele>
        <time>2019-05-17T14:11:43.160Z</time>
      </trkpt>
      <trkpt lat="39.50332667" lon="-8.41140667">
        <ele>95.0</ele>
        <time>2019-05-17T14:11:44.155Z</time>
      </trkpt>
      <trkpt lat="39.50332667" lon="-8.41140667">
        <ele>95.0</ele>
        <time>2019-05-17T14:11:45.170Z</time>
      </trkpt>
      <trkpt lat="39.50334167" lon="-8.41137667">
        <ele>95.0</ele>
        <time>2019-05-17T14:11:46.153Z</time>
      </trkpt>
      <trkpt lat="39.50334167" lon="-8.41137667">
        <ele>95.0</ele>
        <time>2019-05-17T14:11:47.181Z</time>
      </trkpt>
      <trkpt lat="39.50335833" lon="-8.41134167">
        <ele>96.0</ele>
        <time>2019-05-17T14:11:48.176Z</time>
      </trkpt>
      <trkpt lat="39.50335833" lon="-8.41134167">
        <ele>96.0</ele>
        <time>2019-05-17T14:11:49.154Z</time>
      </trkpt>
      <trkpt lat="39.50337333" lon="-8.411315">
        <ele>96.0</ele>
        <time>2019-05-17T14:11:50.158Z</time>
      </trkpt>
      <trkpt lat="39.50337333" lon="-8.411315">
        <ele>96.0</ele>
        <time>2019-05-17T14:11:51.189Z</time>
      </trkpt>
      <trkpt lat="39.50339167" lon="-8.41128333">
        <ele>96.0</ele>
        <time>2019-05-17T14:11:52.185Z</time>
      </trkpt>
      <trkpt lat="39.50339167" lon="-8.41128333">
        <ele>96.0</ele>
        <time>2019-05-17T14:11:53.151Z</time>
      </trkpt>
      <trkpt lat="39.503405" lon="-8.41124333">
        <ele>96.0</ele>
        <time>2019-05-17T14:11:54.181Z</time>
      </trkpt>
      <trkpt lat="39.503405" lon="-8.41124333">
        <ele>96.0</ele>
        <time>2019-05-17T14:11:55.156Z</time>
      </trkpt>
      <trkpt lat="39.50341167" lon="-8.41122833">
        <ele>96.0</ele>
        <time>2019-05-17T14:11:56.155Z</time>
      </trkpt>
      <trkpt lat="39.50341167" lon="-8.41122833">
        <ele>96.0</ele>
        <time>2019-05-17T14:11:57.161Z</time>
      </trkpt>
      <trkpt lat="39.50341333" lon="-8.41123">
        <ele>96.0</ele>
        <time>2019-05-17T14:11:58.167Z</time>
      </trkpt>
      <trkpt lat="39.50341333" lon="-8.41123">
        <ele>96.0</ele>
        <time>2019-05-17T14:11:59.183Z</time>
      </trkpt>
      <trkpt lat="39.50341333" lon="-8.41123">
        <ele>96.0</ele>
        <time>2019-05-17T14:12:00.154Z</time>
      </trkpt>
      <trkpt lat="39.50341333" lon="-8.41123">
        <ele>96.0</ele>
        <time>2019-05-17T14:12:01.160Z</time>
      </trkpt>
      <trkpt lat="39.50341333" lon="-8.41123">
        <ele>96.0</ele>
        <time>2019-05-17T14:12:02.167Z</time>
      </trkpt>
      <trkpt lat="39.50341333" lon="-8.41123">
        <ele>96.0</ele>
        <time>2019-05-17T14:12:03.173Z</time>
      </trkpt>
      <trkpt lat="39.50341333" lon="-8.41123">
        <ele>96.0</ele>
        <time>2019-05-17T14:12:04.179Z</time>
      </trkpt>
      <trkpt lat="39.50341333" lon="-8.41123">
        <ele>96.0</ele>
        <time>2019-05-17T14:12:05.165Z</time>
      </trkpt>
      <trkpt lat="39.50341333" lon="-8.41123">
        <ele>96.0</ele>
        <time>2019-05-17T14:12:06.162Z</time>
      </trkpt>
      <trkpt lat="39.50341333" lon="-8.41123">
        <ele>96.0</ele>
        <time>2019-05-17T14:12:07.166Z</time>
      </trkpt>
      <trkpt lat="39.50341333" lon="-8.41123">
        <ele>96.0</ele>
        <time>2019-05-17T14:12:08.163Z</time>
      </trkpt>
      <trkpt lat="39.50341333" lon="-8.41123">
        <ele>96.0</ele>
        <time>2019-05-17T14:12:09.156Z</time>
      </trkpt>
      <trkpt lat="39.50341333" lon="-8.41123">
        <ele>96.0</ele>
        <time>2019-05-17T14:12:10.179Z</time>
      </trkpt>
      <trkpt lat="39.50341333" lon="-8.41123">
        <ele>96.0</ele>
        <time>2019-05-17T14:12:11.186Z</time>
      </trkpt>
      <trkpt lat="39.50341333" lon="-8.41123">
        <ele>96.0</ele>
        <time>2019-05-17T14:12:12.156Z</time>
      </trkpt>
      <trkpt lat="39.50341333" lon="-8.41123">
        <ele>96.0</ele>
        <time>2019-05-17T14:12:13.163Z</time>
      </trkpt>
      <trkpt lat="39.50341333" lon="-8.41123">
        <ele>96.0</ele>
        <time>2019-05-17T14:12:14.166Z</time>
      </trkpt>
      <trkpt lat="39.50341333" lon="-8.41123">
        <ele>96.0</ele>
        <time>2019-05-17T14:12:15.161Z</time>
      </trkpt>
      <trkpt lat="39.50341333" lon="-8.41123">
        <ele>96.0</ele>
        <time>2019-05-17T14:12:16.166Z</time>
      </trkpt>
      <trkpt lat="39.50341333" lon="-8.41123">
        <ele>96.0</ele>
        <time>2019-05-17T14:12:17.162Z</time>
      </trkpt>
      <trkpt lat="39.50341333" lon="-8.41123">
        <ele>96.0</ele>
        <time>2019-05-17T14:12:18.166Z</time>
      </trkpt>
      <trkpt lat="39.50341333" lon="-8.41123">
        <ele>96.0</ele>
        <time>2019-05-17T14:12:19.164Z</time>
      </trkpt>
      <trkpt lat="39.50341333" lon="-8.41123">
        <ele>96.0</ele>
        <time>2019-05-17T14:12:20.170Z</time>
      </trkpt>
      <trkpt lat="39.50341333" lon="-8.41123">
        <ele>96.0</ele>
        <time>2019-05-17T14:12:21.167Z</time>
      </trkpt>
      <trkpt lat="39.50341333" lon="-8.41123">
        <ele>96.0</ele>
        <time>2019-05-17T14:12:22.162Z</time>
      </trkpt>
      <trkpt lat="39.50341333" lon="-8.41123">
        <ele>96.0</ele>
        <time>2019-05-17T14:12:23.164Z</time>
      </trkpt>
      <trkpt lat="39.50341333" lon="-8.41123">
        <ele>96.0</ele>
        <time>2019-05-17T14:12:24.164Z</time>
      </trkpt>
      <trkpt lat="39.50341333" lon="-8.41123">
        <ele>96.0</ele>
        <time>2019-05-17T14:12:25.166Z</time>
      </trkpt>
      <trkpt lat="39.50341333" lon="-8.41123">
        <ele>96.0</ele>
        <time>2019-05-17T14:12:26.169Z</time>
      </trkpt>
      <trkpt lat="39.50341333" lon="-8.41123">
        <ele>96.0</ele>
        <time>2019-05-17T14:12:27.161Z</time>
      </trkpt>
      <trkpt lat="39.50341333" lon="-8.41123">
        <ele>96.0</ele>
        <time>2019-05-17T14:12:28.187Z</time>
      </trkpt>
      <trkpt lat="39.50341333" lon="-8.41123">
        <ele>96.0</ele>
        <time>2019-05-17T14:12:29.172Z</time>
      </trkpt>
      <trkpt lat="39.50341333" lon="-8.41123">
        <ele>96.0</ele>
        <time>2019-05-17T14:12:30.176Z</time>
      </trkpt>
      <trkpt lat="39.50341333" lon="-8.41123">
        <ele>96.0</ele>
        <time>2019-05-17T14:12:31.167Z</time>
      </trkpt>
      <trkpt lat="39.50341333" lon="-8.41123">
        <ele>96.0</ele>
        <time>2019-05-17T14:12:32.168Z</time>
      </trkpt>
      <trkpt lat="39.50341333" lon="-8.41123">
        <ele>96.0</ele>
        <time>2019-05-17T14:12:33.162Z</time>
      </trkpt>
      <trkpt lat="39.50341333" lon="-8.41123">
        <ele>96.0</ele>
        <time>2019-05-17T14:12:34.167Z</time>
      </trkpt>
      <trkpt lat="39.50341333" lon="-8.41123">
        <ele>96.0</ele>
        <time>2019-05-17T14:12:35.161Z</time>
      </trkpt>
      <trkpt lat="39.50341333" lon="-8.41123">
        <ele>96.0</ele>
        <time>2019-05-17T14:12:36.166Z</time>
      </trkpt>
      <trkpt lat="39.50341333" lon="-8.41123">
        <ele>96.0</ele>
        <time>2019-05-17T14:12:37.161Z</time>
      </trkpt>
      <trkpt lat="39.50341333" lon="-8.41123">
        <ele>96.0</ele>
        <time>2019-05-17T14:12:38.150Z</time>
      </trkpt>
      <trkpt lat="39.50341333" lon="-8.41123">
        <ele>96.0</ele>
        <time>2019-05-17T14:12:39.189Z</time>
      </trkpt>
      <trkpt lat="39.50341333" lon="-8.41123">
        <ele>96.0</ele>
        <time>2019-05-17T14:12:40.173Z</time>
      </trkpt>
      <trkpt lat="39.50341333" lon="-8.41123">
        <ele>96.0</ele>
        <time>2019-05-17T14:12:41.161Z</time>
      </trkpt>
      <trkpt lat="39.50341333" lon="-8.41123">
        <ele>96.0</ele>
        <time>2019-05-17T14:12:42.166Z</time>
      </trkpt>
      <trkpt lat="39.50341333" lon="-8.41123">
        <ele>96.0</ele>
        <time>2019-05-17T14:12:43.168Z</time>
      </trkpt>
      <trkpt lat="39.50341333" lon="-8.41123">
        <ele>96.0</ele>
        <time>2019-05-17T14:12:44.166Z</time>
      </trkpt>
      <trkpt lat="39.50341333" lon="-8.41123">
        <ele>96.0</ele>
        <time>2019-05-17T14:12:45.166Z</time>
      </trkpt>
      <trkpt lat="39.50341333" lon="-8.41123">
        <ele>96.0</ele>
        <time>2019-05-17T14:12:46.167Z</time>
      </trkpt>
      <trkpt lat="39.50341333" lon="-8.41123">
        <ele>96.0</ele>
        <time>2019-05-17T14:12:47.161Z</time>
      </trkpt>
      <trkpt lat="39.50342167" lon="-8.41121167">
        <ele>96.0</ele>
        <time>2019-05-17T14:12:48.187Z</time>
      </trkpt>
      <trkpt lat="39.50342167" lon="-8.41121167">
        <ele>96.0</ele>
        <time>2019-05-17T14:12:49.172Z</time>
      </trkpt>
      <trkpt lat="39.50343833" lon="-8.41117667">
        <ele>96.0</ele>
        <time>2019-05-17T14:12:50.170Z</time>
      </trkpt>
      <trkpt lat="39.503445" lon="-8.411155">
        <ele>96.0</ele>
        <time>2019-05-17T14:12:51.187Z</time>
      </trkpt>
      <trkpt lat="39.503445" lon="-8.411155">
        <ele>96.0</ele>
        <time>2019-05-17T14:12:52.170Z</time>
      </trkpt>
      <trkpt lat="39.50344833" lon="-8.411095">
        <ele>96.0</ele>
        <time>2019-05-17T14:12:53.176Z</time>
      </trkpt>
      <trkpt lat="39.50344833" lon="-8.411095">
        <ele>96.0</ele>
        <time>2019-05-17T14:12:54.182Z</time>
      </trkpt>
      <trkpt lat="39.50345667" lon="-8.41103833">
        <ele>96.0</ele>
        <time>2019-05-17T14:12:55.190Z</time>
      </trkpt>
      <trkpt lat="39.50345833" lon="-8.41101667">
        <ele>96.0</ele>
        <time>2019-05-17T14:12:56.185Z</time>
      </trkpt>
      <trkpt lat="39.50345833" lon="-8.41101667">
        <ele>96.0</ele>
        <time>2019-05-17T14:12:57.156Z</time>
      </trkpt>
      <trkpt lat="39.50346167" lon="-8.410975">
        <ele>96.0</ele>
        <time>2019-05-17T14:12:58.156Z</time>
      </trkpt>
      <trkpt lat="39.50346167" lon="-8.410975">
        <ele>96.0</ele>
        <time>2019-05-17T14:12:59.176Z</time>
      </trkpt>
      <trkpt lat="39.50346667" lon="-8.41092833">
        <ele>96.0</ele>
        <time>2019-05-17T14:13:00.173Z</time>
      </trkpt>
      <trkpt lat="39.50346667" lon="-8.41092833">
        <ele>96.0</ele>
        <time>2019-05-17T14:13:01.166Z</time>
      </trkpt>
      <trkpt lat="39.50347" lon="-8.41087833">
        <ele>96.0</ele>
        <time>2019-05-17T14:13:02.155Z</time>
      </trkpt>
      <trkpt lat="39.50347" lon="-8.41087833">
        <ele>96.0</ele>
        <time>2019-05-17T14:13:03.174Z</time>
      </trkpt>
      <trkpt lat="39.50347333" lon="-8.41083167">
        <ele>96.0</ele>
        <time>2019-05-17T14:13:04.168Z</time>
      </trkpt>
      <trkpt lat="39.50347333" lon="-8.41083167">
        <ele>96.0</ele>
        <time>2019-05-17T14:13:05.188Z</time>
      </trkpt>
      <trkpt lat="39.50348" lon="-8.41078667">
        <ele>96.0</ele>
        <time>2019-05-17T14:13:06.187Z</time>
      </trkpt>
      <trkpt lat="39.50348" lon="-8.41078667">
        <ele>96.0</ele>
        <time>2019-05-17T14:13:07.154Z</time>
      </trkpt>
      <trkpt lat="39.50348667" lon="-8.41075333">
        <ele>97.0</ele>
        <time>2019-05-17T14:13:08.183Z</time>
      </trkpt>
      <trkpt lat="39.50348667" lon="-8.41075333">
        <ele>97.0</ele>
        <time>2019-05-17T14:13:09.166Z</time>
      </trkpt>
      <trkpt lat="39.50349667" lon="-8.410715">
        <ele>98.0</ele>
        <time>2019-05-17T14:13:10.185Z</time>
      </trkpt>
      <trkpt lat="39.50350167" lon="-8.41069667">
        <ele>98.0</ele>
        <time>2019-05-17T14:13:11.159Z</time>
      </trkpt>
      <trkpt lat="39.50350167" lon="-8.41069667">
        <ele>98.0</ele>
        <time>2019-05-17T14:13:12.164Z</time>
      </trkpt>
      <trkpt lat="39.50350667" lon="-8.41066167">
        <ele>98.0</ele>
        <time>2019-05-17T14:13:13.155Z</time>
      </trkpt>
      <trkpt lat="39.50351667" lon="-8.410645">
        <ele>98.0</ele>
        <time>2019-05-17T14:13:14.176Z</time>
      </trkpt>
      <trkpt lat="39.50351667" lon="-8.410645">
        <ele>98.0</ele>
        <time>2019-05-17T14:13:15.157Z</time>
      </trkpt>
      <trkpt lat="39.50354167" lon="-8.41059667">
        <ele>99.0</ele>
        <time>2019-05-17T14:13:16.156Z</time>
      </trkpt>
      <trkpt lat="39.50354167" lon="-8.41059667">
        <ele>99.0</ele>
        <time>2019-05-17T14:13:17.179Z</time>
      </trkpt>
      <trkpt lat="39.50355667" lon="-8.41055833">
        <ele>99.0</ele>
        <time>2019-05-17T14:13:18.181Z</time>
      </trkpt>
      <trkpt lat="39.50355667" lon="-8.41055833">
        <ele>99.0</ele>
        <time>2019-05-17T14:13:19.182Z</time>
      </trkpt>
      <trkpt lat="39.50357" lon="-8.41051667">
        <ele>100.0</ele>
        <time>2019-05-17T14:13:20.165Z</time>
      </trkpt>
      <trkpt lat="39.50357" lon="-8.41051667">
        <ele>100.0</ele>
        <time>2019-05-17T14:13:21.161Z</time>
      </trkpt>
      <trkpt lat="39.50357667" lon="-8.41046167">
        <ele>100.0</ele>
        <time>2019-05-17T14:13:22.163Z</time>
      </trkpt>
      <trkpt lat="39.50357667" lon="-8.41046167">
        <ele>100.0</ele>
        <time>2019-05-17T14:13:23.179Z</time>
      </trkpt>
      <trkpt lat="39.50357833" lon="-8.41041">
        <ele>99.0</ele>
        <time>2019-05-17T14:13:24.175Z</time>
      </trkpt>
      <trkpt lat="39.50357833" lon="-8.41041">
        <ele>99.0</ele>
        <time>2019-05-17T14:13:25.156Z</time>
      </trkpt>
      <trkpt lat="39.503585" lon="-8.41036333">
        <ele>99.0</ele>
        <time>2019-05-17T14:13:26.155Z</time>
      </trkpt>
      <trkpt lat="39.503585" lon="-8.41036333">
        <ele>99.0</ele>
        <time>2019-05-17T14:13:27.162Z</time>
      </trkpt>
      <trkpt lat="39.50359167" lon="-8.41029833">
        <ele>99.0</ele>
        <time>2019-05-17T14:13:28.155Z</time>
      </trkpt>
      <trkpt lat="39.50359167" lon="-8.41029833">
        <ele>99.0</ele>
        <time>2019-05-17T14:13:29.164Z</time>
      </trkpt>
      <trkpt lat="39.50358333" lon="-8.41024833">
        <ele>99.0</ele>
        <time>2019-05-17T14:13:30.174Z</time>
      </trkpt>
      <trkpt lat="39.50358333" lon="-8.41024833">
        <ele>99.0</ele>
        <time>2019-05-17T14:13:31.155Z</time>
      </trkpt>
      <trkpt lat="39.50358" lon="-8.41020333">
        <ele>99.0</ele>
        <time>2019-05-17T14:13:32.174Z</time>
      </trkpt>
      <trkpt lat="39.50358" lon="-8.41020333">
        <ele>99.0</ele>
        <time>2019-05-17T14:13:33.154Z</time>
      </trkpt>
      <trkpt lat="39.50357333" lon="-8.41015333">
        <ele>99.0</ele>
        <time>2019-05-17T14:13:34.192Z</time>
      </trkpt>
      <trkpt lat="39.50357333" lon="-8.41015333">
        <ele>99.0</ele>
        <time>2019-05-17T14:13:35.160Z</time>
      </trkpt>
      <trkpt lat="39.50356167" lon="-8.41010833">
        <ele>99.0</ele>
        <time>2019-05-17T14:13:36.189Z</time>
      </trkpt>
      <trkpt lat="39.50356167" lon="-8.41010833">
        <ele>99.0</ele>
        <time>2019-05-17T14:13:37.155Z</time>
      </trkpt>
      <trkpt lat="39.50355167" lon="-8.41005667">
        <ele>99.0</ele>
        <time>2019-05-17T14:13:38.174Z</time>
      </trkpt>
      <trkpt lat="39.50355167" lon="-8.41005667">
        <ele>99.0</ele>
        <time>2019-05-17T14:13:39.186Z</time>
      </trkpt>
      <trkpt lat="39.50354833" lon="-8.41001">
        <ele>99.0</ele>
        <time>2019-05-17T14:13:40.155Z</time>
      </trkpt>
      <trkpt lat="39.50354667" lon="-8.40998667">
        <ele>99.0</ele>
        <time>2019-05-17T14:13:41.162Z</time>
      </trkpt>
      <trkpt lat="39.50354667" lon="-8.40998667">
        <ele>99.0</ele>
        <time>2019-05-17T14:13:42.177Z</time>
      </trkpt>
      <trkpt lat="39.503535" lon="-8.40994167">
        <ele>99.0</ele>
        <time>2019-05-17T14:13:43.167Z</time>
      </trkpt>
      <trkpt lat="39.50352667" lon="-8.40992">
        <ele>99.0</ele>
        <time>2019-05-17T14:13:44.159Z</time>
      </trkpt>
      <trkpt lat="39.50352667" lon="-8.40992">
        <ele>99.0</ele>
        <time>2019-05-17T14:13:45.164Z</time>
      </trkpt>
      <trkpt lat="39.50351833" lon="-8.40987167">
        <ele>100.0</ele>
        <time>2019-05-17T14:13:46.165Z</time>
      </trkpt>
      <trkpt lat="39.50351833" lon="-8.40987167">
        <ele>100.0</ele>
        <time>2019-05-17T14:13:47.171Z</time>
      </trkpt>
      <trkpt lat="39.50351" lon="-8.40981833">
        <ele>100.0</ele>
        <time>2019-05-17T14:13:48.165Z</time>
      </trkpt>
      <trkpt lat="39.50351" lon="-8.40981833">
        <ele>100.0</ele>
        <time>2019-05-17T14:13:49.188Z</time>
      </trkpt>
      <trkpt lat="39.50350667" lon="-8.40976667">
        <ele>100.0</ele>
        <time>2019-05-17T14:13:50.189Z</time>
      </trkpt>
      <trkpt lat="39.50350667" lon="-8.40976667">
        <ele>100.0</ele>
        <time>2019-05-17T14:13:51.158Z</time>
      </trkpt>
      <trkpt lat="39.50349833" lon="-8.40972">
        <ele>101.0</ele>
        <time>2019-05-17T14:13:52.188Z</time>
      </trkpt>
      <trkpt lat="39.50349833" lon="-8.40972">
        <ele>101.0</ele>
        <time>2019-05-17T14:13:53.169Z</time>
      </trkpt>
      <trkpt lat="39.50349333" lon="-8.40968">
        <ele>101.0</ele>
        <time>2019-05-17T14:13:54.164Z</time>
      </trkpt>
      <trkpt lat="39.50349333" lon="-8.40968">
        <ele>101.0</ele>
        <time>2019-05-17T14:13:55.152Z</time>
      </trkpt>
      <trkpt lat="39.503495" lon="-8.40964333">
        <ele>101.0</ele>
        <time>2019-05-17T14:13:56.186Z</time>
      </trkpt>
      <trkpt lat="39.503495" lon="-8.40964333">
        <ele>101.0</ele>
        <time>2019-05-17T14:13:57.169Z</time>
      </trkpt>
      <trkpt lat="39.503495" lon="-8.40961667">
        <ele>102.0</ele>
        <time>2019-05-17T14:13:58.154Z</time>
      </trkpt>
      <trkpt lat="39.503495" lon="-8.40961667">
        <ele>102.0</ele>
        <time>2019-05-17T14:13:59.168Z</time>
      </trkpt>
      <trkpt lat="39.50350167" lon="-8.409585">
        <ele>102.0</ele>
        <time>2019-05-17T14:14:00.173Z</time>
      </trkpt>
      <trkpt lat="39.50350167" lon="-8.409585">
        <ele>102.0</ele>
        <time>2019-05-17T14:14:01.172Z</time>
      </trkpt>
      <trkpt lat="39.50350833" lon="-8.40954667">
        <ele>103.0</ele>
        <time>2019-05-17T14:14:02.158Z</time>
      </trkpt>
      <trkpt lat="39.50350833" lon="-8.40954667">
        <ele>103.0</ele>
        <time>2019-05-17T14:14:03.188Z</time>
      </trkpt>
      <trkpt lat="39.50351333" lon="-8.409515">
        <ele>103.0</ele>
        <time>2019-05-17T14:14:04.177Z</time>
      </trkpt>
      <trkpt lat="39.50351333" lon="-8.409515">
        <ele>103.0</ele>
        <time>2019-05-17T14:14:05.184Z</time>
      </trkpt>
      <trkpt lat="39.50350833" lon="-8.40949">
        <ele>104.0</ele>
        <time>2019-05-17T14:14:06.152Z</time>
      </trkpt>
      <trkpt lat="39.50350167" lon="-8.40947833">
        <ele>104.0</ele>
        <time>2019-05-17T14:14:07.185Z</time>
      </trkpt>
      <trkpt lat="39.50349833" lon="-8.409465">
        <ele>104.0</ele>
        <time>2019-05-17T14:14:08.194Z</time>
      </trkpt>
      <trkpt lat="39.50349833" lon="-8.409465">
        <ele>104.0</ele>
        <time>2019-05-17T14:14:09.159Z</time>
      </trkpt>
      <trkpt lat="39.50350167" lon="-8.40943">
        <ele>104.0</ele>
        <time>2019-05-17T14:14:10.177Z</time>
      </trkpt>
      <trkpt lat="39.503505" lon="-8.40941333">
        <ele>105.0</ele>
        <time>2019-05-17T14:14:11.152Z</time>
      </trkpt>
      <trkpt lat="39.503505" lon="-8.40941333">
        <ele>105.0</ele>
        <time>2019-05-17T14:14:12.167Z</time>
      </trkpt>
      <trkpt lat="39.50351333" lon="-8.409385">
        <ele>105.0</ele>
        <time>2019-05-17T14:14:13.167Z</time>
      </trkpt>
      <trkpt lat="39.50351333" lon="-8.40936833">
        <ele>106.0</ele>
        <time>2019-05-17T14:14:14.165Z</time>
      </trkpt>
      <trkpt lat="39.50351333" lon="-8.40936833">
        <ele>106.0</ele>
        <time>2019-05-17T14:14:15.173Z</time>
      </trkpt>
      <trkpt lat="39.50351333" lon="-8.409335">
        <ele>106.0</ele>
        <time>2019-05-17T14:14:16.162Z</time>
      </trkpt>
      <trkpt lat="39.50351333" lon="-8.409335">
        <ele>106.0</ele>
        <time>2019-05-17T14:14:17.178Z</time>
      </trkpt>
      <trkpt lat="39.50351667" lon="-8.40930833">
        <ele>107.0</ele>
        <time>2019-05-17T14:14:18.165Z</time>
      </trkpt>
      <trkpt lat="39.50351667" lon="-8.40930833">
        <ele>107.0</ele>
        <time>2019-05-17T14:14:19.170Z</time>
      </trkpt>
      <trkpt lat="39.50352667" lon="-8.40928">
        <ele>107.0</ele>
        <time>2019-05-17T14:14:20.165Z</time>
      </trkpt>
      <trkpt lat="39.50352667" lon="-8.40928">
        <ele>107.0</ele>
        <time>2019-05-17T14:14:21.168Z</time>
      </trkpt>
      <trkpt lat="39.50353667" lon="-8.40925667">
        <ele>108.0</ele>
        <time>2019-05-17T14:14:22.171Z</time>
      </trkpt>
      <trkpt lat="39.50353667" lon="-8.40925667">
        <ele>108.0</ele>
        <time>2019-05-17T14:14:23.184Z</time>
      </trkpt>
      <trkpt lat="39.50354667" lon="-8.40923167">
        <ele>109.0</ele>
        <time>2019-05-17T14:14:24.183Z</time>
      </trkpt>
      <trkpt lat="39.50354667" lon="-8.40923167">
        <ele>109.0</ele>
        <time>2019-05-17T14:14:25.154Z</time>
      </trkpt>
      <trkpt lat="39.50354333" lon="-8.4092">
        <ele>110.0</ele>
        <time>2019-05-17T14:14:26.150Z</time>
      </trkpt>
      <trkpt lat="39.50354333" lon="-8.4092">
        <ele>110.0</ele>
        <time>2019-05-17T14:14:27.163Z</time>
      </trkpt>
      <trkpt lat="39.50355833" lon="-8.40916333">
        <ele>111.0</ele>
        <time>2019-05-17T14:14:28.170Z</time>
      </trkpt>
      <trkpt lat="39.50355833" lon="-8.40916333">
        <ele>111.0</ele>
        <time>2019-05-17T14:14:29.186Z</time>
      </trkpt>
      <trkpt lat="39.50357167" lon="-8.409135">
        <ele>111.0</ele>
        <time>2019-05-17T14:14:30.182Z</time>
      </trkpt>
      <trkpt lat="39.50357167" lon="-8.409135">
        <ele>111.0</ele>
        <time>2019-05-17T14:14:31.162Z</time>
      </trkpt>
      <trkpt lat="39.50358" lon="-8.409105">
        <ele>112.0</ele>
        <time>2019-05-17T14:14:32.192Z</time>
      </trkpt>
      <trkpt lat="39.50358" lon="-8.409105">
        <ele>112.0</ele>
        <time>2019-05-17T14:14:33.157Z</time>
      </trkpt>
      <trkpt lat="39.50359333" lon="-8.40908">
        <ele>113.0</ele>
        <time>2019-05-17T14:14:34.176Z</time>
      </trkpt>
      <trkpt lat="39.50359333" lon="-8.40908">
        <ele>113.0</ele>
        <time>2019-05-17T14:14:35.181Z</time>
      </trkpt>
      <trkpt lat="39.50360667" lon="-8.40905">
        <ele>113.0</ele>
        <time>2019-05-17T14:14:36.178Z</time>
      </trkpt>
      <trkpt lat="39.50360667" lon="-8.40905">
        <ele>113.0</ele>
        <time>2019-05-17T14:14:37.172Z</time>
      </trkpt>
      <trkpt lat="39.50361167" lon="-8.40902333">
        <ele>114.0</ele>
        <time>2019-05-17T14:14:38.169Z</time>
      </trkpt>
      <trkpt lat="39.50361167" lon="-8.40902333">
        <ele>114.0</ele>
        <time>2019-05-17T14:14:39.174Z</time>
      </trkpt>
      <trkpt lat="39.503625" lon="-8.409">
        <ele>114.0</ele>
        <time>2019-05-17T14:14:40.178Z</time>
      </trkpt>
      <trkpt lat="39.503625" lon="-8.409">
        <ele>114.0</ele>
        <time>2019-05-17T14:14:41.154Z</time>
      </trkpt>
      <trkpt lat="39.50363833" lon="-8.40896833">
        <ele>115.0</ele>
        <time>2019-05-17T14:14:42.195Z</time>
      </trkpt>
      <trkpt lat="39.50363833" lon="-8.40896833">
        <ele>115.0</ele>
        <time>2019-05-17T14:14:43.160Z</time>
      </trkpt>
      <trkpt lat="39.50364667" lon="-8.40894">
        <ele>115.0</ele>
        <time>2019-05-17T14:14:44.163Z</time>
      </trkpt>
      <trkpt lat="39.50364667" lon="-8.40894">
        <ele>115.0</ele>
        <time>2019-05-17T14:14:45.178Z</time>
      </trkpt>
      <trkpt lat="39.50364833" lon="-8.40891833">
        <ele>115.0</ele>
        <time>2019-05-17T14:14:46.166Z</time>
      </trkpt>
      <trkpt lat="39.50364833" lon="-8.40891833">
        <ele>115.0</ele>
        <time>2019-05-17T14:14:47.171Z</time>
      </trkpt>
      <trkpt lat="39.50366" lon="-8.40889">
        <ele>115.0</ele>
        <time>2019-05-17T14:14:48.155Z</time>
      </trkpt>
      <trkpt lat="39.50366" lon="-8.40889">
        <ele>115.0</ele>
        <time>2019-05-17T14:14:49.154Z</time>
      </trkpt>
      <trkpt lat="39.50366833" lon="-8.40886333">
        <ele>116.0</ele>
        <time>2019-05-17T14:14:50.155Z</time>
      </trkpt>
      <trkpt lat="39.50366833" lon="-8.40886333">
        <ele>116.0</ele>
        <time>2019-05-17T14:14:51.177Z</time>
      </trkpt>
      <trkpt lat="39.50368667" lon="-8.40883667">
        <ele>116.0</ele>
        <time>2019-05-17T14:14:52.165Z</time>
      </trkpt>
      <trkpt lat="39.50368667" lon="-8.40883667">
        <ele>116.0</ele>
        <time>2019-05-17T14:14:53.179Z</time>
      </trkpt>
      <trkpt lat="39.5037" lon="-8.40880833">
        <ele>116.0</ele>
        <time>2019-05-17T14:14:54.174Z</time>
      </trkpt>
      <trkpt lat="39.50370833" lon="-8.40878667">
        <ele>116.0</ele>
        <time>2019-05-17T14:14:55.165Z</time>
      </trkpt>
      <trkpt lat="39.50371667" lon="-8.40877333">
        <ele>116.0</ele>
        <time>2019-05-17T14:14:56.160Z</time>
      </trkpt>
      <trkpt lat="39.50371667" lon="-8.40877333">
        <ele>116.0</ele>
        <time>2019-05-17T14:14:57.176Z</time>
      </trkpt>
      <trkpt lat="39.50373" lon="-8.408755">
        <ele>117.0</ele>
        <time>2019-05-17T14:14:58.167Z</time>
      </trkpt>
      <trkpt lat="39.50373" lon="-8.408755">
        <ele>117.0</ele>
        <time>2019-05-17T14:14:59.176Z</time>
      </trkpt>
      <trkpt lat="39.50374167" lon="-8.40872667">
        <ele>117.0</ele>
        <time>2019-05-17T14:15:00.164Z</time>
      </trkpt>
      <trkpt lat="39.50374167" lon="-8.40872667">
        <ele>117.0</ele>
        <time>2019-05-17T14:15:01.167Z</time>
      </trkpt>
      <trkpt lat="39.50375167" lon="-8.4087">
        <ele>117.0</ele>
        <time>2019-05-17T14:15:02.171Z</time>
      </trkpt>
      <trkpt lat="39.50375167" lon="-8.4087">
        <ele>117.0</ele>
        <time>2019-05-17T14:15:03.160Z</time>
      </trkpt>
      <trkpt lat="39.50375667" lon="-8.40867833">
        <ele>117.0</ele>
        <time>2019-05-17T14:15:04.185Z</time>
      </trkpt>
      <trkpt lat="39.50375667" lon="-8.40867833">
        <ele>117.0</ele>
        <time>2019-05-17T14:15:05.170Z</time>
      </trkpt>
      <trkpt lat="39.503765" lon="-8.40865167">
        <ele>118.0</ele>
        <time>2019-05-17T14:15:06.153Z</time>
      </trkpt>
      <trkpt lat="39.503765" lon="-8.40865167">
        <ele>118.0</ele>
        <time>2019-05-17T14:15:07.155Z</time>
      </trkpt>
      <trkpt lat="39.50377667" lon="-8.40862167">
        <ele>118.0</ele>
        <time>2019-05-17T14:15:08.150Z</time>
      </trkpt>
      <trkpt lat="39.50377667" lon="-8.40862167">
        <ele>118.0</ele>
        <time>2019-05-17T14:15:09.163Z</time>
      </trkpt>
      <trkpt lat="39.50378667" lon="-8.40859667">
        <ele>118.0</ele>
        <time>2019-05-17T14:15:10.154Z</time>
      </trkpt>
      <trkpt lat="39.50379" lon="-8.40858167">
        <ele>118.0</ele>
        <time>2019-05-17T14:15:11.173Z</time>
      </trkpt>
      <trkpt lat="39.50379" lon="-8.40858167">
        <ele>118.0</ele>
        <time>2019-05-17T14:15:12.182Z</time>
      </trkpt>
      <trkpt lat="39.50380667" lon="-8.408545">
        <ele>119.0</ele>
        <time>2019-05-17T14:15:13.175Z</time>
      </trkpt>
      <trkpt lat="39.50381333" lon="-8.40852833">
        <ele>119.0</ele>
        <time>2019-05-17T14:15:14.174Z</time>
      </trkpt>
      <trkpt lat="39.50381333" lon="-8.40852833">
        <ele>119.0</ele>
        <time>2019-05-17T14:15:15.182Z</time>
      </trkpt>
      <trkpt lat="39.503825" lon="-8.40849667">
        <ele>120.0</ele>
        <time>2019-05-17T14:15:16.172Z</time>
      </trkpt>
      <trkpt lat="39.503825" lon="-8.40849667">
        <ele>120.0</ele>
        <time>2019-05-17T14:15:17.181Z</time>
      </trkpt>
      <trkpt lat="39.50383667" lon="-8.40847167">
        <ele>120.0</ele>
        <time>2019-05-17T14:15:18.182Z</time>
      </trkpt>
      <trkpt lat="39.50383667" lon="-8.40847167">
        <ele>120.0</ele>
        <time>2019-05-17T14:15:19.164Z</time>
      </trkpt>
      <trkpt lat="39.50384333" lon="-8.408445">
        <ele>120.0</ele>
        <time>2019-05-17T14:15:20.168Z</time>
      </trkpt>
      <trkpt lat="39.50384333" lon="-8.408445">
        <ele>120.0</ele>
        <time>2019-05-17T14:15:21.155Z</time>
      </trkpt>
      <trkpt lat="39.50384833" lon="-8.40842167">
        <ele>120.0</ele>
        <time>2019-05-17T14:15:22.159Z</time>
      </trkpt>
      <trkpt lat="39.50384833" lon="-8.40842167">
        <ele>120.0</ele>
        <time>2019-05-17T14:15:23.156Z</time>
      </trkpt>
      <trkpt lat="39.50386167" lon="-8.40838">
        <ele>121.0</ele>
        <time>2019-05-17T14:15:24.157Z</time>
      </trkpt>
      <trkpt lat="39.50386167" lon="-8.40838">
        <ele>121.0</ele>
        <time>2019-05-17T14:15:25.178Z</time>
      </trkpt>
      <trkpt lat="39.50386" lon="-8.408335">
        <ele>121.0</ele>
        <time>2019-05-17T14:15:26.166Z</time>
      </trkpt>
      <trkpt lat="39.50386" lon="-8.408335">
        <ele>121.0</ele>
        <time>2019-05-17T14:15:27.158Z</time>
      </trkpt>
      <trkpt lat="39.50386333" lon="-8.40830333">
        <ele>121.0</ele>
        <time>2019-05-17T14:15:28.185Z</time>
      </trkpt>
      <trkpt lat="39.50386167" lon="-8.40829">
        <ele>121.0</ele>
        <time>2019-05-17T14:15:29.179Z</time>
      </trkpt>
      <trkpt lat="39.50386167" lon="-8.40829">
        <ele>121.0</ele>
        <time>2019-05-17T14:15:30.161Z</time>
      </trkpt>
      <trkpt lat="39.503875" lon="-8.40825833">
        <ele>121.0</ele>
        <time>2019-05-17T14:15:31.167Z</time>
      </trkpt>
      <trkpt lat="39.503885" lon="-8.40824">
        <ele>121.0</ele>
        <time>2019-05-17T14:15:32.165Z</time>
      </trkpt>
      <trkpt lat="39.503885" lon="-8.40824">
        <ele>121.0</ele>
        <time>2019-05-17T14:15:33.177Z</time>
      </trkpt>
      <trkpt lat="39.503895" lon="-8.40820833">
        <ele>121.0</ele>
        <time>2019-05-17T14:15:34.183Z</time>
      </trkpt>
      <trkpt lat="39.503895" lon="-8.40820833">
        <ele>121.0</ele>
        <time>2019-05-17T14:15:35.150Z</time>
      </trkpt>
      <trkpt lat="39.50390167" lon="-8.40818667">
        <ele>122.0</ele>
        <time>2019-05-17T14:15:36.165Z</time>
      </trkpt>
      <trkpt lat="39.50390167" lon="-8.40818667">
        <ele>122.0</ele>
        <time>2019-05-17T14:15:37.158Z</time>
      </trkpt>
      <trkpt lat="39.50390833" lon="-8.40816">
        <ele>122.0</ele>
        <time>2019-05-17T14:15:38.166Z</time>
      </trkpt>
      <trkpt lat="39.50390833" lon="-8.40816">
        <ele>122.0</ele>
        <time>2019-05-17T14:15:39.172Z</time>
      </trkpt>
      <trkpt lat="39.50392" lon="-8.40812667">
        <ele>122.0</ele>
        <time>2019-05-17T14:15:40.185Z</time>
      </trkpt>
      <trkpt lat="39.50392" lon="-8.40812667">
        <ele>122.0</ele>
        <time>2019-05-17T14:15:41.182Z</time>
      </trkpt>
      <trkpt lat="39.503925" lon="-8.40809667">
        <ele>123.0</ele>
        <time>2019-05-17T14:15:42.175Z</time>
      </trkpt>
      <trkpt lat="39.503925" lon="-8.40809667">
        <ele>123.0</ele>
        <time>2019-05-17T14:15:43.187Z</time>
      </trkpt>
      <trkpt lat="39.50393667" lon="-8.40807333">
        <ele>123.0</ele>
        <time>2019-05-17T14:15:44.189Z</time>
      </trkpt>
      <trkpt lat="39.50393667" lon="-8.40807333">
        <ele>123.0</ele>
        <time>2019-05-17T14:15:45.162Z</time>
      </trkpt>
      <trkpt lat="39.50395" lon="-8.40805">
        <ele>124.0</ele>
        <time>2019-05-17T14:15:46.158Z</time>
      </trkpt>
      <trkpt lat="39.50395" lon="-8.40805">
        <ele>124.0</ele>
        <time>2019-05-17T14:15:47.168Z</time>
      </trkpt>
      <trkpt lat="39.50397" lon="-8.40802333">
        <ele>124.0</ele>
        <time>2019-05-17T14:15:48.160Z</time>
      </trkpt>
      <trkpt lat="39.50397833" lon="-8.40801167">
        <ele>124.0</ele>
        <time>2019-05-17T14:15:49.173Z</time>
      </trkpt>
      <trkpt lat="39.50398333" lon="-8.40799667">
        <ele>125.0</ele>
        <time>2019-05-17T14:15:50.155Z</time>
      </trkpt>
      <trkpt lat="39.50398333" lon="-8.40799667">
        <ele>125.0</ele>
        <time>2019-05-17T14:15:51.160Z</time>
      </trkpt>
      <trkpt lat="39.50399667" lon="-8.407965">
        <ele>125.0</ele>
        <time>2019-05-17T14:15:52.155Z</time>
      </trkpt>
      <trkpt lat="39.50399667" lon="-8.407965">
        <ele>125.0</ele>
        <time>2019-05-17T14:15:53.161Z</time>
      </trkpt>
      <trkpt lat="39.50400667" lon="-8.40793833">
        <ele>126.0</ele>
        <time>2019-05-17T14:15:54.172Z</time>
      </trkpt>
      <trkpt lat="39.50400667" lon="-8.40793833">
        <ele>126.0</ele>
        <time>2019-05-17T14:15:55.177Z</time>
      </trkpt>
      <trkpt lat="39.504025" lon="-8.40790333">
        <ele>126.0</ele>
        <time>2019-05-17T14:15:56.164Z</time>
      </trkpt>
      <trkpt lat="39.504025" lon="-8.40790333">
        <ele>126.0</ele>
        <time>2019-05-17T14:15:57.156Z</time>
      </trkpt>
      <trkpt lat="39.50404667" lon="-8.40787667">
        <ele>126.0</ele>
        <time>2019-05-17T14:15:58.189Z</time>
      </trkpt>
      <trkpt lat="39.50404667" lon="-8.40787667">
        <ele>126.0</ele>
        <time>2019-05-17T14:15:59.158Z</time>
      </trkpt>
      <trkpt lat="39.50407333" lon="-8.40783167">
        <ele>126.0</ele>
        <time>2019-05-17T14:16:00.154Z</time>
      </trkpt>
      <trkpt lat="39.50407333" lon="-8.40783167">
        <ele>126.0</ele>
        <time>2019-05-17T14:16:01.173Z</time>
      </trkpt>
      <trkpt lat="39.50409333" lon="-8.407795">
        <ele>126.0</ele>
        <time>2019-05-17T14:16:02.185Z</time>
      </trkpt>
      <trkpt lat="39.50409333" lon="-8.407795">
        <ele>126.0</ele>
        <time>2019-05-17T14:16:03.154Z</time>
      </trkpt>
      <trkpt lat="39.50410333" lon="-8.40777">
        <ele>127.0</ele>
        <time>2019-05-17T14:16:04.155Z</time>
      </trkpt>
      <trkpt lat="39.50410333" lon="-8.40777">
        <ele>127.0</ele>
        <time>2019-05-17T14:16:05.174Z</time>
      </trkpt>
      <trkpt lat="39.50411833" lon="-8.40773667">
        <ele>127.0</ele>
        <time>2019-05-17T14:16:06.179Z</time>
      </trkpt>
      <trkpt lat="39.50411833" lon="-8.40773667">
        <ele>127.0</ele>
        <time>2019-05-17T14:16:07.187Z</time>
      </trkpt>
      <trkpt lat="39.504135" lon="-8.40770833">
        <ele>127.0</ele>
        <time>2019-05-17T14:16:08.151Z</time>
      </trkpt>
      <trkpt lat="39.504135" lon="-8.40770833">
        <ele>127.0</ele>
        <time>2019-05-17T14:16:09.176Z</time>
      </trkpt>
      <trkpt lat="39.50415333" lon="-8.40768333">
        <ele>127.0</ele>
        <time>2019-05-17T14:16:10.172Z</time>
      </trkpt>
      <trkpt lat="39.50416333" lon="-8.40767333">
        <ele>128.0</ele>
        <time>2019-05-17T14:16:11.166Z</time>
      </trkpt>
      <trkpt lat="39.50416333" lon="-8.40767333">
        <ele>128.0</ele>
        <time>2019-05-17T14:16:12.172Z</time>
      </trkpt>
      <trkpt lat="39.50418" lon="-8.40764833">
        <ele>128.0</ele>
        <time>2019-05-17T14:16:13.161Z</time>
      </trkpt>
      <trkpt lat="39.504185" lon="-8.407635">
        <ele>128.0</ele>
        <time>2019-05-17T14:16:14.184Z</time>
      </trkpt>
      <trkpt lat="39.504185" lon="-8.407635">
        <ele>128.0</ele>
        <time>2019-05-17T14:16:15.155Z</time>
      </trkpt>
      <trkpt lat="39.5042" lon="-8.407605">
        <ele>128.0</ele>
        <time>2019-05-17T14:16:16.155Z</time>
      </trkpt>
      <trkpt lat="39.504205" lon="-8.40759667">
        <ele>128.0</ele>
        <time>2019-05-17T14:16:17.188Z</time>
      </trkpt>
      <trkpt lat="39.504205" lon="-8.40759667">
        <ele>128.0</ele>
        <time>2019-05-17T14:16:18.167Z</time>
      </trkpt>
      <trkpt lat="39.504215" lon="-8.40757333">
        <ele>129.0</ele>
        <time>2019-05-17T14:16:19.157Z</time>
      </trkpt>
      <trkpt lat="39.504225" lon="-8.407555">
        <ele>129.0</ele>
        <time>2019-05-17T14:16:20.172Z</time>
      </trkpt>
      <trkpt lat="39.504225" lon="-8.407555">
        <ele>129.0</ele>
        <time>2019-05-17T14:16:21.158Z</time>
      </trkpt>
      <trkpt lat="39.50423833" lon="-8.40751833">
        <ele>129.0</ele>
        <time>2019-05-17T14:16:22.157Z</time>
      </trkpt>
      <trkpt lat="39.504245" lon="-8.40750667">
        <ele>130.0</ele>
        <time>2019-05-17T14:16:23.171Z</time>
      </trkpt>
      <trkpt lat="39.504245" lon="-8.40750667">
        <ele>130.0</ele>
        <time>2019-05-17T14:16:24.176Z</time>
      </trkpt>
      <trkpt lat="39.504265" lon="-8.40748167">
        <ele>130.0</ele>
        <time>2019-05-17T14:16:25.166Z</time>
      </trkpt>
      <trkpt lat="39.50427833" lon="-8.40747">
        <ele>130.0</ele>
        <time>2019-05-17T14:16:26.175Z</time>
      </trkpt>
      <trkpt lat="39.50427833" lon="-8.40747">
        <ele>130.0</ele>
        <time>2019-05-17T14:16:27.181Z</time>
      </trkpt>
      <trkpt lat="39.5043" lon="-8.40742">
        <ele>131.0</ele>
        <time>2019-05-17T14:16:28.176Z</time>
      </trkpt>
      <trkpt lat="39.50430833" lon="-8.40739167">
        <ele>131.0</ele>
        <time>2019-05-17T14:16:29.185Z</time>
      </trkpt>
      <trkpt lat="39.50430833" lon="-8.40739167">
        <ele>131.0</ele>
        <time>2019-05-17T14:16:30.154Z</time>
      </trkpt>
      <trkpt lat="39.504335" lon="-8.40734833">
        <ele>131.0</ele>
        <time>2019-05-17T14:16:31.155Z</time>
      </trkpt>
      <trkpt lat="39.50434833" lon="-8.407335">
        <ele>131.0</ele>
        <time>2019-05-17T14:16:32.155Z</time>
      </trkpt>
      <trkpt lat="39.50434833" lon="-8.407335">
        <ele>131.0</ele>
        <time>2019-05-17T14:16:33.186Z</time>
      </trkpt>
      <trkpt lat="39.50436" lon="-8.40730333">
        <ele>131.0</ele>
        <time>2019-05-17T14:16:34.165Z</time>
      </trkpt>
      <trkpt lat="39.50436" lon="-8.40730333">
        <ele>131.0</ele>
        <time>2019-05-17T14:16:35.158Z</time>
      </trkpt>
      <trkpt lat="39.50437833" lon="-8.40726167">
        <ele>131.0</ele>
        <time>2019-05-17T14:16:36.153Z</time>
      </trkpt>
      <trkpt lat="39.50437833" lon="-8.40726167">
        <ele>131.0</ele>
        <time>2019-05-17T14:16:37.178Z</time>
      </trkpt>
      <trkpt lat="39.50439333" lon="-8.40723667">
        <ele>131.0</ele>
        <time>2019-05-17T14:16:38.165Z</time>
      </trkpt>
      <trkpt lat="39.50439333" lon="-8.40723667">
        <ele>131.0</ele>
        <time>2019-05-17T14:16:39.156Z</time>
      </trkpt>
      <trkpt lat="39.50440833" lon="-8.40721833">
        <ele>131.0</ele>
        <time>2019-05-17T14:16:40.185Z</time>
      </trkpt>
      <trkpt lat="39.50440833" lon="-8.40721833">
        <ele>131.0</ele>
        <time>2019-05-17T14:16:41.155Z</time>
      </trkpt>
      <trkpt lat="39.504425" lon="-8.40719833">
        <ele>132.0</ele>
        <time>2019-05-17T14:16:42.195Z</time>
      </trkpt>
      <trkpt lat="39.504425" lon="-8.40719833">
        <ele>132.0</ele>
        <time>2019-05-17T14:16:43.162Z</time>
      </trkpt>
      <trkpt lat="39.504445" lon="-8.40718333">
        <ele>132.0</ele>
        <time>2019-05-17T14:16:44.156Z</time>
      </trkpt>
      <trkpt lat="39.504445" lon="-8.40718333">
        <ele>132.0</ele>
        <time>2019-05-17T14:16:45.154Z</time>
      </trkpt>
      <trkpt lat="39.50447167" lon="-8.407175">
        <ele>133.0</ele>
        <time>2019-05-17T14:16:46.154Z</time>
      </trkpt>
      <trkpt lat="39.50447167" lon="-8.407175">
        <ele>133.0</ele>
        <time>2019-05-17T14:16:47.183Z</time>
      </trkpt>
      <trkpt lat="39.50449667" lon="-8.40716">
        <ele>133.0</ele>
        <time>2019-05-17T14:16:48.186Z</time>
      </trkpt>
      <trkpt lat="39.50451" lon="-8.40715333">
        <ele>134.0</ele>
        <time>2019-05-17T14:16:49.183Z</time>
      </trkpt>
      <trkpt lat="39.50451833" lon="-8.40715">
        <ele>134.0</ele>
        <time>2019-05-17T14:16:50.186Z</time>
      </trkpt>
      <trkpt lat="39.50451833" lon="-8.40715">
        <ele>134.0</ele>
        <time>2019-05-17T14:16:51.154Z</time>
      </trkpt>
      <trkpt lat="39.50452833" lon="-8.40714333">
        <ele>134.0</ele>
        <time>2019-05-17T14:16:52.165Z</time>
      </trkpt>
      <trkpt lat="39.50452833" lon="-8.40714333">
        <ele>134.0</ele>
        <time>2019-05-17T14:16:53.185Z</time>
      </trkpt>
      <trkpt lat="39.50453167" lon="-8.40713833">
        <ele>135.0</ele>
        <time>2019-05-17T14:16:54.172Z</time>
      </trkpt>
      <trkpt lat="39.50453167" lon="-8.40713833">
        <ele>135.0</ele>
        <time>2019-05-17T14:16:55.161Z</time>
      </trkpt>
      <trkpt lat="39.50453167" lon="-8.40713833">
        <ele>135.0</ele>
        <time>2019-05-17T14:16:56.175Z</time>
      </trkpt>
      <trkpt lat="39.50453167" lon="-8.40713833">
        <ele>135.0</ele>
        <time>2019-05-17T14:16:57.181Z</time>
      </trkpt>
      <trkpt lat="39.50453667" lon="-8.407115">
        <ele>134.0</ele>
        <time>2019-05-17T14:16:58.187Z</time>
      </trkpt>
      <trkpt lat="39.50453667" lon="-8.407115">
        <ele>134.0</ele>
        <time>2019-05-17T14:16:59.153Z</time>
      </trkpt>
      <trkpt lat="39.504525" lon="-8.40709167">
        <ele>135.0</ele>
        <time>2019-05-17T14:17:00.159Z</time>
      </trkpt>
      <trkpt lat="39.504525" lon="-8.40709167">
        <ele>135.0</ele>
        <time>2019-05-17T14:17:01.164Z</time>
      </trkpt>
      <trkpt lat="39.50452167" lon="-8.40708167">
        <ele>135.0</ele>
        <time>2019-05-17T14:17:02.169Z</time>
      </trkpt>
      <trkpt lat="39.50452167" lon="-8.40708167">
        <ele>135.0</ele>
        <time>2019-05-17T14:17:03.162Z</time>
      </trkpt>
      <trkpt lat="39.50452" lon="-8.407075">
        <ele>135.0</ele>
        <time>2019-05-17T14:17:04.184Z</time>
      </trkpt>
      <trkpt lat="39.50452" lon="-8.407075">
        <ele>135.0</ele>
        <time>2019-05-17T14:17:05.184Z</time>
      </trkpt>
      <trkpt lat="39.50452" lon="-8.407075">
        <ele>135.0</ele>
        <time>2019-05-17T14:17:06.155Z</time>
      </trkpt>
      <trkpt lat="39.50452" lon="-8.407075">
        <ele>135.0</ele>
        <time>2019-05-17T14:17:07.160Z</time>
      </trkpt>
      <trkpt lat="39.50452" lon="-8.407075">
        <ele>135.0</ele>
        <time>2019-05-17T14:17:08.166Z</time>
      </trkpt>
      <trkpt lat="39.50452" lon="-8.407075">
        <ele>135.0</ele>
        <time>2019-05-17T14:17:09.189Z</time>
      </trkpt>
      <trkpt lat="39.50452" lon="-8.407075">
        <ele>135.0</ele>
        <time>2019-05-17T14:17:10.169Z</time>
      </trkpt>
      <trkpt lat="39.50452" lon="-8.407075">
        <ele>135.0</ele>
        <time>2019-05-17T14:17:11.175Z</time>
      </trkpt>
      <trkpt lat="39.50452" lon="-8.407075">
        <ele>135.0</ele>
        <time>2019-05-17T14:17:12.181Z</time>
      </trkpt>
      <trkpt lat="39.50452" lon="-8.407075">
        <ele>135.0</ele>
        <time>2019-05-17T14:17:13.169Z</time>
      </trkpt>
      <trkpt lat="39.50452" lon="-8.407075">
        <ele>135.0</ele>
        <time>2019-05-17T14:17:14.170Z</time>
      </trkpt>
      <trkpt lat="39.50452" lon="-8.407075">
        <ele>135.0</ele>
        <time>2019-05-17T14:17:15.162Z</time>
      </trkpt>
      <trkpt lat="39.50452" lon="-8.407075">
        <ele>135.0</ele>
        <time>2019-05-17T14:17:16.176Z</time>
      </trkpt>
      <trkpt lat="39.50452" lon="-8.407075">
        <ele>135.0</ele>
        <time>2019-05-17T14:17:17.162Z</time>
      </trkpt>
      <trkpt lat="39.50452" lon="-8.407075">
        <ele>135.0</ele>
        <time>2019-05-17T14:17:18.167Z</time>
      </trkpt>
      <trkpt lat="39.50452" lon="-8.407075">
        <ele>135.0</ele>
        <time>2019-05-17T14:17:19.162Z</time>
      </trkpt>
      <trkpt lat="39.50452333" lon="-8.40711">
        <ele>137.0</ele>
        <time>2019-05-17T14:17:20.170Z</time>
      </trkpt>
      <trkpt lat="39.50452333" lon="-8.40711">
        <ele>137.0</ele>
        <time>2019-05-17T14:17:21.163Z</time>
      </trkpt>
      <trkpt lat="39.50452333" lon="-8.40712667">
        <ele>137.0</ele>
        <time>2019-05-17T14:17:22.160Z</time>
      </trkpt>
      <trkpt lat="39.504525" lon="-8.40713167">
        <ele>137.0</ele>
        <time>2019-05-17T14:17:23.184Z</time>
      </trkpt>
      <trkpt lat="39.504525" lon="-8.40713167">
        <ele>137.0</ele>
        <time>2019-05-17T14:17:24.179Z</time>
      </trkpt>
      <trkpt lat="39.50452" lon="-8.407135">
        <ele>137.0</ele>
        <time>2019-05-17T14:17:25.167Z</time>
      </trkpt>
      <trkpt lat="39.50452" lon="-8.407135">
        <ele>137.0</ele>
        <time>2019-05-17T14:17:26.185Z</time>
      </trkpt>
      <trkpt lat="39.50452" lon="-8.407135">
        <ele>137.0</ele>
        <time>2019-05-17T14:17:27.153Z</time>
      </trkpt>
      <trkpt lat="39.50452" lon="-8.407135">
        <ele>137.0</ele>
        <time>2019-05-17T14:17:28.185Z</time>
      </trkpt>
      <trkpt lat="39.50452" lon="-8.407135">
        <ele>137.0</ele>
        <time>2019-05-17T14:17:29.167Z</time>
      </trkpt>
      <trkpt lat="39.50452" lon="-8.407135">
        <ele>137.0</ele>
        <time>2019-05-17T14:17:30.164Z</time>
      </trkpt>
      <trkpt lat="39.50452" lon="-8.407135">
        <ele>137.0</ele>
        <time>2019-05-17T14:17:31.156Z</time>
      </trkpt>
      <trkpt lat="39.50452" lon="-8.407135">
        <ele>137.0</ele>
        <time>2019-05-17T14:17:32.161Z</time>
      </trkpt>
      <trkpt lat="39.50452" lon="-8.407135">
        <ele>137.0</ele>
        <time>2019-05-17T14:17:33.167Z</time>
      </trkpt>
      <trkpt lat="39.50452" lon="-8.407135">
        <ele>137.0</ele>
        <time>2019-05-17T14:17:34.173Z</time>
      </trkpt>
      <trkpt lat="39.50452" lon="-8.407135">
        <ele>137.0</ele>
        <time>2019-05-17T14:17:35.179Z</time>
      </trkpt>
      <trkpt lat="39.50452" lon="-8.407135">
        <ele>137.0</ele>
        <time>2019-05-17T14:17:36.164Z</time>
      </trkpt>
      <trkpt lat="39.50452" lon="-8.407135">
        <ele>137.0</ele>
        <time>2019-05-17T14:17:37.167Z</time>
      </trkpt>
      <trkpt lat="39.50452" lon="-8.407135">
        <ele>137.0</ele>
        <time>2019-05-17T14:17:38.170Z</time>
      </trkpt>
      <trkpt lat="39.50452" lon="-8.407135">
        <ele>137.0</ele>
        <time>2019-05-17T14:17:39.161Z</time>
      </trkpt>
      <trkpt lat="39.50452" lon="-8.407135">
        <ele>137.0</ele>
        <time>2019-05-17T14:17:40.167Z</time>
      </trkpt>
      <trkpt lat="39.50452" lon="-8.407135">
        <ele>137.0</ele>
        <time>2019-05-17T14:17:41.162Z</time>
      </trkpt>
      <trkpt lat="39.50450833" lon="-8.40712333">
        <ele>139.0</ele>
        <time>2019-05-17T14:17:42.170Z</time>
      </trkpt>
      <trkpt lat="39.50450833" lon="-8.40712333">
        <ele>139.0</ele>
        <time>2019-05-17T14:17:43.162Z</time>
      </trkpt>
      <trkpt lat="39.50449667" lon="-8.40711333">
        <ele>139.0</ele>
        <time>2019-05-17T14:17:44.169Z</time>
      </trkpt>
      <trkpt lat="39.504495" lon="-8.40711167">
        <ele>139.0</ele>
        <time>2019-05-17T14:17:45.166Z</time>
      </trkpt>
      <trkpt lat="39.504495" lon="-8.40711167">
        <ele>139.0</ele>
        <time>2019-05-17T14:17:46.163Z</time>
      </trkpt>
      <trkpt lat="39.50449333" lon="-8.40711333">
        <ele>139.0</ele>
        <time>2019-05-17T14:17:47.161Z</time>
      </trkpt>
      <trkpt lat="39.50449333" lon="-8.40711333">
        <ele>139.0</ele>
        <time>2019-05-17T14:17:48.168Z</time>
      </trkpt>
      <trkpt lat="39.50449333" lon="-8.40711333">
        <ele>139.0</ele>
        <time>2019-05-17T14:17:49.170Z</time>
      </trkpt>
      <trkpt lat="39.50449333" lon="-8.40711333">
        <ele>139.0</ele>
        <time>2019-05-17T14:17:50.185Z</time>
      </trkpt>
      <trkpt lat="39.50449333" lon="-8.40711333">
        <ele>139.0</ele>
        <time>2019-05-17T14:17:51.186Z</time>
      </trkpt>
      <trkpt lat="39.50449333" lon="-8.40711333">
        <ele>139.0</ele>
        <time>2019-05-17T14:17:52.187Z</time>
      </trkpt>
      <trkpt lat="39.50449333" lon="-8.40711333">
        <ele>139.0</ele>
        <time>2019-05-17T14:17:53.178Z</time>
      </trkpt>
      <trkpt lat="39.50449333" lon="-8.40711333">
        <ele>139.0</ele>
        <time>2019-05-17T14:17:54.184Z</time>
      </trkpt>
      <trkpt lat="39.50449333" lon="-8.40711333">
        <ele>139.0</ele>
        <time>2019-05-17T14:17:55.155Z</time>
      </trkpt>
      <trkpt lat="39.50449333" lon="-8.40711333">
        <ele>139.0</ele>
        <time>2019-05-17T14:17:56.163Z</time>
      </trkpt>
      <trkpt lat="39.50449333" lon="-8.40711333">
        <ele>139.0</ele>
        <time>2019-05-17T14:17:57.168Z</time>
      </trkpt>
      <trkpt lat="39.50449333" lon="-8.40711333">
        <ele>139.0</ele>
        <time>2019-05-17T14:17:58.174Z</time>
      </trkpt>
      <trkpt lat="39.50449333" lon="-8.40711333">
        <ele>139.0</ele>
        <time>2019-05-17T14:17:59.167Z</time>
      </trkpt>
      <trkpt lat="39.50449333" lon="-8.40711333">
        <ele>139.0</ele>
        <time>2019-05-17T14:18:00.159Z</time>
      </trkpt>
      <trkpt lat="39.50449333" lon="-8.40711333">
        <ele>139.0</ele>
        <time>2019-05-17T14:18:01.169Z</time>
      </trkpt>
      <trkpt lat="39.50449333" lon="-8.40711333">
        <ele>139.0</ele>
        <time>2019-05-17T14:18:02.164Z</time>
      </trkpt>
      <trkpt lat="39.50449333" lon="-8.40711333">
        <ele>139.0</ele>
        <time>2019-05-17T14:18:03.166Z</time>
      </trkpt>
      <trkpt lat="39.50449333" lon="-8.40711333">
        <ele>139.0</ele>
        <time>2019-05-17T14:18:04.152Z</time>
      </trkpt>
      <trkpt lat="39.50449333" lon="-8.40711333">
        <ele>139.0</ele>
        <time>2019-05-17T14:18:05.178Z</time>
      </trkpt>
      <trkpt lat="39.50449333" lon="-8.40711333">
        <ele>139.0</ele>
        <time>2019-05-17T14:18:06.164Z</time>
      </trkpt>
      <trkpt lat="39.50449333" lon="-8.40711333">
        <ele>139.0</ele>
        <time>2019-05-17T14:18:07.167Z</time>
      </trkpt>
      <trkpt lat="39.50449333" lon="-8.40711333">
        <ele>139.0</ele>
        <time>2019-05-17T14:18:08.169Z</time>
      </trkpt>
      <trkpt lat="39.50449333" lon="-8.40711333">
        <ele>139.0</ele>
        <time>2019-05-17T14:18:09.186Z</time>
      </trkpt>
      <trkpt lat="39.50449333" lon="-8.40711333">
        <ele>139.0</ele>
        <time>2019-05-17T14:18:10.157Z</time>
      </trkpt>
      <trkpt lat="39.50449333" lon="-8.40711333">
        <ele>139.0</ele>
        <time>2019-05-17T14:18:11.163Z</time>
      </trkpt>
      <trkpt lat="39.50449333" lon="-8.40711333">
        <ele>139.0</ele>
        <time>2019-05-17T14:18:12.169Z</time>
      </trkpt>
      <trkpt lat="39.50449333" lon="-8.40711333">
        <ele>139.0</ele>
        <time>2019-05-17T14:18:13.162Z</time>
      </trkpt>
      <trkpt lat="39.50449333" lon="-8.40711333">
        <ele>139.0</ele>
        <time>2019-05-17T14:18:14.167Z</time>
      </trkpt>
      <trkpt lat="39.50449333" lon="-8.40711333">
        <ele>139.0</ele>
        <time>2019-05-17T14:18:15.167Z</time>
      </trkpt>
      <trkpt lat="39.50449333" lon="-8.40711333">
        <ele>139.0</ele>
        <time>2019-05-17T14:18:16.171Z</time>
      </trkpt>
      <trkpt lat="39.50449333" lon="-8.40711333">
        <ele>139.0</ele>
        <time>2019-05-17T14:18:17.167Z</time>
      </trkpt>
      <trkpt lat="39.50449333" lon="-8.40711333">
        <ele>139.0</ele>
        <time>2019-05-17T14:18:18.158Z</time>
      </trkpt>
      <trkpt lat="39.50449333" lon="-8.40711333">
        <ele>139.0</ele>
        <time>2019-05-17T14:18:19.164Z</time>
      </trkpt>
      <trkpt lat="39.50449333" lon="-8.40711333">
        <ele>139.0</ele>
        <time>2019-05-17T14:18:20.170Z</time>
      </trkpt>
      <trkpt lat="39.50449333" lon="-8.40711333">
        <ele>139.0</ele>
        <time>2019-05-17T14:18:21.162Z</time>
      </trkpt>
      <trkpt lat="39.50449333" lon="-8.40711333">
        <ele>139.0</ele>
        <time>2019-05-17T14:18:22.167Z</time>
      </trkpt>
      <trkpt lat="39.50449333" lon="-8.40711333">
        <ele>139.0</ele>
        <time>2019-05-17T14:18:23.166Z</time>
      </trkpt>
      <trkpt lat="39.50449333" lon="-8.40711333">
        <ele>139.0</ele>
        <time>2019-05-17T14:18:24.167Z</time>
      </trkpt>
      <trkpt lat="39.50449333" lon="-8.40711333">
        <ele>139.0</ele>
        <time>2019-05-17T14:18:25.162Z</time>
      </trkpt>
      <trkpt lat="39.50449333" lon="-8.40711333">
        <ele>139.0</ele>
        <time>2019-05-17T14:18:26.169Z</time>
      </trkpt>
      <trkpt lat="39.50449333" lon="-8.40711333">
        <ele>139.0</ele>
        <time>2019-05-17T14:18:27.162Z</time>
      </trkpt>
      <trkpt lat="39.50449333" lon="-8.40711333">
        <ele>139.0</ele>
        <time>2019-05-17T14:18:28.188Z</time>
      </trkpt>
      <trkpt lat="39.50449333" lon="-8.40711333">
        <ele>139.0</ele>
        <time>2019-05-17T14:18:29.186Z</time>
      </trkpt>
      <trkpt lat="39.50449333" lon="-8.40711333">
        <ele>139.0</ele>
        <time>2019-05-17T14:18:30.171Z</time>
      </trkpt>
      <trkpt lat="39.50449333" lon="-8.40711333">
        <ele>139.0</ele>
        <time>2019-05-17T14:18:31.162Z</time>
      </trkpt>
      <trkpt lat="39.50449333" lon="-8.40711333">
        <ele>139.0</ele>
        <time>2019-05-17T14:18:32.170Z</time>
      </trkpt>
      <trkpt lat="39.50449333" lon="-8.40711333">
        <ele>139.0</ele>
        <time>2019-05-17T14:18:33.162Z</time>
      </trkpt>
      <trkpt lat="39.50449333" lon="-8.40711333">
        <ele>139.0</ele>
        <time>2019-05-17T14:18:34.188Z</time>
      </trkpt>
      <trkpt lat="39.50449333" lon="-8.40711333">
        <ele>139.0</ele>
        <time>2019-05-17T14:18:35.156Z</time>
      </trkpt>
      <trkpt lat="39.50449333" lon="-8.40711333">
        <ele>139.0</ele>
        <time>2019-05-17T14:18:36.182Z</time>
      </trkpt>
      <trkpt lat="39.50449333" lon="-8.40711333">
        <ele>139.0</ele>
        <time>2019-05-17T14:18:37.167Z</time>
      </trkpt>
      <trkpt lat="39.50449333" lon="-8.40711333">
        <ele>139.0</ele>
        <time>2019-05-17T14:18:38.168Z</time>
      </trkpt>
      <trkpt lat="39.50449333" lon="-8.40711333">
        <ele>139.0</ele>
        <time>2019-05-17T14:18:39.168Z</time>
      </trkpt>
      <trkpt lat="39.50449333" lon="-8.40711333">
        <ele>139.0</ele>
        <time>2019-05-17T14:18:40.162Z</time>
      </trkpt>
      <trkpt lat="39.50449333" lon="-8.40711333">
        <ele>139.0</ele>
        <time>2019-05-17T14:18:41.166Z</time>
      </trkpt>
      <trkpt lat="39.50449333" lon="-8.40711333">
        <ele>139.0</ele>
        <time>2019-05-17T14:18:42.162Z</time>
      </trkpt>
      <trkpt lat="39.50449333" lon="-8.40711333">
        <ele>139.0</ele>
        <time>2019-05-17T14:18:43.166Z</time>
      </trkpt>
      <trkpt lat="39.50449333" lon="-8.40711333">
        <ele>139.0</ele>
        <time>2019-05-17T14:18:44.169Z</time>
      </trkpt>
      <trkpt lat="39.50449333" lon="-8.40711333">
        <ele>139.0</ele>
        <time>2019-05-17T14:18:45.162Z</time>
      </trkpt>
      <trkpt lat="39.50449333" lon="-8.40711333">
        <ele>139.0</ele>
        <time>2019-05-17T14:18:46.167Z</time>
      </trkpt>
      <trkpt lat="39.50449333" lon="-8.40711333">
        <ele>139.0</ele>
        <time>2019-05-17T14:18:47.162Z</time>
      </trkpt>
      <trkpt lat="39.50449333" lon="-8.40711333">
        <ele>139.0</ele>
        <time>2019-05-17T14:18:48.187Z</time>
      </trkpt>
      <trkpt lat="39.50449333" lon="-8.40711333">
        <ele>139.0</ele>
        <time>2019-05-17T14:18:49.172Z</time>
      </trkpt>
      <trkpt lat="39.50449333" lon="-8.40711333">
        <ele>139.0</ele>
        <time>2019-05-17T14:18:50.169Z</time>
      </trkpt>
      <trkpt lat="39.50449333" lon="-8.40711333">
        <ele>139.0</ele>
        <time>2019-05-17T14:18:51.162Z</time>
      </trkpt>
      <trkpt lat="39.50449333" lon="-8.40711333">
        <ele>139.0</ele>
        <time>2019-05-17T14:18:52.167Z</time>
      </trkpt>
      <trkpt lat="39.50449333" lon="-8.40711333">
        <ele>139.0</ele>
        <time>2019-05-17T14:18:53.162Z</time>
      </trkpt>
      <trkpt lat="39.50449333" lon="-8.40711333">
        <ele>139.0</ele>
        <time>2019-05-17T14:18:54.164Z</time>
      </trkpt>
      <trkpt lat="39.50449333" lon="-8.40711333">
        <ele>139.0</ele>
        <time>2019-05-17T14:18:55.161Z</time>
      </trkpt>
      <trkpt lat="39.50449333" lon="-8.40711333">
        <ele>139.0</ele>
        <time>2019-05-17T14:18:56.169Z</time>
      </trkpt>
      <trkpt lat="39.50449333" lon="-8.40711333">
        <ele>139.0</ele>
        <time>2019-05-17T14:18:57.162Z</time>
      </trkpt>
      <trkpt lat="39.50450167" lon="-8.407105">
        <ele>135.0</ele>
        <time>2019-05-17T14:18:58.188Z</time>
      </trkpt>
      <trkpt lat="39.50450167" lon="-8.407105">
        <ele>135.0</ele>
        <time>2019-05-17T14:18:59.186Z</time>
      </trkpt>
      <trkpt lat="39.50451333" lon="-8.407095">
        <ele>136.0</ele>
        <time>2019-05-17T14:19:00.173Z</time>
      </trkpt>
      <trkpt lat="39.50451333" lon="-8.407095">
        <ele>136.0</ele>
        <time>2019-05-17T14:19:01.159Z</time>
      </trkpt>
      <trkpt lat="39.50453" lon="-8.40709333">
        <ele>136.0</ele>
        <time>2019-05-17T14:19:02.162Z</time>
      </trkpt>
      <trkpt lat="39.50453" lon="-8.40709333">
        <ele>136.0</ele>
        <time>2019-05-17T14:19:03.168Z</time>
      </trkpt>
      <trkpt lat="39.50454333" lon="-8.40709833">
        <ele>136.0</ele>
        <time>2019-05-17T14:19:04.175Z</time>
      </trkpt>
      <trkpt lat="39.504545" lon="-8.4071">
        <ele>137.0</ele>
        <time>2019-05-17T14:19:05.175Z</time>
      </trkpt>
      <trkpt lat="39.504545" lon="-8.4071">
        <ele>137.0</ele>
        <time>2019-05-17T14:19:06.181Z</time>
      </trkpt>
      <trkpt lat="39.50454833" lon="-8.40710667">
        <ele>137.0</ele>
        <time>2019-05-17T14:19:07.184Z</time>
      </trkpt>
      <trkpt lat="39.504545" lon="-8.40710833">
        <ele>137.0</ele>
        <time>2019-05-17T14:19:08.165Z</time>
      </trkpt>
      <trkpt lat="39.504545" lon="-8.40710833">
        <ele>137.0</ele>
        <time>2019-05-17T14:19:09.172Z</time>
      </trkpt>
      <trkpt lat="39.504545" lon="-8.40710833">
        <ele>137.0</ele>
        <time>2019-05-17T14:19:10.150Z</time>
      </trkpt>
      <trkpt lat="39.504545" lon="-8.40710833">
        <ele>137.0</ele>
        <time>2019-05-17T14:19:11.170Z</time>
      </trkpt>
      <trkpt lat="39.504545" lon="-8.40710833">
        <ele>137.0</ele>
        <time>2019-05-17T14:19:12.175Z</time>
      </trkpt>
      <trkpt lat="39.504545" lon="-8.40710833">
        <ele>137.0</ele>
        <time>2019-05-17T14:19:13.181Z</time>
      </trkpt>
      <trkpt lat="39.504545" lon="-8.40710833">
        <ele>137.0</ele>
        <time>2019-05-17T14:19:14.188Z</time>
      </trkpt>
      <trkpt lat="39.504545" lon="-8.40710833">
        <ele>137.0</ele>
        <time>2019-05-17T14:19:15.173Z</time>
      </trkpt>
      <trkpt lat="39.504545" lon="-8.40710833">
        <ele>137.0</ele>
        <time>2019-05-17T14:19:16.167Z</time>
      </trkpt>
      <trkpt lat="39.504545" lon="-8.40710833">
        <ele>137.0</ele>
        <time>2019-05-17T14:19:17.162Z</time>
      </trkpt>
      <trkpt lat="39.504545" lon="-8.40710833">
        <ele>137.0</ele>
        <time>2019-05-17T14:19:18.180Z</time>
      </trkpt>
      <trkpt lat="39.504545" lon="-8.40710833">
        <ele>137.0</ele>
        <time>2019-05-17T14:19:19.169Z</time>
      </trkpt>
      <trkpt lat="39.504545" lon="-8.40710833">
        <ele>137.0</ele>
        <time>2019-05-17T14:19:20.170Z</time>
      </trkpt>
      <trkpt lat="39.504545" lon="-8.40710833">
        <ele>137.0</ele>
        <time>2019-05-17T14:19:21.162Z</time>
      </trkpt>
      <trkpt lat="39.504545" lon="-8.40710833">
        <ele>137.0</ele>
        <time>2019-05-17T14:19:22.164Z</time>
      </trkpt>
      <trkpt lat="39.504545" lon="-8.40710833">
        <ele>137.0</ele>
        <time>2019-05-17T14:19:23.159Z</time>
      </trkpt>
      <trkpt lat="39.504545" lon="-8.40710833">
        <ele>137.0</ele>
        <time>2019-05-17T14:19:24.167Z</time>
      </trkpt>
      <trkpt lat="39.504545" lon="-8.40710833">
        <ele>137.0</ele>
        <time>2019-05-17T14:19:25.162Z</time>
      </trkpt>
      <trkpt lat="39.504545" lon="-8.40710833">
        <ele>137.0</ele>
        <time>2019-05-17T14:19:26.170Z</time>
      </trkpt>
      <trkpt lat="39.504545" lon="-8.40710833">
        <ele>137.0</ele>
        <time>2019-05-17T14:19:27.162Z</time>
      </trkpt>
      <trkpt lat="39.504545" lon="-8.40710833">
        <ele>137.0</ele>
        <time>2019-05-17T14:19:28.188Z</time>
      </trkpt>
      <trkpt lat="39.504545" lon="-8.40710833">
        <ele>137.0</ele>
        <time>2019-05-17T14:19:29.182Z</time>
      </trkpt>
      <trkpt lat="39.504545" lon="-8.40710833">
        <ele>137.0</ele>
        <time>2019-05-17T14:19:30.169Z</time>
      </trkpt>
      <trkpt lat="39.504545" lon="-8.40710833">
        <ele>137.0</ele>
        <time>2019-05-17T14:19:31.162Z</time>
      </trkpt>
      <trkpt lat="39.504545" lon="-8.40710833">
        <ele>137.0</ele>
        <time>2019-05-17T14:19:32.170Z</time>
      </trkpt>
      <trkpt lat="39.504545" lon="-8.40710833">
        <ele>137.0</ele>
        <time>2019-05-17T14:19:33.167Z</time>
      </trkpt>
      <trkpt lat="39.504545" lon="-8.40710833">
        <ele>137.0</ele>
        <time>2019-05-17T14:19:34.167Z</time>
      </trkpt>
      <trkpt lat="39.504545" lon="-8.40710833">
        <ele>137.0</ele>
        <time>2019-05-17T14:19:35.162Z</time>
      </trkpt>
      <trkpt lat="39.504545" lon="-8.40710833">
        <ele>137.0</ele>
        <time>2019-05-17T14:19:36.167Z</time>
      </trkpt>
      <trkpt lat="39.504545" lon="-8.40710833">
        <ele>137.0</ele>
        <time>2019-05-17T14:19:37.162Z</time>
      </trkpt>
      <trkpt lat="39.504545" lon="-8.40710833">
        <ele>137.0</ele>
        <time>2019-05-17T14:19:38.189Z</time>
      </trkpt>
      <trkpt lat="39.504545" lon="-8.40710833">
        <ele>137.0</ele>
        <time>2019-05-17T14:19:39.174Z</time>
      </trkpt>
      <trkpt lat="39.504545" lon="-8.40710833">
        <ele>137.0</ele>
        <time>2019-05-17T14:19:40.167Z</time>
      </trkpt>
      <trkpt lat="39.504545" lon="-8.40710833">
        <ele>137.0</ele>
        <time>2019-05-17T14:19:41.162Z</time>
      </trkpt>
      <trkpt lat="39.504545" lon="-8.40710833">
        <ele>137.0</ele>
        <time>2019-05-17T14:19:42.164Z</time>
      </trkpt>
      <trkpt lat="39.504545" lon="-8.40710833">
        <ele>137.0</ele>
        <time>2019-05-17T14:19:43.162Z</time>
      </trkpt>
      <trkpt lat="39.504545" lon="-8.40710833">
        <ele>137.0</ele>
        <time>2019-05-17T14:19:44.171Z</time>
      </trkpt>
      <trkpt lat="39.504545" lon="-8.40710833">
        <ele>137.0</ele>
        <time>2019-05-17T14:19:45.162Z</time>
      </trkpt>
      <trkpt lat="39.504545" lon="-8.40710833">
        <ele>137.0</ele>
        <time>2019-05-17T14:19:46.170Z</time>
      </trkpt>
      <trkpt lat="39.504545" lon="-8.40710833">
        <ele>137.0</ele>
        <time>2019-05-17T14:19:47.162Z</time>
      </trkpt>
      <trkpt lat="39.50459" lon="-8.407085">
        <ele>137.0</ele>
        <time>2019-05-17T14:19:48.189Z</time>
      </trkpt>
      <trkpt lat="39.50459" lon="-8.407085">
        <ele>137.0</ele>
        <time>2019-05-17T14:19:49.174Z</time>
      </trkpt>
      <trkpt lat="39.50460833" lon="-8.40708833">
        <ele>137.0</ele>
        <time>2019-05-17T14:19:50.179Z</time>
      </trkpt>
      <trkpt lat="39.50460833" lon="-8.40708833">
        <ele>137.0</ele>
        <time>2019-05-17T14:19:51.159Z</time>
      </trkpt>
      <trkpt lat="39.504635" lon="-8.40708">
        <ele>137.0</ele>
        <time>2019-05-17T14:19:52.155Z</time>
      </trkpt>
      <trkpt lat="39.504635" lon="-8.40708">
        <ele>137.0</ele>
        <time>2019-05-17T14:19:53.165Z</time>
      </trkpt>
      <trkpt lat="39.50466667" lon="-8.407065">
        <ele>137.0</ele>
        <time>2019-05-17T14:19:54.165Z</time>
      </trkpt>
      <trkpt lat="39.50466667" lon="-8.407065">
        <ele>137.0</ele>
        <time>2019-05-17T14:19:55.172Z</time>
      </trkpt>
      <trkpt lat="39.504705" lon="-8.407055">
        <ele>137.0</ele>
        <time>2019-05-17T14:19:56.157Z</time>
      </trkpt>
      <trkpt lat="39.504705" lon="-8.407055">
        <ele>137.0</ele>
        <time>2019-05-17T14:19:57.172Z</time>
      </trkpt>
      <trkpt lat="39.504745" lon="-8.407045">
        <ele>137.0</ele>
        <time>2019-05-17T14:19:58.178Z</time>
      </trkpt>
      <trkpt lat="39.504745" lon="-8.407045">
        <ele>137.0</ele>
        <time>2019-05-17T14:19:59.167Z</time>
      </trkpt>
      <trkpt lat="39.50479167" lon="-8.40704167">
        <ele>137.0</ele>
        <time>2019-05-17T14:20:00.154Z</time>
      </trkpt>
      <trkpt lat="39.50479167" lon="-8.40704167">
        <ele>137.0</ele>
        <time>2019-05-17T14:20:01.151Z</time>
      </trkpt>
      <trkpt lat="39.50482833" lon="-8.407045">
        <ele>137.0</ele>
        <time>2019-05-17T14:20:02.182Z</time>
      </trkpt>
      <trkpt lat="39.50482833" lon="-8.407045">
        <ele>137.0</ele>
        <time>2019-05-17T14:20:03.158Z</time>
      </trkpt>
      <trkpt lat="39.50487167" lon="-8.40705333">
        <ele>138.0</ele>
        <time>2019-05-17T14:20:04.156Z</time>
      </trkpt>
      <trkpt lat="39.50487167" lon="-8.40705333">
        <ele>138.0</ele>
        <time>2019-05-17T14:20:05.161Z</time>
      </trkpt>
      <trkpt lat="39.50491167" lon="-8.40704667">
        <ele>138.0</ele>
        <time>2019-05-17T14:20:06.187Z</time>
      </trkpt>
      <trkpt lat="39.50491167" lon="-8.40704667">
        <ele>138.0</ele>
        <time>2019-05-17T14:20:07.160Z</time>
      </trkpt>
      <trkpt lat="39.50495333" lon="-8.40704833">
        <ele>138.0</ele>
        <time>2019-05-17T14:20:08.163Z</time>
      </trkpt>
      <trkpt lat="39.50495333" lon="-8.40704833">
        <ele>138.0</ele>
        <time>2019-05-17T14:20:09.161Z</time>
      </trkpt>
      <trkpt lat="39.504995" lon="-8.40705">
        <ele>138.0</ele>
        <time>2019-05-17T14:20:10.165Z</time>
      </trkpt>
      <trkpt lat="39.504995" lon="-8.40705">
        <ele>138.0</ele>
        <time>2019-05-17T14:20:11.158Z</time>
      </trkpt>
      <trkpt lat="39.50504667" lon="-8.40705333">
        <ele>139.0</ele>
        <time>2019-05-17T14:20:12.165Z</time>
      </trkpt>
      <trkpt lat="39.50504667" lon="-8.40705333">
        <ele>139.0</ele>
        <time>2019-05-17T14:20:13.157Z</time>
      </trkpt>
      <trkpt lat="39.50510167" lon="-8.407045">
        <ele>139.0</ele>
        <time>2019-05-17T14:20:14.155Z</time>
      </trkpt>
      <trkpt lat="39.50510167" lon="-8.407045">
        <ele>139.0</ele>
        <time>2019-05-17T14:20:15.187Z</time>
      </trkpt>
      <trkpt lat="39.505155" lon="-8.40704">
        <ele>139.0</ele>
        <time>2019-05-17T14:20:16.189Z</time>
      </trkpt>
      <trkpt lat="39.505155" lon="-8.40704">
        <ele>139.0</ele>
        <time>2019-05-17T14:20:17.155Z</time>
      </trkpt>
      <trkpt lat="39.50520667" lon="-8.40704333">
        <ele>139.0</ele>
        <time>2019-05-17T14:20:18.155Z</time>
      </trkpt>
      <trkpt lat="39.50520667" lon="-8.40704333">
        <ele>139.0</ele>
        <time>2019-05-17T14:20:19.160Z</time>
      </trkpt>
      <trkpt lat="39.50525833" lon="-8.40704333">
        <ele>139.0</ele>
        <time>2019-05-17T14:20:20.169Z</time>
      </trkpt>
      <trkpt lat="39.50525833" lon="-8.40704333">
        <ele>139.0</ele>
        <time>2019-05-17T14:20:21.160Z</time>
      </trkpt>
      <trkpt lat="39.505315" lon="-8.40704">
        <ele>139.0</ele>
        <time>2019-05-17T14:20:22.155Z</time>
      </trkpt>
      <trkpt lat="39.505315" lon="-8.40704">
        <ele>139.0</ele>
        <time>2019-05-17T14:20:23.165Z</time>
      </trkpt>
      <trkpt lat="39.50535833" lon="-8.407025">
        <ele>139.0</ele>
        <time>2019-05-17T14:20:24.165Z</time>
      </trkpt>
      <trkpt lat="39.50535833" lon="-8.407025">
        <ele>139.0</ele>
        <time>2019-05-17T14:20:25.165Z</time>
      </trkpt>
      <trkpt lat="39.50541333" lon="-8.40701">
        <ele>139.0</ele>
        <time>2019-05-17T14:20:26.158Z</time>
      </trkpt>
      <trkpt lat="39.50541333" lon="-8.40701">
        <ele>139.0</ele>
        <time>2019-05-17T14:20:27.184Z</time>
      </trkpt>
      <trkpt lat="39.50546333" lon="-8.407005">
        <ele>139.0</ele>
        <time>2019-05-17T14:20:28.193Z</time>
      </trkpt>
      <trkpt lat="39.50546333" lon="-8.407005">
        <ele>139.0</ele>
        <time>2019-05-17T14:20:29.162Z</time>
      </trkpt>
      <trkpt lat="39.50550667" lon="-8.40699167">
        <ele>138.0</ele>
        <time>2019-05-17T14:20:30.150Z</time>
      </trkpt>
      <trkpt lat="39.50550667" lon="-8.40699167">
        <ele>138.0</ele>
        <time>2019-05-17T14:20:31.174Z</time>
      </trkpt>
      <trkpt lat="39.50555667" lon="-8.40699">
        <ele>138.0</ele>
        <time>2019-05-17T14:20:32.158Z</time>
      </trkpt>
      <trkpt lat="39.50555667" lon="-8.40699">
        <ele>138.0</ele>
        <time>2019-05-17T14:20:33.150Z</time>
      </trkpt>
      <trkpt lat="39.50560667" lon="-8.40697833">
        <ele>137.0</ele>
        <time>2019-05-17T14:20:34.179Z</time>
      </trkpt>
      <trkpt lat="39.50560667" lon="-8.40697833">
        <ele>137.0</ele>
        <time>2019-05-17T14:20:35.188Z</time>
      </trkpt>
      <trkpt lat="39.505645" lon="-8.40697">
        <ele>137.0</ele>
        <time>2019-05-17T14:20:36.181Z</time>
      </trkpt>
      <trkpt lat="39.505645" lon="-8.40697">
        <ele>137.0</ele>
        <time>2019-05-17T14:20:37.181Z</time>
      </trkpt>
      <trkpt lat="39.505685" lon="-8.40696167">
        <ele>137.0</ele>
        <time>2019-05-17T14:20:38.173Z</time>
      </trkpt>
      <trkpt lat="39.505685" lon="-8.40696167">
        <ele>137.0</ele>
        <time>2019-05-17T14:20:39.173Z</time>
      </trkpt>
      <trkpt lat="39.50574" lon="-8.40695667">
        <ele>138.0</ele>
        <time>2019-05-17T14:20:40.166Z</time>
      </trkpt>
      <trkpt lat="39.50574" lon="-8.40695667">
        <ele>138.0</ele>
        <time>2019-05-17T14:20:41.184Z</time>
      </trkpt>
      <trkpt lat="39.50579667" lon="-8.40694333">
        <ele>138.0</ele>
        <time>2019-05-17T14:20:42.181Z</time>
      </trkpt>
      <trkpt lat="39.50579667" lon="-8.40694333">
        <ele>138.0</ele>
        <time>2019-05-17T14:20:43.165Z</time>
      </trkpt>
      <trkpt lat="39.50585667" lon="-8.406935">
        <ele>139.0</ele>
        <time>2019-05-17T14:20:44.195Z</time>
      </trkpt>
      <trkpt lat="39.50585667" lon="-8.406935">
        <ele>139.0</ele>
        <time>2019-05-17T14:20:45.156Z</time>
      </trkpt>
      <trkpt lat="39.50591333" lon="-8.40693">
        <ele>140.0</ele>
        <time>2019-05-17T14:20:46.153Z</time>
      </trkpt>
      <trkpt lat="39.50591333" lon="-8.40693">
        <ele>140.0</ele>
        <time>2019-05-17T14:20:47.175Z</time>
      </trkpt>
      <trkpt lat="39.50597833" lon="-8.40691667">
        <ele>141.0</ele>
        <time>2019-05-17T14:20:48.179Z</time>
      </trkpt>
      <trkpt lat="39.50597833" lon="-8.40691667">
        <ele>141.0</ele>
        <time>2019-05-17T14:20:49.157Z</time>
      </trkpt>
      <trkpt lat="39.50604" lon="-8.40690833">
        <ele>141.0</ele>
        <time>2019-05-17T14:20:50.187Z</time>
      </trkpt>
      <trkpt lat="39.50604" lon="-8.40690833">
        <ele>141.0</ele>
        <time>2019-05-17T14:20:51.154Z</time>
      </trkpt>
      <trkpt lat="39.50612" lon="-8.40690167">
        <ele>140.0</ele>
        <time>2019-05-17T14:20:52.181Z</time>
      </trkpt>
      <trkpt lat="39.50612" lon="-8.40690167">
        <ele>140.0</ele>
        <time>2019-05-17T14:20:53.158Z</time>
      </trkpt>
      <trkpt lat="39.50618667" lon="-8.40689">
        <ele>140.0</ele>
        <time>2019-05-17T14:20:54.165Z</time>
      </trkpt>
      <trkpt lat="39.50618667" lon="-8.40689">
        <ele>140.0</ele>
        <time>2019-05-17T14:20:55.168Z</time>
      </trkpt>
      <trkpt lat="39.50624333" lon="-8.40688">
        <ele>140.0</ele>
        <time>2019-05-17T14:20:56.158Z</time>
      </trkpt>
      <trkpt lat="39.50624333" lon="-8.40688">
        <ele>140.0</ele>
        <time>2019-05-17T14:20:57.174Z</time>
      </trkpt>
      <trkpt lat="39.50629833" lon="-8.40686833">
        <ele>140.0</ele>
        <time>2019-05-17T14:20:58.181Z</time>
      </trkpt>
      <trkpt lat="39.50629833" lon="-8.40686833">
        <ele>140.0</ele>
        <time>2019-05-17T14:20:59.175Z</time>
      </trkpt>
      <trkpt lat="39.506355" lon="-8.40685667">
        <ele>140.0</ele>
        <time>2019-05-17T14:21:00.181Z</time>
      </trkpt>
      <trkpt lat="39.506355" lon="-8.40685667">
        <ele>140.0</ele>
        <time>2019-05-17T14:21:01.161Z</time>
      </trkpt>
      <trkpt lat="39.50641" lon="-8.40684833">
        <ele>140.0</ele>
        <time>2019-05-17T14:21:02.171Z</time>
      </trkpt>
      <trkpt lat="39.50641" lon="-8.40684833">
        <ele>140.0</ele>
        <time>2019-05-17T14:21:03.176Z</time>
      </trkpt>
      <trkpt lat="39.50646333" lon="-8.40684">
        <ele>140.0</ele>
        <time>2019-05-17T14:21:04.153Z</time>
      </trkpt>
      <trkpt lat="39.50646333" lon="-8.40684">
        <ele>140.0</ele>
        <time>2019-05-17T14:21:05.168Z</time>
      </trkpt>
      <trkpt lat="39.50651833" lon="-8.406825">
        <ele>141.0</ele>
        <time>2019-05-17T14:21:06.159Z</time>
      </trkpt>
      <trkpt lat="39.50651833" lon="-8.406825">
        <ele>141.0</ele>
        <time>2019-05-17T14:21:07.160Z</time>
      </trkpt>
      <trkpt lat="39.50657333" lon="-8.40681333">
        <ele>142.0</ele>
        <time>2019-05-17T14:21:08.157Z</time>
      </trkpt>
      <trkpt lat="39.50657333" lon="-8.40681333">
        <ele>142.0</ele>
        <time>2019-05-17T14:21:09.175Z</time>
      </trkpt>
      <trkpt lat="39.50663833" lon="-8.40680167">
        <ele>142.0</ele>
        <time>2019-05-17T14:21:10.166Z</time>
      </trkpt>
      <trkpt lat="39.50667333" lon="-8.406795">
        <ele>143.0</ele>
        <time>2019-05-17T14:21:11.185Z</time>
      </trkpt>
      <trkpt lat="39.50667333" lon="-8.406795">
        <ele>143.0</ele>
        <time>2019-05-17T14:21:12.183Z</time>
      </trkpt>
      <trkpt lat="39.50674167" lon="-8.40677667">
        <ele>143.0</ele>
        <time>2019-05-17T14:21:13.162Z</time>
      </trkpt>
      <trkpt lat="39.50674167" lon="-8.40677667">
        <ele>143.0</ele>
        <time>2019-05-17T14:21:14.168Z</time>
      </trkpt>
      <trkpt lat="39.50680667" lon="-8.40676">
        <ele>144.0</ele>
        <time>2019-05-17T14:21:15.162Z</time>
      </trkpt>
      <trkpt lat="39.50680667" lon="-8.40676">
        <ele>144.0</ele>
        <time>2019-05-17T14:21:16.186Z</time>
      </trkpt>
      <trkpt lat="39.50687167" lon="-8.406745">
        <ele>144.0</ele>
        <time>2019-05-17T14:21:17.188Z</time>
      </trkpt>
      <trkpt lat="39.50687167" lon="-8.406745">
        <ele>144.0</ele>
        <time>2019-05-17T14:21:18.156Z</time>
      </trkpt>
      <trkpt lat="39.50692667" lon="-8.40672833">
        <ele>144.0</ele>
        <time>2019-05-17T14:21:19.185Z</time>
      </trkpt>
      <trkpt lat="39.506955" lon="-8.40671667">
        <ele>144.0</ele>
        <time>2019-05-17T14:21:20.194Z</time>
      </trkpt>
      <trkpt lat="39.506955" lon="-8.40671667">
        <ele>144.0</ele>
        <time>2019-05-17T14:21:21.159Z</time>
      </trkpt>
      <trkpt lat="39.50701667" lon="-8.40669333">
        <ele>144.0</ele>
        <time>2019-05-17T14:21:22.171Z</time>
      </trkpt>
      <trkpt lat="39.50701667" lon="-8.40669333">
        <ele>144.0</ele>
        <time>2019-05-17T14:21:23.182Z</time>
      </trkpt>
      <trkpt lat="39.507095" lon="-8.40668167">
        <ele>144.0</ele>
        <time>2019-05-17T14:21:24.160Z</time>
      </trkpt>
      <trkpt lat="39.507095" lon="-8.40668167">
        <ele>144.0</ele>
        <time>2019-05-17T14:21:25.170Z</time>
      </trkpt>
      <trkpt lat="39.50717167" lon="-8.40666">
        <ele>143.0</ele>
        <time>2019-05-17T14:21:26.175Z</time>
      </trkpt>
      <trkpt lat="39.50717167" lon="-8.40666">
        <ele>143.0</ele>
        <time>2019-05-17T14:21:27.155Z</time>
      </trkpt>
      <trkpt lat="39.50723333" lon="-8.40664333">
        <ele>143.0</ele>
        <time>2019-05-17T14:21:28.185Z</time>
      </trkpt>
      <trkpt lat="39.50723333" lon="-8.40664333">
        <ele>143.0</ele>
        <time>2019-05-17T14:21:29.156Z</time>
      </trkpt>
      <trkpt lat="39.50729833" lon="-8.40661333">
        <ele>143.0</ele>
        <time>2019-05-17T14:21:30.162Z</time>
      </trkpt>
      <trkpt lat="39.50729833" lon="-8.40661333">
        <ele>143.0</ele>
        <time>2019-05-17T14:21:31.157Z</time>
      </trkpt>
      <trkpt lat="39.50736" lon="-8.406585">
        <ele>142.0</ele>
        <time>2019-05-17T14:21:32.155Z</time>
      </trkpt>
      <trkpt lat="39.50736" lon="-8.406585">
        <ele>142.0</ele>
        <time>2019-05-17T14:21:33.175Z</time>
      </trkpt>
      <trkpt lat="39.50743167" lon="-8.40654833">
        <ele>142.0</ele>
        <time>2019-05-17T14:21:34.177Z</time>
      </trkpt>
      <trkpt lat="39.50747667" lon="-8.40653667">
        <ele>143.0</ele>
        <time>2019-05-17T14:21:35.191Z</time>
      </trkpt>
      <trkpt lat="39.50747667" lon="-8.40653667">
        <ele>143.0</ele>
        <time>2019-05-17T14:21:36.174Z</time>
      </trkpt>
      <trkpt lat="39.50756" lon="-8.40650667">
        <ele>143.0</ele>
        <time>2019-05-17T14:21:37.178Z</time>
      </trkpt>
      <trkpt lat="39.50759667" lon="-8.40648667">
        <ele>143.0</ele>
        <time>2019-05-17T14:21:38.159Z</time>
      </trkpt>
      <trkpt lat="39.50759667" lon="-8.40648667">
        <ele>143.0</ele>
        <time>2019-05-17T14:21:39.163Z</time>
      </trkpt>
      <trkpt lat="39.50766167" lon="-8.40645333">
        <ele>143.0</ele>
        <time>2019-05-17T14:21:40.152Z</time>
      </trkpt>
      <trkpt lat="39.50766167" lon="-8.40645333">
        <ele>143.0</ele>
        <time>2019-05-17T14:21:41.177Z</time>
      </trkpt>
      <trkpt lat="39.50771667" lon="-8.40642167">
        <ele>144.0</ele>
        <time>2019-05-17T14:21:42.162Z</time>
      </trkpt>
      <trkpt lat="39.50771667" lon="-8.40642167">
        <ele>144.0</ele>
        <time>2019-05-17T14:21:43.182Z</time>
      </trkpt>
      <trkpt lat="39.50777" lon="-8.40638833">
        <ele>144.0</ele>
        <time>2019-05-17T14:21:44.185Z</time>
      </trkpt>
      <trkpt lat="39.50777" lon="-8.40638833">
        <ele>144.0</ele>
        <time>2019-05-17T14:21:45.168Z</time>
      </trkpt>
      <trkpt lat="39.50782" lon="-8.40635833">
        <ele>144.0</ele>
        <time>2019-05-17T14:21:46.205Z</time>
      </trkpt>
      <trkpt lat="39.50782" lon="-8.40635833">
        <ele>144.0</ele>
        <time>2019-05-17T14:21:47.159Z</time>
      </trkpt>
      <trkpt lat="39.50787167" lon="-8.40633">
        <ele>144.0</ele>
        <time>2019-05-17T14:21:48.155Z</time>
      </trkpt>
      <trkpt lat="39.50787167" lon="-8.40633">
        <ele>144.0</ele>
        <time>2019-05-17T14:21:49.159Z</time>
      </trkpt>
      <trkpt lat="39.50791833" lon="-8.40631">
        <ele>144.0</ele>
        <time>2019-05-17T14:21:50.183Z</time>
      </trkpt>
      <trkpt lat="39.50791833" lon="-8.40631">
        <ele>144.0</ele>
        <time>2019-05-17T14:21:51.167Z</time>
      </trkpt>
      <trkpt lat="39.50795833" lon="-8.40627833">
        <ele>144.0</ele>
        <time>2019-05-17T14:21:52.158Z</time>
      </trkpt>
      <trkpt lat="39.50795833" lon="-8.40627833">
        <ele>144.0</ele>
        <time>2019-05-17T14:21:53.166Z</time>
      </trkpt>
      <trkpt lat="39.50799167" lon="-8.40625667">
        <ele>143.0</ele>
        <time>2019-05-17T14:21:54.158Z</time>
      </trkpt>
      <trkpt lat="39.50799167" lon="-8.40625667">
        <ele>143.0</ele>
        <time>2019-05-17T14:21:55.155Z</time>
      </trkpt>
      <trkpt lat="39.508035" lon="-8.40623167">
        <ele>143.0</ele>
        <time>2019-05-17T14:21:56.186Z</time>
      </trkpt>
      <trkpt lat="39.508035" lon="-8.40623167">
        <ele>143.0</ele>
        <time>2019-05-17T14:21:57.166Z</time>
      </trkpt>
      <trkpt lat="39.50808333" lon="-8.4062">
        <ele>143.0</ele>
        <time>2019-05-17T14:21:58.180Z</time>
      </trkpt>
      <trkpt lat="39.50808333" lon="-8.4062">
        <ele>143.0</ele>
        <time>2019-05-17T14:21:59.151Z</time>
      </trkpt>
      <trkpt lat="39.50813" lon="-8.40617333">
        <ele>143.0</ele>
        <time>2019-05-17T14:22:00.169Z</time>
      </trkpt>
      <trkpt lat="39.50813" lon="-8.40617333">
        <ele>143.0</ele>
        <time>2019-05-17T14:22:01.183Z</time>
      </trkpt>
      <trkpt lat="39.50818333" lon="-8.40614667">
        <ele>142.0</ele>
        <time>2019-05-17T14:22:02.169Z</time>
      </trkpt>
      <trkpt lat="39.50818333" lon="-8.40614667">
        <ele>142.0</ele>
        <time>2019-05-17T14:22:03.158Z</time>
      </trkpt>
      <trkpt lat="39.50822667" lon="-8.40611667">
        <ele>142.0</ele>
        <time>2019-05-17T14:22:04.155Z</time>
      </trkpt>
      <trkpt lat="39.50822667" lon="-8.40611667">
        <ele>142.0</ele>
        <time>2019-05-17T14:22:05.181Z</time>
      </trkpt>
      <trkpt lat="39.50827833" lon="-8.40607833">
        <ele>141.0</ele>
        <time>2019-05-17T14:22:06.162Z</time>
      </trkpt>
      <trkpt lat="39.50827833" lon="-8.40607833">
        <ele>141.0</ele>
        <time>2019-05-17T14:22:07.174Z</time>
      </trkpt>
      <trkpt lat="39.508325" lon="-8.40604667">
        <ele>141.0</ele>
        <time>2019-05-17T14:22:08.172Z</time>
      </trkpt>
      <trkpt lat="39.508325" lon="-8.40604667">
        <ele>141.0</ele>
        <time>2019-05-17T14:22:09.151Z</time>
      </trkpt>
      <trkpt lat="39.508375" lon="-8.40602333">
        <ele>141.0</ele>
        <time>2019-05-17T14:22:10.168Z</time>
      </trkpt>
      <trkpt lat="39.508375" lon="-8.40602333">
        <ele>141.0</ele>
        <time>2019-05-17T14:22:11.168Z</time>
      </trkpt>
      <trkpt lat="39.50843167" lon="-8.40599833">
        <ele>141.0</ele>
        <time>2019-05-17T14:22:12.164Z</time>
      </trkpt>
      <trkpt lat="39.50843167" lon="-8.40599833">
        <ele>141.0</ele>
        <time>2019-05-17T14:22:13.189Z</time>
      </trkpt>
      <trkpt lat="39.50850667" lon="-8.40598167">
        <ele>141.0</ele>
        <time>2019-05-17T14:22:14.195Z</time>
      </trkpt>
      <trkpt lat="39.50850667" lon="-8.40598167">
        <ele>141.0</ele>
        <time>2019-05-17T14:22:15.151Z</time>
      </trkpt>
      <trkpt lat="39.50857333" lon="-8.40594167">
        <ele>140.0</ele>
        <time>2019-05-17T14:22:16.175Z</time>
      </trkpt>
      <trkpt lat="39.50857333" lon="-8.40594167">
        <ele>140.0</ele>
        <time>2019-05-17T14:22:17.188Z</time>
      </trkpt>
      <trkpt lat="39.50864167" lon="-8.40591333">
        <ele>140.0</ele>
        <time>2019-05-17T14:22:18.150Z</time>
      </trkpt>
      <trkpt lat="39.50864167" lon="-8.40591333">
        <ele>140.0</ele>
        <time>2019-05-17T14:22:19.165Z</time>
      </trkpt>
      <trkpt lat="39.50870333" lon="-8.40589">
        <ele>140.0</ele>
        <time>2019-05-17T14:22:20.151Z</time>
      </trkpt>
      <trkpt lat="39.50870333" lon="-8.40589">
        <ele>140.0</ele>
        <time>2019-05-17T14:22:21.157Z</time>
      </trkpt>
      <trkpt lat="39.50877167" lon="-8.40587167">
        <ele>139.0</ele>
        <time>2019-05-17T14:22:22.182Z</time>
      </trkpt>
      <trkpt lat="39.50877167" lon="-8.40587167">
        <ele>139.0</ele>
        <time>2019-05-17T14:22:23.163Z</time>
      </trkpt>
      <trkpt lat="39.50883833" lon="-8.40584833">
        <ele>139.0</ele>
        <time>2019-05-17T14:22:24.188Z</time>
      </trkpt>
      <trkpt lat="39.50883833" lon="-8.40584833">
        <ele>139.0</ele>
        <time>2019-05-17T14:22:25.164Z</time>
      </trkpt>
      <trkpt lat="39.5089" lon="-8.40583">
        <ele>139.0</ele>
        <time>2019-05-17T14:22:26.171Z</time>
      </trkpt>
      <trkpt lat="39.5089" lon="-8.40583">
        <ele>139.0</ele>
        <time>2019-05-17T14:22:27.189Z</time>
      </trkpt>
      <trkpt lat="39.50895667" lon="-8.40580833">
        <ele>139.0</ele>
        <time>2019-05-17T14:22:28.177Z</time>
      </trkpt>
      <trkpt lat="39.50898333" lon="-8.40580167">
        <ele>139.0</ele>
        <time>2019-05-17T14:22:29.167Z</time>
      </trkpt>
      <trkpt lat="39.50898333" lon="-8.40580167">
        <ele>139.0</ele>
        <time>2019-05-17T14:22:30.187Z</time>
      </trkpt>
      <trkpt lat="39.50903667" lon="-8.40578333">
        <ele>139.0</ele>
        <time>2019-05-17T14:22:31.185Z</time>
      </trkpt>
      <trkpt lat="39.50906" lon="-8.405775">
        <ele>139.0</ele>
        <time>2019-05-17T14:22:32.165Z</time>
      </trkpt>
      <trkpt lat="39.50906" lon="-8.405775">
        <ele>139.0</ele>
        <time>2019-05-17T14:22:33.179Z</time>
      </trkpt>
      <trkpt lat="39.50910667" lon="-8.40576167">
        <ele>139.0</ele>
        <time>2019-05-17T14:22:34.171Z</time>
      </trkpt>
      <trkpt lat="39.50910667" lon="-8.40576167">
        <ele>139.0</ele>
        <time>2019-05-17T14:22:35.182Z</time>
      </trkpt>
      <trkpt lat="39.50915" lon="-8.40575667">
        <ele>139.0</ele>
        <time>2019-05-17T14:22:36.172Z</time>
      </trkpt>
      <trkpt lat="39.50915" lon="-8.40575667">
        <ele>139.0</ele>
        <time>2019-05-17T14:22:37.158Z</time>
      </trkpt>
      <trkpt lat="39.50919333" lon="-8.40574667">
        <ele>138.0</ele>
        <time>2019-05-17T14:22:38.151Z</time>
      </trkpt>
      <trkpt lat="39.50919333" lon="-8.40574667">
        <ele>138.0</ele>
        <time>2019-05-17T14:22:39.164Z</time>
      </trkpt>
      <trkpt lat="39.50923667" lon="-8.40574833">
        <ele>138.0</ele>
        <time>2019-05-17T14:22:40.155Z</time>
      </trkpt>
      <trkpt lat="39.50923667" lon="-8.40574833">
        <ele>138.0</ele>
        <time>2019-05-17T14:22:41.158Z</time>
      </trkpt>
      <trkpt lat="39.50928" lon="-8.405755">
        <ele>138.0</ele>
        <time>2019-05-17T14:22:42.152Z</time>
      </trkpt>
      <trkpt lat="39.50928" lon="-8.405755">
        <ele>138.0</ele>
        <time>2019-05-17T14:22:43.165Z</time>
      </trkpt>
      <trkpt lat="39.50932333" lon="-8.405755">
        <ele>138.0</ele>
        <time>2019-05-17T14:22:44.175Z</time>
      </trkpt>
      <trkpt lat="39.50932333" lon="-8.405755">
        <ele>138.0</ele>
        <time>2019-05-17T14:22:45.188Z</time>
      </trkpt>
      <trkpt lat="39.50937" lon="-8.40575167">
        <ele>138.0</ele>
        <time>2019-05-17T14:22:46.152Z</time>
      </trkpt>
      <trkpt lat="39.50937" lon="-8.40575167">
        <ele>138.0</ele>
        <time>2019-05-17T14:22:47.168Z</time>
      </trkpt>
      <trkpt lat="39.50941667" lon="-8.40574833">
        <ele>138.0</ele>
        <time>2019-05-17T14:22:48.165Z</time>
      </trkpt>
      <trkpt lat="39.50941667" lon="-8.40574833">
        <ele>138.0</ele>
        <time>2019-05-17T14:22:49.170Z</time>
      </trkpt>
      <trkpt lat="39.50946333" lon="-8.40575167">
        <ele>138.0</ele>
        <time>2019-05-17T14:22:50.158Z</time>
      </trkpt>
      <trkpt lat="39.50946333" lon="-8.40575167">
        <ele>138.0</ele>
        <time>2019-05-17T14:22:51.162Z</time>
      </trkpt>
      <trkpt lat="39.50951" lon="-8.40575667">
        <ele>138.0</ele>
        <time>2019-05-17T14:22:52.155Z</time>
      </trkpt>
      <trkpt lat="39.50951" lon="-8.40575667">
        <ele>138.0</ele>
        <time>2019-05-17T14:22:53.173Z</time>
      </trkpt>
      <trkpt lat="39.50955833" lon="-8.405755">
        <ele>138.0</ele>
        <time>2019-05-17T14:22:54.181Z</time>
      </trkpt>
      <trkpt lat="39.50955833" lon="-8.405755">
        <ele>138.0</ele>
        <time>2019-05-17T14:22:55.179Z</time>
      </trkpt>
      <trkpt lat="39.50960667" lon="-8.40574667">
        <ele>138.0</ele>
        <time>2019-05-17T14:22:56.167Z</time>
      </trkpt>
      <trkpt lat="39.50960667" lon="-8.40574667">
        <ele>138.0</ele>
        <time>2019-05-17T14:22:57.188Z</time>
      </trkpt>
      <trkpt lat="39.50965667" lon="-8.405745">
        <ele>138.0</ele>
        <time>2019-05-17T14:22:58.191Z</time>
      </trkpt>
      <trkpt lat="39.50965667" lon="-8.405745">
        <ele>138.0</ele>
        <time>2019-05-17T14:22:59.156Z</time>
      </trkpt>
      <trkpt lat="39.509705" lon="-8.405745">
        <ele>138.0</ele>
        <time>2019-05-17T14:23:00.190Z</time>
      </trkpt>
      <trkpt lat="39.509705" lon="-8.405745">
        <ele>138.0</ele>
        <time>2019-05-17T14:23:01.155Z</time>
      </trkpt>
      <trkpt lat="39.50975667" lon="-8.405745">
        <ele>138.0</ele>
        <time>2019-05-17T14:23:02.165Z</time>
      </trkpt>
      <trkpt lat="39.50975667" lon="-8.405745">
        <ele>138.0</ele>
        <time>2019-05-17T14:23:03.170Z</time>
      </trkpt>
      <trkpt lat="39.50980833" lon="-8.40574667">
        <ele>138.0</ele>
        <time>2019-05-17T14:23:04.156Z</time>
      </trkpt>
      <trkpt lat="39.50980833" lon="-8.40574667">
        <ele>138.0</ele>
        <time>2019-05-17T14:23:05.167Z</time>
      </trkpt>
      <trkpt lat="39.50986" lon="-8.40575">
        <ele>138.0</ele>
        <time>2019-05-17T14:23:06.164Z</time>
      </trkpt>
      <trkpt lat="39.50986" lon="-8.40575">
        <ele>138.0</ele>
        <time>2019-05-17T14:23:07.186Z</time>
      </trkpt>
      <trkpt lat="39.50991333" lon="-8.405755">
        <ele>138.0</ele>
        <time>2019-05-17T14:23:08.172Z</time>
      </trkpt>
      <trkpt lat="39.50991333" lon="-8.405755">
        <ele>138.0</ele>
        <time>2019-05-17T14:23:09.175Z</time>
      </trkpt>
      <trkpt lat="39.50996833" lon="-8.40576">
        <ele>138.0</ele>
        <time>2019-05-17T14:23:10.178Z</time>
      </trkpt>
      <trkpt lat="39.50996833" lon="-8.40576">
        <ele>138.0</ele>
        <time>2019-05-17T14:23:11.189Z</time>
      </trkpt>
      <trkpt lat="39.510025" lon="-8.40575833">
        <ele>138.0</ele>
        <time>2019-05-17T14:23:12.176Z</time>
      </trkpt>
      <trkpt lat="39.510025" lon="-8.40575833">
        <ele>138.0</ele>
        <time>2019-05-17T14:23:13.160Z</time>
      </trkpt>
      <trkpt lat="39.510085" lon="-8.40576">
        <ele>138.0</ele>
        <time>2019-05-17T14:23:14.160Z</time>
      </trkpt>
      <trkpt lat="39.510085" lon="-8.40576">
        <ele>138.0</ele>
        <time>2019-05-17T14:23:15.178Z</time>
      </trkpt>
      <trkpt lat="39.51014667" lon="-8.40576333">
        <ele>138.0</ele>
        <time>2019-05-17T14:23:16.173Z</time>
      </trkpt>
      <trkpt lat="39.51014667" lon="-8.40576333">
        <ele>138.0</ele>
        <time>2019-05-17T14:23:17.177Z</time>
      </trkpt>
      <trkpt lat="39.51020667" lon="-8.40577167">
        <ele>138.0</ele>
        <time>2019-05-17T14:23:18.169Z</time>
      </trkpt>
      <trkpt lat="39.51020667" lon="-8.40577167">
        <ele>138.0</ele>
        <time>2019-05-17T14:23:19.186Z</time>
      </trkpt>
      <trkpt lat="39.51026333" lon="-8.40577167">
        <ele>138.0</ele>
        <time>2019-05-17T14:23:20.155Z</time>
      </trkpt>
      <trkpt lat="39.51026333" lon="-8.40577167">
        <ele>138.0</ele>
        <time>2019-05-17T14:23:21.159Z</time>
      </trkpt>
      <trkpt lat="39.51032333" lon="-8.40577167">
        <ele>139.0</ele>
        <time>2019-05-17T14:23:22.183Z</time>
      </trkpt>
      <trkpt lat="39.51032333" lon="-8.40577167">
        <ele>139.0</ele>
        <time>2019-05-17T14:23:23.163Z</time>
      </trkpt>
      <trkpt lat="39.51038" lon="-8.40577667">
        <ele>139.0</ele>
        <time>2019-05-17T14:23:24.188Z</time>
      </trkpt>
      <trkpt lat="39.51041" lon="-8.405775">
        <ele>138.0</ele>
        <time>2019-05-17T14:23:25.178Z</time>
      </trkpt>
      <trkpt lat="39.51043667" lon="-8.40576833">
        <ele>138.0</ele>
        <time>2019-05-17T14:23:26.161Z</time>
      </trkpt>
      <trkpt lat="39.51043667" lon="-8.40576833">
        <ele>138.0</ele>
        <time>2019-05-17T14:23:27.183Z</time>
      </trkpt>
      <trkpt lat="39.51049667" lon="-8.40577">
        <ele>138.0</ele>
        <time>2019-05-17T14:23:28.169Z</time>
      </trkpt>
      <trkpt lat="39.51049667" lon="-8.40577">
        <ele>138.0</ele>
        <time>2019-05-17T14:23:29.177Z</time>
      </trkpt>
      <trkpt lat="39.51054833" lon="-8.40578167">
        <ele>138.0</ele>
        <time>2019-05-17T14:23:30.151Z</time>
      </trkpt>
      <trkpt lat="39.51054833" lon="-8.40578167">
        <ele>138.0</ele>
        <time>2019-05-17T14:23:31.182Z</time>
      </trkpt>
      <trkpt lat="39.5106" lon="-8.40578">
        <ele>138.0</ele>
        <time>2019-05-17T14:23:32.176Z</time>
      </trkpt>
      <trkpt lat="39.5106" lon="-8.40578">
        <ele>138.0</ele>
        <time>2019-05-17T14:23:33.177Z</time>
      </trkpt>
      <trkpt lat="39.51065167" lon="-8.40577833">
        <ele>138.0</ele>
        <time>2019-05-17T14:23:34.176Z</time>
      </trkpt>
      <trkpt lat="39.51068" lon="-8.40577667">
        <ele>138.0</ele>
        <time>2019-05-17T14:23:35.155Z</time>
      </trkpt>
      <trkpt lat="39.51068" lon="-8.40577667">
        <ele>138.0</ele>
        <time>2019-05-17T14:23:36.177Z</time>
      </trkpt>
      <trkpt lat="39.51073833" lon="-8.40577167">
        <ele>138.0</ele>
        <time>2019-05-17T14:23:37.160Z</time>
      </trkpt>
      <trkpt lat="39.51076833" lon="-8.40577">
        <ele>138.0</ele>
        <time>2019-05-17T14:23:38.154Z</time>
      </trkpt>
      <trkpt lat="39.51076833" lon="-8.40577">
        <ele>138.0</ele>
        <time>2019-05-17T14:23:39.174Z</time>
      </trkpt>
      <trkpt lat="39.51082667" lon="-8.405765">
        <ele>138.0</ele>
        <time>2019-05-17T14:23:40.175Z</time>
      </trkpt>
      <trkpt lat="39.51082667" lon="-8.405765">
        <ele>138.0</ele>
        <time>2019-05-17T14:23:41.180Z</time>
      </trkpt>
      <trkpt lat="39.510885" lon="-8.40575833">
        <ele>139.0</ele>
        <time>2019-05-17T14:23:42.172Z</time>
      </trkpt>
      <trkpt lat="39.51091333" lon="-8.40575667">
        <ele>139.0</ele>
        <time>2019-05-17T14:23:43.194Z</time>
      </trkpt>
      <trkpt lat="39.51094" lon="-8.40575">
        <ele>139.0</ele>
        <time>2019-05-17T14:23:44.152Z</time>
      </trkpt>
      <trkpt lat="39.51094" lon="-8.40575">
        <ele>139.0</ele>
        <time>2019-05-17T14:23:45.152Z</time>
      </trkpt>
      <trkpt lat="39.51099833" lon="-8.40574">
        <ele>139.0</ele>
        <time>2019-05-17T14:23:46.155Z</time>
      </trkpt>
      <trkpt lat="39.51099833" lon="-8.40574">
        <ele>139.0</ele>
        <time>2019-05-17T14:23:47.152Z</time>
      </trkpt>
      <trkpt lat="39.51106" lon="-8.405725">
        <ele>139.0</ele>
        <time>2019-05-17T14:23:48.185Z</time>
      </trkpt>
      <trkpt lat="39.51106" lon="-8.405725">
        <ele>139.0</ele>
        <time>2019-05-17T14:23:49.155Z</time>
      </trkpt>
      <trkpt lat="39.51111833" lon="-8.405705">
        <ele>138.0</ele>
        <time>2019-05-17T14:23:50.191Z</time>
      </trkpt>
      <trkpt lat="39.51111833" lon="-8.405705">
        <ele>138.0</ele>
        <time>2019-05-17T14:23:51.165Z</time>
      </trkpt>
      <trkpt lat="39.51117667" lon="-8.40569667">
        <ele>138.0</ele>
        <time>2019-05-17T14:23:52.161Z</time>
      </trkpt>
      <trkpt lat="39.51117667" lon="-8.40569667">
        <ele>138.0</ele>
        <time>2019-05-17T14:23:53.188Z</time>
      </trkpt>
      <trkpt lat="39.511235" lon="-8.40569167">
        <ele>138.0</ele>
        <time>2019-05-17T14:23:54.177Z</time>
      </trkpt>
      <trkpt lat="39.511265" lon="-8.40569">
        <ele>138.0</ele>
        <time>2019-05-17T14:23:55.150Z</time>
      </trkpt>
      <trkpt lat="39.511295" lon="-8.40568333">
        <ele>138.0</ele>
        <time>2019-05-17T14:23:56.184Z</time>
      </trkpt>
      <trkpt lat="39.511295" lon="-8.40568333">
        <ele>138.0</ele>
        <time>2019-05-17T14:23:57.153Z</time>
      </trkpt>
      <trkpt lat="39.511355" lon="-8.40566167">
        <ele>138.0</ele>
        <time>2019-05-17T14:23:58.183Z</time>
      </trkpt>
      <trkpt lat="39.511355" lon="-8.40566167">
        <ele>138.0</ele>
        <time>2019-05-17T14:23:59.164Z</time>
      </trkpt>
      <trkpt lat="39.51141667" lon="-8.40565167">
        <ele>138.0</ele>
        <time>2019-05-17T14:24:00.165Z</time>
      </trkpt>
      <trkpt lat="39.51141667" lon="-8.40565167">
        <ele>138.0</ele>
        <time>2019-05-17T14:24:01.180Z</time>
      </trkpt>
      <trkpt lat="39.51148333" lon="-8.405645">
        <ele>138.0</ele>
        <time>2019-05-17T14:24:02.162Z</time>
      </trkpt>
      <trkpt lat="39.51148333" lon="-8.405645">
        <ele>138.0</ele>
        <time>2019-05-17T14:24:03.167Z</time>
      </trkpt>
      <trkpt lat="39.51154333" lon="-8.40562833">
        <ele>138.0</ele>
        <time>2019-05-17T14:24:04.168Z</time>
      </trkpt>
      <trkpt lat="39.51154333" lon="-8.40562833">
        <ele>138.0</ele>
        <time>2019-05-17T14:24:05.167Z</time>
      </trkpt>
      <trkpt lat="39.51160167" lon="-8.405615">
        <ele>138.0</ele>
        <time>2019-05-17T14:24:06.193Z</time>
      </trkpt>
      <trkpt lat="39.51160167" lon="-8.405615">
        <ele>138.0</ele>
        <time>2019-05-17T14:24:07.165Z</time>
      </trkpt>
      <trkpt lat="39.51165667" lon="-8.40559333">
        <ele>138.0</ele>
        <time>2019-05-17T14:24:08.151Z</time>
      </trkpt>
      <trkpt lat="39.51165667" lon="-8.40559333">
        <ele>138.0</ele>
        <time>2019-05-17T14:24:09.156Z</time>
      </trkpt>
      <trkpt lat="39.511715" lon="-8.40557333">
        <ele>138.0</ele>
        <time>2019-05-17T14:24:10.151Z</time>
      </trkpt>
      <trkpt lat="39.511745" lon="-8.40556333">
        <ele>138.0</ele>
        <time>2019-05-17T14:24:11.156Z</time>
      </trkpt>
      <trkpt lat="39.511745" lon="-8.40556333">
        <ele>138.0</ele>
        <time>2019-05-17T14:24:12.155Z</time>
      </trkpt>
      <trkpt lat="39.51180833" lon="-8.40553667">
        <ele>137.0</ele>
        <time>2019-05-17T14:24:13.175Z</time>
      </trkpt>
      <trkpt lat="39.51184333" lon="-8.40552333">
        <ele>137.0</ele>
        <time>2019-05-17T14:24:14.185Z</time>
      </trkpt>
      <trkpt lat="39.51184333" lon="-8.40552333">
        <ele>137.0</ele>
        <time>2019-05-17T14:24:15.159Z</time>
      </trkpt>
      <trkpt lat="39.51192167" lon="-8.40549333">
        <ele>137.0</ele>
        <time>2019-05-17T14:24:16.154Z</time>
      </trkpt>
      <trkpt lat="39.51192167" lon="-8.40549333">
        <ele>137.0</ele>
        <time>2019-05-17T14:24:17.182Z</time>
      </trkpt>
      <trkpt lat="39.512005" lon="-8.40545667">
        <ele>137.0</ele>
        <time>2019-05-17T14:24:18.173Z</time>
      </trkpt>
      <trkpt lat="39.512005" lon="-8.40545667">
        <ele>137.0</ele>
        <time>2019-05-17T14:24:19.178Z</time>
      </trkpt>
      <trkpt lat="39.51209667" lon="-8.40541833">
        <ele>136.0</ele>
        <time>2019-05-17T14:24:20.189Z</time>
      </trkpt>
      <trkpt lat="39.51209667" lon="-8.40541833">
        <ele>136.0</ele>
        <time>2019-05-17T14:24:21.177Z</time>
      </trkpt>
      <trkpt lat="39.51220833" lon="-8.40537833">
        <ele>136.0</ele>
        <time>2019-05-17T14:24:22.185Z</time>
      </trkpt>
      <trkpt lat="39.51220833" lon="-8.40537833">
        <ele>136.0</ele>
        <time>2019-05-17T14:24:23.158Z</time>
      </trkpt>
      <trkpt lat="39.51232333" lon="-8.405335">
        <ele>135.0</ele>
        <time>2019-05-17T14:24:24.194Z</time>
      </trkpt>
      <trkpt lat="39.51232333" lon="-8.405335">
        <ele>135.0</ele>
        <time>2019-05-17T14:24:25.156Z</time>
      </trkpt>
      <trkpt lat="39.51244333" lon="-8.40528833">
        <ele>134.0</ele>
        <time>2019-05-17T14:24:26.171Z</time>
      </trkpt>
      <trkpt lat="39.51244333" lon="-8.40528833">
        <ele>134.0</ele>
        <time>2019-05-17T14:24:27.157Z</time>
      </trkpt>
      <trkpt lat="39.51256" lon="-8.40524833">
        <ele>134.0</ele>
        <time>2019-05-17T14:24:28.163Z</time>
      </trkpt>
      <trkpt lat="39.51256" lon="-8.40524833">
        <ele>134.0</ele>
        <time>2019-05-17T14:24:29.183Z</time>
      </trkpt>
      <trkpt lat="39.51267667" lon="-8.40521167">
        <ele>133.0</ele>
        <time>2019-05-17T14:24:30.155Z</time>
      </trkpt>
      <trkpt lat="39.51267667" lon="-8.40521167">
        <ele>133.0</ele>
        <time>2019-05-17T14:24:31.165Z</time>
      </trkpt>
      <trkpt lat="39.51279" lon="-8.40516333">
        <ele>133.0</ele>
        <time>2019-05-17T14:24:32.155Z</time>
      </trkpt>
      <trkpt lat="39.51279" lon="-8.40516333">
        <ele>133.0</ele>
        <time>2019-05-17T14:24:33.157Z</time>
      </trkpt>
      <trkpt lat="39.512905" lon="-8.40511">
        <ele>133.0</ele>
        <time>2019-05-17T14:24:34.185Z</time>
      </trkpt>
      <trkpt lat="39.512905" lon="-8.40511">
        <ele>133.0</ele>
        <time>2019-05-17T14:24:35.176Z</time>
      </trkpt>
      <trkpt lat="39.513015" lon="-8.40506667">
        <ele>133.0</ele>
        <time>2019-05-17T14:24:36.165Z</time>
      </trkpt>
      <trkpt lat="39.513015" lon="-8.40506667">
        <ele>133.0</ele>
        <time>2019-05-17T14:24:37.173Z</time>
      </trkpt>
      <trkpt lat="39.51309833" lon="-8.40503833">
        <ele>133.0</ele>
        <time>2019-05-17T14:24:38.176Z</time>
      </trkpt>
      <trkpt lat="39.51309833" lon="-8.40503833">
        <ele>133.0</ele>
        <time>2019-05-17T14:24:39.188Z</time>
      </trkpt>
      <trkpt lat="39.51316167" lon="-8.40503">
        <ele>133.0</ele>
        <time>2019-05-17T14:24:40.187Z</time>
      </trkpt>
      <trkpt lat="39.51319" lon="-8.405025">
        <ele>133.0</ele>
        <time>2019-05-17T14:24:41.151Z</time>
      </trkpt>
      <trkpt lat="39.51319" lon="-8.405025">
        <ele>133.0</ele>
        <time>2019-05-17T14:24:42.171Z</time>
      </trkpt>
      <trkpt lat="39.51324667" lon="-8.40500667">
        <ele>133.0</ele>
        <time>2019-05-17T14:24:43.166Z</time>
      </trkpt>
      <trkpt lat="39.51327667" lon="-8.40499167">
        <ele>133.0</ele>
        <time>2019-05-17T14:24:44.165Z</time>
      </trkpt>
      <trkpt lat="39.51327667" lon="-8.40499167">
        <ele>133.0</ele>
        <time>2019-05-17T14:24:45.155Z</time>
      </trkpt>
      <trkpt lat="39.51333667" lon="-8.40496167">
        <ele>133.0</ele>
        <time>2019-05-17T14:24:46.183Z</time>
      </trkpt>
      <trkpt lat="39.51333667" lon="-8.40496167">
        <ele>133.0</ele>
        <time>2019-05-17T14:24:47.156Z</time>
      </trkpt>
      <trkpt lat="39.51339667" lon="-8.40493667">
        <ele>132.0</ele>
        <time>2019-05-17T14:24:48.165Z</time>
      </trkpt>
      <trkpt lat="39.51342833" lon="-8.404925">
        <ele>132.0</ele>
        <time>2019-05-17T14:24:49.157Z</time>
      </trkpt>
      <trkpt lat="39.51345667" lon="-8.40491167">
        <ele>132.0</ele>
        <time>2019-05-17T14:24:50.165Z</time>
      </trkpt>
      <trkpt lat="39.51345667" lon="-8.40491167">
        <ele>132.0</ele>
        <time>2019-05-17T14:24:51.180Z</time>
      </trkpt>
      <trkpt lat="39.51351667" lon="-8.40489">
        <ele>132.0</ele>
        <time>2019-05-17T14:24:52.165Z</time>
      </trkpt>
      <trkpt lat="39.51351667" lon="-8.40489">
        <ele>132.0</ele>
        <time>2019-05-17T14:24:53.184Z</time>
      </trkpt>
      <trkpt lat="39.51358333" lon="-8.40485667">
        <ele>132.0</ele>
        <time>2019-05-17T14:24:54.159Z</time>
      </trkpt>
      <trkpt lat="39.51358333" lon="-8.40485667">
        <ele>132.0</ele>
        <time>2019-05-17T14:24:55.178Z</time>
      </trkpt>
      <trkpt lat="39.51365333" lon="-8.40481833">
        <ele>131.0</ele>
        <time>2019-05-17T14:24:56.175Z</time>
      </trkpt>
      <trkpt lat="39.51365333" lon="-8.40481833">
        <ele>131.0</ele>
        <time>2019-05-17T14:24:57.183Z</time>
      </trkpt>
      <trkpt lat="39.51373167" lon="-8.40477833">
        <ele>131.0</ele>
        <time>2019-05-17T14:24:58.183Z</time>
      </trkpt>
      <trkpt lat="39.513775" lon="-8.40476">
        <ele>130.0</ele>
        <time>2019-05-17T14:24:59.155Z</time>
      </trkpt>
      <trkpt lat="39.513775" lon="-8.40476">
        <ele>130.0</ele>
        <time>2019-05-17T14:25:00.157Z</time>
      </trkpt>
      <trkpt lat="39.51387" lon="-8.40474167">
        <ele>130.0</ele>
        <time>2019-05-17T14:25:01.163Z</time>
      </trkpt>
      <trkpt lat="39.51392" lon="-8.40474833">
        <ele>129.0</ele>
        <time>2019-05-17T14:25:02.158Z</time>
      </trkpt>
      <trkpt lat="39.51392" lon="-8.40474833">
        <ele>129.0</ele>
        <time>2019-05-17T14:25:03.177Z</time>
      </trkpt>
      <trkpt lat="39.51402667" lon="-8.40478">
        <ele>129.0</ele>
        <time>2019-05-17T14:25:04.165Z</time>
      </trkpt>
      <trkpt lat="39.51408" lon="-8.40479667">
        <ele>129.0</ele>
        <time>2019-05-17T14:25:05.179Z</time>
      </trkpt>
      <trkpt lat="39.51408" lon="-8.40479667">
        <ele>129.0</ele>
        <time>2019-05-17T14:25:06.166Z</time>
      </trkpt>
      <trkpt lat="39.51418" lon="-8.40484333">
        <ele>128.0</ele>
        <time>2019-05-17T14:25:07.182Z</time>
      </trkpt>
      <trkpt lat="39.51423" lon="-8.404865">
        <ele>128.0</ele>
        <time>2019-05-17T14:25:08.174Z</time>
      </trkpt>
      <trkpt lat="39.51423" lon="-8.404865">
        <ele>128.0</ele>
        <time>2019-05-17T14:25:09.167Z</time>
      </trkpt>
      <trkpt lat="39.51432667" lon="-8.404905">
        <ele>128.0</ele>
        <time>2019-05-17T14:25:10.185Z</time>
      </trkpt>
      <trkpt lat="39.514375" lon="-8.40492333">
        <ele>128.0</ele>
        <time>2019-05-17T14:25:11.176Z</time>
      </trkpt>
      <trkpt lat="39.514375" lon="-8.40492333">
        <ele>128.0</ele>
        <time>2019-05-17T14:25:12.167Z</time>
      </trkpt>
      <trkpt lat="39.51447167" lon="-8.40495833">
        <ele>128.0</ele>
        <time>2019-05-17T14:25:13.167Z</time>
      </trkpt>
      <trkpt lat="39.51451833" lon="-8.40497667">
        <ele>128.0</ele>
        <time>2019-05-17T14:25:14.152Z</time>
      </trkpt>
      <trkpt lat="39.51451833" lon="-8.40497667">
        <ele>128.0</ele>
        <time>2019-05-17T14:25:15.178Z</time>
      </trkpt>
      <trkpt lat="39.51461" lon="-8.40500833">
        <ele>128.0</ele>
        <time>2019-05-17T14:25:16.150Z</time>
      </trkpt>
      <trkpt lat="39.51461" lon="-8.40500833">
        <ele>128.0</ele>
        <time>2019-05-17T14:25:17.163Z</time>
      </trkpt>
      <trkpt lat="39.51469833" lon="-8.40504667">
        <ele>129.0</ele>
        <time>2019-05-17T14:25:18.174Z</time>
      </trkpt>
      <trkpt lat="39.51469833" lon="-8.40504667">
        <ele>129.0</ele>
        <time>2019-05-17T14:25:19.160Z</time>
      </trkpt>
      <trkpt lat="39.51478167" lon="-8.40508167">
        <ele>129.0</ele>
        <time>2019-05-17T14:25:20.165Z</time>
      </trkpt>
      <trkpt lat="39.51478167" lon="-8.40508167">
        <ele>129.0</ele>
        <time>2019-05-17T14:25:21.182Z</time>
      </trkpt>
      <trkpt lat="39.51486667" lon="-8.40511333">
        <ele>129.0</ele>
        <time>2019-05-17T14:25:22.175Z</time>
      </trkpt>
      <trkpt lat="39.51486667" lon="-8.40511333">
        <ele>129.0</ele>
        <time>2019-05-17T14:25:23.181Z</time>
      </trkpt>
      <trkpt lat="39.51494833" lon="-8.40513833">
        <ele>130.0</ele>
        <time>2019-05-17T14:25:24.166Z</time>
      </trkpt>
      <trkpt lat="39.51494833" lon="-8.40513833">
        <ele>130.0</ele>
        <time>2019-05-17T14:25:25.182Z</time>
      </trkpt>
      <trkpt lat="39.51503667" lon="-8.40517">
        <ele>130.0</ele>
        <time>2019-05-17T14:25:26.172Z</time>
      </trkpt>
      <trkpt lat="39.51503667" lon="-8.40517">
        <ele>130.0</ele>
        <time>2019-05-17T14:25:27.177Z</time>
      </trkpt>
      <trkpt lat="39.51510333" lon="-8.40519833">
        <ele>130.0</ele>
        <time>2019-05-17T14:25:28.168Z</time>
      </trkpt>
      <trkpt lat="39.51510333" lon="-8.40519833">
        <ele>130.0</ele>
        <time>2019-05-17T14:25:29.161Z</time>
      </trkpt>
      <trkpt lat="39.51517167" lon="-8.40522333">
        <ele>131.0</ele>
        <time>2019-05-17T14:25:30.153Z</time>
      </trkpt>
      <trkpt lat="39.51520833" lon="-8.40524">
        <ele>131.0</ele>
        <time>2019-05-17T14:25:31.155Z</time>
      </trkpt>
      <trkpt lat="39.51520833" lon="-8.40524">
        <ele>131.0</ele>
        <time>2019-05-17T14:25:32.157Z</time>
      </trkpt>
      <trkpt lat="39.515285" lon="-8.40527">
        <ele>131.0</ele>
        <time>2019-05-17T14:25:33.158Z</time>
      </trkpt>
      <trkpt lat="39.515325" lon="-8.40527833">
        <ele>131.0</ele>
        <time>2019-05-17T14:25:34.177Z</time>
      </trkpt>
      <trkpt lat="39.515325" lon="-8.40527833">
        <ele>131.0</ele>
        <time>2019-05-17T14:25:35.168Z</time>
      </trkpt>
      <trkpt lat="39.51540667" lon="-8.40528">
        <ele>131.0</ele>
        <time>2019-05-17T14:25:36.178Z</time>
      </trkpt>
      <trkpt lat="39.51540667" lon="-8.40528">
        <ele>131.0</ele>
        <time>2019-05-17T14:25:37.151Z</time>
      </trkpt>
      <trkpt lat="39.51548333" lon="-8.40527667">
        <ele>131.0</ele>
        <time>2019-05-17T14:25:38.158Z</time>
      </trkpt>
      <trkpt lat="39.51548333" lon="-8.40527667">
        <ele>131.0</ele>
        <time>2019-05-17T14:25:39.182Z</time>
      </trkpt>
      <trkpt lat="39.51555333" lon="-8.40525333">
        <ele>131.0</ele>
        <time>2019-05-17T14:25:40.175Z</time>
      </trkpt>
      <trkpt lat="39.51555333" lon="-8.40525333">
        <ele>131.0</ele>
        <time>2019-05-17T14:25:41.165Z</time>
      </trkpt>
      <trkpt lat="39.515615" lon="-8.40522333">
        <ele>131.0</ele>
        <time>2019-05-17T14:25:42.159Z</time>
      </trkpt>
      <trkpt lat="39.515615" lon="-8.40522333">
        <ele>131.0</ele>
        <time>2019-05-17T14:25:43.170Z</time>
      </trkpt>
      <trkpt lat="39.51566833" lon="-8.40518833">
        <ele>131.0</ele>
        <time>2019-05-17T14:25:44.158Z</time>
      </trkpt>
      <trkpt lat="39.51566833" lon="-8.40518833">
        <ele>131.0</ele>
        <time>2019-05-17T14:25:45.168Z</time>
      </trkpt>
      <trkpt lat="39.51571333" lon="-8.405155">
        <ele>131.0</ele>
        <time>2019-05-17T14:25:46.161Z</time>
      </trkpt>
      <trkpt lat="39.51571333" lon="-8.405155">
        <ele>131.0</ele>
        <time>2019-05-17T14:25:47.164Z</time>
      </trkpt>
      <trkpt lat="39.51575333" lon="-8.40513167">
        <ele>131.0</ele>
        <time>2019-05-17T14:25:48.161Z</time>
      </trkpt>
      <trkpt lat="39.51575333" lon="-8.40513167">
        <ele>131.0</ele>
        <time>2019-05-17T14:25:49.168Z</time>
      </trkpt>
      <trkpt lat="39.51579667" lon="-8.405095">
        <ele>130.0</ele>
        <time>2019-05-17T14:25:50.165Z</time>
      </trkpt>
      <trkpt lat="39.51579667" lon="-8.405095">
        <ele>130.0</ele>
        <time>2019-05-17T14:25:51.170Z</time>
      </trkpt>
      <trkpt lat="39.51585667" lon="-8.40505833">
        <ele>130.0</ele>
        <time>2019-05-17T14:25:52.162Z</time>
      </trkpt>
      <trkpt lat="39.51585667" lon="-8.40505833">
        <ele>130.0</ele>
        <time>2019-05-17T14:25:53.167Z</time>
      </trkpt>
      <trkpt lat="39.51593333" lon="-8.40502">
        <ele>129.0</ele>
        <time>2019-05-17T14:25:54.165Z</time>
      </trkpt>
      <trkpt lat="39.51593333" lon="-8.40502">
        <ele>129.0</ele>
        <time>2019-05-17T14:25:55.182Z</time>
      </trkpt>
      <trkpt lat="39.51602833" lon="-8.40499667">
        <ele>128.0</ele>
        <time>2019-05-17T14:25:56.165Z</time>
      </trkpt>
      <trkpt lat="39.51602833" lon="-8.40499667">
        <ele>128.0</ele>
        <time>2019-05-17T14:25:57.184Z</time>
      </trkpt>
      <trkpt lat="39.51614667" lon="-8.40498167">
        <ele>127.0</ele>
        <time>2019-05-17T14:25:58.165Z</time>
      </trkpt>
      <trkpt lat="39.51621667" lon="-8.404975">
        <ele>127.0</ele>
        <time>2019-05-17T14:25:59.175Z</time>
      </trkpt>
      <trkpt lat="39.51621667" lon="-8.404975">
        <ele>127.0</ele>
        <time>2019-05-17T14:26:00.177Z</time>
      </trkpt>
      <trkpt lat="39.51637" lon="-8.40496">
        <ele>125.0</ele>
        <time>2019-05-17T14:26:01.156Z</time>
      </trkpt>
      <trkpt lat="39.51637" lon="-8.40496">
        <ele>125.0</ele>
        <time>2019-05-17T14:26:02.156Z</time>
      </trkpt>
      <trkpt lat="39.51654333" lon="-8.40494667">
        <ele>123.0</ele>
        <time>2019-05-17T14:26:03.163Z</time>
      </trkpt>
      <trkpt lat="39.51663667" lon="-8.40494">
        <ele>122.0</ele>
        <time>2019-05-17T14:26:04.188Z</time>
      </trkpt>
      <trkpt lat="39.51663667" lon="-8.40494">
        <ele>122.0</ele>
        <time>2019-05-17T14:26:05.155Z</time>
      </trkpt>
      <trkpt lat="39.51682333" lon="-8.40491667">
        <ele>121.0</ele>
        <time>2019-05-17T14:26:06.154Z</time>
      </trkpt>
      <trkpt lat="39.51682333" lon="-8.40491667">
        <ele>121.0</ele>
        <time>2019-05-17T14:26:07.178Z</time>
      </trkpt>
      <trkpt lat="39.517005" lon="-8.40489667">
        <ele>121.0</ele>
        <time>2019-05-17T14:26:08.171Z</time>
      </trkpt>
      <trkpt lat="39.517005" lon="-8.40489667">
        <ele>121.0</ele>
        <time>2019-05-17T14:26:09.155Z</time>
      </trkpt>
      <trkpt lat="39.51717833" lon="-8.40488333">
        <ele>122.0</ele>
        <time>2019-05-17T14:26:10.185Z</time>
      </trkpt>
      <trkpt lat="39.51717833" lon="-8.40488333">
        <ele>122.0</ele>
        <time>2019-05-17T14:26:11.165Z</time>
      </trkpt>
      <trkpt lat="39.51733" lon="-8.40487">
        <ele>122.0</ele>
        <time>2019-05-17T14:26:12.167Z</time>
      </trkpt>
      <trkpt lat="39.51733" lon="-8.40487">
        <ele>122.0</ele>
        <time>2019-05-17T14:26:13.172Z</time>
      </trkpt>
      <trkpt lat="39.51745833" lon="-8.40487">
        <ele>122.0</ele>
        <time>2019-05-17T14:26:14.170Z</time>
      </trkpt>
      <trkpt lat="39.51745833" lon="-8.40487">
        <ele>122.0</ele>
        <time>2019-05-17T14:26:15.174Z</time>
      </trkpt>
      <trkpt lat="39.51757333" lon="-8.40486">
        <ele>122.0</ele>
        <time>2019-05-17T14:26:16.185Z</time>
      </trkpt>
      <trkpt lat="39.51757333" lon="-8.40486">
        <ele>122.0</ele>
        <time>2019-05-17T14:26:17.155Z</time>
      </trkpt>
      <trkpt lat="39.51766667" lon="-8.40484833">
        <ele>123.0</ele>
        <time>2019-05-17T14:26:18.195Z</time>
      </trkpt>
      <trkpt lat="39.51766667" lon="-8.40484833">
        <ele>123.0</ele>
        <time>2019-05-17T14:26:19.185Z</time>
      </trkpt>
      <trkpt lat="39.51774333" lon="-8.40483667">
        <ele>123.0</ele>
        <time>2019-05-17T14:26:20.184Z</time>
      </trkpt>
      <trkpt lat="39.51774333" lon="-8.40483667">
        <ele>123.0</ele>
        <time>2019-05-17T14:26:21.181Z</time>
      </trkpt>
      <trkpt lat="39.51780667" lon="-8.40482833">
        <ele>124.0</ele>
        <time>2019-05-17T14:26:22.172Z</time>
      </trkpt>
      <trkpt lat="39.51780667" lon="-8.40482833">
        <ele>124.0</ele>
        <time>2019-05-17T14:26:23.161Z</time>
      </trkpt>
      <trkpt lat="39.51785667" lon="-8.404825">
        <ele>124.0</ele>
        <time>2019-05-17T14:26:24.155Z</time>
      </trkpt>
      <trkpt lat="39.51788" lon="-8.40482333">
        <ele>124.0</ele>
        <time>2019-05-17T14:26:25.174Z</time>
      </trkpt>
      <trkpt lat="39.51790667" lon="-8.40482333">
        <ele>124.0</ele>
        <time>2019-05-17T14:26:26.191Z</time>
      </trkpt>
      <trkpt lat="39.51790667" lon="-8.40482333">
        <ele>124.0</ele>
        <time>2019-05-17T14:26:27.157Z</time>
      </trkpt>
      <trkpt lat="39.51795833" lon="-8.40482333">
        <ele>124.0</ele>
        <time>2019-05-17T14:26:28.164Z</time>
      </trkpt>
      <trkpt lat="39.51795833" lon="-8.40482333">
        <ele>124.0</ele>
        <time>2019-05-17T14:26:29.154Z</time>
      </trkpt>
      <trkpt lat="39.51801333" lon="-8.40482833">
        <ele>124.0</ele>
        <time>2019-05-17T14:26:30.152Z</time>
      </trkpt>
      <trkpt lat="39.51801333" lon="-8.40482833">
        <ele>124.0</ele>
        <time>2019-05-17T14:26:31.187Z</time>
      </trkpt>
      <trkpt lat="39.51807" lon="-8.404845">
        <ele>124.0</ele>
        <time>2019-05-17T14:26:32.162Z</time>
      </trkpt>
      <trkpt lat="39.51807" lon="-8.404845">
        <ele>124.0</ele>
        <time>2019-05-17T14:26:33.168Z</time>
      </trkpt>
      <trkpt lat="39.51812167" lon="-8.40486">
        <ele>124.0</ele>
        <time>2019-05-17T14:26:34.156Z</time>
      </trkpt>
      <trkpt lat="39.51812167" lon="-8.40486">
        <ele>124.0</ele>
        <time>2019-05-17T14:26:35.158Z</time>
      </trkpt>
      <trkpt lat="39.51817667" lon="-8.40488">
        <ele>124.0</ele>
        <time>2019-05-17T14:26:36.184Z</time>
      </trkpt>
      <trkpt lat="39.51817667" lon="-8.40488">
        <ele>124.0</ele>
        <time>2019-05-17T14:26:37.178Z</time>
      </trkpt>
      <trkpt lat="39.518235" lon="-8.404895">
        <ele>124.0</ele>
        <time>2019-05-17T14:26:38.185Z</time>
      </trkpt>
      <trkpt lat="39.518235" lon="-8.404895">
        <ele>124.0</ele>
        <time>2019-05-17T14:26:39.161Z</time>
      </trkpt>
      <trkpt lat="39.5183" lon="-8.40491167">
        <ele>125.0</ele>
        <time>2019-05-17T14:26:40.189Z</time>
      </trkpt>
      <trkpt lat="39.5183" lon="-8.40491167">
        <ele>125.0</ele>
        <time>2019-05-17T14:26:41.155Z</time>
      </trkpt>
      <trkpt lat="39.518365" lon="-8.40492667">
        <ele>125.0</ele>
        <time>2019-05-17T14:26:42.167Z</time>
      </trkpt>
      <trkpt lat="39.518365" lon="-8.40492667">
        <ele>125.0</ele>
        <time>2019-05-17T14:26:43.177Z</time>
      </trkpt>
      <trkpt lat="39.51842667" lon="-8.40494333">
        <ele>124.0</ele>
        <time>2019-05-17T14:26:44.171Z</time>
      </trkpt>
      <trkpt lat="39.51842667" lon="-8.40494333">
        <ele>124.0</ele>
        <time>2019-05-17T14:26:45.158Z</time>
      </trkpt>
      <trkpt lat="39.518485" lon="-8.404965">
        <ele>124.0</ele>
        <time>2019-05-17T14:26:46.175Z</time>
      </trkpt>
      <trkpt lat="39.518485" lon="-8.404965">
        <ele>124.0</ele>
        <time>2019-05-17T14:26:47.160Z</time>
      </trkpt>
      <trkpt lat="39.51855" lon="-8.40498167">
        <ele>124.0</ele>
        <time>2019-05-17T14:26:48.167Z</time>
      </trkpt>
      <trkpt lat="39.51855" lon="-8.40498167">
        <ele>124.0</ele>
        <time>2019-05-17T14:26:49.167Z</time>
      </trkpt>
      <trkpt lat="39.51862833" lon="-8.404975">
        <ele>123.0</ele>
        <time>2019-05-17T14:26:50.175Z</time>
      </trkpt>
      <trkpt lat="39.51862833" lon="-8.404975">
        <ele>123.0</ele>
        <time>2019-05-17T14:26:51.187Z</time>
      </trkpt>
      <trkpt lat="39.518705" lon="-8.40494">
        <ele>122.0</ele>
        <time>2019-05-17T14:26:52.185Z</time>
      </trkpt>
      <trkpt lat="39.518705" lon="-8.40494">
        <ele>122.0</ele>
        <time>2019-05-17T14:26:53.180Z</time>
      </trkpt>
      <trkpt lat="39.51875333" lon="-8.40489333">
        <ele>121.0</ele>
        <time>2019-05-17T14:26:54.175Z</time>
      </trkpt>
      <trkpt lat="39.51877333" lon="-8.404865">
        <ele>121.0</ele>
        <time>2019-05-17T14:26:55.164Z</time>
      </trkpt>
      <trkpt lat="39.51879" lon="-8.40483833">
        <ele>121.0</ele>
        <time>2019-05-17T14:26:56.182Z</time>
      </trkpt>
      <trkpt lat="39.51879" lon="-8.40483833">
        <ele>121.0</ele>
        <time>2019-05-17T14:26:57.187Z</time>
      </trkpt>
      <trkpt lat="39.51881833" lon="-8.404785">
        <ele>120.0</ele>
        <time>2019-05-17T14:26:58.162Z</time>
      </trkpt>
      <trkpt lat="39.51881833" lon="-8.404785">
        <ele>120.0</ele>
        <time>2019-05-17T14:26:59.158Z</time>
      </trkpt>
      <trkpt lat="39.51884833" lon="-8.404715">
        <ele>119.0</ele>
        <time>2019-05-17T14:27:00.152Z</time>
      </trkpt>
      <trkpt lat="39.51884833" lon="-8.404715">
        <ele>119.0</ele>
        <time>2019-05-17T14:27:01.170Z</time>
      </trkpt>
      <trkpt lat="39.51889" lon="-8.40461333">
        <ele>118.0</ele>
        <time>2019-05-17T14:27:02.179Z</time>
      </trkpt>
      <trkpt lat="39.51889" lon="-8.40461333">
        <ele>118.0</ele>
        <time>2019-05-17T14:27:03.157Z</time>
      </trkpt>
      <trkpt lat="39.51894833" lon="-8.40448167">
        <ele>117.0</ele>
        <time>2019-05-17T14:27:04.185Z</time>
      </trkpt>
      <trkpt lat="39.518985" lon="-8.404405">
        <ele>116.0</ele>
        <time>2019-05-17T14:27:05.190Z</time>
      </trkpt>
      <trkpt lat="39.518985" lon="-8.404405">
        <ele>116.0</ele>
        <time>2019-05-17T14:27:06.162Z</time>
      </trkpt>
      <trkpt lat="39.51907833" lon="-8.40425">
        <ele>115.0</ele>
        <time>2019-05-17T14:27:07.173Z</time>
      </trkpt>
      <trkpt lat="39.51914167" lon="-8.40418">
        <ele>114.0</ele>
        <time>2019-05-17T14:27:08.175Z</time>
      </trkpt>
      <trkpt lat="39.51914167" lon="-8.40418">
        <ele>114.0</ele>
        <time>2019-05-17T14:27:09.160Z</time>
      </trkpt>
      <trkpt lat="39.51928667" lon="-8.40406167">
        <ele>112.0</ele>
        <time>2019-05-17T14:27:10.168Z</time>
      </trkpt>
      <trkpt lat="39.51928667" lon="-8.40406167">
        <ele>112.0</ele>
        <time>2019-05-17T14:27:11.174Z</time>
      </trkpt>
      <trkpt lat="39.519435" lon="-8.40394667">
        <ele>110.0</ele>
        <time>2019-05-17T14:27:12.167Z</time>
      </trkpt>
      <trkpt lat="39.519435" lon="-8.40394667">
        <ele>110.0</ele>
        <time>2019-05-17T14:27:13.180Z</time>
      </trkpt>
      <trkpt lat="39.51958167" lon="-8.40384667">
        <ele>109.0</ele>
        <time>2019-05-17T14:27:14.171Z</time>
      </trkpt>
      <trkpt lat="39.51958167" lon="-8.40384667">
        <ele>109.0</ele>
        <time>2019-05-17T14:27:15.156Z</time>
      </trkpt>
      <trkpt lat="39.51973333" lon="-8.403745">
        <ele>107.0</ele>
        <time>2019-05-17T14:27:16.181Z</time>
      </trkpt>
      <trkpt lat="39.51973333" lon="-8.403745">
        <ele>107.0</ele>
        <time>2019-05-17T14:27:17.171Z</time>
      </trkpt>
      <trkpt lat="39.51989833" lon="-8.40369833">
        <ele>105.0</ele>
        <time>2019-05-17T14:27:18.169Z</time>
      </trkpt>
      <trkpt lat="39.51989833" lon="-8.40369833">
        <ele>105.0</ele>
        <time>2019-05-17T14:27:19.153Z</time>
      </trkpt>
      <trkpt lat="39.52007667" lon="-8.40372667">
        <ele>104.0</ele>
        <time>2019-05-17T14:27:20.194Z</time>
      </trkpt>
      <trkpt lat="39.52007667" lon="-8.40372667">
        <ele>104.0</ele>
        <time>2019-05-17T14:27:21.179Z</time>
      </trkpt>
      <trkpt lat="39.52024" lon="-8.40378167">
        <ele>104.0</ele>
        <time>2019-05-17T14:27:22.176Z</time>
      </trkpt>
      <trkpt lat="39.52024" lon="-8.40378167">
        <ele>104.0</ele>
        <time>2019-05-17T14:27:23.173Z</time>
      </trkpt>
      <trkpt lat="39.52037" lon="-8.403825">
        <ele>103.0</ele>
        <time>2019-05-17T14:27:24.185Z</time>
      </trkpt>
      <trkpt lat="39.520435" lon="-8.40383667">
        <ele>102.0</ele>
        <time>2019-05-17T14:27:25.150Z</time>
      </trkpt>
      <trkpt lat="39.52050667" lon="-8.40384167">
        <ele>101.0</ele>
        <time>2019-05-17T14:27:26.153Z</time>
      </trkpt>
      <trkpt lat="39.52050667" lon="-8.40384167">
        <ele>101.0</ele>
        <time>2019-05-17T14:27:27.187Z</time>
      </trkpt>
      <trkpt lat="39.52064667" lon="-8.403845">
        <ele>99.0</ele>
        <time>2019-05-17T14:27:28.162Z</time>
      </trkpt>
      <trkpt lat="39.52064667" lon="-8.403845">
        <ele>99.0</ele>
        <time>2019-05-17T14:27:29.175Z</time>
      </trkpt>
      <trkpt lat="39.52077333" lon="-8.403835">
        <ele>98.0</ele>
        <time>2019-05-17T14:27:30.158Z</time>
      </trkpt>
      <trkpt lat="39.52077333" lon="-8.403835">
        <ele>98.0</ele>
        <time>2019-05-17T14:27:31.164Z</time>
      </trkpt>
      <trkpt lat="39.52091667" lon="-8.40385">
        <ele>96.0</ele>
        <time>2019-05-17T14:27:32.172Z</time>
      </trkpt>
      <trkpt lat="39.52091667" lon="-8.40385">
        <ele>96.0</ele>
        <time>2019-05-17T14:27:33.154Z</time>
      </trkpt>
      <trkpt lat="39.521045" lon="-8.403895">
        <ele>94.0</ele>
        <time>2019-05-17T14:27:34.185Z</time>
      </trkpt>
      <trkpt lat="39.521045" lon="-8.403895">
        <ele>94.0</ele>
        <time>2019-05-17T14:27:35.177Z</time>
      </trkpt>
      <trkpt lat="39.52115333" lon="-8.40394">
        <ele>93.0</ele>
        <time>2019-05-17T14:27:36.172Z</time>
      </trkpt>
      <trkpt lat="39.52115333" lon="-8.40394">
        <ele>93.0</ele>
        <time>2019-05-17T14:27:37.178Z</time>
      </trkpt>
      <trkpt lat="39.521265" lon="-8.40397333">
        <ele>91.0</ele>
        <time>2019-05-17T14:27:38.181Z</time>
      </trkpt>
      <trkpt lat="39.521265" lon="-8.40397333">
        <ele>91.0</ele>
        <time>2019-05-17T14:27:39.171Z</time>
      </trkpt>
      <trkpt lat="39.52140333" lon="-8.40399833">
        <ele>90.0</ele>
        <time>2019-05-17T14:27:40.174Z</time>
      </trkpt>
      <trkpt lat="39.52140333" lon="-8.40399833">
        <ele>90.0</ele>
        <time>2019-05-17T14:27:41.155Z</time>
      </trkpt>
      <trkpt lat="39.52156833" lon="-8.40399167">
        <ele>88.0</ele>
        <time>2019-05-17T14:27:42.186Z</time>
      </trkpt>
      <trkpt lat="39.52156833" lon="-8.40399167">
        <ele>88.0</ele>
        <time>2019-05-17T14:27:43.156Z</time>
      </trkpt>
      <trkpt lat="39.52171333" lon="-8.40395667">
        <ele>87.0</ele>
        <time>2019-05-17T14:27:44.152Z</time>
      </trkpt>
      <trkpt lat="39.52171333" lon="-8.40395667">
        <ele>87.0</ele>
        <time>2019-05-17T14:27:45.178Z</time>
      </trkpt>
      <trkpt lat="39.52182833" lon="-8.403925">
        <ele>86.0</ele>
        <time>2019-05-17T14:27:46.176Z</time>
      </trkpt>
      <trkpt lat="39.52182833" lon="-8.403925">
        <ele>86.0</ele>
        <time>2019-05-17T14:27:47.177Z</time>
      </trkpt>
      <trkpt lat="39.52193833" lon="-8.40389667">
        <ele>84.0</ele>
        <time>2019-05-17T14:27:48.167Z</time>
      </trkpt>
      <trkpt lat="39.52193833" lon="-8.40389667">
        <ele>84.0</ele>
        <time>2019-05-17T14:27:49.176Z</time>
      </trkpt>
      <trkpt lat="39.52203333" lon="-8.40387">
        <ele>84.0</ele>
        <time>2019-05-17T14:27:50.179Z</time>
      </trkpt>
      <trkpt lat="39.52203333" lon="-8.40387">
        <ele>84.0</ele>
        <time>2019-05-17T14:27:51.184Z</time>
      </trkpt>
      <trkpt lat="39.522115" lon="-8.40383833">
        <ele>84.0</ele>
        <time>2019-05-17T14:27:52.155Z</time>
      </trkpt>
      <trkpt lat="39.522115" lon="-8.40383833">
        <ele>84.0</ele>
        <time>2019-05-17T14:27:53.155Z</time>
      </trkpt>
      <trkpt lat="39.52219333" lon="-8.40383167">
        <ele>83.0</ele>
        <time>2019-05-17T14:27:54.183Z</time>
      </trkpt>
      <trkpt lat="39.52219333" lon="-8.40383167">
        <ele>83.0</ele>
        <time>2019-05-17T14:27:55.178Z</time>
      </trkpt>
      <trkpt lat="39.52228333" lon="-8.403845">
        <ele>82.0</ele>
        <time>2019-05-17T14:27:56.164Z</time>
      </trkpt>
      <trkpt lat="39.52228333" lon="-8.403845">
        <ele>82.0</ele>
        <time>2019-05-17T14:27:57.169Z</time>
      </trkpt>
      <trkpt lat="39.52239667" lon="-8.40388">
        <ele>81.0</ele>
        <time>2019-05-17T14:27:58.164Z</time>
      </trkpt>
      <trkpt lat="39.52239667" lon="-8.40388">
        <ele>81.0</ele>
        <time>2019-05-17T14:27:59.166Z</time>
      </trkpt>
      <trkpt lat="39.522525" lon="-8.403925">
        <ele>79.0</ele>
        <time>2019-05-17T14:28:00.158Z</time>
      </trkpt>
      <trkpt lat="39.522525" lon="-8.403925">
        <ele>79.0</ele>
        <time>2019-05-17T14:28:01.164Z</time>
      </trkpt>
      <trkpt lat="39.522655" lon="-8.40395333">
        <ele>79.0</ele>
        <time>2019-05-17T14:28:02.159Z</time>
      </trkpt>
      <trkpt lat="39.522655" lon="-8.40395333">
        <ele>79.0</ele>
        <time>2019-05-17T14:28:03.154Z</time>
      </trkpt>
      <trkpt lat="39.52277" lon="-8.403955">
        <ele>79.0</ele>
        <time>2019-05-17T14:28:04.195Z</time>
      </trkpt>
      <trkpt lat="39.52277" lon="-8.403955">
        <ele>79.0</ele>
        <time>2019-05-17T14:28:05.173Z</time>
      </trkpt>
      <trkpt lat="39.52288" lon="-8.403955">
        <ele>78.0</ele>
        <time>2019-05-17T14:28:06.156Z</time>
      </trkpt>
      <trkpt lat="39.52288" lon="-8.403955">
        <ele>78.0</ele>
        <time>2019-05-17T14:28:07.159Z</time>
      </trkpt>
      <trkpt lat="39.52298" lon="-8.40394167">
        <ele>79.0</ele>
        <time>2019-05-17T14:28:08.155Z</time>
      </trkpt>
      <trkpt lat="39.52298" lon="-8.40394167">
        <ele>79.0</ele>
        <time>2019-05-17T14:28:09.168Z</time>
      </trkpt>
      <trkpt lat="39.52307167" lon="-8.40392333">
        <ele>79.0</ele>
        <time>2019-05-17T14:28:10.163Z</time>
      </trkpt>
      <trkpt lat="39.52307167" lon="-8.40392333">
        <ele>79.0</ele>
        <time>2019-05-17T14:28:11.167Z</time>
      </trkpt>
      <trkpt lat="39.523145" lon="-8.40390833">
        <ele>80.0</ele>
        <time>2019-05-17T14:28:12.163Z</time>
      </trkpt>
      <trkpt lat="39.523145" lon="-8.40390833">
        <ele>80.0</ele>
        <time>2019-05-17T14:28:13.157Z</time>
      </trkpt>
      <trkpt lat="39.52321" lon="-8.40388833">
        <ele>79.0</ele>
        <time>2019-05-17T14:28:14.151Z</time>
      </trkpt>
      <trkpt lat="39.52321" lon="-8.40388833">
        <ele>79.0</ele>
        <time>2019-05-17T14:28:15.164Z</time>
      </trkpt>
      <trkpt lat="39.52327" lon="-8.40386">
        <ele>80.0</ele>
        <time>2019-05-17T14:28:16.164Z</time>
      </trkpt>
      <trkpt lat="39.52327" lon="-8.40386">
        <ele>80.0</ele>
        <time>2019-05-17T14:28:17.160Z</time>
      </trkpt>
      <trkpt lat="39.523325" lon="-8.40384">
        <ele>80.0</ele>
        <time>2019-05-17T14:28:18.175Z</time>
      </trkpt>
      <trkpt lat="39.523325" lon="-8.40384">
        <ele>80.0</ele>
        <time>2019-05-17T14:28:19.180Z</time>
      </trkpt>
      <trkpt lat="39.523375" lon="-8.40383">
        <ele>80.0</ele>
        <time>2019-05-17T14:28:20.185Z</time>
      </trkpt>
      <trkpt lat="39.523375" lon="-8.40383">
        <ele>80.0</ele>
        <time>2019-05-17T14:28:21.155Z</time>
      </trkpt>
      <trkpt lat="39.523425" lon="-8.40382333">
        <ele>80.0</ele>
        <time>2019-05-17T14:28:22.159Z</time>
      </trkpt>
      <trkpt lat="39.523425" lon="-8.40382333">
        <ele>80.0</ele>
        <time>2019-05-17T14:28:23.154Z</time>
      </trkpt>
      <trkpt lat="39.52347333" lon="-8.40379333">
        <ele>80.0</ele>
        <time>2019-05-17T14:28:24.185Z</time>
      </trkpt>
      <trkpt lat="39.52347333" lon="-8.40379333">
        <ele>80.0</ele>
        <time>2019-05-17T14:28:25.189Z</time>
      </trkpt>
      <trkpt lat="39.52351" lon="-8.40376833">
        <ele>80.0</ele>
        <time>2019-05-17T14:28:26.186Z</time>
      </trkpt>
      <trkpt lat="39.52351" lon="-8.40376833">
        <ele>80.0</ele>
        <time>2019-05-17T14:28:27.165Z</time>
      </trkpt>
      <trkpt lat="39.52354833" lon="-8.40375">
        <ele>80.0</ele>
        <time>2019-05-17T14:28:28.161Z</time>
      </trkpt>
      <trkpt lat="39.52354833" lon="-8.40375">
        <ele>80.0</ele>
        <time>2019-05-17T14:28:29.176Z</time>
      </trkpt>
      <trkpt lat="39.52358833" lon="-8.40372833">
        <ele>80.0</ele>
        <time>2019-05-17T14:28:30.173Z</time>
      </trkpt>
      <trkpt lat="39.52358833" lon="-8.40372833">
        <ele>80.0</ele>
        <time>2019-05-17T14:28:31.153Z</time>
      </trkpt>
      <trkpt lat="39.52363333" lon="-8.40369667">
        <ele>80.0</ele>
        <time>2019-05-17T14:28:32.158Z</time>
      </trkpt>
      <trkpt lat="39.52363333" lon="-8.40369667">
        <ele>80.0</ele>
        <time>2019-05-17T14:28:33.177Z</time>
      </trkpt>
      <trkpt lat="39.52366833" lon="-8.403665">
        <ele>80.0</ele>
        <time>2019-05-17T14:28:34.173Z</time>
      </trkpt>
      <trkpt lat="39.52368667" lon="-8.40365">
        <ele>81.0</ele>
        <time>2019-05-17T14:28:35.188Z</time>
      </trkpt>
      <trkpt lat="39.52368667" lon="-8.40365">
        <ele>81.0</ele>
        <time>2019-05-17T14:28:36.189Z</time>
      </trkpt>
      <trkpt lat="39.52374" lon="-8.40362">
        <ele>81.0</ele>
        <time>2019-05-17T14:28:37.177Z</time>
      </trkpt>
      <trkpt lat="39.523765" lon="-8.40360833">
        <ele>81.0</ele>
        <time>2019-05-17T14:28:38.183Z</time>
      </trkpt>
      <trkpt lat="39.523765" lon="-8.40360833">
        <ele>81.0</ele>
        <time>2019-05-17T14:28:39.167Z</time>
      </trkpt>
      <trkpt lat="39.52382" lon="-8.40362">
        <ele>82.0</ele>
        <time>2019-05-17T14:28:40.175Z</time>
      </trkpt>
      <trkpt lat="39.52382" lon="-8.40362">
        <ele>82.0</ele>
        <time>2019-05-17T14:28:41.188Z</time>
      </trkpt>
      <trkpt lat="39.523865" lon="-8.403615">
        <ele>82.0</ele>
        <time>2019-05-17T14:28:42.175Z</time>
      </trkpt>
      <trkpt lat="39.523865" lon="-8.403615">
        <ele>82.0</ele>
        <time>2019-05-17T14:28:43.152Z</time>
      </trkpt>
      <trkpt lat="39.5239" lon="-8.40360667">
        <ele>82.0</ele>
        <time>2019-05-17T14:28:44.165Z</time>
      </trkpt>
      <trkpt lat="39.5239" lon="-8.40360667">
        <ele>82.0</ele>
        <time>2019-05-17T14:28:45.159Z</time>
      </trkpt>
      <trkpt lat="39.52394" lon="-8.403605">
        <ele>82.0</ele>
        <time>2019-05-17T14:28:46.175Z</time>
      </trkpt>
      <trkpt lat="39.52394" lon="-8.403605">
        <ele>82.0</ele>
        <time>2019-05-17T14:28:47.180Z</time>
      </trkpt>
      <trkpt lat="39.523985" lon="-8.403605">
        <ele>84.0</ele>
        <time>2019-05-17T14:28:48.175Z</time>
      </trkpt>
      <trkpt lat="39.523985" lon="-8.403605">
        <ele>84.0</ele>
        <time>2019-05-17T14:28:49.181Z</time>
      </trkpt>
      <trkpt lat="39.52402167" lon="-8.40361333">
        <ele>84.0</ele>
        <time>2019-05-17T14:28:50.173Z</time>
      </trkpt>
      <trkpt lat="39.52402167" lon="-8.40361333">
        <ele>84.0</ele>
        <time>2019-05-17T14:28:51.157Z</time>
      </trkpt>
      <trkpt lat="39.52404667" lon="-8.40361667">
        <ele>85.0</ele>
        <time>2019-05-17T14:28:52.185Z</time>
      </trkpt>
      <trkpt lat="39.52404667" lon="-8.40361667">
        <ele>85.0</ele>
        <time>2019-05-17T14:28:53.163Z</time>
      </trkpt>
      <trkpt lat="39.52407667" lon="-8.40362333">
        <ele>86.0</ele>
        <time>2019-05-17T14:28:54.176Z</time>
      </trkpt>
      <trkpt lat="39.52407667" lon="-8.40362333">
        <ele>86.0</ele>
        <time>2019-05-17T14:28:55.180Z</time>
      </trkpt>
      <trkpt lat="39.52409833" lon="-8.40363333">
        <ele>86.0</ele>
        <time>2019-05-17T14:28:56.187Z</time>
      </trkpt>
      <trkpt lat="39.52409833" lon="-8.40363333">
        <ele>86.0</ele>
        <time>2019-05-17T14:28:57.152Z</time>
      </trkpt>
      <trkpt lat="39.52412667" lon="-8.40364">
        <ele>87.0</ele>
        <time>2019-05-17T14:28:58.153Z</time>
      </trkpt>
      <trkpt lat="39.52414" lon="-8.40364167">
        <ele>87.0</ele>
        <time>2019-05-17T14:28:59.195Z</time>
      </trkpt>
      <trkpt lat="39.524155" lon="-8.40363833">
        <ele>87.0</ele>
        <time>2019-05-17T14:29:00.155Z</time>
      </trkpt>
      <trkpt lat="39.524155" lon="-8.40363833">
        <ele>87.0</ele>
        <time>2019-05-17T14:29:01.160Z</time>
      </trkpt>
      <trkpt lat="39.52420667" lon="-8.40364667">
        <ele>88.0</ele>
        <time>2019-05-17T14:29:02.170Z</time>
      </trkpt>
      <trkpt lat="39.52420667" lon="-8.40364667">
        <ele>88.0</ele>
        <time>2019-05-17T14:29:03.179Z</time>
      </trkpt>
      <trkpt lat="39.52425333" lon="-8.40363833">
        <ele>88.0</ele>
        <time>2019-05-17T14:29:04.173Z</time>
      </trkpt>
      <trkpt lat="39.52425333" lon="-8.40363833">
        <ele>88.0</ele>
        <time>2019-05-17T14:29:05.157Z</time>
      </trkpt>
      <trkpt lat="39.52428333" lon="-8.40363667">
        <ele>89.0</ele>
        <time>2019-05-17T14:29:06.155Z</time>
      </trkpt>
      <trkpt lat="39.52428333" lon="-8.40363667">
        <ele>89.0</ele>
        <time>2019-05-17T14:29:07.181Z</time>
      </trkpt>
      <trkpt lat="39.52430833" lon="-8.40364667">
        <ele>90.0</ele>
        <time>2019-05-17T14:29:08.166Z</time>
      </trkpt>
      <trkpt lat="39.52430833" lon="-8.40364667">
        <ele>90.0</ele>
        <time>2019-05-17T14:29:09.178Z</time>
      </trkpt>
      <trkpt lat="39.524335" lon="-8.40365167">
        <ele>90.0</ele>
        <time>2019-05-17T14:29:10.151Z</time>
      </trkpt>
      <trkpt lat="39.52435" lon="-8.403645">
        <ele>90.0</ele>
        <time>2019-05-17T14:29:11.166Z</time>
      </trkpt>
      <trkpt lat="39.524375" lon="-8.40363833">
        <ele>91.0</ele>
        <time>2019-05-17T14:29:12.168Z</time>
      </trkpt>
      <trkpt lat="39.524375" lon="-8.40363833">
        <ele>91.0</ele>
        <time>2019-05-17T14:29:13.174Z</time>
      </trkpt>
      <trkpt lat="39.524405" lon="-8.40364333">
        <ele>91.0</ele>
        <time>2019-05-17T14:29:14.181Z</time>
      </trkpt>
      <trkpt lat="39.524405" lon="-8.40364333">
        <ele>91.0</ele>
        <time>2019-05-17T14:29:15.159Z</time>
      </trkpt>
      <trkpt lat="39.52444167" lon="-8.40364333">
        <ele>91.0</ele>
        <time>2019-05-17T14:29:16.155Z</time>
      </trkpt>
      <trkpt lat="39.52444167" lon="-8.40364333">
        <ele>91.0</ele>
        <time>2019-05-17T14:29:17.179Z</time>
      </trkpt>
      <trkpt lat="39.52448833" lon="-8.403645">
        <ele>92.0</ele>
        <time>2019-05-17T14:29:18.175Z</time>
      </trkpt>
      <trkpt lat="39.52452" lon="-8.40364167">
        <ele>92.0</ele>
        <time>2019-05-17T14:29:19.181Z</time>
      </trkpt>
      <trkpt lat="39.52455167" lon="-8.40363667">
        <ele>91.0</ele>
        <time>2019-05-17T14:29:20.174Z</time>
      </trkpt>
      <trkpt lat="39.52455167" lon="-8.40363667">
        <ele>91.0</ele>
        <time>2019-05-17T14:29:21.158Z</time>
      </trkpt>
      <trkpt lat="39.5246" lon="-8.40362667">
        <ele>91.0</ele>
        <time>2019-05-17T14:29:22.160Z</time>
      </trkpt>
      <trkpt lat="39.5246" lon="-8.40362667">
        <ele>91.0</ele>
        <time>2019-05-17T14:29:23.166Z</time>
      </trkpt>
      <trkpt lat="39.52463167" lon="-8.403625">
        <ele>91.0</ele>
        <time>2019-05-17T14:29:24.161Z</time>
      </trkpt>
      <trkpt lat="39.52463167" lon="-8.403625">
        <ele>91.0</ele>
        <time>2019-05-17T14:29:25.187Z</time>
      </trkpt>
      <trkpt lat="39.52465833" lon="-8.40362333">
        <ele>92.0</ele>
        <time>2019-05-17T14:29:26.163Z</time>
      </trkpt>
      <trkpt lat="39.52465833" lon="-8.40362333">
        <ele>92.0</ele>
        <time>2019-05-17T14:29:27.161Z</time>
      </trkpt>
      <trkpt lat="39.524705" lon="-8.40360333">
        <ele>94.0</ele>
        <time>2019-05-17T14:29:28.165Z</time>
      </trkpt>
      <trkpt lat="39.524705" lon="-8.40360333">
        <ele>94.0</ele>
        <time>2019-05-17T14:29:29.170Z</time>
      </trkpt>
      <trkpt lat="39.524755" lon="-8.40357833">
        <ele>95.0</ele>
        <time>2019-05-17T14:29:30.171Z</time>
      </trkpt>
      <trkpt lat="39.524755" lon="-8.40357833">
        <ele>95.0</ele>
        <time>2019-05-17T14:29:31.180Z</time>
      </trkpt>
      <trkpt lat="39.52478833" lon="-8.403555">
        <ele>96.0</ele>
        <time>2019-05-17T14:29:32.158Z</time>
      </trkpt>
      <trkpt lat="39.52478833" lon="-8.403555">
        <ele>96.0</ele>
        <time>2019-05-17T14:29:33.184Z</time>
      </trkpt>
      <trkpt lat="39.52484667" lon="-8.403545">
        <ele>98.0</ele>
        <time>2019-05-17T14:29:34.176Z</time>
      </trkpt>
      <trkpt lat="39.52484667" lon="-8.403545">
        <ele>98.0</ele>
        <time>2019-05-17T14:29:35.186Z</time>
      </trkpt>
      <trkpt lat="39.524895" lon="-8.403525">
        <ele>97.0</ele>
        <time>2019-05-17T14:29:36.164Z</time>
      </trkpt>
      <trkpt lat="39.524895" lon="-8.403525">
        <ele>97.0</ele>
        <time>2019-05-17T14:29:37.184Z</time>
      </trkpt>
      <trkpt lat="39.52493333" lon="-8.40351333">
        <ele>97.0</ele>
        <time>2019-05-17T14:29:38.185Z</time>
      </trkpt>
      <trkpt lat="39.52493333" lon="-8.40351333">
        <ele>97.0</ele>
        <time>2019-05-17T14:29:39.152Z</time>
      </trkpt>
      <trkpt lat="39.52496667" lon="-8.40350167">
        <ele>98.0</ele>
        <time>2019-05-17T14:29:40.176Z</time>
      </trkpt>
      <trkpt lat="39.52496667" lon="-8.40350167">
        <ele>98.0</ele>
        <time>2019-05-17T14:29:41.184Z</time>
      </trkpt>
      <trkpt lat="39.525" lon="-8.40348667">
        <ele>98.0</ele>
        <time>2019-05-17T14:29:42.157Z</time>
      </trkpt>
      <trkpt lat="39.525" lon="-8.40348667">
        <ele>98.0</ele>
        <time>2019-05-17T14:29:43.164Z</time>
      </trkpt>
      <trkpt lat="39.52503667" lon="-8.403475">
        <ele>98.0</ele>
        <time>2019-05-17T14:29:44.165Z</time>
      </trkpt>
      <trkpt lat="39.52503667" lon="-8.403475">
        <ele>98.0</ele>
        <time>2019-05-17T14:29:45.156Z</time>
      </trkpt>
      <trkpt lat="39.52507167" lon="-8.40345833">
        <ele>98.0</ele>
        <time>2019-05-17T14:29:46.157Z</time>
      </trkpt>
      <trkpt lat="39.52507167" lon="-8.40345833">
        <ele>98.0</ele>
        <time>2019-05-17T14:29:47.168Z</time>
      </trkpt>
      <trkpt lat="39.52510667" lon="-8.40343833">
        <ele>98.0</ele>
        <time>2019-05-17T14:29:48.158Z</time>
      </trkpt>
      <trkpt lat="39.52510667" lon="-8.40343833">
        <ele>98.0</ele>
        <time>2019-05-17T14:29:49.171Z</time>
      </trkpt>
      <trkpt lat="39.52514333" lon="-8.403415">
        <ele>98.0</ele>
        <time>2019-05-17T14:29:50.165Z</time>
      </trkpt>
      <trkpt lat="39.52514333" lon="-8.403415">
        <ele>98.0</ele>
        <time>2019-05-17T14:29:51.189Z</time>
      </trkpt>
      <trkpt lat="39.52517333" lon="-8.40340667">
        <ele>98.0</ele>
        <time>2019-05-17T14:29:52.185Z</time>
      </trkpt>
      <trkpt lat="39.52517333" lon="-8.40340667">
        <ele>98.0</ele>
        <time>2019-05-17T14:29:53.155Z</time>
      </trkpt>
      <trkpt lat="39.52520333" lon="-8.403395">
        <ele>98.0</ele>
        <time>2019-05-17T14:29:54.182Z</time>
      </trkpt>
      <trkpt lat="39.52521833" lon="-8.40338333">
        <ele>98.0</ele>
        <time>2019-05-17T14:29:55.151Z</time>
      </trkpt>
      <trkpt lat="39.52523167" lon="-8.403375">
        <ele>99.0</ele>
        <time>2019-05-17T14:29:56.155Z</time>
      </trkpt>
      <trkpt lat="39.52523167" lon="-8.403375">
        <ele>99.0</ele>
        <time>2019-05-17T14:29:57.168Z</time>
      </trkpt>
      <trkpt lat="39.52527" lon="-8.40336333">
        <ele>99.0</ele>
        <time>2019-05-17T14:29:58.185Z</time>
      </trkpt>
      <trkpt lat="39.52527" lon="-8.40336333">
        <ele>99.0</ele>
        <time>2019-05-17T14:29:59.179Z</time>
      </trkpt>
      <trkpt lat="39.525315" lon="-8.40335333">
        <ele>99.0</ele>
        <time>2019-05-17T14:30:00.165Z</time>
      </trkpt>
      <trkpt lat="39.525315" lon="-8.40335333">
        <ele>99.0</ele>
        <time>2019-05-17T14:30:01.167Z</time>
      </trkpt>
      <trkpt lat="39.52536333" lon="-8.40334333">
        <ele>99.0</ele>
        <time>2019-05-17T14:30:02.176Z</time>
      </trkpt>
      <trkpt lat="39.52536333" lon="-8.40334333">
        <ele>99.0</ele>
        <time>2019-05-17T14:30:03.183Z</time>
      </trkpt>
      <trkpt lat="39.52541833" lon="-8.40333167">
        <ele>99.0</ele>
        <time>2019-05-17T14:30:04.181Z</time>
      </trkpt>
      <trkpt lat="39.52541833" lon="-8.40333167">
        <ele>99.0</ele>
        <time>2019-05-17T14:30:05.157Z</time>
      </trkpt>
      <trkpt lat="39.52547" lon="-8.40331667">
        <ele>98.0</ele>
        <time>2019-05-17T14:30:06.150Z</time>
      </trkpt>
      <trkpt lat="39.52547" lon="-8.40331667">
        <ele>98.0</ele>
        <time>2019-05-17T14:30:07.180Z</time>
      </trkpt>
      <trkpt lat="39.52552" lon="-8.40330833">
        <ele>98.0</ele>
        <time>2019-05-17T14:30:08.159Z</time>
      </trkpt>
      <trkpt lat="39.52552" lon="-8.40330833">
        <ele>98.0</ele>
        <time>2019-05-17T14:30:09.170Z</time>
      </trkpt>
      <trkpt lat="39.525565" lon="-8.40330333">
        <ele>97.0</ele>
        <time>2019-05-17T14:30:10.192Z</time>
      </trkpt>
      <trkpt lat="39.525565" lon="-8.40330333">
        <ele>97.0</ele>
        <time>2019-05-17T14:30:11.157Z</time>
      </trkpt>
      <trkpt lat="39.52561" lon="-8.40329">
        <ele>96.0</ele>
        <time>2019-05-17T14:30:12.161Z</time>
      </trkpt>
      <trkpt lat="39.52561" lon="-8.40329">
        <ele>96.0</ele>
        <time>2019-05-17T14:30:13.169Z</time>
      </trkpt>
      <trkpt lat="39.52565667" lon="-8.40329">
        <ele>97.0</ele>
        <time>2019-05-17T14:30:14.165Z</time>
      </trkpt>
      <trkpt lat="39.52565667" lon="-8.40329">
        <ele>97.0</ele>
        <time>2019-05-17T14:30:15.170Z</time>
      </trkpt>
      <trkpt lat="39.52569833" lon="-8.40329">
        <ele>96.0</ele>
        <time>2019-05-17T14:30:16.168Z</time>
      </trkpt>
      <trkpt lat="39.52569833" lon="-8.40329">
        <ele>96.0</ele>
        <time>2019-05-17T14:30:17.160Z</time>
      </trkpt>
      <trkpt lat="39.52574" lon="-8.40328333">
        <ele>96.0</ele>
        <time>2019-05-17T14:30:18.174Z</time>
      </trkpt>
      <trkpt lat="39.52575667" lon="-8.40328">
        <ele>96.0</ele>
        <time>2019-05-17T14:30:19.179Z</time>
      </trkpt>
      <trkpt lat="39.52577167" lon="-8.40327667">
        <ele>96.0</ele>
        <time>2019-05-17T14:30:20.190Z</time>
      </trkpt>
      <trkpt lat="39.52577167" lon="-8.40327667">
        <ele>96.0</ele>
        <time>2019-05-17T14:30:21.161Z</time>
      </trkpt>
      <trkpt lat="39.52581167" lon="-8.403275">
        <ele>96.0</ele>
        <time>2019-05-17T14:30:22.155Z</time>
      </trkpt>
      <trkpt lat="39.52581167" lon="-8.403275">
        <ele>96.0</ele>
        <time>2019-05-17T14:30:23.186Z</time>
      </trkpt>
      <trkpt lat="39.52586167" lon="-8.40327167">
        <ele>96.0</ele>
        <time>2019-05-17T14:30:24.186Z</time>
      </trkpt>
      <trkpt lat="39.52586167" lon="-8.40327167">
        <ele>96.0</ele>
        <time>2019-05-17T14:30:25.180Z</time>
      </trkpt>
      <trkpt lat="39.52591" lon="-8.403265">
        <ele>96.0</ele>
        <time>2019-05-17T14:30:26.155Z</time>
      </trkpt>
      <trkpt lat="39.52591" lon="-8.403265">
        <ele>96.0</ele>
        <time>2019-05-17T14:30:27.167Z</time>
      </trkpt>
      <trkpt lat="39.52597833" lon="-8.40324333">
        <ele>96.0</ele>
        <time>2019-05-17T14:30:28.156Z</time>
      </trkpt>
      <trkpt lat="39.52597833" lon="-8.40324333">
        <ele>96.0</ele>
        <time>2019-05-17T14:30:29.163Z</time>
      </trkpt>
      <trkpt lat="39.52606333" lon="-8.40320333">
        <ele>96.0</ele>
        <time>2019-05-17T14:30:30.157Z</time>
      </trkpt>
      <trkpt lat="39.52606333" lon="-8.40320333">
        <ele>96.0</ele>
        <time>2019-05-17T14:30:31.173Z</time>
      </trkpt>
      <trkpt lat="39.52616667" lon="-8.40315167">
        <ele>95.0</ele>
        <time>2019-05-17T14:30:32.156Z</time>
      </trkpt>
      <trkpt lat="39.52616667" lon="-8.40315167">
        <ele>95.0</ele>
        <time>2019-05-17T14:30:33.158Z</time>
      </trkpt>
      <trkpt lat="39.526295" lon="-8.40308">
        <ele>94.0</ele>
        <time>2019-05-17T14:30:34.150Z</time>
      </trkpt>
      <trkpt lat="39.526295" lon="-8.40308">
        <ele>94.0</ele>
        <time>2019-05-17T14:30:35.168Z</time>
      </trkpt>
      <trkpt lat="39.52643" lon="-8.40300833">
        <ele>92.0</ele>
        <time>2019-05-17T14:30:36.184Z</time>
      </trkpt>
      <trkpt lat="39.52643" lon="-8.40300833">
        <ele>92.0</ele>
        <time>2019-05-17T14:30:37.169Z</time>
      </trkpt>
      <trkpt lat="39.52657667" lon="-8.40295">
        <ele>90.0</ele>
        <time>2019-05-17T14:30:38.164Z</time>
      </trkpt>
      <trkpt lat="39.52657667" lon="-8.40295">
        <ele>90.0</ele>
        <time>2019-05-17T14:30:39.184Z</time>
      </trkpt>
      <trkpt lat="39.526725" lon="-8.402895">
        <ele>89.0</ele>
        <time>2019-05-17T14:30:40.189Z</time>
      </trkpt>
      <trkpt lat="39.526725" lon="-8.402895">
        <ele>89.0</ele>
        <time>2019-05-17T14:30:41.158Z</time>
      </trkpt>
      <trkpt lat="39.52686667" lon="-8.40284">
        <ele>88.0</ele>
        <time>2019-05-17T14:30:42.165Z</time>
      </trkpt>
      <trkpt lat="39.52686667" lon="-8.40284">
        <ele>88.0</ele>
        <time>2019-05-17T14:30:43.157Z</time>
      </trkpt>
      <trkpt lat="39.52700667" lon="-8.40279167">
        <ele>87.0</ele>
        <time>2019-05-17T14:30:44.156Z</time>
      </trkpt>
      <trkpt lat="39.52700667" lon="-8.40279167">
        <ele>87.0</ele>
        <time>2019-05-17T14:30:45.168Z</time>
      </trkpt>
      <trkpt lat="39.52714333" lon="-8.402745">
        <ele>87.0</ele>
        <time>2019-05-17T14:30:46.159Z</time>
      </trkpt>
      <trkpt lat="39.52714333" lon="-8.402745">
        <ele>87.0</ele>
        <time>2019-05-17T14:30:47.173Z</time>
      </trkpt>
      <trkpt lat="39.52726833" lon="-8.402695">
        <ele>86.0</ele>
        <time>2019-05-17T14:30:48.181Z</time>
      </trkpt>
      <trkpt lat="39.52726833" lon="-8.402695">
        <ele>86.0</ele>
        <time>2019-05-17T14:30:49.167Z</time>
      </trkpt>
      <trkpt lat="39.52738333" lon="-8.40264833">
        <ele>85.0</ele>
        <time>2019-05-17T14:30:50.170Z</time>
      </trkpt>
      <trkpt lat="39.52738333" lon="-8.40264833">
        <ele>85.0</ele>
        <time>2019-05-17T14:30:51.158Z</time>
      </trkpt>
      <trkpt lat="39.52748833" lon="-8.40260167">
        <ele>84.0</ele>
        <time>2019-05-17T14:30:52.160Z</time>
      </trkpt>
      <trkpt lat="39.52748833" lon="-8.40260167">
        <ele>84.0</ele>
        <time>2019-05-17T14:30:53.182Z</time>
      </trkpt>
      <trkpt lat="39.52758167" lon="-8.40255333">
        <ele>84.0</ele>
        <time>2019-05-17T14:30:54.159Z</time>
      </trkpt>
      <trkpt lat="39.52758167" lon="-8.40255333">
        <ele>84.0</ele>
        <time>2019-05-17T14:30:55.164Z</time>
      </trkpt>
      <trkpt lat="39.527655" lon="-8.40250667">
        <ele>83.0</ele>
        <time>2019-05-17T14:30:56.165Z</time>
      </trkpt>
      <trkpt lat="39.527655" lon="-8.40250667">
        <ele>83.0</ele>
        <time>2019-05-17T14:30:57.155Z</time>
      </trkpt>
      <trkpt lat="39.52770333" lon="-8.40247333">
        <ele>82.0</ele>
        <time>2019-05-17T14:30:58.155Z</time>
      </trkpt>
      <trkpt lat="39.52770333" lon="-8.40247333">
        <ele>82.0</ele>
        <time>2019-05-17T14:30:59.163Z</time>
      </trkpt>
      <trkpt lat="39.52772" lon="-8.402465">
        <ele>82.0</ele>
        <time>2019-05-17T14:31:00.163Z</time>
      </trkpt>
      <trkpt lat="39.52772" lon="-8.402465">
        <ele>82.0</ele>
        <time>2019-05-17T14:31:01.183Z</time>
      </trkpt>
      <trkpt lat="39.52772" lon="-8.402465">
        <ele>82.0</ele>
        <time>2019-05-17T14:31:02.193Z</time>
      </trkpt>
      <trkpt lat="39.52772" lon="-8.402465">
        <ele>82.0</ele>
        <time>2019-05-17T14:31:03.184Z</time>
      </trkpt>
      <trkpt lat="39.52772" lon="-8.402465">
        <ele>82.0</ele>
        <time>2019-05-17T14:31:04.150Z</time>
      </trkpt>
      <trkpt lat="39.52772" lon="-8.402465">
        <ele>82.0</ele>
        <time>2019-05-17T14:31:05.156Z</time>
      </trkpt>
      <trkpt lat="39.52772" lon="-8.402465">
        <ele>82.0</ele>
        <time>2019-05-17T14:31:06.161Z</time>
      </trkpt>
      <trkpt lat="39.52772" lon="-8.402465">
        <ele>82.0</ele>
        <time>2019-05-17T14:31:07.167Z</time>
      </trkpt>
      <trkpt lat="39.52772" lon="-8.402465">
        <ele>82.0</ele>
        <time>2019-05-17T14:31:08.170Z</time>
      </trkpt>
      <trkpt lat="39.52772" lon="-8.402465">
        <ele>82.0</ele>
        <time>2019-05-17T14:31:09.166Z</time>
      </trkpt>
      <trkpt lat="39.52772" lon="-8.402465">
        <ele>82.0</ele>
        <time>2019-05-17T14:31:10.151Z</time>
      </trkpt>
      <trkpt lat="39.52772" lon="-8.402465">
        <ele>82.0</ele>
        <time>2019-05-17T14:31:11.158Z</time>
      </trkpt>
      <trkpt lat="39.52772" lon="-8.402465">
        <ele>82.0</ele>
        <time>2019-05-17T14:31:12.166Z</time>
      </trkpt>
      <trkpt lat="39.52772" lon="-8.402465">
        <ele>82.0</ele>
        <time>2019-05-17T14:31:13.168Z</time>
      </trkpt>
      <trkpt lat="39.52772" lon="-8.402465">
        <ele>82.0</ele>
        <time>2019-05-17T14:31:14.159Z</time>
      </trkpt>
      <trkpt lat="39.52772" lon="-8.402465">
        <ele>82.0</ele>
        <time>2019-05-17T14:31:15.185Z</time>
      </trkpt>
      <trkpt lat="39.52772" lon="-8.402465">
        <ele>82.0</ele>
        <time>2019-05-17T14:31:16.170Z</time>
      </trkpt>
      <trkpt lat="39.52772" lon="-8.402465">
        <ele>82.0</ele>
        <time>2019-05-17T14:31:17.163Z</time>
      </trkpt>
      <trkpt lat="39.52772" lon="-8.402465">
        <ele>82.0</ele>
        <time>2019-05-17T14:31:18.150Z</time>
      </trkpt>
      <trkpt lat="39.52772" lon="-8.402465">
        <ele>82.0</ele>
        <time>2019-05-17T14:31:19.176Z</time>
      </trkpt>
      <trkpt lat="39.52772" lon="-8.402465">
        <ele>82.0</ele>
        <time>2019-05-17T14:31:20.170Z</time>
      </trkpt>
      <trkpt lat="39.52772" lon="-8.402465">
        <ele>82.0</ele>
        <time>2019-05-17T14:31:21.163Z</time>
      </trkpt>
      <trkpt lat="39.52772" lon="-8.402465">
        <ele>82.0</ele>
        <time>2019-05-17T14:31:22.169Z</time>
      </trkpt>
      <trkpt lat="39.52772" lon="-8.402465">
        <ele>82.0</ele>
        <time>2019-05-17T14:31:23.163Z</time>
      </trkpt>
      <trkpt lat="39.52772" lon="-8.402465">
        <ele>82.0</ele>
        <time>2019-05-17T14:31:24.168Z</time>
      </trkpt>
      <trkpt lat="39.52772" lon="-8.402465">
        <ele>82.0</ele>
        <time>2019-05-17T14:31:25.163Z</time>
      </trkpt>
      <trkpt lat="39.52772" lon="-8.402465">
        <ele>82.0</ele>
        <time>2019-05-17T14:31:26.170Z</time>
      </trkpt>
      <trkpt lat="39.52772" lon="-8.402465">
        <ele>82.0</ele>
        <time>2019-05-17T14:31:27.168Z</time>
      </trkpt>
      <trkpt lat="39.52772" lon="-8.402465">
        <ele>82.0</ele>
        <time>2019-05-17T14:31:28.166Z</time>
      </trkpt>
      <trkpt lat="39.52772" lon="-8.402465">
        <ele>82.0</ele>
        <time>2019-05-17T14:31:29.168Z</time>
      </trkpt>
      <trkpt lat="39.52772" lon="-8.402465">
        <ele>82.0</ele>
        <time>2019-05-17T14:31:30.160Z</time>
      </trkpt>
      <trkpt lat="39.52772" lon="-8.402465">
        <ele>82.0</ele>
        <time>2019-05-17T14:31:31.165Z</time>
      </trkpt>
      <trkpt lat="39.52772" lon="-8.402465">
        <ele>82.0</ele>
        <time>2019-05-17T14:31:32.171Z</time>
      </trkpt>
      <trkpt lat="39.52772" lon="-8.402465">
        <ele>82.0</ele>
        <time>2019-05-17T14:31:33.163Z</time>
      </trkpt>
      <trkpt lat="39.52772" lon="-8.402465">
        <ele>82.0</ele>
        <time>2019-05-17T14:31:34.169Z</time>
      </trkpt>
      <trkpt lat="39.52772" lon="-8.402465">
        <ele>82.0</ele>
        <time>2019-05-17T14:31:35.163Z</time>
      </trkpt>
      <trkpt lat="39.52772" lon="-8.402465">
        <ele>82.0</ele>
        <time>2019-05-17T14:31:36.168Z</time>
      </trkpt>
      <trkpt lat="39.52772" lon="-8.402465">
        <ele>82.0</ele>
        <time>2019-05-17T14:31:37.163Z</time>
      </trkpt>
      <trkpt lat="39.52772" lon="-8.402465">
        <ele>82.0</ele>
        <time>2019-05-17T14:31:38.150Z</time>
      </trkpt>
      <trkpt lat="39.52772" lon="-8.402465">
        <ele>82.0</ele>
        <time>2019-05-17T14:31:39.177Z</time>
      </trkpt>
      <trkpt lat="39.52772" lon="-8.402465">
        <ele>82.0</ele>
        <time>2019-05-17T14:31:40.168Z</time>
      </trkpt>
      <trkpt lat="39.52772" lon="-8.402465">
        <ele>82.0</ele>
        <time>2019-05-17T14:31:41.163Z</time>
      </trkpt>
      <trkpt lat="39.52772" lon="-8.402465">
        <ele>82.0</ele>
        <time>2019-05-17T14:31:42.168Z</time>
      </trkpt>
      <trkpt lat="39.52772" lon="-8.402465">
        <ele>82.0</ele>
        <time>2019-05-17T14:31:43.170Z</time>
      </trkpt>
      <trkpt lat="39.52772" lon="-8.402465">
        <ele>82.0</ele>
        <time>2019-05-17T14:31:44.165Z</time>
      </trkpt>
      <trkpt lat="39.52772" lon="-8.402465">
        <ele>82.0</ele>
        <time>2019-05-17T14:31:45.168Z</time>
      </trkpt>
      <trkpt lat="39.52772" lon="-8.402465">
        <ele>82.0</ele>
        <time>2019-05-17T14:31:46.168Z</time>
      </trkpt>
      <trkpt lat="39.52772" lon="-8.402465">
        <ele>82.0</ele>
        <time>2019-05-17T14:31:47.168Z</time>
      </trkpt>
      <trkpt lat="39.52772" lon="-8.402465">
        <ele>82.0</ele>
        <time>2019-05-17T14:31:48.163Z</time>
      </trkpt>
      <trkpt lat="39.52772" lon="-8.402465">
        <ele>82.0</ele>
        <time>2019-05-17T14:31:49.167Z</time>
      </trkpt>
      <trkpt lat="39.52772" lon="-8.402465">
        <ele>82.0</ele>
        <time>2019-05-17T14:31:50.189Z</time>
      </trkpt>
      <trkpt lat="39.52772" lon="-8.402465">
        <ele>82.0</ele>
        <time>2019-05-17T14:31:51.174Z</time>
      </trkpt>
      <trkpt lat="39.52772" lon="-8.402465">
        <ele>82.0</ele>
        <time>2019-05-17T14:31:52.170Z</time>
      </trkpt>
      <trkpt lat="39.52772" lon="-8.402465">
        <ele>82.0</ele>
        <time>2019-05-17T14:31:53.169Z</time>
      </trkpt>
      <trkpt lat="39.52772" lon="-8.402465">
        <ele>82.0</ele>
        <time>2019-05-17T14:31:54.166Z</time>
      </trkpt>
      <trkpt lat="39.52772" lon="-8.402465">
        <ele>82.0</ele>
        <time>2019-05-17T14:31:55.176Z</time>
      </trkpt>
      <trkpt lat="39.52772" lon="-8.402465">
        <ele>82.0</ele>
        <time>2019-05-17T14:31:56.171Z</time>
      </trkpt>
      <trkpt lat="39.52772" lon="-8.402465">
        <ele>82.0</ele>
        <time>2019-05-17T14:31:57.168Z</time>
      </trkpt>
      <trkpt lat="39.52772" lon="-8.402465">
        <ele>82.0</ele>
        <time>2019-05-17T14:31:58.165Z</time>
      </trkpt>
      <trkpt lat="39.52772" lon="-8.402465">
        <ele>82.0</ele>
        <time>2019-05-17T14:31:59.169Z</time>
      </trkpt>
      <trkpt lat="39.52772" lon="-8.402465">
        <ele>82.0</ele>
        <time>2019-05-17T14:32:00.163Z</time>
      </trkpt>
      <trkpt lat="39.52772" lon="-8.402465">
        <ele>82.0</ele>
        <time>2019-05-17T14:32:01.168Z</time>
      </trkpt>
      <trkpt lat="39.52772" lon="-8.402465">
        <ele>82.0</ele>
        <time>2019-05-17T14:32:02.171Z</time>
      </trkpt>
      <trkpt lat="39.52772" lon="-8.402465">
        <ele>82.0</ele>
        <time>2019-05-17T14:32:03.163Z</time>
      </trkpt>
      <trkpt lat="39.52772" lon="-8.402465">
        <ele>82.0</ele>
        <time>2019-05-17T14:32:04.168Z</time>
      </trkpt>
      <trkpt lat="39.52772" lon="-8.402465">
        <ele>82.0</ele>
        <time>2019-05-17T14:32:05.163Z</time>
      </trkpt>
      <trkpt lat="39.52772" lon="-8.402465">
        <ele>82.0</ele>
        <time>2019-05-17T14:32:06.169Z</time>
      </trkpt>
      <trkpt lat="39.52772" lon="-8.402465">
        <ele>82.0</ele>
        <time>2019-05-17T14:32:07.173Z</time>
      </trkpt>
      <trkpt lat="39.52772" lon="-8.402465">
        <ele>82.0</ele>
        <time>2019-05-17T14:32:08.167Z</time>
      </trkpt>
      <trkpt lat="39.52772" lon="-8.402465">
        <ele>82.0</ele>
        <time>2019-05-17T14:32:09.174Z</time>
      </trkpt>
      <trkpt lat="39.52772" lon="-8.402465">
        <ele>82.0</ele>
        <time>2019-05-17T14:32:10.171Z</time>
      </trkpt>
      <trkpt lat="39.52772" lon="-8.402465">
        <ele>82.0</ele>
        <time>2019-05-17T14:32:11.176Z</time>
      </trkpt>
      <trkpt lat="39.52772" lon="-8.402465">
        <ele>82.0</ele>
        <time>2019-05-17T14:32:12.182Z</time>
      </trkpt>
      <trkpt lat="39.52772" lon="-8.402465">
        <ele>82.0</ele>
        <time>2019-05-17T14:32:13.168Z</time>
      </trkpt>
      <trkpt lat="39.52772" lon="-8.402465">
        <ele>82.0</ele>
        <time>2019-05-17T14:32:14.171Z</time>
      </trkpt>
      <trkpt lat="39.52772" lon="-8.402465">
        <ele>82.0</ele>
        <time>2019-05-17T14:32:15.168Z</time>
      </trkpt>
      <trkpt lat="39.52772" lon="-8.402465">
        <ele>82.0</ele>
        <time>2019-05-17T14:32:16.164Z</time>
      </trkpt>
      <trkpt lat="39.52773" lon="-8.40248">
        <ele>80.0</ele>
        <time>2019-05-17T14:32:17.168Z</time>
      </trkpt>
      <trkpt lat="39.52773" lon="-8.40248">
        <ele>80.0</ele>
        <time>2019-05-17T14:32:18.160Z</time>
      </trkpt>
      <trkpt lat="39.52776167" lon="-8.40246667">
        <ele>80.0</ele>
        <time>2019-05-17T14:32:19.150Z</time>
      </trkpt>
      <trkpt lat="39.527785" lon="-8.402455">
        <ele>80.0</ele>
        <time>2019-05-17T14:32:20.176Z</time>
      </trkpt>
      <trkpt lat="39.527785" lon="-8.402455">
        <ele>80.0</ele>
        <time>2019-05-17T14:32:21.164Z</time>
      </trkpt>
      <trkpt lat="39.52782667" lon="-8.402425">
        <ele>79.0</ele>
        <time>2019-05-17T14:32:22.170Z</time>
      </trkpt>
      <trkpt lat="39.52782667" lon="-8.402425">
        <ele>79.0</ele>
        <time>2019-05-17T14:32:23.164Z</time>
      </trkpt>
      <trkpt lat="39.527865" lon="-8.4024">
        <ele>79.0</ele>
        <time>2019-05-17T14:32:24.169Z</time>
      </trkpt>
      <trkpt lat="39.527865" lon="-8.4024">
        <ele>79.0</ele>
        <time>2019-05-17T14:32:25.164Z</time>
      </trkpt>
      <trkpt lat="39.52790333" lon="-8.40238">
        <ele>79.0</ele>
        <time>2019-05-17T14:32:26.175Z</time>
      </trkpt>
      <trkpt lat="39.52790333" lon="-8.40238">
        <ele>79.0</ele>
        <time>2019-05-17T14:32:27.182Z</time>
      </trkpt>
      <trkpt lat="39.52794167" lon="-8.40235667">
        <ele>79.0</ele>
        <time>2019-05-17T14:32:28.185Z</time>
      </trkpt>
      <trkpt lat="39.52794167" lon="-8.40235667">
        <ele>79.0</ele>
        <time>2019-05-17T14:32:29.156Z</time>
      </trkpt>
      <trkpt lat="39.52799" lon="-8.40233333">
        <ele>79.0</ele>
        <time>2019-05-17T14:32:30.151Z</time>
      </trkpt>
      <trkpt lat="39.528015" lon="-8.40232333">
        <ele>79.0</ele>
        <time>2019-05-17T14:32:31.155Z</time>
      </trkpt>
      <trkpt lat="39.52803833" lon="-8.40231167">
        <ele>79.0</ele>
        <time>2019-05-17T14:32:32.175Z</time>
      </trkpt>
      <trkpt lat="39.52803833" lon="-8.40231167">
        <ele>79.0</ele>
        <time>2019-05-17T14:32:33.156Z</time>
      </trkpt>
      <trkpt lat="39.528085" lon="-8.40228167">
        <ele>78.0</ele>
        <time>2019-05-17T14:32:34.152Z</time>
      </trkpt>
      <trkpt lat="39.528085" lon="-8.40228167">
        <ele>78.0</ele>
        <time>2019-05-17T14:32:35.166Z</time>
      </trkpt>
      <trkpt lat="39.52813667" lon="-8.40225333">
        <ele>78.0</ele>
        <time>2019-05-17T14:32:36.160Z</time>
      </trkpt>
      <trkpt lat="39.52813667" lon="-8.40225333">
        <ele>78.0</ele>
        <time>2019-05-17T14:32:37.174Z</time>
      </trkpt>
      <trkpt lat="39.52819167" lon="-8.40222333">
        <ele>78.0</ele>
        <time>2019-05-17T14:32:38.181Z</time>
      </trkpt>
      <trkpt lat="39.52819167" lon="-8.40222333">
        <ele>78.0</ele>
        <time>2019-05-17T14:32:39.165Z</time>
      </trkpt>
      <trkpt lat="39.52824833" lon="-8.40218833">
        <ele>78.0</ele>
        <time>2019-05-17T14:32:40.190Z</time>
      </trkpt>
      <trkpt lat="39.52827667" lon="-8.40217">
        <ele>78.0</ele>
        <time>2019-05-17T14:32:41.169Z</time>
      </trkpt>
      <trkpt lat="39.52830833" lon="-8.402155">
        <ele>78.0</ele>
        <time>2019-05-17T14:32:42.187Z</time>
      </trkpt>
      <trkpt lat="39.52830833" lon="-8.402155">
        <ele>78.0</ele>
        <time>2019-05-17T14:32:43.159Z</time>
      </trkpt>
      <trkpt lat="39.52837333" lon="-8.40212167">
        <ele>78.0</ele>
        <time>2019-05-17T14:32:44.175Z</time>
      </trkpt>
      <trkpt lat="39.52837333" lon="-8.40212167">
        <ele>78.0</ele>
        <time>2019-05-17T14:32:45.156Z</time>
      </trkpt>
      <trkpt lat="39.52844167" lon="-8.40208833">
        <ele>78.0</ele>
        <time>2019-05-17T14:32:46.182Z</time>
      </trkpt>
      <trkpt lat="39.52844167" lon="-8.40208833">
        <ele>78.0</ele>
        <time>2019-05-17T14:32:47.158Z</time>
      </trkpt>
      <trkpt lat="39.52851" lon="-8.40205667">
        <ele>78.0</ele>
        <time>2019-05-17T14:32:48.170Z</time>
      </trkpt>
      <trkpt lat="39.52854333" lon="-8.40204167">
        <ele>78.0</ele>
        <time>2019-05-17T14:32:49.169Z</time>
      </trkpt>
      <trkpt lat="39.52854333" lon="-8.40204167">
        <ele>78.0</ele>
        <time>2019-05-17T14:32:50.181Z</time>
      </trkpt>
      <trkpt lat="39.52861167" lon="-8.40201667">
        <ele>78.0</ele>
        <time>2019-05-17T14:32:51.168Z</time>
      </trkpt>
      <trkpt lat="39.52861167" lon="-8.40201667">
        <ele>78.0</ele>
        <time>2019-05-17T14:32:52.167Z</time>
      </trkpt>
      <trkpt lat="39.52868167" lon="-8.401995">
        <ele>78.0</ele>
        <time>2019-05-17T14:32:53.168Z</time>
      </trkpt>
      <trkpt lat="39.52868167" lon="-8.401995">
        <ele>78.0</ele>
        <time>2019-05-17T14:32:54.189Z</time>
      </trkpt>
      <trkpt lat="39.52875167" lon="-8.40198">
        <ele>78.0</ele>
        <time>2019-05-17T14:32:55.150Z</time>
      </trkpt>
      <trkpt lat="39.52879" lon="-8.401975">
        <ele>77.0</ele>
        <time>2019-05-17T14:32:56.174Z</time>
      </trkpt>
      <trkpt lat="39.52879" lon="-8.401975">
        <ele>77.0</ele>
        <time>2019-05-17T14:32:57.156Z</time>
      </trkpt>
      <trkpt lat="39.52886667" lon="-8.401965">
        <ele>77.0</ele>
        <time>2019-05-17T14:32:58.161Z</time>
      </trkpt>
      <trkpt lat="39.528905" lon="-8.40195667">
        <ele>77.0</ele>
        <time>2019-05-17T14:32:59.161Z</time>
      </trkpt>
      <trkpt lat="39.528905" lon="-8.40195667">
        <ele>77.0</ele>
        <time>2019-05-17T14:33:00.166Z</time>
      </trkpt>
      <trkpt lat="39.52898333" lon="-8.40194333">
        <ele>77.0</ele>
        <time>2019-05-17T14:33:01.163Z</time>
      </trkpt>
      <trkpt lat="39.52902333" lon="-8.401935">
        <ele>77.0</ele>
        <time>2019-05-17T14:33:02.185Z</time>
      </trkpt>
      <trkpt lat="39.52902333" lon="-8.401935">
        <ele>77.0</ele>
        <time>2019-05-17T14:33:03.152Z</time>
      </trkpt>
      <trkpt lat="39.52910667" lon="-8.40191">
        <ele>77.0</ele>
        <time>2019-05-17T14:33:04.155Z</time>
      </trkpt>
      <trkpt lat="39.52910667" lon="-8.40191">
        <ele>77.0</ele>
        <time>2019-05-17T14:33:05.180Z</time>
      </trkpt>
      <trkpt lat="39.529195" lon="-8.40188">
        <ele>77.0</ele>
        <time>2019-05-17T14:33:06.155Z</time>
      </trkpt>
      <trkpt lat="39.52923833" lon="-8.40186333">
        <ele>77.0</ele>
        <time>2019-05-17T14:33:07.193Z</time>
      </trkpt>
      <trkpt lat="39.52928333" lon="-8.40184833">
        <ele>77.0</ele>
        <time>2019-05-17T14:33:08.161Z</time>
      </trkpt>
      <trkpt lat="39.52928333" lon="-8.40184833">
        <ele>77.0</ele>
        <time>2019-05-17T14:33:09.158Z</time>
      </trkpt>
      <trkpt lat="39.52936667" lon="-8.401815">
        <ele>77.0</ele>
        <time>2019-05-17T14:33:10.181Z</time>
      </trkpt>
      <trkpt lat="39.52936667" lon="-8.401815">
        <ele>77.0</ele>
        <time>2019-05-17T14:33:11.188Z</time>
      </trkpt>
      <trkpt lat="39.52945" lon="-8.40178333">
        <ele>77.0</ele>
        <time>2019-05-17T14:33:12.194Z</time>
      </trkpt>
      <trkpt lat="39.52945" lon="-8.40178333">
        <ele>77.0</ele>
        <time>2019-05-17T14:33:13.171Z</time>
      </trkpt>
      <trkpt lat="39.52952833" lon="-8.40175167">
        <ele>77.0</ele>
        <time>2019-05-17T14:33:14.166Z</time>
      </trkpt>
      <trkpt lat="39.52952833" lon="-8.40175167">
        <ele>77.0</ele>
        <time>2019-05-17T14:33:15.177Z</time>
      </trkpt>
      <trkpt lat="39.52960333" lon="-8.40172333">
        <ele>77.0</ele>
        <time>2019-05-17T14:33:16.189Z</time>
      </trkpt>
      <trkpt lat="39.52960333" lon="-8.40172333">
        <ele>77.0</ele>
        <time>2019-05-17T14:33:17.156Z</time>
      </trkpt>
      <trkpt lat="39.52967333" lon="-8.40169167">
        <ele>77.0</ele>
        <time>2019-05-17T14:33:18.167Z</time>
      </trkpt>
      <trkpt lat="39.52967333" lon="-8.40169167">
        <ele>77.0</ele>
        <time>2019-05-17T14:33:19.155Z</time>
      </trkpt>
      <trkpt lat="39.52974167" lon="-8.40165833">
        <ele>77.0</ele>
        <time>2019-05-17T14:33:20.184Z</time>
      </trkpt>
      <trkpt lat="39.52974167" lon="-8.40165833">
        <ele>77.0</ele>
        <time>2019-05-17T14:33:21.157Z</time>
      </trkpt>
      <trkpt lat="39.52980667" lon="-8.401625">
        <ele>78.0</ele>
        <time>2019-05-17T14:33:22.155Z</time>
      </trkpt>
      <trkpt lat="39.52980667" lon="-8.401625">
        <ele>78.0</ele>
        <time>2019-05-17T14:33:23.177Z</time>
      </trkpt>
      <trkpt lat="39.52986667" lon="-8.40159667">
        <ele>78.0</ele>
        <time>2019-05-17T14:33:24.166Z</time>
      </trkpt>
      <trkpt lat="39.52986667" lon="-8.40159667">
        <ele>78.0</ele>
        <time>2019-05-17T14:33:25.169Z</time>
      </trkpt>
      <trkpt lat="39.529925" lon="-8.40156">
        <ele>78.0</ele>
        <time>2019-05-17T14:33:26.153Z</time>
      </trkpt>
      <trkpt lat="39.529925" lon="-8.40156">
        <ele>78.0</ele>
        <time>2019-05-17T14:33:27.167Z</time>
      </trkpt>
      <trkpt lat="39.52998167" lon="-8.40151833">
        <ele>78.0</ele>
        <time>2019-05-17T14:33:28.151Z</time>
      </trkpt>
      <trkpt lat="39.53001" lon="-8.40150333">
        <ele>78.0</ele>
        <time>2019-05-17T14:33:29.195Z</time>
      </trkpt>
      <trkpt lat="39.53001" lon="-8.40150333">
        <ele>78.0</ele>
        <time>2019-05-17T14:33:30.173Z</time>
      </trkpt>
      <trkpt lat="39.53006333" lon="-8.40147">
        <ele>78.0</ele>
        <time>2019-05-17T14:33:31.163Z</time>
      </trkpt>
      <trkpt lat="39.53008833" lon="-8.40145167">
        <ele>79.0</ele>
        <time>2019-05-17T14:33:32.171Z</time>
      </trkpt>
      <trkpt lat="39.53008833" lon="-8.40145167">
        <ele>79.0</ele>
        <time>2019-05-17T14:33:33.169Z</time>
      </trkpt>
      <trkpt lat="39.53013833" lon="-8.40141167">
        <ele>79.0</ele>
        <time>2019-05-17T14:33:34.155Z</time>
      </trkpt>
      <trkpt lat="39.53013833" lon="-8.40141167">
        <ele>79.0</ele>
        <time>2019-05-17T14:33:35.167Z</time>
      </trkpt>
      <trkpt lat="39.53019167" lon="-8.40137333">
        <ele>79.0</ele>
        <time>2019-05-17T14:33:36.173Z</time>
      </trkpt>
      <trkpt lat="39.53019167" lon="-8.40137333">
        <ele>79.0</ele>
        <time>2019-05-17T14:33:37.160Z</time>
      </trkpt>
      <trkpt lat="39.53024833" lon="-8.401335">
        <ele>79.0</ele>
        <time>2019-05-17T14:33:38.152Z</time>
      </trkpt>
      <trkpt lat="39.53024833" lon="-8.401335">
        <ele>79.0</ele>
        <time>2019-05-17T14:33:39.166Z</time>
      </trkpt>
      <trkpt lat="39.53030333" lon="-8.40129667">
        <ele>79.0</ele>
        <time>2019-05-17T14:33:40.172Z</time>
      </trkpt>
      <trkpt lat="39.53030333" lon="-8.40129667">
        <ele>79.0</ele>
        <time>2019-05-17T14:33:41.183Z</time>
      </trkpt>
      <trkpt lat="39.530365" lon="-8.401265">
        <ele>79.0</ele>
        <time>2019-05-17T14:33:42.189Z</time>
      </trkpt>
      <trkpt lat="39.530365" lon="-8.401265">
        <ele>79.0</ele>
        <time>2019-05-17T14:33:43.158Z</time>
      </trkpt>
      <trkpt lat="39.53042667" lon="-8.40123333">
        <ele>79.0</ele>
        <time>2019-05-17T14:33:44.189Z</time>
      </trkpt>
      <trkpt lat="39.53042667" lon="-8.40123333">
        <ele>79.0</ele>
        <time>2019-05-17T14:33:45.185Z</time>
      </trkpt>
      <trkpt lat="39.53049167" lon="-8.40120667">
        <ele>78.0</ele>
        <time>2019-05-17T14:33:46.150Z</time>
      </trkpt>
      <trkpt lat="39.53049167" lon="-8.40120667">
        <ele>78.0</ele>
        <time>2019-05-17T14:33:47.162Z</time>
      </trkpt>
      <trkpt lat="39.53056167" lon="-8.40117833">
        <ele>78.0</ele>
        <time>2019-05-17T14:33:48.172Z</time>
      </trkpt>
      <trkpt lat="39.53056167" lon="-8.40117833">
        <ele>78.0</ele>
        <time>2019-05-17T14:33:49.177Z</time>
      </trkpt>
      <trkpt lat="39.53063833" lon="-8.401145">
        <ele>78.0</ele>
        <time>2019-05-17T14:33:50.195Z</time>
      </trkpt>
      <trkpt lat="39.53063833" lon="-8.401145">
        <ele>78.0</ele>
        <time>2019-05-17T14:33:51.162Z</time>
      </trkpt>
      <trkpt lat="39.53071833" lon="-8.401115">
        <ele>78.0</ele>
        <time>2019-05-17T14:33:52.160Z</time>
      </trkpt>
      <trkpt lat="39.53071833" lon="-8.401115">
        <ele>78.0</ele>
        <time>2019-05-17T14:33:53.186Z</time>
      </trkpt>
      <trkpt lat="39.5308" lon="-8.40109">
        <ele>77.0</ele>
        <time>2019-05-17T14:33:54.190Z</time>
      </trkpt>
      <trkpt lat="39.53084" lon="-8.40107833">
        <ele>77.0</ele>
        <time>2019-05-17T14:33:55.159Z</time>
      </trkpt>
      <trkpt lat="39.53088167" lon="-8.40106833">
        <ele>77.0</ele>
        <time>2019-05-17T14:33:56.165Z</time>
      </trkpt>
      <trkpt lat="39.53088167" lon="-8.40106833">
        <ele>77.0</ele>
        <time>2019-05-17T14:33:57.169Z</time>
      </trkpt>
      <trkpt lat="39.53096" lon="-8.401045">
        <ele>77.0</ele>
        <time>2019-05-17T14:33:58.176Z</time>
      </trkpt>
      <trkpt lat="39.53099667" lon="-8.40103167">
        <ele>77.0</ele>
        <time>2019-05-17T14:33:59.160Z</time>
      </trkpt>
      <trkpt lat="39.53099667" lon="-8.40103167">
        <ele>77.0</ele>
        <time>2019-05-17T14:34:00.182Z</time>
      </trkpt>
      <trkpt lat="39.53106167" lon="-8.40101667">
        <ele>77.0</ele>
        <time>2019-05-17T14:34:01.171Z</time>
      </trkpt>
      <trkpt lat="39.53109" lon="-8.40101167">
        <ele>77.0</ele>
        <time>2019-05-17T14:34:02.185Z</time>
      </trkpt>
      <trkpt lat="39.53109" lon="-8.40101167">
        <ele>77.0</ele>
        <time>2019-05-17T14:34:03.171Z</time>
      </trkpt>
      <trkpt lat="39.53114667" lon="-8.40100333">
        <ele>77.0</ele>
        <time>2019-05-17T14:34:04.175Z</time>
      </trkpt>
      <trkpt lat="39.53114667" lon="-8.40100333">
        <ele>77.0</ele>
        <time>2019-05-17T14:34:05.182Z</time>
      </trkpt>
      <trkpt lat="39.53120333" lon="-8.40099167">
        <ele>77.0</ele>
        <time>2019-05-17T14:34:06.172Z</time>
      </trkpt>
      <trkpt lat="39.53120333" lon="-8.40099167">
        <ele>77.0</ele>
        <time>2019-05-17T14:34:07.188Z</time>
      </trkpt>
      <trkpt lat="39.53126333" lon="-8.40097833">
        <ele>77.0</ele>
        <time>2019-05-17T14:34:08.192Z</time>
      </trkpt>
      <trkpt lat="39.53126333" lon="-8.40097833">
        <ele>77.0</ele>
        <time>2019-05-17T14:34:09.179Z</time>
      </trkpt>
      <trkpt lat="39.53132667" lon="-8.400965">
        <ele>77.0</ele>
        <time>2019-05-17T14:34:10.184Z</time>
      </trkpt>
      <trkpt lat="39.53136" lon="-8.40096">
        <ele>77.0</ele>
        <time>2019-05-17T14:34:11.155Z</time>
      </trkpt>
      <trkpt lat="39.53136" lon="-8.40096">
        <ele>77.0</ele>
        <time>2019-05-17T14:34:12.156Z</time>
      </trkpt>
      <trkpt lat="39.53142833" lon="-8.40095">
        <ele>76.0</ele>
        <time>2019-05-17T14:34:13.185Z</time>
      </trkpt>
      <trkpt lat="39.53146333" lon="-8.400945">
        <ele>76.0</ele>
        <time>2019-05-17T14:34:14.160Z</time>
      </trkpt>
      <trkpt lat="39.53146333" lon="-8.400945">
        <ele>76.0</ele>
        <time>2019-05-17T14:34:15.165Z</time>
      </trkpt>
      <trkpt lat="39.53154167" lon="-8.40093167">
        <ele>76.0</ele>
        <time>2019-05-17T14:34:16.156Z</time>
      </trkpt>
      <trkpt lat="39.53154167" lon="-8.40093167">
        <ele>76.0</ele>
        <time>2019-05-17T14:34:17.188Z</time>
      </trkpt>
      <trkpt lat="39.53163" lon="-8.40091">
        <ele>75.0</ele>
        <time>2019-05-17T14:34:18.158Z</time>
      </trkpt>
      <trkpt lat="39.53167833" lon="-8.40089">
        <ele>75.0</ele>
        <time>2019-05-17T14:34:19.164Z</time>
      </trkpt>
      <trkpt lat="39.53173" lon="-8.40086167">
        <ele>74.0</ele>
        <time>2019-05-17T14:34:20.165Z</time>
      </trkpt>
      <trkpt lat="39.53173" lon="-8.40086167">
        <ele>74.0</ele>
        <time>2019-05-17T14:34:21.173Z</time>
      </trkpt>
      <trkpt lat="39.53183667" lon="-8.40078333">
        <ele>73.0</ele>
        <time>2019-05-17T14:34:22.168Z</time>
      </trkpt>
      <trkpt lat="39.53183667" lon="-8.40078333">
        <ele>73.0</ele>
        <time>2019-05-17T14:34:23.163Z</time>
      </trkpt>
      <trkpt lat="39.53194333" lon="-8.40068667">
        <ele>72.0</ele>
        <time>2019-05-17T14:34:24.188Z</time>
      </trkpt>
      <trkpt lat="39.532" lon="-8.40063">
        <ele>72.0</ele>
        <time>2019-05-17T14:34:25.153Z</time>
      </trkpt>
      <trkpt lat="39.53205667" lon="-8.40057167">
        <ele>71.0</ele>
        <time>2019-05-17T14:34:26.172Z</time>
      </trkpt>
      <trkpt lat="39.53205667" lon="-8.40057167">
        <ele>71.0</ele>
        <time>2019-05-17T14:34:27.154Z</time>
      </trkpt>
      <trkpt lat="39.53217833" lon="-8.400445">
        <ele>70.0</ele>
        <time>2019-05-17T14:34:28.159Z</time>
      </trkpt>
      <trkpt lat="39.53217833" lon="-8.400445">
        <ele>70.0</ele>
        <time>2019-05-17T14:34:29.175Z</time>
      </trkpt>
      <trkpt lat="39.53230167" lon="-8.40032">
        <ele>69.0</ele>
        <time>2019-05-17T14:34:30.167Z</time>
      </trkpt>
      <trkpt lat="39.53230167" lon="-8.40032">
        <ele>69.0</ele>
        <time>2019-05-17T14:34:31.172Z</time>
      </trkpt>
      <trkpt lat="39.53243333" lon="-8.400225">
        <ele>68.0</ele>
        <time>2019-05-17T14:34:32.183Z</time>
      </trkpt>
      <trkpt lat="39.53243333" lon="-8.400225">
        <ele>68.0</ele>
        <time>2019-05-17T14:34:33.188Z</time>
      </trkpt>
      <trkpt lat="39.53258667" lon="-8.40014">
        <ele>66.0</ele>
        <time>2019-05-17T14:34:34.185Z</time>
      </trkpt>
      <trkpt lat="39.53266333" lon="-8.40009667">
        <ele>66.0</ele>
        <time>2019-05-17T14:34:35.175Z</time>
      </trkpt>
      <trkpt lat="39.53266333" lon="-8.40009667">
        <ele>66.0</ele>
        <time>2019-05-17T14:34:36.159Z</time>
      </trkpt>
      <trkpt lat="39.532825" lon="-8.40000333">
        <ele>65.0</ele>
        <time>2019-05-17T14:34:37.150Z</time>
      </trkpt>
      <trkpt lat="39.532825" lon="-8.40000333">
        <ele>65.0</ele>
        <time>2019-05-17T14:34:38.170Z</time>
      </trkpt>
      <trkpt lat="39.53299333" lon="-8.39991667">
        <ele>64.0</ele>
        <time>2019-05-17T14:34:39.186Z</time>
      </trkpt>
      <trkpt lat="39.53307833" lon="-8.39987833">
        <ele>64.0</ele>
        <time>2019-05-17T14:34:40.165Z</time>
      </trkpt>
      <trkpt lat="39.53307833" lon="-8.39987833">
        <ele>64.0</ele>
        <time>2019-05-17T14:34:41.178Z</time>
      </trkpt>
      <trkpt lat="39.53324167" lon="-8.399815">
        <ele>64.0</ele>
        <time>2019-05-17T14:34:42.185Z</time>
      </trkpt>
      <trkpt lat="39.53324167" lon="-8.399815">
        <ele>64.0</ele>
        <time>2019-05-17T14:34:43.167Z</time>
      </trkpt>
      <trkpt lat="39.53339167" lon="-8.39979167">
        <ele>64.0</ele>
        <time>2019-05-17T14:34:44.173Z</time>
      </trkpt>
      <trkpt lat="39.53339167" lon="-8.39979167">
        <ele>64.0</ele>
        <time>2019-05-17T14:34:45.158Z</time>
      </trkpt>
      <trkpt lat="39.533515" lon="-8.399805">
        <ele>64.0</ele>
        <time>2019-05-17T14:34:46.150Z</time>
      </trkpt>
      <trkpt lat="39.533515" lon="-8.399805">
        <ele>64.0</ele>
        <time>2019-05-17T14:34:47.159Z</time>
      </trkpt>
      <trkpt lat="39.53361" lon="-8.39982167">
        <ele>65.0</ele>
        <time>2019-05-17T14:34:48.153Z</time>
      </trkpt>
      <trkpt lat="39.53361" lon="-8.39982167">
        <ele>65.0</ele>
        <time>2019-05-17T14:34:49.187Z</time>
      </trkpt>
      <trkpt lat="39.53368667" lon="-8.39985167">
        <ele>65.0</ele>
        <time>2019-05-17T14:34:50.189Z</time>
      </trkpt>
      <trkpt lat="39.53368667" lon="-8.39985167">
        <ele>65.0</ele>
        <time>2019-05-17T14:34:51.181Z</time>
      </trkpt>
      <trkpt lat="39.53375333" lon="-8.39988">
        <ele>65.0</ele>
        <time>2019-05-17T14:34:52.182Z</time>
      </trkpt>
      <trkpt lat="39.53378333" lon="-8.39988833">
        <ele>65.0</ele>
        <time>2019-05-17T14:34:53.151Z</time>
      </trkpt>
      <trkpt lat="39.53378333" lon="-8.39988833">
        <ele>65.0</ele>
        <time>2019-05-17T14:34:54.165Z</time>
      </trkpt>
      <trkpt lat="39.53383833" lon="-8.399885">
        <ele>65.0</ele>
        <time>2019-05-17T14:34:55.185Z</time>
      </trkpt>
      <trkpt lat="39.53386167" lon="-8.39988167">
        <ele>66.0</ele>
        <time>2019-05-17T14:34:56.169Z</time>
      </trkpt>
      <trkpt lat="39.53386167" lon="-8.39988167">
        <ele>66.0</ele>
        <time>2019-05-17T14:34:57.164Z</time>
      </trkpt>
      <trkpt lat="39.533895" lon="-8.39987833">
        <ele>66.0</ele>
        <time>2019-05-17T14:34:58.180Z</time>
      </trkpt>
      <trkpt lat="39.533895" lon="-8.39987833">
        <ele>66.0</ele>
        <time>2019-05-17T14:34:59.156Z</time>
      </trkpt>
      <trkpt lat="39.53392667" lon="-8.399875">
        <ele>66.0</ele>
        <time>2019-05-17T14:35:00.163Z</time>
      </trkpt>
      <trkpt lat="39.53392667" lon="-8.399875">
        <ele>66.0</ele>
        <time>2019-05-17T14:35:01.168Z</time>
      </trkpt>
      <trkpt lat="39.53397" lon="-8.39986167">
        <ele>66.0</ele>
        <time>2019-05-17T14:35:02.154Z</time>
      </trkpt>
      <trkpt lat="39.53397" lon="-8.39986167">
        <ele>66.0</ele>
        <time>2019-05-17T14:35:03.156Z</time>
      </trkpt>
      <trkpt lat="39.53401167" lon="-8.39983667">
        <ele>66.0</ele>
        <time>2019-05-17T14:35:04.152Z</time>
      </trkpt>
      <trkpt lat="39.53403167" lon="-8.39982333">
        <ele>66.0</ele>
        <time>2019-05-17T14:35:05.156Z</time>
      </trkpt>
      <trkpt lat="39.53403167" lon="-8.39982333">
        <ele>66.0</ele>
        <time>2019-05-17T14:35:06.158Z</time>
      </trkpt>
      <trkpt lat="39.53407667" lon="-8.39979333">
        <ele>66.0</ele>
        <time>2019-05-17T14:35:07.151Z</time>
      </trkpt>
      <trkpt lat="39.5341" lon="-8.39977167">
        <ele>66.0</ele>
        <time>2019-05-17T14:35:08.183Z</time>
      </trkpt>
      <trkpt lat="39.5341" lon="-8.39977167">
        <ele>66.0</ele>
        <time>2019-05-17T14:35:09.153Z</time>
      </trkpt>
      <trkpt lat="39.53415" lon="-8.39972333">
        <ele>66.0</ele>
        <time>2019-05-17T14:35:10.168Z</time>
      </trkpt>
      <trkpt lat="39.53415" lon="-8.39972333">
        <ele>66.0</ele>
        <time>2019-05-17T14:35:11.173Z</time>
      </trkpt>
      <trkpt lat="39.53420333" lon="-8.39966333">
        <ele>66.0</ele>
        <time>2019-05-17T14:35:12.171Z</time>
      </trkpt>
      <trkpt lat="39.53423" lon="-8.39963333">
        <ele>66.0</ele>
        <time>2019-05-17T14:35:13.174Z</time>
      </trkpt>
      <trkpt lat="39.53425833" lon="-8.39960167">
        <ele>66.0</ele>
        <time>2019-05-17T14:35:14.177Z</time>
      </trkpt>
      <trkpt lat="39.53425833" lon="-8.39960167">
        <ele>66.0</ele>
        <time>2019-05-17T14:35:15.182Z</time>
      </trkpt>
      <trkpt lat="39.53431333" lon="-8.39954333">
        <ele>66.0</ele>
        <time>2019-05-17T14:35:16.179Z</time>
      </trkpt>
      <trkpt lat="39.53431333" lon="-8.39954333">
        <ele>66.0</ele>
        <time>2019-05-17T14:35:17.156Z</time>
      </trkpt>
      <trkpt lat="39.53436833" lon="-8.39948333">
        <ele>66.0</ele>
        <time>2019-05-17T14:35:18.189Z</time>
      </trkpt>
      <trkpt lat="39.53436833" lon="-8.39948333">
        <ele>66.0</ele>
        <time>2019-05-17T14:35:19.163Z</time>
      </trkpt>
      <trkpt lat="39.53442333" lon="-8.399425">
        <ele>66.0</ele>
        <time>2019-05-17T14:35:20.187Z</time>
      </trkpt>
      <trkpt lat="39.53442333" lon="-8.399425">
        <ele>66.0</ele>
        <time>2019-05-17T14:35:21.152Z</time>
      </trkpt>
      <trkpt lat="39.53448" lon="-8.39936167">
        <ele>66.0</ele>
        <time>2019-05-17T14:35:22.167Z</time>
      </trkpt>
      <trkpt lat="39.53448" lon="-8.39936167">
        <ele>66.0</ele>
        <time>2019-05-17T14:35:23.188Z</time>
      </trkpt>
      <trkpt lat="39.534535" lon="-8.39929667">
        <ele>66.0</ele>
        <time>2019-05-17T14:35:24.187Z</time>
      </trkpt>
      <trkpt lat="39.534535" lon="-8.39929667">
        <ele>66.0</ele>
        <time>2019-05-17T14:35:25.169Z</time>
      </trkpt>
      <trkpt lat="39.53459" lon="-8.399235">
        <ele>66.0</ele>
        <time>2019-05-17T14:35:26.175Z</time>
      </trkpt>
      <trkpt lat="39.53459" lon="-8.399235">
        <ele>66.0</ele>
        <time>2019-05-17T14:35:27.174Z</time>
      </trkpt>
      <trkpt lat="39.53464667" lon="-8.39917333">
        <ele>66.0</ele>
        <time>2019-05-17T14:35:28.168Z</time>
      </trkpt>
      <trkpt lat="39.53464667" lon="-8.39917333">
        <ele>66.0</ele>
        <time>2019-05-17T14:35:29.185Z</time>
      </trkpt>
      <trkpt lat="39.5347" lon="-8.39911167">
        <ele>66.0</ele>
        <time>2019-05-17T14:35:30.157Z</time>
      </trkpt>
      <trkpt lat="39.5347" lon="-8.39911167">
        <ele>66.0</ele>
        <time>2019-05-17T14:35:31.156Z</time>
      </trkpt>
      <trkpt lat="39.53475333" lon="-8.39904833">
        <ele>66.0</ele>
        <time>2019-05-17T14:35:32.194Z</time>
      </trkpt>
      <trkpt lat="39.53475333" lon="-8.39904833">
        <ele>66.0</ele>
        <time>2019-05-17T14:35:33.175Z</time>
      </trkpt>
      <trkpt lat="39.53480833" lon="-8.39898833">
        <ele>66.0</ele>
        <time>2019-05-17T14:35:34.165Z</time>
      </trkpt>
      <trkpt lat="39.53480833" lon="-8.39898833">
        <ele>66.0</ele>
        <time>2019-05-17T14:35:35.174Z</time>
      </trkpt>
      <trkpt lat="39.53486167" lon="-8.39893167">
        <ele>66.0</ele>
        <time>2019-05-17T14:35:36.166Z</time>
      </trkpt>
      <trkpt lat="39.53486167" lon="-8.39893167">
        <ele>66.0</ele>
        <time>2019-05-17T14:35:37.187Z</time>
      </trkpt>
      <trkpt lat="39.53491667" lon="-8.39887667">
        <ele>66.0</ele>
        <time>2019-05-17T14:35:38.170Z</time>
      </trkpt>
      <trkpt lat="39.53491667" lon="-8.39887667">
        <ele>66.0</ele>
        <time>2019-05-17T14:35:39.156Z</time>
      </trkpt>
      <trkpt lat="39.53496833" lon="-8.39882333">
        <ele>66.0</ele>
        <time>2019-05-17T14:35:40.195Z</time>
      </trkpt>
      <trkpt lat="39.53496833" lon="-8.39882333">
        <ele>66.0</ele>
        <time>2019-05-17T14:35:41.169Z</time>
      </trkpt>
      <trkpt lat="39.53501667" lon="-8.39877">
        <ele>66.0</ele>
        <time>2019-05-17T14:35:42.157Z</time>
      </trkpt>
      <trkpt lat="39.53501667" lon="-8.39877">
        <ele>66.0</ele>
        <time>2019-05-17T14:35:43.178Z</time>
      </trkpt>
      <trkpt lat="39.53506833" lon="-8.39872">
        <ele>66.0</ele>
        <time>2019-05-17T14:35:44.164Z</time>
      </trkpt>
      <trkpt lat="39.53506833" lon="-8.39872">
        <ele>66.0</ele>
        <time>2019-05-17T14:35:45.178Z</time>
      </trkpt>
      <trkpt lat="39.53511833" lon="-8.39866833">
        <ele>67.0</ele>
        <time>2019-05-17T14:35:46.184Z</time>
      </trkpt>
      <trkpt lat="39.53511833" lon="-8.39866833">
        <ele>67.0</ele>
        <time>2019-05-17T14:35:47.158Z</time>
      </trkpt>
      <trkpt lat="39.53517167" lon="-8.39861667">
        <ele>67.0</ele>
        <time>2019-05-17T14:35:48.163Z</time>
      </trkpt>
      <trkpt lat="39.53517167" lon="-8.39861667">
        <ele>67.0</ele>
        <time>2019-05-17T14:35:49.155Z</time>
      </trkpt>
      <trkpt lat="39.53522333" lon="-8.39856667">
        <ele>67.0</ele>
        <time>2019-05-17T14:35:50.185Z</time>
      </trkpt>
      <trkpt lat="39.53522333" lon="-8.39856667">
        <ele>67.0</ele>
        <time>2019-05-17T14:35:51.169Z</time>
      </trkpt>
      <trkpt lat="39.53527667" lon="-8.39852">
        <ele>67.0</ele>
        <time>2019-05-17T14:35:52.189Z</time>
      </trkpt>
      <trkpt lat="39.53527667" lon="-8.39852">
        <ele>67.0</ele>
        <time>2019-05-17T14:35:53.168Z</time>
      </trkpt>
      <trkpt lat="39.53533167" lon="-8.39847">
        <ele>67.0</ele>
        <time>2019-05-17T14:35:54.165Z</time>
      </trkpt>
      <trkpt lat="39.53535833" lon="-8.398445">
        <ele>67.0</ele>
        <time>2019-05-17T14:35:55.154Z</time>
      </trkpt>
      <trkpt lat="39.535385" lon="-8.39842">
        <ele>67.0</ele>
        <time>2019-05-17T14:35:56.175Z</time>
      </trkpt>
      <trkpt lat="39.535385" lon="-8.39842">
        <ele>67.0</ele>
        <time>2019-05-17T14:35:57.159Z</time>
      </trkpt>
      <trkpt lat="39.53544167" lon="-8.39837167">
        <ele>67.0</ele>
        <time>2019-05-17T14:35:58.151Z</time>
      </trkpt>
      <trkpt lat="39.53544167" lon="-8.39837167">
        <ele>67.0</ele>
        <time>2019-05-17T14:35:59.173Z</time>
      </trkpt>
      <trkpt lat="39.53549833" lon="-8.39832167">
        <ele>67.0</ele>
        <time>2019-05-17T14:36:00.167Z</time>
      </trkpt>
      <trkpt lat="39.53552667" lon="-8.39829667">
        <ele>67.0</ele>
        <time>2019-05-17T14:36:01.152Z</time>
      </trkpt>
      <trkpt lat="39.53555667" lon="-8.39827167">
        <ele>67.0</ele>
        <time>2019-05-17T14:36:02.182Z</time>
      </trkpt>
      <trkpt lat="39.53555667" lon="-8.39827167">
        <ele>67.0</ele>
        <time>2019-05-17T14:36:03.158Z</time>
      </trkpt>
      <trkpt lat="39.53561333" lon="-8.39822667">
        <ele>67.0</ele>
        <time>2019-05-17T14:36:04.153Z</time>
      </trkpt>
      <trkpt lat="39.53561333" lon="-8.39822667">
        <ele>67.0</ele>
        <time>2019-05-17T14:36:05.171Z</time>
      </trkpt>
      <trkpt lat="39.53566833" lon="-8.39818333">
        <ele>67.0</ele>
        <time>2019-05-17T14:36:06.171Z</time>
      </trkpt>
      <trkpt lat="39.53569833" lon="-8.39816333">
        <ele>67.0</ele>
        <time>2019-05-17T14:36:07.194Z</time>
      </trkpt>
      <trkpt lat="39.53569833" lon="-8.39816333">
        <ele>67.0</ele>
        <time>2019-05-17T14:36:08.155Z</time>
      </trkpt>
      <trkpt lat="39.535755" lon="-8.39812">
        <ele>67.0</ele>
        <time>2019-05-17T14:36:09.153Z</time>
      </trkpt>
      <trkpt lat="39.535755" lon="-8.39812">
        <ele>67.0</ele>
        <time>2019-05-17T14:36:10.177Z</time>
      </trkpt>
      <trkpt lat="39.535815" lon="-8.39807333">
        <ele>68.0</ele>
        <time>2019-05-17T14:36:11.185Z</time>
      </trkpt>
      <trkpt lat="39.535815" lon="-8.39807333">
        <ele>68.0</ele>
        <time>2019-05-17T14:36:12.158Z</time>
      </trkpt>
      <trkpt lat="39.535875" lon="-8.39802667">
        <ele>67.0</ele>
        <time>2019-05-17T14:36:13.165Z</time>
      </trkpt>
      <trkpt lat="39.535905" lon="-8.398005">
        <ele>68.0</ele>
        <time>2019-05-17T14:36:14.162Z</time>
      </trkpt>
      <trkpt lat="39.535905" lon="-8.398005">
        <ele>68.0</ele>
        <time>2019-05-17T14:36:15.188Z</time>
      </trkpt>
      <trkpt lat="39.53596667" lon="-8.39796167">
        <ele>68.0</ele>
        <time>2019-05-17T14:36:16.182Z</time>
      </trkpt>
      <trkpt lat="39.53599667" lon="-8.39793833">
        <ele>68.0</ele>
        <time>2019-05-17T14:36:17.168Z</time>
      </trkpt>
      <trkpt lat="39.53599667" lon="-8.39793833">
        <ele>68.0</ele>
        <time>2019-05-17T14:36:18.169Z</time>
      </trkpt>
      <trkpt lat="39.53605667" lon="-8.39789833">
        <ele>68.0</ele>
        <time>2019-05-17T14:36:19.182Z</time>
      </trkpt>
      <trkpt lat="39.53608833" lon="-8.39787667">
        <ele>68.0</ele>
        <time>2019-05-17T14:36:20.183Z</time>
      </trkpt>
      <trkpt lat="39.53608833" lon="-8.39787667">
        <ele>68.0</ele>
        <time>2019-05-17T14:36:21.167Z</time>
      </trkpt>
      <trkpt lat="39.53615" lon="-8.39783667">
        <ele>68.0</ele>
        <time>2019-05-17T14:36:22.162Z</time>
      </trkpt>
      <trkpt lat="39.53615" lon="-8.39783667">
        <ele>68.0</ele>
        <time>2019-05-17T14:36:23.172Z</time>
      </trkpt>
      <trkpt lat="39.53621" lon="-8.39779833">
        <ele>68.0</ele>
        <time>2019-05-17T14:36:24.156Z</time>
      </trkpt>
      <trkpt lat="39.53621" lon="-8.39779833">
        <ele>68.0</ele>
        <time>2019-05-17T14:36:25.171Z</time>
      </trkpt>
      <trkpt lat="39.53626833" lon="-8.39776167">
        <ele>68.0</ele>
        <time>2019-05-17T14:36:26.175Z</time>
      </trkpt>
      <trkpt lat="39.53626833" lon="-8.39776167">
        <ele>68.0</ele>
        <time>2019-05-17T14:36:27.156Z</time>
      </trkpt>
      <trkpt lat="39.53632833" lon="-8.39772">
        <ele>68.0</ele>
        <time>2019-05-17T14:36:28.188Z</time>
      </trkpt>
      <trkpt lat="39.53632833" lon="-8.39772">
        <ele>68.0</ele>
        <time>2019-05-17T14:36:29.178Z</time>
      </trkpt>
      <trkpt lat="39.53638833" lon="-8.39768">
        <ele>68.0</ele>
        <time>2019-05-17T14:36:30.151Z</time>
      </trkpt>
      <trkpt lat="39.53638833" lon="-8.39768">
        <ele>68.0</ele>
        <time>2019-05-17T14:36:31.167Z</time>
      </trkpt>
      <trkpt lat="39.53644667" lon="-8.39764333">
        <ele>68.0</ele>
        <time>2019-05-17T14:36:32.178Z</time>
      </trkpt>
      <trkpt lat="39.53644667" lon="-8.39764333">
        <ele>68.0</ele>
        <time>2019-05-17T14:36:33.178Z</time>
      </trkpt>
      <trkpt lat="39.536505" lon="-8.39760667">
        <ele>68.0</ele>
        <time>2019-05-17T14:36:34.171Z</time>
      </trkpt>
      <trkpt lat="39.536535" lon="-8.39759">
        <ele>68.0</ele>
        <time>2019-05-17T14:36:35.170Z</time>
      </trkpt>
      <trkpt lat="39.536535" lon="-8.39759">
        <ele>68.0</ele>
        <time>2019-05-17T14:36:36.186Z</time>
      </trkpt>
      <trkpt lat="39.53659333" lon="-8.39755333">
        <ele>68.0</ele>
        <time>2019-05-17T14:36:37.161Z</time>
      </trkpt>
      <trkpt lat="39.53662333" lon="-8.39753333">
        <ele>68.0</ele>
        <time>2019-05-17T14:36:38.166Z</time>
      </trkpt>
      <trkpt lat="39.53662333" lon="-8.39753333">
        <ele>68.0</ele>
        <time>2019-05-17T14:36:39.171Z</time>
      </trkpt>
      <trkpt lat="39.536685" lon="-8.39750167">
        <ele>68.0</ele>
        <time>2019-05-17T14:36:40.164Z</time>
      </trkpt>
      <trkpt lat="39.536685" lon="-8.39750167">
        <ele>68.0</ele>
        <time>2019-05-17T14:36:41.183Z</time>
      </trkpt>
      <trkpt lat="39.53674667" lon="-8.39747167">
        <ele>68.0</ele>
        <time>2019-05-17T14:36:42.155Z</time>
      </trkpt>
      <trkpt lat="39.53677833" lon="-8.39745667">
        <ele>68.0</ele>
        <time>2019-05-17T14:36:43.155Z</time>
      </trkpt>
      <trkpt lat="39.53680833" lon="-8.39744167">
        <ele>68.0</ele>
        <time>2019-05-17T14:36:44.179Z</time>
      </trkpt>
      <trkpt lat="39.53680833" lon="-8.39744167">
        <ele>68.0</ele>
        <time>2019-05-17T14:36:45.184Z</time>
      </trkpt>
      <trkpt lat="39.53686833" lon="-8.39741">
        <ele>68.0</ele>
        <time>2019-05-17T14:36:46.174Z</time>
      </trkpt>
      <trkpt lat="39.53686833" lon="-8.39741">
        <ele>68.0</ele>
        <time>2019-05-17T14:36:47.165Z</time>
      </trkpt>
      <trkpt lat="39.53692833" lon="-8.39738">
        <ele>68.0</ele>
        <time>2019-05-17T14:36:48.167Z</time>
      </trkpt>
      <trkpt lat="39.53692833" lon="-8.39738">
        <ele>68.0</ele>
        <time>2019-05-17T14:36:49.156Z</time>
      </trkpt>
      <trkpt lat="39.53699167" lon="-8.39735333">
        <ele>68.0</ele>
        <time>2019-05-17T14:36:50.182Z</time>
      </trkpt>
      <trkpt lat="39.53699167" lon="-8.39735333">
        <ele>68.0</ele>
        <time>2019-05-17T14:36:51.187Z</time>
      </trkpt>
      <trkpt lat="39.53705" lon="-8.39732">
        <ele>68.0</ele>
        <time>2019-05-17T14:36:52.189Z</time>
      </trkpt>
      <trkpt lat="39.53705" lon="-8.39732">
        <ele>68.0</ele>
        <time>2019-05-17T14:36:53.166Z</time>
      </trkpt>
      <trkpt lat="39.537105" lon="-8.39729">
        <ele>68.0</ele>
        <time>2019-05-17T14:36:54.175Z</time>
      </trkpt>
      <trkpt lat="39.537105" lon="-8.39729">
        <ele>68.0</ele>
        <time>2019-05-17T14:36:55.187Z</time>
      </trkpt>
      <trkpt lat="39.53716167" lon="-8.39726833">
        <ele>68.0</ele>
        <time>2019-05-17T14:36:56.185Z</time>
      </trkpt>
      <trkpt lat="39.53716167" lon="-8.39726833">
        <ele>68.0</ele>
        <time>2019-05-17T14:36:57.170Z</time>
      </trkpt>
      <trkpt lat="39.53721667" lon="-8.39725">
        <ele>68.0</ele>
        <time>2019-05-17T14:36:58.176Z</time>
      </trkpt>
      <trkpt lat="39.53721667" lon="-8.39725">
        <ele>68.0</ele>
        <time>2019-05-17T14:36:59.160Z</time>
      </trkpt>
      <trkpt lat="39.53727" lon="-8.397225">
        <ele>68.0</ele>
        <time>2019-05-17T14:37:00.188Z</time>
      </trkpt>
      <trkpt lat="39.53727" lon="-8.397225">
        <ele>68.0</ele>
        <time>2019-05-17T14:37:01.167Z</time>
      </trkpt>
      <trkpt lat="39.537325" lon="-8.39719833">
        <ele>68.0</ele>
        <time>2019-05-17T14:37:02.178Z</time>
      </trkpt>
      <trkpt lat="39.537325" lon="-8.39719833">
        <ele>68.0</ele>
        <time>2019-05-17T14:37:03.182Z</time>
      </trkpt>
      <trkpt lat="39.53738" lon="-8.39717333">
        <ele>68.0</ele>
        <time>2019-05-17T14:37:04.185Z</time>
      </trkpt>
      <trkpt lat="39.53740833" lon="-8.39715833">
        <ele>68.0</ele>
        <time>2019-05-17T14:37:05.157Z</time>
      </trkpt>
      <trkpt lat="39.53740833" lon="-8.39715833">
        <ele>68.0</ele>
        <time>2019-05-17T14:37:06.164Z</time>
      </trkpt>
      <trkpt lat="39.53746333" lon="-8.39713167">
        <ele>68.0</ele>
        <time>2019-05-17T14:37:07.155Z</time>
      </trkpt>
      <trkpt lat="39.53749167" lon="-8.39711833">
        <ele>68.0</ele>
        <time>2019-05-17T14:37:08.166Z</time>
      </trkpt>
      <trkpt lat="39.53749167" lon="-8.39711833">
        <ele>68.0</ele>
        <time>2019-05-17T14:37:09.164Z</time>
      </trkpt>
      <trkpt lat="39.53754833" lon="-8.39709167">
        <ele>68.0</ele>
        <time>2019-05-17T14:37:10.190Z</time>
      </trkpt>
      <trkpt lat="39.53754833" lon="-8.39709167">
        <ele>68.0</ele>
        <time>2019-05-17T14:37:11.176Z</time>
      </trkpt>
      <trkpt lat="39.53760167" lon="-8.39706833">
        <ele>68.0</ele>
        <time>2019-05-17T14:37:12.190Z</time>
      </trkpt>
      <trkpt lat="39.53763" lon="-8.397055">
        <ele>68.0</ele>
        <time>2019-05-17T14:37:13.181Z</time>
      </trkpt>
      <trkpt lat="39.53765667" lon="-8.39704333">
        <ele>68.0</ele>
        <time>2019-05-17T14:37:14.157Z</time>
      </trkpt>
      <trkpt lat="39.53765667" lon="-8.39704333">
        <ele>68.0</ele>
        <time>2019-05-17T14:37:15.163Z</time>
      </trkpt>
      <trkpt lat="39.53771" lon="-8.39702">
        <ele>68.0</ele>
        <time>2019-05-17T14:37:16.165Z</time>
      </trkpt>
      <trkpt lat="39.53771" lon="-8.39702">
        <ele>68.0</ele>
        <time>2019-05-17T14:37:17.188Z</time>
      </trkpt>
      <trkpt lat="39.53776667" lon="-8.39699333">
        <ele>68.0</ele>
        <time>2019-05-17T14:37:18.175Z</time>
      </trkpt>
      <trkpt lat="39.53776667" lon="-8.39699333">
        <ele>68.0</ele>
        <time>2019-05-17T14:37:19.187Z</time>
      </trkpt>
      <trkpt lat="39.537825" lon="-8.39696667">
        <ele>68.0</ele>
        <time>2019-05-17T14:37:20.155Z</time>
      </trkpt>
      <trkpt lat="39.537825" lon="-8.39696667">
        <ele>68.0</ele>
        <time>2019-05-17T14:37:21.187Z</time>
      </trkpt>
      <trkpt lat="39.53788333" lon="-8.39694">
        <ele>68.0</ele>
        <time>2019-05-17T14:37:22.183Z</time>
      </trkpt>
      <trkpt lat="39.53788333" lon="-8.39694">
        <ele>68.0</ele>
        <time>2019-05-17T14:37:23.185Z</time>
      </trkpt>
      <trkpt lat="39.53794" lon="-8.39691333">
        <ele>68.0</ele>
        <time>2019-05-17T14:37:24.182Z</time>
      </trkpt>
      <trkpt lat="39.53794" lon="-8.39691333">
        <ele>68.0</ele>
        <time>2019-05-17T14:37:25.187Z</time>
      </trkpt>
      <trkpt lat="39.53799667" lon="-8.396885">
        <ele>68.0</ele>
        <time>2019-05-17T14:37:26.184Z</time>
      </trkpt>
      <trkpt lat="39.53799667" lon="-8.396885">
        <ele>68.0</ele>
        <time>2019-05-17T14:37:27.176Z</time>
      </trkpt>
      <trkpt lat="39.53805667" lon="-8.39685833">
        <ele>68.0</ele>
        <time>2019-05-17T14:37:28.160Z</time>
      </trkpt>
      <trkpt lat="39.53808667" lon="-8.39684333">
        <ele>68.0</ele>
        <time>2019-05-17T14:37:29.156Z</time>
      </trkpt>
      <trkpt lat="39.53808667" lon="-8.39684333">
        <ele>68.0</ele>
        <time>2019-05-17T14:37:30.164Z</time>
      </trkpt>
      <trkpt lat="39.53814667" lon="-8.39681333">
        <ele>68.0</ele>
        <time>2019-05-17T14:37:31.187Z</time>
      </trkpt>
      <trkpt lat="39.53817833" lon="-8.3968">
        <ele>68.0</ele>
        <time>2019-05-17T14:37:32.150Z</time>
      </trkpt>
      <trkpt lat="39.53817833" lon="-8.3968">
        <ele>68.0</ele>
        <time>2019-05-17T14:37:33.161Z</time>
      </trkpt>
      <trkpt lat="39.53824167" lon="-8.39677333">
        <ele>68.0</ele>
        <time>2019-05-17T14:37:34.165Z</time>
      </trkpt>
      <trkpt lat="39.53827333" lon="-8.39676">
        <ele>68.0</ele>
        <time>2019-05-17T14:37:35.160Z</time>
      </trkpt>
      <trkpt lat="39.53827333" lon="-8.39676">
        <ele>68.0</ele>
        <time>2019-05-17T14:37:36.175Z</time>
      </trkpt>
      <trkpt lat="39.53834" lon="-8.39673167">
        <ele>68.0</ele>
        <time>2019-05-17T14:37:37.183Z</time>
      </trkpt>
      <trkpt lat="39.53837333" lon="-8.39671667">
        <ele>68.0</ele>
        <time>2019-05-17T14:37:38.165Z</time>
      </trkpt>
      <trkpt lat="39.53837333" lon="-8.39671667">
        <ele>68.0</ele>
        <time>2019-05-17T14:37:39.161Z</time>
      </trkpt>
      <trkpt lat="39.53843833" lon="-8.39668833">
        <ele>68.0</ele>
        <time>2019-05-17T14:37:40.177Z</time>
      </trkpt>
      <trkpt lat="39.53843833" lon="-8.39668833">
        <ele>68.0</ele>
        <time>2019-05-17T14:37:41.161Z</time>
      </trkpt>
      <trkpt lat="39.53850333" lon="-8.39666">
        <ele>68.0</ele>
        <time>2019-05-17T14:37:42.190Z</time>
      </trkpt>
      <trkpt lat="39.53850333" lon="-8.39666">
        <ele>68.0</ele>
        <time>2019-05-17T14:37:43.189Z</time>
      </trkpt>
      <trkpt lat="39.538565" lon="-8.39663333">
        <ele>68.0</ele>
        <time>2019-05-17T14:37:44.172Z</time>
      </trkpt>
      <trkpt lat="39.538565" lon="-8.39663333">
        <ele>68.0</ele>
        <time>2019-05-17T14:37:45.177Z</time>
      </trkpt>
      <trkpt lat="39.53862833" lon="-8.396605">
        <ele>67.0</ele>
        <time>2019-05-17T14:37:46.175Z</time>
      </trkpt>
      <trkpt lat="39.53862833" lon="-8.396605">
        <ele>67.0</ele>
        <time>2019-05-17T14:37:47.166Z</time>
      </trkpt>
      <trkpt lat="39.53869" lon="-8.39657833">
        <ele>67.0</ele>
        <time>2019-05-17T14:37:48.175Z</time>
      </trkpt>
      <trkpt lat="39.53869" lon="-8.39657833">
        <ele>67.0</ele>
        <time>2019-05-17T14:37:49.183Z</time>
      </trkpt>
      <trkpt lat="39.53875167" lon="-8.39654333">
        <ele>67.0</ele>
        <time>2019-05-17T14:37:50.176Z</time>
      </trkpt>
      <trkpt lat="39.53875167" lon="-8.39654333">
        <ele>67.0</ele>
        <time>2019-05-17T14:37:51.159Z</time>
      </trkpt>
      <trkpt lat="39.53881167" lon="-8.39651333">
        <ele>67.0</ele>
        <time>2019-05-17T14:37:52.169Z</time>
      </trkpt>
      <trkpt lat="39.53881167" lon="-8.39651333">
        <ele>67.0</ele>
        <time>2019-05-17T14:37:53.180Z</time>
      </trkpt>
      <trkpt lat="39.53887" lon="-8.39648167">
        <ele>67.0</ele>
        <time>2019-05-17T14:37:54.168Z</time>
      </trkpt>
      <trkpt lat="39.53889667" lon="-8.39646833">
        <ele>67.0</ele>
        <time>2019-05-17T14:37:55.175Z</time>
      </trkpt>
      <trkpt lat="39.53892" lon="-8.396455">
        <ele>67.0</ele>
        <time>2019-05-17T14:37:56.171Z</time>
      </trkpt>
      <trkpt lat="39.53892" lon="-8.396455">
        <ele>67.0</ele>
        <time>2019-05-17T14:37:57.155Z</time>
      </trkpt>
      <trkpt lat="39.53897" lon="-8.39643333">
        <ele>67.0</ele>
        <time>2019-05-17T14:37:58.154Z</time>
      </trkpt>
      <trkpt lat="39.53897" lon="-8.39643333">
        <ele>67.0</ele>
        <time>2019-05-17T14:37:59.166Z</time>
      </trkpt>
      <trkpt lat="39.53902" lon="-8.39642167">
        <ele>67.0</ele>
        <time>2019-05-17T14:38:00.158Z</time>
      </trkpt>
      <trkpt lat="39.53904" lon="-8.396415">
        <ele>67.0</ele>
        <time>2019-05-17T14:38:01.164Z</time>
      </trkpt>
      <trkpt lat="39.53905667" lon="-8.39640833">
        <ele>67.0</ele>
        <time>2019-05-17T14:38:02.151Z</time>
      </trkpt>
      <trkpt lat="39.53905667" lon="-8.39640833">
        <ele>67.0</ele>
        <time>2019-05-17T14:38:03.162Z</time>
      </trkpt>
      <trkpt lat="39.53906833" lon="-8.39640667">
        <ele>67.0</ele>
        <time>2019-05-17T14:38:04.173Z</time>
      </trkpt>
      <trkpt lat="39.53906833" lon="-8.39640667">
        <ele>67.0</ele>
        <time>2019-05-17T14:38:05.156Z</time>
      </trkpt>
      <trkpt lat="39.53906833" lon="-8.39640667">
        <ele>67.0</ele>
        <time>2019-05-17T14:38:06.181Z</time>
      </trkpt>
      <trkpt lat="39.53906833" lon="-8.39640667">
        <ele>67.0</ele>
        <time>2019-05-17T14:38:07.157Z</time>
      </trkpt>
      <trkpt lat="39.53906833" lon="-8.39640667">
        <ele>67.0</ele>
        <time>2019-05-17T14:38:08.165Z</time>
      </trkpt>
      <trkpt lat="39.53906833" lon="-8.39640667">
        <ele>67.0</ele>
        <time>2019-05-17T14:38:09.176Z</time>
      </trkpt>
      <trkpt lat="39.53906833" lon="-8.39640667">
        <ele>67.0</ele>
        <time>2019-05-17T14:38:10.157Z</time>
      </trkpt>
      <trkpt lat="39.53906833" lon="-8.39640667">
        <ele>67.0</ele>
        <time>2019-05-17T14:38:11.163Z</time>
      </trkpt>
      <trkpt lat="39.53906833" lon="-8.39640667">
        <ele>67.0</ele>
        <time>2019-05-17T14:38:12.169Z</time>
      </trkpt>
      <trkpt lat="39.53906833" lon="-8.39640667">
        <ele>67.0</ele>
        <time>2019-05-17T14:38:13.159Z</time>
      </trkpt>
      <trkpt lat="39.53906833" lon="-8.39640667">
        <ele>67.0</ele>
        <time>2019-05-17T14:38:14.189Z</time>
      </trkpt>
      <trkpt lat="39.53906833" lon="-8.39640667">
        <ele>67.0</ele>
        <time>2019-05-17T14:38:15.175Z</time>
      </trkpt>
      <trkpt lat="39.53906833" lon="-8.39640667">
        <ele>67.0</ele>
        <time>2019-05-17T14:38:16.170Z</time>
      </trkpt>
      <trkpt lat="39.53906833" lon="-8.39640667">
        <ele>67.0</ele>
        <time>2019-05-17T14:38:17.165Z</time>
      </trkpt>
      <trkpt lat="39.53906833" lon="-8.39640667">
        <ele>67.0</ele>
        <time>2019-05-17T14:38:18.168Z</time>
      </trkpt>
      <trkpt lat="39.53906833" lon="-8.39640667">
        <ele>67.0</ele>
        <time>2019-05-17T14:38:19.170Z</time>
      </trkpt>
      <trkpt lat="39.53906833" lon="-8.39640667">
        <ele>67.0</ele>
        <time>2019-05-17T14:38:20.172Z</time>
      </trkpt>
      <trkpt lat="39.53906833" lon="-8.39640667">
        <ele>67.0</ele>
        <time>2019-05-17T14:38:21.175Z</time>
      </trkpt>
      <trkpt lat="39.53906833" lon="-8.39640667">
        <ele>67.0</ele>
        <time>2019-05-17T14:38:22.189Z</time>
      </trkpt>
      <trkpt lat="39.53906833" lon="-8.39640667">
        <ele>67.0</ele>
        <time>2019-05-17T14:38:23.181Z</time>
      </trkpt>
      <trkpt lat="39.53906833" lon="-8.39640667">
        <ele>67.0</ele>
        <time>2019-05-17T14:38:24.167Z</time>
      </trkpt>
      <trkpt lat="39.53906833" lon="-8.39640667">
        <ele>67.0</ele>
        <time>2019-05-17T14:38:25.164Z</time>
      </trkpt>
      <trkpt lat="39.53906833" lon="-8.39640667">
        <ele>67.0</ele>
        <time>2019-05-17T14:38:26.171Z</time>
      </trkpt>
      <trkpt lat="39.53906833" lon="-8.39640667">
        <ele>67.0</ele>
        <time>2019-05-17T14:38:27.171Z</time>
      </trkpt>
      <trkpt lat="39.53906833" lon="-8.39640667">
        <ele>67.0</ele>
        <time>2019-05-17T14:38:28.167Z</time>
      </trkpt>
      <trkpt lat="39.53906833" lon="-8.39640667">
        <ele>67.0</ele>
        <time>2019-05-17T14:38:29.164Z</time>
      </trkpt>
      <trkpt lat="39.53906833" lon="-8.39640667">
        <ele>67.0</ele>
        <time>2019-05-17T14:38:30.169Z</time>
      </trkpt>
      <trkpt lat="39.53906833" lon="-8.39640667">
        <ele>67.0</ele>
        <time>2019-05-17T14:38:31.164Z</time>
      </trkpt>
      <trkpt lat="39.53906833" lon="-8.39640667">
        <ele>67.0</ele>
        <time>2019-05-17T14:38:32.171Z</time>
      </trkpt>
      <trkpt lat="39.53906833" lon="-8.39640667">
        <ele>67.0</ele>
        <time>2019-05-17T14:38:33.164Z</time>
      </trkpt>
      <trkpt lat="39.53906833" lon="-8.39640667">
        <ele>67.0</ele>
        <time>2019-05-17T14:38:34.150Z</time>
      </trkpt>
      <trkpt lat="39.53906833" lon="-8.39640667">
        <ele>67.0</ele>
        <time>2019-05-17T14:38:35.175Z</time>
      </trkpt>
      <trkpt lat="39.53906833" lon="-8.39640667">
        <ele>67.0</ele>
        <time>2019-05-17T14:38:36.168Z</time>
      </trkpt>
      <trkpt lat="39.53906833" lon="-8.39640667">
        <ele>67.0</ele>
        <time>2019-05-17T14:38:37.164Z</time>
      </trkpt>
      <trkpt lat="39.53906833" lon="-8.39640667">
        <ele>67.0</ele>
        <time>2019-05-17T14:38:38.171Z</time>
      </trkpt>
      <trkpt lat="39.53906833" lon="-8.39640667">
        <ele>67.0</ele>
        <time>2019-05-17T14:38:39.167Z</time>
      </trkpt>
      <trkpt lat="39.53906833" lon="-8.39640667">
        <ele>67.0</ele>
        <time>2019-05-17T14:38:40.168Z</time>
      </trkpt>
      <trkpt lat="39.53906833" lon="-8.39640667">
        <ele>67.0</ele>
        <time>2019-05-17T14:38:41.164Z</time>
      </trkpt>
      <trkpt lat="39.53908333" lon="-8.39639333">
        <ele>66.0</ele>
        <time>2019-05-17T14:38:42.188Z</time>
      </trkpt>
      <trkpt lat="39.53908333" lon="-8.39639333">
        <ele>66.0</ele>
        <time>2019-05-17T14:38:43.173Z</time>
      </trkpt>
      <trkpt lat="39.53912167" lon="-8.39638333">
        <ele>65.0</ele>
        <time>2019-05-17T14:38:44.172Z</time>
      </trkpt>
      <trkpt lat="39.53912167" lon="-8.39638333">
        <ele>65.0</ele>
        <time>2019-05-17T14:38:45.164Z</time>
      </trkpt>
      <trkpt lat="39.53917833" lon="-8.39637167">
        <ele>65.0</ele>
        <time>2019-05-17T14:38:46.169Z</time>
      </trkpt>
      <trkpt lat="39.53920833" lon="-8.39636">
        <ele>65.0</ele>
        <time>2019-05-17T14:38:47.170Z</time>
      </trkpt>
      <trkpt lat="39.53920833" lon="-8.39636">
        <ele>65.0</ele>
        <time>2019-05-17T14:38:48.164Z</time>
      </trkpt>
      <trkpt lat="39.53926167" lon="-8.39631833">
        <ele>65.0</ele>
        <time>2019-05-17T14:38:49.164Z</time>
      </trkpt>
      <trkpt lat="39.53929167" lon="-8.396305">
        <ele>65.0</ele>
        <time>2019-05-17T14:38:50.157Z</time>
      </trkpt>
      <trkpt lat="39.53929167" lon="-8.396305">
        <ele>65.0</ele>
        <time>2019-05-17T14:38:51.187Z</time>
      </trkpt>
      <trkpt lat="39.539355" lon="-8.396275">
        <ele>65.0</ele>
        <time>2019-05-17T14:38:52.185Z</time>
      </trkpt>
      <trkpt lat="39.539355" lon="-8.396275">
        <ele>65.0</ele>
        <time>2019-05-17T14:38:53.168Z</time>
      </trkpt>
      <trkpt lat="39.53942" lon="-8.39624333">
        <ele>64.0</ele>
        <time>2019-05-17T14:38:54.165Z</time>
      </trkpt>
      <trkpt lat="39.53942" lon="-8.39624333">
        <ele>64.0</ele>
        <time>2019-05-17T14:38:55.170Z</time>
      </trkpt>
      <trkpt lat="39.53948667" lon="-8.39621">
        <ele>64.0</ele>
        <time>2019-05-17T14:38:56.167Z</time>
      </trkpt>
      <trkpt lat="39.53948667" lon="-8.39621">
        <ele>64.0</ele>
        <time>2019-05-17T14:38:57.172Z</time>
      </trkpt>
      <trkpt lat="39.53956" lon="-8.396175">
        <ele>64.0</ele>
        <time>2019-05-17T14:38:58.158Z</time>
      </trkpt>
      <trkpt lat="39.53956" lon="-8.396175">
        <ele>64.0</ele>
        <time>2019-05-17T14:38:59.168Z</time>
      </trkpt>
      <trkpt lat="39.53963667" lon="-8.39613667">
        <ele>64.0</ele>
        <time>2019-05-17T14:39:00.174Z</time>
      </trkpt>
      <trkpt lat="39.53963667" lon="-8.39613667">
        <ele>64.0</ele>
        <time>2019-05-17T14:39:01.168Z</time>
      </trkpt>
      <trkpt lat="39.53972" lon="-8.39609667">
        <ele>64.0</ele>
        <time>2019-05-17T14:39:02.160Z</time>
      </trkpt>
      <trkpt lat="39.53972" lon="-8.39609667">
        <ele>64.0</ele>
        <time>2019-05-17T14:39:03.172Z</time>
      </trkpt>
      <trkpt lat="39.53980667" lon="-8.396055">
        <ele>63.0</ele>
        <time>2019-05-17T14:39:04.163Z</time>
      </trkpt>
      <trkpt lat="39.53980667" lon="-8.396055">
        <ele>63.0</ele>
        <time>2019-05-17T14:39:05.178Z</time>
      </trkpt>
      <trkpt lat="39.53989333" lon="-8.39601667">
        <ele>63.0</ele>
        <time>2019-05-17T14:39:06.172Z</time>
      </trkpt>
      <trkpt lat="39.53989333" lon="-8.39601667">
        <ele>63.0</ele>
        <time>2019-05-17T14:39:07.185Z</time>
      </trkpt>
      <trkpt lat="39.539985" lon="-8.395975">
        <ele>63.0</ele>
        <time>2019-05-17T14:39:08.178Z</time>
      </trkpt>
      <trkpt lat="39.539985" lon="-8.395975">
        <ele>63.0</ele>
        <time>2019-05-17T14:39:09.163Z</time>
      </trkpt>
      <trkpt lat="39.54008167" lon="-8.395925">
        <ele>62.0</ele>
        <time>2019-05-17T14:39:10.175Z</time>
      </trkpt>
      <trkpt lat="39.54008167" lon="-8.395925">
        <ele>62.0</ele>
        <time>2019-05-17T14:39:11.180Z</time>
      </trkpt>
      <trkpt lat="39.54018167" lon="-8.39587833">
        <ele>62.0</ele>
        <time>2019-05-17T14:39:12.176Z</time>
      </trkpt>
      <trkpt lat="39.54018167" lon="-8.39587833">
        <ele>62.0</ele>
        <time>2019-05-17T14:39:13.187Z</time>
      </trkpt>
      <trkpt lat="39.54028667" lon="-8.39583">
        <ele>62.0</ele>
        <time>2019-05-17T14:39:14.195Z</time>
      </trkpt>
      <trkpt lat="39.54028667" lon="-8.39583">
        <ele>62.0</ele>
        <time>2019-05-17T14:39:15.166Z</time>
      </trkpt>
      <trkpt lat="39.540395" lon="-8.395775">
        <ele>61.0</ele>
        <time>2019-05-17T14:39:16.180Z</time>
      </trkpt>
      <trkpt lat="39.540395" lon="-8.395775">
        <ele>61.0</ele>
        <time>2019-05-17T14:39:17.154Z</time>
      </trkpt>
      <trkpt lat="39.54050833" lon="-8.395715">
        <ele>61.0</ele>
        <time>2019-05-17T14:39:18.173Z</time>
      </trkpt>
      <trkpt lat="39.54050833" lon="-8.395715">
        <ele>61.0</ele>
        <time>2019-05-17T14:39:19.160Z</time>
      </trkpt>
      <trkpt lat="39.54062167" lon="-8.39564833">
        <ele>60.0</ele>
        <time>2019-05-17T14:39:20.161Z</time>
      </trkpt>
      <trkpt lat="39.54062167" lon="-8.39564833">
        <ele>60.0</ele>
        <time>2019-05-17T14:39:21.171Z</time>
      </trkpt>
      <trkpt lat="39.54073667" lon="-8.39557333">
        <ele>60.0</ele>
        <time>2019-05-17T14:39:22.171Z</time>
      </trkpt>
      <trkpt lat="39.54073667" lon="-8.39557333">
        <ele>60.0</ele>
        <time>2019-05-17T14:39:23.178Z</time>
      </trkpt>
      <trkpt lat="39.54085" lon="-8.39548667">
        <ele>59.0</ele>
        <time>2019-05-17T14:39:24.174Z</time>
      </trkpt>
      <trkpt lat="39.54085" lon="-8.39548667">
        <ele>59.0</ele>
        <time>2019-05-17T14:39:25.155Z</time>
      </trkpt>
      <trkpt lat="39.54095667" lon="-8.39538833">
        <ele>59.0</ele>
        <time>2019-05-17T14:39:26.155Z</time>
      </trkpt>
      <trkpt lat="39.54095667" lon="-8.39538833">
        <ele>59.0</ele>
        <time>2019-05-17T14:39:27.188Z</time>
      </trkpt>
      <trkpt lat="39.54106333" lon="-8.39527">
        <ele>58.0</ele>
        <time>2019-05-17T14:39:28.179Z</time>
      </trkpt>
      <trkpt lat="39.541115" lon="-8.39520667">
        <ele>58.0</ele>
        <time>2019-05-17T14:39:29.169Z</time>
      </trkpt>
      <trkpt lat="39.541115" lon="-8.39520667">
        <ele>58.0</ele>
        <time>2019-05-17T14:39:30.189Z</time>
      </trkpt>
      <trkpt lat="39.541215" lon="-8.39507333">
        <ele>57.0</ele>
        <time>2019-05-17T14:39:31.185Z</time>
      </trkpt>
      <trkpt lat="39.54126333" lon="-8.395005">
        <ele>58.0</ele>
        <time>2019-05-17T14:39:32.165Z</time>
      </trkpt>
      <trkpt lat="39.54130833" lon="-8.39493667">
        <ele>58.0</ele>
        <time>2019-05-17T14:39:33.157Z</time>
      </trkpt>
      <trkpt lat="39.54130833" lon="-8.39493667">
        <ele>58.0</ele>
        <time>2019-05-17T14:39:34.168Z</time>
      </trkpt>
      <trkpt lat="39.54139167" lon="-8.39480167">
        <ele>58.0</ele>
        <time>2019-05-17T14:39:35.174Z</time>
      </trkpt>
      <trkpt lat="39.54139167" lon="-8.39480167">
        <ele>58.0</ele>
        <time>2019-05-17T14:39:36.164Z</time>
      </trkpt>
      <trkpt lat="39.54146667" lon="-8.39467667">
        <ele>58.0</ele>
        <time>2019-05-17T14:39:37.155Z</time>
      </trkpt>
      <trkpt lat="39.54149833" lon="-8.39461667">
        <ele>58.0</ele>
        <time>2019-05-17T14:39:38.188Z</time>
      </trkpt>
      <trkpt lat="39.54149833" lon="-8.39461667">
        <ele>58.0</ele>
        <time>2019-05-17T14:39:39.172Z</time>
      </trkpt>
      <trkpt lat="39.54156167" lon="-8.39450333">
        <ele>58.0</ele>
        <time>2019-05-17T14:39:40.162Z</time>
      </trkpt>
      <trkpt lat="39.54156167" lon="-8.39450333">
        <ele>58.0</ele>
        <time>2019-05-17T14:39:41.189Z</time>
      </trkpt>
      <trkpt lat="39.54162667" lon="-8.39439333">
        <ele>59.0</ele>
        <time>2019-05-17T14:39:42.190Z</time>
      </trkpt>
      <trkpt lat="39.54162667" lon="-8.39439333">
        <ele>59.0</ele>
        <time>2019-05-17T14:39:43.158Z</time>
      </trkpt>
      <trkpt lat="39.54169333" lon="-8.394275">
        <ele>59.0</ele>
        <time>2019-05-17T14:39:44.155Z</time>
      </trkpt>
      <trkpt lat="39.54169333" lon="-8.394275">
        <ele>59.0</ele>
        <time>2019-05-17T14:39:45.183Z</time>
      </trkpt>
      <trkpt lat="39.54176333" lon="-8.39415833">
        <ele>59.0</ele>
        <time>2019-05-17T14:39:46.184Z</time>
      </trkpt>
      <trkpt lat="39.54176333" lon="-8.39415833">
        <ele>59.0</ele>
        <time>2019-05-17T14:39:47.168Z</time>
      </trkpt>
      <trkpt lat="39.54183" lon="-8.39404333">
        <ele>59.0</ele>
        <time>2019-05-17T14:39:48.167Z</time>
      </trkpt>
      <trkpt lat="39.54183" lon="-8.39404333">
        <ele>59.0</ele>
        <time>2019-05-17T14:39:49.158Z</time>
      </trkpt>
      <trkpt lat="39.54189667" lon="-8.39393">
        <ele>59.0</ele>
        <time>2019-05-17T14:39:50.172Z</time>
      </trkpt>
      <trkpt lat="39.54189667" lon="-8.39393">
        <ele>59.0</ele>
        <time>2019-05-17T14:39:51.170Z</time>
      </trkpt>
      <trkpt lat="39.541965" lon="-8.393815">
        <ele>58.0</ele>
        <time>2019-05-17T14:39:52.169Z</time>
      </trkpt>
      <trkpt lat="39.541965" lon="-8.393815">
        <ele>58.0</ele>
        <time>2019-05-17T14:39:53.159Z</time>
      </trkpt>
      <trkpt lat="39.54203167" lon="-8.39369333">
        <ele>58.0</ele>
        <time>2019-05-17T14:39:54.188Z</time>
      </trkpt>
      <trkpt lat="39.54203167" lon="-8.39369333">
        <ele>58.0</ele>
        <time>2019-05-17T14:39:55.156Z</time>
      </trkpt>
      <trkpt lat="39.542105" lon="-8.39356833">
        <ele>58.0</ele>
        <time>2019-05-17T14:39:56.155Z</time>
      </trkpt>
      <trkpt lat="39.542105" lon="-8.39356833">
        <ele>58.0</ele>
        <time>2019-05-17T14:39:57.177Z</time>
      </trkpt>
      <trkpt lat="39.54217833" lon="-8.39343833">
        <ele>57.0</ele>
        <time>2019-05-17T14:39:58.175Z</time>
      </trkpt>
      <trkpt lat="39.54217833" lon="-8.39343833">
        <ele>57.0</ele>
        <time>2019-05-17T14:39:59.153Z</time>
      </trkpt>
      <trkpt lat="39.54226333" lon="-8.39330833">
        <ele>57.0</ele>
        <time>2019-05-17T14:40:00.155Z</time>
      </trkpt>
      <trkpt lat="39.54226333" lon="-8.39330833">
        <ele>57.0</ele>
        <time>2019-05-17T14:40:01.189Z</time>
      </trkpt>
      <trkpt lat="39.54234333" lon="-8.39318">
        <ele>57.0</ele>
        <time>2019-05-17T14:40:02.163Z</time>
      </trkpt>
      <trkpt lat="39.54234333" lon="-8.39318">
        <ele>57.0</ele>
        <time>2019-05-17T14:40:03.188Z</time>
      </trkpt>
      <trkpt lat="39.54240833" lon="-8.39307">
        <ele>56.0</ele>
        <time>2019-05-17T14:40:04.177Z</time>
      </trkpt>
      <trkpt lat="39.54240833" lon="-8.39307">
        <ele>56.0</ele>
        <time>2019-05-17T14:40:05.171Z</time>
      </trkpt>
      <trkpt lat="39.54247" lon="-8.39297">
        <ele>56.0</ele>
        <time>2019-05-17T14:40:06.165Z</time>
      </trkpt>
      <trkpt lat="39.54247" lon="-8.39297">
        <ele>56.0</ele>
        <time>2019-05-17T14:40:07.167Z</time>
      </trkpt>
      <trkpt lat="39.542525" lon="-8.392865">
        <ele>56.0</ele>
        <time>2019-05-17T14:40:08.161Z</time>
      </trkpt>
      <trkpt lat="39.542525" lon="-8.392865">
        <ele>56.0</ele>
        <time>2019-05-17T14:40:09.157Z</time>
      </trkpt>
      <trkpt lat="39.54258667" lon="-8.39276167">
        <ele>56.0</ele>
        <time>2019-05-17T14:40:10.190Z</time>
      </trkpt>
      <trkpt lat="39.54258667" lon="-8.39276167">
        <ele>56.0</ele>
        <time>2019-05-17T14:40:11.157Z</time>
      </trkpt>
      <trkpt lat="39.54264667" lon="-8.39266167">
        <ele>56.0</ele>
        <time>2019-05-17T14:40:12.165Z</time>
      </trkpt>
      <trkpt lat="39.54264667" lon="-8.39266167">
        <ele>56.0</ele>
        <time>2019-05-17T14:40:13.150Z</time>
      </trkpt>
      <trkpt lat="39.54270667" lon="-8.39256167">
        <ele>56.0</ele>
        <time>2019-05-17T14:40:14.161Z</time>
      </trkpt>
      <trkpt lat="39.54273333" lon="-8.39250667">
        <ele>56.0</ele>
        <time>2019-05-17T14:40:15.163Z</time>
      </trkpt>
      <trkpt lat="39.54273333" lon="-8.39250667">
        <ele>56.0</ele>
        <time>2019-05-17T14:40:16.166Z</time>
      </trkpt>
      <trkpt lat="39.54278667" lon="-8.39239833">
        <ele>56.0</ele>
        <time>2019-05-17T14:40:17.162Z</time>
      </trkpt>
      <trkpt lat="39.54278667" lon="-8.39239833">
        <ele>56.0</ele>
        <time>2019-05-17T14:40:18.167Z</time>
      </trkpt>
      <trkpt lat="39.542835" lon="-8.39229167">
        <ele>56.0</ele>
        <time>2019-05-17T14:40:19.155Z</time>
      </trkpt>
      <trkpt lat="39.54286" lon="-8.39224">
        <ele>56.0</ele>
        <time>2019-05-17T14:40:20.176Z</time>
      </trkpt>
      <trkpt lat="39.54286" lon="-8.39224">
        <ele>56.0</ele>
        <time>2019-05-17T14:40:21.171Z</time>
      </trkpt>
      <trkpt lat="39.54290167" lon="-8.39214333">
        <ele>56.0</ele>
        <time>2019-05-17T14:40:22.188Z</time>
      </trkpt>
      <trkpt lat="39.54292167" lon="-8.39209167">
        <ele>57.0</ele>
        <time>2019-05-17T14:40:23.151Z</time>
      </trkpt>
      <trkpt lat="39.54292167" lon="-8.39209167">
        <ele>57.0</ele>
        <time>2019-05-17T14:40:24.185Z</time>
      </trkpt>
      <trkpt lat="39.542955" lon="-8.39197833">
        <ele>57.0</ele>
        <time>2019-05-17T14:40:25.186Z</time>
      </trkpt>
      <trkpt lat="39.54297" lon="-8.39192">
        <ele>57.0</ele>
        <time>2019-05-17T14:40:26.185Z</time>
      </trkpt>
      <trkpt lat="39.54297" lon="-8.39192">
        <ele>57.0</ele>
        <time>2019-05-17T14:40:27.171Z</time>
      </trkpt>
      <trkpt lat="39.543" lon="-8.39180667">
        <ele>57.0</ele>
        <time>2019-05-17T14:40:28.165Z</time>
      </trkpt>
      <trkpt lat="39.543" lon="-8.39180667">
        <ele>57.0</ele>
        <time>2019-05-17T14:40:29.189Z</time>
      </trkpt>
      <trkpt lat="39.54302667" lon="-8.391695">
        <ele>57.0</ele>
        <time>2019-05-17T14:40:30.157Z</time>
      </trkpt>
      <trkpt lat="39.54302667" lon="-8.391695">
        <ele>57.0</ele>
        <time>2019-05-17T14:40:31.177Z</time>
      </trkpt>
      <trkpt lat="39.543045" lon="-8.39157667">
        <ele>58.0</ele>
        <time>2019-05-17T14:40:32.172Z</time>
      </trkpt>
      <trkpt lat="39.543045" lon="-8.39157667">
        <ele>58.0</ele>
        <time>2019-05-17T14:40:33.178Z</time>
      </trkpt>
      <trkpt lat="39.54306833" lon="-8.39146833">
        <ele>58.0</ele>
        <time>2019-05-17T14:40:34.173Z</time>
      </trkpt>
      <trkpt lat="39.54306833" lon="-8.39146833">
        <ele>58.0</ele>
        <time>2019-05-17T14:40:35.160Z</time>
      </trkpt>
      <trkpt lat="39.54309" lon="-8.39136833">
        <ele>58.0</ele>
        <time>2019-05-17T14:40:36.157Z</time>
      </trkpt>
      <trkpt lat="39.54309" lon="-8.39136833">
        <ele>58.0</ele>
        <time>2019-05-17T14:40:37.159Z</time>
      </trkpt>
      <trkpt lat="39.54311333" lon="-8.39128333">
        <ele>58.0</ele>
        <time>2019-05-17T14:40:38.195Z</time>
      </trkpt>
      <trkpt lat="39.54311333" lon="-8.39128333">
        <ele>58.0</ele>
        <time>2019-05-17T14:40:39.162Z</time>
      </trkpt>
      <trkpt lat="39.54315" lon="-8.3912">
        <ele>58.0</ele>
        <time>2019-05-17T14:40:40.161Z</time>
      </trkpt>
      <trkpt lat="39.54315" lon="-8.3912">
        <ele>58.0</ele>
        <time>2019-05-17T14:40:41.167Z</time>
      </trkpt>
      <trkpt lat="39.54318667" lon="-8.39111333">
        <ele>58.0</ele>
        <time>2019-05-17T14:40:42.158Z</time>
      </trkpt>
      <trkpt lat="39.54318667" lon="-8.39111333">
        <ele>58.0</ele>
        <time>2019-05-17T14:40:43.157Z</time>
      </trkpt>
      <trkpt lat="39.54322333" lon="-8.391025">
        <ele>58.0</ele>
        <time>2019-05-17T14:40:44.155Z</time>
      </trkpt>
      <trkpt lat="39.54322333" lon="-8.391025">
        <ele>58.0</ele>
        <time>2019-05-17T14:40:45.163Z</time>
      </trkpt>
      <trkpt lat="39.54325667" lon="-8.39094">
        <ele>58.0</ele>
        <time>2019-05-17T14:40:46.155Z</time>
      </trkpt>
      <trkpt lat="39.54325667" lon="-8.39094">
        <ele>58.0</ele>
        <time>2019-05-17T14:40:47.170Z</time>
      </trkpt>
      <trkpt lat="39.54329167" lon="-8.39085833">
        <ele>59.0</ele>
        <time>2019-05-17T14:40:48.157Z</time>
      </trkpt>
      <trkpt lat="39.54331" lon="-8.39081833">
        <ele>59.0</ele>
        <time>2019-05-17T14:40:49.154Z</time>
      </trkpt>
      <trkpt lat="39.543325" lon="-8.39078">
        <ele>59.0</ele>
        <time>2019-05-17T14:40:50.160Z</time>
      </trkpt>
      <trkpt lat="39.543325" lon="-8.39078">
        <ele>59.0</ele>
        <time>2019-05-17T14:40:51.184Z</time>
      </trkpt>
      <trkpt lat="39.54335667" lon="-8.39070667">
        <ele>59.0</ele>
        <time>2019-05-17T14:40:52.189Z</time>
      </trkpt>
      <trkpt lat="39.54335667" lon="-8.39070667">
        <ele>59.0</ele>
        <time>2019-05-17T14:40:53.162Z</time>
      </trkpt>
      <trkpt lat="39.54338833" lon="-8.39063333">
        <ele>60.0</ele>
        <time>2019-05-17T14:40:54.154Z</time>
      </trkpt>
      <trkpt lat="39.54338833" lon="-8.39063333">
        <ele>60.0</ele>
        <time>2019-05-17T14:40:55.159Z</time>
      </trkpt>
      <trkpt lat="39.54342167" lon="-8.390555">
        <ele>60.0</ele>
        <time>2019-05-17T14:40:56.175Z</time>
      </trkpt>
      <trkpt lat="39.54342167" lon="-8.390555">
        <ele>60.0</ele>
        <time>2019-05-17T14:40:57.169Z</time>
      </trkpt>
      <trkpt lat="39.54346167" lon="-8.39046167">
        <ele>59.0</ele>
        <time>2019-05-17T14:40:58.185Z</time>
      </trkpt>
      <trkpt lat="39.54346167" lon="-8.39046167">
        <ele>59.0</ele>
        <time>2019-05-17T14:40:59.151Z</time>
      </trkpt>
      <trkpt lat="39.54351167" lon="-8.39035833">
        <ele>59.0</ele>
        <time>2019-05-17T14:41:00.171Z</time>
      </trkpt>
      <trkpt lat="39.54351167" lon="-8.39035833">
        <ele>59.0</ele>
        <time>2019-05-17T14:41:01.163Z</time>
      </trkpt>
      <trkpt lat="39.54357333" lon="-8.390245">
        <ele>59.0</ele>
        <time>2019-05-17T14:41:02.174Z</time>
      </trkpt>
      <trkpt lat="39.54357333" lon="-8.390245">
        <ele>59.0</ele>
        <time>2019-05-17T14:41:03.157Z</time>
      </trkpt>
      <trkpt lat="39.54365333" lon="-8.39014833">
        <ele>58.0</ele>
        <time>2019-05-17T14:41:04.153Z</time>
      </trkpt>
      <trkpt lat="39.54365333" lon="-8.39014833">
        <ele>58.0</ele>
        <time>2019-05-17T14:41:05.172Z</time>
      </trkpt>
      <trkpt lat="39.54375" lon="-8.39008833">
        <ele>58.0</ele>
        <time>2019-05-17T14:41:06.168Z</time>
      </trkpt>
      <trkpt lat="39.54375" lon="-8.39008833">
        <ele>58.0</ele>
        <time>2019-05-17T14:41:07.168Z</time>
      </trkpt>
      <trkpt lat="39.543855" lon="-8.39005333">
        <ele>57.0</ele>
        <time>2019-05-17T14:41:08.193Z</time>
      </trkpt>
      <trkpt lat="39.543855" lon="-8.39005333">
        <ele>57.0</ele>
        <time>2019-05-17T14:41:09.185Z</time>
      </trkpt>
      <trkpt lat="39.543955" lon="-8.390045">
        <ele>56.0</ele>
        <time>2019-05-17T14:41:10.173Z</time>
      </trkpt>
      <trkpt lat="39.543955" lon="-8.390045">
        <ele>56.0</ele>
        <time>2019-05-17T14:41:11.167Z</time>
      </trkpt>
      <trkpt lat="39.544065" lon="-8.39004833">
        <ele>55.0</ele>
        <time>2019-05-17T14:41:12.156Z</time>
      </trkpt>
      <trkpt lat="39.544065" lon="-8.39004833">
        <ele>55.0</ele>
        <time>2019-05-17T14:41:13.181Z</time>
      </trkpt>
      <trkpt lat="39.54419" lon="-8.390065">
        <ele>55.0</ele>
        <time>2019-05-17T14:41:14.175Z</time>
      </trkpt>
      <trkpt lat="39.54419" lon="-8.390065">
        <ele>55.0</ele>
        <time>2019-05-17T14:41:15.185Z</time>
      </trkpt>
      <trkpt lat="39.54431833" lon="-8.39009">
        <ele>54.0</ele>
        <time>2019-05-17T14:41:16.182Z</time>
      </trkpt>
      <trkpt lat="39.54438333" lon="-8.39010333">
        <ele>53.0</ele>
        <time>2019-05-17T14:41:17.150Z</time>
      </trkpt>
      <trkpt lat="39.54438333" lon="-8.39010333">
        <ele>53.0</ele>
        <time>2019-05-17T14:41:18.187Z</time>
      </trkpt>
      <trkpt lat="39.544525" lon="-8.39012167">
        <ele>52.0</ele>
        <time>2019-05-17T14:41:19.169Z</time>
      </trkpt>
      <trkpt lat="39.5446" lon="-8.39013167">
        <ele>52.0</ele>
        <time>2019-05-17T14:41:20.165Z</time>
      </trkpt>
      <trkpt lat="39.5446" lon="-8.39013167">
        <ele>52.0</ele>
        <time>2019-05-17T14:41:21.168Z</time>
      </trkpt>
      <trkpt lat="39.54475333" lon="-8.39015667">
        <ele>51.0</ele>
        <time>2019-05-17T14:41:22.180Z</time>
      </trkpt>
      <trkpt lat="39.54475333" lon="-8.39015667">
        <ele>51.0</ele>
        <time>2019-05-17T14:41:23.158Z</time>
      </trkpt>
      <trkpt lat="39.54491333" lon="-8.39019333">
        <ele>50.0</ele>
        <time>2019-05-17T14:41:24.195Z</time>
      </trkpt>
      <trkpt lat="39.54491333" lon="-8.39019333">
        <ele>50.0</ele>
        <time>2019-05-17T14:41:25.172Z</time>
      </trkpt>
      <trkpt lat="39.54509333" lon="-8.390235">
        <ele>49.0</ele>
        <time>2019-05-17T14:41:26.163Z</time>
      </trkpt>
      <trkpt lat="39.54509333" lon="-8.390235">
        <ele>49.0</ele>
        <time>2019-05-17T14:41:27.159Z</time>
      </trkpt>
      <trkpt lat="39.54527833" lon="-8.39028333">
        <ele>48.0</ele>
        <time>2019-05-17T14:41:28.181Z</time>
      </trkpt>
      <trkpt lat="39.54527833" lon="-8.39028333">
        <ele>48.0</ele>
        <time>2019-05-17T14:41:29.159Z</time>
      </trkpt>
      <trkpt lat="39.545455" lon="-8.39033">
        <ele>46.0</ele>
        <time>2019-05-17T14:41:30.158Z</time>
      </trkpt>
      <trkpt lat="39.545455" lon="-8.39033">
        <ele>46.0</ele>
        <time>2019-05-17T14:41:31.183Z</time>
      </trkpt>
      <trkpt lat="39.54561833" lon="-8.390375">
        <ele>45.0</ele>
        <time>2019-05-17T14:41:32.191Z</time>
      </trkpt>
      <trkpt lat="39.54561833" lon="-8.390375">
        <ele>45.0</ele>
        <time>2019-05-17T14:41:33.162Z</time>
      </trkpt>
      <trkpt lat="39.545785" lon="-8.39042">
        <ele>43.0</ele>
        <time>2019-05-17T14:41:34.162Z</time>
      </trkpt>
      <trkpt lat="39.545785" lon="-8.39042">
        <ele>43.0</ele>
        <time>2019-05-17T14:41:35.169Z</time>
      </trkpt>
      <trkpt lat="39.545955" lon="-8.39046833">
        <ele>42.0</ele>
        <time>2019-05-17T14:41:36.166Z</time>
      </trkpt>
      <trkpt lat="39.545955" lon="-8.39046833">
        <ele>42.0</ele>
        <time>2019-05-17T14:41:37.152Z</time>
      </trkpt>
      <trkpt lat="39.54612333" lon="-8.390515">
        <ele>40.0</ele>
        <time>2019-05-17T14:41:38.187Z</time>
      </trkpt>
      <trkpt lat="39.54612333" lon="-8.390515">
        <ele>40.0</ele>
        <time>2019-05-17T14:41:39.177Z</time>
      </trkpt>
      <trkpt lat="39.54629333" lon="-8.39055333">
        <ele>39.0</ele>
        <time>2019-05-17T14:41:40.175Z</time>
      </trkpt>
      <trkpt lat="39.54629333" lon="-8.39055333">
        <ele>39.0</ele>
        <time>2019-05-17T14:41:41.186Z</time>
      </trkpt>
      <trkpt lat="39.54644667" lon="-8.39058333">
        <ele>38.0</ele>
        <time>2019-05-17T14:41:42.174Z</time>
      </trkpt>
      <trkpt lat="39.54644667" lon="-8.39058333">
        <ele>38.0</ele>
        <time>2019-05-17T14:41:43.179Z</time>
      </trkpt>
      <trkpt lat="39.54659667" lon="-8.39059833">
        <ele>37.0</ele>
        <time>2019-05-17T14:41:44.174Z</time>
      </trkpt>
      <trkpt lat="39.54659667" lon="-8.39059833">
        <ele>37.0</ele>
        <time>2019-05-17T14:41:45.162Z</time>
      </trkpt>
      <trkpt lat="39.54674167" lon="-8.39062833">
        <ele>37.0</ele>
        <time>2019-05-17T14:41:46.189Z</time>
      </trkpt>
      <trkpt lat="39.54674167" lon="-8.39062833">
        <ele>37.0</ele>
        <time>2019-05-17T14:41:47.182Z</time>
      </trkpt>
      <trkpt lat="39.54688" lon="-8.39064333">
        <ele>36.0</ele>
        <time>2019-05-17T14:41:48.165Z</time>
      </trkpt>
      <trkpt lat="39.54694667" lon="-8.39064667">
        <ele>36.0</ele>
        <time>2019-05-17T14:41:49.178Z</time>
      </trkpt>
      <trkpt lat="39.54701167" lon="-8.39065167">
        <ele>36.0</ele>
        <time>2019-05-17T14:41:50.150Z</time>
      </trkpt>
      <trkpt lat="39.54701167" lon="-8.39065167">
        <ele>36.0</ele>
        <time>2019-05-17T14:41:51.158Z</time>
      </trkpt>
      <trkpt lat="39.54714" lon="-8.39066167">
        <ele>36.0</ele>
        <time>2019-05-17T14:41:52.155Z</time>
      </trkpt>
      <trkpt lat="39.54714" lon="-8.39066167">
        <ele>36.0</ele>
        <time>2019-05-17T14:41:53.185Z</time>
      </trkpt>
      <trkpt lat="39.54726333" lon="-8.39066667">
        <ele>35.0</ele>
        <time>2019-05-17T14:41:54.163Z</time>
      </trkpt>
      <trkpt lat="39.54726333" lon="-8.39066667">
        <ele>35.0</ele>
        <time>2019-05-17T14:41:55.161Z</time>
      </trkpt>
      <trkpt lat="39.54738167" lon="-8.39067333">
        <ele>35.0</ele>
        <time>2019-05-17T14:41:56.173Z</time>
      </trkpt>
      <trkpt lat="39.54738167" lon="-8.39067333">
        <ele>35.0</ele>
        <time>2019-05-17T14:41:57.152Z</time>
      </trkpt>
      <trkpt lat="39.54749667" lon="-8.39067833">
        <ele>35.0</ele>
        <time>2019-05-17T14:41:58.155Z</time>
      </trkpt>
      <trkpt lat="39.54749667" lon="-8.39067833">
        <ele>35.0</ele>
        <time>2019-05-17T14:41:59.186Z</time>
      </trkpt>
      <trkpt lat="39.54760667" lon="-8.390685">
        <ele>35.0</ele>
        <time>2019-05-17T14:42:00.183Z</time>
      </trkpt>
      <trkpt lat="39.54760667" lon="-8.390685">
        <ele>35.0</ele>
        <time>2019-05-17T14:42:01.165Z</time>
      </trkpt>
      <trkpt lat="39.54771333" lon="-8.39068667">
        <ele>35.0</ele>
        <time>2019-05-17T14:42:02.185Z</time>
      </trkpt>
      <trkpt lat="39.54771333" lon="-8.39068667">
        <ele>35.0</ele>
        <time>2019-05-17T14:42:03.150Z</time>
      </trkpt>
      <trkpt lat="39.547815" lon="-8.39068833">
        <ele>35.0</ele>
        <time>2019-05-17T14:42:04.178Z</time>
      </trkpt>
      <trkpt lat="39.547815" lon="-8.39068833">
        <ele>35.0</ele>
        <time>2019-05-17T14:42:05.177Z</time>
      </trkpt>
      <trkpt lat="39.54791333" lon="-8.39069167">
        <ele>35.0</ele>
        <time>2019-05-17T14:42:06.175Z</time>
      </trkpt>
      <trkpt lat="39.54791333" lon="-8.39069167">
        <ele>35.0</ele>
        <time>2019-05-17T14:42:07.189Z</time>
      </trkpt>
      <trkpt lat="39.54800667" lon="-8.39068833">
        <ele>35.0</ele>
        <time>2019-05-17T14:42:08.195Z</time>
      </trkpt>
      <trkpt lat="39.54800667" lon="-8.39068833">
        <ele>35.0</ele>
        <time>2019-05-17T14:42:09.157Z</time>
      </trkpt>
      <trkpt lat="39.54809667" lon="-8.390685">
        <ele>35.0</ele>
        <time>2019-05-17T14:42:10.155Z</time>
      </trkpt>
      <trkpt lat="39.54814167" lon="-8.390685">
        <ele>35.0</ele>
        <time>2019-05-17T14:42:11.188Z</time>
      </trkpt>
      <trkpt lat="39.54814167" lon="-8.390685">
        <ele>35.0</ele>
        <time>2019-05-17T14:42:12.174Z</time>
      </trkpt>
      <trkpt lat="39.54823" lon="-8.39068167">
        <ele>35.0</ele>
        <time>2019-05-17T14:42:13.166Z</time>
      </trkpt>
      <trkpt lat="39.54827333" lon="-8.39067833">
        <ele>35.0</ele>
        <time>2019-05-17T14:42:14.176Z</time>
      </trkpt>
      <trkpt lat="39.54827333" lon="-8.39067833">
        <ele>35.0</ele>
        <time>2019-05-17T14:42:15.182Z</time>
      </trkpt>
      <trkpt lat="39.54836167" lon="-8.39067167">
        <ele>35.0</ele>
        <time>2019-05-17T14:42:16.175Z</time>
      </trkpt>
      <trkpt lat="39.54836167" lon="-8.39067167">
        <ele>35.0</ele>
        <time>2019-05-17T14:42:17.169Z</time>
      </trkpt>
      <trkpt lat="39.54844833" lon="-8.39066333">
        <ele>35.0</ele>
        <time>2019-05-17T14:42:18.178Z</time>
      </trkpt>
      <trkpt lat="39.54844833" lon="-8.39066333">
        <ele>35.0</ele>
        <time>2019-05-17T14:42:19.184Z</time>
      </trkpt>
      <trkpt lat="39.548535" lon="-8.390655">
        <ele>34.0</ele>
        <time>2019-05-17T14:42:20.176Z</time>
      </trkpt>
      <trkpt lat="39.548535" lon="-8.390655">
        <ele>34.0</ele>
        <time>2019-05-17T14:42:21.156Z</time>
      </trkpt>
      <trkpt lat="39.54862333" lon="-8.39064333">
        <ele>34.0</ele>
        <time>2019-05-17T14:42:22.162Z</time>
      </trkpt>
      <trkpt lat="39.54862333" lon="-8.39064333">
        <ele>34.0</ele>
        <time>2019-05-17T14:42:23.183Z</time>
      </trkpt>
      <trkpt lat="39.54871" lon="-8.39063">
        <ele>34.0</ele>
        <time>2019-05-17T14:42:24.174Z</time>
      </trkpt>
      <trkpt lat="39.54871" lon="-8.39063">
        <ele>34.0</ele>
        <time>2019-05-17T14:42:25.182Z</time>
      </trkpt>
      <trkpt lat="39.54879667" lon="-8.39061667">
        <ele>34.0</ele>
        <time>2019-05-17T14:42:26.170Z</time>
      </trkpt>
      <trkpt lat="39.54879667" lon="-8.39061667">
        <ele>34.0</ele>
        <time>2019-05-17T14:42:27.168Z</time>
      </trkpt>
      <trkpt lat="39.54888333" lon="-8.3906">
        <ele>34.0</ele>
        <time>2019-05-17T14:42:28.168Z</time>
      </trkpt>
      <trkpt lat="39.54888333" lon="-8.3906">
        <ele>34.0</ele>
        <time>2019-05-17T14:42:29.175Z</time>
      </trkpt>
      <trkpt lat="39.54897" lon="-8.39057667">
        <ele>34.0</ele>
        <time>2019-05-17T14:42:30.151Z</time>
      </trkpt>
      <trkpt lat="39.54897" lon="-8.39057667">
        <ele>34.0</ele>
        <time>2019-05-17T14:42:31.167Z</time>
      </trkpt>
      <trkpt lat="39.549055" lon="-8.39054667">
        <ele>34.0</ele>
        <time>2019-05-17T14:42:32.155Z</time>
      </trkpt>
      <trkpt lat="39.549055" lon="-8.39054667">
        <ele>34.0</ele>
        <time>2019-05-17T14:42:33.175Z</time>
      </trkpt>
      <trkpt lat="39.54913833" lon="-8.39050667">
        <ele>34.0</ele>
        <time>2019-05-17T14:42:34.165Z</time>
      </trkpt>
      <trkpt lat="39.54913833" lon="-8.39050667">
        <ele>34.0</ele>
        <time>2019-05-17T14:42:35.156Z</time>
      </trkpt>
      <trkpt lat="39.54921333" lon="-8.39046167">
        <ele>34.0</ele>
        <time>2019-05-17T14:42:36.195Z</time>
      </trkpt>
      <trkpt lat="39.54924833" lon="-8.39043667">
        <ele>34.0</ele>
        <time>2019-05-17T14:42:37.173Z</time>
      </trkpt>
      <trkpt lat="39.54924833" lon="-8.39043667">
        <ele>34.0</ele>
        <time>2019-05-17T14:42:38.187Z</time>
      </trkpt>
      <trkpt lat="39.54931" lon="-8.39038667">
        <ele>35.0</ele>
        <time>2019-05-17T14:42:39.195Z</time>
      </trkpt>
      <trkpt lat="39.54934" lon="-8.39036167">
        <ele>35.0</ele>
        <time>2019-05-17T14:42:40.179Z</time>
      </trkpt>
      <trkpt lat="39.54934" lon="-8.39036167">
        <ele>35.0</ele>
        <time>2019-05-17T14:42:41.150Z</time>
      </trkpt>
      <trkpt lat="39.54939833" lon="-8.39030833">
        <ele>35.0</ele>
        <time>2019-05-17T14:42:42.154Z</time>
      </trkpt>
      <trkpt lat="39.54939833" lon="-8.39030833">
        <ele>35.0</ele>
        <time>2019-05-17T14:42:43.171Z</time>
      </trkpt>
      <trkpt lat="39.54945667" lon="-8.39025333">
        <ele>35.0</ele>
        <time>2019-05-17T14:42:44.185Z</time>
      </trkpt>
      <trkpt lat="39.54945667" lon="-8.39025333">
        <ele>35.0</ele>
        <time>2019-05-17T14:42:45.162Z</time>
      </trkpt>
      <trkpt lat="39.54951833" lon="-8.39019833">
        <ele>35.0</ele>
        <time>2019-05-17T14:42:46.157Z</time>
      </trkpt>
      <trkpt lat="39.54951833" lon="-8.39019833">
        <ele>35.0</ele>
        <time>2019-05-17T14:42:47.164Z</time>
      </trkpt>
      <trkpt lat="39.54958167" lon="-8.39013833">
        <ele>35.0</ele>
        <time>2019-05-17T14:42:48.150Z</time>
      </trkpt>
      <trkpt lat="39.54958167" lon="-8.39013833">
        <ele>35.0</ele>
        <time>2019-05-17T14:42:49.173Z</time>
      </trkpt>
      <trkpt lat="39.549645" lon="-8.39008">
        <ele>35.0</ele>
        <time>2019-05-17T14:42:50.175Z</time>
      </trkpt>
      <trkpt lat="39.549645" lon="-8.39008">
        <ele>35.0</ele>
        <time>2019-05-17T14:42:51.159Z</time>
      </trkpt>
      <trkpt lat="39.54970833" lon="-8.39002167">
        <ele>35.0</ele>
        <time>2019-05-17T14:42:52.160Z</time>
      </trkpt>
      <trkpt lat="39.54970833" lon="-8.39002167">
        <ele>35.0</ele>
        <time>2019-05-17T14:42:53.187Z</time>
      </trkpt>
      <trkpt lat="39.54977" lon="-8.38996667">
        <ele>35.0</ele>
        <time>2019-05-17T14:42:54.155Z</time>
      </trkpt>
      <trkpt lat="39.54977" lon="-8.38996667">
        <ele>35.0</ele>
        <time>2019-05-17T14:42:55.163Z</time>
      </trkpt>
      <trkpt lat="39.54983" lon="-8.389915">
        <ele>35.0</ele>
        <time>2019-05-17T14:42:56.152Z</time>
      </trkpt>
      <trkpt lat="39.54986" lon="-8.38989">
        <ele>35.0</ele>
        <time>2019-05-17T14:42:57.194Z</time>
      </trkpt>
      <trkpt lat="39.54986" lon="-8.38989">
        <ele>35.0</ele>
        <time>2019-05-17T14:42:58.175Z</time>
      </trkpt>
      <trkpt lat="39.549925" lon="-8.38984333">
        <ele>35.0</ele>
        <time>2019-05-17T14:42:59.164Z</time>
      </trkpt>
      <trkpt lat="39.54995833" lon="-8.38982333">
        <ele>35.0</ele>
        <time>2019-05-17T14:43:00.165Z</time>
      </trkpt>
      <trkpt lat="39.54995833" lon="-8.38982333">
        <ele>35.0</ele>
        <time>2019-05-17T14:43:01.162Z</time>
      </trkpt>
      <trkpt lat="39.55002667" lon="-8.38979">
        <ele>35.0</ele>
        <time>2019-05-17T14:43:02.169Z</time>
      </trkpt>
      <trkpt lat="39.55002667" lon="-8.38979">
        <ele>35.0</ele>
        <time>2019-05-17T14:43:03.167Z</time>
      </trkpt>
      <trkpt lat="39.55010167" lon="-8.389765">
        <ele>34.0</ele>
        <time>2019-05-17T14:43:04.190Z</time>
      </trkpt>
      <trkpt lat="39.55010167" lon="-8.389765">
        <ele>34.0</ele>
        <time>2019-05-17T14:43:05.189Z</time>
      </trkpt>
      <trkpt lat="39.55017667" lon="-8.38975">
        <ele>34.0</ele>
        <time>2019-05-17T14:43:06.150Z</time>
      </trkpt>
      <trkpt lat="39.55017667" lon="-8.38975">
        <ele>34.0</ele>
        <time>2019-05-17T14:43:07.155Z</time>
      </trkpt>
      <trkpt lat="39.55025" lon="-8.38974667">
        <ele>34.0</ele>
        <time>2019-05-17T14:43:08.199Z</time>
      </trkpt>
      <trkpt lat="39.55025" lon="-8.38974667">
        <ele>34.0</ele>
        <time>2019-05-17T14:43:09.175Z</time>
      </trkpt>
      <trkpt lat="39.55032167" lon="-8.38975333">
        <ele>34.0</ele>
        <time>2019-05-17T14:43:10.178Z</time>
      </trkpt>
      <trkpt lat="39.55032167" lon="-8.38975333">
        <ele>34.0</ele>
        <time>2019-05-17T14:43:11.179Z</time>
      </trkpt>
      <trkpt lat="39.55038833" lon="-8.38977167">
        <ele>34.0</ele>
        <time>2019-05-17T14:43:12.173Z</time>
      </trkpt>
      <trkpt lat="39.55038833" lon="-8.38977167">
        <ele>34.0</ele>
        <time>2019-05-17T14:43:13.178Z</time>
      </trkpt>
      <trkpt lat="39.550455" lon="-8.38979667">
        <ele>34.0</ele>
        <time>2019-05-17T14:43:14.195Z</time>
      </trkpt>
      <trkpt lat="39.550455" lon="-8.38979667">
        <ele>34.0</ele>
        <time>2019-05-17T14:43:15.160Z</time>
      </trkpt>
      <trkpt lat="39.55052167" lon="-8.38982833">
        <ele>34.0</ele>
        <time>2019-05-17T14:43:16.157Z</time>
      </trkpt>
      <trkpt lat="39.55052167" lon="-8.38982833">
        <ele>34.0</ele>
        <time>2019-05-17T14:43:17.180Z</time>
      </trkpt>
      <trkpt lat="39.55058667" lon="-8.38986333">
        <ele>34.0</ele>
        <time>2019-05-17T14:43:18.181Z</time>
      </trkpt>
      <trkpt lat="39.55058667" lon="-8.38986333">
        <ele>34.0</ele>
        <time>2019-05-17T14:43:19.170Z</time>
      </trkpt>
      <trkpt lat="39.55065" lon="-8.38989">
        <ele>34.0</ele>
        <time>2019-05-17T14:43:20.161Z</time>
      </trkpt>
      <trkpt lat="39.55065" lon="-8.38989">
        <ele>34.0</ele>
        <time>2019-05-17T14:43:21.168Z</time>
      </trkpt>
      <trkpt lat="39.55071333" lon="-8.389895">
        <ele>34.0</ele>
        <time>2019-05-17T14:43:22.170Z</time>
      </trkpt>
      <trkpt lat="39.55071333" lon="-8.389895">
        <ele>34.0</ele>
        <time>2019-05-17T14:43:23.172Z</time>
      </trkpt>
      <trkpt lat="39.55076833" lon="-8.389875">
        <ele>34.0</ele>
        <time>2019-05-17T14:43:24.185Z</time>
      </trkpt>
      <trkpt lat="39.55076833" lon="-8.389875">
        <ele>34.0</ele>
        <time>2019-05-17T14:43:25.188Z</time>
      </trkpt>
      <trkpt lat="39.55081167" lon="-8.38983667">
        <ele>34.0</ele>
        <time>2019-05-17T14:43:26.150Z</time>
      </trkpt>
      <trkpt lat="39.55081167" lon="-8.38983667">
        <ele>34.0</ele>
        <time>2019-05-17T14:43:27.168Z</time>
      </trkpt>
      <trkpt lat="39.550835" lon="-8.389785">
        <ele>34.0</ele>
        <time>2019-05-17T14:43:28.150Z</time>
      </trkpt>
      <trkpt lat="39.55084167" lon="-8.38975833">
        <ele>34.0</ele>
        <time>2019-05-17T14:43:29.158Z</time>
      </trkpt>
      <trkpt lat="39.55084167" lon="-8.38975833">
        <ele>34.0</ele>
        <time>2019-05-17T14:43:30.163Z</time>
      </trkpt>
      <trkpt lat="39.55084667" lon="-8.38969167">
        <ele>35.0</ele>
        <time>2019-05-17T14:43:31.171Z</time>
      </trkpt>
      <trkpt lat="39.55085" lon="-8.389655">
        <ele>35.0</ele>
        <time>2019-05-17T14:43:32.175Z</time>
      </trkpt>
      <trkpt lat="39.55085" lon="-8.389655">
        <ele>35.0</ele>
        <time>2019-05-17T14:43:33.155Z</time>
      </trkpt>
      <trkpt lat="39.550865" lon="-8.38957833">
        <ele>35.0</ele>
        <time>2019-05-17T14:43:34.173Z</time>
      </trkpt>
      <trkpt lat="39.550865" lon="-8.38957833">
        <ele>35.0</ele>
        <time>2019-05-17T14:43:35.157Z</time>
      </trkpt>
      <trkpt lat="39.550865" lon="-8.38949833">
        <ele>36.0</ele>
        <time>2019-05-17T14:43:36.180Z</time>
      </trkpt>
      <trkpt lat="39.550865" lon="-8.38949833">
        <ele>36.0</ele>
        <time>2019-05-17T14:43:37.188Z</time>
      </trkpt>
      <trkpt lat="39.55086167" lon="-8.38945">
        <ele>36.0</ele>
        <time>2019-05-17T14:43:38.195Z</time>
      </trkpt>
      <trkpt lat="39.55086167" lon="-8.38945">
        <ele>36.0</ele>
        <time>2019-05-17T14:43:39.186Z</time>
      </trkpt>
      <trkpt lat="39.55085833" lon="-8.38944333">
        <ele>36.0</ele>
        <time>2019-05-17T14:43:40.183Z</time>
      </trkpt>
      <trkpt lat="39.55085833" lon="-8.38944333">
        <ele>36.0</ele>
        <time>2019-05-17T14:43:41.162Z</time>
      </trkpt>
      <trkpt lat="39.55085667" lon="-8.38944">
        <ele>36.0</ele>
        <time>2019-05-17T14:43:42.175Z</time>
      </trkpt>
      <trkpt lat="39.55085667" lon="-8.38944">
        <ele>36.0</ele>
        <time>2019-05-17T14:43:43.180Z</time>
      </trkpt>
      <trkpt lat="39.55085667" lon="-8.38944">
        <ele>36.0</ele>
        <time>2019-05-17T14:43:44.186Z</time>
      </trkpt>
      <trkpt lat="39.55085667" lon="-8.38944">
        <ele>36.0</ele>
        <time>2019-05-17T14:43:45.152Z</time>
      </trkpt>
      <trkpt lat="39.55085667" lon="-8.38944">
        <ele>36.0</ele>
        <time>2019-05-17T14:43:46.178Z</time>
      </trkpt>
      <trkpt lat="39.55085667" lon="-8.38944">
        <ele>36.0</ele>
        <time>2019-05-17T14:43:47.170Z</time>
      </trkpt>
      <trkpt lat="39.55085667" lon="-8.38944">
        <ele>36.0</ele>
        <time>2019-05-17T14:43:48.164Z</time>
      </trkpt>
      <trkpt lat="39.55085667" lon="-8.38944">
        <ele>36.0</ele>
        <time>2019-05-17T14:43:49.169Z</time>
      </trkpt>
      <trkpt lat="39.55085667" lon="-8.38944">
        <ele>36.0</ele>
        <time>2019-05-17T14:43:50.169Z</time>
      </trkpt>
      <trkpt lat="39.55085667" lon="-8.38944">
        <ele>36.0</ele>
        <time>2019-05-17T14:43:51.170Z</time>
      </trkpt>
      <trkpt lat="39.55085667" lon="-8.38944">
        <ele>36.0</ele>
        <time>2019-05-17T14:43:52.170Z</time>
      </trkpt>
      <trkpt lat="39.55085667" lon="-8.38944">
        <ele>36.0</ele>
        <time>2019-05-17T14:43:53.164Z</time>
      </trkpt>
      <trkpt lat="39.55085667" lon="-8.38944">
        <ele>36.0</ele>
        <time>2019-05-17T14:43:54.170Z</time>
      </trkpt>
      <trkpt lat="39.55085667" lon="-8.38944">
        <ele>36.0</ele>
        <time>2019-05-17T14:43:55.170Z</time>
      </trkpt>
      <trkpt lat="39.55085667" lon="-8.38944">
        <ele>36.0</ele>
        <time>2019-05-17T14:43:56.166Z</time>
      </trkpt>
      <trkpt lat="39.55085667" lon="-8.38944">
        <ele>36.0</ele>
        <time>2019-05-17T14:43:57.169Z</time>
      </trkpt>
      <trkpt lat="39.55085667" lon="-8.38944">
        <ele>36.0</ele>
        <time>2019-05-17T14:43:58.170Z</time>
      </trkpt>
      <trkpt lat="39.55085667" lon="-8.38944">
        <ele>36.0</ele>
        <time>2019-05-17T14:43:59.170Z</time>
      </trkpt>
      <trkpt lat="39.55085667" lon="-8.38944">
        <ele>36.0</ele>
        <time>2019-05-17T14:44:00.164Z</time>
      </trkpt>
      <trkpt lat="39.55085667" lon="-8.38944">
        <ele>36.0</ele>
        <time>2019-05-17T14:44:01.170Z</time>
      </trkpt>
      <trkpt lat="39.55085667" lon="-8.38944">
        <ele>36.0</ele>
        <time>2019-05-17T14:44:02.172Z</time>
      </trkpt>
      <trkpt lat="39.55085667" lon="-8.38944">
        <ele>36.0</ele>
        <time>2019-05-17T14:44:03.169Z</time>
      </trkpt>
      <trkpt lat="39.55085667" lon="-8.38944">
        <ele>36.0</ele>
        <time>2019-05-17T14:44:04.164Z</time>
      </trkpt>
      <trkpt lat="39.55085667" lon="-8.38944">
        <ele>36.0</ele>
        <time>2019-05-17T14:44:05.167Z</time>
      </trkpt>
      <trkpt lat="39.55085667" lon="-8.38944">
        <ele>36.0</ele>
        <time>2019-05-17T14:44:06.165Z</time>
      </trkpt>
      <trkpt lat="39.55085667" lon="-8.38944">
        <ele>36.0</ele>
        <time>2019-05-17T14:44:07.172Z</time>
      </trkpt>
      <trkpt lat="39.55085667" lon="-8.38944">
        <ele>36.0</ele>
        <time>2019-05-17T14:44:08.172Z</time>
      </trkpt>
      <trkpt lat="39.55085667" lon="-8.38944">
        <ele>36.0</ele>
        <time>2019-05-17T14:44:09.167Z</time>
      </trkpt>
      <trkpt lat="39.55085667" lon="-8.38944">
        <ele>36.0</ele>
        <time>2019-05-17T14:44:10.168Z</time>
      </trkpt>
      <trkpt lat="39.55085667" lon="-8.38944">
        <ele>36.0</ele>
        <time>2019-05-17T14:44:11.174Z</time>
      </trkpt>
      <trkpt lat="39.55085667" lon="-8.38944">
        <ele>36.0</ele>
        <time>2019-05-17T14:44:12.179Z</time>
      </trkpt>
      <trkpt lat="39.55085667" lon="-8.38944">
        <ele>36.0</ele>
        <time>2019-05-17T14:44:13.170Z</time>
      </trkpt>
      <trkpt lat="39.55085667" lon="-8.38944">
        <ele>36.0</ele>
        <time>2019-05-17T14:44:14.173Z</time>
      </trkpt>
      <trkpt lat="39.55085667" lon="-8.38944">
        <ele>36.0</ele>
        <time>2019-05-17T14:44:15.165Z</time>
      </trkpt>
      <trkpt lat="39.55085667" lon="-8.38944">
        <ele>36.0</ele>
        <time>2019-05-17T14:44:16.162Z</time>
      </trkpt>
      <trkpt lat="39.55085667" lon="-8.38944">
        <ele>36.0</ele>
        <time>2019-05-17T14:44:17.170Z</time>
      </trkpt>
      <trkpt lat="39.55085667" lon="-8.38944">
        <ele>36.0</ele>
        <time>2019-05-17T14:44:18.168Z</time>
      </trkpt>
      <trkpt lat="39.55085667" lon="-8.38944">
        <ele>36.0</ele>
        <time>2019-05-17T14:44:19.170Z</time>
      </trkpt>
      <trkpt lat="39.55085667" lon="-8.38944">
        <ele>36.0</ele>
        <time>2019-05-17T14:44:20.172Z</time>
      </trkpt>
      <trkpt lat="39.55085667" lon="-8.38944">
        <ele>36.0</ele>
        <time>2019-05-17T14:44:21.161Z</time>
      </trkpt>
      <trkpt lat="39.55085667" lon="-8.38944">
        <ele>36.0</ele>
        <time>2019-05-17T14:44:22.170Z</time>
      </trkpt>
      <trkpt lat="39.55085667" lon="-8.38944">
        <ele>36.0</ele>
        <time>2019-05-17T14:44:23.165Z</time>
      </trkpt>
      <trkpt lat="39.55085667" lon="-8.38944">
        <ele>36.0</ele>
        <time>2019-05-17T14:44:24.170Z</time>
      </trkpt>
      <trkpt lat="39.55085667" lon="-8.38944">
        <ele>36.0</ele>
        <time>2019-05-17T14:44:25.165Z</time>
      </trkpt>
      <trkpt lat="39.55085667" lon="-8.38944">
        <ele>36.0</ele>
        <time>2019-05-17T14:44:26.156Z</time>
      </trkpt>
      <trkpt lat="39.55085667" lon="-8.38944">
        <ele>36.0</ele>
        <time>2019-05-17T14:44:27.153Z</time>
      </trkpt>
      <trkpt lat="39.55085667" lon="-8.38944">
        <ele>36.0</ele>
        <time>2019-05-17T14:44:28.150Z</time>
      </trkpt>
      <trkpt lat="39.55085667" lon="-8.38944">
        <ele>36.0</ele>
        <time>2019-05-17T14:44:29.175Z</time>
      </trkpt>
      <trkpt lat="39.55085167" lon="-8.389415">
        <ele>35.0</ele>
        <time>2019-05-17T14:44:30.170Z</time>
      </trkpt>
      <trkpt lat="39.55085167" lon="-8.389415">
        <ele>35.0</ele>
        <time>2019-05-17T14:44:31.165Z</time>
      </trkpt>
      <trkpt lat="39.550885" lon="-8.38938833">
        <ele>35.0</ele>
        <time>2019-05-17T14:44:32.173Z</time>
      </trkpt>
      <trkpt lat="39.550885" lon="-8.38938833">
        <ele>35.0</ele>
        <time>2019-05-17T14:44:33.170Z</time>
      </trkpt>
      <trkpt lat="39.55092333" lon="-8.38935833">
        <ele>35.0</ele>
        <time>2019-05-17T14:44:34.170Z</time>
      </trkpt>
      <trkpt lat="39.55092333" lon="-8.38935833">
        <ele>35.0</ele>
        <time>2019-05-17T14:44:35.165Z</time>
      </trkpt>
      <trkpt lat="39.55096833" lon="-8.38932833">
        <ele>35.0</ele>
        <time>2019-05-17T14:44:36.170Z</time>
      </trkpt>
      <trkpt lat="39.55099" lon="-8.389315">
        <ele>35.0</ele>
        <time>2019-05-17T14:44:37.183Z</time>
      </trkpt>
      <trkpt lat="39.55100833" lon="-8.38929833">
        <ele>34.0</ele>
        <time>2019-05-17T14:44:38.172Z</time>
      </trkpt>
      <trkpt lat="39.55100833" lon="-8.38929833">
        <ele>34.0</ele>
        <time>2019-05-17T14:44:39.170Z</time>
      </trkpt>
      <trkpt lat="39.55105167" lon="-8.38928833">
        <ele>34.0</ele>
        <time>2019-05-17T14:44:40.157Z</time>
      </trkpt>
      <trkpt lat="39.55105167" lon="-8.38928833">
        <ele>34.0</ele>
        <time>2019-05-17T14:44:41.176Z</time>
      </trkpt>
      <trkpt lat="39.55110333" lon="-8.38933">
        <ele>33.0</ele>
        <time>2019-05-17T14:44:42.176Z</time>
      </trkpt>
      <trkpt lat="39.55110333" lon="-8.38933">
        <ele>33.0</ele>
        <time>2019-05-17T14:44:43.181Z</time>
      </trkpt>
      <trkpt lat="39.55115833" lon="-8.389385">
        <ele>33.0</ele>
        <time>2019-05-17T14:44:44.173Z</time>
      </trkpt>
      <trkpt lat="39.55115833" lon="-8.389385">
        <ele>33.0</ele>
        <time>2019-05-17T14:44:45.163Z</time>
      </trkpt>
      <trkpt lat="39.55120833" lon="-8.38944333">
        <ele>33.0</ele>
        <time>2019-05-17T14:44:46.161Z</time>
      </trkpt>
      <trkpt lat="39.55120833" lon="-8.38944333">
        <ele>33.0</ele>
        <time>2019-05-17T14:44:47.169Z</time>
      </trkpt>
      <trkpt lat="39.55124333" lon="-8.389515">
        <ele>33.0</ele>
        <time>2019-05-17T14:44:48.164Z</time>
      </trkpt>
      <trkpt lat="39.55124333" lon="-8.389515">
        <ele>33.0</ele>
        <time>2019-05-17T14:44:49.179Z</time>
      </trkpt>
      <trkpt lat="39.55126667" lon="-8.389605">
        <ele>32.0</ele>
        <time>2019-05-17T14:44:50.175Z</time>
      </trkpt>
      <trkpt lat="39.55126667" lon="-8.389605">
        <ele>32.0</ele>
        <time>2019-05-17T14:44:51.159Z</time>
      </trkpt>
      <trkpt lat="39.551305" lon="-8.389685">
        <ele>33.0</ele>
        <time>2019-05-17T14:44:52.185Z</time>
      </trkpt>
      <trkpt lat="39.551305" lon="-8.389685">
        <ele>33.0</ele>
        <time>2019-05-17T14:44:53.175Z</time>
      </trkpt>
      <trkpt lat="39.55136667" lon="-8.38974667">
        <ele>33.0</ele>
        <time>2019-05-17T14:44:54.171Z</time>
      </trkpt>
      <trkpt lat="39.5514" lon="-8.38977">
        <ele>32.0</ele>
        <time>2019-05-17T14:44:55.175Z</time>
      </trkpt>
      <trkpt lat="39.55143167" lon="-8.38979167">
        <ele>32.0</ele>
        <time>2019-05-17T14:44:56.155Z</time>
      </trkpt>
      <trkpt lat="39.55143167" lon="-8.38979167">
        <ele>32.0</ele>
        <time>2019-05-17T14:44:57.164Z</time>
      </trkpt>
      <trkpt lat="39.55149" lon="-8.389835">
        <ele>33.0</ele>
        <time>2019-05-17T14:44:58.185Z</time>
      </trkpt>
      <trkpt lat="39.55152167" lon="-8.38985833">
        <ele>33.0</ele>
        <time>2019-05-17T14:44:59.184Z</time>
      </trkpt>
      <trkpt lat="39.55155167" lon="-8.38988667">
        <ele>33.0</ele>
        <time>2019-05-17T14:45:00.154Z</time>
      </trkpt>
      <trkpt lat="39.55155167" lon="-8.38988667">
        <ele>33.0</ele>
        <time>2019-05-17T14:45:01.155Z</time>
      </trkpt>
      <trkpt lat="39.55161833" lon="-8.38992833">
        <ele>33.0</ele>
        <time>2019-05-17T14:45:02.160Z</time>
      </trkpt>
      <trkpt lat="39.55161833" lon="-8.38992833">
        <ele>33.0</ele>
        <time>2019-05-17T14:45:03.172Z</time>
      </trkpt>
      <trkpt lat="39.55167667" lon="-8.38996833">
        <ele>33.0</ele>
        <time>2019-05-17T14:45:04.170Z</time>
      </trkpt>
      <trkpt lat="39.55167667" lon="-8.38996833">
        <ele>33.0</ele>
        <time>2019-05-17T14:45:05.185Z</time>
      </trkpt>
      <trkpt lat="39.55173833" lon="-8.39000333">
        <ele>33.0</ele>
        <time>2019-05-17T14:45:06.150Z</time>
      </trkpt>
      <trkpt lat="39.55173833" lon="-8.39000333">
        <ele>33.0</ele>
        <time>2019-05-17T14:45:07.157Z</time>
      </trkpt>
      <trkpt lat="39.55179167" lon="-8.39003667">
        <ele>33.0</ele>
        <time>2019-05-17T14:45:08.180Z</time>
      </trkpt>
      <trkpt lat="39.55179167" lon="-8.39003667">
        <ele>33.0</ele>
        <time>2019-05-17T14:45:09.182Z</time>
      </trkpt>
      <trkpt lat="39.55182167" lon="-8.390085">
        <ele>32.0</ele>
        <time>2019-05-17T14:45:10.175Z</time>
      </trkpt>
      <trkpt lat="39.55182167" lon="-8.390085">
        <ele>32.0</ele>
        <time>2019-05-17T14:45:11.188Z</time>
      </trkpt>
      <trkpt lat="39.551855" lon="-8.39012333">
        <ele>33.0</ele>
        <time>2019-05-17T14:45:12.156Z</time>
      </trkpt>
      <trkpt lat="39.551855" lon="-8.39012333">
        <ele>33.0</ele>
        <time>2019-05-17T14:45:13.183Z</time>
      </trkpt>
      <trkpt lat="39.55190333" lon="-8.39018">
        <ele>33.0</ele>
        <time>2019-05-17T14:45:14.194Z</time>
      </trkpt>
      <trkpt lat="39.55192667" lon="-8.39020333">
        <ele>34.0</ele>
        <time>2019-05-17T14:45:15.175Z</time>
      </trkpt>
      <trkpt lat="39.55192667" lon="-8.39020333">
        <ele>34.0</ele>
        <time>2019-05-17T14:45:16.164Z</time>
      </trkpt>
      <trkpt lat="39.55197167" lon="-8.39025167">
        <ele>34.0</ele>
        <time>2019-05-17T14:45:17.175Z</time>
      </trkpt>
      <trkpt lat="39.55197167" lon="-8.39025167">
        <ele>34.0</ele>
        <time>2019-05-17T14:45:18.184Z</time>
      </trkpt>
      <trkpt lat="39.55200833" lon="-8.39030333">
        <ele>35.0</ele>
        <time>2019-05-17T14:45:19.179Z</time>
      </trkpt>
      <trkpt lat="39.55202833" lon="-8.39032667">
        <ele>35.0</ele>
        <time>2019-05-17T14:45:20.153Z</time>
      </trkpt>
      <trkpt lat="39.55202833" lon="-8.39032667">
        <ele>35.0</ele>
        <time>2019-05-17T14:45:21.161Z</time>
      </trkpt>
      <trkpt lat="39.55206667" lon="-8.39037833">
        <ele>36.0</ele>
        <time>2019-05-17T14:45:22.163Z</time>
      </trkpt>
      <trkpt lat="39.55206667" lon="-8.39037833">
        <ele>36.0</ele>
        <time>2019-05-17T14:45:23.160Z</time>
      </trkpt>
      <trkpt lat="39.552105" lon="-8.39043">
        <ele>37.0</ele>
        <time>2019-05-17T14:45:24.154Z</time>
      </trkpt>
      <trkpt lat="39.552105" lon="-8.39043">
        <ele>37.0</ele>
        <time>2019-05-17T14:45:25.167Z</time>
      </trkpt>
      <trkpt lat="39.55213833" lon="-8.39048167">
        <ele>37.0</ele>
        <time>2019-05-17T14:45:26.166Z</time>
      </trkpt>
      <trkpt lat="39.55213833" lon="-8.39048167">
        <ele>37.0</ele>
        <time>2019-05-17T14:45:27.175Z</time>
      </trkpt>
      <trkpt lat="39.552175" lon="-8.39053333">
        <ele>38.0</ele>
        <time>2019-05-17T14:45:28.153Z</time>
      </trkpt>
      <trkpt lat="39.552175" lon="-8.39053333">
        <ele>38.0</ele>
        <time>2019-05-17T14:45:29.181Z</time>
      </trkpt>
      <trkpt lat="39.552215" lon="-8.39057333">
        <ele>38.0</ele>
        <time>2019-05-17T14:45:30.175Z</time>
      </trkpt>
      <trkpt lat="39.552215" lon="-8.39057333">
        <ele>38.0</ele>
        <time>2019-05-17T14:45:31.171Z</time>
      </trkpt>
      <trkpt lat="39.55224667" lon="-8.39060167">
        <ele>38.0</ele>
        <time>2019-05-17T14:45:32.172Z</time>
      </trkpt>
      <trkpt lat="39.55224667" lon="-8.39060167">
        <ele>38.0</ele>
        <time>2019-05-17T14:45:33.184Z</time>
      </trkpt>
      <trkpt lat="39.55227333" lon="-8.39061833">
        <ele>39.0</ele>
        <time>2019-05-17T14:45:34.171Z</time>
      </trkpt>
      <trkpt lat="39.55227333" lon="-8.39061833">
        <ele>39.0</ele>
        <time>2019-05-17T14:45:35.159Z</time>
      </trkpt>
      <trkpt lat="39.55229167" lon="-8.39063167">
        <ele>39.0</ele>
        <time>2019-05-17T14:45:36.150Z</time>
      </trkpt>
      <trkpt lat="39.55229167" lon="-8.39063167">
        <ele>39.0</ele>
        <time>2019-05-17T14:45:37.159Z</time>
      </trkpt>
      <trkpt lat="39.55229833" lon="-8.390635">
        <ele>39.0</ele>
        <time>2019-05-17T14:45:38.155Z</time>
      </trkpt>
      <trkpt lat="39.55229833" lon="-8.390635">
        <ele>39.0</ele>
        <time>2019-05-17T14:45:39.177Z</time>
      </trkpt>
      <trkpt lat="39.552325" lon="-8.39065667">
        <ele>39.0</ele>
        <time>2019-05-17T14:45:40.183Z</time>
      </trkpt>
      <trkpt lat="39.552325" lon="-8.39065667">
        <ele>39.0</ele>
        <time>2019-05-17T14:45:41.189Z</time>
      </trkpt>
      <trkpt lat="39.55237667" lon="-8.39069333">
        <ele>40.0</ele>
        <time>2019-05-17T14:45:42.173Z</time>
      </trkpt>
      <trkpt lat="39.55237667" lon="-8.39069333">
        <ele>40.0</ele>
        <time>2019-05-17T14:45:43.162Z</time>
      </trkpt>
      <trkpt lat="39.55243333" lon="-8.390755">
        <ele>40.0</ele>
        <time>2019-05-17T14:45:44.160Z</time>
      </trkpt>
      <trkpt lat="39.55243333" lon="-8.390755">
        <ele>40.0</ele>
        <time>2019-05-17T14:45:45.162Z</time>
      </trkpt>
      <trkpt lat="39.55247333" lon="-8.39082667">
        <ele>40.0</ele>
        <time>2019-05-17T14:45:46.152Z</time>
      </trkpt>
      <trkpt lat="39.55247333" lon="-8.39082667">
        <ele>40.0</ele>
        <time>2019-05-17T14:45:47.180Z</time>
      </trkpt>
      <trkpt lat="39.55249333" lon="-8.39091167">
        <ele>40.0</ele>
        <time>2019-05-17T14:45:48.170Z</time>
      </trkpt>
      <trkpt lat="39.55249333" lon="-8.39091167">
        <ele>40.0</ele>
        <time>2019-05-17T14:45:49.189Z</time>
      </trkpt>
      <trkpt lat="39.55249333" lon="-8.39099667">
        <ele>39.0</ele>
        <time>2019-05-17T14:45:50.178Z</time>
      </trkpt>
      <trkpt lat="39.55249333" lon="-8.39099667">
        <ele>39.0</ele>
        <time>2019-05-17T14:45:51.183Z</time>
      </trkpt>
      <trkpt lat="39.55249333" lon="-8.39108">
        <ele>40.0</ele>
        <time>2019-05-17T14:45:52.180Z</time>
      </trkpt>
      <trkpt lat="39.55249333" lon="-8.39108">
        <ele>40.0</ele>
        <time>2019-05-17T14:45:53.179Z</time>
      </trkpt>
      <trkpt lat="39.55250167" lon="-8.39115667">
        <ele>40.0</ele>
        <time>2019-05-17T14:45:54.173Z</time>
      </trkpt>
      <trkpt lat="39.55250167" lon="-8.39115667">
        <ele>40.0</ele>
        <time>2019-05-17T14:45:55.164Z</time>
      </trkpt>
      <trkpt lat="39.55252167" lon="-8.39123">
        <ele>41.0</ele>
        <time>2019-05-17T14:45:56.157Z</time>
      </trkpt>
      <trkpt lat="39.55252167" lon="-8.39123">
        <ele>41.0</ele>
        <time>2019-05-17T14:45:57.156Z</time>
      </trkpt>
      <trkpt lat="39.55254333" lon="-8.391295">
        <ele>41.0</ele>
        <time>2019-05-17T14:45:58.151Z</time>
      </trkpt>
      <trkpt lat="39.55254333" lon="-8.391295">
        <ele>41.0</ele>
        <time>2019-05-17T14:45:59.176Z</time>
      </trkpt>
      <trkpt lat="39.55256333" lon="-8.39135">
        <ele>42.0</ele>
        <time>2019-05-17T14:46:00.173Z</time>
      </trkpt>
      <trkpt lat="39.55256333" lon="-8.39135">
        <ele>42.0</ele>
        <time>2019-05-17T14:46:01.164Z</time>
      </trkpt>
      <trkpt lat="39.55258333" lon="-8.39140167">
        <ele>43.0</ele>
        <time>2019-05-17T14:46:02.158Z</time>
      </trkpt>
      <trkpt lat="39.55258333" lon="-8.39140167">
        <ele>43.0</ele>
        <time>2019-05-17T14:46:03.165Z</time>
      </trkpt>
      <trkpt lat="39.55260667" lon="-8.39144667">
        <ele>43.0</ele>
        <time>2019-05-17T14:46:04.151Z</time>
      </trkpt>
      <trkpt lat="39.55260667" lon="-8.39144667">
        <ele>43.0</ele>
        <time>2019-05-17T14:46:05.180Z</time>
      </trkpt>
      <trkpt lat="39.55263" lon="-8.391485">
        <ele>43.0</ele>
        <time>2019-05-17T14:46:06.169Z</time>
      </trkpt>
      <trkpt lat="39.55263" lon="-8.391485">
        <ele>43.0</ele>
        <time>2019-05-17T14:46:07.178Z</time>
      </trkpt>
      <trkpt lat="39.55264833" lon="-8.39152167">
        <ele>44.0</ele>
        <time>2019-05-17T14:46:08.173Z</time>
      </trkpt>
      <trkpt lat="39.55264833" lon="-8.39152167">
        <ele>44.0</ele>
        <time>2019-05-17T14:46:09.155Z</time>
      </trkpt>
      <trkpt lat="39.55266667" lon="-8.39156333">
        <ele>45.0</ele>
        <time>2019-05-17T14:46:10.180Z</time>
      </trkpt>
      <trkpt lat="39.55266667" lon="-8.39156333">
        <ele>45.0</ele>
        <time>2019-05-17T14:46:11.159Z</time>
      </trkpt>
      <trkpt lat="39.55269833" lon="-8.39160333">
        <ele>46.0</ele>
        <time>2019-05-17T14:46:12.193Z</time>
      </trkpt>
      <trkpt lat="39.552715" lon="-8.39161667">
        <ele>46.0</ele>
        <time>2019-05-17T14:46:13.167Z</time>
      </trkpt>
      <trkpt lat="39.55273333" lon="-8.39162333">
        <ele>46.0</ele>
        <time>2019-05-17T14:46:14.185Z</time>
      </trkpt>
      <trkpt lat="39.55273333" lon="-8.39162333">
        <ele>46.0</ele>
        <time>2019-05-17T14:46:15.159Z</time>
      </trkpt>
      <trkpt lat="39.55276833" lon="-8.39163333">
        <ele>46.0</ele>
        <time>2019-05-17T14:46:16.185Z</time>
      </trkpt>
      <trkpt lat="39.55276833" lon="-8.39163333">
        <ele>46.0</ele>
        <time>2019-05-17T14:46:17.152Z</time>
      </trkpt>
      <trkpt lat="39.55280167" lon="-8.39164">
        <ele>47.0</ele>
        <time>2019-05-17T14:46:18.186Z</time>
      </trkpt>
      <trkpt lat="39.55280167" lon="-8.39164">
        <ele>47.0</ele>
        <time>2019-05-17T14:46:19.151Z</time>
      </trkpt>
      <trkpt lat="39.55284333" lon="-8.39164667">
        <ele>47.0</ele>
        <time>2019-05-17T14:46:20.175Z</time>
      </trkpt>
      <trkpt lat="39.55284333" lon="-8.39164667">
        <ele>47.0</ele>
        <time>2019-05-17T14:46:21.180Z</time>
      </trkpt>
      <trkpt lat="39.552885" lon="-8.39165167">
        <ele>47.0</ele>
        <time>2019-05-17T14:46:22.183Z</time>
      </trkpt>
      <trkpt lat="39.552885" lon="-8.39165167">
        <ele>47.0</ele>
        <time>2019-05-17T14:46:23.159Z</time>
      </trkpt>
      <trkpt lat="39.552935" lon="-8.39165833">
        <ele>48.0</ele>
        <time>2019-05-17T14:46:24.151Z</time>
      </trkpt>
      <trkpt lat="39.552935" lon="-8.39165833">
        <ele>48.0</ele>
        <time>2019-05-17T14:46:25.160Z</time>
      </trkpt>
      <trkpt lat="39.552975" lon="-8.39165833">
        <ele>48.0</ele>
        <time>2019-05-17T14:46:26.190Z</time>
      </trkpt>
      <trkpt lat="39.552975" lon="-8.39165833">
        <ele>48.0</ele>
        <time>2019-05-17T14:46:27.179Z</time>
      </trkpt>
      <trkpt lat="39.55301" lon="-8.39165667">
        <ele>48.0</ele>
        <time>2019-05-17T14:46:28.160Z</time>
      </trkpt>
      <trkpt lat="39.55301" lon="-8.39165667">
        <ele>48.0</ele>
        <time>2019-05-17T14:46:29.173Z</time>
      </trkpt>
      <trkpt lat="39.55305" lon="-8.39165167">
        <ele>48.0</ele>
        <time>2019-05-17T14:46:30.159Z</time>
      </trkpt>
      <trkpt lat="39.55306833" lon="-8.39165167">
        <ele>48.0</ele>
        <time>2019-05-17T14:46:31.173Z</time>
      </trkpt>
      <trkpt lat="39.553085" lon="-8.39165">
        <ele>48.0</ele>
        <time>2019-05-17T14:46:32.166Z</time>
      </trkpt>
      <trkpt lat="39.553085" lon="-8.39165">
        <ele>48.0</ele>
        <time>2019-05-17T14:46:33.164Z</time>
      </trkpt>
      <trkpt lat="39.55311667" lon="-8.391645">
        <ele>49.0</ele>
        <time>2019-05-17T14:46:34.175Z</time>
      </trkpt>
      <trkpt lat="39.55311667" lon="-8.391645">
        <ele>49.0</ele>
        <time>2019-05-17T14:46:35.150Z</time>
      </trkpt>
      <trkpt lat="39.55314167" lon="-8.39163667">
        <ele>49.0</ele>
        <time>2019-05-17T14:46:36.195Z</time>
      </trkpt>
      <trkpt lat="39.55314167" lon="-8.39163667">
        <ele>49.0</ele>
        <time>2019-05-17T14:46:37.176Z</time>
      </trkpt>
      <trkpt lat="39.55315167" lon="-8.39163667">
        <ele>49.0</ele>
        <time>2019-05-17T14:46:38.165Z</time>
      </trkpt>
      <trkpt lat="39.55315167" lon="-8.39163667">
        <ele>49.0</ele>
        <time>2019-05-17T14:46:39.189Z</time>
      </trkpt>
      <trkpt lat="39.55315333" lon="-8.39163667">
        <ele>49.0</ele>
        <time>2019-05-17T14:46:40.174Z</time>
      </trkpt>
      <trkpt lat="39.55315333" lon="-8.39163667">
        <ele>49.0</ele>
        <time>2019-05-17T14:46:41.187Z</time>
      </trkpt>
      <trkpt lat="39.55315333" lon="-8.39163667">
        <ele>49.0</ele>
        <time>2019-05-17T14:46:42.158Z</time>
      </trkpt>
      <trkpt lat="39.55315333" lon="-8.39163667">
        <ele>49.0</ele>
        <time>2019-05-17T14:46:43.164Z</time>
      </trkpt>
      <trkpt lat="39.55319" lon="-8.391625">
        <ele>49.0</ele>
        <time>2019-05-17T14:46:44.169Z</time>
      </trkpt>
      <trkpt lat="39.55319" lon="-8.391625">
        <ele>49.0</ele>
        <time>2019-05-17T14:46:45.165Z</time>
      </trkpt>
      <trkpt lat="39.55322667" lon="-8.39159833">
        <ele>50.0</ele>
        <time>2019-05-17T14:46:46.170Z</time>
      </trkpt>
      <trkpt lat="39.55322667" lon="-8.39159833">
        <ele>50.0</ele>
        <time>2019-05-17T14:46:47.173Z</time>
      </trkpt>
      <trkpt lat="39.55327" lon="-8.39157">
        <ele>49.0</ele>
        <time>2019-05-17T14:46:48.166Z</time>
      </trkpt>
      <trkpt lat="39.55327" lon="-8.39157">
        <ele>49.0</ele>
        <time>2019-05-17T14:46:49.181Z</time>
      </trkpt>
      <trkpt lat="39.55331667" lon="-8.39153667">
        <ele>50.0</ele>
        <time>2019-05-17T14:46:50.165Z</time>
      </trkpt>
      <trkpt lat="39.55331667" lon="-8.39153667">
        <ele>50.0</ele>
        <time>2019-05-17T14:46:51.176Z</time>
      </trkpt>
      <trkpt lat="39.55336" lon="-8.39149833">
        <ele>50.0</ele>
        <time>2019-05-17T14:46:52.181Z</time>
      </trkpt>
      <trkpt lat="39.55336" lon="-8.39149833">
        <ele>50.0</ele>
        <time>2019-05-17T14:46:53.178Z</time>
      </trkpt>
      <trkpt lat="39.553395" lon="-8.391455">
        <ele>50.0</ele>
        <time>2019-05-17T14:46:54.170Z</time>
      </trkpt>
      <trkpt lat="39.553395" lon="-8.391455">
        <ele>50.0</ele>
        <time>2019-05-17T14:46:55.180Z</time>
      </trkpt>
      <trkpt lat="39.55343333" lon="-8.39141333">
        <ele>49.0</ele>
        <time>2019-05-17T14:46:56.174Z</time>
      </trkpt>
      <trkpt lat="39.55343333" lon="-8.39141333">
        <ele>49.0</ele>
        <time>2019-05-17T14:46:57.159Z</time>
      </trkpt>
      <trkpt lat="39.55346667" lon="-8.39137833">
        <ele>49.0</ele>
        <time>2019-05-17T14:46:58.164Z</time>
      </trkpt>
      <trkpt lat="39.55346667" lon="-8.39137833">
        <ele>49.0</ele>
        <time>2019-05-17T14:46:59.170Z</time>
      </trkpt>
      <trkpt lat="39.553495" lon="-8.39134333">
        <ele>49.0</ele>
        <time>2019-05-17T14:47:00.175Z</time>
      </trkpt>
      <trkpt lat="39.553495" lon="-8.39134333">
        <ele>49.0</ele>
        <time>2019-05-17T14:47:01.153Z</time>
      </trkpt>
      <trkpt lat="39.55352833" lon="-8.39131167">
        <ele>50.0</ele>
        <time>2019-05-17T14:47:02.153Z</time>
      </trkpt>
      <trkpt lat="39.55352833" lon="-8.39131167">
        <ele>50.0</ele>
        <time>2019-05-17T14:47:03.167Z</time>
      </trkpt>
      <trkpt lat="39.55356" lon="-8.39128">
        <ele>50.0</ele>
        <time>2019-05-17T14:47:04.166Z</time>
      </trkpt>
      <trkpt lat="39.55356" lon="-8.39128">
        <ele>50.0</ele>
        <time>2019-05-17T14:47:05.157Z</time>
      </trkpt>
      <trkpt lat="39.55359667" lon="-8.39125167">
        <ele>50.0</ele>
        <time>2019-05-17T14:47:06.150Z</time>
      </trkpt>
      <trkpt lat="39.55359667" lon="-8.39125167">
        <ele>50.0</ele>
        <time>2019-05-17T14:47:07.185Z</time>
      </trkpt>
      <trkpt lat="39.553635" lon="-8.39122667">
        <ele>50.0</ele>
        <time>2019-05-17T14:47:08.185Z</time>
      </trkpt>
      <trkpt lat="39.553635" lon="-8.39122667">
        <ele>50.0</ele>
        <time>2019-05-17T14:47:09.163Z</time>
      </trkpt>
      <trkpt lat="39.553675" lon="-8.39120667">
        <ele>50.0</ele>
        <time>2019-05-17T14:47:10.185Z</time>
      </trkpt>
      <trkpt lat="39.553675" lon="-8.39120667">
        <ele>50.0</ele>
        <time>2019-05-17T14:47:11.168Z</time>
      </trkpt>
      <trkpt lat="39.553715" lon="-8.39119333">
        <ele>51.0</ele>
        <time>2019-05-17T14:47:12.171Z</time>
      </trkpt>
      <trkpt lat="39.55373333" lon="-8.39119333">
        <ele>51.0</ele>
        <time>2019-05-17T14:47:13.175Z</time>
      </trkpt>
      <trkpt lat="39.55375333" lon="-8.39119">
        <ele>51.0</ele>
        <time>2019-05-17T14:47:14.154Z</time>
      </trkpt>
      <trkpt lat="39.55375333" lon="-8.39119">
        <ele>51.0</ele>
        <time>2019-05-17T14:47:15.186Z</time>
      </trkpt>
      <trkpt lat="39.55379667" lon="-8.391185">
        <ele>51.0</ele>
        <time>2019-05-17T14:47:16.164Z</time>
      </trkpt>
      <trkpt lat="39.55379667" lon="-8.391185">
        <ele>51.0</ele>
        <time>2019-05-17T14:47:17.183Z</time>
      </trkpt>
      <trkpt lat="39.55384" lon="-8.39118333">
        <ele>51.0</ele>
        <time>2019-05-17T14:47:18.157Z</time>
      </trkpt>
      <trkpt lat="39.55384" lon="-8.39118333">
        <ele>51.0</ele>
        <time>2019-05-17T14:47:19.163Z</time>
      </trkpt>
      <trkpt lat="39.55388667" lon="-8.39118667">
        <ele>52.0</ele>
        <time>2019-05-17T14:47:20.173Z</time>
      </trkpt>
      <trkpt lat="39.55388667" lon="-8.39118667">
        <ele>52.0</ele>
        <time>2019-05-17T14:47:21.189Z</time>
      </trkpt>
      <trkpt lat="39.55393" lon="-8.391195">
        <ele>52.0</ele>
        <time>2019-05-17T14:47:22.186Z</time>
      </trkpt>
      <trkpt lat="39.55395" lon="-8.39120167">
        <ele>52.0</ele>
        <time>2019-05-17T14:47:23.168Z</time>
      </trkpt>
      <trkpt lat="39.55395" lon="-8.39120167">
        <ele>52.0</ele>
        <time>2019-05-17T14:47:24.181Z</time>
      </trkpt>
      <trkpt lat="39.55399333" lon="-8.39121667">
        <ele>52.0</ele>
        <time>2019-05-17T14:47:25.185Z</time>
      </trkpt>
      <trkpt lat="39.55401333" lon="-8.39122667">
        <ele>53.0</ele>
        <time>2019-05-17T14:47:26.154Z</time>
      </trkpt>
      <trkpt lat="39.55401333" lon="-8.39122667">
        <ele>53.0</ele>
        <time>2019-05-17T14:47:27.177Z</time>
      </trkpt>
      <trkpt lat="39.55405333" lon="-8.39125">
        <ele>53.0</ele>
        <time>2019-05-17T14:47:28.167Z</time>
      </trkpt>
      <trkpt lat="39.55405333" lon="-8.39125">
        <ele>53.0</ele>
        <time>2019-05-17T14:47:29.184Z</time>
      </trkpt>
      <trkpt lat="39.55409167" lon="-8.39127667">
        <ele>53.0</ele>
        <time>2019-05-17T14:47:30.185Z</time>
      </trkpt>
      <trkpt lat="39.55409167" lon="-8.39127667">
        <ele>53.0</ele>
        <time>2019-05-17T14:47:31.150Z</time>
      </trkpt>
      <trkpt lat="39.55413" lon="-8.39130833">
        <ele>53.0</ele>
        <time>2019-05-17T14:47:32.151Z</time>
      </trkpt>
      <trkpt lat="39.55413" lon="-8.39130833">
        <ele>53.0</ele>
        <time>2019-05-17T14:47:33.157Z</time>
      </trkpt>
      <trkpt lat="39.55416667" lon="-8.39134667">
        <ele>53.0</ele>
        <time>2019-05-17T14:47:34.151Z</time>
      </trkpt>
      <trkpt lat="39.55416667" lon="-8.39134667">
        <ele>53.0</ele>
        <time>2019-05-17T14:47:35.165Z</time>
      </trkpt>
      <trkpt lat="39.55420333" lon="-8.39138667">
        <ele>54.0</ele>
        <time>2019-05-17T14:47:36.159Z</time>
      </trkpt>
      <trkpt lat="39.55420333" lon="-8.39138667">
        <ele>54.0</ele>
        <time>2019-05-17T14:47:37.184Z</time>
      </trkpt>
      <trkpt lat="39.55423833" lon="-8.39142833">
        <ele>54.0</ele>
        <time>2019-05-17T14:47:38.192Z</time>
      </trkpt>
      <trkpt lat="39.55423833" lon="-8.39142833">
        <ele>54.0</ele>
        <time>2019-05-17T14:47:39.174Z</time>
      </trkpt>
      <trkpt lat="39.55427667" lon="-8.39147">
        <ele>54.0</ele>
        <time>2019-05-17T14:47:40.173Z</time>
      </trkpt>
      <trkpt lat="39.55429333" lon="-8.39149">
        <ele>54.0</ele>
        <time>2019-05-17T14:47:41.168Z</time>
      </trkpt>
      <trkpt lat="39.55429333" lon="-8.39149">
        <ele>54.0</ele>
        <time>2019-05-17T14:47:42.178Z</time>
      </trkpt>
      <trkpt lat="39.55432833" lon="-8.39153">
        <ele>54.0</ele>
        <time>2019-05-17T14:47:43.172Z</time>
      </trkpt>
      <trkpt lat="39.554345" lon="-8.39155">
        <ele>54.0</ele>
        <time>2019-05-17T14:47:44.195Z</time>
      </trkpt>
      <trkpt lat="39.554345" lon="-8.39155">
        <ele>54.0</ele>
        <time>2019-05-17T14:47:45.178Z</time>
      </trkpt>
      <trkpt lat="39.55437833" lon="-8.39159333">
        <ele>54.0</ele>
        <time>2019-05-17T14:47:46.172Z</time>
      </trkpt>
      <trkpt lat="39.55437833" lon="-8.39159333">
        <ele>54.0</ele>
        <time>2019-05-17T14:47:47.173Z</time>
      </trkpt>
      <trkpt lat="39.554415" lon="-8.39163833">
        <ele>54.0</ele>
        <time>2019-05-17T14:47:48.175Z</time>
      </trkpt>
      <trkpt lat="39.554435" lon="-8.39166167">
        <ele>54.0</ele>
        <time>2019-05-17T14:47:49.185Z</time>
      </trkpt>
      <trkpt lat="39.554435" lon="-8.39166167">
        <ele>54.0</ele>
        <time>2019-05-17T14:47:50.169Z</time>
      </trkpt>
      <trkpt lat="39.55447333" lon="-8.39170833">
        <ele>54.0</ele>
        <time>2019-05-17T14:47:51.166Z</time>
      </trkpt>
      <trkpt lat="39.55447333" lon="-8.39170833">
        <ele>54.0</ele>
        <time>2019-05-17T14:47:52.176Z</time>
      </trkpt>
      <trkpt lat="39.55451" lon="-8.391755">
        <ele>54.0</ele>
        <time>2019-05-17T14:47:53.177Z</time>
      </trkpt>
      <trkpt lat="39.55451" lon="-8.391755">
        <ele>54.0</ele>
        <time>2019-05-17T14:47:54.187Z</time>
      </trkpt>
      <trkpt lat="39.55454833" lon="-8.39179833">
        <ele>54.0</ele>
        <time>2019-05-17T14:47:55.188Z</time>
      </trkpt>
      <trkpt lat="39.554565" lon="-8.39182">
        <ele>54.0</ele>
        <time>2019-05-17T14:47:56.173Z</time>
      </trkpt>
      <trkpt lat="39.554565" lon="-8.39182">
        <ele>54.0</ele>
        <time>2019-05-17T14:47:57.153Z</time>
      </trkpt>
      <trkpt lat="39.55459667" lon="-8.39186167">
        <ele>54.0</ele>
        <time>2019-05-17T14:47:58.154Z</time>
      </trkpt>
      <trkpt lat="39.55460667" lon="-8.39187667">
        <ele>54.0</ele>
        <time>2019-05-17T14:47:59.173Z</time>
      </trkpt>
      <trkpt lat="39.55460667" lon="-8.39187667">
        <ele>54.0</ele>
        <time>2019-05-17T14:48:00.188Z</time>
      </trkpt>
      <trkpt lat="39.55461167" lon="-8.39188167">
        <ele>54.0</ele>
        <time>2019-05-17T14:48:01.156Z</time>
      </trkpt>
      <trkpt lat="39.55461" lon="-8.39188333">
        <ele>54.0</ele>
        <time>2019-05-17T14:48:02.157Z</time>
      </trkpt>
      <trkpt lat="39.55461" lon="-8.39188333">
        <ele>54.0</ele>
        <time>2019-05-17T14:48:03.184Z</time>
      </trkpt>
      <trkpt lat="39.55461" lon="-8.39188333">
        <ele>54.0</ele>
        <time>2019-05-17T14:48:04.156Z</time>
      </trkpt>
      <trkpt lat="39.55461" lon="-8.39188333">
        <ele>54.0</ele>
        <time>2019-05-17T14:48:05.162Z</time>
      </trkpt>
      <trkpt lat="39.55461" lon="-8.39188333">
        <ele>54.0</ele>
        <time>2019-05-17T14:48:06.151Z</time>
      </trkpt>
      <trkpt lat="39.55461" lon="-8.39188333">
        <ele>54.0</ele>
        <time>2019-05-17T14:48:07.178Z</time>
      </trkpt>
      <trkpt lat="39.55461" lon="-8.39188333">
        <ele>54.0</ele>
        <time>2019-05-17T14:48:08.165Z</time>
      </trkpt>
      <trkpt lat="39.55461" lon="-8.39188333">
        <ele>54.0</ele>
        <time>2019-05-17T14:48:09.167Z</time>
      </trkpt>
      <trkpt lat="39.55461" lon="-8.39188333">
        <ele>54.0</ele>
        <time>2019-05-17T14:48:10.181Z</time>
      </trkpt>
      <trkpt lat="39.55461" lon="-8.39188333">
        <ele>54.0</ele>
        <time>2019-05-17T14:48:11.187Z</time>
      </trkpt>
      <trkpt lat="39.55461" lon="-8.39188333">
        <ele>54.0</ele>
        <time>2019-05-17T14:48:12.163Z</time>
      </trkpt>
      <trkpt lat="39.55461" lon="-8.39188333">
        <ele>54.0</ele>
        <time>2019-05-17T14:48:13.169Z</time>
      </trkpt>
      <trkpt lat="39.55461" lon="-8.39188333">
        <ele>54.0</ele>
        <time>2019-05-17T14:48:14.172Z</time>
      </trkpt>
      <trkpt lat="39.55461" lon="-8.39188333">
        <ele>54.0</ele>
        <time>2019-05-17T14:48:15.165Z</time>
      </trkpt>
      <trkpt lat="39.554615" lon="-8.39187833">
        <ele>53.0</ele>
        <time>2019-05-17T14:48:16.170Z</time>
      </trkpt>
      <trkpt lat="39.554615" lon="-8.39187833">
        <ele>53.0</ele>
        <time>2019-05-17T14:48:17.165Z</time>
      </trkpt>
      <trkpt lat="39.55463333" lon="-8.39189333">
        <ele>53.0</ele>
        <time>2019-05-17T14:48:18.170Z</time>
      </trkpt>
      <trkpt lat="39.554645" lon="-8.39190667">
        <ele>53.0</ele>
        <time>2019-05-17T14:48:19.171Z</time>
      </trkpt>
      <trkpt lat="39.554655" lon="-8.39192">
        <ele>53.0</ele>
        <time>2019-05-17T14:48:20.172Z</time>
      </trkpt>
      <trkpt lat="39.554655" lon="-8.39192">
        <ele>53.0</ele>
        <time>2019-05-17T14:48:21.164Z</time>
      </trkpt>
      <trkpt lat="39.55467167" lon="-8.39194333">
        <ele>53.0</ele>
        <time>2019-05-17T14:48:22.170Z</time>
      </trkpt>
      <trkpt lat="39.55467167" lon="-8.39194333">
        <ele>53.0</ele>
        <time>2019-05-17T14:48:23.166Z</time>
      </trkpt>
      <trkpt lat="39.55469167" lon="-8.39196">
        <ele>53.0</ele>
        <time>2019-05-17T14:48:24.171Z</time>
      </trkpt>
      <trkpt lat="39.55469167" lon="-8.39196">
        <ele>53.0</ele>
        <time>2019-05-17T14:48:25.165Z</time>
      </trkpt>
      <trkpt lat="39.55471333" lon="-8.39198">
        <ele>53.0</ele>
        <time>2019-05-17T14:48:26.182Z</time>
      </trkpt>
      <trkpt lat="39.55471333" lon="-8.39198">
        <ele>53.0</ele>
        <time>2019-05-17T14:48:27.154Z</time>
      </trkpt>
      <trkpt lat="39.55472667" lon="-8.39200833">
        <ele>53.0</ele>
        <time>2019-05-17T14:48:28.153Z</time>
      </trkpt>
      <trkpt lat="39.55473833" lon="-8.392015">
        <ele>53.0</ele>
        <time>2019-05-17T14:48:29.181Z</time>
      </trkpt>
      <trkpt lat="39.55473833" lon="-8.392015">
        <ele>53.0</ele>
        <time>2019-05-17T14:48:30.181Z</time>
      </trkpt>
      <trkpt lat="39.55475333" lon="-8.39201833">
        <ele>53.0</ele>
        <time>2019-05-17T14:48:31.154Z</time>
      </trkpt>
      <trkpt lat="39.55475333" lon="-8.39202">
        <ele>53.0</ele>
        <time>2019-05-17T14:48:32.161Z</time>
      </trkpt>
      <trkpt lat="39.55475333" lon="-8.39202">
        <ele>53.0</ele>
        <time>2019-05-17T14:48:33.178Z</time>
      </trkpt>
      <trkpt lat="39.55475333" lon="-8.39202">
        <ele>53.0</ele>
        <time>2019-05-17T14:48:34.166Z</time>
      </trkpt>
      <trkpt lat="39.55475333" lon="-8.39202">
        <ele>53.0</ele>
        <time>2019-05-17T14:48:35.175Z</time>
      </trkpt>
      <trkpt lat="39.55475333" lon="-8.39202">
        <ele>53.0</ele>
        <time>2019-05-17T14:48:36.181Z</time>
      </trkpt>
      <trkpt lat="39.55475333" lon="-8.39202">
        <ele>53.0</ele>
        <time>2019-05-17T14:48:37.187Z</time>
      </trkpt>
      <trkpt lat="39.55475333" lon="-8.39202">
        <ele>53.0</ele>
        <time>2019-05-17T14:48:38.156Z</time>
      </trkpt>
      <trkpt lat="39.55475333" lon="-8.39202">
        <ele>53.0</ele>
        <time>2019-05-17T14:48:39.181Z</time>
      </trkpt>
      <trkpt lat="39.55475333" lon="-8.39202">
        <ele>53.0</ele>
        <time>2019-05-17T14:48:40.167Z</time>
      </trkpt>
      <trkpt lat="39.55475333" lon="-8.39202">
        <ele>53.0</ele>
        <time>2019-05-17T14:48:41.170Z</time>
      </trkpt>
      <trkpt lat="39.55474667" lon="-8.39201333">
        <ele>53.0</ele>
        <time>2019-05-17T14:48:42.170Z</time>
      </trkpt>
      <trkpt lat="39.55474667" lon="-8.39201333">
        <ele>53.0</ele>
        <time>2019-05-17T14:48:43.181Z</time>
      </trkpt>
      <trkpt lat="39.55472333" lon="-8.39199167">
        <ele>53.0</ele>
        <time>2019-05-17T14:48:44.172Z</time>
      </trkpt>
      <trkpt lat="39.55472333" lon="-8.39199167">
        <ele>53.0</ele>
        <time>2019-05-17T14:48:45.165Z</time>
      </trkpt>
      <trkpt lat="39.55469" lon="-8.39196667">
        <ele>53.0</ele>
        <time>2019-05-17T14:48:46.170Z</time>
      </trkpt>
      <trkpt lat="39.55469" lon="-8.39196667">
        <ele>53.0</ele>
        <time>2019-05-17T14:48:47.164Z</time>
      </trkpt>
      <trkpt lat="39.55466" lon="-8.39193">
        <ele>53.0</ele>
        <time>2019-05-17T14:48:48.159Z</time>
      </trkpt>
      <trkpt lat="39.55466" lon="-8.39193">
        <ele>53.0</ele>
        <time>2019-05-17T14:48:49.153Z</time>
      </trkpt>
      <trkpt lat="39.55465833" lon="-8.39191167">
        <ele>52.0</ele>
        <time>2019-05-17T14:48:50.152Z</time>
      </trkpt>
      <trkpt lat="39.55465833" lon="-8.39191167">
        <ele>52.0</ele>
        <time>2019-05-17T14:48:51.161Z</time>
      </trkpt>
      <trkpt lat="39.55466167" lon="-8.39190833">
        <ele>53.0</ele>
        <time>2019-05-17T14:48:52.186Z</time>
      </trkpt>
      <trkpt lat="39.55466167" lon="-8.39190833">
        <ele>53.0</ele>
        <time>2019-05-17T14:48:53.159Z</time>
      </trkpt>
      <trkpt lat="39.55466167" lon="-8.39190833">
        <ele>53.0</ele>
        <time>2019-05-17T14:48:54.165Z</time>
      </trkpt>
      <trkpt lat="39.55466167" lon="-8.39190833">
        <ele>53.0</ele>
        <time>2019-05-17T14:48:55.176Z</time>
      </trkpt>
      <trkpt lat="39.55466167" lon="-8.39190833">
        <ele>53.0</ele>
        <time>2019-05-17T14:48:56.177Z</time>
      </trkpt>
      <trkpt lat="39.55466167" lon="-8.39190833">
        <ele>53.0</ele>
        <time>2019-05-17T14:48:57.166Z</time>
      </trkpt>
      <trkpt lat="39.554685" lon="-8.39186167">
        <ele>52.0</ele>
        <time>2019-05-17T14:48:58.171Z</time>
      </trkpt>
      <trkpt lat="39.554685" lon="-8.39186167">
        <ele>52.0</ele>
        <time>2019-05-17T14:48:59.166Z</time>
      </trkpt>
      <trkpt lat="39.55472333" lon="-8.39181333">
        <ele>52.0</ele>
        <time>2019-05-17T14:49:00.170Z</time>
      </trkpt>
      <trkpt lat="39.55472333" lon="-8.39181333">
        <ele>52.0</ele>
        <time>2019-05-17T14:49:01.165Z</time>
      </trkpt>
      <trkpt lat="39.55477167" lon="-8.39176333">
        <ele>51.0</ele>
        <time>2019-05-17T14:49:02.155Z</time>
      </trkpt>
      <trkpt lat="39.55477167" lon="-8.39176333">
        <ele>51.0</ele>
        <time>2019-05-17T14:49:03.174Z</time>
      </trkpt>
      <trkpt lat="39.554825" lon="-8.39172333">
        <ele>50.0</ele>
        <time>2019-05-17T14:49:04.161Z</time>
      </trkpt>
      <trkpt lat="39.554855" lon="-8.39170333">
        <ele>49.0</ele>
        <time>2019-05-17T14:49:05.186Z</time>
      </trkpt>
      <trkpt lat="39.554855" lon="-8.39170333">
        <ele>49.0</ele>
        <time>2019-05-17T14:49:06.166Z</time>
      </trkpt>
      <trkpt lat="39.55492167" lon="-8.39166">
        <ele>48.0</ele>
        <time>2019-05-17T14:49:07.178Z</time>
      </trkpt>
      <trkpt lat="39.554955" lon="-8.39164167">
        <ele>48.0</ele>
        <time>2019-05-17T14:49:08.160Z</time>
      </trkpt>
      <trkpt lat="39.554955" lon="-8.39164167">
        <ele>48.0</ele>
        <time>2019-05-17T14:49:09.190Z</time>
      </trkpt>
      <trkpt lat="39.55502167" lon="-8.39159833">
        <ele>47.0</ele>
        <time>2019-05-17T14:49:10.180Z</time>
      </trkpt>
      <trkpt lat="39.55505667" lon="-8.39157167">
        <ele>46.0</ele>
        <time>2019-05-17T14:49:11.169Z</time>
      </trkpt>
      <trkpt lat="39.55505667" lon="-8.39157167">
        <ele>46.0</ele>
        <time>2019-05-17T14:49:12.160Z</time>
      </trkpt>
      <trkpt lat="39.55513833" lon="-8.39150833">
        <ele>44.0</ele>
        <time>2019-05-17T14:49:13.174Z</time>
      </trkpt>
      <trkpt lat="39.55518167" lon="-8.39148">
        <ele>43.0</ele>
        <time>2019-05-17T14:49:14.183Z</time>
      </trkpt>
      <trkpt lat="39.55518167" lon="-8.39148">
        <ele>43.0</ele>
        <time>2019-05-17T14:49:15.158Z</time>
      </trkpt>
      <trkpt lat="39.55528333" lon="-8.39143333">
        <ele>41.0</ele>
        <time>2019-05-17T14:49:16.165Z</time>
      </trkpt>
      <trkpt lat="39.55528333" lon="-8.39143333">
        <ele>41.0</ele>
        <time>2019-05-17T14:49:17.171Z</time>
      </trkpt>
      <trkpt lat="39.55540833" lon="-8.39138667">
        <ele>40.0</ele>
        <time>2019-05-17T14:49:18.157Z</time>
      </trkpt>
      <trkpt lat="39.55547667" lon="-8.391365">
        <ele>40.0</ele>
        <time>2019-05-17T14:49:19.172Z</time>
      </trkpt>
      <trkpt lat="39.555545" lon="-8.39134833">
        <ele>39.0</ele>
        <time>2019-05-17T14:49:20.163Z</time>
      </trkpt>
      <trkpt lat="39.555545" lon="-8.39134833">
        <ele>39.0</ele>
        <time>2019-05-17T14:49:21.176Z</time>
      </trkpt>
      <trkpt lat="39.55568333" lon="-8.391345">
        <ele>39.0</ele>
        <time>2019-05-17T14:49:22.176Z</time>
      </trkpt>
      <trkpt lat="39.55568333" lon="-8.391345">
        <ele>39.0</ele>
        <time>2019-05-17T14:49:23.176Z</time>
      </trkpt>
      <trkpt lat="39.55581167" lon="-8.39135167">
        <ele>39.0</ele>
        <time>2019-05-17T14:49:24.175Z</time>
      </trkpt>
      <trkpt lat="39.55587167" lon="-8.39135167">
        <ele>39.0</ele>
        <time>2019-05-17T14:49:25.160Z</time>
      </trkpt>
      <trkpt lat="39.55592667" lon="-8.391355">
        <ele>39.0</ele>
        <time>2019-05-17T14:49:26.181Z</time>
      </trkpt>
      <trkpt lat="39.55592667" lon="-8.391355">
        <ele>39.0</ele>
        <time>2019-05-17T14:49:27.167Z</time>
      </trkpt>
      <trkpt lat="39.55602833" lon="-8.39135333">
        <ele>39.0</ele>
        <time>2019-05-17T14:49:28.154Z</time>
      </trkpt>
      <trkpt lat="39.55602833" lon="-8.39135333">
        <ele>39.0</ele>
        <time>2019-05-17T14:49:29.169Z</time>
      </trkpt>
      <trkpt lat="39.55612333" lon="-8.39135333">
        <ele>39.0</ele>
        <time>2019-05-17T14:49:30.171Z</time>
      </trkpt>
      <trkpt lat="39.55612333" lon="-8.39135333">
        <ele>39.0</ele>
        <time>2019-05-17T14:49:31.160Z</time>
      </trkpt>
      <trkpt lat="39.55620833" lon="-8.39135667">
        <ele>39.0</ele>
        <time>2019-05-17T14:49:32.167Z</time>
      </trkpt>
      <trkpt lat="39.55620833" lon="-8.39135667">
        <ele>39.0</ele>
        <time>2019-05-17T14:49:33.190Z</time>
      </trkpt>
      <trkpt lat="39.55628167" lon="-8.39135667">
        <ele>39.0</ele>
        <time>2019-05-17T14:49:34.180Z</time>
      </trkpt>
      <trkpt lat="39.55628167" lon="-8.39135667">
        <ele>39.0</ele>
        <time>2019-05-17T14:49:35.185Z</time>
      </trkpt>
      <trkpt lat="39.55634667" lon="-8.39135667">
        <ele>39.0</ele>
        <time>2019-05-17T14:49:36.165Z</time>
      </trkpt>
      <trkpt lat="39.55634667" lon="-8.39135667">
        <ele>39.0</ele>
        <time>2019-05-17T14:49:37.155Z</time>
      </trkpt>
      <trkpt lat="39.55641333" lon="-8.39135833">
        <ele>39.0</ele>
        <time>2019-05-17T14:49:38.185Z</time>
      </trkpt>
      <trkpt lat="39.55641333" lon="-8.39135833">
        <ele>39.0</ele>
        <time>2019-05-17T14:49:39.159Z</time>
      </trkpt>
      <trkpt lat="39.55648167" lon="-8.391355">
        <ele>39.0</ele>
        <time>2019-05-17T14:49:40.182Z</time>
      </trkpt>
      <trkpt lat="39.55648167" lon="-8.391355">
        <ele>39.0</ele>
        <time>2019-05-17T14:49:41.187Z</time>
      </trkpt>
      <trkpt lat="39.55655167" lon="-8.391355">
        <ele>39.0</ele>
        <time>2019-05-17T14:49:42.190Z</time>
      </trkpt>
      <trkpt lat="39.55655167" lon="-8.391355">
        <ele>39.0</ele>
        <time>2019-05-17T14:49:43.159Z</time>
      </trkpt>
      <trkpt lat="39.55661333" lon="-8.39135667">
        <ele>39.0</ele>
        <time>2019-05-17T14:49:44.167Z</time>
      </trkpt>
      <trkpt lat="39.55661333" lon="-8.39135667">
        <ele>39.0</ele>
        <time>2019-05-17T14:49:45.168Z</time>
      </trkpt>
      <trkpt lat="39.556675" lon="-8.39135667">
        <ele>39.0</ele>
        <time>2019-05-17T14:49:46.175Z</time>
      </trkpt>
      <trkpt lat="39.556675" lon="-8.39135667">
        <ele>39.0</ele>
        <time>2019-05-17T14:49:47.188Z</time>
      </trkpt>
      <trkpt lat="39.55673333" lon="-8.39135667">
        <ele>39.0</ele>
        <time>2019-05-17T14:49:48.195Z</time>
      </trkpt>
      <trkpt lat="39.55673333" lon="-8.39135667">
        <ele>39.0</ele>
        <time>2019-05-17T14:49:49.174Z</time>
      </trkpt>
      <trkpt lat="39.55679" lon="-8.39136333">
        <ele>39.0</ele>
        <time>2019-05-17T14:49:50.165Z</time>
      </trkpt>
      <trkpt lat="39.55679" lon="-8.39136333">
        <ele>39.0</ele>
        <time>2019-05-17T14:49:51.181Z</time>
      </trkpt>
      <trkpt lat="39.55684167" lon="-8.39137">
        <ele>39.0</ele>
        <time>2019-05-17T14:49:52.173Z</time>
      </trkpt>
      <trkpt lat="39.55684167" lon="-8.39137">
        <ele>39.0</ele>
        <time>2019-05-17T14:49:53.168Z</time>
      </trkpt>
      <trkpt lat="39.55690333" lon="-8.39138">
        <ele>39.0</ele>
        <time>2019-05-17T14:49:54.175Z</time>
      </trkpt>
      <trkpt lat="39.55690333" lon="-8.39138">
        <ele>39.0</ele>
        <time>2019-05-17T14:49:55.166Z</time>
      </trkpt>
      <trkpt lat="39.55696667" lon="-8.39138333">
        <ele>39.0</ele>
        <time>2019-05-17T14:49:56.188Z</time>
      </trkpt>
      <trkpt lat="39.55696667" lon="-8.39138333">
        <ele>39.0</ele>
        <time>2019-05-17T14:49:57.161Z</time>
      </trkpt>
      <trkpt lat="39.55702167" lon="-8.39139">
        <ele>39.0</ele>
        <time>2019-05-17T14:49:58.189Z</time>
      </trkpt>
      <trkpt lat="39.55702167" lon="-8.39139">
        <ele>39.0</ele>
        <time>2019-05-17T14:49:59.156Z</time>
      </trkpt>
      <trkpt lat="39.55706833" lon="-8.3914">
        <ele>40.0</ele>
        <time>2019-05-17T14:50:00.168Z</time>
      </trkpt>
      <trkpt lat="39.55706833" lon="-8.3914">
        <ele>40.0</ele>
        <time>2019-05-17T14:50:01.154Z</time>
      </trkpt>
      <trkpt lat="39.557105" lon="-8.39140833">
        <ele>40.0</ele>
        <time>2019-05-17T14:50:02.161Z</time>
      </trkpt>
      <trkpt lat="39.557105" lon="-8.39140833">
        <ele>40.0</ele>
        <time>2019-05-17T14:50:03.165Z</time>
      </trkpt>
      <trkpt lat="39.55714833" lon="-8.39140833">
        <ele>40.0</ele>
        <time>2019-05-17T14:50:04.191Z</time>
      </trkpt>
      <trkpt lat="39.55714833" lon="-8.39140833">
        <ele>40.0</ele>
        <time>2019-05-17T14:50:05.168Z</time>
      </trkpt>
      <trkpt lat="39.55719667" lon="-8.391425">
        <ele>40.0</ele>
        <time>2019-05-17T14:50:06.158Z</time>
      </trkpt>
      <trkpt lat="39.55719667" lon="-8.391425">
        <ele>40.0</ele>
        <time>2019-05-17T14:50:07.177Z</time>
      </trkpt>
      <trkpt lat="39.55724667" lon="-8.39144">
        <ele>40.0</ele>
        <time>2019-05-17T14:50:08.162Z</time>
      </trkpt>
      <trkpt lat="39.55724667" lon="-8.39144">
        <ele>40.0</ele>
        <time>2019-05-17T14:50:09.177Z</time>
      </trkpt>
      <trkpt lat="39.55729833" lon="-8.39146">
        <ele>41.0</ele>
        <time>2019-05-17T14:50:10.188Z</time>
      </trkpt>
      <trkpt lat="39.55732333" lon="-8.39146667">
        <ele>41.0</ele>
        <time>2019-05-17T14:50:11.175Z</time>
      </trkpt>
      <trkpt lat="39.55732333" lon="-8.39146667">
        <ele>41.0</ele>
        <time>2019-05-17T14:50:12.187Z</time>
      </trkpt>
      <trkpt lat="39.55737" lon="-8.39148">
        <ele>41.0</ele>
        <time>2019-05-17T14:50:13.174Z</time>
      </trkpt>
      <trkpt lat="39.55737" lon="-8.39148">
        <ele>41.0</ele>
        <time>2019-05-17T14:50:14.182Z</time>
      </trkpt>
      <trkpt lat="39.55742333" lon="-8.391495">
        <ele>41.0</ele>
        <time>2019-05-17T14:50:15.180Z</time>
      </trkpt>
      <trkpt lat="39.55742333" lon="-8.391495">
        <ele>41.0</ele>
        <time>2019-05-17T14:50:16.174Z</time>
      </trkpt>
      <trkpt lat="39.55748667" lon="-8.39151333">
        <ele>41.0</ele>
        <time>2019-05-17T14:50:17.186Z</time>
      </trkpt>
      <trkpt lat="39.55752167" lon="-8.39152333">
        <ele>42.0</ele>
        <time>2019-05-17T14:50:18.159Z</time>
      </trkpt>
      <trkpt lat="39.55752167" lon="-8.39152333">
        <ele>42.0</ele>
        <time>2019-05-17T14:50:19.159Z</time>
      </trkpt>
      <trkpt lat="39.557575" lon="-8.39154167">
        <ele>42.0</ele>
        <time>2019-05-17T14:50:20.159Z</time>
      </trkpt>
      <trkpt lat="39.557575" lon="-8.39154167">
        <ele>42.0</ele>
        <time>2019-05-17T14:50:21.158Z</time>
      </trkpt>
      <trkpt lat="39.557605" lon="-8.39155667">
        <ele>42.0</ele>
        <time>2019-05-17T14:50:22.158Z</time>
      </trkpt>
      <trkpt lat="39.557605" lon="-8.39155667">
        <ele>42.0</ele>
        <time>2019-05-17T14:50:23.168Z</time>
      </trkpt>
      <trkpt lat="39.55763833" lon="-8.39157167">
        <ele>43.0</ele>
        <time>2019-05-17T14:50:24.168Z</time>
      </trkpt>
      <trkpt lat="39.55763833" lon="-8.39157167">
        <ele>43.0</ele>
        <time>2019-05-17T14:50:25.175Z</time>
      </trkpt>
      <trkpt lat="39.55767" lon="-8.39158667">
        <ele>44.0</ele>
        <time>2019-05-17T14:50:26.175Z</time>
      </trkpt>
      <trkpt lat="39.55767" lon="-8.39158667">
        <ele>44.0</ele>
        <time>2019-05-17T14:50:27.181Z</time>
      </trkpt>
      <trkpt lat="39.55770333" lon="-8.3916">
        <ele>44.0</ele>
        <time>2019-05-17T14:50:28.179Z</time>
      </trkpt>
      <trkpt lat="39.55771333" lon="-8.39160667">
        <ele>45.0</ele>
        <time>2019-05-17T14:50:29.188Z</time>
      </trkpt>
      <trkpt lat="39.55771333" lon="-8.39160667">
        <ele>45.0</ele>
        <time>2019-05-17T14:50:30.176Z</time>
      </trkpt>
      <trkpt lat="39.55772667" lon="-8.3916">
        <ele>45.0</ele>
        <time>2019-05-17T14:50:31.155Z</time>
      </trkpt>
      <trkpt lat="39.55772833" lon="-8.39159833">
        <ele>44.0</ele>
        <time>2019-05-17T14:50:32.185Z</time>
      </trkpt>
      <trkpt lat="39.55772833" lon="-8.39159833">
        <ele>44.0</ele>
        <time>2019-05-17T14:50:33.159Z</time>
      </trkpt>
      <trkpt lat="39.55772833" lon="-8.39159833">
        <ele>44.0</ele>
        <time>2019-05-17T14:50:34.165Z</time>
      </trkpt>
      <trkpt lat="39.55772833" lon="-8.39159833">
        <ele>44.0</ele>
        <time>2019-05-17T14:50:35.176Z</time>
      </trkpt>
      <trkpt lat="39.55772833" lon="-8.39159833">
        <ele>44.0</ele>
        <time>2019-05-17T14:50:36.182Z</time>
      </trkpt>
      <trkpt lat="39.55772833" lon="-8.39159833">
        <ele>44.0</ele>
        <time>2019-05-17T14:50:37.188Z</time>
      </trkpt>
      <trkpt lat="39.55772833" lon="-8.39159833">
        <ele>44.0</ele>
        <time>2019-05-17T14:50:38.173Z</time>
      </trkpt>
      <trkpt lat="39.55772833" lon="-8.39159833">
        <ele>44.0</ele>
        <time>2019-05-17T14:50:39.179Z</time>
      </trkpt>
      <trkpt lat="39.55772833" lon="-8.39159833">
        <ele>44.0</ele>
        <time>2019-05-17T14:50:40.170Z</time>
      </trkpt>
      <trkpt lat="39.55772833" lon="-8.39159833">
        <ele>44.0</ele>
        <time>2019-05-17T14:50:41.165Z</time>
      </trkpt>
      <trkpt lat="39.55772833" lon="-8.39159833">
        <ele>44.0</ele>
        <time>2019-05-17T14:50:42.170Z</time>
      </trkpt>
      <trkpt lat="39.55772833" lon="-8.39159833">
        <ele>44.0</ele>
        <time>2019-05-17T14:50:43.165Z</time>
      </trkpt>
      <trkpt lat="39.55772833" lon="-8.39159833">
        <ele>44.0</ele>
        <time>2019-05-17T14:50:44.172Z</time>
      </trkpt>
      <trkpt lat="39.55772833" lon="-8.39159833">
        <ele>44.0</ele>
        <time>2019-05-17T14:50:45.165Z</time>
      </trkpt>
      <trkpt lat="39.55772833" lon="-8.39159833">
        <ele>44.0</ele>
        <time>2019-05-17T14:50:46.170Z</time>
      </trkpt>
      <trkpt lat="39.55772833" lon="-8.39159833">
        <ele>44.0</ele>
        <time>2019-05-17T14:50:47.165Z</time>
      </trkpt>
      <trkpt lat="39.55772833" lon="-8.39159833">
        <ele>44.0</ele>
        <time>2019-05-17T14:50:48.150Z</time>
      </trkpt>
      <trkpt lat="39.55772833" lon="-8.39159833">
        <ele>44.0</ele>
        <time>2019-05-17T14:50:49.175Z</time>
      </trkpt>
      <trkpt lat="39.55772833" lon="-8.39159833">
        <ele>44.0</ele>
        <time>2019-05-17T14:50:50.175Z</time>
      </trkpt>
      <trkpt lat="39.55772833" lon="-8.39159833">
        <ele>44.0</ele>
        <time>2019-05-17T14:50:51.165Z</time>
      </trkpt>
      <trkpt lat="39.55772833" lon="-8.39159833">
        <ele>44.0</ele>
        <time>2019-05-17T14:50:52.170Z</time>
      </trkpt>
      <trkpt lat="39.55772833" lon="-8.39159833">
        <ele>44.0</ele>
        <time>2019-05-17T14:50:53.165Z</time>
      </trkpt>
      <trkpt lat="39.55772833" lon="-8.39159833">
        <ele>44.0</ele>
        <time>2019-05-17T14:50:54.150Z</time>
      </trkpt>
      <trkpt lat="39.55772833" lon="-8.39159833">
        <ele>44.0</ele>
        <time>2019-05-17T14:50:55.182Z</time>
      </trkpt>
      <trkpt lat="39.55772833" lon="-8.39159833">
        <ele>44.0</ele>
        <time>2019-05-17T14:50:56.172Z</time>
      </trkpt>
      <trkpt lat="39.55772833" lon="-8.39159833">
        <ele>44.0</ele>
        <time>2019-05-17T14:50:57.166Z</time>
      </trkpt>
      <trkpt lat="39.55772833" lon="-8.39159833">
        <ele>44.0</ele>
        <time>2019-05-17T14:50:58.151Z</time>
      </trkpt>
      <trkpt lat="39.55772833" lon="-8.39159833">
        <ele>44.0</ele>
        <time>2019-05-17T14:50:59.160Z</time>
      </trkpt>
      <trkpt lat="39.55772833" lon="-8.39159833">
        <ele>44.0</ele>
        <time>2019-05-17T14:51:00.184Z</time>
      </trkpt>
      <trkpt lat="39.55772833" lon="-8.39159833">
        <ele>44.0</ele>
        <time>2019-05-17T14:51:01.171Z</time>
      </trkpt>
      <trkpt lat="39.55772833" lon="-8.39159833">
        <ele>44.0</ele>
        <time>2019-05-17T14:51:02.167Z</time>
      </trkpt>
      <trkpt lat="39.55772833" lon="-8.39159833">
        <ele>44.0</ele>
        <time>2019-05-17T14:51:03.170Z</time>
      </trkpt>
      <trkpt lat="39.55772833" lon="-8.39159833">
        <ele>44.0</ele>
        <time>2019-05-17T14:51:04.165Z</time>
      </trkpt>
      <trkpt lat="39.55772833" lon="-8.39159833">
        <ele>44.0</ele>
        <time>2019-05-17T14:51:05.171Z</time>
      </trkpt>
      <trkpt lat="39.55772833" lon="-8.39159833">
        <ele>44.0</ele>
        <time>2019-05-17T14:51:06.165Z</time>
      </trkpt>
      <trkpt lat="39.55772833" lon="-8.39159833">
        <ele>44.0</ele>
        <time>2019-05-17T14:51:07.170Z</time>
      </trkpt>
      <trkpt lat="39.55772833" lon="-8.39159833">
        <ele>44.0</ele>
        <time>2019-05-17T14:51:08.172Z</time>
      </trkpt>
      <trkpt lat="39.55772833" lon="-8.39159833">
        <ele>44.0</ele>
        <time>2019-05-17T14:51:09.167Z</time>
      </trkpt>
      <trkpt lat="39.55772833" lon="-8.39159833">
        <ele>44.0</ele>
        <time>2019-05-17T14:51:10.175Z</time>
      </trkpt>
      <trkpt lat="39.55772833" lon="-8.39159833">
        <ele>44.0</ele>
        <time>2019-05-17T14:51:11.181Z</time>
      </trkpt>
      <trkpt lat="39.55772833" lon="-8.39159833">
        <ele>44.0</ele>
        <time>2019-05-17T14:51:12.187Z</time>
      </trkpt>
      <trkpt lat="39.55772833" lon="-8.39159833">
        <ele>44.0</ele>
        <time>2019-05-17T14:51:13.175Z</time>
      </trkpt>
      <trkpt lat="39.55772833" lon="-8.39159833">
        <ele>44.0</ele>
        <time>2019-05-17T14:51:14.167Z</time>
      </trkpt>
      <trkpt lat="39.55772833" lon="-8.39159833">
        <ele>44.0</ele>
        <time>2019-05-17T14:51:15.185Z</time>
      </trkpt>
      <trkpt lat="39.55772833" lon="-8.39159833">
        <ele>44.0</ele>
        <time>2019-05-17T14:51:16.171Z</time>
      </trkpt>
      <trkpt lat="39.55772833" lon="-8.39159833">
        <ele>44.0</ele>
        <time>2019-05-17T14:51:17.170Z</time>
      </trkpt>
      <trkpt lat="39.55772833" lon="-8.39159833">
        <ele>44.0</ele>
        <time>2019-05-17T14:51:18.170Z</time>
      </trkpt>
      <trkpt lat="39.55772833" lon="-8.39159833">
        <ele>44.0</ele>
        <time>2019-05-17T14:51:19.169Z</time>
      </trkpt>
      <trkpt lat="39.55772833" lon="-8.39159833">
        <ele>44.0</ele>
        <time>2019-05-17T14:51:20.173Z</time>
      </trkpt>
      <trkpt lat="39.55772833" lon="-8.39159833">
        <ele>44.0</ele>
        <time>2019-05-17T14:51:21.166Z</time>
      </trkpt>
      <trkpt lat="39.55772833" lon="-8.39159833">
        <ele>44.0</ele>
        <time>2019-05-17T14:51:22.171Z</time>
      </trkpt>
      <trkpt lat="39.55772833" lon="-8.39159833">
        <ele>44.0</ele>
        <time>2019-05-17T14:51:23.166Z</time>
      </trkpt>
      <trkpt lat="39.55772833" lon="-8.39159833">
        <ele>44.0</ele>
        <time>2019-05-17T14:51:24.170Z</time>
      </trkpt>
      <trkpt lat="39.55772833" lon="-8.39159833">
        <ele>44.0</ele>
        <time>2019-05-17T14:51:25.165Z</time>
      </trkpt>
      <trkpt lat="39.55772833" lon="-8.39159833">
        <ele>44.0</ele>
        <time>2019-05-17T14:51:26.173Z</time>
      </trkpt>
      <trkpt lat="39.55772833" lon="-8.39159833">
        <ele>44.0</ele>
        <time>2019-05-17T14:51:27.165Z</time>
      </trkpt>
      <trkpt lat="39.55772833" lon="-8.39159833">
        <ele>44.0</ele>
        <time>2019-05-17T14:51:28.151Z</time>
      </trkpt>
      <trkpt lat="39.55772833" lon="-8.39159833">
        <ele>44.0</ele>
        <time>2019-05-17T14:51:29.176Z</time>
      </trkpt>
      <trkpt lat="39.55772833" lon="-8.39159833">
        <ele>44.0</ele>
        <time>2019-05-17T14:51:30.170Z</time>
      </trkpt>
      <trkpt lat="39.55772833" lon="-8.39159833">
        <ele>44.0</ele>
        <time>2019-05-17T14:51:31.165Z</time>
      </trkpt>
      <trkpt lat="39.55772833" lon="-8.39159833">
        <ele>44.0</ele>
        <time>2019-05-17T14:51:32.172Z</time>
      </trkpt>
      <trkpt lat="39.55772833" lon="-8.39159833">
        <ele>44.0</ele>
        <time>2019-05-17T14:51:33.166Z</time>
      </trkpt>
      <trkpt lat="39.55772833" lon="-8.39159833">
        <ele>44.0</ele>
        <time>2019-05-17T14:51:34.170Z</time>
      </trkpt>
      <trkpt lat="39.55772833" lon="-8.39159833">
        <ele>44.0</ele>
        <time>2019-05-17T14:51:35.169Z</time>
      </trkpt>
      <trkpt lat="39.55772833" lon="-8.39159833">
        <ele>44.0</ele>
        <time>2019-05-17T14:51:36.170Z</time>
      </trkpt>
      <trkpt lat="39.55772833" lon="-8.39159833">
        <ele>44.0</ele>
        <time>2019-05-17T14:51:37.165Z</time>
      </trkpt>
      <trkpt lat="39.55772833" lon="-8.39159833">
        <ele>44.0</ele>
        <time>2019-05-17T14:51:38.152Z</time>
      </trkpt>
      <trkpt lat="39.55772833" lon="-8.39159833">
        <ele>44.0</ele>
        <time>2019-05-17T14:51:39.159Z</time>
      </trkpt>
      <trkpt lat="39.55772833" lon="-8.39159833">
        <ele>44.0</ele>
        <time>2019-05-17T14:51:40.184Z</time>
      </trkpt>
      <trkpt lat="39.55772833" lon="-8.39159833">
        <ele>44.0</ele>
        <time>2019-05-17T14:51:41.169Z</time>
      </trkpt>
      <trkpt lat="39.55772833" lon="-8.39159833">
        <ele>44.0</ele>
        <time>2019-05-17T14:51:42.170Z</time>
      </trkpt>
      <trkpt lat="39.55772833" lon="-8.39159833">
        <ele>44.0</ele>
        <time>2019-05-17T14:51:43.165Z</time>
      </trkpt>
      <trkpt lat="39.55776" lon="-8.39162667">
        <ele>44.0</ele>
        <time>2019-05-17T14:51:44.152Z</time>
      </trkpt>
      <trkpt lat="39.55776" lon="-8.39162667">
        <ele>44.0</ele>
        <time>2019-05-17T14:51:45.186Z</time>
      </trkpt>
      <trkpt lat="39.55779" lon="-8.39163667">
        <ele>44.0</ele>
        <time>2019-05-17T14:51:46.172Z</time>
      </trkpt>
      <trkpt lat="39.55779" lon="-8.39163667">
        <ele>44.0</ele>
        <time>2019-05-17T14:51:47.166Z</time>
      </trkpt>
      <trkpt lat="39.55782833" lon="-8.39165333">
        <ele>44.0</ele>
        <time>2019-05-17T14:51:48.170Z</time>
      </trkpt>
      <trkpt lat="39.55785" lon="-8.39166167">
        <ele>44.0</ele>
        <time>2019-05-17T14:51:49.151Z</time>
      </trkpt>
      <trkpt lat="39.55785" lon="-8.39166167">
        <ele>44.0</ele>
        <time>2019-05-17T14:51:50.171Z</time>
      </trkpt>
      <trkpt lat="39.55789" lon="-8.39168333">
        <ele>44.0</ele>
        <time>2019-05-17T14:51:51.155Z</time>
      </trkpt>
      <trkpt lat="39.55789" lon="-8.39168333">
        <ele>44.0</ele>
        <time>2019-05-17T14:51:52.188Z</time>
      </trkpt>
      <trkpt lat="39.55792833" lon="-8.39170167">
        <ele>43.0</ele>
        <time>2019-05-17T14:51:53.156Z</time>
      </trkpt>
      <trkpt lat="39.55792833" lon="-8.39170167">
        <ele>43.0</ele>
        <time>2019-05-17T14:51:54.162Z</time>
      </trkpt>
      <trkpt lat="39.557975" lon="-8.39172167">
        <ele>43.0</ele>
        <time>2019-05-17T14:51:55.173Z</time>
      </trkpt>
      <trkpt lat="39.55799833" lon="-8.39173333">
        <ele>43.0</ele>
        <time>2019-05-17T14:51:56.190Z</time>
      </trkpt>
      <trkpt lat="39.55802333" lon="-8.39174333">
        <ele>43.0</ele>
        <time>2019-05-17T14:51:57.151Z</time>
      </trkpt>
      <trkpt lat="39.55802333" lon="-8.39174333">
        <ele>43.0</ele>
        <time>2019-05-17T14:51:58.161Z</time>
      </trkpt>
      <trkpt lat="39.55807333" lon="-8.39176333">
        <ele>43.0</ele>
        <time>2019-05-17T14:51:59.160Z</time>
      </trkpt>
      <trkpt lat="39.55807333" lon="-8.39176333">
        <ele>43.0</ele>
        <time>2019-05-17T14:52:00.165Z</time>
      </trkpt>
      <trkpt lat="39.55812333" lon="-8.391785">
        <ele>42.0</ele>
        <time>2019-05-17T14:52:01.152Z</time>
      </trkpt>
      <trkpt lat="39.558145" lon="-8.39179833">
        <ele>42.0</ele>
        <time>2019-05-17T14:52:02.169Z</time>
      </trkpt>
      <trkpt lat="39.558145" lon="-8.39179833">
        <ele>42.0</ele>
        <time>2019-05-17T14:52:03.187Z</time>
      </trkpt>
      <trkpt lat="39.558185" lon="-8.39181667">
        <ele>42.0</ele>
        <time>2019-05-17T14:52:04.168Z</time>
      </trkpt>
      <trkpt lat="39.558185" lon="-8.39181667">
        <ele>42.0</ele>
        <time>2019-05-17T14:52:05.174Z</time>
      </trkpt>
      <trkpt lat="39.55823" lon="-8.39184">
        <ele>42.0</ele>
        <time>2019-05-17T14:52:06.179Z</time>
      </trkpt>
      <trkpt lat="39.55823" lon="-8.39184">
        <ele>42.0</ele>
        <time>2019-05-17T14:52:07.176Z</time>
      </trkpt>
      <trkpt lat="39.55828" lon="-8.39186667">
        <ele>42.0</ele>
        <time>2019-05-17T14:52:08.184Z</time>
      </trkpt>
      <trkpt lat="39.55828" lon="-8.39186667">
        <ele>42.0</ele>
        <time>2019-05-17T14:52:09.159Z</time>
      </trkpt>
      <trkpt lat="39.55833833" lon="-8.39189333">
        <ele>42.0</ele>
        <time>2019-05-17T14:52:10.150Z</time>
      </trkpt>
      <trkpt lat="39.55837333" lon="-8.39191">
        <ele>41.0</ele>
        <time>2019-05-17T14:52:11.157Z</time>
      </trkpt>
      <trkpt lat="39.55841167" lon="-8.39193167">
        <ele>41.0</ele>
        <time>2019-05-17T14:52:12.161Z</time>
      </trkpt>
      <trkpt lat="39.55841167" lon="-8.39193167">
        <ele>41.0</ele>
        <time>2019-05-17T14:52:13.179Z</time>
      </trkpt>
      <trkpt lat="39.55850333" lon="-8.39198833">
        <ele>40.0</ele>
        <time>2019-05-17T14:52:14.172Z</time>
      </trkpt>
      <trkpt lat="39.55850333" lon="-8.39198833">
        <ele>40.0</ele>
        <time>2019-05-17T14:52:15.174Z</time>
      </trkpt>
      <trkpt lat="39.55861833" lon="-8.39203833">
        <ele>39.0</ele>
        <time>2019-05-17T14:52:16.174Z</time>
      </trkpt>
      <trkpt lat="39.55861833" lon="-8.39203833">
        <ele>39.0</ele>
        <time>2019-05-17T14:52:17.176Z</time>
      </trkpt>
      <trkpt lat="39.55873167" lon="-8.39209667">
        <ele>38.0</ele>
        <time>2019-05-17T14:52:18.167Z</time>
      </trkpt>
      <trkpt lat="39.55873167" lon="-8.39209667">
        <ele>38.0</ele>
        <time>2019-05-17T14:52:19.158Z</time>
      </trkpt>
      <trkpt lat="39.55883833" lon="-8.39215667">
        <ele>38.0</ele>
        <time>2019-05-17T14:52:20.169Z</time>
      </trkpt>
      <trkpt lat="39.55883833" lon="-8.39215667">
        <ele>38.0</ele>
        <time>2019-05-17T14:52:21.164Z</time>
      </trkpt>
      <trkpt lat="39.55894" lon="-8.39221">
        <ele>38.0</ele>
        <time>2019-05-17T14:52:22.159Z</time>
      </trkpt>
      <trkpt lat="39.558985" lon="-8.392235">
        <ele>38.0</ele>
        <time>2019-05-17T14:52:23.175Z</time>
      </trkpt>
      <trkpt lat="39.558985" lon="-8.392235">
        <ele>38.0</ele>
        <time>2019-05-17T14:52:24.167Z</time>
      </trkpt>
      <trkpt lat="39.559065" lon="-8.39227833">
        <ele>38.0</ele>
        <time>2019-05-17T14:52:25.173Z</time>
      </trkpt>
      <trkpt lat="39.55909833" lon="-8.3923">
        <ele>38.0</ele>
        <time>2019-05-17T14:52:26.159Z</time>
      </trkpt>
      <trkpt lat="39.55909833" lon="-8.3923">
        <ele>38.0</ele>
        <time>2019-05-17T14:52:27.165Z</time>
      </trkpt>
      <trkpt lat="39.55916333" lon="-8.39232833">
        <ele>39.0</ele>
        <time>2019-05-17T14:52:28.161Z</time>
      </trkpt>
      <trkpt lat="39.55916333" lon="-8.39232833">
        <ele>39.0</ele>
        <time>2019-05-17T14:52:29.167Z</time>
      </trkpt>
      <trkpt lat="39.55922333" lon="-8.392355">
        <ele>40.0</ele>
        <time>2019-05-17T14:52:30.175Z</time>
      </trkpt>
      <trkpt lat="39.55922333" lon="-8.392355">
        <ele>40.0</ele>
        <time>2019-05-17T14:52:31.156Z</time>
      </trkpt>
      <trkpt lat="39.55927833" lon="-8.39238167">
        <ele>40.0</ele>
        <time>2019-05-17T14:52:32.184Z</time>
      </trkpt>
      <trkpt lat="39.55927833" lon="-8.39238167">
        <ele>40.0</ele>
        <time>2019-05-17T14:52:33.163Z</time>
      </trkpt>
      <trkpt lat="39.55933167" lon="-8.39241333">
        <ele>40.0</ele>
        <time>2019-05-17T14:52:34.158Z</time>
      </trkpt>
      <trkpt lat="39.55933167" lon="-8.39241333">
        <ele>40.0</ele>
        <time>2019-05-17T14:52:35.162Z</time>
      </trkpt>
      <trkpt lat="39.55938" lon="-8.39244333">
        <ele>40.0</ele>
        <time>2019-05-17T14:52:36.182Z</time>
      </trkpt>
      <trkpt lat="39.55938" lon="-8.39244333">
        <ele>40.0</ele>
        <time>2019-05-17T14:52:37.163Z</time>
      </trkpt>
      <trkpt lat="39.55943333" lon="-8.39247">
        <ele>40.0</ele>
        <time>2019-05-17T14:52:38.156Z</time>
      </trkpt>
      <trkpt lat="39.55943333" lon="-8.39247">
        <ele>40.0</ele>
        <time>2019-05-17T14:52:39.172Z</time>
      </trkpt>
      <trkpt lat="39.55948667" lon="-8.39249833">
        <ele>40.0</ele>
        <time>2019-05-17T14:52:40.187Z</time>
      </trkpt>
      <trkpt lat="39.55948667" lon="-8.39249833">
        <ele>40.0</ele>
        <time>2019-05-17T14:52:41.164Z</time>
      </trkpt>
      <trkpt lat="39.55955" lon="-8.39252333">
        <ele>39.0</ele>
        <time>2019-05-17T14:52:42.165Z</time>
      </trkpt>
      <trkpt lat="39.55955" lon="-8.39252333">
        <ele>39.0</ele>
        <time>2019-05-17T14:52:43.189Z</time>
      </trkpt>
      <trkpt lat="39.55961667" lon="-8.39255">
        <ele>39.0</ele>
        <time>2019-05-17T14:52:44.160Z</time>
      </trkpt>
      <trkpt lat="39.55961667" lon="-8.39255">
        <ele>39.0</ele>
        <time>2019-05-17T14:52:45.165Z</time>
      </trkpt>
      <trkpt lat="39.55968" lon="-8.392575">
        <ele>39.0</ele>
        <time>2019-05-17T14:52:46.175Z</time>
      </trkpt>
      <trkpt lat="39.55968" lon="-8.392575">
        <ele>39.0</ele>
        <time>2019-05-17T14:52:47.169Z</time>
      </trkpt>
      <trkpt lat="39.55973" lon="-8.39261">
        <ele>39.0</ele>
        <time>2019-05-17T14:52:48.180Z</time>
      </trkpt>
      <trkpt lat="39.55973" lon="-8.39261">
        <ele>39.0</ele>
        <time>2019-05-17T14:52:49.167Z</time>
      </trkpt>
      <trkpt lat="39.55977833" lon="-8.39263833">
        <ele>39.0</ele>
        <time>2019-05-17T14:52:50.167Z</time>
      </trkpt>
      <trkpt lat="39.55977833" lon="-8.39263833">
        <ele>39.0</ele>
        <time>2019-05-17T14:52:51.157Z</time>
      </trkpt>
      <trkpt lat="39.55983167" lon="-8.39265833">
        <ele>40.0</ele>
        <time>2019-05-17T14:52:52.186Z</time>
      </trkpt>
      <trkpt lat="39.55983167" lon="-8.39265833">
        <ele>40.0</ele>
        <time>2019-05-17T14:52:53.150Z</time>
      </trkpt>
      <trkpt lat="39.55988167" lon="-8.392685">
        <ele>40.0</ele>
        <time>2019-05-17T14:52:54.177Z</time>
      </trkpt>
      <trkpt lat="39.55988167" lon="-8.392685">
        <ele>40.0</ele>
        <time>2019-05-17T14:52:55.185Z</time>
      </trkpt>
      <trkpt lat="39.55992833" lon="-8.39270833">
        <ele>40.0</ele>
        <time>2019-05-17T14:52:56.155Z</time>
      </trkpt>
      <trkpt lat="39.55992833" lon="-8.39270833">
        <ele>40.0</ele>
        <time>2019-05-17T14:52:57.183Z</time>
      </trkpt>
      <trkpt lat="39.55998" lon="-8.39273667">
        <ele>40.0</ele>
        <time>2019-05-17T14:52:58.173Z</time>
      </trkpt>
      <trkpt lat="39.55998" lon="-8.39273667">
        <ele>40.0</ele>
        <time>2019-05-17T14:52:59.174Z</time>
      </trkpt>
      <trkpt lat="39.56003333" lon="-8.39277167">
        <ele>40.0</ele>
        <time>2019-05-17T14:53:00.158Z</time>
      </trkpt>
      <trkpt lat="39.56003333" lon="-8.39277167">
        <ele>40.0</ele>
        <time>2019-05-17T14:53:01.160Z</time>
      </trkpt>
      <trkpt lat="39.56008833" lon="-8.39280333">
        <ele>40.0</ele>
        <time>2019-05-17T14:53:02.188Z</time>
      </trkpt>
      <trkpt lat="39.56008833" lon="-8.39280333">
        <ele>40.0</ele>
        <time>2019-05-17T14:53:03.168Z</time>
      </trkpt>
      <trkpt lat="39.56014333" lon="-8.392835">
        <ele>40.0</ele>
        <time>2019-05-17T14:53:04.180Z</time>
      </trkpt>
      <trkpt lat="39.56014333" lon="-8.392835">
        <ele>40.0</ele>
        <time>2019-05-17T14:53:05.158Z</time>
      </trkpt>
      <trkpt lat="39.560195" lon="-8.39286333">
        <ele>40.0</ele>
        <time>2019-05-17T14:53:06.155Z</time>
      </trkpt>
      <trkpt lat="39.560195" lon="-8.39286333">
        <ele>40.0</ele>
        <time>2019-05-17T14:53:07.173Z</time>
      </trkpt>
      <trkpt lat="39.560255" lon="-8.3929">
        <ele>40.0</ele>
        <time>2019-05-17T14:53:08.163Z</time>
      </trkpt>
      <trkpt lat="39.560255" lon="-8.3929">
        <ele>40.0</ele>
        <time>2019-05-17T14:53:09.169Z</time>
      </trkpt>
      <trkpt lat="39.56031833" lon="-8.39293833">
        <ele>40.0</ele>
        <time>2019-05-17T14:53:10.161Z</time>
      </trkpt>
      <trkpt lat="39.56031833" lon="-8.39293833">
        <ele>40.0</ele>
        <time>2019-05-17T14:53:11.169Z</time>
      </trkpt>
      <trkpt lat="39.56038" lon="-8.39297333">
        <ele>40.0</ele>
        <time>2019-05-17T14:53:12.165Z</time>
      </trkpt>
      <trkpt lat="39.56038" lon="-8.39297333">
        <ele>40.0</ele>
        <time>2019-05-17T14:53:13.150Z</time>
      </trkpt>
      <trkpt lat="39.56043833" lon="-8.39299833">
        <ele>40.0</ele>
        <time>2019-05-17T14:53:14.150Z</time>
      </trkpt>
      <trkpt lat="39.56043833" lon="-8.39299833">
        <ele>40.0</ele>
        <time>2019-05-17T14:53:15.176Z</time>
      </trkpt>
      <trkpt lat="39.56049333" lon="-8.39302333">
        <ele>40.0</ele>
        <time>2019-05-17T14:53:16.176Z</time>
      </trkpt>
      <trkpt lat="39.56049333" lon="-8.39302333">
        <ele>40.0</ele>
        <time>2019-05-17T14:53:17.182Z</time>
      </trkpt>
      <trkpt lat="39.56054667" lon="-8.39305">
        <ele>40.0</ele>
        <time>2019-05-17T14:53:18.187Z</time>
      </trkpt>
      <trkpt lat="39.56054667" lon="-8.39305">
        <ele>40.0</ele>
        <time>2019-05-17T14:53:19.150Z</time>
      </trkpt>
      <trkpt lat="39.560595" lon="-8.39307333">
        <ele>41.0</ele>
        <time>2019-05-17T14:53:20.188Z</time>
      </trkpt>
      <trkpt lat="39.560595" lon="-8.39307333">
        <ele>41.0</ele>
        <time>2019-05-17T14:53:21.157Z</time>
      </trkpt>
      <trkpt lat="39.56064167" lon="-8.39309667">
        <ele>41.0</ele>
        <time>2019-05-17T14:53:22.165Z</time>
      </trkpt>
      <trkpt lat="39.56064167" lon="-8.39309667">
        <ele>41.0</ele>
        <time>2019-05-17T14:53:23.174Z</time>
      </trkpt>
      <trkpt lat="39.560685" lon="-8.39311833">
        <ele>41.0</ele>
        <time>2019-05-17T14:53:24.175Z</time>
      </trkpt>
      <trkpt lat="39.560685" lon="-8.39311833">
        <ele>41.0</ele>
        <time>2019-05-17T14:53:25.163Z</time>
      </trkpt>
      <trkpt lat="39.56072667" lon="-8.39314167">
        <ele>42.0</ele>
        <time>2019-05-17T14:53:26.167Z</time>
      </trkpt>
      <trkpt lat="39.56072667" lon="-8.39314167">
        <ele>42.0</ele>
        <time>2019-05-17T14:53:27.172Z</time>
      </trkpt>
      <trkpt lat="39.56076833" lon="-8.393165">
        <ele>42.0</ele>
        <time>2019-05-17T14:53:28.155Z</time>
      </trkpt>
      <trkpt lat="39.56076833" lon="-8.393165">
        <ele>42.0</ele>
        <time>2019-05-17T14:53:29.187Z</time>
      </trkpt>
      <trkpt lat="39.56081167" lon="-8.39318333">
        <ele>42.0</ele>
        <time>2019-05-17T14:53:30.189Z</time>
      </trkpt>
      <trkpt lat="39.56081167" lon="-8.39318333">
        <ele>42.0</ele>
        <time>2019-05-17T14:53:31.158Z</time>
      </trkpt>
      <trkpt lat="39.56085" lon="-8.393205">
        <ele>42.0</ele>
        <time>2019-05-17T14:53:32.183Z</time>
      </trkpt>
      <trkpt lat="39.56085" lon="-8.393205">
        <ele>42.0</ele>
        <time>2019-05-17T14:53:33.166Z</time>
      </trkpt>
      <trkpt lat="39.56088667" lon="-8.39322333">
        <ele>42.0</ele>
        <time>2019-05-17T14:53:34.173Z</time>
      </trkpt>
      <trkpt lat="39.560905" lon="-8.39323167">
        <ele>42.0</ele>
        <time>2019-05-17T14:53:35.166Z</time>
      </trkpt>
      <trkpt lat="39.560905" lon="-8.39323167">
        <ele>42.0</ele>
        <time>2019-05-17T14:53:36.183Z</time>
      </trkpt>
      <trkpt lat="39.560945" lon="-8.393255">
        <ele>42.0</ele>
        <time>2019-05-17T14:53:37.167Z</time>
      </trkpt>
      <trkpt lat="39.560965" lon="-8.39326833">
        <ele>42.0</ele>
        <time>2019-05-17T14:53:38.189Z</time>
      </trkpt>
      <trkpt lat="39.560965" lon="-8.39326833">
        <ele>42.0</ele>
        <time>2019-05-17T14:53:39.174Z</time>
      </trkpt>
      <trkpt lat="39.561005" lon="-8.393285">
        <ele>42.0</ele>
        <time>2019-05-17T14:53:40.174Z</time>
      </trkpt>
      <trkpt lat="39.561005" lon="-8.393285">
        <ele>42.0</ele>
        <time>2019-05-17T14:53:41.163Z</time>
      </trkpt>
      <trkpt lat="39.56104667" lon="-8.393305">
        <ele>42.0</ele>
        <time>2019-05-17T14:53:42.174Z</time>
      </trkpt>
      <trkpt lat="39.561065" lon="-8.39331667">
        <ele>42.0</ele>
        <time>2019-05-17T14:53:43.165Z</time>
      </trkpt>
      <trkpt lat="39.56108333" lon="-8.39332833">
        <ele>42.0</ele>
        <time>2019-05-17T14:53:44.190Z</time>
      </trkpt>
      <trkpt lat="39.56108333" lon="-8.39332833">
        <ele>42.0</ele>
        <time>2019-05-17T14:53:45.163Z</time>
      </trkpt>
      <trkpt lat="39.561115" lon="-8.39335">
        <ele>42.0</ele>
        <time>2019-05-17T14:53:46.156Z</time>
      </trkpt>
      <trkpt lat="39.561115" lon="-8.39335">
        <ele>42.0</ele>
        <time>2019-05-17T14:53:47.182Z</time>
      </trkpt>
      <trkpt lat="39.56114667" lon="-8.39336833">
        <ele>42.0</ele>
        <time>2019-05-17T14:53:48.176Z</time>
      </trkpt>
      <trkpt lat="39.56114667" lon="-8.39336833">
        <ele>42.0</ele>
        <time>2019-05-17T14:53:49.188Z</time>
      </trkpt>
      <trkpt lat="39.56117833" lon="-8.39338167">
        <ele>43.0</ele>
        <time>2019-05-17T14:53:50.175Z</time>
      </trkpt>
      <trkpt lat="39.56117833" lon="-8.39338167">
        <ele>43.0</ele>
        <time>2019-05-17T14:53:51.150Z</time>
      </trkpt>
      <trkpt lat="39.56121" lon="-8.39339667">
        <ele>43.0</ele>
        <time>2019-05-17T14:53:52.155Z</time>
      </trkpt>
      <trkpt lat="39.56121" lon="-8.39339667">
        <ele>43.0</ele>
        <time>2019-05-17T14:53:53.178Z</time>
      </trkpt>
      <trkpt lat="39.56124167" lon="-8.39342">
        <ele>42.0</ele>
        <time>2019-05-17T14:53:54.168Z</time>
      </trkpt>
      <trkpt lat="39.56124167" lon="-8.39342">
        <ele>42.0</ele>
        <time>2019-05-17T14:53:55.158Z</time>
      </trkpt>
      <trkpt lat="39.56128" lon="-8.39343667">
        <ele>42.0</ele>
        <time>2019-05-17T14:53:56.156Z</time>
      </trkpt>
      <trkpt lat="39.56128" lon="-8.39343667">
        <ele>42.0</ele>
        <time>2019-05-17T14:53:57.171Z</time>
      </trkpt>
      <trkpt lat="39.56131667" lon="-8.39346167">
        <ele>42.0</ele>
        <time>2019-05-17T14:53:58.173Z</time>
      </trkpt>
      <trkpt lat="39.56131667" lon="-8.39346167">
        <ele>42.0</ele>
        <time>2019-05-17T14:53:59.169Z</time>
      </trkpt>
      <trkpt lat="39.56135167" lon="-8.39349167">
        <ele>42.0</ele>
        <time>2019-05-17T14:54:00.162Z</time>
      </trkpt>
      <trkpt lat="39.56135167" lon="-8.39349167">
        <ele>42.0</ele>
        <time>2019-05-17T14:54:01.168Z</time>
      </trkpt>
      <trkpt lat="39.56139667" lon="-8.39350833">
        <ele>42.0</ele>
        <time>2019-05-17T14:54:02.184Z</time>
      </trkpt>
      <trkpt lat="39.56139667" lon="-8.39350833">
        <ele>42.0</ele>
        <time>2019-05-17T14:54:03.167Z</time>
      </trkpt>
      <trkpt lat="39.56144333" lon="-8.39353167">
        <ele>41.0</ele>
        <time>2019-05-17T14:54:04.155Z</time>
      </trkpt>
      <trkpt lat="39.56144333" lon="-8.39353167">
        <ele>41.0</ele>
        <time>2019-05-17T14:54:05.162Z</time>
      </trkpt>
      <trkpt lat="39.56149167" lon="-8.39356">
        <ele>41.0</ele>
        <time>2019-05-17T14:54:06.165Z</time>
      </trkpt>
      <trkpt lat="39.56149167" lon="-8.39356">
        <ele>41.0</ele>
        <time>2019-05-17T14:54:07.174Z</time>
      </trkpt>
      <trkpt lat="39.56154" lon="-8.393585">
        <ele>41.0</ele>
        <time>2019-05-17T14:54:08.172Z</time>
      </trkpt>
      <trkpt lat="39.56154" lon="-8.393585">
        <ele>41.0</ele>
        <time>2019-05-17T14:54:09.167Z</time>
      </trkpt>
      <trkpt lat="39.561585" lon="-8.393615">
        <ele>41.0</ele>
        <time>2019-05-17T14:54:10.179Z</time>
      </trkpt>
      <trkpt lat="39.561585" lon="-8.393615">
        <ele>41.0</ele>
        <time>2019-05-17T14:54:11.167Z</time>
      </trkpt>
      <trkpt lat="39.56162667" lon="-8.39364167">
        <ele>40.0</ele>
        <time>2019-05-17T14:54:12.157Z</time>
      </trkpt>
      <trkpt lat="39.56162667" lon="-8.39364167">
        <ele>40.0</ele>
        <time>2019-05-17T14:54:13.181Z</time>
      </trkpt>
      <trkpt lat="39.561665" lon="-8.393665">
        <ele>40.0</ele>
        <time>2019-05-17T14:54:14.165Z</time>
      </trkpt>
      <trkpt lat="39.561665" lon="-8.393665">
        <ele>40.0</ele>
        <time>2019-05-17T14:54:15.158Z</time>
      </trkpt>
      <trkpt lat="39.56170667" lon="-8.39369">
        <ele>40.0</ele>
        <time>2019-05-17T14:54:16.159Z</time>
      </trkpt>
      <trkpt lat="39.56172833" lon="-8.39370167">
        <ele>40.0</ele>
        <time>2019-05-17T14:54:17.175Z</time>
      </trkpt>
      <trkpt lat="39.56172833" lon="-8.39370167">
        <ele>40.0</ele>
        <time>2019-05-17T14:54:18.156Z</time>
      </trkpt>
      <trkpt lat="39.56177667" lon="-8.39372833">
        <ele>40.0</ele>
        <time>2019-05-17T14:54:19.182Z</time>
      </trkpt>
      <trkpt lat="39.56180167" lon="-8.39374167">
        <ele>40.0</ele>
        <time>2019-05-17T14:54:20.185Z</time>
      </trkpt>
      <trkpt lat="39.56180167" lon="-8.39374167">
        <ele>40.0</ele>
        <time>2019-05-17T14:54:21.150Z</time>
      </trkpt>
      <trkpt lat="39.56185167" lon="-8.39377">
        <ele>40.0</ele>
        <time>2019-05-17T14:54:22.158Z</time>
      </trkpt>
      <trkpt lat="39.56185167" lon="-8.39377">
        <ele>40.0</ele>
        <time>2019-05-17T14:54:23.178Z</time>
      </trkpt>
      <trkpt lat="39.5619" lon="-8.39380167">
        <ele>40.0</ele>
        <time>2019-05-17T14:54:24.165Z</time>
      </trkpt>
      <trkpt lat="39.5619" lon="-8.39380167">
        <ele>40.0</ele>
        <time>2019-05-17T14:54:25.157Z</time>
      </trkpt>
      <trkpt lat="39.56195" lon="-8.39383167">
        <ele>40.0</ele>
        <time>2019-05-17T14:54:26.178Z</time>
      </trkpt>
      <trkpt lat="39.56195" lon="-8.39383167">
        <ele>40.0</ele>
        <time>2019-05-17T14:54:27.161Z</time>
      </trkpt>
      <trkpt lat="39.562" lon="-8.393865">
        <ele>39.0</ele>
        <time>2019-05-17T14:54:28.151Z</time>
      </trkpt>
      <trkpt lat="39.562" lon="-8.393865">
        <ele>39.0</ele>
        <time>2019-05-17T14:54:29.152Z</time>
      </trkpt>
      <trkpt lat="39.56205167" lon="-8.39390167">
        <ele>40.0</ele>
        <time>2019-05-17T14:54:30.197Z</time>
      </trkpt>
      <trkpt lat="39.56205167" lon="-8.39390167">
        <ele>40.0</ele>
        <time>2019-05-17T14:54:31.183Z</time>
      </trkpt>
      <trkpt lat="39.5621" lon="-8.39393333">
        <ele>40.0</ele>
        <time>2019-05-17T14:54:32.167Z</time>
      </trkpt>
      <trkpt lat="39.5621" lon="-8.39393333">
        <ele>40.0</ele>
        <time>2019-05-17T14:54:33.177Z</time>
      </trkpt>
      <trkpt lat="39.56214333" lon="-8.39396667">
        <ele>40.0</ele>
        <time>2019-05-17T14:54:34.181Z</time>
      </trkpt>
      <trkpt lat="39.56214333" lon="-8.39396667">
        <ele>40.0</ele>
        <time>2019-05-17T14:54:35.180Z</time>
      </trkpt>
      <trkpt lat="39.56218167" lon="-8.39399667">
        <ele>41.0</ele>
        <time>2019-05-17T14:54:36.172Z</time>
      </trkpt>
      <trkpt lat="39.56218167" lon="-8.39399667">
        <ele>41.0</ele>
        <time>2019-05-17T14:54:37.170Z</time>
      </trkpt>
      <trkpt lat="39.56221833" lon="-8.394025">
        <ele>41.0</ele>
        <time>2019-05-17T14:54:38.170Z</time>
      </trkpt>
      <trkpt lat="39.56221833" lon="-8.394025">
        <ele>41.0</ele>
        <time>2019-05-17T14:54:39.178Z</time>
      </trkpt>
      <trkpt lat="39.56225667" lon="-8.39405667">
        <ele>41.0</ele>
        <time>2019-05-17T14:54:40.171Z</time>
      </trkpt>
      <trkpt lat="39.56225667" lon="-8.39405667">
        <ele>41.0</ele>
        <time>2019-05-17T14:54:41.178Z</time>
      </trkpt>
      <trkpt lat="39.56229833" lon="-8.39409">
        <ele>41.0</ele>
        <time>2019-05-17T14:54:42.186Z</time>
      </trkpt>
      <trkpt lat="39.56229833" lon="-8.39409">
        <ele>41.0</ele>
        <time>2019-05-17T14:54:43.152Z</time>
      </trkpt>
      <trkpt lat="39.56235333" lon="-8.39412833">
        <ele>41.0</ele>
        <time>2019-05-17T14:54:44.186Z</time>
      </trkpt>
      <trkpt lat="39.56235333" lon="-8.39412833">
        <ele>41.0</ele>
        <time>2019-05-17T14:54:45.166Z</time>
      </trkpt>
      <trkpt lat="39.56239667" lon="-8.39416">
        <ele>42.0</ele>
        <time>2019-05-17T14:54:46.163Z</time>
      </trkpt>
      <trkpt lat="39.56241833" lon="-8.394175">
        <ele>42.0</ele>
        <time>2019-05-17T14:54:47.170Z</time>
      </trkpt>
      <trkpt lat="39.56241833" lon="-8.394175">
        <ele>42.0</ele>
        <time>2019-05-17T14:54:48.178Z</time>
      </trkpt>
      <trkpt lat="39.562465" lon="-8.39420167">
        <ele>43.0</ele>
        <time>2019-05-17T14:54:49.171Z</time>
      </trkpt>
      <trkpt lat="39.56248833" lon="-8.39421833">
        <ele>43.0</ele>
        <time>2019-05-17T14:54:50.180Z</time>
      </trkpt>
      <trkpt lat="39.56248833" lon="-8.39421833">
        <ele>43.0</ele>
        <time>2019-05-17T14:54:51.171Z</time>
      </trkpt>
      <trkpt lat="39.56253833" lon="-8.39425">
        <ele>43.0</ele>
        <time>2019-05-17T14:54:52.184Z</time>
      </trkpt>
      <trkpt lat="39.56253833" lon="-8.39425">
        <ele>43.0</ele>
        <time>2019-05-17T14:54:53.185Z</time>
      </trkpt>
      <trkpt lat="39.56257833" lon="-8.39428167">
        <ele>43.0</ele>
        <time>2019-05-17T14:54:54.164Z</time>
      </trkpt>
      <trkpt lat="39.56257833" lon="-8.39428167">
        <ele>43.0</ele>
        <time>2019-05-17T14:54:55.182Z</time>
      </trkpt>
      <trkpt lat="39.56262333" lon="-8.394315">
        <ele>43.0</ele>
        <time>2019-05-17T14:54:56.187Z</time>
      </trkpt>
      <trkpt lat="39.56262333" lon="-8.394315">
        <ele>43.0</ele>
        <time>2019-05-17T14:54:57.171Z</time>
      </trkpt>
      <trkpt lat="39.562675" lon="-8.39434833">
        <ele>43.0</ele>
        <time>2019-05-17T14:54:58.173Z</time>
      </trkpt>
      <trkpt lat="39.562675" lon="-8.39434833">
        <ele>43.0</ele>
        <time>2019-05-17T14:54:59.180Z</time>
      </trkpt>
      <trkpt lat="39.562725" lon="-8.39438167">
        <ele>43.0</ele>
        <time>2019-05-17T14:55:00.182Z</time>
      </trkpt>
      <trkpt lat="39.562725" lon="-8.39438167">
        <ele>43.0</ele>
        <time>2019-05-17T14:55:01.189Z</time>
      </trkpt>
      <trkpt lat="39.562775" lon="-8.39441333">
        <ele>43.0</ele>
        <time>2019-05-17T14:55:02.179Z</time>
      </trkpt>
      <trkpt lat="39.562775" lon="-8.39441333">
        <ele>43.0</ele>
        <time>2019-05-17T14:55:03.171Z</time>
      </trkpt>
      <trkpt lat="39.562825" lon="-8.394445">
        <ele>43.0</ele>
        <time>2019-05-17T14:55:04.161Z</time>
      </trkpt>
      <trkpt lat="39.56284833" lon="-8.39446167">
        <ele>43.0</ele>
        <time>2019-05-17T14:55:05.180Z</time>
      </trkpt>
      <trkpt lat="39.56284833" lon="-8.39446167">
        <ele>43.0</ele>
        <time>2019-05-17T14:55:06.176Z</time>
      </trkpt>
      <trkpt lat="39.56289667" lon="-8.394495">
        <ele>43.0</ele>
        <time>2019-05-17T14:55:07.239Z</time>
      </trkpt>
      <trkpt lat="39.56292" lon="-8.39451333">
        <ele>43.0</ele>
        <time>2019-05-17T14:55:08.152Z</time>
      </trkpt>
      <trkpt lat="39.56292" lon="-8.39451333">
        <ele>43.0</ele>
        <time>2019-05-17T14:55:09.178Z</time>
      </trkpt>
      <trkpt lat="39.56296833" lon="-8.39454833">
        <ele>43.0</ele>
        <time>2019-05-17T14:55:10.170Z</time>
      </trkpt>
      <trkpt lat="39.56296833" lon="-8.39454833">
        <ele>43.0</ele>
        <time>2019-05-17T14:55:11.183Z</time>
      </trkpt>
      <trkpt lat="39.56301667" lon="-8.39458333">
        <ele>44.0</ele>
        <time>2019-05-17T14:55:12.172Z</time>
      </trkpt>
      <trkpt lat="39.56301667" lon="-8.39458333">
        <ele>44.0</ele>
        <time>2019-05-17T14:55:13.160Z</time>
      </trkpt>
      <trkpt lat="39.56306667" lon="-8.39461333">
        <ele>44.0</ele>
        <time>2019-05-17T14:55:14.165Z</time>
      </trkpt>
      <trkpt lat="39.56306667" lon="-8.39461333">
        <ele>44.0</ele>
        <time>2019-05-17T14:55:15.150Z</time>
      </trkpt>
      <trkpt lat="39.563115" lon="-8.39464333">
        <ele>44.0</ele>
        <time>2019-05-17T14:55:16.185Z</time>
      </trkpt>
      <trkpt lat="39.563115" lon="-8.39464333">
        <ele>44.0</ele>
        <time>2019-05-17T14:55:17.154Z</time>
      </trkpt>
      <trkpt lat="39.56316167" lon="-8.394675">
        <ele>45.0</ele>
        <time>2019-05-17T14:55:18.182Z</time>
      </trkpt>
      <trkpt lat="39.563185" lon="-8.39469167">
        <ele>45.0</ele>
        <time>2019-05-17T14:55:19.188Z</time>
      </trkpt>
      <trkpt lat="39.56320833" lon="-8.39470667">
        <ele>45.0</ele>
        <time>2019-05-17T14:55:20.169Z</time>
      </trkpt>
      <trkpt lat="39.56320833" lon="-8.39470667">
        <ele>45.0</ele>
        <time>2019-05-17T14:55:21.186Z</time>
      </trkpt>
      <trkpt lat="39.563255" lon="-8.39474167">
        <ele>45.0</ele>
        <time>2019-05-17T14:55:22.175Z</time>
      </trkpt>
      <trkpt lat="39.563255" lon="-8.39474167">
        <ele>45.0</ele>
        <time>2019-05-17T14:55:23.187Z</time>
      </trkpt>
      <trkpt lat="39.56330167" lon="-8.39477667">
        <ele>45.0</ele>
        <time>2019-05-17T14:55:24.153Z</time>
      </trkpt>
      <trkpt lat="39.563325" lon="-8.39479333">
        <ele>45.0</ele>
        <time>2019-05-17T14:55:25.161Z</time>
      </trkpt>
      <trkpt lat="39.56334667" lon="-8.39481167">
        <ele>45.0</ele>
        <time>2019-05-17T14:55:26.165Z</time>
      </trkpt>
      <trkpt lat="39.56334667" lon="-8.39481167">
        <ele>45.0</ele>
        <time>2019-05-17T14:55:27.158Z</time>
      </trkpt>
      <trkpt lat="39.56339167" lon="-8.39484667">
        <ele>45.0</ele>
        <time>2019-05-17T14:55:28.161Z</time>
      </trkpt>
      <trkpt lat="39.56339167" lon="-8.39484667">
        <ele>45.0</ele>
        <time>2019-05-17T14:55:29.183Z</time>
      </trkpt>
      <trkpt lat="39.56343333" lon="-8.39487167">
        <ele>46.0</ele>
        <time>2019-05-17T14:55:30.160Z</time>
      </trkpt>
      <trkpt lat="39.563455" lon="-8.394885">
        <ele>46.0</ele>
        <time>2019-05-17T14:55:31.155Z</time>
      </trkpt>
      <trkpt lat="39.563475" lon="-8.39489833">
        <ele>46.0</ele>
        <time>2019-05-17T14:55:32.160Z</time>
      </trkpt>
      <trkpt lat="39.563475" lon="-8.39489833">
        <ele>46.0</ele>
        <time>2019-05-17T14:55:33.160Z</time>
      </trkpt>
      <trkpt lat="39.56351" lon="-8.39492833">
        <ele>47.0</ele>
        <time>2019-05-17T14:55:34.153Z</time>
      </trkpt>
      <trkpt lat="39.56351" lon="-8.39492833">
        <ele>47.0</ele>
        <time>2019-05-17T14:55:35.179Z</time>
      </trkpt>
      <trkpt lat="39.56354667" lon="-8.39495833">
        <ele>48.0</ele>
        <time>2019-05-17T14:55:36.155Z</time>
      </trkpt>
      <trkpt lat="39.56354667" lon="-8.39495833">
        <ele>48.0</ele>
        <time>2019-05-17T14:55:37.158Z</time>
      </trkpt>
      <trkpt lat="39.563585" lon="-8.394985">
        <ele>48.0</ele>
        <time>2019-05-17T14:55:38.161Z</time>
      </trkpt>
      <trkpt lat="39.563585" lon="-8.394985">
        <ele>48.0</ele>
        <time>2019-05-17T14:55:39.168Z</time>
      </trkpt>
      <trkpt lat="39.56362333" lon="-8.39501333">
        <ele>49.0</ele>
        <time>2019-05-17T14:55:40.164Z</time>
      </trkpt>
      <trkpt lat="39.56362333" lon="-8.39501333">
        <ele>49.0</ele>
        <time>2019-05-17T14:55:41.185Z</time>
      </trkpt>
      <trkpt lat="39.56365833" lon="-8.395035">
        <ele>50.0</ele>
        <time>2019-05-17T14:55:42.176Z</time>
      </trkpt>
      <trkpt lat="39.563675" lon="-8.39504333">
        <ele>50.0</ele>
        <time>2019-05-17T14:55:43.151Z</time>
      </trkpt>
      <trkpt lat="39.56369" lon="-8.39505333">
        <ele>50.0</ele>
        <time>2019-05-17T14:55:44.169Z</time>
      </trkpt>
      <trkpt lat="39.56369" lon="-8.39505333">
        <ele>50.0</ele>
        <time>2019-05-17T14:55:45.183Z</time>
      </trkpt>
      <trkpt lat="39.56372" lon="-8.39507667">
        <ele>50.0</ele>
        <time>2019-05-17T14:55:46.170Z</time>
      </trkpt>
      <trkpt lat="39.56372" lon="-8.39507667">
        <ele>50.0</ele>
        <time>2019-05-17T14:55:47.171Z</time>
      </trkpt>
      <trkpt lat="39.563755" lon="-8.395105">
        <ele>50.0</ele>
        <time>2019-05-17T14:55:48.177Z</time>
      </trkpt>
      <trkpt lat="39.563775" lon="-8.39511667">
        <ele>50.0</ele>
        <time>2019-05-17T14:55:49.182Z</time>
      </trkpt>
      <trkpt lat="39.563795" lon="-8.39513">
        <ele>50.0</ele>
        <time>2019-05-17T14:55:50.188Z</time>
      </trkpt>
      <trkpt lat="39.563795" lon="-8.39513">
        <ele>50.0</ele>
        <time>2019-05-17T14:55:51.160Z</time>
      </trkpt>
      <trkpt lat="39.56382833" lon="-8.39515167">
        <ele>50.0</ele>
        <time>2019-05-17T14:55:52.163Z</time>
      </trkpt>
      <trkpt lat="39.56384167" lon="-8.39516333">
        <ele>51.0</ele>
        <time>2019-05-17T14:55:53.156Z</time>
      </trkpt>
      <trkpt lat="39.56384167" lon="-8.39516333">
        <ele>51.0</ele>
        <time>2019-05-17T14:55:54.176Z</time>
      </trkpt>
      <trkpt lat="39.56385167" lon="-8.39517333">
        <ele>50.0</ele>
        <time>2019-05-17T14:55:55.175Z</time>
      </trkpt>
      <trkpt lat="39.563855" lon="-8.39517333">
        <ele>50.0</ele>
        <time>2019-05-17T14:55:56.155Z</time>
      </trkpt>
      <trkpt lat="39.563855" lon="-8.39517333">
        <ele>50.0</ele>
        <time>2019-05-17T14:55:57.183Z</time>
      </trkpt>
      <trkpt lat="39.563855" lon="-8.39517333">
        <ele>50.0</ele>
        <time>2019-05-17T14:55:58.153Z</time>
      </trkpt>
      <trkpt lat="39.563855" lon="-8.39517333">
        <ele>50.0</ele>
        <time>2019-05-17T14:55:59.169Z</time>
      </trkpt>
      <trkpt lat="39.563855" lon="-8.39517333">
        <ele>50.0</ele>
        <time>2019-05-17T14:56:00.175Z</time>
      </trkpt>
      <trkpt lat="39.563855" lon="-8.39517333">
        <ele>50.0</ele>
        <time>2019-05-17T14:56:01.181Z</time>
      </trkpt>
      <trkpt lat="39.563855" lon="-8.39517333">
        <ele>50.0</ele>
        <time>2019-05-17T14:56:02.187Z</time>
      </trkpt>
      <trkpt lat="39.563855" lon="-8.39517333">
        <ele>50.0</ele>
        <time>2019-05-17T14:56:03.165Z</time>
      </trkpt>
      <trkpt lat="39.563855" lon="-8.39517333">
        <ele>50.0</ele>
        <time>2019-05-17T14:56:04.150Z</time>
      </trkpt>
      <trkpt lat="39.563855" lon="-8.39517333">
        <ele>50.0</ele>
        <time>2019-05-17T14:56:05.176Z</time>
      </trkpt>
      <trkpt lat="39.563855" lon="-8.39517333">
        <ele>50.0</ele>
        <time>2019-05-17T14:56:06.180Z</time>
      </trkpt>
      <trkpt lat="39.563855" lon="-8.39517333">
        <ele>50.0</ele>
        <time>2019-05-17T14:56:07.166Z</time>
      </trkpt>
      <trkpt lat="39.563855" lon="-8.39517333">
        <ele>50.0</ele>
        <time>2019-05-17T14:56:08.153Z</time>
      </trkpt>
      <trkpt lat="39.563855" lon="-8.39517333">
        <ele>50.0</ele>
        <time>2019-05-17T14:56:09.182Z</time>
      </trkpt>
      <trkpt lat="39.563855" lon="-8.39517333">
        <ele>50.0</ele>
        <time>2019-05-17T14:56:10.161Z</time>
      </trkpt>
      <trkpt lat="39.563855" lon="-8.39517333">
        <ele>50.0</ele>
        <time>2019-05-17T14:56:11.167Z</time>
      </trkpt>
      <trkpt lat="39.563855" lon="-8.39517333">
        <ele>50.0</ele>
        <time>2019-05-17T14:56:12.184Z</time>
      </trkpt>
      <trkpt lat="39.563855" lon="-8.39517333">
        <ele>50.0</ele>
        <time>2019-05-17T14:56:13.171Z</time>
      </trkpt>
      <trkpt lat="39.563855" lon="-8.39517333">
        <ele>50.0</ele>
        <time>2019-05-17T14:56:14.171Z</time>
      </trkpt>
      <trkpt lat="39.563855" lon="-8.39517333">
        <ele>50.0</ele>
        <time>2019-05-17T14:56:15.167Z</time>
      </trkpt>
      <trkpt lat="39.563855" lon="-8.39517333">
        <ele>50.0</ele>
        <time>2019-05-17T14:56:16.171Z</time>
      </trkpt>
      <trkpt lat="39.563855" lon="-8.39517333">
        <ele>50.0</ele>
        <time>2019-05-17T14:56:17.167Z</time>
      </trkpt>
      <trkpt lat="39.563855" lon="-8.39517333">
        <ele>50.0</ele>
        <time>2019-05-17T14:56:18.172Z</time>
      </trkpt>
      <trkpt lat="39.563855" lon="-8.39517333">
        <ele>50.0</ele>
        <time>2019-05-17T14:56:19.167Z</time>
      </trkpt>
      <trkpt lat="39.563855" lon="-8.39517333">
        <ele>50.0</ele>
        <time>2019-05-17T14:56:20.173Z</time>
      </trkpt>
      <trkpt lat="39.563855" lon="-8.39517333">
        <ele>50.0</ele>
        <time>2019-05-17T14:56:21.167Z</time>
      </trkpt>
      <trkpt lat="39.563855" lon="-8.39517333">
        <ele>50.0</ele>
        <time>2019-05-17T14:56:22.171Z</time>
      </trkpt>
      <trkpt lat="39.563855" lon="-8.39517333">
        <ele>50.0</ele>
        <time>2019-05-17T14:56:23.166Z</time>
      </trkpt>
      <trkpt lat="39.563855" lon="-8.39517333">
        <ele>50.0</ele>
        <time>2019-05-17T14:56:24.171Z</time>
      </trkpt>
      <trkpt lat="39.563855" lon="-8.39517333">
        <ele>50.0</ele>
        <time>2019-05-17T14:56:25.167Z</time>
      </trkpt>
      <trkpt lat="39.563855" lon="-8.39517333">
        <ele>50.0</ele>
        <time>2019-05-17T14:56:26.173Z</time>
      </trkpt>
      <trkpt lat="39.563855" lon="-8.39517333">
        <ele>50.0</ele>
        <time>2019-05-17T14:56:27.166Z</time>
      </trkpt>
      <trkpt lat="39.563855" lon="-8.39517333">
        <ele>50.0</ele>
        <time>2019-05-17T14:56:28.151Z</time>
      </trkpt>
      <trkpt lat="39.563855" lon="-8.39517333">
        <ele>50.0</ele>
        <time>2019-05-17T14:56:29.189Z</time>
      </trkpt>
      <trkpt lat="39.563855" lon="-8.39517333">
        <ele>50.0</ele>
        <time>2019-05-17T14:56:30.175Z</time>
      </trkpt>
      <trkpt lat="39.563855" lon="-8.39517333">
        <ele>50.0</ele>
        <time>2019-05-17T14:56:31.167Z</time>
      </trkpt>
      <trkpt lat="39.563855" lon="-8.39517333">
        <ele>50.0</ele>
        <time>2019-05-17T14:56:32.172Z</time>
      </trkpt>
      <trkpt lat="39.563855" lon="-8.39517333">
        <ele>50.0</ele>
        <time>2019-05-17T14:56:33.166Z</time>
      </trkpt>
      <trkpt lat="39.563855" lon="-8.39517333">
        <ele>50.0</ele>
        <time>2019-05-17T14:56:34.169Z</time>
      </trkpt>
      <trkpt lat="39.563855" lon="-8.39517333">
        <ele>50.0</ele>
        <time>2019-05-17T14:56:35.172Z</time>
      </trkpt>
      <trkpt lat="39.563855" lon="-8.39517333">
        <ele>50.0</ele>
        <time>2019-05-17T14:56:36.167Z</time>
      </trkpt>
      <trkpt lat="39.563855" lon="-8.39517333">
        <ele>50.0</ele>
        <time>2019-05-17T14:56:37.171Z</time>
      </trkpt>
      <trkpt lat="39.563855" lon="-8.39517333">
        <ele>50.0</ele>
        <time>2019-05-17T14:56:38.173Z</time>
      </trkpt>
      <trkpt lat="39.563855" lon="-8.39517333">
        <ele>50.0</ele>
        <time>2019-05-17T14:56:39.172Z</time>
      </trkpt>
      <trkpt lat="39.563855" lon="-8.39517333">
        <ele>50.0</ele>
        <time>2019-05-17T14:56:40.167Z</time>
      </trkpt>
      <trkpt lat="39.563855" lon="-8.39517333">
        <ele>50.0</ele>
        <time>2019-05-17T14:56:41.171Z</time>
      </trkpt>
      <trkpt lat="39.563855" lon="-8.39517333">
        <ele>50.0</ele>
        <time>2019-05-17T14:56:42.167Z</time>
      </trkpt>
      <trkpt lat="39.563855" lon="-8.39517333">
        <ele>50.0</ele>
        <time>2019-05-17T14:56:43.171Z</time>
      </trkpt>
      <trkpt lat="39.563855" lon="-8.39517333">
        <ele>50.0</ele>
        <time>2019-05-17T14:56:44.173Z</time>
      </trkpt>
      <trkpt lat="39.563855" lon="-8.39517333">
        <ele>50.0</ele>
        <time>2019-05-17T14:56:45.166Z</time>
      </trkpt>
      <trkpt lat="39.563855" lon="-8.39517333">
        <ele>50.0</ele>
        <time>2019-05-17T14:56:46.172Z</time>
      </trkpt>
      <trkpt lat="39.563855" lon="-8.39517333">
        <ele>50.0</ele>
        <time>2019-05-17T14:56:47.167Z</time>
      </trkpt>
      <trkpt lat="39.563855" lon="-8.39517333">
        <ele>50.0</ele>
        <time>2019-05-17T14:56:48.172Z</time>
      </trkpt>
      <trkpt lat="39.563855" lon="-8.39517333">
        <ele>50.0</ele>
        <time>2019-05-17T14:56:49.167Z</time>
      </trkpt>
      <trkpt lat="39.563855" lon="-8.39517333">
        <ele>50.0</ele>
        <time>2019-05-17T14:56:50.173Z</time>
      </trkpt>
      <trkpt lat="39.563855" lon="-8.39517333">
        <ele>50.0</ele>
        <time>2019-05-17T14:56:51.167Z</time>
      </trkpt>
      <trkpt lat="39.563855" lon="-8.39517333">
        <ele>50.0</ele>
        <time>2019-05-17T14:56:52.171Z</time>
      </trkpt>
      <trkpt lat="39.563855" lon="-8.39517333">
        <ele>50.0</ele>
        <time>2019-05-17T14:56:53.166Z</time>
      </trkpt>
      <trkpt lat="39.563855" lon="-8.39517333">
        <ele>50.0</ele>
        <time>2019-05-17T14:56:54.151Z</time>
      </trkpt>
      <trkpt lat="39.563855" lon="-8.39517333">
        <ele>50.0</ele>
        <time>2019-05-17T14:56:55.175Z</time>
      </trkpt>
      <trkpt lat="39.563855" lon="-8.39517333">
        <ele>50.0</ele>
        <time>2019-05-17T14:56:56.174Z</time>
      </trkpt>
      <trkpt lat="39.563855" lon="-8.39517333">
        <ele>50.0</ele>
        <time>2019-05-17T14:56:57.167Z</time>
      </trkpt>
      <trkpt lat="39.563855" lon="-8.39517333">
        <ele>50.0</ele>
        <time>2019-05-17T14:56:58.152Z</time>
      </trkpt>
      <trkpt lat="39.563855" lon="-8.39517333">
        <ele>50.0</ele>
        <time>2019-05-17T14:56:59.177Z</time>
      </trkpt>
      <trkpt lat="39.563855" lon="-8.39517333">
        <ele>50.0</ele>
        <time>2019-05-17T14:57:00.171Z</time>
      </trkpt>
      <trkpt lat="39.563855" lon="-8.39517333">
        <ele>50.0</ele>
        <time>2019-05-17T14:57:01.166Z</time>
      </trkpt>
      <trkpt lat="39.563855" lon="-8.39517333">
        <ele>50.0</ele>
        <time>2019-05-17T14:57:02.174Z</time>
      </trkpt>
      <trkpt lat="39.563855" lon="-8.39517333">
        <ele>50.0</ele>
        <time>2019-05-17T14:57:03.167Z</time>
      </trkpt>
      <trkpt lat="39.563855" lon="-8.39517333">
        <ele>50.0</ele>
        <time>2019-05-17T14:57:04.171Z</time>
      </trkpt>
      <trkpt lat="39.563855" lon="-8.39517333">
        <ele>50.0</ele>
        <time>2019-05-17T14:57:05.166Z</time>
      </trkpt>
      <trkpt lat="39.563855" lon="-8.39517333">
        <ele>50.0</ele>
        <time>2019-05-17T14:57:06.172Z</time>
      </trkpt>
      <trkpt lat="39.563855" lon="-8.39517333">
        <ele>50.0</ele>
        <time>2019-05-17T14:57:07.167Z</time>
      </trkpt>
      <trkpt lat="39.563855" lon="-8.39517333">
        <ele>50.0</ele>
        <time>2019-05-17T14:57:08.173Z</time>
      </trkpt>
      <trkpt lat="39.563855" lon="-8.39517333">
        <ele>50.0</ele>
        <time>2019-05-17T14:57:09.188Z</time>
      </trkpt>
      <trkpt lat="39.563855" lon="-8.39517333">
        <ele>50.0</ele>
        <time>2019-05-17T14:57:10.166Z</time>
      </trkpt>
      <trkpt lat="39.563855" lon="-8.39517333">
        <ele>50.0</ele>
        <time>2019-05-17T14:57:11.172Z</time>
      </trkpt>
      <trkpt lat="39.563855" lon="-8.39517333">
        <ele>50.0</ele>
        <time>2019-05-17T14:57:12.178Z</time>
      </trkpt>
      <trkpt lat="39.563855" lon="-8.39517333">
        <ele>50.0</ele>
        <time>2019-05-17T14:57:13.172Z</time>
      </trkpt>
      <trkpt lat="39.563855" lon="-8.39517333">
        <ele>50.0</ele>
        <time>2019-05-17T14:57:14.176Z</time>
      </trkpt>
      <trkpt lat="39.563855" lon="-8.39517333">
        <ele>50.0</ele>
        <time>2019-05-17T14:57:15.176Z</time>
      </trkpt>
      <trkpt lat="39.563855" lon="-8.39517333">
        <ele>50.0</ele>
        <time>2019-05-17T14:57:16.172Z</time>
      </trkpt>
      <trkpt lat="39.563855" lon="-8.39517333">
        <ele>50.0</ele>
        <time>2019-05-17T14:57:17.167Z</time>
      </trkpt>
      <trkpt lat="39.563855" lon="-8.39517333">
        <ele>50.0</ele>
        <time>2019-05-17T14:57:18.169Z</time>
      </trkpt>
      <trkpt lat="39.563855" lon="-8.39517333">
        <ele>50.0</ele>
        <time>2019-05-17T14:57:19.166Z</time>
      </trkpt>
      <trkpt lat="39.563855" lon="-8.39517333">
        <ele>50.0</ele>
        <time>2019-05-17T14:57:20.173Z</time>
      </trkpt>
      <trkpt lat="39.563855" lon="-8.39517333">
        <ele>50.0</ele>
        <time>2019-05-17T14:57:21.167Z</time>
      </trkpt>
      <trkpt lat="39.563855" lon="-8.39517333">
        <ele>50.0</ele>
        <time>2019-05-17T14:57:22.172Z</time>
      </trkpt>
      <trkpt lat="39.563855" lon="-8.39517333">
        <ele>50.0</ele>
        <time>2019-05-17T14:57:23.167Z</time>
      </trkpt>
      <trkpt lat="39.563855" lon="-8.39517333">
        <ele>50.0</ele>
        <time>2019-05-17T14:57:24.171Z</time>
      </trkpt>
      <trkpt lat="39.563855" lon="-8.39517333">
        <ele>50.0</ele>
        <time>2019-05-17T14:57:25.167Z</time>
      </trkpt>
      <trkpt lat="39.563855" lon="-8.39517333">
        <ele>50.0</ele>
        <time>2019-05-17T14:57:26.170Z</time>
      </trkpt>
      <trkpt lat="39.563855" lon="-8.39517333">
        <ele>50.0</ele>
        <time>2019-05-17T14:57:27.167Z</time>
      </trkpt>
      <trkpt lat="39.563855" lon="-8.39517333">
        <ele>50.0</ele>
        <time>2019-05-17T14:57:28.171Z</time>
      </trkpt>
      <trkpt lat="39.563855" lon="-8.39517333">
        <ele>50.0</ele>
        <time>2019-05-17T14:57:29.167Z</time>
      </trkpt>
      <trkpt lat="39.563855" lon="-8.39517333">
        <ele>50.0</ele>
        <time>2019-05-17T14:57:30.181Z</time>
      </trkpt>
      <trkpt lat="39.563855" lon="-8.39517333">
        <ele>50.0</ele>
        <time>2019-05-17T14:57:31.168Z</time>
      </trkpt>
      <trkpt lat="39.563855" lon="-8.39517333">
        <ele>50.0</ele>
        <time>2019-05-17T14:57:32.173Z</time>
      </trkpt>
      <trkpt lat="39.563855" lon="-8.39517333">
        <ele>50.0</ele>
        <time>2019-05-17T14:57:33.166Z</time>
      </trkpt>
      <trkpt lat="39.563855" lon="-8.39517333">
        <ele>50.0</ele>
        <time>2019-05-17T14:57:34.171Z</time>
      </trkpt>
      <trkpt lat="39.563855" lon="-8.39517333">
        <ele>50.0</ele>
        <time>2019-05-17T14:57:35.168Z</time>
      </trkpt>
      <trkpt lat="39.563855" lon="-8.39517333">
        <ele>50.0</ele>
        <time>2019-05-17T14:57:36.171Z</time>
      </trkpt>
      <trkpt lat="39.563855" lon="-8.39517333">
        <ele>50.0</ele>
        <time>2019-05-17T14:57:37.167Z</time>
      </trkpt>
      <trkpt lat="39.563855" lon="-8.39517333">
        <ele>50.0</ele>
        <time>2019-05-17T14:57:38.153Z</time>
      </trkpt>
      <trkpt lat="39.563855" lon="-8.39517333">
        <ele>50.0</ele>
        <time>2019-05-17T14:57:39.166Z</time>
      </trkpt>
      <trkpt lat="39.563855" lon="-8.39517333">
        <ele>50.0</ele>
        <time>2019-05-17T14:57:40.171Z</time>
      </trkpt>
      <trkpt lat="39.563855" lon="-8.39517333">
        <ele>50.0</ele>
        <time>2019-05-17T14:57:41.167Z</time>
      </trkpt>
      <trkpt lat="39.563855" lon="-8.39517333">
        <ele>50.0</ele>
        <time>2019-05-17T14:57:42.171Z</time>
      </trkpt>
      <trkpt lat="39.563855" lon="-8.39517333">
        <ele>50.0</ele>
        <time>2019-05-17T14:57:43.162Z</time>
      </trkpt>
      <trkpt lat="39.563855" lon="-8.39517333">
        <ele>50.0</ele>
        <time>2019-05-17T14:57:44.187Z</time>
      </trkpt>
      <trkpt lat="39.563855" lon="-8.39517333">
        <ele>50.0</ele>
        <time>2019-05-17T14:57:45.172Z</time>
      </trkpt>
      <trkpt lat="39.563855" lon="-8.39517333">
        <ele>50.0</ele>
        <time>2019-05-17T14:57:46.171Z</time>
      </trkpt>
      <trkpt lat="39.563855" lon="-8.39517333">
        <ele>50.0</ele>
        <time>2019-05-17T14:57:47.171Z</time>
      </trkpt>
      <trkpt lat="39.563855" lon="-8.39517333">
        <ele>50.0</ele>
        <time>2019-05-17T14:57:48.167Z</time>
      </trkpt>
      <trkpt lat="39.563855" lon="-8.39517333">
        <ele>50.0</ele>
        <time>2019-05-17T14:57:49.152Z</time>
      </trkpt>
      <trkpt lat="39.563855" lon="-8.39517333">
        <ele>50.0</ele>
        <time>2019-05-17T14:57:50.182Z</time>
      </trkpt>
      <trkpt lat="39.563855" lon="-8.39517333">
        <ele>50.0</ele>
        <time>2019-05-17T14:57:51.167Z</time>
      </trkpt>
      <trkpt lat="39.563855" lon="-8.39517333">
        <ele>50.0</ele>
        <time>2019-05-17T14:57:52.171Z</time>
      </trkpt>
      <trkpt lat="39.563855" lon="-8.39517333">
        <ele>50.0</ele>
        <time>2019-05-17T14:57:53.172Z</time>
      </trkpt>
      <trkpt lat="39.563855" lon="-8.39517333">
        <ele>50.0</ele>
        <time>2019-05-17T14:57:54.171Z</time>
      </trkpt>
      <trkpt lat="39.563855" lon="-8.39517333">
        <ele>50.0</ele>
        <time>2019-05-17T14:57:55.167Z</time>
      </trkpt>
      <trkpt lat="39.563855" lon="-8.39517333">
        <ele>50.0</ele>
        <time>2019-05-17T14:57:56.173Z</time>
      </trkpt>
      <trkpt lat="39.563855" lon="-8.39517333">
        <ele>50.0</ele>
        <time>2019-05-17T14:57:57.167Z</time>
      </trkpt>
      <trkpt lat="39.563855" lon="-8.39517333">
        <ele>50.0</ele>
        <time>2019-05-17T14:57:58.152Z</time>
      </trkpt>
      <trkpt lat="39.563855" lon="-8.39517333">
        <ele>50.0</ele>
        <time>2019-05-17T14:57:59.177Z</time>
      </trkpt>
      <trkpt lat="39.563865" lon="-8.39516">
        <ele>43.0</ele>
        <time>2019-05-17T14:58:00.171Z</time>
      </trkpt>
      <trkpt lat="39.563865" lon="-8.39516">
        <ele>43.0</ele>
        <time>2019-05-17T14:58:01.167Z</time>
      </trkpt>
      <trkpt lat="39.56389333" lon="-8.395175">
        <ele>43.0</ele>
        <time>2019-05-17T14:58:02.174Z</time>
      </trkpt>
      <trkpt lat="39.56389333" lon="-8.395175">
        <ele>43.0</ele>
        <time>2019-05-17T14:58:03.167Z</time>
      </trkpt>
      <trkpt lat="39.56393167" lon="-8.395205">
        <ele>43.0</ele>
        <time>2019-05-17T14:58:04.172Z</time>
      </trkpt>
      <trkpt lat="39.56393167" lon="-8.395205">
        <ele>43.0</ele>
        <time>2019-05-17T14:58:05.167Z</time>
      </trkpt>
      <trkpt lat="39.563975" lon="-8.395235">
        <ele>42.0</ele>
        <time>2019-05-17T14:58:06.186Z</time>
      </trkpt>
      <trkpt lat="39.563975" lon="-8.395235">
        <ele>42.0</ele>
        <time>2019-05-17T14:58:07.185Z</time>
      </trkpt>
      <trkpt lat="39.56402167" lon="-8.39526667">
        <ele>42.0</ele>
        <time>2019-05-17T14:58:08.152Z</time>
      </trkpt>
      <trkpt lat="39.56402167" lon="-8.39526667">
        <ele>42.0</ele>
        <time>2019-05-17T14:58:09.168Z</time>
      </trkpt>
      <trkpt lat="39.56406833" lon="-8.39530167">
        <ele>42.0</ele>
        <time>2019-05-17T14:58:10.159Z</time>
      </trkpt>
      <trkpt lat="39.56406833" lon="-8.39530167">
        <ele>42.0</ele>
        <time>2019-05-17T14:58:11.189Z</time>
      </trkpt>
      <trkpt lat="39.564115" lon="-8.39533333">
        <ele>41.0</ele>
        <time>2019-05-17T14:58:12.185Z</time>
      </trkpt>
      <trkpt lat="39.564115" lon="-8.39533333">
        <ele>41.0</ele>
        <time>2019-05-17T14:58:13.167Z</time>
      </trkpt>
      <trkpt lat="39.56416333" lon="-8.395365">
        <ele>41.0</ele>
        <time>2019-05-17T14:58:14.155Z</time>
      </trkpt>
      <trkpt lat="39.56416333" lon="-8.395365">
        <ele>41.0</ele>
        <time>2019-05-17T14:58:15.164Z</time>
      </trkpt>
      <trkpt lat="39.56421833" lon="-8.39539667">
        <ele>41.0</ele>
        <time>2019-05-17T14:58:16.153Z</time>
      </trkpt>
      <trkpt lat="39.56421833" lon="-8.39539667">
        <ele>41.0</ele>
        <time>2019-05-17T14:58:17.168Z</time>
      </trkpt>
      <trkpt lat="39.56428" lon="-8.39543333">
        <ele>41.0</ele>
        <time>2019-05-17T14:58:18.183Z</time>
      </trkpt>
      <trkpt lat="39.56428" lon="-8.39543333">
        <ele>41.0</ele>
        <time>2019-05-17T14:58:19.169Z</time>
      </trkpt>
      <trkpt lat="39.56434833" lon="-8.39547">
        <ele>40.0</ele>
        <time>2019-05-17T14:58:20.171Z</time>
      </trkpt>
      <trkpt lat="39.56434833" lon="-8.39547">
        <ele>40.0</ele>
        <time>2019-05-17T14:58:21.161Z</time>
      </trkpt>
      <trkpt lat="39.56443333" lon="-8.395515">
        <ele>39.0</ele>
        <time>2019-05-17T14:58:22.155Z</time>
      </trkpt>
      <trkpt lat="39.56443333" lon="-8.395515">
        <ele>39.0</ele>
        <time>2019-05-17T14:58:23.183Z</time>
      </trkpt>
      <trkpt lat="39.56453" lon="-8.39556167">
        <ele>38.0</ele>
        <time>2019-05-17T14:58:24.164Z</time>
      </trkpt>
      <trkpt lat="39.56453" lon="-8.39556167">
        <ele>38.0</ele>
        <time>2019-05-17T14:58:25.159Z</time>
      </trkpt>
      <trkpt lat="39.564635" lon="-8.39560833">
        <ele>37.0</ele>
        <time>2019-05-17T14:58:26.152Z</time>
      </trkpt>
      <trkpt lat="39.564635" lon="-8.39560833">
        <ele>37.0</ele>
        <time>2019-05-17T14:58:27.172Z</time>
      </trkpt>
      <trkpt lat="39.56474333" lon="-8.39565">
        <ele>36.0</ele>
        <time>2019-05-17T14:58:28.167Z</time>
      </trkpt>
      <trkpt lat="39.56474333" lon="-8.39565">
        <ele>36.0</ele>
        <time>2019-05-17T14:58:29.186Z</time>
      </trkpt>
      <trkpt lat="39.564855" lon="-8.395695">
        <ele>36.0</ele>
        <time>2019-05-17T14:58:30.160Z</time>
      </trkpt>
      <trkpt lat="39.564855" lon="-8.395695">
        <ele>36.0</ele>
        <time>2019-05-17T14:58:31.167Z</time>
      </trkpt>
      <trkpt lat="39.56497" lon="-8.39573333">
        <ele>35.0</ele>
        <time>2019-05-17T14:58:32.167Z</time>
      </trkpt>
      <trkpt lat="39.56497" lon="-8.39573333">
        <ele>35.0</ele>
        <time>2019-05-17T14:58:33.164Z</time>
      </trkpt>
      <trkpt lat="39.565085" lon="-8.395765">
        <ele>35.0</ele>
        <time>2019-05-17T14:58:34.155Z</time>
      </trkpt>
      <trkpt lat="39.565085" lon="-8.395765">
        <ele>35.0</ele>
        <time>2019-05-17T14:58:35.152Z</time>
      </trkpt>
      <trkpt lat="39.565195" lon="-8.39578833">
        <ele>35.0</ele>
        <time>2019-05-17T14:58:36.195Z</time>
      </trkpt>
      <trkpt lat="39.565195" lon="-8.39578833">
        <ele>35.0</ele>
        <time>2019-05-17T14:58:37.189Z</time>
      </trkpt>
      <trkpt lat="39.56529667" lon="-8.39580667">
        <ele>35.0</ele>
        <time>2019-05-17T14:58:38.156Z</time>
      </trkpt>
      <trkpt lat="39.56529667" lon="-8.39580667">
        <ele>35.0</ele>
        <time>2019-05-17T14:58:39.181Z</time>
      </trkpt>
      <trkpt lat="39.56539" lon="-8.39582333">
        <ele>35.0</ele>
        <time>2019-05-17T14:58:40.192Z</time>
      </trkpt>
      <trkpt lat="39.56539" lon="-8.39582333">
        <ele>35.0</ele>
        <time>2019-05-17T14:58:41.177Z</time>
      </trkpt>
      <trkpt lat="39.56547333" lon="-8.39583833">
        <ele>36.0</ele>
        <time>2019-05-17T14:58:42.177Z</time>
      </trkpt>
      <trkpt lat="39.56547333" lon="-8.39583833">
        <ele>36.0</ele>
        <time>2019-05-17T14:58:43.169Z</time>
      </trkpt>
      <trkpt lat="39.565545" lon="-8.39585">
        <ele>36.0</ele>
        <time>2019-05-17T14:58:44.154Z</time>
      </trkpt>
      <trkpt lat="39.565545" lon="-8.39585">
        <ele>36.0</ele>
        <time>2019-05-17T14:58:45.182Z</time>
      </trkpt>
      <trkpt lat="39.56561667" lon="-8.39585333">
        <ele>38.0</ele>
        <time>2019-05-17T14:58:46.168Z</time>
      </trkpt>
      <trkpt lat="39.56561667" lon="-8.39585333">
        <ele>38.0</ele>
        <time>2019-05-17T14:58:47.166Z</time>
      </trkpt>
      <trkpt lat="39.56568833" lon="-8.39586">
        <ele>38.0</ele>
        <time>2019-05-17T14:58:48.164Z</time>
      </trkpt>
      <trkpt lat="39.56568833" lon="-8.39586">
        <ele>38.0</ele>
        <time>2019-05-17T14:58:49.187Z</time>
      </trkpt>
      <trkpt lat="39.56575833" lon="-8.39586667">
        <ele>39.0</ele>
        <time>2019-05-17T14:58:50.182Z</time>
      </trkpt>
      <trkpt lat="39.56575833" lon="-8.39586667">
        <ele>39.0</ele>
        <time>2019-05-17T14:58:51.165Z</time>
      </trkpt>
      <trkpt lat="39.56583167" lon="-8.39586667">
        <ele>39.0</ele>
        <time>2019-05-17T14:58:52.192Z</time>
      </trkpt>
      <trkpt lat="39.56583167" lon="-8.39586667">
        <ele>39.0</ele>
        <time>2019-05-17T14:58:53.176Z</time>
      </trkpt>
      <trkpt lat="39.56591" lon="-8.39587167">
        <ele>39.0</ele>
        <time>2019-05-17T14:58:54.190Z</time>
      </trkpt>
      <trkpt lat="39.56591" lon="-8.39587167">
        <ele>39.0</ele>
        <time>2019-05-17T14:58:55.158Z</time>
      </trkpt>
      <trkpt lat="39.56599333" lon="-8.39587667">
        <ele>39.0</ele>
        <time>2019-05-17T14:58:56.155Z</time>
      </trkpt>
      <trkpt lat="39.56599333" lon="-8.39587667">
        <ele>39.0</ele>
        <time>2019-05-17T14:58:57.180Z</time>
      </trkpt>
      <trkpt lat="39.56607333" lon="-8.39587833">
        <ele>39.0</ele>
        <time>2019-05-17T14:58:58.189Z</time>
      </trkpt>
      <trkpt lat="39.56607333" lon="-8.39587833">
        <ele>39.0</ele>
        <time>2019-05-17T14:58:59.163Z</time>
      </trkpt>
      <trkpt lat="39.56614667" lon="-8.39587667">
        <ele>39.0</ele>
        <time>2019-05-17T14:59:00.157Z</time>
      </trkpt>
      <trkpt lat="39.56614667" lon="-8.39587667">
        <ele>39.0</ele>
        <time>2019-05-17T14:59:01.155Z</time>
      </trkpt>
      <trkpt lat="39.56621667" lon="-8.395875">
        <ele>39.0</ele>
        <time>2019-05-17T14:59:02.167Z</time>
      </trkpt>
      <trkpt lat="39.56621667" lon="-8.395875">
        <ele>39.0</ele>
        <time>2019-05-17T14:59:03.159Z</time>
      </trkpt>
      <trkpt lat="39.56627667" lon="-8.395875">
        <ele>39.0</ele>
        <time>2019-05-17T14:59:04.165Z</time>
      </trkpt>
      <trkpt lat="39.56627667" lon="-8.395875">
        <ele>39.0</ele>
        <time>2019-05-17T14:59:05.171Z</time>
      </trkpt>
      <trkpt lat="39.56633833" lon="-8.39586667">
        <ele>38.0</ele>
        <time>2019-05-17T14:59:06.162Z</time>
      </trkpt>
      <trkpt lat="39.56633833" lon="-8.39586667">
        <ele>38.0</ele>
        <time>2019-05-17T14:59:07.160Z</time>
      </trkpt>
      <trkpt lat="39.56641333" lon="-8.395855">
        <ele>38.0</ele>
        <time>2019-05-17T14:59:08.154Z</time>
      </trkpt>
      <trkpt lat="39.56641333" lon="-8.395855">
        <ele>38.0</ele>
        <time>2019-05-17T14:59:09.179Z</time>
      </trkpt>
      <trkpt lat="39.56649333" lon="-8.39584167">
        <ele>38.0</ele>
        <time>2019-05-17T14:59:10.166Z</time>
      </trkpt>
      <trkpt lat="39.56649333" lon="-8.39584167">
        <ele>38.0</ele>
        <time>2019-05-17T14:59:11.174Z</time>
      </trkpt>
      <trkpt lat="39.56657667" lon="-8.39582667">
        <ele>38.0</ele>
        <time>2019-05-17T14:59:12.183Z</time>
      </trkpt>
      <trkpt lat="39.56657667" lon="-8.39582667">
        <ele>38.0</ele>
        <time>2019-05-17T14:59:13.166Z</time>
      </trkpt>
      <trkpt lat="39.56665167" lon="-8.39581167">
        <ele>38.0</ele>
        <time>2019-05-17T14:59:14.163Z</time>
      </trkpt>
      <trkpt lat="39.56665167" lon="-8.39581167">
        <ele>38.0</ele>
        <time>2019-05-17T14:59:15.175Z</time>
      </trkpt>
      <trkpt lat="39.56672167" lon="-8.39579833">
        <ele>38.0</ele>
        <time>2019-05-17T14:59:16.165Z</time>
      </trkpt>
      <trkpt lat="39.56672167" lon="-8.39579833">
        <ele>38.0</ele>
        <time>2019-05-17T14:59:17.166Z</time>
      </trkpt>
      <trkpt lat="39.56679" lon="-8.39577833">
        <ele>38.0</ele>
        <time>2019-05-17T14:59:18.166Z</time>
      </trkpt>
      <trkpt lat="39.56679" lon="-8.39577833">
        <ele>38.0</ele>
        <time>2019-05-17T14:59:19.188Z</time>
      </trkpt>
      <trkpt lat="39.56686" lon="-8.39575667">
        <ele>38.0</ele>
        <time>2019-05-17T14:59:20.181Z</time>
      </trkpt>
      <trkpt lat="39.56686" lon="-8.39575667">
        <ele>38.0</ele>
        <time>2019-05-17T14:59:21.159Z</time>
      </trkpt>
      <trkpt lat="39.56692667" lon="-8.39573833">
        <ele>38.0</ele>
        <time>2019-05-17T14:59:22.150Z</time>
      </trkpt>
      <trkpt lat="39.56692667" lon="-8.39573833">
        <ele>38.0</ele>
        <time>2019-05-17T14:59:23.160Z</time>
      </trkpt>
      <trkpt lat="39.56699167" lon="-8.39572333">
        <ele>38.0</ele>
        <time>2019-05-17T14:59:24.165Z</time>
      </trkpt>
      <trkpt lat="39.56699167" lon="-8.39572333">
        <ele>38.0</ele>
        <time>2019-05-17T14:59:25.162Z</time>
      </trkpt>
      <trkpt lat="39.56704833" lon="-8.39571167">
        <ele>39.0</ele>
        <time>2019-05-17T14:59:26.151Z</time>
      </trkpt>
      <trkpt lat="39.56704833" lon="-8.39571167">
        <ele>39.0</ele>
        <time>2019-05-17T14:59:27.186Z</time>
      </trkpt>
      <trkpt lat="39.5671" lon="-8.39569833">
        <ele>38.0</ele>
        <time>2019-05-17T14:59:28.180Z</time>
      </trkpt>
      <trkpt lat="39.5671" lon="-8.39569833">
        <ele>38.0</ele>
        <time>2019-05-17T14:59:29.168Z</time>
      </trkpt>
      <trkpt lat="39.56716167" lon="-8.39568">
        <ele>38.0</ele>
        <time>2019-05-17T14:59:30.198Z</time>
      </trkpt>
      <trkpt lat="39.56716167" lon="-8.39568">
        <ele>38.0</ele>
        <time>2019-05-17T14:59:31.174Z</time>
      </trkpt>
      <trkpt lat="39.56723167" lon="-8.39566">
        <ele>38.0</ele>
        <time>2019-05-17T14:59:32.154Z</time>
      </trkpt>
      <trkpt lat="39.56723167" lon="-8.39566">
        <ele>38.0</ele>
        <time>2019-05-17T14:59:33.174Z</time>
      </trkpt>
      <trkpt lat="39.56729667" lon="-8.39563833">
        <ele>38.0</ele>
        <time>2019-05-17T14:59:34.166Z</time>
      </trkpt>
      <trkpt lat="39.56729667" lon="-8.39563833">
        <ele>38.0</ele>
        <time>2019-05-17T14:59:35.167Z</time>
      </trkpt>
      <trkpt lat="39.56735667" lon="-8.39561667">
        <ele>38.0</ele>
        <time>2019-05-17T14:59:36.175Z</time>
      </trkpt>
      <trkpt lat="39.56735667" lon="-8.39561667">
        <ele>38.0</ele>
        <time>2019-05-17T14:59:37.184Z</time>
      </trkpt>
      <trkpt lat="39.56741833" lon="-8.3956">
        <ele>38.0</ele>
        <time>2019-05-17T14:59:38.189Z</time>
      </trkpt>
      <trkpt lat="39.56741833" lon="-8.3956">
        <ele>38.0</ele>
        <time>2019-05-17T14:59:39.155Z</time>
      </trkpt>
      <trkpt lat="39.56748" lon="-8.39558">
        <ele>38.0</ele>
        <time>2019-05-17T14:59:40.185Z</time>
      </trkpt>
      <trkpt lat="39.56748" lon="-8.39558">
        <ele>38.0</ele>
        <time>2019-05-17T14:59:41.152Z</time>
      </trkpt>
      <trkpt lat="39.56754333" lon="-8.39556">
        <ele>38.0</ele>
        <time>2019-05-17T14:59:42.161Z</time>
      </trkpt>
      <trkpt lat="39.56754333" lon="-8.39556">
        <ele>38.0</ele>
        <time>2019-05-17T14:59:43.157Z</time>
      </trkpt>
      <trkpt lat="39.56760833" lon="-8.39553833">
        <ele>38.0</ele>
        <time>2019-05-17T14:59:44.161Z</time>
      </trkpt>
      <trkpt lat="39.56760833" lon="-8.39553833">
        <ele>38.0</ele>
        <time>2019-05-17T14:59:45.169Z</time>
      </trkpt>
      <trkpt lat="39.56767333" lon="-8.39552">
        <ele>37.0</ele>
        <time>2019-05-17T14:59:46.185Z</time>
      </trkpt>
      <trkpt lat="39.56767333" lon="-8.39552">
        <ele>37.0</ele>
        <time>2019-05-17T14:59:47.155Z</time>
      </trkpt>
      <trkpt lat="39.56773667" lon="-8.39549833">
        <ele>37.0</ele>
        <time>2019-05-17T14:59:48.189Z</time>
      </trkpt>
      <trkpt lat="39.56773667" lon="-8.39549833">
        <ele>37.0</ele>
        <time>2019-05-17T14:59:49.155Z</time>
      </trkpt>
      <trkpt lat="39.56779667" lon="-8.39548">
        <ele>37.0</ele>
        <time>2019-05-17T14:59:50.189Z</time>
      </trkpt>
      <trkpt lat="39.56779667" lon="-8.39548">
        <ele>37.0</ele>
        <time>2019-05-17T14:59:51.159Z</time>
      </trkpt>
      <trkpt lat="39.56785333" lon="-8.39546">
        <ele>37.0</ele>
        <time>2019-05-17T14:59:52.178Z</time>
      </trkpt>
      <trkpt lat="39.56785333" lon="-8.39546">
        <ele>37.0</ele>
        <time>2019-05-17T14:59:53.151Z</time>
      </trkpt>
      <trkpt lat="39.56791167" lon="-8.39544333">
        <ele>37.0</ele>
        <time>2019-05-17T14:59:54.195Z</time>
      </trkpt>
      <trkpt lat="39.56794" lon="-8.395435">
        <ele>37.0</ele>
        <time>2019-05-17T14:59:55.185Z</time>
      </trkpt>
      <trkpt lat="39.56796833" lon="-8.395425">
        <ele>37.0</ele>
        <time>2019-05-17T14:59:56.181Z</time>
      </trkpt>
      <trkpt lat="39.56796833" lon="-8.395425">
        <ele>37.0</ele>
        <time>2019-05-17T14:59:57.162Z</time>
      </trkpt>
      <trkpt lat="39.568025" lon="-8.39540833">
        <ele>37.0</ele>
        <time>2019-05-17T14:59:58.157Z</time>
      </trkpt>
      <trkpt lat="39.568025" lon="-8.39540833">
        <ele>37.0</ele>
        <time>2019-05-17T14:59:59.163Z</time>
      </trkpt>
      <trkpt lat="39.56808333" lon="-8.39539167">
        <ele>37.0</ele>
        <time>2019-05-17T15:00:00.156Z</time>
      </trkpt>
      <trkpt lat="39.56808333" lon="-8.39539167">
        <ele>37.0</ele>
        <time>2019-05-17T15:00:01.161Z</time>
      </trkpt>
      <trkpt lat="39.56814167" lon="-8.39537167">
        <ele>37.0</ele>
        <time>2019-05-17T15:00:02.171Z</time>
      </trkpt>
      <trkpt lat="39.56814167" lon="-8.39537167">
        <ele>37.0</ele>
        <time>2019-05-17T15:00:03.162Z</time>
      </trkpt>
      <trkpt lat="39.56819667" lon="-8.39535333">
        <ele>37.0</ele>
        <time>2019-05-17T15:00:04.156Z</time>
      </trkpt>
      <trkpt lat="39.56822333" lon="-8.395345">
        <ele>37.0</ele>
        <time>2019-05-17T15:00:05.166Z</time>
      </trkpt>
      <trkpt lat="39.56822333" lon="-8.395345">
        <ele>37.0</ele>
        <time>2019-05-17T15:00:06.158Z</time>
      </trkpt>
      <trkpt lat="39.56827" lon="-8.39532667">
        <ele>37.0</ele>
        <time>2019-05-17T15:00:07.150Z</time>
      </trkpt>
      <trkpt lat="39.56829333" lon="-8.39531667">
        <ele>37.0</ele>
        <time>2019-05-17T15:00:08.169Z</time>
      </trkpt>
      <trkpt lat="39.56829333" lon="-8.39531667">
        <ele>37.0</ele>
        <time>2019-05-17T15:00:09.177Z</time>
      </trkpt>
      <trkpt lat="39.56834" lon="-8.39529833">
        <ele>37.0</ele>
        <time>2019-05-17T15:00:10.185Z</time>
      </trkpt>
      <trkpt lat="39.56834" lon="-8.39529833">
        <ele>37.0</ele>
        <time>2019-05-17T15:00:11.182Z</time>
      </trkpt>
      <trkpt lat="39.56838167" lon="-8.39528">
        <ele>37.0</ele>
        <time>2019-05-17T15:00:12.172Z</time>
      </trkpt>
      <trkpt lat="39.568405" lon="-8.39527333">
        <ele>36.0</ele>
        <time>2019-05-17T15:00:13.154Z</time>
      </trkpt>
      <trkpt lat="39.56842833" lon="-8.39526667">
        <ele>37.0</ele>
        <time>2019-05-17T15:00:14.177Z</time>
      </trkpt>
      <trkpt lat="39.56842833" lon="-8.39526667">
        <ele>37.0</ele>
        <time>2019-05-17T15:00:15.159Z</time>
      </trkpt>
      <trkpt lat="39.56847" lon="-8.39524667">
        <ele>37.0</ele>
        <time>2019-05-17T15:00:16.165Z</time>
      </trkpt>
      <trkpt lat="39.56847" lon="-8.39524667">
        <ele>37.0</ele>
        <time>2019-05-17T15:00:17.150Z</time>
      </trkpt>
      <trkpt lat="39.56851" lon="-8.39523333">
        <ele>37.0</ele>
        <time>2019-05-17T15:00:18.153Z</time>
      </trkpt>
      <trkpt lat="39.56851" lon="-8.39523333">
        <ele>37.0</ele>
        <time>2019-05-17T15:00:19.182Z</time>
      </trkpt>
      <trkpt lat="39.56854833" lon="-8.39522">
        <ele>37.0</ele>
        <time>2019-05-17T15:00:20.172Z</time>
      </trkpt>
      <trkpt lat="39.56854833" lon="-8.39522">
        <ele>37.0</ele>
        <time>2019-05-17T15:00:21.181Z</time>
      </trkpt>
      <trkpt lat="39.56859" lon="-8.39520667">
        <ele>37.0</ele>
        <time>2019-05-17T15:00:22.167Z</time>
      </trkpt>
      <trkpt lat="39.56859" lon="-8.39520667">
        <ele>37.0</ele>
        <time>2019-05-17T15:00:23.185Z</time>
      </trkpt>
      <trkpt lat="39.56863667" lon="-8.39519167">
        <ele>37.0</ele>
        <time>2019-05-17T15:00:24.152Z</time>
      </trkpt>
      <trkpt lat="39.56863667" lon="-8.39519167">
        <ele>37.0</ele>
        <time>2019-05-17T15:00:25.160Z</time>
      </trkpt>
      <trkpt lat="39.568685" lon="-8.395175">
        <ele>37.0</ele>
        <time>2019-05-17T15:00:26.155Z</time>
      </trkpt>
      <trkpt lat="39.568685" lon="-8.395175">
        <ele>37.0</ele>
        <time>2019-05-17T15:00:27.182Z</time>
      </trkpt>
      <trkpt lat="39.56873667" lon="-8.39515667">
        <ele>37.0</ele>
        <time>2019-05-17T15:00:28.172Z</time>
      </trkpt>
      <trkpt lat="39.56873667" lon="-8.39515667">
        <ele>37.0</ele>
        <time>2019-05-17T15:00:29.188Z</time>
      </trkpt>
      <trkpt lat="39.56878333" lon="-8.39514">
        <ele>37.0</ele>
        <time>2019-05-17T15:00:30.153Z</time>
      </trkpt>
      <trkpt lat="39.56878333" lon="-8.39514">
        <ele>37.0</ele>
        <time>2019-05-17T15:00:31.159Z</time>
      </trkpt>
      <trkpt lat="39.56883167" lon="-8.39512833">
        <ele>36.0</ele>
        <time>2019-05-17T15:00:32.159Z</time>
      </trkpt>
      <trkpt lat="39.56883167" lon="-8.39512833">
        <ele>36.0</ele>
        <time>2019-05-17T15:00:33.150Z</time>
      </trkpt>
      <trkpt lat="39.56888333" lon="-8.39511667">
        <ele>36.0</ele>
        <time>2019-05-17T15:00:34.166Z</time>
      </trkpt>
      <trkpt lat="39.56888333" lon="-8.39511667">
        <ele>36.0</ele>
        <time>2019-05-17T15:00:35.182Z</time>
      </trkpt>
      <trkpt lat="39.568935" lon="-8.395105">
        <ele>36.0</ele>
        <time>2019-05-17T15:00:36.188Z</time>
      </trkpt>
      <trkpt lat="39.568935" lon="-8.395105">
        <ele>36.0</ele>
        <time>2019-05-17T15:00:37.189Z</time>
      </trkpt>
      <trkpt lat="39.56898833" lon="-8.39509333">
        <ele>36.0</ele>
        <time>2019-05-17T15:00:38.183Z</time>
      </trkpt>
      <trkpt lat="39.56898833" lon="-8.39509333">
        <ele>36.0</ele>
        <time>2019-05-17T15:00:39.159Z</time>
      </trkpt>
      <trkpt lat="39.56904167" lon="-8.39508667">
        <ele>36.0</ele>
        <time>2019-05-17T15:00:40.166Z</time>
      </trkpt>
      <trkpt lat="39.56904167" lon="-8.39508667">
        <ele>36.0</ele>
        <time>2019-05-17T15:00:41.185Z</time>
      </trkpt>
      <trkpt lat="39.56909333" lon="-8.39508">
        <ele>36.0</ele>
        <time>2019-05-17T15:00:42.185Z</time>
      </trkpt>
      <trkpt lat="39.56909333" lon="-8.39508">
        <ele>36.0</ele>
        <time>2019-05-17T15:00:43.161Z</time>
      </trkpt>
      <trkpt lat="39.569145" lon="-8.39507167">
        <ele>36.0</ele>
        <time>2019-05-17T15:00:44.165Z</time>
      </trkpt>
      <trkpt lat="39.569145" lon="-8.39507167">
        <ele>36.0</ele>
        <time>2019-05-17T15:00:45.177Z</time>
      </trkpt>
      <trkpt lat="39.56919333" lon="-8.39506667">
        <ele>36.0</ele>
        <time>2019-05-17T15:00:46.185Z</time>
      </trkpt>
      <trkpt lat="39.56919333" lon="-8.39506667">
        <ele>36.0</ele>
        <time>2019-05-17T15:00:47.150Z</time>
      </trkpt>
      <trkpt lat="39.56924167" lon="-8.39506">
        <ele>36.0</ele>
        <time>2019-05-17T15:00:48.189Z</time>
      </trkpt>
      <trkpt lat="39.56924167" lon="-8.39506">
        <ele>36.0</ele>
        <time>2019-05-17T15:00:49.186Z</time>
      </trkpt>
      <trkpt lat="39.56928833" lon="-8.39506">
        <ele>36.0</ele>
        <time>2019-05-17T15:00:50.186Z</time>
      </trkpt>
      <trkpt lat="39.56928833" lon="-8.39506">
        <ele>36.0</ele>
        <time>2019-05-17T15:00:51.150Z</time>
      </trkpt>
      <trkpt lat="39.56933667" lon="-8.39505833">
        <ele>36.0</ele>
        <time>2019-05-17T15:00:52.176Z</time>
      </trkpt>
      <trkpt lat="39.56933667" lon="-8.39505833">
        <ele>36.0</ele>
        <time>2019-05-17T15:00:53.190Z</time>
      </trkpt>
      <trkpt lat="39.56938" lon="-8.39505833">
        <ele>36.0</ele>
        <time>2019-05-17T15:00:54.158Z</time>
      </trkpt>
      <trkpt lat="39.56938" lon="-8.39505833">
        <ele>36.0</ele>
        <time>2019-05-17T15:00:55.159Z</time>
      </trkpt>
      <trkpt lat="39.56942333" lon="-8.39506">
        <ele>36.0</ele>
        <time>2019-05-17T15:00:56.188Z</time>
      </trkpt>
      <trkpt lat="39.56942333" lon="-8.39506">
        <ele>36.0</ele>
        <time>2019-05-17T15:00:57.159Z</time>
      </trkpt>
      <trkpt lat="39.569465" lon="-8.39505667">
        <ele>36.0</ele>
        <time>2019-05-17T15:00:58.159Z</time>
      </trkpt>
      <trkpt lat="39.569465" lon="-8.39505667">
        <ele>36.0</ele>
        <time>2019-05-17T15:00:59.160Z</time>
      </trkpt>
      <trkpt lat="39.56950667" lon="-8.39505667">
        <ele>36.0</ele>
        <time>2019-05-17T15:01:00.179Z</time>
      </trkpt>
      <trkpt lat="39.56950667" lon="-8.39505667">
        <ele>36.0</ele>
        <time>2019-05-17T15:01:01.158Z</time>
      </trkpt>
      <trkpt lat="39.56955" lon="-8.39505667">
        <ele>36.0</ele>
        <time>2019-05-17T15:01:02.162Z</time>
      </trkpt>
      <trkpt lat="39.56955" lon="-8.39505667">
        <ele>36.0</ele>
        <time>2019-05-17T15:01:03.171Z</time>
      </trkpt>
      <trkpt lat="39.56959167" lon="-8.39506">
        <ele>36.0</ele>
        <time>2019-05-17T15:01:04.172Z</time>
      </trkpt>
      <trkpt lat="39.56959167" lon="-8.39506">
        <ele>36.0</ele>
        <time>2019-05-17T15:01:05.182Z</time>
      </trkpt>
      <trkpt lat="39.56963" lon="-8.39506">
        <ele>36.0</ele>
        <time>2019-05-17T15:01:06.176Z</time>
      </trkpt>
      <trkpt lat="39.56965" lon="-8.39506167">
        <ele>36.0</ele>
        <time>2019-05-17T15:01:07.185Z</time>
      </trkpt>
      <trkpt lat="39.56967" lon="-8.39506167">
        <ele>36.0</ele>
        <time>2019-05-17T15:01:08.192Z</time>
      </trkpt>
      <trkpt lat="39.56967" lon="-8.39506167">
        <ele>36.0</ele>
        <time>2019-05-17T15:01:09.179Z</time>
      </trkpt>
      <trkpt lat="39.56970833" lon="-8.39506167">
        <ele>36.0</ele>
        <time>2019-05-17T15:01:10.162Z</time>
      </trkpt>
      <trkpt lat="39.56972833" lon="-8.39506167">
        <ele>36.0</ele>
        <time>2019-05-17T15:01:11.162Z</time>
      </trkpt>
      <trkpt lat="39.56974833" lon="-8.39506333">
        <ele>36.0</ele>
        <time>2019-05-17T15:01:12.191Z</time>
      </trkpt>
      <trkpt lat="39.56974833" lon="-8.39506333">
        <ele>36.0</ele>
        <time>2019-05-17T15:01:13.151Z</time>
      </trkpt>
      <trkpt lat="39.56978833" lon="-8.39506667">
        <ele>36.0</ele>
        <time>2019-05-17T15:01:14.184Z</time>
      </trkpt>
      <trkpt lat="39.56978833" lon="-8.39506667">
        <ele>36.0</ele>
        <time>2019-05-17T15:01:15.159Z</time>
      </trkpt>
      <trkpt lat="39.56983" lon="-8.39506833">
        <ele>36.0</ele>
        <time>2019-05-17T15:01:16.189Z</time>
      </trkpt>
      <trkpt lat="39.56983" lon="-8.39506833">
        <ele>36.0</ele>
        <time>2019-05-17T15:01:17.171Z</time>
      </trkpt>
      <trkpt lat="39.56986833" lon="-8.395075">
        <ele>37.0</ele>
        <time>2019-05-17T15:01:18.170Z</time>
      </trkpt>
      <trkpt lat="39.56986833" lon="-8.395075">
        <ele>37.0</ele>
        <time>2019-05-17T15:01:19.150Z</time>
      </trkpt>
      <trkpt lat="39.56990667" lon="-8.39508">
        <ele>37.0</ele>
        <time>2019-05-17T15:01:20.195Z</time>
      </trkpt>
      <trkpt lat="39.56990667" lon="-8.39508">
        <ele>37.0</ele>
        <time>2019-05-17T15:01:21.163Z</time>
      </trkpt>
      <trkpt lat="39.569945" lon="-8.39509167">
        <ele>37.0</ele>
        <time>2019-05-17T15:01:22.171Z</time>
      </trkpt>
      <trkpt lat="39.569945" lon="-8.39509167">
        <ele>37.0</ele>
        <time>2019-05-17T15:01:23.177Z</time>
      </trkpt>
      <trkpt lat="39.56998667" lon="-8.395105">
        <ele>37.0</ele>
        <time>2019-05-17T15:01:24.163Z</time>
      </trkpt>
      <trkpt lat="39.56998667" lon="-8.395105">
        <ele>37.0</ele>
        <time>2019-05-17T15:01:25.175Z</time>
      </trkpt>
      <trkpt lat="39.57002333" lon="-8.39513">
        <ele>37.0</ele>
        <time>2019-05-17T15:01:26.161Z</time>
      </trkpt>
      <trkpt lat="39.57002333" lon="-8.39513">
        <ele>37.0</ele>
        <time>2019-05-17T15:01:27.187Z</time>
      </trkpt>
      <trkpt lat="39.57006" lon="-8.39516333">
        <ele>37.0</ele>
        <time>2019-05-17T15:01:28.175Z</time>
      </trkpt>
      <trkpt lat="39.57006" lon="-8.39516333">
        <ele>37.0</ele>
        <time>2019-05-17T15:01:29.173Z</time>
      </trkpt>
      <trkpt lat="39.570095" lon="-8.3952">
        <ele>38.0</ele>
        <time>2019-05-17T15:01:30.175Z</time>
      </trkpt>
      <trkpt lat="39.570095" lon="-8.3952">
        <ele>38.0</ele>
        <time>2019-05-17T15:01:31.188Z</time>
      </trkpt>
      <trkpt lat="39.57012" lon="-8.39523167">
        <ele>38.0</ele>
        <time>2019-05-17T15:01:32.181Z</time>
      </trkpt>
      <trkpt lat="39.57012" lon="-8.39523167">
        <ele>38.0</ele>
        <time>2019-05-17T15:01:33.178Z</time>
      </trkpt>
      <trkpt lat="39.57014" lon="-8.39526333">
        <ele>38.0</ele>
        <time>2019-05-17T15:01:34.171Z</time>
      </trkpt>
      <trkpt lat="39.57014" lon="-8.39526333">
        <ele>38.0</ele>
        <time>2019-05-17T15:01:35.183Z</time>
      </trkpt>
      <trkpt lat="39.57016333" lon="-8.39530667">
        <ele>38.0</ele>
        <time>2019-05-17T15:01:36.164Z</time>
      </trkpt>
      <trkpt lat="39.57016333" lon="-8.39530667">
        <ele>38.0</ele>
        <time>2019-05-17T15:01:37.159Z</time>
      </trkpt>
      <trkpt lat="39.57016167" lon="-8.39535333">
        <ele>39.0</ele>
        <time>2019-05-17T15:01:38.155Z</time>
      </trkpt>
      <trkpt lat="39.57016167" lon="-8.39535333">
        <ele>39.0</ele>
        <time>2019-05-17T15:01:39.186Z</time>
      </trkpt>
      <trkpt lat="39.570155" lon="-8.395395">
        <ele>40.0</ele>
        <time>2019-05-17T15:01:40.191Z</time>
      </trkpt>
      <trkpt lat="39.57015333" lon="-8.395415">
        <ele>40.0</ele>
        <time>2019-05-17T15:01:41.167Z</time>
      </trkpt>
      <trkpt lat="39.57015333" lon="-8.395415">
        <ele>40.0</ele>
        <time>2019-05-17T15:01:42.177Z</time>
      </trkpt>
      <trkpt lat="39.570155" lon="-8.39545333">
        <ele>40.0</ele>
        <time>2019-05-17T15:01:43.170Z</time>
      </trkpt>
      <trkpt lat="39.57016333" lon="-8.39546667">
        <ele>40.0</ele>
        <time>2019-05-17T15:01:44.195Z</time>
      </trkpt>
      <trkpt lat="39.57016333" lon="-8.39546667">
        <ele>40.0</ele>
        <time>2019-05-17T15:01:45.160Z</time>
      </trkpt>
      <trkpt lat="39.57019167" lon="-8.39548667">
        <ele>40.0</ele>
        <time>2019-05-17T15:01:46.189Z</time>
      </trkpt>
      <trkpt lat="39.57019167" lon="-8.39548667">
        <ele>40.0</ele>
        <time>2019-05-17T15:01:47.161Z</time>
      </trkpt>
      <trkpt lat="39.57022" lon="-8.39552167">
        <ele>41.0</ele>
        <time>2019-05-17T15:01:48.159Z</time>
      </trkpt>
      <trkpt lat="39.57023667" lon="-8.39553833">
        <ele>41.0</ele>
        <time>2019-05-17T15:01:49.155Z</time>
      </trkpt>
      <trkpt lat="39.57025333" lon="-8.39555333">
        <ele>41.0</ele>
        <time>2019-05-17T15:01:50.183Z</time>
      </trkpt>
      <trkpt lat="39.57025333" lon="-8.39555333">
        <ele>41.0</ele>
        <time>2019-05-17T15:01:51.159Z</time>
      </trkpt>
      <trkpt lat="39.570285" lon="-8.39559">
        <ele>42.0</ele>
        <time>2019-05-17T15:01:52.168Z</time>
      </trkpt>
      <trkpt lat="39.570285" lon="-8.39559">
        <ele>42.0</ele>
        <time>2019-05-17T15:01:53.183Z</time>
      </trkpt>
      <trkpt lat="39.57031667" lon="-8.39562667">
        <ele>43.0</ele>
        <time>2019-05-17T15:01:54.164Z</time>
      </trkpt>
      <trkpt lat="39.57033167" lon="-8.39564167">
        <ele>43.0</ele>
        <time>2019-05-17T15:01:55.170Z</time>
      </trkpt>
      <trkpt lat="39.570345" lon="-8.39565667">
        <ele>43.0</ele>
        <time>2019-05-17T15:01:56.185Z</time>
      </trkpt>
      <trkpt lat="39.570345" lon="-8.39565667">
        <ele>43.0</ele>
        <time>2019-05-17T15:01:57.150Z</time>
      </trkpt>
      <trkpt lat="39.570375" lon="-8.39568667">
        <ele>44.0</ele>
        <time>2019-05-17T15:01:58.150Z</time>
      </trkpt>
      <trkpt lat="39.57039333" lon="-8.39570333">
        <ele>44.0</ele>
        <time>2019-05-17T15:01:59.173Z</time>
      </trkpt>
      <trkpt lat="39.57039333" lon="-8.39570333">
        <ele>44.0</ele>
        <time>2019-05-17T15:02:00.171Z</time>
      </trkpt>
      <trkpt lat="39.57042167" lon="-8.39573333">
        <ele>45.0</ele>
        <time>2019-05-17T15:02:01.155Z</time>
      </trkpt>
      <trkpt lat="39.57044" lon="-8.39574833">
        <ele>45.0</ele>
        <time>2019-05-17T15:02:02.185Z</time>
      </trkpt>
      <trkpt lat="39.57044" lon="-8.39574833">
        <ele>45.0</ele>
        <time>2019-05-17T15:02:03.167Z</time>
      </trkpt>
      <trkpt lat="39.57047167" lon="-8.395775">
        <ele>46.0</ele>
        <time>2019-05-17T15:02:04.159Z</time>
      </trkpt>
      <trkpt lat="39.57047167" lon="-8.395775">
        <ele>46.0</ele>
        <time>2019-05-17T15:02:05.175Z</time>
      </trkpt>
      <trkpt lat="39.57049167" lon="-8.395805">
        <ele>47.0</ele>
        <time>2019-05-17T15:02:06.183Z</time>
      </trkpt>
      <trkpt lat="39.57049167" lon="-8.395805">
        <ele>47.0</ele>
        <time>2019-05-17T15:02:07.188Z</time>
      </trkpt>
      <trkpt lat="39.570515" lon="-8.39584167">
        <ele>47.0</ele>
        <time>2019-05-17T15:02:08.179Z</time>
      </trkpt>
      <trkpt lat="39.570515" lon="-8.39584167">
        <ele>47.0</ele>
        <time>2019-05-17T15:02:09.158Z</time>
      </trkpt>
      <trkpt lat="39.57055" lon="-8.39587833">
        <ele>48.0</ele>
        <time>2019-05-17T15:02:10.168Z</time>
      </trkpt>
      <trkpt lat="39.57056333" lon="-8.39589333">
        <ele>48.0</ele>
        <time>2019-05-17T15:02:11.155Z</time>
      </trkpt>
      <trkpt lat="39.57056333" lon="-8.39589333">
        <ele>48.0</ele>
        <time>2019-05-17T15:02:12.167Z</time>
      </trkpt>
      <trkpt lat="39.57059167" lon="-8.39592667">
        <ele>49.0</ele>
        <time>2019-05-17T15:02:13.161Z</time>
      </trkpt>
      <trkpt lat="39.57060833" lon="-8.39594333">
        <ele>49.0</ele>
        <time>2019-05-17T15:02:14.185Z</time>
      </trkpt>
      <trkpt lat="39.57060833" lon="-8.39594333">
        <ele>49.0</ele>
        <time>2019-05-17T15:02:15.162Z</time>
      </trkpt>
      <trkpt lat="39.57064" lon="-8.39596667">
        <ele>50.0</ele>
        <time>2019-05-17T15:02:16.165Z</time>
      </trkpt>
      <trkpt lat="39.57064" lon="-8.39596667">
        <ele>50.0</ele>
        <time>2019-05-17T15:02:17.161Z</time>
      </trkpt>
      <trkpt lat="39.57068" lon="-8.39599667">
        <ele>51.0</ele>
        <time>2019-05-17T15:02:18.150Z</time>
      </trkpt>
      <trkpt lat="39.57068" lon="-8.39599667">
        <ele>51.0</ele>
        <time>2019-05-17T15:02:19.162Z</time>
      </trkpt>
      <trkpt lat="39.57071333" lon="-8.39602667">
        <ele>52.0</ele>
        <time>2019-05-17T15:02:20.155Z</time>
      </trkpt>
      <trkpt lat="39.57071333" lon="-8.39602667">
        <ele>52.0</ele>
        <time>2019-05-17T15:02:21.163Z</time>
      </trkpt>
      <trkpt lat="39.57074833" lon="-8.39606333">
        <ele>53.0</ele>
        <time>2019-05-17T15:02:22.164Z</time>
      </trkpt>
      <trkpt lat="39.57074833" lon="-8.39606333">
        <ele>53.0</ele>
        <time>2019-05-17T15:02:23.172Z</time>
      </trkpt>
      <trkpt lat="39.57077833" lon="-8.39609833">
        <ele>54.0</ele>
        <time>2019-05-17T15:02:24.170Z</time>
      </trkpt>
      <trkpt lat="39.57077833" lon="-8.39609833">
        <ele>54.0</ele>
        <time>2019-05-17T15:02:25.161Z</time>
      </trkpt>
      <trkpt lat="39.570805" lon="-8.39614">
        <ele>55.0</ele>
        <time>2019-05-17T15:02:26.155Z</time>
      </trkpt>
      <trkpt lat="39.570805" lon="-8.39614">
        <ele>55.0</ele>
        <time>2019-05-17T15:02:27.170Z</time>
      </trkpt>
      <trkpt lat="39.57084167" lon="-8.39617667">
        <ele>55.0</ele>
        <time>2019-05-17T15:02:28.164Z</time>
      </trkpt>
      <trkpt lat="39.57084167" lon="-8.39617667">
        <ele>55.0</ele>
        <time>2019-05-17T15:02:29.188Z</time>
      </trkpt>
      <trkpt lat="39.57087" lon="-8.3962">
        <ele>55.0</ele>
        <time>2019-05-17T15:02:30.188Z</time>
      </trkpt>
      <trkpt lat="39.57087" lon="-8.3962">
        <ele>55.0</ele>
        <time>2019-05-17T15:02:31.159Z</time>
      </trkpt>
      <trkpt lat="39.57089833" lon="-8.39622833">
        <ele>55.0</ele>
        <time>2019-05-17T15:02:32.164Z</time>
      </trkpt>
      <trkpt lat="39.57089833" lon="-8.39622833">
        <ele>55.0</ele>
        <time>2019-05-17T15:02:33.179Z</time>
      </trkpt>
      <trkpt lat="39.57092667" lon="-8.39626167">
        <ele>55.0</ele>
        <time>2019-05-17T15:02:34.195Z</time>
      </trkpt>
      <trkpt lat="39.57092667" lon="-8.39626167">
        <ele>55.0</ele>
        <time>2019-05-17T15:02:35.169Z</time>
      </trkpt>
      <trkpt lat="39.57096167" lon="-8.396295">
        <ele>56.0</ele>
        <time>2019-05-17T15:02:36.173Z</time>
      </trkpt>
      <trkpt lat="39.57096167" lon="-8.396295">
        <ele>56.0</ele>
        <time>2019-05-17T15:02:37.184Z</time>
      </trkpt>
      <trkpt lat="39.57099667" lon="-8.396335">
        <ele>56.0</ele>
        <time>2019-05-17T15:02:38.181Z</time>
      </trkpt>
      <trkpt lat="39.57099667" lon="-8.396335">
        <ele>56.0</ele>
        <time>2019-05-17T15:02:39.178Z</time>
      </trkpt>
      <trkpt lat="39.571035" lon="-8.396375">
        <ele>57.0</ele>
        <time>2019-05-17T15:02:40.178Z</time>
      </trkpt>
      <trkpt lat="39.571035" lon="-8.396375">
        <ele>57.0</ele>
        <time>2019-05-17T15:02:41.177Z</time>
      </trkpt>
      <trkpt lat="39.57107833" lon="-8.39640833">
        <ele>57.0</ele>
        <time>2019-05-17T15:02:42.166Z</time>
      </trkpt>
      <trkpt lat="39.57109333" lon="-8.39642333">
        <ele>57.0</ele>
        <time>2019-05-17T15:02:43.150Z</time>
      </trkpt>
      <trkpt lat="39.57109333" lon="-8.39642333">
        <ele>57.0</ele>
        <time>2019-05-17T15:02:44.171Z</time>
      </trkpt>
      <trkpt lat="39.57111667" lon="-8.39645667">
        <ele>58.0</ele>
        <time>2019-05-17T15:02:45.151Z</time>
      </trkpt>
      <trkpt lat="39.57111667" lon="-8.39645667">
        <ele>58.0</ele>
        <time>2019-05-17T15:02:46.159Z</time>
      </trkpt>
      <trkpt lat="39.57113833" lon="-8.39648667">
        <ele>59.0</ele>
        <time>2019-05-17T15:02:47.159Z</time>
      </trkpt>
      <trkpt lat="39.57113833" lon="-8.39648667">
        <ele>59.0</ele>
        <time>2019-05-17T15:02:48.185Z</time>
      </trkpt>
      <trkpt lat="39.57116333" lon="-8.39651167">
        <ele>59.0</ele>
        <time>2019-05-17T15:02:49.183Z</time>
      </trkpt>
      <trkpt lat="39.57117833" lon="-8.396525">
        <ele>59.0</ele>
        <time>2019-05-17T15:02:50.188Z</time>
      </trkpt>
      <trkpt lat="39.57117833" lon="-8.396525">
        <ele>59.0</ele>
        <time>2019-05-17T15:02:51.181Z</time>
      </trkpt>
      <trkpt lat="39.57121" lon="-8.396555">
        <ele>60.0</ele>
        <time>2019-05-17T15:02:52.185Z</time>
      </trkpt>
      <trkpt lat="39.57121" lon="-8.396555">
        <ele>60.0</ele>
        <time>2019-05-17T15:02:53.189Z</time>
      </trkpt>
      <trkpt lat="39.57123667" lon="-8.39658667">
        <ele>60.0</ele>
        <time>2019-05-17T15:02:54.182Z</time>
      </trkpt>
      <trkpt lat="39.57123667" lon="-8.39658667">
        <ele>60.0</ele>
        <time>2019-05-17T15:02:55.169Z</time>
      </trkpt>
      <trkpt lat="39.57126167" lon="-8.39661833">
        <ele>61.0</ele>
        <time>2019-05-17T15:02:56.182Z</time>
      </trkpt>
      <trkpt lat="39.57126167" lon="-8.39661833">
        <ele>61.0</ele>
        <time>2019-05-17T15:02:57.189Z</time>
      </trkpt>
      <trkpt lat="39.57128333" lon="-8.396645">
        <ele>62.0</ele>
        <time>2019-05-17T15:02:58.181Z</time>
      </trkpt>
      <trkpt lat="39.57128333" lon="-8.396645">
        <ele>62.0</ele>
        <time>2019-05-17T15:02:59.170Z</time>
      </trkpt>
      <trkpt lat="39.571305" lon="-8.396665">
        <ele>62.0</ele>
        <time>2019-05-17T15:03:00.175Z</time>
      </trkpt>
      <trkpt lat="39.571305" lon="-8.396665">
        <ele>62.0</ele>
        <time>2019-05-17T15:03:01.169Z</time>
      </trkpt>
      <trkpt lat="39.57132333" lon="-8.39667833">
        <ele>63.0</ele>
        <time>2019-05-17T15:03:02.172Z</time>
      </trkpt>
      <trkpt lat="39.57132333" lon="-8.39667833">
        <ele>63.0</ele>
        <time>2019-05-17T15:03:03.188Z</time>
      </trkpt>
      <trkpt lat="39.57133667" lon="-8.39668667">
        <ele>63.0</ele>
        <time>2019-05-17T15:03:04.161Z</time>
      </trkpt>
      <trkpt lat="39.57133667" lon="-8.396685">
        <ele>63.0</ele>
        <time>2019-05-17T15:03:05.183Z</time>
      </trkpt>
      <trkpt lat="39.57133667" lon="-8.396685">
        <ele>63.0</ele>
        <time>2019-05-17T15:03:06.174Z</time>
      </trkpt>
      <trkpt lat="39.571335" lon="-8.39668333">
        <ele>62.0</ele>
        <time>2019-05-17T15:03:07.171Z</time>
      </trkpt>
      <trkpt lat="39.571335" lon="-8.39668333">
        <ele>62.0</ele>
        <time>2019-05-17T15:03:08.182Z</time>
      </trkpt>
      <trkpt lat="39.571335" lon="-8.39668333">
        <ele>62.0</ele>
        <time>2019-05-17T15:03:09.161Z</time>
      </trkpt>
      <trkpt lat="39.571335" lon="-8.39668333">
        <ele>62.0</ele>
        <time>2019-05-17T15:03:10.172Z</time>
      </trkpt>
      <trkpt lat="39.571335" lon="-8.39668333">
        <ele>62.0</ele>
        <time>2019-05-17T15:03:11.167Z</time>
      </trkpt>
      <trkpt lat="39.571335" lon="-8.39668333">
        <ele>62.0</ele>
        <time>2019-05-17T15:03:12.170Z</time>
      </trkpt>
      <trkpt lat="39.571335" lon="-8.39668333">
        <ele>62.0</ele>
        <time>2019-05-17T15:03:13.159Z</time>
      </trkpt>
      <trkpt lat="39.571335" lon="-8.39668333">
        <ele>62.0</ele>
        <time>2019-05-17T15:03:14.185Z</time>
      </trkpt>
      <trkpt lat="39.571335" lon="-8.39668333">
        <ele>62.0</ele>
        <time>2019-05-17T15:03:15.170Z</time>
      </trkpt>
      <trkpt lat="39.571335" lon="-8.39668333">
        <ele>62.0</ele>
        <time>2019-05-17T15:03:16.168Z</time>
      </trkpt>
      <trkpt lat="39.571335" lon="-8.39668333">
        <ele>62.0</ele>
        <time>2019-05-17T15:03:17.172Z</time>
      </trkpt>
      <trkpt lat="39.571335" lon="-8.39668333">
        <ele>62.0</ele>
        <time>2019-05-17T15:03:18.167Z</time>
      </trkpt>
      <trkpt lat="39.571335" lon="-8.39668333">
        <ele>62.0</ele>
        <time>2019-05-17T15:03:19.173Z</time>
      </trkpt>
      <trkpt lat="39.571335" lon="-8.39668333">
        <ele>62.0</ele>
        <time>2019-05-17T15:03:20.174Z</time>
      </trkpt>
      <trkpt lat="39.571335" lon="-8.39668333">
        <ele>62.0</ele>
        <time>2019-05-17T15:03:21.167Z</time>
      </trkpt>
      <trkpt lat="39.571335" lon="-8.39668333">
        <ele>62.0</ele>
        <time>2019-05-17T15:03:22.172Z</time>
      </trkpt>
      <trkpt lat="39.571335" lon="-8.39668333">
        <ele>62.0</ele>
        <time>2019-05-17T15:03:23.167Z</time>
      </trkpt>
      <trkpt lat="39.571335" lon="-8.39668333">
        <ele>62.0</ele>
        <time>2019-05-17T15:03:24.174Z</time>
      </trkpt>
      <trkpt lat="39.571335" lon="-8.39668333">
        <ele>62.0</ele>
        <time>2019-05-17T15:03:25.167Z</time>
      </trkpt>
      <trkpt lat="39.571335" lon="-8.39668333">
        <ele>62.0</ele>
        <time>2019-05-17T15:03:26.172Z</time>
      </trkpt>
      <trkpt lat="39.571335" lon="-8.39668333">
        <ele>62.0</ele>
        <time>2019-05-17T15:03:27.167Z</time>
      </trkpt>
      <trkpt lat="39.571335" lon="-8.39668333">
        <ele>62.0</ele>
        <time>2019-05-17T15:03:28.175Z</time>
      </trkpt>
      <trkpt lat="39.571335" lon="-8.39668333">
        <ele>62.0</ele>
        <time>2019-05-17T15:03:29.169Z</time>
      </trkpt>
      <trkpt lat="39.571335" lon="-8.39668333">
        <ele>62.0</ele>
        <time>2019-05-17T15:03:30.171Z</time>
      </trkpt>
      <trkpt lat="39.571335" lon="-8.39668333">
        <ele>62.0</ele>
        <time>2019-05-17T15:03:31.167Z</time>
      </trkpt>
      <trkpt lat="39.571335" lon="-8.39668333">
        <ele>62.0</ele>
        <time>2019-05-17T15:03:32.175Z</time>
      </trkpt>
      <trkpt lat="39.571335" lon="-8.39668333">
        <ele>62.0</ele>
        <time>2019-05-17T15:03:33.167Z</time>
      </trkpt>
      <trkpt lat="39.571335" lon="-8.39668333">
        <ele>62.0</ele>
        <time>2019-05-17T15:03:34.172Z</time>
      </trkpt>
      <trkpt lat="39.571335" lon="-8.39668333">
        <ele>62.0</ele>
        <time>2019-05-17T15:03:35.167Z</time>
      </trkpt>
      <trkpt lat="39.571335" lon="-8.39668333">
        <ele>62.0</ele>
        <time>2019-05-17T15:03:36.155Z</time>
      </trkpt>
      <trkpt lat="39.571335" lon="-8.39668333">
        <ele>62.0</ele>
        <time>2019-05-17T15:03:37.180Z</time>
      </trkpt>
      <trkpt lat="39.571335" lon="-8.39668333">
        <ele>62.0</ele>
        <time>2019-05-17T15:03:38.174Z</time>
      </trkpt>
      <trkpt lat="39.571335" lon="-8.39668333">
        <ele>62.0</ele>
        <time>2019-05-17T15:03:39.171Z</time>
      </trkpt>
      <trkpt lat="39.571335" lon="-8.39668333">
        <ele>62.0</ele>
        <time>2019-05-17T15:03:40.172Z</time>
      </trkpt>
      <trkpt lat="39.571335" lon="-8.39668333">
        <ele>62.0</ele>
        <time>2019-05-17T15:03:41.167Z</time>
      </trkpt>
      <trkpt lat="39.571335" lon="-8.39668333">
        <ele>62.0</ele>
        <time>2019-05-17T15:03:42.172Z</time>
      </trkpt>
      <trkpt lat="39.571335" lon="-8.39668333">
        <ele>62.0</ele>
        <time>2019-05-17T15:03:43.167Z</time>
      </trkpt>
      <trkpt lat="39.571335" lon="-8.39668333">
        <ele>62.0</ele>
        <time>2019-05-17T15:03:44.176Z</time>
      </trkpt>
      <trkpt lat="39.571335" lon="-8.39668333">
        <ele>62.0</ele>
        <time>2019-05-17T15:03:45.167Z</time>
      </trkpt>
      <trkpt lat="39.571335" lon="-8.39668333">
        <ele>62.0</ele>
        <time>2019-05-17T15:03:46.186Z</time>
      </trkpt>
      <trkpt lat="39.571335" lon="-8.39668333">
        <ele>62.0</ele>
        <time>2019-05-17T15:03:47.172Z</time>
      </trkpt>
      <trkpt lat="39.571335" lon="-8.39668333">
        <ele>62.0</ele>
        <time>2019-05-17T15:03:48.172Z</time>
      </trkpt>
      <trkpt lat="39.571335" lon="-8.39668333">
        <ele>62.0</ele>
        <time>2019-05-17T15:03:49.182Z</time>
      </trkpt>
      <trkpt lat="39.571335" lon="-8.39668333">
        <ele>62.0</ele>
        <time>2019-05-17T15:03:50.171Z</time>
      </trkpt>
      <trkpt lat="39.571335" lon="-8.39668333">
        <ele>62.0</ele>
        <time>2019-05-17T15:03:51.173Z</time>
      </trkpt>
      <trkpt lat="39.571335" lon="-8.39668333">
        <ele>62.0</ele>
        <time>2019-05-17T15:03:52.167Z</time>
      </trkpt>
      <trkpt lat="39.571335" lon="-8.39668333">
        <ele>62.0</ele>
        <time>2019-05-17T15:03:53.171Z</time>
      </trkpt>
      <trkpt lat="39.571335" lon="-8.39668333">
        <ele>62.0</ele>
        <time>2019-05-17T15:03:54.172Z</time>
      </trkpt>
      <trkpt lat="39.571335" lon="-8.39668333">
        <ele>62.0</ele>
        <time>2019-05-17T15:03:55.172Z</time>
      </trkpt>
      <trkpt lat="39.571335" lon="-8.39668333">
        <ele>62.0</ele>
        <time>2019-05-17T15:03:56.181Z</time>
      </trkpt>
      <trkpt lat="39.571335" lon="-8.39668333">
        <ele>62.0</ele>
        <time>2019-05-17T15:03:57.167Z</time>
      </trkpt>
      <trkpt lat="39.571335" lon="-8.39668333">
        <ele>62.0</ele>
        <time>2019-05-17T15:03:58.172Z</time>
      </trkpt>
      <trkpt lat="39.571335" lon="-8.39668333">
        <ele>62.0</ele>
        <time>2019-05-17T15:03:59.173Z</time>
      </trkpt>
      <trkpt lat="39.571335" lon="-8.39668333">
        <ele>62.0</ele>
        <time>2019-05-17T15:04:00.167Z</time>
      </trkpt>
      <trkpt lat="39.571335" lon="-8.39668333">
        <ele>62.0</ele>
        <time>2019-05-17T15:04:01.171Z</time>
      </trkpt>
      <trkpt lat="39.571335" lon="-8.39668333">
        <ele>62.0</ele>
        <time>2019-05-17T15:04:02.174Z</time>
      </trkpt>
      <trkpt lat="39.571335" lon="-8.39668333">
        <ele>62.0</ele>
        <time>2019-05-17T15:04:03.167Z</time>
      </trkpt>
      <trkpt lat="39.571335" lon="-8.39668333">
        <ele>62.0</ele>
        <time>2019-05-17T15:04:04.170Z</time>
      </trkpt>
      <trkpt lat="39.571335" lon="-8.39668333">
        <ele>62.0</ele>
        <time>2019-05-17T15:04:05.167Z</time>
      </trkpt>
      <trkpt lat="39.571335" lon="-8.39668333">
        <ele>62.0</ele>
        <time>2019-05-17T15:04:06.173Z</time>
      </trkpt>
      <trkpt lat="39.571335" lon="-8.39668333">
        <ele>62.0</ele>
        <time>2019-05-17T15:04:07.167Z</time>
      </trkpt>
      <trkpt lat="39.571335" lon="-8.39668333">
        <ele>62.0</ele>
        <time>2019-05-17T15:04:08.160Z</time>
      </trkpt>
      <trkpt lat="39.571335" lon="-8.39668333">
        <ele>62.0</ele>
        <time>2019-05-17T15:04:09.157Z</time>
      </trkpt>
      <trkpt lat="39.571335" lon="-8.39668333">
        <ele>62.0</ele>
        <time>2019-05-17T15:04:10.165Z</time>
      </trkpt>
      <trkpt lat="39.571335" lon="-8.39668333">
        <ele>62.0</ele>
        <time>2019-05-17T15:04:11.171Z</time>
      </trkpt>
      <trkpt lat="39.571335" lon="-8.39668333">
        <ele>62.0</ele>
        <time>2019-05-17T15:04:12.177Z</time>
      </trkpt>
      <trkpt lat="39.571335" lon="-8.39668333">
        <ele>62.0</ele>
        <time>2019-05-17T15:04:13.186Z</time>
      </trkpt>
      <trkpt lat="39.571335" lon="-8.39668333">
        <ele>62.0</ele>
        <time>2019-05-17T15:04:14.174Z</time>
      </trkpt>
      <trkpt lat="39.571335" lon="-8.39668333">
        <ele>62.0</ele>
        <time>2019-05-17T15:04:15.189Z</time>
      </trkpt>
      <trkpt lat="39.571335" lon="-8.39668333">
        <ele>62.0</ele>
        <time>2019-05-17T15:04:16.175Z</time>
      </trkpt>
      <trkpt lat="39.571335" lon="-8.39668333">
        <ele>62.0</ele>
        <time>2019-05-17T15:04:17.167Z</time>
      </trkpt>
      <trkpt lat="39.571335" lon="-8.39668333">
        <ele>62.0</ele>
        <time>2019-05-17T15:04:18.152Z</time>
      </trkpt>
      <trkpt lat="39.571335" lon="-8.39668333">
        <ele>62.0</ele>
        <time>2019-05-17T15:04:19.178Z</time>
      </trkpt>
      <trkpt lat="39.571335" lon="-8.39668333">
        <ele>62.0</ele>
        <time>2019-05-17T15:04:20.175Z</time>
      </trkpt>
      <trkpt lat="39.571335" lon="-8.39668333">
        <ele>62.0</ele>
        <time>2019-05-17T15:04:21.167Z</time>
      </trkpt>
      <trkpt lat="39.571335" lon="-8.39668333">
        <ele>62.0</ele>
        <time>2019-05-17T15:04:22.172Z</time>
      </trkpt>
      <trkpt lat="39.571335" lon="-8.39668333">
        <ele>62.0</ele>
        <time>2019-05-17T15:04:23.167Z</time>
      </trkpt>
      <trkpt lat="39.571335" lon="-8.39668333">
        <ele>62.0</ele>
        <time>2019-05-17T15:04:24.172Z</time>
      </trkpt>
      <trkpt lat="39.571335" lon="-8.39668333">
        <ele>62.0</ele>
        <time>2019-05-17T15:04:25.167Z</time>
      </trkpt>
      <trkpt lat="39.571335" lon="-8.39668333">
        <ele>62.0</ele>
        <time>2019-05-17T15:04:26.151Z</time>
      </trkpt>
      <trkpt lat="39.571335" lon="-8.39668333">
        <ele>62.0</ele>
        <time>2019-05-17T15:04:27.186Z</time>
      </trkpt>
      <trkpt lat="39.571335" lon="-8.39668333">
        <ele>62.0</ele>
        <time>2019-05-17T15:04:28.173Z</time>
      </trkpt>
      <trkpt lat="39.571335" lon="-8.39668333">
        <ele>62.0</ele>
        <time>2019-05-17T15:04:29.167Z</time>
      </trkpt>
      <trkpt lat="39.571335" lon="-8.39668333">
        <ele>62.0</ele>
        <time>2019-05-17T15:04:30.172Z</time>
      </trkpt>
      <trkpt lat="39.571335" lon="-8.39668333">
        <ele>62.0</ele>
        <time>2019-05-17T15:04:31.167Z</time>
      </trkpt>
      <trkpt lat="39.571335" lon="-8.39668333">
        <ele>62.0</ele>
        <time>2019-05-17T15:04:32.174Z</time>
      </trkpt>
      <trkpt lat="39.571335" lon="-8.39668333">
        <ele>62.0</ele>
        <time>2019-05-17T15:04:33.173Z</time>
      </trkpt>
      <trkpt lat="39.571335" lon="-8.39668333">
        <ele>62.0</ele>
        <time>2019-05-17T15:04:34.167Z</time>
      </trkpt>
      <trkpt lat="39.571335" lon="-8.39668333">
        <ele>62.0</ele>
        <time>2019-05-17T15:04:35.171Z</time>
      </trkpt>
      <trkpt lat="39.571335" lon="-8.39668333">
        <ele>62.0</ele>
        <time>2019-05-17T15:04:36.168Z</time>
      </trkpt>
      <trkpt lat="39.571335" lon="-8.39668333">
        <ele>62.0</ele>
        <time>2019-05-17T15:04:37.172Z</time>
      </trkpt>
      <trkpt lat="39.571335" lon="-8.39668333">
        <ele>62.0</ele>
        <time>2019-05-17T15:04:38.171Z</time>
      </trkpt>
      <trkpt lat="39.571335" lon="-8.39668333">
        <ele>62.0</ele>
        <time>2019-05-17T15:04:39.172Z</time>
      </trkpt>
      <trkpt lat="39.571335" lon="-8.39668333">
        <ele>62.0</ele>
        <time>2019-05-17T15:04:40.173Z</time>
      </trkpt>
      <trkpt lat="39.571335" lon="-8.39668333">
        <ele>62.0</ele>
        <time>2019-05-17T15:04:41.167Z</time>
      </trkpt>
      <trkpt lat="39.571335" lon="-8.39668333">
        <ele>62.0</ele>
        <time>2019-05-17T15:04:42.170Z</time>
      </trkpt>
      <trkpt lat="39.571335" lon="-8.39668333">
        <ele>62.0</ele>
        <time>2019-05-17T15:04:43.163Z</time>
      </trkpt>
      <trkpt lat="39.571335" lon="-8.39668333">
        <ele>62.0</ele>
        <time>2019-05-17T15:04:44.151Z</time>
      </trkpt>
      <trkpt lat="39.571335" lon="-8.39668333">
        <ele>62.0</ele>
        <time>2019-05-17T15:04:45.176Z</time>
      </trkpt>
      <trkpt lat="39.571335" lon="-8.39668333">
        <ele>62.0</ele>
        <time>2019-05-17T15:04:46.173Z</time>
      </trkpt>
      <trkpt lat="39.571335" lon="-8.39668333">
        <ele>62.0</ele>
        <time>2019-05-17T15:04:47.167Z</time>
      </trkpt>
      <trkpt lat="39.571335" lon="-8.39668333">
        <ele>62.0</ele>
        <time>2019-05-17T15:04:48.170Z</time>
      </trkpt>
      <trkpt lat="39.571335" lon="-8.39668333">
        <ele>62.0</ele>
        <time>2019-05-17T15:04:49.172Z</time>
      </trkpt>
      <trkpt lat="39.571335" lon="-8.39668333">
        <ele>62.0</ele>
        <time>2019-05-17T15:04:50.181Z</time>
      </trkpt>
      <trkpt lat="39.571335" lon="-8.39668333">
        <ele>62.0</ele>
        <time>2019-05-17T15:04:51.167Z</time>
      </trkpt>
      <trkpt lat="39.571335" lon="-8.39668333">
        <ele>62.0</ele>
        <time>2019-05-17T15:04:52.173Z</time>
      </trkpt>
      <trkpt lat="39.571335" lon="-8.39668333">
        <ele>62.0</ele>
        <time>2019-05-17T15:04:53.168Z</time>
      </trkpt>
      <trkpt lat="39.571335" lon="-8.39668333">
        <ele>62.0</ele>
        <time>2019-05-17T15:04:54.171Z</time>
      </trkpt>
      <trkpt lat="39.571335" lon="-8.39668333">
        <ele>62.0</ele>
        <time>2019-05-17T15:04:55.167Z</time>
      </trkpt>
      <trkpt lat="39.571335" lon="-8.39668333">
        <ele>62.0</ele>
        <time>2019-05-17T15:04:56.174Z</time>
      </trkpt>
      <trkpt lat="39.571335" lon="-8.39668333">
        <ele>62.0</ele>
        <time>2019-05-17T15:04:57.185Z</time>
      </trkpt>
      <trkpt lat="39.571335" lon="-8.39668333">
        <ele>62.0</ele>
        <time>2019-05-17T15:04:58.172Z</time>
      </trkpt>
      <trkpt lat="39.571335" lon="-8.39668333">
        <ele>62.0</ele>
        <time>2019-05-17T15:04:59.167Z</time>
      </trkpt>
      <trkpt lat="39.571335" lon="-8.39668333">
        <ele>62.0</ele>
        <time>2019-05-17T15:05:00.172Z</time>
      </trkpt>
      <trkpt lat="39.571335" lon="-8.39668333">
        <ele>62.0</ele>
        <time>2019-05-17T15:05:01.167Z</time>
      </trkpt>
      <trkpt lat="39.571335" lon="-8.39668333">
        <ele>62.0</ele>
        <time>2019-05-17T15:05:02.174Z</time>
      </trkpt>
      <trkpt lat="39.571335" lon="-8.39668333">
        <ele>62.0</ele>
        <time>2019-05-17T15:05:03.167Z</time>
      </trkpt>
      <trkpt lat="39.571335" lon="-8.39668333">
        <ele>62.0</ele>
        <time>2019-05-17T15:05:04.152Z</time>
      </trkpt>
      <trkpt lat="39.571335" lon="-8.39668333">
        <ele>62.0</ele>
        <time>2019-05-17T15:05:05.177Z</time>
      </trkpt>
      <trkpt lat="39.571335" lon="-8.39668333">
        <ele>62.0</ele>
        <time>2019-05-17T15:05:06.171Z</time>
      </trkpt>
      <trkpt lat="39.571335" lon="-8.39668333">
        <ele>62.0</ele>
        <time>2019-05-17T15:05:07.167Z</time>
      </trkpt>
      <trkpt lat="39.571335" lon="-8.39668333">
        <ele>62.0</ele>
        <time>2019-05-17T15:05:08.165Z</time>
      </trkpt>
      <trkpt lat="39.571335" lon="-8.39668333">
        <ele>62.0</ele>
        <time>2019-05-17T15:05:09.157Z</time>
      </trkpt>
      <trkpt lat="39.571335" lon="-8.39668333">
        <ele>62.0</ele>
        <time>2019-05-17T15:05:10.182Z</time>
      </trkpt>
      <trkpt lat="39.571335" lon="-8.39668333">
        <ele>62.0</ele>
        <time>2019-05-17T15:05:11.189Z</time>
      </trkpt>
      <trkpt lat="39.571335" lon="-8.39668333">
        <ele>62.0</ele>
        <time>2019-05-17T15:05:12.172Z</time>
      </trkpt>
      <trkpt lat="39.571335" lon="-8.39668333">
        <ele>62.0</ele>
        <time>2019-05-17T15:05:13.176Z</time>
      </trkpt>
      <trkpt lat="39.571335" lon="-8.39668333">
        <ele>62.0</ele>
        <time>2019-05-17T15:05:14.169Z</time>
      </trkpt>
      <trkpt lat="39.571335" lon="-8.39668333">
        <ele>62.0</ele>
        <time>2019-05-17T15:05:15.172Z</time>
      </trkpt>
      <trkpt lat="39.571335" lon="-8.39668333">
        <ele>62.0</ele>
        <time>2019-05-17T15:05:16.167Z</time>
      </trkpt>
      <trkpt lat="39.571335" lon="-8.39668333">
        <ele>62.0</ele>
        <time>2019-05-17T15:05:17.168Z</time>
      </trkpt>
      <trkpt lat="39.571335" lon="-8.39668333">
        <ele>62.0</ele>
        <time>2019-05-17T15:05:18.172Z</time>
      </trkpt>
      <trkpt lat="39.571335" lon="-8.39668333">
        <ele>62.0</ele>
        <time>2019-05-17T15:05:19.167Z</time>
      </trkpt>
      <trkpt lat="39.571335" lon="-8.39668333">
        <ele>62.0</ele>
        <time>2019-05-17T15:05:20.175Z</time>
      </trkpt>
      <trkpt lat="39.571335" lon="-8.39668333">
        <ele>62.0</ele>
        <time>2019-05-17T15:05:21.167Z</time>
      </trkpt>
      <trkpt lat="39.571335" lon="-8.39668333">
        <ele>62.0</ele>
        <time>2019-05-17T15:05:22.172Z</time>
      </trkpt>
      <trkpt lat="39.571335" lon="-8.39668333">
        <ele>62.0</ele>
        <time>2019-05-17T15:05:23.167Z</time>
      </trkpt>
      <trkpt lat="39.571335" lon="-8.39668333">
        <ele>62.0</ele>
        <time>2019-05-17T15:05:24.172Z</time>
      </trkpt>
      <trkpt lat="39.571335" lon="-8.39668333">
        <ele>62.0</ele>
        <time>2019-05-17T15:05:25.174Z</time>
      </trkpt>
      <trkpt lat="39.571335" lon="-8.39668333">
        <ele>62.0</ele>
        <time>2019-05-17T15:05:26.175Z</time>
      </trkpt>
      <trkpt lat="39.571335" lon="-8.39668333">
        <ele>62.0</ele>
        <time>2019-05-17T15:05:27.163Z</time>
      </trkpt>
      <trkpt lat="39.571335" lon="-8.39668333">
        <ele>62.0</ele>
        <time>2019-05-17T15:05:28.189Z</time>
      </trkpt>
      <trkpt lat="39.571335" lon="-8.39668333">
        <ele>62.0</ele>
        <time>2019-05-17T15:05:29.175Z</time>
      </trkpt>
      <trkpt lat="39.571335" lon="-8.39668333">
        <ele>62.0</ele>
        <time>2019-05-17T15:05:30.172Z</time>
      </trkpt>
      <trkpt lat="39.571335" lon="-8.39668333">
        <ele>62.0</ele>
        <time>2019-05-17T15:05:31.167Z</time>
      </trkpt>
      <trkpt lat="39.571335" lon="-8.39668333">
        <ele>62.0</ele>
        <time>2019-05-17T15:05:32.174Z</time>
      </trkpt>
      <trkpt lat="39.571335" lon="-8.39668333">
        <ele>62.0</ele>
        <time>2019-05-17T15:05:33.167Z</time>
      </trkpt>
      <trkpt lat="39.571335" lon="-8.39668333">
        <ele>62.0</ele>
        <time>2019-05-17T15:05:34.172Z</time>
      </trkpt>
      <trkpt lat="39.571335" lon="-8.39668333">
        <ele>62.0</ele>
        <time>2019-05-17T15:05:35.167Z</time>
      </trkpt>
      <trkpt lat="39.571335" lon="-8.39668333">
        <ele>62.0</ele>
        <time>2019-05-17T15:05:36.172Z</time>
      </trkpt>
      <trkpt lat="39.571335" lon="-8.39668333">
        <ele>62.0</ele>
        <time>2019-05-17T15:05:37.169Z</time>
      </trkpt>
      <trkpt lat="39.571335" lon="-8.39668333">
        <ele>62.0</ele>
        <time>2019-05-17T15:05:38.156Z</time>
      </trkpt>
      <trkpt lat="39.571335" lon="-8.39668333">
        <ele>62.0</ele>
        <time>2019-05-17T15:05:39.181Z</time>
      </trkpt>
      <trkpt lat="39.571335" lon="-8.39668333">
        <ele>62.0</ele>
        <time>2019-05-17T15:05:40.168Z</time>
      </trkpt>
      <trkpt lat="39.571335" lon="-8.39668333">
        <ele>62.0</ele>
        <time>2019-05-17T15:05:41.172Z</time>
      </trkpt>
      <trkpt lat="39.571335" lon="-8.39668333">
        <ele>62.0</ele>
        <time>2019-05-17T15:05:42.168Z</time>
      </trkpt>
      <trkpt lat="39.571335" lon="-8.39668333">
        <ele>62.0</ele>
        <time>2019-05-17T15:05:43.172Z</time>
      </trkpt>
      <trkpt lat="39.571335" lon="-8.39668333">
        <ele>62.0</ele>
        <time>2019-05-17T15:05:44.154Z</time>
      </trkpt>
      <trkpt lat="39.571335" lon="-8.39668333">
        <ele>62.0</ele>
        <time>2019-05-17T15:05:45.179Z</time>
      </trkpt>
      <trkpt lat="39.571335" lon="-8.39668333">
        <ele>62.0</ele>
        <time>2019-05-17T15:05:46.171Z</time>
      </trkpt>
      <trkpt lat="39.571335" lon="-8.39668333">
        <ele>62.0</ele>
        <time>2019-05-17T15:05:47.167Z</time>
      </trkpt>
      <trkpt lat="39.571335" lon="-8.39668333">
        <ele>62.0</ele>
        <time>2019-05-17T15:05:48.152Z</time>
      </trkpt>
      <trkpt lat="39.571335" lon="-8.39668333">
        <ele>62.0</ele>
        <time>2019-05-17T15:05:49.178Z</time>
      </trkpt>
      <trkpt lat="39.571335" lon="-8.39668333">
        <ele>62.0</ele>
        <time>2019-05-17T15:05:50.183Z</time>
      </trkpt>
      <trkpt lat="39.571335" lon="-8.39668333">
        <ele>62.0</ele>
        <time>2019-05-17T15:05:51.169Z</time>
      </trkpt>
      <trkpt lat="39.571335" lon="-8.39668333">
        <ele>62.0</ele>
        <time>2019-05-17T15:05:52.172Z</time>
      </trkpt>
      <trkpt lat="39.571335" lon="-8.39668333">
        <ele>62.0</ele>
        <time>2019-05-17T15:05:53.167Z</time>
      </trkpt>
      <trkpt lat="39.571335" lon="-8.39668333">
        <ele>62.0</ele>
        <time>2019-05-17T15:05:54.153Z</time>
      </trkpt>
      <trkpt lat="39.571335" lon="-8.39668333">
        <ele>62.0</ele>
        <time>2019-05-17T15:05:55.177Z</time>
      </trkpt>
      <trkpt lat="39.571335" lon="-8.39668333">
        <ele>62.0</ele>
        <time>2019-05-17T15:05:56.175Z</time>
      </trkpt>
      <trkpt lat="39.571335" lon="-8.39668333">
        <ele>62.0</ele>
        <time>2019-05-17T15:05:57.167Z</time>
      </trkpt>
      <trkpt lat="39.571335" lon="-8.39668333">
        <ele>62.0</ele>
        <time>2019-05-17T15:05:58.153Z</time>
      </trkpt>
      <trkpt lat="39.571335" lon="-8.39668333">
        <ele>62.0</ele>
        <time>2019-05-17T15:05:59.177Z</time>
      </trkpt>
      <trkpt lat="39.571335" lon="-8.39668333">
        <ele>62.0</ele>
        <time>2019-05-17T15:06:00.172Z</time>
      </trkpt>
      <trkpt lat="39.571335" lon="-8.39668333">
        <ele>62.0</ele>
        <time>2019-05-17T15:06:01.167Z</time>
      </trkpt>
      <trkpt lat="39.571335" lon="-8.39668333">
        <ele>62.0</ele>
        <time>2019-05-17T15:06:02.174Z</time>
      </trkpt>
      <trkpt lat="39.571335" lon="-8.39668333">
        <ele>62.0</ele>
        <time>2019-05-17T15:06:03.164Z</time>
      </trkpt>
      <trkpt lat="39.571335" lon="-8.39668333">
        <ele>62.0</ele>
        <time>2019-05-17T15:06:04.188Z</time>
      </trkpt>
      <trkpt lat="39.571335" lon="-8.39668333">
        <ele>62.0</ele>
        <time>2019-05-17T15:06:05.172Z</time>
      </trkpt>
      <trkpt lat="39.571335" lon="-8.39668333">
        <ele>62.0</ele>
        <time>2019-05-17T15:06:06.172Z</time>
      </trkpt>
      <trkpt lat="39.571335" lon="-8.39668333">
        <ele>62.0</ele>
        <time>2019-05-17T15:06:07.168Z</time>
      </trkpt>
      <trkpt lat="39.571335" lon="-8.39668333">
        <ele>62.0</ele>
        <time>2019-05-17T15:06:08.189Z</time>
      </trkpt>
      <trkpt lat="39.571335" lon="-8.39668333">
        <ele>62.0</ele>
        <time>2019-05-17T15:06:09.168Z</time>
      </trkpt>
      <trkpt lat="39.571335" lon="-8.39668333">
        <ele>62.0</ele>
        <time>2019-05-17T15:06:10.174Z</time>
      </trkpt>
      <trkpt lat="39.571335" lon="-8.39668333">
        <ele>62.0</ele>
        <time>2019-05-17T15:06:11.180Z</time>
      </trkpt>
      <trkpt lat="39.571335" lon="-8.39668333">
        <ele>62.0</ele>
        <time>2019-05-17T15:06:12.185Z</time>
      </trkpt>
      <trkpt lat="39.571335" lon="-8.39668333">
        <ele>62.0</ele>
        <time>2019-05-17T15:06:13.177Z</time>
      </trkpt>
      <trkpt lat="39.571335" lon="-8.39668333">
        <ele>62.0</ele>
        <time>2019-05-17T15:06:14.175Z</time>
      </trkpt>
      <trkpt lat="39.571335" lon="-8.39668333">
        <ele>62.0</ele>
        <time>2019-05-17T15:06:15.167Z</time>
      </trkpt>
      <trkpt lat="39.571335" lon="-8.39668333">
        <ele>62.0</ele>
        <time>2019-05-17T15:06:16.170Z</time>
      </trkpt>
      <trkpt lat="39.571335" lon="-8.39668333">
        <ele>62.0</ele>
        <time>2019-05-17T15:06:17.171Z</time>
      </trkpt>
      <trkpt lat="39.571335" lon="-8.39668333">
        <ele>62.0</ele>
        <time>2019-05-17T15:06:18.172Z</time>
      </trkpt>
      <trkpt lat="39.571335" lon="-8.39668333">
        <ele>62.0</ele>
        <time>2019-05-17T15:06:19.166Z</time>
      </trkpt>
      <trkpt lat="39.571335" lon="-8.39668333">
        <ele>62.0</ele>
        <time>2019-05-17T15:06:20.175Z</time>
      </trkpt>
      <trkpt lat="39.571335" lon="-8.39668333">
        <ele>62.0</ele>
        <time>2019-05-17T15:06:21.169Z</time>
      </trkpt>
      <trkpt lat="39.571335" lon="-8.39668333">
        <ele>62.0</ele>
        <time>2019-05-17T15:06:22.172Z</time>
      </trkpt>
      <trkpt lat="39.571335" lon="-8.39668333">
        <ele>62.0</ele>
        <time>2019-05-17T15:06:23.168Z</time>
      </trkpt>
      <trkpt lat="39.571335" lon="-8.39668333">
        <ele>62.0</ele>
        <time>2019-05-17T15:06:24.172Z</time>
      </trkpt>
      <trkpt lat="39.571335" lon="-8.39668333">
        <ele>62.0</ele>
        <time>2019-05-17T15:06:25.168Z</time>
      </trkpt>
      <trkpt lat="39.571335" lon="-8.39668333">
        <ele>62.0</ele>
        <time>2019-05-17T15:06:26.175Z</time>
      </trkpt>
      <trkpt lat="39.571335" lon="-8.39668333">
        <ele>62.0</ele>
        <time>2019-05-17T15:06:27.177Z</time>
      </trkpt>
      <trkpt lat="39.571335" lon="-8.39668333">
        <ele>62.0</ele>
        <time>2019-05-17T15:06:28.172Z</time>
      </trkpt>
      <trkpt lat="39.571335" lon="-8.39668333">
        <ele>62.0</ele>
        <time>2019-05-17T15:06:29.168Z</time>
      </trkpt>
      <trkpt lat="39.571335" lon="-8.39668333">
        <ele>62.0</ele>
        <time>2019-05-17T15:06:30.172Z</time>
      </trkpt>
      <trkpt lat="39.571335" lon="-8.39668333">
        <ele>62.0</ele>
        <time>2019-05-17T15:06:31.172Z</time>
      </trkpt>
      <trkpt lat="39.571335" lon="-8.39668333">
        <ele>62.0</ele>
        <time>2019-05-17T15:06:32.170Z</time>
      </trkpt>
      <trkpt lat="39.571335" lon="-8.39668333">
        <ele>62.0</ele>
        <time>2019-05-17T15:06:33.175Z</time>
      </trkpt>
      <trkpt lat="39.571335" lon="-8.39668333">
        <ele>62.0</ele>
        <time>2019-05-17T15:06:34.172Z</time>
      </trkpt>
      <trkpt lat="39.571335" lon="-8.39668333">
        <ele>62.0</ele>
        <time>2019-05-17T15:06:35.168Z</time>
      </trkpt>
      <trkpt lat="39.571335" lon="-8.39668333">
        <ele>62.0</ele>
        <time>2019-05-17T15:06:36.172Z</time>
      </trkpt>
      <trkpt lat="39.571335" lon="-8.39668333">
        <ele>62.0</ele>
        <time>2019-05-17T15:06:37.179Z</time>
      </trkpt>
      <trkpt lat="39.571335" lon="-8.39668333">
        <ele>62.0</ele>
        <time>2019-05-17T15:06:38.174Z</time>
      </trkpt>
      <trkpt lat="39.571335" lon="-8.39668333">
        <ele>62.0</ele>
        <time>2019-05-17T15:06:39.167Z</time>
      </trkpt>
      <trkpt lat="39.571335" lon="-8.39668333">
        <ele>62.0</ele>
        <time>2019-05-17T15:06:40.170Z</time>
      </trkpt>
      <trkpt lat="39.571335" lon="-8.39668333">
        <ele>62.0</ele>
        <time>2019-05-17T15:06:41.167Z</time>
      </trkpt>
      <trkpt lat="39.571335" lon="-8.39668333">
        <ele>62.0</ele>
        <time>2019-05-17T15:06:42.172Z</time>
      </trkpt>
      <trkpt lat="39.571335" lon="-8.39668333">
        <ele>62.0</ele>
        <time>2019-05-17T15:06:43.171Z</time>
      </trkpt>
      <trkpt lat="39.571335" lon="-8.39668333">
        <ele>62.0</ele>
        <time>2019-05-17T15:06:44.175Z</time>
      </trkpt>
      <trkpt lat="39.571335" lon="-8.39668333">
        <ele>62.0</ele>
        <time>2019-05-17T15:06:45.168Z</time>
      </trkpt>
      <trkpt lat="39.571335" lon="-8.39668333">
        <ele>62.0</ele>
        <time>2019-05-17T15:06:46.172Z</time>
      </trkpt>
      <trkpt lat="39.571335" lon="-8.39668333">
        <ele>62.0</ele>
        <time>2019-05-17T15:06:47.168Z</time>
      </trkpt>
      <trkpt lat="39.571335" lon="-8.39668333">
        <ele>62.0</ele>
        <time>2019-05-17T15:06:48.176Z</time>
      </trkpt>
      <trkpt lat="39.571335" lon="-8.39668333">
        <ele>62.0</ele>
        <time>2019-05-17T15:06:49.168Z</time>
      </trkpt>
      <trkpt lat="39.571335" lon="-8.39668333">
        <ele>62.0</ele>
        <time>2019-05-17T15:06:50.176Z</time>
      </trkpt>
      <trkpt lat="39.571335" lon="-8.39668333">
        <ele>62.0</ele>
        <time>2019-05-17T15:06:51.167Z</time>
      </trkpt>
      <trkpt lat="39.571335" lon="-8.39668333">
        <ele>62.0</ele>
        <time>2019-05-17T15:06:52.172Z</time>
      </trkpt>
      <trkpt lat="39.571335" lon="-8.39668333">
        <ele>62.0</ele>
        <time>2019-05-17T15:06:53.167Z</time>
      </trkpt>
      <trkpt lat="39.571335" lon="-8.39668333">
        <ele>62.0</ele>
        <time>2019-05-17T15:06:54.174Z</time>
      </trkpt>
      <trkpt lat="39.571335" lon="-8.39668333">
        <ele>62.0</ele>
        <time>2019-05-17T15:06:55.167Z</time>
      </trkpt>
      <trkpt lat="39.571365" lon="-8.39668667">
        <ele>56.0</ele>
        <time>2019-05-17T15:06:56.175Z</time>
      </trkpt>
      <trkpt lat="39.571365" lon="-8.39668667">
        <ele>56.0</ele>
        <time>2019-05-17T15:06:57.167Z</time>
      </trkpt>
      <trkpt lat="39.57138333" lon="-8.39672333">
        <ele>56.0</ele>
        <time>2019-05-17T15:06:58.176Z</time>
      </trkpt>
      <trkpt lat="39.57138333" lon="-8.39672333">
        <ele>56.0</ele>
        <time>2019-05-17T15:06:59.167Z</time>
      </trkpt>
      <trkpt lat="39.57141" lon="-8.39676667">
        <ele>56.0</ele>
        <time>2019-05-17T15:07:00.172Z</time>
      </trkpt>
      <trkpt lat="39.57142333" lon="-8.39679667">
        <ele>56.0</ele>
        <time>2019-05-17T15:07:01.162Z</time>
      </trkpt>
      <trkpt lat="39.57142333" lon="-8.39679667">
        <ele>56.0</ele>
        <time>2019-05-17T15:07:02.187Z</time>
      </trkpt>
      <trkpt lat="39.57145" lon="-8.39686333">
        <ele>55.0</ele>
        <time>2019-05-17T15:07:03.188Z</time>
      </trkpt>
      <trkpt lat="39.57145" lon="-8.39686333">
        <ele>55.0</ele>
        <time>2019-05-17T15:07:04.181Z</time>
      </trkpt>
      <trkpt lat="39.57147333" lon="-8.39693167">
        <ele>55.0</ele>
        <time>2019-05-17T15:07:05.183Z</time>
      </trkpt>
      <trkpt lat="39.57147333" lon="-8.39693167">
        <ele>55.0</ele>
        <time>2019-05-17T15:07:06.172Z</time>
      </trkpt>
      <trkpt lat="39.57150167" lon="-8.397">
        <ele>55.0</ele>
        <time>2019-05-17T15:07:07.162Z</time>
      </trkpt>
      <trkpt lat="39.57151667" lon="-8.39703">
        <ele>55.0</ele>
        <time>2019-05-17T15:07:08.172Z</time>
      </trkpt>
      <trkpt lat="39.57151667" lon="-8.39703">
        <ele>55.0</ele>
        <time>2019-05-17T15:07:09.162Z</time>
      </trkpt>
      <trkpt lat="39.57155" lon="-8.39709167">
        <ele>55.0</ele>
        <time>2019-05-17T15:07:10.151Z</time>
      </trkpt>
      <trkpt lat="39.57155" lon="-8.39709167">
        <ele>55.0</ele>
        <time>2019-05-17T15:07:11.158Z</time>
      </trkpt>
      <trkpt lat="39.57158833" lon="-8.39715167">
        <ele>55.0</ele>
        <time>2019-05-17T15:07:12.153Z</time>
      </trkpt>
      <trkpt lat="39.57158833" lon="-8.39715167">
        <ele>55.0</ele>
        <time>2019-05-17T15:07:13.169Z</time>
      </trkpt>
      <trkpt lat="39.57162667" lon="-8.39721">
        <ele>55.0</ele>
        <time>2019-05-17T15:07:14.152Z</time>
      </trkpt>
      <trkpt lat="39.57162667" lon="-8.39721">
        <ele>55.0</ele>
        <time>2019-05-17T15:07:15.179Z</time>
      </trkpt>
      <trkpt lat="39.57166333" lon="-8.397265">
        <ele>55.0</ele>
        <time>2019-05-17T15:07:16.168Z</time>
      </trkpt>
      <trkpt lat="39.57166333" lon="-8.397265">
        <ele>55.0</ele>
        <time>2019-05-17T15:07:17.175Z</time>
      </trkpt>
      <trkpt lat="39.57169833" lon="-8.39731333">
        <ele>55.0</ele>
        <time>2019-05-17T15:07:18.174Z</time>
      </trkpt>
      <trkpt lat="39.57171833" lon="-8.39733333">
        <ele>55.0</ele>
        <time>2019-05-17T15:07:19.190Z</time>
      </trkpt>
      <trkpt lat="39.57173667" lon="-8.39735167">
        <ele>55.0</ele>
        <time>2019-05-17T15:07:20.179Z</time>
      </trkpt>
      <trkpt lat="39.57173667" lon="-8.39735167">
        <ele>55.0</ele>
        <time>2019-05-17T15:07:21.184Z</time>
      </trkpt>
      <trkpt lat="39.57176833" lon="-8.39738833">
        <ele>55.0</ele>
        <time>2019-05-17T15:07:22.175Z</time>
      </trkpt>
      <trkpt lat="39.57176833" lon="-8.39738833">
        <ele>55.0</ele>
        <time>2019-05-17T15:07:23.166Z</time>
      </trkpt>
      <trkpt lat="39.571805" lon="-8.397425">
        <ele>55.0</ele>
        <time>2019-05-17T15:07:24.153Z</time>
      </trkpt>
      <trkpt lat="39.571805" lon="-8.397425">
        <ele>55.0</ele>
        <time>2019-05-17T15:07:25.186Z</time>
      </trkpt>
      <trkpt lat="39.57184833" lon="-8.39746167">
        <ele>55.0</ele>
        <time>2019-05-17T15:07:26.172Z</time>
      </trkpt>
      <trkpt lat="39.57184833" lon="-8.39746167">
        <ele>55.0</ele>
        <time>2019-05-17T15:07:27.162Z</time>
      </trkpt>
      <trkpt lat="39.57189167" lon="-8.39750167">
        <ele>55.0</ele>
        <time>2019-05-17T15:07:28.150Z</time>
      </trkpt>
      <trkpt lat="39.57189167" lon="-8.39750167">
        <ele>55.0</ele>
        <time>2019-05-17T15:07:29.171Z</time>
      </trkpt>
      <trkpt lat="39.57192667" lon="-8.39753667">
        <ele>55.0</ele>
        <time>2019-05-17T15:07:30.165Z</time>
      </trkpt>
      <trkpt lat="39.57192667" lon="-8.39753667">
        <ele>55.0</ele>
        <time>2019-05-17T15:07:31.169Z</time>
      </trkpt>
      <trkpt lat="39.57197" lon="-8.397575">
        <ele>54.0</ele>
        <time>2019-05-17T15:07:32.178Z</time>
      </trkpt>
      <trkpt lat="39.57197" lon="-8.397575">
        <ele>54.0</ele>
        <time>2019-05-17T15:07:33.189Z</time>
      </trkpt>
      <trkpt lat="39.57201333" lon="-8.39761833">
        <ele>54.0</ele>
        <time>2019-05-17T15:07:34.181Z</time>
      </trkpt>
      <trkpt lat="39.57201333" lon="-8.39761833">
        <ele>54.0</ele>
        <time>2019-05-17T15:07:35.173Z</time>
      </trkpt>
      <trkpt lat="39.57206333" lon="-8.39766167">
        <ele>54.0</ele>
        <time>2019-05-17T15:07:36.167Z</time>
      </trkpt>
      <trkpt lat="39.57206333" lon="-8.39766167">
        <ele>54.0</ele>
        <time>2019-05-17T15:07:37.160Z</time>
      </trkpt>
      <trkpt lat="39.572115" lon="-8.39770667">
        <ele>54.0</ele>
        <time>2019-05-17T15:07:38.158Z</time>
      </trkpt>
      <trkpt lat="39.572115" lon="-8.39770667">
        <ele>54.0</ele>
        <time>2019-05-17T15:07:39.178Z</time>
      </trkpt>
      <trkpt lat="39.572165" lon="-8.39773833">
        <ele>54.0</ele>
        <time>2019-05-17T15:07:40.161Z</time>
      </trkpt>
      <trkpt lat="39.572165" lon="-8.39773833">
        <ele>54.0</ele>
        <time>2019-05-17T15:07:41.177Z</time>
      </trkpt>
      <trkpt lat="39.57221" lon="-8.397775">
        <ele>55.0</ele>
        <time>2019-05-17T15:07:42.187Z</time>
      </trkpt>
      <trkpt lat="39.57221" lon="-8.397775">
        <ele>55.0</ele>
        <time>2019-05-17T15:07:43.183Z</time>
      </trkpt>
      <trkpt lat="39.572255" lon="-8.39781167">
        <ele>55.0</ele>
        <time>2019-05-17T15:07:44.185Z</time>
      </trkpt>
      <trkpt lat="39.572255" lon="-8.39781167">
        <ele>55.0</ele>
        <time>2019-05-17T15:07:45.152Z</time>
      </trkpt>
      <trkpt lat="39.572305" lon="-8.39784333">
        <ele>55.0</ele>
        <time>2019-05-17T15:07:46.175Z</time>
      </trkpt>
      <trkpt lat="39.572305" lon="-8.39784333">
        <ele>55.0</ele>
        <time>2019-05-17T15:07:47.186Z</time>
      </trkpt>
      <trkpt lat="39.572355" lon="-8.39788">
        <ele>56.0</ele>
        <time>2019-05-17T15:07:48.185Z</time>
      </trkpt>
      <trkpt lat="39.572355" lon="-8.39788">
        <ele>56.0</ele>
        <time>2019-05-17T15:07:49.180Z</time>
      </trkpt>
      <trkpt lat="39.57240167" lon="-8.39793333">
        <ele>56.0</ele>
        <time>2019-05-17T15:07:50.182Z</time>
      </trkpt>
      <trkpt lat="39.57240167" lon="-8.39793333">
        <ele>56.0</ele>
        <time>2019-05-17T15:07:51.156Z</time>
      </trkpt>
      <trkpt lat="39.57245" lon="-8.39799167">
        <ele>56.0</ele>
        <time>2019-05-17T15:07:52.153Z</time>
      </trkpt>
      <trkpt lat="39.57245" lon="-8.39799167">
        <ele>56.0</ele>
        <time>2019-05-17T15:07:53.188Z</time>
      </trkpt>
      <trkpt lat="39.57249833" lon="-8.39805333">
        <ele>57.0</ele>
        <time>2019-05-17T15:07:54.182Z</time>
      </trkpt>
      <trkpt lat="39.57249833" lon="-8.39805333">
        <ele>57.0</ele>
        <time>2019-05-17T15:07:55.189Z</time>
      </trkpt>
      <trkpt lat="39.57254833" lon="-8.39811167">
        <ele>57.0</ele>
        <time>2019-05-17T15:07:56.175Z</time>
      </trkpt>
      <trkpt lat="39.57254833" lon="-8.39811167">
        <ele>57.0</ele>
        <time>2019-05-17T15:07:57.151Z</time>
      </trkpt>
      <trkpt lat="39.57259667" lon="-8.39816833">
        <ele>58.0</ele>
        <time>2019-05-17T15:07:58.164Z</time>
      </trkpt>
      <trkpt lat="39.57259667" lon="-8.39816833">
        <ele>58.0</ele>
        <time>2019-05-17T15:07:59.183Z</time>
      </trkpt>
      <trkpt lat="39.57264167" lon="-8.39822">
        <ele>58.0</ele>
        <time>2019-05-17T15:08:00.166Z</time>
      </trkpt>
      <trkpt lat="39.57264167" lon="-8.39822">
        <ele>58.0</ele>
        <time>2019-05-17T15:08:01.181Z</time>
      </trkpt>
      <trkpt lat="39.57269167" lon="-8.39827167">
        <ele>59.0</ele>
        <time>2019-05-17T15:08:02.172Z</time>
      </trkpt>
      <trkpt lat="39.57269167" lon="-8.39827167">
        <ele>59.0</ele>
        <time>2019-05-17T15:08:03.179Z</time>
      </trkpt>
      <trkpt lat="39.572735" lon="-8.39832167">
        <ele>60.0</ele>
        <time>2019-05-17T15:08:04.176Z</time>
      </trkpt>
      <trkpt lat="39.572735" lon="-8.39832167">
        <ele>60.0</ele>
        <time>2019-05-17T15:08:05.153Z</time>
      </trkpt>
      <trkpt lat="39.57277" lon="-8.398365">
        <ele>61.0</ele>
        <time>2019-05-17T15:08:06.189Z</time>
      </trkpt>
      <trkpt lat="39.57277" lon="-8.398365">
        <ele>61.0</ele>
        <time>2019-05-17T15:08:07.160Z</time>
      </trkpt>
      <trkpt lat="39.57281" lon="-8.398395">
        <ele>61.0</ele>
        <time>2019-05-17T15:08:08.164Z</time>
      </trkpt>
      <trkpt lat="39.57281" lon="-8.398395">
        <ele>61.0</ele>
        <time>2019-05-17T15:08:09.172Z</time>
      </trkpt>
      <trkpt lat="39.57286833" lon="-8.39841833">
        <ele>62.0</ele>
        <time>2019-05-17T15:08:10.186Z</time>
      </trkpt>
      <trkpt lat="39.572895" lon="-8.39842333">
        <ele>62.0</ele>
        <time>2019-05-17T15:08:11.179Z</time>
      </trkpt>
      <trkpt lat="39.572895" lon="-8.39842333">
        <ele>62.0</ele>
        <time>2019-05-17T15:08:12.171Z</time>
      </trkpt>
      <trkpt lat="39.57295833" lon="-8.398425">
        <ele>63.0</ele>
        <time>2019-05-17T15:08:13.165Z</time>
      </trkpt>
      <trkpt lat="39.57298667" lon="-8.39842333">
        <ele>64.0</ele>
        <time>2019-05-17T15:08:14.185Z</time>
      </trkpt>
      <trkpt lat="39.57298667" lon="-8.39842333">
        <ele>64.0</ele>
        <time>2019-05-17T15:08:15.151Z</time>
      </trkpt>
      <trkpt lat="39.57303667" lon="-8.39843833">
        <ele>65.0</ele>
        <time>2019-05-17T15:08:16.153Z</time>
      </trkpt>
      <trkpt lat="39.57303667" lon="-8.39843833">
        <ele>65.0</ele>
        <time>2019-05-17T15:08:17.177Z</time>
      </trkpt>
      <trkpt lat="39.57307167" lon="-8.39846667">
        <ele>65.0</ele>
        <time>2019-05-17T15:08:18.161Z</time>
      </trkpt>
      <trkpt lat="39.57307167" lon="-8.39846667">
        <ele>65.0</ele>
        <time>2019-05-17T15:08:19.150Z</time>
      </trkpt>
      <trkpt lat="39.57310333" lon="-8.39849167">
        <ele>66.0</ele>
        <time>2019-05-17T15:08:20.154Z</time>
      </trkpt>
      <trkpt lat="39.57310333" lon="-8.39849167">
        <ele>66.0</ele>
        <time>2019-05-17T15:08:21.178Z</time>
      </trkpt>
      <trkpt lat="39.57314" lon="-8.39850833">
        <ele>66.0</ele>
        <time>2019-05-17T15:08:22.165Z</time>
      </trkpt>
      <trkpt lat="39.57314" lon="-8.39850833">
        <ele>66.0</ele>
        <time>2019-05-17T15:08:23.189Z</time>
      </trkpt>
      <trkpt lat="39.57317333" lon="-8.39852167">
        <ele>67.0</ele>
        <time>2019-05-17T15:08:24.188Z</time>
      </trkpt>
      <trkpt lat="39.57317333" lon="-8.39852167">
        <ele>67.0</ele>
        <time>2019-05-17T15:08:25.173Z</time>
      </trkpt>
      <trkpt lat="39.57320167" lon="-8.398545">
        <ele>67.0</ele>
        <time>2019-05-17T15:08:26.165Z</time>
      </trkpt>
      <trkpt lat="39.57320167" lon="-8.398545">
        <ele>67.0</ele>
        <time>2019-05-17T15:08:27.162Z</time>
      </trkpt>
      <trkpt lat="39.57322833" lon="-8.39857167">
        <ele>66.0</ele>
        <time>2019-05-17T15:08:28.157Z</time>
      </trkpt>
      <trkpt lat="39.57322833" lon="-8.39857167">
        <ele>66.0</ele>
        <time>2019-05-17T15:08:29.170Z</time>
      </trkpt>
      <trkpt lat="39.57326833" lon="-8.39859833">
        <ele>66.0</ele>
        <time>2019-05-17T15:08:30.157Z</time>
      </trkpt>
      <trkpt lat="39.57326833" lon="-8.39859833">
        <ele>66.0</ele>
        <time>2019-05-17T15:08:31.167Z</time>
      </trkpt>
      <trkpt lat="39.57331167" lon="-8.39862833">
        <ele>65.0</ele>
        <time>2019-05-17T15:08:32.174Z</time>
      </trkpt>
      <trkpt lat="39.57331167" lon="-8.39862833">
        <ele>65.0</ele>
        <time>2019-05-17T15:08:33.179Z</time>
      </trkpt>
      <trkpt lat="39.57335833" lon="-8.398665">
        <ele>64.0</ele>
        <time>2019-05-17T15:08:34.177Z</time>
      </trkpt>
      <trkpt lat="39.57335833" lon="-8.398665">
        <ele>64.0</ele>
        <time>2019-05-17T15:08:35.160Z</time>
      </trkpt>
      <trkpt lat="39.57340167" lon="-8.3987">
        <ele>63.0</ele>
        <time>2019-05-17T15:08:36.154Z</time>
      </trkpt>
      <trkpt lat="39.57340167" lon="-8.3987">
        <ele>63.0</ele>
        <time>2019-05-17T15:08:37.176Z</time>
      </trkpt>
      <trkpt lat="39.57344333" lon="-8.39874167">
        <ele>62.0</ele>
        <time>2019-05-17T15:08:38.165Z</time>
      </trkpt>
      <trkpt lat="39.57344333" lon="-8.39874167">
        <ele>62.0</ele>
        <time>2019-05-17T15:08:39.156Z</time>
      </trkpt>
      <trkpt lat="39.57349667" lon="-8.39878167">
        <ele>62.0</ele>
        <time>2019-05-17T15:08:40.152Z</time>
      </trkpt>
      <trkpt lat="39.57349667" lon="-8.39878167">
        <ele>62.0</ele>
        <time>2019-05-17T15:08:41.170Z</time>
      </trkpt>
      <trkpt lat="39.573555" lon="-8.39880167">
        <ele>61.0</ele>
        <time>2019-05-17T15:08:42.175Z</time>
      </trkpt>
      <trkpt lat="39.573555" lon="-8.39880167">
        <ele>61.0</ele>
        <time>2019-05-17T15:08:43.167Z</time>
      </trkpt>
      <trkpt lat="39.573615" lon="-8.39881833">
        <ele>61.0</ele>
        <time>2019-05-17T15:08:44.162Z</time>
      </trkpt>
      <trkpt lat="39.573615" lon="-8.39881833">
        <ele>61.0</ele>
        <time>2019-05-17T15:08:45.176Z</time>
      </trkpt>
      <trkpt lat="39.57370167" lon="-8.39882333">
        <ele>60.0</ele>
        <time>2019-05-17T15:08:46.171Z</time>
      </trkpt>
      <trkpt lat="39.57370167" lon="-8.39882333">
        <ele>60.0</ele>
        <time>2019-05-17T15:08:47.178Z</time>
      </trkpt>
      <trkpt lat="39.57380333" lon="-8.39881833">
        <ele>60.0</ele>
        <time>2019-05-17T15:08:48.175Z</time>
      </trkpt>
      <trkpt lat="39.57380333" lon="-8.39881833">
        <ele>60.0</ele>
        <time>2019-05-17T15:08:49.179Z</time>
      </trkpt>
      <trkpt lat="39.57391833" lon="-8.39881">
        <ele>59.0</ele>
        <time>2019-05-17T15:08:50.190Z</time>
      </trkpt>
      <trkpt lat="39.57391833" lon="-8.39881">
        <ele>59.0</ele>
        <time>2019-05-17T15:08:51.160Z</time>
      </trkpt>
      <trkpt lat="39.57405333" lon="-8.39883">
        <ele>57.0</ele>
        <time>2019-05-17T15:08:52.152Z</time>
      </trkpt>
      <trkpt lat="39.57405333" lon="-8.39883">
        <ele>57.0</ele>
        <time>2019-05-17T15:08:53.184Z</time>
      </trkpt>
      <trkpt lat="39.57419833" lon="-8.398895">
        <ele>56.0</ele>
        <time>2019-05-17T15:08:54.156Z</time>
      </trkpt>
      <trkpt lat="39.57419833" lon="-8.398895">
        <ele>56.0</ele>
        <time>2019-05-17T15:08:55.167Z</time>
      </trkpt>
      <trkpt lat="39.57434167" lon="-8.39897667">
        <ele>54.0</ele>
        <time>2019-05-17T15:08:56.165Z</time>
      </trkpt>
      <trkpt lat="39.57434167" lon="-8.39897667">
        <ele>54.0</ele>
        <time>2019-05-17T15:08:57.162Z</time>
      </trkpt>
      <trkpt lat="39.57447" lon="-8.399065">
        <ele>53.0</ele>
        <time>2019-05-17T15:08:58.191Z</time>
      </trkpt>
      <trkpt lat="39.57447" lon="-8.399065">
        <ele>53.0</ele>
        <time>2019-05-17T15:08:59.157Z</time>
      </trkpt>
      <trkpt lat="39.57459667" lon="-8.39915">
        <ele>51.0</ele>
        <time>2019-05-17T15:09:00.163Z</time>
      </trkpt>
      <trkpt lat="39.57459667" lon="-8.39915">
        <ele>51.0</ele>
        <time>2019-05-17T15:09:01.188Z</time>
      </trkpt>
      <trkpt lat="39.57472333" lon="-8.39921">
        <ele>49.0</ele>
        <time>2019-05-17T15:09:02.156Z</time>
      </trkpt>
      <trkpt lat="39.57472333" lon="-8.39921">
        <ele>49.0</ele>
        <time>2019-05-17T15:09:03.162Z</time>
      </trkpt>
      <trkpt lat="39.57485333" lon="-8.39922333">
        <ele>48.0</ele>
        <time>2019-05-17T15:09:04.150Z</time>
      </trkpt>
      <trkpt lat="39.57485333" lon="-8.39922333">
        <ele>48.0</ele>
        <time>2019-05-17T15:09:05.189Z</time>
      </trkpt>
      <trkpt lat="39.57498333" lon="-8.399205">
        <ele>48.0</ele>
        <time>2019-05-17T15:09:06.153Z</time>
      </trkpt>
      <trkpt lat="39.57498333" lon="-8.399205">
        <ele>48.0</ele>
        <time>2019-05-17T15:09:07.181Z</time>
      </trkpt>
      <trkpt lat="39.57510667" lon="-8.39917667">
        <ele>48.0</ele>
        <time>2019-05-17T15:09:08.182Z</time>
      </trkpt>
      <trkpt lat="39.57510667" lon="-8.39917667">
        <ele>48.0</ele>
        <time>2019-05-17T15:09:09.159Z</time>
      </trkpt>
      <trkpt lat="39.57522167" lon="-8.39913833">
        <ele>48.0</ele>
        <time>2019-05-17T15:09:10.189Z</time>
      </trkpt>
      <trkpt lat="39.57522167" lon="-8.39913833">
        <ele>48.0</ele>
        <time>2019-05-17T15:09:11.179Z</time>
      </trkpt>
      <trkpt lat="39.57533333" lon="-8.399105">
        <ele>49.0</ele>
        <time>2019-05-17T15:09:12.176Z</time>
      </trkpt>
      <trkpt lat="39.57533333" lon="-8.399105">
        <ele>49.0</ele>
        <time>2019-05-17T15:09:13.150Z</time>
      </trkpt>
      <trkpt lat="39.57544167" lon="-8.399085">
        <ele>49.0</ele>
        <time>2019-05-17T15:09:14.188Z</time>
      </trkpt>
      <trkpt lat="39.57544167" lon="-8.399085">
        <ele>49.0</ele>
        <time>2019-05-17T15:09:15.160Z</time>
      </trkpt>
      <trkpt lat="39.57555" lon="-8.39908167">
        <ele>50.0</ele>
        <time>2019-05-17T15:09:16.153Z</time>
      </trkpt>
      <trkpt lat="39.57555" lon="-8.39908167">
        <ele>50.0</ele>
        <time>2019-05-17T15:09:17.189Z</time>
      </trkpt>
      <trkpt lat="39.575655" lon="-8.39910167">
        <ele>50.0</ele>
        <time>2019-05-17T15:09:18.193Z</time>
      </trkpt>
      <trkpt lat="39.575655" lon="-8.39910167">
        <ele>50.0</ele>
        <time>2019-05-17T15:09:19.182Z</time>
      </trkpt>
      <trkpt lat="39.57575667" lon="-8.39912">
        <ele>50.0</ele>
        <time>2019-05-17T15:09:20.165Z</time>
      </trkpt>
      <trkpt lat="39.57575667" lon="-8.39912">
        <ele>50.0</ele>
        <time>2019-05-17T15:09:21.168Z</time>
      </trkpt>
      <trkpt lat="39.57586333" lon="-8.39914167">
        <ele>49.0</ele>
        <time>2019-05-17T15:09:22.156Z</time>
      </trkpt>
      <trkpt lat="39.57586333" lon="-8.39914167">
        <ele>49.0</ele>
        <time>2019-05-17T15:09:23.170Z</time>
      </trkpt>
      <trkpt lat="39.57597167" lon="-8.39916833">
        <ele>48.0</ele>
        <time>2019-05-17T15:09:24.162Z</time>
      </trkpt>
      <trkpt lat="39.576025" lon="-8.39918">
        <ele>48.0</ele>
        <time>2019-05-17T15:09:25.165Z</time>
      </trkpt>
      <trkpt lat="39.57607833" lon="-8.39919">
        <ele>48.0</ele>
        <time>2019-05-17T15:09:26.165Z</time>
      </trkpt>
      <trkpt lat="39.57607833" lon="-8.39919">
        <ele>48.0</ele>
        <time>2019-05-17T15:09:27.171Z</time>
      </trkpt>
      <trkpt lat="39.57618" lon="-8.39921333">
        <ele>48.0</ele>
        <time>2019-05-17T15:09:28.169Z</time>
      </trkpt>
      <trkpt lat="39.57618" lon="-8.39921333">
        <ele>48.0</ele>
        <time>2019-05-17T15:09:29.170Z</time>
      </trkpt>
      <trkpt lat="39.576275" lon="-8.39923167">
        <ele>48.0</ele>
        <time>2019-05-17T15:09:30.169Z</time>
      </trkpt>
      <trkpt lat="39.57632" lon="-8.39924167">
        <ele>49.0</ele>
        <time>2019-05-17T15:09:31.183Z</time>
      </trkpt>
      <trkpt lat="39.57636333" lon="-8.39925167">
        <ele>49.0</ele>
        <time>2019-05-17T15:09:32.180Z</time>
      </trkpt>
      <trkpt lat="39.57636333" lon="-8.39925167">
        <ele>49.0</ele>
        <time>2019-05-17T15:09:33.162Z</time>
      </trkpt>
      <trkpt lat="39.57644833" lon="-8.39927333">
        <ele>49.0</ele>
        <time>2019-05-17T15:09:34.156Z</time>
      </trkpt>
      <trkpt lat="39.57644833" lon="-8.39927333">
        <ele>49.0</ele>
        <time>2019-05-17T15:09:35.176Z</time>
      </trkpt>
      <trkpt lat="39.57653333" lon="-8.39929667">
        <ele>49.0</ele>
        <time>2019-05-17T15:09:36.182Z</time>
      </trkpt>
      <trkpt lat="39.57653333" lon="-8.39929667">
        <ele>49.0</ele>
        <time>2019-05-17T15:09:37.177Z</time>
      </trkpt>
      <trkpt lat="39.57662" lon="-8.39931167">
        <ele>49.0</ele>
        <time>2019-05-17T15:09:38.179Z</time>
      </trkpt>
      <trkpt lat="39.57662" lon="-8.39931167">
        <ele>49.0</ele>
        <time>2019-05-17T15:09:39.184Z</time>
      </trkpt>
      <trkpt lat="39.576705" lon="-8.39933333">
        <ele>49.0</ele>
        <time>2019-05-17T15:09:40.173Z</time>
      </trkpt>
      <trkpt lat="39.576705" lon="-8.39933333">
        <ele>49.0</ele>
        <time>2019-05-17T15:09:41.189Z</time>
      </trkpt>
      <trkpt lat="39.57679" lon="-8.39934833">
        <ele>48.0</ele>
        <time>2019-05-17T15:09:42.193Z</time>
      </trkpt>
      <trkpt lat="39.57679" lon="-8.39934833">
        <ele>48.0</ele>
        <time>2019-05-17T15:09:43.172Z</time>
      </trkpt>
      <trkpt lat="39.57687333" lon="-8.39937">
        <ele>49.0</ele>
        <time>2019-05-17T15:09:44.170Z</time>
      </trkpt>
      <trkpt lat="39.57687333" lon="-8.39937">
        <ele>49.0</ele>
        <time>2019-05-17T15:09:45.179Z</time>
      </trkpt>
      <trkpt lat="39.57694833" lon="-8.39940333">
        <ele>49.0</ele>
        <time>2019-05-17T15:09:46.167Z</time>
      </trkpt>
      <trkpt lat="39.57694833" lon="-8.39940333">
        <ele>49.0</ele>
        <time>2019-05-17T15:09:47.175Z</time>
      </trkpt>
      <trkpt lat="39.57701333" lon="-8.39943333">
        <ele>49.0</ele>
        <time>2019-05-17T15:09:48.183Z</time>
      </trkpt>
      <trkpt lat="39.57701333" lon="-8.39943333">
        <ele>49.0</ele>
        <time>2019-05-17T15:09:49.153Z</time>
      </trkpt>
      <trkpt lat="39.577075" lon="-8.39945333">
        <ele>48.0</ele>
        <time>2019-05-17T15:09:50.191Z</time>
      </trkpt>
      <trkpt lat="39.577075" lon="-8.39945333">
        <ele>48.0</ele>
        <time>2019-05-17T15:09:51.156Z</time>
      </trkpt>
      <trkpt lat="39.57714667" lon="-8.39948333">
        <ele>48.0</ele>
        <time>2019-05-17T15:09:52.152Z</time>
      </trkpt>
      <trkpt lat="39.57714667" lon="-8.39948333">
        <ele>48.0</ele>
        <time>2019-05-17T15:09:53.160Z</time>
      </trkpt>
      <trkpt lat="39.57722833" lon="-8.39952167">
        <ele>48.0</ele>
        <time>2019-05-17T15:09:54.155Z</time>
      </trkpt>
      <trkpt lat="39.57722833" lon="-8.39952167">
        <ele>48.0</ele>
        <time>2019-05-17T15:09:55.164Z</time>
      </trkpt>
      <trkpt lat="39.57731167" lon="-8.399555">
        <ele>49.0</ele>
        <time>2019-05-17T15:09:56.181Z</time>
      </trkpt>
      <trkpt lat="39.57731167" lon="-8.399555">
        <ele>49.0</ele>
        <time>2019-05-17T15:09:57.185Z</time>
      </trkpt>
      <trkpt lat="39.57738667" lon="-8.39958667">
        <ele>49.0</ele>
        <time>2019-05-17T15:09:58.186Z</time>
      </trkpt>
      <trkpt lat="39.57738667" lon="-8.39958667">
        <ele>49.0</ele>
        <time>2019-05-17T15:09:59.169Z</time>
      </trkpt>
      <trkpt lat="39.57745" lon="-8.39962333">
        <ele>49.0</ele>
        <time>2019-05-17T15:10:00.172Z</time>
      </trkpt>
      <trkpt lat="39.57748167" lon="-8.39963667">
        <ele>48.0</ele>
        <time>2019-05-17T15:10:01.164Z</time>
      </trkpt>
      <trkpt lat="39.577515" lon="-8.39964833">
        <ele>48.0</ele>
        <time>2019-05-17T15:10:02.181Z</time>
      </trkpt>
      <trkpt lat="39.577515" lon="-8.39964833">
        <ele>48.0</ele>
        <time>2019-05-17T15:10:03.160Z</time>
      </trkpt>
      <trkpt lat="39.57758" lon="-8.39967833">
        <ele>48.0</ele>
        <time>2019-05-17T15:10:04.160Z</time>
      </trkpt>
      <trkpt lat="39.57758" lon="-8.39967833">
        <ele>48.0</ele>
        <time>2019-05-17T15:10:05.180Z</time>
      </trkpt>
      <trkpt lat="39.57764333" lon="-8.39970833">
        <ele>48.0</ele>
        <time>2019-05-17T15:10:06.155Z</time>
      </trkpt>
      <trkpt lat="39.577675" lon="-8.39972167">
        <ele>48.0</ele>
        <time>2019-05-17T15:10:07.161Z</time>
      </trkpt>
      <trkpt lat="39.57770667" lon="-8.39973333">
        <ele>48.0</ele>
        <time>2019-05-17T15:10:08.165Z</time>
      </trkpt>
      <trkpt lat="39.57770667" lon="-8.39973333">
        <ele>48.0</ele>
        <time>2019-05-17T15:10:09.184Z</time>
      </trkpt>
      <trkpt lat="39.577775" lon="-8.39975833">
        <ele>48.0</ele>
        <time>2019-05-17T15:10:10.161Z</time>
      </trkpt>
      <trkpt lat="39.577775" lon="-8.39975833">
        <ele>48.0</ele>
        <time>2019-05-17T15:10:11.174Z</time>
      </trkpt>
      <trkpt lat="39.57784333" lon="-8.39978167">
        <ele>48.0</ele>
        <time>2019-05-17T15:10:12.163Z</time>
      </trkpt>
      <trkpt lat="39.57784333" lon="-8.39978167">
        <ele>48.0</ele>
        <time>2019-05-17T15:10:13.154Z</time>
      </trkpt>
      <trkpt lat="39.57790833" lon="-8.39980333">
        <ele>48.0</ele>
        <time>2019-05-17T15:10:14.161Z</time>
      </trkpt>
      <trkpt lat="39.57790833" lon="-8.39980333">
        <ele>48.0</ele>
        <time>2019-05-17T15:10:15.189Z</time>
      </trkpt>
      <trkpt lat="39.57797167" lon="-8.39982">
        <ele>48.0</ele>
        <time>2019-05-17T15:10:16.187Z</time>
      </trkpt>
      <trkpt lat="39.57797167" lon="-8.39982">
        <ele>48.0</ele>
        <time>2019-05-17T15:10:17.152Z</time>
      </trkpt>
      <trkpt lat="39.57803167" lon="-8.39983667">
        <ele>47.0</ele>
        <time>2019-05-17T15:10:18.155Z</time>
      </trkpt>
      <trkpt lat="39.57803167" lon="-8.39983667">
        <ele>47.0</ele>
        <time>2019-05-17T15:10:19.179Z</time>
      </trkpt>
      <trkpt lat="39.57810167" lon="-8.399855">
        <ele>47.0</ele>
        <time>2019-05-17T15:10:20.165Z</time>
      </trkpt>
      <trkpt lat="39.57810167" lon="-8.399855">
        <ele>47.0</ele>
        <time>2019-05-17T15:10:21.168Z</time>
      </trkpt>
      <trkpt lat="39.57816667" lon="-8.39988333">
        <ele>47.0</ele>
        <time>2019-05-17T15:10:22.177Z</time>
      </trkpt>
      <trkpt lat="39.5782" lon="-8.39988833">
        <ele>47.0</ele>
        <time>2019-05-17T15:10:23.189Z</time>
      </trkpt>
      <trkpt lat="39.5782" lon="-8.39988833">
        <ele>47.0</ele>
        <time>2019-05-17T15:10:24.160Z</time>
      </trkpt>
      <trkpt lat="39.57826333" lon="-8.39990167">
        <ele>47.0</ele>
        <time>2019-05-17T15:10:25.155Z</time>
      </trkpt>
      <trkpt lat="39.57829667" lon="-8.39990667">
        <ele>47.0</ele>
        <time>2019-05-17T15:10:26.153Z</time>
      </trkpt>
      <trkpt lat="39.57829667" lon="-8.39990667">
        <ele>47.0</ele>
        <time>2019-05-17T15:10:27.157Z</time>
      </trkpt>
      <trkpt lat="39.57836167" lon="-8.39992833">
        <ele>47.0</ele>
        <time>2019-05-17T15:10:28.180Z</time>
      </trkpt>
      <trkpt lat="39.578395" lon="-8.39993667">
        <ele>47.0</ele>
        <time>2019-05-17T15:10:29.175Z</time>
      </trkpt>
      <trkpt lat="39.578395" lon="-8.39993667">
        <ele>47.0</ele>
        <time>2019-05-17T15:10:30.183Z</time>
      </trkpt>
      <trkpt lat="39.57846" lon="-8.39995667">
        <ele>47.0</ele>
        <time>2019-05-17T15:10:31.188Z</time>
      </trkpt>
      <trkpt lat="39.57849333" lon="-8.39996667">
        <ele>47.0</ele>
        <time>2019-05-17T15:10:32.185Z</time>
      </trkpt>
      <trkpt lat="39.57849333" lon="-8.39996667">
        <ele>47.0</ele>
        <time>2019-05-17T15:10:33.165Z</time>
      </trkpt>
      <trkpt lat="39.57856" lon="-8.39998333">
        <ele>47.0</ele>
        <time>2019-05-17T15:10:34.155Z</time>
      </trkpt>
      <trkpt lat="39.57856" lon="-8.39998333">
        <ele>47.0</ele>
        <time>2019-05-17T15:10:35.160Z</time>
      </trkpt>
      <trkpt lat="39.578625" lon="-8.40000667">
        <ele>47.0</ele>
        <time>2019-05-17T15:10:36.153Z</time>
      </trkpt>
      <trkpt lat="39.578625" lon="-8.40000667">
        <ele>47.0</ele>
        <time>2019-05-17T15:10:37.158Z</time>
      </trkpt>
      <trkpt lat="39.57869167" lon="-8.40002667">
        <ele>47.0</ele>
        <time>2019-05-17T15:10:38.190Z</time>
      </trkpt>
      <trkpt lat="39.57869167" lon="-8.40002667">
        <ele>47.0</ele>
        <time>2019-05-17T15:10:39.163Z</time>
      </trkpt>
      <trkpt lat="39.57875833" lon="-8.40005167">
        <ele>47.0</ele>
        <time>2019-05-17T15:10:40.153Z</time>
      </trkpt>
      <trkpt lat="39.57875833" lon="-8.40005167">
        <ele>47.0</ele>
        <time>2019-05-17T15:10:41.158Z</time>
      </trkpt>
      <trkpt lat="39.578825" lon="-8.40007167">
        <ele>47.0</ele>
        <time>2019-05-17T15:10:42.152Z</time>
      </trkpt>
      <trkpt lat="39.578825" lon="-8.40007167">
        <ele>47.0</ele>
        <time>2019-05-17T15:10:43.158Z</time>
      </trkpt>
      <trkpt lat="39.57889" lon="-8.40009333">
        <ele>47.0</ele>
        <time>2019-05-17T15:10:44.161Z</time>
      </trkpt>
      <trkpt lat="39.57889" lon="-8.40009333">
        <ele>47.0</ele>
        <time>2019-05-17T15:10:45.179Z</time>
      </trkpt>
      <trkpt lat="39.578955" lon="-8.40011833">
        <ele>47.0</ele>
        <time>2019-05-17T15:10:46.161Z</time>
      </trkpt>
      <trkpt lat="39.578955" lon="-8.40011833">
        <ele>47.0</ele>
        <time>2019-05-17T15:10:47.171Z</time>
      </trkpt>
      <trkpt lat="39.57901833" lon="-8.40014333">
        <ele>47.0</ele>
        <time>2019-05-17T15:10:48.182Z</time>
      </trkpt>
      <trkpt lat="39.57905" lon="-8.40015667">
        <ele>49.0</ele>
        <time>2019-05-17T15:10:49.190Z</time>
      </trkpt>
      <trkpt lat="39.57908167" lon="-8.40016833">
        <ele>49.0</ele>
        <time>2019-05-17T15:10:50.185Z</time>
      </trkpt>
      <trkpt lat="39.57908167" lon="-8.40016833">
        <ele>49.0</ele>
        <time>2019-05-17T15:10:51.156Z</time>
      </trkpt>
      <trkpt lat="39.57914" lon="-8.40019667">
        <ele>49.0</ele>
        <time>2019-05-17T15:10:52.160Z</time>
      </trkpt>
      <trkpt lat="39.57914" lon="-8.40019667">
        <ele>49.0</ele>
        <time>2019-05-17T15:10:53.188Z</time>
      </trkpt>
      <trkpt lat="39.57919833" lon="-8.40022333">
        <ele>49.0</ele>
        <time>2019-05-17T15:10:54.155Z</time>
      </trkpt>
      <trkpt lat="39.57919833" lon="-8.40022333">
        <ele>49.0</ele>
        <time>2019-05-17T15:10:55.171Z</time>
      </trkpt>
      <trkpt lat="39.579255" lon="-8.40024333">
        <ele>50.0</ele>
        <time>2019-05-17T15:10:56.171Z</time>
      </trkpt>
      <trkpt lat="39.579255" lon="-8.40024333">
        <ele>50.0</ele>
        <time>2019-05-17T15:10:57.153Z</time>
      </trkpt>
      <trkpt lat="39.57930667" lon="-8.40026167">
        <ele>50.0</ele>
        <time>2019-05-17T15:10:58.191Z</time>
      </trkpt>
      <trkpt lat="39.57930667" lon="-8.40026167">
        <ele>50.0</ele>
        <time>2019-05-17T15:10:59.161Z</time>
      </trkpt>
      <trkpt lat="39.57936333" lon="-8.40028167">
        <ele>49.0</ele>
        <time>2019-05-17T15:11:00.166Z</time>
      </trkpt>
      <trkpt lat="39.579395" lon="-8.40029333">
        <ele>49.0</ele>
        <time>2019-05-17T15:11:01.157Z</time>
      </trkpt>
      <trkpt lat="39.57942833" lon="-8.400305">
        <ele>49.0</ele>
        <time>2019-05-17T15:11:02.169Z</time>
      </trkpt>
      <trkpt lat="39.57942833" lon="-8.400305">
        <ele>49.0</ele>
        <time>2019-05-17T15:11:03.170Z</time>
      </trkpt>
      <trkpt lat="39.57948833" lon="-8.40033">
        <ele>48.0</ele>
        <time>2019-05-17T15:11:04.177Z</time>
      </trkpt>
      <trkpt lat="39.57948833" lon="-8.40033">
        <ele>48.0</ele>
        <time>2019-05-17T15:11:05.182Z</time>
      </trkpt>
      <trkpt lat="39.57955333" lon="-8.40035333">
        <ele>49.0</ele>
        <time>2019-05-17T15:11:06.172Z</time>
      </trkpt>
      <trkpt lat="39.57955333" lon="-8.40035333">
        <ele>49.0</ele>
        <time>2019-05-17T15:11:07.162Z</time>
      </trkpt>
      <trkpt lat="39.579615" lon="-8.40037833">
        <ele>49.0</ele>
        <time>2019-05-17T15:11:08.155Z</time>
      </trkpt>
      <trkpt lat="39.579615" lon="-8.40037833">
        <ele>49.0</ele>
        <time>2019-05-17T15:11:09.165Z</time>
      </trkpt>
      <trkpt lat="39.57967167" lon="-8.40040167">
        <ele>49.0</ele>
        <time>2019-05-17T15:11:10.175Z</time>
      </trkpt>
      <trkpt lat="39.57969667" lon="-8.40041167">
        <ele>49.0</ele>
        <time>2019-05-17T15:11:11.168Z</time>
      </trkpt>
      <trkpt lat="39.57969667" lon="-8.40041167">
        <ele>49.0</ele>
        <time>2019-05-17T15:11:12.160Z</time>
      </trkpt>
      <trkpt lat="39.57974667" lon="-8.40043333">
        <ele>49.0</ele>
        <time>2019-05-17T15:11:13.157Z</time>
      </trkpt>
      <trkpt lat="39.57977167" lon="-8.40044333">
        <ele>49.0</ele>
        <time>2019-05-17T15:11:14.175Z</time>
      </trkpt>
      <trkpt lat="39.57977167" lon="-8.40044333">
        <ele>49.0</ele>
        <time>2019-05-17T15:11:15.158Z</time>
      </trkpt>
      <trkpt lat="39.579825" lon="-8.40046">
        <ele>48.0</ele>
        <time>2019-05-17T15:11:16.151Z</time>
      </trkpt>
      <trkpt lat="39.579825" lon="-8.40046">
        <ele>48.0</ele>
        <time>2019-05-17T15:11:17.156Z</time>
      </trkpt>
      <trkpt lat="39.57987833" lon="-8.40048333">
        <ele>48.0</ele>
        <time>2019-05-17T15:11:18.215Z</time>
      </trkpt>
      <trkpt lat="39.57987833" lon="-8.40048333">
        <ele>48.0</ele>
        <time>2019-05-17T15:11:19.169Z</time>
      </trkpt>
      <trkpt lat="39.57993167" lon="-8.40050667">
        <ele>48.0</ele>
        <time>2019-05-17T15:11:20.187Z</time>
      </trkpt>
      <trkpt lat="39.57993167" lon="-8.40050667">
        <ele>48.0</ele>
        <time>2019-05-17T15:11:21.153Z</time>
      </trkpt>
      <trkpt lat="39.579985" lon="-8.40052667">
        <ele>48.0</ele>
        <time>2019-05-17T15:11:22.186Z</time>
      </trkpt>
      <trkpt lat="39.58000833" lon="-8.40053667">
        <ele>48.0</ele>
        <time>2019-05-17T15:11:23.150Z</time>
      </trkpt>
      <trkpt lat="39.58000833" lon="-8.40053667">
        <ele>48.0</ele>
        <time>2019-05-17T15:11:24.159Z</time>
      </trkpt>
      <trkpt lat="39.58005333" lon="-8.40055167">
        <ele>47.0</ele>
        <time>2019-05-17T15:11:25.160Z</time>
      </trkpt>
      <trkpt lat="39.58007833" lon="-8.40056">
        <ele>47.0</ele>
        <time>2019-05-17T15:11:26.175Z</time>
      </trkpt>
      <trkpt lat="39.58007833" lon="-8.40056">
        <ele>47.0</ele>
        <time>2019-05-17T15:11:27.150Z</time>
      </trkpt>
      <trkpt lat="39.58012667" lon="-8.40057667">
        <ele>47.0</ele>
        <time>2019-05-17T15:11:28.167Z</time>
      </trkpt>
      <trkpt lat="39.58012667" lon="-8.40057667">
        <ele>47.0</ele>
        <time>2019-05-17T15:11:29.172Z</time>
      </trkpt>
      <trkpt lat="39.58017667" lon="-8.40059">
        <ele>48.0</ele>
        <time>2019-05-17T15:11:30.170Z</time>
      </trkpt>
      <trkpt lat="39.58017667" lon="-8.40059">
        <ele>48.0</ele>
        <time>2019-05-17T15:11:31.152Z</time>
      </trkpt>
      <trkpt lat="39.580225" lon="-8.400615">
        <ele>48.0</ele>
        <time>2019-05-17T15:11:32.153Z</time>
      </trkpt>
      <trkpt lat="39.580225" lon="-8.400615">
        <ele>48.0</ele>
        <time>2019-05-17T15:11:33.158Z</time>
      </trkpt>
      <trkpt lat="39.58026833" lon="-8.40063667">
        <ele>48.0</ele>
        <time>2019-05-17T15:11:34.189Z</time>
      </trkpt>
      <trkpt lat="39.58026833" lon="-8.40063667">
        <ele>48.0</ele>
        <time>2019-05-17T15:11:35.166Z</time>
      </trkpt>
      <trkpt lat="39.58032" lon="-8.40065833">
        <ele>49.0</ele>
        <time>2019-05-17T15:11:36.162Z</time>
      </trkpt>
      <trkpt lat="39.58034333" lon="-8.40066833">
        <ele>50.0</ele>
        <time>2019-05-17T15:11:37.165Z</time>
      </trkpt>
      <trkpt lat="39.580365" lon="-8.40068">
        <ele>50.0</ele>
        <time>2019-05-17T15:11:38.163Z</time>
      </trkpt>
      <trkpt lat="39.580365" lon="-8.40068">
        <ele>50.0</ele>
        <time>2019-05-17T15:11:39.166Z</time>
      </trkpt>
      <trkpt lat="39.580405" lon="-8.40069833">
        <ele>51.0</ele>
        <time>2019-05-17T15:11:40.157Z</time>
      </trkpt>
      <trkpt lat="39.580405" lon="-8.40069833">
        <ele>51.0</ele>
        <time>2019-05-17T15:11:41.157Z</time>
      </trkpt>
      <trkpt lat="39.58044333" lon="-8.40071">
        <ele>50.0</ele>
        <time>2019-05-17T15:11:42.164Z</time>
      </trkpt>
      <trkpt lat="39.58044333" lon="-8.40071">
        <ele>50.0</ele>
        <time>2019-05-17T15:11:43.152Z</time>
      </trkpt>
      <trkpt lat="39.580485" lon="-8.40072">
        <ele>50.0</ele>
        <time>2019-05-17T15:11:44.187Z</time>
      </trkpt>
      <trkpt lat="39.580485" lon="-8.40072">
        <ele>50.0</ele>
        <time>2019-05-17T15:11:45.160Z</time>
      </trkpt>
      <trkpt lat="39.58053" lon="-8.40074">
        <ele>51.0</ele>
        <time>2019-05-17T15:11:46.164Z</time>
      </trkpt>
      <trkpt lat="39.58055833" lon="-8.40075333">
        <ele>51.0</ele>
        <time>2019-05-17T15:11:47.189Z</time>
      </trkpt>
      <trkpt lat="39.58055833" lon="-8.40075333">
        <ele>51.0</ele>
        <time>2019-05-17T15:11:48.172Z</time>
      </trkpt>
      <trkpt lat="39.580615" lon="-8.40077667">
        <ele>51.0</ele>
        <time>2019-05-17T15:11:49.185Z</time>
      </trkpt>
      <trkpt lat="39.58064167" lon="-8.40078667">
        <ele>51.0</ele>
        <time>2019-05-17T15:11:50.172Z</time>
      </trkpt>
      <trkpt lat="39.58064167" lon="-8.40078667">
        <ele>51.0</ele>
        <time>2019-05-17T15:11:51.160Z</time>
      </trkpt>
      <trkpt lat="39.58069167" lon="-8.400805">
        <ele>52.0</ele>
        <time>2019-05-17T15:11:52.189Z</time>
      </trkpt>
      <trkpt lat="39.58069167" lon="-8.400805">
        <ele>52.0</ele>
        <time>2019-05-17T15:11:53.157Z</time>
      </trkpt>
      <trkpt lat="39.58073167" lon="-8.40082333">
        <ele>52.0</ele>
        <time>2019-05-17T15:11:54.160Z</time>
      </trkpt>
      <trkpt lat="39.58073167" lon="-8.40082333">
        <ele>52.0</ele>
        <time>2019-05-17T15:11:55.170Z</time>
      </trkpt>
      <trkpt lat="39.58078" lon="-8.40083167">
        <ele>52.0</ele>
        <time>2019-05-17T15:11:56.155Z</time>
      </trkpt>
      <trkpt lat="39.58078" lon="-8.40083167">
        <ele>52.0</ele>
        <time>2019-05-17T15:11:57.160Z</time>
      </trkpt>
      <trkpt lat="39.580835" lon="-8.40084167">
        <ele>52.0</ele>
        <time>2019-05-17T15:11:58.191Z</time>
      </trkpt>
      <trkpt lat="39.580835" lon="-8.40084167">
        <ele>52.0</ele>
        <time>2019-05-17T15:11:59.188Z</time>
      </trkpt>
      <trkpt lat="39.58089167" lon="-8.40085833">
        <ele>52.0</ele>
        <time>2019-05-17T15:12:00.185Z</time>
      </trkpt>
      <trkpt lat="39.58089167" lon="-8.40085833">
        <ele>52.0</ele>
        <time>2019-05-17T15:12:01.189Z</time>
      </trkpt>
      <trkpt lat="39.58094333" lon="-8.40087833">
        <ele>52.0</ele>
        <time>2019-05-17T15:12:02.184Z</time>
      </trkpt>
      <trkpt lat="39.58094333" lon="-8.40087833">
        <ele>52.0</ele>
        <time>2019-05-17T15:12:03.166Z</time>
      </trkpt>
      <trkpt lat="39.58099667" lon="-8.400905">
        <ele>53.0</ele>
        <time>2019-05-17T15:12:04.151Z</time>
      </trkpt>
      <trkpt lat="39.58099667" lon="-8.400905">
        <ele>53.0</ele>
        <time>2019-05-17T15:12:05.160Z</time>
      </trkpt>
      <trkpt lat="39.58104333" lon="-8.40091667">
        <ele>53.0</ele>
        <time>2019-05-17T15:12:06.151Z</time>
      </trkpt>
      <trkpt lat="39.58104333" lon="-8.40091667">
        <ele>53.0</ele>
        <time>2019-05-17T15:12:07.158Z</time>
      </trkpt>
      <trkpt lat="39.58108667" lon="-8.40093667">
        <ele>53.0</ele>
        <time>2019-05-17T15:12:08.165Z</time>
      </trkpt>
      <trkpt lat="39.58108667" lon="-8.40093667">
        <ele>53.0</ele>
        <time>2019-05-17T15:12:09.166Z</time>
      </trkpt>
      <trkpt lat="39.58113333" lon="-8.40095">
        <ele>53.0</ele>
        <time>2019-05-17T15:12:10.152Z</time>
      </trkpt>
      <trkpt lat="39.58116167" lon="-8.40095667">
        <ele>53.0</ele>
        <time>2019-05-17T15:12:11.195Z</time>
      </trkpt>
      <trkpt lat="39.58116167" lon="-8.40095667">
        <ele>53.0</ele>
        <time>2019-05-17T15:12:12.168Z</time>
      </trkpt>
      <trkpt lat="39.58122333" lon="-8.40097833">
        <ele>53.0</ele>
        <time>2019-05-17T15:12:13.157Z</time>
      </trkpt>
      <trkpt lat="39.581255" lon="-8.40098833">
        <ele>52.0</ele>
        <time>2019-05-17T15:12:14.170Z</time>
      </trkpt>
      <trkpt lat="39.581255" lon="-8.40098833">
        <ele>52.0</ele>
        <time>2019-05-17T15:12:15.187Z</time>
      </trkpt>
      <trkpt lat="39.581325" lon="-8.40101167">
        <ele>52.0</ele>
        <time>2019-05-17T15:12:16.183Z</time>
      </trkpt>
      <trkpt lat="39.581325" lon="-8.40101167">
        <ele>52.0</ele>
        <time>2019-05-17T15:12:17.177Z</time>
      </trkpt>
      <trkpt lat="39.58139833" lon="-8.40102833">
        <ele>52.0</ele>
        <time>2019-05-17T15:12:18.165Z</time>
      </trkpt>
      <trkpt lat="39.58143333" lon="-8.40103667">
        <ele>52.0</ele>
        <time>2019-05-17T15:12:19.190Z</time>
      </trkpt>
      <trkpt lat="39.58146333" lon="-8.40104333">
        <ele>52.0</ele>
        <time>2019-05-17T15:12:20.189Z</time>
      </trkpt>
      <trkpt lat="39.58149" lon="-8.40105">
        <ele>52.0</ele>
        <time>2019-05-17T15:12:21.155Z</time>
      </trkpt>
      <trkpt lat="39.58149" lon="-8.40105">
        <ele>52.0</ele>
        <time>2019-05-17T15:12:22.151Z</time>
      </trkpt>
      <trkpt lat="39.58153833" lon="-8.40106333">
        <ele>52.0</ele>
        <time>2019-05-17T15:12:23.195Z</time>
      </trkpt>
      <trkpt lat="39.58153833" lon="-8.40106333">
        <ele>52.0</ele>
        <time>2019-05-17T15:12:24.166Z</time>
      </trkpt>
      <trkpt lat="39.58159167" lon="-8.40107667">
        <ele>52.0</ele>
        <time>2019-05-17T15:12:25.185Z</time>
      </trkpt>
      <trkpt lat="39.58161667" lon="-8.40108667">
        <ele>53.0</ele>
        <time>2019-05-17T15:12:26.185Z</time>
      </trkpt>
      <trkpt lat="39.58161667" lon="-8.40108667">
        <ele>53.0</ele>
        <time>2019-05-17T15:12:27.162Z</time>
      </trkpt>
      <trkpt lat="39.58167333" lon="-8.40110833">
        <ele>54.0</ele>
        <time>2019-05-17T15:12:28.167Z</time>
      </trkpt>
      <trkpt lat="39.58167333" lon="-8.40110833">
        <ele>54.0</ele>
        <time>2019-05-17T15:12:29.157Z</time>
      </trkpt>
      <trkpt lat="39.58174" lon="-8.401125">
        <ele>55.0</ele>
        <time>2019-05-17T15:12:30.159Z</time>
      </trkpt>
      <trkpt lat="39.58174" lon="-8.401125">
        <ele>55.0</ele>
        <time>2019-05-17T15:12:31.183Z</time>
      </trkpt>
      <trkpt lat="39.58180333" lon="-8.40114833">
        <ele>55.0</ele>
        <time>2019-05-17T15:12:32.177Z</time>
      </trkpt>
      <trkpt lat="39.58180333" lon="-8.40114833">
        <ele>55.0</ele>
        <time>2019-05-17T15:12:33.162Z</time>
      </trkpt>
      <trkpt lat="39.581845" lon="-8.40116333">
        <ele>55.0</ele>
        <time>2019-05-17T15:12:34.151Z</time>
      </trkpt>
      <trkpt lat="39.58186" lon="-8.40117333">
        <ele>55.0</ele>
        <time>2019-05-17T15:12:35.179Z</time>
      </trkpt>
      <trkpt lat="39.58186" lon="-8.40117333">
        <ele>55.0</ele>
        <time>2019-05-17T15:12:36.184Z</time>
      </trkpt>
      <trkpt lat="39.58191" lon="-8.401195">
        <ele>56.0</ele>
        <time>2019-05-17T15:12:37.175Z</time>
      </trkpt>
      <trkpt lat="39.58193167" lon="-8.40120667">
        <ele>56.0</ele>
        <time>2019-05-17T15:12:38.179Z</time>
      </trkpt>
      <trkpt lat="39.58193167" lon="-8.40120667">
        <ele>56.0</ele>
        <time>2019-05-17T15:12:39.179Z</time>
      </trkpt>
      <trkpt lat="39.581985" lon="-8.40123">
        <ele>56.0</ele>
        <time>2019-05-17T15:12:40.185Z</time>
      </trkpt>
      <trkpt lat="39.581985" lon="-8.40123">
        <ele>56.0</ele>
        <time>2019-05-17T15:12:41.160Z</time>
      </trkpt>
      <trkpt lat="39.582045" lon="-8.40125167">
        <ele>56.0</ele>
        <time>2019-05-17T15:12:42.157Z</time>
      </trkpt>
      <trkpt lat="39.582045" lon="-8.40125167">
        <ele>56.0</ele>
        <time>2019-05-17T15:12:43.183Z</time>
      </trkpt>
      <trkpt lat="39.5821" lon="-8.401265">
        <ele>56.0</ele>
        <time>2019-05-17T15:12:44.182Z</time>
      </trkpt>
      <trkpt lat="39.5821" lon="-8.401265">
        <ele>56.0</ele>
        <time>2019-05-17T15:12:45.153Z</time>
      </trkpt>
      <trkpt lat="39.582145" lon="-8.40127333">
        <ele>56.0</ele>
        <time>2019-05-17T15:12:46.179Z</time>
      </trkpt>
      <trkpt lat="39.582145" lon="-8.40127333">
        <ele>56.0</ele>
        <time>2019-05-17T15:12:47.184Z</time>
      </trkpt>
      <trkpt lat="39.582185" lon="-8.40129667">
        <ele>56.0</ele>
        <time>2019-05-17T15:12:48.188Z</time>
      </trkpt>
      <trkpt lat="39.58219833" lon="-8.40130833">
        <ele>56.0</ele>
        <time>2019-05-17T15:12:49.186Z</time>
      </trkpt>
      <trkpt lat="39.58221" lon="-8.40131667">
        <ele>56.0</ele>
        <time>2019-05-17T15:12:50.160Z</time>
      </trkpt>
      <trkpt lat="39.58221" lon="-8.40131667">
        <ele>56.0</ele>
        <time>2019-05-17T15:12:51.188Z</time>
      </trkpt>
      <trkpt lat="39.58223167" lon="-8.40132667">
        <ele>55.0</ele>
        <time>2019-05-17T15:12:52.174Z</time>
      </trkpt>
      <trkpt lat="39.58223167" lon="-8.40132667">
        <ele>55.0</ele>
        <time>2019-05-17T15:12:53.167Z</time>
      </trkpt>
      <trkpt lat="39.58225" lon="-8.40134833">
        <ele>55.0</ele>
        <time>2019-05-17T15:12:54.185Z</time>
      </trkpt>
      <trkpt lat="39.58225333" lon="-8.401365">
        <ele>56.0</ele>
        <time>2019-05-17T15:12:55.185Z</time>
      </trkpt>
      <trkpt lat="39.58225333" lon="-8.40138">
        <ele>56.0</ele>
        <time>2019-05-17T15:12:56.177Z</time>
      </trkpt>
      <trkpt lat="39.58225333" lon="-8.40138">
        <ele>56.0</ele>
        <time>2019-05-17T15:12:57.183Z</time>
      </trkpt>
      <trkpt lat="39.58225833" lon="-8.40141333">
        <ele>56.0</ele>
        <time>2019-05-17T15:12:58.193Z</time>
      </trkpt>
      <trkpt lat="39.58226" lon="-8.40143167">
        <ele>56.0</ele>
        <time>2019-05-17T15:12:59.163Z</time>
      </trkpt>
      <trkpt lat="39.58226" lon="-8.40143167">
        <ele>56.0</ele>
        <time>2019-05-17T15:13:00.178Z</time>
      </trkpt>
      <trkpt lat="39.58226833" lon="-8.40148167">
        <ele>56.0</ele>
        <time>2019-05-17T15:13:01.175Z</time>
      </trkpt>
      <trkpt lat="39.58227" lon="-8.40150667">
        <ele>56.0</ele>
        <time>2019-05-17T15:13:02.162Z</time>
      </trkpt>
      <trkpt lat="39.58227" lon="-8.40150667">
        <ele>56.0</ele>
        <time>2019-05-17T15:13:03.153Z</time>
      </trkpt>
      <trkpt lat="39.58226833" lon="-8.40156333">
        <ele>57.0</ele>
        <time>2019-05-17T15:13:04.157Z</time>
      </trkpt>
      <trkpt lat="39.58226833" lon="-8.40156333">
        <ele>57.0</ele>
        <time>2019-05-17T15:13:05.186Z</time>
      </trkpt>
      <trkpt lat="39.58227" lon="-8.40161833">
        <ele>57.0</ele>
        <time>2019-05-17T15:13:06.155Z</time>
      </trkpt>
      <trkpt lat="39.58227" lon="-8.40161833">
        <ele>57.0</ele>
        <time>2019-05-17T15:13:07.178Z</time>
      </trkpt>
      <trkpt lat="39.58226833" lon="-8.40168333">
        <ele>57.0</ele>
        <time>2019-05-17T15:13:08.174Z</time>
      </trkpt>
      <trkpt lat="39.58226833" lon="-8.40168333">
        <ele>57.0</ele>
        <time>2019-05-17T15:13:09.173Z</time>
      </trkpt>
      <trkpt lat="39.58226667" lon="-8.401745">
        <ele>57.0</ele>
        <time>2019-05-17T15:13:10.179Z</time>
      </trkpt>
      <trkpt lat="39.58227" lon="-8.40177833">
        <ele>57.0</ele>
        <time>2019-05-17T15:13:11.181Z</time>
      </trkpt>
      <trkpt lat="39.58226833" lon="-8.40181167">
        <ele>57.0</ele>
        <time>2019-05-17T15:13:12.183Z</time>
      </trkpt>
      <trkpt lat="39.58226833" lon="-8.40181167">
        <ele>57.0</ele>
        <time>2019-05-17T15:13:13.170Z</time>
      </trkpt>
      <trkpt lat="39.58226667" lon="-8.40188">
        <ele>57.0</ele>
        <time>2019-05-17T15:13:14.170Z</time>
      </trkpt>
      <trkpt lat="39.58226667" lon="-8.40188">
        <ele>57.0</ele>
        <time>2019-05-17T15:13:15.186Z</time>
      </trkpt>
      <trkpt lat="39.58226" lon="-8.40194667">
        <ele>57.0</ele>
        <time>2019-05-17T15:13:16.171Z</time>
      </trkpt>
      <trkpt lat="39.58226" lon="-8.40194667">
        <ele>57.0</ele>
        <time>2019-05-17T15:13:17.181Z</time>
      </trkpt>
      <trkpt lat="39.58225167" lon="-8.40201667">
        <ele>57.0</ele>
        <time>2019-05-17T15:13:18.195Z</time>
      </trkpt>
      <trkpt lat="39.58225167" lon="-8.40201667">
        <ele>57.0</ele>
        <time>2019-05-17T15:13:19.163Z</time>
      </trkpt>
      <trkpt lat="39.58225" lon="-8.40209167">
        <ele>57.0</ele>
        <time>2019-05-17T15:13:20.189Z</time>
      </trkpt>
      <trkpt lat="39.58225" lon="-8.40209167">
        <ele>57.0</ele>
        <time>2019-05-17T15:13:21.164Z</time>
      </trkpt>
      <trkpt lat="39.582245" lon="-8.40216833">
        <ele>58.0</ele>
        <time>2019-05-17T15:13:22.160Z</time>
      </trkpt>
      <trkpt lat="39.582245" lon="-8.40216833">
        <ele>58.0</ele>
        <time>2019-05-17T15:13:23.160Z</time>
      </trkpt>
      <trkpt lat="39.58223667" lon="-8.40224">
        <ele>58.0</ele>
        <time>2019-05-17T15:13:24.157Z</time>
      </trkpt>
      <trkpt lat="39.58223667" lon="-8.40224">
        <ele>58.0</ele>
        <time>2019-05-17T15:13:25.162Z</time>
      </trkpt>
      <trkpt lat="39.58223167" lon="-8.40229667">
        <ele>58.0</ele>
        <time>2019-05-17T15:13:26.164Z</time>
      </trkpt>
      <trkpt lat="39.58223167" lon="-8.40229667">
        <ele>58.0</ele>
        <time>2019-05-17T15:13:27.175Z</time>
      </trkpt>
      <trkpt lat="39.58222333" lon="-8.402345">
        <ele>58.0</ele>
        <time>2019-05-17T15:13:28.182Z</time>
      </trkpt>
      <trkpt lat="39.58222333" lon="-8.402345">
        <ele>58.0</ele>
        <time>2019-05-17T15:13:29.150Z</time>
      </trkpt>
      <trkpt lat="39.58221833" lon="-8.402395">
        <ele>58.0</ele>
        <time>2019-05-17T15:13:30.155Z</time>
      </trkpt>
      <trkpt lat="39.58221833" lon="-8.402395">
        <ele>58.0</ele>
        <time>2019-05-17T15:13:31.178Z</time>
      </trkpt>
      <trkpt lat="39.582215" lon="-8.402455">
        <ele>58.0</ele>
        <time>2019-05-17T15:13:32.181Z</time>
      </trkpt>
      <trkpt lat="39.582215" lon="-8.402455">
        <ele>58.0</ele>
        <time>2019-05-17T15:13:33.177Z</time>
      </trkpt>
      <trkpt lat="39.58221" lon="-8.40252">
        <ele>58.0</ele>
        <time>2019-05-17T15:13:34.174Z</time>
      </trkpt>
      <trkpt lat="39.58221" lon="-8.40252">
        <ele>58.0</ele>
        <time>2019-05-17T15:13:35.178Z</time>
      </trkpt>
      <trkpt lat="39.58221" lon="-8.40258333">
        <ele>58.0</ele>
        <time>2019-05-17T15:13:36.157Z</time>
      </trkpt>
      <trkpt lat="39.58221" lon="-8.40258333">
        <ele>58.0</ele>
        <time>2019-05-17T15:13:37.174Z</time>
      </trkpt>
      <trkpt lat="39.58220167" lon="-8.40264833">
        <ele>58.0</ele>
        <time>2019-05-17T15:13:38.165Z</time>
      </trkpt>
      <trkpt lat="39.58220167" lon="-8.40264833">
        <ele>58.0</ele>
        <time>2019-05-17T15:13:39.187Z</time>
      </trkpt>
      <trkpt lat="39.582195" lon="-8.402715">
        <ele>58.0</ele>
        <time>2019-05-17T15:13:40.175Z</time>
      </trkpt>
      <trkpt lat="39.582195" lon="-8.402715">
        <ele>58.0</ele>
        <time>2019-05-17T15:13:41.175Z</time>
      </trkpt>
      <trkpt lat="39.58219333" lon="-8.40278333">
        <ele>58.0</ele>
        <time>2019-05-17T15:13:42.153Z</time>
      </trkpt>
      <trkpt lat="39.58219333" lon="-8.40278333">
        <ele>58.0</ele>
        <time>2019-05-17T15:13:43.163Z</time>
      </trkpt>
      <trkpt lat="39.582185" lon="-8.40285167">
        <ele>58.0</ele>
        <time>2019-05-17T15:13:44.159Z</time>
      </trkpt>
      <trkpt lat="39.582185" lon="-8.40285167">
        <ele>58.0</ele>
        <time>2019-05-17T15:13:45.161Z</time>
      </trkpt>
      <trkpt lat="39.58217667" lon="-8.40292">
        <ele>58.0</ele>
        <time>2019-05-17T15:13:46.151Z</time>
      </trkpt>
      <trkpt lat="39.58217667" lon="-8.40292">
        <ele>58.0</ele>
        <time>2019-05-17T15:13:47.157Z</time>
      </trkpt>
      <trkpt lat="39.58217" lon="-8.40299">
        <ele>58.0</ele>
        <time>2019-05-17T15:13:48.155Z</time>
      </trkpt>
      <trkpt lat="39.58216667" lon="-8.40302333">
        <ele>58.0</ele>
        <time>2019-05-17T15:13:49.165Z</time>
      </trkpt>
      <trkpt lat="39.582165" lon="-8.40305833">
        <ele>58.0</ele>
        <time>2019-05-17T15:13:50.163Z</time>
      </trkpt>
      <trkpt lat="39.582165" lon="-8.40305833">
        <ele>58.0</ele>
        <time>2019-05-17T15:13:51.168Z</time>
      </trkpt>
      <trkpt lat="39.58216333" lon="-8.403125">
        <ele>58.0</ele>
        <time>2019-05-17T15:13:52.164Z</time>
      </trkpt>
      <trkpt lat="39.58216333" lon="-8.403125">
        <ele>58.0</ele>
        <time>2019-05-17T15:13:53.152Z</time>
      </trkpt>
      <trkpt lat="39.58216167" lon="-8.40319">
        <ele>58.0</ele>
        <time>2019-05-17T15:13:54.185Z</time>
      </trkpt>
      <trkpt lat="39.58216167" lon="-8.40319">
        <ele>58.0</ele>
        <time>2019-05-17T15:13:55.189Z</time>
      </trkpt>
      <trkpt lat="39.58216" lon="-8.403255">
        <ele>58.0</ele>
        <time>2019-05-17T15:13:56.188Z</time>
      </trkpt>
      <trkpt lat="39.58216" lon="-8.403255">
        <ele>58.0</ele>
        <time>2019-05-17T15:13:57.160Z</time>
      </trkpt>
      <trkpt lat="39.58215833" lon="-8.40332667">
        <ele>58.0</ele>
        <time>2019-05-17T15:13:58.183Z</time>
      </trkpt>
      <trkpt lat="39.58215833" lon="-8.40332667">
        <ele>58.0</ele>
        <time>2019-05-17T15:13:59.177Z</time>
      </trkpt>
      <trkpt lat="39.58216" lon="-8.40339667">
        <ele>58.0</ele>
        <time>2019-05-17T15:14:00.169Z</time>
      </trkpt>
      <trkpt lat="39.58216" lon="-8.40339667">
        <ele>58.0</ele>
        <time>2019-05-17T15:14:01.182Z</time>
      </trkpt>
      <trkpt lat="39.58216167" lon="-8.403465">
        <ele>58.0</ele>
        <time>2019-05-17T15:14:02.171Z</time>
      </trkpt>
      <trkpt lat="39.58216167" lon="-8.403465">
        <ele>58.0</ele>
        <time>2019-05-17T15:14:03.150Z</time>
      </trkpt>
      <trkpt lat="39.582165" lon="-8.40352833">
        <ele>58.0</ele>
        <time>2019-05-17T15:14:04.171Z</time>
      </trkpt>
      <trkpt lat="39.582165" lon="-8.40352833">
        <ele>58.0</ele>
        <time>2019-05-17T15:14:05.184Z</time>
      </trkpt>
      <trkpt lat="39.58217" lon="-8.403595">
        <ele>58.0</ele>
        <time>2019-05-17T15:14:06.165Z</time>
      </trkpt>
      <trkpt lat="39.58217" lon="-8.403595">
        <ele>58.0</ele>
        <time>2019-05-17T15:14:07.180Z</time>
      </trkpt>
      <trkpt lat="39.582175" lon="-8.40366167">
        <ele>58.0</ele>
        <time>2019-05-17T15:14:08.173Z</time>
      </trkpt>
      <trkpt lat="39.582175" lon="-8.40366167">
        <ele>58.0</ele>
        <time>2019-05-17T15:14:09.173Z</time>
      </trkpt>
      <trkpt lat="39.58217833" lon="-8.40373167">
        <ele>58.0</ele>
        <time>2019-05-17T15:14:10.151Z</time>
      </trkpt>
      <trkpt lat="39.58217833" lon="-8.403765">
        <ele>58.0</ele>
        <time>2019-05-17T15:14:11.155Z</time>
      </trkpt>
      <trkpt lat="39.58217833" lon="-8.403765">
        <ele>58.0</ele>
        <time>2019-05-17T15:14:12.184Z</time>
      </trkpt>
      <trkpt lat="39.58217833" lon="-8.40383333">
        <ele>59.0</ele>
        <time>2019-05-17T15:14:13.171Z</time>
      </trkpt>
      <trkpt lat="39.58217833" lon="-8.403865">
        <ele>59.0</ele>
        <time>2019-05-17T15:14:14.159Z</time>
      </trkpt>
      <trkpt lat="39.58217833" lon="-8.403865">
        <ele>59.0</ele>
        <time>2019-05-17T15:14:15.170Z</time>
      </trkpt>
      <trkpt lat="39.58216833" lon="-8.40392833">
        <ele>59.0</ele>
        <time>2019-05-17T15:14:16.169Z</time>
      </trkpt>
      <trkpt lat="39.58216833" lon="-8.40392833">
        <ele>59.0</ele>
        <time>2019-05-17T15:14:17.160Z</time>
      </trkpt>
      <trkpt lat="39.58216333" lon="-8.40398667">
        <ele>59.0</ele>
        <time>2019-05-17T15:14:18.162Z</time>
      </trkpt>
      <trkpt lat="39.58216333" lon="-8.40398667">
        <ele>59.0</ele>
        <time>2019-05-17T15:14:19.182Z</time>
      </trkpt>
      <trkpt lat="39.58216" lon="-8.404045">
        <ele>59.0</ele>
        <time>2019-05-17T15:14:20.193Z</time>
      </trkpt>
      <trkpt lat="39.58216" lon="-8.404045">
        <ele>59.0</ele>
        <time>2019-05-17T15:14:21.169Z</time>
      </trkpt>
      <trkpt lat="39.58214667" lon="-8.40410833">
        <ele>59.0</ele>
        <time>2019-05-17T15:14:22.151Z</time>
      </trkpt>
      <trkpt lat="39.58214667" lon="-8.40410833">
        <ele>59.0</ele>
        <time>2019-05-17T15:14:23.166Z</time>
      </trkpt>
      <trkpt lat="39.58213167" lon="-8.40418833">
        <ele>59.0</ele>
        <time>2019-05-17T15:14:24.158Z</time>
      </trkpt>
      <trkpt lat="39.58213167" lon="-8.40418833">
        <ele>59.0</ele>
        <time>2019-05-17T15:14:25.172Z</time>
      </trkpt>
      <trkpt lat="39.58210667" lon="-8.40427667">
        <ele>59.0</ele>
        <time>2019-05-17T15:14:26.185Z</time>
      </trkpt>
      <trkpt lat="39.58210667" lon="-8.40427667">
        <ele>59.0</ele>
        <time>2019-05-17T15:14:27.151Z</time>
      </trkpt>
      <trkpt lat="39.58208667" lon="-8.40435667">
        <ele>60.0</ele>
        <time>2019-05-17T15:14:28.155Z</time>
      </trkpt>
      <trkpt lat="39.58208667" lon="-8.40435667">
        <ele>60.0</ele>
        <time>2019-05-17T15:14:29.173Z</time>
      </trkpt>
      <trkpt lat="39.58207333" lon="-8.40440833">
        <ele>60.0</ele>
        <time>2019-05-17T15:14:30.165Z</time>
      </trkpt>
      <trkpt lat="39.58207333" lon="-8.40440833">
        <ele>60.0</ele>
        <time>2019-05-17T15:14:31.157Z</time>
      </trkpt>
      <trkpt lat="39.58206667" lon="-8.40442167">
        <ele>60.0</ele>
        <time>2019-05-17T15:14:32.187Z</time>
      </trkpt>
      <trkpt lat="39.58206667" lon="-8.40442167">
        <ele>60.0</ele>
        <time>2019-05-17T15:14:33.160Z</time>
      </trkpt>
      <trkpt lat="39.58206667" lon="-8.40442167">
        <ele>60.0</ele>
        <time>2019-05-17T15:14:34.165Z</time>
      </trkpt>
      <trkpt lat="39.58206667" lon="-8.40442167">
        <ele>60.0</ele>
        <time>2019-05-17T15:14:35.178Z</time>
      </trkpt>
      <trkpt lat="39.58206667" lon="-8.40442167">
        <ele>60.0</ele>
        <time>2019-05-17T15:14:36.184Z</time>
      </trkpt>
      <trkpt lat="39.58206667" lon="-8.40442167">
        <ele>60.0</ele>
        <time>2019-05-17T15:14:37.150Z</time>
      </trkpt>
      <trkpt lat="39.58206667" lon="-8.40442167">
        <ele>60.0</ele>
        <time>2019-05-17T15:14:38.156Z</time>
      </trkpt>
      <trkpt lat="39.58206667" lon="-8.40442167">
        <ele>60.0</ele>
        <time>2019-05-17T15:14:39.162Z</time>
      </trkpt>
      <trkpt lat="39.58206667" lon="-8.40442167">
        <ele>60.0</ele>
        <time>2019-05-17T15:14:40.187Z</time>
      </trkpt>
      <trkpt lat="39.58206667" lon="-8.40442167">
        <ele>60.0</ele>
        <time>2019-05-17T15:14:41.172Z</time>
      </trkpt>
      <trkpt lat="39.58206667" lon="-8.40442167">
        <ele>60.0</ele>
        <time>2019-05-17T15:14:42.165Z</time>
      </trkpt>
      <trkpt lat="39.58206667" lon="-8.40442167">
        <ele>60.0</ele>
        <time>2019-05-17T15:14:43.189Z</time>
      </trkpt>
      <trkpt lat="39.58206667" lon="-8.40442167">
        <ele>60.0</ele>
        <time>2019-05-17T15:14:44.175Z</time>
      </trkpt>
      <trkpt lat="39.58206667" lon="-8.40442167">
        <ele>60.0</ele>
        <time>2019-05-17T15:14:45.168Z</time>
      </trkpt>
      <trkpt lat="39.58206667" lon="-8.40442167">
        <ele>60.0</ele>
        <time>2019-05-17T15:14:46.173Z</time>
      </trkpt>
      <trkpt lat="39.58206667" lon="-8.40442167">
        <ele>60.0</ele>
        <time>2019-05-17T15:14:47.168Z</time>
      </trkpt>
      <trkpt lat="39.58206667" lon="-8.40442167">
        <ele>60.0</ele>
        <time>2019-05-17T15:14:48.161Z</time>
      </trkpt>
      <trkpt lat="39.58206667" lon="-8.40442167">
        <ele>60.0</ele>
        <time>2019-05-17T15:14:49.186Z</time>
      </trkpt>
      <trkpt lat="39.58206667" lon="-8.40442167">
        <ele>60.0</ele>
        <time>2019-05-17T15:14:50.176Z</time>
      </trkpt>
      <trkpt lat="39.58206667" lon="-8.40442167">
        <ele>60.0</ele>
        <time>2019-05-17T15:14:51.155Z</time>
      </trkpt>
      <trkpt lat="39.58206667" lon="-8.40442167">
        <ele>60.0</ele>
        <time>2019-05-17T15:14:52.166Z</time>
      </trkpt>
      <trkpt lat="39.58206667" lon="-8.40442167">
        <ele>60.0</ele>
        <time>2019-05-17T15:14:53.172Z</time>
      </trkpt>
      <trkpt lat="39.58206667" lon="-8.40442167">
        <ele>60.0</ele>
        <time>2019-05-17T15:14:54.177Z</time>
      </trkpt>
      <trkpt lat="39.58206667" lon="-8.40442167">
        <ele>60.0</ele>
        <time>2019-05-17T15:14:55.163Z</time>
      </trkpt>
      <trkpt lat="39.58206667" lon="-8.40442167">
        <ele>60.0</ele>
        <time>2019-05-17T15:14:56.188Z</time>
      </trkpt>
      <trkpt lat="39.58206667" lon="-8.40442167">
        <ele>60.0</ele>
        <time>2019-05-17T15:14:57.179Z</time>
      </trkpt>
      <trkpt lat="39.58206667" lon="-8.40442167">
        <ele>60.0</ele>
        <time>2019-05-17T15:14:58.173Z</time>
      </trkpt>
      <trkpt lat="39.58206667" lon="-8.40442167">
        <ele>60.0</ele>
        <time>2019-05-17T15:14:59.174Z</time>
      </trkpt>
      <trkpt lat="39.58206667" lon="-8.40442167">
        <ele>60.0</ele>
        <time>2019-05-17T15:15:00.174Z</time>
      </trkpt>
      <trkpt lat="39.58206667" lon="-8.40442167">
        <ele>60.0</ele>
        <time>2019-05-17T15:15:01.174Z</time>
      </trkpt>
      <trkpt lat="39.58206667" lon="-8.40442167">
        <ele>60.0</ele>
        <time>2019-05-17T15:15:02.178Z</time>
      </trkpt>
      <trkpt lat="39.58206667" lon="-8.40442167">
        <ele>60.0</ele>
        <time>2019-05-17T15:15:03.173Z</time>
      </trkpt>
      <trkpt lat="39.58206667" lon="-8.40442167">
        <ele>60.0</ele>
        <time>2019-05-17T15:15:04.172Z</time>
      </trkpt>
      <trkpt lat="39.58206667" lon="-8.40442167">
        <ele>60.0</ele>
        <time>2019-05-17T15:15:05.174Z</time>
      </trkpt>
      <trkpt lat="39.58206667" lon="-8.40442167">
        <ele>60.0</ele>
        <time>2019-05-17T15:15:06.172Z</time>
      </trkpt>
      <trkpt lat="39.58206667" lon="-8.40442167">
        <ele>60.0</ele>
        <time>2019-05-17T15:15:07.173Z</time>
      </trkpt>
      <trkpt lat="39.58206667" lon="-8.40442167">
        <ele>60.0</ele>
        <time>2019-05-17T15:15:08.177Z</time>
      </trkpt>
      <trkpt lat="39.58206667" lon="-8.40442167">
        <ele>60.0</ele>
        <time>2019-05-17T15:15:09.156Z</time>
      </trkpt>
      <trkpt lat="39.58206667" lon="-8.40442167">
        <ele>60.0</ele>
        <time>2019-05-17T15:15:10.179Z</time>
      </trkpt>
      <trkpt lat="39.58206667" lon="-8.40442167">
        <ele>60.0</ele>
        <time>2019-05-17T15:15:11.185Z</time>
      </trkpt>
      <trkpt lat="39.58206667" lon="-8.40442167">
        <ele>60.0</ele>
        <time>2019-05-17T15:15:12.151Z</time>
      </trkpt>
      <trkpt lat="39.58206667" lon="-8.40442167">
        <ele>60.0</ele>
        <time>2019-05-17T15:15:13.169Z</time>
      </trkpt>
      <trkpt lat="39.58206667" lon="-8.40442167">
        <ele>60.0</ele>
        <time>2019-05-17T15:15:14.176Z</time>
      </trkpt>
      <trkpt lat="39.58206667" lon="-8.40442167">
        <ele>60.0</ele>
        <time>2019-05-17T15:15:15.168Z</time>
      </trkpt>
      <trkpt lat="39.58206667" lon="-8.40442167">
        <ele>60.0</ele>
        <time>2019-05-17T15:15:16.173Z</time>
      </trkpt>
      <trkpt lat="39.58206667" lon="-8.40442167">
        <ele>60.0</ele>
        <time>2019-05-17T15:15:17.169Z</time>
      </trkpt>
      <trkpt lat="39.58206667" lon="-8.40442167">
        <ele>60.0</ele>
        <time>2019-05-17T15:15:18.174Z</time>
      </trkpt>
      <trkpt lat="39.58206667" lon="-8.40442167">
        <ele>60.0</ele>
        <time>2019-05-17T15:15:19.168Z</time>
      </trkpt>
      <trkpt lat="39.58206667" lon="-8.40442167">
        <ele>60.0</ele>
        <time>2019-05-17T15:15:20.176Z</time>
      </trkpt>
      <trkpt lat="39.58206667" lon="-8.40442167">
        <ele>60.0</ele>
        <time>2019-05-17T15:15:21.155Z</time>
      </trkpt>
      <trkpt lat="39.58206667" lon="-8.40442167">
        <ele>60.0</ele>
        <time>2019-05-17T15:15:22.165Z</time>
      </trkpt>
      <trkpt lat="39.58206667" lon="-8.40442167">
        <ele>60.0</ele>
        <time>2019-05-17T15:15:23.171Z</time>
      </trkpt>
      <trkpt lat="39.58206667" lon="-8.40442167">
        <ele>60.0</ele>
        <time>2019-05-17T15:15:24.177Z</time>
      </trkpt>
      <trkpt lat="39.58206667" lon="-8.40442167">
        <ele>60.0</ele>
        <time>2019-05-17T15:15:25.163Z</time>
      </trkpt>
      <trkpt lat="39.58206667" lon="-8.40442167">
        <ele>60.0</ele>
        <time>2019-05-17T15:15:26.188Z</time>
      </trkpt>
      <trkpt lat="39.58206667" lon="-8.40442167">
        <ele>60.0</ele>
        <time>2019-05-17T15:15:27.174Z</time>
      </trkpt>
      <trkpt lat="39.58206667" lon="-8.40442167">
        <ele>60.0</ele>
        <time>2019-05-17T15:15:28.169Z</time>
      </trkpt>
      <trkpt lat="39.58206667" lon="-8.40442167">
        <ele>60.0</ele>
        <time>2019-05-17T15:15:29.174Z</time>
      </trkpt>
      <trkpt lat="39.58206667" lon="-8.40442167">
        <ele>60.0</ele>
        <time>2019-05-17T15:15:30.172Z</time>
      </trkpt>
      <trkpt lat="39.58206667" lon="-8.40442167">
        <ele>60.0</ele>
        <time>2019-05-17T15:15:31.173Z</time>
      </trkpt>
      <trkpt lat="39.58206667" lon="-8.40442167">
        <ele>60.0</ele>
        <time>2019-05-17T15:15:32.171Z</time>
      </trkpt>
      <trkpt lat="39.58206667" lon="-8.40442167">
        <ele>60.0</ele>
        <time>2019-05-17T15:15:33.174Z</time>
      </trkpt>
      <trkpt lat="39.58206667" lon="-8.40442167">
        <ele>60.0</ele>
        <time>2019-05-17T15:15:34.175Z</time>
      </trkpt>
      <trkpt lat="39.58206667" lon="-8.40442167">
        <ele>60.0</ele>
        <time>2019-05-17T15:15:35.172Z</time>
      </trkpt>
      <trkpt lat="39.58206667" lon="-8.40442167">
        <ele>60.0</ele>
        <time>2019-05-17T15:15:36.174Z</time>
      </trkpt>
      <trkpt lat="39.58206667" lon="-8.40442167">
        <ele>60.0</ele>
        <time>2019-05-17T15:15:37.171Z</time>
      </trkpt>
      <trkpt lat="39.58206667" lon="-8.40442167">
        <ele>60.0</ele>
        <time>2019-05-17T15:15:38.156Z</time>
      </trkpt>
      <trkpt lat="39.58206667" lon="-8.40442167">
        <ele>60.0</ele>
        <time>2019-05-17T15:15:39.181Z</time>
      </trkpt>
      <trkpt lat="39.58206667" lon="-8.40442167">
        <ele>60.0</ele>
        <time>2019-05-17T15:15:40.168Z</time>
      </trkpt>
      <trkpt lat="39.58206667" lon="-8.40442167">
        <ele>60.0</ele>
        <time>2019-05-17T15:15:41.174Z</time>
      </trkpt>
      <trkpt lat="39.58206667" lon="-8.40442167">
        <ele>60.0</ele>
        <time>2019-05-17T15:15:42.168Z</time>
      </trkpt>
      <trkpt lat="39.58206667" lon="-8.40442167">
        <ele>60.0</ele>
        <time>2019-05-17T15:15:43.174Z</time>
      </trkpt>
      <trkpt lat="39.58206667" lon="-8.40442167">
        <ele>60.0</ele>
        <time>2019-05-17T15:15:44.173Z</time>
      </trkpt>
      <trkpt lat="39.58206667" lon="-8.40442167">
        <ele>60.0</ele>
        <time>2019-05-17T15:15:45.174Z</time>
      </trkpt>
      <trkpt lat="39.58206667" lon="-8.40442167">
        <ele>60.0</ele>
        <time>2019-05-17T15:15:46.170Z</time>
      </trkpt>
      <trkpt lat="39.582065" lon="-8.40443667">
        <ele>61.0</ele>
        <time>2019-05-17T15:15:47.174Z</time>
      </trkpt>
      <trkpt lat="39.582065" lon="-8.40443667">
        <ele>61.0</ele>
        <time>2019-05-17T15:15:48.170Z</time>
      </trkpt>
      <trkpt lat="39.58204667" lon="-8.40447667">
        <ele>61.0</ele>
        <time>2019-05-17T15:15:49.174Z</time>
      </trkpt>
      <trkpt lat="39.58203833" lon="-8.40449833">
        <ele>61.0</ele>
        <time>2019-05-17T15:15:50.182Z</time>
      </trkpt>
      <trkpt lat="39.58203833" lon="-8.40449833">
        <ele>61.0</ele>
        <time>2019-05-17T15:15:51.169Z</time>
      </trkpt>
      <trkpt lat="39.58201667" lon="-8.40455">
        <ele>61.0</ele>
        <time>2019-05-17T15:15:52.172Z</time>
      </trkpt>
      <trkpt lat="39.58200667" lon="-8.404575">
        <ele>62.0</ele>
        <time>2019-05-17T15:15:53.173Z</time>
      </trkpt>
      <trkpt lat="39.58200167" lon="-8.40459833">
        <ele>62.0</ele>
        <time>2019-05-17T15:15:54.173Z</time>
      </trkpt>
      <trkpt lat="39.58200167" lon="-8.40459833">
        <ele>62.0</ele>
        <time>2019-05-17T15:15:55.172Z</time>
      </trkpt>
      <trkpt lat="39.58199167" lon="-8.404625">
        <ele>63.0</ele>
        <time>2019-05-17T15:15:56.186Z</time>
      </trkpt>
      <trkpt lat="39.58199167" lon="-8.404625">
        <ele>63.0</ele>
        <time>2019-05-17T15:15:57.153Z</time>
      </trkpt>
      <trkpt lat="39.58197167" lon="-8.40465">
        <ele>63.0</ele>
        <time>2019-05-17T15:15:58.151Z</time>
      </trkpt>
      <trkpt lat="39.58197167" lon="-8.40465">
        <ele>63.0</ele>
        <time>2019-05-17T15:15:59.170Z</time>
      </trkpt>
      <trkpt lat="39.58195333" lon="-8.40469">
        <ele>63.0</ele>
        <time>2019-05-17T15:16:00.177Z</time>
      </trkpt>
      <trkpt lat="39.58195333" lon="-8.40469">
        <ele>63.0</ele>
        <time>2019-05-17T15:16:01.176Z</time>
      </trkpt>
      <trkpt lat="39.58193667" lon="-8.40473833">
        <ele>64.0</ele>
        <time>2019-05-17T15:16:02.163Z</time>
      </trkpt>
      <trkpt lat="39.58193667" lon="-8.40473833">
        <ele>64.0</ele>
        <time>2019-05-17T15:16:03.164Z</time>
      </trkpt>
      <trkpt lat="39.58191833" lon="-8.40479">
        <ele>64.0</ele>
        <time>2019-05-17T15:16:04.160Z</time>
      </trkpt>
      <trkpt lat="39.58191833" lon="-8.40479">
        <ele>64.0</ele>
        <time>2019-05-17T15:16:05.183Z</time>
      </trkpt>
      <trkpt lat="39.58189833" lon="-8.40483667">
        <ele>64.0</ele>
        <time>2019-05-17T15:16:06.175Z</time>
      </trkpt>
      <trkpt lat="39.58189833" lon="-8.40483667">
        <ele>64.0</ele>
        <time>2019-05-17T15:16:07.176Z</time>
      </trkpt>
      <trkpt lat="39.58187667" lon="-8.40488">
        <ele>64.0</ele>
        <time>2019-05-17T15:16:08.163Z</time>
      </trkpt>
      <trkpt lat="39.58187667" lon="-8.40488">
        <ele>64.0</ele>
        <time>2019-05-17T15:16:09.187Z</time>
      </trkpt>
      <trkpt lat="39.58184833" lon="-8.40492667">
        <ele>65.0</ele>
        <time>2019-05-17T15:16:10.179Z</time>
      </trkpt>
      <trkpt lat="39.58184833" lon="-8.40492667">
        <ele>65.0</ele>
        <time>2019-05-17T15:16:11.190Z</time>
      </trkpt>
      <trkpt lat="39.58182" lon="-8.40497">
        <ele>64.0</ele>
        <time>2019-05-17T15:16:12.151Z</time>
      </trkpt>
      <trkpt lat="39.58182" lon="-8.40497">
        <ele>64.0</ele>
        <time>2019-05-17T15:16:13.188Z</time>
      </trkpt>
      <trkpt lat="39.581795" lon="-8.40501833">
        <ele>65.0</ele>
        <time>2019-05-17T15:16:14.175Z</time>
      </trkpt>
      <trkpt lat="39.581795" lon="-8.40501833">
        <ele>65.0</ele>
        <time>2019-05-17T15:16:15.183Z</time>
      </trkpt>
      <trkpt lat="39.58177167" lon="-8.405065">
        <ele>66.0</ele>
        <time>2019-05-17T15:16:16.156Z</time>
      </trkpt>
      <trkpt lat="39.58177167" lon="-8.405065">
        <ele>66.0</ele>
        <time>2019-05-17T15:16:17.171Z</time>
      </trkpt>
      <trkpt lat="39.58174667" lon="-8.40511667">
        <ele>66.0</ele>
        <time>2019-05-17T15:16:18.195Z</time>
      </trkpt>
      <trkpt lat="39.58174667" lon="-8.40511667">
        <ele>66.0</ele>
        <time>2019-05-17T15:16:19.172Z</time>
      </trkpt>
      <trkpt lat="39.58172167" lon="-8.40516333">
        <ele>66.0</ele>
        <time>2019-05-17T15:16:20.175Z</time>
      </trkpt>
      <trkpt lat="39.58172167" lon="-8.40516333">
        <ele>66.0</ele>
        <time>2019-05-17T15:16:21.180Z</time>
      </trkpt>
      <trkpt lat="39.581705" lon="-8.40520667">
        <ele>67.0</ele>
        <time>2019-05-17T15:16:22.195Z</time>
      </trkpt>
      <trkpt lat="39.581705" lon="-8.40520667">
        <ele>67.0</ele>
        <time>2019-05-17T15:16:23.168Z</time>
      </trkpt>
      <trkpt lat="39.581685" lon="-8.40525">
        <ele>67.0</ele>
        <time>2019-05-17T15:16:24.150Z</time>
      </trkpt>
      <trkpt lat="39.581685" lon="-8.40525">
        <ele>67.0</ele>
        <time>2019-05-17T15:16:25.164Z</time>
      </trkpt>
      <trkpt lat="39.58166333" lon="-8.40529">
        <ele>67.0</ele>
        <time>2019-05-17T15:16:26.156Z</time>
      </trkpt>
      <trkpt lat="39.58166333" lon="-8.40529">
        <ele>67.0</ele>
        <time>2019-05-17T15:16:27.184Z</time>
      </trkpt>
      <trkpt lat="39.58164333" lon="-8.40533">
        <ele>68.0</ele>
        <time>2019-05-17T15:16:28.180Z</time>
      </trkpt>
      <trkpt lat="39.58164333" lon="-8.40533">
        <ele>68.0</ele>
        <time>2019-05-17T15:16:29.189Z</time>
      </trkpt>
      <trkpt lat="39.58162167" lon="-8.40537">
        <ele>68.0</ele>
        <time>2019-05-17T15:16:30.183Z</time>
      </trkpt>
      <trkpt lat="39.58162167" lon="-8.40537">
        <ele>68.0</ele>
        <time>2019-05-17T15:16:31.154Z</time>
      </trkpt>
      <trkpt lat="39.58160167" lon="-8.405415">
        <ele>68.0</ele>
        <time>2019-05-17T15:16:32.187Z</time>
      </trkpt>
      <trkpt lat="39.58160167" lon="-8.405415">
        <ele>68.0</ele>
        <time>2019-05-17T15:16:33.179Z</time>
      </trkpt>
      <trkpt lat="39.58158167" lon="-8.40545167">
        <ele>69.0</ele>
        <time>2019-05-17T15:16:34.175Z</time>
      </trkpt>
      <trkpt lat="39.58158167" lon="-8.40545167">
        <ele>69.0</ele>
        <time>2019-05-17T15:16:35.166Z</time>
      </trkpt>
      <trkpt lat="39.581565" lon="-8.40549333">
        <ele>69.0</ele>
        <time>2019-05-17T15:16:36.174Z</time>
      </trkpt>
      <trkpt lat="39.581565" lon="-8.40549333">
        <ele>69.0</ele>
        <time>2019-05-17T15:16:37.181Z</time>
      </trkpt>
      <trkpt lat="39.58155167" lon="-8.40554167">
        <ele>69.0</ele>
        <time>2019-05-17T15:16:38.154Z</time>
      </trkpt>
      <trkpt lat="39.58155167" lon="-8.40554167">
        <ele>69.0</ele>
        <time>2019-05-17T15:16:39.151Z</time>
      </trkpt>
      <trkpt lat="39.581535" lon="-8.405585">
        <ele>69.0</ele>
        <time>2019-05-17T15:16:40.174Z</time>
      </trkpt>
      <trkpt lat="39.58152667" lon="-8.405605">
        <ele>69.0</ele>
        <time>2019-05-17T15:16:41.167Z</time>
      </trkpt>
      <trkpt lat="39.58152667" lon="-8.405605">
        <ele>69.0</ele>
        <time>2019-05-17T15:16:42.150Z</time>
      </trkpt>
      <trkpt lat="39.58151167" lon="-8.40565">
        <ele>70.0</ele>
        <time>2019-05-17T15:16:43.194Z</time>
      </trkpt>
      <trkpt lat="39.581505" lon="-8.40567167">
        <ele>70.0</ele>
        <time>2019-05-17T15:16:44.165Z</time>
      </trkpt>
      <trkpt lat="39.581505" lon="-8.40567167">
        <ele>70.0</ele>
        <time>2019-05-17T15:16:45.176Z</time>
      </trkpt>
      <trkpt lat="39.58149333" lon="-8.40570833">
        <ele>70.0</ele>
        <time>2019-05-17T15:16:46.171Z</time>
      </trkpt>
      <trkpt lat="39.58149333" lon="-8.40570833">
        <ele>70.0</ele>
        <time>2019-05-17T15:16:47.179Z</time>
      </trkpt>
      <trkpt lat="39.58148333" lon="-8.40575">
        <ele>70.0</ele>
        <time>2019-05-17T15:16:48.192Z</time>
      </trkpt>
      <trkpt lat="39.58148333" lon="-8.40575">
        <ele>70.0</ele>
        <time>2019-05-17T15:16:49.173Z</time>
      </trkpt>
      <trkpt lat="39.581475" lon="-8.40579167">
        <ele>71.0</ele>
        <time>2019-05-17T15:16:50.159Z</time>
      </trkpt>
      <trkpt lat="39.581475" lon="-8.40579167">
        <ele>71.0</ele>
        <time>2019-05-17T15:16:51.171Z</time>
      </trkpt>
      <trkpt lat="39.58146833" lon="-8.405835">
        <ele>71.0</ele>
        <time>2019-05-17T15:16:52.165Z</time>
      </trkpt>
      <trkpt lat="39.58146833" lon="-8.405835">
        <ele>71.0</ele>
        <time>2019-05-17T15:16:53.162Z</time>
      </trkpt>
      <trkpt lat="39.58146667" lon="-8.40588">
        <ele>71.0</ele>
        <time>2019-05-17T15:16:54.155Z</time>
      </trkpt>
      <trkpt lat="39.58146667" lon="-8.40588">
        <ele>71.0</ele>
        <time>2019-05-17T15:16:55.182Z</time>
      </trkpt>
      <trkpt lat="39.581465" lon="-8.405925">
        <ele>71.0</ele>
        <time>2019-05-17T15:16:56.168Z</time>
      </trkpt>
      <trkpt lat="39.581465" lon="-8.405925">
        <ele>71.0</ele>
        <time>2019-05-17T15:16:57.186Z</time>
      </trkpt>
      <trkpt lat="39.58147" lon="-8.40597167">
        <ele>71.0</ele>
        <time>2019-05-17T15:16:58.195Z</time>
      </trkpt>
      <trkpt lat="39.58147" lon="-8.40597167">
        <ele>71.0</ele>
        <time>2019-05-17T15:16:59.165Z</time>
      </trkpt>
      <trkpt lat="39.581475" lon="-8.40601667">
        <ele>72.0</ele>
        <time>2019-05-17T15:17:00.158Z</time>
      </trkpt>
      <trkpt lat="39.58147667" lon="-8.40603667">
        <ele>72.0</ele>
        <time>2019-05-17T15:17:01.195Z</time>
      </trkpt>
      <trkpt lat="39.58147667" lon="-8.40605833">
        <ele>72.0</ele>
        <time>2019-05-17T15:17:02.186Z</time>
      </trkpt>
      <trkpt lat="39.58147667" lon="-8.40605833">
        <ele>72.0</ele>
        <time>2019-05-17T15:17:03.151Z</time>
      </trkpt>
      <trkpt lat="39.58148167" lon="-8.406095">
        <ele>72.0</ele>
        <time>2019-05-17T15:17:04.167Z</time>
      </trkpt>
      <trkpt lat="39.58148167" lon="-8.406095">
        <ele>72.0</ele>
        <time>2019-05-17T15:17:05.178Z</time>
      </trkpt>
      <trkpt lat="39.58149" lon="-8.40614">
        <ele>72.0</ele>
        <time>2019-05-17T15:17:06.175Z</time>
      </trkpt>
      <trkpt lat="39.58149" lon="-8.40614">
        <ele>72.0</ele>
        <time>2019-05-17T15:17:07.187Z</time>
      </trkpt>
      <trkpt lat="39.58149833" lon="-8.40619">
        <ele>73.0</ele>
        <time>2019-05-17T15:17:08.156Z</time>
      </trkpt>
      <trkpt lat="39.58149833" lon="-8.40619">
        <ele>73.0</ele>
        <time>2019-05-17T15:17:09.163Z</time>
      </trkpt>
      <trkpt lat="39.581505" lon="-8.40623833">
        <ele>73.0</ele>
        <time>2019-05-17T15:17:10.204Z</time>
      </trkpt>
      <trkpt lat="39.58151167" lon="-8.40625667">
        <ele>73.0</ele>
        <time>2019-05-17T15:17:11.173Z</time>
      </trkpt>
      <trkpt lat="39.58151833" lon="-8.40627333">
        <ele>73.0</ele>
        <time>2019-05-17T15:17:12.158Z</time>
      </trkpt>
      <trkpt lat="39.58151833" lon="-8.40627333">
        <ele>73.0</ele>
        <time>2019-05-17T15:17:13.170Z</time>
      </trkpt>
      <trkpt lat="39.58152333" lon="-8.406305">
        <ele>73.0</ele>
        <time>2019-05-17T15:17:14.169Z</time>
      </trkpt>
      <trkpt lat="39.58152333" lon="-8.406305">
        <ele>73.0</ele>
        <time>2019-05-17T15:17:15.151Z</time>
      </trkpt>
      <trkpt lat="39.58153333" lon="-8.40633333">
        <ele>73.0</ele>
        <time>2019-05-17T15:17:16.155Z</time>
      </trkpt>
      <trkpt lat="39.58153333" lon="-8.40633333">
        <ele>73.0</ele>
        <time>2019-05-17T15:17:17.169Z</time>
      </trkpt>
      <trkpt lat="39.58154" lon="-8.406375">
        <ele>73.0</ele>
        <time>2019-05-17T15:17:18.166Z</time>
      </trkpt>
      <trkpt lat="39.58154" lon="-8.406375">
        <ele>73.0</ele>
        <time>2019-05-17T15:17:19.164Z</time>
      </trkpt>
      <trkpt lat="39.58155" lon="-8.406415">
        <ele>74.0</ele>
        <time>2019-05-17T15:17:20.158Z</time>
      </trkpt>
      <trkpt lat="39.58155" lon="-8.406415">
        <ele>74.0</ele>
        <time>2019-05-17T15:17:21.161Z</time>
      </trkpt>
      <trkpt lat="39.58155667" lon="-8.40645833">
        <ele>74.0</ele>
        <time>2019-05-17T15:17:22.157Z</time>
      </trkpt>
      <trkpt lat="39.58155667" lon="-8.40645833">
        <ele>74.0</ele>
        <time>2019-05-17T15:17:23.178Z</time>
      </trkpt>
      <trkpt lat="39.58156833" lon="-8.4065">
        <ele>74.0</ele>
        <time>2019-05-17T15:17:24.185Z</time>
      </trkpt>
      <trkpt lat="39.58156833" lon="-8.4065">
        <ele>74.0</ele>
        <time>2019-05-17T15:17:25.176Z</time>
      </trkpt>
      <trkpt lat="39.58158" lon="-8.40654">
        <ele>75.0</ele>
        <time>2019-05-17T15:17:26.175Z</time>
      </trkpt>
      <trkpt lat="39.58158333" lon="-8.40656167">
        <ele>75.0</ele>
        <time>2019-05-17T15:17:27.172Z</time>
      </trkpt>
      <trkpt lat="39.58158333" lon="-8.40656167">
        <ele>75.0</ele>
        <time>2019-05-17T15:17:28.182Z</time>
      </trkpt>
      <trkpt lat="39.58159167" lon="-8.40660167">
        <ele>75.0</ele>
        <time>2019-05-17T15:17:29.185Z</time>
      </trkpt>
      <trkpt lat="39.58159667" lon="-8.40662">
        <ele>75.0</ele>
        <time>2019-05-17T15:17:30.181Z</time>
      </trkpt>
      <trkpt lat="39.58160167" lon="-8.40664">
        <ele>75.0</ele>
        <time>2019-05-17T15:17:31.152Z</time>
      </trkpt>
      <trkpt lat="39.581605" lon="-8.40666">
        <ele>75.0</ele>
        <time>2019-05-17T15:17:32.189Z</time>
      </trkpt>
      <trkpt lat="39.581605" lon="-8.40666">
        <ele>75.0</ele>
        <time>2019-05-17T15:17:33.182Z</time>
      </trkpt>
      <trkpt lat="39.58161333" lon="-8.40669667">
        <ele>76.0</ele>
        <time>2019-05-17T15:17:34.186Z</time>
      </trkpt>
      <trkpt lat="39.58161833" lon="-8.40671333">
        <ele>76.0</ele>
        <time>2019-05-17T15:17:35.179Z</time>
      </trkpt>
      <trkpt lat="39.58161833" lon="-8.40671333">
        <ele>76.0</ele>
        <time>2019-05-17T15:17:36.154Z</time>
      </trkpt>
      <trkpt lat="39.58162667" lon="-8.40674833">
        <ele>76.0</ele>
        <time>2019-05-17T15:17:37.150Z</time>
      </trkpt>
      <trkpt lat="39.58163167" lon="-8.406765">
        <ele>76.0</ele>
        <time>2019-05-17T15:17:38.183Z</time>
      </trkpt>
      <trkpt lat="39.58163167" lon="-8.406765">
        <ele>76.0</ele>
        <time>2019-05-17T15:17:39.181Z</time>
      </trkpt>
      <trkpt lat="39.58164" lon="-8.406805">
        <ele>77.0</ele>
        <time>2019-05-17T15:17:40.184Z</time>
      </trkpt>
      <trkpt lat="39.58164" lon="-8.406805">
        <ele>77.0</ele>
        <time>2019-05-17T15:17:41.168Z</time>
      </trkpt>
      <trkpt lat="39.58164667" lon="-8.40684333">
        <ele>77.0</ele>
        <time>2019-05-17T15:17:42.161Z</time>
      </trkpt>
      <trkpt lat="39.58164667" lon="-8.40684333">
        <ele>77.0</ele>
        <time>2019-05-17T15:17:43.155Z</time>
      </trkpt>
      <trkpt lat="39.58165333" lon="-8.40689167">
        <ele>77.0</ele>
        <time>2019-05-17T15:17:44.165Z</time>
      </trkpt>
      <trkpt lat="39.58165333" lon="-8.40689167">
        <ele>77.0</ele>
        <time>2019-05-17T15:17:45.187Z</time>
      </trkpt>
      <trkpt lat="39.58166333" lon="-8.40695">
        <ele>78.0</ele>
        <time>2019-05-17T15:17:46.150Z</time>
      </trkpt>
      <trkpt lat="39.58166333" lon="-8.40695">
        <ele>78.0</ele>
        <time>2019-05-17T15:17:47.178Z</time>
      </trkpt>
      <trkpt lat="39.581675" lon="-8.40699667">
        <ele>78.0</ele>
        <time>2019-05-17T15:17:48.165Z</time>
      </trkpt>
      <trkpt lat="39.58168" lon="-8.40701667">
        <ele>78.0</ele>
        <time>2019-05-17T15:17:49.165Z</time>
      </trkpt>
      <trkpt lat="39.58168333" lon="-8.40704">
        <ele>78.0</ele>
        <time>2019-05-17T15:17:50.155Z</time>
      </trkpt>
      <trkpt lat="39.58168333" lon="-8.40704">
        <ele>78.0</ele>
        <time>2019-05-17T15:17:51.167Z</time>
      </trkpt>
      <trkpt lat="39.58169" lon="-8.40708167">
        <ele>79.0</ele>
        <time>2019-05-17T15:17:52.175Z</time>
      </trkpt>
      <trkpt lat="39.58169" lon="-8.40708167">
        <ele>79.0</ele>
        <time>2019-05-17T15:17:53.175Z</time>
      </trkpt>
      <trkpt lat="39.58169667" lon="-8.40712">
        <ele>79.0</ele>
        <time>2019-05-17T15:17:54.178Z</time>
      </trkpt>
      <trkpt lat="39.5817" lon="-8.40714">
        <ele>79.0</ele>
        <time>2019-05-17T15:17:55.186Z</time>
      </trkpt>
      <trkpt lat="39.58170333" lon="-8.40716">
        <ele>80.0</ele>
        <time>2019-05-17T15:17:56.168Z</time>
      </trkpt>
      <trkpt lat="39.58170833" lon="-8.40718">
        <ele>80.0</ele>
        <time>2019-05-17T15:17:57.154Z</time>
      </trkpt>
      <trkpt lat="39.58170833" lon="-8.40718">
        <ele>80.0</ele>
        <time>2019-05-17T15:17:58.163Z</time>
      </trkpt>
      <trkpt lat="39.58171833" lon="-8.40721833">
        <ele>80.0</ele>
        <time>2019-05-17T15:17:59.159Z</time>
      </trkpt>
      <trkpt lat="39.58172167" lon="-8.40723667">
        <ele>80.0</ele>
        <time>2019-05-17T15:18:00.151Z</time>
      </trkpt>
      <trkpt lat="39.58172167" lon="-8.40723667">
        <ele>80.0</ele>
        <time>2019-05-17T15:18:01.166Z</time>
      </trkpt>
      <trkpt lat="39.58172333" lon="-8.40727667">
        <ele>80.0</ele>
        <time>2019-05-17T15:18:02.170Z</time>
      </trkpt>
      <trkpt lat="39.58172333" lon="-8.40727667">
        <ele>80.0</ele>
        <time>2019-05-17T15:18:03.183Z</time>
      </trkpt>
      <trkpt lat="39.581725" lon="-8.40731333">
        <ele>81.0</ele>
        <time>2019-05-17T15:18:04.185Z</time>
      </trkpt>
      <trkpt lat="39.58172667" lon="-8.40733">
        <ele>81.0</ele>
        <time>2019-05-17T15:18:05.185Z</time>
      </trkpt>
      <trkpt lat="39.58172667" lon="-8.40733">
        <ele>81.0</ele>
        <time>2019-05-17T15:18:06.152Z</time>
      </trkpt>
      <trkpt lat="39.58173167" lon="-8.40737">
        <ele>81.0</ele>
        <time>2019-05-17T15:18:07.175Z</time>
      </trkpt>
      <trkpt lat="39.58173333" lon="-8.40739">
        <ele>81.0</ele>
        <time>2019-05-17T15:18:08.163Z</time>
      </trkpt>
      <trkpt lat="39.58173333" lon="-8.40739">
        <ele>81.0</ele>
        <time>2019-05-17T15:18:09.151Z</time>
      </trkpt>
      <trkpt lat="39.581735" lon="-8.40742333">
        <ele>81.0</ele>
        <time>2019-05-17T15:18:10.188Z</time>
      </trkpt>
      <trkpt lat="39.581735" lon="-8.40742333">
        <ele>81.0</ele>
        <time>2019-05-17T15:18:11.163Z</time>
      </trkpt>
      <trkpt lat="39.58174167" lon="-8.40745333">
        <ele>81.0</ele>
        <time>2019-05-17T15:18:12.186Z</time>
      </trkpt>
      <trkpt lat="39.58174167" lon="-8.40745333">
        <ele>81.0</ele>
        <time>2019-05-17T15:18:13.157Z</time>
      </trkpt>
      <trkpt lat="39.58174667" lon="-8.40749">
        <ele>81.0</ele>
        <time>2019-05-17T15:18:14.155Z</time>
      </trkpt>
      <trkpt lat="39.58174833" lon="-8.40750833">
        <ele>81.0</ele>
        <time>2019-05-17T15:18:15.188Z</time>
      </trkpt>
      <trkpt lat="39.58174833" lon="-8.40750833">
        <ele>81.0</ele>
        <time>2019-05-17T15:18:16.164Z</time>
      </trkpt>
      <trkpt lat="39.58174667" lon="-8.40754333">
        <ele>81.0</ele>
        <time>2019-05-17T15:18:17.163Z</time>
      </trkpt>
      <trkpt lat="39.58174667" lon="-8.40754333">
        <ele>81.0</ele>
        <time>2019-05-17T15:18:18.164Z</time>
      </trkpt>
      <trkpt lat="39.58174167" lon="-8.40757333">
        <ele>81.0</ele>
        <time>2019-05-17T15:18:19.154Z</time>
      </trkpt>
      <trkpt lat="39.58173833" lon="-8.40758">
        <ele>81.0</ele>
        <time>2019-05-17T15:18:20.177Z</time>
      </trkpt>
      <trkpt lat="39.58173833" lon="-8.40758">
        <ele>81.0</ele>
        <time>2019-05-17T15:18:21.167Z</time>
      </trkpt>
      <trkpt lat="39.58174" lon="-8.40758333">
        <ele>81.0</ele>
        <time>2019-05-17T15:18:22.174Z</time>
      </trkpt>
      <trkpt lat="39.58174" lon="-8.40758333">
        <ele>81.0</ele>
        <time>2019-05-17T15:18:23.188Z</time>
      </trkpt>
      <trkpt lat="39.58174" lon="-8.40758333">
        <ele>81.0</ele>
        <time>2019-05-17T15:18:24.179Z</time>
      </trkpt>
      <trkpt lat="39.58174" lon="-8.40758333">
        <ele>81.0</ele>
        <time>2019-05-17T15:18:25.185Z</time>
      </trkpt>
      <trkpt lat="39.58174" lon="-8.40758333">
        <ele>81.0</ele>
        <time>2019-05-17T15:18:26.151Z</time>
      </trkpt>
      <trkpt lat="39.58174" lon="-8.40758333">
        <ele>81.0</ele>
        <time>2019-05-17T15:18:27.164Z</time>
      </trkpt>
      <trkpt lat="39.58174" lon="-8.40758333">
        <ele>81.0</ele>
        <time>2019-05-17T15:18:28.154Z</time>
      </trkpt>
      <trkpt lat="39.58174" lon="-8.40758333">
        <ele>81.0</ele>
        <time>2019-05-17T15:18:29.182Z</time>
      </trkpt>
      <trkpt lat="39.58174" lon="-8.40758333">
        <ele>81.0</ele>
        <time>2019-05-17T15:18:30.174Z</time>
      </trkpt>
      <trkpt lat="39.58174" lon="-8.40758333">
        <ele>81.0</ele>
        <time>2019-05-17T15:18:31.174Z</time>
      </trkpt>
      <trkpt lat="39.58174" lon="-8.40758333">
        <ele>81.0</ele>
        <time>2019-05-17T15:18:32.172Z</time>
      </trkpt>
      <trkpt lat="39.58174" lon="-8.40758333">
        <ele>81.0</ele>
        <time>2019-05-17T15:18:33.173Z</time>
      </trkpt>
      <trkpt lat="39.58174" lon="-8.40758333">
        <ele>81.0</ele>
        <time>2019-05-17T15:18:34.169Z</time>
      </trkpt>
      <trkpt lat="39.58174" lon="-8.40758333">
        <ele>81.0</ele>
        <time>2019-05-17T15:18:35.174Z</time>
      </trkpt>
      <trkpt lat="39.58174" lon="-8.40758333">
        <ele>81.0</ele>
        <time>2019-05-17T15:18:36.170Z</time>
      </trkpt>
      <trkpt lat="39.58174" lon="-8.40758333">
        <ele>81.0</ele>
        <time>2019-05-17T15:18:37.174Z</time>
      </trkpt>
      <trkpt lat="39.58174" lon="-8.40758333">
        <ele>81.0</ele>
        <time>2019-05-17T15:18:38.173Z</time>
      </trkpt>
      <trkpt lat="39.58174" lon="-8.40758333">
        <ele>81.0</ele>
        <time>2019-05-17T15:18:39.174Z</time>
      </trkpt>
      <trkpt lat="39.58174" lon="-8.40758333">
        <ele>81.0</ele>
        <time>2019-05-17T15:18:40.170Z</time>
      </trkpt>
      <trkpt lat="39.58174" lon="-8.40758333">
        <ele>81.0</ele>
        <time>2019-05-17T15:18:41.174Z</time>
      </trkpt>
      <trkpt lat="39.58174" lon="-8.40758333">
        <ele>81.0</ele>
        <time>2019-05-17T15:18:42.172Z</time>
      </trkpt>
      <trkpt lat="39.58174" lon="-8.40758333">
        <ele>81.0</ele>
        <time>2019-05-17T15:18:43.175Z</time>
      </trkpt>
      <trkpt lat="39.58174" lon="-8.40758333">
        <ele>81.0</ele>
        <time>2019-05-17T15:18:44.171Z</time>
      </trkpt>
      <trkpt lat="39.58174" lon="-8.40758333">
        <ele>81.0</ele>
        <time>2019-05-17T15:18:45.175Z</time>
      </trkpt>
      <trkpt lat="39.58174" lon="-8.40758333">
        <ele>81.0</ele>
        <time>2019-05-17T15:18:46.170Z</time>
      </trkpt>
      <trkpt lat="39.58174" lon="-8.40758333">
        <ele>81.0</ele>
        <time>2019-05-17T15:18:47.174Z</time>
      </trkpt>
      <trkpt lat="39.58174" lon="-8.40758333">
        <ele>81.0</ele>
        <time>2019-05-17T15:18:48.176Z</time>
      </trkpt>
      <trkpt lat="39.58174" lon="-8.40758333">
        <ele>81.0</ele>
        <time>2019-05-17T15:18:49.176Z</time>
      </trkpt>
      <trkpt lat="39.58174" lon="-8.40758333">
        <ele>81.0</ele>
        <time>2019-05-17T15:18:50.171Z</time>
      </trkpt>
      <trkpt lat="39.58174" lon="-8.40758333">
        <ele>81.0</ele>
        <time>2019-05-17T15:18:51.174Z</time>
      </trkpt>
      <trkpt lat="39.58174" lon="-8.40758333">
        <ele>81.0</ele>
        <time>2019-05-17T15:18:52.170Z</time>
      </trkpt>
      <trkpt lat="39.58174" lon="-8.40758333">
        <ele>81.0</ele>
        <time>2019-05-17T15:18:53.175Z</time>
      </trkpt>
      <trkpt lat="39.58174" lon="-8.40758333">
        <ele>81.0</ele>
        <time>2019-05-17T15:18:54.170Z</time>
      </trkpt>
      <trkpt lat="39.58174" lon="-8.40758333">
        <ele>81.0</ele>
        <time>2019-05-17T15:18:55.176Z</time>
      </trkpt>
      <trkpt lat="39.58174" lon="-8.40758333">
        <ele>81.0</ele>
        <time>2019-05-17T15:18:56.178Z</time>
      </trkpt>
      <trkpt lat="39.58174" lon="-8.40758333">
        <ele>81.0</ele>
        <time>2019-05-17T15:18:57.176Z</time>
      </trkpt>
      <trkpt lat="39.58174" lon="-8.40758333">
        <ele>81.0</ele>
        <time>2019-05-17T15:18:58.170Z</time>
      </trkpt>
      <trkpt lat="39.58174" lon="-8.40758333">
        <ele>81.0</ele>
        <time>2019-05-17T15:18:59.175Z</time>
      </trkpt>
      <trkpt lat="39.58174" lon="-8.40758333">
        <ele>81.0</ele>
        <time>2019-05-17T15:19:00.174Z</time>
      </trkpt>
      <trkpt lat="39.58174" lon="-8.40758333">
        <ele>81.0</ele>
        <time>2019-05-17T15:19:01.175Z</time>
      </trkpt>
      <trkpt lat="39.58174" lon="-8.40758333">
        <ele>81.0</ele>
        <time>2019-05-17T15:19:02.179Z</time>
      </trkpt>
      <trkpt lat="39.58174" lon="-8.40758333">
        <ele>81.0</ele>
        <time>2019-05-17T15:19:03.175Z</time>
      </trkpt>
      <trkpt lat="39.58174" lon="-8.40758333">
        <ele>81.0</ele>
        <time>2019-05-17T15:19:04.170Z</time>
      </trkpt>
      <trkpt lat="39.58174" lon="-8.40758333">
        <ele>81.0</ele>
        <time>2019-05-17T15:19:05.174Z</time>
      </trkpt>
      <trkpt lat="39.58174" lon="-8.40758333">
        <ele>81.0</ele>
        <time>2019-05-17T15:19:06.172Z</time>
      </trkpt>
      <trkpt lat="39.58174" lon="-8.40758333">
        <ele>81.0</ele>
        <time>2019-05-17T15:19:07.175Z</time>
      </trkpt>
      <trkpt lat="39.58174" lon="-8.40758333">
        <ele>81.0</ele>
        <time>2019-05-17T15:19:08.178Z</time>
      </trkpt>
      <trkpt lat="39.58174" lon="-8.40758333">
        <ele>81.0</ele>
        <time>2019-05-17T15:19:09.182Z</time>
      </trkpt>
      <trkpt lat="39.58174" lon="-8.40758333">
        <ele>81.0</ele>
        <time>2019-05-17T15:19:10.163Z</time>
      </trkpt>
      <trkpt lat="39.58174" lon="-8.40758333">
        <ele>81.0</ele>
        <time>2019-05-17T15:19:11.173Z</time>
      </trkpt>
      <trkpt lat="39.58174" lon="-8.40758333">
        <ele>81.0</ele>
        <time>2019-05-17T15:19:12.180Z</time>
      </trkpt>
      <trkpt lat="39.58174" lon="-8.40758333">
        <ele>81.0</ele>
        <time>2019-05-17T15:19:13.175Z</time>
      </trkpt>
      <trkpt lat="39.58174" lon="-8.40758333">
        <ele>81.0</ele>
        <time>2019-05-17T15:19:14.177Z</time>
      </trkpt>
      <trkpt lat="39.58174" lon="-8.40758333">
        <ele>81.0</ele>
        <time>2019-05-17T15:19:15.150Z</time>
      </trkpt>
      <trkpt lat="39.58174" lon="-8.40758333">
        <ele>81.0</ele>
        <time>2019-05-17T15:19:16.178Z</time>
      </trkpt>
      <trkpt lat="39.58174" lon="-8.40758333">
        <ele>81.0</ele>
        <time>2019-05-17T15:19:17.169Z</time>
      </trkpt>
      <trkpt lat="39.58174" lon="-8.40758333">
        <ele>81.0</ele>
        <time>2019-05-17T15:19:18.172Z</time>
      </trkpt>
      <trkpt lat="39.58174" lon="-8.40758333">
        <ele>81.0</ele>
        <time>2019-05-17T15:19:19.179Z</time>
      </trkpt>
      <trkpt lat="39.58174" lon="-8.40758333">
        <ele>81.0</ele>
        <time>2019-05-17T15:19:20.172Z</time>
      </trkpt>
      <trkpt lat="39.58174" lon="-8.40758333">
        <ele>81.0</ele>
        <time>2019-05-17T15:19:21.173Z</time>
      </trkpt>
      <trkpt lat="39.58174" lon="-8.40758333">
        <ele>81.0</ele>
        <time>2019-05-17T15:19:22.171Z</time>
      </trkpt>
      <trkpt lat="39.58174" lon="-8.40758333">
        <ele>81.0</ele>
        <time>2019-05-17T15:19:23.175Z</time>
      </trkpt>
      <trkpt lat="39.58174" lon="-8.40758333">
        <ele>81.0</ele>
        <time>2019-05-17T15:19:24.175Z</time>
      </trkpt>
      <trkpt lat="39.58174" lon="-8.40758333">
        <ele>81.0</ele>
        <time>2019-05-17T15:19:25.174Z</time>
      </trkpt>
      <trkpt lat="39.58174" lon="-8.40758333">
        <ele>81.0</ele>
        <time>2019-05-17T15:19:26.172Z</time>
      </trkpt>
      <trkpt lat="39.58174" lon="-8.40758333">
        <ele>81.0</ele>
        <time>2019-05-17T15:19:27.175Z</time>
      </trkpt>
      <trkpt lat="39.58174" lon="-8.40758333">
        <ele>81.0</ele>
        <time>2019-05-17T15:19:28.172Z</time>
      </trkpt>
      <trkpt lat="39.58174" lon="-8.40758333">
        <ele>81.0</ele>
        <time>2019-05-17T15:19:29.174Z</time>
      </trkpt>
      <trkpt lat="39.58174" lon="-8.40758333">
        <ele>81.0</ele>
        <time>2019-05-17T15:19:30.172Z</time>
      </trkpt>
      <trkpt lat="39.58174" lon="-8.40758333">
        <ele>81.0</ele>
        <time>2019-05-17T15:19:31.175Z</time>
      </trkpt>
      <trkpt lat="39.58174" lon="-8.40758333">
        <ele>81.0</ele>
        <time>2019-05-17T15:19:32.172Z</time>
      </trkpt>
      <trkpt lat="39.58174" lon="-8.40758333">
        <ele>81.0</ele>
        <time>2019-05-17T15:19:33.174Z</time>
      </trkpt>
      <trkpt lat="39.58174" lon="-8.40758333">
        <ele>81.0</ele>
        <time>2019-05-17T15:19:34.176Z</time>
      </trkpt>
      <trkpt lat="39.58174" lon="-8.40758333">
        <ele>81.0</ele>
        <time>2019-05-17T15:19:35.175Z</time>
      </trkpt>
      <trkpt lat="39.58174" lon="-8.40758333">
        <ele>81.0</ele>
        <time>2019-05-17T15:19:36.172Z</time>
      </trkpt>
      <trkpt lat="39.58174" lon="-8.40758333">
        <ele>81.0</ele>
        <time>2019-05-17T15:19:37.174Z</time>
      </trkpt>
      <trkpt lat="39.58174" lon="-8.40758333">
        <ele>81.0</ele>
        <time>2019-05-17T15:19:38.172Z</time>
      </trkpt>
      <trkpt lat="39.58174" lon="-8.40758333">
        <ele>81.0</ele>
        <time>2019-05-17T15:19:39.175Z</time>
      </trkpt>
      <trkpt lat="39.58174" lon="-8.40758333">
        <ele>81.0</ele>
        <time>2019-05-17T15:19:40.169Z</time>
      </trkpt>
      <trkpt lat="39.58174" lon="-8.40758333">
        <ele>81.0</ele>
        <time>2019-05-17T15:19:41.174Z</time>
      </trkpt>
      <trkpt lat="39.58174" lon="-8.40758333">
        <ele>81.0</ele>
        <time>2019-05-17T15:19:42.173Z</time>
      </trkpt>
      <trkpt lat="39.58174" lon="-8.40758333">
        <ele>81.0</ele>
        <time>2019-05-17T15:19:43.173Z</time>
      </trkpt>
      <trkpt lat="39.58174" lon="-8.40758333">
        <ele>81.0</ele>
        <time>2019-05-17T15:19:44.151Z</time>
      </trkpt>
      <trkpt lat="39.58174" lon="-8.40758333">
        <ele>81.0</ele>
        <time>2019-05-17T15:19:45.176Z</time>
      </trkpt>
      <trkpt lat="39.58174" lon="-8.40758333">
        <ele>81.0</ele>
        <time>2019-05-17T15:19:46.176Z</time>
      </trkpt>
      <trkpt lat="39.58174" lon="-8.40758333">
        <ele>81.0</ele>
        <time>2019-05-17T15:19:47.172Z</time>
      </trkpt>
      <trkpt lat="39.58174" lon="-8.40758333">
        <ele>81.0</ele>
        <time>2019-05-17T15:19:48.174Z</time>
      </trkpt>
      <trkpt lat="39.58174" lon="-8.40758333">
        <ele>81.0</ele>
        <time>2019-05-17T15:19:49.174Z</time>
      </trkpt>
      <trkpt lat="39.58174" lon="-8.40758333">
        <ele>81.0</ele>
        <time>2019-05-17T15:19:50.179Z</time>
      </trkpt>
      <trkpt lat="39.58174" lon="-8.40758333">
        <ele>81.0</ele>
        <time>2019-05-17T15:19:51.171Z</time>
      </trkpt>
      <trkpt lat="39.58174" lon="-8.40758333">
        <ele>81.0</ele>
        <time>2019-05-17T15:19:52.177Z</time>
      </trkpt>
      <trkpt lat="39.58174" lon="-8.40758333">
        <ele>81.0</ele>
        <time>2019-05-17T15:19:53.173Z</time>
      </trkpt>
      <trkpt lat="39.58174" lon="-8.40758333">
        <ele>81.0</ele>
        <time>2019-05-17T15:19:54.185Z</time>
      </trkpt>
      <trkpt lat="39.58174" lon="-8.40758333">
        <ele>81.0</ele>
        <time>2019-05-17T15:19:55.169Z</time>
      </trkpt>
      <trkpt lat="39.58174" lon="-8.40758333">
        <ele>81.0</ele>
        <time>2019-05-17T15:19:56.177Z</time>
      </trkpt>
      <trkpt lat="39.58174" lon="-8.40758333">
        <ele>81.0</ele>
        <time>2019-05-17T15:19:57.172Z</time>
      </trkpt>
      <trkpt lat="39.58174" lon="-8.40758333">
        <ele>81.0</ele>
        <time>2019-05-17T15:19:58.175Z</time>
      </trkpt>
      <trkpt lat="39.58174" lon="-8.40758333">
        <ele>81.0</ele>
        <time>2019-05-17T15:19:59.169Z</time>
      </trkpt>
      <trkpt lat="39.58174" lon="-8.40758333">
        <ele>81.0</ele>
        <time>2019-05-17T15:20:00.174Z</time>
      </trkpt>
      <trkpt lat="39.58174" lon="-8.40758333">
        <ele>81.0</ele>
        <time>2019-05-17T15:20:01.172Z</time>
      </trkpt>
      <trkpt lat="39.58174" lon="-8.40758333">
        <ele>81.0</ele>
        <time>2019-05-17T15:20:02.177Z</time>
      </trkpt>
      <trkpt lat="39.58174" lon="-8.40758333">
        <ele>81.0</ele>
        <time>2019-05-17T15:20:03.171Z</time>
      </trkpt>
      <trkpt lat="39.58174" lon="-8.40758333">
        <ele>81.0</ele>
        <time>2019-05-17T15:20:04.175Z</time>
      </trkpt>
      <trkpt lat="39.58174" lon="-8.40758333">
        <ele>81.0</ele>
        <time>2019-05-17T15:20:05.176Z</time>
      </trkpt>
      <trkpt lat="39.58174" lon="-8.40758333">
        <ele>81.0</ele>
        <time>2019-05-17T15:20:06.172Z</time>
      </trkpt>
      <trkpt lat="39.58174333" lon="-8.40761">
        <ele>81.0</ele>
        <time>2019-05-17T15:20:07.174Z</time>
      </trkpt>
      <trkpt lat="39.58174333" lon="-8.40761">
        <ele>81.0</ele>
        <time>2019-05-17T15:20:08.172Z</time>
      </trkpt>
      <trkpt lat="39.58173833" lon="-8.40764167">
        <ele>81.0</ele>
        <time>2019-05-17T15:20:09.177Z</time>
      </trkpt>
      <trkpt lat="39.58173833" lon="-8.40764167">
        <ele>81.0</ele>
        <time>2019-05-17T15:20:10.162Z</time>
      </trkpt>
      <trkpt lat="39.58172833" lon="-8.40767333">
        <ele>81.0</ele>
        <time>2019-05-17T15:20:11.168Z</time>
      </trkpt>
      <trkpt lat="39.58173" lon="-8.40769667">
        <ele>81.0</ele>
        <time>2019-05-17T15:20:12.174Z</time>
      </trkpt>
      <trkpt lat="39.58173167" lon="-8.40772">
        <ele>81.0</ele>
        <time>2019-05-17T15:20:13.153Z</time>
      </trkpt>
      <trkpt lat="39.58173167" lon="-8.40772">
        <ele>81.0</ele>
        <time>2019-05-17T15:20:14.184Z</time>
      </trkpt>
      <trkpt lat="39.58173667" lon="-8.40777167">
        <ele>81.0</ele>
        <time>2019-05-17T15:20:15.174Z</time>
      </trkpt>
      <trkpt lat="39.58173667" lon="-8.40777167">
        <ele>81.0</ele>
        <time>2019-05-17T15:20:16.166Z</time>
      </trkpt>
      <trkpt lat="39.58173833" lon="-8.40782833">
        <ele>81.0</ele>
        <time>2019-05-17T15:20:17.165Z</time>
      </trkpt>
      <trkpt lat="39.58173833" lon="-8.40782833">
        <ele>81.0</ele>
        <time>2019-05-17T15:20:18.157Z</time>
      </trkpt>
      <trkpt lat="39.581735" lon="-8.407885">
        <ele>81.0</ele>
        <time>2019-05-17T15:20:19.159Z</time>
      </trkpt>
      <trkpt lat="39.581735" lon="-8.407885">
        <ele>81.0</ele>
        <time>2019-05-17T15:20:20.169Z</time>
      </trkpt>
      <trkpt lat="39.58173167" lon="-8.40794833">
        <ele>81.0</ele>
        <time>2019-05-17T15:20:21.167Z</time>
      </trkpt>
      <trkpt lat="39.58173167" lon="-8.40794833">
        <ele>81.0</ele>
        <time>2019-05-17T15:20:22.185Z</time>
      </trkpt>
      <trkpt lat="39.58172833" lon="-8.40801333">
        <ele>81.0</ele>
        <time>2019-05-17T15:20:23.176Z</time>
      </trkpt>
      <trkpt lat="39.58172833" lon="-8.40801333">
        <ele>81.0</ele>
        <time>2019-05-17T15:20:24.178Z</time>
      </trkpt>
      <trkpt lat="39.58172667" lon="-8.40808">
        <ele>81.0</ele>
        <time>2019-05-17T15:20:25.150Z</time>
      </trkpt>
      <trkpt lat="39.581725" lon="-8.408115">
        <ele>81.0</ele>
        <time>2019-05-17T15:20:26.161Z</time>
      </trkpt>
      <trkpt lat="39.581725" lon="-8.408115">
        <ele>81.0</ele>
        <time>2019-05-17T15:20:27.168Z</time>
      </trkpt>
      <trkpt lat="39.58171333" lon="-8.40817333">
        <ele>81.0</ele>
        <time>2019-05-17T15:20:28.155Z</time>
      </trkpt>
      <trkpt lat="39.58171333" lon="-8.40817333">
        <ele>81.0</ele>
        <time>2019-05-17T15:20:29.158Z</time>
      </trkpt>
      <trkpt lat="39.58170333" lon="-8.40823667">
        <ele>81.0</ele>
        <time>2019-05-17T15:20:30.158Z</time>
      </trkpt>
      <trkpt lat="39.58170333" lon="-8.40823667">
        <ele>81.0</ele>
        <time>2019-05-17T15:20:31.175Z</time>
      </trkpt>
      <trkpt lat="39.58169" lon="-8.40829667">
        <ele>81.0</ele>
        <time>2019-05-17T15:20:32.175Z</time>
      </trkpt>
      <trkpt lat="39.58169" lon="-8.40829667">
        <ele>81.0</ele>
        <time>2019-05-17T15:20:33.168Z</time>
      </trkpt>
      <trkpt lat="39.581685" lon="-8.408355">
        <ele>81.0</ele>
        <time>2019-05-17T15:20:34.172Z</time>
      </trkpt>
      <trkpt lat="39.581685" lon="-8.408355">
        <ele>81.0</ele>
        <time>2019-05-17T15:20:35.187Z</time>
      </trkpt>
      <trkpt lat="39.58167333" lon="-8.40842">
        <ele>81.0</ele>
        <time>2019-05-17T15:20:36.154Z</time>
      </trkpt>
      <trkpt lat="39.58167333" lon="-8.40842">
        <ele>81.0</ele>
        <time>2019-05-17T15:20:37.150Z</time>
      </trkpt>
      <trkpt lat="39.58166167" lon="-8.4085">
        <ele>81.0</ele>
        <time>2019-05-17T15:20:38.185Z</time>
      </trkpt>
      <trkpt lat="39.58166167" lon="-8.4085">
        <ele>81.0</ele>
        <time>2019-05-17T15:20:39.164Z</time>
      </trkpt>
      <trkpt lat="39.58164333" lon="-8.40857833">
        <ele>81.0</ele>
        <time>2019-05-17T15:20:40.160Z</time>
      </trkpt>
      <trkpt lat="39.58164333" lon="-8.40857833">
        <ele>81.0</ele>
        <time>2019-05-17T15:20:41.177Z</time>
      </trkpt>
      <trkpt lat="39.58162167" lon="-8.40865667">
        <ele>81.0</ele>
        <time>2019-05-17T15:20:42.175Z</time>
      </trkpt>
      <trkpt lat="39.58162167" lon="-8.40865667">
        <ele>81.0</ele>
        <time>2019-05-17T15:20:43.182Z</time>
      </trkpt>
      <trkpt lat="39.58160333" lon="-8.408735">
        <ele>81.0</ele>
        <time>2019-05-17T15:20:44.193Z</time>
      </trkpt>
      <trkpt lat="39.58160333" lon="-8.408735">
        <ele>81.0</ele>
        <time>2019-05-17T15:20:45.189Z</time>
      </trkpt>
      <trkpt lat="39.581585" lon="-8.40881667">
        <ele>81.0</ele>
        <time>2019-05-17T15:20:46.195Z</time>
      </trkpt>
      <trkpt lat="39.581585" lon="-8.40881667">
        <ele>81.0</ele>
        <time>2019-05-17T15:20:47.179Z</time>
      </trkpt>
      <trkpt lat="39.58157167" lon="-8.40889167">
        <ele>81.0</ele>
        <time>2019-05-17T15:20:48.174Z</time>
      </trkpt>
      <trkpt lat="39.58157167" lon="-8.40889167">
        <ele>81.0</ele>
        <time>2019-05-17T15:20:49.152Z</time>
      </trkpt>
      <trkpt lat="39.581575" lon="-8.40896333">
        <ele>81.0</ele>
        <time>2019-05-17T15:20:50.190Z</time>
      </trkpt>
      <trkpt lat="39.581575" lon="-8.40896333">
        <ele>81.0</ele>
        <time>2019-05-17T15:20:51.169Z</time>
      </trkpt>
      <trkpt lat="39.58160333" lon="-8.40902">
        <ele>81.0</ele>
        <time>2019-05-17T15:20:52.162Z</time>
      </trkpt>
      <trkpt lat="39.58160333" lon="-8.40902">
        <ele>81.0</ele>
        <time>2019-05-17T15:20:53.180Z</time>
      </trkpt>
      <trkpt lat="39.58164833" lon="-8.40905667">
        <ele>81.0</ele>
        <time>2019-05-17T15:20:54.165Z</time>
      </trkpt>
      <trkpt lat="39.58164833" lon="-8.40905667">
        <ele>81.0</ele>
        <time>2019-05-17T15:20:55.176Z</time>
      </trkpt>
      <trkpt lat="39.581705" lon="-8.40907333">
        <ele>81.0</ele>
        <time>2019-05-17T15:20:56.166Z</time>
      </trkpt>
      <trkpt lat="39.581705" lon="-8.40907333">
        <ele>81.0</ele>
        <time>2019-05-17T15:20:57.164Z</time>
      </trkpt>
      <trkpt lat="39.581765" lon="-8.40908333">
        <ele>81.0</ele>
        <time>2019-05-17T15:20:58.158Z</time>
      </trkpt>
      <trkpt lat="39.581765" lon="-8.40908333">
        <ele>81.0</ele>
        <time>2019-05-17T15:20:59.164Z</time>
      </trkpt>
      <trkpt lat="39.58183" lon="-8.40908167">
        <ele>81.0</ele>
        <time>2019-05-17T15:21:00.155Z</time>
      </trkpt>
      <trkpt lat="39.58186333" lon="-8.409085">
        <ele>81.0</ele>
        <time>2019-05-17T15:21:01.158Z</time>
      </trkpt>
      <trkpt lat="39.58189667" lon="-8.40908667">
        <ele>81.0</ele>
        <time>2019-05-17T15:21:02.181Z</time>
      </trkpt>
      <trkpt lat="39.58189667" lon="-8.40908667">
        <ele>81.0</ele>
        <time>2019-05-17T15:21:03.155Z</time>
      </trkpt>
      <trkpt lat="39.581965" lon="-8.40909">
        <ele>81.0</ele>
        <time>2019-05-17T15:21:04.156Z</time>
      </trkpt>
      <trkpt lat="39.58199833" lon="-8.40909">
        <ele>81.0</ele>
        <time>2019-05-17T15:21:05.155Z</time>
      </trkpt>
      <trkpt lat="39.58199833" lon="-8.40909">
        <ele>81.0</ele>
        <time>2019-05-17T15:21:06.170Z</time>
      </trkpt>
      <trkpt lat="39.58206833" lon="-8.40909333">
        <ele>80.0</ele>
        <time>2019-05-17T15:21:07.156Z</time>
      </trkpt>
      <trkpt lat="39.58210333" lon="-8.409095">
        <ele>80.0</ele>
        <time>2019-05-17T15:21:08.156Z</time>
      </trkpt>
      <trkpt lat="39.58210333" lon="-8.409095">
        <ele>80.0</ele>
        <time>2019-05-17T15:21:09.176Z</time>
      </trkpt>
      <trkpt lat="39.58217667" lon="-8.40909833">
        <ele>80.0</ele>
        <time>2019-05-17T15:21:10.175Z</time>
      </trkpt>
      <trkpt lat="39.58217667" lon="-8.40909833">
        <ele>80.0</ele>
        <time>2019-05-17T15:21:11.154Z</time>
      </trkpt>
      <trkpt lat="39.58225167" lon="-8.40909833">
        <ele>80.0</ele>
        <time>2019-05-17T15:21:12.173Z</time>
      </trkpt>
      <trkpt lat="39.58225167" lon="-8.40909833">
        <ele>80.0</ele>
        <time>2019-05-17T15:21:13.162Z</time>
      </trkpt>
      <trkpt lat="39.58233" lon="-8.4091">
        <ele>79.0</ele>
        <time>2019-05-17T15:21:14.195Z</time>
      </trkpt>
      <trkpt lat="39.58233" lon="-8.4091">
        <ele>79.0</ele>
        <time>2019-05-17T15:21:15.176Z</time>
      </trkpt>
      <trkpt lat="39.58241667" lon="-8.409095">
        <ele>79.0</ele>
        <time>2019-05-17T15:21:16.178Z</time>
      </trkpt>
      <trkpt lat="39.58241667" lon="-8.409095">
        <ele>79.0</ele>
        <time>2019-05-17T15:21:17.152Z</time>
      </trkpt>
      <trkpt lat="39.58252" lon="-8.409085">
        <ele>78.0</ele>
        <time>2019-05-17T15:21:18.193Z</time>
      </trkpt>
      <trkpt lat="39.58257667" lon="-8.40907833">
        <ele>77.0</ele>
        <time>2019-05-17T15:21:19.168Z</time>
      </trkpt>
      <trkpt lat="39.58263667" lon="-8.409065">
        <ele>77.0</ele>
        <time>2019-05-17T15:21:20.154Z</time>
      </trkpt>
      <trkpt lat="39.58263667" lon="-8.409065">
        <ele>77.0</ele>
        <time>2019-05-17T15:21:21.189Z</time>
      </trkpt>
      <trkpt lat="39.58276" lon="-8.40903">
        <ele>76.0</ele>
        <time>2019-05-17T15:21:22.188Z</time>
      </trkpt>
      <trkpt lat="39.58276" lon="-8.40903">
        <ele>76.0</ele>
        <time>2019-05-17T15:21:23.184Z</time>
      </trkpt>
      <trkpt lat="39.582895" lon="-8.40898">
        <ele>74.0</ele>
        <time>2019-05-17T15:21:24.195Z</time>
      </trkpt>
      <trkpt lat="39.582895" lon="-8.40898">
        <ele>74.0</ele>
        <time>2019-05-17T15:21:25.166Z</time>
      </trkpt>
      <trkpt lat="39.58304" lon="-8.40891833">
        <ele>73.0</ele>
        <time>2019-05-17T15:21:26.189Z</time>
      </trkpt>
      <trkpt lat="39.58304" lon="-8.40891833">
        <ele>73.0</ele>
        <time>2019-05-17T15:21:27.169Z</time>
      </trkpt>
      <trkpt lat="39.583195" lon="-8.40885167">
        <ele>72.0</ele>
        <time>2019-05-17T15:21:28.173Z</time>
      </trkpt>
      <trkpt lat="39.583195" lon="-8.40885167">
        <ele>72.0</ele>
        <time>2019-05-17T15:21:29.150Z</time>
      </trkpt>
      <trkpt lat="39.58336167" lon="-8.40878167">
        <ele>70.0</ele>
        <time>2019-05-17T15:21:30.160Z</time>
      </trkpt>
      <trkpt lat="39.58336167" lon="-8.40878167">
        <ele>70.0</ele>
        <time>2019-05-17T15:21:31.153Z</time>
      </trkpt>
      <trkpt lat="39.58353667" lon="-8.40870667">
        <ele>69.0</ele>
        <time>2019-05-17T15:21:32.162Z</time>
      </trkpt>
      <trkpt lat="39.58353667" lon="-8.40870667">
        <ele>69.0</ele>
        <time>2019-05-17T15:21:33.150Z</time>
      </trkpt>
      <trkpt lat="39.58372" lon="-8.40862333">
        <ele>67.0</ele>
        <time>2019-05-17T15:21:34.175Z</time>
      </trkpt>
      <trkpt lat="39.58381167" lon="-8.40857667">
        <ele>66.0</ele>
        <time>2019-05-17T15:21:35.182Z</time>
      </trkpt>
      <trkpt lat="39.58381167" lon="-8.40857667">
        <ele>66.0</ele>
        <time>2019-05-17T15:21:36.173Z</time>
      </trkpt>
      <trkpt lat="39.58399833" lon="-8.40846833">
        <ele>64.0</ele>
        <time>2019-05-17T15:21:37.171Z</time>
      </trkpt>
      <trkpt lat="39.58409167" lon="-8.40840667">
        <ele>63.0</ele>
        <time>2019-05-17T15:21:38.273Z</time>
      </trkpt>
      <trkpt lat="39.58409167" lon="-8.40840667">
        <ele>63.0</ele>
        <time>2019-05-17T15:21:39.179Z</time>
      </trkpt>
      <trkpt lat="39.584275" lon="-8.40827">
        <ele>62.0</ele>
        <time>2019-05-17T15:21:40.168Z</time>
      </trkpt>
      <trkpt lat="39.584275" lon="-8.40827">
        <ele>62.0</ele>
        <time>2019-05-17T15:21:41.162Z</time>
      </trkpt>
      <trkpt lat="39.58445667" lon="-8.40811667">
        <ele>60.0</ele>
        <time>2019-05-17T15:21:42.165Z</time>
      </trkpt>
      <trkpt lat="39.58454" lon="-8.40804167">
        <ele>60.0</ele>
        <time>2019-05-17T15:21:43.163Z</time>
      </trkpt>
      <trkpt lat="39.58454" lon="-8.40804167">
        <ele>60.0</ele>
        <time>2019-05-17T15:21:44.179Z</time>
      </trkpt>
      <trkpt lat="39.58469833" lon="-8.407895">
        <ele>58.0</ele>
        <time>2019-05-17T15:21:45.175Z</time>
      </trkpt>
      <trkpt lat="39.584775" lon="-8.40782833">
        <ele>58.0</ele>
        <time>2019-05-17T15:21:46.161Z</time>
      </trkpt>
      <trkpt lat="39.584775" lon="-8.40782833">
        <ele>58.0</ele>
        <time>2019-05-17T15:21:47.167Z</time>
      </trkpt>
      <trkpt lat="39.58491333" lon="-8.40771167">
        <ele>57.0</ele>
        <time>2019-05-17T15:21:48.151Z</time>
      </trkpt>
      <trkpt lat="39.58497167" lon="-8.40766833">
        <ele>57.0</ele>
        <time>2019-05-17T15:21:49.157Z</time>
      </trkpt>
      <trkpt lat="39.585025" lon="-8.40763333">
        <ele>57.0</ele>
        <time>2019-05-17T15:21:50.152Z</time>
      </trkpt>
      <trkpt lat="39.585025" lon="-8.40763333">
        <ele>57.0</ele>
        <time>2019-05-17T15:21:51.154Z</time>
      </trkpt>
      <trkpt lat="39.585125" lon="-8.40757667">
        <ele>56.0</ele>
        <time>2019-05-17T15:21:52.156Z</time>
      </trkpt>
      <trkpt lat="39.585125" lon="-8.40757667">
        <ele>56.0</ele>
        <time>2019-05-17T15:21:53.168Z</time>
      </trkpt>
      <trkpt lat="39.58523667" lon="-8.40753833">
        <ele>56.0</ele>
        <time>2019-05-17T15:21:54.152Z</time>
      </trkpt>
      <trkpt lat="39.58529" lon="-8.40752333">
        <ele>56.0</ele>
        <time>2019-05-17T15:21:55.185Z</time>
      </trkpt>
      <trkpt lat="39.585345" lon="-8.40751167">
        <ele>56.0</ele>
        <time>2019-05-17T15:21:56.175Z</time>
      </trkpt>
      <trkpt lat="39.585345" lon="-8.40751167">
        <ele>56.0</ele>
        <time>2019-05-17T15:21:57.161Z</time>
      </trkpt>
      <trkpt lat="39.58545" lon="-8.4075">
        <ele>56.0</ele>
        <time>2019-05-17T15:21:58.172Z</time>
      </trkpt>
      <trkpt lat="39.58550333" lon="-8.4075">
        <ele>56.0</ele>
        <time>2019-05-17T15:21:59.159Z</time>
      </trkpt>
      <trkpt lat="39.58550333" lon="-8.4075">
        <ele>56.0</ele>
        <time>2019-05-17T15:22:00.165Z</time>
      </trkpt>
      <trkpt lat="39.585605" lon="-8.40751">
        <ele>56.0</ele>
        <time>2019-05-17T15:22:01.165Z</time>
      </trkpt>
      <trkpt lat="39.585655" lon="-8.40751833">
        <ele>56.0</ele>
        <time>2019-05-17T15:22:02.164Z</time>
      </trkpt>
      <trkpt lat="39.585655" lon="-8.40751833">
        <ele>56.0</ele>
        <time>2019-05-17T15:22:03.159Z</time>
      </trkpt>
      <trkpt lat="39.58575333" lon="-8.40754">
        <ele>56.0</ele>
        <time>2019-05-17T15:22:04.158Z</time>
      </trkpt>
      <trkpt lat="39.5858" lon="-8.40755333">
        <ele>56.0</ele>
        <time>2019-05-17T15:22:05.175Z</time>
      </trkpt>
      <trkpt lat="39.5858" lon="-8.40755333">
        <ele>56.0</ele>
        <time>2019-05-17T15:22:06.176Z</time>
      </trkpt>
      <trkpt lat="39.58589167" lon="-8.40758667">
        <ele>56.0</ele>
        <time>2019-05-17T15:22:07.159Z</time>
      </trkpt>
      <trkpt lat="39.58589167" lon="-8.40758667">
        <ele>56.0</ele>
        <time>2019-05-17T15:22:08.158Z</time>
      </trkpt>
      <trkpt lat="39.58597833" lon="-8.40763167">
        <ele>56.0</ele>
        <time>2019-05-17T15:22:09.220Z</time>
      </trkpt>
      <trkpt lat="39.58597833" lon="-8.40763167">
        <ele>56.0</ele>
        <time>2019-05-17T15:22:10.151Z</time>
      </trkpt>
      <trkpt lat="39.58606333" lon="-8.40768">
        <ele>56.0</ele>
        <time>2019-05-17T15:22:11.180Z</time>
      </trkpt>
      <trkpt lat="39.58610667" lon="-8.40770333">
        <ele>56.0</ele>
        <time>2019-05-17T15:22:12.174Z</time>
      </trkpt>
      <trkpt lat="39.58610667" lon="-8.40770333">
        <ele>56.0</ele>
        <time>2019-05-17T15:22:13.165Z</time>
      </trkpt>
      <trkpt lat="39.58618667" lon="-8.407755">
        <ele>56.0</ele>
        <time>2019-05-17T15:22:14.153Z</time>
      </trkpt>
      <trkpt lat="39.58618667" lon="-8.407755">
        <ele>56.0</ele>
        <time>2019-05-17T15:22:15.166Z</time>
      </trkpt>
      <trkpt lat="39.586265" lon="-8.40780167">
        <ele>56.0</ele>
        <time>2019-05-17T15:22:16.166Z</time>
      </trkpt>
      <trkpt lat="39.586265" lon="-8.40780167">
        <ele>56.0</ele>
        <time>2019-05-17T15:22:17.182Z</time>
      </trkpt>
      <trkpt lat="39.586335" lon="-8.40784333">
        <ele>56.0</ele>
        <time>2019-05-17T15:22:18.185Z</time>
      </trkpt>
      <trkpt lat="39.586335" lon="-8.40784333">
        <ele>56.0</ele>
        <time>2019-05-17T15:22:19.171Z</time>
      </trkpt>
      <trkpt lat="39.58639833" lon="-8.40788167">
        <ele>57.0</ele>
        <time>2019-05-17T15:22:20.155Z</time>
      </trkpt>
      <trkpt lat="39.58639833" lon="-8.40788167">
        <ele>57.0</ele>
        <time>2019-05-17T15:22:21.155Z</time>
      </trkpt>
      <trkpt lat="39.58646167" lon="-8.40792167">
        <ele>57.0</ele>
        <time>2019-05-17T15:22:22.185Z</time>
      </trkpt>
      <trkpt lat="39.58646167" lon="-8.40792167">
        <ele>57.0</ele>
        <time>2019-05-17T15:22:23.153Z</time>
      </trkpt>
      <trkpt lat="39.58652167" lon="-8.40795833">
        <ele>58.0</ele>
        <time>2019-05-17T15:22:24.155Z</time>
      </trkpt>
      <trkpt lat="39.58655167" lon="-8.40797667">
        <ele>58.0</ele>
        <time>2019-05-17T15:22:25.189Z</time>
      </trkpt>
      <trkpt lat="39.58655167" lon="-8.40797667">
        <ele>58.0</ele>
        <time>2019-05-17T15:22:26.154Z</time>
      </trkpt>
      <trkpt lat="39.58660333" lon="-8.40801333">
        <ele>59.0</ele>
        <time>2019-05-17T15:22:27.165Z</time>
      </trkpt>
      <trkpt lat="39.58660333" lon="-8.40801333">
        <ele>59.0</ele>
        <time>2019-05-17T15:22:28.162Z</time>
      </trkpt>
      <trkpt lat="39.58666" lon="-8.40804167">
        <ele>58.0</ele>
        <time>2019-05-17T15:22:29.152Z</time>
      </trkpt>
      <trkpt lat="39.586685" lon="-8.40805667">
        <ele>59.0</ele>
        <time>2019-05-17T15:22:30.156Z</time>
      </trkpt>
      <trkpt lat="39.586685" lon="-8.40805667">
        <ele>59.0</ele>
        <time>2019-05-17T15:22:31.176Z</time>
      </trkpt>
      <trkpt lat="39.586735" lon="-8.40809">
        <ele>59.0</ele>
        <time>2019-05-17T15:22:32.163Z</time>
      </trkpt>
      <trkpt lat="39.586735" lon="-8.40809">
        <ele>59.0</ele>
        <time>2019-05-17T15:22:33.165Z</time>
      </trkpt>
      <trkpt lat="39.586785" lon="-8.40812167">
        <ele>60.0</ele>
        <time>2019-05-17T15:22:34.155Z</time>
      </trkpt>
      <trkpt lat="39.586785" lon="-8.40812167">
        <ele>60.0</ele>
        <time>2019-05-17T15:22:35.178Z</time>
      </trkpt>
      <trkpt lat="39.58683167" lon="-8.40815">
        <ele>61.0</ele>
        <time>2019-05-17T15:22:36.195Z</time>
      </trkpt>
      <trkpt lat="39.58683167" lon="-8.40815">
        <ele>61.0</ele>
        <time>2019-05-17T15:22:37.164Z</time>
      </trkpt>
      <trkpt lat="39.58687833" lon="-8.40817667">
        <ele>61.0</ele>
        <time>2019-05-17T15:22:38.155Z</time>
      </trkpt>
      <trkpt lat="39.58687833" lon="-8.40817667">
        <ele>61.0</ele>
        <time>2019-05-17T15:22:39.187Z</time>
      </trkpt>
      <trkpt lat="39.58692167" lon="-8.40820667">
        <ele>62.0</ele>
        <time>2019-05-17T15:22:40.185Z</time>
      </trkpt>
      <trkpt lat="39.58692167" lon="-8.40820667">
        <ele>62.0</ele>
        <time>2019-05-17T15:22:41.153Z</time>
      </trkpt>
      <trkpt lat="39.58696333" lon="-8.408235">
        <ele>63.0</ele>
        <time>2019-05-17T15:22:42.154Z</time>
      </trkpt>
      <trkpt lat="39.58698333" lon="-8.40824833">
        <ele>64.0</ele>
        <time>2019-05-17T15:22:43.157Z</time>
      </trkpt>
      <trkpt lat="39.58700167" lon="-8.40826">
        <ele>64.0</ele>
        <time>2019-05-17T15:22:44.155Z</time>
      </trkpt>
      <trkpt lat="39.58700167" lon="-8.40826">
        <ele>64.0</ele>
        <time>2019-05-17T15:22:45.187Z</time>
      </trkpt>
      <trkpt lat="39.58704333" lon="-8.40828333">
        <ele>64.0</ele>
        <time>2019-05-17T15:22:46.175Z</time>
      </trkpt>
      <trkpt lat="39.58706167" lon="-8.40829833">
        <ele>65.0</ele>
        <time>2019-05-17T15:22:47.175Z</time>
      </trkpt>
      <trkpt lat="39.58706167" lon="-8.40829833">
        <ele>65.0</ele>
        <time>2019-05-17T15:22:48.184Z</time>
      </trkpt>
      <trkpt lat="39.587105" lon="-8.40832333">
        <ele>65.0</ele>
        <time>2019-05-17T15:22:49.168Z</time>
      </trkpt>
      <trkpt lat="39.58712667" lon="-8.40833333">
        <ele>65.0</ele>
        <time>2019-05-17T15:22:50.178Z</time>
      </trkpt>
      <trkpt lat="39.58712667" lon="-8.40833333">
        <ele>65.0</ele>
        <time>2019-05-17T15:22:51.177Z</time>
      </trkpt>
      <trkpt lat="39.58717" lon="-8.40835833">
        <ele>66.0</ele>
        <time>2019-05-17T15:22:52.155Z</time>
      </trkpt>
      <trkpt lat="39.58717" lon="-8.40835833">
        <ele>66.0</ele>
        <time>2019-05-17T15:22:53.189Z</time>
      </trkpt>
      <trkpt lat="39.58721167" lon="-8.408385">
        <ele>66.0</ele>
        <time>2019-05-17T15:22:54.163Z</time>
      </trkpt>
      <trkpt lat="39.58723167" lon="-8.40839833">
        <ele>67.0</ele>
        <time>2019-05-17T15:22:55.175Z</time>
      </trkpt>
      <trkpt lat="39.58725167" lon="-8.40841167">
        <ele>67.0</ele>
        <time>2019-05-17T15:22:56.172Z</time>
      </trkpt>
      <trkpt lat="39.58725167" lon="-8.40841167">
        <ele>67.0</ele>
        <time>2019-05-17T15:22:57.171Z</time>
      </trkpt>
      <trkpt lat="39.58728667" lon="-8.40843167">
        <ele>67.0</ele>
        <time>2019-05-17T15:22:58.185Z</time>
      </trkpt>
      <trkpt lat="39.58728667" lon="-8.40843167">
        <ele>67.0</ele>
        <time>2019-05-17T15:22:59.151Z</time>
      </trkpt>
      <trkpt lat="39.587325" lon="-8.40845333">
        <ele>68.0</ele>
        <time>2019-05-17T15:23:00.190Z</time>
      </trkpt>
      <trkpt lat="39.58734167" lon="-8.40846333">
        <ele>68.0</ele>
        <time>2019-05-17T15:23:01.178Z</time>
      </trkpt>
      <trkpt lat="39.58734167" lon="-8.40846333">
        <ele>68.0</ele>
        <time>2019-05-17T15:23:02.150Z</time>
      </trkpt>
      <trkpt lat="39.587375" lon="-8.408485">
        <ele>69.0</ele>
        <time>2019-05-17T15:23:03.185Z</time>
      </trkpt>
      <trkpt lat="39.587395" lon="-8.40849833">
        <ele>69.0</ele>
        <time>2019-05-17T15:23:04.158Z</time>
      </trkpt>
      <trkpt lat="39.587395" lon="-8.40849833">
        <ele>69.0</ele>
        <time>2019-05-17T15:23:05.187Z</time>
      </trkpt>
      <trkpt lat="39.58742833" lon="-8.40851833">
        <ele>70.0</ele>
        <time>2019-05-17T15:23:06.187Z</time>
      </trkpt>
      <trkpt lat="39.58744333" lon="-8.40852833">
        <ele>70.0</ele>
        <time>2019-05-17T15:23:07.168Z</time>
      </trkpt>
      <trkpt lat="39.58746167" lon="-8.40854">
        <ele>70.0</ele>
        <time>2019-05-17T15:23:08.183Z</time>
      </trkpt>
      <trkpt lat="39.58746167" lon="-8.40854">
        <ele>70.0</ele>
        <time>2019-05-17T15:23:09.164Z</time>
      </trkpt>
      <trkpt lat="39.587495" lon="-8.408565">
        <ele>71.0</ele>
        <time>2019-05-17T15:23:10.160Z</time>
      </trkpt>
      <trkpt lat="39.587495" lon="-8.408565">
        <ele>71.0</ele>
        <time>2019-05-17T15:23:11.153Z</time>
      </trkpt>
      <trkpt lat="39.58753333" lon="-8.40858667">
        <ele>71.0</ele>
        <time>2019-05-17T15:23:12.161Z</time>
      </trkpt>
      <trkpt lat="39.58753333" lon="-8.40858667">
        <ele>71.0</ele>
        <time>2019-05-17T15:23:13.169Z</time>
      </trkpt>
      <trkpt lat="39.58757167" lon="-8.40861333">
        <ele>71.0</ele>
        <time>2019-05-17T15:23:14.168Z</time>
      </trkpt>
      <trkpt lat="39.58757167" lon="-8.40861333">
        <ele>71.0</ele>
        <time>2019-05-17T15:23:15.173Z</time>
      </trkpt>
      <trkpt lat="39.58760833" lon="-8.40864">
        <ele>72.0</ele>
        <time>2019-05-17T15:23:16.182Z</time>
      </trkpt>
      <trkpt lat="39.58760833" lon="-8.40864">
        <ele>72.0</ele>
        <time>2019-05-17T15:23:17.150Z</time>
      </trkpt>
      <trkpt lat="39.58765167" lon="-8.40865667">
        <ele>71.0</ele>
        <time>2019-05-17T15:23:18.182Z</time>
      </trkpt>
      <trkpt lat="39.58767167" lon="-8.40866833">
        <ele>71.0</ele>
        <time>2019-05-17T15:23:19.193Z</time>
      </trkpt>
      <trkpt lat="39.58769167" lon="-8.40867833">
        <ele>71.0</ele>
        <time>2019-05-17T15:23:20.195Z</time>
      </trkpt>
      <trkpt lat="39.58769167" lon="-8.40867833">
        <ele>71.0</ele>
        <time>2019-05-17T15:23:21.162Z</time>
      </trkpt>
      <trkpt lat="39.58772" lon="-8.40869833">
        <ele>72.0</ele>
        <time>2019-05-17T15:23:22.162Z</time>
      </trkpt>
      <trkpt lat="39.58772" lon="-8.40869833">
        <ele>72.0</ele>
        <time>2019-05-17T15:23:23.168Z</time>
      </trkpt>
      <trkpt lat="39.58775167" lon="-8.40871667">
        <ele>72.0</ele>
        <time>2019-05-17T15:23:24.162Z</time>
      </trkpt>
      <trkpt lat="39.58777333" lon="-8.408725">
        <ele>72.0</ele>
        <time>2019-05-17T15:23:25.169Z</time>
      </trkpt>
      <trkpt lat="39.58779667" lon="-8.40873333">
        <ele>72.0</ele>
        <time>2019-05-17T15:23:26.170Z</time>
      </trkpt>
      <trkpt lat="39.58779667" lon="-8.40873333">
        <ele>72.0</ele>
        <time>2019-05-17T15:23:27.154Z</time>
      </trkpt>
      <trkpt lat="39.587845" lon="-8.40875833">
        <ele>73.0</ele>
        <time>2019-05-17T15:23:28.151Z</time>
      </trkpt>
      <trkpt lat="39.587845" lon="-8.40875833">
        <ele>73.0</ele>
        <time>2019-05-17T15:23:29.158Z</time>
      </trkpt>
      <trkpt lat="39.58788167" lon="-8.40877833">
        <ele>72.0</ele>
        <time>2019-05-17T15:23:30.161Z</time>
      </trkpt>
      <trkpt lat="39.58788167" lon="-8.40877833">
        <ele>72.0</ele>
        <time>2019-05-17T15:23:31.188Z</time>
      </trkpt>
      <trkpt lat="39.58791833" lon="-8.408795">
        <ele>73.0</ele>
        <time>2019-05-17T15:23:32.180Z</time>
      </trkpt>
      <trkpt lat="39.58791833" lon="-8.408795">
        <ele>73.0</ele>
        <time>2019-05-17T15:23:33.176Z</time>
      </trkpt>
      <trkpt lat="39.58795667" lon="-8.40881">
        <ele>73.0</ele>
        <time>2019-05-17T15:23:34.165Z</time>
      </trkpt>
      <trkpt lat="39.58795667" lon="-8.40881">
        <ele>73.0</ele>
        <time>2019-05-17T15:23:35.151Z</time>
      </trkpt>
      <trkpt lat="39.58799333" lon="-8.40882667">
        <ele>73.0</ele>
        <time>2019-05-17T15:23:36.152Z</time>
      </trkpt>
      <trkpt lat="39.58799333" lon="-8.40882667">
        <ele>73.0</ele>
        <time>2019-05-17T15:23:37.162Z</time>
      </trkpt>
      <trkpt lat="39.58803167" lon="-8.40884">
        <ele>73.0</ele>
        <time>2019-05-17T15:23:38.153Z</time>
      </trkpt>
      <trkpt lat="39.58803167" lon="-8.40884">
        <ele>73.0</ele>
        <time>2019-05-17T15:23:39.184Z</time>
      </trkpt>
      <trkpt lat="39.58807" lon="-8.408855">
        <ele>73.0</ele>
        <time>2019-05-17T15:23:40.187Z</time>
      </trkpt>
      <trkpt lat="39.58809167" lon="-8.40886167">
        <ele>73.0</ele>
        <time>2019-05-17T15:23:41.175Z</time>
      </trkpt>
      <trkpt lat="39.58809167" lon="-8.40886167">
        <ele>73.0</ele>
        <time>2019-05-17T15:23:42.183Z</time>
      </trkpt>
      <trkpt lat="39.58812833" lon="-8.40887667">
        <ele>73.0</ele>
        <time>2019-05-17T15:23:43.185Z</time>
      </trkpt>
      <trkpt lat="39.58812833" lon="-8.40887667">
        <ele>73.0</ele>
        <time>2019-05-17T15:23:44.182Z</time>
      </trkpt>
      <trkpt lat="39.588165" lon="-8.40888333">
        <ele>73.0</ele>
        <time>2019-05-17T15:23:45.175Z</time>
      </trkpt>
      <trkpt lat="39.588165" lon="-8.40888333">
        <ele>73.0</ele>
        <time>2019-05-17T15:23:46.180Z</time>
      </trkpt>
      <trkpt lat="39.5882" lon="-8.40889333">
        <ele>73.0</ele>
        <time>2019-05-17T15:23:47.182Z</time>
      </trkpt>
      <trkpt lat="39.5882" lon="-8.40889333">
        <ele>73.0</ele>
        <time>2019-05-17T15:23:48.181Z</time>
      </trkpt>
      <trkpt lat="39.58824" lon="-8.40890167">
        <ele>73.0</ele>
        <time>2019-05-17T15:23:49.176Z</time>
      </trkpt>
      <trkpt lat="39.58825833" lon="-8.408905">
        <ele>73.0</ele>
        <time>2019-05-17T15:23:50.164Z</time>
      </trkpt>
      <trkpt lat="39.58825833" lon="-8.408905">
        <ele>73.0</ele>
        <time>2019-05-17T15:23:51.150Z</time>
      </trkpt>
      <trkpt lat="39.58828" lon="-8.40890833">
        <ele>73.0</ele>
        <time>2019-05-17T15:23:52.157Z</time>
      </trkpt>
      <trkpt lat="39.58827833" lon="-8.40891">
        <ele>73.0</ele>
        <time>2019-05-17T15:23:53.166Z</time>
      </trkpt>
      <trkpt lat="39.58827833" lon="-8.40891">
        <ele>73.0</ele>
        <time>2019-05-17T15:23:54.162Z</time>
      </trkpt>
      <trkpt lat="39.58827833" lon="-8.40891333">
        <ele>73.0</ele>
        <time>2019-05-17T15:23:55.165Z</time>
      </trkpt>
      <trkpt lat="39.58827833" lon="-8.40891333">
        <ele>73.0</ele>
        <time>2019-05-17T15:23:56.170Z</time>
      </trkpt>
      <trkpt lat="39.58827833" lon="-8.40891333">
        <ele>73.0</ele>
        <time>2019-05-17T15:23:57.175Z</time>
      </trkpt>
      <trkpt lat="39.58827833" lon="-8.40891333">
        <ele>73.0</ele>
        <time>2019-05-17T15:23:58.181Z</time>
      </trkpt>
      <trkpt lat="39.58827833" lon="-8.40891333">
        <ele>73.0</ele>
        <time>2019-05-17T15:23:59.170Z</time>
      </trkpt>
      <trkpt lat="39.58827833" lon="-8.40891333">
        <ele>73.0</ele>
        <time>2019-05-17T15:24:00.176Z</time>
      </trkpt>
      <trkpt lat="39.58827833" lon="-8.40891333">
        <ele>73.0</ele>
        <time>2019-05-17T15:24:01.170Z</time>
      </trkpt>
      <trkpt lat="39.58827833" lon="-8.40891333">
        <ele>73.0</ele>
        <time>2019-05-17T15:24:02.177Z</time>
      </trkpt>
      <trkpt lat="39.58827833" lon="-8.40891333">
        <ele>73.0</ele>
        <time>2019-05-17T15:24:03.171Z</time>
      </trkpt>
      <trkpt lat="39.58827833" lon="-8.40891333">
        <ele>73.0</ele>
        <time>2019-05-17T15:24:04.175Z</time>
      </trkpt>
      <trkpt lat="39.58827833" lon="-8.40891333">
        <ele>73.0</ele>
        <time>2019-05-17T15:24:05.170Z</time>
      </trkpt>
      <trkpt lat="39.58827833" lon="-8.40891333">
        <ele>73.0</ele>
        <time>2019-05-17T15:24:06.175Z</time>
      </trkpt>
      <trkpt lat="39.58827833" lon="-8.40891333">
        <ele>73.0</ele>
        <time>2019-05-17T15:24:07.175Z</time>
      </trkpt>
      <trkpt lat="39.58827833" lon="-8.40891333">
        <ele>73.0</ele>
        <time>2019-05-17T15:24:08.174Z</time>
      </trkpt>
      <trkpt lat="39.58827833" lon="-8.40891333">
        <ele>73.0</ele>
        <time>2019-05-17T15:24:09.178Z</time>
      </trkpt>
      <trkpt lat="39.58827833" lon="-8.40891333">
        <ele>73.0</ele>
        <time>2019-05-17T15:24:10.179Z</time>
      </trkpt>
      <trkpt lat="39.58827833" lon="-8.40891333">
        <ele>73.0</ele>
        <time>2019-05-17T15:24:11.185Z</time>
      </trkpt>
      <trkpt lat="39.58827833" lon="-8.40891333">
        <ele>73.0</ele>
        <time>2019-05-17T15:24:12.151Z</time>
      </trkpt>
      <trkpt lat="39.58827833" lon="-8.40891333">
        <ele>73.0</ele>
        <time>2019-05-17T15:24:13.177Z</time>
      </trkpt>
      <trkpt lat="39.58827833" lon="-8.40891333">
        <ele>73.0</ele>
        <time>2019-05-17T15:24:14.175Z</time>
      </trkpt>
      <trkpt lat="39.58827833" lon="-8.40891333">
        <ele>73.0</ele>
        <time>2019-05-17T15:24:15.179Z</time>
      </trkpt>
      <trkpt lat="39.58827833" lon="-8.40891333">
        <ele>73.0</ele>
        <time>2019-05-17T15:24:16.175Z</time>
      </trkpt>
      <trkpt lat="39.58827833" lon="-8.40891333">
        <ele>73.0</ele>
        <time>2019-05-17T15:24:17.173Z</time>
      </trkpt>
      <trkpt lat="39.58827833" lon="-8.40891333">
        <ele>73.0</ele>
        <time>2019-05-17T15:24:18.175Z</time>
      </trkpt>
      <trkpt lat="39.58827833" lon="-8.40891333">
        <ele>73.0</ele>
        <time>2019-05-17T15:24:19.175Z</time>
      </trkpt>
      <trkpt lat="39.58827833" lon="-8.40891333">
        <ele>73.0</ele>
        <time>2019-05-17T15:24:20.176Z</time>
      </trkpt>
      <trkpt lat="39.58827833" lon="-8.40891333">
        <ele>73.0</ele>
        <time>2019-05-17T15:24:21.170Z</time>
      </trkpt>
      <trkpt lat="39.58827833" lon="-8.40891333">
        <ele>73.0</ele>
        <time>2019-05-17T15:24:22.175Z</time>
      </trkpt>
      <trkpt lat="39.58827833" lon="-8.40891333">
        <ele>73.0</ele>
        <time>2019-05-17T15:24:23.170Z</time>
      </trkpt>
      <trkpt lat="39.58827833" lon="-8.40891333">
        <ele>73.0</ele>
        <time>2019-05-17T15:24:24.175Z</time>
      </trkpt>
      <trkpt lat="39.58827833" lon="-8.40891333">
        <ele>73.0</ele>
        <time>2019-05-17T15:24:25.170Z</time>
      </trkpt>
      <trkpt lat="39.58827833" lon="-8.40891333">
        <ele>73.0</ele>
        <time>2019-05-17T15:24:26.178Z</time>
      </trkpt>
      <trkpt lat="39.58827833" lon="-8.40891333">
        <ele>73.0</ele>
        <time>2019-05-17T15:24:27.170Z</time>
      </trkpt>
      <trkpt lat="39.58827833" lon="-8.40891333">
        <ele>73.0</ele>
        <time>2019-05-17T15:24:28.174Z</time>
      </trkpt>
      <trkpt lat="39.58827833" lon="-8.40891333">
        <ele>73.0</ele>
        <time>2019-05-17T15:24:29.176Z</time>
      </trkpt>
      <trkpt lat="39.58827833" lon="-8.40891333">
        <ele>73.0</ele>
        <time>2019-05-17T15:24:30.170Z</time>
      </trkpt>
      <trkpt lat="39.58827833" lon="-8.40891333">
        <ele>73.0</ele>
        <time>2019-05-17T15:24:31.174Z</time>
      </trkpt>
      <trkpt lat="39.58827833" lon="-8.40891333">
        <ele>73.0</ele>
        <time>2019-05-17T15:24:32.176Z</time>
      </trkpt>
      <trkpt lat="39.58827833" lon="-8.40891333">
        <ele>73.0</ele>
        <time>2019-05-17T15:24:33.175Z</time>
      </trkpt>
      <trkpt lat="39.58827833" lon="-8.40891333">
        <ele>73.0</ele>
        <time>2019-05-17T15:24:34.173Z</time>
      </trkpt>
      <trkpt lat="39.58827833" lon="-8.40891333">
        <ele>73.0</ele>
        <time>2019-05-17T15:24:35.175Z</time>
      </trkpt>
      <trkpt lat="39.58827833" lon="-8.40891333">
        <ele>73.0</ele>
        <time>2019-05-17T15:24:36.170Z</time>
      </trkpt>
      <trkpt lat="39.58827833" lon="-8.40891333">
        <ele>73.0</ele>
        <time>2019-05-17T15:24:37.183Z</time>
      </trkpt>
      <trkpt lat="39.58827833" lon="-8.40891333">
        <ele>73.0</ele>
        <time>2019-05-17T15:24:38.173Z</time>
      </trkpt>
      <trkpt lat="39.58827833" lon="-8.40891333">
        <ele>73.0</ele>
        <time>2019-05-17T15:24:39.173Z</time>
      </trkpt>
      <trkpt lat="39.58827833" lon="-8.40891333">
        <ele>73.0</ele>
        <time>2019-05-17T15:24:40.175Z</time>
      </trkpt>
      <trkpt lat="39.58827833" lon="-8.40891333">
        <ele>73.0</ele>
        <time>2019-05-17T15:24:41.170Z</time>
      </trkpt>
      <trkpt lat="39.58827833" lon="-8.40891333">
        <ele>73.0</ele>
        <time>2019-05-17T15:24:42.175Z</time>
      </trkpt>
      <trkpt lat="39.58827833" lon="-8.40891333">
        <ele>73.0</ele>
        <time>2019-05-17T15:24:43.170Z</time>
      </trkpt>
      <trkpt lat="39.58827833" lon="-8.40891333">
        <ele>73.0</ele>
        <time>2019-05-17T15:24:44.179Z</time>
      </trkpt>
      <trkpt lat="39.58827833" lon="-8.40891333">
        <ele>73.0</ele>
        <time>2019-05-17T15:24:45.170Z</time>
      </trkpt>
      <trkpt lat="39.58827833" lon="-8.40891333">
        <ele>73.0</ele>
        <time>2019-05-17T15:24:46.175Z</time>
      </trkpt>
      <trkpt lat="39.58827833" lon="-8.40891333">
        <ele>73.0</ele>
        <time>2019-05-17T15:24:47.171Z</time>
      </trkpt>
      <trkpt lat="39.58827833" lon="-8.40891333">
        <ele>73.0</ele>
        <time>2019-05-17T15:24:48.172Z</time>
      </trkpt>
      <trkpt lat="39.58827833" lon="-8.40891333">
        <ele>73.0</ele>
        <time>2019-05-17T15:24:49.175Z</time>
      </trkpt>
      <trkpt lat="39.58827833" lon="-8.40891333">
        <ele>73.0</ele>
        <time>2019-05-17T15:24:50.180Z</time>
      </trkpt>
      <trkpt lat="39.58827833" lon="-8.40891333">
        <ele>73.0</ele>
        <time>2019-05-17T15:24:51.170Z</time>
      </trkpt>
      <trkpt lat="39.58827833" lon="-8.40891333">
        <ele>73.0</ele>
        <time>2019-05-17T15:24:52.175Z</time>
      </trkpt>
      <trkpt lat="39.58827833" lon="-8.40891333">
        <ele>73.0</ele>
        <time>2019-05-17T15:24:53.170Z</time>
      </trkpt>
      <trkpt lat="39.58827833" lon="-8.40891333">
        <ele>73.0</ele>
        <time>2019-05-17T15:24:54.175Z</time>
      </trkpt>
      <trkpt lat="39.58827833" lon="-8.40891333">
        <ele>73.0</ele>
        <time>2019-05-17T15:24:55.170Z</time>
      </trkpt>
      <trkpt lat="39.58827833" lon="-8.40891333">
        <ele>73.0</ele>
        <time>2019-05-17T15:24:56.177Z</time>
      </trkpt>
      <trkpt lat="39.58827833" lon="-8.40891333">
        <ele>73.0</ele>
        <time>2019-05-17T15:24:57.170Z</time>
      </trkpt>
      <trkpt lat="39.58827833" lon="-8.40891333">
        <ele>73.0</ele>
        <time>2019-05-17T15:24:58.155Z</time>
      </trkpt>
      <trkpt lat="39.58827833" lon="-8.40891333">
        <ele>73.0</ele>
        <time>2019-05-17T15:24:59.189Z</time>
      </trkpt>
      <trkpt lat="39.58827833" lon="-8.40891333">
        <ele>73.0</ele>
        <time>2019-05-17T15:25:00.176Z</time>
      </trkpt>
      <trkpt lat="39.58827833" lon="-8.40891333">
        <ele>73.0</ele>
        <time>2019-05-17T15:25:01.174Z</time>
      </trkpt>
      <trkpt lat="39.58827833" lon="-8.40891333">
        <ele>73.0</ele>
        <time>2019-05-17T15:25:02.178Z</time>
      </trkpt>
      <trkpt lat="39.58827833" lon="-8.40891333">
        <ele>73.0</ele>
        <time>2019-05-17T15:25:03.170Z</time>
      </trkpt>
      <trkpt lat="39.58827833" lon="-8.40891333">
        <ele>73.0</ele>
        <time>2019-05-17T15:25:04.155Z</time>
      </trkpt>
      <trkpt lat="39.58827833" lon="-8.40891333">
        <ele>73.0</ele>
        <time>2019-05-17T15:25:05.181Z</time>
      </trkpt>
      <trkpt lat="39.58827833" lon="-8.40891333">
        <ele>73.0</ele>
        <time>2019-05-17T15:25:06.175Z</time>
      </trkpt>
      <trkpt lat="39.58827833" lon="-8.40891333">
        <ele>73.0</ele>
        <time>2019-05-17T15:25:07.177Z</time>
      </trkpt>
      <trkpt lat="39.58827833" lon="-8.40891333">
        <ele>73.0</ele>
        <time>2019-05-17T15:25:08.175Z</time>
      </trkpt>
      <trkpt lat="39.58827833" lon="-8.40891333">
        <ele>73.0</ele>
        <time>2019-05-17T15:25:09.177Z</time>
      </trkpt>
      <trkpt lat="39.58827833" lon="-8.40891333">
        <ele>73.0</ele>
        <time>2019-05-17T15:25:10.189Z</time>
      </trkpt>
      <trkpt lat="39.58827833" lon="-8.40891333">
        <ele>73.0</ele>
        <time>2019-05-17T15:25:11.155Z</time>
      </trkpt>
      <trkpt lat="39.58827833" lon="-8.40891333">
        <ele>73.0</ele>
        <time>2019-05-17T15:25:12.162Z</time>
      </trkpt>
      <trkpt lat="39.58827833" lon="-8.40891333">
        <ele>73.0</ele>
        <time>2019-05-17T15:25:13.176Z</time>
      </trkpt>
      <trkpt lat="39.58827833" lon="-8.40891333">
        <ele>73.0</ele>
        <time>2019-05-17T15:25:14.178Z</time>
      </trkpt>
      <trkpt lat="39.58827833" lon="-8.40891333">
        <ele>73.0</ele>
        <time>2019-05-17T15:25:15.170Z</time>
      </trkpt>
      <trkpt lat="39.58827833" lon="-8.40891333">
        <ele>73.0</ele>
        <time>2019-05-17T15:25:16.151Z</time>
      </trkpt>
      <trkpt lat="39.58827833" lon="-8.40891333">
        <ele>73.0</ele>
        <time>2019-05-17T15:25:17.178Z</time>
      </trkpt>
      <trkpt lat="39.58827833" lon="-8.40891333">
        <ele>73.0</ele>
        <time>2019-05-17T15:25:18.173Z</time>
      </trkpt>
      <trkpt lat="39.58827833" lon="-8.40891333">
        <ele>73.0</ele>
        <time>2019-05-17T15:25:19.170Z</time>
      </trkpt>
      <trkpt lat="39.58827833" lon="-8.40891333">
        <ele>73.0</ele>
        <time>2019-05-17T15:25:20.178Z</time>
      </trkpt>
      <trkpt lat="39.58827833" lon="-8.40891333">
        <ele>73.0</ele>
        <time>2019-05-17T15:25:21.171Z</time>
      </trkpt>
      <trkpt lat="39.58827833" lon="-8.40891333">
        <ele>73.0</ele>
        <time>2019-05-17T15:25:22.175Z</time>
      </trkpt>
      <trkpt lat="39.58827833" lon="-8.40891333">
        <ele>73.0</ele>
        <time>2019-05-17T15:25:23.170Z</time>
      </trkpt>
      <trkpt lat="39.58827833" lon="-8.40891333">
        <ele>73.0</ele>
        <time>2019-05-17T15:25:24.175Z</time>
      </trkpt>
      <trkpt lat="39.58827833" lon="-8.40891333">
        <ele>73.0</ele>
        <time>2019-05-17T15:25:25.170Z</time>
      </trkpt>
      <trkpt lat="39.58827833" lon="-8.40891333">
        <ele>73.0</ele>
        <time>2019-05-17T15:25:26.178Z</time>
      </trkpt>
      <trkpt lat="39.58827833" lon="-8.40891333">
        <ele>73.0</ele>
        <time>2019-05-17T15:25:27.171Z</time>
      </trkpt>
      <trkpt lat="39.58827833" lon="-8.40891333">
        <ele>73.0</ele>
        <time>2019-05-17T15:25:28.175Z</time>
      </trkpt>
      <trkpt lat="39.58827833" lon="-8.40891333">
        <ele>73.0</ele>
        <time>2019-05-17T15:25:29.174Z</time>
      </trkpt>
      <trkpt lat="39.58827833" lon="-8.40891333">
        <ele>73.0</ele>
        <time>2019-05-17T15:25:30.175Z</time>
      </trkpt>
      <trkpt lat="39.58827833" lon="-8.40891333">
        <ele>73.0</ele>
        <time>2019-05-17T15:25:31.170Z</time>
      </trkpt>
      <trkpt lat="39.58827833" lon="-8.40891333">
        <ele>73.0</ele>
        <time>2019-05-17T15:25:32.178Z</time>
      </trkpt>
      <trkpt lat="39.58827833" lon="-8.40891333">
        <ele>73.0</ele>
        <time>2019-05-17T15:25:33.170Z</time>
      </trkpt>
      <trkpt lat="39.58827833" lon="-8.40891333">
        <ele>73.0</ele>
        <time>2019-05-17T15:25:34.177Z</time>
      </trkpt>
      <trkpt lat="39.58827833" lon="-8.40891333">
        <ele>73.0</ele>
        <time>2019-05-17T15:25:35.170Z</time>
      </trkpt>
      <trkpt lat="39.58827833" lon="-8.40891333">
        <ele>73.0</ele>
        <time>2019-05-17T15:25:36.176Z</time>
      </trkpt>
      <trkpt lat="39.58827833" lon="-8.40891333">
        <ele>73.0</ele>
        <time>2019-05-17T15:25:37.171Z</time>
      </trkpt>
      <trkpt lat="39.58827833" lon="-8.40891333">
        <ele>73.0</ele>
        <time>2019-05-17T15:25:38.152Z</time>
      </trkpt>
      <trkpt lat="39.58827833" lon="-8.40891333">
        <ele>73.0</ele>
        <time>2019-05-17T15:25:39.178Z</time>
      </trkpt>
      <trkpt lat="39.58827833" lon="-8.40891333">
        <ele>73.0</ele>
        <time>2019-05-17T15:25:40.177Z</time>
      </trkpt>
      <trkpt lat="39.58827833" lon="-8.40891333">
        <ele>73.0</ele>
        <time>2019-05-17T15:25:41.170Z</time>
      </trkpt>
      <trkpt lat="39.58827833" lon="-8.40891333">
        <ele>73.0</ele>
        <time>2019-05-17T15:25:42.175Z</time>
      </trkpt>
      <trkpt lat="39.58827833" lon="-8.40891333">
        <ele>73.0</ele>
        <time>2019-05-17T15:25:43.171Z</time>
      </trkpt>
      <trkpt lat="39.58827833" lon="-8.40891333">
        <ele>73.0</ele>
        <time>2019-05-17T15:25:44.179Z</time>
      </trkpt>
      <trkpt lat="39.58827833" lon="-8.40891333">
        <ele>73.0</ele>
        <time>2019-05-17T15:25:45.170Z</time>
      </trkpt>
      <trkpt lat="39.58827833" lon="-8.40891333">
        <ele>73.0</ele>
        <time>2019-05-17T15:25:46.174Z</time>
      </trkpt>
      <trkpt lat="39.58827833" lon="-8.40891333">
        <ele>73.0</ele>
        <time>2019-05-17T15:25:47.171Z</time>
      </trkpt>
      <trkpt lat="39.58827833" lon="-8.40891333">
        <ele>73.0</ele>
        <time>2019-05-17T15:25:48.175Z</time>
      </trkpt>
      <trkpt lat="39.58827833" lon="-8.40891333">
        <ele>73.0</ele>
        <time>2019-05-17T15:25:49.170Z</time>
      </trkpt>
      <trkpt lat="39.58827833" lon="-8.40891333">
        <ele>73.0</ele>
        <time>2019-05-17T15:25:50.179Z</time>
      </trkpt>
      <trkpt lat="39.58827833" lon="-8.40891333">
        <ele>73.0</ele>
        <time>2019-05-17T15:25:51.170Z</time>
      </trkpt>
      <trkpt lat="39.58827833" lon="-8.40891333">
        <ele>73.0</ele>
        <time>2019-05-17T15:25:52.174Z</time>
      </trkpt>
      <trkpt lat="39.58827833" lon="-8.40891333">
        <ele>73.0</ele>
        <time>2019-05-17T15:25:53.170Z</time>
      </trkpt>
      <trkpt lat="39.58827833" lon="-8.40891333">
        <ele>73.0</ele>
        <time>2019-05-17T15:25:54.175Z</time>
      </trkpt>
      <trkpt lat="39.58827833" lon="-8.40891333">
        <ele>73.0</ele>
        <time>2019-05-17T15:25:55.170Z</time>
      </trkpt>
      <trkpt lat="39.58827833" lon="-8.40891333">
        <ele>73.0</ele>
        <time>2019-05-17T15:25:56.177Z</time>
      </trkpt>
      <trkpt lat="39.58827833" lon="-8.40891333">
        <ele>73.0</ele>
        <time>2019-05-17T15:25:57.170Z</time>
      </trkpt>
      <trkpt lat="39.58827833" lon="-8.40891333">
        <ele>73.0</ele>
        <time>2019-05-17T15:25:58.167Z</time>
      </trkpt>
      <trkpt lat="39.58827833" lon="-8.40891333">
        <ele>73.0</ele>
        <time>2019-05-17T15:25:59.155Z</time>
      </trkpt>
      <trkpt lat="39.58827833" lon="-8.40891333">
        <ele>73.0</ele>
        <time>2019-05-17T15:26:00.181Z</time>
      </trkpt>
      <trkpt lat="39.58827833" lon="-8.40891333">
        <ele>73.0</ele>
        <time>2019-05-17T15:26:01.170Z</time>
      </trkpt>
      <trkpt lat="39.58827833" lon="-8.40891333">
        <ele>73.0</ele>
        <time>2019-05-17T15:26:02.177Z</time>
      </trkpt>
      <trkpt lat="39.58827833" lon="-8.40891333">
        <ele>73.0</ele>
        <time>2019-05-17T15:26:03.170Z</time>
      </trkpt>
      <trkpt lat="39.58827833" lon="-8.40891333">
        <ele>73.0</ele>
        <time>2019-05-17T15:26:04.175Z</time>
      </trkpt>
      <trkpt lat="39.58827833" lon="-8.40891333">
        <ele>73.0</ele>
        <time>2019-05-17T15:26:05.170Z</time>
      </trkpt>
      <trkpt lat="39.58827833" lon="-8.40891333">
        <ele>73.0</ele>
        <time>2019-05-17T15:26:06.175Z</time>
      </trkpt>
      <trkpt lat="39.58827833" lon="-8.40891333">
        <ele>73.0</ele>
        <time>2019-05-17T15:26:07.177Z</time>
      </trkpt>
      <trkpt lat="39.58827833" lon="-8.40891333">
        <ele>73.0</ele>
        <time>2019-05-17T15:26:08.178Z</time>
      </trkpt>
      <trkpt lat="39.58827833" lon="-8.40891333">
        <ele>73.0</ele>
        <time>2019-05-17T15:26:09.170Z</time>
      </trkpt>
      <trkpt lat="39.58827833" lon="-8.40891333">
        <ele>73.0</ele>
        <time>2019-05-17T15:26:10.177Z</time>
      </trkpt>
      <trkpt lat="39.58827833" lon="-8.40891333">
        <ele>73.0</ele>
        <time>2019-05-17T15:26:11.183Z</time>
      </trkpt>
      <trkpt lat="39.58827833" lon="-8.40891333">
        <ele>73.0</ele>
        <time>2019-05-17T15:26:12.189Z</time>
      </trkpt>
      <trkpt lat="39.58827833" lon="-8.40891333">
        <ele>73.0</ele>
        <time>2019-05-17T15:26:13.176Z</time>
      </trkpt>
      <trkpt lat="39.58827833" lon="-8.40891333">
        <ele>73.0</ele>
        <time>2019-05-17T15:26:14.179Z</time>
      </trkpt>
      <trkpt lat="39.58827833" lon="-8.40891333">
        <ele>73.0</ele>
        <time>2019-05-17T15:26:15.181Z</time>
      </trkpt>
      <trkpt lat="39.58827833" lon="-8.40891333">
        <ele>73.0</ele>
        <time>2019-05-17T15:26:16.175Z</time>
      </trkpt>
      <trkpt lat="39.58827833" lon="-8.40891333">
        <ele>73.0</ele>
        <time>2019-05-17T15:26:17.171Z</time>
      </trkpt>
      <trkpt lat="39.58827833" lon="-8.40891333">
        <ele>73.0</ele>
        <time>2019-05-17T15:26:18.168Z</time>
      </trkpt>
      <trkpt lat="39.58827833" lon="-8.40891333">
        <ele>73.0</ele>
        <time>2019-05-17T15:26:19.155Z</time>
      </trkpt>
      <trkpt lat="39.58827833" lon="-8.40891333">
        <ele>73.0</ele>
        <time>2019-05-17T15:26:20.182Z</time>
      </trkpt>
      <trkpt lat="39.58827833" lon="-8.40891333">
        <ele>73.0</ele>
        <time>2019-05-17T15:26:21.170Z</time>
      </trkpt>
      <trkpt lat="39.58827833" lon="-8.40891333">
        <ele>73.0</ele>
        <time>2019-05-17T15:26:22.176Z</time>
      </trkpt>
      <trkpt lat="39.58827833" lon="-8.40891333">
        <ele>73.0</ele>
        <time>2019-05-17T15:26:23.170Z</time>
      </trkpt>
      <trkpt lat="39.58827833" lon="-8.40891333">
        <ele>73.0</ele>
        <time>2019-05-17T15:26:24.176Z</time>
      </trkpt>
      <trkpt lat="39.58827833" lon="-8.40891333">
        <ele>73.0</ele>
        <time>2019-05-17T15:26:25.171Z</time>
      </trkpt>
      <trkpt lat="39.58827833" lon="-8.40891333">
        <ele>73.0</ele>
        <time>2019-05-17T15:26:26.178Z</time>
      </trkpt>
      <trkpt lat="39.58827833" lon="-8.40891333">
        <ele>73.0</ele>
        <time>2019-05-17T15:26:27.174Z</time>
      </trkpt>
      <trkpt lat="39.58827833" lon="-8.40891333">
        <ele>73.0</ele>
        <time>2019-05-17T15:26:28.189Z</time>
      </trkpt>
      <trkpt lat="39.58827833" lon="-8.40891333">
        <ele>73.0</ele>
        <time>2019-05-17T15:26:29.174Z</time>
      </trkpt>
      <trkpt lat="39.58827833" lon="-8.40891333">
        <ele>73.0</ele>
        <time>2019-05-17T15:26:30.176Z</time>
      </trkpt>
      <trkpt lat="39.58827833" lon="-8.40891333">
        <ele>73.0</ele>
        <time>2019-05-17T15:26:31.173Z</time>
      </trkpt>
      <trkpt lat="39.58827833" lon="-8.40891333">
        <ele>73.0</ele>
        <time>2019-05-17T15:26:32.173Z</time>
      </trkpt>
      <trkpt lat="39.58827833" lon="-8.40891333">
        <ele>73.0</ele>
        <time>2019-05-17T15:26:33.175Z</time>
      </trkpt>
      <trkpt lat="39.58827833" lon="-8.40891333">
        <ele>73.0</ele>
        <time>2019-05-17T15:26:34.171Z</time>
      </trkpt>
      <trkpt lat="39.58827833" lon="-8.40891333">
        <ele>73.0</ele>
        <time>2019-05-17T15:26:35.175Z</time>
      </trkpt>
      <trkpt lat="39.58827833" lon="-8.40891333">
        <ele>73.0</ele>
        <time>2019-05-17T15:26:36.170Z</time>
      </trkpt>
      <trkpt lat="39.58827833" lon="-8.40891333">
        <ele>73.0</ele>
        <time>2019-05-17T15:26:37.175Z</time>
      </trkpt>
      <trkpt lat="39.58827833" lon="-8.40891333">
        <ele>73.0</ele>
        <time>2019-05-17T15:26:38.179Z</time>
      </trkpt>
      <trkpt lat="39.58827833" lon="-8.40891333">
        <ele>73.0</ele>
        <time>2019-05-17T15:26:39.170Z</time>
      </trkpt>
      <trkpt lat="39.58827833" lon="-8.40891333">
        <ele>73.0</ele>
        <time>2019-05-17T15:26:40.175Z</time>
      </trkpt>
      <trkpt lat="39.58827833" lon="-8.40891333">
        <ele>73.0</ele>
        <time>2019-05-17T15:26:41.170Z</time>
      </trkpt>
      <trkpt lat="39.58827833" lon="-8.40891333">
        <ele>73.0</ele>
        <time>2019-05-17T15:26:42.175Z</time>
      </trkpt>
      <trkpt lat="39.58827833" lon="-8.40891333">
        <ele>73.0</ele>
        <time>2019-05-17T15:26:43.173Z</time>
      </trkpt>
      <trkpt lat="39.58827833" lon="-8.40891333">
        <ele>73.0</ele>
        <time>2019-05-17T15:26:44.178Z</time>
      </trkpt>
      <trkpt lat="39.58827833" lon="-8.40891333">
        <ele>73.0</ele>
        <time>2019-05-17T15:26:45.174Z</time>
      </trkpt>
      <trkpt lat="39.58829333" lon="-8.40893">
        <ele>75.0</ele>
        <time>2019-05-17T15:26:46.176Z</time>
      </trkpt>
      <trkpt lat="39.58829333" lon="-8.40893">
        <ele>75.0</ele>
        <time>2019-05-17T15:26:47.171Z</time>
      </trkpt>
      <trkpt lat="39.58829833" lon="-8.40892833">
        <ele>75.0</ele>
        <time>2019-05-17T15:26:48.175Z</time>
      </trkpt>
      <trkpt lat="39.58829833" lon="-8.40892833">
        <ele>75.0</ele>
        <time>2019-05-17T15:26:49.173Z</time>
      </trkpt>
      <trkpt lat="39.58829833" lon="-8.40892833">
        <ele>75.0</ele>
        <time>2019-05-17T15:26:50.181Z</time>
      </trkpt>
      <trkpt lat="39.58829833" lon="-8.40892833">
        <ele>75.0</ele>
        <time>2019-05-17T15:26:51.170Z</time>
      </trkpt>
      <trkpt lat="39.58829833" lon="-8.40892833">
        <ele>75.0</ele>
        <time>2019-05-17T15:26:52.176Z</time>
      </trkpt>
      <trkpt lat="39.58829833" lon="-8.40892833">
        <ele>75.0</ele>
        <time>2019-05-17T15:26:53.170Z</time>
      </trkpt>
      <trkpt lat="39.58829833" lon="-8.40892833">
        <ele>75.0</ele>
        <time>2019-05-17T15:26:54.155Z</time>
      </trkpt>
      <trkpt lat="39.58829833" lon="-8.40892833">
        <ele>75.0</ele>
        <time>2019-05-17T15:26:55.181Z</time>
      </trkpt>
      <trkpt lat="39.58829833" lon="-8.40892833">
        <ele>75.0</ele>
        <time>2019-05-17T15:26:56.179Z</time>
      </trkpt>
      <trkpt lat="39.58829833" lon="-8.40892833">
        <ele>75.0</ele>
        <time>2019-05-17T15:26:57.171Z</time>
      </trkpt>
      <trkpt lat="39.58829833" lon="-8.40892833">
        <ele>75.0</ele>
        <time>2019-05-17T15:26:58.157Z</time>
      </trkpt>
      <trkpt lat="39.58829833" lon="-8.40892833">
        <ele>75.0</ele>
        <time>2019-05-17T15:26:59.180Z</time>
      </trkpt>
      <trkpt lat="39.58829833" lon="-8.40892833">
        <ele>75.0</ele>
        <time>2019-05-17T15:27:00.175Z</time>
      </trkpt>
      <trkpt lat="39.58829833" lon="-8.40892833">
        <ele>75.0</ele>
        <time>2019-05-17T15:27:01.170Z</time>
      </trkpt>
      <trkpt lat="39.58829833" lon="-8.40892833">
        <ele>75.0</ele>
        <time>2019-05-17T15:27:02.178Z</time>
      </trkpt>
      <trkpt lat="39.58829833" lon="-8.40892833">
        <ele>75.0</ele>
        <time>2019-05-17T15:27:03.170Z</time>
      </trkpt>
      <trkpt lat="39.58829833" lon="-8.40892833">
        <ele>75.0</ele>
        <time>2019-05-17T15:27:04.175Z</time>
      </trkpt>
      <trkpt lat="39.58829833" lon="-8.40892833">
        <ele>75.0</ele>
        <time>2019-05-17T15:27:05.175Z</time>
      </trkpt>
      <trkpt lat="39.58829833" lon="-8.40892833">
        <ele>75.0</ele>
        <time>2019-05-17T15:27:06.170Z</time>
      </trkpt>
      <trkpt lat="39.58829833" lon="-8.40892833">
        <ele>75.0</ele>
        <time>2019-05-17T15:27:07.175Z</time>
      </trkpt>
      <trkpt lat="39.58829833" lon="-8.40892833">
        <ele>75.0</ele>
        <time>2019-05-17T15:27:08.177Z</time>
      </trkpt>
      <trkpt lat="39.58829833" lon="-8.40892833">
        <ele>75.0</ele>
        <time>2019-05-17T15:27:09.177Z</time>
      </trkpt>
      <trkpt lat="39.58829833" lon="-8.40892833">
        <ele>75.0</ele>
        <time>2019-05-17T15:27:10.176Z</time>
      </trkpt>
      <trkpt lat="39.58829833" lon="-8.40892833">
        <ele>75.0</ele>
        <time>2019-05-17T15:27:11.182Z</time>
      </trkpt>
      <trkpt lat="39.58829833" lon="-8.40892833">
        <ele>75.0</ele>
        <time>2019-05-17T15:27:12.188Z</time>
      </trkpt>
      <trkpt lat="39.58829833" lon="-8.40892833">
        <ele>75.0</ele>
        <time>2019-05-17T15:27:13.154Z</time>
      </trkpt>
      <trkpt lat="39.58829833" lon="-8.40892833">
        <ele>75.0</ele>
        <time>2019-05-17T15:27:14.180Z</time>
      </trkpt>
      <trkpt lat="39.58829833" lon="-8.40892833">
        <ele>75.0</ele>
        <time>2019-05-17T15:27:15.181Z</time>
      </trkpt>
      <trkpt lat="39.58829833" lon="-8.40892833">
        <ele>75.0</ele>
        <time>2019-05-17T15:27:16.176Z</time>
      </trkpt>
      <trkpt lat="39.58829833" lon="-8.40892833">
        <ele>75.0</ele>
        <time>2019-05-17T15:27:17.170Z</time>
      </trkpt>
      <trkpt lat="39.58829833" lon="-8.40892833">
        <ele>75.0</ele>
        <time>2019-05-17T15:27:18.176Z</time>
      </trkpt>
      <trkpt lat="39.58829833" lon="-8.40892833">
        <ele>75.0</ele>
        <time>2019-05-17T15:27:19.173Z</time>
      </trkpt>
      <trkpt lat="39.58829833" lon="-8.40892833">
        <ele>75.0</ele>
        <time>2019-05-17T15:27:20.178Z</time>
      </trkpt>
      <trkpt lat="39.58829833" lon="-8.40892833">
        <ele>75.0</ele>
        <time>2019-05-17T15:27:21.171Z</time>
      </trkpt>
      <trkpt lat="39.58829833" lon="-8.40892833">
        <ele>75.0</ele>
        <time>2019-05-17T15:27:22.175Z</time>
      </trkpt>
      <trkpt lat="39.58829833" lon="-8.40892833">
        <ele>75.0</ele>
        <time>2019-05-17T15:27:23.170Z</time>
      </trkpt>
      <trkpt lat="39.58829833" lon="-8.40892833">
        <ele>75.0</ele>
        <time>2019-05-17T15:27:24.175Z</time>
      </trkpt>
      <trkpt lat="39.58829833" lon="-8.40892833">
        <ele>75.0</ele>
        <time>2019-05-17T15:27:25.170Z</time>
      </trkpt>
      <trkpt lat="39.58829833" lon="-8.40892833">
        <ele>75.0</ele>
        <time>2019-05-17T15:27:26.176Z</time>
      </trkpt>
      <trkpt lat="39.58829833" lon="-8.40892833">
        <ele>75.0</ele>
        <time>2019-05-17T15:27:27.170Z</time>
      </trkpt>
      <trkpt lat="39.58829833" lon="-8.40892833">
        <ele>75.0</ele>
        <time>2019-05-17T15:27:28.175Z</time>
      </trkpt>
      <trkpt lat="39.58829833" lon="-8.40892833">
        <ele>75.0</ele>
        <time>2019-05-17T15:27:29.171Z</time>
      </trkpt>
      <trkpt lat="39.58829833" lon="-8.40892833">
        <ele>75.0</ele>
        <time>2019-05-17T15:27:30.177Z</time>
      </trkpt>
      <trkpt lat="39.58829833" lon="-8.40892833">
        <ele>75.0</ele>
        <time>2019-05-17T15:27:31.171Z</time>
      </trkpt>
      <trkpt lat="39.58829833" lon="-8.40892833">
        <ele>75.0</ele>
        <time>2019-05-17T15:27:32.178Z</time>
      </trkpt>
      <trkpt lat="39.58829833" lon="-8.40892833">
        <ele>75.0</ele>
        <time>2019-05-17T15:27:33.171Z</time>
      </trkpt>
      <trkpt lat="39.58829833" lon="-8.40892833">
        <ele>75.0</ele>
        <time>2019-05-17T15:27:34.175Z</time>
      </trkpt>
      <trkpt lat="39.58829833" lon="-8.40892833">
        <ele>75.0</ele>
        <time>2019-05-17T15:27:35.171Z</time>
      </trkpt>
      <trkpt lat="39.58829833" lon="-8.40892833">
        <ele>75.0</ele>
        <time>2019-05-17T15:27:36.175Z</time>
      </trkpt>
      <trkpt lat="39.58829833" lon="-8.40892833">
        <ele>75.0</ele>
        <time>2019-05-17T15:27:37.170Z</time>
      </trkpt>
      <trkpt lat="39.58829833" lon="-8.40892833">
        <ele>75.0</ele>
        <time>2019-05-17T15:27:38.157Z</time>
      </trkpt>
      <trkpt lat="39.58829833" lon="-8.40892833">
        <ele>75.0</ele>
        <time>2019-05-17T15:27:39.174Z</time>
      </trkpt>
      <trkpt lat="39.58829833" lon="-8.40892833">
        <ele>75.0</ele>
        <time>2019-05-17T15:27:40.175Z</time>
      </trkpt>
      <trkpt lat="39.58829833" lon="-8.40892833">
        <ele>75.0</ele>
        <time>2019-05-17T15:27:41.171Z</time>
      </trkpt>
      <trkpt lat="39.58829833" lon="-8.40892833">
        <ele>75.0</ele>
        <time>2019-05-17T15:27:42.177Z</time>
      </trkpt>
      <trkpt lat="39.58829833" lon="-8.40892833">
        <ele>75.0</ele>
        <time>2019-05-17T15:27:43.171Z</time>
      </trkpt>
      <trkpt lat="39.58829833" lon="-8.40892833">
        <ele>75.0</ele>
        <time>2019-05-17T15:27:44.166Z</time>
      </trkpt>
      <trkpt lat="39.58829833" lon="-8.40892833">
        <ele>75.0</ele>
        <time>2019-05-17T15:27:45.158Z</time>
      </trkpt>
      <trkpt lat="39.58829833" lon="-8.40892833">
        <ele>75.0</ele>
        <time>2019-05-17T15:27:46.184Z</time>
      </trkpt>
      <trkpt lat="39.58829833" lon="-8.40892833">
        <ele>75.0</ele>
        <time>2019-05-17T15:27:47.171Z</time>
      </trkpt>
      <trkpt lat="39.58829833" lon="-8.40892833">
        <ele>75.0</ele>
        <time>2019-05-17T15:27:48.175Z</time>
      </trkpt>
      <trkpt lat="39.58829833" lon="-8.40892833">
        <ele>75.0</ele>
        <time>2019-05-17T15:27:49.182Z</time>
      </trkpt>
      <trkpt lat="39.58829833" lon="-8.40892833">
        <ele>75.0</ele>
        <time>2019-05-17T15:27:50.176Z</time>
      </trkpt>
      <trkpt lat="39.58829833" lon="-8.40892833">
        <ele>75.0</ele>
        <time>2019-05-17T15:27:51.171Z</time>
      </trkpt>
      <trkpt lat="39.58829833" lon="-8.40892833">
        <ele>75.0</ele>
        <time>2019-05-17T15:27:52.176Z</time>
      </trkpt>
      <trkpt lat="39.58829833" lon="-8.40892833">
        <ele>75.0</ele>
        <time>2019-05-17T15:27:53.171Z</time>
      </trkpt>
      <trkpt lat="39.58829833" lon="-8.40892833">
        <ele>75.0</ele>
        <time>2019-05-17T15:27:54.175Z</time>
      </trkpt>
      <trkpt lat="39.58829833" lon="-8.40892833">
        <ele>75.0</ele>
        <time>2019-05-17T15:27:55.170Z</time>
      </trkpt>
      <trkpt lat="39.58829833" lon="-8.40892833">
        <ele>75.0</ele>
        <time>2019-05-17T15:27:56.175Z</time>
      </trkpt>
      <trkpt lat="39.58829833" lon="-8.40892833">
        <ele>75.0</ele>
        <time>2019-05-17T15:27:57.170Z</time>
      </trkpt>
      <trkpt lat="39.58829833" lon="-8.40892833">
        <ele>75.0</ele>
        <time>2019-05-17T15:27:58.173Z</time>
      </trkpt>
      <trkpt lat="39.58829833" lon="-8.40892833">
        <ele>75.0</ele>
        <time>2019-05-17T15:27:59.176Z</time>
      </trkpt>
      <trkpt lat="39.58829833" lon="-8.40892833">
        <ele>75.0</ele>
        <time>2019-05-17T15:28:00.170Z</time>
      </trkpt>
      <trkpt lat="39.58829833" lon="-8.40892833">
        <ele>75.0</ele>
        <time>2019-05-17T15:28:01.175Z</time>
      </trkpt>
      <trkpt lat="39.58829833" lon="-8.40892833">
        <ele>75.0</ele>
        <time>2019-05-17T15:28:02.178Z</time>
      </trkpt>
      <trkpt lat="39.58829833" lon="-8.40892833">
        <ele>75.0</ele>
        <time>2019-05-17T15:28:03.172Z</time>
      </trkpt>
      <trkpt lat="39.58829833" lon="-8.40892833">
        <ele>75.0</ele>
        <time>2019-05-17T15:28:04.173Z</time>
      </trkpt>
      <trkpt lat="39.58829833" lon="-8.40892833">
        <ele>75.0</ele>
        <time>2019-05-17T15:28:05.170Z</time>
      </trkpt>
      <trkpt lat="39.58829833" lon="-8.40892833">
        <ele>75.0</ele>
        <time>2019-05-17T15:28:06.175Z</time>
      </trkpt>
      <trkpt lat="39.58829833" lon="-8.40892833">
        <ele>75.0</ele>
        <time>2019-05-17T15:28:07.170Z</time>
      </trkpt>
      <trkpt lat="39.58829833" lon="-8.40892833">
        <ele>75.0</ele>
        <time>2019-05-17T15:28:08.179Z</time>
      </trkpt>
      <trkpt lat="39.58829833" lon="-8.40892833">
        <ele>75.0</ele>
        <time>2019-05-17T15:28:09.158Z</time>
      </trkpt>
      <trkpt lat="39.58829833" lon="-8.40892833">
        <ele>75.0</ele>
        <time>2019-05-17T15:28:10.183Z</time>
      </trkpt>
      <trkpt lat="39.58829833" lon="-8.40892833">
        <ele>75.0</ele>
        <time>2019-05-17T15:28:11.190Z</time>
      </trkpt>
      <trkpt lat="39.58829833" lon="-8.40892833">
        <ele>75.0</ele>
        <time>2019-05-17T15:28:12.155Z</time>
      </trkpt>
      <trkpt lat="39.58829833" lon="-8.40892833">
        <ele>75.0</ele>
        <time>2019-05-17T15:28:13.165Z</time>
      </trkpt>
      <trkpt lat="39.58829833" lon="-8.40892833">
        <ele>75.0</ele>
        <time>2019-05-17T15:28:14.153Z</time>
      </trkpt>
      <trkpt lat="39.58829833" lon="-8.40892833">
        <ele>75.0</ele>
        <time>2019-05-17T15:28:15.186Z</time>
      </trkpt>
      <trkpt lat="39.58829833" lon="-8.40892833">
        <ele>75.0</ele>
        <time>2019-05-17T15:28:16.176Z</time>
      </trkpt>
      <trkpt lat="39.58829833" lon="-8.40892833">
        <ele>75.0</ele>
        <time>2019-05-17T15:28:17.171Z</time>
      </trkpt>
      <trkpt lat="39.58829833" lon="-8.40892833">
        <ele>75.0</ele>
        <time>2019-05-17T15:28:18.176Z</time>
      </trkpt>
      <trkpt lat="39.58829833" lon="-8.40892833">
        <ele>75.0</ele>
        <time>2019-05-17T15:28:19.177Z</time>
      </trkpt>
      <trkpt lat="39.58829833" lon="-8.40892833">
        <ele>75.0</ele>
        <time>2019-05-17T15:28:20.178Z</time>
      </trkpt>
      <trkpt lat="39.58829833" lon="-8.40892833">
        <ele>75.0</ele>
        <time>2019-05-17T15:28:21.171Z</time>
      </trkpt>
      <trkpt lat="39.58829833" lon="-8.40892833">
        <ele>75.0</ele>
        <time>2019-05-17T15:28:22.175Z</time>
      </trkpt>
      <trkpt lat="39.58832" lon="-8.408945">
        <ele>74.0</ele>
        <time>2019-05-17T15:28:23.174Z</time>
      </trkpt>
      <trkpt lat="39.58832" lon="-8.408945">
        <ele>74.0</ele>
        <time>2019-05-17T15:28:24.171Z</time>
      </trkpt>
      <trkpt lat="39.58834" lon="-8.40894833">
        <ele>73.0</ele>
        <time>2019-05-17T15:28:25.175Z</time>
      </trkpt>
      <trkpt lat="39.58835167" lon="-8.408955">
        <ele>73.0</ele>
        <time>2019-05-17T15:28:26.178Z</time>
      </trkpt>
      <trkpt lat="39.58835167" lon="-8.408955">
        <ele>73.0</ele>
        <time>2019-05-17T15:28:27.171Z</time>
      </trkpt>
      <trkpt lat="39.588375" lon="-8.40897167">
        <ele>74.0</ele>
        <time>2019-05-17T15:28:28.178Z</time>
      </trkpt>
      <trkpt lat="39.588375" lon="-8.40897167">
        <ele>74.0</ele>
        <time>2019-05-17T15:28:29.173Z</time>
      </trkpt>
      <trkpt lat="39.58840167" lon="-8.40898167">
        <ele>74.0</ele>
        <time>2019-05-17T15:28:30.155Z</time>
      </trkpt>
      <trkpt lat="39.58840167" lon="-8.40898167">
        <ele>74.0</ele>
        <time>2019-05-17T15:28:31.187Z</time>
      </trkpt>
      <trkpt lat="39.58843333" lon="-8.40899667">
        <ele>74.0</ele>
        <time>2019-05-17T15:28:32.190Z</time>
      </trkpt>
      <trkpt lat="39.58843333" lon="-8.40899667">
        <ele>74.0</ele>
        <time>2019-05-17T15:28:33.165Z</time>
      </trkpt>
      <trkpt lat="39.58847167" lon="-8.40902">
        <ele>74.0</ele>
        <time>2019-05-17T15:28:34.184Z</time>
      </trkpt>
      <trkpt lat="39.58847167" lon="-8.40902">
        <ele>74.0</ele>
        <time>2019-05-17T15:28:35.167Z</time>
      </trkpt>
      <trkpt lat="39.58851333" lon="-8.40903167">
        <ele>74.0</ele>
        <time>2019-05-17T15:28:36.184Z</time>
      </trkpt>
      <trkpt lat="39.58851333" lon="-8.40903167">
        <ele>74.0</ele>
        <time>2019-05-17T15:28:37.189Z</time>
      </trkpt>
      <trkpt lat="39.58855333" lon="-8.40905167">
        <ele>73.0</ele>
        <time>2019-05-17T15:28:38.159Z</time>
      </trkpt>
      <trkpt lat="39.58855333" lon="-8.40905167">
        <ele>73.0</ele>
        <time>2019-05-17T15:28:39.185Z</time>
      </trkpt>
      <trkpt lat="39.588595" lon="-8.40908">
        <ele>73.0</ele>
        <time>2019-05-17T15:28:40.177Z</time>
      </trkpt>
      <trkpt lat="39.588595" lon="-8.40908">
        <ele>73.0</ele>
        <time>2019-05-17T15:28:41.186Z</time>
      </trkpt>
      <trkpt lat="39.58863833" lon="-8.40910833">
        <ele>73.0</ele>
        <time>2019-05-17T15:28:42.175Z</time>
      </trkpt>
      <trkpt lat="39.58863833" lon="-8.40910833">
        <ele>73.0</ele>
        <time>2019-05-17T15:28:43.165Z</time>
      </trkpt>
      <trkpt lat="39.58868333" lon="-8.40914333">
        <ele>73.0</ele>
        <time>2019-05-17T15:28:44.162Z</time>
      </trkpt>
      <trkpt lat="39.58868333" lon="-8.40914333">
        <ele>73.0</ele>
        <time>2019-05-17T15:28:45.156Z</time>
      </trkpt>
      <trkpt lat="39.58873167" lon="-8.40917333">
        <ele>73.0</ele>
        <time>2019-05-17T15:28:46.159Z</time>
      </trkpt>
      <trkpt lat="39.58873167" lon="-8.40917333">
        <ele>73.0</ele>
        <time>2019-05-17T15:28:47.165Z</time>
      </trkpt>
      <trkpt lat="39.58878167" lon="-8.40920167">
        <ele>72.0</ele>
        <time>2019-05-17T15:28:48.150Z</time>
      </trkpt>
      <trkpt lat="39.58878167" lon="-8.40920167">
        <ele>72.0</ele>
        <time>2019-05-17T15:28:49.155Z</time>
      </trkpt>
      <trkpt lat="39.58883333" lon="-8.40923167">
        <ele>72.0</ele>
        <time>2019-05-17T15:28:50.158Z</time>
      </trkpt>
      <trkpt lat="39.58883333" lon="-8.40923167">
        <ele>72.0</ele>
        <time>2019-05-17T15:28:51.168Z</time>
      </trkpt>
      <trkpt lat="39.58889167" lon="-8.409255">
        <ele>72.0</ele>
        <time>2019-05-17T15:28:52.161Z</time>
      </trkpt>
      <trkpt lat="39.58889167" lon="-8.409255">
        <ele>72.0</ele>
        <time>2019-05-17T15:28:53.165Z</time>
      </trkpt>
      <trkpt lat="39.58894833" lon="-8.40929">
        <ele>71.0</ele>
        <time>2019-05-17T15:28:54.156Z</time>
      </trkpt>
      <trkpt lat="39.58894833" lon="-8.40929">
        <ele>71.0</ele>
        <time>2019-05-17T15:28:55.189Z</time>
      </trkpt>
      <trkpt lat="39.58900333" lon="-8.40933">
        <ele>71.0</ele>
        <time>2019-05-17T15:28:56.153Z</time>
      </trkpt>
      <trkpt lat="39.58900333" lon="-8.40933">
        <ele>71.0</ele>
        <time>2019-05-17T15:28:57.159Z</time>
      </trkpt>
      <trkpt lat="39.58906" lon="-8.40937667">
        <ele>71.0</ele>
        <time>2019-05-17T15:28:58.187Z</time>
      </trkpt>
      <trkpt lat="39.58906" lon="-8.40937667">
        <ele>71.0</ele>
        <time>2019-05-17T15:28:59.178Z</time>
      </trkpt>
      <trkpt lat="39.589115" lon="-8.40942833">
        <ele>71.0</ele>
        <time>2019-05-17T15:29:00.172Z</time>
      </trkpt>
      <trkpt lat="39.58914333" lon="-8.40945333">
        <ele>71.0</ele>
        <time>2019-05-17T15:29:01.166Z</time>
      </trkpt>
      <trkpt lat="39.58917167" lon="-8.40947667">
        <ele>71.0</ele>
        <time>2019-05-17T15:29:02.173Z</time>
      </trkpt>
      <trkpt lat="39.58917167" lon="-8.40947667">
        <ele>71.0</ele>
        <time>2019-05-17T15:29:03.179Z</time>
      </trkpt>
      <trkpt lat="39.58923" lon="-8.409525">
        <ele>70.0</ele>
        <time>2019-05-17T15:29:04.187Z</time>
      </trkpt>
      <trkpt lat="39.58923" lon="-8.409525">
        <ele>70.0</ele>
        <time>2019-05-17T15:29:05.165Z</time>
      </trkpt>
      <trkpt lat="39.58929167" lon="-8.40957333">
        <ele>70.0</ele>
        <time>2019-05-17T15:29:06.159Z</time>
      </trkpt>
      <trkpt lat="39.58929167" lon="-8.40957333">
        <ele>70.0</ele>
        <time>2019-05-17T15:29:07.174Z</time>
      </trkpt>
      <trkpt lat="39.58935667" lon="-8.40962167">
        <ele>70.0</ele>
        <time>2019-05-17T15:29:08.157Z</time>
      </trkpt>
      <trkpt lat="39.58935667" lon="-8.40962167">
        <ele>70.0</ele>
        <time>2019-05-17T15:29:09.184Z</time>
      </trkpt>
      <trkpt lat="39.58942333" lon="-8.40967167">
        <ele>70.0</ele>
        <time>2019-05-17T15:29:10.185Z</time>
      </trkpt>
      <trkpt lat="39.58945667" lon="-8.40969667">
        <ele>70.0</ele>
        <time>2019-05-17T15:29:11.177Z</time>
      </trkpt>
      <trkpt lat="39.58945667" lon="-8.40969667">
        <ele>70.0</ele>
        <time>2019-05-17T15:29:12.179Z</time>
      </trkpt>
      <trkpt lat="39.58952333" lon="-8.40974167">
        <ele>70.0</ele>
        <time>2019-05-17T15:29:13.166Z</time>
      </trkpt>
      <trkpt lat="39.58955333" lon="-8.40976167">
        <ele>70.0</ele>
        <time>2019-05-17T15:29:14.152Z</time>
      </trkpt>
      <trkpt lat="39.58955333" lon="-8.40976167">
        <ele>70.0</ele>
        <time>2019-05-17T15:29:15.177Z</time>
      </trkpt>
      <trkpt lat="39.58961333" lon="-8.40979833">
        <ele>70.0</ele>
        <time>2019-05-17T15:29:16.172Z</time>
      </trkpt>
      <trkpt lat="39.58961333" lon="-8.40979833">
        <ele>70.0</ele>
        <time>2019-05-17T15:29:17.177Z</time>
      </trkpt>
      <trkpt lat="39.58967333" lon="-8.40983167">
        <ele>69.0</ele>
        <time>2019-05-17T15:29:18.170Z</time>
      </trkpt>
      <trkpt lat="39.58967333" lon="-8.40983167">
        <ele>69.0</ele>
        <time>2019-05-17T15:29:19.166Z</time>
      </trkpt>
      <trkpt lat="39.58973" lon="-8.409865">
        <ele>69.0</ele>
        <time>2019-05-17T15:29:20.154Z</time>
      </trkpt>
      <trkpt lat="39.58973" lon="-8.409865">
        <ele>69.0</ele>
        <time>2019-05-17T15:29:21.188Z</time>
      </trkpt>
      <trkpt lat="39.589785" lon="-8.40989167">
        <ele>69.0</ele>
        <time>2019-05-17T15:29:22.188Z</time>
      </trkpt>
      <trkpt lat="39.589785" lon="-8.40989167">
        <ele>69.0</ele>
        <time>2019-05-17T15:29:23.174Z</time>
      </trkpt>
      <trkpt lat="39.58984167" lon="-8.409925">
        <ele>69.0</ele>
        <time>2019-05-17T15:29:24.175Z</time>
      </trkpt>
      <trkpt lat="39.58984167" lon="-8.409925">
        <ele>69.0</ele>
        <time>2019-05-17T15:29:25.159Z</time>
      </trkpt>
      <trkpt lat="39.5899" lon="-8.409955">
        <ele>69.0</ele>
        <time>2019-05-17T15:29:26.156Z</time>
      </trkpt>
      <trkpt lat="39.5899" lon="-8.409955">
        <ele>69.0</ele>
        <time>2019-05-17T15:29:27.171Z</time>
      </trkpt>
      <trkpt lat="39.58995167" lon="-8.409975">
        <ele>69.0</ele>
        <time>2019-05-17T15:29:28.164Z</time>
      </trkpt>
      <trkpt lat="39.58995167" lon="-8.409975">
        <ele>69.0</ele>
        <time>2019-05-17T15:29:29.168Z</time>
      </trkpt>
      <trkpt lat="39.58998" lon="-8.40996167">
        <ele>68.0</ele>
        <time>2019-05-17T15:29:30.185Z</time>
      </trkpt>
      <trkpt lat="39.58998" lon="-8.40996167">
        <ele>68.0</ele>
        <time>2019-05-17T15:29:31.172Z</time>
      </trkpt>
      <trkpt lat="39.58999" lon="-8.409925">
        <ele>68.0</ele>
        <time>2019-05-17T15:29:32.167Z</time>
      </trkpt>
      <trkpt lat="39.58999" lon="-8.409925">
        <ele>68.0</ele>
        <time>2019-05-17T15:29:33.180Z</time>
      </trkpt>
      <trkpt lat="39.58999667" lon="-8.40987167">
        <ele>67.0</ele>
        <time>2019-05-17T15:29:34.170Z</time>
      </trkpt>
      <trkpt lat="39.58999667" lon="-8.40987167">
        <ele>67.0</ele>
        <time>2019-05-17T15:29:35.179Z</time>
      </trkpt>
      <trkpt lat="39.59001" lon="-8.40979">
        <ele>66.0</ele>
        <time>2019-05-17T15:29:36.170Z</time>
      </trkpt>
      <trkpt lat="39.59001" lon="-8.40979">
        <ele>66.0</ele>
        <time>2019-05-17T15:29:37.154Z</time>
      </trkpt>
      <trkpt lat="39.59002667" lon="-8.40967833">
        <ele>65.0</ele>
        <time>2019-05-17T15:29:38.155Z</time>
      </trkpt>
      <trkpt lat="39.59002667" lon="-8.40967833">
        <ele>65.0</ele>
        <time>2019-05-17T15:29:39.168Z</time>
      </trkpt>
      <trkpt lat="39.59004167" lon="-8.40955833">
        <ele>64.0</ele>
        <time>2019-05-17T15:29:40.175Z</time>
      </trkpt>
      <trkpt lat="39.59004667" lon="-8.40949333">
        <ele>64.0</ele>
        <time>2019-05-17T15:29:41.169Z</time>
      </trkpt>
      <trkpt lat="39.59004667" lon="-8.40949333">
        <ele>64.0</ele>
        <time>2019-05-17T15:29:42.166Z</time>
      </trkpt>
      <trkpt lat="39.590065" lon="-8.409375">
        <ele>63.0</ele>
        <time>2019-05-17T15:29:43.160Z</time>
      </trkpt>
      <trkpt lat="39.59008167" lon="-8.40931167">
        <ele>63.0</ele>
        <time>2019-05-17T15:29:44.195Z</time>
      </trkpt>
      <trkpt lat="39.59008167" lon="-8.40931167">
        <ele>63.0</ele>
        <time>2019-05-17T15:29:45.171Z</time>
      </trkpt>
      <trkpt lat="39.590125" lon="-8.40918833">
        <ele>62.0</ele>
        <time>2019-05-17T15:29:46.178Z</time>
      </trkpt>
      <trkpt lat="39.590125" lon="-8.40918833">
        <ele>62.0</ele>
        <time>2019-05-17T15:29:47.173Z</time>
      </trkpt>
      <trkpt lat="39.59019667" lon="-8.40908667">
        <ele>61.0</ele>
        <time>2019-05-17T15:29:48.175Z</time>
      </trkpt>
      <trkpt lat="39.59019667" lon="-8.40908667">
        <ele>61.0</ele>
        <time>2019-05-17T15:29:49.150Z</time>
      </trkpt>
      <trkpt lat="39.590275" lon="-8.40897667">
        <ele>61.0</ele>
        <time>2019-05-17T15:29:50.176Z</time>
      </trkpt>
      <trkpt lat="39.590275" lon="-8.40897667">
        <ele>61.0</ele>
        <time>2019-05-17T15:29:51.167Z</time>
      </trkpt>
      <trkpt lat="39.59035167" lon="-8.40886167">
        <ele>60.0</ele>
        <time>2019-05-17T15:29:52.165Z</time>
      </trkpt>
      <trkpt lat="39.59035167" lon="-8.40886167">
        <ele>60.0</ele>
        <time>2019-05-17T15:29:53.176Z</time>
      </trkpt>
      <trkpt lat="39.59042667" lon="-8.408745">
        <ele>60.0</ele>
        <time>2019-05-17T15:29:54.174Z</time>
      </trkpt>
      <trkpt lat="39.59042667" lon="-8.408745">
        <ele>60.0</ele>
        <time>2019-05-17T15:29:55.188Z</time>
      </trkpt>
      <trkpt lat="39.59050333" lon="-8.408625">
        <ele>60.0</ele>
        <time>2019-05-17T15:29:56.165Z</time>
      </trkpt>
      <trkpt lat="39.59050333" lon="-8.408625">
        <ele>60.0</ele>
        <time>2019-05-17T15:29:57.154Z</time>
      </trkpt>
      <trkpt lat="39.59058167" lon="-8.40851">
        <ele>60.0</ele>
        <time>2019-05-17T15:29:58.150Z</time>
      </trkpt>
      <trkpt lat="39.59058167" lon="-8.40851">
        <ele>60.0</ele>
        <time>2019-05-17T15:29:59.185Z</time>
      </trkpt>
      <trkpt lat="39.590655" lon="-8.40838667">
        <ele>60.0</ele>
        <time>2019-05-17T15:30:00.181Z</time>
      </trkpt>
      <trkpt lat="39.590655" lon="-8.40838667">
        <ele>60.0</ele>
        <time>2019-05-17T15:30:01.151Z</time>
      </trkpt>
      <trkpt lat="39.59072833" lon="-8.408265">
        <ele>59.0</ele>
        <time>2019-05-17T15:30:02.185Z</time>
      </trkpt>
      <trkpt lat="39.59072833" lon="-8.408265">
        <ele>59.0</ele>
        <time>2019-05-17T15:30:03.169Z</time>
      </trkpt>
      <trkpt lat="39.59079833" lon="-8.40814">
        <ele>59.0</ele>
        <time>2019-05-17T15:30:04.175Z</time>
      </trkpt>
      <trkpt lat="39.59079833" lon="-8.40814">
        <ele>59.0</ele>
        <time>2019-05-17T15:30:05.181Z</time>
      </trkpt>
      <trkpt lat="39.59086833" lon="-8.40801167">
        <ele>59.0</ele>
        <time>2019-05-17T15:30:06.169Z</time>
      </trkpt>
      <trkpt lat="39.59086833" lon="-8.40801167">
        <ele>59.0</ele>
        <time>2019-05-17T15:30:07.174Z</time>
      </trkpt>
      <trkpt lat="39.590935" lon="-8.40788">
        <ele>58.0</ele>
        <time>2019-05-17T15:30:08.171Z</time>
      </trkpt>
      <trkpt lat="39.590935" lon="-8.40788">
        <ele>58.0</ele>
        <time>2019-05-17T15:30:09.161Z</time>
      </trkpt>
      <trkpt lat="39.590995" lon="-8.40772667">
        <ele>58.0</ele>
        <time>2019-05-17T15:30:10.188Z</time>
      </trkpt>
      <trkpt lat="39.59102333" lon="-8.40764167">
        <ele>57.0</ele>
        <time>2019-05-17T15:30:11.155Z</time>
      </trkpt>
      <trkpt lat="39.59105167" lon="-8.40755167">
        <ele>56.0</ele>
        <time>2019-05-17T15:30:12.185Z</time>
      </trkpt>
      <trkpt lat="39.59105167" lon="-8.40755167">
        <ele>56.0</ele>
        <time>2019-05-17T15:30:13.167Z</time>
      </trkpt>
      <trkpt lat="39.59109833" lon="-8.40736833">
        <ele>55.0</ele>
        <time>2019-05-17T15:30:14.174Z</time>
      </trkpt>
      <trkpt lat="39.59109833" lon="-8.40736833">
        <ele>55.0</ele>
        <time>2019-05-17T15:30:15.189Z</time>
      </trkpt>
      <trkpt lat="39.59111833" lon="-8.40717333">
        <ele>53.0</ele>
        <time>2019-05-17T15:30:16.181Z</time>
      </trkpt>
      <trkpt lat="39.59111833" lon="-8.40717333">
        <ele>53.0</ele>
        <time>2019-05-17T15:30:17.159Z</time>
      </trkpt>
      <trkpt lat="39.59111833" lon="-8.407">
        <ele>52.0</ele>
        <time>2019-05-17T15:30:18.165Z</time>
      </trkpt>
      <trkpt lat="39.591115" lon="-8.40692833">
        <ele>51.0</ele>
        <time>2019-05-17T15:30:19.173Z</time>
      </trkpt>
      <trkpt lat="39.59111167" lon="-8.406865">
        <ele>51.0</ele>
        <time>2019-05-17T15:30:20.164Z</time>
      </trkpt>
      <trkpt lat="39.59111167" lon="-8.406865">
        <ele>51.0</ele>
        <time>2019-05-17T15:30:21.164Z</time>
      </trkpt>
      <trkpt lat="39.59110833" lon="-8.40675667">
        <ele>50.0</ele>
        <time>2019-05-17T15:30:22.153Z</time>
      </trkpt>
      <trkpt lat="39.59110833" lon="-8.40675667">
        <ele>50.0</ele>
        <time>2019-05-17T15:30:23.185Z</time>
      </trkpt>
      <trkpt lat="39.59111833" lon="-8.40667167">
        <ele>50.0</ele>
        <time>2019-05-17T15:30:24.165Z</time>
      </trkpt>
      <trkpt lat="39.59111833" lon="-8.40667167">
        <ele>50.0</ele>
        <time>2019-05-17T15:30:25.180Z</time>
      </trkpt>
      <trkpt lat="39.59113833" lon="-8.406595">
        <ele>50.0</ele>
        <time>2019-05-17T15:30:26.195Z</time>
      </trkpt>
      <trkpt lat="39.59113833" lon="-8.406595">
        <ele>50.0</ele>
        <time>2019-05-17T15:30:27.174Z</time>
      </trkpt>
      <trkpt lat="39.59118667" lon="-8.40654167">
        <ele>50.0</ele>
        <time>2019-05-17T15:30:28.188Z</time>
      </trkpt>
      <trkpt lat="39.59118667" lon="-8.40654167">
        <ele>50.0</ele>
        <time>2019-05-17T15:30:29.168Z</time>
      </trkpt>
      <trkpt lat="39.59125167" lon="-8.40651667">
        <ele>49.0</ele>
        <time>2019-05-17T15:30:30.176Z</time>
      </trkpt>
      <trkpt lat="39.59125167" lon="-8.40651667">
        <ele>49.0</ele>
        <time>2019-05-17T15:30:31.153Z</time>
      </trkpt>
      <trkpt lat="39.59131833" lon="-8.40650667">
        <ele>49.0</ele>
        <time>2019-05-17T15:30:32.167Z</time>
      </trkpt>
      <trkpt lat="39.59131833" lon="-8.40650667">
        <ele>49.0</ele>
        <time>2019-05-17T15:30:33.172Z</time>
      </trkpt>
      <trkpt lat="39.591385" lon="-8.40650167">
        <ele>49.0</ele>
        <time>2019-05-17T15:30:34.164Z</time>
      </trkpt>
      <trkpt lat="39.591385" lon="-8.40650167">
        <ele>49.0</ele>
        <time>2019-05-17T15:30:35.159Z</time>
      </trkpt>
      <trkpt lat="39.59145" lon="-8.406495">
        <ele>49.0</ele>
        <time>2019-05-17T15:30:36.156Z</time>
      </trkpt>
      <trkpt lat="39.59145" lon="-8.406495">
        <ele>49.0</ele>
        <time>2019-05-17T15:30:37.162Z</time>
      </trkpt>
      <trkpt lat="39.59151167" lon="-8.40649">
        <ele>49.0</ele>
        <time>2019-05-17T15:30:38.176Z</time>
      </trkpt>
      <trkpt lat="39.59151167" lon="-8.40649">
        <ele>49.0</ele>
        <time>2019-05-17T15:30:39.189Z</time>
      </trkpt>
      <trkpt lat="39.59157333" lon="-8.406485">
        <ele>49.0</ele>
        <time>2019-05-17T15:30:40.177Z</time>
      </trkpt>
      <trkpt lat="39.59157333" lon="-8.406485">
        <ele>49.0</ele>
        <time>2019-05-17T15:30:41.182Z</time>
      </trkpt>
      <trkpt lat="39.59163667" lon="-8.40648167">
        <ele>49.0</ele>
        <time>2019-05-17T15:30:42.182Z</time>
      </trkpt>
      <trkpt lat="39.59163667" lon="-8.40648167">
        <ele>49.0</ele>
        <time>2019-05-17T15:30:43.176Z</time>
      </trkpt>
      <trkpt lat="39.5917" lon="-8.40648167">
        <ele>49.0</ele>
        <time>2019-05-17T15:30:44.168Z</time>
      </trkpt>
      <trkpt lat="39.5917" lon="-8.40648167">
        <ele>49.0</ele>
        <time>2019-05-17T15:30:45.177Z</time>
      </trkpt>
      <trkpt lat="39.59176333" lon="-8.40649333">
        <ele>49.0</ele>
        <time>2019-05-17T15:30:46.174Z</time>
      </trkpt>
      <trkpt lat="39.59176333" lon="-8.40649333">
        <ele>49.0</ele>
        <time>2019-05-17T15:30:47.174Z</time>
      </trkpt>
      <trkpt lat="39.59181833" lon="-8.40651833">
        <ele>49.0</ele>
        <time>2019-05-17T15:30:48.180Z</time>
      </trkpt>
      <trkpt lat="39.59181833" lon="-8.40651833">
        <ele>49.0</ele>
        <time>2019-05-17T15:30:49.185Z</time>
      </trkpt>
      <trkpt lat="39.591855" lon="-8.406545">
        <ele>49.0</ele>
        <time>2019-05-17T15:30:50.152Z</time>
      </trkpt>
      <trkpt lat="39.591855" lon="-8.406545">
        <ele>49.0</ele>
        <time>2019-05-17T15:30:51.171Z</time>
      </trkpt>
      <trkpt lat="39.59188667" lon="-8.40658">
        <ele>50.0</ele>
        <time>2019-05-17T15:30:52.185Z</time>
      </trkpt>
      <trkpt lat="39.59189833" lon="-8.4066">
        <ele>50.0</ele>
        <time>2019-05-17T15:30:53.154Z</time>
      </trkpt>
      <trkpt lat="39.59189833" lon="-8.4066">
        <ele>50.0</ele>
        <time>2019-05-17T15:30:54.164Z</time>
      </trkpt>
      <trkpt lat="39.59192" lon="-8.40664333">
        <ele>51.0</ele>
        <time>2019-05-17T15:30:55.162Z</time>
      </trkpt>
      <trkpt lat="39.59193333" lon="-8.40666333">
        <ele>52.0</ele>
        <time>2019-05-17T15:30:56.188Z</time>
      </trkpt>
      <trkpt lat="39.59193333" lon="-8.40666333">
        <ele>52.0</ele>
        <time>2019-05-17T15:30:57.167Z</time>
      </trkpt>
      <trkpt lat="39.59196333" lon="-8.40669833">
        <ele>52.0</ele>
        <time>2019-05-17T15:30:58.156Z</time>
      </trkpt>
      <trkpt lat="39.59196333" lon="-8.40669833">
        <ele>52.0</ele>
        <time>2019-05-17T15:30:59.175Z</time>
      </trkpt>
      <trkpt lat="39.591985" lon="-8.40673333">
        <ele>52.0</ele>
        <time>2019-05-17T15:31:00.165Z</time>
      </trkpt>
      <trkpt lat="39.591995" lon="-8.40674833">
        <ele>52.0</ele>
        <time>2019-05-17T15:31:01.185Z</time>
      </trkpt>
      <trkpt lat="39.59200667" lon="-8.40676167">
        <ele>53.0</ele>
        <time>2019-05-17T15:31:02.178Z</time>
      </trkpt>
      <trkpt lat="39.59200667" lon="-8.40676167">
        <ele>53.0</ele>
        <time>2019-05-17T15:31:03.158Z</time>
      </trkpt>
      <trkpt lat="39.59203667" lon="-8.40678167">
        <ele>53.0</ele>
        <time>2019-05-17T15:31:04.164Z</time>
      </trkpt>
      <trkpt lat="39.59203667" lon="-8.40678167">
        <ele>53.0</ele>
        <time>2019-05-17T15:31:05.185Z</time>
      </trkpt>
      <trkpt lat="39.592065" lon="-8.406805">
        <ele>53.0</ele>
        <time>2019-05-17T15:31:06.159Z</time>
      </trkpt>
      <trkpt lat="39.592065" lon="-8.406805">
        <ele>53.0</ele>
        <time>2019-05-17T15:31:07.178Z</time>
      </trkpt>
      <trkpt lat="39.59206333" lon="-8.40684833">
        <ele>54.0</ele>
        <time>2019-05-17T15:31:08.152Z</time>
      </trkpt>
      <trkpt lat="39.59206333" lon="-8.40684833">
        <ele>54.0</ele>
        <time>2019-05-17T15:31:09.186Z</time>
      </trkpt>
      <trkpt lat="39.592035" lon="-8.40684167">
        <ele>54.0</ele>
        <time>2019-05-17T15:31:10.158Z</time>
      </trkpt>
      <trkpt lat="39.59201833" lon="-8.40682">
        <ele>54.0</ele>
        <time>2019-05-17T15:31:11.186Z</time>
      </trkpt>
      <trkpt lat="39.59201833" lon="-8.40682">
        <ele>54.0</ele>
        <time>2019-05-17T15:31:12.163Z</time>
      </trkpt>
      <trkpt lat="39.59197667" lon="-8.40676667">
        <ele>53.0</ele>
        <time>2019-05-17T15:31:13.181Z</time>
      </trkpt>
      <trkpt lat="39.59195667" lon="-8.40673667">
        <ele>53.0</ele>
        <time>2019-05-17T15:31:14.160Z</time>
      </trkpt>
      <trkpt lat="39.59195667" lon="-8.40673667">
        <ele>53.0</ele>
        <time>2019-05-17T15:31:15.174Z</time>
      </trkpt>
      <trkpt lat="39.59191333" lon="-8.40667833">
        <ele>52.0</ele>
        <time>2019-05-17T15:31:16.161Z</time>
      </trkpt>
      <trkpt lat="39.59191333" lon="-8.40667833">
        <ele>52.0</ele>
        <time>2019-05-17T15:31:17.182Z</time>
      </trkpt>
      <trkpt lat="39.59187167" lon="-8.40663">
        <ele>51.0</ele>
        <time>2019-05-17T15:31:18.158Z</time>
      </trkpt>
      <trkpt lat="39.59187167" lon="-8.40663">
        <ele>51.0</ele>
        <time>2019-05-17T15:31:19.180Z</time>
      </trkpt>
      <trkpt lat="39.59183667" lon="-8.406595">
        <ele>51.0</ele>
        <time>2019-05-17T15:31:20.192Z</time>
      </trkpt>
      <trkpt lat="39.59183667" lon="-8.406595">
        <ele>51.0</ele>
        <time>2019-05-17T15:31:21.184Z</time>
      </trkpt>
      <trkpt lat="39.591805" lon="-8.406565">
        <ele>51.0</ele>
        <time>2019-05-17T15:31:22.166Z</time>
      </trkpt>
      <trkpt lat="39.591805" lon="-8.406565">
        <ele>51.0</ele>
        <time>2019-05-17T15:31:23.185Z</time>
      </trkpt>
      <trkpt lat="39.59176333" lon="-8.40654167">
        <ele>50.0</ele>
        <time>2019-05-17T15:31:24.155Z</time>
      </trkpt>
      <trkpt lat="39.59176333" lon="-8.40654167">
        <ele>50.0</ele>
        <time>2019-05-17T15:31:25.177Z</time>
      </trkpt>
      <trkpt lat="39.59172333" lon="-8.40652833">
        <ele>50.0</ele>
        <time>2019-05-17T15:31:26.158Z</time>
      </trkpt>
      <trkpt lat="39.59172333" lon="-8.40652833">
        <ele>50.0</ele>
        <time>2019-05-17T15:31:27.172Z</time>
      </trkpt>
      <trkpt lat="39.59168167" lon="-8.40651167">
        <ele>50.0</ele>
        <time>2019-05-17T15:31:28.171Z</time>
      </trkpt>
      <trkpt lat="39.591655" lon="-8.40651">
        <ele>50.0</ele>
        <time>2019-05-17T15:31:29.186Z</time>
      </trkpt>
      <trkpt lat="39.591655" lon="-8.40651">
        <ele>50.0</ele>
        <time>2019-05-17T15:31:30.165Z</time>
      </trkpt>
      <trkpt lat="39.5916" lon="-8.40651333">
        <ele>50.0</ele>
        <time>2019-05-17T15:31:31.168Z</time>
      </trkpt>
      <trkpt lat="39.59157333" lon="-8.40650833">
        <ele>50.0</ele>
        <time>2019-05-17T15:31:32.165Z</time>
      </trkpt>
      <trkpt lat="39.59157333" lon="-8.40650833">
        <ele>50.0</ele>
        <time>2019-05-17T15:31:33.174Z</time>
      </trkpt>
      <trkpt lat="39.59152167" lon="-8.40651">
        <ele>50.0</ele>
        <time>2019-05-17T15:31:34.163Z</time>
      </trkpt>
      <trkpt lat="39.59152167" lon="-8.40651">
        <ele>50.0</ele>
        <time>2019-05-17T15:31:35.175Z</time>
      </trkpt>
      <trkpt lat="39.59149167" lon="-8.40655">
        <ele>50.0</ele>
        <time>2019-05-17T15:31:36.177Z</time>
      </trkpt>
      <trkpt lat="39.59149167" lon="-8.40655">
        <ele>50.0</ele>
        <time>2019-05-17T15:31:37.168Z</time>
      </trkpt>
      <trkpt lat="39.591485" lon="-8.40656167">
        <ele>50.0</ele>
        <time>2019-05-17T15:31:38.160Z</time>
      </trkpt>
      <trkpt lat="39.591485" lon="-8.40656167">
        <ele>50.0</ele>
        <time>2019-05-17T15:31:39.150Z</time>
      </trkpt>
      <trkpt lat="39.59148667" lon="-8.40659833">
        <ele>50.0</ele>
        <time>2019-05-17T15:31:40.187Z</time>
      </trkpt>
      <trkpt lat="39.59148667" lon="-8.40659833">
        <ele>50.0</ele>
        <time>2019-05-17T15:31:41.165Z</time>
      </trkpt>
      <trkpt lat="39.59149333" lon="-8.406645">
        <ele>51.0</ele>
        <time>2019-05-17T15:31:42.151Z</time>
      </trkpt>
      <trkpt lat="39.591485" lon="-8.40666333">
        <ele>51.0</ele>
        <time>2019-05-17T15:31:43.177Z</time>
      </trkpt>
      <trkpt lat="39.591465" lon="-8.40667">
        <ele>51.0</ele>
        <time>2019-05-17T15:31:44.174Z</time>
      </trkpt>
      <trkpt lat="39.591465" lon="-8.40667">
        <ele>51.0</ele>
        <time>2019-05-17T15:31:45.154Z</time>
      </trkpt>
      <trkpt lat="39.59141167" lon="-8.40667667">
        <ele>50.0</ele>
        <time>2019-05-17T15:31:46.150Z</time>
      </trkpt>
      <trkpt lat="39.59141167" lon="-8.40667667">
        <ele>50.0</ele>
        <time>2019-05-17T15:31:47.168Z</time>
      </trkpt>
      <trkpt lat="39.59134333" lon="-8.40668167">
        <ele>51.0</ele>
        <time>2019-05-17T15:31:48.169Z</time>
      </trkpt>
      <trkpt lat="39.59134333" lon="-8.40668167">
        <ele>51.0</ele>
        <time>2019-05-17T15:31:49.187Z</time>
      </trkpt>
      <trkpt lat="39.59126667" lon="-8.40669167">
        <ele>51.0</ele>
        <time>2019-05-17T15:31:50.172Z</time>
      </trkpt>
      <trkpt lat="39.59126667" lon="-8.40669167">
        <ele>51.0</ele>
        <time>2019-05-17T15:31:51.171Z</time>
      </trkpt>
      <trkpt lat="39.591205" lon="-8.40669833">
        <ele>50.0</ele>
        <time>2019-05-17T15:31:52.188Z</time>
      </trkpt>
      <trkpt lat="39.591205" lon="-8.40669833">
        <ele>50.0</ele>
        <time>2019-05-17T15:31:53.152Z</time>
      </trkpt>
      <trkpt lat="39.59119" lon="-8.406685">
        <ele>49.0</ele>
        <time>2019-05-17T15:31:54.171Z</time>
      </trkpt>
      <trkpt lat="39.59119667" lon="-8.40668333">
        <ele>49.0</ele>
        <time>2019-05-17T15:31:55.153Z</time>
      </trkpt>
      <trkpt lat="39.5912" lon="-8.40668">
        <ele>49.0</ele>
        <time>2019-05-17T15:31:56.181Z</time>
      </trkpt>
      <trkpt lat="39.5912" lon="-8.40668">
        <ele>49.0</ele>
        <time>2019-05-17T15:31:57.159Z</time>
      </trkpt>
      <trkpt lat="39.591195" lon="-8.40667667">
        <ele>48.0</ele>
        <time>2019-05-17T15:31:58.177Z</time>
      </trkpt>
      <trkpt lat="39.591195" lon="-8.40667667">
        <ele>48.0</ele>
        <time>2019-05-17T15:31:59.171Z</time>
      </trkpt>
      <trkpt lat="39.59119167" lon="-8.406675">
        <ele>48.0</ele>
        <time>2019-05-17T15:32:00.176Z</time>
      </trkpt>
      <trkpt lat="39.59119167" lon="-8.406675">
        <ele>48.0</ele>
        <time>2019-05-17T15:32:01.172Z</time>
      </trkpt>
      <trkpt lat="39.59119167" lon="-8.406675">
        <ele>48.0</ele>
        <time>2019-05-17T15:32:02.178Z</time>
      </trkpt>
      <trkpt lat="39.59119167" lon="-8.406675">
        <ele>48.0</ele>
        <time>2019-05-17T15:32:03.171Z</time>
      </trkpt>
      <trkpt lat="39.59119167" lon="-8.406675">
        <ele>48.0</ele>
        <time>2019-05-17T15:32:04.175Z</time>
      </trkpt>
      <trkpt lat="39.59119167" lon="-8.406675">
        <ele>48.0</ele>
        <time>2019-05-17T15:32:05.170Z</time>
      </trkpt>
      <trkpt lat="39.59119167" lon="-8.406675">
        <ele>48.0</ele>
        <time>2019-05-17T15:32:06.177Z</time>
      </trkpt>
      <trkpt lat="39.59119167" lon="-8.406675">
        <ele>48.0</ele>
        <time>2019-05-17T15:32:07.176Z</time>
      </trkpt>
      <trkpt lat="39.59119167" lon="-8.406675">
        <ele>48.0</ele>
        <time>2019-05-17T15:32:08.177Z</time>
      </trkpt>
      <trkpt lat="39.59119167" lon="-8.406675">
        <ele>48.0</ele>
        <time>2019-05-17T15:32:09.177Z</time>
      </trkpt>
      <trkpt lat="39.59119167" lon="-8.406675">
        <ele>48.0</ele>
        <time>2019-05-17T15:32:10.185Z</time>
      </trkpt>
      <trkpt lat="39.59119167" lon="-8.406675">
        <ele>48.0</ele>
        <time>2019-05-17T15:32:11.153Z</time>
      </trkpt>
      <trkpt lat="39.59119167" lon="-8.406675">
        <ele>48.0</ele>
        <time>2019-05-17T15:32:12.160Z</time>
      </trkpt>
      <trkpt lat="39.59119167" lon="-8.406675">
        <ele>48.0</ele>
        <time>2019-05-17T15:32:13.175Z</time>
      </trkpt>
      <trkpt lat="39.59119167" lon="-8.406675">
        <ele>48.0</ele>
        <time>2019-05-17T15:32:14.176Z</time>
      </trkpt>
      <trkpt lat="39.59119167" lon="-8.406675">
        <ele>48.0</ele>
        <time>2019-05-17T15:32:15.183Z</time>
      </trkpt>
      <trkpt lat="39.59119167" lon="-8.406675">
        <ele>48.0</ele>
        <time>2019-05-17T15:32:16.176Z</time>
      </trkpt>
      <trkpt lat="39.59119167" lon="-8.406675">
        <ele>48.0</ele>
        <time>2019-05-17T15:32:17.171Z</time>
      </trkpt>
      <trkpt lat="39.59123167" lon="-8.40666667">
        <ele>48.0</ele>
        <time>2019-05-17T15:32:18.175Z</time>
      </trkpt>
      <trkpt lat="39.59125167" lon="-8.406665">
        <ele>48.0</ele>
        <time>2019-05-17T15:32:19.177Z</time>
      </trkpt>
      <trkpt lat="39.591275" lon="-8.40666333">
        <ele>48.0</ele>
        <time>2019-05-17T15:32:20.180Z</time>
      </trkpt>
      <trkpt lat="39.591275" lon="-8.40666333">
        <ele>48.0</ele>
        <time>2019-05-17T15:32:21.184Z</time>
      </trkpt>
      <trkpt lat="39.59133333" lon="-8.40665167">
        <ele>48.0</ele>
        <time>2019-05-17T15:32:22.177Z</time>
      </trkpt>
      <trkpt lat="39.59133333" lon="-8.40665167">
        <ele>48.0</ele>
        <time>2019-05-17T15:32:23.174Z</time>
      </trkpt>
      <trkpt lat="39.591395" lon="-8.40665333">
        <ele>48.0</ele>
        <time>2019-05-17T15:32:24.165Z</time>
      </trkpt>
      <trkpt lat="39.59140833" lon="-8.40665167">
        <ele>48.0</ele>
        <time>2019-05-17T15:32:25.179Z</time>
      </trkpt>
      <trkpt lat="39.59140833" lon="-8.40665167">
        <ele>48.0</ele>
        <time>2019-05-17T15:32:26.158Z</time>
      </trkpt>
      <trkpt lat="39.59143667" lon="-8.40663">
        <ele>48.0</ele>
        <time>2019-05-17T15:32:27.157Z</time>
      </trkpt>
      <trkpt lat="39.59143667" lon="-8.40663">
        <ele>48.0</ele>
        <time>2019-05-17T15:32:28.154Z</time>
      </trkpt>
      <trkpt lat="39.591445" lon="-8.40661333">
        <ele>48.0</ele>
        <time>2019-05-17T15:32:29.150Z</time>
      </trkpt>
      <trkpt lat="39.591445" lon="-8.40661333">
        <ele>48.0</ele>
        <time>2019-05-17T15:32:30.163Z</time>
      </trkpt>
      <trkpt lat="39.59146833" lon="-8.40658">
        <ele>48.0</ele>
        <time>2019-05-17T15:32:31.187Z</time>
      </trkpt>
      <trkpt lat="39.59147667" lon="-8.40657167">
        <ele>48.0</ele>
        <time>2019-05-17T15:32:32.182Z</time>
      </trkpt>
      <trkpt lat="39.59147667" lon="-8.40657167">
        <ele>48.0</ele>
        <time>2019-05-17T15:32:33.189Z</time>
      </trkpt>
      <trkpt lat="39.59149167" lon="-8.40652167">
        <ele>48.0</ele>
        <time>2019-05-17T15:32:34.183Z</time>
      </trkpt>
      <trkpt lat="39.59149167" lon="-8.40652167">
        <ele>48.0</ele>
        <time>2019-05-17T15:32:35.165Z</time>
      </trkpt>
      <trkpt lat="39.59146" lon="-8.40637667">
        <ele>48.0</ele>
        <time>2019-05-17T15:32:36.156Z</time>
      </trkpt>
      <trkpt lat="39.59146" lon="-8.40637667">
        <ele>48.0</ele>
        <time>2019-05-17T15:32:37.169Z</time>
      </trkpt>
      <trkpt lat="39.591455" lon="-8.40629167">
        <ele>47.0</ele>
        <time>2019-05-17T15:32:38.167Z</time>
      </trkpt>
      <trkpt lat="39.591455" lon="-8.40629167">
        <ele>47.0</ele>
        <time>2019-05-17T15:32:39.187Z</time>
      </trkpt>
      <trkpt lat="39.59145833" lon="-8.40622">
        <ele>48.0</ele>
        <time>2019-05-17T15:32:40.189Z</time>
      </trkpt>
      <trkpt lat="39.59145833" lon="-8.40622">
        <ele>48.0</ele>
        <time>2019-05-17T15:32:41.151Z</time>
      </trkpt>
      <trkpt lat="39.59147" lon="-8.40615667">
        <ele>48.0</ele>
        <time>2019-05-17T15:32:42.186Z</time>
      </trkpt>
      <trkpt lat="39.59147" lon="-8.40615667">
        <ele>48.0</ele>
        <time>2019-05-17T15:32:43.151Z</time>
      </trkpt>
      <trkpt lat="39.59148" lon="-8.406095">
        <ele>48.0</ele>
        <time>2019-05-17T15:32:44.156Z</time>
      </trkpt>
      <trkpt lat="39.59148" lon="-8.406095">
        <ele>48.0</ele>
        <time>2019-05-17T15:32:45.165Z</time>
      </trkpt>
      <trkpt lat="39.59149" lon="-8.40603667">
        <ele>48.0</ele>
        <time>2019-05-17T15:32:46.175Z</time>
      </trkpt>
      <trkpt lat="39.59149" lon="-8.40603667">
        <ele>48.0</ele>
        <time>2019-05-17T15:32:47.180Z</time>
      </trkpt>
      <trkpt lat="39.59150667" lon="-8.40598">
        <ele>49.0</ele>
        <time>2019-05-17T15:32:48.173Z</time>
      </trkpt>
      <trkpt lat="39.59150667" lon="-8.40598">
        <ele>49.0</ele>
        <time>2019-05-17T15:32:49.185Z</time>
      </trkpt>
      <trkpt lat="39.59153333" lon="-8.40593333">
        <ele>50.0</ele>
        <time>2019-05-17T15:32:50.187Z</time>
      </trkpt>
      <trkpt lat="39.59153333" lon="-8.40593333">
        <ele>50.0</ele>
        <time>2019-05-17T15:32:51.164Z</time>
      </trkpt>
      <trkpt lat="39.59157667" lon="-8.405935">
        <ele>50.0</ele>
        <time>2019-05-17T15:32:52.155Z</time>
      </trkpt>
      <trkpt lat="39.59157667" lon="-8.405935">
        <ele>50.0</ele>
        <time>2019-05-17T15:32:53.187Z</time>
      </trkpt>
      <trkpt lat="39.59162167" lon="-8.40594833">
        <ele>50.0</ele>
        <time>2019-05-17T15:32:54.151Z</time>
      </trkpt>
      <trkpt lat="39.59164333" lon="-8.40595">
        <ele>50.0</ele>
        <time>2019-05-17T15:32:55.158Z</time>
      </trkpt>
      <trkpt lat="39.591665" lon="-8.40594333">
        <ele>50.0</ele>
        <time>2019-05-17T15:32:56.158Z</time>
      </trkpt>
      <trkpt lat="39.591665" lon="-8.40594333">
        <ele>50.0</ele>
        <time>2019-05-17T15:32:57.164Z</time>
      </trkpt>
      <trkpt lat="39.59168" lon="-8.40594167">
        <ele>50.0</ele>
        <time>2019-05-17T15:32:58.164Z</time>
      </trkpt>
      <trkpt lat="39.59168" lon="-8.40594167">
        <ele>50.0</ele>
        <time>2019-05-17T15:32:59.176Z</time>
      </trkpt>
      <trkpt lat="39.59168167" lon="-8.405945">
        <ele>50.0</ele>
        <time>2019-05-17T15:33:00.169Z</time>
      </trkpt>
      <trkpt lat="39.59168167" lon="-8.405945">
        <ele>50.0</ele>
        <time>2019-05-17T15:33:01.178Z</time>
      </trkpt>
      <trkpt lat="39.59168167" lon="-8.405945">
        <ele>50.0</ele>
        <time>2019-05-17T15:33:02.184Z</time>
      </trkpt>
      <trkpt lat="39.59168167" lon="-8.405945">
        <ele>50.0</ele>
        <time>2019-05-17T15:33:03.150Z</time>
      </trkpt>
      <trkpt lat="39.59168167" lon="-8.405945">
        <ele>50.0</ele>
        <time>2019-05-17T15:33:04.176Z</time>
      </trkpt>
      <trkpt lat="39.59168167" lon="-8.405945">
        <ele>50.0</ele>
        <time>2019-05-17T15:33:05.172Z</time>
      </trkpt>
      <trkpt lat="39.59168167" lon="-8.405945">
        <ele>50.0</ele>
        <time>2019-05-17T15:33:06.179Z</time>
      </trkpt>
      <trkpt lat="39.59168167" lon="-8.405945">
        <ele>50.0</ele>
        <time>2019-05-17T15:33:07.172Z</time>
      </trkpt>
      <trkpt lat="39.59168167" lon="-8.405945">
        <ele>50.0</ele>
        <time>2019-05-17T15:33:08.159Z</time>
      </trkpt>
      <trkpt lat="39.59168167" lon="-8.405945">
        <ele>50.0</ele>
        <time>2019-05-17T15:33:09.177Z</time>
      </trkpt>
      <trkpt lat="39.59171333" lon="-8.40594167">
        <ele>50.0</ele>
        <time>2019-05-17T15:33:10.167Z</time>
      </trkpt>
      <trkpt lat="39.59172333" lon="-8.40592667">
        <ele>49.0</ele>
        <time>2019-05-17T15:33:11.173Z</time>
      </trkpt>
      <trkpt lat="39.59172333" lon="-8.40592667">
        <ele>49.0</ele>
        <time>2019-05-17T15:33:12.152Z</time>
      </trkpt>
      <trkpt lat="39.59176333" lon="-8.40590333">
        <ele>49.0</ele>
        <time>2019-05-17T15:33:13.179Z</time>
      </trkpt>
      <trkpt lat="39.59179167" lon="-8.4059">
        <ele>49.0</ele>
        <time>2019-05-17T15:33:14.180Z</time>
      </trkpt>
      <trkpt lat="39.59179167" lon="-8.4059">
        <ele>49.0</ele>
        <time>2019-05-17T15:33:15.186Z</time>
      </trkpt>
      <trkpt lat="39.59186333" lon="-8.40588833">
        <ele>48.0</ele>
        <time>2019-05-17T15:33:16.162Z</time>
      </trkpt>
      <trkpt lat="39.59186333" lon="-8.40588833">
        <ele>48.0</ele>
        <time>2019-05-17T15:33:17.172Z</time>
      </trkpt>
      <trkpt lat="39.59194667" lon="-8.40587167">
        <ele>48.0</ele>
        <time>2019-05-17T15:33:18.155Z</time>
      </trkpt>
      <trkpt lat="39.59194667" lon="-8.40587167">
        <ele>48.0</ele>
        <time>2019-05-17T15:33:19.172Z</time>
      </trkpt>
      <trkpt lat="39.59202667" lon="-8.40584333">
        <ele>48.0</ele>
        <time>2019-05-17T15:33:20.163Z</time>
      </trkpt>
      <trkpt lat="39.59202667" lon="-8.40584333">
        <ele>48.0</ele>
        <time>2019-05-17T15:33:21.162Z</time>
      </trkpt>
      <trkpt lat="39.59210833" lon="-8.40581333">
        <ele>48.0</ele>
        <time>2019-05-17T15:33:22.159Z</time>
      </trkpt>
      <trkpt lat="39.59210833" lon="-8.40581333">
        <ele>48.0</ele>
        <time>2019-05-17T15:33:23.168Z</time>
      </trkpt>
      <trkpt lat="39.59218333" lon="-8.40579">
        <ele>47.0</ele>
        <time>2019-05-17T15:33:24.159Z</time>
      </trkpt>
      <trkpt lat="39.59218333" lon="-8.40579">
        <ele>47.0</ele>
        <time>2019-05-17T15:33:25.165Z</time>
      </trkpt>
      <trkpt lat="39.59226" lon="-8.40577333">
        <ele>47.0</ele>
        <time>2019-05-17T15:33:26.155Z</time>
      </trkpt>
      <trkpt lat="39.59226" lon="-8.40577333">
        <ele>47.0</ele>
        <time>2019-05-17T15:33:27.183Z</time>
      </trkpt>
      <trkpt lat="39.59233833" lon="-8.40576167">
        <ele>46.0</ele>
        <time>2019-05-17T15:33:28.176Z</time>
      </trkpt>
      <trkpt lat="39.59233833" lon="-8.40576167">
        <ele>46.0</ele>
        <time>2019-05-17T15:33:29.163Z</time>
      </trkpt>
      <trkpt lat="39.59242" lon="-8.40576333">
        <ele>47.0</ele>
        <time>2019-05-17T15:33:30.158Z</time>
      </trkpt>
      <trkpt lat="39.59242" lon="-8.40576333">
        <ele>47.0</ele>
        <time>2019-05-17T15:33:31.163Z</time>
      </trkpt>
      <trkpt lat="39.59250333" lon="-8.40577833">
        <ele>46.0</ele>
        <time>2019-05-17T15:33:32.165Z</time>
      </trkpt>
      <trkpt lat="39.59250333" lon="-8.40577833">
        <ele>46.0</ele>
        <time>2019-05-17T15:33:33.151Z</time>
      </trkpt>
      <trkpt lat="39.59258333" lon="-8.405805">
        <ele>46.0</ele>
        <time>2019-05-17T15:33:34.169Z</time>
      </trkpt>
      <trkpt lat="39.59258333" lon="-8.405805">
        <ele>46.0</ele>
        <time>2019-05-17T15:33:35.185Z</time>
      </trkpt>
      <trkpt lat="39.59266" lon="-8.40584333">
        <ele>46.0</ele>
        <time>2019-05-17T15:33:36.175Z</time>
      </trkpt>
      <trkpt lat="39.59269333" lon="-8.405865">
        <ele>46.0</ele>
        <time>2019-05-17T15:33:37.176Z</time>
      </trkpt>
      <trkpt lat="39.59272833" lon="-8.40589167">
        <ele>46.0</ele>
        <time>2019-05-17T15:33:38.175Z</time>
      </trkpt>
      <trkpt lat="39.59272833" lon="-8.40589167">
        <ele>46.0</ele>
        <time>2019-05-17T15:33:39.185Z</time>
      </trkpt>
      <trkpt lat="39.59279333" lon="-8.40595833">
        <ele>47.0</ele>
        <time>2019-05-17T15:33:40.192Z</time>
      </trkpt>
      <trkpt lat="39.592825" lon="-8.40599167">
        <ele>47.0</ele>
        <time>2019-05-17T15:33:41.174Z</time>
      </trkpt>
      <trkpt lat="39.592825" lon="-8.40599167">
        <ele>47.0</ele>
        <time>2019-05-17T15:33:42.185Z</time>
      </trkpt>
      <trkpt lat="39.59288833" lon="-8.40606833">
        <ele>47.0</ele>
        <time>2019-05-17T15:33:43.175Z</time>
      </trkpt>
      <trkpt lat="39.59292" lon="-8.406105">
        <ele>47.0</ele>
        <time>2019-05-17T15:33:44.185Z</time>
      </trkpt>
      <trkpt lat="39.59292" lon="-8.406105">
        <ele>47.0</ele>
        <time>2019-05-17T15:33:45.169Z</time>
      </trkpt>
      <trkpt lat="39.59298333" lon="-8.40617667">
        <ele>47.0</ele>
        <time>2019-05-17T15:33:46.163Z</time>
      </trkpt>
      <trkpt lat="39.59298333" lon="-8.40617667">
        <ele>47.0</ele>
        <time>2019-05-17T15:33:47.188Z</time>
      </trkpt>
      <trkpt lat="39.593035" lon="-8.406245">
        <ele>47.0</ele>
        <time>2019-05-17T15:33:48.158Z</time>
      </trkpt>
      <trkpt lat="39.593035" lon="-8.406245">
        <ele>47.0</ele>
        <time>2019-05-17T15:33:49.150Z</time>
      </trkpt>
      <trkpt lat="39.59309333" lon="-8.40630833">
        <ele>47.0</ele>
        <time>2019-05-17T15:33:50.152Z</time>
      </trkpt>
      <trkpt lat="39.59309333" lon="-8.40630833">
        <ele>47.0</ele>
        <time>2019-05-17T15:33:51.189Z</time>
      </trkpt>
      <trkpt lat="39.59315" lon="-8.40637333">
        <ele>47.0</ele>
        <time>2019-05-17T15:33:52.181Z</time>
      </trkpt>
      <trkpt lat="39.59315" lon="-8.40637333">
        <ele>47.0</ele>
        <time>2019-05-17T15:33:53.189Z</time>
      </trkpt>
      <trkpt lat="39.59320667" lon="-8.40643833">
        <ele>47.0</ele>
        <time>2019-05-17T15:33:54.152Z</time>
      </trkpt>
      <trkpt lat="39.59323333" lon="-8.40647167">
        <ele>47.0</ele>
        <time>2019-05-17T15:33:55.175Z</time>
      </trkpt>
      <trkpt lat="39.59326" lon="-8.406505">
        <ele>47.0</ele>
        <time>2019-05-17T15:33:56.163Z</time>
      </trkpt>
      <trkpt lat="39.59326" lon="-8.406505">
        <ele>47.0</ele>
        <time>2019-05-17T15:33:57.164Z</time>
      </trkpt>
      <trkpt lat="39.593315" lon="-8.40657">
        <ele>47.0</ele>
        <time>2019-05-17T15:33:58.163Z</time>
      </trkpt>
      <trkpt lat="39.593315" lon="-8.40657">
        <ele>47.0</ele>
        <time>2019-05-17T15:33:59.171Z</time>
      </trkpt>
      <trkpt lat="39.59336667" lon="-8.40663333">
        <ele>47.0</ele>
        <time>2019-05-17T15:34:00.165Z</time>
      </trkpt>
      <trkpt lat="39.59336667" lon="-8.40663333">
        <ele>47.0</ele>
        <time>2019-05-17T15:34:01.189Z</time>
      </trkpt>
      <trkpt lat="39.59341667" lon="-8.40669333">
        <ele>47.0</ele>
        <time>2019-05-17T15:34:02.155Z</time>
      </trkpt>
      <trkpt lat="39.59341667" lon="-8.40669333">
        <ele>47.0</ele>
        <time>2019-05-17T15:34:03.167Z</time>
      </trkpt>
      <trkpt lat="39.593465" lon="-8.40675167">
        <ele>47.0</ele>
        <time>2019-05-17T15:34:04.158Z</time>
      </trkpt>
      <trkpt lat="39.593465" lon="-8.40675167">
        <ele>47.0</ele>
        <time>2019-05-17T15:34:05.154Z</time>
      </trkpt>
      <trkpt lat="39.59351667" lon="-8.40680667">
        <ele>47.0</ele>
        <time>2019-05-17T15:34:06.159Z</time>
      </trkpt>
      <trkpt lat="39.59351667" lon="-8.40680667">
        <ele>47.0</ele>
        <time>2019-05-17T15:34:07.180Z</time>
      </trkpt>
      <trkpt lat="39.59357333" lon="-8.40685833">
        <ele>47.0</ele>
        <time>2019-05-17T15:34:08.175Z</time>
      </trkpt>
      <trkpt lat="39.59357333" lon="-8.40685833">
        <ele>47.0</ele>
        <time>2019-05-17T15:34:09.170Z</time>
      </trkpt>
      <trkpt lat="39.59362167" lon="-8.40690833">
        <ele>48.0</ele>
        <time>2019-05-17T15:34:10.191Z</time>
      </trkpt>
      <trkpt lat="39.59362167" lon="-8.40690833">
        <ele>48.0</ele>
        <time>2019-05-17T15:34:11.153Z</time>
      </trkpt>
      <trkpt lat="39.59366667" lon="-8.40695833">
        <ele>48.0</ele>
        <time>2019-05-17T15:34:12.179Z</time>
      </trkpt>
      <trkpt lat="39.59366667" lon="-8.40695833">
        <ele>48.0</ele>
        <time>2019-05-17T15:34:13.185Z</time>
      </trkpt>
      <trkpt lat="39.59371333" lon="-8.40701">
        <ele>47.0</ele>
        <time>2019-05-17T15:34:14.174Z</time>
      </trkpt>
      <trkpt lat="39.59371333" lon="-8.40701">
        <ele>47.0</ele>
        <time>2019-05-17T15:34:15.151Z</time>
      </trkpt>
      <trkpt lat="39.59376167" lon="-8.40706167">
        <ele>48.0</ele>
        <time>2019-05-17T15:34:16.173Z</time>
      </trkpt>
      <trkpt lat="39.59376167" lon="-8.40706167">
        <ele>48.0</ele>
        <time>2019-05-17T15:34:17.174Z</time>
      </trkpt>
      <trkpt lat="39.59381333" lon="-8.40711167">
        <ele>48.0</ele>
        <time>2019-05-17T15:34:18.175Z</time>
      </trkpt>
      <trkpt lat="39.59381333" lon="-8.40711167">
        <ele>48.0</ele>
        <time>2019-05-17T15:34:19.178Z</time>
      </trkpt>
      <trkpt lat="39.59386333" lon="-8.40716167">
        <ele>48.0</ele>
        <time>2019-05-17T15:34:20.175Z</time>
      </trkpt>
      <trkpt lat="39.59386333" lon="-8.40716167">
        <ele>48.0</ele>
        <time>2019-05-17T15:34:21.180Z</time>
      </trkpt>
      <trkpt lat="39.59391167" lon="-8.40721">
        <ele>48.0</ele>
        <time>2019-05-17T15:34:22.175Z</time>
      </trkpt>
      <trkpt lat="39.59393667" lon="-8.40723">
        <ele>48.0</ele>
        <time>2019-05-17T15:34:23.181Z</time>
      </trkpt>
      <trkpt lat="39.59393667" lon="-8.40723">
        <ele>48.0</ele>
        <time>2019-05-17T15:34:24.183Z</time>
      </trkpt>
      <trkpt lat="39.59399" lon="-8.407265">
        <ele>48.0</ele>
        <time>2019-05-17T15:34:25.155Z</time>
      </trkpt>
      <trkpt lat="39.59402" lon="-8.407285">
        <ele>48.0</ele>
        <time>2019-05-17T15:34:26.195Z</time>
      </trkpt>
      <trkpt lat="39.59402" lon="-8.407285">
        <ele>48.0</ele>
        <time>2019-05-17T15:34:27.169Z</time>
      </trkpt>
      <trkpt lat="39.59408167" lon="-8.40732">
        <ele>48.0</ele>
        <time>2019-05-17T15:34:28.174Z</time>
      </trkpt>
      <trkpt lat="39.59408167" lon="-8.40732">
        <ele>48.0</ele>
        <time>2019-05-17T15:34:29.181Z</time>
      </trkpt>
      <trkpt lat="39.59413833" lon="-8.40736">
        <ele>48.0</ele>
        <time>2019-05-17T15:34:30.184Z</time>
      </trkpt>
      <trkpt lat="39.59413833" lon="-8.40736">
        <ele>48.0</ele>
        <time>2019-05-17T15:34:31.167Z</time>
      </trkpt>
      <trkpt lat="39.59419833" lon="-8.4074">
        <ele>48.0</ele>
        <time>2019-05-17T15:34:32.176Z</time>
      </trkpt>
      <trkpt lat="39.59419833" lon="-8.4074">
        <ele>48.0</ele>
        <time>2019-05-17T15:34:33.184Z</time>
      </trkpt>
      <trkpt lat="39.59425833" lon="-8.40744">
        <ele>48.0</ele>
        <time>2019-05-17T15:34:34.155Z</time>
      </trkpt>
      <trkpt lat="39.59425833" lon="-8.40744">
        <ele>48.0</ele>
        <time>2019-05-17T15:34:35.161Z</time>
      </trkpt>
      <trkpt lat="39.59431833" lon="-8.407475">
        <ele>48.0</ele>
        <time>2019-05-17T15:34:36.164Z</time>
      </trkpt>
      <trkpt lat="39.59431833" lon="-8.407475">
        <ele>48.0</ele>
        <time>2019-05-17T15:34:37.157Z</time>
      </trkpt>
      <trkpt lat="39.59438" lon="-8.407515">
        <ele>48.0</ele>
        <time>2019-05-17T15:34:38.186Z</time>
      </trkpt>
      <trkpt lat="39.59438" lon="-8.407515">
        <ele>48.0</ele>
        <time>2019-05-17T15:34:39.151Z</time>
      </trkpt>
      <trkpt lat="39.59444167" lon="-8.407555">
        <ele>48.0</ele>
        <time>2019-05-17T15:34:40.155Z</time>
      </trkpt>
      <trkpt lat="39.59444167" lon="-8.407555">
        <ele>48.0</ele>
        <time>2019-05-17T15:34:41.175Z</time>
      </trkpt>
      <trkpt lat="39.59450333" lon="-8.40759667">
        <ele>48.0</ele>
        <time>2019-05-17T15:34:42.172Z</time>
      </trkpt>
      <trkpt lat="39.59450333" lon="-8.40759667">
        <ele>48.0</ele>
        <time>2019-05-17T15:34:43.178Z</time>
      </trkpt>
      <trkpt lat="39.59456333" lon="-8.40764">
        <ele>48.0</ele>
        <time>2019-05-17T15:34:44.175Z</time>
      </trkpt>
      <trkpt lat="39.59456333" lon="-8.40764">
        <ele>48.0</ele>
        <time>2019-05-17T15:34:45.186Z</time>
      </trkpt>
      <trkpt lat="39.59462" lon="-8.40769333">
        <ele>47.0</ele>
        <time>2019-05-17T15:34:46.175Z</time>
      </trkpt>
      <trkpt lat="39.59462" lon="-8.40769333">
        <ele>47.0</ele>
        <time>2019-05-17T15:34:47.181Z</time>
      </trkpt>
      <trkpt lat="39.59467667" lon="-8.40774833">
        <ele>47.0</ele>
        <time>2019-05-17T15:34:48.155Z</time>
      </trkpt>
      <trkpt lat="39.59467667" lon="-8.40774833">
        <ele>47.0</ele>
        <time>2019-05-17T15:34:49.159Z</time>
      </trkpt>
      <trkpt lat="39.594735" lon="-8.40778667">
        <ele>47.0</ele>
        <time>2019-05-17T15:34:50.170Z</time>
      </trkpt>
      <trkpt lat="39.594735" lon="-8.40778667">
        <ele>47.0</ele>
        <time>2019-05-17T15:34:51.156Z</time>
      </trkpt>
      <trkpt lat="39.5948" lon="-8.407805">
        <ele>47.0</ele>
        <time>2019-05-17T15:34:52.194Z</time>
      </trkpt>
      <trkpt lat="39.5948" lon="-8.407805">
        <ele>47.0</ele>
        <time>2019-05-17T15:34:53.187Z</time>
      </trkpt>
      <trkpt lat="39.59486167" lon="-8.40782667">
        <ele>47.0</ele>
        <time>2019-05-17T15:34:54.168Z</time>
      </trkpt>
      <trkpt lat="39.59486167" lon="-8.40782667">
        <ele>47.0</ele>
        <time>2019-05-17T15:34:55.173Z</time>
      </trkpt>
      <trkpt lat="39.59489667" lon="-8.407865">
        <ele>47.0</ele>
        <time>2019-05-17T15:34:56.181Z</time>
      </trkpt>
      <trkpt lat="39.59489667" lon="-8.407865">
        <ele>47.0</ele>
        <time>2019-05-17T15:34:57.168Z</time>
      </trkpt>
      <trkpt lat="39.594935" lon="-8.40790833">
        <ele>47.0</ele>
        <time>2019-05-17T15:34:58.165Z</time>
      </trkpt>
      <trkpt lat="39.594935" lon="-8.40790833">
        <ele>47.0</ele>
        <time>2019-05-17T15:34:59.173Z</time>
      </trkpt>
      <trkpt lat="39.59499167" lon="-8.40793333">
        <ele>48.0</ele>
        <time>2019-05-17T15:35:00.162Z</time>
      </trkpt>
      <trkpt lat="39.59502333" lon="-8.407945">
        <ele>47.0</ele>
        <time>2019-05-17T15:35:01.154Z</time>
      </trkpt>
      <trkpt lat="39.59502333" lon="-8.407945">
        <ele>47.0</ele>
        <time>2019-05-17T15:35:02.183Z</time>
      </trkpt>
      <trkpt lat="39.59508" lon="-8.40797667">
        <ele>47.0</ele>
        <time>2019-05-17T15:35:03.180Z</time>
      </trkpt>
      <trkpt lat="39.59508" lon="-8.40797667">
        <ele>47.0</ele>
        <time>2019-05-17T15:35:04.188Z</time>
      </trkpt>
      <trkpt lat="39.59513667" lon="-8.40801167">
        <ele>47.0</ele>
        <time>2019-05-17T15:35:05.151Z</time>
      </trkpt>
      <trkpt lat="39.59513667" lon="-8.40801167">
        <ele>47.0</ele>
        <time>2019-05-17T15:35:06.164Z</time>
      </trkpt>
      <trkpt lat="39.595195" lon="-8.40804833">
        <ele>47.0</ele>
        <time>2019-05-17T15:35:07.182Z</time>
      </trkpt>
      <trkpt lat="39.59522167" lon="-8.40806667">
        <ele>47.0</ele>
        <time>2019-05-17T15:35:08.165Z</time>
      </trkpt>
      <trkpt lat="39.59522167" lon="-8.40806667">
        <ele>47.0</ele>
        <time>2019-05-17T15:35:09.168Z</time>
      </trkpt>
      <trkpt lat="39.59527" lon="-8.408095">
        <ele>48.0</ele>
        <time>2019-05-17T15:35:10.172Z</time>
      </trkpt>
      <trkpt lat="39.59527" lon="-8.408095">
        <ele>48.0</ele>
        <time>2019-05-17T15:35:11.178Z</time>
      </trkpt>
      <trkpt lat="39.59532333" lon="-8.40812833">
        <ele>48.0</ele>
        <time>2019-05-17T15:35:12.165Z</time>
      </trkpt>
      <trkpt lat="39.59532333" lon="-8.40812833">
        <ele>48.0</ele>
        <time>2019-05-17T15:35:13.183Z</time>
      </trkpt>
      <trkpt lat="39.59537667" lon="-8.40816833">
        <ele>48.0</ele>
        <time>2019-05-17T15:35:14.178Z</time>
      </trkpt>
      <trkpt lat="39.59537667" lon="-8.40816833">
        <ele>48.0</ele>
        <time>2019-05-17T15:35:15.172Z</time>
      </trkpt>
      <trkpt lat="39.59542667" lon="-8.40821">
        <ele>48.0</ele>
        <time>2019-05-17T15:35:16.178Z</time>
      </trkpt>
      <trkpt lat="39.59542667" lon="-8.40821">
        <ele>48.0</ele>
        <time>2019-05-17T15:35:17.155Z</time>
      </trkpt>
      <trkpt lat="39.59547833" lon="-8.408245">
        <ele>49.0</ele>
        <time>2019-05-17T15:35:18.159Z</time>
      </trkpt>
      <trkpt lat="39.59547833" lon="-8.408245">
        <ele>49.0</ele>
        <time>2019-05-17T15:35:19.152Z</time>
      </trkpt>
      <trkpt lat="39.595525" lon="-8.40827667">
        <ele>50.0</ele>
        <time>2019-05-17T15:35:20.183Z</time>
      </trkpt>
      <trkpt lat="39.595525" lon="-8.40827667">
        <ele>50.0</ele>
        <time>2019-05-17T15:35:21.152Z</time>
      </trkpt>
      <trkpt lat="39.59557167" lon="-8.40830667">
        <ele>50.0</ele>
        <time>2019-05-17T15:35:22.185Z</time>
      </trkpt>
      <trkpt lat="39.59557167" lon="-8.40830667">
        <ele>50.0</ele>
        <time>2019-05-17T15:35:23.178Z</time>
      </trkpt>
      <trkpt lat="39.59562" lon="-8.40833833">
        <ele>50.0</ele>
        <time>2019-05-17T15:35:24.166Z</time>
      </trkpt>
      <trkpt lat="39.59562" lon="-8.40833833">
        <ele>50.0</ele>
        <time>2019-05-17T15:35:25.187Z</time>
      </trkpt>
      <trkpt lat="39.59567" lon="-8.40837">
        <ele>50.0</ele>
        <time>2019-05-17T15:35:26.186Z</time>
      </trkpt>
      <trkpt lat="39.59567" lon="-8.40837">
        <ele>50.0</ele>
        <time>2019-05-17T15:35:27.170Z</time>
      </trkpt>
      <trkpt lat="39.59570833" lon="-8.40840333">
        <ele>50.0</ele>
        <time>2019-05-17T15:35:28.165Z</time>
      </trkpt>
      <trkpt lat="39.59570833" lon="-8.40840333">
        <ele>50.0</ele>
        <time>2019-05-17T15:35:29.167Z</time>
      </trkpt>
      <trkpt lat="39.595755" lon="-8.40843333">
        <ele>51.0</ele>
        <time>2019-05-17T15:35:30.170Z</time>
      </trkpt>
      <trkpt lat="39.595755" lon="-8.40843333">
        <ele>51.0</ele>
        <time>2019-05-17T15:35:31.156Z</time>
      </trkpt>
      <trkpt lat="39.59579" lon="-8.40846167">
        <ele>51.0</ele>
        <time>2019-05-17T15:35:32.185Z</time>
      </trkpt>
      <trkpt lat="39.59579" lon="-8.40846167">
        <ele>51.0</ele>
        <time>2019-05-17T15:35:33.177Z</time>
      </trkpt>
      <trkpt lat="39.59585" lon="-8.408485">
        <ele>52.0</ele>
        <time>2019-05-17T15:35:34.182Z</time>
      </trkpt>
      <trkpt lat="39.59585" lon="-8.408485">
        <ele>52.0</ele>
        <time>2019-05-17T15:35:35.173Z</time>
      </trkpt>
      <trkpt lat="39.59590167" lon="-8.40850833">
        <ele>52.0</ele>
        <time>2019-05-17T15:35:36.169Z</time>
      </trkpt>
      <trkpt lat="39.59590167" lon="-8.40850833">
        <ele>52.0</ele>
        <time>2019-05-17T15:35:37.177Z</time>
      </trkpt>
      <trkpt lat="39.59594" lon="-8.40850833">
        <ele>53.0</ele>
        <time>2019-05-17T15:35:38.175Z</time>
      </trkpt>
      <trkpt lat="39.59594" lon="-8.40850833">
        <ele>53.0</ele>
        <time>2019-05-17T15:35:39.155Z</time>
      </trkpt>
      <trkpt lat="39.59595" lon="-8.40851667">
        <ele>54.0</ele>
        <time>2019-05-17T15:35:40.161Z</time>
      </trkpt>
      <trkpt lat="39.59595" lon="-8.40851667">
        <ele>54.0</ele>
        <time>2019-05-17T15:35:41.157Z</time>
      </trkpt>
      <trkpt lat="39.59595167" lon="-8.40852667">
        <ele>56.0</ele>
        <time>2019-05-17T15:35:42.158Z</time>
      </trkpt>
      <trkpt lat="39.59595167" lon="-8.40852667">
        <ele>56.0</ele>
        <time>2019-05-17T15:35:43.164Z</time>
      </trkpt>
      <trkpt lat="39.59593167" lon="-8.40851833">
        <ele>59.0</ele>
        <time>2019-05-17T15:35:44.167Z</time>
      </trkpt>
      <trkpt lat="39.59593167" lon="-8.40851833">
        <ele>59.0</ele>
        <time>2019-05-17T15:35:45.175Z</time>
      </trkpt>
      <trkpt lat="39.59593167" lon="-8.40851833">
        <ele>59.0</ele>
        <time>2019-05-17T15:35:46.181Z</time>
      </trkpt>
      <trkpt lat="39.59593167" lon="-8.40851833">
        <ele>59.0</ele>
        <time>2019-05-17T15:35:47.187Z</time>
      </trkpt>
      <trkpt lat="39.59593167" lon="-8.40851833">
        <ele>59.0</ele>
        <time>2019-05-17T15:35:48.152Z</time>
      </trkpt>
      <trkpt lat="39.59593167" lon="-8.40851833">
        <ele>59.0</ele>
        <time>2019-05-17T15:35:49.164Z</time>
      </trkpt>
      <trkpt lat="39.59593167" lon="-8.40851833">
        <ele>59.0</ele>
        <time>2019-05-17T15:35:50.166Z</time>
      </trkpt>
      <trkpt lat="39.59593167" lon="-8.40851833">
        <ele>59.0</ele>
        <time>2019-05-17T15:35:51.152Z</time>
      </trkpt>
      <trkpt lat="39.59593167" lon="-8.40851833">
        <ele>59.0</ele>
        <time>2019-05-17T15:35:52.178Z</time>
      </trkpt>
      <trkpt lat="39.59593167" lon="-8.40851833">
        <ele>59.0</ele>
        <time>2019-05-17T15:35:53.186Z</time>
      </trkpt>
      <trkpt lat="39.59593167" lon="-8.40851833">
        <ele>59.0</ele>
        <time>2019-05-17T15:35:54.175Z</time>
      </trkpt>
      <trkpt lat="39.59593167" lon="-8.40851833">
        <ele>59.0</ele>
        <time>2019-05-17T15:35:55.181Z</time>
      </trkpt>
      <trkpt lat="39.59593167" lon="-8.40851833">
        <ele>59.0</ele>
        <time>2019-05-17T15:35:56.175Z</time>
      </trkpt>
      <trkpt lat="39.59593167" lon="-8.40851833">
        <ele>59.0</ele>
        <time>2019-05-17T15:35:57.177Z</time>
      </trkpt>
      <trkpt lat="39.59593167" lon="-8.40851833">
        <ele>59.0</ele>
        <time>2019-05-17T15:35:58.172Z</time>
      </trkpt>
      <trkpt lat="39.59593167" lon="-8.40851833">
        <ele>59.0</ele>
        <time>2019-05-17T15:35:59.177Z</time>
      </trkpt>
      <trkpt lat="39.59593167" lon="-8.40851833">
        <ele>59.0</ele>
        <time>2019-05-17T15:36:00.175Z</time>
      </trkpt>
      <trkpt lat="39.59593167" lon="-8.40851833">
        <ele>59.0</ele>
        <time>2019-05-17T15:36:01.172Z</time>
      </trkpt>
      <trkpt lat="39.59593167" lon="-8.40851833">
        <ele>59.0</ele>
        <time>2019-05-17T15:36:02.152Z</time>
      </trkpt>
      <trkpt lat="39.59593167" lon="-8.40851833">
        <ele>59.0</ele>
        <time>2019-05-17T15:36:03.178Z</time>
      </trkpt>
      <trkpt lat="39.59593167" lon="-8.40851833">
        <ele>59.0</ele>
        <time>2019-05-17T15:36:04.175Z</time>
      </trkpt>
      <trkpt lat="39.59593167" lon="-8.40851833">
        <ele>59.0</ele>
        <time>2019-05-17T15:36:05.172Z</time>
      </trkpt>
      <trkpt lat="39.59593167" lon="-8.40851833">
        <ele>59.0</ele>
        <time>2019-05-17T15:36:06.177Z</time>
      </trkpt>
      <trkpt lat="39.59593167" lon="-8.40851833">
        <ele>59.0</ele>
        <time>2019-05-17T15:36:07.175Z</time>
      </trkpt>
      <trkpt lat="39.59593167" lon="-8.40851833">
        <ele>59.0</ele>
        <time>2019-05-17T15:36:08.160Z</time>
      </trkpt>
      <trkpt lat="39.59593167" lon="-8.40851833">
        <ele>59.0</ele>
        <time>2019-05-17T15:36:09.178Z</time>
      </trkpt>
      <trkpt lat="39.59593167" lon="-8.40851833">
        <ele>59.0</ele>
        <time>2019-05-17T15:36:10.179Z</time>
      </trkpt>
      <trkpt lat="39.59593167" lon="-8.40851833">
        <ele>59.0</ele>
        <time>2019-05-17T15:36:11.184Z</time>
      </trkpt>
      <trkpt lat="39.59593167" lon="-8.40851833">
        <ele>59.0</ele>
        <time>2019-05-17T15:36:12.150Z</time>
      </trkpt>
      <trkpt lat="39.59593167" lon="-8.40851833">
        <ele>59.0</ele>
        <time>2019-05-17T15:36:13.177Z</time>
      </trkpt>
      <trkpt lat="39.59593167" lon="-8.40851833">
        <ele>59.0</ele>
        <time>2019-05-17T15:36:14.180Z</time>
      </trkpt>
      <trkpt lat="39.59593167" lon="-8.40851833">
        <ele>59.0</ele>
        <time>2019-05-17T15:36:15.172Z</time>
      </trkpt>
      <trkpt lat="39.59593167" lon="-8.40851833">
        <ele>59.0</ele>
        <time>2019-05-17T15:36:16.177Z</time>
      </trkpt>
      <trkpt lat="39.59593167" lon="-8.40851833">
        <ele>59.0</ele>
        <time>2019-05-17T15:36:17.172Z</time>
      </trkpt>
      <trkpt lat="39.59593167" lon="-8.40851833">
        <ele>59.0</ele>
        <time>2019-05-17T15:36:18.170Z</time>
      </trkpt>
      <trkpt lat="39.59593167" lon="-8.40851833">
        <ele>59.0</ele>
        <time>2019-05-17T15:36:19.172Z</time>
      </trkpt>
      <trkpt lat="39.59593167" lon="-8.40851833">
        <ele>59.0</ele>
        <time>2019-05-17T15:36:20.180Z</time>
      </trkpt>
      <trkpt lat="39.59593167" lon="-8.40851833">
        <ele>59.0</ele>
        <time>2019-05-17T15:36:21.173Z</time>
      </trkpt>
      <trkpt lat="39.59593167" lon="-8.40851833">
        <ele>59.0</ele>
        <time>2019-05-17T15:36:22.177Z</time>
      </trkpt>
      <trkpt lat="39.59593167" lon="-8.40851833">
        <ele>59.0</ele>
        <time>2019-05-17T15:36:23.173Z</time>
      </trkpt>
      <trkpt lat="39.59593167" lon="-8.40851833">
        <ele>59.0</ele>
        <time>2019-05-17T15:36:24.177Z</time>
      </trkpt>
      <trkpt lat="39.59593167" lon="-8.40851833">
        <ele>59.0</ele>
        <time>2019-05-17T15:36:25.178Z</time>
      </trkpt>
      <trkpt lat="39.59593167" lon="-8.40851833">
        <ele>59.0</ele>
        <time>2019-05-17T15:36:26.180Z</time>
      </trkpt>
      <trkpt lat="39.59593167" lon="-8.40851833">
        <ele>59.0</ele>
        <time>2019-05-17T15:36:27.173Z</time>
      </trkpt>
      <trkpt lat="39.59593167" lon="-8.40851833">
        <ele>59.0</ele>
        <time>2019-05-17T15:36:28.175Z</time>
      </trkpt>
      <trkpt lat="39.59593167" lon="-8.40851833">
        <ele>59.0</ele>
        <time>2019-05-17T15:36:29.172Z</time>
      </trkpt>
      <trkpt lat="39.59593167" lon="-8.40851833">
        <ele>59.0</ele>
        <time>2019-05-17T15:36:30.177Z</time>
      </trkpt>
      <trkpt lat="39.59593167" lon="-8.40851833">
        <ele>59.0</ele>
        <time>2019-05-17T15:36:31.172Z</time>
      </trkpt>
      <trkpt lat="39.59593167" lon="-8.40851833">
        <ele>59.0</ele>
        <time>2019-05-17T15:36:32.180Z</time>
      </trkpt>
      <trkpt lat="39.59593167" lon="-8.40851833">
        <ele>59.0</ele>
        <time>2019-05-17T15:36:33.173Z</time>
      </trkpt>
      <trkpt lat="39.59593167" lon="-8.40851833">
        <ele>59.0</ele>
        <time>2019-05-17T15:36:34.177Z</time>
      </trkpt>
      <trkpt lat="39.59593167" lon="-8.40851833">
        <ele>59.0</ele>
        <time>2019-05-17T15:36:35.172Z</time>
      </trkpt>
      <trkpt lat="39.59593167" lon="-8.40851833">
        <ele>59.0</ele>
        <time>2019-05-17T15:36:36.179Z</time>
      </trkpt>
      <trkpt lat="39.59593167" lon="-8.40851833">
        <ele>59.0</ele>
        <time>2019-05-17T15:36:37.173Z</time>
      </trkpt>
      <trkpt lat="39.59593167" lon="-8.40851833">
        <ele>59.0</ele>
        <time>2019-05-17T15:36:38.160Z</time>
      </trkpt>
      <trkpt lat="39.59593167" lon="-8.40851833">
        <ele>59.0</ele>
        <time>2019-05-17T15:36:39.186Z</time>
      </trkpt>
      <trkpt lat="39.59593167" lon="-8.40851833">
        <ele>59.0</ele>
        <time>2019-05-17T15:36:40.179Z</time>
      </trkpt>
      <trkpt lat="39.59593167" lon="-8.40851833">
        <ele>59.0</ele>
        <time>2019-05-17T15:36:41.172Z</time>
      </trkpt>
      <trkpt lat="39.59593167" lon="-8.40851833">
        <ele>59.0</ele>
        <time>2019-05-17T15:36:42.177Z</time>
      </trkpt>
      <trkpt lat="39.59593167" lon="-8.40851833">
        <ele>59.0</ele>
        <time>2019-05-17T15:36:43.173Z</time>
      </trkpt>
      <trkpt lat="39.59593167" lon="-8.40851833">
        <ele>59.0</ele>
        <time>2019-05-17T15:36:44.181Z</time>
      </trkpt>
      <trkpt lat="39.59593167" lon="-8.40851833">
        <ele>59.0</ele>
        <time>2019-05-17T15:36:45.172Z</time>
      </trkpt>
      <trkpt lat="39.59593167" lon="-8.40851833">
        <ele>59.0</ele>
        <time>2019-05-17T15:36:46.178Z</time>
      </trkpt>
      <trkpt lat="39.59593167" lon="-8.40851833">
        <ele>59.0</ele>
        <time>2019-05-17T15:36:47.173Z</time>
      </trkpt>
      <trkpt lat="39.59593167" lon="-8.40851833">
        <ele>59.0</ele>
        <time>2019-05-17T15:36:48.177Z</time>
      </trkpt>
      <trkpt lat="39.59593833" lon="-8.40857167">
        <ele>81.0</ele>
        <time>2019-05-17T15:36:49.162Z</time>
      </trkpt>
      <trkpt lat="39.59595" lon="-8.40858333">
        <ele>81.0</ele>
        <time>2019-05-17T15:36:50.187Z</time>
      </trkpt>
      <trkpt lat="39.59595" lon="-8.40858333">
        <ele>81.0</ele>
        <time>2019-05-17T15:36:51.172Z</time>
      </trkpt>
      <trkpt lat="39.59604333" lon="-8.40862833">
        <ele>81.0</ele>
        <time>2019-05-17T15:36:52.177Z</time>
      </trkpt>
      <trkpt lat="39.59604333" lon="-8.40862833">
        <ele>81.0</ele>
        <time>2019-05-17T15:36:53.172Z</time>
      </trkpt>
      <trkpt lat="39.59611667" lon="-8.40866833">
        <ele>81.0</ele>
        <time>2019-05-17T15:36:54.183Z</time>
      </trkpt>
      <trkpt lat="39.59611667" lon="-8.40866833">
        <ele>81.0</ele>
        <time>2019-05-17T15:36:55.166Z</time>
      </trkpt>
      <trkpt lat="39.59619167" lon="-8.40872">
        <ele>80.0</ele>
        <time>2019-05-17T15:36:56.194Z</time>
      </trkpt>
      <trkpt lat="39.59619167" lon="-8.40872">
        <ele>80.0</ele>
        <time>2019-05-17T15:36:57.184Z</time>
      </trkpt>
      <trkpt lat="39.59626167" lon="-8.40876167">
        <ele>79.0</ele>
        <time>2019-05-17T15:36:58.178Z</time>
      </trkpt>
      <trkpt lat="39.59626167" lon="-8.40876167">
        <ele>79.0</ele>
        <time>2019-05-17T15:36:59.168Z</time>
      </trkpt>
      <trkpt lat="39.59632833" lon="-8.408795">
        <ele>78.0</ele>
        <time>2019-05-17T15:37:00.164Z</time>
      </trkpt>
      <trkpt lat="39.59632833" lon="-8.408795">
        <ele>78.0</ele>
        <time>2019-05-17T15:37:01.172Z</time>
      </trkpt>
      <trkpt lat="39.59639167" lon="-8.408835">
        <ele>77.0</ele>
        <time>2019-05-17T15:37:02.162Z</time>
      </trkpt>
      <trkpt lat="39.59639167" lon="-8.408835">
        <ele>77.0</ele>
        <time>2019-05-17T15:37:03.179Z</time>
      </trkpt>
      <trkpt lat="39.596445" lon="-8.40887333">
        <ele>77.0</ele>
        <time>2019-05-17T15:37:04.175Z</time>
      </trkpt>
      <trkpt lat="39.59647" lon="-8.40889">
        <ele>77.0</ele>
        <time>2019-05-17T15:37:05.151Z</time>
      </trkpt>
      <trkpt lat="39.59647" lon="-8.40889">
        <ele>77.0</ele>
        <time>2019-05-17T15:37:06.187Z</time>
      </trkpt>
      <trkpt lat="39.596515" lon="-8.40892833">
        <ele>77.0</ele>
        <time>2019-05-17T15:37:07.178Z</time>
      </trkpt>
      <trkpt lat="39.596515" lon="-8.40892833">
        <ele>77.0</ele>
        <time>2019-05-17T15:37:08.168Z</time>
      </trkpt>
      <trkpt lat="39.59656" lon="-8.40896333">
        <ele>76.0</ele>
        <time>2019-05-17T15:37:09.170Z</time>
      </trkpt>
      <trkpt lat="39.59656" lon="-8.40896333">
        <ele>76.0</ele>
        <time>2019-05-17T15:37:10.165Z</time>
      </trkpt>
      <trkpt lat="39.59660833" lon="-8.40901">
        <ele>77.0</ele>
        <time>2019-05-17T15:37:11.164Z</time>
      </trkpt>
      <trkpt lat="39.59660833" lon="-8.40901">
        <ele>77.0</ele>
        <time>2019-05-17T15:37:12.151Z</time>
      </trkpt>
      <trkpt lat="39.59666167" lon="-8.409055">
        <ele>77.0</ele>
        <time>2019-05-17T15:37:13.170Z</time>
      </trkpt>
      <trkpt lat="39.59669" lon="-8.40907667">
        <ele>77.0</ele>
        <time>2019-05-17T15:37:14.174Z</time>
      </trkpt>
      <trkpt lat="39.59669" lon="-8.40907667">
        <ele>77.0</ele>
        <time>2019-05-17T15:37:15.164Z</time>
      </trkpt>
      <trkpt lat="39.59674833" lon="-8.40911333">
        <ele>78.0</ele>
        <time>2019-05-17T15:37:16.155Z</time>
      </trkpt>
      <trkpt lat="39.59674833" lon="-8.40911333">
        <ele>78.0</ele>
        <time>2019-05-17T15:37:17.165Z</time>
      </trkpt>
      <trkpt lat="39.59680167" lon="-8.40914">
        <ele>78.0</ele>
        <time>2019-05-17T15:37:18.158Z</time>
      </trkpt>
      <trkpt lat="39.59683" lon="-8.40915667">
        <ele>78.0</ele>
        <time>2019-05-17T15:37:19.152Z</time>
      </trkpt>
      <trkpt lat="39.59683" lon="-8.40915667">
        <ele>78.0</ele>
        <time>2019-05-17T15:37:20.189Z</time>
      </trkpt>
      <trkpt lat="39.596885" lon="-8.409195">
        <ele>79.0</ele>
        <time>2019-05-17T15:37:21.179Z</time>
      </trkpt>
      <trkpt lat="39.59691333" lon="-8.40921833">
        <ele>79.0</ele>
        <time>2019-05-17T15:37:22.173Z</time>
      </trkpt>
      <trkpt lat="39.59691333" lon="-8.40921833">
        <ele>79.0</ele>
        <time>2019-05-17T15:37:23.186Z</time>
      </trkpt>
      <trkpt lat="39.59696833" lon="-8.40927167">
        <ele>79.0</ele>
        <time>2019-05-17T15:37:24.162Z</time>
      </trkpt>
      <trkpt lat="39.59699167" lon="-8.40929333">
        <ele>80.0</ele>
        <time>2019-05-17T15:37:25.182Z</time>
      </trkpt>
      <trkpt lat="39.59701833" lon="-8.409315">
        <ele>80.0</ele>
        <time>2019-05-17T15:37:26.175Z</time>
      </trkpt>
      <trkpt lat="39.59701833" lon="-8.409315">
        <ele>80.0</ele>
        <time>2019-05-17T15:37:27.184Z</time>
      </trkpt>
      <trkpt lat="39.59707" lon="-8.40935833">
        <ele>80.0</ele>
        <time>2019-05-17T15:37:28.155Z</time>
      </trkpt>
      <trkpt lat="39.59707" lon="-8.40935833">
        <ele>80.0</ele>
        <time>2019-05-17T15:37:29.166Z</time>
      </trkpt>
      <trkpt lat="39.597125" lon="-8.40939833">
        <ele>80.0</ele>
        <time>2019-05-17T15:37:30.177Z</time>
      </trkpt>
      <trkpt lat="39.597125" lon="-8.40939833">
        <ele>80.0</ele>
        <time>2019-05-17T15:37:31.182Z</time>
      </trkpt>
      <trkpt lat="39.59718" lon="-8.40944">
        <ele>80.0</ele>
        <time>2019-05-17T15:37:32.173Z</time>
      </trkpt>
      <trkpt lat="39.59718" lon="-8.40944">
        <ele>80.0</ele>
        <time>2019-05-17T15:37:33.164Z</time>
      </trkpt>
      <trkpt lat="39.59723167" lon="-8.40946833">
        <ele>80.0</ele>
        <time>2019-05-17T15:37:34.185Z</time>
      </trkpt>
      <trkpt lat="39.59723167" lon="-8.40946833">
        <ele>80.0</ele>
        <time>2019-05-17T15:37:35.157Z</time>
      </trkpt>
      <trkpt lat="39.59730167" lon="-8.40949667">
        <ele>77.0</ele>
        <time>2019-05-17T15:37:36.150Z</time>
      </trkpt>
      <trkpt lat="39.59730167" lon="-8.40949667">
        <ele>77.0</ele>
        <time>2019-05-17T15:37:37.176Z</time>
      </trkpt>
      <trkpt lat="39.59736" lon="-8.40952667">
        <ele>73.0</ele>
        <time>2019-05-17T15:37:38.165Z</time>
      </trkpt>
      <trkpt lat="39.59736" lon="-8.40952667">
        <ele>73.0</ele>
        <time>2019-05-17T15:37:39.168Z</time>
      </trkpt>
      <trkpt lat="39.59741667" lon="-8.40957">
        <ele>70.0</ele>
        <time>2019-05-17T15:37:40.160Z</time>
      </trkpt>
      <trkpt lat="39.59741667" lon="-8.40957">
        <ele>70.0</ele>
        <time>2019-05-17T15:37:41.168Z</time>
      </trkpt>
      <trkpt lat="39.59747333" lon="-8.4096">
        <ele>69.0</ele>
        <time>2019-05-17T15:37:42.158Z</time>
      </trkpt>
      <trkpt lat="39.59747333" lon="-8.4096">
        <ele>69.0</ele>
        <time>2019-05-17T15:37:43.180Z</time>
      </trkpt>
      <trkpt lat="39.59753" lon="-8.40963167">
        <ele>68.0</ele>
        <time>2019-05-17T15:37:44.162Z</time>
      </trkpt>
      <trkpt lat="39.59755833" lon="-8.40965167">
        <ele>68.0</ele>
        <time>2019-05-17T15:37:45.167Z</time>
      </trkpt>
      <trkpt lat="39.59755833" lon="-8.40965167">
        <ele>68.0</ele>
        <time>2019-05-17T15:37:46.187Z</time>
      </trkpt>
      <trkpt lat="39.59761333" lon="-8.40969">
        <ele>67.0</ele>
        <time>2019-05-17T15:37:47.184Z</time>
      </trkpt>
      <trkpt lat="39.59764167" lon="-8.40970833">
        <ele>67.0</ele>
        <time>2019-05-17T15:37:48.158Z</time>
      </trkpt>
      <trkpt lat="39.59764167" lon="-8.40970833">
        <ele>67.0</ele>
        <time>2019-05-17T15:37:49.173Z</time>
      </trkpt>
      <trkpt lat="39.59770167" lon="-8.40974333">
        <ele>66.0</ele>
        <time>2019-05-17T15:37:50.167Z</time>
      </trkpt>
      <trkpt lat="39.59770167" lon="-8.40974333">
        <ele>66.0</ele>
        <time>2019-05-17T15:37:51.173Z</time>
      </trkpt>
      <trkpt lat="39.59776" lon="-8.40978333">
        <ele>64.0</ele>
        <time>2019-05-17T15:37:52.185Z</time>
      </trkpt>
      <trkpt lat="39.59776" lon="-8.40978333">
        <ele>64.0</ele>
        <time>2019-05-17T15:37:53.177Z</time>
      </trkpt>
      <trkpt lat="39.59782" lon="-8.40981833">
        <ele>64.0</ele>
        <time>2019-05-17T15:37:54.167Z</time>
      </trkpt>
      <trkpt lat="39.59782" lon="-8.40981833">
        <ele>64.0</ele>
        <time>2019-05-17T15:37:55.168Z</time>
      </trkpt>
      <trkpt lat="39.59787833" lon="-8.40985167">
        <ele>64.0</ele>
        <time>2019-05-17T15:37:56.155Z</time>
      </trkpt>
      <trkpt lat="39.59787833" lon="-8.40985167">
        <ele>64.0</ele>
        <time>2019-05-17T15:37:57.163Z</time>
      </trkpt>
      <trkpt lat="39.597935" lon="-8.40988833">
        <ele>64.0</ele>
        <time>2019-05-17T15:37:58.164Z</time>
      </trkpt>
      <trkpt lat="39.597935" lon="-8.40988833">
        <ele>64.0</ele>
        <time>2019-05-17T15:37:59.173Z</time>
      </trkpt>
      <trkpt lat="39.59798833" lon="-8.409925">
        <ele>64.0</ele>
        <time>2019-05-17T15:38:00.175Z</time>
      </trkpt>
      <trkpt lat="39.59798833" lon="-8.409925">
        <ele>64.0</ele>
        <time>2019-05-17T15:38:01.152Z</time>
      </trkpt>
      <trkpt lat="39.59804667" lon="-8.40996167">
        <ele>64.0</ele>
        <time>2019-05-17T15:38:02.153Z</time>
      </trkpt>
      <trkpt lat="39.59804667" lon="-8.40996167">
        <ele>64.0</ele>
        <time>2019-05-17T15:38:03.167Z</time>
      </trkpt>
      <trkpt lat="39.59810333" lon="-8.40999833">
        <ele>64.0</ele>
        <time>2019-05-17T15:38:04.159Z</time>
      </trkpt>
      <trkpt lat="39.59813" lon="-8.41001833">
        <ele>65.0</ele>
        <time>2019-05-17T15:38:05.152Z</time>
      </trkpt>
      <trkpt lat="39.59813" lon="-8.41001833">
        <ele>65.0</ele>
        <time>2019-05-17T15:38:06.169Z</time>
      </trkpt>
      <trkpt lat="39.598185" lon="-8.41006333">
        <ele>65.0</ele>
        <time>2019-05-17T15:38:07.156Z</time>
      </trkpt>
      <trkpt lat="39.598215" lon="-8.41008167">
        <ele>65.0</ele>
        <time>2019-05-17T15:38:08.175Z</time>
      </trkpt>
      <trkpt lat="39.598215" lon="-8.41008167">
        <ele>65.0</ele>
        <time>2019-05-17T15:38:09.164Z</time>
      </trkpt>
      <trkpt lat="39.598275" lon="-8.41012">
        <ele>65.0</ele>
        <time>2019-05-17T15:38:10.186Z</time>
      </trkpt>
      <trkpt lat="39.59830333" lon="-8.41014">
        <ele>65.0</ele>
        <time>2019-05-17T15:38:11.189Z</time>
      </trkpt>
      <trkpt lat="39.59833167" lon="-8.41016167">
        <ele>65.0</ele>
        <time>2019-05-17T15:38:12.180Z</time>
      </trkpt>
      <trkpt lat="39.59836" lon="-8.41018">
        <ele>65.0</ele>
        <time>2019-05-17T15:38:13.184Z</time>
      </trkpt>
      <trkpt lat="39.59836" lon="-8.41018">
        <ele>65.0</ele>
        <time>2019-05-17T15:38:14.159Z</time>
      </trkpt>
      <trkpt lat="39.598415" lon="-8.41021333">
        <ele>65.0</ele>
        <time>2019-05-17T15:38:15.165Z</time>
      </trkpt>
      <trkpt lat="39.598415" lon="-8.41021333">
        <ele>65.0</ele>
        <time>2019-05-17T15:38:16.166Z</time>
      </trkpt>
      <trkpt lat="39.598465" lon="-8.41024667">
        <ele>65.0</ele>
        <time>2019-05-17T15:38:17.165Z</time>
      </trkpt>
      <trkpt lat="39.598465" lon="-8.41024667">
        <ele>65.0</ele>
        <time>2019-05-17T15:38:18.172Z</time>
      </trkpt>
      <trkpt lat="39.59851167" lon="-8.410275">
        <ele>65.0</ele>
        <time>2019-05-17T15:38:19.195Z</time>
      </trkpt>
      <trkpt lat="39.59853167" lon="-8.41028667">
        <ele>65.0</ele>
        <time>2019-05-17T15:38:20.175Z</time>
      </trkpt>
      <trkpt lat="39.59853167" lon="-8.41028667">
        <ele>65.0</ele>
        <time>2019-05-17T15:38:21.180Z</time>
      </trkpt>
      <trkpt lat="39.59856333" lon="-8.41031667">
        <ele>67.0</ele>
        <time>2019-05-17T15:38:22.182Z</time>
      </trkpt>
      <trkpt lat="39.59858" lon="-8.41033">
        <ele>67.0</ele>
        <time>2019-05-17T15:38:23.159Z</time>
      </trkpt>
      <trkpt lat="39.59858" lon="-8.41033">
        <ele>67.0</ele>
        <time>2019-05-17T15:38:24.188Z</time>
      </trkpt>
      <trkpt lat="39.59861333" lon="-8.410365">
        <ele>68.0</ele>
        <time>2019-05-17T15:38:25.176Z</time>
      </trkpt>
      <trkpt lat="39.59862833" lon="-8.41037833">
        <ele>68.0</ele>
        <time>2019-05-17T15:38:26.169Z</time>
      </trkpt>
      <trkpt lat="39.59862833" lon="-8.41037833">
        <ele>68.0</ele>
        <time>2019-05-17T15:38:27.184Z</time>
      </trkpt>
      <trkpt lat="39.59866333" lon="-8.41039833">
        <ele>69.0</ele>
        <time>2019-05-17T15:38:28.178Z</time>
      </trkpt>
      <trkpt lat="39.59866333" lon="-8.41039833">
        <ele>69.0</ele>
        <time>2019-05-17T15:38:29.157Z</time>
      </trkpt>
      <trkpt lat="39.59871" lon="-8.41041833">
        <ele>69.0</ele>
        <time>2019-05-17T15:38:30.157Z</time>
      </trkpt>
      <trkpt lat="39.598735" lon="-8.41043167">
        <ele>69.0</ele>
        <time>2019-05-17T15:38:31.161Z</time>
      </trkpt>
      <trkpt lat="39.59876" lon="-8.41044833">
        <ele>69.0</ele>
        <time>2019-05-17T15:38:32.151Z</time>
      </trkpt>
      <trkpt lat="39.59876" lon="-8.41044833">
        <ele>69.0</ele>
        <time>2019-05-17T15:38:33.160Z</time>
      </trkpt>
      <trkpt lat="39.59880833" lon="-8.410485">
        <ele>70.0</ele>
        <time>2019-05-17T15:38:34.188Z</time>
      </trkpt>
      <trkpt lat="39.59880833" lon="-8.410485">
        <ele>70.0</ele>
        <time>2019-05-17T15:38:35.155Z</time>
      </trkpt>
      <trkpt lat="39.59886333" lon="-8.41052167">
        <ele>71.0</ele>
        <time>2019-05-17T15:38:36.155Z</time>
      </trkpt>
      <trkpt lat="39.59886333" lon="-8.41052167">
        <ele>71.0</ele>
        <time>2019-05-17T15:38:37.170Z</time>
      </trkpt>
      <trkpt lat="39.59892167" lon="-8.41055667">
        <ele>70.0</ele>
        <time>2019-05-17T15:38:38.165Z</time>
      </trkpt>
      <trkpt lat="39.59892167" lon="-8.41055667">
        <ele>70.0</ele>
        <time>2019-05-17T15:38:39.186Z</time>
      </trkpt>
      <trkpt lat="39.59898" lon="-8.410595">
        <ele>70.0</ele>
        <time>2019-05-17T15:38:40.175Z</time>
      </trkpt>
      <trkpt lat="39.59898" lon="-8.410595">
        <ele>70.0</ele>
        <time>2019-05-17T15:38:41.160Z</time>
      </trkpt>
      <trkpt lat="39.599035" lon="-8.41063">
        <ele>70.0</ele>
        <time>2019-05-17T15:38:42.163Z</time>
      </trkpt>
      <trkpt lat="39.59906167" lon="-8.41064833">
        <ele>70.0</ele>
        <time>2019-05-17T15:38:43.195Z</time>
      </trkpt>
      <trkpt lat="39.59908833" lon="-8.41066667">
        <ele>70.0</ele>
        <time>2019-05-17T15:38:44.185Z</time>
      </trkpt>
      <trkpt lat="39.59908833" lon="-8.41066667">
        <ele>70.0</ele>
        <time>2019-05-17T15:38:45.179Z</time>
      </trkpt>
      <trkpt lat="39.59914167" lon="-8.41070167">
        <ele>71.0</ele>
        <time>2019-05-17T15:38:46.173Z</time>
      </trkpt>
      <trkpt lat="39.59914167" lon="-8.41070167">
        <ele>71.0</ele>
        <time>2019-05-17T15:38:47.161Z</time>
      </trkpt>
      <trkpt lat="39.5992" lon="-8.41074">
        <ele>70.0</ele>
        <time>2019-05-17T15:38:48.154Z</time>
      </trkpt>
      <trkpt lat="39.59923" lon="-8.41075833">
        <ele>70.0</ele>
        <time>2019-05-17T15:38:49.160Z</time>
      </trkpt>
      <trkpt lat="39.59923" lon="-8.41075833">
        <ele>70.0</ele>
        <time>2019-05-17T15:38:50.185Z</time>
      </trkpt>
      <trkpt lat="39.59929" lon="-8.41079333">
        <ele>69.0</ele>
        <time>2019-05-17T15:38:51.155Z</time>
      </trkpt>
      <trkpt lat="39.59929" lon="-8.41079333">
        <ele>69.0</ele>
        <time>2019-05-17T15:38:52.183Z</time>
      </trkpt>
      <trkpt lat="39.59934833" lon="-8.41083">
        <ele>69.0</ele>
        <time>2019-05-17T15:38:53.172Z</time>
      </trkpt>
      <trkpt lat="39.59934833" lon="-8.41083">
        <ele>69.0</ele>
        <time>2019-05-17T15:38:54.167Z</time>
      </trkpt>
      <trkpt lat="39.59940333" lon="-8.41086667">
        <ele>68.0</ele>
        <time>2019-05-17T15:38:55.163Z</time>
      </trkpt>
      <trkpt lat="39.59943167" lon="-8.41088667">
        <ele>69.0</ele>
        <time>2019-05-17T15:38:56.167Z</time>
      </trkpt>
      <trkpt lat="39.59943167" lon="-8.41088667">
        <ele>69.0</ele>
        <time>2019-05-17T15:38:57.168Z</time>
      </trkpt>
      <trkpt lat="39.59948833" lon="-8.410925">
        <ele>69.0</ele>
        <time>2019-05-17T15:38:58.175Z</time>
      </trkpt>
      <trkpt lat="39.59948833" lon="-8.410925">
        <ele>69.0</ele>
        <time>2019-05-17T15:38:59.182Z</time>
      </trkpt>
      <trkpt lat="39.59954667" lon="-8.410965">
        <ele>69.0</ele>
        <time>2019-05-17T15:39:00.169Z</time>
      </trkpt>
      <trkpt lat="39.59954667" lon="-8.410965">
        <ele>69.0</ele>
        <time>2019-05-17T15:39:01.166Z</time>
      </trkpt>
      <trkpt lat="39.5996" lon="-8.411">
        <ele>69.0</ele>
        <time>2019-05-17T15:39:02.165Z</time>
      </trkpt>
      <trkpt lat="39.5996" lon="-8.411">
        <ele>69.0</ele>
        <time>2019-05-17T15:39:03.184Z</time>
      </trkpt>
      <trkpt lat="39.59966" lon="-8.41103167">
        <ele>68.0</ele>
        <time>2019-05-17T15:39:04.182Z</time>
      </trkpt>
      <trkpt lat="39.59966" lon="-8.41103167">
        <ele>68.0</ele>
        <time>2019-05-17T15:39:05.170Z</time>
      </trkpt>
      <trkpt lat="39.59971833" lon="-8.41106833">
        <ele>68.0</ele>
        <time>2019-05-17T15:39:06.167Z</time>
      </trkpt>
      <trkpt lat="39.59971833" lon="-8.41106833">
        <ele>68.0</ele>
        <time>2019-05-17T15:39:07.188Z</time>
      </trkpt>
      <trkpt lat="39.59977333" lon="-8.41110833">
        <ele>70.0</ele>
        <time>2019-05-17T15:39:08.187Z</time>
      </trkpt>
      <trkpt lat="39.59977333" lon="-8.41110833">
        <ele>70.0</ele>
        <time>2019-05-17T15:39:09.167Z</time>
      </trkpt>
      <trkpt lat="39.59983333" lon="-8.41114333">
        <ele>70.0</ele>
        <time>2019-05-17T15:39:10.175Z</time>
      </trkpt>
      <trkpt lat="39.59983333" lon="-8.41114333">
        <ele>70.0</ele>
        <time>2019-05-17T15:39:11.153Z</time>
      </trkpt>
      <trkpt lat="39.59988667" lon="-8.41118167">
        <ele>70.0</ele>
        <time>2019-05-17T15:39:12.190Z</time>
      </trkpt>
      <trkpt lat="39.59988667" lon="-8.41118167">
        <ele>70.0</ele>
        <time>2019-05-17T15:39:13.155Z</time>
      </trkpt>
      <trkpt lat="39.59993667" lon="-8.41121833">
        <ele>70.0</ele>
        <time>2019-05-17T15:39:14.190Z</time>
      </trkpt>
      <trkpt lat="39.59993667" lon="-8.41121833">
        <ele>70.0</ele>
        <time>2019-05-17T15:39:15.155Z</time>
      </trkpt>
      <trkpt lat="39.59998" lon="-8.41124167">
        <ele>71.0</ele>
        <time>2019-05-17T15:39:16.155Z</time>
      </trkpt>
      <trkpt lat="39.59998" lon="-8.41124167">
        <ele>71.0</ele>
        <time>2019-05-17T15:39:17.168Z</time>
      </trkpt>
      <trkpt lat="39.60001833" lon="-8.41126167">
        <ele>73.0</ele>
        <time>2019-05-17T15:39:18.158Z</time>
      </trkpt>
      <trkpt lat="39.600035" lon="-8.41127167">
        <ele>74.0</ele>
        <time>2019-05-17T15:39:19.153Z</time>
      </trkpt>
      <trkpt lat="39.60004833" lon="-8.41127833">
        <ele>75.0</ele>
        <time>2019-05-17T15:39:20.171Z</time>
      </trkpt>
      <trkpt lat="39.60004833" lon="-8.41127833">
        <ele>75.0</ele>
        <time>2019-05-17T15:39:21.169Z</time>
      </trkpt>
      <trkpt lat="39.60008667" lon="-8.41129833">
        <ele>76.0</ele>
        <time>2019-05-17T15:39:22.171Z</time>
      </trkpt>
      <trkpt lat="39.60008667" lon="-8.41129833">
        <ele>76.0</ele>
        <time>2019-05-17T15:39:23.154Z</time>
      </trkpt>
      <trkpt lat="39.60013833" lon="-8.41130333">
        <ele>75.0</ele>
        <time>2019-05-17T15:39:24.166Z</time>
      </trkpt>
      <trkpt lat="39.60013833" lon="-8.41130333">
        <ele>75.0</ele>
        <time>2019-05-17T15:39:25.178Z</time>
      </trkpt>
      <trkpt lat="39.60018167" lon="-8.41132167">
        <ele>73.0</ele>
        <time>2019-05-17T15:39:26.190Z</time>
      </trkpt>
      <trkpt lat="39.60018167" lon="-8.41132167">
        <ele>73.0</ele>
        <time>2019-05-17T15:39:27.176Z</time>
      </trkpt>
      <trkpt lat="39.60021" lon="-8.411335">
        <ele>72.0</ele>
        <time>2019-05-17T15:39:28.175Z</time>
      </trkpt>
      <trkpt lat="39.60021" lon="-8.411335">
        <ele>72.0</ele>
        <time>2019-05-17T15:39:29.161Z</time>
      </trkpt>
      <trkpt lat="39.60024" lon="-8.411355">
        <ele>71.0</ele>
        <time>2019-05-17T15:39:30.175Z</time>
      </trkpt>
      <trkpt lat="39.60025" lon="-8.41136167">
        <ele>70.0</ele>
        <time>2019-05-17T15:39:31.151Z</time>
      </trkpt>
      <trkpt lat="39.60025167" lon="-8.41136667">
        <ele>69.0</ele>
        <time>2019-05-17T15:39:32.165Z</time>
      </trkpt>
      <trkpt lat="39.60025167" lon="-8.41136667">
        <ele>69.0</ele>
        <time>2019-05-17T15:39:33.177Z</time>
      </trkpt>
      <trkpt lat="39.60025667" lon="-8.41137">
        <ele>68.0</ele>
        <time>2019-05-17T15:39:34.185Z</time>
      </trkpt>
      <trkpt lat="39.60025667" lon="-8.41137">
        <ele>68.0</ele>
        <time>2019-05-17T15:39:35.160Z</time>
      </trkpt>
      <trkpt lat="39.60025667" lon="-8.41137">
        <ele>68.0</ele>
        <time>2019-05-17T15:39:36.167Z</time>
      </trkpt>
      <trkpt lat="39.60025667" lon="-8.41137">
        <ele>68.0</ele>
        <time>2019-05-17T15:39:37.173Z</time>
      </trkpt>
      <trkpt lat="39.60025667" lon="-8.41137">
        <ele>68.0</ele>
        <time>2019-05-17T15:39:38.179Z</time>
      </trkpt>
      <trkpt lat="39.60025667" lon="-8.41137">
        <ele>68.0</ele>
        <time>2019-05-17T15:39:39.150Z</time>
      </trkpt>
      <trkpt lat="39.60025667" lon="-8.41137">
        <ele>68.0</ele>
        <time>2019-05-17T15:39:40.177Z</time>
      </trkpt>
      <trkpt lat="39.60025667" lon="-8.41137">
        <ele>68.0</ele>
        <time>2019-05-17T15:39:41.173Z</time>
      </trkpt>
      <trkpt lat="39.60025667" lon="-8.41137">
        <ele>68.0</ele>
        <time>2019-05-17T15:39:42.175Z</time>
      </trkpt>
      <trkpt lat="39.60025667" lon="-8.41137">
        <ele>68.0</ele>
        <time>2019-05-17T15:39:43.173Z</time>
      </trkpt>
      <trkpt lat="39.60025667" lon="-8.41137">
        <ele>68.0</ele>
        <time>2019-05-17T15:39:44.179Z</time>
      </trkpt>
      <trkpt lat="39.60025667" lon="-8.41137">
        <ele>68.0</ele>
        <time>2019-05-17T15:39:45.174Z</time>
      </trkpt>
      <trkpt lat="39.60025667" lon="-8.41137">
        <ele>68.0</ele>
        <time>2019-05-17T15:39:46.179Z</time>
      </trkpt>
      <trkpt lat="39.60025667" lon="-8.41137">
        <ele>68.0</ele>
        <time>2019-05-17T15:39:47.173Z</time>
      </trkpt>
      <trkpt lat="39.60030667" lon="-8.41137333">
        <ele>60.0</ele>
        <time>2019-05-17T15:39:48.182Z</time>
      </trkpt>
      <trkpt lat="39.60031833" lon="-8.41137167">
        <ele>59.0</ele>
        <time>2019-05-17T15:39:49.180Z</time>
      </trkpt>
      <trkpt lat="39.60033" lon="-8.41136667">
        <ele>59.0</ele>
        <time>2019-05-17T15:39:50.182Z</time>
      </trkpt>
      <trkpt lat="39.60033" lon="-8.41136667">
        <ele>59.0</ele>
        <time>2019-05-17T15:39:51.173Z</time>
      </trkpt>
      <trkpt lat="39.60035167" lon="-8.41135333">
        <ele>58.0</ele>
        <time>2019-05-17T15:39:52.178Z</time>
      </trkpt>
      <trkpt lat="39.60035167" lon="-8.41135333">
        <ele>58.0</ele>
        <time>2019-05-17T15:39:53.173Z</time>
      </trkpt>
      <trkpt lat="39.60037833" lon="-8.41133833">
        <ele>57.0</ele>
        <time>2019-05-17T15:39:54.189Z</time>
      </trkpt>
      <trkpt lat="39.60037833" lon="-8.41133833">
        <ele>57.0</ele>
        <time>2019-05-17T15:39:55.162Z</time>
      </trkpt>
      <trkpt lat="39.600405" lon="-8.41132167">
        <ele>56.0</ele>
        <time>2019-05-17T15:39:56.165Z</time>
      </trkpt>
      <trkpt lat="39.600405" lon="-8.41132167">
        <ele>56.0</ele>
        <time>2019-05-17T15:39:57.170Z</time>
      </trkpt>
      <trkpt lat="39.60043" lon="-8.41129667">
        <ele>56.0</ele>
        <time>2019-05-17T15:39:58.165Z</time>
      </trkpt>
      <trkpt lat="39.60043" lon="-8.41129667">
        <ele>56.0</ele>
        <time>2019-05-17T15:39:59.170Z</time>
      </trkpt>
      <trkpt lat="39.60044667" lon="-8.41126667">
        <ele>56.0</ele>
        <time>2019-05-17T15:40:00.170Z</time>
      </trkpt>
      <trkpt lat="39.60044667" lon="-8.41126667">
        <ele>56.0</ele>
        <time>2019-05-17T15:40:01.178Z</time>
      </trkpt>
      <trkpt lat="39.60046" lon="-8.41124">
        <ele>55.0</ele>
        <time>2019-05-17T15:40:02.188Z</time>
      </trkpt>
      <trkpt lat="39.60046" lon="-8.41124">
        <ele>55.0</ele>
        <time>2019-05-17T15:40:03.152Z</time>
      </trkpt>
      <trkpt lat="39.60047667" lon="-8.41121833">
        <ele>54.0</ele>
        <time>2019-05-17T15:40:04.155Z</time>
      </trkpt>
      <trkpt lat="39.60047667" lon="-8.41121833">
        <ele>54.0</ele>
        <time>2019-05-17T15:40:05.165Z</time>
      </trkpt>
      <trkpt lat="39.60048833" lon="-8.41121167">
        <ele>54.0</ele>
        <time>2019-05-17T15:40:06.168Z</time>
      </trkpt>
      <trkpt lat="39.60048833" lon="-8.41121167">
        <ele>54.0</ele>
        <time>2019-05-17T15:40:07.169Z</time>
      </trkpt>
      <trkpt lat="39.60049667" lon="-8.41121333">
        <ele>54.0</ele>
        <time>2019-05-17T15:40:08.155Z</time>
      </trkpt>
      <trkpt lat="39.60049667" lon="-8.41121333">
        <ele>54.0</ele>
        <time>2019-05-17T15:40:09.164Z</time>
      </trkpt>
      <trkpt lat="39.60049667" lon="-8.41121333">
        <ele>54.0</ele>
        <time>2019-05-17T15:40:10.187Z</time>
      </trkpt>
      <trkpt lat="39.60049667" lon="-8.41121333">
        <ele>54.0</ele>
        <time>2019-05-17T15:40:11.153Z</time>
      </trkpt>
      <trkpt lat="39.60049667" lon="-8.41121333">
        <ele>54.0</ele>
        <time>2019-05-17T15:40:12.164Z</time>
      </trkpt>
      <trkpt lat="39.60049667" lon="-8.41121333">
        <ele>54.0</ele>
        <time>2019-05-17T15:40:13.178Z</time>
      </trkpt>
      <trkpt lat="39.60049667" lon="-8.41121333">
        <ele>54.0</ele>
        <time>2019-05-17T15:40:14.173Z</time>
      </trkpt>
      <trkpt lat="39.60049667" lon="-8.41121333">
        <ele>54.0</ele>
        <time>2019-05-17T15:40:15.187Z</time>
      </trkpt>
      <trkpt lat="39.60052667" lon="-8.41123167">
        <ele>54.0</ele>
        <time>2019-05-17T15:40:16.178Z</time>
      </trkpt>
      <trkpt lat="39.60052667" lon="-8.41123167">
        <ele>54.0</ele>
        <time>2019-05-17T15:40:17.173Z</time>
      </trkpt>
      <trkpt lat="39.60054167" lon="-8.41124833">
        <ele>54.0</ele>
        <time>2019-05-17T15:40:18.175Z</time>
      </trkpt>
      <trkpt lat="39.60054167" lon="-8.41124833">
        <ele>54.0</ele>
        <time>2019-05-17T15:40:19.183Z</time>
      </trkpt>
      <trkpt lat="39.60054333" lon="-8.41125">
        <ele>54.0</ele>
        <time>2019-05-17T15:40:20.180Z</time>
      </trkpt>
      <trkpt lat="39.60054333" lon="-8.41125">
        <ele>54.0</ele>
        <time>2019-05-17T15:40:21.173Z</time>
      </trkpt>
      <trkpt lat="39.600565" lon="-8.41127333">
        <ele>54.0</ele>
        <time>2019-05-17T15:40:22.178Z</time>
      </trkpt>
      <trkpt lat="39.600565" lon="-8.41127333">
        <ele>54.0</ele>
        <time>2019-05-17T15:40:23.173Z</time>
      </trkpt>
      <trkpt lat="39.600595" lon="-8.41131333">
        <ele>54.0</ele>
        <time>2019-05-17T15:40:24.160Z</time>
      </trkpt>
      <trkpt lat="39.600595" lon="-8.41131333">
        <ele>54.0</ele>
        <time>2019-05-17T15:40:25.155Z</time>
      </trkpt>
      <trkpt lat="39.60059167" lon="-8.41135667">
        <ele>54.0</ele>
        <time>2019-05-17T15:40:26.159Z</time>
      </trkpt>
      <trkpt lat="39.60059167" lon="-8.41135667">
        <ele>54.0</ele>
        <time>2019-05-17T15:40:27.189Z</time>
      </trkpt>
      <trkpt lat="39.60058333" lon="-8.411395">
        <ele>53.0</ele>
        <time>2019-05-17T15:40:28.158Z</time>
      </trkpt>
      <trkpt lat="39.60058333" lon="-8.411395">
        <ele>53.0</ele>
        <time>2019-05-17T15:40:29.166Z</time>
      </trkpt>
      <trkpt lat="39.60059667" lon="-8.41142833">
        <ele>53.0</ele>
        <time>2019-05-17T15:40:30.164Z</time>
      </trkpt>
      <trkpt lat="39.60059667" lon="-8.41142833">
        <ele>53.0</ele>
        <time>2019-05-17T15:40:31.184Z</time>
      </trkpt>
      <trkpt lat="39.60062" lon="-8.41145333">
        <ele>53.0</ele>
        <time>2019-05-17T15:40:32.159Z</time>
      </trkpt>
      <trkpt lat="39.60062" lon="-8.41145333">
        <ele>53.0</ele>
        <time>2019-05-17T15:40:33.183Z</time>
      </trkpt>
      <trkpt lat="39.60065667" lon="-8.41146167">
        <ele>53.0</ele>
        <time>2019-05-17T15:40:34.183Z</time>
      </trkpt>
      <trkpt lat="39.60065667" lon="-8.41146167">
        <ele>53.0</ele>
        <time>2019-05-17T15:40:35.179Z</time>
      </trkpt>
      <trkpt lat="39.60069333" lon="-8.41146833">
        <ele>54.0</ele>
        <time>2019-05-17T15:40:36.189Z</time>
      </trkpt>
      <trkpt lat="39.60069333" lon="-8.41146833">
        <ele>54.0</ele>
        <time>2019-05-17T15:40:37.154Z</time>
      </trkpt>
      <trkpt lat="39.60073833" lon="-8.411475">
        <ele>54.0</ele>
        <time>2019-05-17T15:40:38.185Z</time>
      </trkpt>
      <trkpt lat="39.60073833" lon="-8.411475">
        <ele>54.0</ele>
        <time>2019-05-17T15:40:39.164Z</time>
      </trkpt>
      <trkpt lat="39.600795" lon="-8.41148333">
        <ele>54.0</ele>
        <time>2019-05-17T15:40:40.155Z</time>
      </trkpt>
      <trkpt lat="39.600795" lon="-8.41148333">
        <ele>54.0</ele>
        <time>2019-05-17T15:40:41.179Z</time>
      </trkpt>
      <trkpt lat="39.60086333" lon="-8.411505">
        <ele>54.0</ele>
        <time>2019-05-17T15:40:42.168Z</time>
      </trkpt>
      <trkpt lat="39.60086333" lon="-8.411505">
        <ele>54.0</ele>
        <time>2019-05-17T15:40:43.188Z</time>
      </trkpt>
      <trkpt lat="39.60093" lon="-8.411525">
        <ele>54.0</ele>
        <time>2019-05-17T15:40:44.180Z</time>
      </trkpt>
      <trkpt lat="39.60093" lon="-8.411525">
        <ele>54.0</ele>
        <time>2019-05-17T15:40:45.161Z</time>
      </trkpt>
      <trkpt lat="39.60099333" lon="-8.41154333">
        <ele>54.0</ele>
        <time>2019-05-17T15:40:46.185Z</time>
      </trkpt>
      <trkpt lat="39.60099333" lon="-8.41154333">
        <ele>54.0</ele>
        <time>2019-05-17T15:40:47.168Z</time>
      </trkpt>
      <trkpt lat="39.60105333" lon="-8.41156">
        <ele>54.0</ele>
        <time>2019-05-17T15:40:48.165Z</time>
      </trkpt>
      <trkpt lat="39.60105333" lon="-8.41156">
        <ele>54.0</ele>
        <time>2019-05-17T15:40:49.151Z</time>
      </trkpt>
      <trkpt lat="39.60111167" lon="-8.41157667">
        <ele>55.0</ele>
        <time>2019-05-17T15:40:50.172Z</time>
      </trkpt>
      <trkpt lat="39.60111167" lon="-8.41157667">
        <ele>55.0</ele>
        <time>2019-05-17T15:40:51.154Z</time>
      </trkpt>
      <trkpt lat="39.60116" lon="-8.41159833">
        <ele>56.0</ele>
        <time>2019-05-17T15:40:52.166Z</time>
      </trkpt>
      <trkpt lat="39.60116" lon="-8.41159833">
        <ele>56.0</ele>
        <time>2019-05-17T15:40:53.186Z</time>
      </trkpt>
      <trkpt lat="39.60121333" lon="-8.41161667">
        <ele>57.0</ele>
        <time>2019-05-17T15:40:54.184Z</time>
      </trkpt>
      <trkpt lat="39.60121333" lon="-8.41161667">
        <ele>57.0</ele>
        <time>2019-05-17T15:40:55.186Z</time>
      </trkpt>
      <trkpt lat="39.601275" lon="-8.41164333">
        <ele>58.0</ele>
        <time>2019-05-17T15:40:56.190Z</time>
      </trkpt>
      <trkpt lat="39.601275" lon="-8.41164333">
        <ele>58.0</ele>
        <time>2019-05-17T15:40:57.164Z</time>
      </trkpt>
      <trkpt lat="39.60133167" lon="-8.41165833">
        <ele>60.0</ele>
        <time>2019-05-17T15:40:58.165Z</time>
      </trkpt>
      <trkpt lat="39.60133167" lon="-8.41165833">
        <ele>60.0</ele>
        <time>2019-05-17T15:40:59.173Z</time>
      </trkpt>
      <trkpt lat="39.6014" lon="-8.41166833">
        <ele>61.0</ele>
        <time>2019-05-17T15:41:00.174Z</time>
      </trkpt>
      <trkpt lat="39.6014" lon="-8.41166833">
        <ele>61.0</ele>
        <time>2019-05-17T15:41:01.151Z</time>
      </trkpt>
      <trkpt lat="39.601455" lon="-8.41168333">
        <ele>62.0</ele>
        <time>2019-05-17T15:41:02.155Z</time>
      </trkpt>
      <trkpt lat="39.601455" lon="-8.41168333">
        <ele>62.0</ele>
        <time>2019-05-17T15:41:03.169Z</time>
      </trkpt>
      <trkpt lat="39.60152" lon="-8.411685">
        <ele>64.0</ele>
        <time>2019-05-17T15:41:04.175Z</time>
      </trkpt>
      <trkpt lat="39.60152" lon="-8.411685">
        <ele>64.0</ele>
        <time>2019-05-17T15:41:05.181Z</time>
      </trkpt>
      <trkpt lat="39.60158167" lon="-8.41169667">
        <ele>65.0</ele>
        <time>2019-05-17T15:41:06.179Z</time>
      </trkpt>
      <trkpt lat="39.60158167" lon="-8.41169667">
        <ele>65.0</ele>
        <time>2019-05-17T15:41:07.150Z</time>
      </trkpt>
      <trkpt lat="39.60164833" lon="-8.41170667">
        <ele>66.0</ele>
        <time>2019-05-17T15:41:08.185Z</time>
      </trkpt>
      <trkpt lat="39.60164833" lon="-8.41170667">
        <ele>66.0</ele>
        <time>2019-05-17T15:41:09.162Z</time>
      </trkpt>
      <trkpt lat="39.60170667" lon="-8.41171667">
        <ele>66.0</ele>
        <time>2019-05-17T15:41:10.192Z</time>
      </trkpt>
      <trkpt lat="39.60170667" lon="-8.41171667">
        <ele>66.0</ele>
        <time>2019-05-17T15:41:11.170Z</time>
      </trkpt>
      <trkpt lat="39.60177333" lon="-8.411725">
        <ele>65.0</ele>
        <time>2019-05-17T15:41:12.165Z</time>
      </trkpt>
      <trkpt lat="39.60177333" lon="-8.411725">
        <ele>65.0</ele>
        <time>2019-05-17T15:41:13.175Z</time>
      </trkpt>
      <trkpt lat="39.60183" lon="-8.41173667">
        <ele>66.0</ele>
        <time>2019-05-17T15:41:14.175Z</time>
      </trkpt>
      <trkpt lat="39.60183" lon="-8.41173667">
        <ele>66.0</ele>
        <time>2019-05-17T15:41:15.167Z</time>
      </trkpt>
      <trkpt lat="39.60188167" lon="-8.41174833">
        <ele>66.0</ele>
        <time>2019-05-17T15:41:16.158Z</time>
      </trkpt>
      <trkpt lat="39.60188167" lon="-8.41174833">
        <ele>66.0</ele>
        <time>2019-05-17T15:41:17.183Z</time>
      </trkpt>
      <trkpt lat="39.60192833" lon="-8.41175833">
        <ele>66.0</ele>
        <time>2019-05-17T15:41:18.185Z</time>
      </trkpt>
      <trkpt lat="39.60192833" lon="-8.41175833">
        <ele>66.0</ele>
        <time>2019-05-17T15:41:19.154Z</time>
      </trkpt>
      <trkpt lat="39.60196833" lon="-8.41177167">
        <ele>66.0</ele>
        <time>2019-05-17T15:41:20.155Z</time>
      </trkpt>
      <trkpt lat="39.60196833" lon="-8.41177167">
        <ele>66.0</ele>
        <time>2019-05-17T15:41:21.157Z</time>
      </trkpt>
      <trkpt lat="39.60200333" lon="-8.411775">
        <ele>67.0</ele>
        <time>2019-05-17T15:41:22.163Z</time>
      </trkpt>
      <trkpt lat="39.60200333" lon="-8.411775">
        <ele>67.0</ele>
        <time>2019-05-17T15:41:23.164Z</time>
      </trkpt>
      <trkpt lat="39.60204" lon="-8.41177667">
        <ele>67.0</ele>
        <time>2019-05-17T15:41:24.187Z</time>
      </trkpt>
      <trkpt lat="39.60204" lon="-8.41177667">
        <ele>67.0</ele>
        <time>2019-05-17T15:41:25.178Z</time>
      </trkpt>
      <trkpt lat="39.60208833" lon="-8.41178667">
        <ele>67.0</ele>
        <time>2019-05-17T15:41:26.183Z</time>
      </trkpt>
      <trkpt lat="39.60208833" lon="-8.41178667">
        <ele>67.0</ele>
        <time>2019-05-17T15:41:27.158Z</time>
      </trkpt>
      <trkpt lat="39.60213167" lon="-8.41179333">
        <ele>67.0</ele>
        <time>2019-05-17T15:41:28.191Z</time>
      </trkpt>
      <trkpt lat="39.60213167" lon="-8.41179333">
        <ele>67.0</ele>
        <time>2019-05-17T15:41:29.167Z</time>
      </trkpt>
      <trkpt lat="39.602185" lon="-8.41179167">
        <ele>66.0</ele>
        <time>2019-05-17T15:41:30.163Z</time>
      </trkpt>
      <trkpt lat="39.602185" lon="-8.41179167">
        <ele>66.0</ele>
        <time>2019-05-17T15:41:31.177Z</time>
      </trkpt>
      <trkpt lat="39.60224" lon="-8.41178333">
        <ele>65.0</ele>
        <time>2019-05-17T15:41:32.180Z</time>
      </trkpt>
      <trkpt lat="39.60224" lon="-8.41178333">
        <ele>65.0</ele>
        <time>2019-05-17T15:41:33.185Z</time>
      </trkpt>
      <trkpt lat="39.60229333" lon="-8.411775">
        <ele>64.0</ele>
        <time>2019-05-17T15:41:34.185Z</time>
      </trkpt>
      <trkpt lat="39.60229333" lon="-8.411775">
        <ele>64.0</ele>
        <time>2019-05-17T15:41:35.150Z</time>
      </trkpt>
      <trkpt lat="39.60233833" lon="-8.41175833">
        <ele>63.0</ele>
        <time>2019-05-17T15:41:36.186Z</time>
      </trkpt>
      <trkpt lat="39.60233833" lon="-8.41175833">
        <ele>63.0</ele>
        <time>2019-05-17T15:41:37.183Z</time>
      </trkpt>
      <trkpt lat="39.60236667" lon="-8.41175667">
        <ele>62.0</ele>
        <time>2019-05-17T15:41:38.188Z</time>
      </trkpt>
      <trkpt lat="39.60236667" lon="-8.41175667">
        <ele>62.0</ele>
        <time>2019-05-17T15:41:39.153Z</time>
      </trkpt>
      <trkpt lat="39.60237333" lon="-8.41176">
        <ele>61.0</ele>
        <time>2019-05-17T15:41:40.185Z</time>
      </trkpt>
      <trkpt lat="39.60237333" lon="-8.41176167">
        <ele>61.0</ele>
        <time>2019-05-17T15:41:41.175Z</time>
      </trkpt>
      <trkpt lat="39.60237333" lon="-8.41176167">
        <ele>61.0</ele>
        <time>2019-05-17T15:41:42.158Z</time>
      </trkpt>
      <trkpt lat="39.60237333" lon="-8.41176167">
        <ele>61.0</ele>
        <time>2019-05-17T15:41:43.172Z</time>
      </trkpt>
      <trkpt lat="39.60237333" lon="-8.41176167">
        <ele>61.0</ele>
        <time>2019-05-17T15:41:44.178Z</time>
      </trkpt>
      <trkpt lat="39.60237333" lon="-8.41176167">
        <ele>61.0</ele>
        <time>2019-05-17T15:41:45.187Z</time>
      </trkpt>
      <trkpt lat="39.60237333" lon="-8.41176167">
        <ele>61.0</ele>
        <time>2019-05-17T15:41:46.182Z</time>
      </trkpt>
      <trkpt lat="39.60237333" lon="-8.41176167">
        <ele>61.0</ele>
        <time>2019-05-17T15:41:47.178Z</time>
      </trkpt>
      <trkpt lat="39.60237333" lon="-8.41176167">
        <ele>61.0</ele>
        <time>2019-05-17T15:41:48.173Z</time>
      </trkpt>
      <trkpt lat="39.60239667" lon="-8.41174833">
        <ele>57.0</ele>
        <time>2019-05-17T15:41:49.178Z</time>
      </trkpt>
      <trkpt lat="39.6024" lon="-8.41174667">
        <ele>57.0</ele>
        <time>2019-05-17T15:41:50.181Z</time>
      </trkpt>
      <trkpt lat="39.6024" lon="-8.41174667">
        <ele>57.0</ele>
        <time>2019-05-17T15:41:51.167Z</time>
      </trkpt>
      <trkpt lat="39.60240667" lon="-8.41174167">
        <ele>56.0</ele>
        <time>2019-05-17T15:41:52.153Z</time>
      </trkpt>
      <trkpt lat="39.60240667" lon="-8.41174167">
        <ele>56.0</ele>
        <time>2019-05-17T15:41:53.178Z</time>
      </trkpt>
      <trkpt lat="39.60241833" lon="-8.41173">
        <ele>56.0</ele>
        <time>2019-05-17T15:41:54.178Z</time>
      </trkpt>
      <trkpt lat="39.60243167" lon="-8.41172">
        <ele>55.0</ele>
        <time>2019-05-17T15:41:55.178Z</time>
      </trkpt>
      <trkpt lat="39.60245167" lon="-8.41170667">
        <ele>55.0</ele>
        <time>2019-05-17T15:41:56.188Z</time>
      </trkpt>
      <trkpt lat="39.60245167" lon="-8.41170667">
        <ele>55.0</ele>
        <time>2019-05-17T15:41:57.175Z</time>
      </trkpt>
      <trkpt lat="39.60250167" lon="-8.41166833">
        <ele>55.0</ele>
        <time>2019-05-17T15:41:58.178Z</time>
      </trkpt>
      <trkpt lat="39.60250167" lon="-8.41166833">
        <ele>55.0</ele>
        <time>2019-05-17T15:41:59.176Z</time>
      </trkpt>
      <trkpt lat="39.60256167" lon="-8.41161167">
        <ele>54.0</ele>
        <time>2019-05-17T15:42:00.166Z</time>
      </trkpt>
      <trkpt lat="39.60256167" lon="-8.41161167">
        <ele>54.0</ele>
        <time>2019-05-17T15:42:01.157Z</time>
      </trkpt>
      <trkpt lat="39.60261" lon="-8.41152333">
        <ele>54.0</ele>
        <time>2019-05-17T15:42:02.156Z</time>
      </trkpt>
      <trkpt lat="39.60261" lon="-8.41152333">
        <ele>54.0</ele>
        <time>2019-05-17T15:42:03.183Z</time>
      </trkpt>
      <trkpt lat="39.602635" lon="-8.41144333">
        <ele>54.0</ele>
        <time>2019-05-17T15:42:04.195Z</time>
      </trkpt>
      <trkpt lat="39.60262667" lon="-8.41142">
        <ele>54.0</ele>
        <time>2019-05-17T15:42:05.175Z</time>
      </trkpt>
      <trkpt lat="39.60262667" lon="-8.41142">
        <ele>54.0</ele>
        <time>2019-05-17T15:42:06.158Z</time>
      </trkpt>
      <trkpt lat="39.602595" lon="-8.41144167">
        <ele>54.0</ele>
        <time>2019-05-17T15:42:07.165Z</time>
      </trkpt>
      <trkpt lat="39.60258167" lon="-8.41146667">
        <ele>53.0</ele>
        <time>2019-05-17T15:42:08.152Z</time>
      </trkpt>
      <trkpt lat="39.60258167" lon="-8.41146667">
        <ele>53.0</ele>
        <time>2019-05-17T15:42:09.172Z</time>
      </trkpt>
      <trkpt lat="39.60253667" lon="-8.41148167">
        <ele>53.0</ele>
        <time>2019-05-17T15:42:10.167Z</time>
      </trkpt>
      <trkpt lat="39.60253667" lon="-8.41148167">
        <ele>53.0</ele>
        <time>2019-05-17T15:42:11.182Z</time>
      </trkpt>
      <trkpt lat="39.60249667" lon="-8.41150167">
        <ele>51.0</ele>
        <time>2019-05-17T15:42:12.187Z</time>
      </trkpt>
      <trkpt lat="39.60249667" lon="-8.41150167">
        <ele>51.0</ele>
        <time>2019-05-17T15:42:13.167Z</time>
      </trkpt>
      <trkpt lat="39.60252667" lon="-8.41151">
        <ele>50.0</ele>
        <time>2019-05-17T15:42:14.174Z</time>
      </trkpt>
      <trkpt lat="39.60252667" lon="-8.41151">
        <ele>50.0</ele>
        <time>2019-05-17T15:42:15.187Z</time>
      </trkpt>
      <trkpt lat="39.60256" lon="-8.41147667">
        <ele>49.0</ele>
        <time>2019-05-17T15:42:16.186Z</time>
      </trkpt>
      <trkpt lat="39.60256" lon="-8.41147667">
        <ele>49.0</ele>
        <time>2019-05-17T15:42:17.158Z</time>
      </trkpt>
      <trkpt lat="39.6026" lon="-8.41144833">
        <ele>48.0</ele>
        <time>2019-05-17T15:42:18.176Z</time>
      </trkpt>
      <trkpt lat="39.6026" lon="-8.41144833">
        <ele>48.0</ele>
        <time>2019-05-17T15:42:19.182Z</time>
      </trkpt>
      <trkpt lat="39.60264167" lon="-8.41143833">
        <ele>48.0</ele>
        <time>2019-05-17T15:42:20.169Z</time>
      </trkpt>
      <trkpt lat="39.60264167" lon="-8.41143833">
        <ele>48.0</ele>
        <time>2019-05-17T15:42:21.162Z</time>
      </trkpt>
      <trkpt lat="39.60267333" lon="-8.41144667">
        <ele>48.0</ele>
        <time>2019-05-17T15:42:22.155Z</time>
      </trkpt>
      <trkpt lat="39.60267333" lon="-8.41144667">
        <ele>48.0</ele>
        <time>2019-05-17T15:42:23.176Z</time>
      </trkpt>
      <trkpt lat="39.60270833" lon="-8.41146167">
        <ele>48.0</ele>
        <time>2019-05-17T15:42:24.172Z</time>
      </trkpt>
      <trkpt lat="39.60270833" lon="-8.41146167">
        <ele>48.0</ele>
        <time>2019-05-17T15:42:25.167Z</time>
      </trkpt>
      <trkpt lat="39.60274833" lon="-8.41148333">
        <ele>48.0</ele>
        <time>2019-05-17T15:42:26.154Z</time>
      </trkpt>
      <trkpt lat="39.60274833" lon="-8.41148333">
        <ele>48.0</ele>
        <time>2019-05-17T15:42:27.183Z</time>
      </trkpt>
      <trkpt lat="39.60278" lon="-8.41151">
        <ele>48.0</ele>
        <time>2019-05-17T15:42:28.150Z</time>
      </trkpt>
      <trkpt lat="39.60278" lon="-8.41151">
        <ele>48.0</ele>
        <time>2019-05-17T15:42:29.169Z</time>
      </trkpt>
      <trkpt lat="39.60280333" lon="-8.41153667">
        <ele>48.0</ele>
        <time>2019-05-17T15:42:30.165Z</time>
      </trkpt>
      <trkpt lat="39.60280333" lon="-8.41153667">
        <ele>48.0</ele>
        <time>2019-05-17T15:42:31.186Z</time>
      </trkpt>
      <trkpt lat="39.602825" lon="-8.41156333">
        <ele>48.0</ele>
        <time>2019-05-17T15:42:32.171Z</time>
      </trkpt>
      <trkpt lat="39.60283667" lon="-8.41157833">
        <ele>48.0</ele>
        <time>2019-05-17T15:42:33.180Z</time>
      </trkpt>
      <trkpt lat="39.60283667" lon="-8.41157833">
        <ele>48.0</ele>
        <time>2019-05-17T15:42:34.164Z</time>
      </trkpt>
      <trkpt lat="39.60285667" lon="-8.411605">
        <ele>48.0</ele>
        <time>2019-05-17T15:42:35.172Z</time>
      </trkpt>
      <trkpt lat="39.60285667" lon="-8.411605">
        <ele>48.0</ele>
        <time>2019-05-17T15:42:36.152Z</time>
      </trkpt>
      <trkpt lat="39.60287" lon="-8.41163667">
        <ele>48.0</ele>
        <time>2019-05-17T15:42:37.164Z</time>
      </trkpt>
      <trkpt lat="39.60287333" lon="-8.41166">
        <ele>48.0</ele>
        <time>2019-05-17T15:42:38.187Z</time>
      </trkpt>
      <trkpt lat="39.60287333" lon="-8.41166">
        <ele>48.0</ele>
        <time>2019-05-17T15:42:39.167Z</time>
      </trkpt>
      <trkpt lat="39.60287667" lon="-8.41171833">
        <ele>48.0</ele>
        <time>2019-05-17T15:42:40.163Z</time>
      </trkpt>
      <trkpt lat="39.60287667" lon="-8.41171833">
        <ele>48.0</ele>
        <time>2019-05-17T15:42:41.175Z</time>
      </trkpt>
      <trkpt lat="39.60286667" lon="-8.41179333">
        <ele>48.0</ele>
        <time>2019-05-17T15:42:42.160Z</time>
      </trkpt>
      <trkpt lat="39.60286667" lon="-8.41179333">
        <ele>48.0</ele>
        <time>2019-05-17T15:42:43.167Z</time>
      </trkpt>
      <trkpt lat="39.60287" lon="-8.41185833">
        <ele>48.0</ele>
        <time>2019-05-17T15:42:44.167Z</time>
      </trkpt>
      <trkpt lat="39.60287" lon="-8.41185833">
        <ele>48.0</ele>
        <time>2019-05-17T15:42:45.171Z</time>
      </trkpt>
      <trkpt lat="39.60289167" lon="-8.41189">
        <ele>48.0</ele>
        <time>2019-05-17T15:42:46.157Z</time>
      </trkpt>
      <trkpt lat="39.60289167" lon="-8.41189">
        <ele>48.0</ele>
        <time>2019-05-17T15:42:47.167Z</time>
      </trkpt>
      <trkpt lat="39.6029" lon="-8.41192833">
        <ele>48.0</ele>
        <time>2019-05-17T15:42:48.158Z</time>
      </trkpt>
      <trkpt lat="39.6029" lon="-8.41192833">
        <ele>48.0</ele>
        <time>2019-05-17T15:42:49.158Z</time>
      </trkpt>
      <trkpt lat="39.60288667" lon="-8.41197833">
        <ele>48.0</ele>
        <time>2019-05-17T15:42:50.165Z</time>
      </trkpt>
      <trkpt lat="39.60288667" lon="-8.41197833">
        <ele>48.0</ele>
        <time>2019-05-17T15:42:51.184Z</time>
      </trkpt>
      <trkpt lat="39.60286667" lon="-8.41202667">
        <ele>48.0</ele>
        <time>2019-05-17T15:42:52.186Z</time>
      </trkpt>
      <trkpt lat="39.60286667" lon="-8.41202667">
        <ele>48.0</ele>
        <time>2019-05-17T15:42:53.167Z</time>
      </trkpt>
      <trkpt lat="39.60281833" lon="-8.41205667">
        <ele>49.0</ele>
        <time>2019-05-17T15:42:54.170Z</time>
      </trkpt>
      <trkpt lat="39.60281833" lon="-8.41205667">
        <ele>49.0</ele>
        <time>2019-05-17T15:42:55.169Z</time>
      </trkpt>
      <trkpt lat="39.60278333" lon="-8.41209">
        <ele>49.0</ele>
        <time>2019-05-17T15:42:56.175Z</time>
      </trkpt>
      <trkpt lat="39.60278333" lon="-8.41209">
        <ele>49.0</ele>
        <time>2019-05-17T15:42:57.151Z</time>
      </trkpt>
      <trkpt lat="39.60275167" lon="-8.41211167">
        <ele>49.0</ele>
        <time>2019-05-17T15:42:58.185Z</time>
      </trkpt>
      <trkpt lat="39.60275167" lon="-8.41211167">
        <ele>49.0</ele>
        <time>2019-05-17T15:42:59.175Z</time>
      </trkpt>
      <trkpt lat="39.602725" lon="-8.41214333">
        <ele>50.0</ele>
        <time>2019-05-17T15:43:00.172Z</time>
      </trkpt>
      <trkpt lat="39.602725" lon="-8.41214333">
        <ele>50.0</ele>
        <time>2019-05-17T15:43:01.154Z</time>
      </trkpt>
      <trkpt lat="39.60270333" lon="-8.41214167">
        <ele>50.0</ele>
        <time>2019-05-17T15:43:02.155Z</time>
      </trkpt>
      <trkpt lat="39.60270333" lon="-8.41214167">
        <ele>50.0</ele>
        <time>2019-05-17T15:43:03.175Z</time>
      </trkpt>
      <trkpt lat="39.6027" lon="-8.41213833">
        <ele>50.0</ele>
        <time>2019-05-17T15:43:04.175Z</time>
      </trkpt>
      <trkpt lat="39.6027" lon="-8.41213833">
        <ele>50.0</ele>
        <time>2019-05-17T15:43:05.186Z</time>
      </trkpt>
      <trkpt lat="39.60269667" lon="-8.41212833">
        <ele>51.0</ele>
        <time>2019-05-17T15:43:06.187Z</time>
      </trkpt>
      <trkpt lat="39.60269667" lon="-8.41212833">
        <ele>51.0</ele>
        <time>2019-05-17T15:43:07.166Z</time>
      </trkpt>
      <trkpt lat="39.60269667" lon="-8.41212833">
        <ele>51.0</ele>
        <time>2019-05-17T15:43:08.172Z</time>
      </trkpt>
      <trkpt lat="39.60269667" lon="-8.41212833">
        <ele>51.0</ele>
        <time>2019-05-17T15:43:09.188Z</time>
      </trkpt>
      <trkpt lat="39.60269667" lon="-8.41212833">
        <ele>51.0</ele>
        <time>2019-05-17T15:43:10.160Z</time>
      </trkpt>
      <trkpt lat="39.60269667" lon="-8.41212833">
        <ele>51.0</ele>
        <time>2019-05-17T15:43:11.167Z</time>
      </trkpt>
      <trkpt lat="39.60269667" lon="-8.41212833">
        <ele>51.0</ele>
        <time>2019-05-17T15:43:12.172Z</time>
      </trkpt>
      <trkpt lat="39.60269667" lon="-8.41212833">
        <ele>51.0</ele>
        <time>2019-05-17T15:43:13.186Z</time>
      </trkpt>
      <trkpt lat="39.60269667" lon="-8.41212833">
        <ele>51.0</ele>
        <time>2019-05-17T15:43:14.181Z</time>
      </trkpt>
      <trkpt lat="39.60269667" lon="-8.41212833">
        <ele>51.0</ele>
        <time>2019-05-17T15:43:15.173Z</time>
      </trkpt>
      <trkpt lat="39.60269667" lon="-8.41212833">
        <ele>51.0</ele>
        <time>2019-05-17T15:43:16.178Z</time>
      </trkpt>
      <trkpt lat="39.60269667" lon="-8.41212833">
        <ele>51.0</ele>
        <time>2019-05-17T15:43:17.173Z</time>
      </trkpt>
      <trkpt lat="39.60269667" lon="-8.41212833">
        <ele>51.0</ele>
        <time>2019-05-17T15:43:18.178Z</time>
      </trkpt>
      <trkpt lat="39.60269667" lon="-8.41212833">
        <ele>51.0</ele>
        <time>2019-05-17T15:43:19.173Z</time>
      </trkpt>
      <trkpt lat="39.60269667" lon="-8.41212833">
        <ele>51.0</ele>
        <time>2019-05-17T15:43:20.180Z</time>
      </trkpt>
      <trkpt lat="39.60269667" lon="-8.41212833">
        <ele>51.0</ele>
        <time>2019-05-17T15:43:21.180Z</time>
      </trkpt>
      <trkpt lat="39.60269667" lon="-8.41212833">
        <ele>51.0</ele>
        <time>2019-05-17T15:43:22.173Z</time>
      </trkpt>
      <trkpt lat="39.60269667" lon="-8.41212833">
        <ele>51.0</ele>
        <time>2019-05-17T15:43:23.178Z</time>
      </trkpt>
      <trkpt lat="39.60269667" lon="-8.41212833">
        <ele>51.0</ele>
        <time>2019-05-17T15:43:24.174Z</time>
      </trkpt>
      <trkpt lat="39.60269667" lon="-8.41212833">
        <ele>51.0</ele>
        <time>2019-05-17T15:43:25.178Z</time>
      </trkpt>
      <trkpt lat="39.60269667" lon="-8.41212833">
        <ele>51.0</ele>
        <time>2019-05-17T15:43:26.177Z</time>
      </trkpt>
      <trkpt lat="39.60269667" lon="-8.41212833">
        <ele>51.0</ele>
        <time>2019-05-17T15:43:27.177Z</time>
      </trkpt>
      <trkpt lat="39.60269667" lon="-8.41212833">
        <ele>51.0</ele>
        <time>2019-05-17T15:43:28.177Z</time>
      </trkpt>
      <trkpt lat="39.60269667" lon="-8.41212833">
        <ele>51.0</ele>
        <time>2019-05-17T15:43:29.173Z</time>
      </trkpt>
      <trkpt lat="39.60270333" lon="-8.41214833">
        <ele>52.0</ele>
        <time>2019-05-17T15:43:30.175Z</time>
      </trkpt>
      <trkpt lat="39.60270333" lon="-8.41214833">
        <ele>52.0</ele>
        <time>2019-05-17T15:43:31.173Z</time>
      </trkpt>
      <trkpt lat="39.60272" lon="-8.41217167">
        <ele>52.0</ele>
        <time>2019-05-17T15:43:32.180Z</time>
      </trkpt>
      <trkpt lat="39.60272" lon="-8.41217167">
        <ele>52.0</ele>
        <time>2019-05-17T15:43:33.173Z</time>
      </trkpt>
      <trkpt lat="39.602745" lon="-8.4122">
        <ele>52.0</ele>
        <time>2019-05-17T15:43:34.175Z</time>
      </trkpt>
      <trkpt lat="39.602745" lon="-8.4122">
        <ele>52.0</ele>
        <time>2019-05-17T15:43:35.173Z</time>
      </trkpt>
      <trkpt lat="39.60277667" lon="-8.41223">
        <ele>52.0</ele>
        <time>2019-05-17T15:43:36.172Z</time>
      </trkpt>
      <trkpt lat="39.60277667" lon="-8.41223">
        <ele>52.0</ele>
        <time>2019-05-17T15:43:37.165Z</time>
      </trkpt>
      <trkpt lat="39.602815" lon="-8.41226667">
        <ele>52.0</ele>
        <time>2019-05-17T15:43:38.157Z</time>
      </trkpt>
      <trkpt lat="39.602815" lon="-8.41226667">
        <ele>52.0</ele>
        <time>2019-05-17T15:43:39.168Z</time>
      </trkpt>
      <trkpt lat="39.60286333" lon="-8.41231">
        <ele>52.0</ele>
        <time>2019-05-17T15:43:40.155Z</time>
      </trkpt>
      <trkpt lat="39.60288333" lon="-8.41232833">
        <ele>52.0</ele>
        <time>2019-05-17T15:43:41.165Z</time>
      </trkpt>
      <trkpt lat="39.60288333" lon="-8.41232833">
        <ele>52.0</ele>
        <time>2019-05-17T15:43:42.165Z</time>
      </trkpt>
      <trkpt lat="39.60291333" lon="-8.41236667">
        <ele>52.0</ele>
        <time>2019-05-17T15:43:43.173Z</time>
      </trkpt>
      <trkpt lat="39.602935" lon="-8.412365">
        <ele>52.0</ele>
        <time>2019-05-17T15:43:44.154Z</time>
      </trkpt>
      <trkpt lat="39.602935" lon="-8.412365">
        <ele>52.0</ele>
        <time>2019-05-17T15:43:45.169Z</time>
      </trkpt>
      <trkpt lat="39.60297167" lon="-8.412385">
        <ele>53.0</ele>
        <time>2019-05-17T15:43:46.156Z</time>
      </trkpt>
      <trkpt lat="39.60298333" lon="-8.4124">
        <ele>53.0</ele>
        <time>2019-05-17T15:43:47.166Z</time>
      </trkpt>
      <trkpt lat="39.60298333" lon="-8.4124">
        <ele>53.0</ele>
        <time>2019-05-17T15:43:48.155Z</time>
      </trkpt>
      <trkpt lat="39.60300833" lon="-8.41241833">
        <ele>53.0</ele>
        <time>2019-05-17T15:43:49.177Z</time>
      </trkpt>
      <trkpt lat="39.60302333" lon="-8.412425">
        <ele>53.0</ele>
        <time>2019-05-17T15:43:50.159Z</time>
      </trkpt>
      <trkpt lat="39.60302333" lon="-8.412425">
        <ele>53.0</ele>
        <time>2019-05-17T15:43:51.179Z</time>
      </trkpt>
      <trkpt lat="39.60306333" lon="-8.41244667">
        <ele>53.0</ele>
        <time>2019-05-17T15:43:52.150Z</time>
      </trkpt>
      <trkpt lat="39.60306333" lon="-8.41244667">
        <ele>53.0</ele>
        <time>2019-05-17T15:43:53.169Z</time>
      </trkpt>
      <trkpt lat="39.60310833" lon="-8.41246167">
        <ele>53.0</ele>
        <time>2019-05-17T15:43:54.184Z</time>
      </trkpt>
      <trkpt lat="39.60310833" lon="-8.41246167">
        <ele>53.0</ele>
        <time>2019-05-17T15:43:55.164Z</time>
      </trkpt>
      <trkpt lat="39.60315" lon="-8.41247833">
        <ele>53.0</ele>
        <time>2019-05-17T15:43:56.177Z</time>
      </trkpt>
      <trkpt lat="39.60315" lon="-8.41247833">
        <ele>53.0</ele>
        <time>2019-05-17T15:43:57.158Z</time>
      </trkpt>
      <trkpt lat="39.60318667" lon="-8.41250167">
        <ele>54.0</ele>
        <time>2019-05-17T15:43:58.185Z</time>
      </trkpt>
      <trkpt lat="39.60318667" lon="-8.41250167">
        <ele>54.0</ele>
        <time>2019-05-17T15:43:59.174Z</time>
      </trkpt>
      <trkpt lat="39.60322333" lon="-8.41252167">
        <ele>54.0</ele>
        <time>2019-05-17T15:44:00.165Z</time>
      </trkpt>
      <trkpt lat="39.60322333" lon="-8.41252167">
        <ele>54.0</ele>
        <time>2019-05-17T15:44:01.153Z</time>
      </trkpt>
      <trkpt lat="39.60325833" lon="-8.41254833">
        <ele>54.0</ele>
        <time>2019-05-17T15:44:02.184Z</time>
      </trkpt>
      <trkpt lat="39.60325833" lon="-8.41254833">
        <ele>54.0</ele>
        <time>2019-05-17T15:44:03.164Z</time>
      </trkpt>
      <trkpt lat="39.60329333" lon="-8.41257167">
        <ele>54.0</ele>
        <time>2019-05-17T15:44:04.177Z</time>
      </trkpt>
      <trkpt lat="39.60329333" lon="-8.41257167">
        <ele>54.0</ele>
        <time>2019-05-17T15:44:05.159Z</time>
      </trkpt>
      <trkpt lat="39.60333" lon="-8.41259833">
        <ele>55.0</ele>
        <time>2019-05-17T15:44:06.177Z</time>
      </trkpt>
      <trkpt lat="39.60333" lon="-8.41259833">
        <ele>55.0</ele>
        <time>2019-05-17T15:44:07.167Z</time>
      </trkpt>
      <trkpt lat="39.60336667" lon="-8.412625">
        <ele>55.0</ele>
        <time>2019-05-17T15:44:08.186Z</time>
      </trkpt>
      <trkpt lat="39.60336667" lon="-8.412625">
        <ele>55.0</ele>
        <time>2019-05-17T15:44:09.178Z</time>
      </trkpt>
      <trkpt lat="39.60338667" lon="-8.412665">
        <ele>55.0</ele>
        <time>2019-05-17T15:44:10.174Z</time>
      </trkpt>
      <trkpt lat="39.6034" lon="-8.41267667">
        <ele>55.0</ele>
        <time>2019-05-17T15:44:11.160Z</time>
      </trkpt>
      <trkpt lat="39.6034" lon="-8.41267667">
        <ele>55.0</ele>
        <time>2019-05-17T15:44:12.181Z</time>
      </trkpt>
      <trkpt lat="39.60343667" lon="-8.41269333">
        <ele>55.0</ele>
        <time>2019-05-17T15:44:13.155Z</time>
      </trkpt>
      <trkpt lat="39.60345333" lon="-8.4127">
        <ele>55.0</ele>
        <time>2019-05-17T15:44:14.188Z</time>
      </trkpt>
      <trkpt lat="39.60345333" lon="-8.4127">
        <ele>55.0</ele>
        <time>2019-05-17T15:44:15.168Z</time>
      </trkpt>
      <trkpt lat="39.60348833" lon="-8.41271">
        <ele>55.0</ele>
        <time>2019-05-17T15:44:16.152Z</time>
      </trkpt>
      <trkpt lat="39.60348833" lon="-8.41271">
        <ele>55.0</ele>
        <time>2019-05-17T15:44:17.175Z</time>
      </trkpt>
      <trkpt lat="39.603535" lon="-8.41271833">
        <ele>56.0</ele>
        <time>2019-05-17T15:44:18.166Z</time>
      </trkpt>
      <trkpt lat="39.603535" lon="-8.41271833">
        <ele>56.0</ele>
        <time>2019-05-17T15:44:19.187Z</time>
      </trkpt>
      <trkpt lat="39.603565" lon="-8.41274667">
        <ele>56.0</ele>
        <time>2019-05-17T15:44:20.153Z</time>
      </trkpt>
      <trkpt lat="39.603565" lon="-8.41274667">
        <ele>56.0</ele>
        <time>2019-05-17T15:44:21.172Z</time>
      </trkpt>
      <trkpt lat="39.6036" lon="-8.41276667">
        <ele>56.0</ele>
        <time>2019-05-17T15:44:22.153Z</time>
      </trkpt>
      <trkpt lat="39.6036" lon="-8.41276667">
        <ele>56.0</ele>
        <time>2019-05-17T15:44:23.172Z</time>
      </trkpt>
      <trkpt lat="39.60363" lon="-8.412795">
        <ele>56.0</ele>
        <time>2019-05-17T15:44:24.174Z</time>
      </trkpt>
      <trkpt lat="39.60363" lon="-8.412795">
        <ele>56.0</ele>
        <time>2019-05-17T15:44:25.155Z</time>
      </trkpt>
      <trkpt lat="39.60366667" lon="-8.412825">
        <ele>56.0</ele>
        <time>2019-05-17T15:44:26.172Z</time>
      </trkpt>
      <trkpt lat="39.60366667" lon="-8.412825">
        <ele>56.0</ele>
        <time>2019-05-17T15:44:27.154Z</time>
      </trkpt>
      <trkpt lat="39.60370333" lon="-8.41284667">
        <ele>57.0</ele>
        <time>2019-05-17T15:44:28.173Z</time>
      </trkpt>
      <trkpt lat="39.60370333" lon="-8.41284667">
        <ele>57.0</ele>
        <time>2019-05-17T15:44:29.155Z</time>
      </trkpt>
      <trkpt lat="39.60374" lon="-8.41286667">
        <ele>57.0</ele>
        <time>2019-05-17T15:44:30.177Z</time>
      </trkpt>
      <trkpt lat="39.60374" lon="-8.41286667">
        <ele>57.0</ele>
        <time>2019-05-17T15:44:31.161Z</time>
      </trkpt>
      <trkpt lat="39.60377" lon="-8.41288667">
        <ele>57.0</ele>
        <time>2019-05-17T15:44:32.178Z</time>
      </trkpt>
      <trkpt lat="39.60377" lon="-8.41288667">
        <ele>57.0</ele>
        <time>2019-05-17T15:44:33.165Z</time>
      </trkpt>
      <trkpt lat="39.60379667" lon="-8.4129">
        <ele>57.0</ele>
        <time>2019-05-17T15:44:34.189Z</time>
      </trkpt>
      <trkpt lat="39.60379667" lon="-8.4129">
        <ele>57.0</ele>
        <time>2019-05-17T15:44:35.171Z</time>
      </trkpt>
      <trkpt lat="39.60384333" lon="-8.412915">
        <ele>57.0</ele>
        <time>2019-05-17T15:44:36.156Z</time>
      </trkpt>
      <trkpt lat="39.60384333" lon="-8.412915">
        <ele>57.0</ele>
        <time>2019-05-17T15:44:37.179Z</time>
      </trkpt>
      <trkpt lat="39.60387" lon="-8.41293667">
        <ele>58.0</ele>
        <time>2019-05-17T15:44:38.173Z</time>
      </trkpt>
      <trkpt lat="39.60387" lon="-8.41293667">
        <ele>58.0</ele>
        <time>2019-05-17T15:44:39.167Z</time>
      </trkpt>
      <trkpt lat="39.603905" lon="-8.41294333">
        <ele>58.0</ele>
        <time>2019-05-17T15:44:40.182Z</time>
      </trkpt>
      <trkpt lat="39.603905" lon="-8.41294333">
        <ele>58.0</ele>
        <time>2019-05-17T15:44:41.173Z</time>
      </trkpt>
      <trkpt lat="39.60394167" lon="-8.41295833">
        <ele>58.0</ele>
        <time>2019-05-17T15:44:42.166Z</time>
      </trkpt>
      <trkpt lat="39.60394167" lon="-8.41295833">
        <ele>58.0</ele>
        <time>2019-05-17T15:44:43.187Z</time>
      </trkpt>
      <trkpt lat="39.603985" lon="-8.41297833">
        <ele>59.0</ele>
        <time>2019-05-17T15:44:44.158Z</time>
      </trkpt>
      <trkpt lat="39.603985" lon="-8.41297833">
        <ele>59.0</ele>
        <time>2019-05-17T15:44:45.178Z</time>
      </trkpt>
      <trkpt lat="39.60403667" lon="-8.41298333">
        <ele>59.0</ele>
        <time>2019-05-17T15:44:46.166Z</time>
      </trkpt>
      <trkpt lat="39.60403667" lon="-8.41298333">
        <ele>59.0</ele>
        <time>2019-05-17T15:44:47.173Z</time>
      </trkpt>
      <trkpt lat="39.604095" lon="-8.413005">
        <ele>59.0</ele>
        <time>2019-05-17T15:44:48.175Z</time>
      </trkpt>
      <trkpt lat="39.604095" lon="-8.413005">
        <ele>59.0</ele>
        <time>2019-05-17T15:44:49.154Z</time>
      </trkpt>
      <trkpt lat="39.60414833" lon="-8.413025">
        <ele>59.0</ele>
        <time>2019-05-17T15:44:50.194Z</time>
      </trkpt>
      <trkpt lat="39.60414833" lon="-8.413025">
        <ele>59.0</ele>
        <time>2019-05-17T15:44:51.183Z</time>
      </trkpt>
      <trkpt lat="39.60419167" lon="-8.41305167">
        <ele>59.0</ele>
        <time>2019-05-17T15:44:52.154Z</time>
      </trkpt>
      <trkpt lat="39.60419167" lon="-8.41305167">
        <ele>59.0</ele>
        <time>2019-05-17T15:44:53.174Z</time>
      </trkpt>
      <trkpt lat="39.60421167" lon="-8.41307333">
        <ele>59.0</ele>
        <time>2019-05-17T15:44:54.162Z</time>
      </trkpt>
      <trkpt lat="39.60421167" lon="-8.41307333">
        <ele>59.0</ele>
        <time>2019-05-17T15:44:55.181Z</time>
      </trkpt>
      <trkpt lat="39.60422" lon="-8.4131">
        <ele>60.0</ele>
        <time>2019-05-17T15:44:56.153Z</time>
      </trkpt>
      <trkpt lat="39.60422" lon="-8.4131">
        <ele>60.0</ele>
        <time>2019-05-17T15:44:57.173Z</time>
      </trkpt>
      <trkpt lat="39.60420833" lon="-8.413155">
        <ele>60.0</ele>
        <time>2019-05-17T15:44:58.163Z</time>
      </trkpt>
      <trkpt lat="39.60420167" lon="-8.41317833">
        <ele>60.0</ele>
        <time>2019-05-17T15:44:59.154Z</time>
      </trkpt>
      <trkpt lat="39.60420167" lon="-8.41317833">
        <ele>60.0</ele>
        <time>2019-05-17T15:45:00.187Z</time>
      </trkpt>
      <trkpt lat="39.604185" lon="-8.41323">
        <ele>60.0</ele>
        <time>2019-05-17T15:45:01.157Z</time>
      </trkpt>
      <trkpt lat="39.60417667" lon="-8.41325833">
        <ele>60.0</ele>
        <time>2019-05-17T15:45:02.180Z</time>
      </trkpt>
      <trkpt lat="39.60417667" lon="-8.41325833">
        <ele>60.0</ele>
        <time>2019-05-17T15:45:03.161Z</time>
      </trkpt>
      <trkpt lat="39.60416167" lon="-8.413305">
        <ele>59.0</ele>
        <time>2019-05-17T15:45:04.174Z</time>
      </trkpt>
      <trkpt lat="39.60416167" lon="-8.413305">
        <ele>59.0</ele>
        <time>2019-05-17T15:45:05.153Z</time>
      </trkpt>
      <trkpt lat="39.60415333" lon="-8.41331333">
        <ele>59.0</ele>
        <time>2019-05-17T15:45:06.160Z</time>
      </trkpt>
      <trkpt lat="39.604155" lon="-8.41331">
        <ele>59.0</ele>
        <time>2019-05-17T15:45:07.176Z</time>
      </trkpt>
      <trkpt lat="39.604155" lon="-8.41331">
        <ele>59.0</ele>
        <time>2019-05-17T15:45:08.159Z</time>
      </trkpt>
      <trkpt lat="39.60415667" lon="-8.41331333">
        <ele>59.0</ele>
        <time>2019-05-17T15:45:09.178Z</time>
      </trkpt>
      <trkpt lat="39.60415667" lon="-8.41331333">
        <ele>59.0</ele>
        <time>2019-05-17T15:45:10.187Z</time>
      </trkpt>
      <trkpt lat="39.60416833" lon="-8.41331833">
        <ele>59.0</ele>
        <time>2019-05-17T15:45:11.153Z</time>
      </trkpt>
      <trkpt lat="39.60416833" lon="-8.41331833">
        <ele>59.0</ele>
        <time>2019-05-17T15:45:12.159Z</time>
      </trkpt>
      <trkpt lat="39.60420833" lon="-8.41334">
        <ele>59.0</ele>
        <time>2019-05-17T15:45:13.166Z</time>
      </trkpt>
      <trkpt lat="39.60424167" lon="-8.41335167">
        <ele>59.0</ele>
        <time>2019-05-17T15:45:14.172Z</time>
      </trkpt>
      <trkpt lat="39.60424167" lon="-8.41335167">
        <ele>59.0</ele>
        <time>2019-05-17T15:45:15.174Z</time>
      </trkpt>
      <trkpt lat="39.604295" lon="-8.41338">
        <ele>59.0</ele>
        <time>2019-05-17T15:45:16.178Z</time>
      </trkpt>
      <trkpt lat="39.604295" lon="-8.41338">
        <ele>59.0</ele>
        <time>2019-05-17T15:45:17.174Z</time>
      </trkpt>
      <trkpt lat="39.60435833" lon="-8.41340167">
        <ele>59.0</ele>
        <time>2019-05-17T15:45:18.177Z</time>
      </trkpt>
      <trkpt lat="39.60435833" lon="-8.41340167">
        <ele>59.0</ele>
        <time>2019-05-17T15:45:19.158Z</time>
      </trkpt>
      <trkpt lat="39.604415" lon="-8.41342333">
        <ele>59.0</ele>
        <time>2019-05-17T15:45:20.183Z</time>
      </trkpt>
      <trkpt lat="39.604415" lon="-8.41342333">
        <ele>59.0</ele>
        <time>2019-05-17T15:45:21.165Z</time>
      </trkpt>
      <trkpt lat="39.60447667" lon="-8.413455">
        <ele>60.0</ele>
        <time>2019-05-17T15:45:22.179Z</time>
      </trkpt>
      <trkpt lat="39.60447667" lon="-8.413455">
        <ele>60.0</ele>
        <time>2019-05-17T15:45:23.167Z</time>
      </trkpt>
      <trkpt lat="39.60449667" lon="-8.413465">
        <ele>61.0</ele>
        <time>2019-05-17T15:45:24.177Z</time>
      </trkpt>
      <trkpt lat="39.604495" lon="-8.41345833">
        <ele>61.0</ele>
        <time>2019-05-17T15:45:25.163Z</time>
      </trkpt>
      <trkpt lat="39.60449833" lon="-8.41345167">
        <ele>60.0</ele>
        <time>2019-05-17T15:45:26.150Z</time>
      </trkpt>
      <trkpt lat="39.60449833" lon="-8.41345167">
        <ele>60.0</ele>
        <time>2019-05-17T15:45:27.169Z</time>
      </trkpt>
      <trkpt lat="39.60451167" lon="-8.41343333">
        <ele>60.0</ele>
        <time>2019-05-17T15:45:28.175Z</time>
      </trkpt>
      <trkpt lat="39.60451833" lon="-8.41341833">
        <ele>59.0</ele>
        <time>2019-05-17T15:45:29.155Z</time>
      </trkpt>
      <trkpt lat="39.60451833" lon="-8.41341833">
        <ele>59.0</ele>
        <time>2019-05-17T15:45:30.179Z</time>
      </trkpt>
      <trkpt lat="39.60453" lon="-8.41336833">
        <ele>59.0</ele>
        <time>2019-05-17T15:45:31.178Z</time>
      </trkpt>
      <trkpt lat="39.604535" lon="-8.41332833">
        <ele>58.0</ele>
        <time>2019-05-17T15:45:32.181Z</time>
      </trkpt>
      <trkpt lat="39.604535" lon="-8.41332833">
        <ele>58.0</ele>
        <time>2019-05-17T15:45:33.174Z</time>
      </trkpt>
      <trkpt lat="39.60454167" lon="-8.413225">
        <ele>58.0</ele>
        <time>2019-05-17T15:45:34.163Z</time>
      </trkpt>
      <trkpt lat="39.60454167" lon="-8.413225">
        <ele>58.0</ele>
        <time>2019-05-17T15:45:35.185Z</time>
      </trkpt>
      <trkpt lat="39.60456667" lon="-8.41312">
        <ele>56.0</ele>
        <time>2019-05-17T15:45:36.160Z</time>
      </trkpt>
      <trkpt lat="39.60456667" lon="-8.41312">
        <ele>56.0</ele>
        <time>2019-05-17T15:45:37.180Z</time>
      </trkpt>
      <trkpt lat="39.60459" lon="-8.41307833">
        <ele>55.0</ele>
        <time>2019-05-17T15:45:38.163Z</time>
      </trkpt>
      <trkpt lat="39.60459" lon="-8.41307833">
        <ele>55.0</ele>
        <time>2019-05-17T15:45:39.186Z</time>
      </trkpt>
      <trkpt lat="39.60458667" lon="-8.41307667">
        <ele>54.0</ele>
        <time>2019-05-17T15:45:40.168Z</time>
      </trkpt>
    </trkseg>
  </trk>
</gpx>
